<?xml version='1.0' encoding='UTF-8'?><gpx version="1.1" creator="JPX - https://github.com/jenetics/jpx" xmlns="http://www.topografix.com/GPX/1/1"><trk><trkseg><trkpt lat="36.40417809917272" lon="10.61210603988223"><ele>21.0</ele><time>2026-04-04T17:44:09Z</time></trkpt><trkpt lat="36.404255950861945" lon="10.612193062257168"><ele>21.0</ele><time>2026-04-04T17:44:11Z</time></trkpt><trkpt lat="36.4043572847972" lon="10.61228141752787"><ele>21.0</ele><time>2026-04-04T17:44:13Z</time></trkpt><trkpt lat="36.40441388063681" lon="10.612327671647453"><ele>21.0</ele><time>2026-04-04T17:44:14Z</time></trkpt><trkpt lat="36.40447400489556" lon="10.612368971826253"><ele>21.0</ele><time>2026-04-04T17:44:15Z</time></trkpt><trkpt lat="36.40454244781964" lon="10.61239746969747"><ele>21.0</ele><time>2026-04-04T17:44:16Z</time></trkpt><trkpt lat="36.40461648060079" lon="10.612419686065566"><ele>21.333333333333332</ele><time>2026-04-04T17:44:17Z</time></trkpt><trkpt lat="36.40469383737499" lon="10.612437608344948"><ele>21.666666666666668</ele><time>2026-04-04T17:44:18Z</time></trkpt><trkpt lat="36.404773176860935" lon="10.612454729375136"><ele>22.0</ele><time>2026-04-04T17:44:19Z</time></trkpt><trkpt lat="36.40485337959516" lon="10.612472685912408"><ele>22.333333333333336</ele><time>2026-04-04T17:44:20Z</time></trkpt><trkpt lat="36.40493588296988" lon="10.61249148853365"><ele>22.666666666666668</ele><time>2026-04-04T17:44:21Z</time></trkpt><trkpt lat="36.40501653251622" lon="10.612516468820994"><ele>23.0</ele><time>2026-04-04T17:44:22Z</time></trkpt><trkpt lat="36.40508422339021" lon="10.612536006303218"><ele>23.0</ele><time>2026-04-04T17:44:23Z</time></trkpt><trkpt lat="36.40520203235642" lon="10.61257570005371"><ele>23.0</ele><time>2026-04-04T17:44:25Z</time></trkpt><trkpt lat="36.40526570943956" lon="10.612600709204697"><ele>23.0</ele><time>2026-04-04T17:44:26Z</time></trkpt><trkpt lat="36.405344372343826" lon="10.612648126557971"><ele>23.0</ele><time>2026-04-04T17:44:27Z</time></trkpt><trkpt lat="36.40542173758901" lon="10.612715468614324"><ele>23.0</ele><time>2026-04-04T17:44:28Z</time></trkpt><trkpt lat="36.405476698136596" lon="10.612776006716675"><ele>23.0</ele><time>2026-04-04T17:44:29Z</time></trkpt><trkpt lat="36.405590509448274" lon="10.612801573509849"><ele>23.799999999999997</ele><time>2026-04-04T17:44:31Z</time></trkpt><trkpt lat="36.40565813316807" lon="10.612769213372362"><ele>24.6</ele><time>2026-04-04T17:44:32Z</time></trkpt><trkpt lat="36.40573582192943" lon="10.612690111182657"><ele>25.400000000000002</ele><time>2026-04-04T17:44:33Z</time></trkpt><trkpt lat="36.40582668105352" lon="10.612621653706348"><ele>26.200000000000003</ele><time>2026-04-04T17:44:34Z</time></trkpt><trkpt lat="36.405902548964434" lon="10.6125878338195"><ele>27.0</ele><time>2026-04-04T17:44:35Z</time></trkpt><trkpt lat="36.40601655049604" lon="10.61256159189799"><ele>27.0</ele><time>2026-04-04T17:44:37Z</time></trkpt><trkpt lat="36.40612978209574" lon="10.612535563583087"><ele>27.000000000000004</ele><time>2026-04-04T17:44:39Z</time></trkpt><trkpt lat="36.40623821003002" lon="10.612494095825575"><ele>27.000000000000004</ele><time>2026-04-04T17:44:41Z</time></trkpt><trkpt lat="36.40631975304916" lon="10.612462536614277"><ele>27.0</ele><time>2026-04-04T17:44:43Z</time></trkpt><trkpt lat="36.406411168051356" lon="10.612429835224972"><ele>27.0</ele><time>2026-04-04T17:44:45Z</time></trkpt><trkpt lat="36.40650967609112" lon="10.612391953273251"><ele>27.400000000000002</ele><time>2026-04-04T17:44:47Z</time></trkpt><trkpt lat="36.406609246858785" lon="10.612361767680738"><ele>27.800000000000004</ele><time>2026-04-04T17:44:49Z</time></trkpt><trkpt lat="36.40670078276375" lon="10.61233072728892"><ele>28.2</ele><time>2026-04-04T17:44:51Z</time></trkpt><trkpt lat="36.40680904510684" lon="10.612292446779898"><ele>28.6</ele><time>2026-04-04T17:44:53Z</time></trkpt><trkpt lat="36.40692477118225" lon="10.612251188867239"><ele>29.0</ele><time>2026-04-04T17:44:55Z</time></trkpt><trkpt lat="36.40704375835489" lon="10.61220275518605"><ele>29.4</ele><time>2026-04-04T17:44:57Z</time></trkpt><trkpt lat="36.40716253594986" lon="10.612160749543218"><ele>29.799999999999997</ele><time>2026-04-04T17:44:59Z</time></trkpt><trkpt lat="36.40722506348391" lon="10.612138665211997"><ele>30.200000000000003</ele><time>2026-04-04T17:45:00Z</time></trkpt><trkpt lat="36.407334740068514" lon="10.61209052160351"><ele>30.6</ele><time>2026-04-04T17:45:02Z</time></trkpt><trkpt lat="36.40741596439766" lon="10.612053754298788"><ele>31.0</ele><time>2026-04-04T17:45:04Z</time></trkpt><trkpt lat="36.407480859557104" lon="10.612020184080993"><ele>30.8</ele><time>2026-04-04T17:45:06Z</time></trkpt><trkpt lat="36.40757805972937" lon="10.611959442800336"><ele>30.6</ele><time>2026-04-04T17:45:09Z</time></trkpt><trkpt lat="36.40769380115572" lon="10.611893612256202"><ele>30.4</ele><time>2026-04-04T17:45:11Z</time></trkpt><trkpt lat="36.40775901660574" lon="10.61185325714934"><ele>30.2</ele><time>2026-04-04T17:45:12Z</time></trkpt><trkpt lat="36.407824392298544" lon="10.611799728366972"><ele>30.0</ele><time>2026-04-04T17:45:13Z</time></trkpt><trkpt lat="36.40789535020516" lon="10.61173636844214"><ele>30.0</ele><time>2026-04-04T17:45:14Z</time></trkpt><trkpt lat="36.407972831998926" lon="10.611663649418336"><ele>30.0</ele><time>2026-04-04T17:45:15Z</time></trkpt><trkpt lat="36.408042843898876" lon="10.611585008319246"><ele>30.0</ele><time>2026-04-04T17:45:16Z</time></trkpt><trkpt lat="36.4081043570173" lon="10.611510294389502"><ele>30.0</ele><time>2026-04-04T17:45:17Z</time></trkpt><trkpt lat="36.40816092231141" lon="10.611441770467975"><ele>30.0</ele><time>2026-04-04T17:45:18Z</time></trkpt><trkpt lat="36.40821511919823" lon="10.611371486711043"><ele>30.0</ele><time>2026-04-04T17:45:19Z</time></trkpt><trkpt lat="36.40827184782139" lon="10.611292028210084"><ele>30.0</ele><time>2026-04-04T17:45:20Z</time></trkpt><trkpt lat="36.40831080582972" lon="10.611199802280497"><ele>30.0</ele><time>2026-04-04T17:45:21Z</time></trkpt><trkpt lat="36.408330967284954" lon="10.61109669621102"><ele>30.0</ele><time>2026-04-04T17:45:22Z</time></trkpt><trkpt lat="36.40832963480132" lon="10.610988710343106"><ele>30.0</ele><time>2026-04-04T17:45:23Z</time></trkpt><trkpt lat="36.40829702906195" lon="10.610898178190947"><ele>30.0</ele><time>2026-04-04T17:45:24Z</time></trkpt><trkpt lat="36.40825523002068" lon="10.6108172885605"><ele>30.0</ele><time>2026-04-04T17:45:25Z</time></trkpt><trkpt lat="36.40820900679998" lon="10.610746345239585"><ele>29.857142857142858</ele><time>2026-04-04T17:45:26Z</time></trkpt><trkpt lat="36.408170041487956" lon="10.61067766132018"><ele>29.714285714285715</ele><time>2026-04-04T17:45:27Z</time></trkpt><trkpt lat="36.40812743736165" lon="10.610577228415519"><ele>29.571428571428573</ele><time>2026-04-04T17:45:29Z</time></trkpt><trkpt lat="36.40809362912339" lon="10.610509108076904"><ele>29.42857142857143</ele><time>2026-04-04T17:45:31Z</time></trkpt><trkpt lat="36.408057635353565" lon="10.610430465896982"><ele>29.285714285714285</ele><time>2026-04-04T17:45:34Z</time></trkpt><trkpt lat="36.40801973381864" lon="10.61036300280489"><ele>29.142857142857146</ele><time>2026-04-04T17:45:44Z</time></trkpt><trkpt lat="36.40798460073927" lon="10.610289914266449"><ele>29.000000000000004</ele><time>2026-04-04T17:45:46Z</time></trkpt><trkpt lat="36.40796212545484" lon="10.610200516129337"><ele>28.666666666666664</ele><time>2026-04-04T17:45:48Z</time></trkpt><trkpt lat="36.40800980228797" lon="10.610105659883702"><ele>28.333333333333332</ele><time>2026-04-04T17:45:50Z</time></trkpt><trkpt lat="36.40807240354083" lon="10.610070245340529"><ele>28.0</ele><time>2026-04-04T17:45:51Z</time></trkpt><trkpt lat="36.408134689249266" lon="10.610040738055337"><ele>27.666666666666664</ele><time>2026-04-04T17:45:52Z</time></trkpt><trkpt lat="36.40819714094252" lon="10.610022031937085"><ele>27.333333333333332</ele><time>2026-04-04T17:45:53Z</time></trkpt><trkpt lat="36.40830873731958" lon="10.609979154717987"><ele>27.0</ele><time>2026-04-04T17:45:55Z</time></trkpt><trkpt lat="36.40840144568765" lon="10.60992990786944"><ele>27.0</ele><time>2026-04-04T17:45:57Z</time></trkpt><trkpt lat="36.40849955244805" lon="10.60986803084004"><ele>27.0</ele><time>2026-04-04T17:45:59Z</time></trkpt><trkpt lat="36.40860638741394" lon="10.609811075505243"><ele>27.0</ele><time>2026-04-04T17:46:01Z</time></trkpt><trkpt lat="36.408719890422105" lon="10.609754132883511"><ele>27.0</ele><time>2026-04-04T17:46:03Z</time></trkpt><trkpt lat="36.40883420474146" lon="10.609697130041923"><ele>27.333333333333332</ele><time>2026-04-04T17:46:05Z</time></trkpt><trkpt lat="36.408943105501514" lon="10.609628543649922"><ele>27.666666666666664</ele><time>2026-04-04T17:46:07Z</time></trkpt><trkpt lat="36.4090303869446" lon="10.609579996390865"><ele>28.0</ele><time>2026-04-04T17:46:09Z</time></trkpt><trkpt lat="36.4090910317298" lon="10.609545139339422"><ele>28.333333333333332</ele><time>2026-04-04T17:46:13Z</time></trkpt><trkpt lat="36.40916008713372" lon="10.609511022131503"><ele>28.666666666666664</ele><time>2026-04-04T17:46:16.999Z</time></trkpt><trkpt lat="36.409221755419104" lon="10.609472811250395"><ele>29.0</ele><time>2026-04-04T17:46:19.999Z</time></trkpt><trkpt lat="36.40927506951248" lon="10.609429850825892"><ele>28.999999999999996</ele><time>2026-04-04T17:46:21.999Z</time></trkpt><trkpt lat="36.40934988284154" lon="10.609396437961545"><ele>29.0</ele><time>2026-04-04T17:46:24Z</time></trkpt><trkpt lat="36.409414228415976" lon="10.609366321854797"><ele>29.0</ele><time>2026-04-04T17:46:26Z</time></trkpt><trkpt lat="36.40947617783415" lon="10.609339986635986"><ele>29.0</ele><time>2026-04-04T17:46:28Z</time></trkpt><trkpt lat="36.40955272066984" lon="10.609321950715453"><ele>28.999999999999996</ele><time>2026-04-04T17:46:30Z</time></trkpt><trkpt lat="36.409635288254584" lon="10.609306464055152"><ele>29.0</ele><time>2026-04-04T17:46:33Z</time></trkpt><trkpt lat="36.409710529614884" lon="10.609313500732036"><ele>29.6</ele><time>2026-04-04T17:46:36Z</time></trkpt><trkpt lat="36.4097795862771" lon="10.609333311633742"><ele>30.2</ele><time>2026-04-04T17:46:40Z</time></trkpt><trkpt lat="36.409852891086125" lon="10.609420195171666"><ele>30.800000000000004</ele><time>2026-04-04T17:47:58Z</time></trkpt><trkpt lat="36.40990773150705" lon="10.60949240963459"><ele>31.400000000000002</ele><time>2026-04-04T17:48:00Z</time></trkpt><trkpt lat="36.409997943775835" lon="10.609504932502402"><ele>32.0</ele><time>2026-04-04T17:48:02Z</time></trkpt><trkpt lat="36.41008986667143" lon="10.60942913701694"><ele>32.166666666666664</ele><time>2026-04-04T17:48:04Z</time></trkpt><trkpt lat="36.410130234393456" lon="10.609352748134185"><ele>32.33333333333333</ele><time>2026-04-04T17:48:05Z</time></trkpt><trkpt lat="36.41017689042758" lon="10.609261904109156"><ele>32.5</ele><time>2026-04-04T17:48:06Z</time></trkpt><trkpt lat="36.410231151409484" lon="10.60919398394905"><ele>32.666666666666664</ele><time>2026-04-04T17:48:07Z</time></trkpt><trkpt lat="36.41028930836017" lon="10.609132011213465"><ele>32.833333333333336</ele><time>2026-04-04T17:48:08Z</time></trkpt><trkpt lat="36.41035374952647" lon="10.609068889335692"><ele>33.0</ele><time>2026-04-04T17:48:09Z</time></trkpt><trkpt lat="36.410437822560446" lon="10.609004283494725"><ele>33.4</ele><time>2026-04-04T17:48:10Z</time></trkpt><trkpt lat="36.41052460261178" lon="10.608942371088823"><ele>33.8</ele><time>2026-04-04T17:48:10.999Z</time></trkpt><trkpt lat="36.410613192897046" lon="10.608879269798065"><ele>34.2</ele><time>2026-04-04T17:48:11.999Z</time></trkpt><trkpt lat="36.41070888590808" lon="10.608823640746941"><ele>34.6</ele><time>2026-04-04T17:48:12.999Z</time></trkpt><trkpt lat="36.410812458389856" lon="10.608772685438291"><ele>35.0</ele><time>2026-04-04T17:48:13.999Z</time></trkpt><trkpt lat="36.410926442019495" lon="10.608718562622549"><ele>35.0</ele><time>2026-04-04T17:48:14.999Z</time></trkpt><trkpt lat="36.41104901210461" lon="10.608661275861746"><ele>35.0</ele><time>2026-04-04T17:48:15.999Z</time></trkpt><trkpt lat="36.41116803284885" lon="10.608607471708778"><ele>35.0</ele><time>2026-04-04T17:48:16.999Z</time></trkpt><trkpt lat="36.41127985702346" lon="10.608556469977147"><ele>35.0</ele><time>2026-04-04T17:48:17.999Z</time></trkpt><trkpt lat="36.41139258724792" lon="10.608506843917862"><ele>35.25</ele><time>2026-04-04T17:48:18.999Z</time></trkpt><trkpt lat="36.41150435994627" lon="10.60845503507934"><ele>35.5</ele><time>2026-04-04T17:48:19.999Z</time></trkpt><trkpt lat="36.411615897266856" lon="10.608403442245637"><ele>35.75</ele><time>2026-04-04T17:48:20.999Z</time></trkpt><trkpt lat="36.41172797727503" lon="10.608352119565282"><ele>36.0</ele><time>2026-04-04T17:48:21.999Z</time></trkpt><trkpt lat="36.41184307602473" lon="10.608300406984878"><ele>36.0</ele><time>2026-04-04T17:48:22.999Z</time></trkpt><trkpt lat="36.411964207206076" lon="10.60824922290901"><ele>36.0</ele><time>2026-04-04T17:48:23.999Z</time></trkpt><trkpt lat="36.412086904438894" lon="10.60819679717399"><ele>36.0</ele><time>2026-04-04T17:48:24.999Z</time></trkpt><trkpt lat="36.41221356748678" lon="10.608136170653932"><ele>36.0</ele><time>2026-04-04T17:48:25.999Z</time></trkpt><trkpt lat="36.41234358053774" lon="10.608074872738582"><ele>36.75</ele><time>2026-04-04T17:48:26.999Z</time></trkpt><trkpt lat="36.41248063920654" lon="10.608012834971237"><ele>37.5</ele><time>2026-04-04T17:48:27.999Z</time></trkpt><trkpt lat="36.41262048123864" lon="10.607948675218621"><ele>38.25</ele><time>2026-04-04T17:48:29Z</time></trkpt><trkpt lat="36.41275410137584" lon="10.607889457592112"><ele>39.0</ele><time>2026-04-04T17:48:30Z</time></trkpt><trkpt lat="36.41288437761264" lon="10.607835460678738"><ele>39.25</ele><time>2026-04-04T17:48:31Z</time></trkpt><trkpt lat="36.41301098480968" lon="10.607781239971526"><ele>39.5</ele><time>2026-04-04T17:48:32Z</time></trkpt><trkpt lat="36.413134962349886" lon="10.60771302007982"><ele>39.75</ele><time>2026-04-04T17:48:33Z</time></trkpt><trkpt lat="36.41325986565415" lon="10.607626074560878"><ele>40.0</ele><time>2026-04-04T17:48:34Z</time></trkpt><trkpt lat="36.41338501592343" lon="10.607525279853022"><ele>40.0</ele><time>2026-04-04T17:48:35Z</time></trkpt><trkpt lat="36.4135110495035" lon="10.607420303685963"><ele>40.0</ele><time>2026-04-04T17:48:36Z</time></trkpt><trkpt lat="36.41363085283465" lon="10.607304754865023"><ele>40.0</ele><time>2026-04-04T17:48:37Z</time></trkpt><trkpt lat="36.41373463103236" lon="10.607188595406232"><ele>40.0</ele><time>2026-04-04T17:48:38Z</time></trkpt><trkpt lat="36.413834478934334" lon="10.607079512937368"><ele>40.5</ele><time>2026-04-04T17:48:39Z</time></trkpt><trkpt lat="36.413937934078234" lon="10.606979104798674"><ele>41.0</ele><time>2026-04-04T17:48:40Z</time></trkpt><trkpt lat="36.41404826895725" lon="10.60687842967431"><ele>41.5</ele><time>2026-04-04T17:48:41Z</time></trkpt><trkpt lat="36.41415700503733" lon="10.606782061646665"><ele>42.0</ele><time>2026-04-04T17:48:42Z</time></trkpt><trkpt lat="36.41426644915124" lon="10.60668670926528"><ele>42.0</ele><time>2026-04-04T17:48:43Z</time></trkpt><trkpt lat="36.41437824168681" lon="10.606588454185708"><ele>42.0</ele><time>2026-04-04T17:48:44Z</time></trkpt><trkpt lat="36.41448928528884" lon="10.606487692754026"><ele>42.0</ele><time>2026-04-04T17:48:45Z</time></trkpt><trkpt lat="36.41459986041537" lon="10.60638357235535"><ele>42.0</ele><time>2026-04-04T17:48:46Z</time></trkpt><trkpt lat="36.4147130353036" lon="10.606276981239986"><ele>42.0</ele><time>2026-04-04T17:48:47Z</time></trkpt><trkpt lat="36.4148287879931" lon="10.60617009593583"><ele>42.0</ele><time>2026-04-04T17:48:48Z</time></trkpt><trkpt lat="36.41494420491914" lon="10.606063754210314"><ele>42.0</ele><time>2026-04-04T17:48:49Z</time></trkpt><trkpt lat="36.41506131109397" lon="10.605954920241333"><ele>42.0</ele><time>2026-04-04T17:48:50Z</time></trkpt><trkpt lat="36.41517946189991" lon="10.605845445994458"><ele>42.0</ele><time>2026-04-04T17:48:51Z</time></trkpt><trkpt lat="36.41529784416272" lon="10.60573592980816"><ele>42.0</ele><time>2026-04-04T17:48:52Z</time></trkpt><trkpt lat="36.41541570413419" lon="10.60562106545787"><ele>42.0</ele><time>2026-04-04T17:48:53Z</time></trkpt><trkpt lat="36.41553334830675" lon="10.605501604937189"><ele>42.0</ele><time>2026-04-04T17:48:54Z</time></trkpt><trkpt lat="36.41564785758377" lon="10.605376854122335"><ele>41.0</ele><time>2026-04-04T17:48:55Z</time></trkpt><trkpt lat="36.41576377316829" lon="10.605249075666846"><ele>40.0</ele><time>2026-04-04T17:48:56Z</time></trkpt><trkpt lat="36.41587741422465" lon="10.605117243401898"><ele>39.0</ele><time>2026-04-04T17:48:57Z</time></trkpt><trkpt lat="36.415989435993836" lon="10.604977709490168"><ele>39.0</ele><time>2026-04-04T17:48:58Z</time></trkpt><trkpt lat="36.41609637800358" lon="10.60484163662797"><ele>39.0</ele><time>2026-04-04T17:48:59Z</time></trkpt><trkpt lat="36.416202457352504" lon="10.604700808134599"><ele>39.0</ele><time>2026-04-04T17:49:00Z</time></trkpt><trkpt lat="36.41630349402564" lon="10.604560255628533"><ele>39.333333333333336</ele><time>2026-04-04T17:49:01Z</time></trkpt><trkpt lat="36.416401465388546" lon="10.604417708050624"><ele>39.66666666666667</ele><time>2026-04-04T17:49:02Z</time></trkpt><trkpt lat="36.41649668930632" lon="10.604272284048418"><ele>40.0</ele><time>2026-04-04T17:49:03Z</time></trkpt><trkpt lat="36.41659215731484" lon="10.604124214332918"><ele>40.0</ele><time>2026-04-04T17:49:04Z</time></trkpt><trkpt lat="36.416687549084266" lon="10.60397278789502"><ele>40.0</ele><time>2026-04-04T17:49:05Z</time></trkpt><trkpt lat="36.416781339194536" lon="10.603814736132687"><ele>40.0</ele><time>2026-04-04T17:49:06Z</time></trkpt><trkpt lat="36.41687225284982" lon="10.603653178126873"><ele>39.333333333333336</ele><time>2026-04-04T17:49:07Z</time></trkpt><trkpt lat="36.41696409916105" lon="10.603489656568003"><ele>38.666666666666664</ele><time>2026-04-04T17:49:08Z</time></trkpt><trkpt lat="36.417057134535085" lon="10.60332700780011"><ele>38.0</ele><time>2026-04-04T17:49:09Z</time></trkpt><trkpt lat="36.41714960467134" lon="10.60316702019646"><ele>39.33333333333333</ele><time>2026-04-04T17:49:10Z</time></trkpt><trkpt lat="36.417247653706745" lon="10.603002772157549"><ele>40.666666666666664</ele><time>2026-04-04T17:49:11Z</time></trkpt><trkpt lat="36.41734715984164" lon="10.602840550188555"><ele>42.0</ele><time>2026-04-04T17:49:12Z</time></trkpt><trkpt lat="36.417448547083445" lon="10.602679026160969"><ele>42.0</ele><time>2026-04-04T17:49:13Z</time></trkpt><trkpt lat="36.41755450618783" lon="10.602513331563918"><ele>42.0</ele><time>2026-04-04T17:49:14Z</time></trkpt><trkpt lat="36.41766325179061" lon="10.602345826307234"><ele>42.0</ele><time>2026-04-04T17:49:15Z</time></trkpt><trkpt lat="36.417775514285744" lon="10.60218423114341"><ele>42.0</ele><time>2026-04-04T17:49:16Z</time></trkpt><trkpt lat="36.41788051927534" lon="10.60203440772197"><ele>42.0</ele><time>2026-04-04T17:49:17Z</time></trkpt><trkpt lat="36.41798379653118" lon="10.60188761830553"><ele>42.0</ele><time>2026-04-04T17:49:18Z</time></trkpt><trkpt lat="36.41809017830619" lon="10.601741435892254"><ele>42.333333333333336</ele><time>2026-04-04T17:49:19Z</time></trkpt><trkpt lat="36.41819509063091" lon="10.601597764558674"><ele>42.66666666666667</ele><time>2026-04-04T17:49:20Z</time></trkpt><trkpt lat="36.41830112689833" lon="10.60145521718242"><ele>43.0</ele><time>2026-04-04T17:49:21Z</time></trkpt><trkpt lat="36.418407380193074" lon="10.601315762952922"><ele>43.0</ele><time>2026-04-04T17:49:22Z</time></trkpt><trkpt lat="36.41851540839961" lon="10.601179316172496"><ele>43.0</ele><time>2026-04-04T17:49:23Z</time></trkpt><trkpt lat="36.41862402233626" lon="10.601047080981902"><ele>43.0</ele><time>2026-04-04T17:49:24Z</time></trkpt><trkpt lat="36.41873202228855" lon="10.600918658651977"><ele>43.5</ele><time>2026-04-04T17:49:25Z</time></trkpt><trkpt lat="36.41884200120091" lon="10.600797448932301"><ele>44.0</ele><time>2026-04-04T17:49:26Z</time></trkpt><trkpt lat="36.418950381489736" lon="10.600669613409769"><ele>44.5</ele><time>2026-04-04T17:49:27Z</time></trkpt><trkpt lat="36.41905714353043" lon="10.600548952160002"><ele>45.0</ele><time>2026-04-04T17:49:28Z</time></trkpt><trkpt lat="36.41916496508923" lon="10.600426510234955"><ele>44.5</ele><time>2026-04-04T17:49:29Z</time></trkpt><trkpt lat="36.419271910395466" lon="10.600311582438966"><ele>44.0</ele><time>2026-04-04T17:49:30Z</time></trkpt><trkpt lat="36.419380197201924" lon="10.600200293862626"><ele>43.5</ele><time>2026-04-04T17:49:31Z</time></trkpt><trkpt lat="36.419489739952006" lon="10.600090029053726"><ele>43.0</ele><time>2026-04-04T17:49:32Z</time></trkpt><trkpt lat="36.41959620344153" lon="10.599980397686133"><ele>43.5</ele><time>2026-04-04T17:49:33Z</time></trkpt><trkpt lat="36.41969954762078" lon="10.59987462967869"><ele>44.0</ele><time>2026-04-04T17:49:34Z</time></trkpt><trkpt lat="36.41980398527291" lon="10.599767547993046"><ele>44.5</ele><time>2026-04-04T17:49:35Z</time></trkpt><trkpt lat="36.41990702977009" lon="10.5996600441804"><ele>45.0</ele><time>2026-04-04T17:49:36Z</time></trkpt><trkpt lat="36.420008614438025" lon="10.599552595755135"><ele>44.5</ele><time>2026-04-04T17:49:37Z</time></trkpt><trkpt lat="36.42011368831762" lon="10.59943931087374"><ele>44.0</ele><time>2026-04-04T17:49:38Z</time></trkpt><trkpt lat="36.420218779092515" lon="10.599315303192004"><ele>43.5</ele><time>2026-04-04T17:49:39Z</time></trkpt><trkpt lat="36.42032273617777" lon="10.59918718060844"><ele>43.0</ele><time>2026-04-04T17:49:40Z</time></trkpt><trkpt lat="36.4204301993238" lon="10.599062799765097"><ele>43.0</ele><time>2026-04-04T17:49:41Z</time></trkpt><trkpt lat="36.42054205457543" lon="10.598942789974293"><ele>43.0</ele><time>2026-04-04T17:49:42Z</time></trkpt><trkpt lat="36.42065042772054" lon="10.59881948731954"><ele>43.0</ele><time>2026-04-04T17:49:43Z</time></trkpt><trkpt lat="36.420755886377236" lon="10.598689150691047"><ele>43.0</ele><time>2026-04-04T17:49:44Z</time></trkpt><trkpt lat="36.42086424993958" lon="10.59855699412581"><ele>42.66666666666667</ele><time>2026-04-04T17:49:45Z</time></trkpt><trkpt lat="36.42097163919905" lon="10.598417906029031"><ele>42.333333333333336</ele><time>2026-04-04T17:49:46Z</time></trkpt><trkpt lat="36.42109169081662" lon="10.598260846500947"><ele>42.0</ele><time>2026-04-04T17:49:47Z</time></trkpt><trkpt lat="36.42123318199233" lon="10.598072406000437"><ele>42.333333333333336</ele><time>2026-04-04T17:49:48Z</time></trkpt><trkpt lat="36.42138031905489" lon="10.59786872691722"><ele>42.66666666666667</ele><time>2026-04-04T17:49:49Z</time></trkpt><trkpt lat="36.42151812206809" lon="10.597676862341713"><ele>43.0</ele><time>2026-04-04T17:49:50Z</time></trkpt><trkpt lat="36.4216480922082" lon="10.59749484186062"><ele>43.0</ele><time>2026-04-04T17:49:51Z</time></trkpt><trkpt lat="36.421773084321295" lon="10.597308349939414"><ele>43.0</ele><time>2026-04-04T17:49:52Z</time></trkpt><trkpt lat="36.42189395485183" lon="10.597124536041385"><ele>43.0</ele><time>2026-04-04T17:49:53Z</time></trkpt><trkpt lat="36.422005092915576" lon="10.596953945300116"><ele>43.333333333333336</ele><time>2026-04-04T17:49:54Z</time></trkpt><trkpt lat="36.42211033101556" lon="10.596792002168684"><ele>43.666666666666664</ele><time>2026-04-04T17:49:55Z</time></trkpt><trkpt lat="36.42220940020353" lon="10.596637699843654"><ele>44.0</ele><time>2026-04-04T17:49:56Z</time></trkpt><trkpt lat="36.42229884426449" lon="10.59649148216788"><ele>44.0</ele><time>2026-04-04T17:49:57Z</time></trkpt><trkpt lat="36.422384825575136" lon="10.596349707701549"><ele>44.0</ele><time>2026-04-04T17:49:58Z</time></trkpt><trkpt lat="36.42246727552459" lon="10.596212463727671"><ele>44.0</ele><time>2026-04-04T17:49:59Z</time></trkpt><trkpt lat="36.42262521121674" lon="10.595939584445608"><ele>43.75</ele><time>2026-04-04T17:50:01Z</time></trkpt><trkpt lat="36.4227064900202" lon="10.595795660950152"><ele>43.5</ele><time>2026-04-04T17:50:02Z</time></trkpt><trkpt lat="36.422791931596" lon="10.595641516548056"><ele>43.25</ele><time>2026-04-04T17:50:03Z</time></trkpt><trkpt lat="36.42287910588941" lon="10.595482140333692"><ele>43.0</ele><time>2026-04-04T17:50:04Z</time></trkpt><trkpt lat="36.4229705022723" lon="10.595318483457973"><ele>43.0</ele><time>2026-04-04T17:50:05Z</time></trkpt><trkpt lat="36.42307252300331" lon="10.595149227703034"><ele>43.0</ele><time>2026-04-04T17:50:06Z</time></trkpt><trkpt lat="36.42318444429681" lon="10.594979029543051"><ele>43.0</ele><time>2026-04-04T17:50:07Z</time></trkpt><trkpt lat="36.42331718948011" lon="10.594807348585599"><ele>43.0</ele><time>2026-04-04T17:50:08Z</time></trkpt><trkpt lat="36.4234647766443" lon="10.594635078769087"><ele>43.0</ele><time>2026-04-04T17:50:09Z</time></trkpt><trkpt lat="36.42362798733265" lon="10.594462068351616"><ele>43.0</ele><time>2026-04-04T17:50:10Z</time></trkpt><trkpt lat="36.42380983294588" lon="10.594291225617482"><ele>43.0</ele><time>2026-04-04T17:50:11Z</time></trkpt><trkpt lat="36.42400355868021" lon="10.594133618790428"><ele>43.0</ele><time>2026-04-04T17:50:12Z</time></trkpt><trkpt lat="36.42419153008017" lon="10.59400032186264"><ele>43.0</ele><time>2026-04-04T17:50:13Z</time></trkpt><trkpt lat="36.4243905617182" lon="10.593872065015255"><ele>43.0</ele><time>2026-04-04T17:50:13.999Z</time></trkpt><trkpt lat="36.42459789966139" lon="10.593748884563261"><ele>43.0</ele><time>2026-04-04T17:50:14.999Z</time></trkpt><trkpt lat="36.42480932874341" lon="10.593637393962979"><ele>44.0</ele><time>2026-04-04T17:50:15.999Z</time></trkpt><trkpt lat="36.425035280381366" lon="10.593542834310055"><ele>45.0</ele><time>2026-04-04T17:50:16.999Z</time></trkpt><trkpt lat="36.42528239509217" lon="10.593458665987145"><ele>46.0</ele><time>2026-04-04T17:50:17.999Z</time></trkpt><trkpt lat="36.42552913674385" lon="10.59338524040197"><ele>47.0</ele><time>2026-04-04T17:50:18.999Z</time></trkpt><trkpt lat="36.42576709912857" lon="10.593319617538956"><ele>47.0</ele><time>2026-04-04T17:50:19.999Z</time></trkpt><trkpt lat="36.425990347989384" lon="10.593256111579818"><ele>47.0</ele><time>2026-04-04T17:50:20.999Z</time></trkpt><trkpt lat="36.42621657747651" lon="10.593187610711189"><ele>48.5</ele><time>2026-04-04T17:50:21.999Z</time></trkpt><trkpt lat="36.42645538566219" lon="10.593113828125253"><ele>50.0</ele><time>2026-04-04T17:50:22.999Z</time></trkpt><trkpt lat="36.42671371650944" lon="10.593035326306584"><ele>50.0</ele><time>2026-04-04T17:50:23.999Z</time></trkpt><trkpt lat="36.42697218643985" lon="10.592957687216389"><ele>50.0</ele><time>2026-04-04T17:50:24.999Z</time></trkpt><trkpt lat="36.427221359566325" lon="10.592892615878284"><ele>49.5</ele><time>2026-04-04T17:50:25.999Z</time></trkpt><trkpt lat="36.427455632134794" lon="10.592840242880627"><ele>49.0</ele><time>2026-04-04T17:50:26.999Z</time></trkpt><trkpt lat="36.42767666105781" lon="10.592797188294188"><ele>49.0</ele><time>2026-04-04T17:50:27.999Z</time></trkpt><trkpt lat="36.42789285200708" lon="10.592762927623653"><ele>49.0</ele><time>2026-04-04T17:50:28.999Z</time></trkpt><trkpt lat="36.4281116697349" lon="10.592730687650407"><ele>49.0</ele><time>2026-04-04T17:50:29.999Z</time></trkpt><trkpt lat="36.428329502288996" lon="10.592693002062564"><ele>50.0</ele><time>2026-04-04T17:50:30.999Z</time></trkpt><trkpt lat="36.42855207889995" lon="10.59265201227645"><ele>51.0</ele><time>2026-04-04T17:50:31.999Z</time></trkpt><trkpt lat="36.428785019506456" lon="10.592611251538306"><ele>51.5</ele><time>2026-04-04T17:50:32.999Z</time></trkpt><trkpt lat="36.42902250086529" lon="10.592572879649403"><ele>52.0</ele><time>2026-04-04T17:50:33.999Z</time></trkpt><trkpt lat="36.429255462981835" lon="10.592535403995392"><ele>52.0</ele><time>2026-04-04T17:50:35Z</time></trkpt><trkpt lat="36.42949083170734" lon="10.592495129589706"><ele>52.0</ele><time>2026-04-04T17:50:36Z</time></trkpt><trkpt lat="36.429723562704154" lon="10.592452230037747"><ele>52.5</ele><time>2026-04-04T17:50:37Z</time></trkpt><trkpt lat="36.42995926801473" lon="10.592409400400497"><ele>53.0</ele><time>2026-04-04T17:50:38Z</time></trkpt><trkpt lat="36.43020014318035" lon="10.592367489038471"><ele>53.0</ele><time>2026-04-04T17:50:39Z</time></trkpt><trkpt lat="36.43042325075996" lon="10.59231793322402"><ele>53.0</ele><time>2026-04-04T17:50:40Z</time></trkpt><trkpt lat="36.43062638620222" lon="10.592251596182257"><ele>53.0</ele><time>2026-04-04T17:50:41Z</time></trkpt><trkpt lat="36.43082361222202" lon="10.592180559778663"><ele>53.66666666666667</ele><time>2026-04-04T17:50:42Z</time></trkpt><trkpt lat="36.43102359561388" lon="10.592094299867826"><ele>54.33333333333333</ele><time>2026-04-04T17:50:43Z</time></trkpt><trkpt lat="36.431221198844156" lon="10.591997094730502"><ele>55.0</ele><time>2026-04-04T17:50:44Z</time></trkpt><trkpt lat="36.4314148964133" lon="10.591883331391319"><ele>53.33333333333333</ele><time>2026-04-04T17:50:45Z</time></trkpt><trkpt lat="36.431605925279726" lon="10.591751207725219"><ele>51.66666666666667</ele><time>2026-04-04T17:50:46Z</time></trkpt><trkpt lat="36.4317998717625" lon="10.591607823692698"><ele>50.0</ele><time>2026-04-04T17:50:47Z</time></trkpt><trkpt lat="36.432005264318434" lon="10.591448559321833"><ele>50.0</ele><time>2026-04-04T17:50:48Z</time></trkpt><trkpt lat="36.43220105668406" lon="10.591288970059056"><ele>50.0</ele><time>2026-04-04T17:50:49Z</time></trkpt><trkpt lat="36.43238486555364" lon="10.591143786516751"><ele>50.333333333333336</ele><time>2026-04-04T17:50:50Z</time></trkpt><trkpt lat="36.43256828352157" lon="10.59101681746839"><ele>50.66666666666667</ele><time>2026-04-04T17:50:51Z</time></trkpt><trkpt lat="36.43277065884024" lon="10.590894545021516"><ele>51.0</ele><time>2026-04-04T17:50:52Z</time></trkpt><trkpt lat="36.43298594753566" lon="10.590781377588426"><ele>53.5</ele><time>2026-04-04T17:50:53Z</time></trkpt><trkpt lat="36.43321398090071" lon="10.5906806254391"><ele>56.0</ele><time>2026-04-04T17:50:54Z</time></trkpt><trkpt lat="36.433443443424146" lon="10.59059555740309"><ele>56.0</ele><time>2026-04-04T17:50:55Z</time></trkpt><trkpt lat="36.43367077123511" lon="10.590528200854147"><ele>56.0</ele><time>2026-04-04T17:50:56Z</time></trkpt><trkpt lat="36.43390305377737" lon="10.590480302430647"><ele>59.0</ele><time>2026-04-04T17:50:57Z</time></trkpt><trkpt lat="36.43414238169573" lon="10.590446350055869"><ele>62.0</ele><time>2026-04-04T17:50:58Z</time></trkpt><trkpt lat="36.4343712714549" lon="10.590428114771703"><ele>62.0</ele><time>2026-04-04T17:50:59Z</time></trkpt><trkpt lat="36.43457552767337" lon="10.590410554328702"><ele>62.0</ele><time>2026-04-04T17:51:00Z</time></trkpt><trkpt lat="36.43476492709918" lon="10.590391121692981"><ele>62.0</ele><time>2026-04-04T17:51:01Z</time></trkpt><trkpt lat="36.43494873013607" lon="10.59037020994272"><ele>64.33333333333334</ele><time>2026-04-04T17:51:02Z</time></trkpt><trkpt lat="36.43512353898842" lon="10.59034815677963"><ele>66.66666666666667</ele><time>2026-04-04T17:51:03Z</time></trkpt><trkpt lat="36.43529676071252" lon="10.59033065233528"><ele>69.0</ele><time>2026-04-04T17:51:04Z</time></trkpt><trkpt lat="36.435470611178225" lon="10.590312121743732"><ele>70.66666666666667</ele><time>2026-04-04T17:51:05Z</time></trkpt><trkpt lat="36.43564135261977" lon="10.590291953489702"><ele>72.33333333333334</ele><time>2026-04-04T17:51:06Z</time></trkpt><trkpt lat="36.43581426021538" lon="10.590266873927385"><ele>74.0</ele><time>2026-04-04T17:51:07Z</time></trkpt><trkpt lat="36.435986479669616" lon="10.590230180015428"><ele>74.0</ele><time>2026-04-04T17:51:08Z</time></trkpt><trkpt lat="36.43615972897802" lon="10.590180643255698"><ele>74.0</ele><time>2026-04-04T17:51:09Z</time></trkpt><trkpt lat="36.4363396410137" lon="10.59012001538549"><ele>74.0</ele><time>2026-04-04T17:51:10Z</time></trkpt><trkpt lat="36.43652942011377" lon="10.590044380973032"><ele>73.66666666666667</ele><time>2026-04-04T17:51:11Z</time></trkpt><trkpt lat="36.436723526441284" lon="10.589952810679211"><ele>73.33333333333333</ele><time>2026-04-04T17:51:12Z</time></trkpt><trkpt lat="36.436922805310495" lon="10.589834433959751"><ele>73.0</ele><time>2026-04-04T17:51:13Z</time></trkpt><trkpt lat="36.437117602421175" lon="10.589695623240573"><ele>72.33333333333333</ele><time>2026-04-04T17:51:14Z</time></trkpt><trkpt lat="36.437297800335564" lon="10.589553212942706"><ele>71.66666666666667</ele><time>2026-04-04T17:51:15Z</time></trkpt><trkpt lat="36.437472318154555" lon="10.589400456178069"><ele>71.0</ele><time>2026-04-04T17:51:16Z</time></trkpt><trkpt lat="36.437635460823294" lon="10.589243061742028"><ele>69.66666666666667</ele><time>2026-04-04T17:51:17Z</time></trkpt><trkpt lat="36.437791306251576" lon="10.589079098676601"><ele>68.33333333333333</ele><time>2026-04-04T17:51:18Z</time></trkpt><trkpt lat="36.43794296268879" lon="10.588905582201413"><ele>67.0</ele><time>2026-04-04T17:51:19Z</time></trkpt><trkpt lat="36.43809248680365" lon="10.588731444844546"><ele>66.0</ele><time>2026-04-04T17:51:20Z</time></trkpt><trkpt lat="36.43824185771546" lon="10.588556703958998"><ele>65.0</ele><time>2026-04-04T17:51:21Z</time></trkpt><trkpt lat="36.438394645827316" lon="10.588380016688888"><ele>64.0</ele><time>2026-04-04T17:51:22Z</time></trkpt><trkpt lat="36.43855504296487" lon="10.58820246085337"><ele>64.0</ele><time>2026-04-04T17:51:23Z</time></trkpt><trkpt lat="36.438714842423416" lon="10.588027593802053"><ele>64.0</ele><time>2026-04-04T17:51:24Z</time></trkpt><trkpt lat="36.438868583279586" lon="10.587847989396076"><ele>64.0</ele><time>2026-04-04T17:51:25Z</time></trkpt><trkpt lat="36.43902233033794" lon="10.587666342075806"><ele>65.66666666666666</ele><time>2026-04-04T17:51:26Z</time></trkpt><trkpt lat="36.439176322765896" lon="10.587489395679574"><ele>67.33333333333333</ele><time>2026-04-04T17:51:27Z</time></trkpt><trkpt lat="36.43932729974454" lon="10.587317469638652"><ele>69.0</ele><time>2026-04-04T17:51:28Z</time></trkpt><trkpt lat="36.43947296218722" lon="10.587151988755975"><ele>69.0</ele><time>2026-04-04T17:51:29Z</time></trkpt><trkpt lat="36.43961711618208" lon="10.586987585747194"><ele>69.0</ele><time>2026-04-04T17:51:30Z</time></trkpt><trkpt lat="36.439765983642076" lon="10.58681975523534"><ele>69.0</ele><time>2026-04-04T17:51:31Z</time></trkpt><trkpt lat="36.43991541433526" lon="10.586647099268207"><ele>69.0</ele><time>2026-04-04T17:51:32Z</time></trkpt><trkpt lat="36.440065652397955" lon="10.586473381250215"><ele>69.0</ele><time>2026-04-04T17:51:33Z</time></trkpt><trkpt lat="36.44021847547607" lon="10.586295270629375"><ele>69.0</ele><time>2026-04-04T17:51:34Z</time></trkpt><trkpt lat="36.44036812537553" lon="10.586120148251945"><ele>67.33333333333333</ele><time>2026-04-04T17:51:35Z</time></trkpt><trkpt lat="36.44051921235649" lon="10.585942785140405"><ele>65.66666666666666</ele><time>2026-04-04T17:51:36Z</time></trkpt><trkpt lat="36.44066848859019" lon="10.585764300871713"><ele>64.0</ele><time>2026-04-04T17:51:37Z</time></trkpt><trkpt lat="36.440817634864864" lon="10.585583274234285"><ele>64.0</ele><time>2026-04-04T17:51:38Z</time></trkpt><trkpt lat="36.440964863652304" lon="10.585402052715738"><ele>64.0</ele><time>2026-04-04T17:51:39Z</time></trkpt><trkpt lat="36.44111078409858" lon="10.585223643420042"><ele>64.0</ele><time>2026-04-04T17:51:40Z</time></trkpt><trkpt lat="36.44126017380058" lon="10.585043497385797"><ele>64.66666666666666</ele><time>2026-04-04T17:51:41Z</time></trkpt><trkpt lat="36.44141124183662" lon="10.58486533572383"><ele>65.33333333333333</ele><time>2026-04-04T17:51:42Z</time></trkpt><trkpt lat="36.441560114914225" lon="10.584690646139626"><ele>66.0</ele><time>2026-04-04T17:51:43Z</time></trkpt><trkpt lat="36.441705962982425" lon="10.584509059255387"><ele>66.0</ele><time>2026-04-04T17:51:44Z</time></trkpt><trkpt lat="36.44184465908762" lon="10.584314072102028"><ele>66.0</ele><time>2026-04-04T17:51:45Z</time></trkpt><trkpt lat="36.44197432831108" lon="10.58411420537415"><ele>66.0</ele><time>2026-04-04T17:51:46Z</time></trkpt><trkpt lat="36.44209918585451" lon="10.583909133910261"><ele>66.33333333333333</ele><time>2026-04-04T17:51:47Z</time></trkpt><trkpt lat="36.44221451377564" lon="10.583696591564316"><ele>66.66666666666666</ele><time>2026-04-04T17:51:48Z</time></trkpt><trkpt lat="36.442320519875274" lon="10.583473934920974"><ele>67.0</ele><time>2026-04-04T17:51:49Z</time></trkpt><trkpt lat="36.442416937318384" lon="10.583246567095223"><ele>66.0</ele><time>2026-04-04T17:51:50Z</time></trkpt><trkpt lat="36.44250628377919" lon="10.583015025001053"><ele>65.0</ele><time>2026-04-04T17:51:51Z</time></trkpt><trkpt lat="36.44258761404998" lon="10.582777382026139"><ele>64.0</ele><time>2026-04-04T17:51:52Z</time></trkpt><trkpt lat="36.44266103144363" lon="10.582536259444899"><ele>62.0</ele><time>2026-04-04T17:51:53Z</time></trkpt><trkpt lat="36.4427264441781" lon="10.582287822643355"><ele>60.0</ele><time>2026-04-04T17:51:54Z</time></trkpt><trkpt lat="36.44278057680386" lon="10.582038517912585"><ele>58.0</ele><time>2026-04-04T17:51:55Z</time></trkpt><trkpt lat="36.44282784387338" lon="10.581782939875511"><ele>58.0</ele><time>2026-04-04T17:51:56Z</time></trkpt><trkpt lat="36.44286368708242" lon="10.58152389492927"><ele>58.0</ele><time>2026-04-04T17:51:57Z</time></trkpt><trkpt lat="36.44289000503735" lon="10.581255937226587"><ele>58.0</ele><time>2026-04-04T17:51:58Z</time></trkpt><trkpt lat="36.44290628519551" lon="10.580985795618757"><ele>58.0</ele><time>2026-04-04T17:51:59Z</time></trkpt><trkpt lat="36.442912032269504" lon="10.580718788522464"><ele>58.0</ele><time>2026-04-04T17:52:00Z</time></trkpt><trkpt lat="36.44290494849989" lon="10.580455163340856"><ele>58.0</ele><time>2026-04-04T17:52:01Z</time></trkpt><trkpt lat="36.442887801871855" lon="10.580188079844715"><ele>59.33333333333333</ele><time>2026-04-04T17:52:02Z</time></trkpt><trkpt lat="36.44286096527619" lon="10.57991814757445"><ele>60.66666666666667</ele><time>2026-04-04T17:52:03Z</time></trkpt><trkpt lat="36.44282323481481" lon="10.579640420404273"><ele>62.0</ele><time>2026-04-04T17:52:04Z</time></trkpt><trkpt lat="36.442773130550314" lon="10.579358055615797"><ele>62.0</ele><time>2026-04-04T17:52:05Z</time></trkpt><trkpt lat="36.4427137803045" lon="10.579072633250458"><ele>62.0</ele><time>2026-04-04T17:52:06Z</time></trkpt><trkpt lat="36.44264554897219" lon="10.578782687874392"><ele>62.5</ele><time>2026-04-04T17:52:07Z</time></trkpt><trkpt lat="36.44257788181714" lon="10.578489559573256"><ele>63.0</ele><time>2026-04-04T17:52:08Z</time></trkpt><trkpt lat="36.44251022907066" lon="10.578195585185194"><ele>63.0</ele><time>2026-04-04T17:52:09Z</time></trkpt><trkpt lat="36.44244764779101" lon="10.57789982710878"><ele>63.0</ele><time>2026-04-04T17:52:10Z</time></trkpt><trkpt lat="36.44238432958937" lon="10.577602604532071"><ele>62.0</ele><time>2026-04-04T17:52:11Z</time></trkpt><trkpt lat="36.442323918562124" lon="10.57730575351035"><ele>61.0</ele><time>2026-04-04T17:52:12Z</time></trkpt><trkpt lat="36.4422630610983" lon="10.57701104341778"><ele>59.0</ele><time>2026-04-04T17:52:13Z</time></trkpt><trkpt lat="36.44219954326531" lon="10.576718925634"><ele>57.0</ele><time>2026-04-04T17:52:14Z</time></trkpt><trkpt lat="36.44213636673827" lon="10.576432350534688"><ele>52.5</ele><time>2026-04-04T17:52:15Z</time></trkpt><trkpt lat="36.44207150198552" lon="10.576141772737666"><ele>48.0</ele><time>2026-04-04T17:52:16Z</time></trkpt><trkpt lat="36.44201054104968" lon="10.575858021201057"><ele>48.0</ele><time>2026-04-04T17:52:17Z</time></trkpt><trkpt lat="36.441951973495385" lon="10.575581868896593"><ele>48.0</ele><time>2026-04-04T17:52:18Z</time></trkpt><trkpt lat="36.441894464190554" lon="10.575312781171988"><ele>46.666666666666664</ele><time>2026-04-04T17:52:19Z</time></trkpt><trkpt lat="36.44183548745467" lon="10.575047916054155"><ele>45.33333333333333</ele><time>2026-04-04T17:52:20Z</time></trkpt><trkpt lat="36.44177843025097" lon="10.574790017928462"><ele>44.0</ele><time>2026-04-04T17:52:21Z</time></trkpt><trkpt lat="36.441721884086704" lon="10.574533251492374"><ele>42.33333333333333</ele><time>2026-04-04T17:52:22Z</time></trkpt><trkpt lat="36.441667043080265" lon="10.574276278352947"><ele>40.666666666666664</ele><time>2026-04-04T17:52:23Z</time></trkpt><trkpt lat="36.441609981435015" lon="10.574007002321986"><ele>39.0</ele><time>2026-04-04T17:52:24Z</time></trkpt><trkpt lat="36.4415532972081" lon="10.573714972293713"><ele>38.0</ele><time>2026-04-04T17:52:25Z</time></trkpt><trkpt lat="36.44149073584448" lon="10.573398527438547"><ele>37.0</ele><time>2026-04-04T17:52:26Z</time></trkpt><trkpt lat="36.44142002319257" lon="10.573065875678541"><ele>37.0</ele><time>2026-04-04T17:52:27Z</time></trkpt><trkpt lat="36.44134695575997" lon="10.572735879240245"><ele>37.0</ele><time>2026-04-04T17:52:28Z</time></trkpt><trkpt lat="36.441277789387996" lon="10.572421299367189"><ele>37.5</ele><time>2026-04-04T17:52:29Z</time></trkpt><trkpt lat="36.44120992487705" lon="10.572110067867538"><ele>38.0</ele><time>2026-04-04T17:52:30Z</time></trkpt><trkpt lat="36.441143791544775" lon="10.571797893712237"><ele>40.0</ele><time>2026-04-04T17:52:31Z</time></trkpt><trkpt lat="36.44107703645391" lon="10.571478064195983"><ele>42.0</ele><time>2026-04-04T17:52:32Z</time></trkpt><trkpt lat="36.44100945547605" lon="10.571164815048176"><ele>45.5</ele><time>2026-04-04T17:52:33Z</time></trkpt><trkpt lat="36.44094072174721" lon="10.570848415423091"><ele>49.0</ele><time>2026-04-04T17:52:34Z</time></trkpt><trkpt lat="36.44087363931946" lon="10.57054292684125"><ele>51.0</ele><time>2026-04-04T17:52:35Z</time></trkpt><trkpt lat="36.44080792238013" lon="10.570232593686725"><ele>53.0</ele><time>2026-04-04T17:52:36Z</time></trkpt><trkpt lat="36.44074487778172" lon="10.569923452331459"><ele>53.0</ele><time>2026-04-04T17:52:37Z</time></trkpt><trkpt lat="36.44068352575899" lon="10.569619882500236"><ele>53.0</ele><time>2026-04-04T17:52:37.999Z</time></trkpt><trkpt lat="36.440620867989985" lon="10.569315550833128"><ele>52.5</ele><time>2026-04-04T17:52:38.999Z</time></trkpt><trkpt lat="36.44055696719087" lon="10.569014834195489"><ele>52.0</ele><time>2026-04-04T17:52:39.999Z</time></trkpt><trkpt lat="36.44049346237939" lon="10.568716990432549"><ele>48.5</ele><time>2026-04-04T17:52:41Z</time></trkpt><trkpt lat="36.440433619527646" lon="10.568432410040721"><ele>45.0</ele><time>2026-04-04T17:52:42Z</time></trkpt><trkpt lat="36.44038433271825" lon="10.568164077943255"><ele>45.0</ele><time>2026-04-04T17:52:43Z</time></trkpt><trkpt lat="36.440343043372884" lon="10.56790441104416"><ele>45.0</ele><time>2026-04-04T17:52:44Z</time></trkpt><trkpt lat="36.44031605805857" lon="10.567649997602095"><ele>45.0</ele><time>2026-04-04T17:52:45Z</time></trkpt><trkpt lat="36.44029882921109" lon="10.567390605509248"><ele>44.666666666666664</ele><time>2026-04-04T17:52:46Z</time></trkpt><trkpt lat="36.44029245748059" lon="10.567138846443408"><ele>44.33333333333333</ele><time>2026-04-04T17:52:47Z</time></trkpt><trkpt lat="36.44029570986075" lon="10.566908077403648"><ele>44.0</ele><time>2026-04-04T17:52:48Z</time></trkpt><trkpt lat="36.44031081879332" lon="10.56668774680674"><ele>45.0</ele><time>2026-04-04T17:52:49Z</time></trkpt><trkpt lat="36.44032977367225" lon="10.56646827288694"><ele>46.0</ele><time>2026-04-04T17:52:50Z</time></trkpt><trkpt lat="36.44035654911506" lon="10.566249934245784"><ele>47.0</ele><time>2026-04-04T17:52:51Z</time></trkpt><trkpt lat="36.44039104227917" lon="10.56603457576304"><ele>49.0</ele><time>2026-04-04T17:52:52Z</time></trkpt><trkpt lat="36.44042821414413" lon="10.565827331092644"><ele>51.0</ele><time>2026-04-04T17:52:53Z</time></trkpt><trkpt lat="36.440468261674404" lon="10.565629428483424"><ele>53.0</ele><time>2026-04-04T17:52:54Z</time></trkpt><trkpt lat="36.44051202344598" lon="10.565446447000738"><ele>54.0</ele><time>2026-04-04T17:52:55Z</time></trkpt><trkpt lat="36.44055647163972" lon="10.565277640325577"><ele>55.0</ele><time>2026-04-04T17:52:56Z</time></trkpt><trkpt lat="36.44060576817475" lon="10.565117533578102"><ele>56.0</ele><time>2026-04-04T17:52:57Z</time></trkpt><trkpt lat="36.44066051510201" lon="10.56496346610165"><ele>57.0</ele><time>2026-04-04T17:52:58Z</time></trkpt><trkpt lat="36.44070571152233" lon="10.564827013752659"><ele>57.0</ele><time>2026-04-04T17:52:59Z</time></trkpt><trkpt lat="36.44074337236602" lon="10.56471595010282"><ele>57.0</ele><time>2026-04-04T17:53:00Z</time></trkpt><trkpt lat="36.44077394454278" lon="10.56462197590546"><ele>57.0</ele><time>2026-04-04T17:53:01Z</time></trkpt><trkpt lat="36.44080970772216" lon="10.56452606614114"><ele>57.0</ele><time>2026-04-04T17:53:02Z</time></trkpt><trkpt lat="36.44084597404915" lon="10.564428320071164"><ele>57.0</ele><time>2026-04-04T17:53:03Z</time></trkpt><trkpt lat="36.44088261385709" lon="10.56432473381652"><ele>57.0</ele><time>2026-04-04T17:53:04Z</time></trkpt><trkpt lat="36.440917105812645" lon="10.564220285531272"><ele>57.2</ele><time>2026-04-04T17:53:05Z</time></trkpt><trkpt lat="36.44095291771797" lon="10.564117624595013"><ele>57.400000000000006</ele><time>2026-04-04T17:53:06Z</time></trkpt><trkpt lat="36.44099474689542" lon="10.564010799101744"><ele>57.599999999999994</ele><time>2026-04-04T17:53:07Z</time></trkpt><trkpt lat="36.44104279542488" lon="10.56390730302205"><ele>57.8</ele><time>2026-04-04T17:53:08Z</time></trkpt><trkpt lat="36.441103922710994" lon="10.563816333229653"><ele>58.0</ele><time>2026-04-04T17:53:09Z</time></trkpt><trkpt lat="36.44118464433515" lon="10.5637447034772"><ele>57.8</ele><time>2026-04-04T17:53:10Z</time></trkpt><trkpt lat="36.44127600585288" lon="10.563690810051021"><ele>57.599999999999994</ele><time>2026-04-04T17:53:11Z</time></trkpt><trkpt lat="36.44138012871314" lon="10.563661475612284"><ele>57.400000000000006</ele><time>2026-04-04T17:53:12Z</time></trkpt><trkpt lat="36.44148877752939" lon="10.563647098987204"><ele>57.2</ele><time>2026-04-04T17:53:13Z</time></trkpt><trkpt lat="36.44159992143742" lon="10.563664225397961"><ele>57.0</ele><time>2026-04-04T17:53:14Z</time></trkpt><trkpt lat="36.441707779862945" lon="10.563714339808715"><ele>57.75</ele><time>2026-04-04T17:53:15Z</time></trkpt><trkpt lat="36.44180786267906" lon="10.563786081926354"><ele>58.5</ele><time>2026-04-04T17:53:16Z</time></trkpt><trkpt lat="36.441887746579596" lon="10.563889101029542"><ele>59.25</ele><time>2026-04-04T17:53:17Z</time></trkpt><trkpt lat="36.44194538989943" lon="10.564006255865475"><ele>60.0</ele><time>2026-04-04T17:53:18Z</time></trkpt><trkpt lat="36.44198528745751" lon="10.56414246350212"><ele>60.0</ele><time>2026-04-04T17:53:19Z</time></trkpt><trkpt lat="36.44200278123255" lon="10.564294128940572"><ele>60.0</ele><time>2026-04-04T17:53:20Z</time></trkpt><trkpt lat="36.44199608442529" lon="10.564445493569963"><ele>60.0</ele><time>2026-04-04T17:53:21Z</time></trkpt><trkpt lat="36.441958318382305" lon="10.564585230899729"><ele>60.0</ele><time>2026-04-04T17:53:22Z</time></trkpt><trkpt lat="36.44189988678846" lon="10.564715263392495"><ele>59.25</ele><time>2026-04-04T17:53:23Z</time></trkpt><trkpt lat="36.44182032165924" lon="10.564825148395357"><ele>58.5</ele><time>2026-04-04T17:53:24Z</time></trkpt><trkpt lat="36.44172219531645" lon="10.56490626626156"><ele>57.75</ele><time>2026-04-04T17:53:25Z</time></trkpt><trkpt lat="36.44162210550994" lon="10.564958171988737"><ele>57.0</ele><time>2026-04-04T17:53:26Z</time></trkpt><trkpt lat="36.441515691791786" lon="10.56497467902822"><ele>57.0</ele><time>2026-04-04T17:53:27Z</time></trkpt><trkpt lat="36.44140626382331" lon="10.564961061747361"><ele>57.0</ele><time>2026-04-04T17:53:28Z</time></trkpt><trkpt lat="36.441292083522775" lon="10.564923303742306"><ele>57.0</ele><time>2026-04-04T17:53:29Z</time></trkpt><trkpt lat="36.44116376102561" lon="10.56486861510143"><ele>57.0</ele><time>2026-04-04T17:53:30Z</time></trkpt><trkpt lat="36.44102811971968" lon="10.564796293686603"><ele>57.0</ele><time>2026-04-04T17:53:31Z</time></trkpt><trkpt lat="36.440884081061206" lon="10.564726683646064"><ele>57.0</ele><time>2026-04-04T17:53:32Z</time></trkpt><trkpt lat="36.4407325670978" lon="10.564653761458061"><ele>57.0</ele><time>2026-04-04T17:53:33Z</time></trkpt><trkpt lat="36.440566331053624" lon="10.564572156081919"><ele>56.0</ele><time>2026-04-04T17:53:34Z</time></trkpt><trkpt lat="36.44038548753082" lon="10.564480186404056"><ele>55.0</ele><time>2026-04-04T17:53:35Z</time></trkpt><trkpt lat="36.44018446675649" lon="10.564378580655738"><ele>54.0</ele><time>2026-04-04T17:53:36Z</time></trkpt><trkpt lat="36.439945983071446" lon="10.564260454531155"><ele>54.0</ele><time>2026-04-04T17:53:37Z</time></trkpt><trkpt lat="36.439689471501595" lon="10.564122581714049"><ele>54.0</ele><time>2026-04-04T17:53:38Z</time></trkpt><trkpt lat="36.43945888999559" lon="10.563974182423351"><ele>52.33333333333333</ele><time>2026-04-04T17:53:39Z</time></trkpt><trkpt lat="36.4392531924076" lon="10.563832614456794"><ele>50.666666666666664</ele><time>2026-04-04T17:53:40Z</time></trkpt><trkpt lat="36.43907137298782" lon="10.563695937812058"><ele>49.0</ele><time>2026-04-04T17:53:41Z</time></trkpt><trkpt lat="36.438896603145736" lon="10.563558399938483"><ele>47.33333333333333</ele><time>2026-04-04T17:53:42Z</time></trkpt><trkpt lat="36.43871419495816" lon="10.563410569694708"><ele>45.666666666666664</ele><time>2026-04-04T17:53:43Z</time></trkpt><trkpt lat="36.43853774273376" lon="10.56326020186024"><ele>44.0</ele><time>2026-04-04T17:53:44Z</time></trkpt><trkpt lat="36.43837139382299" lon="10.563112016702362"><ele>44.0</ele><time>2026-04-04T17:53:45Z</time></trkpt><trkpt lat="36.438210802290385" lon="10.562961439279345"><ele>44.0</ele><time>2026-04-04T17:53:46Z</time></trkpt><trkpt lat="36.43804964148952" lon="10.562804968806075"><ele>44.0</ele><time>2026-04-04T17:53:47Z</time></trkpt><trkpt lat="36.43788567794301" lon="10.562641664317553"><ele>42.33333333333333</ele><time>2026-04-04T17:53:48Z</time></trkpt><trkpt lat="36.43771963260168" lon="10.562473387336086"><ele>40.666666666666664</ele><time>2026-04-04T17:53:49Z</time></trkpt><trkpt lat="36.437552983736694" lon="10.562302309825318"><ele>39.0</ele><time>2026-04-04T17:53:50Z</time></trkpt><trkpt lat="36.43738514495548" lon="10.562126614381512"><ele>38.333333333333336</ele><time>2026-04-04T17:53:51Z</time></trkpt><trkpt lat="36.437214459968786" lon="10.561947238528115"><ele>37.66666666666667</ele><time>2026-04-04T17:53:52Z</time></trkpt><trkpt lat="36.43704597855563" lon="10.561764475651923"><ele>37.0</ele><time>2026-04-04T17:53:53Z</time></trkpt><trkpt lat="36.43687942955651" lon="10.561581730106196"><ele>36.0</ele><time>2026-04-04T17:53:54Z</time></trkpt><trkpt lat="36.43671806475441" lon="10.56140462781724"><ele>35.0</ele><time>2026-04-04T17:53:55Z</time></trkpt><trkpt lat="36.4365542596039" lon="10.561224855656029"><ele>34.0</ele><time>2026-04-04T17:53:56Z</time></trkpt><trkpt lat="36.43638654460121" lon="10.561040828227783"><ele>33.0</ele><time>2026-04-04T17:53:57Z</time></trkpt><trkpt lat="36.43621491417644" lon="10.560857592794163"><ele>32.0</ele><time>2026-04-04T17:53:58Z</time></trkpt><trkpt lat="36.4360424012761" lon="10.5606750975256"><ele>32.0</ele><time>2026-04-04T17:53:59Z</time></trkpt><trkpt lat="36.4358719441982" lon="10.560493026322131"><ele>32.0</ele><time>2026-04-04T17:54:00Z</time></trkpt><trkpt lat="36.43570359364233" lon="10.560311140950962"><ele>32.0</ele><time>2026-04-04T17:54:01Z</time></trkpt><trkpt lat="36.4355347416999" lon="10.56012644411576"><ele>30.0</ele><time>2026-04-04T17:54:02Z</time></trkpt><trkpt lat="36.43536450243216" lon="10.559940309620863"><ele>28.0</ele><time>2026-04-04T17:54:03Z</time></trkpt><trkpt lat="36.43519065982147" lon="10.55974912286594"><ele>28.0</ele><time>2026-04-04T17:54:04Z</time></trkpt><trkpt lat="36.43501449547017" lon="10.559556671686238"><ele>28.0</ele><time>2026-04-04T17:54:05Z</time></trkpt><trkpt lat="36.4348339458108" lon="10.559362283102024"><ele>28.0</ele><time>2026-04-04T17:54:06Z</time></trkpt><trkpt lat="36.43465224277575" lon="10.559166585870344"><ele>28.0</ele><time>2026-04-04T17:54:07Z</time></trkpt><trkpt lat="36.43446977897383" lon="10.558969721282306"><ele>27.5</ele><time>2026-04-04T17:54:08Z</time></trkpt><trkpt lat="36.43428652635891" lon="10.558770511648342"><ele>27.0</ele><time>2026-04-04T17:54:09Z</time></trkpt><trkpt lat="36.43410632250702" lon="10.558573235120958"><ele>27.0</ele><time>2026-04-04T17:54:10Z</time></trkpt><trkpt lat="36.43392527770222" lon="10.558377291358335"><ele>27.0</ele><time>2026-04-04T17:54:11Z</time></trkpt><trkpt lat="36.433745561361" lon="10.558182316854719"><ele>28.5</ele><time>2026-04-04T17:54:12Z</time></trkpt><trkpt lat="36.433563576892645" lon="10.557985008966455"><ele>30.0</ele><time>2026-04-04T17:54:13Z</time></trkpt><trkpt lat="36.43337703861644" lon="10.557784022479531"><ele>30.5</ele><time>2026-04-04T17:54:14Z</time></trkpt><trkpt lat="36.43318821826733" lon="10.557579961679457"><ele>31.0</ele><time>2026-04-04T17:54:15Z</time></trkpt><trkpt lat="36.43299192178752" lon="10.557370303199908"><ele>32.0</ele><time>2026-04-04T17:54:16Z</time></trkpt><trkpt lat="36.43279195584378" lon="10.557156681891675"><ele>33.0</ele><time>2026-04-04T17:54:17Z</time></trkpt><trkpt lat="36.43258999098825" lon="10.55694393324822"><ele>33.0</ele><time>2026-04-04T17:54:18Z</time></trkpt><trkpt lat="36.432385807043175" lon="10.556729597815677"><ele>33.0</ele><time>2026-04-04T17:54:19Z</time></trkpt><trkpt lat="36.43218305541737" lon="10.556515270212556"><ele>36.0</ele><time>2026-04-04T17:54:20Z</time></trkpt><trkpt lat="36.43197953429165" lon="10.556302407209081"><ele>39.0</ele><time>2026-04-04T17:54:21Z</time></trkpt><trkpt lat="36.431776138334406" lon="10.5560909878779"><ele>39.0</ele><time>2026-04-04T17:54:22Z</time></trkpt><trkpt lat="36.431571512076076" lon="10.5558814537068"><ele>39.0</ele><time>2026-04-04T17:54:23Z</time></trkpt><trkpt lat="36.431364229016836" lon="10.555675139551335"><ele>41.5</ele><time>2026-04-04T17:54:24Z</time></trkpt><trkpt lat="36.43115623616736" lon="10.55547337171129"><ele>44.0</ele><time>2026-04-04T17:54:25Z</time></trkpt><trkpt lat="36.430943320767874" lon="10.555278166013593"><ele>44.0</ele><time>2026-04-04T17:54:26Z</time></trkpt><trkpt lat="36.43072353306052" lon="10.555090160527461"><ele>44.0</ele><time>2026-04-04T17:54:27Z</time></trkpt><trkpt lat="36.430497311107096" lon="10.55491655921104"><ele>46.5</ele><time>2026-04-04T17:54:28Z</time></trkpt><trkpt lat="36.430268011021056" lon="10.554746662548004"><ele>49.0</ele><time>2026-04-04T17:54:29Z</time></trkpt><trkpt lat="36.43003419084432" lon="10.55458663485364"><ele>49.0</ele><time>2026-04-04T17:54:30Z</time></trkpt><trkpt lat="36.429796953536375" lon="10.554434073655857"><ele>49.0</ele><time>2026-04-04T17:54:31Z</time></trkpt><trkpt lat="36.42955675330992" lon="10.554292881890863"><ele>49.0</ele><time>2026-04-04T17:54:32Z</time></trkpt><trkpt lat="36.42931312417832" lon="10.554160380027783"><ele>49.0</ele><time>2026-04-04T17:54:33Z</time></trkpt><trkpt lat="36.429065123832416" lon="10.554032640155025"><ele>49.0</ele><time>2026-04-04T17:54:34Z</time></trkpt><trkpt lat="36.428804871785324" lon="10.553908867073483"><ele>49.0</ele><time>2026-04-04T17:54:35Z</time></trkpt><trkpt lat="36.428525641916615" lon="10.553790196147673"><ele>49.0</ele><time>2026-04-04T17:54:36Z</time></trkpt><trkpt lat="36.42822612199527" lon="10.553681432738902"><ele>49.0</ele><time>2026-04-04T17:54:37Z</time></trkpt><trkpt lat="36.42791566561147" lon="10.553583380684154"><ele>46.5</ele><time>2026-04-04T17:54:38Z</time></trkpt><trkpt lat="36.4276043442511" lon="10.553500824245766"><ele>44.0</ele><time>2026-04-04T17:54:39Z</time></trkpt><trkpt lat="36.427295398299044" lon="10.553426743364373"><ele>42.0</ele><time>2026-04-04T17:54:40Z</time></trkpt><trkpt lat="36.42698958997365" lon="10.55336606914438"><ele>40.0</ele><time>2026-04-04T17:54:41Z</time></trkpt><trkpt lat="36.426687636912455" lon="10.55331907707615"><ele>40.0</ele><time>2026-04-04T17:54:42Z</time></trkpt><trkpt lat="36.42638813041606" lon="10.55328367496263"><ele>40.0</ele><time>2026-04-04T17:54:43Z</time></trkpt><trkpt lat="36.42608777011165" lon="10.55326159127102"><ele>39.0</ele><time>2026-04-04T17:54:44Z</time></trkpt><trkpt lat="36.42579201869507" lon="10.553257945290394"><ele>38.0</ele><time>2026-04-04T17:54:45Z</time></trkpt><trkpt lat="36.42549867997673" lon="10.553262755180354"><ele>35.5</ele><time>2026-04-04T17:54:46Z</time></trkpt><trkpt lat="36.42520756630195" lon="10.553277998991476"><ele>33.0</ele><time>2026-04-04T17:54:47Z</time></trkpt><trkpt lat="36.424914610761" lon="10.55330369194925"><ele>31.0</ele><time>2026-04-04T17:54:48Z</time></trkpt><trkpt lat="36.42462037713001" lon="10.553346754311017"><ele>29.0</ele><time>2026-04-04T17:54:49Z</time></trkpt><trkpt lat="36.42432979327076" lon="10.553398109079698"><ele>29.0</ele><time>2026-04-04T17:54:50Z</time></trkpt><trkpt lat="36.42404652361279" lon="10.553458427131858"><ele>29.0</ele><time>2026-04-04T17:54:51Z</time></trkpt><trkpt lat="36.423766179408226" lon="10.55353048463801"><ele>30.0</ele><time>2026-04-04T17:54:52Z</time></trkpt><trkpt lat="36.42349028121188" lon="10.553610316604054"><ele>31.0</ele><time>2026-04-04T17:54:53Z</time></trkpt><trkpt lat="36.423221194804455" lon="10.553699856148972"><ele>32.5</ele><time>2026-04-04T17:54:54Z</time></trkpt><trkpt lat="36.422952856774145" lon="10.553791013738977"><ele>34.0</ele><time>2026-04-04T17:54:55Z</time></trkpt><trkpt lat="36.42268692607135" lon="10.553885073997028"><ele>34.0</ele><time>2026-04-04T17:54:56Z</time></trkpt><trkpt lat="36.422424132423224" lon="10.553982133506317"><ele>34.0</ele><time>2026-04-04T17:54:57Z</time></trkpt><trkpt lat="36.422157769025034" lon="10.554078710229128"><ele>36.0</ele><time>2026-04-04T17:54:58Z</time></trkpt><trkpt lat="36.42189421892139" lon="10.554174129023325"><ele>38.0</ele><time>2026-04-04T17:54:59Z</time></trkpt><trkpt lat="36.4216273943954" lon="10.554262234277349"><ele>38.0</ele><time>2026-04-04T17:55:00Z</time></trkpt><trkpt lat="36.421362320311054" lon="10.554345383060756"><ele>38.0</ele><time>2026-04-04T17:55:01Z</time></trkpt><trkpt lat="36.42109456827171" lon="10.554419992223652"><ele>39.0</ele><time>2026-04-04T17:55:02Z</time></trkpt><trkpt lat="36.420825934436024" lon="10.554480464002221"><ele>40.0</ele><time>2026-04-04T17:55:03Z</time></trkpt><trkpt lat="36.42055420593473" lon="10.554533356702068"><ele>39.5</ele><time>2026-04-04T17:55:04Z</time></trkpt><trkpt lat="36.42028133472377" lon="10.554573121610847"><ele>39.0</ele><time>2026-04-04T17:55:05Z</time></trkpt><trkpt lat="36.420005943359556" lon="10.554602737412706"><ele>39.0</ele><time>2026-04-04T17:55:06Z</time></trkpt><trkpt lat="36.419731995249805" lon="10.554616287888782"><ele>39.0</ele><time>2026-04-04T17:55:07Z</time></trkpt><trkpt lat="36.41945434302" lon="10.554624740652724"><ele>37.0</ele><time>2026-04-04T17:55:08Z</time></trkpt><trkpt lat="36.41917796775943" lon="10.554623294250833"><ele>35.0</ele><time>2026-04-04T17:55:09Z</time></trkpt><trkpt lat="36.418896925094245" lon="10.554612134232949"><ele>35.0</ele><time>2026-04-04T17:55:10Z</time></trkpt><trkpt lat="36.418612523245166" lon="10.554590751582023"><ele>35.0</ele><time>2026-04-04T17:55:11Z</time></trkpt><trkpt lat="36.418325085583426" lon="10.554558291433898"><ele>34.5</ele><time>2026-04-04T17:55:12Z</time></trkpt><trkpt lat="36.41803375939919" lon="10.554515502396397"><ele>34.0</ele><time>2026-04-04T17:55:13Z</time></trkpt><trkpt lat="36.41774434572253" lon="10.554462255838978"><ele>34.0</ele><time>2026-04-04T17:55:14Z</time></trkpt><trkpt lat="36.417455367439935" lon="10.554399129358876"><ele>34.0</ele><time>2026-04-04T17:55:15Z</time></trkpt><trkpt lat="36.4171703968354" lon="10.554329337063661"><ele>33.5</ele><time>2026-04-04T17:55:16Z</time></trkpt><trkpt lat="36.41688586741619" lon="10.554250573795544"><ele>33.0</ele><time>2026-04-04T17:55:17Z</time></trkpt><trkpt lat="36.41660205113319" lon="10.55416924634507"><ele>33.0</ele><time>2026-04-04T17:55:18Z</time></trkpt><trkpt lat="36.41632059874269" lon="10.554085021346658"><ele>33.0</ele><time>2026-04-04T17:55:19Z</time></trkpt><trkpt lat="36.41603903233566" lon="10.553998690791238"><ele>32.0</ele><time>2026-04-04T17:55:20Z</time></trkpt><trkpt lat="36.415758055875834" lon="10.55391194495091"><ele>31.0</ele><time>2026-04-04T17:55:21Z</time></trkpt><trkpt lat="36.415475737328606" lon="10.55383700914423"><ele>30.5</ele><time>2026-04-04T17:55:22Z</time></trkpt><trkpt lat="36.4151885605798" lon="10.553783229130465"><ele>30.0</ele><time>2026-04-04T17:55:23Z</time></trkpt><trkpt lat="36.41490170157658" lon="10.553740659915613"><ele>29.0</ele><time>2026-04-04T17:55:24Z</time></trkpt><trkpt lat="36.41461064770255" lon="10.553708446164114"><ele>28.0</ele><time>2026-04-04T17:55:25Z</time></trkpt><trkpt lat="36.41432314915452" lon="10.553680440829732"><ele>28.0</ele><time>2026-04-04T17:55:26Z</time></trkpt><trkpt lat="36.414032928361195" lon="10.553660674337634"><ele>28.0</ele><time>2026-04-04T17:55:27Z</time></trkpt><trkpt lat="36.41374356964853" lon="10.55364954164719"><ele>28.0</ele><time>2026-04-04T17:55:28Z</time></trkpt><trkpt lat="36.41345108168024" lon="10.553649724987324"><ele>28.0</ele><time>2026-04-04T17:55:29Z</time></trkpt><trkpt lat="36.41316208233928" lon="10.553663624947095"><ele>27.0</ele><time>2026-04-04T17:55:30Z</time></trkpt><trkpt lat="36.41287480956548" lon="10.553688709327444"><ele>26.0</ele><time>2026-04-04T17:55:31Z</time></trkpt><trkpt lat="36.412584628800175" lon="10.553726672441538"><ele>25.5</ele><time>2026-04-04T17:55:32Z</time></trkpt><trkpt lat="36.41229503114646" lon="10.553777139966078"><ele>25.0</ele><time>2026-04-04T17:55:33Z</time></trkpt><trkpt lat="36.412006752763446" lon="10.553829245899621"><ele>24.0</ele><time>2026-04-04T17:55:34Z</time></trkpt><trkpt lat="36.411718020247235" lon="10.553881957220293"><ele>23.0</ele><time>2026-04-04T17:55:35Z</time></trkpt><trkpt lat="36.41142961186505" lon="10.553934273399113"><ele>23.0</ele><time>2026-04-04T17:55:36Z</time></trkpt><trkpt lat="36.41114000421955" lon="10.553984777202219"><ele>23.0</ele><time>2026-04-04T17:55:37Z</time></trkpt><trkpt lat="36.410851335813724" lon="10.554030140525837"><ele>23.0</ele><time>2026-04-04T17:55:38Z</time></trkpt><trkpt lat="36.410563050800945" lon="10.55407387785871"><ele>23.0</ele><time>2026-04-04T17:55:39Z</time></trkpt><trkpt lat="36.41027477051158" lon="10.55411695511943"><ele>21.5</ele><time>2026-04-04T17:55:40Z</time></trkpt><trkpt lat="36.40998606691492" lon="10.554165515957791"><ele>20.0</ele><time>2026-04-04T17:55:41Z</time></trkpt><trkpt lat="36.40969932083357" lon="10.554213438507947"><ele>19.0</ele><time>2026-04-04T17:55:42Z</time></trkpt><trkpt lat="36.40941179137465" lon="10.55426202297521"><ele>18.0</ele><time>2026-04-04T17:55:43Z</time></trkpt><trkpt lat="36.40912309924441" lon="10.554308581442546"><ele>18.0</ele><time>2026-04-04T17:55:44Z</time></trkpt><trkpt lat="36.408833299632555" lon="10.554351332434114"><ele>18.0</ele><time>2026-04-04T17:55:45Z</time></trkpt><trkpt lat="36.408543690323135" lon="10.554393792851831"><ele>17.0</ele><time>2026-04-04T17:55:46Z</time></trkpt><trkpt lat="36.408255807185945" lon="10.554437775188946"><ele>16.0</ele><time>2026-04-04T17:55:47Z</time></trkpt><trkpt lat="36.40796691941319" lon="10.55448282049209"><ele>15.5</ele><time>2026-04-04T17:55:48Z</time></trkpt><trkpt lat="36.407677522944134" lon="10.55453071790115"><ele>15.0</ele><time>2026-04-04T17:55:49Z</time></trkpt><trkpt lat="36.40739144119556" lon="10.554576137549946"><ele>14.5</ele><time>2026-04-04T17:55:50Z</time></trkpt><trkpt lat="36.40710172896645" lon="10.554617340938366"><ele>14.0</ele><time>2026-04-04T17:55:51Z</time></trkpt><trkpt lat="36.40681319108847" lon="10.554644286302572"><ele>14.0</ele><time>2026-04-04T17:55:52Z</time></trkpt><trkpt lat="36.406523312156615" lon="10.554658045650484"><ele>14.0</ele><time>2026-04-04T17:55:53Z</time></trkpt><trkpt lat="36.4062296845373" lon="10.554655661731255"><ele>13.5</ele><time>2026-04-04T17:55:54Z</time></trkpt><trkpt lat="36.405925551604206" lon="10.554644295188199"><ele>13.0</ele><time>2026-04-04T17:55:55Z</time></trkpt><trkpt lat="36.40562719145908" lon="10.55461867595899"><ele>13.0</ele><time>2026-04-04T17:55:56Z</time></trkpt><trkpt lat="36.40532924963016" lon="10.554586916051221"><ele>13.0</ele><time>2026-04-04T17:55:57Z</time></trkpt><trkpt lat="36.40503353432437" lon="10.55455251896327"><ele>13.0</ele><time>2026-04-04T17:55:58Z</time></trkpt><trkpt lat="36.404735430711796" lon="10.554503797284491"><ele>13.0</ele><time>2026-04-04T17:55:59Z</time></trkpt><trkpt lat="36.404441190895895" lon="10.554439195458684"><ele>12.0</ele><time>2026-04-04T17:56:00Z</time></trkpt><trkpt lat="36.404149588490384" lon="10.55436875132226"><ele>11.0</ele><time>2026-04-04T17:56:01Z</time></trkpt><trkpt lat="36.40385702587242" lon="10.554293191536585"><ele>11.5</ele><time>2026-04-04T17:56:02Z</time></trkpt><trkpt lat="36.40356736831088" lon="10.554207626866177"><ele>12.0</ele><time>2026-04-04T17:56:03Z</time></trkpt><trkpt lat="36.40328072471145" lon="10.554115503297453"><ele>11.0</ele><time>2026-04-04T17:56:04Z</time></trkpt><trkpt lat="36.40299602802849" lon="10.554011836725222"><ele>10.0</ele><time>2026-04-04T17:56:05Z</time></trkpt><trkpt lat="36.40271237506948" lon="10.553895307448014"><ele>10.0</ele><time>2026-04-04T17:56:06Z</time></trkpt><trkpt lat="36.402433419196356" lon="10.553770484616928"><ele>10.0</ele><time>2026-04-04T17:56:07Z</time></trkpt><trkpt lat="36.402156432484446" lon="10.553635937290249"><ele>9.5</ele><time>2026-04-04T17:56:08Z</time></trkpt><trkpt lat="36.40188616446559" lon="10.55348585063409"><ele>9.0</ele><time>2026-04-04T17:56:09Z</time></trkpt><trkpt lat="36.4016200264761" lon="10.553330242193153"><ele>9.0</ele><time>2026-04-04T17:56:10Z</time></trkpt><trkpt lat="36.40135248084348" lon="10.553166894161295"><ele>9.0</ele><time>2026-04-04T17:56:11Z</time></trkpt><trkpt lat="36.401088815436474" lon="10.553000716830704"><ele>9.5</ele><time>2026-04-04T17:56:12Z</time></trkpt><trkpt lat="36.40082695813671" lon="10.552822587565233"><ele>10.0</ele><time>2026-04-04T17:56:13Z</time></trkpt><trkpt lat="36.400574586936834" lon="10.552634631581451"><ele>12.0</ele><time>2026-04-04T17:56:14Z</time></trkpt><trkpt lat="36.40032586291629" lon="10.552434827853663"><ele>14.0</ele><time>2026-04-04T17:56:15Z</time></trkpt><trkpt lat="36.40008125516203" lon="10.552226833619555"><ele>15.0</ele><time>2026-04-04T17:56:16Z</time></trkpt><trkpt lat="36.39983865776023" lon="10.552012399208152"><ele>16.0</ele><time>2026-04-04T17:56:17Z</time></trkpt><trkpt lat="36.39960363162199" lon="10.55178918667206"><ele>16.0</ele><time>2026-04-04T17:56:18Z</time></trkpt><trkpt lat="36.399371300085335" lon="10.55155887239483"><ele>16.0</ele><time>2026-04-04T17:56:19Z</time></trkpt><trkpt lat="36.399144230379605" lon="10.551318853145142"><ele>16.5</ele><time>2026-04-04T17:56:20Z</time></trkpt><trkpt lat="36.39892211503511" lon="10.551072637243934"><ele>17.0</ele><time>2026-04-04T17:56:21Z</time></trkpt><trkpt lat="36.39870559624015" lon="10.550819364044203"><ele>17.0</ele><time>2026-04-04T17:56:22Z</time></trkpt><trkpt lat="36.39849648269343" lon="10.550556079163492"><ele>17.0</ele><time>2026-04-04T17:56:23Z</time></trkpt><trkpt lat="36.39829470147812" lon="10.550286218764729"><ele>17.5</ele><time>2026-04-04T17:56:24Z</time></trkpt><trkpt lat="36.39809836126973" lon="10.550011181193144"><ele>18.0</ele><time>2026-04-04T17:56:25Z</time></trkpt><trkpt lat="36.3979047460238" lon="10.549730425840282"><ele>18.5</ele><time>2026-04-04T17:56:26Z</time></trkpt><trkpt lat="36.39771662437198" lon="10.549442350637948"><ele>19.0</ele><time>2026-04-04T17:56:27Z</time></trkpt><trkpt lat="36.397536695055194" lon="10.549152310496297"><ele>19.0</ele><time>2026-04-04T17:56:28Z</time></trkpt><trkpt lat="36.39737820509445" lon="10.548872125143397"><ele>19.0</ele><time>2026-04-04T17:56:29Z</time></trkpt><trkpt lat="36.39722956244796" lon="10.548593696909215"><ele>19.5</ele><time>2026-04-04T17:56:30Z</time></trkpt><trkpt lat="36.397081971368614" lon="10.54830536156251"><ele>20.0</ele><time>2026-04-04T17:56:31Z</time></trkpt><trkpt lat="36.396939216572314" lon="10.548012045122386"><ele>20.0</ele><time>2026-04-04T17:56:32Z</time></trkpt><trkpt lat="36.396807008788606" lon="10.547721245971976"><ele>20.0</ele><time>2026-04-04T17:56:33Z</time></trkpt><trkpt lat="36.396677569532336" lon="10.547421483534668"><ele>20.0</ele><time>2026-04-04T17:56:34Z</time></trkpt><trkpt lat="36.396550142309934" lon="10.547117603140114"><ele>20.0</ele><time>2026-04-04T17:56:35Z</time></trkpt><trkpt lat="36.396425576801164" lon="10.546810487806416"><ele>20.0</ele><time>2026-04-04T17:56:36Z</time></trkpt><trkpt lat="36.39630200263861" lon="10.54649820532137"><ele>20.0</ele><time>2026-04-04T17:56:37Z</time></trkpt><trkpt lat="36.39617673616825" lon="10.546179200892443"><ele>19.5</ele><time>2026-04-04T17:56:38Z</time></trkpt><trkpt lat="36.3960490292938" lon="10.54586026269762"><ele>19.0</ele><time>2026-04-04T17:56:39Z</time></trkpt><trkpt lat="36.395918193656904" lon="10.545540958264345"><ele>17.5</ele><time>2026-04-04T17:56:40Z</time></trkpt><trkpt lat="36.395782282481846" lon="10.5452253630992"><ele>16.0</ele><time>2026-04-04T17:56:41Z</time></trkpt><trkpt lat="36.39564018542843" lon="10.54491015636878"><ele>15.5</ele><time>2026-04-04T17:56:42Z</time></trkpt><trkpt lat="36.395491281775" lon="10.544598294610095"><ele>15.0</ele><time>2026-04-04T17:56:43Z</time></trkpt><trkpt lat="36.39533366203331" lon="10.544289624613794"><ele>15.0</ele><time>2026-04-04T17:56:44Z</time></trkpt><trkpt lat="36.39517498113574" lon="10.543985843012686"><ele>15.0</ele><time>2026-04-04T17:56:45Z</time></trkpt><trkpt lat="36.395014364391066" lon="10.543682996543579"><ele>14.0</ele><time>2026-04-04T17:56:46Z</time></trkpt><trkpt lat="36.39485020002725" lon="10.543380451532292"><ele>13.0</ele><time>2026-04-04T17:56:47Z</time></trkpt><trkpt lat="36.39467978879617" lon="10.54308148804151"><ele>12.0</ele><time>2026-04-04T17:56:48Z</time></trkpt><trkpt lat="36.39450517177441" lon="10.542790849814748"><ele>11.0</ele><time>2026-04-04T17:56:49Z</time></trkpt><trkpt lat="36.39432784040191" lon="10.542509970346815"><ele>11.0</ele><time>2026-04-04T17:56:50Z</time></trkpt><trkpt lat="36.394146224252204" lon="10.54223851380007"><ele>11.0</ele><time>2026-04-04T17:56:51Z</time></trkpt><trkpt lat="36.39396143867381" lon="10.54197913360226"><ele>10.5</ele><time>2026-04-04T17:56:52Z</time></trkpt><trkpt lat="36.393776258804714" lon="10.54172652484975"><ele>10.0</ele><time>2026-04-04T17:56:53Z</time></trkpt><trkpt lat="36.393585389496394" lon="10.54147844854192"><ele>10.0</ele><time>2026-04-04T17:56:54Z</time></trkpt><trkpt lat="36.393393450840776" lon="10.541231520535984"><ele>10.0</ele><time>2026-04-04T17:56:55Z</time></trkpt><trkpt lat="36.39319130071321" lon="10.540982533873265"><ele>9.0</ele><time>2026-04-04T17:56:56Z</time></trkpt><trkpt lat="36.39298112302845" lon="10.540729408485173"><ele>8.0</ele><time>2026-04-04T17:56:57Z</time></trkpt><trkpt lat="36.3927645722833" lon="10.540477203285466"><ele>9.5</ele><time>2026-04-04T17:56:58Z</time></trkpt><trkpt lat="36.392544743505965" lon="10.540229158846175"><ele>11.0</ele><time>2026-04-04T17:56:59Z</time></trkpt><trkpt lat="36.39232195704085" lon="10.539983550335117"><ele>9.5</ele><time>2026-04-04T17:57:00Z</time></trkpt><trkpt lat="36.39209780161514" lon="10.539746007565148"><ele>8.0</ele><time>2026-04-04T17:57:01Z</time></trkpt><trkpt lat="36.391876072142765" lon="10.539511113448047"><ele>8.0</ele><time>2026-04-04T17:57:02Z</time></trkpt><trkpt lat="36.391657515369" lon="10.539285033485536"><ele>8.0</ele><time>2026-04-04T17:57:03Z</time></trkpt><trkpt lat="36.3914477742299" lon="10.539065328933537"><ele>8.5</ele><time>2026-04-04T17:57:04Z</time></trkpt><trkpt lat="36.39124313690459" lon="10.538846724633764"><ele>9.0</ele><time>2026-04-04T17:57:05Z</time></trkpt><trkpt lat="36.391038732111056" lon="10.538632917323131"><ele>8.0</ele><time>2026-04-04T17:57:06Z</time></trkpt><trkpt lat="36.39082767965349" lon="10.538419548010262"><ele>7.0</ele><time>2026-04-04T17:57:07Z</time></trkpt><trkpt lat="36.39061719767195" lon="10.538212651421167"><ele>7.0</ele><time>2026-04-04T17:57:08Z</time></trkpt><trkpt lat="36.3904064239666" lon="10.538003388129722"><ele>7.0</ele><time>2026-04-04T17:57:09Z</time></trkpt><trkpt lat="36.390199885405515" lon="10.537795098033403"><ele>7.0</ele><time>2026-04-04T17:57:10Z</time></trkpt><trkpt lat="36.39000027300174" lon="10.53758603016742"><ele>7.0</ele><time>2026-04-04T17:57:11Z</time></trkpt><trkpt lat="36.389801606236404" lon="10.537383840434547"><ele>7.5</ele><time>2026-04-04T17:57:12Z</time></trkpt><trkpt lat="36.38960403248505" lon="10.537184520160109"><ele>8.0</ele><time>2026-04-04T17:57:13Z</time></trkpt><trkpt lat="36.38940186179187" lon="10.5369815477812"><ele>8.0</ele><time>2026-04-04T17:57:14Z</time></trkpt><trkpt lat="36.389202840012366" lon="10.536779508088978"><ele>8.0</ele><time>2026-04-04T17:57:15Z</time></trkpt><trkpt lat="36.38900159515441" lon="10.536573946439205"><ele>8.0</ele><time>2026-04-04T17:57:16Z</time></trkpt><trkpt lat="36.38879913846588" lon="10.536368332992145"><ele>8.0</ele><time>2026-04-04T17:57:17Z</time></trkpt><trkpt lat="36.38859655751437" lon="10.536164787728232"><ele>8.0</ele><time>2026-04-04T17:57:18Z</time></trkpt><trkpt lat="36.38839345869849" lon="10.53596211788754"><ele>8.0</ele><time>2026-04-04T17:57:19Z</time></trkpt><trkpt lat="36.388184983327754" lon="10.535755968686663"><ele>8.5</ele><time>2026-04-04T17:57:20Z</time></trkpt><trkpt lat="36.387959541033766" lon="10.535537031497315"><ele>9.0</ele><time>2026-04-04T17:57:21Z</time></trkpt><trkpt lat="36.38773040182846" lon="10.535317098239661"><ele>9.0</ele><time>2026-04-04T17:57:22Z</time></trkpt><trkpt lat="36.38751004453162" lon="10.535098446051647"><ele>9.0</ele><time>2026-04-04T17:57:23Z</time></trkpt><trkpt lat="36.387289974184824" lon="10.534877520191793"><ele>10.0</ele><time>2026-04-04T17:57:24Z</time></trkpt><trkpt lat="36.38707212663953" lon="10.534654856186071"><ele>11.0</ele><time>2026-04-04T17:57:25Z</time></trkpt><trkpt lat="36.38685411340644" lon="10.534432846447892"><ele>11.0</ele><time>2026-04-04T17:57:26Z</time></trkpt><trkpt lat="36.38663516454835" lon="10.534210313652833"><ele>11.0</ele><time>2026-04-04T17:57:27Z</time></trkpt><trkpt lat="36.3864190413436" lon="10.533988023575985"><ele>11.5</ele><time>2026-04-04T17:57:28Z</time></trkpt><trkpt lat="36.38619800943949" lon="10.533764059508057"><ele>12.0</ele><time>2026-04-04T17:57:29Z</time></trkpt><trkpt lat="36.38597759828432" lon="10.533544537979793"><ele>12.0</ele><time>2026-04-04T17:57:30Z</time></trkpt><trkpt lat="36.38575646092849" lon="10.533326649596939"><ele>12.0</ele><time>2026-04-04T17:57:31Z</time></trkpt><trkpt lat="36.38553652012984" lon="10.533107071278579"><ele>11.0</ele><time>2026-04-04T17:57:32Z</time></trkpt><trkpt lat="36.38531457981918" lon="10.532885397192535"><ele>10.0</ele><time>2026-04-04T17:57:33Z</time></trkpt><trkpt lat="36.38509046314851" lon="10.532660041301842"><ele>10.0</ele><time>2026-04-04T17:57:34Z</time></trkpt><trkpt lat="36.384863997150944" lon="10.532433082091767"><ele>10.0</ele><time>2026-04-04T17:57:35Z</time></trkpt><trkpt lat="36.38463948153266" lon="10.532205160906999"><ele>10.0</ele><time>2026-04-04T17:57:36Z</time></trkpt><trkpt lat="36.38441814496647" lon="10.53197508916014"><ele>10.0</ele><time>2026-04-04T17:57:37Z</time></trkpt><trkpt lat="36.38419921744713" lon="10.531741349781106"><ele>10.0</ele><time>2026-04-04T17:57:38Z</time></trkpt><trkpt lat="36.3839799488407" lon="10.531504311705318"><ele>10.0</ele><time>2026-04-04T17:57:39Z</time></trkpt><trkpt lat="36.38376066750939" lon="10.531268604266026"><ele>10.5</ele><time>2026-04-04T17:57:40Z</time></trkpt><trkpt lat="36.38354235669642" lon="10.531032741391071"><ele>11.0</ele><time>2026-04-04T17:57:41Z</time></trkpt><trkpt lat="36.3833238012269" lon="10.530797072810783"><ele>11.0</ele><time>2026-04-04T17:57:42Z</time></trkpt><trkpt lat="36.383108774287976" lon="10.530559840298121"><ele>11.0</ele><time>2026-04-04T17:57:43Z</time></trkpt><trkpt lat="36.38289684778979" lon="10.530322356181442"><ele>12.0</ele><time>2026-04-04T17:57:44Z</time></trkpt><trkpt lat="36.382700807801804" lon="10.530097406963801"><ele>13.0</ele><time>2026-04-04T17:57:45Z</time></trkpt><trkpt lat="36.382513116780444" lon="10.529883987492537"><ele>13.0</ele><time>2026-04-04T17:57:46Z</time></trkpt><trkpt lat="36.382328277332554" lon="10.529680549694683"><ele>13.0</ele><time>2026-04-04T17:57:47Z</time></trkpt><trkpt lat="36.382143472311824" lon="10.529476374275886"><ele>12.0</ele><time>2026-04-04T17:57:48Z</time></trkpt><trkpt lat="36.38196195524187" lon="10.529268787295832"><ele>11.0</ele><time>2026-04-04T17:57:49Z</time></trkpt><trkpt lat="36.381777907904144" lon="10.52905846583596"><ele>11.0</ele><time>2026-04-04T17:57:50Z</time></trkpt><trkpt lat="36.38159109465193" lon="10.528843617083862"><ele>11.0</ele><time>2026-04-04T17:57:51Z</time></trkpt><trkpt lat="36.38140414202332" lon="10.528631111203433"><ele>11.5</ele><time>2026-04-04T17:57:52Z</time></trkpt><trkpt lat="36.38121831013535" lon="10.528418970397311"><ele>12.0</ele><time>2026-04-04T17:57:53Z</time></trkpt><trkpt lat="36.38103244644114" lon="10.528201065609352"><ele>12.0</ele><time>2026-04-04T17:57:54Z</time></trkpt><trkpt lat="36.380846913741586" lon="10.52798471596361"><ele>12.0</ele><time>2026-04-04T17:57:55Z</time></trkpt><trkpt lat="36.38066174089564" lon="10.527766585479716"><ele>11.5</ele><time>2026-04-04T17:57:56Z</time></trkpt><trkpt lat="36.38047701901654" lon="10.527552294189023"><ele>11.0</ele><time>2026-04-04T17:57:57Z</time></trkpt><trkpt lat="36.380294170087865" lon="10.527338475432092"><ele>11.0</ele><time>2026-04-04T17:57:58Z</time></trkpt><trkpt lat="36.38011404207672" lon="10.527119397553603"><ele>11.0</ele><time>2026-04-04T17:57:59Z</time></trkpt><trkpt lat="36.3799318015892" lon="10.526895006696444"><ele>12.0</ele><time>2026-04-04T17:58:00Z</time></trkpt><trkpt lat="36.37974946964166" lon="10.526670981671051"><ele>13.0</ele><time>2026-04-04T17:58:01Z</time></trkpt><trkpt lat="36.37956526024351" lon="10.526448773704967"><ele>13.5</ele><time>2026-04-04T17:58:02Z</time></trkpt><trkpt lat="36.379382218899785" lon="10.526225161603255"><ele>14.0</ele><time>2026-04-04T17:58:03Z</time></trkpt><trkpt lat="36.379205033685416" lon="10.525998271959033"><ele>14.0</ele><time>2026-04-04T17:58:04Z</time></trkpt><trkpt lat="36.37902701858575" lon="10.525773059628927"><ele>14.0</ele><time>2026-04-04T17:58:05Z</time></trkpt><trkpt lat="36.378848792842625" lon="10.52555805298108"><ele>14.0</ele><time>2026-04-04T17:58:06Z</time></trkpt><trkpt lat="36.37867567940733" lon="10.52534702037238"><ele>14.0</ele><time>2026-04-04T17:58:07Z</time></trkpt><trkpt lat="36.37850368178551" lon="10.525135719840108"><ele>14.0</ele><time>2026-04-04T17:58:08Z</time></trkpt><trkpt lat="36.37833086708882" lon="10.524923934987068"><ele>14.0</ele><time>2026-04-04T17:58:09Z</time></trkpt><trkpt lat="36.37815929791941" lon="10.524712801627485"><ele>14.5</ele><time>2026-04-04T17:58:10Z</time></trkpt><trkpt lat="36.37798884235042" lon="10.524499633844004"><ele>15.0</ele><time>2026-04-04T17:58:11Z</time></trkpt><trkpt lat="36.37781866856914" lon="10.524281857540622"><ele>15.0</ele><time>2026-04-04T17:58:12Z</time></trkpt><trkpt lat="36.377643966578404" lon="10.524063228161843"><ele>15.0</ele><time>2026-04-04T17:58:13Z</time></trkpt><trkpt lat="36.37747109586906" lon="10.52385288273678"><ele>15.5</ele><time>2026-04-04T17:58:14Z</time></trkpt><trkpt lat="36.37729956206202" lon="10.52364192017416"><ele>16.0</ele><time>2026-04-04T17:58:15Z</time></trkpt><trkpt lat="36.37712839365179" lon="10.523430262021291"><ele>16.0</ele><time>2026-04-04T17:58:16Z</time></trkpt><trkpt lat="36.37695033322948" lon="10.523210000287948"><ele>16.0</ele><time>2026-04-04T17:58:17Z</time></trkpt><trkpt lat="36.376770112021156" lon="10.522986121456253"><ele>14.5</ele><time>2026-04-04T17:58:18Z</time></trkpt><trkpt lat="36.376572994677886" lon="10.52274835492858"><ele>13.0</ele><time>2026-04-04T17:58:19Z</time></trkpt><trkpt lat="36.37637406430295" lon="10.52250826431998"><ele>13.5</ele><time>2026-04-04T17:58:20Z</time></trkpt><trkpt lat="36.37617975394127" lon="10.522269682452816"><ele>14.0</ele><time>2026-04-04T17:58:21Z</time></trkpt><trkpt lat="36.37598679852455" lon="10.522029903385818"><ele>14.0</ele><time>2026-04-04T17:58:22Z</time></trkpt><trkpt lat="36.37578966464644" lon="10.521784596216692"><ele>14.0</ele><time>2026-04-04T17:58:23Z</time></trkpt><trkpt lat="36.37559082127918" lon="10.521537330989336"><ele>14.0</ele><time>2026-04-04T17:58:24Z</time></trkpt><trkpt lat="36.375392971447454" lon="10.521290196416322"><ele>14.0</ele><time>2026-04-04T17:58:25Z</time></trkpt><trkpt lat="36.37519860836704" lon="10.521045063232265"><ele>14.0</ele><time>2026-04-04T17:58:26Z</time></trkpt><trkpt lat="36.37500800922959" lon="10.520801744573054"><ele>14.0</ele><time>2026-04-04T17:58:27Z</time></trkpt><trkpt lat="36.37481852188491" lon="10.520558997665665"><ele>13.5</ele><time>2026-04-04T17:58:28Z</time></trkpt><trkpt lat="36.37462851556217" lon="10.52031982305771"><ele>13.0</ele><time>2026-04-04T17:58:29Z</time></trkpt><trkpt lat="36.37443972814402" lon="10.520084398189379"><ele>13.0</ele><time>2026-04-04T17:58:30Z</time></trkpt><trkpt lat="36.37425135475327" lon="10.519849122059847"><ele>13.0</ele><time>2026-04-04T17:58:31Z</time></trkpt><trkpt lat="36.37406816123177" lon="10.519607057188283"><ele>13.5</ele><time>2026-04-04T17:58:32Z</time></trkpt><trkpt lat="36.37388697107509" lon="10.519361753688157"><ele>14.0</ele><time>2026-04-04T17:58:33Z</time></trkpt><trkpt lat="36.373706017706596" lon="10.51911268159856"><ele>14.0</ele><time>2026-04-04T17:58:34Z</time></trkpt><trkpt lat="36.37352547161031" lon="10.518865540784217"><ele>14.0</ele><time>2026-04-04T17:58:35Z</time></trkpt><trkpt lat="36.37334206550866" lon="10.518615784208405"><ele>14.0</ele><time>2026-04-04T17:58:36Z</time></trkpt><trkpt lat="36.37316170135414" lon="10.518364939108867"><ele>14.0</ele><time>2026-04-04T17:58:37Z</time></trkpt><trkpt lat="36.372986074772996" lon="10.518109878307355"><ele>14.0</ele><time>2026-04-04T17:58:38Z</time></trkpt><trkpt lat="36.37281207472876" lon="10.517851540090282"><ele>14.0</ele><time>2026-04-04T17:58:39Z</time></trkpt><trkpt lat="36.372641136613495" lon="10.517587686872039"><ele>14.0</ele><time>2026-04-04T17:58:40Z</time></trkpt><trkpt lat="36.3724703466638" lon="10.517319495119073"><ele>14.0</ele><time>2026-04-04T17:58:41Z</time></trkpt><trkpt lat="36.37229601026558" lon="10.517045725666618"><ele>13.5</ele><time>2026-04-04T17:58:42Z</time></trkpt><trkpt lat="36.37212202595356" lon="10.516772521082638"><ele>13.0</ele><time>2026-04-04T17:58:43Z</time></trkpt><trkpt lat="36.37195410544429" lon="10.516500277681441"><ele>13.0</ele><time>2026-04-04T17:58:44Z</time></trkpt><trkpt lat="36.371789384153494" lon="10.516225724147771"><ele>13.0</ele><time>2026-04-04T17:58:45Z</time></trkpt><trkpt lat="36.37162857944813" lon="10.515947588295859"><ele>13.0</ele><time>2026-04-04T17:58:46Z</time></trkpt><trkpt lat="36.37147236536081" lon="10.515668449305545"><ele>13.0</ele><time>2026-04-04T17:58:47Z</time></trkpt><trkpt lat="36.37131762860237" lon="10.51539012403506"><ele>14.0</ele><time>2026-04-04T17:58:48Z</time></trkpt><trkpt lat="36.371163260809354" lon="10.515111852712442"><ele>15.0</ele><time>2026-04-04T17:58:49Z</time></trkpt><trkpt lat="36.37101160318189" lon="10.514833984927371"><ele>15.0</ele><time>2026-04-04T17:58:50Z</time></trkpt><trkpt lat="36.37085726480629" lon="10.514546770090915"><ele>15.0</ele><time>2026-04-04T17:58:50.999Z</time></trkpt><trkpt lat="36.37070102979298" lon="10.514262959252555"><ele>15.0</ele><time>2026-04-04T17:58:51.999Z</time></trkpt><trkpt lat="36.3705460029099" lon="10.51397378370973"><ele>15.0</ele><time>2026-04-04T17:58:52.999Z</time></trkpt><trkpt lat="36.37039526647854" lon="10.513682509853089"><ele>15.0</ele><time>2026-04-04T17:58:53.999Z</time></trkpt><trkpt lat="36.370244704388995" lon="10.513396489126215"><ele>15.0</ele><time>2026-04-04T17:58:54.999Z</time></trkpt><trkpt lat="36.37009580967641" lon="10.513109496557599"><ele>15.0</ele><time>2026-04-04T17:58:55.999Z</time></trkpt><trkpt lat="36.3699496717631" lon="10.512828959123587"><ele>15.0</ele><time>2026-04-04T17:58:56.999Z</time></trkpt><trkpt lat="36.36980593075482" lon="10.512554947213255"><ele>14.5</ele><time>2026-04-04T17:58:58Z</time></trkpt><trkpt lat="36.369659911171276" lon="10.512278662706061"><ele>14.0</ele><time>2026-04-04T17:58:59Z</time></trkpt><trkpt lat="36.36950913370588" lon="10.512006180690946"><ele>14.0</ele><time>2026-04-04T17:59:00Z</time></trkpt><trkpt lat="36.36935319917074" lon="10.511734875702691"><ele>14.0</ele><time>2026-04-04T17:59:01Z</time></trkpt><trkpt lat="36.36919841335619" lon="10.511466006703584"><ele>13.5</ele><time>2026-04-04T17:59:02Z</time></trkpt><trkpt lat="36.36904855685856" lon="10.511199406263762"><ele>13.0</ele><time>2026-04-04T17:59:03Z</time></trkpt><trkpt lat="36.368897132381406" lon="10.510927160971146"><ele>13.0</ele><time>2026-04-04T17:59:04Z</time></trkpt><trkpt lat="36.3687403398157" lon="10.5106567338385"><ele>13.0</ele><time>2026-04-04T17:59:05Z</time></trkpt><trkpt lat="36.36857789065051" lon="10.510382211338165"><ele>12.5</ele><time>2026-04-04T17:59:06Z</time></trkpt><trkpt lat="36.3684154753413" lon="10.510111732483647"><ele>12.0</ele><time>2026-04-04T17:59:07Z</time></trkpt><trkpt lat="36.36825150552513" lon="10.509838888092325"><ele>12.0</ele><time>2026-04-04T17:59:08Z</time></trkpt><trkpt lat="36.368086890887234" lon="10.50956674722445"><ele>12.0</ele><time>2026-04-04T17:59:09Z</time></trkpt><trkpt lat="36.36791950756572" lon="10.509292501106545"><ele>12.5</ele><time>2026-04-04T17:59:10Z</time></trkpt><trkpt lat="36.367753596096144" lon="10.509016393749002"><ele>13.0</ele><time>2026-04-04T17:59:11Z</time></trkpt><trkpt lat="36.36758169037343" lon="10.508734850762469"><ele>13.0</ele><time>2026-04-04T17:59:12Z</time></trkpt><trkpt lat="36.36740304637582" lon="10.508455321602167"><ele>13.0</ele><time>2026-04-04T17:59:13Z</time></trkpt><trkpt lat="36.36722138104932" lon="10.508179948004743"><ele>13.5</ele><time>2026-04-04T17:59:14Z</time></trkpt><trkpt lat="36.36703601561993" lon="10.507908123170688"><ele>14.0</ele><time>2026-04-04T17:59:15Z</time></trkpt><trkpt lat="36.36685026036381" lon="10.507640767223476"><ele>14.0</ele><time>2026-04-04T17:59:16Z</time></trkpt><trkpt lat="36.36666327359745" lon="10.5073824709534"><ele>14.0</ele><time>2026-04-04T17:59:17Z</time></trkpt><trkpt lat="36.36647747616799" lon="10.507128398191416"><ele>13.0</ele><time>2026-04-04T17:59:18Z</time></trkpt><trkpt lat="36.36629019699613" lon="10.506878701933095"><ele>12.0</ele><time>2026-04-04T17:59:19Z</time></trkpt><trkpt lat="36.36609917636937" lon="10.506632123840616"><ele>12.0</ele><time>2026-04-04T17:59:20Z</time></trkpt><trkpt lat="36.36590354533759" lon="10.506387063890946"><ele>12.0</ele><time>2026-04-04T17:59:21Z</time></trkpt><trkpt lat="36.365701479904715" lon="10.506139968463689"><ele>13.0</ele><time>2026-04-04T17:59:22Z</time></trkpt><trkpt lat="36.36548088439064" lon="10.50590750250825"><ele>14.0</ele><time>2026-04-04T17:59:23Z</time></trkpt><trkpt lat="36.3652966828825" lon="10.505634286520602"><ele>12.5</ele><time>2026-04-04T17:59:24Z</time></trkpt><trkpt lat="36.36509432486871" lon="10.505398658403623"><ele>11.0</ele><time>2026-04-04T17:59:25Z</time></trkpt><trkpt lat="36.36489066431681" lon="10.505159818489"><ele>11.5</ele><time>2026-04-04T17:59:26Z</time></trkpt><trkpt lat="36.36468166387579" lon="10.50492115014228"><ele>12.0</ele><time>2026-04-04T17:59:27Z</time></trkpt><trkpt lat="36.364470609761526" lon="10.504683192603606"><ele>13.0</ele><time>2026-04-04T17:59:28Z</time></trkpt><trkpt lat="36.36425436103122" lon="10.504449431117212"><ele>14.0</ele><time>2026-04-04T17:59:29Z</time></trkpt><trkpt lat="36.36403572069697" lon="10.50421532821099"><ele>14.0</ele><time>2026-04-04T17:59:30Z</time></trkpt><trkpt lat="36.363821011894125" lon="10.503985626401157"><ele>14.0</ele><time>2026-04-04T17:59:31Z</time></trkpt><trkpt lat="36.36360725408891" lon="10.503757460697157"><ele>13.5</ele><time>2026-04-04T17:59:32Z</time></trkpt><trkpt lat="36.36339048634365" lon="10.503528720158117"><ele>13.0</ele><time>2026-04-04T17:59:33Z</time></trkpt><trkpt lat="36.36317374922146" lon="10.503303774993547"><ele>13.0</ele><time>2026-04-04T17:59:34Z</time></trkpt><trkpt lat="36.362955197289715" lon="10.50308072882504"><ele>13.0</ele><time>2026-04-04T17:59:35Z</time></trkpt><trkpt lat="36.36273547187701" lon="10.502862904142066"><ele>13.0</ele><time>2026-04-04T17:59:36Z</time></trkpt><trkpt lat="36.3625121294148" lon="10.502651013139962"><ele>13.0</ele><time>2026-04-04T17:59:37Z</time></trkpt><trkpt lat="36.36228637383244" lon="10.502438945734328"><ele>13.0</ele><time>2026-04-04T17:59:38Z</time></trkpt><trkpt lat="36.362057169830834" lon="10.5022255347001"><ele>13.0</ele><time>2026-04-04T17:59:39Z</time></trkpt><trkpt lat="36.36182835049395" lon="10.502016271462038"><ele>13.0</ele><time>2026-04-04T17:59:40Z</time></trkpt><trkpt lat="36.361598125139224" lon="10.50181442411524"><ele>13.0</ele><time>2026-04-04T17:59:41Z</time></trkpt><trkpt lat="36.36137048704914" lon="10.501622467520752"><ele>12.5</ele><time>2026-04-04T17:59:42Z</time></trkpt><trkpt lat="36.36114182379622" lon="10.50143252320655"><ele>12.0</ele><time>2026-04-04T17:59:43Z</time></trkpt><trkpt lat="36.360912365819985" lon="10.501244942278097"><ele>12.0</ele><time>2026-04-04T17:59:44Z</time></trkpt><trkpt lat="36.36068050087876" lon="10.501060426402837"><ele>12.0</ele><time>2026-04-04T17:59:45Z</time></trkpt><trkpt lat="36.36044729574374" lon="10.50087736154554"><ele>11.5</ele><time>2026-04-04T17:59:46Z</time></trkpt><trkpt lat="36.36021225451224" lon="10.500698781269694"><ele>11.0</ele><time>2026-04-04T17:59:47Z</time></trkpt><trkpt lat="36.359977184350946" lon="10.500521091903812"><ele>11.0</ele><time>2026-04-04T17:59:48Z</time></trkpt><trkpt lat="36.35973366192237" lon="10.500348629679118"><ele>11.0</ele><time>2026-04-04T17:59:49Z</time></trkpt><trkpt lat="36.359481978854355" lon="10.500180767325366"><ele>11.5</ele><time>2026-04-04T17:59:50Z</time></trkpt><trkpt lat="36.359225924782166" lon="10.500011447276368"><ele>12.0</ele><time>2026-04-04T17:59:51Z</time></trkpt><trkpt lat="36.35897105461152" lon="10.499841849113979"><ele>12.0</ele><time>2026-04-04T17:59:52Z</time></trkpt><trkpt lat="36.35871177227993" lon="10.499667190135897"><ele>12.0</ele><time>2026-04-04T17:59:53Z</time></trkpt><trkpt lat="36.358450985852436" lon="10.49949837844986"><ele>11.5</ele><time>2026-04-04T17:59:54Z</time></trkpt><trkpt lat="36.358189399361066" lon="10.499327377345299"><ele>11.0</ele><time>2026-04-04T17:59:55Z</time></trkpt><trkpt lat="36.357926072624714" lon="10.499163410177369"><ele>11.0</ele><time>2026-04-04T17:59:56Z</time></trkpt><trkpt lat="36.357663056343156" lon="10.49900190784407"><ele>11.0</ele><time>2026-04-04T17:59:57Z</time></trkpt><trkpt lat="36.3574019185268" lon="10.498839642201816"><ele>10.0</ele><time>2026-04-04T17:59:58Z</time></trkpt><trkpt lat="36.35714681583737" lon="10.498677451801807"><ele>9.0</ele><time>2026-04-04T17:59:59Z</time></trkpt><trkpt lat="36.35689315118578" lon="10.498514235313923"><ele>9.0</ele><time>2026-04-04T18:00:00Z</time></trkpt><trkpt lat="36.3566334676582" lon="10.498355429611795"><ele>9.0</ele><time>2026-04-04T18:00:01Z</time></trkpt><trkpt lat="36.35637864821609" lon="10.498196308290087"><ele>9.5</ele><time>2026-04-04T18:00:02Z</time></trkpt><trkpt lat="36.356124452316" lon="10.498031356726699"><ele>10.0</ele><time>2026-04-04T18:00:03Z</time></trkpt><trkpt lat="36.355872445526856" lon="10.497866402806764"><ele>10.0</ele><time>2026-04-04T18:00:04Z</time></trkpt><trkpt lat="36.35562393858004" lon="10.497708919503312"><ele>10.0</ele><time>2026-04-04T18:00:05Z</time></trkpt><trkpt lat="36.35537778039517" lon="10.497554719642517"><ele>10.0</ele><time>2026-04-04T18:00:06Z</time></trkpt><trkpt lat="36.35513237688203" lon="10.497398628994839"><ele>10.0</ele><time>2026-04-04T18:00:07Z</time></trkpt><trkpt lat="36.354887952808724" lon="10.497244171520624"><ele>9.5</ele><time>2026-04-04T18:00:08Z</time></trkpt><trkpt lat="36.35464616315715" lon="10.497089485456288"><ele>9.0</ele><time>2026-04-04T18:00:09Z</time></trkpt><trkpt lat="36.35440650173732" lon="10.496943086572994"><ele>9.0</ele><time>2026-04-04T18:00:10Z</time></trkpt><trkpt lat="36.354171192223475" lon="10.496796005082414"><ele>9.0</ele><time>2026-04-04T18:00:11Z</time></trkpt><trkpt lat="36.35394072825174" lon="10.496650677289935"><ele>8.5</ele><time>2026-04-04T18:00:12Z</time></trkpt><trkpt lat="36.35371098063135" lon="10.496504003046764"><ele>8.0</ele><time>2026-04-04T18:00:13Z</time></trkpt><trkpt lat="36.35348038821424" lon="10.496359884850959"><ele>8.0</ele><time>2026-04-04T18:00:14Z</time></trkpt><trkpt lat="36.35324323397649" lon="10.496212258803029"><ele>8.0</ele><time>2026-04-04T18:00:15Z</time></trkpt><trkpt lat="36.35300353246142" lon="10.496061744394797"><ele>8.0</ele><time>2026-04-04T18:00:16Z</time></trkpt><trkpt lat="36.35276381915399" lon="10.49591000128849"><ele>8.0</ele><time>2026-04-04T18:00:17Z</time></trkpt><trkpt lat="36.352525288788705" lon="10.495758192624361"><ele>8.0</ele><time>2026-04-04T18:00:18Z</time></trkpt><trkpt lat="36.35227939602953" lon="10.495602090457496"><ele>8.0</ele><time>2026-04-04T18:00:19Z</time></trkpt><trkpt lat="36.352030147002196" lon="10.495447253585585"><ele>7.0</ele><time>2026-04-04T18:00:20Z</time></trkpt><trkpt lat="36.351777529511246" lon="10.495292251013614"><ele>6.0</ele><time>2026-04-04T18:00:21Z</time></trkpt><trkpt lat="36.35152462245776" lon="10.495134745097776"><ele>6.5</ele><time>2026-04-04T18:00:22Z</time></trkpt><trkpt lat="36.35126792109383" lon="10.49497428384378"><ele>7.0</ele><time>2026-04-04T18:00:23Z</time></trkpt><trkpt lat="36.3510099717521" lon="10.494811470459874"><ele>7.0</ele><time>2026-04-04T18:00:24Z</time></trkpt><trkpt lat="36.350753535165026" lon="10.494653475928342"><ele>7.0</ele><time>2026-04-04T18:00:25Z</time></trkpt><trkpt lat="36.3504997517471" lon="10.49449131370875"><ele>7.5</ele><time>2026-04-04T18:00:26Z</time></trkpt><trkpt lat="36.35024821428425" lon="10.49433097849789"><ele>8.0</ele><time>2026-04-04T18:00:27Z</time></trkpt><trkpt lat="36.349997700578975" lon="10.494174737753795"><ele>8.0</ele><time>2026-04-04T18:00:28Z</time></trkpt><trkpt lat="36.349752904239416" lon="10.49401208263839"><ele>8.0</ele><time>2026-04-04T18:00:29Z</time></trkpt><trkpt lat="36.34950839616139" lon="10.493853927663858"><ele>7.5</ele><time>2026-04-04T18:00:30Z</time></trkpt><trkpt lat="36.349261302318304" lon="10.493705775497691"><ele>7.0</ele><time>2026-04-04T18:00:31Z</time></trkpt><trkpt lat="36.34901622439261" lon="10.49355491969804"><ele>7.0</ele><time>2026-04-04T18:00:32Z</time></trkpt><trkpt lat="36.34876617143694" lon="10.493398195897775"><ele>7.0</ele><time>2026-04-04T18:00:33Z</time></trkpt><trkpt lat="36.34851112987258" lon="10.493239716355156"><ele>7.0</ele><time>2026-04-04T18:00:34Z</time></trkpt><trkpt lat="36.34825076902249" lon="10.493079818852973"><ele>7.0</ele><time>2026-04-04T18:00:35Z</time></trkpt><trkpt lat="36.34798859440152" lon="10.492915618281726"><ele>6.0</ele><time>2026-04-04T18:00:36Z</time></trkpt><trkpt lat="36.34772288555921" lon="10.492745224539254"><ele>5.0</ele><time>2026-04-04T18:00:37Z</time></trkpt><trkpt lat="36.347457889903865" lon="10.4925745207839"><ele>5.0</ele><time>2026-04-04T18:00:38Z</time></trkpt><trkpt lat="36.34719001336792" lon="10.492407297052495"><ele>5.0</ele><time>2026-04-04T18:00:39Z</time></trkpt><trkpt lat="36.34691836677898" lon="10.49224420816802"><ele>5.0</ele><time>2026-04-04T18:00:40Z</time></trkpt><trkpt lat="36.34664696373253" lon="10.492080345398163"><ele>5.0</ele><time>2026-04-04T18:00:41Z</time></trkpt><trkpt lat="36.34637593629413" lon="10.49191114604112"><ele>5.0</ele><time>2026-04-04T18:00:42Z</time></trkpt><trkpt lat="36.346102584052936" lon="10.491738040887098"><ele>5.0</ele><time>2026-04-04T18:00:43Z</time></trkpt><trkpt lat="36.345817714018494" lon="10.49156111916043"><ele>4.5</ele><time>2026-04-04T18:00:44Z</time></trkpt><trkpt lat="36.345513613466736" lon="10.4913733758567"><ele>4.0</ele><time>2026-04-04T18:00:44.999Z</time></trkpt><trkpt lat="36.34519357611195" lon="10.491172813789198"><ele>5.0</ele><time>2026-04-04T18:00:45.999Z</time></trkpt><trkpt lat="36.34486800860935" lon="10.490968840998697"><ele>6.0</ele><time>2026-04-04T18:00:46.999Z</time></trkpt><trkpt lat="36.34455797762076" lon="10.490776557771461"><ele>6.0</ele><time>2026-04-04T18:00:47.999Z</time></trkpt><trkpt lat="36.34427189220204" lon="10.490596472674177"><ele>6.0</ele><time>2026-04-04T18:00:48.999Z</time></trkpt><trkpt lat="36.34399762670542" lon="10.490423263327576"><ele>5.5</ele><time>2026-04-04T18:00:49.999Z</time></trkpt><trkpt lat="36.343733412982075" lon="10.490253096035397"><ele>5.0</ele><time>2026-04-04T18:00:50.999Z</time></trkpt><trkpt lat="36.3434748630013" lon="10.490081357995571"><ele>5.0</ele><time>2026-04-04T18:00:51.999Z</time></trkpt><trkpt lat="36.34322328693694" lon="10.48991751629479"><ele>5.0</ele><time>2026-04-04T18:00:52.999Z</time></trkpt><trkpt lat="36.34297395898402" lon="10.48976043785643"><ele>5.0</ele><time>2026-04-04T18:00:53.999Z</time></trkpt><trkpt lat="36.342727645264105" lon="10.489602225532096"><ele>5.0</ele><time>2026-04-04T18:00:54.999Z</time></trkpt><trkpt lat="36.342485889654185" lon="10.48943978533492"><ele>5.0</ele><time>2026-04-04T18:00:55.999Z</time></trkpt><trkpt lat="36.342250020959035" lon="10.489279937377741"><ele>5.0</ele><time>2026-04-04T18:00:56.999Z</time></trkpt><trkpt lat="36.342014822760014" lon="10.489122903982752"><ele>5.0</ele><time>2026-04-04T18:00:57.999Z</time></trkpt><trkpt lat="36.34178407519573" lon="10.48896987242683"><ele>5.0</ele><time>2026-04-04T18:00:58.999Z</time></trkpt><trkpt lat="36.34155406910953" lon="10.488812479074854"><ele>4.0</ele><time>2026-04-04T18:00:59.999Z</time></trkpt><trkpt lat="36.34132164495419" lon="10.488648066177348"><ele>3.0</ele><time>2026-04-04T18:01:00.999Z</time></trkpt><trkpt lat="36.3410839928796" lon="10.488479806551755"><ele>3.0</ele><time>2026-04-04T18:01:01.999Z</time></trkpt><trkpt lat="36.34083823579685" lon="10.488306672374906"><ele>3.0</ele><time>2026-04-04T18:01:03Z</time></trkpt><trkpt lat="36.34058681248486" lon="10.488127604436345"><ele>3.0</ele><time>2026-04-04T18:01:04Z</time></trkpt><trkpt lat="36.34033165496566" lon="10.487940808645483"><ele>3.0</ele><time>2026-04-04T18:01:05Z</time></trkpt><trkpt lat="36.34007639924495" lon="10.487744456870809"><ele>3.0</ele><time>2026-04-04T18:01:06Z</time></trkpt><trkpt lat="36.33982406527546" lon="10.487546504127991"><ele>3.0</ele><time>2026-04-04T18:01:07Z</time></trkpt><trkpt lat="36.339582800337375" lon="10.487351901707344"><ele>3.0</ele><time>2026-04-04T18:01:08Z</time></trkpt><trkpt lat="36.33935366596414" lon="10.48716454606898"><ele>3.0</ele><time>2026-04-04T18:01:09Z</time></trkpt><trkpt lat="36.33913371260837" lon="10.486981592710716"><ele>3.0</ele><time>2026-04-04T18:01:10Z</time></trkpt><trkpt lat="36.33891698856662" lon="10.486796539513644"><ele>3.0</ele><time>2026-04-04T18:01:11Z</time></trkpt><trkpt lat="36.33870392216691" lon="10.486612608641616"><ele>3.0</ele><time>2026-04-04T18:01:12Z</time></trkpt><trkpt lat="36.3384943947523" lon="10.486426430489562"><ele>3.0</ele><time>2026-04-04T18:01:13Z</time></trkpt><trkpt lat="36.33829232777511" lon="10.486243556298772"><ele>3.5</ele><time>2026-04-04T18:01:14Z</time></trkpt><trkpt lat="36.338091303756414" lon="10.48606373759496"><ele>4.0</ele><time>2026-04-04T18:01:15Z</time></trkpt><trkpt lat="36.33788890610342" lon="10.485878959083205"><ele>4.5</ele><time>2026-04-04T18:01:16Z</time></trkpt><trkpt lat="36.33768417359131" lon="10.48568840763889"><ele>5.0</ele><time>2026-04-04T18:01:17Z</time></trkpt><trkpt lat="36.33748453669046" lon="10.485495678263923"><ele>5.0</ele><time>2026-04-04T18:01:18Z</time></trkpt><trkpt lat="36.33728806472686" lon="10.485295989620523"><ele>5.0</ele><time>2026-04-04T18:01:19Z</time></trkpt><trkpt lat="36.3370934729463" lon="10.485095995117058"><ele>5.0</ele><time>2026-04-04T18:01:20Z</time></trkpt><trkpt lat="36.336899173227934" lon="10.484896030591456"><ele>5.0</ele><time>2026-04-04T18:01:21Z</time></trkpt><trkpt lat="36.33670756088754" lon="10.484695277049195"><ele>5.5</ele><time>2026-04-04T18:01:22Z</time></trkpt><trkpt lat="36.33651926907435" lon="10.484491875971353"><ele>6.0</ele><time>2026-04-04T18:01:23Z</time></trkpt><trkpt lat="36.33632842718283" lon="10.484283639571702"><ele>6.0</ele><time>2026-04-04T18:01:24Z</time></trkpt><trkpt lat="36.33613457884696" lon="10.484066305270002"><ele>6.0</ele><time>2026-04-04T18:01:25Z</time></trkpt><trkpt lat="36.33592926273831" lon="10.48383118366036"><ele>5.5</ele><time>2026-04-04T18:01:26Z</time></trkpt><trkpt lat="36.335717606912766" lon="10.4835767397982"><ele>5.0</ele><time>2026-04-04T18:01:27Z</time></trkpt><trkpt lat="36.33551189992926" lon="10.483319071722278"><ele>5.0</ele><time>2026-04-04T18:01:28Z</time></trkpt><trkpt lat="36.33531114071766" lon="10.483061326899495"><ele>5.0</ele><time>2026-04-04T18:01:29Z</time></trkpt><trkpt lat="36.33511608788677" lon="10.482805412936749"><ele>5.5</ele><time>2026-04-04T18:01:30Z</time></trkpt><trkpt lat="36.33492851107019" lon="10.482547963208662"><ele>6.0</ele><time>2026-04-04T18:01:31Z</time></trkpt><trkpt lat="36.33474821594361" lon="10.482289183425362"><ele>6.0</ele><time>2026-04-04T18:01:32Z</time></trkpt><trkpt lat="36.3345736629302" lon="10.48203235023474"><ele>6.0</ele><time>2026-04-04T18:01:33Z</time></trkpt><trkpt lat="36.33440367508461" lon="10.48177761831571"><ele>6.0</ele><time>2026-04-04T18:01:34Z</time></trkpt><trkpt lat="36.3342360259467" lon="10.481521756085925"><ele>6.0</ele><time>2026-04-04T18:01:35Z</time></trkpt><trkpt lat="36.33407516842013" lon="10.481268131980814"><ele>6.0</ele><time>2026-04-04T18:01:36Z</time></trkpt><trkpt lat="36.33391889084165" lon="10.481012607843764"><ele>6.0</ele><time>2026-04-04T18:01:37Z</time></trkpt><trkpt lat="36.33376388145448" lon="10.480752060567523"><ele>6.0</ele><time>2026-04-04T18:01:38Z</time></trkpt><trkpt lat="36.33361279542882" lon="10.480487292469892"><ele>6.0</ele><time>2026-04-04T18:01:39Z</time></trkpt><trkpt lat="36.33346549011755" lon="10.480218846333385"><ele>5.5</ele><time>2026-04-04T18:01:40Z</time></trkpt><trkpt lat="36.33332023843499" lon="10.479952299185605"><ele>5.0</ele><time>2026-04-04T18:01:41Z</time></trkpt><trkpt lat="36.33318026508216" lon="10.479686459014324"><ele>5.5</ele><time>2026-04-04T18:01:42Z</time></trkpt><trkpt lat="36.33304718970335" lon="10.47941716485338"><ele>6.0</ele><time>2026-04-04T18:01:43Z</time></trkpt><trkpt lat="36.332923086829894" lon="10.479143008812366"><ele>6.0</ele><time>2026-04-04T18:01:44Z</time></trkpt><trkpt lat="36.33279628695632" lon="10.478873249963412"><ele>6.0</ele><time>2026-04-04T18:01:45Z</time></trkpt><trkpt lat="36.3326732526299" lon="10.478604290314541"><ele>6.5</ele><time>2026-04-04T18:01:46Z</time></trkpt><trkpt lat="36.33255121073272" lon="10.478328811769853"><ele>7.0</ele><time>2026-04-04T18:01:47Z</time></trkpt><trkpt lat="36.332429956418174" lon="10.478050475808118"><ele>7.0</ele><time>2026-04-04T18:01:48Z</time></trkpt><trkpt lat="36.332314382412456" lon="10.477768654278758"><ele>7.0</ele><time>2026-04-04T18:01:49Z</time></trkpt><trkpt lat="36.33220067037984" lon="10.47748187372252"><ele>6.5</ele><time>2026-04-04T18:01:50Z</time></trkpt><trkpt lat="36.33208977795674" lon="10.477191963347677"><ele>6.0</ele><time>2026-04-04T18:01:51Z</time></trkpt><trkpt lat="36.33198286411784" lon="10.47690127455396"><ele>6.0</ele><time>2026-04-04T18:01:52Z</time></trkpt><trkpt lat="36.331879199969826" lon="10.476607030791332"><ele>6.0</ele><time>2026-04-04T18:01:53Z</time></trkpt><trkpt lat="36.33177692425211" lon="10.47630778355835"><ele>6.5</ele><time>2026-04-04T18:01:54Z</time></trkpt><trkpt lat="36.331676375733096" lon="10.476008178963534"><ele>7.0</ele><time>2026-04-04T18:01:55Z</time></trkpt><trkpt lat="36.33157598133657" lon="10.475709614509485"><ele>7.0</ele><time>2026-04-04T18:01:56Z</time></trkpt><trkpt lat="36.33147166951396" lon="10.475401620263456"><ele>7.0</ele><time>2026-04-04T18:01:57Z</time></trkpt><trkpt lat="36.33136800173739" lon="10.475093027064972"><ele>7.0</ele><time>2026-04-04T18:01:58Z</time></trkpt><trkpt lat="36.331267877827635" lon="10.474785427195812"><ele>7.0</ele><time>2026-04-04T18:01:59Z</time></trkpt><trkpt lat="36.33116913835761" lon="10.474476283251121"><ele>7.0</ele><time>2026-04-04T18:02:00Z</time></trkpt><trkpt lat="36.33107264039842" lon="10.474168509608177"><ele>7.0</ele><time>2026-04-04T18:02:01Z</time></trkpt><trkpt lat="36.330979157566304" lon="10.473862225386979"><ele>7.5</ele><time>2026-04-04T18:02:02Z</time></trkpt><trkpt lat="36.3308870530818" lon="10.473557846685152"><ele>8.0</ele><time>2026-04-04T18:02:03Z</time></trkpt><trkpt lat="36.3307952868613" lon="10.473252991383351"><ele>8.0</ele><time>2026-04-04T18:02:04Z</time></trkpt><trkpt lat="36.33070574268282" lon="10.472949144395159"><ele>8.0</ele><time>2026-04-04T18:02:05Z</time></trkpt><trkpt lat="36.33061410122557" lon="10.472646021601149"><ele>8.0</ele><time>2026-04-04T18:02:06Z</time></trkpt><trkpt lat="36.3305254691791" lon="10.472346981749196"><ele>8.0</ele><time>2026-04-04T18:02:07Z</time></trkpt><trkpt lat="36.33043467261114" lon="10.47204934832587"><ele>8.0</ele><time>2026-04-04T18:02:08Z</time></trkpt><trkpt lat="36.33034346066522" lon="10.471753140456224"><ele>8.0</ele><time>2026-04-04T18:02:09Z</time></trkpt><trkpt lat="36.33025207173233" lon="10.471452586582917"><ele>7.5</ele><time>2026-04-04T18:02:10Z</time></trkpt><trkpt lat="36.33016003756276" lon="10.471147862633668"><ele>7.0</ele><time>2026-04-04T18:02:11Z</time></trkpt><trkpt lat="36.3300670275491" lon="10.47083976576941"><ele>7.0</ele><time>2026-04-04T18:02:12Z</time></trkpt><trkpt lat="36.3299716317227" lon="10.470530060614102"><ele>7.0</ele><time>2026-04-04T18:02:13Z</time></trkpt><trkpt lat="36.32987549396362" lon="10.47021572281657"><ele>7.0</ele><time>2026-04-04T18:02:14Z</time></trkpt><trkpt lat="36.329779858821816" lon="10.469902437414815"><ele>7.0</ele><time>2026-04-04T18:02:15Z</time></trkpt><trkpt lat="36.329682183078575" lon="10.469587979683629"><ele>8.0</ele><time>2026-04-04T18:02:16Z</time></trkpt><trkpt lat="36.32958630426705" lon="10.469272625035822"><ele>9.0</ele><time>2026-04-04T18:02:17Z</time></trkpt><trkpt lat="36.32949870230775" lon="10.468960102286585"><ele>8.5</ele><time>2026-04-04T18:02:18Z</time></trkpt><trkpt lat="36.32941596628372" lon="10.468646423480141"><ele>8.0</ele><time>2026-04-04T18:02:19Z</time></trkpt><trkpt lat="36.32932897849285" lon="10.46833376629405"><ele>8.0</ele><time>2026-04-04T18:02:20Z</time></trkpt><trkpt lat="36.32923400945329" lon="10.468025407414107"><ele>8.0</ele><time>2026-04-04T18:02:21Z</time></trkpt><trkpt lat="36.32913894816733" lon="10.467711880220012"><ele>8.5</ele><time>2026-04-04T18:02:22Z</time></trkpt><trkpt lat="36.329041002961205" lon="10.467396951270231"><ele>9.0</ele><time>2026-04-04T18:02:23Z</time></trkpt><trkpt lat="36.32894629333737" lon="10.46708278377887"><ele>9.5</ele><time>2026-04-04T18:02:24Z</time></trkpt><trkpt lat="36.328852344917394" lon="10.466766471144298"><ele>10.0</ele><time>2026-04-04T18:02:25Z</time></trkpt><trkpt lat="36.32875496157779" lon="10.466446428772791"><ele>10.0</ele><time>2026-04-04T18:02:26Z</time></trkpt><trkpt lat="36.32865922374665" lon="10.46613399028878"><ele>10.0</ele><time>2026-04-04T18:02:27Z</time></trkpt><trkpt lat="36.32856382857427" lon="10.465821469284819"><ele>10.0</ele><time>2026-04-04T18:02:28Z</time></trkpt><trkpt lat="36.32847017225942" lon="10.4655062046977"><ele>10.0</ele><time>2026-04-04T18:02:29Z</time></trkpt><trkpt lat="36.3283781880276" lon="10.465195040194297"><ele>10.0</ele><time>2026-04-04T18:02:30Z</time></trkpt><trkpt lat="36.328283865920255" lon="10.46487785598064"><ele>10.0</ele><time>2026-04-04T18:02:31Z</time></trkpt><trkpt lat="36.32818870444761" lon="10.464559587377405"><ele>10.0</ele><time>2026-04-04T18:02:32Z</time></trkpt><trkpt lat="36.32809037490426" lon="10.464243045801755"><ele>10.0</ele><time>2026-04-04T18:02:33Z</time></trkpt><trkpt lat="36.32799119222036" lon="10.463926881794624"><ele>11.5</ele><time>2026-04-04T18:02:34Z</time></trkpt><trkpt lat="36.32789397782469" lon="10.463618470398478"><ele>13.0</ele><time>2026-04-04T18:02:35Z</time></trkpt><trkpt lat="36.327795878159336" lon="10.46331257668132"><ele>13.0</ele><time>2026-04-04T18:02:36Z</time></trkpt><trkpt lat="36.32769083392509" lon="10.463008159340564"><ele>13.0</ele><time>2026-04-04T18:02:37Z</time></trkpt><trkpt lat="36.32758043249897" lon="10.46271012768764"><ele>13.0</ele><time>2026-04-04T18:02:38Z</time></trkpt><trkpt lat="36.32746684677361" lon="10.462411062020685"><ele>13.0</ele><time>2026-04-04T18:02:39Z</time></trkpt><trkpt lat="36.3273519428194" lon="10.462112022011143"><ele>13.0</ele><time>2026-04-04T18:02:40Z</time></trkpt><trkpt lat="36.32723873221158" lon="10.461814473403791"><ele>13.0</ele><time>2026-04-04T18:02:41Z</time></trkpt><trkpt lat="36.32712179985937" lon="10.46151881664637"><ele>13.5</ele><time>2026-04-04T18:02:42Z</time></trkpt><trkpt lat="36.32699826085104" lon="10.461226012316368"><ele>14.0</ele><time>2026-04-04T18:02:43Z</time></trkpt><trkpt lat="36.326871215158754" lon="10.460932514971047"><ele>14.0</ele><time>2026-04-04T18:02:44Z</time></trkpt><trkpt lat="36.326742137190145" lon="10.46063847545429"><ele>14.0</ele><time>2026-04-04T18:02:45Z</time></trkpt><trkpt lat="36.3266105660733" lon="10.46034752289045"><ele>14.0</ele><time>2026-04-04T18:02:46Z</time></trkpt><trkpt lat="36.32647625679353" lon="10.46006065601134"><ele>14.0</ele><time>2026-04-04T18:02:46.999Z</time></trkpt><trkpt lat="36.32633782717057" lon="10.459774192394438"><ele>13.5</ele><time>2026-04-04T18:02:47.999Z</time></trkpt><trkpt lat="36.326195849535246" lon="10.459490858744605"><ele>13.0</ele><time>2026-04-04T18:02:48.999Z</time></trkpt><trkpt lat="36.32605358720484" lon="10.459201307039276"><ele>13.0</ele><time>2026-04-04T18:02:49.999Z</time></trkpt><trkpt lat="36.32590989543803" lon="10.45890362958533"><ele>13.0</ele><time>2026-04-04T18:02:50.999Z</time></trkpt><trkpt lat="36.32575687479729" lon="10.45860637789843"><ele>12.5</ele><time>2026-04-04T18:02:51.999Z</time></trkpt><trkpt lat="36.325594334147965" lon="10.458316109196767"><ele>12.0</ele><time>2026-04-04T18:02:52.999Z</time></trkpt><trkpt lat="36.32542980096315" lon="10.458035023002235"><ele>13.0</ele><time>2026-04-04T18:02:53.999Z</time></trkpt><trkpt lat="36.325263643446156" lon="10.457753519106948"><ele>14.0</ele><time>2026-04-04T18:02:54.999Z</time></trkpt><trkpt lat="36.32509527979657" lon="10.457476441536265"><ele>14.0</ele><time>2026-04-04T18:02:55.999Z</time></trkpt><trkpt lat="36.324926228430385" lon="10.457202798610725"><ele>14.0</ele><time>2026-04-04T18:02:56.999Z</time></trkpt><trkpt lat="36.324756066785014" lon="10.456934551893603"><ele>13.5</ele><time>2026-04-04T18:02:57.999Z</time></trkpt><trkpt lat="36.32458062896661" lon="10.456667753443071"><ele>13.0</ele><time>2026-04-04T18:02:58.999Z</time></trkpt><trkpt lat="36.324401874524185" lon="10.456407069752046"><ele>12.0</ele><time>2026-04-04T18:02:59.999Z</time></trkpt><trkpt lat="36.32421673937911" lon="10.456146776685173"><ele>11.0</ele><time>2026-04-04T18:03:00.999Z</time></trkpt><trkpt lat="36.32403058106298" lon="10.45588834739956"><ele>11.0</ele><time>2026-04-04T18:03:01.999Z</time></trkpt><trkpt lat="36.32383953651901" lon="10.45563566901154"><ele>11.0</ele><time>2026-04-04T18:03:02.999Z</time></trkpt><trkpt lat="36.32364240695834" lon="10.45538961669276"><ele>12.0</ele><time>2026-04-04T18:03:03.999Z</time></trkpt><trkpt lat="36.32344496990715" lon="10.455139947667016"><ele>13.0</ele><time>2026-04-04T18:03:04.999Z</time></trkpt><trkpt lat="36.32324438473417" lon="10.454886543264758"><ele>13.0</ele><time>2026-04-04T18:03:05.999Z</time></trkpt><trkpt lat="36.32303760668385" lon="10.454636904633931"><ele>13.0</ele><time>2026-04-04T18:03:06.999Z</time></trkpt><trkpt lat="36.322828455635175" lon="10.454392783606933"><ele>13.0</ele><time>2026-04-04T18:03:08Z</time></trkpt><trkpt lat="36.322614515986224" lon="10.454149157193335"><ele>13.0</ele><time>2026-04-04T18:03:09Z</time></trkpt><trkpt lat="36.32239764130537" lon="10.45391017831519"><ele>13.0</ele><time>2026-04-04T18:03:10Z</time></trkpt><trkpt lat="36.32217723688888" lon="10.453674622463215"><ele>13.0</ele><time>2026-04-04T18:03:11Z</time></trkpt><trkpt lat="36.32196062171001" lon="10.453445358814447"><ele>13.0</ele><time>2026-04-04T18:03:12Z</time></trkpt><trkpt lat="36.32174587128806" lon="10.453226356935023"><ele>13.0</ele><time>2026-04-04T18:03:13Z</time></trkpt><trkpt lat="36.321523418342025" lon="10.45300950826256"><ele>12.5</ele><time>2026-04-04T18:03:14Z</time></trkpt><trkpt lat="36.321291214543706" lon="10.452790381225963"><ele>12.0</ele><time>2026-04-04T18:03:15Z</time></trkpt><trkpt lat="36.321053258010295" lon="10.452573509314924"><ele>12.0</ele><time>2026-04-04T18:03:16Z</time></trkpt><trkpt lat="36.32081489057681" lon="10.452361375414833"><ele>12.0</ele><time>2026-04-04T18:03:17Z</time></trkpt><trkpt lat="36.320576581596164" lon="10.45215508154514"><ele>13.0</ele><time>2026-04-04T18:03:18Z</time></trkpt><trkpt lat="36.320334362817384" lon="10.451958917326136"><ele>14.0</ele><time>2026-04-04T18:03:19Z</time></trkpt><trkpt lat="36.32009186348695" lon="10.451765160545206"><ele>14.0</ele><time>2026-04-04T18:03:20Z</time></trkpt><trkpt lat="36.31985051095795" lon="10.45157652931264"><ele>14.0</ele><time>2026-04-04T18:03:21Z</time></trkpt><trkpt lat="36.31960545810744" lon="10.451395514247029"><ele>13.0</ele><time>2026-04-04T18:03:22Z</time></trkpt><trkpt lat="36.31936109981255" lon="10.451217396433732"><ele>12.0</ele><time>2026-04-04T18:03:23Z</time></trkpt><trkpt lat="36.319114735088526" lon="10.451042823246528"><ele>12.0</ele><time>2026-04-04T18:03:24Z</time></trkpt><trkpt lat="36.3188640821027" lon="10.450876394659186"><ele>12.0</ele><time>2026-04-04T18:03:25Z</time></trkpt><trkpt lat="36.31861262820154" lon="10.450716005390218"><ele>12.0</ele><time>2026-04-04T18:03:26Z</time></trkpt><trkpt lat="36.3183642974824" lon="10.450560988782556"><ele>12.0</ele><time>2026-04-04T18:03:27Z</time></trkpt><trkpt lat="36.31811485384949" lon="10.450412438532815"><ele>12.0</ele><time>2026-04-04T18:03:28Z</time></trkpt><trkpt lat="36.31786259285549" lon="10.450264676774804"><ele>12.0</ele><time>2026-04-04T18:03:29Z</time></trkpt><trkpt lat="36.31760899470376" lon="10.450120362960824"><ele>12.0</ele><time>2026-04-04T18:03:30Z</time></trkpt><trkpt lat="36.317351024866305" lon="10.449985036385229"><ele>12.0</ele><time>2026-04-04T18:03:31Z</time></trkpt><trkpt lat="36.317092541508295" lon="10.44985433158166"><ele>12.0</ele><time>2026-04-04T18:03:32Z</time></trkpt><trkpt lat="36.316837353619455" lon="10.449723567954237"><ele>12.0</ele><time>2026-04-04T18:03:33Z</time></trkpt><trkpt lat="36.31658047045429" lon="10.449591573546314"><ele>12.5</ele><time>2026-04-04T18:03:34Z</time></trkpt><trkpt lat="36.316324029147665" lon="10.449461202358497"><ele>13.0</ele><time>2026-04-04T18:03:35Z</time></trkpt><trkpt lat="36.31606755550763" lon="10.449333715018604"><ele>13.0</ele><time>2026-04-04T18:03:36Z</time></trkpt><trkpt lat="36.31581354737822" lon="10.449203695783943"><ele>13.0</ele><time>2026-04-04T18:03:37Z</time></trkpt><trkpt lat="36.315559789709454" lon="10.449074391044"><ele>13.0</ele><time>2026-04-04T18:03:38Z</time></trkpt><trkpt lat="36.31530532137898" lon="10.448951096178213"><ele>13.0</ele><time>2026-04-04T18:03:39Z</time></trkpt><trkpt lat="36.31505125068393" lon="10.448829352722377"><ele>12.5</ele><time>2026-04-04T18:03:40Z</time></trkpt><trkpt lat="36.31479979117397" lon="10.44870608411104"><ele>12.0</ele><time>2026-04-04T18:03:41Z</time></trkpt><trkpt lat="36.31454845499006" lon="10.44858014450812"><ele>12.0</ele><time>2026-04-04T18:03:42Z</time></trkpt><trkpt lat="36.3142954584676" lon="10.448452984484705"><ele>12.0</ele><time>2026-04-04T18:03:43Z</time></trkpt><trkpt lat="36.31404212340345" lon="10.448330096096232"><ele>13.0</ele><time>2026-04-04T18:03:44Z</time></trkpt><trkpt lat="36.31378679127348" lon="10.448207511529384"><ele>14.0</ele><time>2026-04-04T18:03:45Z</time></trkpt><trkpt lat="36.313533003066624" lon="10.448082678023777"><ele>14.0</ele><time>2026-04-04T18:03:46Z</time></trkpt><trkpt lat="36.313279594525824" lon="10.447960156895997"><ele>14.0</ele><time>2026-04-04T18:03:47Z</time></trkpt><trkpt lat="36.31302911596013" lon="10.447836950159415"><ele>13.0</ele><time>2026-04-04T18:03:48Z</time></trkpt><trkpt lat="36.312782112833695" lon="10.447713491964233"><ele>12.0</ele><time>2026-04-04T18:03:49Z</time></trkpt><trkpt lat="36.31253015086222" lon="10.447587058139485"><ele>12.0</ele><time>2026-04-04T18:03:50Z</time></trkpt><trkpt lat="36.312280336889096" lon="10.44746442258328"><ele>12.0</ele><time>2026-04-04T18:03:51Z</time></trkpt><trkpt lat="36.31202942006705" lon="10.447343579700103"><ele>12.5</ele><time>2026-04-04T18:03:52Z</time></trkpt><trkpt lat="36.31177637014946" lon="10.447221205651962"><ele>13.0</ele><time>2026-04-04T18:03:53Z</time></trkpt><trkpt lat="36.311526332908585" lon="10.447096424803371"><ele>12.5</ele><time>2026-04-04T18:03:54Z</time></trkpt><trkpt lat="36.311275472977194" lon="10.446971397782463"><ele>12.0</ele><time>2026-04-04T18:03:55Z</time></trkpt><trkpt lat="36.311024395245255" lon="10.446845666982512"><ele>12.0</ele><time>2026-04-04T18:03:56Z</time></trkpt><trkpt lat="36.31077416262124" lon="10.446721418859049"><ele>12.0</ele><time>2026-04-04T18:03:57Z</time></trkpt><trkpt lat="36.31052341569427" lon="10.44660000045629"><ele>12.5</ele><time>2026-04-04T18:03:58Z</time></trkpt><trkpt lat="36.3102711411332" lon="10.446481262314144"><ele>13.0</ele><time>2026-04-04T18:03:59Z</time></trkpt><trkpt lat="36.31001965433539" lon="10.446361814583524"><ele>13.0</ele><time>2026-04-04T18:04:00Z</time></trkpt><trkpt lat="36.30976624989425" lon="10.446240014442534"><ele>13.0</ele><time>2026-04-04T18:04:01Z</time></trkpt><trkpt lat="36.309511901530676" lon="10.446114648676996"><ele>12.0</ele><time>2026-04-04T18:04:02Z</time></trkpt><trkpt lat="36.30925710412751" lon="10.44598689656922"><ele>11.0</ele><time>2026-04-04T18:04:03Z</time></trkpt><trkpt lat="36.30899897087946" lon="10.445860970522734"><ele>11.5</ele><time>2026-04-04T18:04:04Z</time></trkpt><trkpt lat="36.308740000368395" lon="10.445734204421179"><ele>12.0</ele><time>2026-04-04T18:04:05Z</time></trkpt><trkpt lat="36.308482125363476" lon="10.445604377626465"><ele>12.0</ele><time>2026-04-04T18:04:06Z</time></trkpt><trkpt lat="36.30822435072067" lon="10.445477398951809"><ele>12.0</ele><time>2026-04-04T18:04:07Z</time></trkpt><trkpt lat="36.307969441140216" lon="10.445351521173267"><ele>14.0</ele><time>2026-04-04T18:04:08Z</time></trkpt><trkpt lat="36.30771088048393" lon="10.445222784119007"><ele>16.0</ele><time>2026-04-04T18:04:09Z</time></trkpt><trkpt lat="36.30745286970605" lon="10.445094289656518"><ele>14.5</ele><time>2026-04-04T18:04:10Z</time></trkpt><trkpt lat="36.3071955506605" lon="10.444966236714945"><ele>13.0</ele><time>2026-04-04T18:04:11Z</time></trkpt><trkpt lat="36.30693697686757" lon="10.444844637637928"><ele>13.0</ele><time>2026-04-04T18:04:12Z</time></trkpt><trkpt lat="36.30668149357384" lon="10.444732425753651"><ele>13.0</ele><time>2026-04-04T18:04:13Z</time></trkpt><trkpt lat="36.306431737522885" lon="10.44461291515137"><ele>13.5</ele><time>2026-04-04T18:04:14Z</time></trkpt><trkpt lat="36.30618679696695" lon="10.444494217432686"><ele>14.0</ele><time>2026-04-04T18:04:15Z</time></trkpt><trkpt lat="36.305937277106764" lon="10.44438182125061"><ele>14.0</ele><time>2026-04-04T18:04:16Z</time></trkpt><trkpt lat="36.30568776921731" lon="10.444274655692526"><ele>14.0</ele><time>2026-04-04T18:04:17Z</time></trkpt><trkpt lat="36.30543593444291" lon="10.444165053375372"><ele>13.5</ele><time>2026-04-04T18:04:18Z</time></trkpt><trkpt lat="36.305183925001344" lon="10.444058269942463"><ele>13.0</ele><time>2026-04-04T18:04:19Z</time></trkpt><trkpt lat="36.304932178109254" lon="10.443953242535954"><ele>13.0</ele><time>2026-04-04T18:04:20Z</time></trkpt><trkpt lat="36.30468128704873" lon="10.443849326109776"><ele>13.0</ele><time>2026-04-04T18:04:21Z</time></trkpt><trkpt lat="36.304431389179875" lon="10.443744099587459"><ele>13.0</ele><time>2026-04-04T18:04:22Z</time></trkpt><trkpt lat="36.30418172406076" lon="10.443641224244194"><ele>13.0</ele><time>2026-04-04T18:04:23Z</time></trkpt><trkpt lat="36.30393521200082" lon="10.443535687651991"><ele>12.5</ele><time>2026-04-04T18:04:24Z</time></trkpt><trkpt lat="36.30367841716962" lon="10.443437417522437"><ele>12.0</ele><time>2026-04-04T18:04:25Z</time></trkpt><trkpt lat="36.30342163129546" lon="10.443344832296589"><ele>12.0</ele><time>2026-04-04T18:04:26Z</time></trkpt><trkpt lat="36.30316648093983" lon="10.443251293000607"><ele>12.0</ele><time>2026-04-04T18:04:27Z</time></trkpt><trkpt lat="36.302910582717395" lon="10.443155283453937"><ele>12.0</ele><time>2026-04-04T18:04:28Z</time></trkpt><trkpt lat="36.302654384716654" lon="10.443063112027362"><ele>12.0</ele><time>2026-04-04T18:04:29Z</time></trkpt><trkpt lat="36.30239957804283" lon="10.442972613374307"><ele>12.0</ele><time>2026-04-04T18:04:30Z</time></trkpt><trkpt lat="36.302141743808306" lon="10.44288397246196"><ele>12.0</ele><time>2026-04-04T18:04:31Z</time></trkpt><trkpt lat="36.301883451585574" lon="10.442797511937524"><ele>12.0</ele><time>2026-04-04T18:04:32Z</time></trkpt><trkpt lat="36.30162529569308" lon="10.442711188267616"><ele>12.0</ele><time>2026-04-04T18:04:33Z</time></trkpt><trkpt lat="36.30136423938818" lon="10.442625568595622"><ele>12.0</ele><time>2026-04-04T18:04:34Z</time></trkpt><trkpt lat="36.30110147100232" lon="10.442541280296238"><ele>12.0</ele><time>2026-04-04T18:04:35Z</time></trkpt><trkpt lat="36.30083637276469" lon="10.442461753153221"><ele>12.0</ele><time>2026-04-04T18:04:36Z</time></trkpt><trkpt lat="36.30057077930443" lon="10.442379036696712"><ele>12.0</ele><time>2026-04-04T18:04:37Z</time></trkpt><trkpt lat="36.300304366173556" lon="10.442295722859967"><ele>12.0</ele><time>2026-04-04T18:04:38Z</time></trkpt><trkpt lat="36.300033639208934" lon="10.4422142644305"><ele>12.0</ele><time>2026-04-04T18:04:39Z</time></trkpt><trkpt lat="36.299753350378886" lon="10.442134495033763"><ele>12.0</ele><time>2026-04-04T18:04:40Z</time></trkpt><trkpt lat="36.299457166499366" lon="10.44205029817974"><ele>12.0</ele><time>2026-04-04T18:04:41Z</time></trkpt><trkpt lat="36.2991684778113" lon="10.44196856182128"><ele>12.5</ele><time>2026-04-04T18:04:42Z</time></trkpt><trkpt lat="36.29889723475619" lon="10.441892072732184"><ele>13.0</ele><time>2026-04-04T18:04:43Z</time></trkpt><trkpt lat="36.29863100539596" lon="10.441818303338971"><ele>13.0</ele><time>2026-04-04T18:04:44Z</time></trkpt><trkpt lat="36.29836553911243" lon="10.441745215860042"><ele>13.0</ele><time>2026-04-04T18:04:45Z</time></trkpt><trkpt lat="36.298098730843314" lon="10.441673952047108"><ele>12.5</ele><time>2026-04-04T18:04:46Z</time></trkpt><trkpt lat="36.29783097263745" lon="10.441602812426899"><ele>12.0</ele><time>2026-04-04T18:04:47Z</time></trkpt><trkpt lat="36.29756065311482" lon="10.441533480286257"><ele>12.0</ele><time>2026-04-04T18:04:48Z</time></trkpt><trkpt lat="36.29729014061819" lon="10.441461484820525"><ele>12.0</ele><time>2026-04-04T18:04:48.999Z</time></trkpt><trkpt lat="36.297021500390635" lon="10.441387330610093"><ele>12.0</ele><time>2026-04-04T18:04:49.999Z</time></trkpt><trkpt lat="36.29675327244369" lon="10.441316047213041"><ele>12.0</ele><time>2026-04-04T18:04:50.999Z</time></trkpt><trkpt lat="36.29648570266615" lon="10.441248634652577"><ele>12.0</ele><time>2026-04-04T18:04:51.999Z</time></trkpt><trkpt lat="36.29621987363908" lon="10.441180536517175"><ele>12.0</ele><time>2026-04-04T18:04:52.999Z</time></trkpt><trkpt lat="36.295953986811355" lon="10.441110380825593"><ele>12.0</ele><time>2026-04-04T18:04:53.999Z</time></trkpt><trkpt lat="36.29569164017242" lon="10.441042986490594"><ele>12.0</ele><time>2026-04-04T18:04:54.999Z</time></trkpt><trkpt lat="36.295429805271894" lon="10.440972941955978"><ele>12.0</ele><time>2026-04-04T18:04:55.999Z</time></trkpt><trkpt lat="36.29516758544325" lon="10.440899461769073"><ele>12.0</ele><time>2026-04-04T18:04:56.999Z</time></trkpt><trkpt lat="36.29489910573336" lon="10.440820868748585"><ele>11.5</ele><time>2026-04-04T18:04:57.999Z</time></trkpt><trkpt lat="36.29463027271738" lon="10.440741107085783"><ele>11.0</ele><time>2026-04-04T18:04:58.999Z</time></trkpt><trkpt lat="36.29435565474163" lon="10.44066182279638"><ele>11.0</ele><time>2026-04-04T18:04:59.999Z</time></trkpt><trkpt lat="36.29408188485193" lon="10.44058295956615"><ele>11.0</ele><time>2026-04-04T18:05:00.999Z</time></trkpt><trkpt lat="36.29380650146689" lon="10.440503981340727"><ele>11.5</ele><time>2026-04-04T18:05:01.999Z</time></trkpt><trkpt lat="36.29353144563027" lon="10.440424544829309"><ele>12.0</ele><time>2026-04-04T18:05:02.999Z</time></trkpt><trkpt lat="36.29325874702243" lon="10.44034192243881"><ele>12.0</ele><time>2026-04-04T18:05:03.999Z</time></trkpt><trkpt lat="36.292988843706986" lon="10.440250598860477"><ele>12.0</ele><time>2026-04-04T18:05:04.999Z</time></trkpt><trkpt lat="36.29272006092871" lon="10.440161762070188"><ele>12.0</ele><time>2026-04-04T18:05:05.999Z</time></trkpt><trkpt lat="36.29245183457141" lon="10.44007670601291"><ele>12.0</ele><time>2026-04-04T18:05:06.999Z</time></trkpt><trkpt lat="36.29218863154526" lon="10.439994347679907"><ele>12.0</ele><time>2026-04-04T18:05:07.999Z</time></trkpt><trkpt lat="36.291924408221846" lon="10.439905637092528"><ele>12.0</ele><time>2026-04-04T18:05:08.999Z</time></trkpt><trkpt lat="36.29166660133114" lon="10.439815449815566"><ele>11.5</ele><time>2026-04-04T18:05:09.999Z</time></trkpt><trkpt lat="36.29140769395568" lon="10.43972417126263"><ele>11.0</ele><time>2026-04-04T18:05:10.999Z</time></trkpt><trkpt lat="36.2911473093864" lon="10.439628899125266"><ele>11.0</ele><time>2026-04-04T18:05:11.999Z</time></trkpt><trkpt lat="36.2908868268134" lon="10.43953381164762"><ele>11.0</ele><time>2026-04-04T18:05:12.999Z</time></trkpt><trkpt lat="36.29062816700731" lon="10.43944110828358"><ele>11.0</ele><time>2026-04-04T18:05:14Z</time></trkpt><trkpt lat="36.2903720388813" lon="10.439351343581993"><ele>11.0</ele><time>2026-04-04T18:05:15Z</time></trkpt><trkpt lat="36.29011827965365" lon="10.4392598930278"><ele>11.0</ele><time>2026-04-04T18:05:16Z</time></trkpt><trkpt lat="36.289869422162944" lon="10.43916936178136"><ele>11.0</ele><time>2026-04-04T18:05:17Z</time></trkpt><trkpt lat="36.28963101165226" lon="10.439079252097244"><ele>11.0</ele><time>2026-04-04T18:05:18Z</time></trkpt><trkpt lat="36.289395678027894" lon="10.438989537747862"><ele>11.0</ele><time>2026-04-04T18:05:19Z</time></trkpt><trkpt lat="36.28915087360051" lon="10.43889846929636"><ele>10.5</ele><time>2026-04-04T18:05:20Z</time></trkpt><trkpt lat="36.288903278977216" lon="10.438805537289022"><ele>10.0</ele><time>2026-04-04T18:05:21Z</time></trkpt><trkpt lat="36.288653134403255" lon="10.43871022841204"><ele>10.0</ele><time>2026-04-04T18:05:22Z</time></trkpt><trkpt lat="36.28840251538421" lon="10.438614583265526"><ele>10.0</ele><time>2026-04-04T18:05:23Z</time></trkpt><trkpt lat="36.288151563803616" lon="10.438521404056592"><ele>10.5</ele><time>2026-04-04T18:05:24Z</time></trkpt><trkpt lat="36.28790148767007" lon="10.43842795022709"><ele>11.0</ele><time>2026-04-04T18:05:25Z</time></trkpt><trkpt lat="36.28765485141442" lon="10.438336767676974"><ele>11.0</ele><time>2026-04-04T18:05:26Z</time></trkpt><trkpt lat="36.2874120807753" lon="10.438249384873593"><ele>11.0</ele><time>2026-04-04T18:05:27Z</time></trkpt><trkpt lat="36.287171899990575" lon="10.43816209300075"><ele>10.5</ele><time>2026-04-04T18:05:28Z</time></trkpt><trkpt lat="36.286935295385135" lon="10.438075691115762"><ele>10.0</ele><time>2026-04-04T18:05:29Z</time></trkpt><trkpt lat="36.286707167152464" lon="10.437990218185446"><ele>10.0</ele><time>2026-04-04T18:05:30Z</time></trkpt><trkpt lat="36.28647924736107" lon="10.43790504040577"><ele>10.0</ele><time>2026-04-04T18:05:31Z</time></trkpt><trkpt lat="36.2862456609726" lon="10.437819747648659"><ele>10.5</ele><time>2026-04-04T18:05:32Z</time></trkpt><trkpt lat="36.285998188601106" lon="10.437732963465017"><ele>11.0</ele><time>2026-04-04T18:05:33Z</time></trkpt><trkpt lat="36.28574725238508" lon="10.437644429214153"><ele>10.5</ele><time>2026-04-04T18:05:34Z</time></trkpt><trkpt lat="36.28549819230612" lon="10.437552177065184"><ele>10.0</ele><time>2026-04-04T18:05:35Z</time></trkpt><trkpt lat="36.28525435632568" lon="10.43745392335739"><ele>10.0</ele><time>2026-04-04T18:05:36Z</time></trkpt><trkpt lat="36.28500904606318" lon="10.437364097309109"><ele>10.0</ele><time>2026-04-04T18:05:37Z</time></trkpt><trkpt lat="36.28476484354697" lon="10.437285806722116"><ele>10.0</ele><time>2026-04-04T18:05:38Z</time></trkpt><trkpt lat="36.284520026131354" lon="10.43720957014367"><ele>10.0</ele><time>2026-04-04T18:05:39Z</time></trkpt><trkpt lat="36.28427307413706" lon="10.437132355499848"><ele>10.0</ele><time>2026-04-04T18:05:40Z</time></trkpt><trkpt lat="36.28402221922952" lon="10.437056443253319"><ele>10.0</ele><time>2026-04-04T18:05:41Z</time></trkpt><trkpt lat="36.28376613377048" lon="10.43697795107584"><ele>10.0</ele><time>2026-04-04T18:05:42Z</time></trkpt><trkpt lat="36.283505385418934" lon="10.436895945764169"><ele>10.0</ele><time>2026-04-04T18:05:43Z</time></trkpt><trkpt lat="36.283240648664574" lon="10.436817653231941"><ele>10.0</ele><time>2026-04-04T18:05:44Z</time></trkpt><trkpt lat="36.28297184265865" lon="10.436738888005085"><ele>10.0</ele><time>2026-04-04T18:05:45Z</time></trkpt><trkpt lat="36.28270248551313" lon="10.436661278342466"><ele>10.0</ele><time>2026-04-04T18:05:46Z</time></trkpt><trkpt lat="36.282428734986446" lon="10.436585572687044"><ele>10.0</ele><time>2026-04-04T18:05:47Z</time></trkpt><trkpt lat="36.282153743644635" lon="10.436508710445848"><ele>9.5</ele><time>2026-04-04T18:05:48Z</time></trkpt><trkpt lat="36.28187769481623" lon="10.436430837544476"><ele>9.0</ele><time>2026-04-04T18:05:49Z</time></trkpt><trkpt lat="36.281604851098706" lon="10.436350371512722"><ele>8.5</ele><time>2026-04-04T18:05:50Z</time></trkpt><trkpt lat="36.28132832229207" lon="10.43627327329164"><ele>8.0</ele><time>2026-04-04T18:05:51Z</time></trkpt><trkpt lat="36.281048591892684" lon="10.436199535826026"><ele>8.0</ele><time>2026-04-04T18:05:52Z</time></trkpt><trkpt lat="36.28076848463188" lon="10.436126107260197"><ele>8.0</ele><time>2026-04-04T18:05:53Z</time></trkpt><trkpt lat="36.28048862654026" lon="10.436051729419534"><ele>8.5</ele><time>2026-04-04T18:05:54Z</time></trkpt><trkpt lat="36.280207118668216" lon="10.435973614293298"><ele>9.0</ele><time>2026-04-04T18:05:55Z</time></trkpt><trkpt lat="36.27992521291031" lon="10.435893997523111"><ele>8.5</ele><time>2026-04-04T18:05:56Z</time></trkpt><trkpt lat="36.27964763207581" lon="10.435817238697064"><ele>8.0</ele><time>2026-04-04T18:05:57Z</time></trkpt><trkpt lat="36.279370918334024" lon="10.435739435658045"><ele>8.0</ele><time>2026-04-04T18:05:58Z</time></trkpt><trkpt lat="36.279094926825145" lon="10.435664148132956"><ele>8.0</ele><time>2026-04-04T18:05:59Z</time></trkpt><trkpt lat="36.27882396152773" lon="10.43558787343821"><ele>8.0</ele><time>2026-04-04T18:06:00Z</time></trkpt><trkpt lat="36.27855498704073" lon="10.435510644904296"><ele>8.0</ele><time>2026-04-04T18:06:01Z</time></trkpt><trkpt lat="36.2782863861483" lon="10.435435702616806"><ele>9.0</ele><time>2026-04-04T18:06:02Z</time></trkpt><trkpt lat="36.278018187666234" lon="10.435358339042931"><ele>10.0</ele><time>2026-04-04T18:06:03Z</time></trkpt><trkpt lat="36.27775013109943" lon="10.435278089073412"><ele>10.0</ele><time>2026-04-04T18:06:04Z</time></trkpt><trkpt lat="36.27748278138787" lon="10.435194990406984"><ele>10.0</ele><time>2026-04-04T18:06:05Z</time></trkpt><trkpt lat="36.2772072715093" lon="10.435112541291135"><ele>10.5</ele><time>2026-04-04T18:06:06Z</time></trkpt><trkpt lat="36.27693105624278" lon="10.435027275170182"><ele>11.0</ele><time>2026-04-04T18:06:07Z</time></trkpt><trkpt lat="36.27665203029802" lon="10.43493984581469"><ele>10.5</ele><time>2026-04-04T18:06:08Z</time></trkpt><trkpt lat="36.27636713905038" lon="10.434853900790962"><ele>10.0</ele><time>2026-04-04T18:06:09Z</time></trkpt><trkpt lat="36.27608757682363" lon="10.434759188849988"><ele>10.0</ele><time>2026-04-04T18:06:10Z</time></trkpt><trkpt lat="36.275813627031745" lon="10.434661911197425"><ele>10.0</ele><time>2026-04-04T18:06:11Z</time></trkpt><trkpt lat="36.2755380481723" lon="10.434565236489288"><ele>10.0</ele><time>2026-04-04T18:06:12Z</time></trkpt><trkpt lat="36.27526054014841" lon="10.434463851983374"><ele>10.0</ele><time>2026-04-04T18:06:13Z</time></trkpt><trkpt lat="36.27498382999962" lon="10.434359756879008"><ele>9.5</ele><time>2026-04-04T18:06:14Z</time></trkpt><trkpt lat="36.274709717649124" lon="10.43425573946757"><ele>9.0</ele><time>2026-04-04T18:06:15Z</time></trkpt><trkpt lat="36.274438149762986" lon="10.434150086421488"><ele>9.0</ele><time>2026-04-04T18:06:16Z</time></trkpt><trkpt lat="36.27417126828174" lon="10.434042918487018"><ele>9.0</ele><time>2026-04-04T18:06:17Z</time></trkpt><trkpt lat="36.27390714147503" lon="10.433937805415976"><ele>9.5</ele><time>2026-04-04T18:06:18Z</time></trkpt><trkpt lat="36.27364703720803" lon="10.433833181254238"><ele>10.0</ele><time>2026-04-04T18:06:19Z</time></trkpt><trkpt lat="36.2733892404286" lon="10.433726491274228"><ele>10.5</ele><time>2026-04-04T18:06:20Z</time></trkpt><trkpt lat="36.27312841965262" lon="10.433620417537215"><ele>11.0</ele><time>2026-04-04T18:06:21Z</time></trkpt><trkpt lat="36.27286687990907" lon="10.433511744970975"><ele>11.0</ele><time>2026-04-04T18:06:22Z</time></trkpt><trkpt lat="36.27260610532198" lon="10.433402017198173"><ele>11.0</ele><time>2026-04-04T18:06:23Z</time></trkpt><trkpt lat="36.27234715525075" lon="10.433291843063545"><ele>11.5</ele><time>2026-04-04T18:06:24Z</time></trkpt><trkpt lat="36.27209219330367" lon="10.43317971555852"><ele>12.0</ele><time>2026-04-04T18:06:25Z</time></trkpt><trkpt lat="36.27183881670534" lon="10.43306503322991"><ele>12.5</ele><time>2026-04-04T18:06:26Z</time></trkpt><trkpt lat="36.271585420749126" lon="10.432954207985414"><ele>13.0</ele><time>2026-04-04T18:06:27Z</time></trkpt><trkpt lat="36.27133304947223" lon="10.432847642472769"><ele>13.0</ele><time>2026-04-04T18:06:28Z</time></trkpt><trkpt lat="36.27108015538603" lon="10.432740652530647"><ele>13.0</ele><time>2026-04-04T18:06:29Z</time></trkpt><trkpt lat="36.27082827241922" lon="10.432634943625322"><ele>13.5</ele><time>2026-04-04T18:06:30Z</time></trkpt><trkpt lat="36.27057798886486" lon="10.432526429773594"><ele>14.0</ele><time>2026-04-04T18:06:31Z</time></trkpt><trkpt lat="36.270321872294176" lon="10.432413792812039"><ele>14.0</ele><time>2026-04-04T18:06:32Z</time></trkpt><trkpt lat="36.2700614047705" lon="10.432303102634704"><ele>14.0</ele><time>2026-04-04T18:06:33Z</time></trkpt><trkpt lat="36.26980191187791" lon="10.432190380571068"><ele>15.0</ele><time>2026-04-04T18:06:34Z</time></trkpt><trkpt lat="36.26953884419665" lon="10.43207926787293"><ele>16.0</ele><time>2026-04-04T18:06:35Z</time></trkpt><trkpt lat="36.26927560515929" lon="10.431966713830697"><ele>16.0</ele><time>2026-04-04T18:06:36Z</time></trkpt><trkpt lat="36.269009677374704" lon="10.431857683688586"><ele>16.0</ele><time>2026-04-04T18:06:37Z</time></trkpt><trkpt lat="36.26874458799759" lon="10.431748086513688"><ele>16.5</ele><time>2026-04-04T18:06:38Z</time></trkpt><trkpt lat="36.268480052367025" lon="10.43163773745537"><ele>17.0</ele><time>2026-04-04T18:06:39Z</time></trkpt><trkpt lat="36.26821535156408" lon="10.431528197291042"><ele>16.5</ele><time>2026-04-04T18:06:40Z</time></trkpt><trkpt lat="36.26795198738641" lon="10.43141666734921"><ele>16.0</ele><time>2026-04-04T18:06:41Z</time></trkpt><trkpt lat="36.26769344319442" lon="10.431305542094417"><ele>15.5</ele><time>2026-04-04T18:06:42Z</time></trkpt><trkpt lat="36.267438919674596" lon="10.431200327252204"><ele>15.0</ele><time>2026-04-04T18:06:43Z</time></trkpt><trkpt lat="36.2671860503401" lon="10.431093039065084"><ele>16.0</ele><time>2026-04-04T18:06:44Z</time></trkpt><trkpt lat="36.26693464910201" lon="10.430990290302086"><ele>17.0</ele><time>2026-04-04T18:06:45Z</time></trkpt><trkpt lat="36.26668844759876" lon="10.430883030154957"><ele>17.0</ele><time>2026-04-04T18:06:46Z</time></trkpt><trkpt lat="36.26644726325041" lon="10.430776945465123"><ele>17.0</ele><time>2026-04-04T18:06:47Z</time></trkpt><trkpt lat="36.266211569056075" lon="10.43067246626602"><ele>16.5</ele><time>2026-04-04T18:06:48Z</time></trkpt><trkpt lat="36.26597886864837" lon="10.430575169292695"><ele>16.0</ele><time>2026-04-04T18:06:49Z</time></trkpt><trkpt lat="36.26574675670954" lon="10.430477052886102"><ele>15.5</ele><time>2026-04-04T18:06:50Z</time></trkpt><trkpt lat="36.26551550853517" lon="10.430379084181567"><ele>15.0</ele><time>2026-04-04T18:06:50.999Z</time></trkpt><trkpt lat="36.2652894945754" lon="10.430283223600812"><ele>15.0</ele><time>2026-04-04T18:06:51.999Z</time></trkpt><trkpt lat="36.26506623190617" lon="10.430187208879106"><ele>15.0</ele><time>2026-04-04T18:06:52.999Z</time></trkpt><trkpt lat="36.26483832293662" lon="10.430091958444116"><ele>14.0</ele><time>2026-04-04T18:06:53.999Z</time></trkpt><trkpt lat="36.26460839494947" lon="10.429993747121266"><ele>13.0</ele><time>2026-04-04T18:06:54.999Z</time></trkpt><trkpt lat="36.264375947733704" lon="10.429890680588755"><ele>13.0</ele><time>2026-04-04T18:06:55.999Z</time></trkpt><trkpt lat="36.26413982742618" lon="10.429792307287524"><ele>13.0</ele><time>2026-04-04T18:06:56.999Z</time></trkpt><trkpt lat="36.26390056407692" lon="10.429694104590702"><ele>15.0</ele><time>2026-04-04T18:06:57.999Z</time></trkpt><trkpt lat="36.26365991835687" lon="10.429592434880659"><ele>17.0</ele><time>2026-04-04T18:06:58.999Z</time></trkpt><trkpt lat="36.26341773636217" lon="10.429484555169585"><ele>17.0</ele><time>2026-04-04T18:06:59.999Z</time></trkpt><trkpt lat="36.26317377576742" lon="10.429376514238195"><ele>17.0</ele><time>2026-04-04T18:07:00.999Z</time></trkpt><trkpt lat="36.26292747331717" lon="10.429270504571454"><ele>17.0</ele><time>2026-04-04T18:07:01.999Z</time></trkpt><trkpt lat="36.26267729593064" lon="10.42916708758691"><ele>17.0</ele><time>2026-04-04T18:07:02.999Z</time></trkpt><trkpt lat="36.26242601933472" lon="10.429070218400687"><ele>16.5</ele><time>2026-04-04T18:07:03.999Z</time></trkpt><trkpt lat="36.262175812228634" lon="10.428968874467591"><ele>16.0</ele><time>2026-04-04T18:07:04.999Z</time></trkpt><trkpt lat="36.26192186087347" lon="10.428858987076532"><ele>17.0</ele><time>2026-04-04T18:07:05.999Z</time></trkpt><trkpt lat="36.26166141966273" lon="10.428751567328376"><ele>18.0</ele><time>2026-04-04T18:07:06.999Z</time></trkpt><trkpt lat="36.26139639636387" lon="10.428649932722715"><ele>18.0</ele><time>2026-04-04T18:07:07.999Z</time></trkpt><trkpt lat="36.26112423911337" lon="10.428558589673571"><ele>18.0</ele><time>2026-04-04T18:07:08.999Z</time></trkpt><trkpt lat="36.260852807310876" lon="10.428466416098477"><ele>18.0</ele><time>2026-04-04T18:07:09.999Z</time></trkpt><trkpt lat="36.26057426440233" lon="10.428370633832898"><ele>18.0</ele><time>2026-04-04T18:07:10.999Z</time></trkpt><trkpt lat="36.260293438698376" lon="10.428270766896018"><ele>18.0</ele><time>2026-04-04T18:07:11.999Z</time></trkpt><trkpt lat="36.26002455772065" lon="10.4281798719385"><ele>18.0</ele><time>2026-04-04T18:07:12.999Z</time></trkpt><trkpt lat="36.25976192333973" lon="10.428088478071027"><ele>18.0</ele><time>2026-04-04T18:07:13.999Z</time></trkpt><trkpt lat="36.25950139881831" lon="10.428006615137317"><ele>18.0</ele><time>2026-04-04T18:07:14.999Z</time></trkpt><trkpt lat="36.2592360680011" lon="10.427925998709119"><ele>18.5</ele><time>2026-04-04T18:07:15.999Z</time></trkpt><trkpt lat="36.25897798910075" lon="10.427842475205269"><ele>19.0</ele><time>2026-04-04T18:07:16.999Z</time></trkpt><trkpt lat="36.25872181994089" lon="10.427766079598813"><ele>19.0</ele><time>2026-04-04T18:07:17.999Z</time></trkpt><trkpt lat="36.25846620061928" lon="10.427693969328535"><ele>19.0</ele><time>2026-04-04T18:07:18.999Z</time></trkpt><trkpt lat="36.25820787846729" lon="10.427624538377344"><ele>19.5</ele><time>2026-04-04T18:07:20Z</time></trkpt><trkpt lat="36.25794575470145" lon="10.427551183662933"><ele>20.0</ele><time>2026-04-04T18:07:21Z</time></trkpt><trkpt lat="36.25768690799799" lon="10.427479625316112"><ele>20.0</ele><time>2026-04-04T18:07:22Z</time></trkpt><trkpt lat="36.2574314433166" lon="10.427414872755685"><ele>20.0</ele><time>2026-04-04T18:07:23Z</time></trkpt><trkpt lat="36.25717265223001" lon="10.42735117220249"><ele>20.5</ele><time>2026-04-04T18:07:24Z</time></trkpt><trkpt lat="36.25690638032561" lon="10.427289361272273"><ele>21.0</ele><time>2026-04-04T18:07:25Z</time></trkpt><trkpt lat="36.25664572055961" lon="10.427229321747586"><ele>21.0</ele><time>2026-04-04T18:07:26Z</time></trkpt><trkpt lat="36.25638485445351" lon="10.427166473243513"><ele>21.0</ele><time>2026-04-04T18:07:27Z</time></trkpt><trkpt lat="36.25612045573702" lon="10.427107546006612"><ele>21.5</ele><time>2026-04-04T18:07:28Z</time></trkpt><trkpt lat="36.255856457330374" lon="10.427047989693323"><ele>22.0</ele><time>2026-04-04T18:07:29Z</time></trkpt><trkpt lat="36.25559213437026" lon="10.426986098285836"><ele>22.0</ele><time>2026-04-04T18:07:30Z</time></trkpt><trkpt lat="36.25532888923053" lon="10.42692714260572"><ele>22.0</ele><time>2026-04-04T18:07:31Z</time></trkpt><trkpt lat="36.25507004891862" lon="10.426869135694643"><ele>22.0</ele><time>2026-04-04T18:07:32Z</time></trkpt><trkpt lat="36.254823288212094" lon="10.426809564991885"><ele>22.0</ele><time>2026-04-04T18:07:33Z</time></trkpt><trkpt lat="36.254585331336344" lon="10.426753369843121"><ele>22.333333333333332</ele><time>2026-04-04T18:07:34Z</time></trkpt><trkpt lat="36.254383027959264" lon="10.426710367741336"><ele>22.666666666666668</ele><time>2026-04-04T18:07:35Z</time></trkpt><trkpt lat="36.25420885702923" lon="10.426673011973401"><ele>23.0</ele><time>2026-04-04T18:07:36Z</time></trkpt><trkpt lat="36.25404818627967" lon="10.426636178415652"><ele>22.5</ele><time>2026-04-04T18:07:37Z</time></trkpt><trkpt lat="36.2539057857763" lon="10.426602246826093"><ele>22.0</ele><time>2026-04-04T18:07:38Z</time></trkpt><trkpt lat="36.25377149162725" lon="10.426570415928165"><ele>21.5</ele><time>2026-04-04T18:07:39Z</time></trkpt><trkpt lat="36.25363996763415" lon="10.426539916088373"><ele>21.0</ele><time>2026-04-04T18:07:40Z</time></trkpt><trkpt lat="36.25351386017615" lon="10.426511046497497"><ele>21.0</ele><time>2026-04-04T18:07:41Z</time></trkpt><trkpt lat="36.25338201733979" lon="10.426479936136873"><ele>21.0</ele><time>2026-04-04T18:07:42Z</time></trkpt><trkpt lat="36.2532407363686" lon="10.426445257749934"><ele>21.0</ele><time>2026-04-04T18:07:43Z</time></trkpt><trkpt lat="36.25308865450587" lon="10.426406307788664"><ele>21.0</ele><time>2026-04-04T18:07:44Z</time></trkpt><trkpt lat="36.25292303196481" lon="10.426367107748087"><ele>21.666666666666668</ele><time>2026-04-04T18:07:45Z</time></trkpt><trkpt lat="36.25274419596125" lon="10.426328412405953"><ele>22.333333333333336</ele><time>2026-04-04T18:07:46Z</time></trkpt><trkpt lat="36.2525530829889" lon="10.426288103679045"><ele>23.0</ele><time>2026-04-04T18:07:47Z</time></trkpt><trkpt lat="36.25235571014544" lon="10.426242676663438"><ele>23.333333333333336</ele><time>2026-04-04T18:07:48Z</time></trkpt><trkpt lat="36.25215188272445" lon="10.426193505191028"><ele>23.666666666666668</ele><time>2026-04-04T18:07:49Z</time></trkpt><trkpt lat="36.25194361677544" lon="10.426142155772627"><ele>24.0</ele><time>2026-04-04T18:07:50Z</time></trkpt><trkpt lat="36.25172398020419" lon="10.42609139241591"><ele>24.0</ele><time>2026-04-04T18:07:51Z</time></trkpt><trkpt lat="36.251490164803165" lon="10.426034939419058"><ele>24.0</ele><time>2026-04-04T18:07:52Z</time></trkpt><trkpt lat="36.25125877704433" lon="10.425979111139771"><ele>24.5</ele><time>2026-04-04T18:07:53Z</time></trkpt><trkpt lat="36.25102075371378" lon="10.425921612489793"><ele>25.0</ele><time>2026-04-04T18:07:54Z</time></trkpt><trkpt lat="36.25077638357425" lon="10.425861368904272"><ele>25.0</ele><time>2026-04-04T18:07:55Z</time></trkpt><trkpt lat="36.2505229993091" lon="10.425798655768046"><ele>25.0</ele><time>2026-04-04T18:07:56Z</time></trkpt><trkpt lat="36.25026446652856" lon="10.425730606193147"><ele>25.0</ele><time>2026-04-04T18:07:57Z</time></trkpt><trkpt lat="36.25000080102691" lon="10.425660527689155"><ele>25.0</ele><time>2026-04-04T18:07:58Z</time></trkpt><trkpt lat="36.249731340276384" lon="10.425586282653596"><ele>26.0</ele><time>2026-04-04T18:07:59Z</time></trkpt><trkpt lat="36.24945585242021" lon="10.42550672364396"><ele>27.0</ele><time>2026-04-04T18:08:00Z</time></trkpt><trkpt lat="36.2491735518336" lon="10.425422015688167"><ele>27.5</ele><time>2026-04-04T18:08:01Z</time></trkpt><trkpt lat="36.248885900940145" lon="10.425333073664072"><ele>28.0</ele><time>2026-04-04T18:08:02Z</time></trkpt><trkpt lat="36.24859146750962" lon="10.425241643822865"><ele>28.0</ele><time>2026-04-04T18:08:03Z</time></trkpt><trkpt lat="36.24829339095133" lon="10.425145493454904"><ele>28.0</ele><time>2026-04-04T18:08:04Z</time></trkpt><trkpt lat="36.24799230463082" lon="10.425040635356973"><ele>28.0</ele><time>2026-04-04T18:08:05Z</time></trkpt><trkpt lat="36.24769337345599" lon="10.424933675093424"><ele>28.0</ele><time>2026-04-04T18:08:06Z</time></trkpt><trkpt lat="36.24739790958132" lon="10.424820764155738"><ele>28.5</ele><time>2026-04-04T18:08:07Z</time></trkpt><trkpt lat="36.2471035279627" lon="10.42470234466392"><ele>29.0</ele><time>2026-04-04T18:08:08Z</time></trkpt><trkpt lat="36.246805424240684" lon="10.424577750925572"><ele>29.5</ele><time>2026-04-04T18:08:09Z</time></trkpt><trkpt lat="36.246501145119915" lon="10.424449280788343"><ele>30.0</ele><time>2026-04-04T18:08:10Z</time></trkpt><trkpt lat="36.24618350767296" lon="10.424314966944772"><ele>30.0</ele><time>2026-04-04T18:08:11Z</time></trkpt><trkpt lat="36.2458530611917" lon="10.424172987602667"><ele>30.0</ele><time>2026-04-04T18:08:12Z</time></trkpt><trkpt lat="36.24551017863281" lon="10.424016732111907"><ele>28.5</ele><time>2026-04-04T18:08:13Z</time></trkpt><trkpt lat="36.245171633205935" lon="10.423853698936576"><ele>27.0</ele><time>2026-04-04T18:08:14Z</time></trkpt><trkpt lat="36.24482780666798" lon="10.42367772171035"><ele>26.5</ele><time>2026-04-04T18:08:15Z</time></trkpt><trkpt lat="36.24451224694802" lon="10.423506792749068"><ele>26.0</ele><time>2026-04-04T18:08:16Z</time></trkpt><trkpt lat="36.244214755953884" lon="10.423342251448627"><ele>27.0</ele><time>2026-04-04T18:08:17Z</time></trkpt><trkpt lat="36.243916346123214" lon="10.423176248990751"><ele>28.0</ele><time>2026-04-04T18:08:18Z</time></trkpt><trkpt lat="36.24362217518795" lon="10.42300553879257"><ele>29.0</ele><time>2026-04-04T18:08:19Z</time></trkpt><trkpt lat="36.243328556117326" lon="10.4228249628461"><ele>30.0</ele><time>2026-04-04T18:08:20Z</time></trkpt><trkpt lat="36.24303799793672" lon="10.422640634085896"><ele>30.5</ele><time>2026-04-04T18:08:21Z</time></trkpt><trkpt lat="36.242758308014906" lon="10.422458444947527"><ele>31.0</ele><time>2026-04-04T18:08:22Z</time></trkpt><trkpt lat="36.242486330171616" lon="10.422272967782352"><ele>32.5</ele><time>2026-04-04T18:08:23Z</time></trkpt><trkpt lat="36.24221600936477" lon="10.422079508206238"><ele>34.0</ele><time>2026-04-04T18:08:24Z</time></trkpt><trkpt lat="36.24195256458443" lon="10.421879253584422"><ele>34.0</ele><time>2026-04-04T18:08:25Z</time></trkpt><trkpt lat="36.24169846794775" lon="10.42166867070199"><ele>34.0</ele><time>2026-04-04T18:08:26Z</time></trkpt><trkpt lat="36.2414500712583" lon="10.421446348168958"><ele>35.0</ele><time>2026-04-04T18:08:27Z</time></trkpt><trkpt lat="36.2412078606779" lon="10.421210407333668"><ele>36.0</ele><time>2026-04-04T18:08:28Z</time></trkpt><trkpt lat="36.24097302414313" lon="10.42096292097782"><ele>36.0</ele><time>2026-04-04T18:08:29Z</time></trkpt><trkpt lat="36.240743757820866" lon="10.420716767958632"><ele>36.0</ele><time>2026-04-04T18:08:30Z</time></trkpt><trkpt lat="36.24052408302357" lon="10.420461753050681"><ele>36.5</ele><time>2026-04-04T18:08:31Z</time></trkpt><trkpt lat="36.24031407746796" lon="10.420190763661484"><ele>37.0</ele><time>2026-04-04T18:08:32Z</time></trkpt><trkpt lat="36.24011108014961" lon="10.419917173802759"><ele>37.5</ele><time>2026-04-04T18:08:33Z</time></trkpt><trkpt lat="36.23992008882148" lon="10.419644551468437"><ele>38.0</ele><time>2026-04-04T18:08:34Z</time></trkpt><trkpt lat="36.239733654352165" lon="10.419361746428315"><ele>38.0</ele><time>2026-04-04T18:08:35Z</time></trkpt><trkpt lat="36.23955385268329" lon="10.419066546754179"><ele>38.0</ele><time>2026-04-04T18:08:36Z</time></trkpt><trkpt lat="36.239384772808634" lon="10.418757077698812"><ele>39.0</ele><time>2026-04-04T18:08:37Z</time></trkpt><trkpt lat="36.239213031339624" lon="10.418443773666512"><ele>40.0</ele><time>2026-04-04T18:08:38Z</time></trkpt><trkpt lat="36.2390407848618" lon="10.4181230516251"><ele>41.5</ele><time>2026-04-04T18:08:39Z</time></trkpt><trkpt lat="36.238863956278365" lon="10.41780404947427"><ele>43.0</ele><time>2026-04-04T18:08:40Z</time></trkpt><trkpt lat="36.23868129403712" lon="10.417489782849913"><ele>43.0</ele><time>2026-04-04T18:08:41Z</time></trkpt><trkpt lat="36.23849104854887" lon="10.417182181797653"><ele>43.0</ele><time>2026-04-04T18:08:42Z</time></trkpt><trkpt lat="36.2382916216141" lon="10.41688850947415"><ele>40.5</ele><time>2026-04-04T18:08:43Z</time></trkpt><trkpt lat="36.23809246145745" lon="10.41660975071765"><ele>38.0</ele><time>2026-04-04T18:08:44Z</time></trkpt><trkpt lat="36.237900486357965" lon="10.416354456698407"><ele>38.5</ele><time>2026-04-04T18:08:45Z</time></trkpt><trkpt lat="36.23770783515296" lon="10.416123815505962"><ele>39.0</ele><time>2026-04-04T18:08:46Z</time></trkpt><trkpt lat="36.23751579188648" lon="10.415901408456365"><ele>39.0</ele><time>2026-04-04T18:08:47Z</time></trkpt><trkpt lat="36.23731598339279" lon="10.41568512532668"><ele>39.0</ele><time>2026-04-04T18:08:48Z</time></trkpt><trkpt lat="36.23711313756505" lon="10.415476673561441"><ele>40.5</ele><time>2026-04-04T18:08:49Z</time></trkpt><trkpt lat="36.23690993061636" lon="10.415276076122248"><ele>42.0</ele><time>2026-04-04T18:08:49.999Z</time></trkpt><trkpt lat="36.236705558940834" lon="10.415084998193974"><ele>42.0</ele><time>2026-04-04T18:08:50.999Z</time></trkpt><trkpt lat="36.23649537350749" lon="10.414901561399196"><ele>42.0</ele><time>2026-04-04T18:08:51.999Z</time></trkpt><trkpt lat="36.23627975472865" lon="10.41472199058305"><ele>42.5</ele><time>2026-04-04T18:08:52.999Z</time></trkpt><trkpt lat="36.236058980098946" lon="10.41455154506744"><ele>43.0</ele><time>2026-04-04T18:08:53.999Z</time></trkpt><trkpt lat="36.235837809513534" lon="10.414381702697227"><ele>41.5</ele><time>2026-04-04T18:08:54.999Z</time></trkpt><trkpt lat="36.2356189814688" lon="10.414216787126916"><ele>40.0</ele><time>2026-04-04T18:08:55.999Z</time></trkpt><trkpt lat="36.23540209274974" lon="10.414068889118631"><ele>40.0</ele><time>2026-04-04T18:08:56.999Z</time></trkpt><trkpt lat="36.23517569489803" lon="10.413934125199823"><ele>40.0</ele><time>2026-04-04T18:08:57.999Z</time></trkpt><trkpt lat="36.234945357224774" lon="10.413807949839605"><ele>41.5</ele><time>2026-04-04T18:08:58.999Z</time></trkpt><trkpt lat="36.234713823431186" lon="10.413686658128096"><ele>43.0</ele><time>2026-04-04T18:08:59.999Z</time></trkpt><trkpt lat="36.23447611002496" lon="10.41357604434151"><ele>43.0</ele><time>2026-04-04T18:09:00.999Z</time></trkpt><trkpt lat="36.23423426398543" lon="10.413478343261604"><ele>43.0</ele><time>2026-04-04T18:09:01.999Z</time></trkpt><trkpt lat="36.233992639735824" lon="10.413386540727009"><ele>44.0</ele><time>2026-04-04T18:09:02.999Z</time></trkpt><trkpt lat="36.23376279695435" lon="10.413306085389776"><ele>45.0</ele><time>2026-04-04T18:09:03.999Z</time></trkpt><trkpt lat="36.233530885698585" lon="10.41323418096413"><ele>45.0</ele><time>2026-04-04T18:09:04.999Z</time></trkpt><trkpt lat="36.23329283126842" lon="10.413166473245926"><ele>45.0</ele><time>2026-04-04T18:09:05.999Z</time></trkpt><trkpt lat="36.2330515351712" lon="10.413102010901415"><ele>45.5</ele><time>2026-04-04T18:09:06.999Z</time></trkpt><trkpt lat="36.23280740373327" lon="10.413047294640183"><ele>46.0</ele><time>2026-04-04T18:09:07.999Z</time></trkpt><trkpt lat="36.232556845883444" lon="10.4129997328725"><ele>47.5</ele><time>2026-04-04T18:09:08.999Z</time></trkpt><trkpt lat="36.232306796033434" lon="10.41296484639636"><ele>49.0</ele><time>2026-04-04T18:09:09.999Z</time></trkpt><trkpt lat="36.23205550885679" lon="10.412939733265405"><ele>50.0</ele><time>2026-04-04T18:09:10.999Z</time></trkpt><trkpt lat="36.23180067101401" lon="10.412923188453169"><ele>51.0</ele><time>2026-04-04T18:09:11.999Z</time></trkpt><trkpt lat="36.231545003575555" lon="10.412909899991165"><ele>52.5</ele><time>2026-04-04T18:09:12.999Z</time></trkpt><trkpt lat="36.23128909357287" lon="10.412905060480362"><ele>54.0</ele><time>2026-04-04T18:09:13.999Z</time></trkpt><trkpt lat="36.23103244496816" lon="10.412911531439011"><ele>54.0</ele><time>2026-04-04T18:09:14.999Z</time></trkpt><trkpt lat="36.23078092700967" lon="10.412928071419973"><ele>54.0</ele><time>2026-04-04T18:09:15.999Z</time></trkpt><trkpt lat="36.230539344318125" lon="10.412948981420879"><ele>52.5</ele><time>2026-04-04T18:09:16.999Z</time></trkpt><trkpt lat="36.23031575753919" lon="10.412977595592242"><ele>51.0</ele><time>2026-04-04T18:09:17.999Z</time></trkpt><trkpt lat="36.23009162801238" lon="10.41301002108517"><ele>49.0</ele><time>2026-04-04T18:09:18.999Z</time></trkpt><trkpt lat="36.22986788261272" lon="10.413048742078999"><ele>47.0</ele><time>2026-04-04T18:09:19.999Z</time></trkpt><trkpt lat="36.229640944804046" lon="10.4130940678891"><ele>46.5</ele><time>2026-04-04T18:09:20.999Z</time></trkpt><trkpt lat="36.22940990992579" lon="10.413152149667287"><ele>46.0</ele><time>2026-04-04T18:09:21.999Z</time></trkpt><trkpt lat="36.229180123411524" lon="10.41321842728052"><ele>46.0</ele><time>2026-04-04T18:09:22.999Z</time></trkpt><trkpt lat="36.22894693971334" lon="10.413293674300762"><ele>46.0</ele><time>2026-04-04T18:09:23.999Z</time></trkpt><trkpt lat="36.22870883363658" lon="10.41337669477599"><ele>46.0</ele><time>2026-04-04T18:09:24.999Z</time></trkpt><trkpt lat="36.228469997172645" lon="10.413470910938258"><ele>46.0</ele><time>2026-04-04T18:09:26Z</time></trkpt><trkpt lat="36.22823151406691" lon="10.41357341823227"><ele>48.5</ele><time>2026-04-04T18:09:27Z</time></trkpt><trkpt lat="36.227991225683645" lon="10.413685077561322"><ele>51.0</ele><time>2026-04-04T18:09:28Z</time></trkpt><trkpt lat="36.22774801379298" lon="10.41380221499245"><ele>46.0</ele><time>2026-04-04T18:09:29Z</time></trkpt><trkpt lat="36.227506630535736" lon="10.413924566689303"><ele>41.0</ele><time>2026-04-04T18:09:30Z</time></trkpt><trkpt lat="36.22726733975376" lon="10.414049521563157"><ele>41.0</ele><time>2026-04-04T18:09:31Z</time></trkpt><trkpt lat="36.2270279640103" lon="10.41417616658063"><ele>41.0</ele><time>2026-04-04T18:09:32Z</time></trkpt><trkpt lat="36.226790906956246" lon="10.414306278471487"><ele>41.0</ele><time>2026-04-04T18:09:33Z</time></trkpt><trkpt lat="36.22655165208798" lon="10.414436096367403"><ele>41.0</ele><time>2026-04-04T18:09:34Z</time></trkpt><trkpt lat="36.22631325634647" lon="10.414565446905641"><ele>38.0</ele><time>2026-04-04T18:09:35Z</time></trkpt><trkpt lat="36.226074391024206" lon="10.414695210080442"><ele>35.0</ele><time>2026-04-04T18:09:36Z</time></trkpt><trkpt lat="36.22584394807475" lon="10.414820494249595"><ele>35.0</ele><time>2026-04-04T18:09:37Z</time></trkpt><trkpt lat="36.225621177911044" lon="10.41494176880032"><ele>35.0</ele><time>2026-04-04T18:09:38Z</time></trkpt><trkpt lat="36.225401817448216" lon="10.415059808350119"><ele>35.0</ele><time>2026-04-04T18:09:39Z</time></trkpt><trkpt lat="36.22518137229121" lon="10.41517423439499"><ele>35.0</ele><time>2026-04-04T18:09:40Z</time></trkpt><trkpt lat="36.22495555074379" lon="10.415289867060958"><ele>34.5</ele><time>2026-04-04T18:09:41Z</time></trkpt><trkpt lat="36.22472993322052" lon="10.415405924775513"><ele>34.0</ele><time>2026-04-04T18:09:42Z</time></trkpt><trkpt lat="36.22450661532738" lon="10.41552432082826"><ele>34.0</ele><time>2026-04-04T18:09:43Z</time></trkpt><trkpt lat="36.224281568533705" lon="10.415646643275874"><ele>34.0</ele><time>2026-04-04T18:09:44Z</time></trkpt><trkpt lat="36.22405737979805" lon="10.415767298098045"><ele>34.5</ele><time>2026-04-04T18:09:45Z</time></trkpt><trkpt lat="36.223833656588305" lon="10.415885454218088"><ele>35.0</ele><time>2026-04-04T18:09:46Z</time></trkpt><trkpt lat="36.22360500790732" lon="10.416006523873323"><ele>35.0</ele><time>2026-04-04T18:09:47Z</time></trkpt><trkpt lat="36.22337359888132" lon="10.416128465009864"><ele>35.0</ele><time>2026-04-04T18:09:48Z</time></trkpt><trkpt lat="36.22313880891988" lon="10.416250820649655"><ele>34.0</ele><time>2026-04-04T18:09:49Z</time></trkpt><trkpt lat="36.22290433513749" lon="10.416372578747646"><ele>33.0</ele><time>2026-04-04T18:09:50Z</time></trkpt><trkpt lat="36.22266745809976" lon="10.416494811842101"><ele>33.0</ele><time>2026-04-04T18:09:51Z</time></trkpt><trkpt lat="36.2224288499862" lon="10.416620031226254"><ele>33.0</ele><time>2026-04-04T18:09:52Z</time></trkpt><trkpt lat="36.222184051072695" lon="10.416749369180081"><ele>33.5</ele><time>2026-04-04T18:09:53Z</time></trkpt><trkpt lat="36.221927943417896" lon="10.416887892043677"><ele>34.0</ele><time>2026-04-04T18:09:54Z</time></trkpt><trkpt lat="36.221655026237805" lon="10.417035684302768"><ele>33.5</ele><time>2026-04-04T18:09:55Z</time></trkpt><trkpt lat="36.221389784743735" lon="10.417182969586921"><ele>33.0</ele><time>2026-04-04T18:09:56Z</time></trkpt><trkpt lat="36.22113694823002" lon="10.41731718545389"><ele>33.0</ele><time>2026-04-04T18:09:57Z</time></trkpt><trkpt lat="36.22088358617331" lon="10.417446367394612"><ele>33.0</ele><time>2026-04-04T18:09:58Z</time></trkpt><trkpt lat="36.22062252798915" lon="10.417579974588566"><ele>32.5</ele><time>2026-04-04T18:09:59Z</time></trkpt><trkpt lat="36.22036239215904" lon="10.417718638568273"><ele>32.0</ele><time>2026-04-04T18:10:00Z</time></trkpt><trkpt lat="36.22010454373402" lon="10.417855343361444"><ele>31.5</ele><time>2026-04-04T18:10:01Z</time></trkpt><trkpt lat="36.219848242804325" lon="10.417991216800802"><ele>31.0</ele><time>2026-04-04T18:10:02Z</time></trkpt><trkpt lat="36.219590485202694" lon="10.418127498234597"><ele>30.5</ele><time>2026-04-04T18:10:03Z</time></trkpt><trkpt lat="36.21933155845673" lon="10.418261621346952"><ele>30.0</ele><time>2026-04-04T18:10:04Z</time></trkpt><trkpt lat="36.21907317183891" lon="10.41839675753362"><ele>30.0</ele><time>2026-04-04T18:10:05Z</time></trkpt><trkpt lat="36.2188156677784" lon="10.418534548366011"><ele>30.0</ele><time>2026-04-04T18:10:06Z</time></trkpt><trkpt lat="36.21855643387206" lon="10.418675188128887"><ele>30.0</ele><time>2026-04-04T18:10:07Z</time></trkpt><trkpt lat="36.2182976389913" lon="10.41881729641011"><ele>30.0</ele><time>2026-04-04T18:10:08Z</time></trkpt><trkpt lat="36.21804029169011" lon="10.418962339200448"><ele>28.0</ele><time>2026-04-04T18:10:09Z</time></trkpt><trkpt lat="36.217782918456955" lon="10.419112544226794"><ele>26.0</ele><time>2026-04-04T18:10:10Z</time></trkpt><trkpt lat="36.21752877348399" lon="10.419268730087422"><ele>26.0</ele><time>2026-04-04T18:10:11Z</time></trkpt><trkpt lat="36.21727592344235" lon="10.41943141963808"><ele>26.0</ele><time>2026-04-04T18:10:12Z</time></trkpt><trkpt lat="36.2170245848058" lon="10.419599631560159"><ele>26.0</ele><time>2026-04-04T18:10:13Z</time></trkpt><trkpt lat="36.21677145666297" lon="10.419765539468834"><ele>26.0</ele><time>2026-04-04T18:10:14Z</time></trkpt><trkpt lat="36.21652019458953" lon="10.419936047323334"><ele>25.0</ele><time>2026-04-04T18:10:15Z</time></trkpt><trkpt lat="36.21627451655833" lon="10.420114168410139"><ele>24.0</ele><time>2026-04-04T18:10:16Z</time></trkpt><trkpt lat="36.21603446556743" lon="10.420297326596732"><ele>24.0</ele><time>2026-04-04T18:10:17Z</time></trkpt><trkpt lat="36.215795371384885" lon="10.420486271298438"><ele>24.0</ele><time>2026-04-04T18:10:18Z</time></trkpt><trkpt lat="36.215563220782336" lon="10.420672343320485"><ele>23.5</ele><time>2026-04-04T18:10:19Z</time></trkpt><trkpt lat="36.215339273345116" lon="10.42085266855322"><ele>23.0</ele><time>2026-04-04T18:10:20Z</time></trkpt><trkpt lat="36.2151254703444" lon="10.421027841738427"><ele>23.0</ele><time>2026-04-04T18:10:21Z</time></trkpt><trkpt lat="36.214913592248216" lon="10.421209671901066"><ele>23.0</ele><time>2026-04-04T18:10:22Z</time></trkpt><trkpt lat="36.21470767123719" lon="10.421395512006091"><ele>24.0</ele><time>2026-04-04T18:10:23Z</time></trkpt><trkpt lat="36.214508175214114" lon="10.42158045835288"><ele>25.0</ele><time>2026-04-04T18:10:24Z</time></trkpt><trkpt lat="36.21432002502743" lon="10.421760785433786"><ele>25.0</ele><time>2026-04-04T18:10:25Z</time></trkpt><trkpt lat="36.21413970645824" lon="10.4219359283499"><ele>25.0</ele><time>2026-04-04T18:10:26Z</time></trkpt><trkpt lat="36.21395747692156" lon="10.42212023310363"><ele>23.5</ele><time>2026-04-04T18:10:27Z</time></trkpt><trkpt lat="36.21377218208021" lon="10.422313984900018"><ele>22.0</ele><time>2026-04-04T18:10:28Z</time></trkpt><trkpt lat="36.21358544836529" lon="10.422515418217667"><ele>22.0</ele><time>2026-04-04T18:10:29Z</time></trkpt><trkpt lat="36.213395319583455" lon="10.422723543977407"><ele>22.0</ele><time>2026-04-04T18:10:30Z</time></trkpt><trkpt lat="36.21321338800241" lon="10.422920919581866"><ele>21.0</ele><time>2026-04-04T18:10:31Z</time></trkpt><trkpt lat="36.21302853583503" lon="10.423120245660822"><ele>20.0</ele><time>2026-04-04T18:10:32Z</time></trkpt><trkpt lat="36.21284881363824" lon="10.42331796414358"><ele>20.0</ele><time>2026-04-04T18:10:33Z</time></trkpt><trkpt lat="36.21267047166774" lon="10.423516002784398"><ele>20.0</ele><time>2026-04-04T18:10:34Z</time></trkpt><trkpt lat="36.212489835597694" lon="10.423723849019568"><ele>19.5</ele><time>2026-04-04T18:10:35Z</time></trkpt><trkpt lat="36.212307350915324" lon="10.42393599502965"><ele>19.0</ele><time>2026-04-04T18:10:36Z</time></trkpt><trkpt lat="36.212126326586215" lon="10.42414697271"><ele>19.0</ele><time>2026-04-04T18:10:37Z</time></trkpt><trkpt lat="36.21194493998027" lon="10.424357782424131"><ele>19.0</ele><time>2026-04-04T18:10:38Z</time></trkpt><trkpt lat="36.211760273218154" lon="10.42456968290269"><ele>18.5</ele><time>2026-04-04T18:10:39Z</time></trkpt><trkpt lat="36.211575127979366" lon="10.424781944226618"><ele>18.0</ele><time>2026-04-04T18:10:40Z</time></trkpt><trkpt lat="36.21138719093903" lon="10.424994493855003"><ele>18.0</ele><time>2026-04-04T18:10:41Z</time></trkpt><trkpt lat="36.211195318046" lon="10.425209639851131"><ele>18.0</ele><time>2026-04-04T18:10:42Z</time></trkpt><trkpt lat="36.210999974742094" lon="10.425426516883782"><ele>18.0</ele><time>2026-04-04T18:10:43Z</time></trkpt><trkpt lat="36.21079855986011" lon="10.425655679448523"><ele>18.0</ele><time>2026-04-04T18:10:44Z</time></trkpt><trkpt lat="36.210583778698535" lon="10.425912167082371"><ele>18.0</ele><time>2026-04-04T18:10:45Z</time></trkpt><trkpt lat="36.21036892035871" lon="10.426174673946491"><ele>18.0</ele><time>2026-04-04T18:10:46Z</time></trkpt><trkpt lat="36.21015099372609" lon="10.426430942684373"><ele>18.0</ele><time>2026-04-04T18:10:47Z</time></trkpt><trkpt lat="36.20992775800704" lon="10.426681499835595"><ele>18.0</ele><time>2026-04-04T18:10:48Z</time></trkpt><trkpt lat="36.209701616099125" lon="10.42692826955391"><ele>18.5</ele><time>2026-04-04T18:10:49Z</time></trkpt><trkpt lat="36.20947281200751" lon="10.427161924418353"><ele>19.0</ele><time>2026-04-04T18:10:50Z</time></trkpt><trkpt lat="36.20924236170249" lon="10.427382138708522"><ele>19.0</ele><time>2026-04-04T18:10:51Z</time></trkpt><trkpt lat="36.20901832996513" lon="10.427594484404285"><ele>19.0</ele><time>2026-04-04T18:10:52Z</time></trkpt><trkpt lat="36.208790923281086" lon="10.427805630207338"><ele>18.5</ele><time>2026-04-04T18:10:52.999Z</time></trkpt><trkpt lat="36.20856011186864" lon="10.42801738432062"><ele>18.0</ele><time>2026-04-04T18:10:53.999Z</time></trkpt><trkpt lat="36.20832388604868" lon="10.428227602826084"><ele>18.0</ele><time>2026-04-04T18:10:54.999Z</time></trkpt><trkpt lat="36.20807683430959" lon="10.42843837451026"><ele>18.0</ele><time>2026-04-04T18:10:55.999Z</time></trkpt><trkpt lat="36.207825956728506" lon="10.428644310399772"><ele>16.0</ele><time>2026-04-04T18:10:56.999Z</time></trkpt><trkpt lat="36.207572831356856" lon="10.428844640214951"><ele>14.0</ele><time>2026-04-04T18:10:57.999Z</time></trkpt><trkpt lat="36.207318249143164" lon="10.429040725764352"><ele>14.0</ele><time>2026-04-04T18:10:58.999Z</time></trkpt><trkpt lat="36.207059864972706" lon="10.429233479755903"><ele>14.0</ele><time>2026-04-04T18:10:59.999Z</time></trkpt><trkpt lat="36.206798890064704" lon="10.429421683265048"><ele>14.0</ele><time>2026-04-04T18:11:00.999Z</time></trkpt><trkpt lat="36.206536971529545" lon="10.429602598110224"><ele>14.0</ele><time>2026-04-04T18:11:01.999Z</time></trkpt><trkpt lat="36.20626567164767" lon="10.429779064572864"><ele>13.5</ele><time>2026-04-04T18:11:02.999Z</time></trkpt><trkpt lat="36.205973089685415" lon="10.429959948111108"><ele>13.0</ele><time>2026-04-04T18:11:03.999Z</time></trkpt><trkpt lat="36.20568033480817" lon="10.430135077488936"><ele>12.5</ele><time>2026-04-04T18:11:04.999Z</time></trkpt><trkpt lat="36.20539699745628" lon="10.430294156222267"><ele>12.0</ele><time>2026-04-04T18:11:05.999Z</time></trkpt><trkpt lat="36.20513066664904" lon="10.430436692289218"><ele>11.5</ele><time>2026-04-04T18:11:06.999Z</time></trkpt><trkpt lat="36.20487213589706" lon="10.430567485895073"><ele>11.0</ele><time>2026-04-04T18:11:07.999Z</time></trkpt><trkpt lat="36.2046140083925" lon="10.43069419745832"><ele>10.5</ele><time>2026-04-04T18:11:08.999Z</time></trkpt><trkpt lat="36.20435242742455" lon="10.4308183314702"><ele>10.0</ele><time>2026-04-04T18:11:09.999Z</time></trkpt><trkpt lat="36.2040876103564" lon="10.430942149557065"><ele>9.5</ele><time>2026-04-04T18:11:10.999Z</time></trkpt><trkpt lat="36.20383328595995" lon="10.431053348799962"><ele>9.0</ele><time>2026-04-04T18:11:11.999Z</time></trkpt><trkpt lat="36.20358309110621" lon="10.431154109136848"><ele>9.0</ele><time>2026-04-04T18:11:12.999Z</time></trkpt><trkpt lat="36.20332940795378" lon="10.43124885916409"><ele>9.0</ele><time>2026-04-04T18:11:13.999Z</time></trkpt><trkpt lat="36.20306989661803" lon="10.431340164046093"><ele>9.5</ele><time>2026-04-04T18:11:14.999Z</time></trkpt><trkpt lat="36.20281320618894" lon="10.431428512372687"><ele>10.0</ele><time>2026-04-04T18:11:15.999Z</time></trkpt><trkpt lat="36.202555286975986" lon="10.431514137894753"><ele>9.5</ele><time>2026-04-04T18:11:16.999Z</time></trkpt><trkpt lat="36.20229473709387" lon="10.431600203378649"><ele>9.0</ele><time>2026-04-04T18:11:17.999Z</time></trkpt><trkpt lat="36.20202730923179" lon="10.43168209213818"><ele>9.0</ele><time>2026-04-04T18:11:18.999Z</time></trkpt><trkpt lat="36.201758245019505" lon="10.431758526547595"><ele>9.0</ele><time>2026-04-04T18:11:19.999Z</time></trkpt><trkpt lat="36.20148397354721" lon="10.4318348149234"><ele>9.5</ele><time>2026-04-04T18:11:20.999Z</time></trkpt><trkpt lat="36.20120958605664" lon="10.431904447235146"><ele>10.0</ele><time>2026-04-04T18:11:21.999Z</time></trkpt><trkpt lat="36.20093136292333" lon="10.431971654472783"><ele>10.0</ele><time>2026-04-04T18:11:22.999Z</time></trkpt><trkpt lat="36.200654420220495" lon="10.432032935624182"><ele>10.0</ele><time>2026-04-04T18:11:23.999Z</time></trkpt><trkpt lat="36.20037961882212" lon="10.432092168742438"><ele>9.5</ele><time>2026-04-04T18:11:24.999Z</time></trkpt><trkpt lat="36.20010658751247" lon="10.43214671383482"><ele>9.0</ele><time>2026-04-04T18:11:25.999Z</time></trkpt><trkpt lat="36.19983519314331" lon="10.432201933483569"><ele>9.0</ele><time>2026-04-04T18:11:26.999Z</time></trkpt><trkpt lat="36.19956563495203" lon="10.432255582076273"><ele>9.0</ele><time>2026-04-04T18:11:27.999Z</time></trkpt><trkpt lat="36.199288686209684" lon="10.432307020027782"><ele>9.0</ele><time>2026-04-04T18:11:28.999Z</time></trkpt><trkpt lat="36.1990088463179" lon="10.432355875923381"><ele>9.0</ele><time>2026-04-04T18:11:29.999Z</time></trkpt><trkpt lat="36.198725004580794" lon="10.43239973754717"><ele>9.5</ele><time>2026-04-04T18:11:30.999Z</time></trkpt><trkpt lat="36.198441168134536" lon="10.432441246170482"><ele>10.0</ele><time>2026-04-04T18:11:32Z</time></trkpt><trkpt lat="36.198156483429564" lon="10.432480457198217"><ele>10.0</ele><time>2026-04-04T18:11:33Z</time></trkpt><trkpt lat="36.19787328392394" lon="10.432517130345161"><ele>10.0</ele><time>2026-04-04T18:11:34Z</time></trkpt><trkpt lat="36.19759011703711" lon="10.43255154403826"><ele>10.0</ele><time>2026-04-04T18:11:35Z</time></trkpt><trkpt lat="36.19731273023351" lon="10.43258012404487"><ele>10.0</ele><time>2026-04-04T18:11:36Z</time></trkpt><trkpt lat="36.19703690869763" lon="10.43260391145231"><ele>10.0</ele><time>2026-04-04T18:11:37Z</time></trkpt><trkpt lat="36.19677486506249" lon="10.43262065682876"><ele>10.0</ele><time>2026-04-04T18:11:38Z</time></trkpt><trkpt lat="36.19652248154107" lon="10.432635438220736"><ele>10.5</ele><time>2026-04-04T18:11:39Z</time></trkpt><trkpt lat="36.19628435785167" lon="10.432650218988744"><ele>11.0</ele><time>2026-04-04T18:11:40Z</time></trkpt><trkpt lat="36.19604169925067" lon="10.432665672936158"><ele>11.0</ele><time>2026-04-04T18:11:41Z</time></trkpt><trkpt lat="36.195790718737605" lon="10.432679474045909"><ele>11.0</ele><time>2026-04-04T18:11:42Z</time></trkpt><trkpt lat="36.19554094264308" lon="10.432684486202886"><ele>11.0</ele><time>2026-04-04T18:11:43Z</time></trkpt><trkpt lat="36.1952882091935" lon="10.432675714403297"><ele>11.0</ele><time>2026-04-04T18:11:44Z</time></trkpt><trkpt lat="36.19502979783591" lon="10.432661558694287"><ele>11.5</ele><time>2026-04-04T18:11:45Z</time></trkpt><trkpt lat="36.19476368619793" lon="10.432647531015219"><ele>12.0</ele><time>2026-04-04T18:11:46Z</time></trkpt><trkpt lat="36.19450030324651" lon="10.432632596031924"><ele>12.0</ele><time>2026-04-04T18:11:47Z</time></trkpt><trkpt lat="36.19423027061211" lon="10.432616037349433"><ele>12.0</ele><time>2026-04-04T18:11:48Z</time></trkpt><trkpt lat="36.1939510260464" lon="10.432591873447095"><ele>11.0</ele><time>2026-04-04T18:11:49Z</time></trkpt><trkpt lat="36.19366933540466" lon="10.432564273327772"><ele>10.0</ele><time>2026-04-04T18:11:50Z</time></trkpt><trkpt lat="36.19338971905709" lon="10.432530309149655"><ele>10.5</ele><time>2026-04-04T18:11:51Z</time></trkpt><trkpt lat="36.19311142413061" lon="10.432493065545717"><ele>11.0</ele><time>2026-04-04T18:11:52Z</time></trkpt><trkpt lat="36.192835583228465" lon="10.432450335448681"><ele>11.0</ele><time>2026-04-04T18:11:53Z</time></trkpt><trkpt lat="36.192561517596765" lon="10.432398905343808"><ele>11.0</ele><time>2026-04-04T18:11:54Z</time></trkpt><trkpt lat="36.19228719743953" lon="10.43234067430779"><ele>11.5</ele><time>2026-04-04T18:11:55Z</time></trkpt><trkpt lat="36.19201190538662" lon="10.432277823566311"><ele>12.0</ele><time>2026-04-04T18:11:56Z</time></trkpt><trkpt lat="36.19173473847886" lon="10.432211681851193"><ele>12.0</ele><time>2026-04-04T18:11:57Z</time></trkpt><trkpt lat="36.19145785241328" lon="10.432143674866754"><ele>12.0</ele><time>2026-04-04T18:11:58Z</time></trkpt><trkpt lat="36.191181111457354" lon="10.432065206675324"><ele>12.0</ele><time>2026-04-04T18:11:59Z</time></trkpt><trkpt lat="36.19090531092641" lon="10.431975818937554"><ele>12.0</ele><time>2026-04-04T18:12:00Z</time></trkpt><trkpt lat="36.19062637632235" lon="10.431879586255745"><ele>12.0</ele><time>2026-04-04T18:12:01Z</time></trkpt><trkpt lat="36.19034768395042" lon="10.431782694604436"><ele>12.0</ele><time>2026-04-04T18:12:02Z</time></trkpt><trkpt lat="36.19006437238054" lon="10.431683187363113"><ele>11.0</ele><time>2026-04-04T18:12:03Z</time></trkpt><trkpt lat="36.18976533253651" lon="10.431575797498747"><ele>10.0</ele><time>2026-04-04T18:12:04Z</time></trkpt><trkpt lat="36.1894590327654" lon="10.431465380284894"><ele>10.0</ele><time>2026-04-04T18:12:05Z</time></trkpt><trkpt lat="36.18915746183369" lon="10.431351667125048"><ele>10.0</ele><time>2026-04-04T18:12:06Z</time></trkpt><trkpt lat="36.188865658002165" lon="10.431239347360021"><ele>9.5</ele><time>2026-04-04T18:12:07Z</time></trkpt><trkpt lat="36.1885807648028" lon="10.431127058529874"><ele>9.0</ele><time>2026-04-04T18:12:08Z</time></trkpt><trkpt lat="36.188299430431165" lon="10.431012261704387"><ele>9.0</ele><time>2026-04-04T18:12:09Z</time></trkpt><trkpt lat="36.18801851616644" lon="10.430899461903259"><ele>9.0</ele><time>2026-04-04T18:12:10Z</time></trkpt><trkpt lat="36.18773083879443" lon="10.4307911411283"><ele>9.0</ele><time>2026-04-04T18:12:11Z</time></trkpt><trkpt lat="36.187446982516875" lon="10.430685508728002"><ele>9.0</ele><time>2026-04-04T18:12:12Z</time></trkpt><trkpt lat="36.18716828574837" lon="10.430577249639947"><ele>8.0</ele><time>2026-04-04T18:12:13Z</time></trkpt><trkpt lat="36.18688963568983" lon="10.430470038422945"><ele>7.0</ele><time>2026-04-04T18:12:14Z</time></trkpt><trkpt lat="36.18661095391754" lon="10.4303668172011"><ele>7.0</ele><time>2026-04-04T18:12:15Z</time></trkpt><trkpt lat="36.18633662463065" lon="10.430261606149315"><ele>7.0</ele><time>2026-04-04T18:12:16Z</time></trkpt><trkpt lat="36.186065939481765" lon="10.430154864092808"><ele>7.0</ele><time>2026-04-04T18:12:17Z</time></trkpt><trkpt lat="36.18579801054938" lon="10.430048788384072"><ele>7.0</ele><time>2026-04-04T18:12:18Z</time></trkpt><trkpt lat="36.185536748628735" lon="10.429951473424337"><ele>7.0</ele><time>2026-04-04T18:12:19Z</time></trkpt><trkpt lat="36.1852755452046" lon="10.429855610986435"><ele>7.0</ele><time>2026-04-04T18:12:20Z</time></trkpt><trkpt lat="36.18501842511287" lon="10.429757395568068"><ele>7.0</ele><time>2026-04-04T18:12:21Z</time></trkpt><trkpt lat="36.184761702675225" lon="10.429662020347997"><ele>7.0</ele><time>2026-04-04T18:12:22Z</time></trkpt><trkpt lat="36.18450650257711" lon="10.4295685282308"><ele>7.0</ele><time>2026-04-04T18:12:23Z</time></trkpt><trkpt lat="36.18424781103527" lon="10.429475639390837"><ele>7.0</ele><time>2026-04-04T18:12:24Z</time></trkpt><trkpt lat="36.18398323732171" lon="10.429379618849582"><ele>6.5</ele><time>2026-04-04T18:12:25Z</time></trkpt><trkpt lat="36.18371501403725" lon="10.429282423522254"><ele>6.0</ele><time>2026-04-04T18:12:26Z</time></trkpt><trkpt lat="36.18343997900032" lon="10.429183266360596"><ele>7.0</ele><time>2026-04-04T18:12:27Z</time></trkpt><trkpt lat="36.18315562557617" lon="10.429082248998652"><ele>8.0</ele><time>2026-04-04T18:12:28Z</time></trkpt><trkpt lat="36.182857572145494" lon="10.428977309451643"><ele>8.0</ele><time>2026-04-04T18:12:29Z</time></trkpt><trkpt lat="36.182543757212215" lon="10.428866854609062"><ele>8.0</ele><time>2026-04-04T18:12:30Z</time></trkpt><trkpt lat="36.18222050447017" lon="10.42875395652656"><ele>7.0</ele><time>2026-04-04T18:12:31Z</time></trkpt><trkpt lat="36.181908247812736" lon="10.428647488106277"><ele>6.0</ele><time>2026-04-04T18:12:32Z</time></trkpt><trkpt lat="36.18160397200667" lon="10.428543591074703"><ele>6.0</ele><time>2026-04-04T18:12:33Z</time></trkpt><trkpt lat="36.18131174253265" lon="10.428440884513366"><ele>6.0</ele><time>2026-04-04T18:12:34Z</time></trkpt><trkpt lat="36.181023962781396" lon="10.428340411984166"><ele>6.0</ele><time>2026-04-04T18:12:35Z</time></trkpt><trkpt lat="36.18074285592943" lon="10.42824446269298"><ele>6.0</ele><time>2026-04-04T18:12:36Z</time></trkpt><trkpt lat="36.180460820674135" lon="10.428145285834523"><ele>5.5</ele><time>2026-04-04T18:12:37Z</time></trkpt><trkpt lat="36.1801824691022" lon="10.428047344896683"><ele>5.0</ele><time>2026-04-04T18:12:38Z</time></trkpt><trkpt lat="36.17990872624728" lon="10.427951357986302"><ele>5.0</ele><time>2026-04-04T18:12:39Z</time></trkpt><trkpt lat="36.179638709171996" lon="10.427859599091601"><ele>5.0</ele><time>2026-04-04T18:12:40Z</time></trkpt><trkpt lat="36.17936795815696" lon="10.427770367455254"><ele>5.0</ele><time>2026-04-04T18:12:41Z</time></trkpt><trkpt lat="36.17909965901788" lon="10.427681981080973"><ele>5.0</ele><time>2026-04-04T18:12:42Z</time></trkpt><trkpt lat="36.17883252449099" lon="10.427592617488642"><ele>5.0</ele><time>2026-04-04T18:12:43Z</time></trkpt><trkpt lat="36.17856813427895" lon="10.427501864425125"><ele>5.0</ele><time>2026-04-04T18:12:44Z</time></trkpt><trkpt lat="36.17830844637311" lon="10.427413123145483"><ele>4.5</ele><time>2026-04-04T18:12:45Z</time></trkpt><trkpt lat="36.178047902881445" lon="10.427324228028143"><ele>4.0</ele><time>2026-04-04T18:12:46Z</time></trkpt><trkpt lat="36.177787552331026" lon="10.42723716729139"><ele>4.0</ele><time>2026-04-04T18:12:47Z</time></trkpt><trkpt lat="36.177527158232586" lon="10.427149226976278"><ele>4.0</ele><time>2026-04-04T18:12:48Z</time></trkpt><trkpt lat="36.1772658276509" lon="10.427056093443483"><ele>4.5</ele><time>2026-04-04T18:12:49Z</time></trkpt><trkpt lat="36.17700252065422" lon="10.426957889594902"><ele>5.0</ele><time>2026-04-04T18:12:50Z</time></trkpt><trkpt lat="36.176739098693126" lon="10.42685842813915"><ele>5.0</ele><time>2026-04-04T18:12:51Z</time></trkpt><trkpt lat="36.17647966418608" lon="10.426763632275131"><ele>5.0</ele><time>2026-04-04T18:12:52Z</time></trkpt><trkpt lat="36.17623696701859" lon="10.426687274517151"><ele>5.0</ele><time>2026-04-04T18:12:53Z</time></trkpt><trkpt lat="36.17599793297423" lon="10.4266127373533"><ele>5.0</ele><time>2026-04-04T18:12:54Z</time></trkpt><trkpt lat="36.17575692891095" lon="10.42652828763827"><ele>4.5</ele><time>2026-04-04T18:12:55Z</time></trkpt><trkpt lat="36.17551674392649" lon="10.426443120137915"><ele>4.0</ele><time>2026-04-04T18:12:56Z</time></trkpt><trkpt lat="36.17526923433043" lon="10.426361172270592"><ele>4.5</ele><time>2026-04-04T18:12:57Z</time></trkpt><trkpt lat="36.17502202004062" lon="10.426280478359642"><ele>5.0</ele><time>2026-04-04T18:12:58Z</time></trkpt><trkpt lat="36.1747757761072" lon="10.426201036120768"><ele>5.0</ele><time>2026-04-04T18:12:58.999Z</time></trkpt><trkpt lat="36.17452924449758" lon="10.426116798305827"><ele>5.0</ele><time>2026-04-04T18:12:59.999Z</time></trkpt><trkpt lat="36.17428240486959" lon="10.426029764537923"><ele>5.0</ele><time>2026-04-04T18:13:00.999Z</time></trkpt><trkpt lat="36.17403390185212" lon="10.425940814093197"><ele>5.0</ele><time>2026-04-04T18:13:01.999Z</time></trkpt><trkpt lat="36.173780519351894" lon="10.42585373041095"><ele>4.5</ele><time>2026-04-04T18:13:02.999Z</time></trkpt><trkpt lat="36.17352411441323" lon="10.425766082712746"><ele>4.0</ele><time>2026-04-04T18:13:03.999Z</time></trkpt><trkpt lat="36.17326516398656" lon="10.42567699428476"><ele>4.5</ele><time>2026-04-04T18:13:04.999Z</time></trkpt><trkpt lat="36.17300796989561" lon="10.425588312184821"><ele>5.0</ele><time>2026-04-04T18:13:05.999Z</time></trkpt><trkpt lat="36.172749207992304" lon="10.425499010538426"><ele>4.5</ele><time>2026-04-04T18:13:06.999Z</time></trkpt><trkpt lat="36.17248663870883" lon="10.425406792427543"><ele>4.0</ele><time>2026-04-04T18:13:07.999Z</time></trkpt><trkpt lat="36.172216072475095" lon="10.425313085957066"><ele>4.0</ele><time>2026-04-04T18:13:08.999Z</time></trkpt><trkpt lat="36.17194312833894" lon="10.425221492044773"><ele>4.0</ele><time>2026-04-04T18:13:09.999Z</time></trkpt><trkpt lat="36.17166996181428" lon="10.425128909994578"><ele>4.0</ele><time>2026-04-04T18:13:10.999Z</time></trkpt><trkpt lat="36.17139770176948" lon="10.425035278459468"><ele>4.0</ele><time>2026-04-04T18:13:11.999Z</time></trkpt><trkpt lat="36.17112549380621" lon="10.424940692925048"><ele>4.0</ele><time>2026-04-04T18:13:12.999Z</time></trkpt><trkpt lat="36.17085498086139" lon="10.424845581597378"><ele>4.0</ele><time>2026-04-04T18:13:13.999Z</time></trkpt><trkpt lat="36.17058564563526" lon="10.424748797787265"><ele>3.5</ele><time>2026-04-04T18:13:14.999Z</time></trkpt><trkpt lat="36.17031571251886" lon="10.424647135531895"><ele>3.0</ele><time>2026-04-04T18:13:15.999Z</time></trkpt><trkpt lat="36.170043966134635" lon="10.424545753475131"><ele>2.5</ele><time>2026-04-04T18:13:16.999Z</time></trkpt><trkpt lat="36.169773875978365" lon="10.424441481847436"><ele>2.0</ele><time>2026-04-04T18:13:17.999Z</time></trkpt><trkpt lat="36.169502024825" lon="10.424334741614572"><ele>2.0</ele><time>2026-04-04T18:13:18.999Z</time></trkpt><trkpt lat="36.169226562041985" lon="10.424226148689595"><ele>2.0</ele><time>2026-04-04T18:13:19.999Z</time></trkpt><trkpt lat="36.16895501566609" lon="10.424115028995697"><ele>2.5</ele><time>2026-04-04T18:13:20.999Z</time></trkpt><trkpt lat="36.168691541891334" lon="10.42400195638807"><ele>3.0</ele><time>2026-04-04T18:13:21.999Z</time></trkpt><trkpt lat="36.16842828602448" lon="10.423886635386753"><ele>3.0</ele><time>2026-04-04T18:13:22.999Z</time></trkpt><trkpt lat="36.16816268430686" lon="10.423769331700033"><ele>3.0</ele><time>2026-04-04T18:13:23.999Z</time></trkpt><trkpt lat="36.167892831504744" lon="10.423648917570281"><ele>3.0</ele><time>2026-04-04T18:13:24.999Z</time></trkpt><trkpt lat="36.167618819491864" lon="10.42352145883186"><ele>3.0</ele><time>2026-04-04T18:13:25.999Z</time></trkpt><trkpt lat="36.16734328229205" lon="10.423386460826963"><ele>3.0</ele><time>2026-04-04T18:13:26.999Z</time></trkpt><trkpt lat="36.16706737149521" lon="10.423249752640686"><ele>3.0</ele><time>2026-04-04T18:13:27.999Z</time></trkpt><trkpt lat="36.16678600586299" lon="10.423112633758903"><ele>2.5</ele><time>2026-04-04T18:13:28.999Z</time></trkpt><trkpt lat="36.166505482375946" lon="10.422971255741505"><ele>2.0</ele><time>2026-04-04T18:13:29.999Z</time></trkpt><trkpt lat="36.166227262850555" lon="10.42282364014406"><ele>2.0</ele><time>2026-04-04T18:13:30.999Z</time></trkpt><trkpt lat="36.16595336533891" lon="10.422671686182484"><ele>2.0</ele><time>2026-04-04T18:13:31.999Z</time></trkpt><trkpt lat="36.16568154097757" lon="10.422519204257402"><ele>2.0</ele><time>2026-04-04T18:13:32.999Z</time></trkpt><trkpt lat="36.1654224825297" lon="10.422372308175234"><ele>2.0</ele><time>2026-04-04T18:13:33.999Z</time></trkpt><trkpt lat="36.165170814977046" lon="10.422225974371148"><ele>2.5</ele><time>2026-04-04T18:13:34.999Z</time></trkpt><trkpt lat="36.1649139725483" lon="10.422076761038495"><ele>3.0</ele><time>2026-04-04T18:13:35.999Z</time></trkpt><trkpt lat="36.16465474897153" lon="10.42192102978631"><ele>3.5</ele><time>2026-04-04T18:13:36.999Z</time></trkpt><trkpt lat="36.16439513634425" lon="10.421763779572805"><ele>4.0</ele><time>2026-04-04T18:13:38Z</time></trkpt><trkpt lat="36.16413796322498" lon="10.421605273570046"><ele>3.0</ele><time>2026-04-04T18:13:39Z</time></trkpt><trkpt lat="36.16388316893951" lon="10.421445906195618"><ele>2.0</ele><time>2026-04-04T18:13:40Z</time></trkpt><trkpt lat="36.16363251198519" lon="10.421292286647658"><ele>2.0</ele><time>2026-04-04T18:13:41Z</time></trkpt><trkpt lat="36.163382952643865" lon="10.421147028730573"><ele>2.0</ele><time>2026-04-04T18:13:42Z</time></trkpt><trkpt lat="36.16313518020394" lon="10.421007730759934"><ele>2.0</ele><time>2026-04-04T18:13:43Z</time></trkpt><trkpt lat="36.162893783231155" lon="10.420863048427675"><ele>2.0</ele><time>2026-04-04T18:13:44Z</time></trkpt><trkpt lat="36.16265723429342" lon="10.420719580747539"><ele>2.0</ele><time>2026-04-04T18:13:45Z</time></trkpt><trkpt lat="36.16241834153335" lon="10.420574318158133"><ele>2.0</ele><time>2026-04-04T18:13:46Z</time></trkpt><trkpt lat="36.16217655505277" lon="10.420433235050933"><ele>2.0</ele><time>2026-04-04T18:13:47Z</time></trkpt><trkpt lat="36.161937827640294" lon="10.420292468778637"><ele>2.0</ele><time>2026-04-04T18:13:48Z</time></trkpt><trkpt lat="36.16170271443205" lon="10.42014997758242"><ele>2.5</ele><time>2026-04-04T18:13:49Z</time></trkpt><trkpt lat="36.16146722916101" lon="10.420006635573657"><ele>3.0</ele><time>2026-04-04T18:13:50Z</time></trkpt><trkpt lat="36.16122985078646" lon="10.41986226443556"><ele>3.0</ele><time>2026-04-04T18:13:51Z</time></trkpt><trkpt lat="36.160992261763695" lon="10.419718444166968"><ele>3.0</ele><time>2026-04-04T18:13:52Z</time></trkpt><trkpt lat="36.160753399272295" lon="10.419575776833115"><ele>2.5</ele><time>2026-04-04T18:13:53Z</time></trkpt><trkpt lat="36.16051519791866" lon="10.419431355710197"><ele>2.0</ele><time>2026-04-04T18:13:54Z</time></trkpt><trkpt lat="36.16027353716" lon="10.419286009296481"><ele>2.0</ele><time>2026-04-04T18:13:55Z</time></trkpt><trkpt lat="36.160033026281575" lon="10.419140131595254"><ele>2.0</ele><time>2026-04-04T18:13:56Z</time></trkpt><trkpt lat="36.15979098793721" lon="10.418993375999642"><ele>2.0</ele><time>2026-04-04T18:13:57Z</time></trkpt><trkpt lat="36.15955109084441" lon="10.41884578864955"><ele>2.0</ele><time>2026-04-04T18:13:58Z</time></trkpt><trkpt lat="36.1593054717102" lon="10.418696849096435"><ele>2.5</ele><time>2026-04-04T18:13:59Z</time></trkpt><trkpt lat="36.15905874186554" lon="10.41854783908694"><ele>3.0</ele><time>2026-04-04T18:14:00Z</time></trkpt><trkpt lat="36.15881200414757" lon="10.418403401014308"><ele>3.5</ele><time>2026-04-04T18:14:01Z</time></trkpt><trkpt lat="36.158563343588085" lon="10.41826143983149"><ele>4.0</ele><time>2026-04-04T18:14:02Z</time></trkpt><trkpt lat="36.158312335416454" lon="10.418110904862106"><ele>3.5</ele><time>2026-04-04T18:14:03Z</time></trkpt><trkpt lat="36.1580648379598" lon="10.417953885820431"><ele>3.0</ele><time>2026-04-04T18:14:04Z</time></trkpt><trkpt lat="36.157811337590985" lon="10.417804793411918"><ele>3.0</ele><time>2026-04-04T18:14:05Z</time></trkpt><trkpt lat="36.1575627543212" lon="10.417655130912536"><ele>3.0</ele><time>2026-04-04T18:14:06Z</time></trkpt><trkpt lat="36.15731552102593" lon="10.417502282983433"><ele>3.0</ele><time>2026-04-04T18:14:07Z</time></trkpt><trkpt lat="36.15706352627044" lon="10.417352209829241"><ele>3.0</ele><time>2026-04-04T18:14:08Z</time></trkpt><trkpt lat="36.15681023360687" lon="10.417205036672962"><ele>3.5</ele><time>2026-04-04T18:14:09Z</time></trkpt><trkpt lat="36.15655415094165" lon="10.417054446262371"><ele>4.0</ele><time>2026-04-04T18:14:10Z</time></trkpt><trkpt lat="36.15629776499107" lon="10.41690207577204"><ele>4.0</ele><time>2026-04-04T18:14:11Z</time></trkpt><trkpt lat="36.15604114696855" lon="10.416749728312647"><ele>4.0</ele><time>2026-04-04T18:14:12Z</time></trkpt><trkpt lat="36.15578421056114" lon="10.416595526330838"><ele>3.0</ele><time>2026-04-04T18:14:13Z</time></trkpt><trkpt lat="36.15552582481916" lon="10.416438349031313"><ele>2.0</ele><time>2026-04-04T18:14:14Z</time></trkpt><trkpt lat="36.155266620352045" lon="10.416281117720334"><ele>2.0</ele><time>2026-04-04T18:14:15Z</time></trkpt><trkpt lat="36.15500400399617" lon="10.41612199648719"><ele>2.0</ele><time>2026-04-04T18:14:16Z</time></trkpt><trkpt lat="36.154742528854314" lon="10.415964226346947"><ele>2.5</ele><time>2026-04-04T18:14:17Z</time></trkpt><trkpt lat="36.15447880838166" lon="10.415807446945085"><ele>3.0</ele><time>2026-04-04T18:14:18Z</time></trkpt><trkpt lat="36.154216061225924" lon="10.4156543923841"><ele>3.0</ele><time>2026-04-04T18:14:19Z</time></trkpt><trkpt lat="36.153957801616" lon="10.415501354406642"><ele>3.0</ele><time>2026-04-04T18:14:20Z</time></trkpt><trkpt lat="36.15370295628954" lon="10.41534916468309"><ele>3.5</ele><time>2026-04-04T18:14:21Z</time></trkpt><trkpt lat="36.153454161196294" lon="10.415202345091023"><ele>4.0</ele><time>2026-04-04T18:14:22Z</time></trkpt><trkpt lat="36.153219066789774" lon="10.415057837836217"><ele>4.5</ele><time>2026-04-04T18:14:23Z</time></trkpt><trkpt lat="36.15298445497294" lon="10.414912865486063"><ele>5.0</ele><time>2026-04-04T18:14:24Z</time></trkpt><trkpt lat="36.152736963810256" lon="10.41476518415998"><ele>5.0</ele><time>2026-04-04T18:14:25Z</time></trkpt><trkpt lat="36.15248090570166" lon="10.414610661536328"><ele>5.0</ele><time>2026-04-04T18:14:26Z</time></trkpt><trkpt lat="36.152239891954295" lon="10.414469157382111"><ele>4.5</ele><time>2026-04-04T18:14:27Z</time></trkpt><trkpt lat="36.152016458204365" lon="10.414333202520703"><ele>4.0</ele><time>2026-04-04T18:14:28Z</time></trkpt><trkpt lat="36.15179854139117" lon="10.414200476335"><ele>4.0</ele><time>2026-04-04T18:14:29Z</time></trkpt><trkpt lat="36.15158005860004" lon="10.414072773490371"><ele>4.0</ele><time>2026-04-04T18:14:30Z</time></trkpt><trkpt lat="36.15135645606325" lon="10.413940484539724"><ele>4.0</ele><time>2026-04-04T18:14:31Z</time></trkpt><trkpt lat="36.151133574203804" lon="10.41380680130219"><ele>4.0</ele><time>2026-04-04T18:14:32Z</time></trkpt><trkpt lat="36.150910831622184" lon="10.413671755551333"><ele>3.5</ele><time>2026-04-04T18:14:33Z</time></trkpt><trkpt lat="36.15068644370217" lon="10.4135321043485"><ele>3.0</ele><time>2026-04-04T18:14:34Z</time></trkpt><trkpt lat="36.15045840138182" lon="10.41339737917368"><ele>3.0</ele><time>2026-04-04T18:14:35Z</time></trkpt><trkpt lat="36.15022841660944" lon="10.413267350580059"><ele>3.0</ele><time>2026-04-04T18:14:36Z</time></trkpt><trkpt lat="36.14998613702038" lon="10.413134768501758"><ele>4.0</ele><time>2026-04-04T18:14:37Z</time></trkpt><trkpt lat="36.14973778182021" lon="10.412998087620133"><ele>5.0</ele><time>2026-04-04T18:14:38Z</time></trkpt><trkpt lat="36.14948494005659" lon="10.412855410963575"><ele>5.5</ele><time>2026-04-04T18:14:39Z</time></trkpt><trkpt lat="36.14923108625077" lon="10.412705212843065"><ele>6.0</ele><time>2026-04-04T18:14:40Z</time></trkpt><trkpt lat="36.14897787797221" lon="10.412546721053493"><ele>6.0</ele><time>2026-04-04T18:14:41Z</time></trkpt><trkpt lat="36.14873002273461" lon="10.412385867474766"><ele>6.0</ele><time>2026-04-04T18:14:42Z</time></trkpt><trkpt lat="36.14849551730256" lon="10.412237099960963"><ele>5.5</ele><time>2026-04-04T18:14:43Z</time></trkpt><trkpt lat="36.14827370423112" lon="10.412099222453081"><ele>5.0</ele><time>2026-04-04T18:14:44Z</time></trkpt><trkpt lat="36.14805390454604" lon="10.411971208297054"><ele>5.0</ele><time>2026-04-04T18:14:45Z</time></trkpt><trkpt lat="36.14783034305316" lon="10.411850179732994"><ele>5.0</ele><time>2026-04-04T18:14:46Z</time></trkpt><trkpt lat="36.147609384505316" lon="10.4117345304088"><ele>5.0</ele><time>2026-04-04T18:14:47Z</time></trkpt><trkpt lat="36.1473944674233" lon="10.411616039787267"><ele>5.0</ele><time>2026-04-04T18:14:48Z</time></trkpt><trkpt lat="36.14717981393797" lon="10.411499760260844"><ele>5.0</ele><time>2026-04-04T18:14:49Z</time></trkpt><trkpt lat="36.14696277059167" lon="10.411386209054431"><ele>5.0</ele><time>2026-04-04T18:14:50Z</time></trkpt><trkpt lat="36.1467396026595" lon="10.41127049730318"><ele>5.5</ele><time>2026-04-04T18:14:51Z</time></trkpt><trkpt lat="36.14651329328229" lon="10.411158810739819"><ele>6.0</ele><time>2026-04-04T18:14:52Z</time></trkpt><trkpt lat="36.146285047324724" lon="10.411048082703758"><ele>6.0</ele><time>2026-04-04T18:14:53Z</time></trkpt><trkpt lat="36.14605648977396" lon="10.410940832264268"><ele>6.0</ele><time>2026-04-04T18:14:54Z</time></trkpt><trkpt lat="36.145823602346574" lon="10.410828588853219"><ele>5.5</ele><time>2026-04-04T18:14:55Z</time></trkpt><trkpt lat="36.145591595787415" lon="10.410719021676428"><ele>5.0</ele><time>2026-04-04T18:14:56Z</time></trkpt><trkpt lat="36.145356772243105" lon="10.410613708248553"><ele>5.0</ele><time>2026-04-04T18:14:57Z</time></trkpt><trkpt lat="36.1451209396997" lon="10.410511070281132"><ele>5.0</ele><time>2026-04-04T18:14:58Z</time></trkpt><trkpt lat="36.14488225927864" lon="10.410414125119322"><ele>6.0</ele><time>2026-04-04T18:14:59Z</time></trkpt><trkpt lat="36.14464476766297" lon="10.410314318674926"><ele>7.0</ele><time>2026-04-04T18:14:59.999Z</time></trkpt><trkpt lat="36.14440346267148" lon="10.410217451157076"><ele>7.0</ele><time>2026-04-04T18:15:00.999Z</time></trkpt><trkpt lat="36.14415831305752" lon="10.410121051726842"><ele>7.0</ele><time>2026-04-04T18:15:01.999Z</time></trkpt><trkpt lat="36.143913884869306" lon="10.410022297313155"><ele>6.5</ele><time>2026-04-04T18:15:02.999Z</time></trkpt><trkpt lat="36.14366711895066" lon="10.409924629490762"><ele>6.0</ele><time>2026-04-04T18:15:03.999Z</time></trkpt><trkpt lat="36.14341269471839" lon="10.409829450422357"><ele>6.0</ele><time>2026-04-04T18:15:04.999Z</time></trkpt><trkpt lat="36.14315230009005" lon="10.409736126604258"><ele>6.0</ele><time>2026-04-04T18:15:05.999Z</time></trkpt><trkpt lat="36.1428896761205" lon="10.409643321996429"><ele>6.0</ele><time>2026-04-04T18:15:06.999Z</time></trkpt><trkpt lat="36.14262994822894" lon="10.40955439434058"><ele>6.0</ele><time>2026-04-04T18:15:07.999Z</time></trkpt><trkpt lat="36.14237402642261" lon="10.409468582356666"><ele>6.0</ele><time>2026-04-04T18:15:08.999Z</time></trkpt><trkpt lat="36.142120053175645" lon="10.409385196352037"><ele>6.0</ele><time>2026-04-04T18:15:09.999Z</time></trkpt><trkpt lat="36.141869501148825" lon="10.409305518608923"><ele>6.0</ele><time>2026-04-04T18:15:10.999Z</time></trkpt><trkpt lat="36.14162005866037" lon="10.409229202860631"><ele>6.0</ele><time>2026-04-04T18:15:11.999Z</time></trkpt><trkpt lat="36.14137489255075" lon="10.409155101550098"><ele>7.0</ele><time>2026-04-04T18:15:12.999Z</time></trkpt><trkpt lat="36.141142978668924" lon="10.409089730817856"><ele>8.0</ele><time>2026-04-04T18:15:13.999Z</time></trkpt><trkpt lat="36.14091850678004" lon="10.409030439914002"><ele>7.666666666666666</ele><time>2026-04-04T18:15:14.999Z</time></trkpt><trkpt lat="36.14070289671522" lon="10.408971640109563"><ele>7.333333333333334</ele><time>2026-04-04T18:15:15.999Z</time></trkpt><trkpt lat="36.14049081993667" lon="10.408916447421543"><ele>7.0</ele><time>2026-04-04T18:15:16.999Z</time></trkpt><trkpt lat="36.1402726694657" lon="10.408860675224998"><ele>7.5</ele><time>2026-04-04T18:15:17.999Z</time></trkpt><trkpt lat="36.140047288052436" lon="10.408803263684327"><ele>8.0</ele><time>2026-04-04T18:15:18.999Z</time></trkpt><trkpt lat="36.13981855415847" lon="10.40874875354196"><ele>8.0</ele><time>2026-04-04T18:15:19.999Z</time></trkpt><trkpt lat="36.139583005745855" lon="10.408697539481174"><ele>8.0</ele><time>2026-04-04T18:15:20.999Z</time></trkpt><trkpt lat="36.13934211001552" lon="10.408644151051375"><ele>8.0</ele><time>2026-04-04T18:15:21.999Z</time></trkpt><trkpt lat="36.139095685274945" lon="10.408585482700724"><ele>8.0</ele><time>2026-04-04T18:15:22.999Z</time></trkpt><trkpt lat="36.13884813238658" lon="10.408535049946146"><ele>7.5</ele><time>2026-04-04T18:15:23.999Z</time></trkpt><trkpt lat="36.138602219692615" lon="10.408484511194336"><ele>7.0</ele><time>2026-04-04T18:15:24.999Z</time></trkpt><trkpt lat="36.138352503319666" lon="10.408429342957204"><ele>8.0</ele><time>2026-04-04T18:15:25.999Z</time></trkpt><trkpt lat="36.13809828558148" lon="10.408374007116258"><ele>9.0</ele><time>2026-04-04T18:15:26.999Z</time></trkpt><trkpt lat="36.13784218669879" lon="10.408326111389973"><ele>9.0</ele><time>2026-04-04T18:15:27.999Z</time></trkpt><trkpt lat="36.137590700123766" lon="10.408278600641799"><ele>9.0</ele><time>2026-04-04T18:15:28.999Z</time></trkpt><trkpt lat="36.137342118474116" lon="10.40822949674248"><ele>9.0</ele><time>2026-04-04T18:15:29.999Z</time></trkpt><trkpt lat="36.1370910371899" lon="10.408175120199102"><ele>9.0</ele><time>2026-04-04T18:15:30.999Z</time></trkpt><trkpt lat="36.13684012945109" lon="10.408124050617873"><ele>9.0</ele><time>2026-04-04T18:15:31.999Z</time></trkpt><trkpt lat="36.13659038266518" lon="10.408077430249168"><ele>9.0</ele><time>2026-04-04T18:15:32.999Z</time></trkpt><trkpt lat="36.136341361006544" lon="10.408027744316428"><ele>8.0</ele><time>2026-04-04T18:15:33.999Z</time></trkpt><trkpt lat="36.136093146722885" lon="10.40797778909411"><ele>7.0</ele><time>2026-04-04T18:15:34.999Z</time></trkpt><trkpt lat="36.13584677180089" lon="10.407929562331045"><ele>7.5</ele><time>2026-04-04T18:15:35.999Z</time></trkpt><trkpt lat="36.13559772683438" lon="10.407877941612757"><ele>8.0</ele><time>2026-04-04T18:15:36.999Z</time></trkpt><trkpt lat="36.1353448129837" lon="10.407823391958381"><ele>8.0</ele><time>2026-04-04T18:15:37.999Z</time></trkpt><trkpt lat="36.1350956450253" lon="10.40777193599518"><ele>8.0</ele><time>2026-04-04T18:15:38.999Z</time></trkpt><trkpt lat="36.13485692012877" lon="10.407722487530963"><ele>8.5</ele><time>2026-04-04T18:15:39.999Z</time></trkpt><trkpt lat="36.134614651727006" lon="10.407672665587151"><ele>9.0</ele><time>2026-04-04T18:15:40.999Z</time></trkpt><trkpt lat="36.13437409049609" lon="10.407623638863136"><ele>9.0</ele><time>2026-04-04T18:15:41.999Z</time></trkpt><trkpt lat="36.13413336874851" lon="10.407575277434239"><ele>9.0</ele><time>2026-04-04T18:15:42.999Z</time></trkpt><trkpt lat="36.13389058450047" lon="10.407529077107567"><ele>8.5</ele><time>2026-04-04T18:15:44Z</time></trkpt><trkpt lat="36.13364789062232" lon="10.40748159521875"><ele>8.0</ele><time>2026-04-04T18:15:45Z</time></trkpt><trkpt lat="36.133404747071616" lon="10.407435029928028"><ele>8.5</ele><time>2026-04-04T18:15:46Z</time></trkpt><trkpt lat="36.13316221985644" lon="10.407386982409982"><ele>9.0</ele><time>2026-04-04T18:15:47Z</time></trkpt><trkpt lat="36.13291629841942" lon="10.407335436909925"><ele>9.0</ele><time>2026-04-04T18:15:48Z</time></trkpt><trkpt lat="36.13267235687228" lon="10.40728230885632"><ele>9.0</ele><time>2026-04-04T18:15:49Z</time></trkpt><trkpt lat="36.13242656745404" lon="10.407233985548586"><ele>9.5</ele><time>2026-04-04T18:15:50Z</time></trkpt><trkpt lat="36.132182027137716" lon="10.407188114439569"><ele>10.0</ele><time>2026-04-04T18:15:51Z</time></trkpt><trkpt lat="36.1319357304016" lon="10.407142667634197"><ele>10.0</ele><time>2026-04-04T18:15:52Z</time></trkpt><trkpt lat="36.131688559293806" lon="10.407095982807492"><ele>10.0</ele><time>2026-04-04T18:15:53Z</time></trkpt><trkpt lat="36.13143696804433" lon="10.407044626019921"><ele>9.5</ele><time>2026-04-04T18:15:54Z</time></trkpt><trkpt lat="36.13118480317889" lon="10.406993396612508"><ele>9.0</ele><time>2026-04-04T18:15:55Z</time></trkpt><trkpt lat="36.13093068224493" lon="10.406941147471803"><ele>9.5</ele><time>2026-04-04T18:15:56Z</time></trkpt><trkpt lat="36.130678322056305" lon="10.406885306674477"><ele>10.0</ele><time>2026-04-04T18:15:57Z</time></trkpt><trkpt lat="36.13042312614427" lon="10.406836559513566"><ele>10.0</ele><time>2026-04-04T18:15:58Z</time></trkpt><trkpt lat="36.13016572091036" lon="10.406788925002134"><ele>10.0</ele><time>2026-04-04T18:15:59Z</time></trkpt><trkpt lat="36.12991452388124" lon="10.406738942221246"><ele>9.0</ele><time>2026-04-04T18:16:00Z</time></trkpt><trkpt lat="36.129666676243104" lon="10.406691803026876"><ele>8.0</ele><time>2026-04-04T18:16:01Z</time></trkpt><trkpt lat="36.12941911105124" lon="10.406642132195216"><ele>8.0</ele><time>2026-04-04T18:16:02Z</time></trkpt><trkpt lat="36.12916849057707" lon="10.406591969102008"><ele>8.0</ele><time>2026-04-04T18:16:03Z</time></trkpt><trkpt lat="36.12891790200235" lon="10.406538808401152"><ele>8.5</ele><time>2026-04-04T18:16:04Z</time></trkpt><trkpt lat="36.12866877591023" lon="10.406486580067725"><ele>9.0</ele><time>2026-04-04T18:16:05Z</time></trkpt><trkpt lat="36.12841645965056" lon="10.40643661238654"><ele>8.5</ele><time>2026-04-04T18:16:06Z</time></trkpt><trkpt lat="36.12816670243686" lon="10.406390860675533"><ele>8.0</ele><time>2026-04-04T18:16:07Z</time></trkpt><trkpt lat="36.12791646353651" lon="10.406339370572486"><ele>9.0</ele><time>2026-04-04T18:16:08Z</time></trkpt><trkpt lat="36.12766641260094" lon="10.406286074397663"><ele>10.0</ele><time>2026-04-04T18:16:09Z</time></trkpt><trkpt lat="36.12741702172495" lon="10.40623715450897"><ele>9.5</ele><time>2026-04-04T18:16:10Z</time></trkpt><trkpt lat="36.12716372111477" lon="10.40618762605216"><ele>9.0</ele><time>2026-04-04T18:16:11Z</time></trkpt><trkpt lat="36.12691357817811" lon="10.406135852492032"><ele>9.0</ele><time>2026-04-04T18:16:12Z</time></trkpt><trkpt lat="36.12665764785144" lon="10.406084136274313"><ele>9.0</ele><time>2026-04-04T18:16:13Z</time></trkpt><trkpt lat="36.126399652308145" lon="10.406032267003535"><ele>9.0</ele><time>2026-04-04T18:16:14Z</time></trkpt><trkpt lat="36.12613928671865" lon="10.405982764263486"><ele>9.0</ele><time>2026-04-04T18:16:15Z</time></trkpt><trkpt lat="36.12588067341001" lon="10.405935452512852"><ele>9.5</ele><time>2026-04-04T18:16:16Z</time></trkpt><trkpt lat="36.12562680316097" lon="10.405885513903103"><ele>10.0</ele><time>2026-04-04T18:16:17Z</time></trkpt><trkpt lat="36.12537639539635" lon="10.405834431370135"><ele>10.0</ele><time>2026-04-04T18:16:18Z</time></trkpt><trkpt lat="36.12512486723512" lon="10.40578131979087"><ele>10.0</ele><time>2026-04-04T18:16:19Z</time></trkpt><trkpt lat="36.124874360178296" lon="10.40573170705407"><ele>9.5</ele><time>2026-04-04T18:16:20Z</time></trkpt><trkpt lat="36.12462363527145" lon="10.405693091337392"><ele>9.0</ele><time>2026-04-04T18:16:21Z</time></trkpt><trkpt lat="36.12437552073975" lon="10.405655542279481"><ele>9.0</ele><time>2026-04-04T18:16:22Z</time></trkpt><trkpt lat="36.124127929084885" lon="10.405611886527756"><ele>9.0</ele><time>2026-04-04T18:16:23Z</time></trkpt><trkpt lat="36.12388153209564" lon="10.405569925878996"><ele>9.0</ele><time>2026-04-04T18:16:24Z</time></trkpt><trkpt lat="36.12363281310822" lon="10.405530925167215"><ele>9.0</ele><time>2026-04-04T18:16:25Z</time></trkpt><trkpt lat="36.12337961993389" lon="10.405492906198699"><ele>8.5</ele><time>2026-04-04T18:16:26Z</time></trkpt><trkpt lat="36.12312163320087" lon="10.405458344678406"><ele>8.0</ele><time>2026-04-04T18:16:27Z</time></trkpt><trkpt lat="36.12286172622026" lon="10.405421809610976"><ele>8.0</ele><time>2026-04-04T18:16:28Z</time></trkpt><trkpt lat="36.12260292135744" lon="10.405388492004128"><ele>8.0</ele><time>2026-04-04T18:16:29Z</time></trkpt><trkpt lat="36.12234298567315" lon="10.405360517065558"><ele>8.0</ele><time>2026-04-04T18:16:30Z</time></trkpt><trkpt lat="36.12208541546314" lon="10.405336239674766"><ele>8.0</ele><time>2026-04-04T18:16:31Z</time></trkpt><trkpt lat="36.12182674001401" lon="10.405311865132242"><ele>8.0</ele><time>2026-04-04T18:16:32Z</time></trkpt><trkpt lat="36.12157009112019" lon="10.405283966847652"><ele>8.0</ele><time>2026-04-04T18:16:33Z</time></trkpt><trkpt lat="36.121315518154525" lon="10.405255515473437"><ele>8.0</ele><time>2026-04-04T18:16:34Z</time></trkpt><trkpt lat="36.12106152474567" lon="10.405227556222243"><ele>8.0</ele><time>2026-04-04T18:16:35Z</time></trkpt><trkpt lat="36.120806156951495" lon="10.405203321999739"><ele>9.0</ele><time>2026-04-04T18:16:36Z</time></trkpt><trkpt lat="36.120554427605384" lon="10.405182910132902"><ele>10.0</ele><time>2026-04-04T18:16:37Z</time></trkpt><trkpt lat="36.12030098540047" lon="10.40516450133846"><ele>10.0</ele><time>2026-04-04T18:16:38Z</time></trkpt><trkpt lat="36.12004590257807" lon="10.405146065341198"><ele>10.0</ele><time>2026-04-04T18:16:39Z</time></trkpt><trkpt lat="36.11978909502087" lon="10.405131697422316"><ele>10.0</ele><time>2026-04-04T18:16:40Z</time></trkpt><trkpt lat="36.11953299830435" lon="10.40512277877451"><ele>10.0</ele><time>2026-04-04T18:16:41Z</time></trkpt><trkpt lat="36.119279873399314" lon="10.405115987825031"><ele>10.0</ele><time>2026-04-04T18:16:42Z</time></trkpt><trkpt lat="36.11902798631223" lon="10.405104730472164"><ele>10.0</ele><time>2026-04-04T18:16:43Z</time></trkpt><trkpt lat="36.11877616337437" lon="10.40508788952461"><ele>10.0</ele><time>2026-04-04T18:16:44Z</time></trkpt><trkpt lat="36.11852492268051" lon="10.40507766133263"><ele>10.0</ele><time>2026-04-04T18:16:45Z</time></trkpt><trkpt lat="36.11828337801878" lon="10.40507038642833"><ele>9.5</ele><time>2026-04-04T18:16:46Z</time></trkpt><trkpt lat="36.118054266032615" lon="10.405062575082276"><ele>9.0</ele><time>2026-04-04T18:16:47Z</time></trkpt><trkpt lat="36.11783100035707" lon="10.405053618197774"><ele>9.0</ele><time>2026-04-04T18:16:48Z</time></trkpt><trkpt lat="36.11761222892907" lon="10.40504262712731"><ele>9.0</ele><time>2026-04-04T18:16:49Z</time></trkpt><trkpt lat="36.11739729145981" lon="10.405032981287714"><ele>9.0</ele><time>2026-04-04T18:16:50Z</time></trkpt><trkpt lat="36.117184690689754" lon="10.40502191711021"><ele>9.0</ele><time>2026-04-04T18:16:51Z</time></trkpt><trkpt lat="36.116966408453045" lon="10.405013024786207"><ele>9.0</ele><time>2026-04-04T18:16:52Z</time></trkpt><trkpt lat="36.11674366798272" lon="10.405003896530115"><ele>9.0</ele><time>2026-04-04T18:16:53Z</time></trkpt><trkpt lat="36.11651617311959" lon="10.404995101998251"><ele>9.0</ele><time>2026-04-04T18:16:54Z</time></trkpt><trkpt lat="36.11628240476583" lon="10.404987220027008"><ele>9.0</ele><time>2026-04-04T18:16:55Z</time></trkpt><trkpt lat="36.11604350926727" lon="10.404981369285544"><ele>9.0</ele><time>2026-04-04T18:16:56Z</time></trkpt><trkpt lat="36.11579847231673" lon="10.404976921857745"><ele>9.0</ele><time>2026-04-04T18:16:57Z</time></trkpt><trkpt lat="36.11555252976931" lon="10.404971174430829"><ele>9.0</ele><time>2026-04-04T18:16:58Z</time></trkpt><trkpt lat="36.11530121119167" lon="10.404958987310405"><ele>9.0</ele><time>2026-04-04T18:16:59Z</time></trkpt><trkpt lat="36.11504953204699" lon="10.404943782730097"><ele>8.5</ele><time>2026-04-04T18:17:00Z</time></trkpt><trkpt lat="36.11479250849786" lon="10.404933996346678"><ele>8.0</ele><time>2026-04-04T18:17:00.999Z</time></trkpt><trkpt lat="36.11453260551596" lon="10.404926333161896"><ele>8.0</ele><time>2026-04-04T18:17:01.999Z</time></trkpt><trkpt lat="36.11427302023055" lon="10.404918030145115"><ele>8.0</ele><time>2026-04-04T18:17:02.999Z</time></trkpt><trkpt lat="36.114011679646076" lon="10.40490773809957"><ele>8.0</ele><time>2026-04-04T18:17:03.999Z</time></trkpt><trkpt lat="36.113751855930495" lon="10.40489766241803"><ele>8.0</ele><time>2026-04-04T18:17:04.999Z</time></trkpt><trkpt lat="36.1134889730171" lon="10.404890018477262"><ele>9.0</ele><time>2026-04-04T18:17:05.999Z</time></trkpt><trkpt lat="36.11323659595427" lon="10.404882633693031"><ele>10.0</ele><time>2026-04-04T18:17:06.999Z</time></trkpt><trkpt lat="36.112987092351766" lon="10.404874791479095"><ele>10.0</ele><time>2026-04-04T18:17:07.999Z</time></trkpt><trkpt lat="36.112733301049346" lon="10.40486526598697"><ele>10.0</ele><time>2026-04-04T18:17:08.999Z</time></trkpt><trkpt lat="36.11247724668824" lon="10.404854262453815"><ele>10.0</ele><time>2026-04-04T18:17:09.999Z</time></trkpt><trkpt lat="36.11222148075471" lon="10.40484338123715"><ele>10.0</ele><time>2026-04-04T18:17:10.999Z</time></trkpt><trkpt lat="36.111965432902544" lon="10.404838616564813"><ele>10.0</ele><time>2026-04-04T18:17:11.999Z</time></trkpt><trkpt lat="36.111708575788974" lon="10.40484007371765"><ele>10.0</ele><time>2026-04-04T18:17:12.999Z</time></trkpt><trkpt lat="36.111447563564816" lon="10.40484093463626"><ele>9.5</ele><time>2026-04-04T18:17:13.999Z</time></trkpt><trkpt lat="36.11118588129027" lon="10.404835721283328"><ele>9.0</ele><time>2026-04-04T18:17:14.999Z</time></trkpt><trkpt lat="36.11092604230328" lon="10.404822615573346"><ele>9.5</ele><time>2026-04-04T18:17:15.999Z</time></trkpt><trkpt lat="36.11066593646712" lon="10.4048091218848"><ele>10.0</ele><time>2026-04-04T18:17:16.999Z</time></trkpt><trkpt lat="36.11040303626999" lon="10.404797997944367"><ele>10.0</ele><time>2026-04-04T18:17:17.999Z</time></trkpt><trkpt lat="36.11013604400837" lon="10.404787688927001"><ele>10.0</ele><time>2026-04-04T18:17:18.999Z</time></trkpt><trkpt lat="36.10986377579194" lon="10.40477803096009"><ele>10.0</ele><time>2026-04-04T18:17:19.999Z</time></trkpt><trkpt lat="36.10958977508006" lon="10.404767533048222"><ele>10.0</ele><time>2026-04-04T18:17:20.999Z</time></trkpt><trkpt lat="36.10931313098807" lon="10.404755099968378"><ele>9.5</ele><time>2026-04-04T18:17:21.999Z</time></trkpt><trkpt lat="36.10903430858008" lon="10.404742430019269"><ele>9.0</ele><time>2026-04-04T18:17:22.999Z</time></trkpt><trkpt lat="36.10875244790303" lon="10.404731199872822"><ele>9.0</ele><time>2026-04-04T18:17:23.999Z</time></trkpt><trkpt lat="36.108470353818696" lon="10.404718716266913"><ele>9.0</ele><time>2026-04-04T18:17:24.999Z</time></trkpt><trkpt lat="36.108182971748974" lon="10.404702329096054"><ele>9.0</ele><time>2026-04-04T18:17:25.999Z</time></trkpt><trkpt lat="36.10788611029132" lon="10.404681847793077"><ele>9.0</ele><time>2026-04-04T18:17:26.999Z</time></trkpt><trkpt lat="36.10756949512778" lon="10.404661906373931"><ele>10.5</ele><time>2026-04-04T18:17:27.999Z</time></trkpt><trkpt lat="36.10723897592595" lon="10.404639019892386"><ele>12.0</ele><time>2026-04-04T18:17:28.999Z</time></trkpt><trkpt lat="36.10691423902268" lon="10.404609604499777"><ele>12.0</ele><time>2026-04-04T18:17:29.999Z</time></trkpt><trkpt lat="36.10661464496224" lon="10.404583420808569"><ele>12.0</ele><time>2026-04-04T18:17:30.999Z</time></trkpt><trkpt lat="36.10632628905701" lon="10.40455384753091"><ele>11.0</ele><time>2026-04-04T18:17:31.999Z</time></trkpt><trkpt lat="36.106056774609584" lon="10.404521478585618"><ele>10.0</ele><time>2026-04-04T18:17:32.999Z</time></trkpt><trkpt lat="36.10579455309079" lon="10.404487410309216"><ele>9.5</ele><time>2026-04-04T18:17:33.999Z</time></trkpt><trkpt lat="36.10554513130758" lon="10.404450202278547"><ele>9.0</ele><time>2026-04-04T18:17:34.999Z</time></trkpt><trkpt lat="36.105308292677634" lon="10.404416304838996"><ele>9.0</ele><time>2026-04-04T18:17:35.999Z</time></trkpt><trkpt lat="36.105075014106504" lon="10.404381391106343"><ele>9.0</ele><time>2026-04-04T18:17:36.999Z</time></trkpt><trkpt lat="36.10483085168072" lon="10.404344225843513"><ele>8.5</ele><time>2026-04-04T18:17:37.999Z</time></trkpt><trkpt lat="36.1045821188454" lon="10.404308598321776"><ele>8.0</ele><time>2026-04-04T18:17:38.999Z</time></trkpt><trkpt lat="36.10432831477325" lon="10.404269792222374"><ele>7.5</ele><time>2026-04-04T18:17:39.999Z</time></trkpt><trkpt lat="36.10407746304325" lon="10.404229773081633"><ele>7.0</ele><time>2026-04-04T18:17:40.999Z</time></trkpt><trkpt lat="36.10383148021774" lon="10.404190810788796"><ele>7.0</ele><time>2026-04-04T18:17:41.999Z</time></trkpt><trkpt lat="36.10357927323833" lon="10.40414965997973"><ele>7.0</ele><time>2026-04-04T18:17:42.999Z</time></trkpt><trkpt lat="36.10332339340001" lon="10.404105624751196"><ele>6.5</ele><time>2026-04-04T18:17:43.999Z</time></trkpt><trkpt lat="36.103071071175556" lon="10.404058932083132"><ele>6.0</ele><time>2026-04-04T18:17:44.999Z</time></trkpt><trkpt lat="36.102822209330895" lon="10.404014085281998"><ele>6.0</ele><time>2026-04-04T18:17:45.999Z</time></trkpt><trkpt lat="36.10257373060486" lon="10.403970517062405"><ele>6.0</ele><time>2026-04-04T18:17:46.999Z</time></trkpt><trkpt lat="36.10232748935359" lon="10.403923967291021"><ele>7.0</ele><time>2026-04-04T18:17:47.999Z</time></trkpt><trkpt lat="36.10208354105475" lon="10.403875052570983"><ele>8.0</ele><time>2026-04-04T18:17:48.999Z</time></trkpt><trkpt lat="36.10184319030509" lon="10.403821861207904"><ele>8.333333333333332</ele><time>2026-04-04T18:17:50Z</time></trkpt><trkpt lat="36.10161580021518" lon="10.403767256995975"><ele>8.666666666666666</ele><time>2026-04-04T18:17:51Z</time></trkpt><trkpt lat="36.101404983723164" lon="10.40371584843474"><ele>9.0</ele><time>2026-04-04T18:17:52Z</time></trkpt><trkpt lat="36.101202892526786" lon="10.403674172484322"><ele>9.333333333333334</ele><time>2026-04-04T18:17:53Z</time></trkpt><trkpt lat="36.101000518902005" lon="10.403630448617943"><ele>9.666666666666668</ele><time>2026-04-04T18:17:54Z</time></trkpt><trkpt lat="36.10079041644717" lon="10.40358417426974"><ele>10.0</ele><time>2026-04-04T18:17:55Z</time></trkpt><trkpt lat="36.10057415294384" lon="10.403541961858927"><ele>10.0</ele><time>2026-04-04T18:17:56Z</time></trkpt><trkpt lat="36.10035669391024" lon="10.403498001166001"><ele>10.0</ele><time>2026-04-04T18:17:57Z</time></trkpt><trkpt lat="36.10013601886126" lon="10.40345228881162"><ele>10.0</ele><time>2026-04-04T18:17:58Z</time></trkpt><trkpt lat="36.09991135187242" lon="10.40340097436335"><ele>9.5</ele><time>2026-04-04T18:17:59Z</time></trkpt><trkpt lat="36.099680897027696" lon="10.403350636568614"><ele>9.0</ele><time>2026-04-04T18:18:00Z</time></trkpt><trkpt lat="36.09944618652393" lon="10.403303165004026"><ele>9.0</ele><time>2026-04-04T18:18:01Z</time></trkpt><trkpt lat="36.09921439409724" lon="10.403254384072874"><ele>9.0</ele><time>2026-04-04T18:18:02Z</time></trkpt><trkpt lat="36.09898312681801" lon="10.403203579933782"><ele>9.0</ele><time>2026-04-04T18:18:03Z</time></trkpt><trkpt lat="36.09874936332113" lon="10.403152664783542"><ele>9.0</ele><time>2026-04-04T18:18:04Z</time></trkpt><trkpt lat="36.098516300401975" lon="10.403103581939142"><ele>9.0</ele><time>2026-04-04T18:18:05Z</time></trkpt><trkpt lat="36.09827703483605" lon="10.403053633067769"><ele>9.0</ele><time>2026-04-04T18:18:06Z</time></trkpt><trkpt lat="36.09803998303231" lon="10.403006385323891"><ele>9.0</ele><time>2026-04-04T18:18:07Z</time></trkpt><trkpt lat="36.097800968263996" lon="10.402956356655569"><ele>9.0</ele><time>2026-04-04T18:18:08Z</time></trkpt><trkpt lat="36.09755682889072" lon="10.402903335144776"><ele>9.0</ele><time>2026-04-04T18:18:09Z</time></trkpt><trkpt lat="36.09731605070103" lon="10.402851119627327"><ele>9.0</ele><time>2026-04-04T18:18:10Z</time></trkpt><trkpt lat="36.09707614181423" lon="10.402802054192463"><ele>9.0</ele><time>2026-04-04T18:18:11Z</time></trkpt><trkpt lat="36.0968355957158" lon="10.402753657339511"><ele>9.0</ele><time>2026-04-04T18:18:12Z</time></trkpt><trkpt lat="36.09660144961722" lon="10.402706317710647"><ele>9.5</ele><time>2026-04-04T18:18:13Z</time></trkpt><trkpt lat="36.096370199400575" lon="10.402655191953656"><ele>10.0</ele><time>2026-04-04T18:18:14Z</time></trkpt><trkpt lat="36.096145237832665" lon="10.402604161916566"><ele>10.0</ele><time>2026-04-04T18:18:15Z</time></trkpt><trkpt lat="36.09591921323113" lon="10.402553053957119"><ele>10.0</ele><time>2026-04-04T18:18:16Z</time></trkpt><trkpt lat="36.09569134626434" lon="10.402500394942125"><ele>9.0</ele><time>2026-04-04T18:18:17Z</time></trkpt><trkpt lat="36.0954644894623" lon="10.402451078750193"><ele>8.0</ele><time>2026-04-04T18:18:18Z</time></trkpt><trkpt lat="36.09524023162649" lon="10.402404092453274"><ele>8.0</ele><time>2026-04-04T18:18:19Z</time></trkpt><trkpt lat="36.09501963540124" lon="10.402362538986967"><ele>8.0</ele><time>2026-04-04T18:18:20Z</time></trkpt><trkpt lat="36.09479715944461" lon="10.402320004898597"><ele>8.0</ele><time>2026-04-04T18:18:21Z</time></trkpt><trkpt lat="36.094570344464096" lon="10.402275796421373"><ele>8.0</ele><time>2026-04-04T18:18:22Z</time></trkpt><trkpt lat="36.09433955627954" lon="10.40222812078288"><ele>8.0</ele><time>2026-04-04T18:18:23Z</time></trkpt><trkpt lat="36.09410707937396" lon="10.402180306195953"><ele>8.0</ele><time>2026-04-04T18:18:24Z</time></trkpt><trkpt lat="36.093874367752335" lon="10.40213421849066"><ele>8.0</ele><time>2026-04-04T18:18:25Z</time></trkpt><trkpt lat="36.09364154618334" lon="10.402084587324243"><ele>8.0</ele><time>2026-04-04T18:18:26Z</time></trkpt><trkpt lat="36.0934183422204" lon="10.402034357443942"><ele>8.0</ele><time>2026-04-04T18:18:27Z</time></trkpt><trkpt lat="36.093203239358374" lon="10.401988582808807"><ele>8.0</ele><time>2026-04-04T18:18:28Z</time></trkpt><trkpt lat="36.09299080679082" lon="10.401951442454061"><ele>8.0</ele><time>2026-04-04T18:18:29Z</time></trkpt><trkpt lat="36.09278725305518" lon="10.401918531130992"><ele>8.0</ele><time>2026-04-04T18:18:30Z</time></trkpt><trkpt lat="36.0925895449699" lon="10.401885426413415"><ele>8.0</ele><time>2026-04-04T18:18:31Z</time></trkpt><trkpt lat="36.092390952157125" lon="10.401851749900155"><ele>8.0</ele><time>2026-04-04T18:18:32Z</time></trkpt><trkpt lat="36.09218671329939" lon="10.401819739915545"><ele>8.0</ele><time>2026-04-04T18:18:33Z</time></trkpt><trkpt lat="36.0919808235013" lon="10.401789745112676"><ele>8.0</ele><time>2026-04-04T18:18:34Z</time></trkpt><trkpt lat="36.091781257848" lon="10.401761255413778"><ele>8.333333333333332</ele><time>2026-04-04T18:18:35Z</time></trkpt><trkpt lat="36.09157859510221" lon="10.40173843153966"><ele>8.666666666666666</ele><time>2026-04-04T18:18:36Z</time></trkpt><trkpt lat="36.09136418183181" lon="10.401718819655729"><ele>9.0</ele><time>2026-04-04T18:18:37Z</time></trkpt><trkpt lat="36.09112608846115" lon="10.401694773831364"><ele>9.0</ele><time>2026-04-04T18:18:38Z</time></trkpt><trkpt lat="36.090868292251976" lon="10.401665597698823"><ele>9.0</ele><time>2026-04-04T18:18:39Z</time></trkpt><trkpt lat="36.09060402683791" lon="10.401632393372502"><ele>8.5</ele><time>2026-04-04T18:18:40Z</time></trkpt><trkpt lat="36.09034861679394" lon="10.401596058374752"><ele>8.0</ele><time>2026-04-04T18:18:41Z</time></trkpt><trkpt lat="36.090087732236334" lon="10.401564894955234"><ele>8.0</ele><time>2026-04-04T18:18:42Z</time></trkpt><trkpt lat="36.0898269423988" lon="10.401541530205687"><ele>8.0</ele><time>2026-04-04T18:18:43Z</time></trkpt><trkpt lat="36.08957102334687" lon="10.401518845537547"><ele>8.0</ele><time>2026-04-04T18:18:44Z</time></trkpt><trkpt lat="36.08931593134402" lon="10.401499820064226"><ele>8.0</ele><time>2026-04-04T18:18:45Z</time></trkpt><trkpt lat="36.08905911506148" lon="10.401484748782432"><ele>7.5</ele><time>2026-04-04T18:18:46Z</time></trkpt><trkpt lat="36.088808698869656" lon="10.401470957721543"><ele>7.0</ele><time>2026-04-04T18:18:47Z</time></trkpt><trkpt lat="36.08855367514676" lon="10.40145915922478"><ele>7.0</ele><time>2026-04-04T18:18:48Z</time></trkpt><trkpt lat="36.088293788416465" lon="10.401449106776534"><ele>7.0</ele><time>2026-04-04T18:18:49Z</time></trkpt><trkpt lat="36.088034995867126" lon="10.401442909970951"><ele>7.5</ele><time>2026-04-04T18:18:50Z</time></trkpt><trkpt lat="36.08777871463895" lon="10.401439156940375"><ele>8.0</ele><time>2026-04-04T18:18:51Z</time></trkpt><trkpt lat="36.08752287920628" lon="10.40144176642845"><ele>7.5</ele><time>2026-04-04T18:18:52Z</time></trkpt><trkpt lat="36.08726584898897" lon="10.401445749767271"><ele>7.0</ele><time>2026-04-04T18:18:53Z</time></trkpt><trkpt lat="36.087009664236774" lon="10.401447773669933"><ele>7.0</ele><time>2026-04-04T18:18:54Z</time></trkpt><trkpt lat="36.08674716523066" lon="10.401451698849147"><ele>7.0</ele><time>2026-04-04T18:18:55Z</time></trkpt><trkpt lat="36.08648023269934" lon="10.401458698931345"><ele>7.0</ele><time>2026-04-04T18:18:56Z</time></trkpt><trkpt lat="36.08621455155978" lon="10.40146604248096"><ele>7.0</ele><time>2026-04-04T18:18:57Z</time></trkpt><trkpt lat="36.0859461894061" lon="10.401479113871948"><ele>7.0</ele><time>2026-04-04T18:18:58Z</time></trkpt><trkpt lat="36.085680729573276" lon="10.401496226911732"><ele>7.0</ele><time>2026-04-04T18:18:59Z</time></trkpt><trkpt lat="36.085416309471" lon="10.401513891885118"><ele>7.0</ele><time>2026-04-04T18:19:00Z</time></trkpt><trkpt lat="36.08515216625221" lon="10.401530239001445"><ele>7.0</ele><time>2026-04-04T18:19:01Z</time></trkpt><trkpt lat="36.08488817878109" lon="10.401552527354632"><ele>7.5</ele><time>2026-04-04T18:19:02Z</time></trkpt><trkpt lat="36.08462513234741" lon="10.40158269593535"><ele>8.0</ele><time>2026-04-04T18:19:02.999Z</time></trkpt><trkpt lat="36.08437147145592" lon="10.401614817598576"><ele>8.0</ele><time>2026-04-04T18:19:03.999Z</time></trkpt><trkpt lat="36.08413227307909" lon="10.401642992506591"><ele>8.0</ele><time>2026-04-04T18:19:04.999Z</time></trkpt><trkpt lat="36.08389586953431" lon="10.401670182381022"><ele>8.0</ele><time>2026-04-04T18:19:05.999Z</time></trkpt><trkpt lat="36.08365473570387" lon="10.401697307812457"><ele>8.0</ele><time>2026-04-04T18:19:06.999Z</time></trkpt><trkpt lat="36.083411266458846" lon="10.401728818689318"><ele>7.0</ele><time>2026-04-04T18:19:07.999Z</time></trkpt><trkpt lat="36.08316911126976" lon="10.401762363727114"><ele>6.0</ele><time>2026-04-04T18:19:08.999Z</time></trkpt><trkpt lat="36.08293273391161" lon="10.401797860935428"><ele>6.0</ele><time>2026-04-04T18:19:09.999Z</time></trkpt><trkpt lat="36.082696874385384" lon="10.401834536020624"><ele>6.0</ele><time>2026-04-04T18:19:10.999Z</time></trkpt><trkpt lat="36.08246290447134" lon="10.401871443524808"><ele>6.5</ele><time>2026-04-04T18:19:11.999Z</time></trkpt><trkpt lat="36.0822298041058" lon="10.401910741455133"><ele>7.0</ele><time>2026-04-04T18:19:12.999Z</time></trkpt><trkpt lat="36.0819912597523" lon="10.401954139526756"><ele>7.0</ele><time>2026-04-04T18:19:13.999Z</time></trkpt><trkpt lat="36.08175100321919" lon="10.40200339201528"><ele>7.0</ele><time>2026-04-04T18:19:14.999Z</time></trkpt><trkpt lat="36.081509532114765" lon="10.402054581697177"><ele>7.5</ele><time>2026-04-04T18:19:15.999Z</time></trkpt><trkpt lat="36.08126800589821" lon="10.402108000767269"><ele>8.0</ele><time>2026-04-04T18:19:16.999Z</time></trkpt><trkpt lat="36.08102498085984" lon="10.402161181921818"><ele>7.5</ele><time>2026-04-04T18:19:17.999Z</time></trkpt><trkpt lat="36.08078291464543" lon="10.40221571419821"><ele>7.0</ele><time>2026-04-04T18:19:18.999Z</time></trkpt><trkpt lat="36.08054076723852" lon="10.402273572062498"><ele>7.0</ele><time>2026-04-04T18:19:19.999Z</time></trkpt><trkpt lat="36.080294996974295" lon="10.40233629152617"><ele>7.0</ele><time>2026-04-04T18:19:20.999Z</time></trkpt><trkpt lat="36.08004575241668" lon="10.402404376925553"><ele>7.0</ele><time>2026-04-04T18:19:21.999Z</time></trkpt><trkpt lat="36.07979406550192" lon="10.402473577152255"><ele>7.0</ele><time>2026-04-04T18:19:22.999Z</time></trkpt><trkpt lat="36.079537773031625" lon="10.402543068788376"><ele>7.0</ele><time>2026-04-04T18:19:23.999Z</time></trkpt><trkpt lat="36.07927749542016" lon="10.402615860530023"><ele>7.0</ele><time>2026-04-04T18:19:24.999Z</time></trkpt><trkpt lat="36.079013181551616" lon="10.402688611656055"><ele>7.0</ele><time>2026-04-04T18:19:25.999Z</time></trkpt><trkpt lat="36.078747021403885" lon="10.402762398667429"><ele>7.0</ele><time>2026-04-04T18:19:26.999Z</time></trkpt><trkpt lat="36.07847187355721" lon="10.402843185143302"><ele>7.5</ele><time>2026-04-04T18:19:27.999Z</time></trkpt><trkpt lat="36.078176859171485" lon="10.402936711851112"><ele>8.0</ele><time>2026-04-04T18:19:28.999Z</time></trkpt><trkpt lat="36.07786361883265" lon="10.403043710421516"><ele>8.0</ele><time>2026-04-04T18:19:29.999Z</time></trkpt><trkpt lat="36.07754051181932" lon="10.40315808769036"><ele>8.0</ele><time>2026-04-04T18:19:30.999Z</time></trkpt><trkpt lat="36.07720677273089" lon="10.403274401297"><ele>6.5</ele><time>2026-04-04T18:19:31.999Z</time></trkpt><trkpt lat="36.076849249413804" lon="10.403394456083404"><ele>5.0</ele><time>2026-04-04T18:19:32.999Z</time></trkpt><trkpt lat="36.076481777365096" lon="10.403514195697838"><ele>5.0</ele><time>2026-04-04T18:19:33.999Z</time></trkpt><trkpt lat="36.07612178186976" lon="10.403624744429367"><ele>5.0</ele><time>2026-04-04T18:19:34.999Z</time></trkpt><trkpt lat="36.07579524565446" lon="10.403729187605823"><ele>5.0</ele><time>2026-04-04T18:19:35.999Z</time></trkpt><trkpt lat="36.07548635420462" lon="10.40382623370863"><ele>5.0</ele><time>2026-04-04T18:19:36.999Z</time></trkpt><trkpt lat="36.07518467629273" lon="10.403917718746277"><ele>5.5</ele><time>2026-04-04T18:19:37.999Z</time></trkpt><trkpt lat="36.07488346897482" lon="10.404009115044527"><ele>6.0</ele><time>2026-04-04T18:19:38.999Z</time></trkpt><trkpt lat="36.074590362224185" lon="10.404096643372268"><ele>6.0</ele><time>2026-04-04T18:19:39.999Z</time></trkpt><trkpt lat="36.07429934027734" lon="10.404188459938608"><ele>6.0</ele><time>2026-04-04T18:19:40.999Z</time></trkpt><trkpt lat="36.07401538491096" lon="10.404278600673909"><ele>5.5</ele><time>2026-04-04T18:19:41.999Z</time></trkpt><trkpt lat="36.07373415658868" lon="10.40436712797333"><ele>5.0</ele><time>2026-04-04T18:19:42.999Z</time></trkpt><trkpt lat="36.073455336757526" lon="10.404454490096299"><ele>5.5</ele><time>2026-04-04T18:19:43.999Z</time></trkpt><trkpt lat="36.07317594158519" lon="10.404542085731993"><ele>6.0</ele><time>2026-04-04T18:19:44.999Z</time></trkpt><trkpt lat="36.072892604971955" lon="10.404629782335892"><ele>5.5</ele><time>2026-04-04T18:19:45.999Z</time></trkpt><trkpt lat="36.07261606365918" lon="10.404715791606408"><ele>5.0</ele><time>2026-04-04T18:19:46.999Z</time></trkpt><trkpt lat="36.07235413489348" lon="10.404797458084458"><ele>5.0</ele><time>2026-04-04T18:19:47.999Z</time></trkpt><trkpt lat="36.072102718411344" lon="10.40487588357223"><ele>5.0</ele><time>2026-04-04T18:19:48.999Z</time></trkpt><trkpt lat="36.071849618208304" lon="10.404955298704998"><ele>4.5</ele><time>2026-04-04T18:19:49.999Z</time></trkpt><trkpt lat="36.071595058417834" lon="10.405034473989137"><ele>4.0</ele><time>2026-04-04T18:19:50.999Z</time></trkpt><trkpt lat="36.07134096187112" lon="10.40511123328445"><ele>4.0</ele><time>2026-04-04T18:19:51.999Z</time></trkpt><trkpt lat="36.07109169982057" lon="10.405185580944872"><ele>4.0</ele><time>2026-04-04T18:19:52.999Z</time></trkpt><trkpt lat="36.07085601535259" lon="10.405255473713556"><ele>4.0</ele><time>2026-04-04T18:19:53.999Z</time></trkpt><trkpt lat="36.07062863353468" lon="10.405319538199645"><ele>4.0</ele><time>2026-04-04T18:19:54.999Z</time></trkpt><trkpt lat="36.0703961009161" lon="10.40538325022573"><ele>4.0</ele><time>2026-04-04T18:19:56Z</time></trkpt><trkpt lat="36.07016039560038" lon="10.40544806894763"><ele>4.0</ele><time>2026-04-04T18:19:57Z</time></trkpt><trkpt lat="36.06992285765605" lon="10.405517363510928"><ele>3.0</ele><time>2026-04-04T18:19:58Z</time></trkpt><trkpt lat="36.06968079737662" lon="10.405593002865274"><ele>2.0</ele><time>2026-04-04T18:19:59Z</time></trkpt><trkpt lat="36.06944036240844" lon="10.40567118428373"><ele>2.0</ele><time>2026-04-04T18:20:00Z</time></trkpt><trkpt lat="36.069192081264354" lon="10.405753022997246"><ele>2.0</ele><time>2026-04-04T18:20:01Z</time></trkpt><trkpt lat="36.068942444163405" lon="10.40583512180501"><ele>4.0</ele><time>2026-04-04T18:20:02Z</time></trkpt><trkpt lat="36.06869172729373" lon="10.405911592376953"><ele>6.0</ele><time>2026-04-04T18:20:03Z</time></trkpt><trkpt lat="36.06844113240618" lon="10.405985504083619"><ele>5.5</ele><time>2026-04-04T18:20:04Z</time></trkpt><trkpt lat="36.06818573710009" lon="10.406063610790895"><ele>5.0</ele><time>2026-04-04T18:20:05Z</time></trkpt><trkpt lat="36.06793353812183" lon="10.40614433409012"><ele>5.0</ele><time>2026-04-04T18:20:06Z</time></trkpt><trkpt lat="36.067679998942815" lon="10.40622803062816"><ele>5.0</ele><time>2026-04-04T18:20:07Z</time></trkpt><trkpt lat="36.067428068867514" lon="10.40631099078805"><ele>5.0</ele><time>2026-04-04T18:20:08Z</time></trkpt><trkpt lat="36.06717607821774" lon="10.406393327478703"><ele>5.0</ele><time>2026-04-04T18:20:09Z</time></trkpt><trkpt lat="36.06692840991838" lon="10.406477245408503"><ele>5.0</ele><time>2026-04-04T18:20:10Z</time></trkpt><trkpt lat="36.06667859162969" lon="10.406563373494372"><ele>5.0</ele><time>2026-04-04T18:20:11Z</time></trkpt><trkpt lat="36.066424493805044" lon="10.406650640596038"><ele>6.0</ele><time>2026-04-04T18:20:12Z</time></trkpt><trkpt lat="36.06616719272507" lon="10.406737768241392"><ele>7.0</ele><time>2026-04-04T18:20:13Z</time></trkpt><trkpt lat="36.06590321685858" lon="10.406824415254508"><ele>6.5</ele><time>2026-04-04T18:20:14Z</time></trkpt><trkpt lat="36.06562296916518" lon="10.406905984479746"><ele>6.0</ele><time>2026-04-04T18:20:15Z</time></trkpt><trkpt lat="36.06533422925422" lon="10.406985368954155"><ele>6.0</ele><time>2026-04-04T18:20:16Z</time></trkpt><trkpt lat="36.06505447849775" lon="10.407062512032512"><ele>6.0</ele><time>2026-04-04T18:20:17Z</time></trkpt><trkpt lat="36.06478289947706" lon="10.407143971765459"><ele>5.0</ele><time>2026-04-04T18:20:18Z</time></trkpt><trkpt lat="36.06451574592038" lon="10.407227923626772"><ele>4.0</ele><time>2026-04-04T18:20:19Z</time></trkpt><trkpt lat="36.064253116506634" lon="10.407310344422532"><ele>4.5</ele><time>2026-04-04T18:20:20Z</time></trkpt><trkpt lat="36.063992856962294" lon="10.407392310245845"><ele>5.0</ele><time>2026-04-04T18:20:21Z</time></trkpt><trkpt lat="36.06373533079611" lon="10.407472661496373"><ele>5.0</ele><time>2026-04-04T18:20:22Z</time></trkpt><trkpt lat="36.063473162567995" lon="10.407556523630802"><ele>5.0</ele><time>2026-04-04T18:20:23Z</time></trkpt><trkpt lat="36.06320686256716" lon="10.407643994872856"><ele>5.5</ele><time>2026-04-04T18:20:24Z</time></trkpt><trkpt lat="36.06294091293669" lon="10.407730900993101"><ele>6.0</ele><time>2026-04-04T18:20:25Z</time></trkpt><trkpt lat="36.062676635504985" lon="10.407815478537664"><ele>6.0</ele><time>2026-04-04T18:20:26Z</time></trkpt><trkpt lat="36.062413544917845" lon="10.407895640700456"><ele>6.0</ele><time>2026-04-04T18:20:27Z</time></trkpt><trkpt lat="36.06215150917536" lon="10.407971438303278"><ele>5.0</ele><time>2026-04-04T18:20:28Z</time></trkpt><trkpt lat="36.06189321075641" lon="10.408041392419728"><ele>4.0</ele><time>2026-04-04T18:20:29Z</time></trkpt><trkpt lat="36.061639616094524" lon="10.408110753433212"><ele>4.5</ele><time>2026-04-04T18:20:30Z</time></trkpt><trkpt lat="36.06139167539378" lon="10.408180130418664"><ele>5.0</ele><time>2026-04-04T18:20:31Z</time></trkpt><trkpt lat="36.061147795376016" lon="10.408252701646632"><ele>5.0</ele><time>2026-04-04T18:20:32Z</time></trkpt><trkpt lat="36.060905971161006" lon="10.408328189355975"><ele>5.0</ele><time>2026-04-04T18:20:33Z</time></trkpt><trkpt lat="36.06066385560681" lon="10.408407166171646"><ele>5.5</ele><time>2026-04-04T18:20:34Z</time></trkpt><trkpt lat="36.06042302885331" lon="10.408488991661315"><ele>6.0</ele><time>2026-04-04T18:20:35Z</time></trkpt><trkpt lat="36.060180089635686" lon="10.408574254309302"><ele>5.5</ele><time>2026-04-04T18:20:36Z</time></trkpt><trkpt lat="36.05993358691489" lon="10.408663229916169"><ele>5.0</ele><time>2026-04-04T18:20:37Z</time></trkpt><trkpt lat="36.059684015549855" lon="10.408753158306647"><ele>6.0</ele><time>2026-04-04T18:20:38Z</time></trkpt><trkpt lat="36.059428508792934" lon="10.40884428900072"><ele>7.0</ele><time>2026-04-04T18:20:39Z</time></trkpt><trkpt lat="36.05917565671038" lon="10.408933802764746"><ele>7.0</ele><time>2026-04-04T18:20:40Z</time></trkpt><trkpt lat="36.058919697742986" lon="10.409025592568181"><ele>7.0</ele><time>2026-04-04T18:20:41Z</time></trkpt><trkpt lat="36.05866637137158" lon="10.409116251036952"><ele>7.0</ele><time>2026-04-04T18:20:42Z</time></trkpt><trkpt lat="36.05841298035681" lon="10.40920984880147"><ele>7.0</ele><time>2026-04-04T18:20:43Z</time></trkpt><trkpt lat="36.0581622865534" lon="10.40930778667281"><ele>7.5</ele><time>2026-04-04T18:20:44Z</time></trkpt><trkpt lat="36.05791412756098" lon="10.409410264243842"><ele>8.0</ele><time>2026-04-04T18:20:45Z</time></trkpt><trkpt lat="36.05767339066846" lon="10.409511854837906"><ele>8.0</ele><time>2026-04-04T18:20:46Z</time></trkpt><trkpt lat="36.05744269911226" lon="10.409608616810715"><ele>8.0</ele><time>2026-04-04T18:20:47Z</time></trkpt><trkpt lat="36.05721066607059" lon="10.409702332278302"><ele>8.0</ele><time>2026-04-04T18:20:48Z</time></trkpt><trkpt lat="36.056975033329095" lon="10.409799269317215"><ele>8.0</ele><time>2026-04-04T18:20:49Z</time></trkpt><trkpt lat="36.05673631231574" lon="10.409899017718411"><ele>8.5</ele><time>2026-04-04T18:20:50Z</time></trkpt><trkpt lat="36.05649705784407" lon="10.410003276134097"><ele>9.0</ele><time>2026-04-04T18:20:51Z</time></trkpt><trkpt lat="36.056255326309376" lon="10.410114755084713"><ele>9.0</ele><time>2026-04-04T18:20:52Z</time></trkpt><trkpt lat="36.05601147076753" lon="10.410229872370333"><ele>9.0</ele><time>2026-04-04T18:20:53Z</time></trkpt><trkpt lat="36.05576517609194" lon="10.410340870465326"><ele>9.0</ele><time>2026-04-04T18:20:54Z</time></trkpt><trkpt lat="36.05551892094805" lon="10.410451271035276"><ele>9.0</ele><time>2026-04-04T18:20:55Z</time></trkpt><trkpt lat="36.05528034829589" lon="10.410563073273263"><ele>9.0</ele><time>2026-04-04T18:20:56Z</time></trkpt><trkpt lat="36.055051231506226" lon="10.410676200437122"><ele>9.0</ele><time>2026-04-04T18:20:57Z</time></trkpt><trkpt lat="36.05481741685127" lon="10.41078976572603"><ele>9.0</ele><time>2026-04-04T18:20:58Z</time></trkpt><trkpt lat="36.05457926985526" lon="10.410904058413939"><ele>9.0</ele><time>2026-04-04T18:20:59Z</time></trkpt><trkpt lat="36.05434007222098" lon="10.411023065093579"><ele>9.5</ele><time>2026-04-04T18:20:59.999Z</time></trkpt><trkpt lat="36.054102751165" lon="10.411145424838372"><ele>10.0</ele><time>2026-04-04T18:21:00.999Z</time></trkpt><trkpt lat="36.05386854168175" lon="10.411270300713827"><ele>9.5</ele><time>2026-04-04T18:21:01.999Z</time></trkpt><trkpt lat="36.05363604244683" lon="10.411394336091021"><ele>9.0</ele><time>2026-04-04T18:21:02.999Z</time></trkpt><trkpt lat="36.05341088289557" lon="10.411510841068946"><ele>8.5</ele><time>2026-04-04T18:21:03.999Z</time></trkpt><trkpt lat="36.0531976924651" lon="10.411621819739771"><ele>8.0</ele><time>2026-04-04T18:21:04.999Z</time></trkpt><trkpt lat="36.05298940777482" lon="10.411729866351438"><ele>8.0</ele><time>2026-04-04T18:21:05.999Z</time></trkpt><trkpt lat="36.05278954983877" lon="10.41183226533223"><ele>8.0</ele><time>2026-04-04T18:21:06.999Z</time></trkpt><trkpt lat="36.0525865271244" lon="10.411936331053987"><ele>8.0</ele><time>2026-04-04T18:21:07.999Z</time></trkpt><trkpt lat="36.05238651625891" lon="10.41204744325984"><ele>7.333333333333333</ele><time>2026-04-04T18:21:08.999Z</time></trkpt><trkpt lat="36.05218319704028" lon="10.412164512432609"><ele>6.666666666666666</ele><time>2026-04-04T18:21:09.999Z</time></trkpt><trkpt lat="36.05197833924357" lon="10.412279179324283"><ele>6.0</ele><time>2026-04-04T18:21:10.999Z</time></trkpt><trkpt lat="36.05177379575565" lon="10.412396008618282"><ele>6.5</ele><time>2026-04-04T18:21:11.999Z</time></trkpt><trkpt lat="36.0515699038187" lon="10.412515749470996"><ele>7.0</ele><time>2026-04-04T18:21:12.999Z</time></trkpt><trkpt lat="36.051365414202344" lon="10.412631403606051"><ele>7.0</ele><time>2026-04-04T18:21:13.999Z</time></trkpt><trkpt lat="36.0511633842195" lon="10.412743684569476"><ele>7.0</ele><time>2026-04-04T18:21:14.999Z</time></trkpt><trkpt lat="36.050954544395665" lon="10.412859606359753"><ele>6.5</ele><time>2026-04-04T18:21:15.999Z</time></trkpt><trkpt lat="36.050740910714865" lon="10.41297911554145"><ele>6.0</ele><time>2026-04-04T18:21:16.999Z</time></trkpt><trkpt lat="36.05052925742613" lon="10.41309811227238"><ele>6.0</ele><time>2026-04-04T18:21:17.999Z</time></trkpt><trkpt lat="36.050313333516236" lon="10.413220486328436"><ele>6.0</ele><time>2026-04-04T18:21:18.999Z</time></trkpt><trkpt lat="36.05009391339211" lon="10.41334401485726"><ele>5.5</ele><time>2026-04-04T18:21:19.999Z</time></trkpt><trkpt lat="36.04987145932011" lon="10.41347055469032"><ele>5.0</ele><time>2026-04-04T18:21:20.999Z</time></trkpt><trkpt lat="36.049644965616224" lon="10.413598832190008"><ele>5.0</ele><time>2026-04-04T18:21:21.999Z</time></trkpt><trkpt lat="36.049424716951165" lon="10.41372211075324"><ele>5.0</ele><time>2026-04-04T18:21:22.999Z</time></trkpt><trkpt lat="36.04919963469399" lon="10.413848289083777"><ele>5.5</ele><time>2026-04-04T18:21:23.999Z</time></trkpt><trkpt lat="36.04897596985507" lon="10.413974850159526"><ele>6.0</ele><time>2026-04-04T18:21:24.999Z</time></trkpt><trkpt lat="36.04875421760329" lon="10.414101114616477"><ele>6.0</ele><time>2026-04-04T18:21:25.999Z</time></trkpt><trkpt lat="36.04852180908021" lon="10.414232864628524"><ele>6.0</ele><time>2026-04-04T18:21:26.999Z</time></trkpt><trkpt lat="36.04829404660415" lon="10.414361030452188"><ele>6.0</ele><time>2026-04-04T18:21:27.999Z</time></trkpt><trkpt lat="36.04806918082026" lon="10.414487071083723"><ele>6.0</ele><time>2026-04-04T18:21:28.999Z</time></trkpt><trkpt lat="36.04784438915625" lon="10.414611516705103"><ele>6.0</ele><time>2026-04-04T18:21:29.999Z</time></trkpt><trkpt lat="36.04761775287926" lon="10.414738540786391"><ele>6.0</ele><time>2026-04-04T18:21:30.999Z</time></trkpt><trkpt lat="36.04739114552419" lon="10.414865506897844"><ele>7.5</ele><time>2026-04-04T18:21:31.999Z</time></trkpt><trkpt lat="36.04716990930233" lon="10.414993228543386"><ele>9.0</ele><time>2026-04-04T18:21:32.999Z</time></trkpt><trkpt lat="36.046957705675055" lon="10.415114566683338"><ele>9.0</ele><time>2026-04-04T18:21:33.999Z</time></trkpt><trkpt lat="36.04675147049058" lon="10.415228848249056"><ele>9.0</ele><time>2026-04-04T18:21:34.999Z</time></trkpt><trkpt lat="36.04654300119561" lon="10.415346653649966"><ele>8.0</ele><time>2026-04-04T18:21:35.999Z</time></trkpt><trkpt lat="36.04633561615945" lon="10.41546282457328"><ele>7.0</ele><time>2026-04-04T18:21:36.999Z</time></trkpt><trkpt lat="36.046135781111275" lon="10.41557553415871"><ele>6.0</ele><time>2026-04-04T18:21:37.999Z</time></trkpt><trkpt lat="36.045947876763115" lon="10.415684579686468"><ele>6.0</ele><time>2026-04-04T18:21:38.999Z</time></trkpt><trkpt lat="36.04576649147061" lon="10.415788513005767"><ele>6.0</ele><time>2026-04-04T18:21:39.999Z</time></trkpt><trkpt lat="36.04558919502207" lon="10.415885353623391"><ele>6.0</ele><time>2026-04-04T18:21:40.999Z</time></trkpt><trkpt lat="36.04541754170106" lon="10.415978764879641"><ele>6.0</ele><time>2026-04-04T18:21:41.999Z</time></trkpt><trkpt lat="36.04524765803967" lon="10.416074535992907"><ele>6.0</ele><time>2026-04-04T18:21:42.999Z</time></trkpt><trkpt lat="36.04508302752697" lon="10.41617042773021"><ele>6.0</ele><time>2026-04-04T18:21:43.999Z</time></trkpt><trkpt lat="36.044913711374555" lon="10.416267136600105"><ele>6.0</ele><time>2026-04-04T18:21:44.999Z</time></trkpt><trkpt lat="36.044734782294924" lon="10.416367356870575"><ele>6.0</ele><time>2026-04-04T18:21:45.999Z</time></trkpt><trkpt lat="36.0445471233336" lon="10.416473042692148"><ele>6.0</ele><time>2026-04-04T18:21:46.999Z</time></trkpt><trkpt lat="36.04433890004906" lon="10.416595307533756"><ele>6.0</ele><time>2026-04-04T18:21:47.999Z</time></trkpt><trkpt lat="36.04412352488755" lon="10.416723490893531"><ele>6.0</ele><time>2026-04-04T18:21:48.999Z</time></trkpt><trkpt lat="36.04390768205339" lon="10.416847965992627"><ele>6.0</ele><time>2026-04-04T18:21:49.999Z</time></trkpt><trkpt lat="36.04369765050542" lon="10.416968855629403"><ele>6.0</ele><time>2026-04-04T18:21:50.999Z</time></trkpt><trkpt lat="36.04349557279877" lon="10.417084850907784"><ele>6.0</ele><time>2026-04-04T18:21:51.999Z</time></trkpt><trkpt lat="36.04328849738277" lon="10.417205679910497"><ele>6.0</ele><time>2026-04-04T18:21:52.999Z</time></trkpt><trkpt lat="36.04307759817026" lon="10.417330458255877"><ele>6.0</ele><time>2026-04-04T18:21:53.999Z</time></trkpt><trkpt lat="36.042859831991585" lon="10.417460593854432"><ele>6.0</ele><time>2026-04-04T18:21:54.999Z</time></trkpt><trkpt lat="36.042635975476365" lon="10.417588578573616"><ele>5.5</ele><time>2026-04-04T18:21:55.999Z</time></trkpt><trkpt lat="36.04240583302684" lon="10.417717904294586"><ele>5.0</ele><time>2026-04-04T18:21:56.999Z</time></trkpt><trkpt lat="36.04217116059327" lon="10.417850641535265"><ele>5.5</ele><time>2026-04-04T18:21:57.999Z</time></trkpt><trkpt lat="36.04192598467954" lon="10.41798924785898"><ele>6.0</ele><time>2026-04-04T18:21:58.999Z</time></trkpt><trkpt lat="36.04165692734302" lon="10.41814009769988"><ele>6.0</ele><time>2026-04-04T18:21:59.999Z</time></trkpt><trkpt lat="36.04137174290463" lon="10.418301211483183"><ele>6.0</ele><time>2026-04-04T18:22:00.999Z</time></trkpt><trkpt lat="36.041073035607134" lon="10.41846631283147"><ele>5.5</ele><time>2026-04-04T18:22:02Z</time></trkpt><trkpt lat="36.04075300743937" lon="10.418643301462321"><ele>5.0</ele><time>2026-04-04T18:22:03Z</time></trkpt><trkpt lat="36.04042433365859" lon="10.418819453279683"><ele>4.5</ele><time>2026-04-04T18:22:04Z</time></trkpt><trkpt lat="36.04009325340943" lon="10.41899668666895"><ele>4.0</ele><time>2026-04-04T18:22:05Z</time></trkpt><trkpt lat="36.03978617216797" lon="10.41916332387755"><ele>4.0</ele><time>2026-04-04T18:22:06Z</time></trkpt><trkpt lat="36.03949659118456" lon="10.419320912846892"><ele>4.0</ele><time>2026-04-04T18:22:07Z</time></trkpt><trkpt lat="36.03921369564945" lon="10.419477307344021"><ele>3.5</ele><time>2026-04-04T18:22:08Z</time></trkpt><trkpt lat="36.038930953113415" lon="10.419637560802467"><ele>3.0</ele><time>2026-04-04T18:22:09Z</time></trkpt><trkpt lat="36.03866032882662" lon="10.419789945369262"><ele>3.0</ele><time>2026-04-04T18:22:10Z</time></trkpt><trkpt lat="36.03840201121907" lon="10.41993675296778"><ele>3.0</ele><time>2026-04-04T18:22:11Z</time></trkpt><trkpt lat="36.038143874195754" lon="10.42008273281631"><ele>3.0</ele><time>2026-04-04T18:22:12Z</time></trkpt><trkpt lat="36.03787822925364" lon="10.420231809126708"><ele>3.0</ele><time>2026-04-04T18:22:13Z</time></trkpt><trkpt lat="36.03761057518917" lon="10.420382696901441"><ele>3.0</ele><time>2026-04-04T18:22:14Z</time></trkpt><trkpt lat="36.03734335824682" lon="10.42053374659584"><ele>3.0</ele><time>2026-04-04T18:22:15Z</time></trkpt><trkpt lat="36.03708086437226" lon="10.42068090847032"><ele>3.0</ele><time>2026-04-04T18:22:16Z</time></trkpt><trkpt lat="36.03681695585681" lon="10.420831217591157"><ele>3.0</ele><time>2026-04-04T18:22:17Z</time></trkpt><trkpt lat="36.036538137189645" lon="10.420990214800511"><ele>3.0</ele><time>2026-04-04T18:22:18Z</time></trkpt><trkpt lat="36.03626819848664" lon="10.421140285015944"><ele>3.0</ele><time>2026-04-04T18:22:19Z</time></trkpt><trkpt lat="36.03600982908918" lon="10.421283621529334"><ele>3.0</ele><time>2026-04-04T18:22:20Z</time></trkpt><trkpt lat="36.035750387025715" lon="10.421428563920262"><ele>3.0</ele><time>2026-04-04T18:22:21Z</time></trkpt><trkpt lat="36.035489653538676" lon="10.42157618895712"><ele>3.0</ele><time>2026-04-04T18:22:22Z</time></trkpt><trkpt lat="36.03522899242561" lon="10.4217228988975"><ele>3.0</ele><time>2026-04-04T18:22:23Z</time></trkpt><trkpt lat="36.03496728349293" lon="10.421869613806225"><ele>3.0</ele><time>2026-04-04T18:22:24Z</time></trkpt><trkpt lat="36.03470666259862" lon="10.422016195400747"><ele>3.0</ele><time>2026-04-04T18:22:25Z</time></trkpt><trkpt lat="36.03444579386629" lon="10.422164382896762"><ele>2.5</ele><time>2026-04-04T18:22:26Z</time></trkpt><trkpt lat="36.03419112787445" lon="10.42231340715281"><ele>2.0</ele><time>2026-04-04T18:22:27Z</time></trkpt><trkpt lat="36.0339393767516" lon="10.422460580671933"><ele>2.0</ele><time>2026-04-04T18:22:28Z</time></trkpt><trkpt lat="36.03368769479474" lon="10.422602504905727"><ele>2.0</ele><time>2026-04-04T18:22:29Z</time></trkpt><trkpt lat="36.03343753965066" lon="10.422738981534208"><ele>2.5</ele><time>2026-04-04T18:22:30Z</time></trkpt><trkpt lat="36.03318682909399" lon="10.42287095977765"><ele>3.0</ele><time>2026-04-04T18:22:31Z</time></trkpt><trkpt lat="36.03293666187743" lon="10.423000244217366"><ele>3.0</ele><time>2026-04-04T18:22:32Z</time></trkpt><trkpt lat="36.03268984980435" lon="10.423124968253783"><ele>3.0</ele><time>2026-04-04T18:22:33Z</time></trkpt><trkpt lat="36.03244570847281" lon="10.423250866951767"><ele>3.5</ele><time>2026-04-04T18:22:34Z</time></trkpt><trkpt lat="36.032204047817935" lon="10.423374734218482"><ele>4.0</ele><time>2026-04-04T18:22:35Z</time></trkpt><trkpt lat="36.03196388279634" lon="10.423495231062207"><ele>4.0</ele><time>2026-04-04T18:22:36Z</time></trkpt><trkpt lat="36.0317192685172" lon="10.423613870460455"><ele>4.0</ele><time>2026-04-04T18:22:37Z</time></trkpt><trkpt lat="36.03146874940586" lon="10.423731101524316"><ele>5.0</ele><time>2026-04-04T18:22:38Z</time></trkpt><trkpt lat="36.03121658479335" lon="10.423848750124643"><ele>6.0</ele><time>2026-04-04T18:22:39Z</time></trkpt><trkpt lat="36.030965189146315" lon="10.42396411131716"><ele>6.0</ele><time>2026-04-04T18:22:40Z</time></trkpt><trkpt lat="36.030712194236635" lon="10.42407668291375"><ele>6.0</ele><time>2026-04-04T18:22:41Z</time></trkpt><trkpt lat="36.03045900826591" lon="10.424186699037842"><ele>6.0</ele><time>2026-04-04T18:22:42Z</time></trkpt><trkpt lat="36.03020725007625" lon="10.424293715123474"><ele>6.0</ele><time>2026-04-04T18:22:43Z</time></trkpt><trkpt lat="36.02995717733096" lon="10.424398538829335"><ele>6.0</ele><time>2026-04-04T18:22:44Z</time></trkpt><trkpt lat="36.0297047827147" lon="10.42450018364082"><ele>6.0</ele><time>2026-04-04T18:22:45Z</time></trkpt><trkpt lat="36.029457910786704" lon="10.424599378272283"><ele>5.5</ele><time>2026-04-04T18:22:46Z</time></trkpt><trkpt lat="36.029223877546166" lon="10.424691828503217"><ele>5.0</ele><time>2026-04-04T18:22:47Z</time></trkpt><trkpt lat="36.028995958850565" lon="10.424783582092237"><ele>4.5</ele><time>2026-04-04T18:22:48Z</time></trkpt><trkpt lat="36.02877178813308" lon="10.424869163949046"><ele>4.0</ele><time>2026-04-04T18:22:49Z</time></trkpt><trkpt lat="36.02854342376333" lon="10.424950730966456"><ele>4.0</ele><time>2026-04-04T18:22:50Z</time></trkpt><trkpt lat="36.02831790607174" lon="10.42503058728585"><ele>4.0</ele><time>2026-04-04T18:22:51Z</time></trkpt><trkpt lat="36.02809091857769" lon="10.425107769002626"><ele>4.0</ele><time>2026-04-04T18:22:52Z</time></trkpt><trkpt lat="36.027853544694125" lon="10.425190829229692"><ele>4.0</ele><time>2026-04-04T18:22:53Z</time></trkpt><trkpt lat="36.02761476515944" lon="10.425269822014945"><ele>4.0</ele><time>2026-04-04T18:22:54Z</time></trkpt><trkpt lat="36.027371797114064" lon="10.42534534040951"><ele>4.0</ele><time>2026-04-04T18:22:55Z</time></trkpt><trkpt lat="36.02712588782357" lon="10.425416338450308"><ele>4.0</ele><time>2026-04-04T18:22:56Z</time></trkpt><trkpt lat="36.026874906230134" lon="10.425483007790302"><ele>4.0</ele><time>2026-04-04T18:22:57Z</time></trkpt><trkpt lat="36.02662184041868" lon="10.425549847107844"><ele>4.0</ele><time>2026-04-04T18:22:58Z</time></trkpt><trkpt lat="36.0263697040525" lon="10.425618328742464"><ele>4.0</ele><time>2026-04-04T18:22:59Z</time></trkpt><trkpt lat="36.02611365354062" lon="10.425686042988655"><ele>4.0</ele><time>2026-04-04T18:23:00Z</time></trkpt><trkpt lat="36.025855325274364" lon="10.425750479530963"><ele>4.0</ele><time>2026-04-04T18:23:01Z</time></trkpt><trkpt lat="36.02559479170804" lon="10.425816156120428"><ele>4.5</ele><time>2026-04-04T18:23:02Z</time></trkpt><trkpt lat="36.02533320036798" lon="10.425882392857144"><ele>5.0</ele><time>2026-04-04T18:23:03Z</time></trkpt><trkpt lat="36.02507028500196" lon="10.425948516834795"><ele>5.0</ele><time>2026-04-04T18:23:04Z</time></trkpt><trkpt lat="36.024807438817085" lon="10.42601287992391"><ele>5.0</ele><time>2026-04-04T18:23:05Z</time></trkpt><trkpt lat="36.02454714000619" lon="10.426074163591288"><ele>5.0</ele><time>2026-04-04T18:23:06Z</time></trkpt><trkpt lat="36.02428933329721" lon="10.426131601448127"><ele>5.0</ele><time>2026-04-04T18:23:07Z</time></trkpt><trkpt lat="36.02403373494981" lon="10.426186386820794"><ele>4.5</ele><time>2026-04-04T18:23:08Z</time></trkpt><trkpt lat="36.023781992416744" lon="10.426239441979614"><ele>4.0</ele><time>2026-04-04T18:23:09Z</time></trkpt><trkpt lat="36.023529570758534" lon="10.426294878773978"><ele>5.0</ele><time>2026-04-04T18:23:10Z</time></trkpt><trkpt lat="36.02327217062948" lon="10.426353708914775"><ele>6.0</ele><time>2026-04-04T18:23:11Z</time></trkpt><trkpt lat="36.02300718896899" lon="10.426417425690337"><ele>6.0</ele><time>2026-04-04T18:23:12Z</time></trkpt><trkpt lat="36.02273737829762" lon="10.426484330159877"><ele>6.0</ele><time>2026-04-04T18:23:13Z</time></trkpt><trkpt lat="36.022463861997686" lon="10.426546709904336"><ele>4.5</ele><time>2026-04-04T18:23:13.999Z</time></trkpt><trkpt lat="36.022193878211446" lon="10.426605908908064"><ele>3.0</ele><time>2026-04-04T18:23:14.999Z</time></trkpt><trkpt lat="36.021930152761136" lon="10.426656573632988"><ele>3.0</ele><time>2026-04-04T18:23:15.999Z</time></trkpt><trkpt lat="36.02167391742532" lon="10.42670322782152"><ele>3.0</ele><time>2026-04-04T18:23:16.999Z</time></trkpt><trkpt lat="36.02142351561596" lon="10.42674795142683"><ele>3.0</ele><time>2026-04-04T18:23:17.999Z</time></trkpt><trkpt lat="36.02117454373533" lon="10.426791232495416"><ele>3.0</ele><time>2026-04-04T18:23:18.999Z</time></trkpt><trkpt lat="36.02093314119495" lon="10.426839279411656"><ele>2.5</ele><time>2026-04-04T18:23:19.999Z</time></trkpt><trkpt lat="36.020702752876694" lon="10.426886535690231"><ele>2.0</ele><time>2026-04-04T18:23:20.999Z</time></trkpt><trkpt lat="36.020469573196756" lon="10.426934460650193"><ele>2.0</ele><time>2026-04-04T18:23:21.999Z</time></trkpt><trkpt lat="36.02023355072014" lon="10.426985489255593"><ele>2.0</ele><time>2026-04-04T18:23:22.999Z</time></trkpt><trkpt lat="36.01999851583821" lon="10.427037576207262"><ele>2.5</ele><time>2026-04-04T18:23:23.999Z</time></trkpt><trkpt lat="36.01976715402181" lon="10.427092227263094"><ele>3.0</ele><time>2026-04-04T18:23:24.999Z</time></trkpt><trkpt lat="36.01954101752028" lon="10.427148898271858"><ele>2.0</ele><time>2026-04-04T18:23:25.999Z</time></trkpt><trkpt lat="36.0193155176069" lon="10.427203889870972"><ele>1.0</ele><time>2026-04-04T18:23:26.999Z</time></trkpt><trkpt lat="36.01909286197965" lon="10.427256704736756"><ele>1.0</ele><time>2026-04-04T18:23:27.999Z</time></trkpt><trkpt lat="36.01886979676675" lon="10.427312759792917"><ele>1.0</ele><time>2026-04-04T18:23:28.999Z</time></trkpt><trkpt lat="36.01864482397603" lon="10.427371579867945"><ele>1.0</ele><time>2026-04-04T18:23:29.999Z</time></trkpt><trkpt lat="36.01841436069552" lon="10.427430931609575"><ele>1.0</ele><time>2026-04-04T18:23:30.999Z</time></trkpt><trkpt lat="36.0181819978931" lon="10.427491036393064"><ele>2.0</ele><time>2026-04-04T18:23:31.999Z</time></trkpt><trkpt lat="36.01794118867262" lon="10.427558435087724"><ele>3.0</ele><time>2026-04-04T18:23:32.999Z</time></trkpt><trkpt lat="36.01770080826959" lon="10.42763215716396"><ele>3.0</ele><time>2026-04-04T18:23:33.999Z</time></trkpt><trkpt lat="36.01746415506359" lon="10.427702562896021"><ele>3.0</ele><time>2026-04-04T18:23:34.999Z</time></trkpt><trkpt lat="36.01723401250566" lon="10.427770391156352"><ele>3.0</ele><time>2026-04-04T18:23:35.999Z</time></trkpt><trkpt lat="36.017011937888846" lon="10.427840484390012"><ele>3.0</ele><time>2026-04-04T18:23:36.999Z</time></trkpt><trkpt lat="36.016790608612084" lon="10.427910943702816"><ele>2.5</ele><time>2026-04-04T18:23:37.999Z</time></trkpt><trkpt lat="36.01656690886382" lon="10.427983055033202"><ele>2.0</ele><time>2026-04-04T18:23:38.999Z</time></trkpt><trkpt lat="36.016335922783355" lon="10.428064476435011"><ele>2.0</ele><time>2026-04-04T18:23:39.999Z</time></trkpt><trkpt lat="36.01610321233999" lon="10.428150001694826"><ele>2.0</ele><time>2026-04-04T18:23:40.999Z</time></trkpt><trkpt lat="36.01586905497939" lon="10.428234181542226"><ele>2.0</ele><time>2026-04-04T18:23:41.999Z</time></trkpt><trkpt lat="36.01563242467681" lon="10.428318131961936"><ele>2.0</ele><time>2026-04-04T18:23:42.999Z</time></trkpt><trkpt lat="36.01539076742282" lon="10.428405614256267"><ele>2.0</ele><time>2026-04-04T18:23:43.999Z</time></trkpt><trkpt lat="36.015142913020235" lon="10.428499904890979"><ele>2.0</ele><time>2026-04-04T18:23:44.999Z</time></trkpt><trkpt lat="36.01488071619794" lon="10.42860627074114"><ele>2.0</ele><time>2026-04-04T18:23:45.999Z</time></trkpt><trkpt lat="36.014623405628384" lon="10.42871321732348"><ele>2.0</ele><time>2026-04-04T18:23:46.999Z</time></trkpt><trkpt lat="36.01437315817003" lon="10.42881735012625"><ele>2.0</ele><time>2026-04-04T18:23:47.999Z</time></trkpt><trkpt lat="36.01412481323424" lon="10.42891935962394"><ele>2.0</ele><time>2026-04-04T18:23:48.999Z</time></trkpt><trkpt lat="36.013878523559605" lon="10.429022795715579"><ele>2.0</ele><time>2026-04-04T18:23:49.999Z</time></trkpt><trkpt lat="36.01363442303138" lon="10.429129606544576"><ele>2.0</ele><time>2026-04-04T18:23:50.999Z</time></trkpt><trkpt lat="36.01339120355149" lon="10.4292419652986"><ele>2.0</ele><time>2026-04-04T18:23:51.999Z</time></trkpt><trkpt lat="36.013149120071404" lon="10.429357599291679"><ele>2.0</ele><time>2026-04-04T18:23:52.999Z</time></trkpt><trkpt lat="36.01291713428748" lon="10.429467814533366"><ele>2.0</ele><time>2026-04-04T18:23:53.999Z</time></trkpt><trkpt lat="36.01269727042185" lon="10.429573816920763"><ele>2.0</ele><time>2026-04-04T18:23:54.999Z</time></trkpt><trkpt lat="36.012481224996606" lon="10.42967926453909"><ele>2.0</ele><time>2026-04-04T18:23:55.999Z</time></trkpt><trkpt lat="36.01226768675979" lon="10.429786257384116"><ele>2.0</ele><time>2026-04-04T18:23:56.999Z</time></trkpt><trkpt lat="36.012054139249855" lon="10.429897276651463"><ele>2.0</ele><time>2026-04-04T18:23:57.999Z</time></trkpt><trkpt lat="36.011837376729304" lon="10.430008825242497"><ele>2.0</ele><time>2026-04-04T18:23:58.999Z</time></trkpt><trkpt lat="36.01161660983135" lon="10.43012272734371"><ele>1.5</ele><time>2026-04-04T18:23:59.999Z</time></trkpt><trkpt lat="36.011395567141975" lon="10.430240404690966"><ele>1.0</ele><time>2026-04-04T18:24:00.999Z</time></trkpt><trkpt lat="36.01117443184894" lon="10.430362372059323"><ele>1.0</ele><time>2026-04-04T18:24:01.999Z</time></trkpt><trkpt lat="36.01095523063858" lon="10.430486385050058"><ele>1.0</ele><time>2026-04-04T18:24:02.999Z</time></trkpt><trkpt lat="36.01073837719278" lon="10.430610147984398"><ele>1.0</ele><time>2026-04-04T18:24:03.999Z</time></trkpt><trkpt lat="36.010522051753696" lon="10.430735087547529"><ele>1.0</ele><time>2026-04-04T18:24:04.999Z</time></trkpt><trkpt lat="36.01030422806856" lon="10.430863367961816"><ele>1.0</ele><time>2026-04-04T18:24:05.999Z</time></trkpt><trkpt lat="36.010088422844674" lon="10.43099211418402"><ele>1.0</ele><time>2026-04-04T18:24:07Z</time></trkpt><trkpt lat="36.00987325179682" lon="10.431122908178544"><ele>1.5</ele><time>2026-04-04T18:24:08Z</time></trkpt><trkpt lat="36.00966609159441" lon="10.431250343699949"><ele>2.0</ele><time>2026-04-04T18:24:09Z</time></trkpt><trkpt lat="36.0094691341681" lon="10.431372477694987"><ele>2.0</ele><time>2026-04-04T18:24:10Z</time></trkpt><trkpt lat="36.00928203156446" lon="10.431492189152689"><ele>2.0</ele><time>2026-04-04T18:24:11Z</time></trkpt><trkpt lat="36.00910302839277" lon="10.431608372639136"><ele>2.0</ele><time>2026-04-04T18:24:12Z</time></trkpt><trkpt lat="36.008929286948394" lon="10.431721273696853"><ele>2.0</ele><time>2026-04-04T18:24:13Z</time></trkpt><trkpt lat="36.008758405684716" lon="10.43183345319195"><ele>2.0</ele><time>2026-04-04T18:24:14Z</time></trkpt><trkpt lat="36.00858887305472" lon="10.431946470293274"><ele>2.0</ele><time>2026-04-04T18:24:15Z</time></trkpt><trkpt lat="36.008422694911424" lon="10.432061941903248"><ele>2.6666666666666665</ele><time>2026-04-04T18:24:16Z</time></trkpt><trkpt lat="36.008257499567605" lon="10.432176393937292"><ele>3.333333333333333</ele><time>2026-04-04T18:24:17Z</time></trkpt><trkpt lat="36.0080909134079" lon="10.432289940211216"><ele>4.0</ele><time>2026-04-04T18:24:18Z</time></trkpt><trkpt lat="36.00792629557882" lon="10.432402749034948"><ele>4.0</ele><time>2026-04-04T18:24:19Z</time></trkpt><trkpt lat="36.007762092928616" lon="10.432516871357393"><ele>4.0</ele><time>2026-04-04T18:24:20Z</time></trkpt><trkpt lat="36.00759748693801" lon="10.432629830545265"><ele>4.0</ele><time>2026-04-04T18:24:21Z</time></trkpt><trkpt lat="36.007434529414546" lon="10.432741878949727"><ele>4.0</ele><time>2026-04-04T18:24:22Z</time></trkpt><trkpt lat="36.00727254416679" lon="10.43285553088824"><ele>4.0</ele><time>2026-04-04T18:24:23Z</time></trkpt><trkpt lat="36.007110770460905" lon="10.432966810274882"><ele>4.0</ele><time>2026-04-04T18:24:24Z</time></trkpt><trkpt lat="36.00695298379866" lon="10.43307595235295"><ele>4.0</ele><time>2026-04-04T18:24:25Z</time></trkpt><trkpt lat="36.00680493205935" lon="10.433179752523806"><ele>4.0</ele><time>2026-04-04T18:24:26Z</time></trkpt><trkpt lat="36.00665749640688" lon="10.433273741898617"><ele>4.0</ele><time>2026-04-04T18:24:27Z</time></trkpt><trkpt lat="36.00651549335802" lon="10.433357280556166"><ele>4.0</ele><time>2026-04-04T18:24:28Z</time></trkpt><trkpt lat="36.00638190835952" lon="10.433452751102042"><ele>4.0</ele><time>2026-04-04T18:24:29Z</time></trkpt><trkpt lat="36.00625014375732" lon="10.433550738184032"><ele>4.0</ele><time>2026-04-04T18:24:30Z</time></trkpt><trkpt lat="36.00611876845906" lon="10.433643126533278"><ele>4.0</ele><time>2026-04-04T18:24:31Z</time></trkpt><trkpt lat="36.005994342117816" lon="10.433725603173887"><ele>4.0</ele><time>2026-04-04T18:24:32Z</time></trkpt><trkpt lat="36.00587110863242" lon="10.433809823029762"><ele>4.0</ele><time>2026-04-04T18:24:33Z</time></trkpt><trkpt lat="36.00574772075056" lon="10.43389452843467"><ele>4.0</ele><time>2026-04-04T18:24:34Z</time></trkpt><trkpt lat="36.00562993091688" lon="10.433975975212185"><ele>4.0</ele><time>2026-04-04T18:24:35Z</time></trkpt><trkpt lat="36.00551539576705" lon="10.434048779439534"><ele>4.0</ele><time>2026-04-04T18:24:36Z</time></trkpt><trkpt lat="36.00540323157934" lon="10.4341165003598"><ele>4.0</ele><time>2026-04-04T18:24:37Z</time></trkpt><trkpt lat="36.00529587494422" lon="10.43418024113474"><ele>4.0</ele><time>2026-04-04T18:24:38Z</time></trkpt><trkpt lat="36.005192490857" lon="10.434245090384238"><ele>4.0</ele><time>2026-04-04T18:24:39Z</time></trkpt><trkpt lat="36.00509285703507" lon="10.434304881683278"><ele>4.0</ele><time>2026-04-04T18:24:40Z</time></trkpt><trkpt lat="36.00499780101502" lon="10.434361572032808"><ele>4.0</ele><time>2026-04-04T18:24:41Z</time></trkpt><trkpt lat="36.00490725724911" lon="10.434419735444004"><ele>4.0</ele><time>2026-04-04T18:24:42Z</time></trkpt><trkpt lat="36.004818373325044" lon="10.434476990100002"><ele>4.0</ele><time>2026-04-04T18:24:43Z</time></trkpt><trkpt lat="36.00473464584096" lon="10.43452663029757"><ele>3.833333333333333</ele><time>2026-04-04T18:24:44Z</time></trkpt><trkpt lat="36.00465676282142" lon="10.434567952830673"><ele>3.6666666666666665</ele><time>2026-04-04T18:24:45Z</time></trkpt><trkpt lat="36.004584709955125" lon="10.434606346620393"><ele>3.5</ele><time>2026-04-04T18:24:46Z</time></trkpt><trkpt lat="36.004521416950475" lon="10.434638603126782"><ele>3.333333333333333</ele><time>2026-04-04T18:24:47Z</time></trkpt><trkpt lat="36.004415721458436" lon="10.434692021538964"><ele>3.1666666666666665</ele><time>2026-04-04T18:24:49Z</time></trkpt><trkpt lat="36.00433311341919" lon="10.434741904534402"><ele>3.0</ele><time>2026-04-04T18:24:51Z</time></trkpt><trkpt lat="36.004263751588226" lon="10.434776588225226"><ele>3.5</ele><time>2026-04-04T18:24:53Z</time></trkpt><trkpt lat="36.00418356328901" lon="10.434807257148476"><ele>4.0</ele><time>2026-04-04T18:24:56Z</time></trkpt><trkpt lat="36.004112000459486" lon="10.434844126551877"><ele>4.5</ele><time>2026-04-04T18:24:59Z</time></trkpt><trkpt lat="36.00404446598285" lon="10.434883517457829"><ele>5.0</ele><time>2026-04-04T18:25:02Z</time></trkpt><trkpt lat="36.003976312803154" lon="10.434914839038942"><ele>5.5</ele><time>2026-04-04T18:25:06Z</time></trkpt><trkpt lat="36.00390876451421" lon="10.434958578188393"><ele>6.0</ele><time>2026-04-04T18:25:51.999Z</time></trkpt><trkpt lat="36.00384951730102" lon="10.435003119021028"><ele>6.166666666666667</ele><time>2026-04-04T18:25:55.999Z</time></trkpt><trkpt lat="36.0037942238804" lon="10.435043892546737"><ele>6.333333333333334</ele><time>2026-04-04T18:26:24Z</time></trkpt><trkpt lat="36.00372128772862" lon="10.435099338342757"><ele>6.5</ele><time>2026-04-04T18:26:44Z</time></trkpt><trkpt lat="36.003661789812774" lon="10.435144711936381"><ele>6.666666666666667</ele><time>2026-04-04T18:26:46Z</time></trkpt><trkpt lat="36.00360087200258" lon="10.435183025420072"><ele>6.833333333333334</ele><time>2026-04-04T18:26:50Z</time></trkpt><trkpt lat="36.0035284057611" lon="10.435242784026215"><ele>7.0</ele><time>2026-04-04T18:26:52Z</time></trkpt><trkpt lat="36.00344590435354" lon="10.435299556784326"><ele>7.0</ele><time>2026-04-04T18:26:53Z</time></trkpt><trkpt lat="36.003381346809896" lon="10.435350665124531"><ele>6.999999999999999</ele><time>2026-04-04T18:26:54Z</time></trkpt><trkpt lat="36.00332062978588" lon="10.435412373794959"><ele>6.999999999999999</ele><time>2026-04-04T18:26:55Z</time></trkpt><trkpt lat="36.00326407190169" lon="10.435486064482967"><ele>7.0</ele><time>2026-04-04T18:26:56Z</time></trkpt><trkpt lat="36.003187419914745" lon="10.435566968133678"><ele>7.0</ele><time>2026-04-04T18:26:57Z</time></trkpt><trkpt lat="36.00308789810232" lon="10.43565376711777"><ele>6.199999999999999</ele><time>2026-04-04T18:26:58Z</time></trkpt><trkpt lat="36.002979230933995" lon="10.435739563852822"><ele>5.3999999999999995</ele><time>2026-04-04T18:26:59Z</time></trkpt><trkpt lat="36.00288147477968" lon="10.435816097839348"><ele>4.6</ele><time>2026-04-04T18:27:00Z</time></trkpt><trkpt lat="36.00279850802931" lon="10.435875518884368"><ele>3.8</ele><time>2026-04-04T18:27:01Z</time></trkpt><trkpt lat="36.00271901833866" lon="10.435924846665806"><ele>3.0</ele><time>2026-04-04T18:27:02Z</time></trkpt><trkpt lat="36.00264521274156" lon="10.435968248629745"><ele>2.9999999999999996</ele><time>2026-04-04T18:27:03Z</time></trkpt><trkpt lat="36.00257801816802" lon="10.436011405995256"><ele>3.0</ele><time>2026-04-04T18:27:04Z</time></trkpt><trkpt lat="36.002517181109646" lon="10.436057292316821"><ele>3.0</ele><time>2026-04-04T18:27:05Z</time></trkpt><trkpt lat="36.00246523780362" lon="10.436102970467923"><ele>3.0</ele><time>2026-04-04T18:27:06Z</time></trkpt><trkpt lat="36.00240993418071" lon="10.436146476724257"><ele>3.0</ele><time>2026-04-04T18:27:09Z</time></trkpt><trkpt lat="36.00235819082397" lon="10.436201049650744"><ele>2.9999999999999996</ele><time>2026-04-04T18:29:28Z</time></trkpt><trkpt lat="36.002276356687695" lon="10.43627930102794"><ele>3.0</ele><time>2026-04-04T18:29:29.999Z</time></trkpt><trkpt lat="36.00218979931867" lon="10.43636068533647"><ele>2.8</ele><time>2026-04-04T18:29:31.999Z</time></trkpt><trkpt lat="36.00213425979371" lon="10.436403472208813"><ele>2.5999999999999996</ele><time>2026-04-04T18:29:32.999Z</time></trkpt><trkpt lat="36.00204613081226" lon="10.436469774759933"><ele>2.4000000000000004</ele><time>2026-04-04T18:29:33.999Z</time></trkpt><trkpt lat="36.001963209825966" lon="10.436542577733125"><ele>2.2</ele><time>2026-04-04T18:29:34.999Z</time></trkpt><trkpt lat="36.001880985323666" lon="10.436604776143207"><ele>2.0</ele><time>2026-04-04T18:29:35.999Z</time></trkpt><trkpt lat="36.00179784139199" lon="10.436664254437886"><ele>2.0</ele><time>2026-04-04T18:29:36.999Z</time></trkpt><trkpt lat="36.00171247919187" lon="10.436723659045548"><ele>2.0</ele><time>2026-04-04T18:29:37.999Z</time></trkpt><trkpt lat="36.0016264901903" lon="10.436784480187075"><ele>2.0</ele><time>2026-04-04T18:29:38.999Z</time></trkpt><trkpt lat="36.00153384174081" lon="10.43684515744059"><ele>2.0</ele><time>2026-04-04T18:29:39.999Z</time></trkpt><trkpt lat="36.00143498279292" lon="10.43691202433115"><ele>2.0</ele><time>2026-04-04T18:29:40.999Z</time></trkpt><trkpt lat="36.00133057966866" lon="10.436984933261526"><ele>1.75</ele><time>2026-04-04T18:29:41.999Z</time></trkpt><trkpt lat="36.00122362154139" lon="10.437057985863776"><ele>1.5</ele><time>2026-04-04T18:29:42.999Z</time></trkpt><trkpt lat="36.00111498740274" lon="10.437136725662894"><ele>1.25</ele><time>2026-04-04T18:29:43.999Z</time></trkpt><trkpt lat="36.001005453110686" lon="10.437216079085696"><ele>1.0</ele><time>2026-04-04T18:29:44.999Z</time></trkpt><trkpt lat="36.000887125292344" lon="10.437296909372828"><ele>1.5</ele><time>2026-04-04T18:29:45.999Z</time></trkpt><trkpt lat="36.000763101964914" lon="10.437382560122867"><ele>2.0</ele><time>2026-04-04T18:29:46.999Z</time></trkpt><trkpt lat="36.000633195267426" lon="10.437474111133913"><ele>2.5</ele><time>2026-04-04T18:29:47.999Z</time></trkpt><trkpt lat="36.00049746932303" lon="10.437569200044175"><ele>3.0</ele><time>2026-04-04T18:29:48.999Z</time></trkpt><trkpt lat="36.000358945688134" lon="10.437667017183385"><ele>3.0</ele><time>2026-04-04T18:29:49.999Z</time></trkpt><trkpt lat="36.00021687869174" lon="10.437767148162616"><ele>3.0</ele><time>2026-04-04T18:29:50.999Z</time></trkpt><trkpt lat="36.00007124162677" lon="10.437865804473514"><ele>3.0</ele><time>2026-04-04T18:29:51.999Z</time></trkpt><trkpt lat="35.999924313370556" lon="10.437969507551673"><ele>3.0</ele><time>2026-04-04T18:29:52.999Z</time></trkpt><trkpt lat="35.99979103292316" lon="10.438061583944988"><ele>3.0</ele><time>2026-04-04T18:29:53.999Z</time></trkpt><trkpt lat="35.999663314771794" lon="10.438145324581285"><ele>3.0</ele><time>2026-04-04T18:29:54.999Z</time></trkpt><trkpt lat="35.99953127427217" lon="10.438235977594667"><ele>3.0</ele><time>2026-04-04T18:29:55.999Z</time></trkpt><trkpt lat="35.999394344589874" lon="10.438329800804663"><ele>3.0</ele><time>2026-04-04T18:29:56.999Z</time></trkpt><trkpt lat="35.99925057903925" lon="10.438430456091236"><ele>3.0</ele><time>2026-04-04T18:29:57.999Z</time></trkpt><trkpt lat="35.99910383602035" lon="10.438535176652753"><ele>3.0</ele><time>2026-04-04T18:29:58.999Z</time></trkpt><trkpt lat="35.99895678187203" lon="10.43864059793876"><ele>3.0</ele><time>2026-04-04T18:29:59.999Z</time></trkpt><trkpt lat="35.99880301482636" lon="10.438745796487412"><ele>3.0</ele><time>2026-04-04T18:30:00.999Z</time></trkpt><trkpt lat="35.99864727827395" lon="10.438852055963036"><ele>3.0</ele><time>2026-04-04T18:30:01.999Z</time></trkpt><trkpt lat="35.9984893750697" lon="10.438960312216464"><ele>3.0</ele><time>2026-04-04T18:30:02.999Z</time></trkpt><trkpt lat="35.99833157012795" lon="10.439069082400678"><ele>3.0</ele><time>2026-04-04T18:30:03.999Z</time></trkpt><trkpt lat="35.99817258447699" lon="10.43917847265704"><ele>3.0</ele><time>2026-04-04T18:30:04.999Z</time></trkpt><trkpt lat="35.99800985711969" lon="10.439293198966334"><ele>3.0</ele><time>2026-04-04T18:30:05.999Z</time></trkpt><trkpt lat="35.997842542167234" lon="10.439408931310075"><ele>3.0</ele><time>2026-04-04T18:30:06.999Z</time></trkpt><trkpt lat="35.997670055593694" lon="10.439526106956555"><ele>3.0</ele><time>2026-04-04T18:30:07.999Z</time></trkpt><trkpt lat="35.997495128689614" lon="10.439643513890971"><ele>3.333333333333333</ele><time>2026-04-04T18:30:08.999Z</time></trkpt><trkpt lat="35.99732054184858" lon="10.43976625455235"><ele>3.6666666666666665</ele><time>2026-04-04T18:30:09.999Z</time></trkpt><trkpt lat="35.99714990161684" lon="10.439886422980855"><ele>4.0</ele><time>2026-04-04T18:30:10.999Z</time></trkpt><trkpt lat="35.99698411237955" lon="10.440000422065845"><ele>4.0</ele><time>2026-04-04T18:30:11.999Z</time></trkpt><trkpt lat="35.996824820460986" lon="10.44010453382471"><ele>4.0</ele><time>2026-04-04T18:30:12.999Z</time></trkpt><trkpt lat="35.996663912528554" lon="10.44020968587263"><ele>4.0</ele><time>2026-04-04T18:30:13.999Z</time></trkpt><trkpt lat="35.996496528714374" lon="10.44032117310776"><ele>4.0</ele><time>2026-04-04T18:30:14.999Z</time></trkpt><trkpt lat="35.99632648433318" lon="10.440438164541337"><ele>4.0</ele><time>2026-04-04T18:30:15.999Z</time></trkpt><trkpt lat="35.99615478016515" lon="10.440558106175782"><ele>4.0</ele><time>2026-04-04T18:30:16.999Z</time></trkpt><trkpt lat="35.99597943416613" lon="10.44067819605644"><ele>5.0</ele><time>2026-04-04T18:30:17.999Z</time></trkpt><trkpt lat="35.99580291166057" lon="10.440795747896667"><ele>6.0</ele><time>2026-04-04T18:30:18.999Z</time></trkpt><trkpt lat="35.9956225623046" lon="10.440919709394228"><ele>7.0</ele><time>2026-04-04T18:30:19.999Z</time></trkpt><trkpt lat="35.99544197740401" lon="10.441043427601764"><ele>7.0</ele><time>2026-04-04T18:30:20.999Z</time></trkpt><trkpt lat="35.99525924979717" lon="10.441164801582428"><ele>7.0</ele><time>2026-04-04T18:30:21.999Z</time></trkpt><trkpt lat="35.995074798539925" lon="10.44128880870181"><ele>7.0</ele><time>2026-04-04T18:30:22.999Z</time></trkpt><trkpt lat="35.99488422888609" lon="10.441414121195622"><ele>6.0</ele><time>2026-04-04T18:30:23.999Z</time></trkpt><trkpt lat="35.99469076209794" lon="10.4415406045742"><ele>5.0</ele><time>2026-04-04T18:30:25Z</time></trkpt><trkpt lat="35.99449770689455" lon="10.441671327397575"><ele>4.0</ele><time>2026-04-04T18:30:26Z</time></trkpt><trkpt lat="35.99430211077002" lon="10.441797841633292"><ele>3.6666666666666665</ele><time>2026-04-04T18:30:27Z</time></trkpt><trkpt lat="35.99411118976801" lon="10.441930299512586"><ele>3.333333333333333</ele><time>2026-04-04T18:30:28Z</time></trkpt><trkpt lat="35.99391454621262" lon="10.442064640734147"><ele>3.0</ele><time>2026-04-04T18:30:29Z</time></trkpt><trkpt lat="35.9937192513961" lon="10.442192928368074"><ele>3.333333333333333</ele><time>2026-04-04T18:30:30Z</time></trkpt><trkpt lat="35.993523244138856" lon="10.442319487712917"><ele>3.6666666666666665</ele><time>2026-04-04T18:30:31Z</time></trkpt><trkpt lat="35.99333132195869" lon="10.44244808821213"><ele>4.0</ele><time>2026-04-04T18:30:32Z</time></trkpt><trkpt lat="35.99313892414626" lon="10.442582294199342"><ele>4.0</ele><time>2026-04-04T18:30:33Z</time></trkpt><trkpt lat="35.99294826013803" lon="10.442716600687922"><ele>4.0</ele><time>2026-04-04T18:30:34Z</time></trkpt><trkpt lat="35.992752068891015" lon="10.44285176838133"><ele>4.0</ele><time>2026-04-04T18:30:35Z</time></trkpt><trkpt lat="35.992552014586636" lon="10.442988142533418"><ele>3.0</ele><time>2026-04-04T18:30:36Z</time></trkpt><trkpt lat="35.992348576559586" lon="10.443124304245703"><ele>2.0</ele><time>2026-04-04T18:30:37Z</time></trkpt><trkpt lat="35.99213929017809" lon="10.443263095087433"><ele>2.0</ele><time>2026-04-04T18:30:38Z</time></trkpt><trkpt lat="35.99192923569705" lon="10.443401040668176"><ele>2.0</ele><time>2026-04-04T18:30:39Z</time></trkpt><trkpt lat="35.991716319751" lon="10.443542619898043"><ele>3.0</ele><time>2026-04-04T18:30:40Z</time></trkpt><trkpt lat="35.99150504070646" lon="10.44368472537408"><ele>4.0</ele><time>2026-04-04T18:30:41Z</time></trkpt><trkpt lat="35.99129368862457" lon="10.44382667215689"><ele>4.5</ele><time>2026-04-04T18:30:42Z</time></trkpt><trkpt lat="35.99108191249932" lon="10.443966358715137"><ele>5.0</ele><time>2026-04-04T18:30:43Z</time></trkpt><trkpt lat="35.990868291538526" lon="10.444108302660455"><ele>4.5</ele><time>2026-04-04T18:30:44Z</time></trkpt><trkpt lat="35.99065795932625" lon="10.4442483775137"><ele>4.0</ele><time>2026-04-04T18:30:45Z</time></trkpt><trkpt lat="35.99044908127344" lon="10.444386509310512"><ele>4.0</ele><time>2026-04-04T18:30:46Z</time></trkpt><trkpt lat="35.990240991986575" lon="10.44452400042326"><ele>4.0</ele><time>2026-04-04T18:30:47Z</time></trkpt><trkpt lat="35.990036324299474" lon="10.444658678094306"><ele>4.0</ele><time>2026-04-04T18:30:48Z</time></trkpt><trkpt lat="35.98983245666515" lon="10.444792390590038"><ele>4.0</ele><time>2026-04-04T18:30:49Z</time></trkpt><trkpt lat="35.98962770817805" lon="10.44492456621498"><ele>4.0</ele><time>2026-04-04T18:30:50Z</time></trkpt><trkpt lat="35.989417351030404" lon="10.44506132336358"><ele>4.0</ele><time>2026-04-04T18:30:51Z</time></trkpt><trkpt lat="35.989207675713814" lon="10.445199077800268"><ele>4.0</ele><time>2026-04-04T18:30:52Z</time></trkpt><trkpt lat="35.98899564617305" lon="10.445337962856236"><ele>4.0</ele><time>2026-04-04T18:30:53Z</time></trkpt><trkpt lat="35.988783486452036" lon="10.44547456216757"><ele>4.0</ele><time>2026-04-04T18:30:54Z</time></trkpt><trkpt lat="35.98856692519865" lon="10.445618520656677"><ele>4.0</ele><time>2026-04-04T18:30:55Z</time></trkpt><trkpt lat="35.98835087617568" lon="10.445761232293588"><ele>4.0</ele><time>2026-04-04T18:30:56Z</time></trkpt><trkpt lat="35.9881346509048" lon="10.445902882452547"><ele>4.0</ele><time>2026-04-04T18:30:57Z</time></trkpt><trkpt lat="35.987916412348795" lon="10.446046431328716"><ele>4.0</ele><time>2026-04-04T18:30:58Z</time></trkpt><trkpt lat="35.987691923684196" lon="10.446199439354514"><ele>4.0</ele><time>2026-04-04T18:30:59Z</time></trkpt><trkpt lat="35.98745559926427" lon="10.446366452916447"><ele>4.5</ele><time>2026-04-04T18:31:00Z</time></trkpt><trkpt lat="35.98720587498586" lon="10.446542231122525"><ele>5.0</ele><time>2026-04-04T18:31:01Z</time></trkpt><trkpt lat="35.98694661286802" lon="10.446716798906623"><ele>5.5</ele><time>2026-04-04T18:31:02Z</time></trkpt><trkpt lat="35.98667586955253" lon="10.44689495029858"><ele>6.0</ele><time>2026-04-04T18:31:03Z</time></trkpt><trkpt lat="35.98640439261477" lon="10.447076778072836"><ele>4.5</ele><time>2026-04-04T18:31:04Z</time></trkpt><trkpt lat="35.98613246558785" lon="10.447259337200551"><ele>3.0</ele><time>2026-04-04T18:31:05Z</time></trkpt><trkpt lat="35.98586160420393" lon="10.447436854992485"><ele>4.0</ele><time>2026-04-04T18:31:06Z</time></trkpt><trkpt lat="35.98559195171396" lon="10.447607930188305"><ele>5.0</ele><time>2026-04-04T18:31:07Z</time></trkpt><trkpt lat="35.98531952539551" lon="10.447776789975455"><ele>5.0</ele><time>2026-04-04T18:31:08Z</time></trkpt><trkpt lat="35.98504612562827" lon="10.447948705403547"><ele>5.0</ele><time>2026-04-04T18:31:09Z</time></trkpt><trkpt lat="35.98477163345873" lon="10.4481221475348"><ele>4.5</ele><time>2026-04-04T18:31:10Z</time></trkpt><trkpt lat="35.98449375568725" lon="10.448299902445825"><ele>4.0</ele><time>2026-04-04T18:31:11Z</time></trkpt><trkpt lat="35.984207428248595" lon="10.448484959746704"><ele>4.0</ele><time>2026-04-04T18:31:12Z</time></trkpt><trkpt lat="35.98392381762065" lon="10.448671153062442"><ele>4.0</ele><time>2026-04-04T18:31:13Z</time></trkpt><trkpt lat="35.983649881039995" lon="10.448850673512887"><ele>4.0</ele><time>2026-04-04T18:31:14Z</time></trkpt><trkpt lat="35.98338446025804" lon="10.449024263972323"><ele>4.0</ele><time>2026-04-04T18:31:15Z</time></trkpt><trkpt lat="35.98313110126431" lon="10.449191046239044"><ele>4.0</ele><time>2026-04-04T18:31:16Z</time></trkpt><trkpt lat="35.98289877346652" lon="10.44934442837172"><ele>4.0</ele><time>2026-04-04T18:31:17Z</time></trkpt><trkpt lat="35.98268001627691" lon="10.44949001129101"><ele>3.5</ele><time>2026-04-04T18:31:18Z</time></trkpt><trkpt lat="35.982470557355654" lon="10.449634514557445"><ele>3.0</ele><time>2026-04-04T18:31:19Z</time></trkpt><trkpt lat="35.9822609289863" lon="10.449781804196562"><ele>3.0</ele><time>2026-04-04T18:31:20Z</time></trkpt><trkpt lat="35.982049167151025" lon="10.449935190790217"><ele>3.0</ele><time>2026-04-04T18:31:21Z</time></trkpt><trkpt lat="35.98183502078526" lon="10.450090840949656"><ele>4.0</ele><time>2026-04-04T18:31:22Z</time></trkpt><trkpt lat="35.981621188104974" lon="10.450245983464113"><ele>5.0</ele><time>2026-04-04T18:31:23Z</time></trkpt><trkpt lat="35.98140930917804" lon="10.45040643111457"><ele>4.5</ele><time>2026-04-04T18:31:24Z</time></trkpt><trkpt lat="35.981197232065924" lon="10.450569349911781"><ele>4.0</ele><time>2026-04-04T18:31:25Z</time></trkpt><trkpt lat="35.98098233723633" lon="10.450734017865573"><ele>5.5</ele><time>2026-04-04T18:31:26Z</time></trkpt><trkpt lat="35.98076550523113" lon="10.450903029094485"><ele>7.0</ele><time>2026-04-04T18:31:27Z</time></trkpt><trkpt lat="35.98054566297881" lon="10.451078080945146"><ele>7.0</ele><time>2026-04-04T18:31:28Z</time></trkpt><trkpt lat="35.98032206448115" lon="10.451258260824094"><ele>7.0</ele><time>2026-04-04T18:31:29Z</time></trkpt><trkpt lat="35.98009568032236" lon="10.451448896343631"><ele>6.0</ele><time>2026-04-04T18:31:30Z</time></trkpt><trkpt lat="35.97986675284986" lon="10.45165233614832"><ele>5.0</ele><time>2026-04-04T18:31:30.999Z</time></trkpt><trkpt lat="35.97963615589953" lon="10.451860993390362"><ele>5.0</ele><time>2026-04-04T18:31:31.999Z</time></trkpt><trkpt lat="35.97940714539446" lon="10.452069756634215"><ele>5.0</ele><time>2026-04-04T18:31:32.999Z</time></trkpt><trkpt lat="35.9791825643704" lon="10.452282141639122"><ele>6.0</ele><time>2026-04-04T18:31:33.999Z</time></trkpt><trkpt lat="35.97896130250202" lon="10.452490355965006"><ele>7.0</ele><time>2026-04-04T18:31:34.999Z</time></trkpt><trkpt lat="35.978742320252564" lon="10.45269868811441"><ele>7.0</ele><time>2026-04-04T18:31:35.999Z</time></trkpt><trkpt lat="35.97852435819145" lon="10.45291156624713"><ele>7.0</ele><time>2026-04-04T18:31:36.999Z</time></trkpt><trkpt lat="35.97830996394981" lon="10.453117944380141"><ele>6.5</ele><time>2026-04-04T18:31:37.999Z</time></trkpt><trkpt lat="35.978091826112845" lon="10.453337842183307"><ele>6.0</ele><time>2026-04-04T18:31:38.999Z</time></trkpt><trkpt lat="35.977867106575545" lon="10.45357868837779"><ele>6.5</ele><time>2026-04-04T18:31:39.999Z</time></trkpt><trkpt lat="35.97762727294398" lon="10.453830951761127"><ele>7.0</ele><time>2026-04-04T18:31:40.999Z</time></trkpt><trkpt lat="35.977379790755556" lon="10.45408976135867"><ele>7.0</ele><time>2026-04-04T18:31:41.999Z</time></trkpt><trkpt lat="35.97713652419677" lon="10.454351579864252"><ele>7.0</ele><time>2026-04-04T18:31:42.999Z</time></trkpt><trkpt lat="35.97690431798341" lon="10.454608509424606"><ele>5.5</ele><time>2026-04-04T18:31:43.999Z</time></trkpt><trkpt lat="35.97667435059326" lon="10.454868846880165"><ele>4.0</ele><time>2026-04-04T18:31:44.999Z</time></trkpt><trkpt lat="35.97644671598843" lon="10.455134855516041"><ele>4.0</ele><time>2026-04-04T18:31:45.999Z</time></trkpt><trkpt lat="35.976222765522884" lon="10.455396562390158"><ele>4.0</ele><time>2026-04-04T18:31:46.999Z</time></trkpt><trkpt lat="35.97600107084236" lon="10.455660348703882"><ele>4.0</ele><time>2026-04-04T18:31:47.999Z</time></trkpt><trkpt lat="35.975783537998296" lon="10.455931710972681"><ele>4.0</ele><time>2026-04-04T18:31:48.999Z</time></trkpt><trkpt lat="35.97556845234363" lon="10.456203971942484"><ele>4.5</ele><time>2026-04-04T18:31:49.999Z</time></trkpt><trkpt lat="35.97535994654477" lon="10.456476977390675"><ele>5.0</ele><time>2026-04-04T18:31:50.999Z</time></trkpt><trkpt lat="35.97516793851998" lon="10.456733878204199"><ele>5.5</ele><time>2026-04-04T18:31:51.999Z</time></trkpt><trkpt lat="35.97498700049252" lon="10.456981052101723"><ele>6.0</ele><time>2026-04-04T18:31:52.999Z</time></trkpt><trkpt lat="35.97481047930425" lon="10.457223147825763"><ele>5.0</ele><time>2026-04-04T18:31:53.999Z</time></trkpt><trkpt lat="35.9746412097298" lon="10.457457040426334"><ele>4.0</ele><time>2026-04-04T18:31:54.999Z</time></trkpt><trkpt lat="35.97447845793621" lon="10.45768890141415"><ele>4.0</ele><time>2026-04-04T18:31:55.999Z</time></trkpt><trkpt lat="35.974320457992604" lon="10.457917659343982"><ele>4.0</ele><time>2026-04-04T18:31:56.999Z</time></trkpt><trkpt lat="35.974165465371534" lon="10.45814653386179"><ele>4.0</ele><time>2026-04-04T18:31:57.999Z</time></trkpt><trkpt lat="35.97401351578408" lon="10.458376202833781"><ele>4.0</ele><time>2026-04-04T18:31:58.999Z</time></trkpt><trkpt lat="35.97386266470972" lon="10.458609203914635"><ele>2.5</ele><time>2026-04-04T18:31:59.999Z</time></trkpt><trkpt lat="35.97370290756545" lon="10.458858079717919"><ele>1.0</ele><time>2026-04-04T18:32:00.999Z</time></trkpt><trkpt lat="35.97354023896687" lon="10.45910711856193"><ele>1.0</ele><time>2026-04-04T18:32:01.999Z</time></trkpt><trkpt lat="35.97338073121167" lon="10.459364275556146"><ele>1.0</ele><time>2026-04-04T18:32:02.999Z</time></trkpt><trkpt lat="35.973220467842495" lon="10.459621936151649"><ele>2.0</ele><time>2026-04-04T18:32:03.999Z</time></trkpt><trkpt lat="35.97306047107635" lon="10.459882536020972"><ele>3.0</ele><time>2026-04-04T18:32:04.999Z</time></trkpt><trkpt lat="35.972901788446976" lon="10.460148940039758"><ele>3.0</ele><time>2026-04-04T18:32:05.999Z</time></trkpt><trkpt lat="35.9727472940061" lon="10.460414326557252"><ele>3.0</ele><time>2026-04-04T18:32:06.999Z</time></trkpt><trkpt lat="35.972591288841286" lon="10.460677758602605"><ele>5.0</ele><time>2026-04-04T18:32:07.999Z</time></trkpt><trkpt lat="35.972435750240706" lon="10.46094406398879"><ele>7.0</ele><time>2026-04-04T18:32:08.999Z</time></trkpt><trkpt lat="35.97228554567742" lon="10.461210675582665"><ele>5.5</ele><time>2026-04-04T18:32:09.999Z</time></trkpt><trkpt lat="35.972137300807155" lon="10.4614781759522"><ele>4.0</ele><time>2026-04-04T18:32:10.999Z</time></trkpt><trkpt lat="35.971990894779104" lon="10.461749609387518"><ele>4.0</ele><time>2026-04-04T18:32:11.999Z</time></trkpt><trkpt lat="35.971847299211234" lon="10.462021881362896"><ele>4.0</ele><time>2026-04-04T18:32:12.999Z</time></trkpt><trkpt lat="35.971711039952694" lon="10.462294420888606"><ele>4.0</ele><time>2026-04-04T18:32:13.999Z</time></trkpt><trkpt lat="35.97157836879691" lon="10.462566870699526"><ele>4.0</ele><time>2026-04-04T18:32:14.999Z</time></trkpt><trkpt lat="35.971446651595905" lon="10.462840786363286"><ele>4.0</ele><time>2026-04-04T18:32:15.999Z</time></trkpt><trkpt lat="35.9713200216608" lon="10.463113695404214"><ele>4.0</ele><time>2026-04-04T18:32:16.999Z</time></trkpt><trkpt lat="35.976222765522884" lon="10.455396562390158"><ele>4.0</ele><time>2026-04-04T18:31:46.999Z</time></trkpt><trkpt lat="35.97600107084236" lon="10.455660348703882"><ele>4.0</ele><time>2026-04-04T18:31:47.999Z</time></trkpt><trkpt lat="35.975783537998296" lon="10.455931710972681"><ele>4.0</ele><time>2026-04-04T18:31:48.999Z</time></trkpt><trkpt lat="35.97556845234363" lon="10.456203971942484"><ele>4.0</ele><time>2026-04-04T18:31:49.999Z</time></trkpt><trkpt lat="35.97535994654477" lon="10.456476977390675"><ele>4.5</ele><time>2026-04-04T18:31:50.999Z</time></trkpt><trkpt lat="35.97516793851998" lon="10.456733878204199"><ele>5.0</ele><time>2026-04-04T18:31:51.999Z</time></trkpt><trkpt lat="35.97498700049252" lon="10.456981052101723"><ele>4.5</ele><time>2026-04-04T18:31:52.999Z</time></trkpt><trkpt lat="35.97481047930425" lon="10.457223147825763"><ele>4.0</ele><time>2026-04-04T18:31:53.999Z</time></trkpt><trkpt lat="35.9746412097298" lon="10.457457040426334"><ele>4.0</ele><time>2026-04-04T18:31:54.999Z</time></trkpt><trkpt lat="35.97447845793621" lon="10.45768890141415"><ele>4.0</ele><time>2026-04-04T18:31:55.999Z</time></trkpt><trkpt lat="35.974320457992604" lon="10.457917659343982"><ele>4.0</ele><time>2026-04-04T18:31:56.999Z</time></trkpt><trkpt lat="35.974165465371534" lon="10.45814653386179"><ele>4.0</ele><time>2026-04-04T18:31:57.999Z</time></trkpt><trkpt lat="35.97401351578408" lon="10.458376202833781"><ele>4.0</ele><time>2026-04-04T18:31:58.999Z</time></trkpt><trkpt lat="35.97386266470972" lon="10.458609203914635"><ele>4.0</ele><time>2026-04-04T18:31:59.999Z</time></trkpt><trkpt lat="35.97370290756545" lon="10.458858079717919"><ele>2.5</ele><time>2026-04-04T18:32:00.999Z</time></trkpt><trkpt lat="35.97354023896687" lon="10.45910711856193"><ele>1.0</ele><time>2026-04-04T18:32:01.999Z</time></trkpt><trkpt lat="35.97338073121167" lon="10.459364275556146"><ele>2.0</ele><time>2026-04-04T18:32:02.999Z</time></trkpt><trkpt lat="35.973220467842495" lon="10.459621936151649"><ele>3.0</ele><time>2026-04-04T18:32:03.999Z</time></trkpt><trkpt lat="35.97306047107635" lon="10.459882536020972"><ele>3.0</ele><time>2026-04-04T18:32:04.999Z</time></trkpt><trkpt lat="35.972901788446976" lon="10.460148940039758"><ele>3.0</ele><time>2026-04-04T18:32:05.999Z</time></trkpt><trkpt lat="35.9727472940061" lon="10.460414326557252"><ele>3.0</ele><time>2026-04-04T18:32:06.999Z</time></trkpt><trkpt lat="35.972591288841286" lon="10.460677758602605"><ele>3.0</ele><time>2026-04-04T18:32:07.999Z</time></trkpt><trkpt lat="35.972435750240706" lon="10.46094406398879"><ele>3.5</ele><time>2026-04-04T18:32:08.999Z</time></trkpt><trkpt lat="35.97228554567742" lon="10.461210675582665"><ele>4.0</ele><time>2026-04-04T18:32:09.999Z</time></trkpt><trkpt lat="35.972137300807155" lon="10.4614781759522"><ele>4.0</ele><time>2026-04-04T18:32:10.999Z</time></trkpt><trkpt lat="35.971990894779104" lon="10.461749609387518"><ele>4.0</ele><time>2026-04-04T18:32:11.999Z</time></trkpt><trkpt lat="35.971847299211234" lon="10.462021881362896"><ele>4.0</ele><time>2026-04-04T18:32:12.999Z</time></trkpt><trkpt lat="35.971711039952694" lon="10.462294420888606"><ele>4.0</ele><time>2026-04-04T18:32:13.999Z</time></trkpt><trkpt lat="35.97157836879691" lon="10.462566870699526"><ele>4.0</ele><time>2026-04-04T18:32:14.999Z</time></trkpt><trkpt lat="35.971446651595905" lon="10.462840786363286"><ele>4.0</ele><time>2026-04-04T18:32:15.999Z</time></trkpt><trkpt lat="35.9713200216608" lon="10.463113695404214"><ele>4.0</ele><time>2026-04-04T18:32:16.999Z</time></trkpt><trkpt lat="35.9711943801898" lon="10.463385232231769"><ele>4.0</ele><time>2026-04-04T18:32:17.999Z</time></trkpt><trkpt lat="35.97107175047535" lon="10.46365803692362"><ele>4.0</ele><time>2026-04-04T18:32:18.999Z</time></trkpt><trkpt lat="35.97095484441602" lon="10.463925285602924"><ele>4.0</ele><time>2026-04-04T18:32:19.999Z</time></trkpt><trkpt lat="35.970836281900944" lon="10.464191394665738"><ele>4.5</ele><time>2026-04-04T18:32:20.999Z</time></trkpt><trkpt lat="35.970715813575126" lon="10.464465550304178"><ele>5.0</ele><time>2026-04-04T18:32:21.999Z</time></trkpt><trkpt lat="35.97059382573048" lon="10.464740861369632"><ele>5.0</ele><time>2026-04-04T18:32:22.999Z</time></trkpt><trkpt lat="35.970476463789254" lon="10.465016751416226"><ele>5.0</ele><time>2026-04-04T18:32:23.999Z</time></trkpt><trkpt lat="35.9703693453386" lon="10.465278047860402"><ele>5.0</ele><time>2026-04-04T18:32:24.999Z</time></trkpt><trkpt lat="35.970263716841906" lon="10.46552936263294"><ele>5.0</ele><time>2026-04-04T18:32:25.999Z</time></trkpt><trkpt lat="35.97015441273031" lon="10.465781509438347"><ele>5.0</ele><time>2026-04-04T18:32:26.999Z</time></trkpt><trkpt lat="35.97004343167994" lon="10.466049895374141"><ele>5.0</ele><time>2026-04-04T18:32:27.999Z</time></trkpt><trkpt lat="35.969931125431884" lon="10.466320464369492"><ele>6.0</ele><time>2026-04-04T18:32:28.999Z</time></trkpt><trkpt lat="35.96981355140392" lon="10.466597745933983"><ele>7.0</ele><time>2026-04-04T18:32:29.999Z</time></trkpt><trkpt lat="35.969694606397496" lon="10.466881079525566"><ele>7.0</ele><time>2026-04-04T18:32:31Z</time></trkpt><trkpt lat="35.969573501212324" lon="10.467167652603393"><ele>7.0</ele><time>2026-04-04T18:32:32Z</time></trkpt><trkpt lat="35.96945314967873" lon="10.46745650428651"><ele>7.0</ele><time>2026-04-04T18:32:33Z</time></trkpt><trkpt lat="35.969333654573326" lon="10.467750095109608"><ele>7.0</ele><time>2026-04-04T18:32:34Z</time></trkpt><trkpt lat="35.96921473404306" lon="10.468047956949274"><ele>7.0</ele><time>2026-04-04T18:32:35Z</time></trkpt><trkpt lat="35.96909494234183" lon="10.468347040393512"><ele>7.0</ele><time>2026-04-04T18:32:36Z</time></trkpt><trkpt lat="35.96897013697124" lon="10.46864714118084"><ele>9.5</ele><time>2026-04-04T18:32:37Z</time></trkpt><trkpt lat="35.96884243787974" lon="10.468945532335436"><ele>12.0</ele><time>2026-04-04T18:32:38Z</time></trkpt><trkpt lat="35.968716512586354" lon="10.469246346090234"><ele>12.0</ele><time>2026-04-04T18:32:39Z</time></trkpt><trkpt lat="35.9685913815441" lon="10.469543472673509"><ele>12.0</ele><time>2026-04-04T18:32:40Z</time></trkpt><trkpt lat="35.96846689514233" lon="10.46983920667237"><ele>13.0</ele><time>2026-04-04T18:32:41Z</time></trkpt><trkpt lat="35.96834379601322" lon="10.470130959062667"><ele>14.0</ele><time>2026-04-04T18:32:42Z</time></trkpt><trkpt lat="35.968219750424765" lon="10.470424227861905"><ele>13.5</ele><time>2026-04-04T18:32:43Z</time></trkpt><trkpt lat="35.968097525498756" lon="10.470715053879115"><ele>13.0</ele><time>2026-04-04T18:32:44Z</time></trkpt><trkpt lat="35.96797491046804" lon="10.471007284133783"><ele>14.0</ele><time>2026-04-04T18:32:45Z</time></trkpt><trkpt lat="35.96785249032688" lon="10.471306471292722"><ele>15.0</ele><time>2026-04-04T18:32:46Z</time></trkpt><trkpt lat="35.96772509124066" lon="10.471602991797042"><ele>15.0</ele><time>2026-04-04T18:32:47Z</time></trkpt><trkpt lat="35.9675946093118" lon="10.471896660342011"><ele>15.0</ele><time>2026-04-04T18:32:48Z</time></trkpt><trkpt lat="35.967462924466844" lon="10.472183232140187"><ele>16.0</ele><time>2026-04-04T18:32:49Z</time></trkpt><trkpt lat="35.96733044393393" lon="10.472462211353836"><ele>17.0</ele><time>2026-04-04T18:32:50Z</time></trkpt><trkpt lat="35.96719459859348" lon="10.472738911764568"><ele>17.5</ele><time>2026-04-04T18:32:51Z</time></trkpt><trkpt lat="35.96705728245555" lon="10.473011944836584"><ele>18.0</ele><time>2026-04-04T18:32:52Z</time></trkpt><trkpt lat="35.96691751535738" lon="10.473278789164702"><ele>18.0</ele><time>2026-04-04T18:32:53Z</time></trkpt><trkpt lat="35.9667725862142" lon="10.473543330542748"><ele>18.0</ele><time>2026-04-04T18:32:54Z</time></trkpt><trkpt lat="35.96662911639595" lon="10.473801196732602"><ele>18.5</ele><time>2026-04-04T18:32:55Z</time></trkpt><trkpt lat="35.966493584945695" lon="10.474045442187364"><ele>19.0</ele><time>2026-04-04T18:32:56Z</time></trkpt><trkpt lat="35.96636495735712" lon="10.474267827704153"><ele>19.0</ele><time>2026-04-04T18:32:57Z</time></trkpt><trkpt lat="35.96623837941706" lon="10.474478433678486"><ele>19.0</ele><time>2026-04-04T18:32:58Z</time></trkpt><trkpt lat="35.96611314221906" lon="10.474679420917752"><ele>19.0</ele><time>2026-04-04T18:32:59Z</time></trkpt><trkpt lat="35.96598788266478" lon="10.47488095653094"><ele>19.333333333333332</ele><time>2026-04-04T18:33:00Z</time></trkpt><trkpt lat="35.96586053916447" lon="10.475082784254175"><ele>19.666666666666668</ele><time>2026-04-04T18:33:01Z</time></trkpt><trkpt lat="35.965731298023385" lon="10.475282428367512"><ele>20.0</ele><time>2026-04-04T18:33:02Z</time></trkpt><trkpt lat="35.96560066457303" lon="10.475483745284917"><ele>20.0</ele><time>2026-04-04T18:33:03Z</time></trkpt><trkpt lat="35.9654731656518" lon="10.475685583889708"><ele>20.0</ele><time>2026-04-04T18:33:04Z</time></trkpt><trkpt lat="35.9653418191958" lon="10.475881903989569"><ele>20.0</ele><time>2026-04-04T18:33:05Z</time></trkpt><trkpt lat="35.9652060480873" lon="10.476074863801939"><ele>19.666666666666668</ele><time>2026-04-04T18:33:06Z</time></trkpt><trkpt lat="35.965068800289814" lon="10.4762761058351"><ele>19.333333333333332</ele><time>2026-04-04T18:33:07Z</time></trkpt><trkpt lat="35.96492954696983" lon="10.476485944542985"><ele>19.0</ele><time>2026-04-04T18:33:08Z</time></trkpt><trkpt lat="35.964786386369035" lon="10.47669724212743"><ele>20.5</ele><time>2026-04-04T18:33:09Z</time></trkpt><trkpt lat="35.96464109286487" lon="10.476915243693252"><ele>22.0</ele><time>2026-04-04T18:33:10Z</time></trkpt><trkpt lat="35.96449525680718" lon="10.477141576359715"><ele>22.5</ele><time>2026-04-04T18:33:11Z</time></trkpt><trkpt lat="35.96434645707397" lon="10.477377389451005"><ele>23.0</ele><time>2026-04-04T18:33:12Z</time></trkpt><trkpt lat="35.964197296091356" lon="10.477622908345852"><ele>23.5</ele><time>2026-04-04T18:33:13Z</time></trkpt><trkpt lat="35.96404637795681" lon="10.477870146162918"><ele>24.0</ele><time>2026-04-04T18:33:14Z</time></trkpt><trkpt lat="35.96389268175763" lon="10.478121773445107"><ele>23.0</ele><time>2026-04-04T18:33:15Z</time></trkpt><trkpt lat="35.9637453625575" lon="10.478361991957357"><ele>22.0</ele><time>2026-04-04T18:33:16Z</time></trkpt><trkpt lat="35.963607483543065" lon="10.478602053356282"><ele>22.0</ele><time>2026-04-04T18:33:17Z</time></trkpt><trkpt lat="35.96347014455305" lon="10.47884565509098"><ele>22.0</ele><time>2026-04-04T18:33:18Z</time></trkpt><trkpt lat="35.963333130242845" lon="10.47910050077432"><ele>24.5</ele><time>2026-04-04T18:33:19Z</time></trkpt><trkpt lat="35.96319382581961" lon="10.479362559827443"><ele>27.0</ele><time>2026-04-04T18:33:20Z</time></trkpt><trkpt lat="35.963057005080955" lon="10.479623265429712"><ele>28.5</ele><time>2026-04-04T18:33:21Z</time></trkpt><trkpt lat="35.962918966786525" lon="10.479887132398517"><ele>30.0</ele><time>2026-04-04T18:33:22Z</time></trkpt><trkpt lat="35.96278305745211" lon="10.480155217866885"><ele>30.0</ele><time>2026-04-04T18:33:23Z</time></trkpt><trkpt lat="35.96265480128244" lon="10.480426081660614"><ele>30.0</ele><time>2026-04-04T18:33:24Z</time></trkpt><trkpt lat="35.962532471687034" lon="10.480701121068796"><ele>31.0</ele><time>2026-04-04T18:33:25Z</time></trkpt><trkpt lat="35.962414578847806" lon="10.480977174423359"><ele>32.0</ele><time>2026-04-04T18:33:26Z</time></trkpt><trkpt lat="35.962296218899766" lon="10.481255705464248"><ele>33.5</ele><time>2026-04-04T18:33:27Z</time></trkpt><trkpt lat="35.962175687167864" lon="10.481543432005001"><ele>35.0</ele><time>2026-04-04T18:33:28Z</time></trkpt><trkpt lat="35.96205640908377" lon="10.481840383631605"><ele>36.0</ele><time>2026-04-04T18:33:29Z</time></trkpt><trkpt lat="35.961938797361036" lon="10.482147085570103"><ele>37.0</ele><time>2026-04-04T18:33:30Z</time></trkpt><trkpt lat="35.96182423899079" lon="10.482459527632832"><ele>37.0</ele><time>2026-04-04T18:33:31Z</time></trkpt><trkpt lat="35.961711415940655" lon="10.482780888869252"><ele>37.0</ele><time>2026-04-04T18:33:31.999Z</time></trkpt><trkpt lat="35.96159478863843" lon="10.483134890320125"><ele>35.5</ele><time>2026-04-04T18:33:32.999Z</time></trkpt><trkpt lat="35.96148254696903" lon="10.48349384962756"><ele>34.0</ele><time>2026-04-04T18:33:33.999Z</time></trkpt><trkpt lat="35.96137468810336" lon="10.483848379845192"><ele>34.0</ele><time>2026-04-04T18:33:34.999Z</time></trkpt><trkpt lat="35.96127014663065" lon="10.484207681788"><ele>34.0</ele><time>2026-04-04T18:33:35.999Z</time></trkpt><trkpt lat="35.961172146328295" lon="10.48456307424024"><ele>34.0</ele><time>2026-04-04T18:33:36.999Z</time></trkpt><trkpt lat="35.96108728133206" lon="10.484893601219586"><ele>34.0</ele><time>2026-04-04T18:33:37.999Z</time></trkpt><trkpt lat="35.96101013999672" lon="10.485215659675678"><ele>34.5</ele><time>2026-04-04T18:33:38.999Z</time></trkpt><trkpt lat="35.96093766065758" lon="10.48554117729737"><ele>35.0</ele><time>2026-04-04T18:33:39.999Z</time></trkpt><trkpt lat="35.96086664210059" lon="10.485871600043732"><ele>35.0</ele><time>2026-04-04T18:33:40.999Z</time></trkpt><trkpt lat="35.960797528733316" lon="10.486201967290357"><ele>35.0</ele><time>2026-04-04T18:33:41.999Z</time></trkpt><trkpt lat="35.96073134976835" lon="10.4865306306994"><ele>35.0</ele><time>2026-04-04T18:33:42.999Z</time></trkpt><trkpt lat="35.960672689006884" lon="10.486861503404342"><ele>35.0</ele><time>2026-04-04T18:33:43.999Z</time></trkpt><trkpt lat="35.96061985473328" lon="10.487189089451139"><ele>35.0</ele><time>2026-04-04T18:33:44.999Z</time></trkpt><trkpt lat="35.96057290682241" lon="10.487504357615492"><ele>35.0</ele><time>2026-04-04T18:33:45.999Z</time></trkpt><trkpt lat="35.960529644734294" lon="10.487817934978537"><ele>34.5</ele><time>2026-04-04T18:33:46.999Z</time></trkpt><trkpt lat="35.960488656395896" lon="10.48813291797976"><ele>34.0</ele><time>2026-04-04T18:33:47.999Z</time></trkpt><trkpt lat="35.96044973353855" lon="10.488447629100497"><ele>35.0</ele><time>2026-04-04T18:33:48.999Z</time></trkpt><trkpt lat="35.960417066802414" lon="10.488761867130565"><ele>36.0</ele><time>2026-04-04T18:33:49.999Z</time></trkpt><trkpt lat="35.96039069740902" lon="10.489081236170312"><ele>36.0</ele><time>2026-04-04T18:33:50.999Z</time></trkpt><trkpt lat="35.96036627078329" lon="10.489408063079408"><ele>36.0</ele><time>2026-04-04T18:33:51.999Z</time></trkpt><trkpt lat="35.96034121010754" lon="10.489739822046987"><ele>36.5</ele><time>2026-04-04T18:33:52.999Z</time></trkpt><trkpt lat="35.96031520073732" lon="10.49006930973597"><ele>37.0</ele><time>2026-04-04T18:33:53.999Z</time></trkpt><trkpt lat="35.960291817754744" lon="10.490396947116777"><ele>36.5</ele><time>2026-04-04T18:33:54.999Z</time></trkpt><trkpt lat="35.96027120136774" lon="10.490723948227963"><ele>36.0</ele><time>2026-04-04T18:33:55.999Z</time></trkpt><trkpt lat="35.960246119533" lon="10.491045617470737"><ele>35.5</ele><time>2026-04-04T18:33:56.999Z</time></trkpt><trkpt lat="35.960212799472664" lon="10.491364645872507"><ele>35.0</ele><time>2026-04-04T18:33:57.999Z</time></trkpt><trkpt lat="35.96018270278246" lon="10.491683113808655"><ele>35.0</ele><time>2026-04-04T18:33:58.999Z</time></trkpt><trkpt lat="35.96015893332406" lon="10.491993119474953"><ele>35.0</ele><time>2026-04-04T18:33:59.999Z</time></trkpt><trkpt lat="35.96013660197076" lon="10.49228755388639"><ele>32.5</ele><time>2026-04-04T18:34:00.999Z</time></trkpt><trkpt lat="35.960112417262906" lon="10.492581283404878"><ele>30.0</ele><time>2026-04-04T18:34:01.999Z</time></trkpt><trkpt lat="35.960081923859" lon="10.492873946378623"><ele>30.5</ele><time>2026-04-04T18:34:02.999Z</time></trkpt><trkpt lat="35.96004211616988" lon="10.49317356164491"><ele>31.0</ele><time>2026-04-04T18:34:03.999Z</time></trkpt><trkpt lat="35.95999615556102" lon="10.493479607903613"><ele>31.0</ele><time>2026-04-04T18:34:04.999Z</time></trkpt><trkpt lat="35.95994791335286" lon="10.493790875883974"><ele>31.0</ele><time>2026-04-04T18:34:05.999Z</time></trkpt><trkpt lat="35.9598932846863" lon="10.494096521498228"><ele>31.0</ele><time>2026-04-04T18:34:06.999Z</time></trkpt><trkpt lat="35.959832773519366" lon="10.4944065643384"><ele>31.0</ele><time>2026-04-04T18:34:07.999Z</time></trkpt><trkpt lat="35.95976605744129" lon="10.494718231977654"><ele>30.0</ele><time>2026-04-04T18:34:08.999Z</time></trkpt><trkpt lat="35.95969471008583" lon="10.49503091551631"><ele>29.0</ele><time>2026-04-04T18:34:09.999Z</time></trkpt><trkpt lat="35.959616321062" lon="10.495335207610362"><ele>28.0</ele><time>2026-04-04T18:34:10.999Z</time></trkpt><trkpt lat="35.959533028325986" lon="10.495632594720457"><ele>27.0</ele><time>2026-04-04T18:34:11.999Z</time></trkpt><trkpt lat="35.95944920463982" lon="10.49592826445337"><ele>27.0</ele><time>2026-04-04T18:34:12.999Z</time></trkpt><trkpt lat="35.95936326872412" lon="10.496214029130423"><ele>27.0</ele><time>2026-04-04T18:34:13.999Z</time></trkpt><trkpt lat="35.9592727295387" lon="10.496491023744209"><ele>28.5</ele><time>2026-04-04T18:34:14.999Z</time></trkpt><trkpt lat="35.959180683583966" lon="10.496760463374208"><ele>30.0</ele><time>2026-04-04T18:34:15.999Z</time></trkpt><trkpt lat="35.959086242935" lon="10.497021456207728"><ele>30.0</ele><time>2026-04-04T18:34:16.999Z</time></trkpt><trkpt lat="35.95898666537092" lon="10.497278200885841"><ele>30.0</ele><time>2026-04-04T18:34:17.999Z</time></trkpt><trkpt lat="35.95888761410833" lon="10.497531581535222"><ele>30.0</ele><time>2026-04-04T18:34:18.999Z</time></trkpt><trkpt lat="35.95878759580402" lon="10.497785270824256"><ele>30.0</ele><time>2026-04-04T18:34:19.999Z</time></trkpt><trkpt lat="35.958676276778334" lon="10.498041443514389"><ele>28.0</ele><time>2026-04-04T18:34:20.999Z</time></trkpt><trkpt lat="35.95855283851266" lon="10.498297641172483"><ele>26.0</ele><time>2026-04-04T18:34:21.999Z</time></trkpt><trkpt lat="35.9584266932015" lon="10.498555045941208"><ele>26.0</ele><time>2026-04-04T18:34:22.999Z</time></trkpt><trkpt lat="35.95829551173241" lon="10.498813273243574"><ele>26.0</ele><time>2026-04-04T18:34:23.999Z</time></trkpt><trkpt lat="35.95815977823199" lon="10.499066779150272"><ele>26.0</ele><time>2026-04-04T18:34:24.999Z</time></trkpt><trkpt lat="35.95801744222912" lon="10.499316054608691"><ele>26.0</ele><time>2026-04-04T18:34:25.999Z</time></trkpt><trkpt lat="35.957873367708416" lon="10.499568281180172"><ele>24.0</ele><time>2026-04-04T18:34:26.999Z</time></trkpt><trkpt lat="35.95772794265384" lon="10.499817681001192"><ele>22.0</ele><time>2026-04-04T18:34:27.999Z</time></trkpt><trkpt lat="35.9575747126249" lon="10.50006816484932"><ele>22.0</ele><time>2026-04-04T18:34:28.999Z</time></trkpt><trkpt lat="35.957416254946835" lon="10.50031280131528"><ele>22.0</ele><time>2026-04-04T18:34:29.999Z</time></trkpt><trkpt lat="35.957252338379554" lon="10.500549286564263"><ele>22.0</ele><time>2026-04-04T18:34:30.999Z</time></trkpt><trkpt lat="35.957094292126975" lon="10.500773325317367"><ele>22.0</ele><time>2026-04-04T18:34:31.999Z</time></trkpt><trkpt lat="35.95694282972986" lon="10.50098214406194"><ele>22.0</ele><time>2026-04-04T18:34:32.999Z</time></trkpt><trkpt lat="35.95679316971117" lon="10.501178163816968"><ele>22.0</ele><time>2026-04-04T18:34:33.999Z</time></trkpt><trkpt lat="35.956640477744344" lon="10.501373981131138"><ele>22.0</ele><time>2026-04-04T18:34:34.999Z</time></trkpt><trkpt lat="35.95647921159732" lon="10.501573294919492"><ele>22.666666666666664</ele><time>2026-04-04T18:34:35.999Z</time></trkpt><trkpt lat="35.956320240692364" lon="10.501763871046172"><ele>23.333333333333332</ele><time>2026-04-04T18:34:37Z</time></trkpt><trkpt lat="35.9561682635084" lon="10.501943142057534"><ele>24.0</ele><time>2026-04-04T18:34:38Z</time></trkpt><trkpt lat="35.956021954600764" lon="10.502108833272988"><ele>24.333333333333336</ele><time>2026-04-04T18:34:39Z</time></trkpt><trkpt lat="35.95588098876816" lon="10.50226474802275"><ele>24.666666666666668</ele><time>2026-04-04T18:34:40Z</time></trkpt><trkpt lat="35.95574543803782" lon="10.502412886661775"><ele>25.0</ele><time>2026-04-04T18:34:41Z</time></trkpt><trkpt lat="35.95561832377178" lon="10.50254989335775"><ele>25.25</ele><time>2026-04-04T18:34:42Z</time></trkpt><trkpt lat="35.95551089631636" lon="10.5026617167695"><ele>25.5</ele><time>2026-04-04T18:34:43Z</time></trkpt><trkpt lat="35.95541012199999" lon="10.502759997430486"><ele>25.75</ele><time>2026-04-04T18:34:44Z</time></trkpt><trkpt lat="35.955314088522755" lon="10.502855445804096"><ele>26.0</ele><time>2026-04-04T18:34:45Z</time></trkpt><trkpt lat="35.955227670899475" lon="10.502945467306292"><ele>26.0</ele><time>2026-04-04T18:34:46Z</time></trkpt><trkpt lat="35.955149099919105" lon="10.503025467285262"><ele>26.0</ele><time>2026-04-04T18:34:47Z</time></trkpt><trkpt lat="35.95507604900577" lon="10.503099563821138"><ele>26.0</ele><time>2026-04-04T18:34:48Z</time></trkpt><trkpt lat="35.95500315811165" lon="10.503171544455657"><ele>26.0</ele><time>2026-04-04T18:34:49Z</time></trkpt><trkpt lat="35.954923862985645" lon="10.503246066161438"><ele>26.0</ele><time>2026-04-04T18:34:50Z</time></trkpt><trkpt lat="35.95483784244415" lon="10.503327650721433"><ele>26.75</ele><time>2026-04-04T18:34:51Z</time></trkpt><trkpt lat="35.95474219194715" lon="10.503419965641655"><ele>27.5</ele><time>2026-04-04T18:34:52Z</time></trkpt><trkpt lat="35.95464214081364" lon="10.50351560493005"><ele>28.25</ele><time>2026-04-04T18:34:53Z</time></trkpt><trkpt lat="35.9545409623437" lon="10.503616031402897"><ele>29.0</ele><time>2026-04-04T18:34:54Z</time></trkpt><trkpt lat="35.95443618834107" lon="10.503722103945899"><ele>29.0</ele><time>2026-04-04T18:34:55Z</time></trkpt><trkpt lat="35.954327589496174" lon="10.503832574696169"><ele>29.0</ele><time>2026-04-04T18:34:56Z</time></trkpt><trkpt lat="35.95421476198916" lon="10.503949254896044"><ele>29.0</ele><time>2026-04-04T18:34:57Z</time></trkpt><trkpt lat="35.95409533256097" lon="10.504071527452231"><ele>29.0</ele><time>2026-04-04T18:34:58Z</time></trkpt><trkpt lat="35.95396809274867" lon="10.504195741104022"><ele>29.0</ele><time>2026-04-04T18:34:59Z</time></trkpt><trkpt lat="35.95383799367715" lon="10.504322266701127"><ele>29.0</ele><time>2026-04-04T18:35:00Z</time></trkpt><trkpt lat="35.9537035824097" lon="10.504451216857065"><ele>29.0</ele><time>2026-04-04T18:35:01Z</time></trkpt><trkpt lat="35.95356521916321" lon="10.504582097146228"><ele>29.0</ele><time>2026-04-04T18:35:02Z</time></trkpt><trkpt lat="35.953427412659515" lon="10.50471649450756"><ele>29.0</ele><time>2026-04-04T18:35:03Z</time></trkpt><trkpt lat="35.953293068528154" lon="10.50485309446674"><ele>29.0</ele><time>2026-04-04T18:35:04Z</time></trkpt><trkpt lat="35.953154877448554" lon="10.504991691061022"><ele>29.0</ele><time>2026-04-04T18:35:05Z</time></trkpt><trkpt lat="35.95301272454307" lon="10.505133067495157"><ele>29.0</ele><time>2026-04-04T18:35:06Z</time></trkpt><trkpt lat="35.952866983178694" lon="10.505280722152479"><ele>29.0</ele><time>2026-04-04T18:35:07Z</time></trkpt><trkpt lat="35.952717985742645" lon="10.50543064314453"><ele>29.0</ele><time>2026-04-04T18:35:08Z</time></trkpt><trkpt lat="35.95256302643227" lon="10.505582890990283"><ele>29.0</ele><time>2026-04-04T18:35:09Z</time></trkpt><trkpt lat="35.95240414272159" lon="10.505740979081823"><ele>29.0</ele><time>2026-04-04T18:35:10Z</time></trkpt><trkpt lat="35.952241457345586" lon="10.505904179536032"><ele>30.333333333333332</ele><time>2026-04-04T18:35:11Z</time></trkpt><trkpt lat="35.95207716880267" lon="10.506069615014448"><ele>31.666666666666664</ele><time>2026-04-04T18:35:12Z</time></trkpt><trkpt lat="35.95190634716224" lon="10.506239341740619"><ele>33.0</ele><time>2026-04-04T18:35:13Z</time></trkpt><trkpt lat="35.95173366785703" lon="10.506409857552937"><ele>34.333333333333336</ele><time>2026-04-04T18:35:14Z</time></trkpt><trkpt lat="35.95156265491057" lon="10.506578783558487"><ele>35.66666666666667</ele><time>2026-04-04T18:35:15Z</time></trkpt><trkpt lat="35.95139073624447" lon="10.506747543782186"><ele>37.0</ele><time>2026-04-04T18:35:16Z</time></trkpt><trkpt lat="35.951227294819184" lon="10.506906858209716"><ele>37.0</ele><time>2026-04-04T18:35:17Z</time></trkpt><trkpt lat="35.951074204665275" lon="10.507057254772603"><ele>37.0</ele><time>2026-04-04T18:35:18Z</time></trkpt><trkpt lat="35.95092311583526" lon="10.507206995861935"><ele>37.0</ele><time>2026-04-04T18:35:19Z</time></trkpt><trkpt lat="35.950769366232386" lon="10.507358198552742"><ele>37.333333333333336</ele><time>2026-04-04T18:35:20Z</time></trkpt><trkpt lat="35.95061003362837" lon="10.507507843260884"><ele>37.666666666666664</ele><time>2026-04-04T18:35:21Z</time></trkpt><trkpt lat="35.95044649511666" lon="10.507655911723143"><ele>38.0</ele><time>2026-04-04T18:35:22Z</time></trkpt><trkpt lat="35.95028974900426" lon="10.507793929758604"><ele>38.0</ele><time>2026-04-04T18:35:23Z</time></trkpt><trkpt lat="35.95013652026782" lon="10.50792590583161"><ele>38.0</ele><time>2026-04-04T18:35:24Z</time></trkpt><trkpt lat="35.94998677956377" lon="10.508048488745352"><ele>38.0</ele><time>2026-04-04T18:35:25Z</time></trkpt><trkpt lat="35.94983777322974" lon="10.508165738197462"><ele>39.33333333333333</ele><time>2026-04-04T18:35:26Z</time></trkpt><trkpt lat="35.94968872042089" lon="10.508284571622891"><ele>40.666666666666664</ele><time>2026-04-04T18:35:27Z</time></trkpt><trkpt lat="35.94953925923197" lon="10.508402361457899"><ele>42.0</ele><time>2026-04-04T18:35:28Z</time></trkpt><trkpt lat="35.94938948705307" lon="10.508516178116915"><ele>42.0</ele><time>2026-04-04T18:35:29Z</time></trkpt><trkpt lat="35.949240275084556" lon="10.508626284980618"><ele>42.0</ele><time>2026-04-04T18:35:30Z</time></trkpt><trkpt lat="35.94908964359319" lon="10.508732735701692"><ele>42.0</ele><time>2026-04-04T18:35:31Z</time></trkpt><trkpt lat="35.94893855093495" lon="10.50883339221599"><ele>40.666666666666664</ele><time>2026-04-04T18:35:32Z</time></trkpt><trkpt lat="35.94878552205662" lon="10.508933254849879"><ele>39.33333333333333</ele><time>2026-04-04T18:35:33Z</time></trkpt><trkpt lat="35.94862943442306" lon="10.50903127362627"><ele>38.0</ele><time>2026-04-04T18:35:34Z</time></trkpt><trkpt lat="35.94848337027739" lon="10.509120988526053"><ele>38.33333333333333</ele><time>2026-04-04T18:35:35Z</time></trkpt><trkpt lat="35.948337360917954" lon="10.509209282988563"><ele>38.666666666666664</ele><time>2026-04-04T18:35:36Z</time></trkpt><trkpt lat="35.94819111848164" lon="10.509299076569627"><ele>39.0</ele><time>2026-04-04T18:35:36.999Z</time></trkpt><trkpt lat="35.948041306115925" lon="10.509380487426892"><ele>39.0</ele><time>2026-04-04T18:35:37.999Z</time></trkpt><trkpt lat="35.947892245067166" lon="10.509458070687645"><ele>39.0</ele><time>2026-04-04T18:35:38.999Z</time></trkpt><trkpt lat="35.94774034728959" lon="10.509537733231396"><ele>39.0</ele><time>2026-04-04T18:35:39.999Z</time></trkpt><trkpt lat="35.94758795302951" lon="10.50961257241442"><ele>39.0</ele><time>2026-04-04T18:35:40.999Z</time></trkpt><trkpt lat="35.94743293031847" lon="10.509688730765392"><ele>39.0</ele><time>2026-04-04T18:35:41.999Z</time></trkpt><trkpt lat="35.947274563799255" lon="10.5097603685935"><ele>39.0</ele><time>2026-04-04T18:35:42.999Z</time></trkpt><trkpt lat="35.94711467474381" lon="10.509828149074986"><ele>39.0</ele><time>2026-04-04T18:35:43.999Z</time></trkpt><trkpt lat="35.94695466329073" lon="10.509893226799884"><ele>39.0</ele><time>2026-04-04T18:35:44.999Z</time></trkpt><trkpt lat="35.94680029968675" lon="10.509955294416196"><ele>39.0</ele><time>2026-04-04T18:35:45.999Z</time></trkpt><trkpt lat="35.94665443850371" lon="10.510011069129426"><ele>39.333333333333336</ele><time>2026-04-04T18:35:46.999Z</time></trkpt><trkpt lat="35.94650584544087" lon="10.510065243424293"><ele>39.66666666666667</ele><time>2026-04-04T18:35:47.999Z</time></trkpt><trkpt lat="35.946355062724805" lon="10.510123184675505"><ele>40.0</ele><time>2026-04-04T18:35:48.999Z</time></trkpt><trkpt lat="35.94620633496662" lon="10.510177969108367"><ele>40.0</ele><time>2026-04-04T18:35:49.999Z</time></trkpt><trkpt lat="35.94605624344615" lon="10.510225168912287"><ele>40.0</ele><time>2026-04-04T18:35:50.999Z</time></trkpt><trkpt lat="35.94590664534047" lon="10.510266136828237"><ele>40.0</ele><time>2026-04-04T18:35:51.999Z</time></trkpt><trkpt lat="35.945757582373155" lon="10.510306436652831"><ele>40.25</ele><time>2026-04-04T18:35:52.999Z</time></trkpt><trkpt lat="35.945618471789274" lon="10.510344898303044"><ele>40.5</ele><time>2026-04-04T18:35:53.999Z</time></trkpt><trkpt lat="35.9454860825424" lon="10.510380853672348"><ele>40.75</ele><time>2026-04-04T18:35:54.999Z</time></trkpt><trkpt lat="35.94535310751371" lon="10.510412268739753"><ele>41.0</ele><time>2026-04-04T18:35:55.999Z</time></trkpt><trkpt lat="35.945215574706054" lon="10.51044271372456"><ele>43.0</ele><time>2026-04-04T18:35:56.999Z</time></trkpt><trkpt lat="35.945073688698756" lon="10.510474915858062"><ele>45.0</ele><time>2026-04-04T18:35:57.999Z</time></trkpt><trkpt lat="35.94493080299187" lon="10.510504403711012"><ele>47.0</ele><time>2026-04-04T18:35:58.999Z</time></trkpt><trkpt lat="35.944785912833964" lon="10.510530898463944"><ele>49.0</ele><time>2026-04-04T18:35:59.999Z</time></trkpt><trkpt lat="35.944637097084474" lon="10.510557012870887"><ele>49.0</ele><time>2026-04-04T18:36:00.999Z</time></trkpt><trkpt lat="35.944490102195665" lon="10.510581350356016"><ele>49.0</ele><time>2026-04-04T18:36:01.999Z</time></trkpt><trkpt lat="35.944343308792334" lon="10.51060411531709"><ele>49.0</ele><time>2026-04-04T18:36:02.999Z</time></trkpt><trkpt lat="35.94419544095912" lon="10.510625036990149"><ele>49.0</ele><time>2026-04-04T18:36:03.999Z</time></trkpt><trkpt lat="35.94404607855979" lon="10.51064219945112"><ele>48.0</ele><time>2026-04-04T18:36:04.999Z</time></trkpt><trkpt lat="35.94389834247961" lon="10.510657425063672"><ele>47.0</ele><time>2026-04-04T18:36:05.999Z</time></trkpt><trkpt lat="35.9437521263517" lon="10.510668757223467"><ele>46.0</ele><time>2026-04-04T18:36:06.999Z</time></trkpt><trkpt lat="35.943606005952354" lon="10.510678877209873"><ele>45.0</ele><time>2026-04-04T18:36:07.999Z</time></trkpt><trkpt lat="35.943461287135435" lon="10.510683783634933"><ele>45.0</ele><time>2026-04-04T18:36:08.999Z</time></trkpt><trkpt lat="35.94332092568933" lon="10.510687428568524"><ele>45.0</ele><time>2026-04-04T18:36:09.999Z</time></trkpt><trkpt lat="35.94318915821935" lon="10.510692727972422"><ele>45.0</ele><time>2026-04-04T18:36:10.999Z</time></trkpt><trkpt lat="35.94305934812439" lon="10.510695269546618"><ele>45.0</ele><time>2026-04-04T18:36:11.999Z</time></trkpt><trkpt lat="35.94293757468305" lon="10.510693893719775"><ele>45.0</ele><time>2026-04-04T18:36:12.999Z</time></trkpt><trkpt lat="35.94281487152599" lon="10.510690663082505"><ele>45.0</ele><time>2026-04-04T18:36:13.999Z</time></trkpt><trkpt lat="35.94268934456897" lon="10.51068616131093"><ele>45.0</ele><time>2026-04-04T18:36:14.999Z</time></trkpt><trkpt lat="35.94256304520758" lon="10.510683104193497"><ele>45.0</ele><time>2026-04-04T18:36:15.999Z</time></trkpt><trkpt lat="35.94243150382272" lon="10.510679294053299"><ele>45.0</ele><time>2026-04-04T18:36:16.999Z</time></trkpt><trkpt lat="35.94229776207657" lon="10.51067097514056"><ele>45.0</ele><time>2026-04-04T18:36:17.999Z</time></trkpt><trkpt lat="35.94216262765517" lon="10.510658273671194"><ele>45.0</ele><time>2026-04-04T18:36:18.999Z</time></trkpt><trkpt lat="35.942028070481385" lon="10.510644563090457"><ele>45.0</ele><time>2026-04-04T18:36:19.999Z</time></trkpt><trkpt lat="35.94189389391717" lon="10.510633206042407"><ele>45.0</ele><time>2026-04-04T18:36:20.999Z</time></trkpt><trkpt lat="35.94175766052524" lon="10.510617352022154"><ele>45.0</ele><time>2026-04-04T18:36:21.999Z</time></trkpt><trkpt lat="35.941624679306656" lon="10.510597938891392"><ele>45.0</ele><time>2026-04-04T18:36:22.999Z</time></trkpt><trkpt lat="35.94148714198961" lon="10.510580030082101"><ele>45.0</ele><time>2026-04-04T18:36:23.999Z</time></trkpt><trkpt lat="35.94134844065791" lon="10.510563396865283"><ele>46.0</ele><time>2026-04-04T18:36:24.999Z</time></trkpt><trkpt lat="35.941207828188766" lon="10.510537410604691"><ele>47.0</ele><time>2026-04-04T18:36:25.999Z</time></trkpt><trkpt lat="35.94107166524167" lon="10.5105099053657"><ele>48.0</ele><time>2026-04-04T18:36:26.999Z</time></trkpt><trkpt lat="35.9409430868378" lon="10.510483711887716"><ele>49.0</ele><time>2026-04-04T18:36:27.999Z</time></trkpt><trkpt lat="35.94081675669644" lon="10.510458623759272"><ele>49.25</ele><time>2026-04-04T18:36:28.999Z</time></trkpt><trkpt lat="35.9406954089247" lon="10.510435237900628"><ele>49.5</ele><time>2026-04-04T18:36:29.999Z</time></trkpt><trkpt lat="35.9405766646289" lon="10.510409347547888"><ele>49.75</ele><time>2026-04-04T18:36:30.999Z</time></trkpt><trkpt lat="35.94045896842748" lon="10.51038370636028"><ele>50.0</ele><time>2026-04-04T18:36:31.999Z</time></trkpt><trkpt lat="35.9403378808015" lon="10.510353650015208"><ele>50.5</ele><time>2026-04-04T18:36:32.999Z</time></trkpt><trkpt lat="35.940211726841845" lon="10.510314165214385"><ele>51.0</ele><time>2026-04-04T18:36:33.999Z</time></trkpt><trkpt lat="35.94008007883342" lon="10.510269744110245"><ele>51.5</ele><time>2026-04-04T18:36:34.999Z</time></trkpt><trkpt lat="35.93994471762765" lon="10.51022531553905"><ele>52.0</ele><time>2026-04-04T18:36:35.999Z</time></trkpt><trkpt lat="35.93980864338654" lon="10.510176781794563"><ele>52.0</ele><time>2026-04-04T18:36:36.999Z</time></trkpt><trkpt lat="35.93967072233444" lon="10.510128940911569"><ele>52.0</ele><time>2026-04-04T18:36:37.999Z</time></trkpt><trkpt lat="35.93953139322017" lon="10.510079229120572"><ele>52.0</ele><time>2026-04-04T18:36:38.999Z</time></trkpt><trkpt lat="35.93939492564286" lon="10.510024616790888"><ele>52.0</ele><time>2026-04-04T18:36:39.999Z</time></trkpt><trkpt lat="35.93925775652521" lon="10.50996516493248"><ele>51.25</ele><time>2026-04-04T18:36:40.999Z</time></trkpt><trkpt lat="35.93912018971332" lon="10.509905749155651"><ele>50.5</ele><time>2026-04-04T18:36:41.999Z</time></trkpt><trkpt lat="35.938985309505796" lon="10.509843748124318"><ele>49.75</ele><time>2026-04-04T18:36:43Z</time></trkpt><trkpt lat="35.93886018847092" lon="10.50978051736973"><ele>49.0</ele><time>2026-04-04T18:36:44Z</time></trkpt><trkpt lat="35.93874162732646" lon="10.50971573511487"><ele>49.0</ele><time>2026-04-04T18:36:45Z</time></trkpt><trkpt lat="35.93862372668266" lon="10.509646618982629"><ele>49.0</ele><time>2026-04-04T18:36:46Z</time></trkpt><trkpt lat="35.938510310685125" lon="10.509570518295966"><ele>49.0</ele><time>2026-04-04T18:36:47Z</time></trkpt><trkpt lat="35.938401779650576" lon="10.509487845171249"><ele>49.0</ele><time>2026-04-04T18:36:48Z</time></trkpt><trkpt lat="35.93829639303006" lon="10.509397811177443"><ele>49.75</ele><time>2026-04-04T18:36:49Z</time></trkpt><trkpt lat="35.93818924983289" lon="10.50930521026603"><ele>50.5</ele><time>2026-04-04T18:36:50Z</time></trkpt><trkpt lat="35.93808655903156" lon="10.509209808217397"><ele>51.25</ele><time>2026-04-04T18:36:51Z</time></trkpt><trkpt lat="35.93798752093473" lon="10.509110319622053"><ele>52.0</ele><time>2026-04-04T18:36:52Z</time></trkpt><trkpt lat="35.93789689116084" lon="10.509007327848137"><ele>52.0</ele><time>2026-04-04T18:36:53Z</time></trkpt><trkpt lat="35.93780781810603" lon="10.508896610296338"><ele>52.0</ele><time>2026-04-04T18:36:54Z</time></trkpt><trkpt lat="35.93771816689046" lon="10.508774766562535"><ele>52.0</ele><time>2026-04-04T18:36:55Z</time></trkpt><trkpt lat="35.93763461354919" lon="10.508649122736406"><ele>52.0</ele><time>2026-04-04T18:36:56Z</time></trkpt><trkpt lat="35.93755784781355" lon="10.508535730352596"><ele>52.8</ele><time>2026-04-04T18:36:57Z</time></trkpt><trkpt lat="35.937487850951534" lon="10.508431056242552"><ele>53.6</ele><time>2026-04-04T18:36:58Z</time></trkpt><trkpt lat="35.93742116753788" lon="10.508330854736368"><ele>54.39999999999999</ele><time>2026-04-04T18:36:59Z</time></trkpt><trkpt lat="35.93735696104289" lon="10.508229650015167"><ele>55.199999999999996</ele><time>2026-04-04T18:37:00Z</time></trkpt><trkpt lat="35.937299494066814" lon="10.508136228271884"><ele>56.0</ele><time>2026-04-04T18:37:01Z</time></trkpt><trkpt lat="35.93724159763494" lon="10.508049109736895"><ele>56.0</ele><time>2026-04-04T18:37:02Z</time></trkpt><trkpt lat="35.93718209924239" lon="10.507965393083454"><ele>55.99999999999999</ele><time>2026-04-04T18:37:03Z</time></trkpt><trkpt lat="35.937120588200415" lon="10.507881892688019"><ele>55.99999999999999</ele><time>2026-04-04T18:37:04Z</time></trkpt><trkpt lat="35.9370573163599" lon="10.507800247669802"><ele>56.0</ele><time>2026-04-04T18:37:05Z</time></trkpt><trkpt lat="35.93699298659803" lon="10.507719100238438"><ele>56.0</ele><time>2026-04-04T18:37:06Z</time></trkpt><trkpt lat="35.93692424917366" lon="10.50764757769265"><ele>56.4</ele><time>2026-04-04T18:37:07Z</time></trkpt><trkpt lat="35.936847665656266" lon="10.507585644435757"><ele>56.8</ele><time>2026-04-04T18:37:08Z</time></trkpt><trkpt lat="35.93677340680073" lon="10.507532964340601"><ele>57.199999999999996</ele><time>2026-04-04T18:37:09Z</time></trkpt><trkpt lat="35.93668656155792" lon="10.507477232638525"><ele>57.599999999999994</ele><time>2026-04-04T18:37:10Z</time></trkpt><trkpt lat="35.936594296465096" lon="10.507434562466667"><ele>58.0</ele><time>2026-04-04T18:37:11Z</time></trkpt><trkpt lat="35.936499302460966" lon="10.507402808467504"><ele>58.8</ele><time>2026-04-04T18:37:12Z</time></trkpt><trkpt lat="35.93640429618708" lon="10.507387721776743"><ele>59.599999999999994</ele><time>2026-04-04T18:37:13Z</time></trkpt><trkpt lat="35.93629428685958" lon="10.507380255912478"><ele>60.400000000000006</ele><time>2026-04-04T18:37:14Z</time></trkpt><trkpt lat="35.93619571783887" lon="10.507385538435098"><ele>61.2</ele><time>2026-04-04T18:37:15Z</time></trkpt><trkpt lat="35.93609743022102" lon="10.507399161050504"><ele>62.0</ele><time>2026-04-04T18:37:16Z</time></trkpt><trkpt lat="35.93599841079991" lon="10.507424839539972"><ele>62.0</ele><time>2026-04-04T18:37:17Z</time></trkpt><trkpt lat="35.9359029246629" lon="10.507463024549155"><ele>62.0</ele><time>2026-04-04T18:37:18Z</time></trkpt><trkpt lat="35.9358071550926" lon="10.50751657469679"><ele>62.0</ele><time>2026-04-04T18:37:19Z</time></trkpt><trkpt lat="35.9357135294691" lon="10.507582112162314"><ele>62.0</ele><time>2026-04-04T18:37:20Z</time></trkpt><trkpt lat="35.93561222252612" lon="10.50766874983032"><ele>62.0</ele><time>2026-04-04T18:37:21Z</time></trkpt><trkpt lat="35.93550064439299" lon="10.507782713304305"><ele>61.5</ele><time>2026-04-04T18:37:22Z</time></trkpt><trkpt lat="35.93539843706202" lon="10.507911316688594"><ele>61.0</ele><time>2026-04-04T18:37:23Z</time></trkpt><trkpt lat="35.935306580098846" lon="10.508029270764542"><ele>60.5</ele><time>2026-04-04T18:37:24Z</time></trkpt><trkpt lat="35.93521015486499" lon="10.50813463434123"><ele>60.0</ele><time>2026-04-04T18:37:25Z</time></trkpt><trkpt lat="35.93510895395606" lon="10.508233546535557"><ele>60.75</ele><time>2026-04-04T18:37:26Z</time></trkpt><trkpt lat="35.93501123949899" lon="10.508332703193345"><ele>61.5</ele><time>2026-04-04T18:37:27Z</time></trkpt><trkpt lat="35.934919052413946" lon="10.508430319766951"><ele>62.25</ele><time>2026-04-04T18:37:28Z</time></trkpt><trkpt lat="35.9348364504604" lon="10.508525420839142"><ele>63.0</ele><time>2026-04-04T18:37:29Z</time></trkpt><trkpt lat="35.93475787690964" lon="10.508613863140889"><ele>63.0</ele><time>2026-04-04T18:37:30Z</time></trkpt><trkpt lat="35.934675232137245" lon="10.508698088300381"><ele>63.0</ele><time>2026-04-04T18:37:31Z</time></trkpt><trkpt lat="35.93458986751678" lon="10.508783626357245"><ele>63.0</ele><time>2026-04-04T18:37:32Z</time></trkpt><trkpt lat="35.934501071397705" lon="10.508873557230624"><ele>63.0</ele><time>2026-04-04T18:37:33Z</time></trkpt><trkpt lat="35.93440868471986" lon="10.508973198776228"><ele>62.75</ele><time>2026-04-04T18:37:34Z</time></trkpt><trkpt lat="35.934307821040754" lon="10.509078905654842"><ele>62.5</ele><time>2026-04-04T18:37:35Z</time></trkpt><trkpt lat="35.934196675456356" lon="10.509186578131592"><ele>62.25</ele><time>2026-04-04T18:37:36Z</time></trkpt><trkpt lat="35.934081014031875" lon="10.509294145540734"><ele>62.0</ele><time>2026-04-04T18:37:36.999Z</time></trkpt><trkpt lat="35.93395457786186" lon="10.50940200771996"><ele>63.0</ele><time>2026-04-04T18:37:37.999Z</time></trkpt><trkpt lat="35.93382372143252" lon="10.50950463236929"><ele>64.0</ele><time>2026-04-04T18:37:38.999Z</time></trkpt><trkpt lat="35.93369087817453" lon="10.509607122144601"><ele>65.0</ele><time>2026-04-04T18:37:39.999Z</time></trkpt><trkpt lat="35.933555155399524" lon="10.509704687461106"><ele>65.0</ele><time>2026-04-04T18:37:40.999Z</time></trkpt><trkpt lat="35.93341608988007" lon="10.509793807923975"><ele>65.0</ele><time>2026-04-04T18:37:41.999Z</time></trkpt><trkpt lat="35.93328366979237" lon="10.509870338933839"><ele>65.0</ele><time>2026-04-04T18:37:42.999Z</time></trkpt><trkpt lat="35.93315433965017" lon="10.509940494578718"><ele>65.0</ele><time>2026-04-04T18:37:43.999Z</time></trkpt><trkpt lat="35.933024455256295" lon="10.510009889119361"><ele>65.25</ele><time>2026-04-04T18:37:44.999Z</time></trkpt><trkpt lat="35.93288750953844" lon="10.510077485129262"><ele>65.5</ele><time>2026-04-04T18:37:45.999Z</time></trkpt><trkpt lat="35.93274341247825" lon="10.510137222368497"><ele>65.75</ele><time>2026-04-04T18:37:46.999Z</time></trkpt><trkpt lat="35.93260197298475" lon="10.510193034433522"><ele>66.0</ele><time>2026-04-04T18:37:47.999Z</time></trkpt><trkpt lat="35.93245958516674" lon="10.510249830393551"><ele>66.5</ele><time>2026-04-04T18:37:48.999Z</time></trkpt><trkpt lat="35.93231904883847" lon="10.510306651440656"><ele>67.0</ele><time>2026-04-04T18:37:49.999Z</time></trkpt><trkpt lat="35.932184742154426" lon="10.510360627591805"><ele>67.5</ele><time>2026-04-04T18:37:50.999Z</time></trkpt><trkpt lat="35.93205588016531" lon="10.51041099722203"><ele>68.0</ele><time>2026-04-04T18:37:51.999Z</time></trkpt><trkpt lat="35.931929027809836" lon="10.510460627461722"><ele>67.0</ele><time>2026-04-04T18:37:52.999Z</time></trkpt><trkpt lat="35.93180100618237" lon="10.51050974171758"><ele>66.0</ele><time>2026-04-04T18:37:53.999Z</time></trkpt><trkpt lat="35.9316727904574" lon="10.510559992577313"><ele>65.0</ele><time>2026-04-04T18:37:54.999Z</time></trkpt><trkpt lat="35.9315440651404" lon="10.51061003810086"><ele>64.0</ele><time>2026-04-04T18:37:55.999Z</time></trkpt><trkpt lat="35.93141464348921" lon="10.510661771354753"><ele>64.0</ele><time>2026-04-04T18:37:56.999Z</time></trkpt><trkpt lat="35.93128537158091" lon="10.510715545468997"><ele>64.0</ele><time>2026-04-04T18:37:57.999Z</time></trkpt><trkpt lat="35.93115509558257" lon="10.510769144135672"><ele>64.0</ele><time>2026-04-04T18:37:58.999Z</time></trkpt><trkpt lat="35.93102431803459" lon="10.510822227503063"><ele>64.0</ele><time>2026-04-04T18:37:59.999Z</time></trkpt><trkpt lat="35.930891791070025" lon="10.510879543631356"><ele>64.25</ele><time>2026-04-04T18:38:00.999Z</time></trkpt><trkpt lat="35.93076238066568" lon="10.510939662960036"><ele>64.5</ele><time>2026-04-04T18:38:01.999Z</time></trkpt><trkpt lat="35.93063002920202" lon="10.511013577854198"><ele>64.75</ele><time>2026-04-04T18:38:02.999Z</time></trkpt><trkpt lat="35.930499349139176" lon="10.511095813010515"><ele>65.0</ele><time>2026-04-04T18:38:03.999Z</time></trkpt><trkpt lat="35.93037069219061" lon="10.51118758065485"><ele>63.66666666666667</ele><time>2026-04-04T18:38:04.999Z</time></trkpt><trkpt lat="35.93024159460662" lon="10.511291031199105"><ele>62.33333333333333</ele><time>2026-04-04T18:38:05.999Z</time></trkpt><trkpt lat="35.93011807588041" lon="10.511401295104841"><ele>61.0</ele><time>2026-04-04T18:38:06.999Z</time></trkpt><trkpt lat="35.92999855253474" lon="10.511522624575875"><ele>61.0</ele><time>2026-04-04T18:38:07.999Z</time></trkpt><trkpt lat="35.92987946985387" lon="10.511654269602824"><ele>61.0</ele><time>2026-04-04T18:38:08.999Z</time></trkpt><trkpt lat="35.929762594210196" lon="10.511789945470902"><ele>61.0</ele><time>2026-04-04T18:38:09.999Z</time></trkpt><trkpt lat="35.929647298022566" lon="10.51193025131895"><ele>59.33333333333333</ele><time>2026-04-04T18:38:10.999Z</time></trkpt><trkpt lat="35.9295364435607" lon="10.51208572959217"><ele>57.66666666666667</ele><time>2026-04-04T18:38:11.999Z</time></trkpt><trkpt lat="35.92943484907197" lon="10.512247912731155"><ele>56.0</ele><time>2026-04-04T18:38:12.999Z</time></trkpt><trkpt lat="35.929341508247205" lon="10.512409567747142"><ele>56.0</ele><time>2026-04-04T18:38:13.999Z</time></trkpt><trkpt lat="35.92926010842507" lon="10.512565587775294"><ele>56.0</ele><time>2026-04-04T18:38:14.999Z</time></trkpt><trkpt lat="35.92918308500137" lon="10.512729705192159"><ele>56.0</ele><time>2026-04-04T18:38:15.999Z</time></trkpt><trkpt lat="35.92910885125811" lon="10.512899980557567"><ele>58.0</ele><time>2026-04-04T18:38:16.999Z</time></trkpt><trkpt lat="35.929036180908824" lon="10.513068993129655"><ele>60.0</ele><time>2026-04-04T18:38:17.999Z</time></trkpt><trkpt lat="35.92896858339626" lon="10.513247555335301"><ele>62.0</ele><time>2026-04-04T18:38:18.999Z</time></trkpt><trkpt lat="35.92890872845392" lon="10.513433499111972"><ele>62.0</ele><time>2026-04-04T18:38:19.999Z</time></trkpt><trkpt lat="35.92885735792377" lon="10.513621002366"><ele>62.0</ele><time>2026-04-04T18:38:20.999Z</time></trkpt><trkpt lat="35.92881162745611" lon="10.513807580239432"><ele>62.0</ele><time>2026-04-04T18:38:21.999Z</time></trkpt><trkpt lat="35.92876974186264" lon="10.513995676335341"><ele>61.333333333333336</ele><time>2026-04-04T18:38:22.999Z</time></trkpt><trkpt lat="35.928729900312945" lon="10.514182852778408"><ele>60.66666666666667</ele><time>2026-04-04T18:38:23.999Z</time></trkpt><trkpt lat="35.928690191446655" lon="10.514369664256145"><ele>60.0</ele><time>2026-04-04T18:38:24.999Z</time></trkpt><trkpt lat="35.92864798816401" lon="10.514552515690642"><ele>60.0</ele><time>2026-04-04T18:38:25.999Z</time></trkpt><trkpt lat="35.92860422190148" lon="10.514724478336685"><ele>60.0</ele><time>2026-04-04T18:38:26.999Z</time></trkpt><trkpt lat="35.9285589437806" lon="10.51488402053426"><ele>60.0</ele><time>2026-04-04T18:38:27.999Z</time></trkpt><trkpt lat="35.92851298236169" lon="10.515039399218129"><ele>60.0</ele><time>2026-04-04T18:38:28.999Z</time></trkpt><trkpt lat="35.92846427200034" lon="10.515193625611282"><ele>60.0</ele><time>2026-04-04T18:38:29.999Z</time></trkpt><trkpt lat="35.92841114146761" lon="10.515346032498963"><ele>60.0</ele><time>2026-04-04T18:38:30.999Z</time></trkpt><trkpt lat="35.928353644589755" lon="10.515496748279078"><ele>60.0</ele><time>2026-04-04T18:38:31.999Z</time></trkpt><trkpt lat="35.92829137115535" lon="10.515644049182011"><ele>60.0</ele><time>2026-04-04T18:38:32.999Z</time></trkpt><trkpt lat="35.9282215247164" lon="10.515794641861337"><ele>60.0</ele><time>2026-04-04T18:38:33.999Z</time></trkpt><trkpt lat="35.92814910459631" lon="10.51594516928014"><ele>60.0</ele><time>2026-04-04T18:38:34.999Z</time></trkpt><trkpt lat="35.92807428660433" lon="10.516099540796997"><ele>60.0</ele><time>2026-04-04T18:38:35.999Z</time></trkpt><trkpt lat="35.92799635283713" lon="10.516253184247839"><ele>60.0</ele><time>2026-04-04T18:38:36.999Z</time></trkpt><trkpt lat="35.92791199232116" lon="10.51640672108717"><ele>59.33333333333333</ele><time>2026-04-04T18:38:37.999Z</time></trkpt><trkpt lat="35.92781716528462" lon="10.516554644422287"><ele>58.666666666666664</ele><time>2026-04-04T18:38:38.999Z</time></trkpt><trkpt lat="35.92771615627028" lon="10.51670093144886"><ele>58.0</ele><time>2026-04-04T18:38:39.999Z</time></trkpt><trkpt lat="35.92761071294883" lon="10.516845967123949"><ele>58.0</ele><time>2026-04-04T18:38:40.999Z</time></trkpt><trkpt lat="35.92750406139174" lon="10.516989841729414"><ele>58.0</ele><time>2026-04-04T18:38:41.999Z</time></trkpt><trkpt lat="35.92739441675573" lon="10.51712940723953"><ele>58.0</ele><time>2026-04-04T18:38:42.999Z</time></trkpt><trkpt lat="35.927284150909976" lon="10.517267782731919"><ele>58.0</ele><time>2026-04-04T18:38:43.999Z</time></trkpt><trkpt lat="35.927171558290944" lon="10.517408109967839"><ele>58.0</ele><time>2026-04-04T18:38:44.999Z</time></trkpt><trkpt lat="35.92705987880149" lon="10.517542664453192"><ele>58.0</ele><time>2026-04-04T18:38:45.999Z</time></trkpt><trkpt lat="35.92694830681756" lon="10.51767973681846"><ele>58.0</ele><time>2026-04-04T18:38:46.999Z</time></trkpt><trkpt lat="35.926840440234784" lon="10.51782071201069"><ele>58.0</ele><time>2026-04-04T18:38:47.999Z</time></trkpt><trkpt lat="35.92673322156562" lon="10.517958765891825"><ele>58.0</ele><time>2026-04-04T18:38:49Z</time></trkpt><trkpt lat="35.92662272183148" lon="10.51809328392232"><ele>56.33333333333333</ele><time>2026-04-04T18:38:50Z</time></trkpt><trkpt lat="35.926513522253174" lon="10.518229590561877"><ele>54.66666666666667</ele><time>2026-04-04T18:38:51Z</time></trkpt><trkpt lat="35.92640559627907" lon="10.518367717395709"><ele>53.0</ele><time>2026-04-04T18:38:52Z</time></trkpt><trkpt lat="35.92629838068944" lon="10.518506199158915"><ele>53.0</ele><time>2026-04-04T18:38:53Z</time></trkpt><trkpt lat="35.9261886437597" lon="10.518643475157567"><ele>53.0</ele><time>2026-04-04T18:38:54Z</time></trkpt><trkpt lat="35.92607867451641" lon="10.518786956142286"><ele>53.0</ele><time>2026-04-04T18:38:55Z</time></trkpt><trkpt lat="35.92596840822268" lon="10.51893727561019"><ele>54.333333333333336</ele><time>2026-04-04T18:38:56Z</time></trkpt><trkpt lat="35.92586178675254" lon="10.519089693655364"><ele>55.66666666666667</ele><time>2026-04-04T18:38:57Z</time></trkpt><trkpt lat="35.92575777610468" lon="10.5192460021747"><ele>57.0</ele><time>2026-04-04T18:38:58Z</time></trkpt><trkpt lat="35.925653933350155" lon="10.519402690346896"><ele>57.0</ele><time>2026-04-04T18:38:59Z</time></trkpt><trkpt lat="35.92554798636394" lon="10.519559750720704"><ele>57.0</ele><time>2026-04-04T18:39:00Z</time></trkpt><trkpt lat="35.92544344375652" lon="10.51971813877357"><ele>57.0</ele><time>2026-04-04T18:39:01Z</time></trkpt><trkpt lat="35.925339239324146" lon="10.519878798452899"><ele>56.66666666666667</ele><time>2026-04-04T18:39:02Z</time></trkpt><trkpt lat="35.92523499778897" lon="10.52003679861296"><ele>56.333333333333336</ele><time>2026-04-04T18:39:03Z</time></trkpt><trkpt lat="35.92513068029654" lon="10.520196012965297"><ele>56.0</ele><time>2026-04-04T18:39:04Z</time></trkpt><trkpt lat="35.925028554216965" lon="10.520355655470158"><ele>58.66666666666667</ele><time>2026-04-04T18:39:05Z</time></trkpt><trkpt lat="35.92492758125235" lon="10.520515779185109"><ele>61.33333333333333</ele><time>2026-04-04T18:39:06Z</time></trkpt><trkpt lat="35.92482449945571" lon="10.52067794000858"><ele>64.0</ele><time>2026-04-04T18:39:07Z</time></trkpt><trkpt lat="35.92472145195163" lon="10.520836992364279"><ele>64.0</ele><time>2026-04-04T18:39:08Z</time></trkpt><trkpt lat="35.92461751279514" lon="10.520998595296229"><ele>64.0</ele><time>2026-04-04T18:39:09Z</time></trkpt><trkpt lat="35.92451454875053" lon="10.521159211032256"><ele>64.0</ele><time>2026-04-04T18:39:10Z</time></trkpt><trkpt lat="35.92441145739144" lon="10.521317486773851"><ele>63.0</ele><time>2026-04-04T18:39:11Z</time></trkpt><trkpt lat="35.92430898357938" lon="10.521475063138265"><ele>62.0</ele><time>2026-04-04T18:39:12Z</time></trkpt><trkpt lat="35.924207046652754" lon="10.521632883235185"><ele>61.0</ele><time>2026-04-04T18:39:13Z</time></trkpt><trkpt lat="35.92410621531727" lon="10.52178957481626"><ele>61.0</ele><time>2026-04-04T18:39:14Z</time></trkpt><trkpt lat="35.92400566733484" lon="10.52194818554662"><ele>61.0</ele><time>2026-04-04T18:39:15Z</time></trkpt><trkpt lat="35.9239071505152" lon="10.522108085940774"><ele>61.0</ele><time>2026-04-04T18:39:16Z</time></trkpt><trkpt lat="35.923805250644314" lon="10.522270007997351"><ele>60.0</ele><time>2026-04-04T18:39:17Z</time></trkpt><trkpt lat="35.92369795599618" lon="10.522432748020828"><ele>59.0</ele><time>2026-04-04T18:39:18Z</time></trkpt><trkpt lat="35.92358754114993" lon="10.522601125039253"><ele>58.0</ele><time>2026-04-04T18:39:19Z</time></trkpt><trkpt lat="35.92347728392909" lon="10.52277010005267"><ele>58.666666666666664</ele><time>2026-04-04T18:39:20Z</time></trkpt><trkpt lat="35.92336949494641" lon="10.522944970036022"><ele>59.33333333333333</ele><time>2026-04-04T18:39:21Z</time></trkpt><trkpt lat="35.923261137938375" lon="10.523122370107288"><ele>60.0</ele><time>2026-04-04T18:39:22Z</time></trkpt><trkpt lat="35.92315456769064" lon="10.523295058448685"><ele>60.0</ele><time>2026-04-04T18:39:23Z</time></trkpt><trkpt lat="35.92304667078753" lon="10.523465502649115"><ele>60.0</ele><time>2026-04-04T18:39:24Z</time></trkpt><trkpt lat="35.92293790799296" lon="10.52363621755209"><ele>60.0</ele><time>2026-04-04T18:39:25Z</time></trkpt><trkpt lat="35.922834086108004" lon="10.523806010660758"><ele>59.66666666666667</ele><time>2026-04-04T18:39:26Z</time></trkpt><trkpt lat="35.92273387506792" lon="10.523980242263859"><ele>59.333333333333336</ele><time>2026-04-04T18:39:27Z</time></trkpt><trkpt lat="35.92263197612223" lon="10.524147464858688"><ele>59.0</ele><time>2026-04-04T18:39:28Z</time></trkpt><trkpt lat="35.922521982494395" lon="10.524313936043866"><ele>59.5</ele><time>2026-04-04T18:39:29Z</time></trkpt><trkpt lat="35.92242032870802" lon="10.524465081397404"><ele>60.0</ele><time>2026-04-04T18:39:30Z</time></trkpt><trkpt lat="35.92233309258202" lon="10.524599601106843"><ele>60.5</ele><time>2026-04-04T18:39:31Z</time></trkpt><trkpt lat="35.92226931141234" lon="10.524694223038608"><ele>61.0</ele><time>2026-04-04T18:39:32Z</time></trkpt><trkpt lat="35.92221483103548" lon="10.524773335705254"><ele>61.0</ele><time>2026-04-04T18:39:33Z</time></trkpt><trkpt lat="35.922161718137886" lon="10.52485097701692"><ele>60.99999999999999</ele><time>2026-04-04T18:39:34Z</time></trkpt><trkpt lat="35.92211758301516" lon="10.524914766228859"><ele>60.99999999999999</ele><time>2026-04-04T18:39:35Z</time></trkpt><trkpt lat="35.92204014790498" lon="10.52502005016447"><ele>61.0</ele><time>2026-04-04T18:39:37Z</time></trkpt><trkpt lat="35.92194770816831" lon="10.525143708595637"><ele>61.0</ele><time>2026-04-04T18:39:39Z</time></trkpt><trkpt lat="35.92189010855082" lon="10.525217817302243"><ele>61.0</ele><time>2026-04-04T18:39:40Z</time></trkpt><trkpt lat="35.92182912903724" lon="10.525297928637801"><ele>60.99999999999999</ele><time>2026-04-04T18:39:40.999Z</time></trkpt><trkpt lat="35.921762875405115" lon="10.525378403594544"><ele>60.99999999999999</ele><time>2026-04-04T18:39:41.999Z</time></trkpt><trkpt lat="35.921692390953424" lon="10.525461588183672"><ele>61.0</ele><time>2026-04-04T18:39:42.999Z</time></trkpt><trkpt lat="35.92161609486739" lon="10.525554529560837"><ele>61.0</ele><time>2026-04-04T18:39:43.999Z</time></trkpt><trkpt lat="35.9215347494476" lon="10.525650633021158"><ele>61.25</ele><time>2026-04-04T18:39:44.999Z</time></trkpt><trkpt lat="35.921446663414244" lon="10.525755138601287"><ele>61.5</ele><time>2026-04-04T18:39:45.999Z</time></trkpt><trkpt lat="35.92135195036967" lon="10.525861247314607"><ele>61.75</ele><time>2026-04-04T18:39:46.999Z</time></trkpt><trkpt lat="35.92125074142513" lon="10.525971491236895"><ele>62.0</ele><time>2026-04-04T18:39:47.999Z</time></trkpt><trkpt lat="35.92114341311005" lon="10.526086298758853"><ele>62.0</ele><time>2026-04-04T18:39:48.999Z</time></trkpt><trkpt lat="35.921035902990354" lon="10.526201305868087"><ele>62.0</ele><time>2026-04-04T18:39:49.999Z</time></trkpt><trkpt lat="35.92092847696647" lon="10.526316656827202"><ele>62.0</ele><time>2026-04-04T18:39:50.999Z</time></trkpt><trkpt lat="35.92082079108878" lon="10.526434612764064"><ele>62.0</ele><time>2026-04-04T18:39:51.999Z</time></trkpt><trkpt lat="35.92071019774056" lon="10.526558481442658"><ele>62.66666666666667</ele><time>2026-04-04T18:39:52.999Z</time></trkpt><trkpt lat="35.920597791136714" lon="10.526685006598512"><ele>63.33333333333333</ele><time>2026-04-04T18:39:53.999Z</time></trkpt><trkpt lat="35.92048244056104" lon="10.526816917739243"><ele>64.0</ele><time>2026-04-04T18:39:54.999Z</time></trkpt><trkpt lat="35.920363399946716" lon="10.526945628464441"><ele>64.33333333333333</ele><time>2026-04-04T18:39:55.999Z</time></trkpt><trkpt lat="35.92024519706639" lon="10.52707494093352"><ele>64.66666666666667</ele><time>2026-04-04T18:39:56.999Z</time></trkpt><trkpt lat="35.920130723534555" lon="10.527202433487263"><ele>65.0</ele><time>2026-04-04T18:39:57.999Z</time></trkpt><trkpt lat="35.92002458830908" lon="10.527321530463276"><ele>65.0</ele><time>2026-04-04T18:39:58.999Z</time></trkpt><trkpt lat="35.91992080240184" lon="10.527437744234076"><ele>65.0</ele><time>2026-04-04T18:39:59.999Z</time></trkpt><trkpt lat="35.91981590005589" lon="10.527551148786001"><ele>65.0</ele><time>2026-04-04T18:40:00.999Z</time></trkpt><trkpt lat="35.9197113249003" lon="10.527661447798222"><ele>65.0</ele><time>2026-04-04T18:40:01.999Z</time></trkpt><trkpt lat="35.919607599498356" lon="10.527772937869477"><ele>65.0</ele><time>2026-04-04T18:40:02.999Z</time></trkpt><trkpt lat="35.91950418469839" lon="10.52788565969063"><ele>65.0</ele><time>2026-04-04T18:40:03.999Z</time></trkpt><trkpt lat="35.91939953007933" lon="10.528000647360685"><ele>65.0</ele><time>2026-04-04T18:40:04.999Z</time></trkpt><trkpt lat="35.91929619417186" lon="10.528118120659517"><ele>65.0</ele><time>2026-04-04T18:40:05.999Z</time></trkpt><trkpt lat="35.91919219188177" lon="10.528237397522062"><ele>65.75</ele><time>2026-04-04T18:40:06.999Z</time></trkpt><trkpt lat="35.91908670639032" lon="10.528354125923105"><ele>66.5</ele><time>2026-04-04T18:40:07.999Z</time></trkpt><trkpt lat="35.918980146288085" lon="10.528469239846853"><ele>67.25</ele><time>2026-04-04T18:40:08.999Z</time></trkpt><trkpt lat="35.91887475403338" lon="10.528583525832286"><ele>68.0</ele><time>2026-04-04T18:40:09.999Z</time></trkpt><trkpt lat="35.91876697970558" lon="10.528701131532895"><ele>68.0</ele><time>2026-04-04T18:40:10.999Z</time></trkpt><trkpt lat="35.91865758940659" lon="10.528823237239115"><ele>68.0</ele><time>2026-04-04T18:40:11.999Z</time></trkpt><trkpt lat="35.918546333486404" lon="10.528949670735724"><ele>68.0</ele><time>2026-04-04T18:40:12.999Z</time></trkpt><trkpt lat="35.91843509305851" lon="10.529074445820882"><ele>68.0</ele><time>2026-04-04T18:40:13.999Z</time></trkpt><trkpt lat="35.91832495520405" lon="10.52919475691687"><ele>68.5</ele><time>2026-04-04T18:40:14.999Z</time></trkpt><trkpt lat="35.91821626400413" lon="10.52931298373448"><ele>69.0</ele><time>2026-04-04T18:40:15.999Z</time></trkpt><trkpt lat="35.91811038816075" lon="10.529429995737523"><ele>69.5</ele><time>2026-04-04T18:40:16.999Z</time></trkpt><trkpt lat="35.918007468511554" lon="10.529545320644207"><ele>70.0</ele><time>2026-04-04T18:40:17.999Z</time></trkpt><trkpt lat="35.91790480798155" lon="10.529662176071573"><ele>70.5</ele><time>2026-04-04T18:40:18.999Z</time></trkpt><trkpt lat="35.91780118504284" lon="10.529775987918988"><ele>71.0</ele><time>2026-04-04T18:40:19.999Z</time></trkpt><trkpt lat="35.91769750896925" lon="10.529887238882823"><ele>71.5</ele><time>2026-04-04T18:40:20.999Z</time></trkpt><trkpt lat="35.91759349750726" lon="10.530003520232587"><ele>72.0</ele><time>2026-04-04T18:40:21.999Z</time></trkpt><trkpt lat="35.917484303142025" lon="10.53012573667337"><ele>73.0</ele><time>2026-04-04T18:40:22.999Z</time></trkpt><trkpt lat="35.91737566386339" lon="10.530245906929215"><ele>74.0</ele><time>2026-04-04T18:40:23.999Z</time></trkpt><trkpt lat="35.91726832579347" lon="10.53036305868426"><ele>75.0</ele><time>2026-04-04T18:40:24.999Z</time></trkpt><trkpt lat="35.91716364495998" lon="10.53047683063615"><ele>76.0</ele><time>2026-04-04T18:40:25.999Z</time></trkpt><trkpt lat="35.91705932548789" lon="10.530589306630105"><ele>76.25</ele><time>2026-04-04T18:40:26.999Z</time></trkpt><trkpt lat="35.91695647551423" lon="10.53070121159436"><ele>76.5</ele><time>2026-04-04T18:40:27.999Z</time></trkpt><trkpt lat="35.91685486324354" lon="10.530814611003894"><ele>76.75</ele><time>2026-04-04T18:40:28.999Z</time></trkpt><trkpt lat="35.91675292227211" lon="10.53092743225432"><ele>77.0</ele><time>2026-04-04T18:40:29.999Z</time></trkpt><trkpt lat="35.916655321353375" lon="10.53103350424286"><ele>77.25</ele><time>2026-04-04T18:40:30.999Z</time></trkpt><trkpt lat="35.91655833337996" lon="10.531137252769875"><ele>77.5</ele><time>2026-04-04T18:40:31.999Z</time></trkpt><trkpt lat="35.91646018756797" lon="10.531242876323057"><ele>77.75</ele><time>2026-04-04T18:40:32.999Z</time></trkpt><trkpt lat="35.91636407173392" lon="10.531346960371172"><ele>78.0</ele><time>2026-04-04T18:40:33.999Z</time></trkpt><trkpt lat="35.91627368914098" lon="10.531449016280098"><ele>78.6</ele><time>2026-04-04T18:40:34.999Z</time></trkpt><trkpt lat="35.91619349140302" lon="10.531542580965914"><ele>79.19999999999999</ele><time>2026-04-04T18:40:35.999Z</time></trkpt><trkpt lat="35.91611594370331" lon="10.531630266980711"><ele>79.8</ele><time>2026-04-04T18:40:36.999Z</time></trkpt><trkpt lat="35.91603922775109" lon="10.53171412784033"><ele>80.39999999999999</ele><time>2026-04-04T18:40:37.999Z</time></trkpt><trkpt lat="35.915967967879645" lon="10.531792813929393"><ele>81.0</ele><time>2026-04-04T18:40:38.999Z</time></trkpt><trkpt lat="35.91589901708318" lon="10.531864695910908"><ele>81.0</ele><time>2026-04-04T18:40:39.999Z</time></trkpt><trkpt lat="35.91583606941148" lon="10.531927070852404"><ele>81.0</ele><time>2026-04-04T18:40:40.999Z</time></trkpt><trkpt lat="35.91578063407435" lon="10.531982822538184"><ele>81.0</ele><time>2026-04-04T18:40:41.999Z</time></trkpt><trkpt lat="35.91569398085831" lon="10.532056326856226"><ele>81.0</ele><time>2026-04-04T18:40:43.999Z</time></trkpt><trkpt lat="35.915623938426556" lon="10.532122661938372"><ele>81.0</ele><time>2026-04-04T18:40:45.999Z</time></trkpt><trkpt lat="35.915549710316775" lon="10.532188997227381"><ele>81.0</ele><time>2026-04-04T18:40:47.999Z</time></trkpt><trkpt lat="35.91548746805133" lon="10.532233058499006"><ele>81.0</ele><time>2026-04-04T18:40:49.999Z</time></trkpt><trkpt lat="35.915393572719154" lon="10.532298608466817"><ele>81.0</ele><time>2026-04-04T18:40:51.999Z</time></trkpt><trkpt lat="35.91533976446269" lon="10.532347290186433"><ele>81.0</ele><time>2026-04-04T18:40:52.999Z</time></trkpt><trkpt lat="35.91530046221655" lon="10.532421987160705"><ele>81.0</ele><time>2026-04-04T18:40:53.999Z</time></trkpt><trkpt lat="35.91526211843874" lon="10.532511832643669"><ele>81.0</ele><time>2026-04-04T18:40:55Z</time></trkpt><trkpt lat="35.91521101999238" lon="10.532613017625321"><ele>81.0</ele><time>2026-04-04T18:40:56Z</time></trkpt><trkpt lat="35.915143726723684" lon="10.53270806975733"><ele>81.33333333333333</ele><time>2026-04-04T18:40:57Z</time></trkpt><trkpt lat="35.915048311246686" lon="10.53282786061529"><ele>81.66666666666666</ele><time>2026-04-04T18:40:58Z</time></trkpt><trkpt lat="35.91491889254397" lon="10.53297170988927"><ele>82.0</ele><time>2026-04-04T18:40:59Z</time></trkpt><trkpt lat="35.914769082924884" lon="10.533135347919877"><ele>80.66666666666666</ele><time>2026-04-04T18:41:00Z</time></trkpt><trkpt lat="35.91463785374129" lon="10.533280818107537"><ele>79.33333333333333</ele><time>2026-04-04T18:41:01Z</time></trkpt><trkpt lat="35.91452151543109" lon="10.533408037767126"><ele>78.0</ele><time>2026-04-04T18:41:02Z</time></trkpt><trkpt lat="35.914410697651384" lon="10.533530415194122"><ele>78.0</ele><time>2026-04-04T18:41:03Z</time></trkpt><trkpt lat="35.91429757192841" lon="10.533655357889847"><ele>78.0</ele><time>2026-04-04T18:41:04Z</time></trkpt><trkpt lat="35.914184948795096" lon="10.533782955489528"><ele>78.0</ele><time>2026-04-04T18:41:05Z</time></trkpt><trkpt lat="35.91408081935008" lon="10.533906093333524"><ele>78.0</ele><time>2026-04-04T18:41:06Z</time></trkpt><trkpt lat="35.91398434126346" lon="10.534026321148287"><ele>78.5</ele><time>2026-04-04T18:41:07Z</time></trkpt><trkpt lat="35.91389173721194" lon="10.534148380607368"><ele>79.0</ele><time>2026-04-04T18:41:08Z</time></trkpt><trkpt lat="35.91379816899361" lon="10.534273710182521"><ele>79.5</ele><time>2026-04-04T18:41:09Z</time></trkpt><trkpt lat="35.91370625877414" lon="10.534401517737884"><ele>80.0</ele><time>2026-04-04T18:41:10Z</time></trkpt><trkpt lat="35.91361474993081" lon="10.53453464736577"><ele>79.25</ele><time>2026-04-04T18:41:11Z</time></trkpt><trkpt lat="35.9135261198205" lon="10.5346693516223"><ele>78.5</ele><time>2026-04-04T18:41:12Z</time></trkpt><trkpt lat="35.913439366177705" lon="10.53480698162923"><ele>77.75</ele><time>2026-04-04T18:41:13Z</time></trkpt><trkpt lat="35.913354972371685" lon="10.534943549533024"><ele>77.0</ele><time>2026-04-04T18:41:14Z</time></trkpt><trkpt lat="35.913269740324395" lon="10.535083220113332"><ele>77.0</ele><time>2026-04-04T18:41:15Z</time></trkpt><trkpt lat="35.91318264355044" lon="10.535224792358461"><ele>77.0</ele><time>2026-04-04T18:41:16Z</time></trkpt><trkpt lat="35.91309400986405" lon="10.535368865485745"><ele>77.0</ele><time>2026-04-04T18:41:17Z</time></trkpt><trkpt lat="35.91300118141771" lon="10.53551894873135"><ele>77.0</ele><time>2026-04-04T18:41:18Z</time></trkpt><trkpt lat="35.912905550870704" lon="10.535669900947173"><ele>77.66666666666667</ele><time>2026-04-04T18:41:19Z</time></trkpt><trkpt lat="35.91281010167194" lon="10.535820607845595"><ele>78.33333333333333</ele><time>2026-04-04T18:41:20Z</time></trkpt><trkpt lat="35.91271149910297" lon="10.535970398814761"><ele>79.0</ele><time>2026-04-04T18:41:21Z</time></trkpt><trkpt lat="35.91261192600543" lon="10.53611443116952"><ele>77.0</ele><time>2026-04-04T18:41:22Z</time></trkpt><trkpt lat="35.91250891534818" lon="10.536254435546024"><ele>75.0</ele><time>2026-04-04T18:41:23Z</time></trkpt><trkpt lat="35.912400908348054" lon="10.536396908245372"><ele>73.0</ele><time>2026-04-04T18:41:24Z</time></trkpt><trkpt lat="35.91228411715069" lon="10.536543306538297"><ele>73.0</ele><time>2026-04-04T18:41:25Z</time></trkpt><trkpt lat="35.912166135359755" lon="10.536682815363617"><ele>73.0</ele><time>2026-04-04T18:41:26Z</time></trkpt><trkpt lat="35.91205014565068" lon="10.536811044301773"><ele>73.0</ele><time>2026-04-04T18:41:27Z</time></trkpt><trkpt lat="35.91193046866769" lon="10.536938731152654"><ele>71.66666666666666</ele><time>2026-04-04T18:41:28Z</time></trkpt><trkpt lat="35.91180569955125" lon="10.537066865721105"><ele>70.33333333333333</ele><time>2026-04-04T18:41:29Z</time></trkpt><trkpt lat="35.911678923967244" lon="10.53719413799549"><ele>69.0</ele><time>2026-04-04T18:41:30Z</time></trkpt><trkpt lat="35.91155024163302" lon="10.537316175512732"><ele>69.0</ele><time>2026-04-04T18:41:31Z</time></trkpt><trkpt lat="35.911422661075676" lon="10.537431947285029"><ele>69.0</ele><time>2026-04-04T18:41:32Z</time></trkpt><trkpt lat="35.91129157436773" lon="10.537548315870179"><ele>69.0</ele><time>2026-04-04T18:41:33Z</time></trkpt><trkpt lat="35.9111588650477" lon="10.537662349305352"><ele>69.0</ele><time>2026-04-04T18:41:34Z</time></trkpt><trkpt lat="35.91102513300952" lon="10.5377762382545"><ele>69.0</ele><time>2026-04-04T18:41:35Z</time></trkpt><trkpt lat="35.910889684328986" lon="10.537889697628597"><ele>69.0</ele><time>2026-04-04T18:41:36Z</time></trkpt><trkpt lat="35.91075365239851" lon="10.538000594703918"><ele>68.66666666666667</ele><time>2026-04-04T18:41:37Z</time></trkpt><trkpt lat="35.91061600842426" lon="10.538110686751956"><ele>68.33333333333334</ele><time>2026-04-04T18:41:38Z</time></trkpt><trkpt lat="35.910482053736686" lon="10.538221834303021"><ele>68.0</ele><time>2026-04-04T18:41:39Z</time></trkpt><trkpt lat="35.910348744014044" lon="10.53833615929189"><ele>68.0</ele><time>2026-04-04T18:41:40Z</time></trkpt><trkpt lat="35.910220203517355" lon="10.5384462433084"><ele>68.0</ele><time>2026-04-04T18:41:41Z</time></trkpt><trkpt lat="35.910095432135954" lon="10.53855458943554"><ele>68.0</ele><time>2026-04-04T18:41:42Z</time></trkpt><trkpt lat="35.909970085323074" lon="10.538664194132796"><ele>67.33333333333334</ele><time>2026-04-04T18:41:43Z</time></trkpt><trkpt lat="35.90984487401998" lon="10.538773179749091"><ele>66.66666666666667</ele><time>2026-04-04T18:41:44Z</time></trkpt><trkpt lat="35.909719514632194" lon="10.538878909989592"><ele>66.0</ele><time>2026-04-04T18:41:44.999Z</time></trkpt><trkpt lat="35.90959827420614" lon="10.53898388311711"><ele>66.0</ele><time>2026-04-04T18:41:45.999Z</time></trkpt><trkpt lat="35.90947937373275" lon="10.539081017944836"><ele>66.0</ele><time>2026-04-04T18:41:46.999Z</time></trkpt><trkpt lat="35.90935803754589" lon="10.539180539395261"><ele>66.0</ele><time>2026-04-04T18:41:47.999Z</time></trkpt><trkpt lat="35.90923796113849" lon="10.539283682961557"><ele>66.0</ele><time>2026-04-04T18:41:48.999Z</time></trkpt><trkpt lat="35.90912039928387" lon="10.539384723622877"><ele>66.25</ele><time>2026-04-04T18:41:49.999Z</time></trkpt><trkpt lat="35.90900367614626" lon="10.539486878748548"><ele>66.5</ele><time>2026-04-04T18:41:50.999Z</time></trkpt><trkpt lat="35.908887947960864" lon="10.539587995797461"><ele>66.75</ele><time>2026-04-04T18:41:51.999Z</time></trkpt><trkpt lat="35.90876713590055" lon="10.539689537322456"><ele>67.0</ele><time>2026-04-04T18:41:52.999Z</time></trkpt><trkpt lat="35.90864602827479" lon="10.539791565910994"><ele>67.0</ele><time>2026-04-04T18:41:53.999Z</time></trkpt><trkpt lat="35.90852867141407" lon="10.539890919343403"><ele>67.0</ele><time>2026-04-04T18:41:54.999Z</time></trkpt><trkpt lat="35.90840911123103" lon="10.53999201320418"><ele>67.0</ele><time>2026-04-04T18:41:55.999Z</time></trkpt><trkpt lat="35.90829008708216" lon="10.540093376673193"><ele>67.0</ele><time>2026-04-04T18:41:56.999Z</time></trkpt><trkpt lat="35.908172789613296" lon="10.540197202246283"><ele>67.5</ele><time>2026-04-04T18:41:57.999Z</time></trkpt><trkpt lat="35.908057993611536" lon="10.540296049628255"><ele>68.0</ele><time>2026-04-04T18:41:58.999Z</time></trkpt><trkpt lat="35.90794644919149" lon="10.540388815634513"><ele>68.5</ele><time>2026-04-04T18:41:59.999Z</time></trkpt><trkpt lat="35.90783371954236" lon="10.540482185464187"><ele>69.0</ele><time>2026-04-04T18:42:00.999Z</time></trkpt><trkpt lat="35.90772104073485" lon="10.540580802087009"><ele>69.5</ele><time>2026-04-04T18:42:01.999Z</time></trkpt><trkpt lat="35.90760963923344" lon="10.540683570814114"><ele>70.0</ele><time>2026-04-04T18:42:02.999Z</time></trkpt><trkpt lat="35.907499949011964" lon="10.540788931655522"><ele>70.5</ele><time>2026-04-04T18:42:03.999Z</time></trkpt><trkpt lat="35.90739587154885" lon="10.540892689162582"><ele>71.0</ele><time>2026-04-04T18:42:04.999Z</time></trkpt><trkpt lat="35.90729618669711" lon="10.540991357756965"><ele>71.0</ele><time>2026-04-04T18:42:05.999Z</time></trkpt><trkpt lat="35.90719614396627" lon="10.541089731621513"><ele>71.0</ele><time>2026-04-04T18:42:06.999Z</time></trkpt><trkpt lat="35.90709675058076" lon="10.541192873648823"><ele>71.0</ele><time>2026-04-04T18:42:07.999Z</time></trkpt><trkpt lat="35.90700150299445" lon="10.541293427665673"><ele>71.0</ele><time>2026-04-04T18:42:08.999Z</time></trkpt><trkpt lat="35.9069102346995" lon="10.54139130829264"><ele>71.0</ele><time>2026-04-04T18:42:09.999Z</time></trkpt><trkpt lat="35.90682127969327" lon="10.541486759052685"><ele>71.0</ele><time>2026-04-04T18:42:10.999Z</time></trkpt><trkpt lat="35.90673522542288" lon="10.541578654684278"><ele>71.0</ele><time>2026-04-04T18:42:11.999Z</time></trkpt><trkpt lat="35.90664862358705" lon="10.541669183343751"><ele>71.0</ele><time>2026-04-04T18:42:12.999Z</time></trkpt><trkpt lat="35.90656738375357" lon="10.541760572620422"><ele>70.8</ele><time>2026-04-04T18:42:13.999Z</time></trkpt><trkpt lat="35.90648409492562" lon="10.541854121097758"><ele>70.6</ele><time>2026-04-04T18:42:14.999Z</time></trkpt><trkpt lat="35.906401260384214" lon="10.541951044244326"><ele>70.4</ele><time>2026-04-04T18:42:15.999Z</time></trkpt><trkpt lat="35.90632297154063" lon="10.542046598629986"><ele>70.2</ele><time>2026-04-04T18:42:16.999Z</time></trkpt><trkpt lat="35.906245042760744" lon="10.542144041601409"><ele>70.0</ele><time>2026-04-04T18:42:17.999Z</time></trkpt><trkpt lat="35.90616279424321" lon="10.542245899850123"><ele>69.5</ele><time>2026-04-04T18:42:18.999Z</time></trkpt><trkpt lat="35.90607572423045" lon="10.54235404045604"><ele>69.0</ele><time>2026-04-04T18:42:19.999Z</time></trkpt><trkpt lat="35.90598148001433" lon="10.542471697437035"><ele>68.5</ele><time>2026-04-04T18:42:20.999Z</time></trkpt><trkpt lat="35.90588551776964" lon="10.542598507032084"><ele>68.0</ele><time>2026-04-04T18:42:21.999Z</time></trkpt><trkpt lat="35.90578604143854" lon="10.542731418536922"><ele>67.5</ele><time>2026-04-04T18:42:22.999Z</time></trkpt><trkpt lat="35.90568375804306" lon="10.542866315585037"><ele>67.0</ele><time>2026-04-04T18:42:23.999Z</time></trkpt><trkpt lat="35.90558261507562" lon="10.542992101952585"><ele>66.5</ele><time>2026-04-04T18:42:24.999Z</time></trkpt><trkpt lat="35.905484822616906" lon="10.54311296576427"><ele>66.0</ele><time>2026-04-04T18:42:25.999Z</time></trkpt><trkpt lat="35.9053897071659" lon="10.543232122744891"><ele>65.5</ele><time>2026-04-04T18:42:26.999Z</time></trkpt><trkpt lat="35.90529809131401" lon="10.54334439866353"><ele>65.0</ele><time>2026-04-04T18:42:27.999Z</time></trkpt><trkpt lat="35.90520944178236" lon="10.543456935185995"><ele>64.5</ele><time>2026-04-04T18:42:28.999Z</time></trkpt><trkpt lat="35.90512549303898" lon="10.543568465830301"><ele>64.0</ele><time>2026-04-04T18:42:29.999Z</time></trkpt><trkpt lat="35.9050439540284" lon="10.54367292600926"><ele>64.2</ele><time>2026-04-04T18:42:30.999Z</time></trkpt><trkpt lat="35.904964571244314" lon="10.543774016748799"><ele>64.4</ele><time>2026-04-04T18:42:31.999Z</time></trkpt><trkpt lat="35.90488925621556" lon="10.54386498664857"><ele>64.6</ele><time>2026-04-04T18:42:32.999Z</time></trkpt><trkpt lat="35.90481545303689" lon="10.543954279408764"><ele>64.8</ele><time>2026-04-04T18:42:33.999Z</time></trkpt><trkpt lat="35.904745383608926" lon="10.544036525787172"><ele>65.0</ele><time>2026-04-04T18:42:34.999Z</time></trkpt><trkpt lat="35.904679601504796" lon="10.544115416398574"><ele>65.0</ele><time>2026-04-04T18:42:35.999Z</time></trkpt><trkpt lat="35.90461602799568" lon="10.544189368788183"><ele>65.0</ele><time>2026-04-04T18:42:36.999Z</time></trkpt><trkpt lat="35.904561623811176" lon="10.544253048975987"><ele>65.0</ele><time>2026-04-04T18:42:37.999Z</time></trkpt><trkpt lat="35.904477979666964" lon="10.544349308109647"><ele>65.0</ele><time>2026-04-04T18:42:39.999Z</time></trkpt><trkpt lat="35.904422338514145" lon="10.544400279706885"><ele>65.0</ele><time>2026-04-04T18:42:41.999Z</time></trkpt><trkpt lat="35.904363499382995" lon="10.544447093079313"><ele>65.0</ele><time>2026-04-04T18:42:44.999Z</time></trkpt><trkpt lat="35.904311754616266" lon="10.54450021614925"><ele>65.00000000000001</ele><time>2026-04-04T18:42:51.999Z</time></trkpt><trkpt lat="35.904256979071064" lon="10.544540221503125"><ele>65.0</ele><time>2026-04-04T18:42:54.999Z</time></trkpt><trkpt lat="35.90419152009653" lon="10.54458083904522"><ele>65.0</ele><time>2026-04-04T18:43:09Z</time></trkpt><trkpt lat="35.9041368012031" lon="10.544620447149942"><ele>65.0</ele><time>2026-04-04T18:43:13Z</time></trkpt><trkpt lat="35.904077341326655" lon="10.544660666312751"><ele>65.0</ele><time>2026-04-04T18:43:18Z</time></trkpt><trkpt lat="35.90400590294646" lon="10.544671994060755"><ele>65.00000000000001</ele><time>2026-04-04T18:43:21Z</time></trkpt><trkpt lat="35.90391850763689" lon="10.544660316146276"><ele>65.0</ele><time>2026-04-04T18:43:25Z</time></trkpt><trkpt lat="35.903824404860096" lon="10.544685624327775"><ele>65.5</ele><time>2026-04-04T18:43:27Z</time></trkpt><trkpt lat="35.90376131057676" lon="10.54471945524699"><ele>66.0</ele><time>2026-04-04T18:43:28Z</time></trkpt><trkpt lat="35.903704093115515" lon="10.544763855468165"><ele>66.5</ele><time>2026-04-04T18:43:29Z</time></trkpt><trkpt lat="35.90365038261504" lon="10.5448148526468"><ele>67.0</ele><time>2026-04-04T18:43:30Z</time></trkpt><trkpt lat="35.903589484079866" lon="10.54487893472431"><ele>67.5</ele><time>2026-04-04T18:43:31Z</time></trkpt><trkpt lat="35.903529468712776" lon="10.54495962176107"><ele>68.0</ele><time>2026-04-04T18:43:32Z</time></trkpt><trkpt lat="35.90347773893517" lon="10.545050687288729"><ele>68.0</ele><time>2026-04-04T18:43:33Z</time></trkpt><trkpt lat="35.90343550173937" lon="10.545156067160004"><ele>68.0</ele><time>2026-04-04T18:43:34Z</time></trkpt><trkpt lat="35.90339492092968" lon="10.545277085173009"><ele>68.0</ele><time>2026-04-04T18:43:35Z</time></trkpt><trkpt lat="35.903339919097085" lon="10.545408714309241"><ele>68.0</ele><time>2026-04-04T18:43:36Z</time></trkpt><trkpt lat="35.90326808600223" lon="10.545534557741275"><ele>68.0</ele><time>2026-04-04T18:43:37Z</time></trkpt><trkpt lat="35.90316671378398" lon="10.545664055210453"><ele>68.66666666666667</ele><time>2026-04-04T18:43:38Z</time></trkpt><trkpt lat="35.90304411657272" lon="10.545796603044197"><ele>69.33333333333333</ele><time>2026-04-04T18:43:39Z</time></trkpt><trkpt lat="35.90288585841783" lon="10.54593700181074"><ele>70.0</ele><time>2026-04-04T18:43:40Z</time></trkpt><trkpt lat="35.90271716733867" lon="10.546071034059217"><ele>70.0</ele><time>2026-04-04T18:43:41Z</time></trkpt><trkpt lat="35.902573714709185" lon="10.54618524150506"><ele>70.0</ele><time>2026-04-04T18:43:42Z</time></trkpt><trkpt lat="35.90245459371131" lon="10.5462868386573"><ele>70.0</ele><time>2026-04-04T18:43:43Z</time></trkpt><trkpt lat="35.90234546110526" lon="10.546381041808772"><ele>70.0</ele><time>2026-04-04T18:43:44Z</time></trkpt><trkpt lat="35.90223862703413" lon="10.546475320235743"><ele>70.0</ele><time>2026-04-04T18:43:45Z</time></trkpt><trkpt lat="35.9021301737065" lon="10.546570072941636"><ele>70.0</ele><time>2026-04-04T18:43:45.999Z</time></trkpt><trkpt lat="35.90202052163823" lon="10.546662400197684"><ele>70.0</ele><time>2026-04-04T18:43:46.999Z</time></trkpt><trkpt lat="35.90191197679294" lon="10.54675638482121"><ele>70.0</ele><time>2026-04-04T18:43:47.999Z</time></trkpt><trkpt lat="35.90180367623686" lon="10.546848631336742"><ele>69.75</ele><time>2026-04-04T18:43:48.999Z</time></trkpt><trkpt lat="35.90169411903539" lon="10.546943260455478"><ele>69.5</ele><time>2026-04-04T18:43:49.999Z</time></trkpt><trkpt lat="35.90159029479008" lon="10.547035394576625"><ele>69.25</ele><time>2026-04-04T18:43:50.999Z</time></trkpt><trkpt lat="35.90148581982394" lon="10.54713114267325"><ele>69.0</ele><time>2026-04-04T18:43:51.999Z</time></trkpt><trkpt lat="35.901380567818954" lon="10.547226065968939"><ele>69.0</ele><time>2026-04-04T18:43:52.999Z</time></trkpt><trkpt lat="35.90127577639336" lon="10.547321293719396"><ele>69.0</ele><time>2026-04-04T18:43:53.999Z</time></trkpt><trkpt lat="35.90117290568621" lon="10.547416846754547"><ele>69.0</ele><time>2026-04-04T18:43:54.999Z</time></trkpt><trkpt lat="35.90107072096068" lon="10.547514520942352"><ele>69.0</ele><time>2026-04-04T18:43:55.999Z</time></trkpt><trkpt lat="35.90096933337541" lon="10.547612848183224"><ele>69.0</ele><time>2026-04-04T18:43:56.999Z</time></trkpt><trkpt lat="35.900871964409575" lon="10.547710465996433"><ele>69.0</ele><time>2026-04-04T18:43:57.999Z</time></trkpt><trkpt lat="35.90078483116017" lon="10.547804013312092"><ele>69.0</ele><time>2026-04-04T18:43:58.999Z</time></trkpt><trkpt lat="35.90070458339772" lon="10.547892477889071"><ele>69.0</ele><time>2026-04-04T18:43:59.999Z</time></trkpt><trkpt lat="35.90062314163758" lon="10.547985227467786"><ele>69.0</ele><time>2026-04-04T18:44:00.999Z</time></trkpt><trkpt lat="35.900540971127235" lon="10.54808635276925"><ele>69.0</ele><time>2026-04-04T18:44:01.999Z</time></trkpt><trkpt lat="35.9004543027345" lon="10.548192897284807"><ele>69.0</ele><time>2026-04-04T18:44:02.999Z</time></trkpt><trkpt lat="35.90036926216249" lon="10.548295010437673"><ele>69.0</ele><time>2026-04-04T18:44:03.999Z</time></trkpt><trkpt lat="35.90028312172455" lon="10.548403840698445"><ele>69.0</ele><time>2026-04-04T18:44:04.999Z</time></trkpt><trkpt lat="35.900195155532856" lon="10.548518091245855"><ele>69.0</ele><time>2026-04-04T18:44:05.999Z</time></trkpt><trkpt lat="35.90010408790219" lon="10.548631530499966"><ele>69.0</ele><time>2026-04-04T18:44:06.999Z</time></trkpt><trkpt lat="35.90001476627023" lon="10.548751556162138"><ele>69.0</ele><time>2026-04-04T18:44:07.999Z</time></trkpt><trkpt lat="35.899930650281085" lon="10.548871838333536"><ele>69.0</ele><time>2026-04-04T18:44:08.999Z</time></trkpt><trkpt lat="35.89985392954048" lon="10.548985840870294"><ele>69.0</ele><time>2026-04-04T18:44:09.999Z</time></trkpt><trkpt lat="35.899775030884584" lon="10.549100327897833"><ele>69.0</ele><time>2026-04-04T18:44:10.999Z</time></trkpt><trkpt lat="35.89969641628367" lon="10.549219122177309"><ele>69.0</ele><time>2026-04-04T18:44:11.999Z</time></trkpt><trkpt lat="35.8996176231339" lon="10.549342606193163"><ele>69.0</ele><time>2026-04-04T18:44:12.999Z</time></trkpt><trkpt lat="35.899537881315446" lon="10.549473275292716"><ele>69.0</ele><time>2026-04-04T18:44:13.999Z</time></trkpt><trkpt lat="35.899457176105145" lon="10.549609922392701"><ele>69.0</ele><time>2026-04-04T18:44:14.999Z</time></trkpt><trkpt lat="35.89937937155616" lon="10.549751229180947"><ele>69.0</ele><time>2026-04-04T18:44:15.999Z</time></trkpt><trkpt lat="35.899299099573625" lon="10.54989517259699"><ele>68.0</ele><time>2026-04-04T18:44:16.999Z</time></trkpt><trkpt lat="35.89921283993419" lon="10.550047402571007"><ele>67.0</ele><time>2026-04-04T18:44:17.999Z</time></trkpt><trkpt lat="35.89911839248983" lon="10.550213765187701"><ele>66.0</ele><time>2026-04-04T18:44:18.999Z</time></trkpt><trkpt lat="35.89901860462779" lon="10.55039799022742"><ele>66.0</ele><time>2026-04-04T18:44:19.999Z</time></trkpt><trkpt lat="35.8989148054443" lon="10.550580139698356"><ele>66.0</ele><time>2026-04-04T18:44:20.999Z</time></trkpt><trkpt lat="35.89881179022327" lon="10.550762067547327"><ele>66.0</ele><time>2026-04-04T18:44:21.999Z</time></trkpt><trkpt lat="35.89871025864115" lon="10.550940990201012"><ele>66.0</ele><time>2026-04-04T18:44:22.999Z</time></trkpt><trkpt lat="35.89861177054646" lon="10.551118067398136"><ele>66.0</ele><time>2026-04-04T18:44:23.999Z</time></trkpt><trkpt lat="35.898516756323836" lon="10.55128716013066"><ele>66.0</ele><time>2026-04-04T18:44:24.999Z</time></trkpt><trkpt lat="35.898425928820636" lon="10.551449846380093"><ele>66.25</ele><time>2026-04-04T18:44:25.999Z</time></trkpt><trkpt lat="35.8983417556654" lon="10.55159743593826"><ele>66.5</ele><time>2026-04-04T18:44:26.999Z</time></trkpt><trkpt lat="35.898263239711504" lon="10.551741222461226"><ele>66.75</ele><time>2026-04-04T18:44:27.999Z</time></trkpt><trkpt lat="35.89818943874897" lon="10.551877214695013"><ele>67.0</ele><time>2026-04-04T18:44:28.999Z</time></trkpt><trkpt lat="35.89811149608811" lon="10.552017664853055"><ele>67.25</ele><time>2026-04-04T18:44:29.999Z</time></trkpt><trkpt lat="35.8980317210939" lon="10.552162756334932"><ele>67.5</ele><time>2026-04-04T18:44:30.999Z</time></trkpt><trkpt lat="35.89795263014454" lon="10.55230720753377"><ele>67.75</ele><time>2026-04-04T18:44:31.999Z</time></trkpt><trkpt lat="35.89787586131627" lon="10.552444010776622"><ele>68.0</ele><time>2026-04-04T18:44:32.999Z</time></trkpt><trkpt lat="35.897803268426436" lon="10.55257081518885"><ele>68.0</ele><time>2026-04-04T18:44:33.999Z</time></trkpt><trkpt lat="35.897729697280916" lon="10.5526987257172"><ele>68.0</ele><time>2026-04-04T18:44:34.999Z</time></trkpt><trkpt lat="35.89765978779701" lon="10.55282382155171"><ele>68.0</ele><time>2026-04-04T18:44:35.999Z</time></trkpt><trkpt lat="35.897600617723725" lon="10.552947990711626"><ele>68.0</ele><time>2026-04-04T18:44:36.999Z</time></trkpt><trkpt lat="35.897554182406296" lon="10.553077916397372"><ele>67.4</ele><time>2026-04-04T18:44:37.999Z</time></trkpt><trkpt lat="35.897504010745386" lon="10.55320227906673"><ele>66.8</ele><time>2026-04-04T18:44:38.999Z</time></trkpt><trkpt lat="35.89744818667696" lon="10.553313664044266"><ele>66.2</ele><time>2026-04-04T18:44:39.999Z</time></trkpt><trkpt lat="35.89738642644031" lon="10.553410064539142"><ele>65.6</ele><time>2026-04-04T18:44:40.999Z</time></trkpt><trkpt lat="35.89732141237429" lon="10.55350909629968"><ele>65.0</ele><time>2026-04-04T18:44:41.999Z</time></trkpt><trkpt lat="35.897269123779964" lon="10.553616204642562"><ele>65.5</ele><time>2026-04-04T18:44:42.999Z</time></trkpt><trkpt lat="35.897229575412986" lon="10.55373979324188"><ele>66.0</ele><time>2026-04-04T18:44:43.999Z</time></trkpt><trkpt lat="35.89716969069647" lon="10.553860497551431"><ele>66.5</ele><time>2026-04-04T18:44:44.999Z</time></trkpt><trkpt lat="35.89709654490293" lon="10.553971585245112"><ele>67.0</ele><time>2026-04-04T18:44:45.999Z</time></trkpt><trkpt lat="35.8970289040395" lon="10.55409031060365"><ele>67.0</ele><time>2026-04-04T18:44:46.999Z</time></trkpt><trkpt lat="35.896967028943266" lon="10.554222099133996"><ele>67.0</ele><time>2026-04-04T18:44:47.999Z</time></trkpt><trkpt lat="35.89690397761254" lon="10.554364234730155"><ele>67.0</ele><time>2026-04-04T18:44:48.999Z</time></trkpt><trkpt lat="35.896841855458135" lon="10.554517312413923"><ele>67.0</ele><time>2026-04-04T18:44:49.999Z</time></trkpt><trkpt lat="35.89678020066979" lon="10.554674960969287"><ele>66.75</ele><time>2026-04-04T18:44:50.999Z</time></trkpt><trkpt lat="35.896718572434565" lon="10.554837160990072"><ele>66.5</ele><time>2026-04-04T18:44:51.999Z</time></trkpt><trkpt lat="35.89665432201461" lon="10.554999755441948"><ele>66.25</ele><time>2026-04-04T18:44:52.999Z</time></trkpt><trkpt lat="35.89659016438943" lon="10.555164112809722"><ele>66.0</ele><time>2026-04-04T18:44:53.999Z</time></trkpt><trkpt lat="35.89652648464985" lon="10.555333778887935"><ele>65.75</ele><time>2026-04-04T18:44:54.999Z</time></trkpt><trkpt lat="35.89646961400557" lon="10.555502950089664"><ele>65.5</ele><time>2026-04-04T18:44:55.999Z</time></trkpt><trkpt lat="35.89641595409511" lon="10.555675986028746"><ele>65.25</ele><time>2026-04-04T18:44:56.999Z</time></trkpt><trkpt lat="35.89636134178933" lon="10.555847830844804"><ele>65.0</ele><time>2026-04-04T18:44:57.999Z</time></trkpt><trkpt lat="35.89630840225951" lon="10.556019822826475"><ele>65.0</ele><time>2026-04-04T18:44:58.999Z</time></trkpt><trkpt lat="35.89625566448118" lon="10.556188998698095"><ele>65.0</ele><time>2026-04-04T18:44:59.999Z</time></trkpt><trkpt lat="35.89620303711787" lon="10.556362052579356"><ele>65.0</ele><time>2026-04-04T18:45:00.999Z</time></trkpt><trkpt lat="35.89615113741509" lon="10.55653354214193"><ele>65.0</ele><time>2026-04-04T18:45:01.999Z</time></trkpt><trkpt lat="35.89609986403306" lon="10.556706340083513"><ele>64.66666666666667</ele><time>2026-04-04T18:45:02.999Z</time></trkpt><trkpt lat="35.89605151987192" lon="10.55688467358357"><ele>64.33333333333333</ele><time>2026-04-04T18:45:03.999Z</time></trkpt><trkpt lat="35.89600252903252" lon="10.557066996028457"><ele>64.0</ele><time>2026-04-04T18:45:04.999Z</time></trkpt><trkpt lat="35.89595389533813" lon="10.557252246305442"><ele>63.0</ele><time>2026-04-04T18:45:05.999Z</time></trkpt><trkpt lat="35.89590759018382" lon="10.557442606163532"><ele>62.0</ele><time>2026-04-04T18:45:07Z</time></trkpt><trkpt lat="35.89586342554897" lon="10.557636222959337"><ele>61.0</ele><time>2026-04-04T18:45:08Z</time></trkpt><trkpt lat="35.89582372127449" lon="10.557823808535579"><ele>60.0</ele><time>2026-04-04T18:45:09Z</time></trkpt><trkpt lat="35.895784956125055" lon="10.558004786230706"><ele>59.0</ele><time>2026-04-04T18:45:10Z</time></trkpt><trkpt lat="35.89574940520178" lon="10.558186375398684"><ele>58.0</ele><time>2026-04-04T18:45:11Z</time></trkpt><trkpt lat="35.89571039731627" lon="10.558367326110405"><ele>58.0</ele><time>2026-04-04T18:45:12Z</time></trkpt><trkpt lat="35.895674440517055" lon="10.558552046175159"><ele>58.0</ele><time>2026-04-04T18:45:13Z</time></trkpt><trkpt lat="35.89564200381377" lon="10.558731712029164"><ele>58.0</ele><time>2026-04-04T18:45:14Z</time></trkpt><trkpt lat="35.89561818989163" lon="10.55890702052992"><ele>58.0</ele><time>2026-04-04T18:45:15Z</time></trkpt><trkpt lat="35.89559376973616" lon="10.559078593580214"><ele>57.0</ele><time>2026-04-04T18:45:16Z</time></trkpt><trkpt lat="35.89556985618552" lon="10.55923628622952"><ele>56.0</ele><time>2026-04-04T18:45:17Z</time></trkpt><trkpt lat="35.895545373678786" lon="10.55938579098614"><ele>55.0</ele><time>2026-04-04T18:45:18Z</time></trkpt><trkpt lat="35.89552081244905" lon="10.559530136122113"><ele>54.0</ele><time>2026-04-04T18:45:19Z</time></trkpt><trkpt lat="35.89550053116187" lon="10.559656955174743"><ele>53.5</ele><time>2026-04-04T18:45:20Z</time></trkpt><trkpt lat="35.895482859923604" lon="10.559767439577426"><ele>53.0</ele><time>2026-04-04T18:45:21Z</time></trkpt><trkpt lat="35.895464910745325" lon="10.559849939534718"><ele>52.5</ele><time>2026-04-04T18:45:22Z</time></trkpt><trkpt lat="35.895419982512266" lon="10.559985939029485"><ele>52.0</ele><time>2026-04-04T18:45:24Z</time></trkpt><trkpt lat="35.89538669870911" lon="10.560063129229285"><ele>51.5</ele><time>2026-04-04T18:45:25Z</time></trkpt><trkpt lat="35.895349039030386" lon="10.5601479850901"><ele>51.0</ele><time>2026-04-04T18:45:26Z</time></trkpt><trkpt lat="35.895316690333175" lon="10.56023457752082"><ele>51.0</ele><time>2026-04-04T18:45:27Z</time></trkpt><trkpt lat="35.895302783674836" lon="10.56032409118356"><ele>51.0</ele><time>2026-04-04T18:45:28Z</time></trkpt><trkpt lat="35.89531490681225" lon="10.560433312445621"><ele>51.0</ele><time>2026-04-04T18:45:29Z</time></trkpt><trkpt lat="35.895332858632464" lon="10.560566004358838"><ele>51.0</ele><time>2026-04-04T18:45:30Z</time></trkpt><trkpt lat="35.89533750253708" lon="10.560711006427477"><ele>51.0</ele><time>2026-04-04T18:45:31Z</time></trkpt><trkpt lat="35.89533202288755" lon="10.560875329318785"><ele>50.5</ele><time>2026-04-04T18:45:32Z</time></trkpt><trkpt lat="35.8953121984787" lon="10.561058497876594"><ele>50.0</ele><time>2026-04-04T18:45:33Z</time></trkpt><trkpt lat="35.89528273353368" lon="10.561239070033922"><ele>49.5</ele><time>2026-04-04T18:45:34Z</time></trkpt><trkpt lat="35.89525147322686" lon="10.561401517514033"><ele>49.0</ele><time>2026-04-04T18:45:35Z</time></trkpt><trkpt lat="35.89521955846561" lon="10.561560629928834"><ele>48.5</ele><time>2026-04-04T18:45:36Z</time></trkpt><trkpt lat="35.89519350404328" lon="10.561712462292524"><ele>48.0</ele><time>2026-04-04T18:45:37Z</time></trkpt><trkpt lat="35.89517332837141" lon="10.56185003848415"><ele>47.5</ele><time>2026-04-04T18:45:38Z</time></trkpt><trkpt lat="35.895150739184935" lon="10.561989554266725"><ele>47.0</ele><time>2026-04-04T18:45:39Z</time></trkpt><trkpt lat="35.89512655579623" lon="10.562133853483054"><ele>46.5</ele><time>2026-04-04T18:45:40Z</time></trkpt><trkpt lat="35.89510138942346" lon="10.56227807254677"><ele>46.0</ele><time>2026-04-04T18:45:41Z</time></trkpt><trkpt lat="35.895074936750746" lon="10.5624230934018"><ele>45.5</ele><time>2026-04-04T18:45:42Z</time></trkpt><trkpt lat="35.89504312594677" lon="10.562570526875337"><ele>45.0</ele><time>2026-04-04T18:45:43Z</time></trkpt><trkpt lat="35.895005636905395" lon="10.562722325103499"><ele>47.75</ele><time>2026-04-04T18:45:44Z</time></trkpt><trkpt lat="35.894967398190786" lon="10.562875718713103"><ele>50.5</ele><time>2026-04-04T18:45:45Z</time></trkpt><trkpt lat="35.894927906535784" lon="10.563030001220566"><ele>53.25</ele><time>2026-04-04T18:45:46Z</time></trkpt><trkpt lat="35.89488663126061" lon="10.563193697825824"><ele>56.0</ele><time>2026-04-04T18:45:47Z</time></trkpt><trkpt lat="35.89484296469698" lon="10.56336322920077"><ele>56.0</ele><time>2026-04-04T18:45:47.999Z</time></trkpt><trkpt lat="35.89479784764897" lon="10.563532111959328"><ele>56.0</ele><time>2026-04-04T18:45:48.999Z</time></trkpt><trkpt lat="35.89475104284562" lon="10.563703663159158"><ele>56.0</ele><time>2026-04-04T18:45:49.999Z</time></trkpt><trkpt lat="35.89470446221917" lon="10.563877147815276"><ele>56.0</ele><time>2026-04-04T18:45:50.999Z</time></trkpt><trkpt lat="35.89465649719875" lon="10.564049544292631"><ele>55.0</ele><time>2026-04-04T18:45:51.999Z</time></trkpt><trkpt lat="35.8946020586996" lon="10.564224279384721"><ele>54.0</ele><time>2026-04-04T18:45:52.999Z</time></trkpt><trkpt lat="35.894540764250685" lon="10.564402176877373"><ele>53.0</ele><time>2026-04-04T18:45:53.999Z</time></trkpt><trkpt lat="35.89447528197243" lon="10.564579628127035"><ele>52.333333333333336</ele><time>2026-04-04T18:45:54.999Z</time></trkpt><trkpt lat="35.894407347187474" lon="10.564762099929323"><ele>51.66666666666667</ele><time>2026-04-04T18:45:55.999Z</time></trkpt><trkpt lat="35.89433783137878" lon="10.564941752614757"><ele>51.0</ele><time>2026-04-04T18:45:56.999Z</time></trkpt><trkpt lat="35.89427191470771" lon="10.565106793987033"><ele>50.75</ele><time>2026-04-04T18:45:57.999Z</time></trkpt><trkpt lat="35.894209470540765" lon="10.565263110216804"><ele>50.5</ele><time>2026-04-04T18:45:58.999Z</time></trkpt><trkpt lat="35.89414699576796" lon="10.56541061754943"><ele>50.25</ele><time>2026-04-04T18:45:59.999Z</time></trkpt><trkpt lat="35.894080211413424" lon="10.565559154938638"><ele>50.0</ele><time>2026-04-04T18:46:00.999Z</time></trkpt><trkpt lat="35.894010808552565" lon="10.565710868078925"><ele>50.0</ele><time>2026-04-04T18:46:01.999Z</time></trkpt><trkpt lat="35.89393703820231" lon="10.565861597596014"><ele>50.0</ele><time>2026-04-04T18:46:02.999Z</time></trkpt><trkpt lat="35.893863035657176" lon="10.566005153737592"><ele>50.0</ele><time>2026-04-04T18:46:03.999Z</time></trkpt><trkpt lat="35.89378948606977" lon="10.566151823918855"><ele>50.0</ele><time>2026-04-04T18:46:04.999Z</time></trkpt><trkpt lat="35.893720910641456" lon="10.566293603978087"><ele>48.25</ele><time>2026-04-04T18:46:05.999Z</time></trkpt><trkpt lat="35.893652890001064" lon="10.566438622574799"><ele>46.5</ele><time>2026-04-04T18:46:06.999Z</time></trkpt><trkpt lat="35.89358738396156" lon="10.566579114064162"><ele>44.75</ele><time>2026-04-04T18:46:07.999Z</time></trkpt><trkpt lat="35.893522831635345" lon="10.566718770519879"><ele>43.0</ele><time>2026-04-04T18:46:08.999Z</time></trkpt><trkpt lat="35.89345782182068" lon="10.566856957337114"><ele>43.5</ele><time>2026-04-04T18:46:09.999Z</time></trkpt><trkpt lat="35.89339395523357" lon="10.566991185526748"><ele>44.0</ele><time>2026-04-04T18:46:10.999Z</time></trkpt><trkpt lat="35.893331691363656" lon="10.567125654903437"><ele>44.5</ele><time>2026-04-04T18:46:11.999Z</time></trkpt><trkpt lat="35.893269476466656" lon="10.56726071543529"><ele>45.0</ele><time>2026-04-04T18:46:12.999Z</time></trkpt><trkpt lat="35.893204382518924" lon="10.567396771483867"><ele>43.75</ele><time>2026-04-04T18:46:13.999Z</time></trkpt><trkpt lat="35.893136011908766" lon="10.567535494818676"><ele>42.5</ele><time>2026-04-04T18:46:14.999Z</time></trkpt><trkpt lat="35.89306995078216" lon="10.567672502848255"><ele>41.25</ele><time>2026-04-04T18:46:15.999Z</time></trkpt><trkpt lat="35.89300859803514" lon="10.567802394058457"><ele>40.0</ele><time>2026-04-04T18:46:16.999Z</time></trkpt><trkpt lat="35.89294914030202" lon="10.567930124875659"><ele>39.8</ele><time>2026-04-04T18:46:17.999Z</time></trkpt><trkpt lat="35.892892102850574" lon="10.56805031824048"><ele>39.6</ele><time>2026-04-04T18:46:18.999Z</time></trkpt><trkpt lat="35.89283975554969" lon="10.568162407526307"><ele>39.4</ele><time>2026-04-04T18:46:19.999Z</time></trkpt><trkpt lat="35.89278909899805" lon="10.568269099723073"><ele>39.2</ele><time>2026-04-04T18:46:20.999Z</time></trkpt><trkpt lat="35.89274152596359" lon="10.568368877009416"><ele>39.0</ele><time>2026-04-04T18:46:21.999Z</time></trkpt><trkpt lat="35.892697365074675" lon="10.568460580332822"><ele>39.0</ele><time>2026-04-04T18:46:22.999Z</time></trkpt><trkpt lat="35.89265036875215" lon="10.56854637394958"><ele>39.0</ele><time>2026-04-04T18:46:23.999Z</time></trkpt><trkpt lat="35.89260873832633" lon="10.568626827719994"><ele>39.0</ele><time>2026-04-04T18:46:24.999Z</time></trkpt><trkpt lat="35.892568269592665" lon="10.568700475969969"><ele>39.0</ele><time>2026-04-04T18:46:25.999Z</time></trkpt><trkpt lat="35.89253021744639" lon="10.568768678421938"><ele>39.0</ele><time>2026-04-04T18:46:26.999Z</time></trkpt><trkpt lat="35.89246636953932" lon="10.568874556920294"><ele>39.0</ele><time>2026-04-04T18:46:28.999Z</time></trkpt><trkpt lat="35.89241028681826" lon="10.568953356406821"><ele>39.8</ele><time>2026-04-04T18:46:31.999Z</time></trkpt><trkpt lat="35.89235940697626" lon="10.569024194187591"><ele>40.599999999999994</ele><time>2026-04-04T18:46:34.999Z</time></trkpt><trkpt lat="35.892301882900554" lon="10.569082830476303"><ele>41.4</ele><time>2026-04-04T18:46:38.999Z</time></trkpt><trkpt lat="35.892252185192824" lon="10.569164701725105"><ele>42.199999999999996</ele><time>2026-04-04T18:46:46.999Z</time></trkpt><trkpt lat="35.8921968230221" lon="10.569251193460586"><ele>43.0</ele><time>2026-04-04T18:46:48.999Z</time></trkpt><trkpt lat="35.892168941091704" lon="10.569405641143627"><ele>43.0</ele><time>2026-04-04T18:46:50.999Z</time></trkpt><trkpt lat="35.8921923635937" lon="10.569480459361378"><ele>43.0</ele><time>2026-04-04T18:46:51.999Z</time></trkpt><trkpt lat="35.89223315539613" lon="10.569544008001952"><ele>43.0</ele><time>2026-04-04T18:46:52.999Z</time></trkpt><trkpt lat="35.89230203818757" lon="10.569578531836179"><ele>43.0</ele><time>2026-04-04T18:46:53.999Z</time></trkpt><trkpt lat="35.89239155440224" lon="10.569580779777752"><ele>43.0</ele><time>2026-04-04T18:46:54.999Z</time></trkpt><trkpt lat="35.89249338263017" lon="10.569563242913752"><ele>43.0</ele><time>2026-04-04T18:46:55.999Z</time></trkpt><trkpt lat="35.89260679923375" lon="10.569531620422195"><ele>43.4</ele><time>2026-04-04T18:46:56.999Z</time></trkpt><trkpt lat="35.892724821221094" lon="10.569508168875785"><ele>43.8</ele><time>2026-04-04T18:46:57.999Z</time></trkpt><trkpt lat="35.89282503845561" lon="10.569501970301843"><ele>44.2</ele><time>2026-04-04T18:46:58.999Z</time></trkpt><trkpt lat="35.89289918674575" lon="10.56950596034499"><ele>44.6</ele><time>2026-04-04T18:46:59.999Z</time></trkpt><trkpt lat="35.89301580131479" lon="10.569506038036339"><ele>45.0</ele><time>2026-04-04T18:47:01.999Z</time></trkpt><trkpt lat="35.893123869406594" lon="10.569512603045029"><ele>45.0</ele><time>2026-04-04T18:47:03.999Z</time></trkpt><trkpt lat="35.893220611671154" lon="10.569524023855596"><ele>45.0</ele><time>2026-04-04T18:47:05.999Z</time></trkpt><trkpt lat="35.89332309022798" lon="10.569525877857926"><ele>45.0</ele><time>2026-04-04T18:47:07.999Z</time></trkpt><trkpt lat="35.89344360681053" lon="10.569531766342141"><ele>45.0</ele><time>2026-04-04T18:47:09.999Z</time></trkpt><trkpt lat="35.89351149821212" lon="10.569534714377856"><ele>45.0</ele><time>2026-04-04T18:47:10.999Z</time></trkpt><trkpt lat="35.8935848461602" lon="10.569538445191224"><ele>46.333333333333336</ele><time>2026-04-04T18:47:11.999Z</time></trkpt><trkpt lat="35.89367245109948" lon="10.569546764103908"><ele>47.66666666666667</ele><time>2026-04-04T18:47:13Z</time></trkpt><trkpt lat="35.89376085635753" lon="10.569554924453355"><ele>49.0</ele><time>2026-04-04T18:47:14Z</time></trkpt><trkpt lat="35.893850848110844" lon="10.569558762225913"><ele>50.333333333333336</ele><time>2026-04-04T18:47:15Z</time></trkpt><trkpt lat="35.89393976838125" lon="10.569561001583308"><ele>51.66666666666667</ele><time>2026-04-04T18:47:16Z</time></trkpt><trkpt lat="35.89402995344992" lon="10.569564711753973"><ele>53.0</ele><time>2026-04-04T18:47:17Z</time></trkpt><trkpt lat="35.894120328978545" lon="10.569572137244865"><ele>53.0</ele><time>2026-04-04T18:47:18Z</time></trkpt><trkpt lat="35.894214322737874" lon="10.569581473568494"><ele>53.0</ele><time>2026-04-04T18:47:19Z</time></trkpt><trkpt lat="35.89431016127401" lon="10.569587479952661"><ele>53.0</ele><time>2026-04-04T18:47:20Z</time></trkpt><trkpt lat="35.894410298259004" lon="10.569592624439661"><ele>53.0</ele><time>2026-04-04T18:47:21Z</time></trkpt><trkpt lat="35.894513167887915" lon="10.569601097276761"><ele>53.0</ele><time>2026-04-04T18:47:22Z</time></trkpt><trkpt lat="35.89462172064037" lon="10.569612377481468"><ele>53.25</ele><time>2026-04-04T18:47:23Z</time></trkpt><trkpt lat="35.89474683614727" lon="10.569623797885905"><ele>53.5</ele><time>2026-04-04T18:47:24Z</time></trkpt><trkpt lat="35.894865296549135" lon="10.569631842097483"><ele>53.75</ele><time>2026-04-04T18:47:25Z</time></trkpt><trkpt lat="35.894973272196445" lon="10.56963675341578"><ele>54.0</ele><time>2026-04-04T18:47:26Z</time></trkpt><trkpt lat="35.895080656726705" lon="10.569643660680297"><ele>53.0</ele><time>2026-04-04T18:47:27Z</time></trkpt><trkpt lat="35.895190689084316" lon="10.56965055613577"><ele>52.00000000000001</ele><time>2026-04-04T18:47:28Z</time></trkpt><trkpt lat="35.89530054590663" lon="10.56965439050545"><ele>51.0</ele><time>2026-04-04T18:47:29Z</time></trkpt><trkpt lat="35.89540856907581" lon="10.569664039396217"><ele>50.0</ele><time>2026-04-04T18:47:30Z</time></trkpt><trkpt lat="35.89551859668156" lon="10.569682078252928"><ele>49.0</ele><time>2026-04-04T18:47:31Z</time></trkpt><trkpt lat="35.89562838536357" lon="10.569715390353432"><ele>49.0</ele><time>2026-04-04T18:47:32Z</time></trkpt><trkpt lat="35.89573683216034" lon="10.56976313993766"><ele>49.0</ele><time>2026-04-04T18:47:33Z</time></trkpt><trkpt lat="35.89584301225948" lon="10.569827981678085"><ele>49.0</ele><time>2026-04-04T18:47:34Z</time></trkpt><trkpt lat="35.89594432100844" lon="10.56991317380744"><ele>49.0</ele><time>2026-04-04T18:47:35Z</time></trkpt><trkpt lat="35.89603559390722" lon="10.570018799301149"><ele>48.25</ele><time>2026-04-04T18:47:36Z</time></trkpt><trkpt lat="35.89611803006567" lon="10.57013853987275"><ele>47.5</ele><time>2026-04-04T18:47:37Z</time></trkpt><trkpt lat="35.896193933540445" lon="10.57028000142046"><ele>46.75</ele><time>2026-04-04T18:47:38Z</time></trkpt><trkpt lat="35.89625805988395" lon="10.570422705069124"><ele>46.0</ele><time>2026-04-04T18:47:39Z</time></trkpt><trkpt lat="35.89630240542255" lon="10.57057275385469"><ele>46.0</ele><time>2026-04-04T18:47:40Z</time></trkpt><trkpt lat="35.89633149525452" lon="10.570722553718896"><ele>46.0</ele><time>2026-04-04T18:47:41Z</time></trkpt><trkpt lat="35.896336138225685" lon="10.570878940506624"><ele>46.0</ele><time>2026-04-04T18:47:42Z</time></trkpt><trkpt lat="35.896327206426854" lon="10.571038609476503"><ele>46.0</ele><time>2026-04-04T18:47:43Z</time></trkpt><trkpt lat="35.89630590983639" lon="10.571199952856979"><ele>44.5</ele><time>2026-04-04T18:47:44Z</time></trkpt><trkpt lat="35.896272338428965" lon="10.571357142041135"><ele>43.0</ele><time>2026-04-04T18:47:45Z</time></trkpt><trkpt lat="35.89623194030698" lon="10.571496525517302"><ele>41.5</ele><time>2026-04-04T18:47:46Z</time></trkpt><trkpt lat="35.896196388035705" lon="10.571631832150448"><ele>40.0</ele><time>2026-04-04T18:47:47Z</time></trkpt><trkpt lat="35.89616164635613" lon="10.571755959459933"><ele>40.0</ele><time>2026-04-04T18:47:48Z</time></trkpt><trkpt lat="35.89613068974994" lon="10.571877843396152"><ele>40.0</ele><time>2026-04-04T18:47:48.999Z</time></trkpt><trkpt lat="35.896108692594886" lon="10.572004991108235"><ele>40.0</ele><time>2026-04-04T18:47:49.999Z</time></trkpt><trkpt lat="35.89609924166155" lon="10.572134562492229"><ele>40.0</ele><time>2026-04-04T18:47:50.999Z</time></trkpt><trkpt lat="35.896101443886614" lon="10.572262987107333"><ele>40.0</ele><time>2026-04-04T18:47:51.999Z</time></trkpt><trkpt lat="35.8961180040024" lon="10.572381098768954"><ele>40.25</ele><time>2026-04-04T18:47:52.999Z</time></trkpt><trkpt lat="35.89614775394749" lon="10.572497063953302"><ele>40.5</ele><time>2026-04-04T18:47:53.999Z</time></trkpt><trkpt lat="35.89619377585062" lon="10.572627225334498"><ele>40.75</ele><time>2026-04-04T18:47:54.999Z</time></trkpt><trkpt lat="35.896251250711224" lon="10.572760128759313"><ele>41.0</ele><time>2026-04-04T18:47:55.999Z</time></trkpt><trkpt lat="35.89632685196515" lon="10.572879276814492"><ele>42.0</ele><time>2026-04-04T18:47:56.999Z</time></trkpt><trkpt lat="35.89640846429775" lon="10.572968774761524"><ele>43.0</ele><time>2026-04-04T18:47:57.999Z</time></trkpt><trkpt lat="35.896500551988815" lon="10.573038963578655"><ele>44.0</ele><time>2026-04-04T18:47:58.999Z</time></trkpt><trkpt lat="35.89660221680143" lon="10.573097652001016"><ele>45.0</ele><time>2026-04-04T18:47:59.999Z</time></trkpt><trkpt lat="35.89670447317623" lon="10.573152503927878"><ele>46.0</ele><time>2026-04-04T18:48:00.999Z</time></trkpt><trkpt lat="35.89679370132922" lon="10.57319716220375"><ele>46.0</ele><time>2026-04-04T18:48:01.999Z</time></trkpt><trkpt lat="35.896856232151194" lon="10.573233300658556"><ele>46.0</ele><time>2026-04-04T18:48:02.999Z</time></trkpt><trkpt lat="35.89691337783986" lon="10.573277370562337"><ele>46.0</ele><time>2026-04-04T18:48:03.999Z</time></trkpt><trkpt lat="35.89698640093092" lon="10.573351321526552"><ele>46.0</ele><time>2026-04-04T18:48:05.999Z</time></trkpt><trkpt lat="35.89704757843923" lon="10.573445664263241"><ele>46.0</ele><time>2026-04-04T18:48:07.999Z</time></trkpt><trkpt lat="35.89711190856068" lon="10.573565911960035"><ele>46.0</ele><time>2026-04-04T18:48:09.999Z</time></trkpt><trkpt lat="35.89716801105978" lon="10.573618133619632"><ele>46.0</ele><time>2026-04-04T18:48:10.999Z</time></trkpt><trkpt lat="35.89724017830195" lon="10.573663505645559"><ele>46.0</ele><time>2026-04-04T18:48:11.999Z</time></trkpt><trkpt lat="35.89732105272593" lon="10.573717316128835"><ele>46.0</ele><time>2026-04-04T18:48:12.999Z</time></trkpt><trkpt lat="35.897399686833836" lon="10.57379169245782"><ele>46.0</ele><time>2026-04-04T18:48:13.999Z</time></trkpt><trkpt lat="35.8974838636426" lon="10.573883674859085"><ele>46.0</ele><time>2026-04-04T18:48:14.999Z</time></trkpt><trkpt lat="35.897568934943834" lon="10.573983874644785"><ele>46.0</ele><time>2026-04-04T18:48:15.999Z</time></trkpt><trkpt lat="35.89765190880994" lon="10.574099939737168"><ele>46.0</ele><time>2026-04-04T18:48:16.999Z</time></trkpt><trkpt lat="35.897740723003544" lon="10.57424431634781"><ele>46.0</ele><time>2026-04-04T18:48:17.999Z</time></trkpt><trkpt lat="35.89782591954082" lon="10.574403358074843"><ele>46.0</ele><time>2026-04-04T18:48:18.999Z</time></trkpt><trkpt lat="35.89790213830137" lon="10.574569078305625"><ele>46.0</ele><time>2026-04-04T18:48:19.999Z</time></trkpt><trkpt lat="35.89797097391448" lon="10.574741543488344"><ele>46.0</ele><time>2026-04-04T18:48:20.999Z</time></trkpt><trkpt lat="35.89803997161047" lon="10.574920758625352"><ele>46.0</ele><time>2026-04-04T18:48:21.999Z</time></trkpt><trkpt lat="35.89810320712838" lon="10.575091789989484"><ele>46.0</ele><time>2026-04-04T18:48:22.999Z</time></trkpt><trkpt lat="35.89816385280219" lon="10.575252692469906"><ele>46.0</ele><time>2026-04-04T18:48:23.999Z</time></trkpt><trkpt lat="35.8982195113617" lon="10.575391851709503"><ele>46.0</ele><time>2026-04-04T18:48:24.999Z</time></trkpt><trkpt lat="35.898271625091866" lon="10.57551977854896"><ele>46.0</ele><time>2026-04-04T18:48:25.999Z</time></trkpt><trkpt lat="35.89832401771343" lon="10.575640346001306"><ele>46.4</ele><time>2026-04-04T18:48:26.999Z</time></trkpt><trkpt lat="35.89838106923468" lon="10.575757729290617"><ele>46.8</ele><time>2026-04-04T18:48:27.999Z</time></trkpt><trkpt lat="35.89844065705994" lon="10.575871334886337"><ele>47.199999999999996</ele><time>2026-04-04T18:48:28.999Z</time></trkpt><trkpt lat="35.8985088953263" lon="10.57597653788"><ele>47.599999999999994</ele><time>2026-04-04T18:48:29.999Z</time></trkpt><trkpt lat="35.8985845180617" lon="10.576069539419787"><ele>48.0</ele><time>2026-04-04T18:48:30.999Z</time></trkpt><trkpt lat="35.8986613734095" lon="10.576155827753421"><ele>44.6</ele><time>2026-04-04T18:48:31.999Z</time></trkpt><trkpt lat="35.89873490016914" lon="10.576243187264758"><ele>41.199999999999996</ele><time>2026-04-04T18:48:32.999Z</time></trkpt><trkpt lat="35.89880293004665" lon="10.576324355576135"><ele>37.8</ele><time>2026-04-04T18:48:33.999Z</time></trkpt><trkpt lat="35.898862720859526" lon="10.576397003884221"><ele>34.4</ele><time>2026-04-04T18:48:34.999Z</time></trkpt><trkpt lat="35.89892419906396" lon="10.5764771038522"><ele>31.0</ele><time>2026-04-04T18:48:35.999Z</time></trkpt><trkpt lat="35.8989885346459" lon="10.576555923595803"><ele>31.0</ele><time>2026-04-04T18:48:36.999Z</time></trkpt><trkpt lat="35.89905420253406" lon="10.576633410555372"><ele>31.0</ele><time>2026-04-04T18:48:37.999Z</time></trkpt><trkpt lat="35.8991192213286" lon="10.57671082467135"><ele>31.0</ele><time>2026-04-04T18:48:38.999Z</time></trkpt><trkpt lat="35.8991855295453" lon="10.576790864287878"><ele>31.0</ele><time>2026-04-04T18:48:39.999Z</time></trkpt><trkpt lat="35.89925087125435" lon="10.576875268881931"><ele>31.0</ele><time>2026-04-04T18:48:40.999Z</time></trkpt><trkpt lat="35.89930806772805" lon="10.576953913807337"><ele>29.200000000000003</ele><time>2026-04-04T18:48:41.999Z</time></trkpt><trkpt lat="35.89937093979729" lon="10.577040867932475"><ele>27.400000000000002</ele><time>2026-04-04T18:48:42.999Z</time></trkpt><trkpt lat="35.899431058644424" lon="10.577129776251498"><ele>25.6</ele><time>2026-04-04T18:48:43.999Z</time></trkpt><trkpt lat="35.89948743114477" lon="10.577223865511046"><ele>23.8</ele><time>2026-04-04T18:48:44.999Z</time></trkpt><trkpt lat="35.89953972144009" lon="10.577328701247582"><ele>22.0</ele><time>2026-04-04T18:48:45.999Z</time></trkpt><trkpt lat="35.899585809747975" lon="10.57743909872602"><ele>22.0</ele><time>2026-04-04T18:48:46.999Z</time></trkpt><trkpt lat="35.8996314687049" lon="10.577551071326756"><ele>22.0</ele><time>2026-04-04T18:48:47.999Z</time></trkpt><trkpt lat="35.89966598250437" lon="10.577679097614883"><ele>22.0</ele><time>2026-04-04T18:48:48.999Z</time></trkpt><trkpt lat="35.89969479396688" lon="10.577814369389106"><ele>22.0</ele><time>2026-04-04T18:48:49.999Z</time></trkpt><trkpt lat="35.89971811055644" lon="10.577950552330263"><ele>22.0</ele><time>2026-04-04T18:48:50.999Z</time></trkpt><trkpt lat="35.89974075310399" lon="10.578088575051762"><ele>21.5</ele><time>2026-04-04T18:48:51.999Z</time></trkpt><trkpt lat="35.89975981497131" lon="10.578228024030945"><ele>21.0</ele><time>2026-04-04T18:48:52.999Z</time></trkpt><trkpt lat="35.899783811005655" lon="10.578367297905771"><ele>20.5</ele><time>2026-04-04T18:48:53.999Z</time></trkpt><trkpt lat="35.899809243654104" lon="10.578510954612238"><ele>20.0</ele><time>2026-04-04T18:48:54.999Z</time></trkpt><trkpt lat="35.899833728130396" lon="10.57865857002722"><ele>19.25</ele><time>2026-04-04T18:48:55.999Z</time></trkpt><trkpt lat="35.899861146576896" lon="10.578811182931494"><ele>18.5</ele><time>2026-04-04T18:48:56.999Z</time></trkpt><trkpt lat="35.89988811344294" lon="10.578966234050904"><ele>17.75</ele><time>2026-04-04T18:48:57.999Z</time></trkpt><trkpt lat="35.899915775017696" lon="10.579120322355022"><ele>17.0</ele><time>2026-04-04T18:48:58.999Z</time></trkpt><trkpt lat="35.89994342856356" lon="10.579273546069809"><ele>17.0</ele><time>2026-04-04T18:48:59.999Z</time></trkpt><trkpt lat="35.899971855093106" lon="10.579427359002272"><ele>17.0</ele><time>2026-04-04T18:49:00.999Z</time></trkpt><trkpt lat="35.899997831105665" lon="10.579574983740432"><ele>17.0</ele><time>2026-04-04T18:49:01.999Z</time></trkpt><trkpt lat="35.900022537635444" lon="10.579721526961565"><ele>17.0</ele><time>2026-04-04T18:49:02.999Z</time></trkpt><trkpt lat="35.90004881606959" lon="10.57987498888543"><ele>16.25</ele><time>2026-04-04T18:49:03.999Z</time></trkpt><trkpt lat="35.90007591960317" lon="10.580026790058094"><ele>15.5</ele><time>2026-04-04T18:49:04.999Z</time></trkpt><trkpt lat="35.900102463918806" lon="10.580177993965544"><ele>14.75</ele><time>2026-04-04T18:49:05.999Z</time></trkpt><trkpt lat="35.90012712736332" lon="10.580320995216852"><ele>14.0</ele><time>2026-04-04T18:49:06.999Z</time></trkpt><trkpt lat="35.900153968597394" lon="10.5804539556223"><ele>13.799999999999999</ele><time>2026-04-04T18:49:07.999Z</time></trkpt><trkpt lat="35.90018537414833" lon="10.580582200312982"><ele>13.599999999999998</ele><time>2026-04-04T18:49:08.999Z</time></trkpt><trkpt lat="35.900221026460656" lon="10.580712406068999"><ele>13.4</ele><time>2026-04-04T18:49:09.999Z</time></trkpt><trkpt lat="35.90026231411217" lon="10.580833831261366"><ele>13.2</ele><time>2026-04-04T18:49:10.999Z</time></trkpt><trkpt lat="35.900307824389394" lon="10.580957805710298"><ele>13.0</ele><time>2026-04-04T18:49:11.999Z</time></trkpt><trkpt lat="35.90035180011447" lon="10.58108324109674"><ele>13.0</ele><time>2026-04-04T18:49:12.999Z</time></trkpt><trkpt lat="35.90039991846689" lon="10.58120611307849"><ele>13.0</ele><time>2026-04-04T18:49:13.999Z</time></trkpt><trkpt lat="35.90045039497227" lon="10.581324786249658"><ele>13.0</ele><time>2026-04-04T18:49:14.999Z</time></trkpt><trkpt lat="35.90050787823352" lon="10.581447147166758"><ele>13.0</ele><time>2026-04-04T18:49:15.999Z</time></trkpt><trkpt lat="35.90056399642789" lon="10.581572348686374"><ele>13.0</ele><time>2026-04-04T18:49:16.999Z</time></trkpt><trkpt lat="35.90062338015604" lon="10.581695752866773"><ele>13.0</ele><time>2026-04-04T18:49:17.999Z</time></trkpt><trkpt lat="35.90068431191701" lon="10.581817905899834"><ele>13.0</ele><time>2026-04-04T18:49:19Z</time></trkpt><trkpt lat="35.90074617990966" lon="10.581940278928926"><ele>13.0</ele><time>2026-04-04T18:49:20Z</time></trkpt><trkpt lat="35.90080674797737" lon="10.582058932394492"><ele>13.0</ele><time>2026-04-04T18:49:21Z</time></trkpt><trkpt lat="35.900865614001056" lon="10.582170695677053"><ele>13.0</ele><time>2026-04-04T18:49:22Z</time></trkpt><trkpt lat="35.900919850060156" lon="10.582277611375503"><ele>13.0</ele><time>2026-04-04T18:49:23Z</time></trkpt><trkpt lat="35.90097806524796" lon="10.582386040661978"><ele>13.0</ele><time>2026-04-04T18:49:24Z</time></trkpt><trkpt lat="35.901033592313915" lon="10.582498097731465"><ele>13.0</ele><time>2026-04-04T18:49:25Z</time></trkpt><trkpt lat="35.90108713848552" lon="10.58260229444864"><ele>12.833333333333332</ele><time>2026-04-04T18:49:26Z</time></trkpt><trkpt lat="35.90113512774345" lon="10.582702591829886"><ele>12.666666666666666</ele><time>2026-04-04T18:49:27Z</time></trkpt><trkpt lat="35.90118131987663" lon="10.582798141648334"><ele>12.5</ele><time>2026-04-04T18:49:28Z</time></trkpt><trkpt lat="35.90122729377349" lon="10.582889646916893"><ele>12.333333333333332</ele><time>2026-04-04T18:49:29Z</time></trkpt><trkpt lat="35.90127087651495" lon="10.582977583281345"><ele>12.166666666666666</ele><time>2026-04-04T18:49:30Z</time></trkpt><trkpt lat="35.90131227577714" lon="10.583062220498464"><ele>12.0</ele><time>2026-04-04T18:49:31Z</time></trkpt><trkpt lat="35.90135362326997" lon="10.58314205915134"><ele>12.0</ele><time>2026-04-04T18:49:32Z</time></trkpt><trkpt lat="35.90139445406228" lon="10.583221373983873"><ele>12.0</ele><time>2026-04-04T18:49:33Z</time></trkpt><trkpt lat="35.90143429028593" lon="10.583296717009857"><ele>12.0</ele><time>2026-04-04T18:49:34Z</time></trkpt><trkpt lat="35.90147102285034" lon="10.583364610841446"><ele>12.0</ele><time>2026-04-04T18:49:35Z</time></trkpt><trkpt lat="35.90152351529609" lon="10.583470098011244"><ele>12.0</ele><time>2026-04-04T18:49:37Z</time></trkpt><trkpt lat="35.90156193176541" lon="10.583562105851192"><ele>12.0</ele><time>2026-04-04T18:49:39Z</time></trkpt><trkpt lat="35.90160449762489" lon="10.58367876380755"><ele>12.0</ele><time>2026-04-04T18:49:41Z</time></trkpt><trkpt lat="35.9016506027794" lon="10.583810349262341"><ele>12.0</ele><time>2026-04-04T18:49:43Z</time></trkpt><trkpt lat="35.90168739045062" lon="10.58393800136907"><ele>12.0</ele><time>2026-04-04T18:49:45Z</time></trkpt><trkpt lat="35.90172023841535" lon="10.584016041352399"><ele>12.0</ele><time>2026-04-04T18:49:47Z</time></trkpt><trkpt lat="35.90178374678692" lon="10.584045055318404"><ele>12.0</ele><time>2026-04-04T18:49:49Z</time></trkpt><trkpt lat="35.90186245995052" lon="10.584008896300404"><ele>12.0</ele><time>2026-04-04T18:49:51Z</time></trkpt><trkpt lat="35.90193961221051" lon="10.583928221011554"><ele>12.0</ele><time>2026-04-04T18:49:53Z</time></trkpt><trkpt lat="35.902030100933864" lon="10.583833973510934"><ele>12.0</ele><time>2026-04-04T18:49:55Z</time></trkpt><trkpt lat="35.90208286081041" lon="10.583784131270905"><ele>12.0</ele><time>2026-04-04T18:49:55.999Z</time></trkpt><trkpt lat="35.90214154302531" lon="10.583733642818302"><ele>12.0</ele><time>2026-04-04T18:49:56.999Z</time></trkpt><trkpt lat="35.902203024610614" lon="10.583682355562233"><ele>12.0</ele><time>2026-04-04T18:49:57.999Z</time></trkpt><trkpt lat="35.902268746000004" lon="10.583631207416916"><ele>12.0</ele><time>2026-04-04T18:49:58.999Z</time></trkpt><trkpt lat="35.902336703378154" lon="10.583578677966514"><ele>12.166666666666666</ele><time>2026-04-04T18:49:59.999Z</time></trkpt><trkpt lat="35.90240528666858" lon="10.583522843731984"><ele>12.333333333333332</ele><time>2026-04-04T18:50:00.999Z</time></trkpt><trkpt lat="35.90246931644629" lon="10.583469325825291"><ele>12.5</ele><time>2026-04-04T18:50:01.999Z</time></trkpt><trkpt lat="35.902524198682094" lon="10.583424247805832"><ele>12.666666666666666</ele><time>2026-04-04T18:50:02.999Z</time></trkpt><trkpt lat="35.90257928299881" lon="10.583378884612427"><ele>12.833333333333332</ele><time>2026-04-04T18:50:03.999Z</time></trkpt><trkpt lat="35.90263303347208" lon="10.583333611384226"><ele>13.0</ele><time>2026-04-04T18:50:04.999Z</time></trkpt><trkpt lat="35.90272323003865" lon="10.583264378507163"><ele>12.999999999999998</ele><time>2026-04-04T18:50:06.999Z</time></trkpt><trkpt lat="35.90279494306391" lon="10.583207805028488"><ele>13.0</ele><time>2026-04-04T18:50:08.999Z</time></trkpt><trkpt lat="35.90285877348676" lon="10.58315788945152"><ele>13.0</ele><time>2026-04-04T18:50:10.999Z</time></trkpt><trkpt lat="35.90293461487369" lon="10.58310062046292"><ele>13.0</ele><time>2026-04-04T18:50:12.999Z</time></trkpt><trkpt lat="35.903019809923215" lon="10.583037340905468"><ele>12.999999999999998</ele><time>2026-04-04T18:50:14.999Z</time></trkpt><trkpt lat="35.90309171038009" lon="10.582977715987115"><ele>13.0</ele><time>2026-04-04T18:50:16.999Z</time></trkpt><trkpt lat="35.903155229788545" lon="10.582925404912608"><ele>13.0</ele><time>2026-04-04T18:50:18.999Z</time></trkpt><trkpt lat="35.90321143033666" lon="10.582879504268899"><ele>13.0</ele><time>2026-04-04T18:50:20.999Z</time></trkpt><trkpt lat="35.90328590397584" lon="10.582865469554491"><ele>13.0</ele><time>2026-04-04T18:50:23.999Z</time></trkpt><trkpt lat="35.9033487013884" lon="10.582893722900145"><ele>13.0</ele><time>2026-04-04T18:50:27.999Z</time></trkpt><trkpt lat="35.90337651101424" lon="10.582967138575714"><ele>13.0</ele><time>2026-04-04T18:50:37.999Z</time></trkpt><trkpt lat="35.90337003934278" lon="10.5830494492324"><ele>13.0</ele><time>2026-04-04T18:50:42.999Z</time></trkpt><trkpt lat="35.90336424458091" lon="10.583134860154292"><ele>13.0</ele><time>2026-04-04T18:50:45.999Z</time></trkpt><trkpt lat="35.90338940196279" lon="10.583230575480458"><ele>12.999999999999998</ele><time>2026-04-04T18:50:48.999Z</time></trkpt><trkpt lat="35.9034129597906" lon="10.583321989838403"><ele>13.0</ele><time>2026-04-04T18:50:51.999Z</time></trkpt><trkpt lat="35.903386542803965" lon="10.583412500848944"><ele>13.0</ele><time>2026-04-04T18:50:55.999Z</time></trkpt><trkpt lat="35.90332003103612" lon="10.583475200574512"><ele>13.0</ele><time>2026-04-04T18:51:10.999Z</time></trkpt><trkpt lat="35.903264993227694" lon="10.583538181856191"><ele>12.999999999999998</ele><time>2026-04-04T18:51:13.999Z</time></trkpt><trkpt lat="35.903260425982566" lon="10.583634344418897"><ele>13.0</ele><time>2026-04-04T18:51:51Z</time></trkpt><trkpt lat="35.90326699068042" lon="10.583714771730529"><ele>13.285714285714285</ele><time>2026-04-04T18:51:53Z</time></trkpt><trkpt lat="35.90332471485173" lon="10.583771644634007"><ele>13.571428571428573</ele><time>2026-04-04T18:52:21.999Z</time></trkpt><trkpt lat="35.90337906017175" lon="10.5837226400374"><ele>13.857142857142858</ele><time>2026-04-04T18:52:48.999Z</time></trkpt><trkpt lat="35.903408232951286" lon="10.58379711837192"><ele>14.142857142857142</ele><time>2026-04-04T19:01:14.999Z</time></trkpt><trkpt lat="35.903443505973975" lon="10.583870320293084"><ele>14.428571428571427</ele><time>2026-04-04T19:01:24.999Z</time></trkpt><trkpt lat="35.903452347793646" lon="10.583965938592426"><ele>14.714285714285715</ele><time>2026-04-04T19:01:42.999Z</time></trkpt><trkpt lat="35.90342981656261" lon="10.583874090074692"><ele>15.0</ele><time>2026-04-04T19:01:51.999Z</time></trkpt><trkpt lat="35.90337550316925" lon="10.583790472345942"><ele>15.0</ele><time>2026-04-04T19:02:57.03Z</time></trkpt><trkpt lat="35.90330337990392" lon="10.583640920288856"><ele>15.0</ele><time>2026-04-04T19:03:03.042Z</time></trkpt><trkpt lat="35.90334117586824" lon="10.583721046336246"><ele>15.0</ele><time>2026-04-04T19:03:36.408Z</time></trkpt><trkpt lat="35.90352751079989" lon="10.584075444011924"><ele>15.0</ele><time>2026-04-04T19:03:40.046Z</time></trkpt><trkpt lat="35.90343109558657" lon="10.583840953565103"><ele>15.0</ele><time>2026-04-04T19:06:18.007Z</time></trkpt><trkpt lat="35.90350244845204" lon="10.58402491603589"><ele>15.0</ele><time>2026-04-04T19:06:24.398Z</time></trkpt><trkpt lat="35.903265440167935" lon="10.584179275070024"><ele>14.0</ele><time>2026-04-04T19:11:29.889Z</time></trkpt><trkpt lat="35.902632742864824" lon="10.584535871141643"><ele>14.0</ele><time>2026-04-04T19:11:56.012Z</time></trkpt><trkpt lat="35.9027863040596" lon="10.584524403436792"><ele>13.999999999999998</ele><time>2026-04-04T19:12:08.015Z</time></trkpt><trkpt lat="35.90287796418212" lon="10.584576148455536"><ele>13.999999999999998</ele><time>2026-04-04T19:12:09.015Z</time></trkpt><trkpt lat="35.90297170341132" lon="10.584577043521104"><ele>14.0</ele><time>2026-04-04T19:12:14.014Z</time></trkpt><trkpt lat="35.90297503987674" lon="10.584661718693175"><ele>14.0</ele><time>2026-04-04T19:12:21.016Z</time></trkpt><trkpt lat="35.90301036878682" lon="10.584730399182764"><ele>14.0</ele><time>2026-04-04T19:12:26.018Z</time></trkpt><trkpt lat="35.903029100656646" lon="10.584843441347637"><ele>13.999999999999998</ele><time>2026-04-04T19:13:59Z</time></trkpt><trkpt lat="35.903050173413874" lon="10.584953999427787"><ele>13.999999999999998</ele><time>2026-04-04T19:14:01Z</time></trkpt><trkpt lat="35.903097570466535" lon="10.585016698126186"><ele>14.0</ele><time>2026-04-04T19:14:03Z</time></trkpt><trkpt lat="35.90317493942433" lon="10.585087802139865"><ele>14.0</ele><time>2026-04-04T19:14:05Z</time></trkpt><trkpt lat="35.90311672681113" lon="10.584815062638008"><ele>17.0</ele><time>2026-04-04T19:14:15.069Z</time></trkpt><trkpt lat="35.90339292628662" lon="10.5843093061536"><ele>16.5</ele><time>2026-04-04T19:15:08.05Z</time></trkpt><trkpt lat="35.9034467453171" lon="10.584018095627355"><ele>16.0</ele><time>2026-04-04T19:15:14.464Z</time></trkpt><trkpt lat="35.90342659982576" lon="10.5838985030657"><ele>15.5</ele><time>2026-04-04T19:15:15.686Z</time></trkpt><trkpt lat="35.903490230390155" lon="10.58397868434098"><ele>15.0</ele><time>2026-04-04T19:15:21.409Z</time></trkpt><trkpt lat="35.90354531877443" lon="10.584071815161309"><ele>14.5</ele><time>2026-04-04T19:15:27.411Z</time></trkpt><trkpt lat="35.90337866863267" lon="10.584182495440906"><ele>14.0</ele><time>2026-04-04T19:17:38.409Z</time></trkpt><trkpt lat="35.90289046334219" lon="10.584516608071215"><ele>15.5</ele><time>2026-04-04T19:18:02.233Z</time></trkpt><trkpt lat="35.902746220640616" lon="10.584463761223128"><ele>17.0</ele><time>2026-04-04T19:18:09.864Z</time></trkpt><trkpt lat="35.903253850824065" lon="10.584188652871024"><ele>14.0</ele><time>2026-04-04T19:18:15.415Z</time></trkpt><trkpt lat="35.90280075128049" lon="10.584519212622679"><ele>17.0</ele><time>2026-04-04T19:21:44.231Z</time></trkpt><trkpt lat="35.903245291913365" lon="10.584255359033483"><ele>14.0</ele><time>2026-04-04T19:22:28.033Z</time></trkpt><trkpt lat="35.903150369853996" lon="10.584959480435444"><ele>14.0</ele><time>2026-04-04T19:23:50.034Z</time></trkpt><trkpt lat="35.90301454844511" lon="10.584838984034079"><ele>14.0</ele><time>2026-04-04T19:28:41.547Z</time></trkpt><trkpt lat="35.90278669303292" lon="10.584591307241402"><ele>14.000000000000002</ele><time>2026-04-04T19:28:56.015Z</time></trkpt><trkpt lat="35.902734371636974" lon="10.584534434352532"><ele>14.0</ele><time>2026-04-04T19:29:00.015Z</time></trkpt><trkpt lat="35.902685590561966" lon="10.584481409760823"><ele>14.0</ele><time>2026-04-04T19:29:10.016Z</time></trkpt><trkpt lat="35.902633865174685" lon="10.584420725437505"><ele>14.0</ele><time>2026-04-04T19:32:34.467Z</time></trkpt><trkpt lat="35.90272547607175" lon="10.58448756553911"><ele>14.000000000000002</ele><time>2026-04-04T19:37:15.012Z</time></trkpt><trkpt lat="35.902788947871535" lon="10.584538083302784"><ele>14.0</ele><time>2026-04-04T19:37:16.012Z</time></trkpt><trkpt lat="35.90286868593011" lon="10.584601547524874"><ele>14.0</ele><time>2026-04-04T19:37:17.012Z</time></trkpt><trkpt lat="35.9029582327836" lon="10.584672818653107"><ele>14.0</ele><time>2026-04-04T19:37:19.013Z</time></trkpt><trkpt lat="35.903040295576275" lon="10.584526160845048"><ele>14.0</ele><time>2026-04-04T19:51:37.672Z</time></trkpt><trkpt lat="35.903290441157175" lon="10.584306446396312"><ele>14.0</ele><time>2026-04-04T19:51:43.443Z</time></trkpt><trkpt lat="35.90311080413914" lon="10.584518520465332"><ele>14.0</ele><time>2026-04-04T19:55:34.954Z</time></trkpt><trkpt lat="35.903010164249636" lon="10.584447909529374"><ele>14.0</ele><time>2026-04-04T19:57:04.012Z</time></trkpt><trkpt lat="35.90284631057872" lon="10.584720237776402"><ele>14.000000000000002</ele><time>2026-04-04T20:00:26.012Z</time></trkpt><trkpt lat="35.90278416862048" lon="10.584744825109002"><ele>14.0</ele><time>2026-04-04T20:00:27.013Z</time></trkpt><trkpt lat="35.90287324577827" lon="10.584736937054352"><ele>14.0</ele><time>2026-04-04T20:00:34.994Z</time></trkpt><trkpt lat="35.90291868448469" lon="10.584791148678923"><ele>14.0</ele><time>2026-04-04T20:00:36.994Z</time></trkpt><trkpt lat="35.902995569931164" lon="10.5847755693561"><ele>14.000000000000002</ele><time>2026-04-04T20:00:46Z</time></trkpt><trkpt lat="35.90298897087693" lon="10.584853001709101"><ele>14.0</ele><time>2026-04-04T20:01:14Z</time></trkpt><trkpt lat="35.90251308019415" lon="10.585338064592767"><ele>14.0</ele><time>2026-04-04T20:01:22Z</time></trkpt><trkpt lat="35.902392386583934" lon="10.585394708173874"><ele>14.0</ele><time>2026-04-04T20:01:23Z</time></trkpt><trkpt lat="35.902309655462155" lon="10.585481150267322"><ele>14.0</ele><time>2026-04-04T20:01:25Z</time></trkpt><trkpt lat="35.90242508429697" lon="10.58557593693858"><ele>14.0</ele><time>2026-04-04T20:01:26Z</time></trkpt><trkpt lat="35.902277886599514" lon="10.585540116091046"><ele>14.0</ele><time>2026-04-04T20:01:27Z</time></trkpt><trkpt lat="35.902222604653225" lon="10.585591100268953"><ele>14.0</ele><time>2026-04-04T20:01:28Z</time></trkpt><trkpt lat="35.90216555472696" lon="10.585645527758802"><ele>14.0</ele><time>2026-04-04T20:01:29Z</time></trkpt><trkpt lat="35.90221767184637" lon="10.585579127165568"><ele>14.0</ele><time>2026-04-04T20:01:36.071Z</time></trkpt><trkpt lat="35.90290933130989" lon="10.58480680824648"><ele>14.0</ele><time>2026-04-04T20:01:44.07Z</time></trkpt><trkpt lat="35.90295634194509" lon="10.584742931907137"><ele>14.0</ele><time>2026-04-04T20:01:45.071Z</time></trkpt><trkpt lat="35.90303351199324" lon="10.58461983559686"><ele>14.0</ele><time>2026-04-04T20:01:46.072Z</time></trkpt><trkpt lat="35.90341009358592" lon="10.584333988445923"><ele>14.0</ele><time>2026-04-04T20:01:48.035Z</time></trkpt><trkpt lat="35.90323617200437" lon="10.584407858486422"><ele>14.0</ele><time>2026-04-04T20:01:49.034Z</time></trkpt><trkpt lat="35.903079344551614" lon="10.584594344602241"><ele>14.0</ele><time>2026-04-04T20:01:59.032Z</time></trkpt><trkpt lat="35.90314345717992" lon="10.584541736678817"><ele>14.0</ele><time>2026-04-04T20:02:06.032Z</time></trkpt><trkpt lat="35.90325546711293" lon="10.584512824044129"><ele>13.999999999999998</ele><time>2026-04-04T20:02:15.999Z</time></trkpt><trkpt lat="35.90317855690854" lon="10.584585789211408"><ele>13.999999999999998</ele><time>2026-04-04T20:02:26.026Z</time></trkpt><trkpt lat="35.90310313960909" lon="10.584641622638642"><ele>14.0</ele><time>2026-04-04T20:02:34.027Z</time></trkpt><trkpt lat="35.90304343338349" lon="10.584700508796185"><ele>14.0</ele><time>2026-04-04T20:02:57.015Z</time></trkpt><trkpt lat="35.90345011409541" lon="10.585180115841393"><ele>14.0</ele><time>2026-04-04T20:03:41.408Z</time></trkpt><trkpt lat="35.90301224157469" lon="10.58474663307715"><ele>14.0</ele><time>2026-04-04T20:03:54.998Z</time></trkpt><trkpt lat="35.90296195856759" lon="10.58484056836552"><ele>14.0</ele><time>2026-04-04T20:11:38.999Z</time></trkpt><trkpt lat="35.9030331966135" lon="10.584971493051112"><ele>14.0</ele><time>2026-04-04T20:11:40.999Z</time></trkpt><trkpt lat="35.903239722481565" lon="10.585166986608629"><ele>14.0</ele><time>2026-04-04T20:11:42.999Z</time></trkpt><trkpt lat="35.90339751766221" lon="10.585308268226639"><ele>14.0</ele><time>2026-04-04T20:11:44.999Z</time></trkpt><trkpt lat="35.9032516630916" lon="10.585148477192918"><ele>14.0</ele><time>2026-04-04T20:11:47.999Z</time></trkpt><trkpt lat="35.90327619325669" lon="10.58553173221137"><ele>14.0</ele><time>2026-04-04T20:13:25.326Z</time></trkpt><trkpt lat="35.902851728274925" lon="10.584937445160422"><ele>14.0</ele><time>2026-04-04T20:15:25.009Z</time></trkpt><trkpt lat="35.90291914442526" lon="10.5848567210364"><ele>14.0</ele><time>2026-04-04T20:15:52.011Z</time></trkpt><trkpt lat="35.90297206050227" lon="10.584811052744643"><ele>14.0</ele><time>2026-04-04T20:19:13.008Z</time></trkpt><trkpt lat="35.90303780000225" lon="10.584776156056003"><ele>14.0</ele><time>2026-04-04T20:19:26.998Z</time></trkpt><trkpt lat="35.903053374900075" lon="10.584855478367666"><ele>14.0</ele><time>2026-04-04T20:19:29.997Z</time></trkpt><trkpt lat="35.902989085313344" lon="10.584897003373968"><ele>14.0</ele><time>2026-04-04T20:19:57.999Z</time></trkpt><trkpt lat="35.902961811959806" lon="10.584968655261376"><ele>14.0</ele><time>2026-04-04T20:20:03.999Z</time></trkpt><trkpt lat="35.902871308313514" lon="10.584982188603796"><ele>14.0</ele><time>2026-04-04T20:20:08Z</time></trkpt><trkpt lat="35.90282693807706" lon="10.584916062118474"><ele>14.0</ele><time>2026-04-04T20:20:12Z</time></trkpt><trkpt lat="35.90275522180228" lon="10.584896516721876"><ele>14.0</ele><time>2026-04-04T20:20:15Z</time></trkpt><trkpt lat="35.903410861861666" lon="10.58522930175799"><ele>14.0</ele><time>2026-04-04T20:21:16.421Z</time></trkpt><trkpt lat="35.903407294541495" lon="10.584580809323443"><ele>14.0</ele><time>2026-04-04T20:21:28.417Z</time></trkpt><trkpt lat="35.90330381771782" lon="10.584578375220067"><ele>14.0</ele><time>2026-04-04T20:21:40.404Z</time></trkpt></trkseg><trkseg><trkpt lat="35.903367966518864" lon="10.583701259552468"><ele>16.71428571428571</ele><time>2026-04-05T07:09:33Z</time></trkpt><trkpt lat="35.90343919557819" lon="10.583682572811124"><ele>16.428571428571427</ele><time>2026-04-05T07:09:37Z</time></trkpt><trkpt lat="35.903507523865244" lon="10.583720298670743"><ele>16.142857142857142</ele><time>2026-04-05T07:10:01Z</time></trkpt><trkpt lat="35.90358256311437" lon="10.583695431072066"><ele>15.857142857142856</ele><time>2026-04-05T07:10:03Z</time></trkpt><trkpt lat="35.90363989269337" lon="10.583643148544526"><ele>15.57142857142857</ele><time>2026-04-05T07:10:06Z</time></trkpt><trkpt lat="35.90363323754069" lon="10.583562238360983"><ele>15.285714285714286</ele><time>2026-04-05T07:10:19Z</time></trkpt><trkpt lat="35.90358497206793" lon="10.583481618960777"><ele>15.0</ele><time>2026-04-05T07:10:45.999Z</time></trkpt><trkpt lat="35.90352346663965" lon="10.583452832482324"><ele>14.714285714285715</ele><time>2026-04-05T07:10:47.999Z</time></trkpt><trkpt lat="35.90346156505945" lon="10.583425043929875"><ele>14.428571428571427</ele><time>2026-04-05T07:10:50.999Z</time></trkpt><trkpt lat="35.903410751798575" lon="10.583366192204343"><ele>14.142857142857142</ele><time>2026-04-05T07:10:53.999Z</time></trkpt><trkpt lat="35.90338845211997" lon="10.583280645920535"><ele>13.857142857142858</ele><time>2026-04-05T07:10:56.999Z</time></trkpt><trkpt lat="35.90336948597532" lon="10.58318208795179"><ele>13.571428571428573</ele><time>2026-04-05T07:10:59.999Z</time></trkpt><trkpt lat="35.90336543015504" lon="10.583095692356931"><ele>13.285714285714285</ele><time>2026-04-05T07:11:02.999Z</time></trkpt><trkpt lat="35.903369091572316" lon="10.583017561496927"><ele>13.0</ele><time>2026-04-05T07:11:05.999Z</time></trkpt><trkpt lat="35.903358472553805" lon="10.582920213819444"><ele>13.0</ele><time>2026-04-05T07:11:09.999Z</time></trkpt><trkpt lat="35.903332040731044" lon="10.582827370216481"><ele>13.0</ele><time>2026-04-05T07:11:12.999Z</time></trkpt><trkpt lat="35.90324856022543" lon="10.582782135391508"><ele>13.0</ele><time>2026-04-05T07:11:14.999Z</time></trkpt><trkpt lat="35.90312751938849" lon="10.582848851068437"><ele>13.0</ele><time>2026-04-05T07:11:16.999Z</time></trkpt><trkpt lat="35.90303948615121" lon="10.582922938705163"><ele>13.0</ele><time>2026-04-05T07:11:17.999Z</time></trkpt><trkpt lat="35.90295169287237" lon="10.583005183166131"><ele>12.999999999999998</ele><time>2026-04-05T07:11:18.999Z</time></trkpt><trkpt lat="35.90287761762875" lon="10.583065977446129"><ele>13.0</ele><time>2026-04-05T07:11:19.999Z</time></trkpt><trkpt lat="35.902815041632934" lon="10.58311072924567"><ele>13.0</ele><time>2026-04-05T07:11:20.999Z</time></trkpt><trkpt lat="35.90275645702994" lon="10.583155560893342"><ele>13.0</ele><time>2026-04-05T07:11:21.999Z</time></trkpt><trkpt lat="35.90269786070077" lon="10.58320693464706"><ele>12.999999999999998</ele><time>2026-04-05T07:11:22.999Z</time></trkpt><trkpt lat="35.90263531644346" lon="10.583263299630753"><ele>13.0</ele><time>2026-04-05T07:11:23.999Z</time></trkpt><trkpt lat="35.90257179050915" lon="10.583317878798306"><ele>13.2</ele><time>2026-04-05T07:11:24.999Z</time></trkpt><trkpt lat="35.9025074131536" lon="10.583370216260931"><ele>13.4</ele><time>2026-04-05T07:11:25.999Z</time></trkpt><trkpt lat="35.90244157236977" lon="10.583420888808117"><ele>13.599999999999998</ele><time>2026-04-05T07:11:26.999Z</time></trkpt><trkpt lat="35.90238204578226" lon="10.583463712722141"><ele>13.799999999999999</ele><time>2026-04-05T07:11:27.999Z</time></trkpt><trkpt lat="35.90229030755206" lon="10.58353934312342"><ele>14.0</ele><time>2026-04-05T07:11:29.999Z</time></trkpt><trkpt lat="35.90219299680476" lon="10.583618606053122"><ele>13.6</ele><time>2026-04-05T07:11:31.999Z</time></trkpt><trkpt lat="35.90209988637069" lon="10.583694919625984"><ele>13.2</ele><time>2026-04-05T07:11:33.999Z</time></trkpt><trkpt lat="35.90202383787452" lon="10.583756945153878"><ele>12.799999999999999</ele><time>2026-04-05T07:11:35.999Z</time></trkpt><trkpt lat="35.90193919993672" lon="10.583799338404281"><ele>12.399999999999999</ele><time>2026-04-05T07:11:37.999Z</time></trkpt><trkpt lat="35.901838980217576" lon="10.583826168277753"><ele>12.0</ele><time>2026-04-05T07:11:39.999Z</time></trkpt><trkpt lat="35.90173949242761" lon="10.583851160731722"><ele>12.0</ele><time>2026-04-05T07:11:41.999Z</time></trkpt><trkpt lat="35.9016651750646" lon="10.583936853588764"><ele>12.0</ele><time>2026-04-05T07:11:43.999Z</time></trkpt><trkpt lat="35.90161786268954" lon="10.584073926312728"><ele>12.0</ele><time>2026-04-05T07:11:45.999Z</time></trkpt><trkpt lat="35.901576883855775" lon="10.584135335930666"><ele>12.0</ele><time>2026-04-05T07:11:46.999Z</time></trkpt><trkpt lat="35.90152125380843" lon="10.584190458998556"><ele>12.0</ele><time>2026-04-05T07:11:47.999Z</time></trkpt><trkpt lat="35.90146458684565" lon="10.584244142358484"><ele>12.0</ele><time>2026-04-05T07:11:48.999Z</time></trkpt><trkpt lat="35.90140085662995" lon="10.584302886583014"><ele>12.0</ele><time>2026-04-05T07:11:49.999Z</time></trkpt><trkpt lat="35.90133254556468" lon="10.584366170803222"><ele>12.0</ele><time>2026-04-05T07:11:50.999Z</time></trkpt><trkpt lat="35.90126055973383" lon="10.58443444778232"><ele>12.0</ele><time>2026-04-05T07:11:51.999Z</time></trkpt><trkpt lat="35.90118660374897" lon="10.584502923420757"><ele>12.0</ele><time>2026-04-05T07:11:52.999Z</time></trkpt><trkpt lat="35.90111207334014" lon="10.584567842774309"><ele>12.0</ele><time>2026-04-05T07:11:53.999Z</time></trkpt><trkpt lat="35.90103693432803" lon="10.584636589793602"><ele>12.0</ele><time>2026-04-05T07:11:54.999Z</time></trkpt><trkpt lat="35.90096216889023" lon="10.584705859198849"><ele>12.0</ele><time>2026-04-05T07:11:55.999Z</time></trkpt><trkpt lat="35.9008868029801" lon="10.584776685755134"><ele>12.0</ele><time>2026-04-05T07:11:56.999Z</time></trkpt><trkpt lat="35.90080449985597" lon="10.584852456096119"><ele>12.0</ele><time>2026-04-05T07:11:57.999Z</time></trkpt><trkpt lat="35.900708897905886" lon="10.584940535513416"><ele>12.0</ele><time>2026-04-05T07:11:58.999Z</time></trkpt><trkpt lat="35.900610862172165" lon="10.585028260803174"><ele>12.0</ele><time>2026-04-05T07:11:59.999Z</time></trkpt><trkpt lat="35.90051686079723" lon="10.585112507893845"><ele>12.0</ele><time>2026-04-05T07:12:00.999Z</time></trkpt><trkpt lat="35.90042406485678" lon="10.585198125819648"><ele>12.0</ele><time>2026-04-05T07:12:01.999Z</time></trkpt><trkpt lat="35.90033683141204" lon="10.585288636535374"><ele>12.0</ele><time>2026-04-05T07:12:02.999Z</time></trkpt><trkpt lat="35.900253803546036" lon="10.585371969181372"><ele>11.6</ele><time>2026-04-05T07:12:03.999Z</time></trkpt><trkpt lat="35.90017092689917" lon="10.585447230207004"><ele>11.2</ele><time>2026-04-05T07:12:04.999Z</time></trkpt><trkpt lat="35.90009088505356" lon="10.58551946011329"><ele>10.8</ele><time>2026-04-05T07:12:05.999Z</time></trkpt><trkpt lat="35.90001522603617" lon="10.58558974338281"><ele>10.4</ele><time>2026-04-05T07:12:06.999Z</time></trkpt><trkpt lat="35.89993743526438" lon="10.585661816909024"><ele>10.0</ele><time>2026-04-05T07:12:07.999Z</time></trkpt><trkpt lat="35.899857652574354" lon="10.585737270868908"><ele>10.0</ele><time>2026-04-05T07:12:08.999Z</time></trkpt><trkpt lat="35.899774706644436" lon="10.585812855966166"><ele>10.0</ele><time>2026-04-05T07:12:09.999Z</time></trkpt><trkpt lat="35.89969176344587" lon="10.585887401719974"><ele>10.0</ele><time>2026-04-05T07:12:10.999Z</time></trkpt><trkpt lat="35.89960640294213" lon="10.585960599877529"><ele>10.0</ele><time>2026-04-05T07:12:11.999Z</time></trkpt><trkpt lat="35.89952111100286" lon="10.586034738049444"><ele>10.0</ele><time>2026-04-05T07:12:12.999Z</time></trkpt><trkpt lat="35.89943432729995" lon="10.586107429054342"><ele>9.8</ele><time>2026-04-05T07:12:13.999Z</time></trkpt><trkpt lat="35.89934947777245" lon="10.586179771938477"><ele>9.6</ele><time>2026-04-05T07:12:14.999Z</time></trkpt><trkpt lat="35.899264491441556" lon="10.586256915383547"><ele>9.4</ele><time>2026-04-05T07:12:15.999Z</time></trkpt><trkpt lat="35.8991819960962" lon="10.586334205034893"><ele>9.2</ele><time>2026-04-05T07:12:16.999Z</time></trkpt><trkpt lat="35.899101543863495" lon="10.586408643853126"><ele>9.0</ele><time>2026-04-05T07:12:17.999Z</time></trkpt><trkpt lat="35.899017643883056" lon="10.586482577914673"><ele>9.0</ele><time>2026-04-05T07:12:18.999Z</time></trkpt><trkpt lat="35.898934501950706" lon="10.58655534896015"><ele>9.0</ele><time>2026-04-05T07:12:19.999Z</time></trkpt><trkpt lat="35.89885290955673" lon="10.586627519813819"><ele>9.0</ele><time>2026-04-05T07:12:20.999Z</time></trkpt><trkpt lat="35.898771372762646" lon="10.586705629445763"><ele>9.0</ele><time>2026-04-05T07:12:21.999Z</time></trkpt><trkpt lat="35.89868894151025" lon="10.586789040387027"><ele>9.0</ele><time>2026-04-05T07:12:22.999Z</time></trkpt><trkpt lat="35.89860448912644" lon="10.586875966729773"><ele>9.0</ele><time>2026-04-05T07:12:23.999Z</time></trkpt><trkpt lat="35.898513227896174" lon="10.586961085184795"><ele>9.0</ele><time>2026-04-05T07:12:24.999Z</time></trkpt><trkpt lat="35.89842269631648" lon="10.587044642503455"><ele>9.0</ele><time>2026-04-05T07:12:25.999Z</time></trkpt><trkpt lat="35.89833077419359" lon="10.587125305317523"><ele>9.0</ele><time>2026-04-05T07:12:26.999Z</time></trkpt><trkpt lat="35.89824164426554" lon="10.587209527807786"><ele>8.6</ele><time>2026-04-05T07:12:27.999Z</time></trkpt><trkpt lat="35.8981527858429" lon="10.587293655340519"><ele>8.2</ele><time>2026-04-05T07:12:28.999Z</time></trkpt><trkpt lat="35.8980640860008" lon="10.587369547783355"><ele>7.799999999999999</ele><time>2026-04-05T07:12:29.999Z</time></trkpt><trkpt lat="35.89798059137518" lon="10.587440655407331"><ele>7.3999999999999995</ele><time>2026-04-05T07:12:30.999Z</time></trkpt><trkpt lat="35.89790275736751" lon="10.587506104795608"><ele>7.0</ele><time>2026-04-05T07:12:31.999Z</time></trkpt><trkpt lat="35.89782816705775" lon="10.587571615681918"><ele>7.0</ele><time>2026-04-05T07:12:32.999Z</time></trkpt><trkpt lat="35.897758291433504" lon="10.587636022590551"><ele>6.999999999999999</ele><time>2026-04-05T07:12:33.999Z</time></trkpt><trkpt lat="35.897687107461586" lon="10.587706778636477"><ele>6.999999999999999</ele><time>2026-04-05T07:12:34.999Z</time></trkpt><trkpt lat="35.897613462622324" lon="10.587777926866957"><ele>7.0</ele><time>2026-04-05T07:12:35.999Z</time></trkpt><trkpt lat="35.897535003634076" lon="10.587849568330203"><ele>7.0</ele><time>2026-04-05T07:12:36.999Z</time></trkpt><trkpt lat="35.8974531701514" lon="10.587917393054973"><ele>7.0</ele><time>2026-04-05T07:12:37.999Z</time></trkpt><trkpt lat="35.897369179156954" lon="10.587977398396356"><ele>6.999999999999999</ele><time>2026-04-05T07:12:38.999Z</time></trkpt><trkpt lat="35.89727822366326" lon="10.588032739936963"><ele>6.999999999999999</ele><time>2026-04-05T07:12:39.999Z</time></trkpt><trkpt lat="35.897188429202856" lon="10.588082196956199"><ele>7.0</ele><time>2026-04-05T07:12:40.999Z</time></trkpt><trkpt lat="35.897099763098346" lon="10.588138862859893"><ele>7.0</ele><time>2026-04-05T07:12:41.999Z</time></trkpt><trkpt lat="35.897020431092734" lon="10.588219973944343"><ele>7.0</ele><time>2026-04-05T07:12:42.999Z</time></trkpt><trkpt lat="35.89695479960617" lon="10.588334076067849"><ele>7.0</ele><time>2026-04-05T07:12:43.999Z</time></trkpt><trkpt lat="35.89688780425239" lon="10.588488685599787"><ele>7.0</ele><time>2026-04-05T07:12:44.999Z</time></trkpt><trkpt lat="35.896792162741555" lon="10.588661537015474"><ele>7.0</ele><time>2026-04-05T07:12:45.999Z</time></trkpt><trkpt lat="35.89665618379244" lon="10.588834437902186"><ele>7.25</ele><time>2026-04-05T07:12:46.999Z</time></trkpt><trkpt lat="35.896522688316" lon="10.588992556740445"><ele>7.5</ele><time>2026-04-05T07:12:47.999Z</time></trkpt><trkpt lat="35.896424177194774" lon="10.589111103704752"><ele>7.75</ele><time>2026-04-05T07:12:48.999Z</time></trkpt><trkpt lat="35.89634863910156" lon="10.589201368997292"><ele>8.0</ele><time>2026-04-05T07:12:49.999Z</time></trkpt><trkpt lat="35.89627636373711" lon="10.589289290759288"><ele>8.0</ele><time>2026-04-05T07:12:50.999Z</time></trkpt><trkpt lat="35.89620432811685" lon="10.58937658855543"><ele>8.0</ele><time>2026-04-05T07:12:51.999Z</time></trkpt><trkpt lat="35.89613544243539" lon="10.58946454218722"><ele>8.0</ele><time>2026-04-05T07:12:52.999Z</time></trkpt><trkpt lat="35.896064282174784" lon="10.589552070247718"><ele>8.0</ele><time>2026-04-05T07:12:53.999Z</time></trkpt><trkpt lat="35.895995888085395" lon="10.589633910948399"><ele>8.0</ele><time>2026-04-05T07:12:54.999Z</time></trkpt><trkpt lat="35.89592902306946" lon="10.589712108906879"><ele>8.200000000000001</ele><time>2026-04-05T07:12:55.999Z</time></trkpt><trkpt lat="35.89585987715155" lon="10.589791982329917"><ele>8.4</ele><time>2026-04-05T07:12:56.999Z</time></trkpt><trkpt lat="35.89578667971472" lon="10.589873862575025"><ele>8.600000000000001</ele><time>2026-04-05T07:12:57.999Z</time></trkpt><trkpt lat="35.895711558440766" lon="10.589959252449875"><ele>8.8</ele><time>2026-04-05T07:12:58.999Z</time></trkpt><trkpt lat="35.89563590209135" lon="10.590041456262375"><ele>9.0</ele><time>2026-04-05T07:12:59.999Z</time></trkpt><trkpt lat="35.89555819447156" lon="10.59012243330257"><ele>9.0</ele><time>2026-04-05T07:13:00.999Z</time></trkpt><trkpt lat="35.89547962912467" lon="10.590201318094842"><ele>9.0</ele><time>2026-04-05T07:13:01.999Z</time></trkpt><trkpt lat="35.89539964037444" lon="10.590275018577001"><ele>9.0</ele><time>2026-04-05T07:13:02.999Z</time></trkpt><trkpt lat="35.89531784820594" lon="10.59034933089947"><ele>9.0</ele><time>2026-04-05T07:13:03.999Z</time></trkpt><trkpt lat="35.895234779567794" lon="10.590423464038443"><ele>9.0</ele><time>2026-04-05T07:13:04.999Z</time></trkpt><trkpt lat="35.89514979868877" lon="10.590495077595426"><ele>9.0</ele><time>2026-04-05T07:13:05.999Z</time></trkpt><trkpt lat="35.895066046723244" lon="10.590570386978479"><ele>9.0</ele><time>2026-04-05T07:13:06.999Z</time></trkpt><trkpt lat="35.89498246136117" lon="10.59064650633913"><ele>9.0</ele><time>2026-04-05T07:13:07.999Z</time></trkpt><trkpt lat="35.89489458046256" lon="10.590716338965603"><ele>9.0</ele><time>2026-04-05T07:13:08.999Z</time></trkpt><trkpt lat="35.89480908814192" lon="10.590786551846515"><ele>9.0</ele><time>2026-04-05T07:13:09.999Z</time></trkpt><trkpt lat="35.894723468563946" lon="10.590854102041124"><ele>9.0</ele><time>2026-04-05T07:13:10.999Z</time></trkpt><trkpt lat="35.894639197685116" lon="10.590927084904141"><ele>9.0</ele><time>2026-04-05T07:13:11.999Z</time></trkpt><trkpt lat="35.89455703408029" lon="10.590997232796806"><ele>9.0</ele><time>2026-04-05T07:13:12.999Z</time></trkpt><trkpt lat="35.89447259508843" lon="10.591067368170618"><ele>9.0</ele><time>2026-04-05T07:13:13.999Z</time></trkpt><trkpt lat="35.89439094883819" lon="10.591139842056164"><ele>9.0</ele><time>2026-04-05T07:13:14.999Z</time></trkpt><trkpt lat="35.894304492378254" lon="10.591208919400776"><ele>8.4</ele><time>2026-04-05T07:13:15.999Z</time></trkpt><trkpt lat="35.89421955669411" lon="10.591278627755703"><ele>7.800000000000001</ele><time>2026-04-05T07:13:16.999Z</time></trkpt><trkpt lat="35.89413446718121" lon="10.591348366027933"><ele>7.199999999999999</ele><time>2026-04-05T07:13:17.999Z</time></trkpt><trkpt lat="35.89405124067387" lon="10.591419296121169"><ele>6.6</ele><time>2026-04-05T07:13:18.999Z</time></trkpt><trkpt lat="35.893968040580006" lon="10.591490572697825"><ele>6.0</ele><time>2026-04-05T07:13:19.999Z</time></trkpt><trkpt lat="35.89388431323267" lon="10.59156028689864"><ele>6.0</ele><time>2026-04-05T07:13:20.999Z</time></trkpt><trkpt lat="35.89380456522334" lon="10.591634425052128"><ele>6.0</ele><time>2026-04-05T07:13:21.999Z</time></trkpt><trkpt lat="35.89372595169508" lon="10.5917071979113"><ele>6.0</ele><time>2026-04-05T07:13:22.999Z</time></trkpt><trkpt lat="35.89364352114544" lon="10.591785541237284"><ele>6.0</ele><time>2026-04-05T07:13:23.999Z</time></trkpt><trkpt lat="35.8935646894524" lon="10.591864583648862"><ele>6.0</ele><time>2026-04-05T07:13:24.999Z</time></trkpt><trkpt lat="35.89348693831081" lon="10.591946701380351"><ele>5.8</ele><time>2026-04-05T07:13:25.999Z</time></trkpt><trkpt lat="35.89341454857749" lon="10.592031292497797"><ele>5.6</ele><time>2026-04-05T07:13:26.999Z</time></trkpt><trkpt lat="35.893342864770894" lon="10.592121975359413"><ele>5.4</ele><time>2026-04-05T07:13:27.999Z</time></trkpt><trkpt lat="35.89326761128397" lon="10.592208652152028"><ele>5.2</ele><time>2026-04-05T07:13:28.999Z</time></trkpt><trkpt lat="35.893191338276104" lon="10.592293917253258"><ele>5.0</ele><time>2026-04-05T07:13:29.999Z</time></trkpt><trkpt lat="35.89311595234207" lon="10.592381990127254"><ele>5.0</ele><time>2026-04-05T07:13:30.999Z</time></trkpt><trkpt lat="35.893041977191174" lon="10.59247296411221"><ele>5.0</ele><time>2026-04-05T07:13:31.999Z</time></trkpt><trkpt lat="35.89297201269408" lon="10.592565576278664"><ele>5.0</ele><time>2026-04-05T07:13:32.999Z</time></trkpt><trkpt lat="35.89290184564682" lon="10.592659846230918"><ele>5.0</ele><time>2026-04-05T07:13:33.999Z</time></trkpt><trkpt lat="35.89283015073922" lon="10.592750146641476"><ele>5.0</ele><time>2026-04-05T07:13:34.999Z</time></trkpt><trkpt lat="35.89275738030346" lon="10.592840262209366"><ele>5.0</ele><time>2026-04-05T07:13:35.999Z</time></trkpt><trkpt lat="35.89268363195738" lon="10.59292727504693"><ele>5.0</ele><time>2026-04-05T07:13:36.999Z</time></trkpt><trkpt lat="35.89260753374595" lon="10.593012022374651"><ele>5.0</ele><time>2026-04-05T07:13:37.999Z</time></trkpt><trkpt lat="35.892532832355656" lon="10.593098366779422"><ele>5.0</ele><time>2026-04-05T07:13:38.999Z</time></trkpt><trkpt lat="35.892458291611135" lon="10.593185559073016"><ele>5.0</ele><time>2026-04-05T07:13:39.999Z</time></trkpt><trkpt lat="35.89238138403536" lon="10.593269383797306"><ele>5.2</ele><time>2026-04-05T07:13:41Z</time></trkpt><trkpt lat="35.89230087009338" lon="10.593349973964186"><ele>5.4</ele><time>2026-04-05T07:13:42Z</time></trkpt><trkpt lat="35.89221787861395" lon="10.593422665293815"><ele>5.6</ele><time>2026-04-05T07:13:43Z</time></trkpt><trkpt lat="35.89213658872038" lon="10.59349868377185"><ele>5.8</ele><time>2026-04-05T07:13:44Z</time></trkpt><trkpt lat="35.89206087022955" lon="10.593582505935501"><ele>6.0</ele><time>2026-04-05T07:13:45Z</time></trkpt><trkpt lat="35.89197546203061" lon="10.593666378683558"><ele>6.199999999999999</ele><time>2026-04-05T07:13:46Z</time></trkpt><trkpt lat="35.8918887990295" lon="10.593751138391914"><ele>6.3999999999999995</ele><time>2026-04-05T07:13:47Z</time></trkpt><trkpt lat="35.89180160120734" lon="10.593830433599706"><ele>6.6</ele><time>2026-04-05T07:13:48Z</time></trkpt><trkpt lat="35.891715754256815" lon="10.593913278772902"><ele>6.8</ele><time>2026-04-05T07:13:49Z</time></trkpt><trkpt lat="35.891630648090825" lon="10.593998625725998"><ele>7.0</ele><time>2026-04-05T07:13:50Z</time></trkpt><trkpt lat="35.89154489099894" lon="10.594077072929938"><ele>7.0</ele><time>2026-04-05T07:13:51Z</time></trkpt><trkpt lat="35.89145839202321" lon="10.594149187990748"><ele>6.999999999999999</ele><time>2026-04-05T07:13:52Z</time></trkpt><trkpt lat="35.89136922268389" lon="10.594218235127531"><ele>6.999999999999999</ele><time>2026-04-05T07:13:53Z</time></trkpt><trkpt lat="35.891278107527384" lon="10.594289440801656"><ele>7.0</ele><time>2026-04-05T07:13:54Z</time></trkpt><trkpt lat="35.891186456257195" lon="10.594361416802037"><ele>7.0</ele><time>2026-04-05T07:13:55Z</time></trkpt><trkpt lat="35.89109585708243" lon="10.59443007441623"><ele>7.0</ele><time>2026-04-05T07:13:56Z</time></trkpt><trkpt lat="35.89100304811661" lon="10.59449810816241"><ele>6.999999999999999</ele><time>2026-04-05T07:13:57Z</time></trkpt><trkpt lat="35.89090886062086" lon="10.594563128513283"><ele>6.999999999999999</ele><time>2026-04-05T07:13:58Z</time></trkpt><trkpt lat="35.89081204524681" lon="10.594625622280127"><ele>7.0</ele><time>2026-04-05T07:13:59Z</time></trkpt><trkpt lat="35.89071527039228" lon="10.59468482502331"><ele>7.0</ele><time>2026-04-05T07:14:00Z</time></trkpt><trkpt lat="35.89062194983026" lon="10.594734695895465"><ele>6.8</ele><time>2026-04-05T07:14:01Z</time></trkpt><trkpt lat="35.89052827457753" lon="10.594777709913537"><ele>6.6</ele><time>2026-04-05T07:14:02Z</time></trkpt><trkpt lat="35.89043958485282" lon="10.594807390083762"><ele>6.3999999999999995</ele><time>2026-04-05T07:14:03Z</time></trkpt><trkpt lat="35.89034854550761" lon="10.59482582116608"><ele>6.199999999999999</ele><time>2026-04-05T07:14:04Z</time></trkpt><trkpt lat="35.8902529898253" lon="10.59484882490207"><ele>6.0</ele><time>2026-04-05T07:14:05Z</time></trkpt><trkpt lat="35.890154420684624" lon="10.594896068099002"><ele>6.25</ele><time>2026-04-05T07:14:06Z</time></trkpt><trkpt lat="35.89005429314252" lon="10.594979328837331"><ele>6.5</ele><time>2026-04-05T07:14:07Z</time></trkpt><trkpt lat="35.8899315727041" lon="10.595102929025758"><ele>6.75</ele><time>2026-04-05T07:14:08Z</time></trkpt><trkpt lat="35.88980833577145" lon="10.595203738823109"><ele>7.0</ele><time>2026-04-05T07:14:09Z</time></trkpt><trkpt lat="35.889694475249804" lon="10.59526810622682"><ele>7.0</ele><time>2026-04-05T07:14:09.999Z</time></trkpt><trkpt lat="35.88958719847885" lon="10.595317340240976"><ele>6.999999999999999</ele><time>2026-04-05T07:14:10.999Z</time></trkpt><trkpt lat="35.88948760124492" lon="10.595368682188859"><ele>6.999999999999999</ele><time>2026-04-05T07:14:11.999Z</time></trkpt><trkpt lat="35.889382830393494" lon="10.595425865657543"><ele>7.0</ele><time>2026-04-05T07:14:12.999Z</time></trkpt><trkpt lat="35.88928113969405" lon="10.595482921800036"><ele>7.0</ele><time>2026-04-05T07:14:13.999Z</time></trkpt><trkpt lat="35.88917949692993" lon="10.595538426803223"><ele>7.199999999999999</ele><time>2026-04-05T07:14:14.999Z</time></trkpt><trkpt lat="35.88907869008703" lon="10.595593824266356"><ele>7.3999999999999995</ele><time>2026-04-05T07:14:15.999Z</time></trkpt><trkpt lat="35.88897562712764" lon="10.595650584292539"><ele>7.6000000000000005</ele><time>2026-04-05T07:14:16.999Z</time></trkpt><trkpt lat="35.8888718013968" lon="10.595705084142905"><ele>7.800000000000001</ele><time>2026-04-05T07:14:17.999Z</time></trkpt><trkpt lat="35.88876860001871" lon="10.595760841072417"><ele>8.0</ele><time>2026-04-05T07:14:18.999Z</time></trkpt><trkpt lat="35.88866441953197" lon="10.595819656992239"><ele>8.0</ele><time>2026-04-05T07:14:19.999Z</time></trkpt><trkpt lat="35.88856147974866" lon="10.595879109164093"><ele>8.0</ele><time>2026-04-05T07:14:21Z</time></trkpt><trkpt lat="35.88846070398355" lon="10.595938007539527"><ele>8.0</ele><time>2026-04-05T07:14:21.999Z</time></trkpt><trkpt lat="35.888359028350386" lon="10.595992753908003"><ele>8.0</ele><time>2026-04-05T07:14:22.999Z</time></trkpt><trkpt lat="35.88825240613902" lon="10.596043919756111"><ele>8.0</ele><time>2026-04-05T07:14:23.999Z</time></trkpt><trkpt lat="35.88814813930165" lon="10.596094364251565"><ele>8.0</ele><time>2026-04-05T07:14:24.999Z</time></trkpt><trkpt lat="35.88804495841083" lon="10.596148875557557"><ele>8.0</ele><time>2026-04-05T07:14:25.999Z</time></trkpt><trkpt lat="35.88794322741672" lon="10.596207088201417"><ele>8.0</ele><time>2026-04-05T07:14:26.999Z</time></trkpt><trkpt lat="35.887843196851286" lon="10.596261690644583"><ele>8.0</ele><time>2026-04-05T07:14:27.999Z</time></trkpt><trkpt lat="35.88774486239939" lon="10.596315986566369"><ele>8.0</ele><time>2026-04-05T07:14:28.999Z</time></trkpt><trkpt lat="35.887644379668515" lon="10.596373357596667"><ele>8.0</ele><time>2026-04-05T07:14:29.999Z</time></trkpt><trkpt lat="35.887541364081564" lon="10.596424916935435"><ele>8.0</ele><time>2026-04-05T07:14:30.999Z</time></trkpt><trkpt lat="35.88743851742784" lon="10.596478149017996"><ele>8.0</ele><time>2026-04-05T07:14:31.999Z</time></trkpt><trkpt lat="35.887334998242245" lon="10.596531017981315"><ele>8.0</ele><time>2026-04-05T07:14:32.999Z</time></trkpt><trkpt lat="35.88723367115732" lon="10.596586813482281"><ele>7.6000000000000005</ele><time>2026-04-05T07:14:33.999Z</time></trkpt><trkpt lat="35.887133338670644" lon="10.596642065838873"><ele>7.200000000000001</ele><time>2026-04-05T07:14:34.999Z</time></trkpt><trkpt lat="35.887029658550574" lon="10.596690959143725"><ele>6.8</ele><time>2026-04-05T07:14:35.999Z</time></trkpt><trkpt lat="35.886926522079634" lon="10.596739925007855"><ele>6.4</ele><time>2026-04-05T07:14:36.999Z</time></trkpt><trkpt lat="35.88682385031478" lon="10.596796931985002"><ele>6.0</ele><time>2026-04-05T07:14:37.999Z</time></trkpt><trkpt lat="35.88672005976956" lon="10.596853788663827"><ele>6.0</ele><time>2026-04-05T07:14:38.999Z</time></trkpt><trkpt lat="35.886612891518666" lon="10.5969128109026"><ele>6.0</ele><time>2026-04-05T07:14:39.999Z</time></trkpt><trkpt lat="35.88650193256189" lon="10.596971459271472"><ele>6.0</ele><time>2026-04-05T07:14:40.999Z</time></trkpt><trkpt lat="35.88638859267846" lon="10.59702781623912"><ele>6.0</ele><time>2026-04-05T07:14:41.999Z</time></trkpt><trkpt lat="35.88627362135691" lon="10.59708750023085"><ele>6.0</ele><time>2026-04-05T07:14:42.999Z</time></trkpt><trkpt lat="35.88616212100302" lon="10.597149666661101"><ele>6.0</ele><time>2026-04-05T07:14:43.999Z</time></trkpt><trkpt lat="35.88604994799572" lon="10.597210320926532"><ele>6.0</ele><time>2026-04-05T07:14:44.999Z</time></trkpt><trkpt lat="35.885939117965535" lon="10.597266991639398"><ele>6.0</ele><time>2026-04-05T07:14:45.999Z</time></trkpt><trkpt lat="35.8858287794111" lon="10.597320685338481"><ele>6.5</ele><time>2026-04-05T07:14:46.999Z</time></trkpt><trkpt lat="35.885715188523925" lon="10.59738212350008"><ele>7.0</ele><time>2026-04-05T07:14:47.999Z</time></trkpt><trkpt lat="35.8856001582534" lon="10.59744161934465"><ele>7.5</ele><time>2026-04-05T07:14:48.999Z</time></trkpt><trkpt lat="35.88549013803172" lon="10.59749626050939"><ele>8.0</ele><time>2026-04-05T07:14:49.999Z</time></trkpt><trkpt lat="35.88537921142407" lon="10.597553261353882"><ele>8.0</ele><time>2026-04-05T07:14:50.999Z</time></trkpt><trkpt lat="35.88527448014462" lon="10.597611730252467"><ele>8.0</ele><time>2026-04-05T07:14:51.999Z</time></trkpt><trkpt lat="35.885171899841474" lon="10.597665553292716"><ele>8.0</ele><time>2026-04-05T07:14:52.999Z</time></trkpt><trkpt lat="35.885060532499566" lon="10.597721948211866"><ele>8.0</ele><time>2026-04-05T07:14:53.999Z</time></trkpt><trkpt lat="35.884952592522495" lon="10.597775566339287"><ele>8.0</ele><time>2026-04-05T07:14:54.999Z</time></trkpt><trkpt lat="35.884846495385844" lon="10.597826851635393"><ele>8.0</ele><time>2026-04-05T07:14:55.999Z</time></trkpt><trkpt lat="35.88473921285161" lon="10.597877808085151"><ele>8.0</ele><time>2026-04-05T07:14:56.999Z</time></trkpt><trkpt lat="35.88462529147637" lon="10.59793467565285"><ele>8.0</ele><time>2026-04-05T07:14:57.999Z</time></trkpt><trkpt lat="35.88451157371562" lon="10.59799922077658"><ele>8.25</ele><time>2026-04-05T07:14:58.999Z</time></trkpt><trkpt lat="35.884393367178276" lon="10.598057749742495"><ele>8.5</ele><time>2026-04-05T07:14:59.999Z</time></trkpt><trkpt lat="35.884277186919824" lon="10.598105228624679"><ele>8.75</ele><time>2026-04-05T07:15:00.999Z</time></trkpt><trkpt lat="35.88416757806476" lon="10.598159738371265"><ele>9.0</ele><time>2026-04-05T07:15:01.999Z</time></trkpt><trkpt lat="35.88406033782701" lon="10.598214249055212"><ele>9.0</ele><time>2026-04-05T07:15:02.999Z</time></trkpt><trkpt lat="35.88395032160787" lon="10.598264436963424"><ele>9.0</ele><time>2026-04-05T07:15:03.999Z</time></trkpt><trkpt lat="35.883834574659694" lon="10.598309232501741"><ele>9.0</ele><time>2026-04-05T07:15:04.999Z</time></trkpt><trkpt lat="35.88371558022907" lon="10.598345960655703"><ele>9.0</ele><time>2026-04-05T07:15:05.999Z</time></trkpt><trkpt lat="35.88359262884204" lon="10.598375723973072"><ele>9.0</ele><time>2026-04-05T07:15:06.999Z</time></trkpt><trkpt lat="35.883467775416655" lon="10.598407632711552"><ele>9.0</ele><time>2026-04-05T07:15:07.999Z</time></trkpt><trkpt lat="35.88334329947724" lon="10.598437635080554"><ele>9.0</ele><time>2026-04-05T07:15:08.999Z</time></trkpt><trkpt lat="35.88321967057534" lon="10.598469211614912"><ele>9.0</ele><time>2026-04-05T07:15:09.999Z</time></trkpt><trkpt lat="35.88309490211135" lon="10.598501431199752"><ele>8.25</ele><time>2026-04-05T07:15:10.999Z</time></trkpt><trkpt lat="35.88296606759967" lon="10.598531294568152"><ele>7.5</ele><time>2026-04-05T07:15:11.999Z</time></trkpt><trkpt lat="35.882838407418234" lon="10.5985576522159"><ele>6.75</ele><time>2026-04-05T07:15:12.999Z</time></trkpt><trkpt lat="35.88270927625115" lon="10.598586497866156"><ele>6.0</ele><time>2026-04-05T07:15:13.999Z</time></trkpt><trkpt lat="35.882580338062915" lon="10.598615940957636"><ele>5.75</ele><time>2026-04-05T07:15:14.999Z</time></trkpt><trkpt lat="35.88244804483905" lon="10.598645915511991"><ele>5.5</ele><time>2026-04-05T07:15:15.999Z</time></trkpt><trkpt lat="35.88231492710997" lon="10.598674480826476"><ele>5.25</ele><time>2026-04-05T07:15:16.999Z</time></trkpt><trkpt lat="35.88218038472638" lon="10.598703073804979"><ele>5.0</ele><time>2026-04-05T07:15:17.999Z</time></trkpt><trkpt lat="35.88204332476462" lon="10.598732802093172"><ele>4.75</ele><time>2026-04-05T07:15:18.999Z</time></trkpt><trkpt lat="35.88190667416623" lon="10.598761817917502"><ele>4.5</ele><time>2026-04-05T07:15:19.999Z</time></trkpt><trkpt lat="35.881767494894206" lon="10.598791755422958"><ele>4.25</ele><time>2026-04-05T07:15:20.999Z</time></trkpt><trkpt lat="35.88162820045737" lon="10.598816216990707"><ele>4.0</ele><time>2026-04-05T07:15:21.999Z</time></trkpt><trkpt lat="35.88148767952033" lon="10.59883713490314"><ele>4.5</ele><time>2026-04-05T07:15:22.999Z</time></trkpt><trkpt lat="35.88134744117662" lon="10.598856079653684"><ele>5.0</ele><time>2026-04-05T07:15:23.999Z</time></trkpt><trkpt lat="35.881208791336825" lon="10.598872146024663"><ele>5.5</ele><time>2026-04-05T07:15:24.999Z</time></trkpt><trkpt lat="35.881075240918534" lon="10.59888672174376"><ele>6.0</ele><time>2026-04-05T07:15:25.999Z</time></trkpt><trkpt lat="35.880952329948514" lon="10.598903225780868"><ele>6.0</ele><time>2026-04-05T07:15:26.999Z</time></trkpt><trkpt lat="35.880829776619485" lon="10.598926679947624"><ele>6.0</ele><time>2026-04-05T07:15:28Z</time></trkpt><trkpt lat="35.88069628578493" lon="10.598956658657906"><ele>6.0</ele><time>2026-04-05T07:15:29Z</time></trkpt><trkpt lat="35.88056663720086" lon="10.598969048202408"><ele>6.0</ele><time>2026-04-05T07:15:30Z</time></trkpt><trkpt lat="35.880450602823394" lon="10.598996948512976"><ele>6.0</ele><time>2026-04-05T07:15:31Z</time></trkpt><trkpt lat="35.88033996927386" lon="10.599025128192602"><ele>6.0</ele><time>2026-04-05T07:15:32Z</time></trkpt><trkpt lat="35.88023403441438" lon="10.599045337224846"><ele>6.0</ele><time>2026-04-05T07:15:33Z</time></trkpt><trkpt lat="35.88013272944483" lon="10.599070325102085"><ele>6.0</ele><time>2026-04-05T07:15:34Z</time></trkpt><trkpt lat="35.88003876399442" lon="10.599101309517213"><ele>6.0</ele><time>2026-04-05T07:15:35Z</time></trkpt><trkpt lat="35.87994773503797" lon="10.599131817191045"><ele>5.833333333333333</ele><time>2026-04-05T07:15:36Z</time></trkpt><trkpt lat="35.87986354286783" lon="10.599154086033348"><ele>5.666666666666667</ele><time>2026-04-05T07:15:37Z</time></trkpt><trkpt lat="35.879787448934465" lon="10.599175528571665"><ele>5.5</ele><time>2026-04-05T07:15:38Z</time></trkpt><trkpt lat="35.879714668229106" lon="10.59919883129411"><ele>5.333333333333334</ele><time>2026-04-05T07:15:39Z</time></trkpt><trkpt lat="35.87964299506091" lon="10.599214300284373"><ele>5.166666666666667</ele><time>2026-04-05T07:15:40Z</time></trkpt><trkpt lat="35.8795631060028" lon="10.599217458749624"><ele>5.0</ele><time>2026-04-05T07:15:41Z</time></trkpt><trkpt lat="35.879479430616556" lon="10.599219951048429"><ele>5.0</ele><time>2026-04-05T07:15:42Z</time></trkpt><trkpt lat="35.879383835050064" lon="10.599214210050217"><ele>5.0</ele><time>2026-04-05T07:15:43Z</time></trkpt><trkpt lat="35.87928542716233" lon="10.5992027607756"><ele>5.0</ele><time>2026-04-05T07:15:44Z</time></trkpt><trkpt lat="35.879181246073465" lon="10.59920817805553"><ele>5.0</ele><time>2026-04-05T07:15:45Z</time></trkpt><trkpt lat="35.879065357615" lon="10.599246467196568"><ele>5.0</ele><time>2026-04-05T07:15:46Z</time></trkpt><trkpt lat="35.87893843548138" lon="10.599309289893709"><ele>4.5</ele><time>2026-04-05T07:15:47Z</time></trkpt><trkpt lat="35.878817738926664" lon="10.599385771095353"><ele>4.0</ele><time>2026-04-05T07:15:48Z</time></trkpt><trkpt lat="35.87870363140481" lon="10.599463265274322"><ele>3.5</ele><time>2026-04-05T07:15:49Z</time></trkpt><trkpt lat="35.878595453800024" lon="10.599528373849747"><ele>3.0</ele><time>2026-04-05T07:15:50Z</time></trkpt><trkpt lat="35.87848293877294" lon="10.59958579148682"><ele>3.25</ele><time>2026-04-05T07:15:51Z</time></trkpt><trkpt lat="35.87836238718568" lon="10.599635307319105"><ele>3.5</ele><time>2026-04-05T07:15:52Z</time></trkpt><trkpt lat="35.878238295540726" lon="10.599680210142898"><ele>3.75</ele><time>2026-04-05T07:15:53Z</time></trkpt><trkpt lat="35.87811230395349" lon="10.59971908315149"><ele>4.0</ele><time>2026-04-05T07:15:54Z</time></trkpt><trkpt lat="35.8779986308773" lon="10.599747642474705"><ele>3.9999999999999996</ele><time>2026-04-05T07:15:55Z</time></trkpt><trkpt lat="35.87790448177425" lon="10.599768814970911"><ele>4.0</ele><time>2026-04-05T07:15:56Z</time></trkpt><trkpt lat="35.877829312169915" lon="10.599795308479237"><ele>4.0</ele><time>2026-04-05T07:15:57Z</time></trkpt><trkpt lat="35.877760043943425" lon="10.59981782757954"><ele>4.0</ele><time>2026-04-05T07:15:58Z</time></trkpt><trkpt lat="35.877686200320795" lon="10.59983895860463"><ele>3.9999999999999996</ele><time>2026-04-05T07:15:59Z</time></trkpt><trkpt lat="35.87761263142952" lon="10.599868468056382"><ele>4.0</ele><time>2026-04-05T07:16:00Z</time></trkpt><trkpt lat="35.8775338958876" lon="10.599899371514791"><ele>3.9999999999999996</ele><time>2026-04-05T07:16:01Z</time></trkpt><trkpt lat="35.87745222560614" lon="10.599928167332946"><ele>4.0</ele><time>2026-04-05T07:16:02Z</time></trkpt><trkpt lat="35.87737470233075" lon="10.59995354707259"><ele>4.0</ele><time>2026-04-05T07:16:03Z</time></trkpt><trkpt lat="35.87730058882619" lon="10.599980498479695"><ele>4.0</ele><time>2026-04-05T07:16:04Z</time></trkpt><trkpt lat="35.8772347354273" lon="10.60000830128251"><ele>3.9999999999999996</ele><time>2026-04-05T07:16:05Z</time></trkpt><trkpt lat="35.877160272625424" lon="10.600039558725735"><ele>4.0</ele><time>2026-04-05T07:16:06Z</time></trkpt><trkpt lat="35.87707848441345" lon="10.600069034965781"><ele>4.0</ele><time>2026-04-05T07:16:07Z</time></trkpt><trkpt lat="35.87699710774634" lon="10.600096574903318"><ele>4.0</ele><time>2026-04-05T07:16:08Z</time></trkpt><trkpt lat="35.876910904969954" lon="10.600126855721847"><ele>4.0</ele><time>2026-04-05T07:16:09Z</time></trkpt><trkpt lat="35.87682506432756" lon="10.600161928562057"><ele>4.0</ele><time>2026-04-05T07:16:10Z</time></trkpt><trkpt lat="35.876737183901845" lon="10.600194744588764"><ele>4.0</ele><time>2026-04-05T07:16:11Z</time></trkpt><trkpt lat="35.87664548537891" lon="10.600225290973015"><ele>4.0</ele><time>2026-04-05T07:16:12Z</time></trkpt><trkpt lat="35.876552447206116" lon="10.600263112995462"><ele>4.0</ele><time>2026-04-05T07:16:13Z</time></trkpt><trkpt lat="35.876454235449636" lon="10.600300956253303"><ele>4.0</ele><time>2026-04-05T07:16:14Z</time></trkpt><trkpt lat="35.876351173079144" lon="10.600337479624633"><ele>4.0</ele><time>2026-04-05T07:16:15Z</time></trkpt><trkpt lat="35.87624683912613" lon="10.600375229131886"><ele>4.0</ele><time>2026-04-05T07:16:16Z</time></trkpt><trkpt lat="35.876137805551956" lon="10.600414731648284"><ele>4.0</ele><time>2026-04-05T07:16:17Z</time></trkpt><trkpt lat="35.87602966491201" lon="10.600457141431866"><ele>4.0</ele><time>2026-04-05T07:16:18Z</time></trkpt><trkpt lat="35.875914172726986" lon="10.600501433388438"><ele>4.0</ele><time>2026-04-05T07:16:19Z</time></trkpt><trkpt lat="35.87579893845093" lon="10.600543727442101"><ele>4.0</ele><time>2026-04-05T07:16:20Z</time></trkpt><trkpt lat="35.87568119147554" lon="10.600586149537914"><ele>4.0</ele><time>2026-04-05T07:16:21Z</time></trkpt><trkpt lat="35.87556196427225" lon="10.60063075604219"><ele>4.0</ele><time>2026-04-05T07:16:22Z</time></trkpt><trkpt lat="35.8754423170554" lon="10.600674190430881"><ele>4.0</ele><time>2026-04-05T07:16:23Z</time></trkpt><trkpt lat="35.875325869478836" lon="10.600713931447345"><ele>4.0</ele><time>2026-04-05T07:16:24Z</time></trkpt><trkpt lat="35.8752191272694" lon="10.600746831526392"><ele>4.0</ele><time>2026-04-05T07:16:25Z</time></trkpt><trkpt lat="35.875113241074786" lon="10.600783694976059"><ele>4.0</ele><time>2026-04-05T07:16:26Z</time></trkpt><trkpt lat="35.875004595566516" lon="10.600820155791853"><ele>4.0</ele><time>2026-04-05T07:16:27Z</time></trkpt><trkpt lat="35.874901219398616" lon="10.600856208391667"><ele>4.0</ele><time>2026-04-05T07:16:28Z</time></trkpt><trkpt lat="35.874795450657714" lon="10.600892314028767"><ele>4.0</ele><time>2026-04-05T07:16:29Z</time></trkpt><trkpt lat="35.874692020595916" lon="10.60092922273401"><ele>4.0</ele><time>2026-04-05T07:16:30Z</time></trkpt><trkpt lat="35.87458304874416" lon="10.600972271046265"><ele>4.0</ele><time>2026-04-05T07:16:31Z</time></trkpt><trkpt lat="35.874468099188746" lon="10.601014058548886"><ele>4.0</ele><time>2026-04-05T07:16:32Z</time></trkpt><trkpt lat="35.874352449005" lon="10.601057222949379"><ele>4.0</ele><time>2026-04-05T07:16:33Z</time></trkpt><trkpt lat="35.874233611696845" lon="10.601099301510217"><ele>3.75</ele><time>2026-04-05T07:16:34Z</time></trkpt><trkpt lat="35.874108664754516" lon="10.601143093193693"><ele>3.5</ele><time>2026-04-05T07:16:35Z</time></trkpt><trkpt lat="35.87397698475287" lon="10.601189756826958"><ele>3.25</ele><time>2026-04-05T07:16:36Z</time></trkpt><trkpt lat="35.873839781626586" lon="10.601240500416106"><ele>3.0</ele><time>2026-04-05T07:16:37Z</time></trkpt><trkpt lat="35.87370146407899" lon="10.60129493139883"><ele>2.75</ele><time>2026-04-05T07:16:38Z</time></trkpt><trkpt lat="35.87356627282142" lon="10.601340076921582"><ele>2.5</ele><time>2026-04-05T07:16:39Z</time></trkpt><trkpt lat="35.873441620668196" lon="10.601385305493407"><ele>2.25</ele><time>2026-04-05T07:16:40Z</time></trkpt><trkpt lat="35.87332129972765" lon="10.601426834480776"><ele>2.0</ele><time>2026-04-05T07:16:41Z</time></trkpt><trkpt lat="35.87319929951258" lon="10.601467547835353"><ele>2.75</ele><time>2026-04-05T07:16:42Z</time></trkpt><trkpt lat="35.87307463949232" lon="10.60151154653282"><ele>3.5</ele><time>2026-04-05T07:16:43Z</time></trkpt><trkpt lat="35.87295190954701" lon="10.60155675772497"><ele>4.25</ele><time>2026-04-05T07:16:44Z</time></trkpt><trkpt lat="35.87283295211374" lon="10.601600570458226"><ele>5.0</ele><time>2026-04-05T07:16:45Z</time></trkpt><trkpt lat="35.87271673696568" lon="10.601643565186823"><ele>5.5</ele><time>2026-04-05T07:16:46Z</time></trkpt><trkpt lat="35.87260236700673" lon="10.601688001622064"><ele>6.0</ele><time>2026-04-05T07:16:47Z</time></trkpt><trkpt lat="35.87249243135196" lon="10.601731569829184"><ele>6.5</ele><time>2026-04-05T07:16:48Z</time></trkpt><trkpt lat="35.872381033922245" lon="10.60177700555919"><ele>7.0</ele><time>2026-04-05T07:16:49Z</time></trkpt><trkpt lat="35.87226754156138" lon="10.601825489809638"><ele>7.0</ele><time>2026-04-05T07:16:50Z</time></trkpt><trkpt lat="35.872156658616376" lon="10.60187597993835"><ele>7.0</ele><time>2026-04-05T07:16:51Z</time></trkpt><trkpt lat="35.872047226591995" lon="10.601924192506875"><ele>7.0</ele><time>2026-04-05T07:16:52Z</time></trkpt><trkpt lat="35.87194236534025" lon="10.60197468962828"><ele>7.0</ele><time>2026-04-05T07:16:53Z</time></trkpt><trkpt lat="35.87183681846165" lon="10.602021391536281"><ele>6.3999999999999995</ele><time>2026-04-05T07:16:54Z</time></trkpt><trkpt lat="35.871736915913836" lon="10.602065614984912"><ele>5.799999999999999</ele><time>2026-04-05T07:16:55Z</time></trkpt><trkpt lat="35.87163919523772" lon="10.60210820801157"><ele>5.2</ele><time>2026-04-05T07:16:56Z</time></trkpt><trkpt lat="35.87154359497719" lon="10.60215135639485"><ele>4.6</ele><time>2026-04-05T07:16:57Z</time></trkpt><trkpt lat="35.87144767868026" lon="10.602196836891807"><ele>4.0</ele><time>2026-04-05T07:16:58Z</time></trkpt><trkpt lat="35.87134362523362" lon="10.602246987399715"><ele>4.0</ele><time>2026-04-05T07:16:59Z</time></trkpt><trkpt lat="35.871236547619084" lon="10.602293115898231"><ele>4.0</ele><time>2026-04-05T07:17:00Z</time></trkpt><trkpt lat="35.87112615981922" lon="10.602338592292163"><ele>4.0</ele><time>2026-04-05T07:17:01Z</time></trkpt><trkpt lat="35.87101818357392" lon="10.602390837638868"><ele>4.0</ele><time>2026-04-05T07:17:02Z</time></trkpt><trkpt lat="35.87090591169884" lon="10.602444277863414"><ele>3.75</ele><time>2026-04-05T07:17:03Z</time></trkpt><trkpt lat="35.87079173467683" lon="10.60249692740907"><ele>3.5</ele><time>2026-04-05T07:17:04Z</time></trkpt><trkpt lat="35.87067640082799" lon="10.60255729302286"><ele>3.25</ele><time>2026-04-05T07:17:05Z</time></trkpt><trkpt lat="35.87056704525279" lon="10.60261977805857"><ele>3.0</ele><time>2026-04-05T07:17:06Z</time></trkpt><trkpt lat="35.87046240315513" lon="10.602677834492221"><ele>3.0</ele><time>2026-04-05T07:17:07Z</time></trkpt><trkpt lat="35.87036191917473" lon="10.602727816835985"><ele>3.0</ele><time>2026-04-05T07:17:07.999Z</time></trkpt><trkpt lat="35.8702673775416" lon="10.602775701468186"><ele>3.0</ele><time>2026-04-05T07:17:08.999Z</time></trkpt><trkpt lat="35.87017812836102" lon="10.60282752238696"><ele>3.0</ele><time>2026-04-05T07:17:09.999Z</time></trkpt><trkpt lat="35.870093527477756" lon="10.602880573469339"><ele>3.0</ele><time>2026-04-05T07:17:10.999Z</time></trkpt><trkpt lat="35.87001256577956" lon="10.602928697432931"><ele>3.0</ele><time>2026-04-05T07:17:11.999Z</time></trkpt><trkpt lat="35.86993798675782" lon="10.602977152452086"><ele>3.0</ele><time>2026-04-05T07:17:12.999Z</time></trkpt><trkpt lat="35.8698679739031" lon="10.603024924110365"><ele>3.0</ele><time>2026-04-05T07:17:13.999Z</time></trkpt><trkpt lat="35.869801983862935" lon="10.603070798110991"><ele>3.0</ele><time>2026-04-05T07:17:14.999Z</time></trkpt><trkpt lat="35.869738384323895" lon="10.603114143227987"><ele>3.0</ele><time>2026-04-05T07:17:15.999Z</time></trkpt><trkpt lat="35.86967702661435" lon="10.603153796173865"><ele>3.0</ele><time>2026-04-05T07:17:16.999Z</time></trkpt><trkpt lat="35.86961076812668" lon="10.60319798862438"><ele>3.0</ele><time>2026-04-05T07:17:17.999Z</time></trkpt><trkpt lat="35.86953188969677" lon="10.603246247087382"><ele>3.0</ele><time>2026-04-05T07:17:18.999Z</time></trkpt><trkpt lat="35.8694487353162" lon="10.60330921844567"><ele>3.0</ele><time>2026-04-05T07:17:19.999Z</time></trkpt><trkpt lat="35.86935137458141" lon="10.603420519350829"><ele>3.0</ele><time>2026-04-05T07:17:20.999Z</time></trkpt><trkpt lat="35.86922415823837" lon="10.603558488804628"><ele>3.25</ele><time>2026-04-05T07:17:21.999Z</time></trkpt><trkpt lat="35.86910502125582" lon="10.603668087962864"><ele>3.5</ele><time>2026-04-05T07:17:22.999Z</time></trkpt><trkpt lat="35.868999778763495" lon="10.603750064693829"><ele>3.75</ele><time>2026-04-05T07:17:23.999Z</time></trkpt><trkpt lat="35.8689054338853" lon="10.60383078763015"><ele>4.0</ele><time>2026-04-05T07:17:24.999Z</time></trkpt><trkpt lat="35.86881886788363" lon="10.603904420799612"><ele>4.0</ele><time>2026-04-05T07:17:25.999Z</time></trkpt><trkpt lat="35.86873808993748" lon="10.603970752102766"><ele>4.0</ele><time>2026-04-05T07:17:26.999Z</time></trkpt><trkpt lat="35.86866549028118" lon="10.604035010692266"><ele>4.0</ele><time>2026-04-05T07:17:27.999Z</time></trkpt><trkpt lat="35.868595152534425" lon="10.604103601701654"><ele>4.0</ele><time>2026-04-05T07:17:28.999Z</time></trkpt><trkpt lat="35.86852093805302" lon="10.604171262807798"><ele>4.0</ele><time>2026-04-05T07:17:29.999Z</time></trkpt><trkpt lat="35.86844291533391" lon="10.60423366784383"><ele>4.2</ele><time>2026-04-05T07:17:30.999Z</time></trkpt><trkpt lat="35.86836823024424" lon="10.604297803211415"><ele>4.4</ele><time>2026-04-05T07:17:31.999Z</time></trkpt><trkpt lat="35.86829537127085" lon="10.604365079282267"><ele>4.6</ele><time>2026-04-05T07:17:32.999Z</time></trkpt><trkpt lat="35.86822528340858" lon="10.604432322815835"><ele>4.8</ele><time>2026-04-05T07:17:34Z</time></trkpt><trkpt lat="35.86815206193656" lon="10.604498512208373"><ele>5.0</ele><time>2026-04-05T07:17:35Z</time></trkpt><trkpt lat="35.86808033134813" lon="10.604562842369836"><ele>5.5</ele><time>2026-04-05T07:17:36Z</time></trkpt><trkpt lat="35.868017356833064" lon="10.60461216577179"><ele>6.0</ele><time>2026-04-05T07:17:37Z</time></trkpt><trkpt lat="35.867959163430584" lon="10.604660527137844"><ele>6.5</ele><time>2026-04-05T07:17:38Z</time></trkpt><trkpt lat="35.86789946454299" lon="10.604712568706129"><ele>7.0</ele><time>2026-04-05T07:17:39Z</time></trkpt><trkpt lat="35.86783125295274" lon="10.604779907241856"><ele>7.499999999999999</ele><time>2026-04-05T07:17:40Z</time></trkpt><trkpt lat="35.86776709986054" lon="10.604858567549352"><ele>8.0</ele><time>2026-04-05T07:17:41Z</time></trkpt><trkpt lat="35.86770336580643" lon="10.604931613177213"><ele>8.0</ele><time>2026-04-05T07:17:42Z</time></trkpt><trkpt lat="35.86763386974913" lon="10.60500049702992"><ele>8.0</ele><time>2026-04-05T07:17:43Z</time></trkpt><trkpt lat="35.867565830921315" lon="10.605067301782483"><ele>8.0</ele><time>2026-04-05T07:17:44Z</time></trkpt><trkpt lat="35.86749299719975" lon="10.605135513584969"><ele>8.0</ele><time>2026-04-05T07:17:45Z</time></trkpt><trkpt lat="35.86742161470414" lon="10.605210812544506"><ele>8.0</ele><time>2026-04-05T07:17:46Z</time></trkpt><trkpt lat="35.8673475101415" lon="10.605290970876498"><ele>7.4</ele><time>2026-04-05T07:17:47Z</time></trkpt><trkpt lat="35.8672711583752" lon="10.60537519525195"><ele>6.800000000000001</ele><time>2026-04-05T07:17:48Z</time></trkpt><trkpt lat="35.86719566914221" lon="10.605457328755003"><ele>6.2</ele><time>2026-04-05T07:17:49Z</time></trkpt><trkpt lat="35.867122561172735" lon="10.60553032076664"><ele>5.6</ele><time>2026-04-05T07:17:50Z</time></trkpt><trkpt lat="35.86704984542098" lon="10.605610823817656"><ele>5.0</ele><time>2026-04-05T07:17:51Z</time></trkpt><trkpt lat="35.86697073257299" lon="10.605694259006286"><ele>5.0</ele><time>2026-04-05T07:17:52Z</time></trkpt><trkpt lat="35.86688331606223" lon="10.605782721553426"><ele>5.0</ele><time>2026-04-05T07:17:53Z</time></trkpt><trkpt lat="35.8667928663147" lon="10.605876415807256"><ele>5.0</ele><time>2026-04-05T07:17:54Z</time></trkpt><trkpt lat="35.86670904100707" lon="10.605980044449401"><ele>5.0</ele><time>2026-04-05T07:17:55Z</time></trkpt><trkpt lat="35.86662132825886" lon="10.606090536884514"><ele>5.5</ele><time>2026-04-05T07:17:56Z</time></trkpt><trkpt lat="35.866528265368906" lon="10.606194206050708"><ele>6.0</ele><time>2026-04-05T07:17:57Z</time></trkpt><trkpt lat="35.86643369929088" lon="10.606295446886659"><ele>6.5</ele><time>2026-04-05T07:17:58Z</time></trkpt><trkpt lat="35.86634448443615" lon="10.606405451198201"><ele>7.0</ele><time>2026-04-05T07:17:59Z</time></trkpt><trkpt lat="35.8662554211143" lon="10.606514106849398"><ele>7.0</ele><time>2026-04-05T07:18:00Z</time></trkpt><trkpt lat="35.866168004573844" lon="10.60661492026002"><ele>7.0</ele><time>2026-04-05T07:18:01Z</time></trkpt><trkpt lat="35.866083086333894" lon="10.606711106336483"><ele>7.0</ele><time>2026-04-05T07:18:02Z</time></trkpt><trkpt lat="35.86599549685941" lon="10.606806176199234"><ele>7.0</ele><time>2026-04-05T07:18:03Z</time></trkpt><trkpt lat="35.86590672630234" lon="10.606899627982052"><ele>7.0</ele><time>2026-04-05T07:18:04Z</time></trkpt><trkpt lat="35.865828148509465" lon="10.606988792797605"><ele>6.999999999999999</ele><time>2026-04-05T07:18:05Z</time></trkpt><trkpt lat="35.86575468316402" lon="10.607072184448208"><ele>6.999999999999999</ele><time>2026-04-05T07:18:06Z</time></trkpt><trkpt lat="35.86567593896931" lon="10.607153460738424"><ele>7.0</ele><time>2026-04-05T07:18:07Z</time></trkpt><trkpt lat="35.865598896434754" lon="10.607229073735473"><ele>7.0</ele><time>2026-04-05T07:18:08Z</time></trkpt><trkpt lat="35.86552704679274" lon="10.607309134121694"><ele>7.000000000000001</ele><time>2026-04-05T07:18:09Z</time></trkpt><trkpt lat="35.865460587552185" lon="10.607382953710344"><ele>7.0</ele><time>2026-04-05T07:18:10Z</time></trkpt><trkpt lat="35.86539371733946" lon="10.6074459692307"><ele>7.0</ele><time>2026-04-05T07:18:11Z</time></trkpt><trkpt lat="35.8653333416859" lon="10.607502480209252"><ele>7.0</ele><time>2026-04-05T07:18:12Z</time></trkpt><trkpt lat="35.8652847497773" lon="10.607553205741699"><ele>7.000000000000001</ele><time>2026-04-05T07:18:13Z</time></trkpt><trkpt lat="35.86518958521425" lon="10.607628601393312"><ele>7.0</ele><time>2026-04-05T07:18:15Z</time></trkpt><trkpt lat="35.865082497748276" lon="10.607683271886673"><ele>7.000000000000001</ele><time>2026-04-05T07:18:17Z</time></trkpt><trkpt lat="35.865020268705685" lon="10.607705598647128"><ele>7.0</ele><time>2026-04-05T07:18:20Z</time></trkpt><trkpt lat="35.86494803479501" lon="10.60776114441366"><ele>7.0</ele><time>2026-04-05T07:18:22Z</time></trkpt><trkpt lat="35.864901213522664" lon="10.607904632373977"><ele>7.0</ele><time>2026-04-05T07:18:24Z</time></trkpt><trkpt lat="35.8648667762196" lon="10.60798160958695"><ele>7.000000000000001</ele><time>2026-04-05T07:18:25Z</time></trkpt><trkpt lat="35.8648096423511" lon="10.60805486992867"><ele>7.0</ele><time>2026-04-05T07:18:26Z</time></trkpt><trkpt lat="35.86474312614416" lon="10.608120615832691"><ele>7.0</ele><time>2026-04-05T07:18:27Z</time></trkpt><trkpt lat="35.86466924825992" lon="10.608187959629072"><ele>6.999999999999999</ele><time>2026-04-05T07:18:28Z</time></trkpt><trkpt lat="35.864593120009424" lon="10.608262052642823"><ele>6.999999999999999</ele><time>2026-04-05T07:18:29Z</time></trkpt><trkpt lat="35.86451596941139" lon="10.608341497383348"><ele>7.0</ele><time>2026-04-05T07:18:30Z</time></trkpt><trkpt lat="35.86443417299538" lon="10.608423570233525"><ele>7.0</ele><time>2026-04-05T07:18:31Z</time></trkpt><trkpt lat="35.864353989574006" lon="10.6085019050711"><ele>7.3999999999999995</ele><time>2026-04-05T07:18:32Z</time></trkpt><trkpt lat="35.86427398251009" lon="10.608581765615908"><ele>7.799999999999999</ele><time>2026-04-05T07:18:33Z</time></trkpt><trkpt lat="35.86418956459281" lon="10.608659230615512"><ele>8.2</ele><time>2026-04-05T07:18:34Z</time></trkpt><trkpt lat="35.864104694551706" lon="10.60874106285207"><ele>8.6</ele><time>2026-04-05T07:18:35Z</time></trkpt><trkpt lat="35.86402016151047" lon="10.608829294755871"><ele>9.0</ele><time>2026-04-05T07:18:36Z</time></trkpt><trkpt lat="35.8639338790574" lon="10.608918849305706"><ele>9.0</ele><time>2026-04-05T07:18:37Z</time></trkpt><trkpt lat="35.86384575438285" lon="10.609004487796096"><ele>9.0</ele><time>2026-04-05T07:18:38Z</time></trkpt><trkpt lat="35.8637547105195" lon="10.60908926308906"><ele>9.0</ele><time>2026-04-05T07:18:39Z</time></trkpt><trkpt lat="35.86366747639703" lon="10.60917184616234"><ele>9.0</ele><time>2026-04-05T07:18:40Z</time></trkpt><trkpt lat="35.863582675880885" lon="10.609252902591676"><ele>9.0</ele><time>2026-04-05T07:18:41Z</time></trkpt><trkpt lat="35.863501905409834" lon="10.609335947910898"><ele>9.4</ele><time>2026-04-05T07:18:42Z</time></trkpt><trkpt lat="35.863423228637174" lon="10.60941751899"><ele>9.8</ele><time>2026-04-05T07:18:43Z</time></trkpt><trkpt lat="35.86334415296412" lon="10.609499136937105"><ele>10.200000000000001</ele><time>2026-04-05T07:18:44Z</time></trkpt><trkpt lat="35.863259404611185" lon="10.609582773597777"><ele>10.600000000000001</ele><time>2026-04-05T07:18:45Z</time></trkpt><trkpt lat="35.863173022727196" lon="10.60966390407795"><ele>11.0</ele><time>2026-04-05T07:18:46Z</time></trkpt><trkpt lat="35.86309377385492" lon="10.609745484677394"><ele>11.333333333333332</ele><time>2026-04-05T07:18:47Z</time></trkpt><trkpt lat="35.86301385532143" lon="10.609830567325975"><ele>11.666666666666666</ele><time>2026-04-05T07:18:48Z</time></trkpt><trkpt lat="35.86293493873249" lon="10.609911622054282"><ele>12.0</ele><time>2026-04-05T07:18:49Z</time></trkpt><trkpt lat="35.862862614106305" lon="10.609979352117204"><ele>12.333333333333332</ele><time>2026-04-05T07:18:50Z</time></trkpt><trkpt lat="35.862802565280276" lon="10.610032115090327"><ele>12.666666666666666</ele><time>2026-04-05T07:18:51Z</time></trkpt><trkpt lat="35.86274547799923" lon="10.61007908474996"><ele>13.0</ele><time>2026-04-05T07:18:52Z</time></trkpt><trkpt lat="35.86269208481104" lon="10.610123853309263"><ele>12.999999999999998</ele><time>2026-04-05T07:18:53Z</time></trkpt><trkpt lat="35.862587946260234" lon="10.610198535602654"><ele>13.0</ele><time>2026-04-05T07:18:55Z</time></trkpt><trkpt lat="35.86254086999262" lon="10.610253689209634"><ele>13.0</ele><time>2026-04-05T07:18:56Z</time></trkpt><trkpt lat="35.86249425327437" lon="10.610330636071543"><ele>13.0</ele><time>2026-04-05T07:18:57Z</time></trkpt><trkpt lat="35.8624322516815" lon="10.610408262150399"><ele>12.999999999999998</ele><time>2026-04-05T07:18:58Z</time></trkpt><trkpt lat="35.862357161787195" lon="10.610482296103726"><ele>13.0</ele><time>2026-04-05T07:18:59Z</time></trkpt><trkpt lat="35.86227449824744" lon="10.610564980937202"><ele>13.25</ele><time>2026-04-05T07:19:00Z</time></trkpt><trkpt lat="35.86218865351718" lon="10.610652516719854"><ele>13.5</ele><time>2026-04-05T07:19:00.999Z</time></trkpt><trkpt lat="35.86209403944325" lon="10.610748715198351"><ele>13.75</ele><time>2026-04-05T07:19:01.999Z</time></trkpt><trkpt lat="35.86197252075047" lon="10.610873045501458"><ele>14.0</ele><time>2026-04-05T07:19:02.999Z</time></trkpt><trkpt lat="35.86182758676382" lon="10.611016929098794"><ele>13.666666666666668</ele><time>2026-04-05T07:19:03.999Z</time></trkpt><trkpt lat="35.86167630579859" lon="10.611167605399494"><ele>13.333333333333332</ele><time>2026-04-05T07:19:04.999Z</time></trkpt><trkpt lat="35.861540548759166" lon="10.611303763839013"><ele>13.0</ele><time>2026-04-05T07:19:05.999Z</time></trkpt><trkpt lat="35.86141469226765" lon="10.611431521351124"><ele>13.0</ele><time>2026-04-05T07:19:06.999Z</time></trkpt><trkpt lat="35.86129845515552" lon="10.611552217321973"><ele>13.0</ele><time>2026-04-05T07:19:07.999Z</time></trkpt><trkpt lat="35.86118370484328" lon="10.611664068276895"><ele>13.0</ele><time>2026-04-05T07:19:08.999Z</time></trkpt><trkpt lat="35.86107202600332" lon="10.611775463032405"><ele>13.0</ele><time>2026-04-05T07:19:09.999Z</time></trkpt><trkpt lat="35.860961690287894" lon="10.611881861832744"><ele>12.75</ele><time>2026-04-05T07:19:10.999Z</time></trkpt><trkpt lat="35.860851429883304" lon="10.611992281881012"><ele>12.5</ele><time>2026-04-05T07:19:11.999Z</time></trkpt><trkpt lat="35.86073988139384" lon="10.61210326906287"><ele>12.25</ele><time>2026-04-05T07:19:12.999Z</time></trkpt><trkpt lat="35.860628391151145" lon="10.612211658798737"><ele>12.0</ele><time>2026-04-05T07:19:13.999Z</time></trkpt><trkpt lat="35.86052030101142" lon="10.612318123145116"><ele>12.0</ele><time>2026-04-05T07:19:14.999Z</time></trkpt><trkpt lat="35.860415955628156" lon="10.61242077960787"><ele>12.0</ele><time>2026-04-05T07:19:15.999Z</time></trkpt><trkpt lat="35.86031542776916" lon="10.612522723038335"><ele>12.0</ele><time>2026-04-05T07:19:16.999Z</time></trkpt><trkpt lat="35.86021380766104" lon="10.612622181136507"><ele>12.0</ele><time>2026-04-05T07:19:17.999Z</time></trkpt><trkpt lat="35.860117164802375" lon="10.61271679806405"><ele>11.75</ele><time>2026-04-05T07:19:18.999Z</time></trkpt><trkpt lat="35.86002415520069" lon="10.61280968902973"><ele>11.5</ele><time>2026-04-05T07:19:19.999Z</time></trkpt><trkpt lat="35.8599325369065" lon="10.612901948630334"><ele>11.25</ele><time>2026-04-05T07:19:20.999Z</time></trkpt><trkpt lat="35.859842721722075" lon="10.612993394589399"><ele>11.0</ele><time>2026-04-05T07:19:21.999Z</time></trkpt><trkpt lat="35.859751998633094" lon="10.61308592107689"><ele>11.0</ele><time>2026-04-05T07:19:22.999Z</time></trkpt><trkpt lat="35.859660251549144" lon="10.613179875257247"><ele>11.0</ele><time>2026-04-05T07:19:23.999Z</time></trkpt><trkpt lat="35.85956810433276" lon="10.613271936687898"><ele>11.0</ele><time>2026-04-05T07:19:24.999Z</time></trkpt><trkpt lat="35.85947697954536" lon="10.613363281730107"><ele>11.0</ele><time>2026-04-05T07:19:25.999Z</time></trkpt><trkpt lat="35.85938586671969" lon="10.613450195433758"><ele>11.0</ele><time>2026-04-05T07:19:26.999Z</time></trkpt><trkpt lat="35.85929498353029" lon="10.61353873526451"><ele>11.0</ele><time>2026-04-05T07:19:27.999Z</time></trkpt><trkpt lat="35.859204307650984" lon="10.613625450470378"><ele>11.0</ele><time>2026-04-05T07:19:28.999Z</time></trkpt><trkpt lat="35.85911363439546" lon="10.61371672607557"><ele>11.0</ele><time>2026-04-05T07:19:29.999Z</time></trkpt><trkpt lat="35.85902628003854" lon="10.613802863137657"><ele>11.0</ele><time>2026-04-05T07:19:30.999Z</time></trkpt><trkpt lat="35.858943765706464" lon="10.613886564248006"><ele>11.0</ele><time>2026-04-05T07:19:31.999Z</time></trkpt><trkpt lat="35.858857897104116" lon="10.613970560655883"><ele>11.0</ele><time>2026-04-05T07:19:32.999Z</time></trkpt><trkpt lat="35.85876534702797" lon="10.614053208057008"><ele>11.0</ele><time>2026-04-05T07:19:33.999Z</time></trkpt><trkpt lat="35.85867230597862" lon="10.61413536199437"><ele>11.0</ele><time>2026-04-05T07:19:34.999Z</time></trkpt><trkpt lat="35.85857743314692" lon="10.614220635354338"><ele>11.0</ele><time>2026-04-05T07:19:35.999Z</time></trkpt><trkpt lat="35.85847984161273" lon="10.614306204166324"><ele>11.0</ele><time>2026-04-05T07:19:36.999Z</time></trkpt><trkpt lat="35.858380160280696" lon="10.614385943723477"><ele>11.0</ele><time>2026-04-05T07:19:37.999Z</time></trkpt><trkpt lat="35.85827647207469" lon="10.61446121034176"><ele>11.0</ele><time>2026-04-05T07:19:38.999Z</time></trkpt><trkpt lat="35.85816848445103" lon="10.614536009782164"><ele>11.5</ele><time>2026-04-05T07:19:40Z</time></trkpt><trkpt lat="35.858062029447275" lon="10.614608826680406"><ele>12.0</ele><time>2026-04-05T07:19:41Z</time></trkpt><trkpt lat="35.85795373495982" lon="10.614678937418955"><ele>12.5</ele><time>2026-04-05T07:19:42Z</time></trkpt><trkpt lat="35.85784473187028" lon="10.61474823165288"><ele>13.0</ele><time>2026-04-05T07:19:43Z</time></trkpt><trkpt lat="35.85774114164474" lon="10.614815710554549"><ele>13.0</ele><time>2026-04-05T07:19:44Z</time></trkpt><trkpt lat="35.85763966241457" lon="10.61487969485682"><ele>13.0</ele><time>2026-04-05T07:19:45Z</time></trkpt><trkpt lat="35.85754070392054" lon="10.614937232724227"><ele>13.0</ele><time>2026-04-05T07:19:46Z</time></trkpt><trkpt lat="35.85744634260779" lon="10.614990178898815"><ele>13.0</ele><time>2026-04-05T07:19:47Z</time></trkpt><trkpt lat="35.85735102513981" lon="10.615044450515288"><ele>13.0</ele><time>2026-04-05T07:19:48Z</time></trkpt><trkpt lat="35.85725390176109" lon="10.6150910547779"><ele>12.0</ele><time>2026-04-05T07:19:49Z</time></trkpt><trkpt lat="35.857151454514515" lon="10.615129691059646"><ele>11.0</ele><time>2026-04-05T07:19:50Z</time></trkpt><trkpt lat="35.857044791823824" lon="10.615166052876436"><ele>10.0</ele><time>2026-04-05T07:19:51Z</time></trkpt><trkpt lat="35.856932090888634" lon="10.61521274546757"><ele>9.0</ele><time>2026-04-05T07:19:52Z</time></trkpt><trkpt lat="35.85681751159037" lon="10.61526294960286"><ele>9.0</ele><time>2026-04-05T07:19:53Z</time></trkpt><trkpt lat="35.8567087961236" lon="10.615307915344061"><ele>9.0</ele><time>2026-04-05T07:19:54Z</time></trkpt><trkpt lat="35.856605068298975" lon="10.615347750357138"><ele>9.0</ele><time>2026-04-05T07:19:55Z</time></trkpt><trkpt lat="35.85650939602573" lon="10.615383112849619"><ele>9.0</ele><time>2026-04-05T07:19:56Z</time></trkpt><trkpt lat="35.85642081967972" lon="10.61540754239066"><ele>9.0</ele><time>2026-04-05T07:19:57Z</time></trkpt><trkpt lat="35.85634109242262" lon="10.61542418604163"><ele>9.000000000000002</ele><time>2026-04-05T07:19:58Z</time></trkpt><trkpt lat="35.85627274863563" lon="10.615442221395629"><ele>9.0</ele><time>2026-04-05T07:19:59Z</time></trkpt><trkpt lat="35.85620409176429" lon="10.615457716997568"><ele>9.0</ele><time>2026-04-05T07:20:00Z</time></trkpt><trkpt lat="35.85612823976527" lon="10.615460086189717"><ele>9.0</ele><time>2026-04-05T07:20:01Z</time></trkpt><trkpt lat="35.8560495270409" lon="10.615459758844896"><ele>9.0</ele><time>2026-04-05T07:20:02Z</time></trkpt><trkpt lat="35.85597684027434" lon="10.615471253106918"><ele>9.000000000000002</ele><time>2026-04-05T07:20:03Z</time></trkpt><trkpt lat="35.85590322393584" lon="10.61550125441201"><ele>9.0</ele><time>2026-04-05T07:20:04Z</time></trkpt><trkpt lat="35.85581342605335" lon="10.61555413972366"><ele>8.6</ele><time>2026-04-05T07:20:05Z</time></trkpt><trkpt lat="35.855708549319104" lon="10.615583781280012"><ele>8.2</ele><time>2026-04-05T07:20:06Z</time></trkpt><trkpt lat="35.855605590220094" lon="10.615596013924094"><ele>7.799999999999999</ele><time>2026-04-05T07:20:07Z</time></trkpt><trkpt lat="35.85550657757421" lon="10.615608149548892"><ele>7.3999999999999995</ele><time>2026-04-05T07:20:08Z</time></trkpt><trkpt lat="35.85540496161083" lon="10.615622851727403"><ele>7.0</ele><time>2026-04-05T07:20:09Z</time></trkpt><trkpt lat="35.855296461526066" lon="10.615637849931725"><ele>7.0</ele><time>2026-04-05T07:20:10Z</time></trkpt><trkpt lat="35.8551821988349" lon="10.615651585911552"><ele>7.0</ele><time>2026-04-05T07:20:11Z</time></trkpt><trkpt lat="35.85505975959975" lon="10.615665385504895"><ele>7.0</ele><time>2026-04-05T07:20:12Z</time></trkpt><trkpt lat="35.854937618974375" lon="10.615680815401722"><ele>7.0</ele><time>2026-04-05T07:20:13Z</time></trkpt><trkpt lat="35.85481217071149" lon="10.615695499873373"><ele>7.5</ele><time>2026-04-05T07:20:14Z</time></trkpt><trkpt lat="35.85468242034738" lon="10.615713159409365"><ele>8.0</ele><time>2026-04-05T07:20:15Z</time></trkpt><trkpt lat="35.854555058002994" lon="10.615731127502965"><ele>8.5</ele><time>2026-04-05T07:20:16Z</time></trkpt><trkpt lat="35.854425606416974" lon="10.615745431643646"><ele>9.0</ele><time>2026-04-05T07:20:17Z</time></trkpt><trkpt lat="35.85429604766123" lon="10.615762661352084"><ele>9.75</ele><time>2026-04-05T07:20:18Z</time></trkpt><trkpt lat="35.8541685580319" lon="10.615783806984503"><ele>10.5</ele><time>2026-04-05T07:20:19Z</time></trkpt><trkpt lat="35.85404191927358" lon="10.615801422136467"><ele>11.25</ele><time>2026-04-05T07:20:20Z</time></trkpt><trkpt lat="35.85391604670786" lon="10.615821338978224"><ele>12.0</ele><time>2026-04-05T07:20:21Z</time></trkpt><trkpt lat="35.85379074536887" lon="10.615836161975055"><ele>12.0</ele><time>2026-04-05T07:20:22Z</time></trkpt><trkpt lat="35.85367385644015" lon="10.61584719296814"><ele>12.0</ele><time>2026-04-05T07:20:23Z</time></trkpt><trkpt lat="35.85356762295823" lon="10.615862239528889"><ele>12.0</ele><time>2026-04-05T07:20:24Z</time></trkpt><trkpt lat="35.85346335147725" lon="10.615874256736895"><ele>12.0</ele><time>2026-04-05T07:20:25Z</time></trkpt><trkpt lat="35.85335401501298" lon="10.615885087531321"><ele>12.0</ele><time>2026-04-05T07:20:26Z</time></trkpt><trkpt lat="35.85323790531097" lon="10.61590082053813"><ele>12.0</ele><time>2026-04-05T07:20:27Z</time></trkpt><trkpt lat="35.85312372755907" lon="10.615914668696314"><ele>12.0</ele><time>2026-04-05T07:20:28Z</time></trkpt><trkpt lat="35.85301146215586" lon="10.615929085462005"><ele>12.0</ele><time>2026-04-05T07:20:29Z</time></trkpt><trkpt lat="35.85289763165046" lon="10.615942093136953"><ele>12.0</ele><time>2026-04-05T07:20:30Z</time></trkpt><trkpt lat="35.852783702344745" lon="10.615956332800419"><ele>12.0</ele><time>2026-04-05T07:20:31Z</time></trkpt><trkpt lat="35.85267064474994" lon="10.61597028317733"><ele>12.0</ele><time>2026-04-05T07:20:32Z</time></trkpt><trkpt lat="35.852558659397005" lon="10.615982214843777"><ele>12.0</ele><time>2026-04-05T07:20:33Z</time></trkpt><trkpt lat="35.85244943810469" lon="10.615994809749001"><ele>12.0</ele><time>2026-04-05T07:20:34Z</time></trkpt><trkpt lat="35.85233902324754" lon="10.616011558313177"><ele>12.0</ele><time>2026-04-05T07:20:35Z</time></trkpt><trkpt lat="35.852231304844935" lon="10.616028498828324"><ele>12.2</ele><time>2026-04-05T07:20:36Z</time></trkpt><trkpt lat="35.852127712350466" lon="10.616040489607013"><ele>12.399999999999999</ele><time>2026-04-05T07:20:37Z</time></trkpt><trkpt lat="35.852030101753144" lon="10.61604998879482"><ele>12.600000000000001</ele><time>2026-04-05T07:20:38Z</time></trkpt><trkpt lat="35.85193328038248" lon="10.616061260384933"><ele>12.8</ele><time>2026-04-05T07:20:39Z</time></trkpt><trkpt lat="35.85184030075465" lon="10.616060004075361"><ele>13.0</ele><time>2026-04-05T07:20:40Z</time></trkpt><trkpt lat="35.85175145461958" lon="10.616040149997692"><ele>13.166666666666666</ele><time>2026-04-05T07:20:41Z</time></trkpt><trkpt lat="35.85166150772071" lon="10.616007919562396"><ele>13.333333333333332</ele><time>2026-04-05T07:20:42Z</time></trkpt><trkpt lat="35.85158271541493" lon="10.615978615728299"><ele>13.5</ele><time>2026-04-05T07:20:43Z</time></trkpt><trkpt lat="35.851508382204635" lon="10.615974576883566"><ele>13.666666666666668</ele><time>2026-04-05T07:20:44Z</time></trkpt><trkpt lat="35.85143076037968" lon="10.616012187931075"><ele>13.833333333333334</ele><time>2026-04-05T07:20:45Z</time></trkpt><trkpt lat="35.851349755756715" lon="10.616069734562483"><ele>14.0</ele><time>2026-04-05T07:20:46Z</time></trkpt><trkpt lat="35.851261121440174" lon="10.616125102852076"><ele>13.5</ele><time>2026-04-05T07:20:47Z</time></trkpt><trkpt lat="35.85115273023287" lon="10.616161443563804"><ele>13.0</ele><time>2026-04-05T07:20:48Z</time></trkpt><trkpt lat="35.85103091867612" lon="10.616186430705708"><ele>12.5</ele><time>2026-04-05T07:20:49Z</time></trkpt><trkpt lat="35.85090662431138" lon="10.616201518541336"><ele>12.0</ele><time>2026-04-05T07:20:50Z</time></trkpt><trkpt lat="35.85079596457761" lon="10.616208679299246"><ele>13.2</ele><time>2026-04-05T07:20:51Z</time></trkpt><trkpt lat="35.85068782215032" lon="10.616220666124086"><ele>14.399999999999999</ele><time>2026-04-05T07:20:52Z</time></trkpt><trkpt lat="35.850582050737565" lon="10.616238946524343"><ele>15.600000000000001</ele><time>2026-04-05T07:20:53Z</time></trkpt><trkpt lat="35.850481180254285" lon="10.616260628171478"><ele>16.8</ele><time>2026-04-05T07:20:54Z</time></trkpt><trkpt lat="35.85038360596412" lon="10.616286887618198"><ele>18.0</ele><time>2026-04-05T07:20:55Z</time></trkpt><trkpt lat="35.8502906042169" lon="10.61631506298035"><ele>18.0</ele><time>2026-04-05T07:20:56Z</time></trkpt><trkpt lat="35.85019955436184" lon="10.616347988432237"><ele>18.0</ele><time>2026-04-05T07:20:57Z</time></trkpt><trkpt lat="35.850109431891546" lon="10.616386430740791"><ele>18.0</ele><time>2026-04-05T07:20:58Z</time></trkpt><trkpt lat="35.85001794343233" lon="10.61643404693167"><ele>18.0</ele><time>2026-04-05T07:20:59Z</time></trkpt><trkpt lat="35.84992550666084" lon="10.616488935424497"><ele>18.0</ele><time>2026-04-05T07:21:00Z</time></trkpt><trkpt lat="35.84983748607123" lon="10.61654405420194"><ele>17.4</ele><time>2026-04-05T07:21:01Z</time></trkpt><trkpt lat="35.84974980439317" lon="10.616609753002429"><ele>16.8</ele><time>2026-04-05T07:21:02Z</time></trkpt><trkpt lat="35.849662582037226" lon="10.616676390759729"><ele>16.2</ele><time>2026-04-05T07:21:03Z</time></trkpt><trkpt lat="35.84957468241127" lon="10.616737037196275"><ele>15.6</ele><time>2026-04-05T07:21:04Z</time></trkpt><trkpt lat="35.84948312197124" lon="10.616797932535855"><ele>15.0</ele><time>2026-04-05T07:21:05Z</time></trkpt><trkpt lat="35.8493946668416" lon="10.616860016924907"><ele>15.0</ele><time>2026-04-05T07:21:06Z</time></trkpt><trkpt lat="35.84930573831471" lon="10.616923902356893"><ele>15.0</ele><time>2026-04-05T07:21:07Z</time></trkpt><trkpt lat="35.84921641208399" lon="10.616984646089069"><ele>15.0</ele><time>2026-04-05T07:21:08Z</time></trkpt><trkpt lat="35.849124818946756" lon="10.617042695989664"><ele>15.0</ele><time>2026-04-05T07:21:09Z</time></trkpt><trkpt lat="35.84903142497042" lon="10.617105228934761"><ele>15.0</ele><time>2026-04-05T07:21:10Z</time></trkpt><trkpt lat="35.84893535210326" lon="10.6171699589696"><ele>15.0</ele><time>2026-04-05T07:21:11Z</time></trkpt><trkpt lat="35.84883240761414" lon="10.61722880305547"><ele>15.0</ele><time>2026-04-05T07:21:12Z</time></trkpt><trkpt lat="35.8487286783246" lon="10.617285492424276"><ele>15.0</ele><time>2026-04-05T07:21:13Z</time></trkpt><trkpt lat="35.84863992276065" lon="10.617352018252033"><ele>15.0</ele><time>2026-04-05T07:21:14Z</time></trkpt><trkpt lat="35.84855323137227" lon="10.617414898184744"><ele>15.0</ele><time>2026-04-05T07:21:15Z</time></trkpt><trkpt lat="35.84846170613262" lon="10.617476072091632"><ele>15.6</ele><time>2026-04-05T07:21:16Z</time></trkpt><trkpt lat="35.848371526023584" lon="10.617538146661964"><ele>16.2</ele><time>2026-04-05T07:21:17Z</time></trkpt><trkpt lat="35.84828257094447" lon="10.617605504278155"><ele>16.8</ele><time>2026-04-05T07:21:18Z</time></trkpt><trkpt lat="35.84819270705164" lon="10.61767265786231"><ele>17.4</ele><time>2026-04-05T07:21:19Z</time></trkpt><trkpt lat="35.84810031860388" lon="10.617736725444113"><ele>18.0</ele><time>2026-04-05T07:21:20Z</time></trkpt><trkpt lat="35.84800798549267" lon="10.61780244450195"><ele>17.8</ele><time>2026-04-05T07:21:21Z</time></trkpt><trkpt lat="35.847915850018566" lon="10.617870659129363"><ele>17.6</ele><time>2026-04-05T07:21:22Z</time></trkpt><trkpt lat="35.847821624972894" lon="10.617938648456342"><ele>17.4</ele><time>2026-04-05T07:21:23Z</time></trkpt><trkpt lat="35.847727075490894" lon="10.618007054555413"><ele>17.2</ele><time>2026-04-05T07:21:24Z</time></trkpt><trkpt lat="35.84763503808591" lon="10.618075284533543"><ele>17.0</ele><time>2026-04-05T07:21:25Z</time></trkpt><trkpt lat="35.84754182862138" lon="10.618135947324179"><ele>17.0</ele><time>2026-04-05T07:21:26Z</time></trkpt><trkpt lat="35.84745019212333" lon="10.618198965262652"><ele>17.0</ele><time>2026-04-05T07:21:27Z</time></trkpt><trkpt lat="35.84735697691844" lon="10.618262664449464"><ele>17.0</ele><time>2026-04-05T07:21:28Z</time></trkpt><trkpt lat="35.84726324616484" lon="10.618331023240744"><ele>17.0</ele><time>2026-04-05T07:21:29Z</time></trkpt><trkpt lat="35.847172928610476" lon="10.618399173193923"><ele>17.0</ele><time>2026-04-05T07:21:30Z</time></trkpt><trkpt lat="35.84709282588109" lon="10.618461245622237"><ele>17.0</ele><time>2026-04-05T07:21:31Z</time></trkpt><trkpt lat="35.847019310934954" lon="10.618517884249153"><ele>17.0</ele><time>2026-04-05T07:21:32Z</time></trkpt><trkpt lat="35.84694765914713" lon="10.618572106115579"><ele>17.0</ele><time>2026-04-05T07:21:33Z</time></trkpt><trkpt lat="35.84687696170918" lon="10.618621953153763"><ele>17.0</ele><time>2026-04-05T07:21:34Z</time></trkpt><trkpt lat="35.84680606545371" lon="10.618670138104216"><ele>17.0</ele><time>2026-04-05T07:21:35Z</time></trkpt><trkpt lat="35.84673769832994" lon="10.618716111815258"><ele>17.0</ele><time>2026-04-05T07:21:36Z</time></trkpt><trkpt lat="35.846671779669734" lon="10.618755568644708"><ele>17.0</ele><time>2026-04-05T07:21:36.999Z</time></trkpt><trkpt lat="35.84661118389838" lon="10.618797154678923"><ele>17.0</ele><time>2026-04-05T07:21:37.999Z</time></trkpt><trkpt lat="35.846514256373446" lon="10.618868250448863"><ele>17.0</ele><time>2026-04-05T07:21:39.999Z</time></trkpt><trkpt lat="35.84642505188419" lon="10.618950663208977"><ele>17.0</ele><time>2026-04-05T07:21:41.999Z</time></trkpt><trkpt lat="35.84639031497041" lon="10.619091811232202"><ele>17.0</ele><time>2026-04-05T07:21:43.999Z</time></trkpt><trkpt lat="35.84638216945322" lon="10.619170789624881"><ele>17.0</ele><time>2026-04-05T07:21:44.999Z</time></trkpt><trkpt lat="35.846379155107755" lon="10.61931327466859"><ele>17.0</ele><time>2026-04-05T07:21:47Z</time></trkpt><trkpt lat="35.8463708950715" lon="10.619397898133524"><ele>17.0</ele><time>2026-04-05T07:21:48Z</time></trkpt><trkpt lat="35.84635828428911" lon="10.619496112397988"><ele>17.0</ele><time>2026-04-05T07:21:49Z</time></trkpt><trkpt lat="35.84633441871736" lon="10.619598318062302"><ele>17.0</ele><time>2026-04-05T07:21:50Z</time></trkpt><trkpt lat="35.846296985975954" lon="10.61970071505255"><ele>17.0</ele><time>2026-04-05T07:21:51Z</time></trkpt><trkpt lat="35.846243079677556" lon="10.619808322315041"><ele>16.25</ele><time>2026-04-05T07:21:52Z</time></trkpt><trkpt lat="35.846176340349494" lon="10.619918710552929"><ele>15.5</ele><time>2026-04-05T07:21:53Z</time></trkpt><trkpt lat="35.84609961898792" lon="10.620034968781543"><ele>14.75</ele><time>2026-04-05T07:21:54Z</time></trkpt><trkpt lat="35.846014835131456" lon="10.620151547447394"><ele>14.0</ele><time>2026-04-05T07:21:55Z</time></trkpt><trkpt lat="35.84592464811672" lon="10.62027309357895"><ele>14.0</ele><time>2026-04-05T07:21:56Z</time></trkpt><trkpt lat="35.845832955638315" lon="10.6204008878389"><ele>14.0</ele><time>2026-04-05T07:21:57Z</time></trkpt><trkpt lat="35.845734545745586" lon="10.62053831478594"><ele>14.0</ele><time>2026-04-05T07:21:58Z</time></trkpt><trkpt lat="35.84561116443297" lon="10.620708405750433"><ele>14.0</ele><time>2026-04-05T07:21:59Z</time></trkpt><trkpt lat="35.84548789654528" lon="10.62087972705604"><ele>14.0</ele><time>2026-04-05T07:22:00Z</time></trkpt><trkpt lat="35.84537587076847" lon="10.6210363057844"><ele>14.0</ele><time>2026-04-05T07:22:01Z</time></trkpt><trkpt lat="35.84526473348477" lon="10.621186513656898"><ele>13.0</ele><time>2026-04-05T07:22:02Z</time></trkpt><trkpt lat="35.84515698985734" lon="10.621330336436971"><ele>12.0</ele><time>2026-04-05T07:22:03Z</time></trkpt><trkpt lat="35.8450601876621" lon="10.621464821755577"><ele>11.0</ele><time>2026-04-05T07:22:04Z</time></trkpt><trkpt lat="35.84496680173854" lon="10.62159380186248"><ele>10.0</ele><time>2026-04-05T07:22:05Z</time></trkpt><trkpt lat="35.844875451511484" lon="10.621728811964047"><ele>9.5</ele><time>2026-04-05T07:22:06Z</time></trkpt><trkpt lat="35.84478346433762" lon="10.621865182371021"><ele>9.0</ele><time>2026-04-05T07:22:07Z</time></trkpt><trkpt lat="35.844694456140914" lon="10.622005909646706"><ele>8.5</ele><time>2026-04-05T07:22:08Z</time></trkpt><trkpt lat="35.84461044605077" lon="10.622156200222296"><ele>8.0</ele><time>2026-04-05T07:22:09Z</time></trkpt><trkpt lat="35.84453148563812" lon="10.62230830056333"><ele>7.75</ele><time>2026-04-05T07:22:10Z</time></trkpt><trkpt lat="35.84445663161698" lon="10.622450030886085"><ele>7.5</ele><time>2026-04-05T07:22:11Z</time></trkpt><trkpt lat="35.844383295699785" lon="10.62258132362769"><ele>7.25</ele><time>2026-04-05T07:22:12Z</time></trkpt><trkpt lat="35.844315622038" lon="10.622699051654143"><ele>7.0</ele><time>2026-04-05T07:22:13Z</time></trkpt><trkpt lat="35.84425555957284" lon="10.622809589101564"><ele>7.6</ele><time>2026-04-05T07:22:14Z</time></trkpt><trkpt lat="35.84419903933383" lon="10.622911561113225"><ele>8.2</ele><time>2026-04-05T07:22:15Z</time></trkpt><trkpt lat="35.84414354142103" lon="10.623012859411013"><ele>8.8</ele><time>2026-04-05T07:22:16Z</time></trkpt><trkpt lat="35.84408650118626" lon="10.623121271423805"><ele>9.4</ele><time>2026-04-05T07:22:17Z</time></trkpt><trkpt lat="35.844027433901424" lon="10.623232799081542"><ele>10.0</ele><time>2026-04-05T07:22:18Z</time></trkpt><trkpt lat="35.84396732204197" lon="10.62334528866659"><ele>10.0</ele><time>2026-04-05T07:22:19Z</time></trkpt><trkpt lat="35.843906694926815" lon="10.623459715707497"><ele>10.0</ele><time>2026-04-05T07:22:20Z</time></trkpt><trkpt lat="35.843848389636605" lon="10.62357490400888"><ele>10.0</ele><time>2026-04-05T07:22:21Z</time></trkpt><trkpt lat="35.84378841307332" lon="10.623687685011312"><ele>10.0</ele><time>2026-04-05T07:22:22Z</time></trkpt><trkpt lat="35.8437246831134" lon="10.623801233251504"><ele>10.0</ele><time>2026-04-05T07:22:23Z</time></trkpt><trkpt lat="35.843662572842845" lon="10.623911553417171"><ele>10.166666666666668</ele><time>2026-04-05T07:22:24Z</time></trkpt><trkpt lat="35.84360716505854" lon="10.624008254489143"><ele>10.333333333333334</ele><time>2026-04-05T07:22:25Z</time></trkpt><trkpt lat="35.84356124204177" lon="10.624085126885877"><ele>10.5</ele><time>2026-04-05T07:22:26Z</time></trkpt><trkpt lat="35.84351972856446" lon="10.624156976120261"><ele>10.666666666666666</ele><time>2026-04-05T07:22:27Z</time></trkpt><trkpt lat="35.843479738179006" lon="10.624223545657031"><ele>10.833333333333332</ele><time>2026-04-05T07:22:28Z</time></trkpt><trkpt lat="35.84344282870983" lon="10.624295183575448"><ele>11.0</ele><time>2026-04-05T07:22:29Z</time></trkpt><trkpt lat="35.8434044717251" lon="10.624369655407278"><ele>11.0</ele><time>2026-04-05T07:22:30Z</time></trkpt><trkpt lat="35.84336417372376" lon="10.624441659878402"><ele>11.0</ele><time>2026-04-05T07:22:31Z</time></trkpt><trkpt lat="35.843322601331884" lon="10.624514507965792"><ele>11.0</ele><time>2026-04-05T07:22:32Z</time></trkpt><trkpt lat="35.84325493842894" lon="10.624625677248442"><ele>11.0</ele><time>2026-04-05T07:22:34Z</time></trkpt><trkpt lat="35.84316698049971" lon="10.624719745097838"><ele>11.0</ele><time>2026-04-05T07:22:36Z</time></trkpt><trkpt lat="35.84310881167674" lon="10.624755722821648"><ele>11.0</ele><time>2026-04-05T07:22:37Z</time></trkpt><trkpt lat="35.842995933342586" lon="10.624774523617791"><ele>11.0</ele><time>2026-04-05T07:22:39Z</time></trkpt><trkpt lat="35.842871556203505" lon="10.624719053591074"><ele>11.0</ele><time>2026-04-05T07:22:41Z</time></trkpt><trkpt lat="35.842800751861795" lon="10.62465533330351"><ele>11.0</ele><time>2026-04-05T07:22:42Z</time></trkpt><trkpt lat="35.842721115803165" lon="10.6245709299836"><ele>11.0</ele><time>2026-04-05T07:22:43Z</time></trkpt><trkpt lat="35.84264211015048" lon="10.624478651570257"><ele>11.0</ele><time>2026-04-05T07:22:44Z</time></trkpt><trkpt lat="35.842562306098195" lon="10.624384173774173"><ele>11.0</ele><time>2026-04-05T07:22:45Z</time></trkpt><trkpt lat="35.84248290077913" lon="10.624291083037651"><ele>11.0</ele><time>2026-04-05T07:22:46Z</time></trkpt><trkpt lat="35.84240462988871" lon="10.624199942524603"><ele>11.0</ele><time>2026-04-05T07:22:47Z</time></trkpt><trkpt lat="35.84233361867148" lon="10.624116498902936"><ele>11.0</ele><time>2026-04-05T07:22:48Z</time></trkpt><trkpt lat="35.842274664698955" lon="10.624041755294632"><ele>11.0</ele><time>2026-04-05T07:22:49Z</time></trkpt><trkpt lat="35.84222167992817" lon="10.623964641316547"><ele>11.0</ele><time>2026-04-05T07:22:50Z</time></trkpt><trkpt lat="35.84217288015338" lon="10.623878181953353"><ele>11.0</ele><time>2026-04-05T07:22:51Z</time></trkpt><trkpt lat="35.84213126193265" lon="10.623785080335479"><ele>11.0</ele><time>2026-04-05T07:22:52Z</time></trkpt><trkpt lat="35.842088219778255" lon="10.623678784077823"><ele>11.0</ele><time>2026-04-05T07:22:53Z</time></trkpt><trkpt lat="35.84205529184181" lon="10.623579692462405"><ele>11.0</ele><time>2026-04-05T07:22:54Z</time></trkpt><trkpt lat="35.84203403579318" lon="10.623494672087936"><ele>11.0</ele><time>2026-04-05T07:22:55Z</time></trkpt><trkpt lat="35.842012795510435" lon="10.623421445502915"><ele>11.75</ele><time>2026-04-05T07:22:56Z</time></trkpt><trkpt lat="35.841960924223" lon="10.623290650533823"><ele>12.5</ele><time>2026-04-05T07:22:58Z</time></trkpt><trkpt lat="35.84190165214705" lon="10.62315918362552"><ele>13.25</ele><time>2026-04-05T07:23:00Z</time></trkpt><trkpt lat="35.841825848085655" lon="10.623050486514837"><ele>14.0</ele><time>2026-04-05T07:23:02Z</time></trkpt><trkpt lat="35.84174059507445" lon="10.622957124723087"><ele>14.500000000000002</ele><time>2026-04-05T07:23:04Z</time></trkpt><trkpt lat="35.84163559057987" lon="10.622878846606028"><ele>15.0</ele><time>2026-04-05T07:23:06Z</time></trkpt><trkpt lat="35.84157570550164" lon="10.622854076826957"><ele>15.5</ele><time>2026-04-05T07:23:07Z</time></trkpt><trkpt lat="35.84151173050998" lon="10.622827007793594"><ele>16.0</ele><time>2026-04-05T07:23:08Z</time></trkpt><trkpt lat="35.841445668775435" lon="10.622798999805005"><ele>16.5</ele><time>2026-04-05T07:23:09Z</time></trkpt><trkpt lat="35.841376831293054" lon="10.622775401621684"><ele>17.0</ele><time>2026-04-05T07:23:10Z</time></trkpt><trkpt lat="35.84130682921967" lon="10.622752283039844"><ele>17.0</ele><time>2026-04-05T07:23:11Z</time></trkpt><trkpt lat="35.84123804690134" lon="10.622732437516257"><ele>17.0</ele><time>2026-04-05T07:23:12Z</time></trkpt><trkpt lat="35.841129250861705" lon="10.6226997886043"><ele>17.0</ele><time>2026-04-05T07:23:14Z</time></trkpt><trkpt lat="35.84100873310578" lon="10.622663091839579"><ele>17.0</ele><time>2026-04-05T07:23:16Z</time></trkpt><trkpt lat="35.840942890614215" lon="10.622644096544407"><ele>17.0</ele><time>2026-04-05T07:23:17Z</time></trkpt><trkpt lat="35.840870642057446" lon="10.622628628989418"><ele>17.0</ele><time>2026-04-05T07:23:18Z</time></trkpt><trkpt lat="35.84079793253551" lon="10.622611014494279"><ele>17.333333333333336</ele><time>2026-04-05T07:23:19Z</time></trkpt><trkpt lat="35.84072095098463" lon="10.622591535406764"><ele>17.666666666666668</ele><time>2026-04-05T07:23:20Z</time></trkpt><trkpt lat="35.8406447281695" lon="10.62257001849468"><ele>18.0</ele><time>2026-04-05T07:23:21Z</time></trkpt><trkpt lat="35.84057291500088" lon="10.622548713634874"><ele>18.333333333333332</ele><time>2026-04-05T07:23:22Z</time></trkpt><trkpt lat="35.84050943620125" lon="10.622534796646493"><ele>18.666666666666664</ele><time>2026-04-05T07:23:23Z</time></trkpt><trkpt lat="35.84039145715846" lon="10.622517954880953"><ele>19.0</ele><time>2026-04-05T07:23:25Z</time></trkpt><trkpt lat="35.84032006359945" lon="10.622526998627109"><ele>19.0</ele><time>2026-04-05T07:23:26Z</time></trkpt><trkpt lat="35.840250956191426" lon="10.622548463657798"><ele>19.0</ele><time>2026-04-05T07:23:27Z</time></trkpt><trkpt lat="35.84019495760494" lon="10.622586876778568"><ele>19.0</ele><time>2026-04-05T07:23:28Z</time></trkpt><trkpt lat="35.84011765822384" lon="10.622684734190234"><ele>19.0</ele><time>2026-04-05T07:23:30Z</time></trkpt><trkpt lat="35.840060560105336" lon="10.622800891058734"><ele>19.0</ele><time>2026-04-05T07:23:32Z</time></trkpt><trkpt lat="35.84004004470242" lon="10.622880010620504"><ele>19.0</ele><time>2026-04-05T07:23:33Z</time></trkpt><trkpt lat="35.840021762022104" lon="10.622976304648702"><ele>19.666666666666664</ele><time>2026-04-05T07:23:34Z</time></trkpt><trkpt lat="35.84002148414188" lon="10.623076474065718"><ele>20.333333333333332</ele><time>2026-04-05T07:23:35Z</time></trkpt><trkpt lat="35.84001212814538" lon="10.623176998489114"><ele>21.0</ele><time>2026-04-05T07:23:36Z</time></trkpt><trkpt lat="35.84000840780082" lon="10.62328946147341"><ele>21.666666666666668</ele><time>2026-04-05T07:23:37Z</time></trkpt><trkpt lat="35.84000271969355" lon="10.62340508474008"><ele>22.333333333333336</ele><time>2026-04-05T07:23:38Z</time></trkpt><trkpt lat="35.84000417243411" lon="10.623529537253242"><ele>23.0</ele><time>2026-04-05T07:23:39Z</time></trkpt><trkpt lat="35.84000406251667" lon="10.62365980722584"><ele>23.0</ele><time>2026-04-05T07:23:40Z</time></trkpt><trkpt lat="35.84000811234525" lon="10.623789268727402"><ele>23.0</ele><time>2026-04-05T07:23:41Z</time></trkpt><trkpt lat="35.84000920349097" lon="10.623919473426504"><ele>23.0</ele><time>2026-04-05T07:23:42Z</time></trkpt><trkpt lat="35.84001222074793" lon="10.624041602417835"><ele>23.0</ele><time>2026-04-05T07:23:43Z</time></trkpt><trkpt lat="35.840012046643054" lon="10.624149569893524"><ele>23.0</ele><time>2026-04-05T07:23:44Z</time></trkpt><trkpt lat="35.84000650072162" lon="10.624250269310775"><ele>10.0</ele><time>2026-04-05T07:23:45Z</time></trkpt><trkpt lat="35.843906694926815" lon="10.623459715707497"><ele>10.0</ele><time>2026-04-05T07:22:20Z</time></trkpt><trkpt lat="35.843848389636605" lon="10.62357490400888"><ele>10.0</ele><time>2026-04-05T07:22:21Z</time></trkpt><trkpt lat="35.84378841307332" lon="10.623687685011312"><ele>10.0</ele><time>2026-04-05T07:22:22Z</time></trkpt><trkpt lat="35.8437246831134" lon="10.623801233251504"><ele>10.0</ele><time>2026-04-05T07:22:23Z</time></trkpt><trkpt lat="35.843662572842845" lon="10.623911553417171"><ele>10.0</ele><time>2026-04-05T07:22:24Z</time></trkpt><trkpt lat="35.84360716505854" lon="10.624008254489143"><ele>10.0</ele><time>2026-04-05T07:22:25Z</time></trkpt><trkpt lat="35.84356124204177" lon="10.624085126885877"><ele>10.0</ele><time>2026-04-05T07:22:26Z</time></trkpt><trkpt lat="35.84351972856446" lon="10.624156976120261"><ele>10.0</ele><time>2026-04-05T07:22:27Z</time></trkpt><trkpt lat="35.843479738179006" lon="10.624223545657031"><ele>10.0</ele><time>2026-04-05T07:22:28Z</time></trkpt><trkpt lat="35.84344282870983" lon="10.624295183575448"><ele>10.0</ele><time>2026-04-05T07:22:29Z</time></trkpt><trkpt lat="35.8434044717251" lon="10.624369655407278"><ele>10.0</ele><time>2026-04-05T07:22:30Z</time></trkpt><trkpt lat="35.84336417372376" lon="10.624441659878402"><ele>10.0</ele><time>2026-04-05T07:22:31Z</time></trkpt><trkpt lat="35.843322601331884" lon="10.624514507965792"><ele>10.0</ele><time>2026-04-05T07:22:32Z</time></trkpt><trkpt lat="35.84325493842894" lon="10.624625677248442"><ele>10.0</ele><time>2026-04-05T07:22:34Z</time></trkpt><trkpt lat="35.84316698049971" lon="10.624719745097838"><ele>10.0</ele><time>2026-04-05T07:22:36Z</time></trkpt><trkpt lat="35.84310881167674" lon="10.624755722821648"><ele>10.0</ele><time>2026-04-05T07:22:37Z</time></trkpt><trkpt lat="35.842995933342586" lon="10.624774523617791"><ele>10.0</ele><time>2026-04-05T07:22:39Z</time></trkpt><trkpt lat="35.842871556203505" lon="10.624719053591074"><ele>10.0</ele><time>2026-04-05T07:22:41Z</time></trkpt><trkpt lat="35.842800751861795" lon="10.62465533330351"><ele>10.0</ele><time>2026-04-05T07:22:42Z</time></trkpt><trkpt lat="35.842721115803165" lon="10.6245709299836"><ele>10.0</ele><time>2026-04-05T07:22:43Z</time></trkpt><trkpt lat="35.84264211015048" lon="10.624478651570257"><ele>10.0</ele><time>2026-04-05T07:22:44Z</time></trkpt><trkpt lat="35.842562306098195" lon="10.624384173774173"><ele>10.0</ele><time>2026-04-05T07:22:45Z</time></trkpt><trkpt lat="35.84248290077913" lon="10.624291083037651"><ele>10.2</ele><time>2026-04-05T07:22:46Z</time></trkpt><trkpt lat="35.84240462988871" lon="10.624199942524603"><ele>10.4</ele><time>2026-04-05T07:22:47Z</time></trkpt><trkpt lat="35.84233361867148" lon="10.624116498902936"><ele>10.600000000000001</ele><time>2026-04-05T07:22:48Z</time></trkpt><trkpt lat="35.842274664698955" lon="10.624041755294632"><ele>10.8</ele><time>2026-04-05T07:22:49Z</time></trkpt><trkpt lat="35.84222167992817" lon="10.623964641316547"><ele>11.0</ele><time>2026-04-05T07:22:50Z</time></trkpt><trkpt lat="35.84217288015338" lon="10.623878181953353"><ele>11.0</ele><time>2026-04-05T07:22:51Z</time></trkpt><trkpt lat="35.84213126193265" lon="10.623785080335479"><ele>11.0</ele><time>2026-04-05T07:22:52Z</time></trkpt><trkpt lat="35.842088219778255" lon="10.623678784077823"><ele>11.0</ele><time>2026-04-05T07:22:53Z</time></trkpt><trkpt lat="35.84205529184181" lon="10.623579692462405"><ele>11.0</ele><time>2026-04-05T07:22:54Z</time></trkpt><trkpt lat="35.84203403579318" lon="10.623494672087936"><ele>11.0</ele><time>2026-04-05T07:22:55Z</time></trkpt><trkpt lat="35.842012795510435" lon="10.623421445502915"><ele>11.0</ele><time>2026-04-05T07:22:56Z</time></trkpt><trkpt lat="35.841960924223" lon="10.623290650533823"><ele>11.75</ele><time>2026-04-05T07:22:58Z</time></trkpt><trkpt lat="35.84190165214705" lon="10.62315918362552"><ele>12.5</ele><time>2026-04-05T07:23:00Z</time></trkpt><trkpt lat="35.841825848085655" lon="10.623050486514837"><ele>13.25</ele><time>2026-04-05T07:23:02Z</time></trkpt><trkpt lat="35.84174059507445" lon="10.622957124723087"><ele>14.0</ele><time>2026-04-05T07:23:04Z</time></trkpt><trkpt lat="35.84163559057987" lon="10.622878846606028"><ele>14.428571428571429</ele><time>2026-04-05T07:23:06Z</time></trkpt><trkpt lat="35.84157570550164" lon="10.622854076826957"><ele>14.857142857142858</ele><time>2026-04-05T07:23:07Z</time></trkpt><trkpt lat="35.84151173050998" lon="10.622827007793594"><ele>15.285714285714285</ele><time>2026-04-05T07:23:08Z</time></trkpt><trkpt lat="35.841445668775435" lon="10.622798999805005"><ele>15.714285714285714</ele><time>2026-04-05T07:23:09Z</time></trkpt><trkpt lat="35.841376831293054" lon="10.622775401621684"><ele>16.142857142857142</ele><time>2026-04-05T07:23:10Z</time></trkpt><trkpt lat="35.84130682921967" lon="10.622752283039844"><ele>16.57142857142857</ele><time>2026-04-05T07:23:11Z</time></trkpt><trkpt lat="35.84123804690134" lon="10.622732437516257"><ele>17.0</ele><time>2026-04-05T07:23:12Z</time></trkpt><trkpt lat="35.841129250861705" lon="10.6226997886043"><ele>17.0</ele><time>2026-04-05T07:23:14Z</time></trkpt><trkpt lat="35.84100873310578" lon="10.622663091839579"><ele>17.0</ele><time>2026-04-05T07:23:16Z</time></trkpt><trkpt lat="35.840942890614215" lon="10.622644096544407"><ele>17.0</ele><time>2026-04-05T07:23:17Z</time></trkpt><trkpt lat="35.840870642057446" lon="10.622628628989418"><ele>17.0</ele><time>2026-04-05T07:23:18Z</time></trkpt><trkpt lat="35.84079793253551" lon="10.622611014494279"><ele>17.0</ele><time>2026-04-05T07:23:19Z</time></trkpt><trkpt lat="35.84072095098463" lon="10.622591535406764"><ele>17.0</ele><time>2026-04-05T07:23:20Z</time></trkpt><trkpt lat="35.8406447281695" lon="10.62257001849468"><ele>17.333333333333336</ele><time>2026-04-05T07:23:21Z</time></trkpt><trkpt lat="35.84057291500088" lon="10.622548713634874"><ele>17.666666666666668</ele><time>2026-04-05T07:23:22Z</time></trkpt><trkpt lat="35.84050943620125" lon="10.622534796646493"><ele>18.0</ele><time>2026-04-05T07:23:23Z</time></trkpt><trkpt lat="35.84039145715846" lon="10.622517954880953"><ele>18.333333333333332</ele><time>2026-04-05T07:23:25Z</time></trkpt><trkpt lat="35.84032006359945" lon="10.622526998627109"><ele>18.666666666666664</ele><time>2026-04-05T07:23:26Z</time></trkpt><trkpt lat="35.840250956191426" lon="10.622548463657798"><ele>19.0</ele><time>2026-04-05T07:23:27Z</time></trkpt><trkpt lat="35.84019495760494" lon="10.622586876778568"><ele>19.2</ele><time>2026-04-05T07:23:28Z</time></trkpt><trkpt lat="35.84011765822384" lon="10.622684734190234"><ele>19.4</ele><time>2026-04-05T07:23:30Z</time></trkpt><trkpt lat="35.840060560105336" lon="10.622800891058734"><ele>19.6</ele><time>2026-04-05T07:23:32Z</time></trkpt><trkpt lat="35.84004004470242" lon="10.622880010620504"><ele>19.8</ele><time>2026-04-05T07:23:33Z</time></trkpt><trkpt lat="35.840021762022104" lon="10.622976304648702"><ele>20.0</ele><time>2026-04-05T07:23:34Z</time></trkpt><trkpt lat="35.84002148414188" lon="10.623076474065718"><ele>20.6</ele><time>2026-04-05T07:23:35Z</time></trkpt><trkpt lat="35.84001212814538" lon="10.623176998489114"><ele>21.2</ele><time>2026-04-05T07:23:36Z</time></trkpt><trkpt lat="35.84000840780082" lon="10.62328946147341"><ele>21.799999999999997</ele><time>2026-04-05T07:23:37Z</time></trkpt><trkpt lat="35.84000271969355" lon="10.62340508474008"><ele>22.4</ele><time>2026-04-05T07:23:38Z</time></trkpt><trkpt lat="35.84000417243411" lon="10.623529537253242"><ele>23.0</ele><time>2026-04-05T07:23:39Z</time></trkpt><trkpt lat="35.84000406251667" lon="10.62365980722584"><ele>23.0</ele><time>2026-04-05T07:23:40Z</time></trkpt><trkpt lat="35.84000811234525" lon="10.623789268727402"><ele>23.0</ele><time>2026-04-05T07:23:41Z</time></trkpt><trkpt lat="35.84000920349097" lon="10.623919473426504"><ele>23.0</ele><time>2026-04-05T07:23:42Z</time></trkpt><trkpt lat="35.84001222074793" lon="10.624041602417835"><ele>23.0</ele><time>2026-04-05T07:23:43Z</time></trkpt><trkpt lat="35.840012046643054" lon="10.624149569893524"><ele>23.0</ele><time>2026-04-05T07:23:44Z</time></trkpt><trkpt lat="35.84000650072162" lon="10.624250269310775"><ele>23.0</ele><time>2026-04-05T07:23:45Z</time></trkpt><trkpt lat="35.84000609270229" lon="10.624351805058192"><ele>23.0</ele><time>2026-04-05T07:23:46Z</time></trkpt><trkpt lat="35.84000795963194" lon="10.624451092791531"><ele>23.0</ele><time>2026-04-05T07:23:47Z</time></trkpt><trkpt lat="35.840003115525455" lon="10.62456002504399"><ele>23.0</ele><time>2026-04-05T07:23:48Z</time></trkpt><trkpt lat="35.84000842990088" lon="10.624679780151839"><ele>23.0</ele><time>2026-04-05T07:23:49Z</time></trkpt><trkpt lat="35.84001052744818" lon="10.624796228298674"><ele>23.0</ele><time>2026-04-05T07:23:50Z</time></trkpt><trkpt lat="35.84000950375521" lon="10.624914169757828"><ele>23.0</ele><time>2026-04-05T07:23:51Z</time></trkpt><trkpt lat="35.84000999481809" lon="10.62503781175955"><ele>23.0</ele><time>2026-04-05T07:23:52Z</time></trkpt><trkpt lat="35.84000866460197" lon="10.62515935945855"><ele>23.0</ele><time>2026-04-05T07:23:53Z</time></trkpt><trkpt lat="35.84000786451912" lon="10.62528353077297"><ele>23.0</ele><time>2026-04-05T07:23:54Z</time></trkpt><trkpt lat="35.840008681000924" lon="10.625411147041362"><ele>23.0</ele><time>2026-04-05T07:23:55Z</time></trkpt><trkpt lat="35.84001050438465" lon="10.625542497140541"><ele>22.2</ele><time>2026-04-05T07:23:56Z</time></trkpt><trkpt lat="35.840012218128884" lon="10.625669686380013"><ele>21.4</ele><time>2026-04-05T07:23:57Z</time></trkpt><trkpt lat="35.84001766222912" lon="10.625795421765599"><ele>20.599999999999998</ele><time>2026-04-05T07:23:58Z</time></trkpt><trkpt lat="35.840028414031565" lon="10.625914593332821"><ele>19.799999999999997</ele><time>2026-04-05T07:23:59Z</time></trkpt><trkpt lat="35.840032755797225" lon="10.626029926860072"><ele>19.0</ele><time>2026-04-05T07:24:00Z</time></trkpt><trkpt lat="35.8400406746608" lon="10.626142252885105"><ele>18.4</ele><time>2026-04-05T07:24:01Z</time></trkpt><trkpt lat="35.84005036333277" lon="10.626257548486574"><ele>17.799999999999997</ele><time>2026-04-05T07:24:02Z</time></trkpt><trkpt lat="35.840062154486446" lon="10.626374189634403"><ele>17.200000000000003</ele><time>2026-04-05T07:24:03Z</time></trkpt><trkpt lat="35.84006884874188" lon="10.626489164335366"><ele>16.6</ele><time>2026-04-05T07:24:04Z</time></trkpt><trkpt lat="35.84007935587305" lon="10.626596062233544"><ele>16.0</ele><time>2026-04-05T07:24:05Z</time></trkpt><trkpt lat="35.840093594340864" lon="10.62669623562291"><ele>15.999999999999998</ele><time>2026-04-05T07:24:06Z</time></trkpt><trkpt lat="35.8401044018408" lon="10.626775822612604"><ele>16.0</ele><time>2026-04-05T07:24:07Z</time></trkpt><trkpt lat="35.84011222408992" lon="10.626906319630182"><ele>16.0</ele><time>2026-04-05T07:24:09Z</time></trkpt><trkpt lat="35.84011217025597" lon="10.627043954738356"><ele>16.0</ele><time>2026-04-05T07:24:11Z</time></trkpt><trkpt lat="35.84011686369427" lon="10.627133744591424"><ele>15.999999999999998</ele><time>2026-04-05T07:24:12Z</time></trkpt><trkpt lat="35.84012602482609" lon="10.627229379760479"><ele>16.0</ele><time>2026-04-05T07:24:13Z</time></trkpt><trkpt lat="35.84014467760691" lon="10.627327302283355"><ele>15.166666666666666</ele><time>2026-04-05T07:24:14Z</time></trkpt><trkpt lat="35.84015171768836" lon="10.627428586988513"><ele>14.333333333333332</ele><time>2026-04-05T07:24:15Z</time></trkpt><trkpt lat="35.840157670643556" lon="10.62753477525206"><ele>13.5</ele><time>2026-04-05T07:24:16Z</time></trkpt><trkpt lat="35.84016382626626" lon="10.627641908949558"><ele>12.666666666666666</ele><time>2026-04-05T07:24:17Z</time></trkpt><trkpt lat="35.8401720536042" lon="10.627747317661463"><ele>11.833333333333332</ele><time>2026-04-05T07:24:18Z</time></trkpt><trkpt lat="35.84017780302964" lon="10.62784526791841"><ele>11.0</ele><time>2026-04-05T07:24:19Z</time></trkpt><trkpt lat="35.84018392143286" lon="10.627933478810476"><ele>11.0</ele><time>2026-04-05T07:24:20Z</time></trkpt><trkpt lat="35.84018880090577" lon="10.628025407218837"><ele>11.0</ele><time>2026-04-05T07:24:21Z</time></trkpt><trkpt lat="35.840197801515636" lon="10.628119202940402"><ele>11.0</ele><time>2026-04-05T07:24:22Z</time></trkpt><trkpt lat="35.84020096988792" lon="10.628203582836788"><ele>11.0</ele><time>2026-04-05T07:24:23Z</time></trkpt><trkpt lat="35.84021099411018" lon="10.628290319231004"><ele>11.0</ele><time>2026-04-05T07:24:24Z</time></trkpt><trkpt lat="35.84021811560476" lon="10.62837559457341"><ele>11.0</ele><time>2026-04-05T07:24:25Z</time></trkpt><trkpt lat="35.8402219273763" lon="10.628453413413828"><ele>11.0</ele><time>2026-04-05T07:24:26Z</time></trkpt><trkpt lat="35.8402256594936" lon="10.628608316813702"><ele>13.200000000000001</ele><time>2026-04-05T07:24:28Z</time></trkpt><trkpt lat="35.8402300975098" lon="10.62875961082289"><ele>15.400000000000002</ele><time>2026-04-05T07:24:30Z</time></trkpt><trkpt lat="35.84023501166336" lon="10.628909306839262"><ele>17.6</ele><time>2026-04-05T07:24:32Z</time></trkpt><trkpt lat="35.84023017934778" lon="10.629066164481994"><ele>19.8</ele><time>2026-04-05T07:24:34Z</time></trkpt><trkpt lat="35.840211536864416" lon="10.629154093514488"><ele>22.0</ele><time>2026-04-05T07:24:35Z</time></trkpt><trkpt lat="35.840183645334015" lon="10.629246273771031"><ele>22.0</ele><time>2026-04-05T07:24:36Z</time></trkpt><trkpt lat="35.840140343246645" lon="10.629331067687636"><ele>22.0</ele><time>2026-04-05T07:24:37Z</time></trkpt><trkpt lat="35.840088485540676" lon="10.62941602581114"><ele>22.0</ele><time>2026-04-05T07:24:38Z</time></trkpt><trkpt lat="35.840026791164426" lon="10.62948672178336"><ele>22.0</ele><time>2026-04-05T07:24:39Z</time></trkpt><trkpt lat="35.83996273059095" lon="10.629558662919298"><ele>22.0</ele><time>2026-04-05T07:24:40Z</time></trkpt><trkpt lat="35.83990624711674" lon="10.629636243114868"><ele>22.0</ele><time>2026-04-05T07:24:41Z</time></trkpt><trkpt lat="35.839851942971855" lon="10.629713051703328"><ele>20.200000000000003</ele><time>2026-04-05T07:24:42Z</time></trkpt><trkpt lat="35.83979414846495" lon="10.62979085803058"><ele>18.400000000000002</ele><time>2026-04-05T07:24:43Z</time></trkpt><trkpt lat="35.83973594219121" lon="10.629864876456255"><ele>16.6</ele><time>2026-04-05T07:24:44Z</time></trkpt><trkpt lat="35.839675891677665" lon="10.629950053336044"><ele>14.8</ele><time>2026-04-05T07:24:45Z</time></trkpt><trkpt lat="35.83962243195992" lon="10.630042606399241"><ele>13.0</ele><time>2026-04-05T07:24:46Z</time></trkpt><trkpt lat="35.83957081960433" lon="10.63015556910945"><ele>13.0</ele><time>2026-04-05T07:24:47Z</time></trkpt><trkpt lat="35.83952004783381" lon="10.630285785460512"><ele>13.0</ele><time>2026-04-05T07:24:48Z</time></trkpt><trkpt lat="35.83946406754557" lon="10.630418871008098"><ele>13.0</ele><time>2026-04-05T07:24:49Z</time></trkpt><trkpt lat="35.83942254956013" lon="10.630582565600855"><ele>13.0</ele><time>2026-04-05T07:24:50Z</time></trkpt><trkpt lat="35.839386731389304" lon="10.630740874297194"><ele>12.600000000000001</ele><time>2026-04-05T07:24:51Z</time></trkpt><trkpt lat="35.839344892666006" lon="10.630871875254666"><ele>12.200000000000001</ele><time>2026-04-05T07:24:52Z</time></trkpt><trkpt lat="35.839302036383195" lon="10.630984644002343"><ele>11.8</ele><time>2026-04-05T07:24:53Z</time></trkpt><trkpt lat="35.83926200303732" lon="10.631087350750796"><ele>11.4</ele><time>2026-04-05T07:24:54Z</time></trkpt><trkpt lat="35.83922650555933" lon="10.631188472209374"><ele>11.0</ele><time>2026-04-05T07:24:55Z</time></trkpt><trkpt lat="35.83918512297563" lon="10.631289777579312"><ele>10.8</ele><time>2026-04-05T07:24:56Z</time></trkpt><trkpt lat="35.839138892728265" lon="10.631392409613161"><ele>10.600000000000001</ele><time>2026-04-05T07:24:57Z</time></trkpt><trkpt lat="35.839088995191375" lon="10.631492734435666"><ele>10.4</ele><time>2026-04-05T07:24:58Z</time></trkpt><trkpt lat="35.839039422691044" lon="10.631595991232539"><ele>10.2</ele><time>2026-04-05T07:24:59Z</time></trkpt><trkpt lat="35.838984313087586" lon="10.631698139951425"><ele>10.0</ele><time>2026-04-05T07:25:00Z</time></trkpt><trkpt lat="35.83892805290437" lon="10.631804547078255"><ele>10.0</ele><time>2026-04-05T07:25:01Z</time></trkpt><trkpt lat="35.838867597688385" lon="10.631911511556625"><ele>10.0</ele><time>2026-04-05T07:25:02Z</time></trkpt><trkpt lat="35.838805095813576" lon="10.632017549398274"><ele>10.0</ele><time>2026-04-05T07:25:03Z</time></trkpt><trkpt lat="35.83873700197086" lon="10.63212036125578"><ele>10.0</ele><time>2026-04-05T07:25:04Z</time></trkpt><trkpt lat="35.83867435588203" lon="10.63222572328972"><ele>10.0</ele><time>2026-04-05T07:25:05Z</time></trkpt><trkpt lat="35.83861956358111" lon="10.632317093890602"><ele>9.833333333333334</ele><time>2026-04-05T07:25:06Z</time></trkpt><trkpt lat="35.83856853882406" lon="10.632399829911618"><ele>9.666666666666668</ele><time>2026-04-05T07:25:07Z</time></trkpt><trkpt lat="35.83851556855741" lon="10.632486048414647"><ele>9.5</ele><time>2026-04-05T07:25:08Z</time></trkpt><trkpt lat="35.838456717079374" lon="10.632572171480847"><ele>9.333333333333334</ele><time>2026-04-05T07:25:09Z</time></trkpt><trkpt lat="35.83840090100126" lon="10.63266489922878"><ele>9.166666666666666</ele><time>2026-04-05T07:25:10Z</time></trkpt><trkpt lat="35.83834621431678" lon="10.632750058461548"><ele>9.0</ele><time>2026-04-05T07:25:11Z</time></trkpt><trkpt lat="35.83829321158745" lon="10.632838363136468"><ele>10.333333333333334</ele><time>2026-04-05T07:25:12Z</time></trkpt><trkpt lat="35.83823794005398" lon="10.632927631123854"><ele>11.666666666666668</ele><time>2026-04-05T07:25:13Z</time></trkpt><trkpt lat="35.83817899144919" lon="10.633014377487331"><ele>13.0</ele><time>2026-04-05T07:25:14Z</time></trkpt><trkpt lat="35.83812774432295" lon="10.633093076807231"><ele>14.333333333333334</ele><time>2026-04-05T07:25:15Z</time></trkpt><trkpt lat="35.83807710616349" lon="10.633167037280629"><ele>15.666666666666668</ele><time>2026-04-05T07:25:16Z</time></trkpt><trkpt lat="35.838023424287435" lon="10.63324977461074"><ele>17.0</ele><time>2026-04-05T07:25:17Z</time></trkpt><trkpt lat="35.837967110031165" lon="10.633340504513209"><ele>17.0</ele><time>2026-04-05T07:25:18Z</time></trkpt><trkpt lat="35.83791528862179" lon="10.63342723051348"><ele>17.0</ele><time>2026-04-05T07:25:19Z</time></trkpt><trkpt lat="35.837866979576" lon="10.6335050483892"><ele>17.0</ele><time>2026-04-05T07:25:20Z</time></trkpt><trkpt lat="35.83781758127455" lon="10.633582771433222"><ele>17.0</ele><time>2026-04-05T07:25:21Z</time></trkpt><trkpt lat="35.83776000220036" lon="10.633666965693989"><ele>17.0</ele><time>2026-04-05T07:25:22Z</time></trkpt><trkpt lat="35.83770410356283" lon="10.633748636155081"><ele>17.0</ele><time>2026-04-05T07:25:23Z</time></trkpt><trkpt lat="35.83764837786698" lon="10.633828022738916"><ele>15.833333333333334</ele><time>2026-04-05T07:25:24Z</time></trkpt><trkpt lat="35.837591847488476" lon="10.633905502695988"><ele>14.666666666666668</ele><time>2026-04-05T07:25:25Z</time></trkpt><trkpt lat="35.837534528862044" lon="10.63398481231867"><ele>13.5</ele><time>2026-04-05T07:25:26Z</time></trkpt><trkpt lat="35.837472213266466" lon="10.634060848566492"><ele>12.333333333333334</ele><time>2026-04-05T07:25:27Z</time></trkpt><trkpt lat="35.83741217829047" lon="10.634141557664288"><ele>11.166666666666668</ele><time>2026-04-05T07:25:28Z</time></trkpt><trkpt lat="35.8373487809736" lon="10.634219149002467"><ele>10.0</ele><time>2026-04-05T07:25:29Z</time></trkpt><trkpt lat="35.83728312420328" lon="10.634294149201036"><ele>10.0</ele><time>2026-04-05T07:25:30Z</time></trkpt><trkpt lat="35.83722123061479" lon="10.634363502228737"><ele>10.0</ele><time>2026-04-05T07:25:31Z</time></trkpt><trkpt lat="35.83716116970366" lon="10.63443266236628"><ele>10.0</ele><time>2026-04-05T07:25:32Z</time></trkpt><trkpt lat="35.83710076762394" lon="10.634499366289267"><ele>10.0</ele><time>2026-04-05T07:25:33Z</time></trkpt><trkpt lat="35.83704663072162" lon="10.634560581187884"><ele>10.0</ele><time>2026-04-05T07:25:34Z</time></trkpt><trkpt lat="35.83699195549677" lon="10.634621162160645"><ele>10.0</ele><time>2026-04-05T07:25:35Z</time></trkpt><trkpt lat="35.83693334642525" lon="10.634682049939913"><ele>10.0</ele><time>2026-04-05T07:25:36Z</time></trkpt><trkpt lat="35.83686916106226" lon="10.63474648947264"><ele>10.0</ele><time>2026-04-05T07:25:37Z</time></trkpt><trkpt lat="35.83680402898774" lon="10.634813124124165"><ele>10.0</ele><time>2026-04-05T07:25:38Z</time></trkpt><trkpt lat="35.83674249745049" lon="10.634883314131422"><ele>10.0</ele><time>2026-04-05T07:25:39Z</time></trkpt><trkpt lat="35.83668074897949" lon="10.634953069449127"><ele>10.0</ele><time>2026-04-05T07:25:40Z</time></trkpt><trkpt lat="35.83661978696313" lon="10.635023825321541"><ele>10.0</ele><time>2026-04-05T07:25:41Z</time></trkpt><trkpt lat="35.83655606013723" lon="10.635090574563067"><ele>10.0</ele><time>2026-04-05T07:25:42Z</time></trkpt><trkpt lat="35.83649021151066" lon="10.635153974873777"><ele>10.0</ele><time>2026-04-05T07:25:43Z</time></trkpt><trkpt lat="35.83642646565242" lon="10.635215058072662"><ele>10.0</ele><time>2026-04-05T07:25:44Z</time></trkpt><trkpt lat="35.836363278528665" lon="10.635281226767969"><ele>10.0</ele><time>2026-04-05T07:25:45Z</time></trkpt><trkpt lat="35.8363034663426" lon="10.635347776077078"><ele>10.0</ele><time>2026-04-05T07:25:46Z</time></trkpt><trkpt lat="35.83624554320907" lon="10.635407745781636"><ele>10.0</ele><time>2026-04-05T07:25:47Z</time></trkpt><trkpt lat="35.836185101337634" lon="10.635474907160793"><ele>10.166666666666668</ele><time>2026-04-05T07:25:48Z</time></trkpt><trkpt lat="35.836124525018924" lon="10.635539901427673"><ele>10.333333333333334</ele><time>2026-04-05T07:25:49Z</time></trkpt><trkpt lat="35.836062094595526" lon="10.635610290405848"><ele>10.5</ele><time>2026-04-05T07:25:50Z</time></trkpt><trkpt lat="35.83600493438141" lon="10.635675250017599"><ele>10.666666666666666</ele><time>2026-04-05T07:25:51Z</time></trkpt><trkpt lat="35.835953764129606" lon="10.63573326981354"><ele>10.833333333333332</ele><time>2026-04-05T07:25:52Z</time></trkpt><trkpt lat="35.83590467381751" lon="10.635790335424023"><ele>11.0</ele><time>2026-04-05T07:25:53Z</time></trkpt><trkpt lat="35.83584974175343" lon="10.6358476518681"><ele>11.0</ele><time>2026-04-05T07:25:54Z</time></trkpt><trkpt lat="35.83579696894597" lon="10.63590835014007"><ele>11.0</ele><time>2026-04-05T07:25:55Z</time></trkpt><trkpt lat="35.83574260936035" lon="10.635975492533664"><ele>11.0</ele><time>2026-04-05T07:25:56Z</time></trkpt><trkpt lat="35.83568835361281" lon="10.636048348611743"><ele>11.0</ele><time>2026-04-05T07:25:57Z</time></trkpt><trkpt lat="35.83563511691022" lon="10.63611988227497"><ele>11.0</ele><time>2026-04-05T07:25:58Z</time></trkpt><trkpt lat="35.83558368936079" lon="10.636190340677492"><ele>11.0</ele><time>2026-04-05T07:25:59Z</time></trkpt><trkpt lat="35.83553434050934" lon="10.636261880134319"><ele>11.0</ele><time>2026-04-05T07:26:00Z</time></trkpt><trkpt lat="35.83548549705679" lon="10.63633217093071"><ele>11.0</ele><time>2026-04-05T07:26:01Z</time></trkpt><trkpt lat="35.83543792320148" lon="10.63640750432062"><ele>11.0</ele><time>2026-04-05T07:26:02Z</time></trkpt><trkpt lat="35.83538995540682" lon="10.63647693719746"><ele>11.0</ele><time>2026-04-05T07:26:03Z</time></trkpt><trkpt lat="35.83534591620188" lon="10.63654678176808"><ele>11.0</ele><time>2026-04-05T07:26:04Z</time></trkpt><trkpt lat="35.83530505270111" lon="10.636610805351681"><ele>11.0</ele><time>2026-04-05T07:26:05Z</time></trkpt><trkpt lat="35.835264927635315" lon="10.63667827244709"><ele>11.0</ele><time>2026-04-05T07:26:06Z</time></trkpt><trkpt lat="35.83522143050413" lon="10.636747218107182"><ele>11.0</ele><time>2026-04-05T07:26:07Z</time></trkpt><trkpt lat="35.83518270404827" lon="10.63682274479338"><ele>11.0</ele><time>2026-04-05T07:26:08Z</time></trkpt><trkpt lat="35.83513470650416" lon="10.636886951311826"><ele>11.0</ele><time>2026-04-05T07:26:09Z</time></trkpt><trkpt lat="35.8350953018132" lon="10.636972489343542"><ele>11.0</ele><time>2026-04-05T07:26:10Z</time></trkpt><trkpt lat="35.835053969546735" lon="10.637048502202003"><ele>11.0</ele><time>2026-04-05T07:26:11Z</time></trkpt><trkpt lat="35.835010750454245" lon="10.637124489678408"><ele>11.0</ele><time>2026-04-05T07:26:12Z</time></trkpt><trkpt lat="35.83497215936158" lon="10.637197984934977"><ele>11.0</ele><time>2026-04-05T07:26:13Z</time></trkpt><trkpt lat="35.834923875793564" lon="10.63727916008206"><ele>11.166666666666666</ele><time>2026-04-05T07:26:14Z</time></trkpt><trkpt lat="35.83487339593185" lon="10.637361997632318"><ele>11.333333333333332</ele><time>2026-04-05T07:26:15Z</time></trkpt><trkpt lat="35.83481969775998" lon="10.637452537848679"><ele>11.5</ele><time>2026-04-05T07:26:16Z</time></trkpt><trkpt lat="35.83477036108319" lon="10.637542001928665"><ele>11.666666666666666</ele><time>2026-04-05T07:26:17Z</time></trkpt><trkpt lat="35.83472245444147" lon="10.637636311430951"><ele>11.833333333333334</ele><time>2026-04-05T07:26:18Z</time></trkpt><trkpt lat="35.834674933744395" lon="10.637729908901877"><ele>12.0</ele><time>2026-04-05T07:26:19Z</time></trkpt><trkpt lat="35.834622169768295" lon="10.637826338046517"><ele>11.166666666666666</ele><time>2026-04-05T07:26:20Z</time></trkpt><trkpt lat="35.83457156056207" lon="10.637922061567945"><ele>10.333333333333334</ele><time>2026-04-05T07:26:21Z</time></trkpt><trkpt lat="35.83453136779559" lon="10.638011160896534"><ele>9.5</ele><time>2026-04-05T07:26:22Z</time></trkpt><trkpt lat="35.83448918059372" lon="10.638105483308186"><ele>8.666666666666668</ele><time>2026-04-05T07:26:23Z</time></trkpt><trkpt lat="35.83444634614148" lon="10.638203996934468"><ele>7.833333333333334</ele><time>2026-04-05T07:26:24Z</time></trkpt><trkpt lat="35.83440673433722" lon="10.638292471294482"><ele>7.0</ele><time>2026-04-05T07:26:25Z</time></trkpt><trkpt lat="35.83437794225909" lon="10.638374298804882"><ele>7.0</ele><time>2026-04-05T07:26:26Z</time></trkpt><trkpt lat="35.83434811689528" lon="10.638444839425306"><ele>7.0</ele><time>2026-04-05T07:26:27Z</time></trkpt><trkpt lat="35.834309231977755" lon="10.638509459059774"><ele>7.0</ele><time>2026-04-05T07:26:28Z</time></trkpt><trkpt lat="35.8342731195816" lon="10.638575023485135"><ele>7.0</ele><time>2026-04-05T07:26:29Z</time></trkpt><trkpt lat="35.83424084232136" lon="10.63865024572688"><ele>7.0</ele><time>2026-04-05T07:26:30Z</time></trkpt><trkpt lat="35.83420768218366" lon="10.638726099999209"><ele>7.0</ele><time>2026-04-05T07:26:31Z</time></trkpt><trkpt lat="35.834179818908986" lon="10.638796190312403"><ele>7.0</ele><time>2026-04-05T07:26:32Z</time></trkpt><trkpt lat="35.834126043703186" lon="10.638925159182387"><ele>7.0</ele><time>2026-04-05T07:26:34Z</time></trkpt><trkpt lat="35.83406608901209" lon="10.639045357819592"><ele>6.999999999999999</ele><time>2026-04-05T07:26:36Z</time></trkpt><trkpt lat="35.834010024534784" lon="10.63915771657477"><ele>6.999999999999999</ele><time>2026-04-05T07:26:38Z</time></trkpt><trkpt lat="35.83394943699703" lon="10.639262063204077"><ele>7.0</ele><time>2026-04-05T07:26:40Z</time></trkpt><trkpt lat="35.833886097459114" lon="10.639379366736488"><ele>7.0</ele><time>2026-04-05T07:26:42Z</time></trkpt><trkpt lat="35.8338238270483" lon="10.639486221883669"><ele>7.000000000000001</ele><time>2026-04-05T07:26:44Z</time></trkpt><trkpt lat="35.83374095640564" lon="10.639587788864883"><ele>7.0</ele><time>2026-04-05T07:26:46Z</time></trkpt><trkpt lat="35.833635741645416" lon="10.63967007047299"><ele>7.0</ele><time>2026-04-05T07:26:48Z</time></trkpt><trkpt lat="35.833568551198816" lon="10.639688730481614"><ele>7.0</ele><time>2026-04-05T07:26:49Z</time></trkpt><trkpt lat="35.8334979724445" lon="10.639702277665338"><ele>7.000000000000001</ele><time>2026-04-05T07:26:50Z</time></trkpt><trkpt lat="35.83343376505789" lon="10.639703389269224"><ele>7.0</ele><time>2026-04-05T07:26:51Z</time></trkpt><trkpt lat="35.833364092630504" lon="10.639718293082074"><ele>7.0</ele><time>2026-04-05T07:26:52Z</time></trkpt><trkpt lat="35.83329486448292" lon="10.639721606133355"><ele>7.0</ele><time>2026-04-05T07:26:53Z</time></trkpt><trkpt lat="35.83321857035548" lon="10.639728965732587"><ele>7.0</ele><time>2026-04-05T07:26:54Z</time></trkpt><trkpt lat="35.83315354195349" lon="10.639736373103448"><ele>7.0</ele><time>2026-04-05T07:26:55Z</time></trkpt><trkpt lat="35.833089478840805" lon="10.639743342376935"><ele>7.0</ele><time>2026-04-05T07:26:56Z</time></trkpt><trkpt lat="35.83302230350758" lon="10.639749423094427"><ele>7.0</ele><time>2026-04-05T07:26:57Z</time></trkpt><trkpt lat="35.83295788106162" lon="10.639741543507503"><ele>7.0</ele><time>2026-04-05T07:26:58Z</time></trkpt><trkpt lat="35.832836644943974" lon="10.639702039207288"><ele>7.000000000000001</ele><time>2026-04-05T07:27:00Z</time></trkpt><trkpt lat="35.83277740222142" lon="10.639668977823565"><ele>7.0</ele><time>2026-04-05T07:27:01Z</time></trkpt><trkpt lat="35.832713418374944" lon="10.63963444793601"><ele>7.0</ele><time>2026-04-05T07:27:02Z</time></trkpt><trkpt lat="35.83265373148771" lon="10.639604319951452"><ele>7.0</ele><time>2026-04-05T07:27:03Z</time></trkpt><trkpt lat="35.83259195696993" lon="10.63957424351761"><ele>7.000000000000001</ele><time>2026-04-05T07:27:04Z</time></trkpt><trkpt lat="35.83246434679274" lon="10.639530541469194"><ele>7.0</ele><time>2026-04-05T07:27:06Z</time></trkpt><trkpt lat="35.83239299951432" lon="10.639516297033628"><ele>7.000000000000001</ele><time>2026-04-05T07:27:07Z</time></trkpt><trkpt lat="35.83231019938332" lon="10.639515440921421"><ele>7.0</ele><time>2026-04-05T07:27:08Z</time></trkpt><trkpt lat="35.83222497653821" lon="10.639519505246172"><ele>7.0</ele><time>2026-04-05T07:27:09Z</time></trkpt><trkpt lat="35.832137919121564" lon="10.63952240096089"><ele>7.0</ele><time>2026-04-05T07:27:10Z</time></trkpt><trkpt lat="35.83204997134317" lon="10.639524297498898"><ele>7.000000000000001</ele><time>2026-04-05T07:27:11Z</time></trkpt><trkpt lat="35.83195920886882" lon="10.63952466995216"><ele>7.0</ele><time>2026-04-05T07:27:12Z</time></trkpt><trkpt lat="35.83187003686018" lon="10.6395295757497"><ele>7.500000000000001</ele><time>2026-04-05T07:27:13Z</time></trkpt><trkpt lat="35.83178222033685" lon="10.63952819080371"><ele>8.0</ele><time>2026-04-05T07:27:14Z</time></trkpt><trkpt lat="35.83170644146849" lon="10.639530640733039"><ele>8.5</ele><time>2026-04-05T07:27:15Z</time></trkpt><trkpt lat="35.83163270012334" lon="10.639533858780107"><ele>9.0</ele><time>2026-04-05T07:27:16Z</time></trkpt><trkpt lat="35.83155662045651" lon="10.639533238139808"><ele>9.5</ele><time>2026-04-05T07:27:17Z</time></trkpt><trkpt lat="35.83147464109353" lon="10.639535024562546"><ele>10.0</ele><time>2026-04-05T07:27:18Z</time></trkpt><trkpt lat="35.83139205392273" lon="10.639529612075036"><ele>10.0</ele><time>2026-04-05T07:27:19Z</time></trkpt><trkpt lat="35.831310499677784" lon="10.639535478546694"><ele>10.0</ele><time>2026-04-05T07:27:20Z</time></trkpt><trkpt lat="35.831231616724814" lon="10.639538700737823"><ele>10.0</ele><time>2026-04-05T07:27:21Z</time></trkpt><trkpt lat="35.83115021041673" lon="10.639541144438885"><ele>10.0</ele><time>2026-04-05T07:27:22Z</time></trkpt><trkpt lat="35.83107061504073" lon="10.639541067259644"><ele>10.0</ele><time>2026-04-05T07:27:23Z</time></trkpt><trkpt lat="35.83099542499044" lon="10.639540565057645"><ele>10.0</ele><time>2026-04-05T07:27:24Z</time></trkpt><trkpt lat="35.83092178448263" lon="10.639543105210285"><ele>10.666666666666668</ele><time>2026-04-05T07:27:25Z</time></trkpt><trkpt lat="35.83083928980162" lon="10.639541947592237"><ele>11.333333333333334</ele><time>2026-04-05T07:27:26Z</time></trkpt><trkpt lat="35.83076823398202" lon="10.639539133394626"><ele>12.0</ele><time>2026-04-05T07:27:27Z</time></trkpt><trkpt lat="35.83069125688764" lon="10.639541023244341"><ele>12.666666666666668</ele><time>2026-04-05T07:27:28Z</time></trkpt><trkpt lat="35.83062189944012" lon="10.63954292980814"><ele>13.333333333333334</ele><time>2026-04-05T07:27:29Z</time></trkpt><trkpt lat="35.83055624799615" lon="10.639543526996269"><ele>14.0</ele><time>2026-04-05T07:27:30Z</time></trkpt><trkpt lat="35.8304392292004" lon="10.639542350199266"><ele>14.000000000000002</ele><time>2026-04-05T07:27:32Z</time></trkpt><trkpt lat="35.830357007384094" lon="10.639536839605636"><ele>14.0</ele><time>2026-04-05T07:27:34Z</time></trkpt><trkpt lat="35.83028996122557" lon="10.639544714595235"><ele>14.0</ele><time>2026-04-05T07:27:36Z</time></trkpt><trkpt lat="35.830218546344504" lon="10.639543818517037"><ele>14.0</ele><time>2026-04-05T07:27:38Z</time></trkpt><trkpt lat="35.83014570173495" lon="10.639563089083213"><ele>14.000000000000002</ele><time>2026-04-05T07:27:40Z</time></trkpt><trkpt lat="35.83007517743562" lon="10.639674054274826"><ele>14.0</ele><time>2026-04-05T07:27:42Z</time></trkpt><trkpt lat="35.830023893752525" lon="10.6397235133474"><ele>13.2</ele><time>2026-04-05T07:27:43Z</time></trkpt><trkpt lat="35.82993021663254" lon="10.639827837751834"><ele>12.399999999999999</ele><time>2026-04-05T07:27:45Z</time></trkpt><trkpt lat="35.8298809637427" lon="10.6398823984905"><ele>11.6</ele><time>2026-04-05T07:27:46Z</time></trkpt><trkpt lat="35.829835997686196" lon="10.639939763255118"><ele>10.8</ele><time>2026-04-05T07:27:47Z</time></trkpt><trkpt lat="35.82975370713681" lon="10.640043397787185"><ele>10.0</ele><time>2026-04-05T07:27:49Z</time></trkpt><trkpt lat="35.82967561871547" lon="10.640124949424285"><ele>10.0</ele><time>2026-04-05T07:27:51Z</time></trkpt><trkpt lat="35.82961409009162" lon="10.640194479151875"><ele>10.0</ele><time>2026-04-05T07:27:53Z</time></trkpt><trkpt lat="35.82955910918849" lon="10.640257574446462"><ele>10.0</ele><time>2026-04-05T07:27:54.999Z</time></trkpt><trkpt lat="35.82950634616409" lon="10.640322848992117"><ele>10.0</ele><time>2026-04-05T07:27:56.999Z</time></trkpt><trkpt lat="35.829449964886535" lon="10.640369940819683"><ele>10.0</ele><time>2026-04-05T07:28:24Z</time></trkpt><trkpt lat="35.829392611275544" lon="10.64041521878548"><ele>10.0</ele><time>2026-04-05T07:28:27Z</time></trkpt><trkpt lat="35.82931971175501" lon="10.640416495118176"><ele>10.0</ele><time>2026-04-05T07:28:57Z</time></trkpt><trkpt lat="35.829257687134195" lon="10.640444366396052"><ele>9.666666666666668</ele><time>2026-04-05T07:32:31Z</time></trkpt><trkpt lat="35.82919023766652" lon="10.640458835288358"><ele>9.333333333333334</ele><time>2026-04-05T07:32:36Z</time></trkpt><trkpt lat="35.829121197839335" lon="10.640473433322134"><ele>9.0</ele><time>2026-04-05T07:32:50Z</time></trkpt><trkpt lat="35.829048027505685" lon="10.64048521651753"><ele>8.666666666666666</ele><time>2026-04-05T07:32:52Z</time></trkpt><trkpt lat="35.82896938469324" lon="10.64043510327872"><ele>8.333333333333332</ele><time>2026-04-05T07:32:54Z</time></trkpt><trkpt lat="35.828915580195066" lon="10.640365932288452"><ele>8.0</ele><time>2026-04-05T07:32:57Z</time></trkpt><trkpt lat="35.82885421142884" lon="10.640308346064078"><ele>7.857142857142857</ele><time>2026-04-05T07:33:00Z</time></trkpt><trkpt lat="35.828779466300745" lon="10.640267413596792"><ele>7.7142857142857135</ele><time>2026-04-05T07:33:03Z</time></trkpt><trkpt lat="35.82871534306615" lon="10.640225657327623"><ele>7.571428571428571</ele><time>2026-04-05T07:33:07Z</time></trkpt><trkpt lat="35.82864012266193" lon="10.640188131592287"><ele>7.428571428571429</ele><time>2026-04-05T07:33:17Z</time></trkpt><trkpt lat="35.82857740616517" lon="10.640127156305597"><ele>7.285714285714286</ele><time>2026-04-05T07:33:20Z</time></trkpt><trkpt lat="35.82853531664548" lon="10.640069130230682"><ele>7.142857142857142</ele><time>2026-04-05T07:33:23Z</time></trkpt><trkpt lat="35.82847442627626" lon="10.640039404215253"><ele>7.0</ele><time>2026-04-05T07:33:26Z</time></trkpt><trkpt lat="35.82841010684751" lon="10.640037858000804"><ele>6.833333333333334</ele><time>2026-04-05T07:33:29Z</time></trkpt><trkpt lat="35.82835934637764" lon="10.640100813900972"><ele>6.666666666666667</ele><time>2026-04-05T07:33:32Z</time></trkpt><trkpt lat="35.82835138271927" lon="10.64019937485698"><ele>6.5</ele><time>2026-04-05T07:33:35.999Z</time></trkpt><trkpt lat="35.828337469530844" lon="10.640288968779748"><ele>6.333333333333334</ele><time>2026-04-05T07:33:39.999Z</time></trkpt><trkpt lat="35.82829772545159" lon="10.640373553283403"><ele>6.166666666666667</ele><time>2026-04-05T07:33:42.999Z</time></trkpt><trkpt lat="35.82824675828849" lon="10.640455519193157"><ele>6.0</ele><time>2026-04-05T07:33:45.999Z</time></trkpt><trkpt lat="35.82820100098184" lon="10.640542727186734"><ele>6.0</ele><time>2026-04-05T07:33:48.999Z</time></trkpt><trkpt lat="35.82814664335718" lon="10.64060166484779"><ele>6.0</ele><time>2026-04-05T07:33:50.999Z</time></trkpt><trkpt lat="35.828091768890225" lon="10.640643015148665"><ele>6.0</ele><time>2026-04-05T07:33:52.999Z</time></trkpt><trkpt lat="35.82802006201656" lon="10.640680233594015"><ele>6.0</ele><time>2026-04-05T07:33:55.999Z</time></trkpt><trkpt lat="35.82794307254731" lon="10.640709334385306"><ele>6.0</ele><time>2026-04-05T07:33:58.999Z</time></trkpt><trkpt lat="35.827868896595625" lon="10.64074410727147"><ele>6.0</ele><time>2026-04-05T07:34:01.999Z</time></trkpt><trkpt lat="35.827794976064" lon="10.640775151018392"><ele>5.999999999999999</ele><time>2026-04-05T07:34:04.999Z</time></trkpt><trkpt lat="35.82772730561372" lon="10.640812780143985"><ele>6.0</ele><time>2026-04-05T07:34:08.999Z</time></trkpt><trkpt lat="35.82767369386748" lon="10.640860132988946"><ele>6.0</ele><time>2026-04-05T07:34:12.999Z</time></trkpt><trkpt lat="35.827613646952265" lon="10.640908325313795"><ele>6.0</ele><time>2026-04-05T07:34:20.999Z</time></trkpt><trkpt lat="35.82754381529183" lon="10.640889907624334"><ele>6.0</ele><time>2026-04-05T07:36:37Z</time></trkpt><trkpt lat="35.82760361410855" lon="10.640917762723847"><ele>5.999999999999999</ele><time>2026-04-05T07:37:10Z</time></trkpt><trkpt lat="35.82766001220199" lon="10.640882414047137"><ele>6.0</ele><time>2026-04-05T07:37:16.999Z</time></trkpt><trkpt lat="35.82765555210238" lon="10.640801933143962"><ele>6.142857142857142</ele><time>2026-04-05T07:47:06.999Z</time></trkpt><trkpt lat="35.82761322784368" lon="10.640741974668025"><ele>6.285714285714286</ele><time>2026-04-05T07:47:18.999Z</time></trkpt><trkpt lat="35.8275650590858" lon="10.640680910896725"><ele>6.428571428571429</ele><time>2026-04-05T07:47:31.999Z</time></trkpt><trkpt lat="35.82753358893298" lon="10.640612259864644"><ele>6.571428571428571</ele><time>2026-04-05T07:47:43.999Z</time></trkpt><trkpt lat="35.82750529987345" lon="10.640523819218783"><ele>6.714285714285714</ele><time>2026-04-05T07:47:53.999Z</time></trkpt><trkpt lat="35.82746763821705" lon="10.640455318508124"><ele>6.857142857142857</ele><time>2026-04-05T07:48:00.999Z</time></trkpt><trkpt lat="35.82743074067154" lon="10.64038771851022"><ele>7.0</ele><time>2026-04-05T07:48:07.999Z</time></trkpt><trkpt lat="35.827380338538696" lon="10.640328051200315"><ele>7.428571428571429</ele><time>2026-04-05T07:48:16.999Z</time></trkpt><trkpt lat="35.82733261701975" lon="10.640265463308326"><ele>7.857142857142858</ele><time>2026-04-05T07:48:36.999Z</time></trkpt><trkpt lat="35.82728115007288" lon="10.640206928817852"><ele>8.285714285714285</ele><time>2026-04-05T07:48:54.999Z</time></trkpt><trkpt lat="35.827244078707984" lon="10.640139217302155"><ele>8.714285714285715</ele><time>2026-04-05T07:49:11Z</time></trkpt><trkpt lat="35.82721060025713" lon="10.640067762489004"><ele>9.142857142857142</ele><time>2026-04-05T07:49:43Z</time></trkpt><trkpt lat="35.82722704110076" lon="10.639986923560125"><ele>9.571428571428571</ele><time>2026-04-05T07:49:53Z</time></trkpt><trkpt lat="35.827231230781024" lon="10.63990809019878"><ele>10.0</ele><time>2026-04-05T07:50:16Z</time></trkpt><trkpt lat="35.827208784016044" lon="10.639830902745375"><ele>10.0</ele><time>2026-04-05T07:50:24Z</time></trkpt><trkpt lat="35.827176421763895" lon="10.639764232978868"><ele>10.0</ele><time>2026-04-05T07:50:32Z</time></trkpt><trkpt lat="35.827147012181214" lon="10.639681261317945"><ele>10.0</ele><time>2026-04-05T07:50:40Z</time></trkpt><trkpt lat="35.82715375862209" lon="10.639591120734964"><ele>10.0</ele><time>2026-04-05T07:51:02.999Z</time></trkpt><trkpt lat="35.82711793999014" lon="10.639513566622535"><ele>10.0</ele><time>2026-04-05T07:51:10.999Z</time></trkpt><trkpt lat="35.82709128100607" lon="10.639436790571175"><ele>10.0</ele><time>2026-04-05T07:51:19.999Z</time></trkpt><trkpt lat="35.827071509581316" lon="10.63935725637825"><ele>10.0</ele><time>2026-04-05T07:51:26.999Z</time></trkpt><trkpt lat="35.8270141734476" lon="10.639283727122626"><ele>10.166666666666668</ele><time>2026-04-05T07:52:28.999Z</time></trkpt><trkpt lat="35.82697998720687" lon="10.639215227674022"><ele>10.333333333333334</ele><time>2026-04-05T07:52:47.999Z</time></trkpt><trkpt lat="35.82694292581076" lon="10.639097456494971"><ele>10.5</ele><time>2026-04-05T07:53:35Z</time></trkpt><trkpt lat="35.82689259196428" lon="10.638976765702742"><ele>10.666666666666666</ele><time>2026-04-05T07:53:54Z</time></trkpt><trkpt lat="35.82687769690245" lon="10.63888765666722"><ele>10.833333333333332</ele><time>2026-04-05T07:54:04Z</time></trkpt><trkpt lat="35.826859535441535" lon="10.638811431475023"><ele>11.0</ele><time>2026-04-05T07:54:11Z</time></trkpt><trkpt lat="35.82683231387974" lon="10.638739962060178"><ele>11.4</ele><time>2026-04-05T07:54:22Z</time></trkpt><trkpt lat="35.82678219832133" lon="10.638793745295189"><ele>11.8</ele><time>2026-04-05T07:54:36Z</time></trkpt><trkpt lat="35.826763783659395" lon="10.6386885659177"><ele>12.200000000000001</ele><time>2026-04-05T07:54:47Z</time></trkpt><trkpt lat="35.82669889597081" lon="10.638680928993532"><ele>12.600000000000001</ele><time>2026-04-05T07:54:54Z</time></trkpt><trkpt lat="35.82652886927624" lon="10.638602600019448"><ele>13.0</ele><time>2026-04-05T07:54:56Z</time></trkpt><trkpt lat="35.826456013580014" lon="10.6385606680755"><ele>14.333333333333332</ele><time>2026-04-05T07:54:58Z</time></trkpt><trkpt lat="35.826355195561405" lon="10.638524261388092"><ele>15.666666666666668</ele><time>2026-04-05T07:55:00Z</time></trkpt><trkpt lat="35.826283011767394" lon="10.638506423154507"><ele>17.0</ele><time>2026-04-05T07:55:02Z</time></trkpt><trkpt lat="35.82661936304254" lon="10.638307039992851"><ele>15.0</ele><time>2026-04-05T07:55:03Z</time></trkpt><trkpt lat="35.826802606600594" lon="10.638704207900947"><ele>13.0</ele><time>2026-04-05T07:55:19.47Z</time></trkpt><trkpt lat="35.82689726563504" lon="10.638812446148913"><ele>13.0</ele><time>2026-04-05T07:55:31.451Z</time></trkpt><trkpt lat="35.82672185199215" lon="10.6387940425878"><ele>13.0</ele><time>2026-04-05T07:55:39.083Z</time></trkpt><trkpt lat="35.82670267744534" lon="10.638640281859574"><ele>13.0</ele><time>2026-04-05T07:55:55.015Z</time></trkpt><trkpt lat="35.82665049725949" lon="10.638533301628941"><ele>13.0</ele><time>2026-04-05T07:55:57.017Z</time></trkpt><trkpt lat="35.82660687934707" lon="10.638447211528739"><ele>13.0</ele><time>2026-04-05T07:56:00.015Z</time></trkpt><trkpt lat="35.826574258253" lon="10.638334709510909"><ele>13.0</ele><time>2026-04-05T07:56:02Z</time></trkpt><trkpt lat="35.826567023371396" lon="10.638482501532318"><ele>13.0</ele><time>2026-04-05T07:56:04Z</time></trkpt><trkpt lat="35.82657491154389" lon="10.638628990993853"><ele>13.0</ele><time>2026-04-05T07:56:05Z</time></trkpt><trkpt lat="35.82660040586828" lon="10.638737073804464"><ele>13.0</ele><time>2026-04-05T07:56:07Z</time></trkpt><trkpt lat="35.8265487377565" lon="10.638817829318851"><ele>13.0</ele><time>2026-04-05T07:56:12Z</time></trkpt><trkpt lat="35.82647604774183" lon="10.63882321679418"><ele>13.0</ele><time>2026-04-05T07:56:21Z</time></trkpt><trkpt lat="35.82640961858012" lon="10.638798948606563"><ele>13.0</ele><time>2026-04-05T07:56:30Z</time></trkpt><trkpt lat="35.82634391368605" lon="10.638839532018405"><ele>13.0</ele><time>2026-04-05T07:56:38Z</time></trkpt><trkpt lat="35.82630648109062" lon="10.638772015453934"><ele>13.0</ele><time>2026-04-05T07:56:44Z</time></trkpt><trkpt lat="35.82623961191121" lon="10.638772668370086"><ele>13.0</ele><time>2026-04-05T07:56:51Z</time></trkpt><trkpt lat="35.82617599042771" lon="10.638770921072751"><ele>13.0</ele><time>2026-04-05T07:56:58Z</time></trkpt><trkpt lat="35.82611136522838" lon="10.638791628096605"><ele>13.0</ele><time>2026-04-05T07:57:06Z</time></trkpt><trkpt lat="35.82602997154812" lon="10.638763366456695"><ele>13.0</ele><time>2026-04-05T07:57:56Z</time></trkpt><trkpt lat="35.82596556344534" lon="10.63877274640412"><ele>13.0</ele><time>2026-04-05T07:58:01Z</time></trkpt><trkpt lat="35.82588852683169" lon="10.638771114190181"><ele>13.0</ele><time>2026-04-05T07:58:09Z</time></trkpt><trkpt lat="35.82582787769263" lon="10.638736771863961"><ele>13.0</ele><time>2026-04-05T07:58:16Z</time></trkpt><trkpt lat="35.82575556830112" lon="10.638744069679511"><ele>13.0</ele><time>2026-04-05T07:58:23Z</time></trkpt><trkpt lat="35.825686870151586" lon="10.638743286494496"><ele>13.0</ele><time>2026-04-05T07:58:27Z</time></trkpt><trkpt lat="35.82562371225804" lon="10.638724569815594"><ele>12.857142857142856</ele><time>2026-04-05T07:58:36Z</time></trkpt><trkpt lat="35.825559900020565" lon="10.63871584118927"><ele>12.714285714285715</ele><time>2026-04-05T07:58:42Z</time></trkpt><trkpt lat="35.82549630472731" lon="10.638715508945003"><ele>12.571428571428571</ele><time>2026-04-05T07:58:50Z</time></trkpt><trkpt lat="35.825419533029944" lon="10.638692097705551"><ele>12.428571428571427</ele><time>2026-04-05T07:58:55Z</time></trkpt><trkpt lat="35.825355746628226" lon="10.638630989656532"><ele>12.285714285714285</ele><time>2026-04-05T07:59:04Z</time></trkpt><trkpt lat="35.82530764998715" lon="10.638552162533895"><ele>12.142857142857142</ele><time>2026-04-05T07:59:17Z</time></trkpt><trkpt lat="35.8252316267268" lon="10.638581487765741"><ele>12.0</ele><time>2026-04-05T07:59:24Z</time></trkpt><trkpt lat="35.82517855192015" lon="10.638623813345337"><ele>12.666666666666666</ele><time>2026-04-05T07:59:28Z</time></trkpt><trkpt lat="35.82513141150662" lon="10.638717872938448"><ele>13.333333333333332</ele><time>2026-04-05T07:59:45Z</time></trkpt><trkpt lat="35.82507156458305" lon="10.638659152915036"><ele>14.0</ele><time>2026-04-05T07:59:47Z</time></trkpt><trkpt lat="35.82497832859165" lon="10.638673129065634"><ele>14.666666666666666</ele><time>2026-04-05T07:59:49Z</time></trkpt><trkpt lat="35.82490635183732" lon="10.638690745815122"><ele>15.333333333333332</ele><time>2026-04-05T07:59:50Z</time></trkpt><trkpt lat="35.824833745527485" lon="10.638679317117669"><ele>16.0</ele><time>2026-04-05T07:59:51Z</time></trkpt><trkpt lat="35.82509821416927" lon="10.638644181083984"><ele>16.0</ele><time>2026-04-05T07:59:55Z</time></trkpt><trkpt lat="35.825163077939244" lon="10.63867154834036"><ele>16.0</ele><time>2026-04-05T08:00:08Z</time></trkpt><trkpt lat="35.8253266320714" lon="10.638763748013563"><ele>16.0</ele><time>2026-04-05T08:00:22.999Z</time></trkpt><trkpt lat="35.8251418473278" lon="10.638691177807207"><ele>16.0</ele><time>2026-04-05T08:01:00.999Z</time></trkpt><trkpt lat="35.8249564481724" lon="10.638726586117981"><ele>16.0</ele><time>2026-04-05T08:01:11.999Z</time></trkpt><trkpt lat="35.824885947177115" lon="10.63874957381621"><ele>15.999999999999998</ele><time>2026-04-05T08:01:16.999Z</time></trkpt><trkpt lat="35.82487878948767" lon="10.63883628922341"><ele>16.0</ele><time>2026-04-05T08:02:04.999Z</time></trkpt><trkpt lat="35.82488285425755" lon="10.638917074472431"><ele>16.0</ele><time>2026-04-05T08:02:10.999Z</time></trkpt><trkpt lat="35.82484006048016" lon="10.638989942970609"><ele>15.999999999999998</ele><time>2026-04-05T08:03:37.999Z</time></trkpt><trkpt lat="35.824777439051395" lon="10.6389754397403"><ele>16.0</ele><time>2026-04-05T08:03:43.999Z</time></trkpt><trkpt lat="35.82471349188751" lon="10.639041313627438"><ele>16.0</ele><time>2026-04-05T08:03:47.999Z</time></trkpt><trkpt lat="35.82462279940587" lon="10.63902160668096"><ele>16.0</ele><time>2026-04-05T08:03:55Z</time></trkpt><trkpt lat="35.82480119683454" lon="10.639031884044421"><ele>16.0</ele><time>2026-04-05T08:04:00Z</time></trkpt><trkpt lat="35.82486644164254" lon="10.639135148783556"><ele>16.0</ele><time>2026-04-05T08:04:03Z</time></trkpt><trkpt lat="35.824868734126" lon="10.639229764352137"><ele>16.0</ele><time>2026-04-05T08:04:05Z</time></trkpt><trkpt lat="35.82488127259347" lon="10.639329609300127"><ele>16.0</ele><time>2026-04-05T08:04:08Z</time></trkpt><trkpt lat="35.824856941766484" lon="10.639447208624354"><ele>14.75</ele><time>2026-04-05T08:04:09Z</time></trkpt><trkpt lat="35.824869821299494" lon="10.639562867314497"><ele>13.5</ele><time>2026-04-05T08:04:11Z</time></trkpt><trkpt lat="35.824881748994876" lon="10.639654497109479"><ele>12.25</ele><time>2026-04-05T08:04:12Z</time></trkpt><trkpt lat="35.82487912777854" lon="10.639768852629064"><ele>11.0</ele><time>2026-04-05T08:04:15Z</time></trkpt><trkpt lat="35.82489761614863" lon="10.639530872191306"><ele>11.0</ele><time>2026-04-05T08:04:16Z</time></trkpt><trkpt lat="35.824648839178515" lon="10.639680558706198"><ele>11.0</ele><time>2026-04-05T08:04:17Z</time></trkpt><trkpt lat="35.824682929831134" lon="10.639499506507232"><ele>11.0</ele><time>2026-04-05T08:04:20Z</time></trkpt><trkpt lat="35.82472886862149" lon="10.639408531412576"><ele>12.666666666666666</ele><time>2026-04-05T08:04:22Z</time></trkpt><trkpt lat="35.824777601311816" lon="10.639339476074225"><ele>14.333333333333332</ele><time>2026-04-05T08:04:25Z</time></trkpt><trkpt lat="35.82465698025989" lon="10.638936399820906"><ele>16.0</ele><time>2026-04-05T08:04:36.067Z</time></trkpt><trkpt lat="35.82480689769069" lon="10.63874256045578"><ele>15.999999999999998</ele><time>2026-04-05T08:05:07.024Z</time></trkpt><trkpt lat="35.82476852920601" lon="10.638672167153505"><ele>16.0</ele><time>2026-04-05T08:05:24.02Z</time></trkpt><trkpt lat="35.82470622672898" lon="10.638597826504762"><ele>16.0</ele><time>2026-04-05T08:05:40.018Z</time></trkpt><trkpt lat="35.824613099009625" lon="10.638658392994536"><ele>16.0</ele><time>2026-04-05T08:05:58.408Z</time></trkpt><trkpt lat="35.82451645619214" lon="10.638685542048908"><ele>15.999999999999998</ele><time>2026-04-05T08:06:42.012Z</time></trkpt><trkpt lat="35.82449138441859" lon="10.638777073897522"><ele>16.0</ele><time>2026-04-05T08:06:45.017Z</time></trkpt><trkpt lat="35.82449194997572" lon="10.638697865173569"><ele>15.999999999999998</ele><time>2026-04-05T08:07:07Z</time></trkpt><trkpt lat="35.8244164016045" lon="10.638683558532914"><ele>16.0</ele><time>2026-04-05T08:08:37Z</time></trkpt><trkpt lat="35.824434450739645" lon="10.63876542215138"><ele>16.0</ele><time>2026-04-05T08:08:43Z</time></trkpt><trkpt lat="35.824451610134155" lon="10.638847293991496"><ele>16.0</ele><time>2026-04-05T08:08:45Z</time></trkpt><trkpt lat="35.82433160423666" lon="10.638899339808587"><ele>15.999999999999998</ele><time>2026-04-05T08:08:47.035Z</time></trkpt><trkpt lat="35.82425826589394" lon="10.638960465476416"><ele>16.0</ele><time>2026-04-05T08:08:49.032Z</time></trkpt><trkpt lat="35.82441216466517" lon="10.639031006130029"><ele>16.0</ele><time>2026-04-05T08:09:07.423Z</time></trkpt><trkpt lat="35.824469291696815" lon="10.639102278310945"><ele>16.0</ele><time>2026-04-05T08:09:33.016Z</time></trkpt><trkpt lat="35.82452287192256" lon="10.638662579782094"><ele>16.0</ele><time>2026-04-05T08:10:01.396Z</time></trkpt><trkpt lat="35.82450734818403" lon="10.639022086267824"><ele>16.0</ele><time>2026-04-05T08:10:22.423Z</time></trkpt><trkpt lat="35.824498558611225" lon="10.63918793974258"><ele>16.0</ele><time>2026-04-05T08:11:09.102Z</time></trkpt><trkpt lat="35.82448781245057" lon="10.639302342455126"><ele>16.0</ele><time>2026-04-05T08:11:39.617Z</time></trkpt><trkpt lat="35.8244807699861" lon="10.63941681263185"><ele>16.0</ele><time>2026-04-05T08:11:40.834Z</time></trkpt><trkpt lat="35.82448547925387" lon="10.639333971910313"><ele>16.0</ele><time>2026-04-05T08:12:47.852Z</time></trkpt><trkpt lat="35.82450121310755" lon="10.639536058222658"><ele>15.166666666666666</ele><time>2026-04-05T08:13:13.477Z</time></trkpt><trkpt lat="35.82447129321212" lon="10.639643472090667"><ele>14.333333333333332</ele><time>2026-04-05T08:13:32.668Z</time></trkpt><trkpt lat="35.82444527636123" lon="10.639777349520003"><ele>13.5</ele><time>2026-04-05T08:14:43Z</time></trkpt><trkpt lat="35.82445566693361" lon="10.639854479995298"><ele>12.666666666666666</ele><time>2026-04-05T08:15:15Z</time></trkpt><trkpt lat="35.82436742329612" lon="10.639824906243454"><ele>11.833333333333332</ele><time>2026-04-05T08:18:44Z</time></trkpt><trkpt lat="35.82430338332243" lon="10.639850672850454"><ele>11.0</ele><time>2026-04-05T08:18:57Z</time></trkpt><trkpt lat="35.824238070226265" lon="10.63984093981536"><ele>10.5</ele><time>2026-04-05T08:19:04Z</time></trkpt><trkpt lat="35.82417974389363" lon="10.639876290260982"><ele>10.0</ele><time>2026-04-05T08:19:23Z</time></trkpt><trkpt lat="35.824107191063035" lon="10.639890532834698"><ele>9.5</ele><time>2026-04-05T08:19:59Z</time></trkpt><trkpt lat="35.82404673303159" lon="10.639939100196507"><ele>9.0</ele><time>2026-04-05T08:21:29Z</time></trkpt><trkpt lat="35.824124102253016" lon="10.640013200833497"><ele>8.5</ele><time>2026-04-05T08:21:49Z</time></trkpt><trkpt lat="35.82415465641107" lon="10.640083022631314"><ele>8.0</ele><time>2026-04-05T08:22:03Z</time></trkpt><trkpt lat="35.82423287793468" lon="10.64014442916714"><ele>8.0</ele><time>2026-04-05T08:23:04Z</time></trkpt><trkpt lat="35.824044915244926" lon="10.64001855247561"><ele>8.0</ele><time>2026-04-05T08:24:24.999Z</time></trkpt><trkpt lat="35.82398514916758" lon="10.639980709526116"><ele>8.0</ele><time>2026-04-05T08:24:26.999Z</time></trkpt><trkpt lat="35.82404628457773" lon="10.640022637787604"><ele>8.0</ele><time>2026-04-05T08:24:30Z</time></trkpt><trkpt lat="35.824427308641646" lon="10.640261670451126"><ele>8.428571428571429</ele><time>2026-04-05T08:24:53.422Z</time></trkpt><trkpt lat="35.82442629887508" lon="10.640177123948119"><ele>8.857142857142856</ele><time>2026-04-05T08:26:55Z</time></trkpt><trkpt lat="35.82444832158031" lon="10.640092579488362"><ele>9.285714285714285</ele><time>2026-04-05T08:27:09Z</time></trkpt><trkpt lat="35.82443475256853" lon="10.640014871536891"><ele>9.714285714285714</ele><time>2026-04-05T08:28:19Z</time></trkpt><trkpt lat="35.82444230004537" lon="10.639932789138278"><ele>10.142857142857142</ele><time>2026-04-05T08:28:33Z</time></trkpt><trkpt lat="35.824481354834205" lon="10.639868698888847"><ele>10.571428571428571</ele><time>2026-04-05T08:28:57Z</time></trkpt><trkpt lat="35.82455030892728" lon="10.63986203927135"><ele>11.0</ele><time>2026-04-05T08:29:06Z</time></trkpt><trkpt lat="35.82461537302548" lon="10.639857222631509"><ele>11.0</ele><time>2026-04-05T08:29:13Z</time></trkpt><trkpt lat="35.82468854246769" lon="10.63985827270367"><ele>11.0</ele><time>2026-04-05T08:29:51Z</time></trkpt><trkpt lat="35.82475086381161" lon="10.639845552269428"><ele>11.0</ele><time>2026-04-05T08:30:01Z</time></trkpt><trkpt lat="35.8248217456214" lon="10.639849235761943"><ele>11.0</ele><time>2026-04-05T08:30:09Z</time></trkpt><trkpt lat="35.8248932478754" lon="10.63983942233259"><ele>11.0</ele><time>2026-04-05T08:30:15Z</time></trkpt><trkpt lat="35.82496535027751" lon="10.639859882624982"><ele>11.0</ele><time>2026-04-05T08:30:24Z</time></trkpt><trkpt lat="35.824985692488845" lon="10.639781369401334"><ele>11.0</ele><time>2026-04-05T08:30:29Z</time></trkpt><trkpt lat="35.82504247940309" lon="10.639844598524679"><ele>11.0</ele><time>2026-04-05T08:30:33Z</time></trkpt><trkpt lat="35.825109041657576" lon="10.639876229903368"><ele>11.0</ele><time>2026-04-05T08:30:39Z</time></trkpt><trkpt lat="35.82517452301559" lon="10.639887557729832"><ele>11.0</ele><time>2026-04-05T08:30:46.001Z</time></trkpt><trkpt lat="35.82524053456717" lon="10.639884478759797"><ele>11.0</ele><time>2026-04-05T08:30:54.001Z</time></trkpt><trkpt lat="35.825306459440974" lon="10.639895249341079"><ele>11.0</ele><time>2026-04-05T08:31:02.001Z</time></trkpt><trkpt lat="35.8253680680979" lon="10.639914822219147"><ele>11.0</ele><time>2026-04-05T08:31:09.001Z</time></trkpt><trkpt lat="35.82542902493909" lon="10.639935534561436"><ele>11.0</ele><time>2026-04-05T08:31:16Z</time></trkpt><trkpt lat="35.82549308930575" lon="10.639950845486947"><ele>10.714285714285715</ele><time>2026-04-05T08:31:24Z</time></trkpt><trkpt lat="35.82555455279591" lon="10.639973918524433"><ele>10.428571428571429</ele><time>2026-04-05T08:31:33Z</time></trkpt><trkpt lat="35.82561705749528" lon="10.639962951619419"><ele>10.142857142857142</ele><time>2026-04-05T08:31:43Z</time></trkpt><trkpt lat="35.825687017765155" lon="10.639963877347094"><ele>9.857142857142858</ele><time>2026-04-05T08:31:56Z</time></trkpt><trkpt lat="35.825753025642605" lon="10.639992502086644"><ele>9.571428571428571</ele><time>2026-04-05T08:32:03Z</time></trkpt><trkpt lat="35.8258164350022" lon="10.639956348865663"><ele>9.285714285714286</ele><time>2026-04-05T08:32:12Z</time></trkpt><trkpt lat="35.825876319810426" lon="10.639925968371923"><ele>9.0</ele><time>2026-04-05T08:32:21Z</time></trkpt><trkpt lat="35.82595083702324" lon="10.639963436201935"><ele>9.000000000000002</ele><time>2026-04-05T08:32:28Z</time></trkpt><trkpt lat="35.82601507368426" lon="10.639979519491646"><ele>9.0</ele><time>2026-04-05T08:32:33Z</time></trkpt><trkpt lat="35.826073844601105" lon="10.640031234546656"><ele>9.0</ele><time>2026-04-05T08:32:43Z</time></trkpt><trkpt lat="35.826139434817044" lon="10.640054141148918"><ele>9.0</ele><time>2026-04-05T08:32:54.001Z</time></trkpt><trkpt lat="35.82620447603747" lon="10.640079330787678"><ele>9.0</ele><time>2026-04-05T08:33:04.001Z</time></trkpt><trkpt lat="35.82626829431771" lon="10.640077263772818"><ele>9.000000000000002</ele><time>2026-04-05T08:33:13.001Z</time></trkpt><trkpt lat="35.82634186034625" lon="10.640102092714923"><ele>9.0</ele><time>2026-04-05T08:33:23Z</time></trkpt><trkpt lat="35.8264110113184" lon="10.640120141516787"><ele>9.000000000000002</ele><time>2026-04-05T08:33:34Z</time></trkpt><trkpt lat="35.82647674208832" lon="10.640150596163812"><ele>9.0</ele><time>2026-04-05T08:34:06Z</time></trkpt><trkpt lat="35.826545653225445" lon="10.640183557946617"><ele>9.0</ele><time>2026-04-05T08:34:15Z</time></trkpt><trkpt lat="35.826612426978194" lon="10.64020582513354"><ele>9.0</ele><time>2026-04-05T08:34:21Z</time></trkpt><trkpt lat="35.82668428571604" lon="10.640231944106063"><ele>9.0</ele><time>2026-04-05T08:34:28Z</time></trkpt><trkpt lat="35.82674784248353" lon="10.640226505100326"><ele>9.000000000000002</ele><time>2026-04-05T08:34:38Z</time></trkpt><trkpt lat="35.82681657981971" lon="10.64024494657293"><ele>9.0</ele><time>2026-04-05T08:34:46Z</time></trkpt><trkpt lat="35.826880528104276" lon="10.640251914403345"><ele>9.142857142857144</ele><time>2026-04-05T08:34:53.001Z</time></trkpt><trkpt lat="35.82695013863152" lon="10.64024494079671"><ele>9.285714285714286</ele><time>2026-04-05T08:35:01.001Z</time></trkpt><trkpt lat="35.82702112954625" lon="10.640229685616706"><ele>9.428571428571429</ele><time>2026-04-05T08:35:14.001Z</time></trkpt><trkpt lat="35.827092079469324" lon="10.640220643261092"><ele>9.571428571428573</ele><time>2026-04-05T08:35:23Z</time></trkpt><trkpt lat="35.827155334712835" lon="10.640233059506404"><ele>9.714285714285715</ele><time>2026-04-05T08:35:32Z</time></trkpt><trkpt lat="35.827208973267226" lon="10.640285264053214"><ele>9.857142857142858</ele><time>2026-04-05T08:35:39Z</time></trkpt><trkpt lat="35.827273749860446" lon="10.640312262169981"><ele>10.0</ele><time>2026-04-05T08:35:49Z</time></trkpt><trkpt lat="35.82733996154741" lon="10.640295592437825"><ele>10.0</ele><time>2026-04-05T08:35:55Z</time></trkpt><trkpt lat="35.82740585559782" lon="10.64028722609304"><ele>10.0</ele><time>2026-04-05T08:36:01Z</time></trkpt><trkpt lat="35.82745073032846" lon="10.640355783665264"><ele>10.0</ele><time>2026-04-05T08:48:09Z</time></trkpt><trkpt lat="35.82747061554011" lon="10.640439892343098"><ele>10.0</ele><time>2026-04-05T08:48:18Z</time></trkpt><trkpt lat="35.827505767508136" lon="10.640505860026135"><ele>10.0</ele><time>2026-04-05T08:48:26.999Z</time></trkpt><trkpt lat="35.827567918960575" lon="10.640524356639158"><ele>10.0</ele><time>2026-04-05T08:48:38.999Z</time></trkpt><trkpt lat="35.827590910926716" lon="10.64060291167525"><ele>10.0</ele><time>2026-04-05T08:48:48.999Z</time></trkpt><trkpt lat="35.82760439630869" lon="10.640687932954512"><ele>9.571428571428571</ele><time>2026-04-05T08:48:59.999Z</time></trkpt><trkpt lat="35.827634698900795" lon="10.640766825528672"><ele>9.142857142857142</ele><time>2026-04-05T08:49:12.999Z</time></trkpt><trkpt lat="35.82761949760829" lon="10.640844754472392"><ele>8.714285714285715</ele><time>2026-04-05T08:49:20.999Z</time></trkpt><trkpt lat="35.827602904529336" lon="10.640926136617415"><ele>8.285714285714285</ele><time>2026-04-05T08:49:31.999Z</time></trkpt><trkpt lat="35.82765596068891" lon="10.640867709499641"><ele>7.857142857142858</ele><time>2026-04-05T08:50:21.999Z</time></trkpt><trkpt lat="35.82759369518504" lon="10.640899296607621"><ele>7.428571428571429</ele><time>2026-04-05T08:52:11Z</time></trkpt><trkpt lat="35.827652944586056" lon="10.640931035888757"><ele>7.0</ele><time>2026-04-05T09:01:28.999Z</time></trkpt><trkpt lat="35.82772053809372" lon="10.640954549608425"><ele>6.833333333333334</ele><time>2026-04-05T09:01:34.999Z</time></trkpt><trkpt lat="35.82779060171718" lon="10.640936250400257"><ele>6.666666666666667</ele><time>2026-04-05T09:01:43.999Z</time></trkpt><trkpt lat="35.827836439846074" lon="10.640878240880122"><ele>6.5</ele><time>2026-04-05T09:01:46.999Z</time></trkpt><trkpt lat="35.82788921711886" lon="10.640802779728345"><ele>6.333333333333334</ele><time>2026-04-05T09:01:50.999Z</time></trkpt><trkpt lat="35.82795672268042" lon="10.640757938138515"><ele>6.166666666666667</ele><time>2026-04-05T09:01:53.999Z</time></trkpt><trkpt lat="35.828033576987615" lon="10.640705166122087"><ele>6.0</ele><time>2026-04-05T09:01:56.999Z</time></trkpt><trkpt lat="35.828107178013546" lon="10.640645007833031"><ele>5.999999999999999</ele><time>2026-04-05T09:01:59.999Z</time></trkpt><trkpt lat="35.828169983136355" lon="10.64059547343762"><ele>6.0</ele><time>2026-04-05T09:02:02.999Z</time></trkpt><trkpt lat="35.82821754403928" lon="10.640528505230133"><ele>6.0</ele><time>2026-04-05T09:02:05.999Z</time></trkpt><trkpt lat="35.82824411285149" lon="10.640449322504455"><ele>6.0</ele><time>2026-04-05T09:02:09.998Z</time></trkpt><trkpt lat="35.828278887534054" lon="10.640373321049628"><ele>6.0</ele><time>2026-04-05T09:02:14.998Z</time></trkpt><trkpt lat="35.82830955119323" lon="10.640303090516246"><ele>5.999999999999999</ele><time>2026-04-05T09:02:26.998Z</time></trkpt><trkpt lat="35.828353693003606" lon="10.640206515644959"><ele>6.0</ele><time>2026-04-05T09:02:32.999Z</time></trkpt><trkpt lat="35.8283755105936" lon="10.64013243071144"><ele>6.166666666666667</ele><time>2026-04-05T09:02:34.999Z</time></trkpt><trkpt lat="35.8284101823412" lon="10.640033932292432"><ele>6.333333333333334</ele><time>2026-04-05T09:02:37.999Z</time></trkpt><trkpt lat="35.82849010188451" lon="10.640085570320391"><ele>6.5</ele><time>2026-04-05T09:02:40.999Z</time></trkpt><trkpt lat="35.828548910320265" lon="10.640134296707647"><ele>6.666666666666667</ele><time>2026-04-05T09:02:43.999Z</time></trkpt><trkpt lat="35.8286054343688" lon="10.640204524124236"><ele>6.833333333333334</ele><time>2026-04-05T09:02:57.999Z</time></trkpt><trkpt lat="35.82867303326031" lon="10.640298712134477"><ele>7.0</ele><time>2026-04-05T09:03:00.999Z</time></trkpt><trkpt lat="35.82868918046876" lon="10.640406616190175"><ele>7.166666666666667</ele><time>2026-04-05T09:03:02.999Z</time></trkpt><trkpt lat="35.828672634250516" lon="10.640509603267347"><ele>7.333333333333334</ele><time>2026-04-05T09:03:05.999Z</time></trkpt><trkpt lat="35.82867057496009" lon="10.64059159023789"><ele>7.5</ele><time>2026-04-05T09:03:08.999Z</time></trkpt><trkpt lat="35.82865609125474" lon="10.640674678450106"><ele>7.666666666666666</ele><time>2026-04-05T09:03:14.999Z</time></trkpt><trkpt lat="35.82862942809439" lon="10.640750742323139"><ele>7.833333333333333</ele><time>2026-04-05T09:03:16.999Z</time></trkpt><trkpt lat="35.82861442330093" lon="10.640829779749762"><ele>8.0</ele><time>2026-04-05T09:03:18.999Z</time></trkpt><trkpt lat="35.82854462913391" lon="10.640947284668872"><ele>7.999999999999999</ele><time>2026-04-05T09:03:22.999Z</time></trkpt><trkpt lat="35.82847926273351" lon="10.641032510637762"><ele>8.0</ele><time>2026-04-05T09:03:23.999Z</time></trkpt><trkpt lat="35.82840502285493" lon="10.64110284859267"><ele>8.0</ele><time>2026-04-05T09:03:24.999Z</time></trkpt><trkpt lat="35.82834353468101" lon="10.641161257749772"><ele>8.0</ele><time>2026-04-05T09:03:25.999Z</time></trkpt><trkpt lat="35.82828540552136" lon="10.641203411801351"><ele>7.999999999999999</ele><time>2026-04-05T09:03:26.999Z</time></trkpt><trkpt lat="35.82823049340286" lon="10.641242385164345"><ele>8.0</ele><time>2026-04-05T09:03:27.999Z</time></trkpt><trkpt lat="35.828120708019235" lon="10.641275918061755"><ele>7.666666666666666</ele><time>2026-04-05T09:03:29.999Z</time></trkpt><trkpt lat="35.828031472926206" lon="10.641259807834032"><ele>7.333333333333333</ele><time>2026-04-05T09:03:31.999Z</time></trkpt><trkpt lat="35.827933107289184" lon="10.641243660786502"><ele>7.0</ele><time>2026-04-05T09:03:33.999Z</time></trkpt><trkpt lat="35.82784468144628" lon="10.641229944957303"><ele>6.666666666666666</ele><time>2026-04-05T09:03:35.999Z</time></trkpt><trkpt lat="35.82777308480437" lon="10.641222082589929"><ele>6.333333333333333</ele><time>2026-04-05T09:03:37.999Z</time></trkpt><trkpt lat="35.827681820827976" lon="10.641205209661706"><ele>6.0</ele><time>2026-04-05T09:03:39.999Z</time></trkpt><trkpt lat="35.82759025056789" lon="10.641176055854494"><ele>6.199999999999999</ele><time>2026-04-05T09:03:41.999Z</time></trkpt><trkpt lat="35.82744053609092" lon="10.64110616674444"><ele>6.3999999999999995</ele><time>2026-04-05T09:03:43.999Z</time></trkpt><trkpt lat="35.827364098549715" lon="10.641072547371147"><ele>6.6</ele><time>2026-04-05T09:03:44.999Z</time></trkpt><trkpt lat="35.8272995335594" lon="10.641040460413597"><ele>6.8</ele><time>2026-04-05T09:03:45.999Z</time></trkpt><trkpt lat="35.82719324968131" lon="10.641004024807609"><ele>7.0</ele><time>2026-04-05T09:03:47.999Z</time></trkpt><trkpt lat="35.82710331638323" lon="10.641003423864266"><ele>7.000000000000001</ele><time>2026-04-05T09:03:49.999Z</time></trkpt><trkpt lat="35.827031986630026" lon="10.640998832349302"><ele>7.0</ele><time>2026-04-05T09:03:51.999Z</time></trkpt><trkpt lat="35.826949602336995" lon="10.640991632873076"><ele>7.0</ele><time>2026-04-05T09:03:54.999Z</time></trkpt><trkpt lat="35.82685604292843" lon="10.640978814189921"><ele>7.0</ele><time>2026-04-05T09:03:57.999Z</time></trkpt><trkpt lat="35.826787119428474" lon="10.640978740746675"><ele>7.000000000000001</ele><time>2026-04-05T09:03:59.999Z</time></trkpt><trkpt lat="35.82671267283761" lon="10.640968196963476"><ele>7.0</ele><time>2026-04-05T09:04:01.999Z</time></trkpt><trkpt lat="35.826641286031595" lon="10.64096437002085"><ele>7.000000000000001</ele><time>2026-04-05T09:04:03.999Z</time></trkpt><trkpt lat="35.82656503027092" lon="10.640957012236493"><ele>7.0</ele><time>2026-04-05T09:04:05.999Z</time></trkpt><trkpt lat="35.826485779582576" lon="10.640951899800868"><ele>7.0</ele><time>2026-04-05T09:04:07.999Z</time></trkpt><trkpt lat="35.8264019843157" lon="10.640941848566976"><ele>7.0</ele><time>2026-04-05T09:04:09.999Z</time></trkpt><trkpt lat="35.82632342394012" lon="10.640948717477702"><ele>7.000000000000001</ele><time>2026-04-05T09:04:11.999Z</time></trkpt><trkpt lat="35.82625622256858" lon="10.640943868162273"><ele>7.0</ele><time>2026-04-05T09:04:13.997Z</time></trkpt><trkpt lat="35.82617643439153" lon="10.640943049845472"><ele>7.0</ele><time>2026-04-05T09:04:15.997Z</time></trkpt><trkpt lat="35.8260943239819" lon="10.640935068362833"><ele>6.999999999999999</ele><time>2026-04-05T09:04:17.997Z</time></trkpt><trkpt lat="35.82600215042181" lon="10.640941032484772"><ele>6.999999999999999</ele><time>2026-04-05T09:04:19.997Z</time></trkpt><trkpt lat="35.82591321101551" lon="10.640928703777933"><ele>7.0</ele><time>2026-04-05T09:04:21.998Z</time></trkpt><trkpt lat="35.82581767865798" lon="10.64091642463009"><ele>7.0</ele><time>2026-04-05T09:04:23.998Z</time></trkpt><trkpt lat="35.825720293261966" lon="10.640897768413964"><ele>6.8</ele><time>2026-04-05T09:04:25.998Z</time></trkpt><trkpt lat="35.82561315220135" lon="10.640895354633772"><ele>6.6</ele><time>2026-04-05T09:04:27.998Z</time></trkpt><trkpt lat="35.8255230340106" lon="10.640886716696576"><ele>6.3999999999999995</ele><time>2026-04-05T09:04:29.998Z</time></trkpt><trkpt lat="35.825426304131554" lon="10.640876897596604"><ele>6.199999999999999</ele><time>2026-04-05T09:04:31.998Z</time></trkpt><trkpt lat="35.825320712881116" lon="10.64086965842791"><ele>6.0</ele><time>2026-04-05T09:04:33.998Z</time></trkpt><trkpt lat="35.82521556985081" lon="10.64086304438408"><ele>6.199999999999999</ele><time>2026-04-05T09:04:35.998Z</time></trkpt><trkpt lat="35.82511818337881" lon="10.640855847064058"><ele>6.3999999999999995</ele><time>2026-04-05T09:04:37.998Z</time></trkpt><trkpt lat="35.82501997381232" lon="10.640843584422104"><ele>6.6</ele><time>2026-04-05T09:04:39.998Z</time></trkpt><trkpt lat="35.824916183978885" lon="10.640835230864232"><ele>6.8</ele><time>2026-04-05T09:04:41.998Z</time></trkpt><trkpt lat="35.82481802576101" lon="10.64082686565507"><ele>7.0</ele><time>2026-04-05T09:04:43.998Z</time></trkpt><trkpt lat="35.82472142301361" lon="10.640824430416815"><ele>7.0</ele><time>2026-04-05T09:04:45.998Z</time></trkpt><trkpt lat="35.82462806324564" lon="10.640816350447244"><ele>6.999999999999999</ele><time>2026-04-05T09:04:47.998Z</time></trkpt><trkpt lat="35.8245332090321" lon="10.640813984516907"><ele>6.999999999999999</ele><time>2026-04-05T09:04:49.998Z</time></trkpt><trkpt lat="35.82444077791943" lon="10.640807975613155"><ele>7.0</ele><time>2026-04-05T09:04:51.998Z</time></trkpt><trkpt lat="35.82434299398993" lon="10.640800140538504"><ele>7.0</ele><time>2026-04-05T09:04:53.998Z</time></trkpt><trkpt lat="35.82422945734416" lon="10.640793822821081"><ele>7.333333333333334</ele><time>2026-04-05T09:04:55.998Z</time></trkpt><trkpt lat="35.82410404674576" lon="10.640786610381427"><ele>7.666666666666667</ele><time>2026-04-05T09:04:57.999Z</time></trkpt><trkpt lat="35.82397961105653" lon="10.640781801039171"><ele>8.0</ele><time>2026-04-05T09:04:59.999Z</time></trkpt><trkpt lat="35.82391604417204" lon="10.64077932997561"><ele>8.333333333333334</ele><time>2026-04-05T09:05:00.999Z</time></trkpt><trkpt lat="35.82385171474364" lon="10.640776801770766"><ele>8.666666666666666</ele><time>2026-04-05T09:05:01.999Z</time></trkpt><trkpt lat="35.82378857613964" lon="10.64077290887819"><ele>9.0</ele><time>2026-04-05T09:05:02.999Z</time></trkpt><trkpt lat="35.82366463848013" lon="10.640762524246357"><ele>9.0</ele><time>2026-04-05T09:05:04.999Z</time></trkpt><trkpt lat="35.823537927383114" lon="10.640746897266807"><ele>9.0</ele><time>2026-04-05T09:05:06.999Z</time></trkpt><trkpt lat="35.82341104997812" lon="10.640735823085171"><ele>9.0</ele><time>2026-04-05T09:05:08.999Z</time></trkpt><trkpt lat="35.82334479473983" lon="10.640731304457677"><ele>9.0</ele><time>2026-04-05T09:05:09.999Z</time></trkpt><trkpt lat="35.82327526237904" lon="10.640728427788375"><ele>9.0</ele><time>2026-04-05T09:05:10.999Z</time></trkpt><trkpt lat="35.82319941833667" lon="10.64072417490382"><ele>8.5</ele><time>2026-04-05T09:05:11.999Z</time></trkpt><trkpt lat="35.82311804557441" lon="10.640724929351537"><ele>8.0</ele><time>2026-04-05T09:05:12.999Z</time></trkpt><trkpt lat="35.82303219577357" lon="10.640739665255957"><ele>7.5</ele><time>2026-04-05T09:05:13.999Z</time></trkpt><trkpt lat="35.82294957786262" lon="10.640773222345121"><ele>7.0</ele><time>2026-04-05T09:05:14.999Z</time></trkpt><trkpt lat="35.82286822133841" lon="10.640826512752147"><ele>6.5</ele><time>2026-04-05T09:05:15.999Z</time></trkpt><trkpt lat="35.82278738889058" lon="10.640882079588746"><ele>6.0</ele><time>2026-04-05T09:05:16.999Z</time></trkpt><trkpt lat="35.82270918642569" lon="10.640943424708897"><ele>5.666666666666667</ele><time>2026-04-05T09:05:17.999Z</time></trkpt><trkpt lat="35.822627845620524" lon="10.641001479061469"><ele>5.333333333333333</ele><time>2026-04-05T09:05:18.999Z</time></trkpt><trkpt lat="35.82255267582517" lon="10.641046821794184"><ele>5.0</ele><time>2026-04-05T09:05:19.999Z</time></trkpt><trkpt lat="35.82248399658684" lon="10.641089155450624"><ele>4.666666666666666</ele><time>2026-04-05T09:05:20.999Z</time></trkpt><trkpt lat="35.822414181404326" lon="10.641132660496353"><ele>4.333333333333333</ele><time>2026-04-05T09:05:21.999Z</time></trkpt><trkpt lat="35.822342323861506" lon="10.64118069547509"><ele>4.0</ele><time>2026-04-05T09:05:22.999Z</time></trkpt><trkpt lat="35.822265739443594" lon="10.641223925626512"><ele>4.0</ele><time>2026-04-05T09:05:23.999Z</time></trkpt><trkpt lat="35.82218972601175" lon="10.641265721268166"><ele>3.9999999999999996</ele><time>2026-04-05T09:05:24.999Z</time></trkpt><trkpt lat="35.822120605990165" lon="10.641307862370175"><ele>4.0</ele><time>2026-04-05T09:05:25.999Z</time></trkpt><trkpt lat="35.82205169305637" lon="10.641347299282293"><ele>4.0</ele><time>2026-04-05T09:05:26.999Z</time></trkpt><trkpt lat="35.82198430541827" lon="10.641383294686971"><ele>3.9999999999999996</ele><time>2026-04-05T09:05:27.999Z</time></trkpt><trkpt lat="35.82192172656377" lon="10.641410975183835"><ele>4.0</ele><time>2026-04-05T09:05:28.999Z</time></trkpt><trkpt lat="35.82186090934488" lon="10.641440880341499"><ele>4.0</ele><time>2026-04-05T09:05:29.999Z</time></trkpt><trkpt lat="35.82179812096556" lon="10.641471938855014"><ele>4.0</ele><time>2026-04-05T09:05:30.999Z</time></trkpt><trkpt lat="35.82173241938779" lon="10.641503555234964"><ele>3.9999999999999996</ele><time>2026-04-05T09:05:31.999Z</time></trkpt><trkpt lat="35.82166202573497" lon="10.64154023711292"><ele>4.0</ele><time>2026-04-05T09:05:32.999Z</time></trkpt><trkpt lat="35.8215906628359" lon="10.641580305264904"><ele>4.0</ele><time>2026-04-05T09:05:33.999Z</time></trkpt><trkpt lat="35.821520297042674" lon="10.641621145376739"><ele>3.9999999999999996</ele><time>2026-04-05T09:05:34.999Z</time></trkpt><trkpt lat="35.82145366482476" lon="10.641658795822883"><ele>4.0</ele><time>2026-04-05T09:05:35.999Z</time></trkpt><trkpt lat="35.821387723675265" lon="10.64169509688059"><ele>4.0</ele><time>2026-04-05T09:05:36.999Z</time></trkpt><trkpt lat="35.8213232178776" lon="10.64173202708031"><ele>4.0</ele><time>2026-04-05T09:05:37.999Z</time></trkpt><trkpt lat="35.82125884102325" lon="10.641766657727837"><ele>3.9999999999999996</ele><time>2026-04-05T09:05:38.999Z</time></trkpt><trkpt lat="35.82119653640357" lon="10.641806336780146"><ele>4.0</ele><time>2026-04-05T09:05:39.999Z</time></trkpt><trkpt lat="35.82113486353082" lon="10.641846599583399"><ele>4.0</ele><time>2026-04-05T09:05:40.999Z</time></trkpt><trkpt lat="35.82107272264322" lon="10.641888730771194"><ele>3.9999999999999996</ele><time>2026-04-05T09:05:41.999Z</time></trkpt><trkpt lat="35.82100556567629" lon="10.64192403507463"><ele>4.0</ele><time>2026-04-05T09:05:42.999Z</time></trkpt><trkpt lat="35.82093757582348" lon="10.641960017395505"><ele>4.0</ele><time>2026-04-05T09:05:43.999Z</time></trkpt><trkpt lat="35.820868182093086" lon="10.642005837220651"><ele>3.833333333333333</ele><time>2026-04-05T09:05:44.999Z</time></trkpt><trkpt lat="35.820794484792124" lon="10.642055483928116"><ele>3.6666666666666665</ele><time>2026-04-05T09:05:45.999Z</time></trkpt><trkpt lat="35.82072069065018" lon="10.642104018660241"><ele>3.5</ele><time>2026-04-05T09:05:46.999Z</time></trkpt><trkpt lat="35.82064322296555" lon="10.642149392297803"><ele>3.333333333333333</ele><time>2026-04-05T09:05:47.999Z</time></trkpt><trkpt lat="35.82056164930296" lon="10.642191652742936"><ele>3.1666666666666665</ele><time>2026-04-05T09:05:48.999Z</time></trkpt><trkpt lat="35.82048011195711" lon="10.6422363239934"><ele>3.0</ele><time>2026-04-05T09:05:49.999Z</time></trkpt><trkpt lat="35.820395543615355" lon="10.642286270251352"><ele>3.0</ele><time>2026-04-05T09:05:50.999Z</time></trkpt><trkpt lat="35.8203067420218" lon="10.642340400100997"><ele>3.0</ele><time>2026-04-05T09:05:51.999Z</time></trkpt><trkpt lat="35.820214630380086" lon="10.642380452743694"><ele>3.0</ele><time>2026-04-05T09:05:52.999Z</time></trkpt><trkpt lat="35.8201250039435" lon="10.642433438683087"><ele>3.0</ele><time>2026-04-05T09:05:53.999Z</time></trkpt><trkpt lat="35.820040921324235" lon="10.642491934072407"><ele>3.0</ele><time>2026-04-05T09:05:54.999Z</time></trkpt><trkpt lat="35.81995841635687" lon="10.64254845058911"><ele>3.0</ele><time>2026-04-05T09:05:55.999Z</time></trkpt><trkpt lat="35.819876867935385" lon="10.64260166891127"><ele>3.0</ele><time>2026-04-05T09:05:56.999Z</time></trkpt><trkpt lat="35.81979500980949" lon="10.642646258026033"><ele>3.0</ele><time>2026-04-05T09:05:57.999Z</time></trkpt><trkpt lat="35.81970775407658" lon="10.642690194557401"><ele>3.0</ele><time>2026-04-05T09:05:58.999Z</time></trkpt><trkpt lat="35.81961550501083" lon="10.642743825951449"><ele>3.0</ele><time>2026-04-05T09:05:59.999Z</time></trkpt><trkpt lat="35.81952642054697" lon="10.642799747371209"><ele>3.0</ele><time>2026-04-05T09:06:00.999Z</time></trkpt><trkpt lat="35.8194348927692" lon="10.642860774450188"><ele>3.0</ele><time>2026-04-05T09:06:01.999Z</time></trkpt><trkpt lat="35.819346511201424" lon="10.642919690358"><ele>3.0</ele><time>2026-04-05T09:06:02.999Z</time></trkpt><trkpt lat="35.81925229175649" lon="10.642971093668342"><ele>3.0</ele><time>2026-04-05T09:06:03.999Z</time></trkpt><trkpt lat="35.81915903404886" lon="10.643017606783012"><ele>3.0</ele><time>2026-04-05T09:06:04.999Z</time></trkpt><trkpt lat="35.819063768797506" lon="10.643073641019143"><ele>3.5999999999999996</ele><time>2026-04-05T09:06:05.999Z</time></trkpt><trkpt lat="35.818972193251064" lon="10.643131487227171"><ele>4.199999999999999</ele><time>2026-04-05T09:06:06.999Z</time></trkpt><trkpt lat="35.81887929913691" lon="10.643188080059284"><ele>4.8</ele><time>2026-04-05T09:06:07.999Z</time></trkpt><trkpt lat="35.818788441053684" lon="10.643250047433394"><ele>5.3999999999999995</ele><time>2026-04-05T09:06:08.999Z</time></trkpt><trkpt lat="35.81869956306808" lon="10.643315340462042"><ele>6.0</ele><time>2026-04-05T09:06:09.999Z</time></trkpt><trkpt lat="35.818611255961635" lon="10.643369129162046"><ele>6.0</ele><time>2026-04-05T09:06:10.999Z</time></trkpt><trkpt lat="35.81852336160478" lon="10.643408799570029"><ele>6.0</ele><time>2026-04-05T09:06:11.999Z</time></trkpt><trkpt lat="35.81843791754708" lon="10.643451981165226"><ele>6.0</ele><time>2026-04-05T09:06:12.999Z</time></trkpt><trkpt lat="35.81836155698207" lon="10.643499376086885"><ele>6.0</ele><time>2026-04-05T09:06:13.999Z</time></trkpt><trkpt lat="35.81828826675141" lon="10.64353654090209"><ele>6.0</ele><time>2026-04-05T09:06:14.999Z</time></trkpt><trkpt lat="35.818218240044246" lon="10.643568631058551"><ele>6.0</ele><time>2026-04-05T09:06:15.999Z</time></trkpt><trkpt lat="35.81815230051563" lon="10.64359391924262"><ele>5.666666666666667</ele><time>2026-04-05T09:06:16.999Z</time></trkpt><trkpt lat="35.81808844347987" lon="10.643624559958772"><ele>5.333333333333333</ele><time>2026-04-05T09:06:17.999Z</time></trkpt><trkpt lat="35.81802455731063" lon="10.643666008817698"><ele>5.0</ele><time>2026-04-05T09:06:18.999Z</time></trkpt><trkpt lat="35.817956948673135" lon="10.643726856127401"><ele>4.666666666666666</ele><time>2026-04-05T09:06:19.998Z</time></trkpt><trkpt lat="35.81789845772579" lon="10.643778660382688"><ele>4.333333333333333</ele><time>2026-04-05T09:06:20.998Z</time></trkpt><trkpt lat="35.817804463683125" lon="10.643861082353501"><ele>4.0</ele><time>2026-04-05T09:06:22.998Z</time></trkpt><trkpt lat="35.81770978333509" lon="10.643949195852743"><ele>4.5</ele><time>2026-04-05T09:06:24.998Z</time></trkpt><trkpt lat="35.817650704218536" lon="10.644002716687556"><ele>5.0</ele><time>2026-04-05T09:06:25.998Z</time></trkpt><trkpt lat="35.81758872260126" lon="10.644060134339163"><ele>5.5</ele><time>2026-04-05T09:06:26.998Z</time></trkpt><trkpt lat="35.8175208178732" lon="10.644120202963036"><ele>6.0</ele><time>2026-04-05T09:06:27.998Z</time></trkpt><trkpt lat="35.81745185091603" lon="10.644179862594681"><ele>6.500000000000001</ele><time>2026-04-05T09:06:28.998Z</time></trkpt><trkpt lat="35.81737956175263" lon="10.644238702543833"><ele>7.0</ele><time>2026-04-05T09:06:29.998Z</time></trkpt><trkpt lat="35.81730790751117" lon="10.644301119182378"><ele>7.000000000000001</ele><time>2026-04-05T09:06:30.999Z</time></trkpt><trkpt lat="35.81724090101838" lon="10.644364753946961"><ele>7.0</ele><time>2026-04-05T09:06:31.999Z</time></trkpt><trkpt lat="35.81716864311236" lon="10.644430182122555"><ele>7.0</ele><time>2026-04-05T09:06:32.999Z</time></trkpt><trkpt lat="35.817100180355666" lon="10.644488903610318"><ele>7.0</ele><time>2026-04-05T09:06:33.999Z</time></trkpt><trkpt lat="35.81703965936406" lon="10.64454286807118"><ele>7.000000000000001</ele><time>2026-04-05T09:06:34.999Z</time></trkpt><trkpt lat="35.81698236861592" lon="10.644593344150838"><ele>7.0</ele><time>2026-04-05T09:06:35.999Z</time></trkpt><trkpt lat="35.81692541650555" lon="10.64464648145705"><ele>6.666666666666667</ele><time>2026-04-05T09:06:36.999Z</time></trkpt><trkpt lat="35.81686351147945" lon="10.644704423956833"><ele>6.333333333333334</ele><time>2026-04-05T09:06:37.999Z</time></trkpt><trkpt lat="35.81679660549043" lon="10.644759931156335"><ele>6.0</ele><time>2026-04-05T09:06:38.999Z</time></trkpt><trkpt lat="35.81672959634937" lon="10.644816566267638"><ele>5.666666666666667</ele><time>2026-04-05T09:06:39.999Z</time></trkpt><trkpt lat="35.81666409367158" lon="10.64487811217147"><ele>5.333333333333334</ele><time>2026-04-05T09:06:40.999Z</time></trkpt><trkpt lat="35.81659788392764" lon="10.6449436894908"><ele>5.0</ele><time>2026-04-05T09:06:41.999Z</time></trkpt><trkpt lat="35.81652733948525" lon="10.645009116917464"><ele>5.0</ele><time>2026-04-05T09:06:42.999Z</time></trkpt><trkpt lat="35.816448839602096" lon="10.645077436874887"><ele>5.0</ele><time>2026-04-05T09:06:43.999Z</time></trkpt><trkpt lat="35.81636780487032" lon="10.64514403441073"><ele>5.0</ele><time>2026-04-05T09:06:44.999Z</time></trkpt><trkpt lat="35.81628408806381" lon="10.645211507036642"><ele>5.0</ele><time>2026-04-05T09:06:45.999Z</time></trkpt><trkpt lat="35.816201353022166" lon="10.645281814237931"><ele>5.0</ele><time>2026-04-05T09:06:46.999Z</time></trkpt><trkpt lat="35.81612093271708" lon="10.645358322239089"><ele>4.8</ele><time>2026-04-05T09:06:47.999Z</time></trkpt><trkpt lat="35.81604111471052" lon="10.645434424717536"><ele>4.6</ele><time>2026-04-05T09:06:48.999Z</time></trkpt><trkpt lat="35.815959196393266" lon="10.645506406300886"><ele>4.4</ele><time>2026-04-05T09:06:49.999Z</time></trkpt><trkpt lat="35.815879424651065" lon="10.645577982724195"><ele>4.2</ele><time>2026-04-05T09:06:50.999Z</time></trkpt><trkpt lat="35.81580303172595" lon="10.645648414322833"><ele>4.0</ele><time>2026-04-05T09:06:51.999Z</time></trkpt><trkpt lat="35.81572508673763" lon="10.645716491937312"><ele>3.9999999999999996</ele><time>2026-04-05T09:06:52.999Z</time></trkpt><trkpt lat="35.81565305958966" lon="10.645778252332248"><ele>4.0</ele><time>2026-04-05T09:06:53.999Z</time></trkpt><trkpt lat="35.815584375543395" lon="10.645839271462169"><ele>4.0</ele><time>2026-04-05T09:06:54.999Z</time></trkpt><trkpt lat="35.815515066709985" lon="10.645896874127615"><ele>4.0</ele><time>2026-04-05T09:06:55.999Z</time></trkpt><trkpt lat="35.815444347848526" lon="10.64595637625042"><ele>3.9999999999999996</ele><time>2026-04-05T09:06:56.999Z</time></trkpt><trkpt lat="35.815372823971494" lon="10.646022724765455"><ele>4.0</ele><time>2026-04-05T09:06:57.999Z</time></trkpt><trkpt lat="35.81529811313416" lon="10.64608541443072"><ele>3.9999999999999996</ele><time>2026-04-05T09:06:58.999Z</time></trkpt><trkpt lat="35.81522363581486" lon="10.646145333404903"><ele>4.0</ele><time>2026-04-05T09:06:59.999Z</time></trkpt><trkpt lat="35.81515296843425" lon="10.646210275876912"><ele>4.0</ele><time>2026-04-05T09:07:00.999Z</time></trkpt><trkpt lat="35.81508886635207" lon="10.646265008422684"><ele>4.0</ele><time>2026-04-05T09:07:01.999Z</time></trkpt><trkpt lat="35.81503044260984" lon="10.64631411048868"><ele>3.9999999999999996</ele><time>2026-04-05T09:07:02.999Z</time></trkpt><trkpt lat="35.81497206832819" lon="10.646366259375155"><ele>4.0</ele><time>2026-04-05T09:07:03.999Z</time></trkpt><trkpt lat="35.814910000496305" lon="10.646417786158825"><ele>3.9999999999999996</ele><time>2026-04-05T09:07:04.999Z</time></trkpt><trkpt lat="35.81484318095673" lon="10.64647257911785"><ele>4.0</ele><time>2026-04-05T09:07:05.999Z</time></trkpt><trkpt lat="35.81476130272856" lon="10.646537924575862"><ele>4.0</ele><time>2026-04-05T09:07:06.999Z</time></trkpt><trkpt lat="35.81468650548461" lon="10.646601640190656"><ele>4.0</ele><time>2026-04-05T09:07:07.999Z</time></trkpt><trkpt lat="35.81461981823235" lon="10.646657219402856"><ele>3.9999999999999996</ele><time>2026-04-05T09:07:08.999Z</time></trkpt><trkpt lat="35.81454951291945" lon="10.6467163512648"><ele>4.0</ele><time>2026-04-05T09:07:09.999Z</time></trkpt><trkpt lat="35.814482514837344" lon="10.646775108267015"><ele>3.9999999999999996</ele><time>2026-04-05T09:07:10.999Z</time></trkpt><trkpt lat="35.81441757719501" lon="10.64683331454735"><ele>4.0</ele><time>2026-04-05T09:07:11.999Z</time></trkpt><trkpt lat="35.81435411744413" lon="10.646887520922169"><ele>4.0</ele><time>2026-04-05T09:07:12.999Z</time></trkpt><trkpt lat="35.81428910005194" lon="10.646939535523307"><ele>4.0</ele><time>2026-04-05T09:07:13.999Z</time></trkpt><trkpt lat="35.814224452930205" lon="10.646991501740615"><ele>3.9999999999999996</ele><time>2026-04-05T09:07:14.999Z</time></trkpt><trkpt lat="35.81415986577529" lon="10.647045318681059"><ele>4.0</ele><time>2026-04-05T09:07:15.999Z</time></trkpt><trkpt lat="35.814095810937474" lon="10.647100883174788"><ele>3.833333333333333</ele><time>2026-04-05T09:07:16.999Z</time></trkpt><trkpt lat="35.8140273280905" lon="10.647157772311399"><ele>3.6666666666666665</ele><time>2026-04-05T09:07:17.999Z</time></trkpt><trkpt lat="35.81396138537327" lon="10.647218880641908"><ele>3.5</ele><time>2026-04-05T09:07:18.999Z</time></trkpt><trkpt lat="35.81389812822253" lon="10.647284114258637"><ele>3.333333333333333</ele><time>2026-04-05T09:07:19.999Z</time></trkpt><trkpt lat="35.81383569334216" lon="10.647346432184392"><ele>3.1666666666666665</ele><time>2026-04-05T09:07:20.999Z</time></trkpt><trkpt lat="35.81377257899314" lon="10.647406058030953"><ele>3.0</ele><time>2026-04-05T09:07:21.999Z</time></trkpt><trkpt lat="35.81371413049071" lon="10.647465301650863"><ele>3.0</ele><time>2026-04-05T09:07:22.999Z</time></trkpt><trkpt lat="35.81365565628412" lon="10.647525878825492"><ele>3.0</ele><time>2026-04-05T09:07:23.999Z</time></trkpt><trkpt lat="35.813593275289236" lon="10.647587921470507"><ele>3.0</ele><time>2026-04-05T09:07:24.999Z</time></trkpt><trkpt lat="35.813531333920125" lon="10.647651253880863"><ele>3.0</ele><time>2026-04-05T09:07:25.999Z</time></trkpt><trkpt lat="35.81346940537084" lon="10.64771611722153"><ele>3.0</ele><time>2026-04-05T09:07:26.999Z</time></trkpt><trkpt lat="35.81340625724402" lon="10.647781772442952"><ele>3.0</ele><time>2026-04-05T09:07:27.999Z</time></trkpt><trkpt lat="35.81334180134565" lon="10.647847205217714"><ele>4.0</ele><time>2026-04-05T09:07:28.999Z</time></trkpt><trkpt lat="35.8132784753034" lon="10.647911401504643"><ele>5.0</ele><time>2026-04-05T09:07:29.999Z</time></trkpt><trkpt lat="35.81321365514368" lon="10.647981491474788"><ele>6.0</ele><time>2026-04-05T09:07:30.999Z</time></trkpt><trkpt lat="35.81315427862099" lon="10.648052108909539"><ele>7.0</ele><time>2026-04-05T09:07:31.999Z</time></trkpt><trkpt lat="35.813091262573124" lon="10.648118921126404"><ele>8.0</ele><time>2026-04-05T09:07:32.999Z</time></trkpt><trkpt lat="35.81302902085377" lon="10.64818054609103"><ele>9.0</ele><time>2026-04-05T09:07:33.999Z</time></trkpt><trkpt lat="35.81296158010776" lon="10.648245684863083"><ele>9.0</ele><time>2026-04-05T09:07:34.999Z</time></trkpt><trkpt lat="35.812894642907814" lon="10.648312739751722"><ele>9.0</ele><time>2026-04-05T09:07:35.999Z</time></trkpt><trkpt lat="35.81282808329917" lon="10.648379108607077"><ele>9.0</ele><time>2026-04-05T09:07:36.999Z</time></trkpt><trkpt lat="35.81276642422122" lon="10.64844813827299"><ele>9.0</ele><time>2026-04-05T09:07:37.999Z</time></trkpt><trkpt lat="35.81270230573083" lon="10.64851583045664"><ele>9.0</ele><time>2026-04-05T09:07:38.999Z</time></trkpt><trkpt lat="35.81263373688637" lon="10.648581160847135"><ele>9.0</ele><time>2026-04-05T09:07:39.999Z</time></trkpt><trkpt lat="35.81256399247046" lon="10.64865034551469"><ele>8.0</ele><time>2026-04-05T09:07:40.999Z</time></trkpt><trkpt lat="35.81249510921479" lon="10.648722930616687"><ele>7.0</ele><time>2026-04-05T09:07:41.999Z</time></trkpt><trkpt lat="35.812423227476316" lon="10.648796358963622"><ele>6.0</ele><time>2026-04-05T09:07:42.999Z</time></trkpt><trkpt lat="35.81235021541633" lon="10.648869409266208"><ele>5.0</ele><time>2026-04-05T09:07:43.999Z</time></trkpt><trkpt lat="35.81227765039148" lon="10.648944358712143"><ele>4.0</ele><time>2026-04-05T09:07:44.999Z</time></trkpt><trkpt lat="35.81220725217249" lon="10.649017001620905"><ele>3.9999999999999996</ele><time>2026-04-05T09:07:45.999Z</time></trkpt><trkpt lat="35.81213565554228" lon="10.6490833348541"><ele>4.0</ele><time>2026-04-05T09:07:46.999Z</time></trkpt><trkpt lat="35.81206577708582" lon="10.649150947877855"><ele>4.0</ele><time>2026-04-05T09:07:47.999Z</time></trkpt><trkpt lat="35.81199771450196" lon="10.649220437078371"><ele>4.0</ele><time>2026-04-05T09:07:48.999Z</time></trkpt><trkpt lat="35.81192903705474" lon="10.649290668255476"><ele>3.9999999999999996</ele><time>2026-04-05T09:07:49.999Z</time></trkpt><trkpt lat="35.8118628783279" lon="10.649361017274055"><ele>4.0</ele><time>2026-04-05T09:07:50.999Z</time></trkpt><trkpt lat="35.81179842126327" lon="10.649429956224532"><ele>3.833333333333333</ele><time>2026-04-05T09:07:51.999Z</time></trkpt><trkpt lat="35.81173286991922" lon="10.649496901831148"><ele>3.6666666666666665</ele><time>2026-04-05T09:07:52.999Z</time></trkpt><trkpt lat="35.8116661471395" lon="10.649563911886846"><ele>3.5</ele><time>2026-04-05T09:07:53.999Z</time></trkpt><trkpt lat="35.81159864896827" lon="10.649626926618472"><ele>3.333333333333333</ele><time>2026-04-05T09:07:54.999Z</time></trkpt><trkpt lat="35.81153294194958" lon="10.649692855027254"><ele>3.1666666666666665</ele><time>2026-04-05T09:07:55.999Z</time></trkpt><trkpt lat="35.81146870266695" lon="10.649760948380752"><ele>3.0</ele><time>2026-04-05T09:07:56.999Z</time></trkpt><trkpt lat="35.811399700992936" lon="10.649830202635528"><ele>3.0</ele><time>2026-04-05T09:07:57.999Z</time></trkpt><trkpt lat="35.81132264774449" lon="10.64990534780123"><ele>3.0</ele><time>2026-04-05T09:07:58.999Z</time></trkpt><trkpt lat="35.8112313954846" lon="10.649993096983142"><ele>3.0</ele><time>2026-04-05T09:07:59.999Z</time></trkpt><trkpt lat="35.81114665029233" lon="10.650081804152482"><ele>3.0</ele><time>2026-04-05T09:08:00.999Z</time></trkpt><trkpt lat="35.81106463339437" lon="10.650165154145576"><ele>3.0</ele><time>2026-04-05T09:08:01.999Z</time></trkpt><trkpt lat="35.81098348630126" lon="10.650247554352601"><ele>2.6</ele><time>2026-04-05T09:08:02.999Z</time></trkpt><trkpt lat="35.81090247897802" lon="10.650327542125403"><ele>2.1999999999999997</ele><time>2026-04-05T09:08:03.999Z</time></trkpt><trkpt lat="35.81082141121506" lon="10.650406485952116"><ele>1.8</ele><time>2026-04-05T09:08:04.999Z</time></trkpt><trkpt lat="35.81074094872357" lon="10.650487659864199"><ele>1.4</ele><time>2026-04-05T09:08:05.999Z</time></trkpt><trkpt lat="35.81066231728099" lon="10.650570805064268"><ele>1.0</ele><time>2026-04-05T09:08:06.999Z</time></trkpt><trkpt lat="35.810588774924504" lon="10.650648658286004"><ele>1.0</ele><time>2026-04-05T09:08:07.999Z</time></trkpt><trkpt lat="35.81051868193119" lon="10.650717929971254"><ele>1.0</ele><time>2026-04-05T09:08:08.999Z</time></trkpt><trkpt lat="35.81045428217901" lon="10.650779349123319"><ele>1.0</ele><time>2026-04-05T09:08:09.999Z</time></trkpt><trkpt lat="35.81038773160344" lon="10.650842889456607"><ele>1.0</ele><time>2026-04-05T09:08:10.999Z</time></trkpt><trkpt lat="35.810316940451656" lon="10.650912893590993"><ele>1.0</ele><time>2026-04-05T09:08:12Z</time></trkpt><trkpt lat="35.810221158397184" lon="10.650998529812048"><ele>1.2000000000000002</ele><time>2026-04-05T09:08:13Z</time></trkpt><trkpt lat="35.81014298471743" lon="10.651078444270444"><ele>1.4000000000000001</ele><time>2026-04-05T09:08:14Z</time></trkpt><trkpt lat="35.81006625840572" lon="10.651144434509032"><ele>1.6</ele><time>2026-04-05T09:08:15Z</time></trkpt><trkpt lat="35.80998834750142" lon="10.65120307003894"><ele>1.8</ele><time>2026-04-05T09:08:16Z</time></trkpt><trkpt lat="35.80990814599456" lon="10.651258840405646"><ele>2.0</ele><time>2026-04-05T09:08:17Z</time></trkpt><trkpt lat="35.80982781757901" lon="10.65130857035943"><ele>2.0</ele><time>2026-04-05T09:08:18Z</time></trkpt><trkpt lat="35.809743349574546" lon="10.651355465141224"><ele>2.0</ele><time>2026-04-05T09:08:19Z</time></trkpt><trkpt lat="35.8096549186383" lon="10.651401606842931"><ele>2.0</ele><time>2026-04-05T09:08:20Z</time></trkpt><trkpt lat="35.80956433125348" lon="10.651435718283398"><ele>2.0</ele><time>2026-04-05T09:08:21Z</time></trkpt><trkpt lat="35.809469368638744" lon="10.651459696902865"><ele>2.0</ele><time>2026-04-05T09:08:22Z</time></trkpt><trkpt lat="35.80937844356874" lon="10.651481730254952"><ele>2.6</ele><time>2026-04-05T09:08:23Z</time></trkpt><trkpt lat="35.80928825759055" lon="10.651494396308555"><ele>3.2</ele><time>2026-04-05T09:08:24Z</time></trkpt><trkpt lat="35.80919604684465" lon="10.651503775586544"><ele>3.8</ele><time>2026-04-05T09:08:24.999Z</time></trkpt><trkpt lat="35.80910129134151" lon="10.65150437942417"><ele>4.4</ele><time>2026-04-05T09:08:25.999Z</time></trkpt><trkpt lat="35.80900529574269" lon="10.651494943747439"><ele>5.0</ele><time>2026-04-05T09:08:26.999Z</time></trkpt><trkpt lat="35.80890754810104" lon="10.651483265365844"><ele>5.0</ele><time>2026-04-05T09:08:27.999Z</time></trkpt><trkpt lat="35.80880780689418" lon="10.651474370775434"><ele>5.0</ele><time>2026-04-05T09:08:28.999Z</time></trkpt><trkpt lat="35.80871405393437" lon="10.651457097282849"><ele>5.0</ele><time>2026-04-05T09:08:29.999Z</time></trkpt><trkpt lat="35.80862670788573" lon="10.6514261574258"><ele>5.0</ele><time>2026-04-05T09:08:30.999Z</time></trkpt><trkpt lat="35.80853990573582" lon="10.651392887398295"><ele>5.0</ele><time>2026-04-05T09:08:31.999Z</time></trkpt><trkpt lat="35.8084499433328" lon="10.65135702646754"><ele>5.2</ele><time>2026-04-05T09:08:32.999Z</time></trkpt><trkpt lat="35.80835882629415" lon="10.651314797735667"><ele>5.4</ele><time>2026-04-05T09:08:33.999Z</time></trkpt><trkpt lat="35.80826379595054" lon="10.65126307841361"><ele>5.6</ele><time>2026-04-05T09:08:34.999Z</time></trkpt><trkpt lat="35.80816682140115" lon="10.651207400841683"><ele>5.8</ele><time>2026-04-05T09:08:35.999Z</time></trkpt><trkpt lat="35.80806881086388" lon="10.651158722771594"><ele>6.0</ele><time>2026-04-05T09:08:36.999Z</time></trkpt><trkpt lat="35.80797050840904" lon="10.651106362821388"><ele>6.0</ele><time>2026-04-05T09:08:37.999Z</time></trkpt><trkpt lat="35.80787269719652" lon="10.651058723021833"><ele>6.0</ele><time>2026-04-05T09:08:38.999Z</time></trkpt><trkpt lat="35.80777512730704" lon="10.65101532588764"><ele>6.0</ele><time>2026-04-05T09:08:39.999Z</time></trkpt><trkpt lat="35.80768177388258" lon="10.650964246488543"><ele>6.0</ele><time>2026-04-05T09:08:40.999Z</time></trkpt><trkpt lat="35.80759089808" lon="10.650904971898141"><ele>6.0</ele><time>2026-04-05T09:08:41.999Z</time></trkpt><trkpt lat="35.80750221340629" lon="10.650843439000885"><ele>6.0</ele><time>2026-04-05T09:08:42.999Z</time></trkpt><trkpt lat="35.80741968892339" lon="10.650768746469952"><ele>6.0</ele><time>2026-04-05T09:08:43.999Z</time></trkpt><trkpt lat="35.80735009540892" lon="10.650684299807322"><ele>6.0</ele><time>2026-04-05T09:08:44.999Z</time></trkpt><trkpt lat="35.80729535860733" lon="10.650604908309392"><ele>6.0</ele><time>2026-04-05T09:08:45.999Z</time></trkpt><trkpt lat="35.8072410565023" lon="10.650530555909297"><ele>6.0</ele><time>2026-04-05T09:08:46.999Z</time></trkpt><trkpt lat="35.80719514812284" lon="10.650466517350244"><ele>6.0</ele><time>2026-04-05T09:08:47.999Z</time></trkpt><trkpt lat="35.807148780536785" lon="10.650409735184384"><ele>6.0</ele><time>2026-04-05T09:08:48.999Z</time></trkpt><trkpt lat="35.80703244302518" lon="10.65035789877518"><ele>6.0</ele><time>2026-04-05T09:08:50.999Z</time></trkpt><trkpt lat="35.80696851150546" lon="10.650366029441393"><ele>6.0</ele><time>2026-04-05T09:08:51.999Z</time></trkpt><trkpt lat="35.80687352924645" lon="10.650465533713858"><ele>6.0</ele><time>2026-04-05T09:08:53.999Z</time></trkpt><trkpt lat="35.80682520112402" lon="10.650528687046943"><ele>6.0</ele><time>2026-04-05T09:08:54.999Z</time></trkpt><trkpt lat="35.80676700641907" lon="10.650591195052078"><ele>5.666666666666667</ele><time>2026-04-05T09:08:55.999Z</time></trkpt><trkpt lat="35.806710428628115" lon="10.650668924206785"><ele>5.333333333333333</ele><time>2026-04-05T09:08:56.999Z</time></trkpt><trkpt lat="35.806658301513494" lon="10.650752647356533"><ele>5.0</ele><time>2026-04-05T09:08:57.999Z</time></trkpt><trkpt lat="35.806602306343684" lon="10.65083457157667"><ele>4.666666666666666</ele><time>2026-04-05T09:08:58.999Z</time></trkpt><trkpt lat="35.80654782102927" lon="10.650913532548511"><ele>4.333333333333333</ele><time>2026-04-05T09:08:59.999Z</time></trkpt><trkpt lat="35.80650083244481" lon="10.65098349125091"><ele>4.0</ele><time>2026-04-05T09:09:00.999Z</time></trkpt><trkpt lat="35.80645668192247" lon="10.651047010183305"><ele>4.2</ele><time>2026-04-05T09:09:01.999Z</time></trkpt><trkpt lat="35.806378077087835" lon="10.651146808808404"><ele>4.4</ele><time>2026-04-05T09:09:04Z</time></trkpt><trkpt lat="35.80629877130286" lon="10.651240804828996"><ele>4.6</ele><time>2026-04-05T09:09:06Z</time></trkpt><trkpt lat="35.80622235731308" lon="10.651338894984455"><ele>4.8</ele><time>2026-04-05T09:09:08Z</time></trkpt><trkpt lat="35.806172032140786" lon="10.651394043054855"><ele>5.0</ele><time>2026-04-05T09:09:09Z</time></trkpt><trkpt lat="35.806114993114114" lon="10.651453290317109"><ele>5.0</ele><time>2026-04-05T09:09:10Z</time></trkpt><trkpt lat="35.80605782193508" lon="10.65152207900181"><ele>5.0</ele><time>2026-04-05T09:09:11Z</time></trkpt><trkpt lat="35.805995043004096" lon="10.651602643552087"><ele>5.0</ele><time>2026-04-05T09:09:12Z</time></trkpt><trkpt lat="35.80592919954605" lon="10.651680002417516"><ele>5.0</ele><time>2026-04-05T09:09:13Z</time></trkpt><trkpt lat="35.80586786640557" lon="10.651754402927445"><ele>5.0</ele><time>2026-04-05T09:09:14Z</time></trkpt><trkpt lat="35.805810431791215" lon="10.651820565733216"><ele>5.0</ele><time>2026-04-05T09:09:15Z</time></trkpt><trkpt lat="35.80575456550435" lon="10.65188551031889"><ele>4.8</ele><time>2026-04-05T09:09:16Z</time></trkpt><trkpt lat="35.80570921390964" lon="10.65193938882518"><ele>4.6</ele><time>2026-04-05T09:09:17Z</time></trkpt><trkpt lat="35.80562990474537" lon="10.652046795009051"><ele>4.4</ele><time>2026-04-05T09:09:19Z</time></trkpt><trkpt lat="35.805536283633884" lon="10.652144910494798"><ele>4.2</ele><time>2026-04-05T09:09:21Z</time></trkpt><trkpt lat="35.80547537908588" lon="10.652211853380484"><ele>4.0</ele><time>2026-04-05T09:09:22Z</time></trkpt><trkpt lat="35.80540668069812" lon="10.652293346227497"><ele>4.333333333333333</ele><time>2026-04-05T09:09:23Z</time></trkpt><trkpt lat="35.805353287197605" lon="10.652361097814973"><ele>4.666666666666666</ele><time>2026-04-05T09:09:24Z</time></trkpt><trkpt lat="35.80529379337803" lon="10.652429136198023"><ele>5.0</ele><time>2026-04-05T09:09:25Z</time></trkpt><trkpt lat="35.805230347687164" lon="10.652500095928646"><ele>5.333333333333333</ele><time>2026-04-05T09:09:26Z</time></trkpt><trkpt lat="35.805165300131" lon="10.652580000831247"><ele>5.666666666666667</ele><time>2026-04-05T09:09:27Z</time></trkpt><trkpt lat="35.80509519728091" lon="10.652661954034444"><ele>6.0</ele><time>2026-04-05T09:09:28Z</time></trkpt><trkpt lat="35.805020600174984" lon="10.652745099592495"><ele>6.0</ele><time>2026-04-05T09:09:29Z</time></trkpt><trkpt lat="35.804947305562166" lon="10.652828990731598"><ele>6.0</ele><time>2026-04-05T09:09:30Z</time></trkpt><trkpt lat="35.80487586309079" lon="10.652914799835623"><ele>6.0</ele><time>2026-04-05T09:09:31Z</time></trkpt><trkpt lat="35.804803894245914" lon="10.653001774557463"><ele>6.0</ele><time>2026-04-05T09:09:32Z</time></trkpt><trkpt lat="35.80473196169321" lon="10.653079466950329"><ele>6.0</ele><time>2026-04-05T09:09:33Z</time></trkpt><trkpt lat="35.804662466717204" lon="10.65315576234195"><ele>6.0</ele><time>2026-04-05T09:09:34Z</time></trkpt><trkpt lat="35.80459315912865" lon="10.653233512620758"><ele>6.0</ele><time>2026-04-05T09:09:35Z</time></trkpt><trkpt lat="35.80452867992086" lon="10.653314948895202"><ele>6.0</ele><time>2026-04-05T09:09:36Z</time></trkpt><trkpt lat="35.80447048271348" lon="10.653386235690785"><ele>6.0</ele><time>2026-04-05T09:09:37Z</time></trkpt><trkpt lat="35.80441410643864" lon="10.653455704880697"><ele>6.0</ele><time>2026-04-05T09:09:38Z</time></trkpt><trkpt lat="35.80435263177068" lon="10.653530120089115"><ele>6.0</ele><time>2026-04-05T09:09:39Z</time></trkpt><trkpt lat="35.8042894433063" lon="10.653603288458092"><ele>5.666666666666667</ele><time>2026-04-05T09:09:40Z</time></trkpt><trkpt lat="35.804225643507316" lon="10.653677645861425"><ele>5.333333333333333</ele><time>2026-04-05T09:09:41Z</time></trkpt><trkpt lat="35.804160488130975" lon="10.65375263138023"><ele>5.0</ele><time>2026-04-05T09:09:42Z</time></trkpt><trkpt lat="35.80409608790205" lon="10.653825826897759"><ele>4.666666666666666</ele><time>2026-04-05T09:09:43Z</time></trkpt><trkpt lat="35.80403171170627" lon="10.653899382017281"><ele>4.333333333333333</ele><time>2026-04-05T09:09:44Z</time></trkpt><trkpt lat="35.80396419537494" lon="10.653976640141686"><ele>4.0</ele><time>2026-04-05T09:09:45Z</time></trkpt><trkpt lat="35.8038992465145" lon="10.654051597514616"><ele>3.9999999999999996</ele><time>2026-04-05T09:09:46Z</time></trkpt><trkpt lat="35.80383174542116" lon="10.654130596714518"><ele>4.0</ele><time>2026-04-05T09:09:47Z</time></trkpt><trkpt lat="35.80376558712134" lon="10.654210298060475"><ele>4.0</ele><time>2026-04-05T09:09:48Z</time></trkpt><trkpt lat="35.80370393513232" lon="10.654285835405636"><ele>4.0</ele><time>2026-04-05T09:09:49Z</time></trkpt><trkpt lat="35.80364800119632" lon="10.654353664684356"><ele>3.9999999999999996</ele><time>2026-04-05T09:09:50Z</time></trkpt><trkpt lat="35.803590243961374" lon="10.65442037741714"><ele>4.0</ele><time>2026-04-05T09:09:51Z</time></trkpt><trkpt lat="35.80352966737991" lon="10.654492075814789"><ele>4.5</ele><time>2026-04-05T09:09:52Z</time></trkpt><trkpt lat="35.80346685653371" lon="10.654563998141015"><ele>5.0</ele><time>2026-04-05T09:09:53Z</time></trkpt><trkpt lat="35.8034014079001" lon="10.65464176124319"><ele>5.5</ele><time>2026-04-05T09:09:54Z</time></trkpt><trkpt lat="35.80333697972472" lon="10.654716368259775"><ele>6.0</ele><time>2026-04-05T09:09:55Z</time></trkpt><trkpt lat="35.80327276552784" lon="10.654791137227289"><ele>6.500000000000001</ele><time>2026-04-05T09:09:56Z</time></trkpt><trkpt lat="35.80321128246948" lon="10.65486402712728"><ele>7.0</ele><time>2026-04-05T09:09:57Z</time></trkpt><trkpt lat="35.80315277809617" lon="10.654934190734663"><ele>7.0</ele><time>2026-04-05T09:09:58Z</time></trkpt><trkpt lat="35.803091588686605" lon="10.655005373759595"><ele>6.999999999999999</ele><time>2026-04-05T09:09:59Z</time></trkpt><trkpt lat="35.803027158669146" lon="10.655077259583196"><ele>6.999999999999999</ele><time>2026-04-05T09:10:00Z</time></trkpt><trkpt lat="35.80296475286317" lon="10.655153994797631"><ele>7.0</ele><time>2026-04-05T09:10:01Z</time></trkpt><trkpt lat="35.80289497311221" lon="10.655235471416725"><ele>7.0</ele><time>2026-04-05T09:10:02Z</time></trkpt><trkpt lat="35.80282353309382" lon="10.655314284062722"><ele>6.6</ele><time>2026-04-05T09:10:03Z</time></trkpt><trkpt lat="35.80275358684047" lon="10.655398592342621"><ele>6.199999999999999</ele><time>2026-04-05T09:10:04Z</time></trkpt><trkpt lat="35.802683138309554" lon="10.655486486765607"><ele>5.8</ele><time>2026-04-05T09:10:05Z</time></trkpt><trkpt lat="35.80260914497983" lon="10.655570181660082"><ele>5.4</ele><time>2026-04-05T09:10:06Z</time></trkpt><trkpt lat="35.80253410961907" lon="10.655654840052177"><ele>5.0</ele><time>2026-04-05T09:10:07Z</time></trkpt><trkpt lat="35.80246068242901" lon="10.655743750487135"><ele>5.0</ele><time>2026-04-05T09:10:08Z</time></trkpt><trkpt lat="35.80238614218405" lon="10.65583281334456"><ele>5.0</ele><time>2026-04-05T09:10:09Z</time></trkpt><trkpt lat="35.80230721047433" lon="10.6559223729727"><ele>5.0</ele><time>2026-04-05T09:10:10Z</time></trkpt><trkpt lat="35.80221890477342" lon="10.656025539493598"><ele>5.0</ele><time>2026-04-05T09:10:11Z</time></trkpt><trkpt lat="35.802137028925905" lon="10.65612024445596"><ele>5.0</ele><time>2026-04-05T09:10:12Z</time></trkpt><trkpt lat="35.802064169498095" lon="10.656204983349928"><ele>5.0</ele><time>2026-04-05T09:10:13Z</time></trkpt><trkpt lat="35.80199861616514" lon="10.656283963120126"><ele>5.0</ele><time>2026-04-05T09:10:14Z</time></trkpt><trkpt lat="35.80193560030108" lon="10.656360774969805"><ele>5.0</ele><time>2026-04-05T09:10:15Z</time></trkpt><trkpt lat="35.80188213104634" lon="10.656432473577857"><ele>5.0</ele><time>2026-04-05T09:10:16Z</time></trkpt><trkpt lat="35.80182769514707" lon="10.656508023201233"><ele>5.0</ele><time>2026-04-05T09:10:17Z</time></trkpt><trkpt lat="35.80176123439155" lon="10.656594493863293"><ele>5.0</ele><time>2026-04-05T09:10:18Z</time></trkpt><trkpt lat="35.80170909562855" lon="10.656663631577297"><ele>5.0</ele><time>2026-04-05T09:10:19Z</time></trkpt><trkpt lat="35.801659662862626" lon="10.656727033405948"><ele>5.0</ele><time>2026-04-05T09:10:20Z</time></trkpt><trkpt lat="35.80160947589365" lon="10.656783567955962"><ele>5.0</ele><time>2026-04-05T09:10:21Z</time></trkpt><trkpt lat="35.801556550260166" lon="10.656840723550424"><ele>5.0</ele><time>2026-04-05T09:10:22Z</time></trkpt><trkpt lat="35.8014958492921" lon="10.65687646889102"><ele>5.0</ele><time>2026-04-05T09:10:23Z</time></trkpt><trkpt lat="35.80139654233286" lon="10.656964528090729"><ele>5.0</ele><time>2026-04-05T09:10:25Z</time></trkpt><trkpt lat="35.80136132013693" lon="10.657048764933412"><ele>5.2</ele><time>2026-04-05T09:10:26Z</time></trkpt><trkpt lat="35.8013203616605" lon="10.65714990818338"><ele>5.4</ele><time>2026-04-05T09:10:27Z</time></trkpt><trkpt lat="35.80125480969685" lon="10.657258219686208"><ele>5.6</ele><time>2026-04-05T09:10:28Z</time></trkpt><trkpt lat="35.80117844000238" lon="10.657362242189848"><ele>5.8</ele><time>2026-04-05T09:10:29Z</time></trkpt><trkpt lat="35.801098356800935" lon="10.657469945394345"><ele>6.0</ele><time>2026-04-05T09:10:30Z</time></trkpt><trkpt lat="35.801019751523405" lon="10.657575836978033"><ele>6.25</ele><time>2026-04-05T09:10:31Z</time></trkpt><trkpt lat="35.800935404421836" lon="10.657687936255348"><ele>6.5</ele><time>2026-04-05T09:10:32Z</time></trkpt><trkpt lat="35.80085162188508" lon="10.657799180108901"><ele>6.75</ele><time>2026-04-05T09:10:33Z</time></trkpt><trkpt lat="35.800768228067" lon="10.657908866159463"><ele>7.0</ele><time>2026-04-05T09:10:34Z</time></trkpt><trkpt lat="35.8006832794798" lon="10.658020048599484"><ele>6.25</ele><time>2026-04-05T09:10:35Z</time></trkpt><trkpt lat="35.800599582762764" lon="10.658132076394528"><ele>5.5</ele><time>2026-04-05T09:10:36Z</time></trkpt><trkpt lat="35.80051519852087" lon="10.658244533087833"><ele>4.75</ele><time>2026-04-05T09:10:37Z</time></trkpt><trkpt lat="35.80042975670616" lon="10.658356484466603"><ele>4.0</ele><time>2026-04-05T09:10:38Z</time></trkpt><trkpt lat="35.8003488465159" lon="10.658465488156013"><ele>4.0</ele><time>2026-04-05T09:10:39Z</time></trkpt><trkpt lat="35.80027229374476" lon="10.658570976829672"><ele>4.0</ele><time>2026-04-05T09:10:40Z</time></trkpt><trkpt lat="35.80019941998809" lon="10.658665958645125"><ele>4.0</ele><time>2026-04-05T09:10:41Z</time></trkpt><trkpt lat="35.80013133943795" lon="10.658751037751271"><ele>4.0</ele><time>2026-04-05T09:10:42Z</time></trkpt><trkpt lat="35.80006723076096" lon="10.658833476612118"><ele>4.0</ele><time>2026-04-05T09:10:43Z</time></trkpt><trkpt lat="35.80000667554722" lon="10.658913708759039"><ele>4.333333333333333</ele><time>2026-04-05T09:10:44Z</time></trkpt><trkpt lat="35.79995080356688" lon="10.658986294878598"><ele>4.666666666666666</ele><time>2026-04-05T09:10:45Z</time></trkpt><trkpt lat="35.79989161430185" lon="10.65906292439542"><ele>5.0</ele><time>2026-04-05T09:10:46Z</time></trkpt><trkpt lat="35.7998334791171" lon="10.659147576178373"><ele>5.333333333333333</ele><time>2026-04-05T09:10:47Z</time></trkpt><trkpt lat="35.79977136791443" lon="10.659235237196695"><ele>5.666666666666667</ele><time>2026-04-05T09:10:48Z</time></trkpt><trkpt lat="35.79971367830753" lon="10.659313834206042"><ele>6.0</ele><time>2026-04-05T09:10:49Z</time></trkpt><trkpt lat="35.79965839665218" lon="10.659384998369534"><ele>5.999999999999999</ele><time>2026-04-05T09:10:50Z</time></trkpt><trkpt lat="35.79960769956037" lon="10.659451449109358"><ele>6.0</ele><time>2026-04-05T09:10:51Z</time></trkpt><trkpt lat="35.79955937348738" lon="10.659518089523718"><ele>6.0</ele><time>2026-04-05T09:10:52Z</time></trkpt><trkpt lat="35.799510459600455" lon="10.659585841342036"><ele>6.0</ele><time>2026-04-05T09:10:53Z</time></trkpt><trkpt lat="35.799465455570235" lon="10.659650124497217"><ele>6.0</ele><time>2026-04-05T09:10:54Z</time></trkpt><trkpt lat="35.79941818951039" lon="10.659711151199422"><ele>5.999999999999999</ele><time>2026-04-05T09:10:55Z</time></trkpt><trkpt lat="35.79936948292728" lon="10.659771955953007"><ele>6.0</ele><time>2026-04-05T09:10:56Z</time></trkpt><trkpt lat="35.799327980071" lon="10.659834975128193"><ele>6.0</ele><time>2026-04-05T09:10:57Z</time></trkpt><trkpt lat="35.79923593398172" lon="10.659943223593062"><ele>6.0</ele><time>2026-04-05T09:10:59Z</time></trkpt><trkpt lat="35.799168622386425" lon="10.659982408923941"><ele>6.0</ele><time>2026-04-05T09:11:00Z</time></trkpt><trkpt lat="35.79909464663925" lon="10.659992789164734"><ele>6.0</ele><time>2026-04-05T09:11:01Z</time></trkpt><trkpt lat="35.79901725608896" lon="10.659979913476494"><ele>6.0</ele><time>2026-04-05T09:11:02Z</time></trkpt><trkpt lat="35.798940209551965" lon="10.659945665281993"><ele>6.0</ele><time>2026-04-05T09:11:03Z</time></trkpt><trkpt lat="35.79886439947599" lon="10.659894878046762"><ele>6.0</ele><time>2026-04-05T09:11:04Z</time></trkpt><trkpt lat="35.79878434643818" lon="10.659818757299849"><ele>6.0</ele><time>2026-04-05T09:11:05Z</time></trkpt><trkpt lat="35.79869530772644" lon="10.659707421975245"><ele>6.0</ele><time>2026-04-05T09:11:06Z</time></trkpt><trkpt lat="35.79860476104929" lon="10.65957785508444"><ele>6.0</ele><time>2026-04-05T09:11:07Z</time></trkpt><trkpt lat="35.79850647920996" lon="10.65943382791465"><ele>6.666666666666666</ele><time>2026-04-05T09:11:08Z</time></trkpt><trkpt lat="35.79837729427145" lon="10.659271692639614"><ele>7.333333333333333</ele><time>2026-04-05T09:11:09Z</time></trkpt><trkpt lat="35.79821767588981" lon="10.659077003047043"><ele>8.0</ele><time>2026-04-05T09:11:10Z</time></trkpt><trkpt lat="35.798087254897474" lon="10.658908684714875"><ele>8.0</ele><time>2026-04-05T09:11:11Z</time></trkpt><trkpt lat="35.79798527368042" lon="10.658769048170136"><ele>8.0</ele><time>2026-04-05T09:11:12Z</time></trkpt><trkpt lat="35.79789060023291" lon="10.658639596804598"><ele>8.0</ele><time>2026-04-05T09:11:13Z</time></trkpt><trkpt lat="35.79779794544296" lon="10.65851865285795"><ele>8.0</ele><time>2026-04-05T09:11:14Z</time></trkpt><trkpt lat="35.79771183332289" lon="10.658406882188283"><ele>8.5</ele><time>2026-04-05T09:11:15Z</time></trkpt><trkpt lat="35.797637786860946" lon="10.658301574474516"><ele>9.0</ele><time>2026-04-05T09:11:16Z</time></trkpt><trkpt lat="35.79756234158823" lon="10.658190788692783"><ele>9.5</ele><time>2026-04-05T09:11:17Z</time></trkpt><trkpt lat="35.7974822569888" lon="10.658077979528782"><ele>10.0</ele><time>2026-04-05T09:11:18Z</time></trkpt><trkpt lat="35.79740472460344" lon="10.657964227133263"><ele>10.0</ele><time>2026-04-05T09:11:19Z</time></trkpt><trkpt lat="35.79732776655019" lon="10.657848824436972"><ele>10.0</ele><time>2026-04-05T09:11:20Z</time></trkpt><trkpt lat="35.79725104067772" lon="10.657729356806426"><ele>10.0</ele><time>2026-04-05T09:11:21Z</time></trkpt><trkpt lat="35.79717390395054" lon="10.65760670431837"><ele>10.0</ele><time>2026-04-05T09:11:22Z</time></trkpt><trkpt lat="35.79710127950816" lon="10.657478708178852"><ele>10.0</ele><time>2026-04-05T09:11:23Z</time></trkpt><trkpt lat="35.797028821509564" lon="10.657346191858709"><ele>10.0</ele><time>2026-04-05T09:11:24Z</time></trkpt><trkpt lat="35.79695726365362" lon="10.65721068917652"><ele>10.0</ele><time>2026-04-05T09:11:25Z</time></trkpt><trkpt lat="35.79688943846724" lon="10.65706893816149"><ele>10.0</ele><time>2026-04-05T09:11:26Z</time></trkpt><trkpt lat="35.796821581529414" lon="10.656917564990312"><ele>10.0</ele><time>2026-04-05T09:11:27Z</time></trkpt><trkpt lat="35.79675339289116" lon="10.656763013563818"><ele>10.0</ele><time>2026-04-05T09:11:28Z</time></trkpt><trkpt lat="35.796686858064845" lon="10.65660240958087"><ele>10.0</ele><time>2026-04-05T09:11:29Z</time></trkpt><trkpt lat="35.796621755350294" lon="10.656432104489946"><ele>10.0</ele><time>2026-04-05T09:11:30Z</time></trkpt><trkpt lat="35.79655212425144" lon="10.656251613435032"><ele>9.666666666666668</ele><time>2026-04-05T09:11:31Z</time></trkpt><trkpt lat="35.79648707744473" lon="10.65606106865637"><ele>9.333333333333334</ele><time>2026-04-05T09:11:32Z</time></trkpt><trkpt lat="35.796428512502175" lon="10.65585861835051"><ele>9.0</ele><time>2026-04-05T09:11:33Z</time></trkpt><trkpt lat="35.796382850537896" lon="10.655641090330272"><ele>9.0</ele><time>2026-04-05T09:11:34Z</time></trkpt><trkpt lat="35.79633601776318" lon="10.655412854881726"><ele>9.0</ele><time>2026-04-05T09:11:35Z</time></trkpt><trkpt lat="35.79628845784042" lon="10.655179681931877"><ele>9.0</ele><time>2026-04-05T09:11:36Z</time></trkpt><trkpt lat="35.79624565423983" lon="10.654948355032033"><ele>9.333333333333334</ele><time>2026-04-05T09:11:37Z</time></trkpt><trkpt lat="35.796211312145935" lon="10.654717032395597"><ele>9.666666666666668</ele><time>2026-04-05T09:11:38Z</time></trkpt><trkpt lat="35.79618905620222" lon="10.654485748996958"><ele>10.0</ele><time>2026-04-05T09:11:39Z</time></trkpt><trkpt lat="35.796173151081035" lon="10.654251881634927"><ele>10.0</ele><time>2026-04-05T09:11:40Z</time></trkpt><trkpt lat="35.79616029840179" lon="10.654004803375981"><ele>10.0</ele><time>2026-04-05T09:11:41Z</time></trkpt><trkpt lat="35.79615570310224" lon="10.653764237508325"><ele>10.0</ele><time>2026-04-05T09:11:42Z</time></trkpt><trkpt lat="35.796159054436124" lon="10.653532944117094"><ele>10.0</ele><time>2026-04-05T09:11:43Z</time></trkpt><trkpt lat="35.79616490161471" lon="10.653323452378915"><ele>10.0</ele><time>2026-04-05T09:11:44Z</time></trkpt><trkpt lat="35.796171175570144" lon="10.653128469391909"><ele>10.0</ele><time>2026-04-05T09:11:45Z</time></trkpt><trkpt lat="35.796182540956856" lon="10.652935405487874"><ele>10.25</ele><time>2026-04-05T09:11:46Z</time></trkpt><trkpt lat="35.7961938475112" lon="10.652747695079439"><ele>10.5</ele><time>2026-04-05T09:11:47Z</time></trkpt><trkpt lat="35.79620941413735" lon="10.652560382091085"><ele>10.75</ele><time>2026-04-05T09:11:48Z</time></trkpt><trkpt lat="35.79622723418445" lon="10.652387623430894"><ele>11.0</ele><time>2026-04-05T09:11:49Z</time></trkpt><trkpt lat="35.79624505021191" lon="10.652224575973404"><ele>11.0</ele><time>2026-04-05T09:11:50Z</time></trkpt><trkpt lat="35.79626008792231" lon="10.652059565638647"><ele>11.0</ele><time>2026-04-05T09:11:51Z</time></trkpt><trkpt lat="35.79627388416839" lon="10.651894803524224"><ele>11.0</ele><time>2026-04-05T09:11:52Z</time></trkpt><trkpt lat="35.79628378067584" lon="10.651728040394872"><ele>11.0</ele><time>2026-04-05T09:11:53Z</time></trkpt><trkpt lat="35.79629359067353" lon="10.65156336623557"><ele>11.0</ele><time>2026-04-05T09:11:54Z</time></trkpt><trkpt lat="35.796305739298674" lon="10.651397877116958"><ele>11.0</ele><time>2026-04-05T09:11:55Z</time></trkpt><trkpt lat="35.79632178090728" lon="10.651234145155204"><ele>11.0</ele><time>2026-04-05T09:11:56Z</time></trkpt><trkpt lat="35.79634358808277" lon="10.651071959745694"><ele>11.0</ele><time>2026-04-05T09:11:57Z</time></trkpt><trkpt lat="35.7963654918002" lon="10.650911919798686"><ele>11.25</ele><time>2026-04-05T09:11:58Z</time></trkpt><trkpt lat="35.79638497155787" lon="10.65074383697352"><ele>11.5</ele><time>2026-04-05T09:11:59Z</time></trkpt><trkpt lat="35.796404641705394" lon="10.650565533209058"><ele>11.75</ele><time>2026-04-05T09:12:00Z</time></trkpt><trkpt lat="35.79642503055953" lon="10.650387315548688"><ele>12.0</ele><time>2026-04-05T09:12:01Z</time></trkpt><trkpt lat="35.796445555044485" lon="10.650209953042978"><ele>12.666666666666668</ele><time>2026-04-05T09:12:02Z</time></trkpt><trkpt lat="35.79646254644201" lon="10.650023593955952"><ele>13.333333333333334</ele><time>2026-04-05T09:12:03Z</time></trkpt><trkpt lat="35.796477578472874" lon="10.64983862667964"><ele>14.0</ele><time>2026-04-05T09:12:04Z</time></trkpt><trkpt lat="35.79649543665561" lon="10.64964649352515"><ele>14.333333333333334</ele><time>2026-04-05T09:12:05Z</time></trkpt><trkpt lat="35.796515001960145" lon="10.649448603368336"><ele>14.666666666666668</ele><time>2026-04-05T09:12:06Z</time></trkpt><trkpt lat="35.79653210786171" lon="10.649244979344177"><ele>15.0</ele><time>2026-04-05T09:12:07Z</time></trkpt><trkpt lat="35.7965505301715" lon="10.649035835828544"><ele>15.0</ele><time>2026-04-05T09:12:08Z</time></trkpt><trkpt lat="35.79656995665173" lon="10.648825469480595"><ele>15.0</ele><time>2026-04-05T09:12:09Z</time></trkpt><trkpt lat="35.79658990314608" lon="10.648603803674467"><ele>15.0</ele><time>2026-04-05T09:12:10Z</time></trkpt><trkpt lat="35.7966128917077" lon="10.648384554018731"><ele>15.0</ele><time>2026-04-05T09:12:11Z</time></trkpt><trkpt lat="35.79663074302069" lon="10.648159397007134"><ele>15.0</ele><time>2026-04-05T09:12:12Z</time></trkpt><trkpt lat="35.79665186719723" lon="10.647935718783533"><ele>15.0</ele><time>2026-04-05T09:12:13Z</time></trkpt><trkpt lat="35.7966715524467" lon="10.647709989546435"><ele>14.0</ele><time>2026-04-05T09:12:14Z</time></trkpt><trkpt lat="35.7966918993546" lon="10.647480490526721"><ele>13.0</ele><time>2026-04-05T09:12:15Z</time></trkpt><trkpt lat="35.7967157901479" lon="10.647257020372004"><ele>12.0</ele><time>2026-04-05T09:12:16Z</time></trkpt><trkpt lat="35.79673891762614" lon="10.64703529488188"><ele>12.666666666666668</ele><time>2026-04-05T09:12:17Z</time></trkpt><trkpt lat="35.7967590014972" lon="10.646809155465503"><ele>13.333333333333334</ele><time>2026-04-05T09:12:18Z</time></trkpt><trkpt lat="35.79678180201363" lon="10.646592801681617"><ele>14.0</ele><time>2026-04-05T09:12:19Z</time></trkpt><trkpt lat="35.79680800188411" lon="10.646377959625479"><ele>14.0</ele><time>2026-04-05T09:12:20Z</time></trkpt><trkpt lat="35.79683210366947" lon="10.646155781928968"><ele>14.0</ele><time>2026-04-05T09:12:21Z</time></trkpt><trkpt lat="35.79685366535813" lon="10.645928805752103"><ele>14.0</ele><time>2026-04-05T09:12:22Z</time></trkpt><trkpt lat="35.796871672930465" lon="10.645700982470151"><ele>14.666666666666668</ele><time>2026-04-05T09:12:23Z</time></trkpt><trkpt lat="35.79689089868138" lon="10.645481686986445"><ele>15.333333333333332</ele><time>2026-04-05T09:12:24Z</time></trkpt><trkpt lat="35.79690580149093" lon="10.645268626023046"><ele>16.0</ele><time>2026-04-05T09:12:25Z</time></trkpt><trkpt lat="35.796920008325046" lon="10.645068999139196"><ele>16.0</ele><time>2026-04-05T09:12:26Z</time></trkpt><trkpt lat="35.79692928853338" lon="10.644876138529686"><ele>16.0</ele><time>2026-04-05T09:12:27Z</time></trkpt><trkpt lat="35.796936234092485" lon="10.644684174956332"><ele>16.0</ele><time>2026-04-05T09:12:28Z</time></trkpt><trkpt lat="35.79694120129805" lon="10.644493083923688"><ele>16.0</ele><time>2026-04-05T09:12:29Z</time></trkpt><trkpt lat="35.79694715218574" lon="10.644306433090744"><ele>16.0</ele><time>2026-04-05T09:12:30Z</time></trkpt><trkpt lat="35.79695217921976" lon="10.644126979916859"><ele>16.0</ele><time>2026-04-05T09:12:31Z</time></trkpt><trkpt lat="35.796952503070294" lon="10.64396111369081"><ele>16.0</ele><time>2026-04-05T09:12:32Z</time></trkpt><trkpt lat="35.79695471005586" lon="10.643803748916154"><ele>16.0</ele><time>2026-04-05T09:12:33Z</time></trkpt><trkpt lat="35.79695710010604" lon="10.64364381378785"><ele>16.0</ele><time>2026-04-05T09:12:34Z</time></trkpt><trkpt lat="35.796959065034706" lon="10.643478472988985"><ele>16.0</ele><time>2026-04-05T09:12:35Z</time></trkpt><trkpt lat="35.79695647310293" lon="10.643304294668782"><ele>16.0</ele><time>2026-04-05T09:12:36Z</time></trkpt><trkpt lat="35.79694995379569" lon="10.643130066680628"><ele>16.0</ele><time>2026-04-05T09:12:37.001Z</time></trkpt><trkpt lat="35.796942139367964" lon="10.642955744148662"><ele>16.0</ele><time>2026-04-05T09:12:38.001Z</time></trkpt><trkpt lat="35.796936995142524" lon="10.642781684214727"><ele>16.0</ele><time>2026-04-05T09:12:39.001Z</time></trkpt><trkpt lat="35.796930742783864" lon="10.642603513809293"><ele>16.0</ele><time>2026-04-05T09:12:40.001Z</time></trkpt><trkpt lat="35.7969221579838" lon="10.642426930099631"><ele>15.5</ele><time>2026-04-05T09:12:41.001Z</time></trkpt><trkpt lat="35.7969128242624" lon="10.642247720538474"><ele>15.0</ele><time>2026-04-05T09:12:42.001Z</time></trkpt><trkpt lat="35.79689975964464" lon="10.642062105028238"><ele>14.5</ele><time>2026-04-05T09:12:43.001Z</time></trkpt><trkpt lat="35.79688498935063" lon="10.641880471712552"><ele>14.0</ele><time>2026-04-05T09:12:44.001Z</time></trkpt><trkpt lat="35.79686813248655" lon="10.641691011208177"><ele>14.0</ele><time>2026-04-05T09:12:45.001Z</time></trkpt><trkpt lat="35.796849745680056" lon="10.641504633399704"><ele>14.0</ele><time>2026-04-05T09:12:46.001Z</time></trkpt><trkpt lat="35.79683555451389" lon="10.6413307335885"><ele>14.0</ele><time>2026-04-05T09:12:47.001Z</time></trkpt><trkpt lat="35.79682266331292" lon="10.641165458462892"><ele>14.0</ele><time>2026-04-05T09:12:48.001Z</time></trkpt><trkpt lat="35.79681099040762" lon="10.64100453301966"><ele>14.25</ele><time>2026-04-05T09:12:49.001Z</time></trkpt><trkpt lat="35.7967982007811" lon="10.64084664103483"><ele>14.5</ele><time>2026-04-05T09:12:50.001Z</time></trkpt><trkpt lat="35.79678599522238" lon="10.64068654613581"><ele>14.75</ele><time>2026-04-05T09:12:51.001Z</time></trkpt><trkpt lat="35.79677123081257" lon="10.640524907114761"><ele>15.0</ele><time>2026-04-05T09:12:52.001Z</time></trkpt><trkpt lat="35.79675659406253" lon="10.64036294309604"><ele>15.5</ele><time>2026-04-05T09:12:53.001Z</time></trkpt><trkpt lat="35.796745506001244" lon="10.640204372243701"><ele>16.0</ele><time>2026-04-05T09:12:54.001Z</time></trkpt><trkpt lat="35.796734623176874" lon="10.640045637260863"><ele>16.5</ele><time>2026-04-05T09:12:55.001Z</time></trkpt><trkpt lat="35.79672285488814" lon="10.639881271910243"><ele>17.0</ele><time>2026-04-05T09:12:56.001Z</time></trkpt><trkpt lat="35.79670738014261" lon="10.639721153573246"><ele>17.0</ele><time>2026-04-05T09:12:57.001Z</time></trkpt><trkpt lat="35.79669225064468" lon="10.63956238674367"><ele>17.0</ele><time>2026-04-05T09:12:58.001Z</time></trkpt><trkpt lat="35.79667797746408" lon="10.63940366209997"><ele>17.0</ele><time>2026-04-05T09:12:59.001Z</time></trkpt><trkpt lat="35.7966671912564" lon="10.639250003243975"><ele>17.0</ele><time>2026-04-05T09:13:00.001Z</time></trkpt><trkpt lat="35.79665720344599" lon="10.639123053462267"><ele>17.0</ele><time>2026-04-05T09:13:01.001Z</time></trkpt><trkpt lat="35.79664804079927" lon="10.639028940889014"><ele>17.0</ele><time>2026-04-05T09:13:02.001Z</time></trkpt><trkpt lat="35.79663838791988" lon="10.638877598250644"><ele>17.0</ele><time>2026-04-05T09:13:04.001Z</time></trkpt><trkpt lat="35.7966276011675" lon="10.638740532318097"><ele>17.0</ele><time>2026-04-05T09:13:06.001Z</time></trkpt><trkpt lat="35.79661667942604" lon="10.638608479091719"><ele>17.0</ele><time>2026-04-05T09:13:08.001Z</time></trkpt><trkpt lat="35.79660566802106" lon="10.638463071228692"><ele>17.0</ele><time>2026-04-05T09:13:10.001Z</time></trkpt><trkpt lat="35.796604366404566" lon="10.638300026586656"><ele>17.0</ele><time>2026-04-05T09:13:12Z</time></trkpt><trkpt lat="35.79660954952211" lon="10.638205860732958"><ele>17.0</ele><time>2026-04-05T09:13:13Z</time></trkpt><trkpt lat="35.79660785073549" lon="10.638101216807943"><ele>17.0</ele><time>2026-04-05T09:13:14Z</time></trkpt><trkpt lat="35.79659570727211" lon="10.637995092184369"><ele>17.0</ele><time>2026-04-05T09:13:15Z</time></trkpt><trkpt lat="35.79657965937966" lon="10.637884314304547"><ele>17.2</ele><time>2026-04-05T09:13:16Z</time></trkpt><trkpt lat="35.796560963028206" lon="10.637760521963745"><ele>17.4</ele><time>2026-04-05T09:13:17Z</time></trkpt><trkpt lat="35.79654507416227" lon="10.637628105448636"><ele>17.6</ele><time>2026-04-05T09:13:18Z</time></trkpt><trkpt lat="35.79652941294042" lon="10.637494532938208"><ele>17.8</ele><time>2026-04-05T09:13:19Z</time></trkpt><trkpt lat="35.79651845357231" lon="10.637356900705154"><ele>18.0</ele><time>2026-04-05T09:13:20Z</time></trkpt><trkpt lat="35.796508382948296" lon="10.637215868598876"><ele>18.0</ele><time>2026-04-05T09:13:21Z</time></trkpt><trkpt lat="35.79649848377405" lon="10.63707104628728"><ele>18.0</ele><time>2026-04-05T09:13:22Z</time></trkpt><trkpt lat="35.796485947206" lon="10.636920301627036"><ele>18.0</ele><time>2026-04-05T09:13:23Z</time></trkpt><trkpt lat="35.79647163674276" lon="10.636770316499923"><ele>18.0</ele><time>2026-04-05T09:13:24Z</time></trkpt><trkpt lat="35.796458596718175" lon="10.636619693987274"><ele>18.0</ele><time>2026-04-05T09:13:25Z</time></trkpt><trkpt lat="35.79644650522838" lon="10.63647219195783"><ele>18.0</ele><time>2026-04-05T09:13:26Z</time></trkpt><trkpt lat="35.796435572621256" lon="10.636322029340743"><ele>18.0</ele><time>2026-04-05T09:13:27Z</time></trkpt><trkpt lat="35.79642450466971" lon="10.63616927417462"><ele>18.0</ele><time>2026-04-05T09:13:28Z</time></trkpt><trkpt lat="35.79641084189904" lon="10.636012193976892"><ele>18.0</ele><time>2026-04-05T09:13:29Z</time></trkpt><trkpt lat="35.79639748496855" lon="10.635848043720253"><ele>18.0</ele><time>2026-04-05T09:13:30Z</time></trkpt><trkpt lat="35.79638618992799" lon="10.635680137611274"><ele>18.0</ele><time>2026-04-05T09:13:31Z</time></trkpt><trkpt lat="35.796376847961284" lon="10.635510289813865"><ele>18.0</ele><time>2026-04-05T09:13:32Z</time></trkpt><trkpt lat="35.79636777429343" lon="10.635335272284173"><ele>18.0</ele><time>2026-04-05T09:13:33Z</time></trkpt><trkpt lat="35.79635893901963" lon="10.635165431536377"><ele>18.0</ele><time>2026-04-05T09:13:34Z</time></trkpt><trkpt lat="35.79635156227996" lon="10.634991023970413"><ele>18.0</ele><time>2026-04-05T09:13:35Z</time></trkpt><trkpt lat="35.796346605788095" lon="10.634815763922656"><ele>18.0</ele><time>2026-04-05T09:13:36Z</time></trkpt><trkpt lat="35.79634054542056" lon="10.634631421999769"><ele>18.333333333333332</ele><time>2026-04-05T09:13:37Z</time></trkpt><trkpt lat="35.79633742159954" lon="10.634442203383243"><ele>18.666666666666664</ele><time>2026-04-05T09:13:38Z</time></trkpt><trkpt lat="35.796334832193445" lon="10.634226582548257"><ele>19.0</ele><time>2026-04-05T09:13:39Z</time></trkpt><trkpt lat="35.79633522945054" lon="10.63397895394298"><ele>19.0</ele><time>2026-04-05T09:13:40Z</time></trkpt><trkpt lat="35.79633591946425" lon="10.63371379940629"><ele>19.0</ele><time>2026-04-05T09:13:41Z</time></trkpt><trkpt lat="35.796344392637195" lon="10.633466351104335"><ele>19.0</ele><time>2026-04-05T09:13:42Z</time></trkpt><trkpt lat="35.796357123912294" lon="10.63324622427756"><ele>19.0</ele><time>2026-04-05T09:13:43Z</time></trkpt><trkpt lat="35.79637200554918" lon="10.633033783828589"><ele>19.0</ele><time>2026-04-05T09:13:44Z</time></trkpt><trkpt lat="35.79638947447084" lon="10.632823450170584"><ele>19.0</ele><time>2026-04-05T09:13:45Z</time></trkpt><trkpt lat="35.79640552826132" lon="10.63261977441173"><ele>19.0</ele><time>2026-04-05T09:13:46Z</time></trkpt><trkpt lat="35.796414108348785" lon="10.632416638895132"><ele>19.0</ele><time>2026-04-05T09:13:47Z</time></trkpt><trkpt lat="35.79641824038599" lon="10.63221116803957"><ele>19.0</ele><time>2026-04-05T09:13:48Z</time></trkpt><trkpt lat="35.79643290662873" lon="10.632006852358572"><ele>19.333333333333332</ele><time>2026-04-05T09:13:49Z</time></trkpt><trkpt lat="35.7964526476735" lon="10.6317966256395"><ele>19.666666666666668</ele><time>2026-04-05T09:13:50Z</time></trkpt><trkpt lat="35.79647574114458" lon="10.631587074643141"><ele>20.0</ele><time>2026-04-05T09:13:51Z</time></trkpt><trkpt lat="35.79650099092694" lon="10.631376312190483"><ele>20.0</ele><time>2026-04-05T09:13:52Z</time></trkpt><trkpt lat="35.79653228083826" lon="10.631165284942934"><ele>20.0</ele><time>2026-04-05T09:13:53.001Z</time></trkpt><trkpt lat="35.79656831002591" lon="10.630953063484663"><ele>20.0</ele><time>2026-04-05T09:13:54.001Z</time></trkpt><trkpt lat="35.79660417311826" lon="10.630735913025699"><ele>20.333333333333336</ele><time>2026-04-05T09:13:55.001Z</time></trkpt><trkpt lat="35.796632981328194" lon="10.63052205009962"><ele>20.666666666666668</ele><time>2026-04-05T09:13:56.001Z</time></trkpt><trkpt lat="35.79666088037083" lon="10.630319502845005"><ele>21.0</ele><time>2026-04-05T09:13:57.001Z</time></trkpt><trkpt lat="35.79668878365225" lon="10.630150281367811"><ele>21.4</ele><time>2026-04-05T09:13:58.001Z</time></trkpt><trkpt lat="35.79671809037001" lon="10.630003330775342"><ele>21.8</ele><time>2026-04-05T09:13:59.001Z</time></trkpt><trkpt lat="35.796744504539674" lon="10.629873231292832"><ele>22.2</ele><time>2026-04-05T09:14:00.001Z</time></trkpt><trkpt lat="35.79676742459897" lon="10.629754611500983"><ele>22.599999999999998</ele><time>2026-04-05T09:14:01.001Z</time></trkpt><trkpt lat="35.79678832326514" lon="10.6296388501811"><ele>23.0</ele><time>2026-04-05T09:14:02.001Z</time></trkpt><trkpt lat="35.79680863928046" lon="10.629522550740116"><ele>23.2</ele><time>2026-04-05T09:14:03.001Z</time></trkpt><trkpt lat="35.796833142257455" lon="10.62940391230944"><ele>23.4</ele><time>2026-04-05T09:14:04.001Z</time></trkpt><trkpt lat="35.796860052542606" lon="10.629288033395051"><ele>23.599999999999998</ele><time>2026-04-05T09:14:05.001Z</time></trkpt><trkpt lat="35.79688531069325" lon="10.629170910334667"><ele>23.799999999999997</ele><time>2026-04-05T09:14:06.001Z</time></trkpt><trkpt lat="35.79690997624201" lon="10.629053927777989"><ele>24.0</ele><time>2026-04-05T09:14:07.001Z</time></trkpt><trkpt lat="35.79693749317917" lon="10.62893764519184"><ele>23.799999999999997</ele><time>2026-04-05T09:14:08.001Z</time></trkpt><trkpt lat="35.796963534997545" lon="10.628822457879805"><ele>23.599999999999998</ele><time>2026-04-05T09:14:09.001Z</time></trkpt><trkpt lat="35.796989862929344" lon="10.62871371605756"><ele>23.4</ele><time>2026-04-05T09:14:10.001Z</time></trkpt><trkpt lat="35.797017275652976" lon="10.628622892319779"><ele>23.2</ele><time>2026-04-05T09:14:11.001Z</time></trkpt><trkpt lat="35.79705558823142" lon="10.628515033198926"><ele>23.0</ele><time>2026-04-05T09:14:13.001Z</time></trkpt><trkpt lat="35.79709845367178" lon="10.628416705207838"><ele>23.0</ele><time>2026-04-05T09:14:15.001Z</time></trkpt><trkpt lat="35.79717046241485" lon="10.628292643975703"><ele>23.0</ele><time>2026-04-05T09:14:17.001Z</time></trkpt><trkpt lat="35.797207061584885" lon="10.628213558560061"><ele>23.0</ele><time>2026-04-05T09:14:18.001Z</time></trkpt><trkpt lat="35.79724227495829" lon="10.628135120520353"><ele>23.0</ele><time>2026-04-05T09:14:19.001Z</time></trkpt><trkpt lat="35.79727286323648" lon="10.628052152302343"><ele>23.0</ele><time>2026-04-05T09:14:20.001Z</time></trkpt><trkpt lat="35.797295921484285" lon="10.627964075628581"><ele>23.0</ele><time>2026-04-05T09:14:21.001Z</time></trkpt><trkpt lat="35.797312658231114" lon="10.627864138325966"><ele>23.799999999999997</ele><time>2026-04-05T09:14:22.001Z</time></trkpt><trkpt lat="35.79732045142095" lon="10.627750051122973"><ele>24.6</ele><time>2026-04-05T09:14:23.001Z</time></trkpt><trkpt lat="35.79732298331711" lon="10.627632245401642"><ele>25.400000000000002</ele><time>2026-04-05T09:14:24.001Z</time></trkpt><trkpt lat="35.79732567210366" lon="10.627511885929023"><ele>26.200000000000003</ele><time>2026-04-05T09:14:25.001Z</time></trkpt><trkpt lat="35.79733014440138" lon="10.62738767938285"><ele>27.0</ele><time>2026-04-05T09:14:26.001Z</time></trkpt><trkpt lat="35.79734212848485" lon="10.627262888437688"><ele>27.0</ele><time>2026-04-05T09:14:27.001Z</time></trkpt><trkpt lat="35.797364856955326" lon="10.627140270004993"><ele>27.000000000000004</ele><time>2026-04-05T09:14:28.001Z</time></trkpt><trkpt lat="35.79739332129422" lon="10.627013725437823"><ele>27.000000000000004</ele><time>2026-04-05T09:14:29.001Z</time></trkpt><trkpt lat="35.7974273887719" lon="10.626885903838035"><ele>27.0</ele><time>2026-04-05T09:14:30.001Z</time></trkpt><trkpt lat="35.797461189143704" lon="10.626759952843237"><ele>27.0</ele><time>2026-04-05T09:14:31.001Z</time></trkpt><trkpt lat="35.79749815563441" lon="10.626629421225342"><ele>27.75</ele><time>2026-04-05T09:14:32.001Z</time></trkpt><trkpt lat="35.79753307376477" lon="10.626492755387316"><ele>28.5</ele><time>2026-04-05T09:14:33.001Z</time></trkpt><trkpt lat="35.79757104249751" lon="10.626347388414528"><ele>29.25</ele><time>2026-04-05T09:14:34.001Z</time></trkpt><trkpt lat="35.7976095349691" lon="10.62620575135488"><ele>30.0</ele><time>2026-04-05T09:14:35.001Z</time></trkpt><trkpt lat="35.797644522237114" lon="10.626068967986575"><ele>30.5</ele><time>2026-04-05T09:14:36.001Z</time></trkpt><trkpt lat="35.79767250211993" lon="10.6259314412385"><ele>31.0</ele><time>2026-04-05T09:14:37.001Z</time></trkpt><trkpt lat="35.79770223541349" lon="10.625788851879374"><ele>31.5</ele><time>2026-04-05T09:14:38.001Z</time></trkpt><trkpt lat="35.7977387910004" lon="10.625644884347217"><ele>32.0</ele><time>2026-04-05T09:14:39.001Z</time></trkpt><trkpt lat="35.797777614594054" lon="10.625492300285075"><ele>32.0</ele><time>2026-04-05T09:14:40.001Z</time></trkpt><trkpt lat="35.79781736991041" lon="10.6253351351109"><ele>32.0</ele><time>2026-04-05T09:14:41.001Z</time></trkpt><trkpt lat="35.79785766245226" lon="10.625177945806701"><ele>32.0</ele><time>2026-04-05T09:14:42.001Z</time></trkpt><trkpt lat="35.797896435648006" lon="10.625018375969315"><ele>32.0</ele><time>2026-04-05T09:14:43.001Z</time></trkpt><trkpt lat="35.7979366648027" lon="10.624865993042139"><ele>32.75</ele><time>2026-04-05T09:14:44.001Z</time></trkpt><trkpt lat="35.79797844566856" lon="10.624711829923273"><ele>33.5</ele><time>2026-04-05T09:14:45.001Z</time></trkpt><trkpt lat="35.798018914978755" lon="10.624558438156516"><ele>34.25</ele><time>2026-04-05T09:14:46.001Z</time></trkpt><trkpt lat="35.79805741472419" lon="10.624402541451392"><ele>35.0</ele><time>2026-04-05T09:14:47.001Z</time></trkpt><trkpt lat="35.79809472047856" lon="10.624248280999455"><ele>35.25</ele><time>2026-04-05T09:14:48.001Z</time></trkpt><trkpt lat="35.798134013435316" lon="10.62409609521138"><ele>35.5</ele><time>2026-04-05T09:14:49.001Z</time></trkpt><trkpt lat="35.79817328105079" lon="10.623947690969128"><ele>35.75</ele><time>2026-04-05T09:14:50.001Z</time></trkpt><trkpt lat="35.79821160706814" lon="10.62379906762284"><ele>36.0</ele><time>2026-04-05T09:14:51.001Z</time></trkpt><trkpt lat="35.79825015139091" lon="10.62365624108573"><ele>35.8</ele><time>2026-04-05T09:14:52.001Z</time></trkpt><trkpt lat="35.79828468903344" lon="10.623522502103146"><ele>35.6</ele><time>2026-04-05T09:14:53.001Z</time></trkpt><trkpt lat="35.798314539642334" lon="10.62339995321631"><ele>35.4</ele><time>2026-04-05T09:14:54.001Z</time></trkpt><trkpt lat="35.79834303427928" lon="10.623280358958233"><ele>35.2</ele><time>2026-04-05T09:14:55.001Z</time></trkpt><trkpt lat="35.79837801246891" lon="10.623153123522526"><ele>35.0</ele><time>2026-04-05T09:14:56.001Z</time></trkpt><trkpt lat="35.798410025420445" lon="10.623029948031915"><ele>35.0</ele><time>2026-04-05T09:14:57.001Z</time></trkpt><trkpt lat="35.798442799153655" lon="10.622903572731"><ele>35.0</ele><time>2026-04-05T09:14:58.001Z</time></trkpt><trkpt lat="35.798478347491866" lon="10.622778517942278"><ele>35.0</ele><time>2026-04-05T09:14:59.001Z</time></trkpt><trkpt lat="35.79851706168042" lon="10.622649817713949"><ele>35.0</ele><time>2026-04-05T09:15:00.001Z</time></trkpt><trkpt lat="35.79855630831485" lon="10.622517515153534"><ele>35.0</ele><time>2026-04-05T09:15:01.001Z</time></trkpt><trkpt lat="35.79859642647915" lon="10.622378187510469"><ele>35.75</ele><time>2026-04-05T09:15:02.001Z</time></trkpt><trkpt lat="35.798638979274536" lon="10.622235928403713"><ele>36.5</ele><time>2026-04-05T09:15:03.001Z</time></trkpt><trkpt lat="35.798681966975096" lon="10.622091509397228"><ele>37.25</ele><time>2026-04-05T09:15:04.001Z</time></trkpt><trkpt lat="35.79872252556425" lon="10.62194896556999"><ele>38.0</ele><time>2026-04-05T09:15:05.001Z</time></trkpt><trkpt lat="35.79875640042249" lon="10.62181843378609"><ele>38.0</ele><time>2026-04-05T09:15:06.001Z</time></trkpt><trkpt lat="35.79878783096319" lon="10.621698400262526"><ele>38.0</ele><time>2026-04-05T09:15:07.001Z</time></trkpt><trkpt lat="35.79881751771494" lon="10.621592677757663"><ele>38.0</ele><time>2026-04-05T09:15:08.001Z</time></trkpt><trkpt lat="35.798844950095415" lon="10.621500643921488"><ele>38.0</ele><time>2026-04-05T09:15:09.001Z</time></trkpt><trkpt lat="35.798867705586034" lon="10.621427844124893"><ele>38.0</ele><time>2026-04-05T09:15:10.001Z</time></trkpt><trkpt lat="35.79890560367574" lon="10.621308506928559"><ele>38.0</ele><time>2026-04-05T09:15:12.001Z</time></trkpt><trkpt lat="35.79894738435739" lon="10.62121385203859"><ele>38.4</ele><time>2026-04-05T09:15:14.001Z</time></trkpt><trkpt lat="35.79900421123296" lon="10.621087757283696"><ele>38.8</ele><time>2026-04-05T09:15:16.001Z</time></trkpt><trkpt lat="35.79908145217668" lon="10.62096084738636"><ele>39.2</ele><time>2026-04-05T09:15:18.001Z</time></trkpt><trkpt lat="35.799121733169486" lon="10.620891729991547"><ele>39.6</ele><time>2026-04-05T09:15:19.001Z</time></trkpt><trkpt lat="35.79915981965564" lon="10.620816402329693"><ele>40.0</ele><time>2026-04-05T09:15:20.001Z</time></trkpt><trkpt lat="35.799193170083804" lon="10.620737912166575"><ele>40.0</ele><time>2026-04-05T09:15:21.001Z</time></trkpt><trkpt lat="35.79921679540773" lon="10.62064757885416"><ele>40.0</ele><time>2026-04-05T09:15:22.001Z</time></trkpt><trkpt lat="35.799243539830215" lon="10.62055197052335"><ele>40.0</ele><time>2026-04-05T09:15:23.001Z</time></trkpt><trkpt lat="35.79927815840662" lon="10.62044579110434"><ele>40.0</ele><time>2026-04-05T09:15:24.001Z</time></trkpt><trkpt lat="35.79932546398301" lon="10.620318365113052"><ele>40.0</ele><time>2026-04-05T09:15:25.001Z</time></trkpt><trkpt lat="35.799382014232" lon="10.620196861811088"><ele>40.0</ele><time>2026-04-05T09:15:26.001Z</time></trkpt><trkpt lat="35.79944354568373" lon="10.620074117885542"><ele>40.0</ele><time>2026-04-05T09:15:27.001Z</time></trkpt><trkpt lat="35.79951571954347" lon="10.619955276126639"><ele>40.0</ele><time>2026-04-05T09:15:28Z</time></trkpt><trkpt lat="35.79959877566622" lon="10.619831163034478"><ele>40.0</ele><time>2026-04-05T09:15:29Z</time></trkpt><trkpt lat="35.799685882644475" lon="10.619689114738026"><ele>40.0</ele><time>2026-04-05T09:15:30Z</time></trkpt><trkpt lat="35.799788769930295" lon="10.619517251476246"><ele>40.0</ele><time>2026-04-05T09:15:31Z</time></trkpt><trkpt lat="35.79991662062297" lon="10.61931263139261"><ele>40.0</ele><time>2026-04-05T09:15:32Z</time></trkpt><trkpt lat="35.800032807556896" lon="10.619140736477572"><ele>40.25</ele><time>2026-04-05T09:15:33Z</time></trkpt><trkpt lat="35.80013439037141" lon="10.618993746810741"><ele>40.5</ele><time>2026-04-05T09:15:34Z</time></trkpt><trkpt lat="35.800219381904164" lon="10.618868002371347"><ele>40.75</ele><time>2026-04-05T09:15:35Z</time></trkpt><trkpt lat="35.800297517220606" lon="10.618747786778028"><ele>41.0</ele><time>2026-04-05T09:15:36Z</time></trkpt><trkpt lat="35.80037286693891" lon="10.618636164728798"><ele>41.599999999999994</ele><time>2026-04-05T09:15:37Z</time></trkpt><trkpt lat="35.800440396714436" lon="10.61853686294718"><ele>42.2</ele><time>2026-04-05T09:15:38Z</time></trkpt><trkpt lat="35.80050428544212" lon="10.61844632997613"><ele>42.8</ele><time>2026-04-05T09:15:39Z</time></trkpt><trkpt lat="35.80057323070444" lon="10.618352460305527"><ele>43.400000000000006</ele><time>2026-04-05T09:15:40Z</time></trkpt><trkpt lat="35.80064320194598" lon="10.618255031571936"><ele>44.0</ele><time>2026-04-05T09:15:41Z</time></trkpt><trkpt lat="35.80071028685681" lon="10.61815529032125"><ele>44.0</ele><time>2026-04-05T09:15:42Z</time></trkpt><trkpt lat="35.80078068979304" lon="10.618047808678787"><ele>44.0</ele><time>2026-04-05T09:15:43Z</time></trkpt><trkpt lat="35.800852850347574" lon="10.617947148098276"><ele>44.0</ele><time>2026-04-05T09:15:44Z</time></trkpt><trkpt lat="35.800923670599275" lon="10.617850033199499"><ele>44.0</ele><time>2026-04-05T09:15:45Z</time></trkpt><trkpt lat="35.80099410249016" lon="10.617750169112197"><ele>44.0</ele><time>2026-04-05T09:15:46Z</time></trkpt><trkpt lat="35.801066650552755" lon="10.617648018104727"><ele>43.2</ele><time>2026-04-05T09:15:47Z</time></trkpt><trkpt lat="35.80113774686941" lon="10.61754492541245"><ele>42.400000000000006</ele><time>2026-04-05T09:15:48Z</time></trkpt><trkpt lat="35.80120876064907" lon="10.617443416135943"><ele>41.6</ele><time>2026-04-05T09:15:49Z</time></trkpt><trkpt lat="35.80128110937546" lon="10.61734820895774"><ele>40.8</ele><time>2026-04-05T09:15:50Z</time></trkpt><trkpt lat="35.8013495984223" lon="10.617262473473932"><ele>40.0</ele><time>2026-04-05T09:15:51Z</time></trkpt><trkpt lat="35.801413256139185" lon="10.617178832251552"><ele>40.0</ele><time>2026-04-05T09:15:52Z</time></trkpt><trkpt lat="35.80147186299813" lon="10.617103440989169"><ele>40.0</ele><time>2026-04-05T09:15:53Z</time></trkpt><trkpt lat="35.801531785975754" lon="10.61703017574218"><ele>40.0</ele><time>2026-04-05T09:15:54Z</time></trkpt><trkpt lat="35.80158301966973" lon="10.616961038396253"><ele>40.0</ele><time>2026-04-05T09:15:55Z</time></trkpt><trkpt lat="35.801630207485246" lon="10.616896187100268"><ele>40.0</ele><time>2026-04-05T09:15:56Z</time></trkpt><trkpt lat="35.80167455957723" lon="10.61683081522873"><ele>40.0</ele><time>2026-04-05T09:15:57Z</time></trkpt><trkpt lat="35.801719215536124" lon="10.616760704002992"><ele>40.333333333333336</ele><time>2026-04-05T09:15:58Z</time></trkpt><trkpt lat="35.80176339093306" lon="10.616695611461763"><ele>40.66666666666667</ele><time>2026-04-05T09:15:59Z</time></trkpt><trkpt lat="35.80181048236282" lon="10.6166260787337"><ele>41.0</ele><time>2026-04-05T09:16:00Z</time></trkpt><trkpt lat="35.801862602247176" lon="10.616558491837031"><ele>41.333333333333336</ele><time>2026-04-05T09:16:01Z</time></trkpt><trkpt lat="35.801916463847164" lon="10.616487485245136"><ele>41.666666666666664</ele><time>2026-04-05T09:16:02Z</time></trkpt><trkpt lat="35.801970764538844" lon="10.61640853304002"><ele>42.0</ele><time>2026-04-05T09:16:03Z</time></trkpt><trkpt lat="35.80202666335022" lon="10.616329245984325"><ele>41.5</ele><time>2026-04-05T09:16:04Z</time></trkpt><trkpt lat="35.802082990852796" lon="10.616248819619724"><ele>41.0</ele><time>2026-04-05T09:16:05Z</time></trkpt><trkpt lat="35.802139548033104" lon="10.616165518465413"><ele>40.5</ele><time>2026-04-05T09:16:06Z</time></trkpt><trkpt lat="35.80219527165913" lon="10.616080767892642"><ele>40.0</ele><time>2026-04-05T09:16:07Z</time></trkpt><trkpt lat="35.802255775853354" lon="10.615995722989375"><ele>39.5</ele><time>2026-04-05T09:16:08Z</time></trkpt><trkpt lat="35.80231615139966" lon="10.615906322167069"><ele>39.0</ele><time>2026-04-05T09:16:09Z</time></trkpt><trkpt lat="35.80236844676498" lon="10.615818127002369"><ele>39.0</ele><time>2026-04-05T09:16:10Z</time></trkpt><trkpt lat="35.80242678412417" lon="10.615722663712246"><ele>39.0</ele><time>2026-04-05T09:16:11Z</time></trkpt><trkpt lat="35.80248659675019" lon="10.615624286627824"><ele>39.0</ele><time>2026-04-05T09:16:12Z</time></trkpt><trkpt lat="35.80254585012958" lon="10.61552764531019"><ele>39.0</ele><time>2026-04-05T09:16:13Z</time></trkpt><trkpt lat="35.80260337702525" lon="10.615433242093165"><ele>39.0</ele><time>2026-04-05T09:16:14Z</time></trkpt><trkpt lat="35.802654539444916" lon="10.61534803354865"><ele>39.0</ele><time>2026-04-05T09:16:15Z</time></trkpt><trkpt lat="35.802702126615245" lon="10.61527172239027"><ele>39.0</ele><time>2026-04-05T09:16:16Z</time></trkpt><trkpt lat="35.802746015050985" lon="10.615197711524111"><ele>39.0</ele><time>2026-04-05T09:16:17Z</time></trkpt><trkpt lat="35.802785516489635" lon="10.615131275789022"><ele>39.0</ele><time>2026-04-05T09:16:18Z</time></trkpt><trkpt lat="35.80286169769124" lon="10.615014983470925"><ele>39.0</ele><time>2026-04-05T09:16:20Z</time></trkpt><trkpt lat="35.80292114192664" lon="10.614927316426044"><ele>39.0</ele><time>2026-04-05T09:16:22Z</time></trkpt><trkpt lat="35.80297292332386" lon="10.61485024191083"><ele>39.0</ele><time>2026-04-05T09:16:25Z</time></trkpt><trkpt lat="35.803023280831226" lon="10.61477063402188"><ele>39.0</ele><time>2026-04-05T09:16:29Z</time></trkpt><trkpt lat="35.80309768295208" lon="10.61467910253199"><ele>39.0</ele><time>2026-04-05T09:16:31Z</time></trkpt><trkpt lat="35.8031868932765" lon="10.61457146724863"><ele>39.0</ele><time>2026-04-05T09:16:33Z</time></trkpt><trkpt lat="35.80322094368211" lon="10.614505680398235"><ele>39.0</ele><time>2026-04-05T09:16:34Z</time></trkpt><trkpt lat="35.80324575482596" lon="10.614432908296825"><ele>39.0</ele><time>2026-04-05T09:16:35Z</time></trkpt><trkpt lat="35.80324855843693" lon="10.61430614719392"><ele>39.4</ele><time>2026-04-05T09:16:37Z</time></trkpt><trkpt lat="35.803209679580505" lon="10.614217913666037"><ele>39.8</ele><time>2026-04-05T09:16:39Z</time></trkpt><trkpt lat="35.80315387870018" lon="10.614147603779221"><ele>40.199999999999996</ele><time>2026-04-05T09:16:41Z</time></trkpt><trkpt lat="35.80306578766079" lon="10.614114216588089"><ele>40.599999999999994</ele><time>2026-04-05T09:16:43Z</time></trkpt><trkpt lat="35.802958123321275" lon="10.614101290363001"><ele>41.0</ele><time>2026-04-05T09:16:45Z</time></trkpt><trkpt lat="35.80284251620306" lon="10.614050638289292"><ele>41.0</ele><time>2026-04-05T09:16:47Z</time></trkpt><trkpt lat="35.802784061534325" lon="10.614014102575219"><ele>41.0</ele><time>2026-04-05T09:16:48Z</time></trkpt><trkpt lat="35.80272839535388" lon="10.61396955741588"><ele>41.0</ele><time>2026-04-05T09:16:49.001Z</time></trkpt><trkpt lat="35.80267226359573" lon="10.613915651169743"><ele>41.0</ele><time>2026-04-05T09:16:50.001Z</time></trkpt><trkpt lat="35.802611568777394" lon="10.613846621530117"><ele>41.0</ele><time>2026-04-05T09:16:51.001Z</time></trkpt><trkpt lat="35.80254339003175" lon="10.61376815000162"><ele>41.0</ele><time>2026-04-05T09:16:52.001Z</time></trkpt><trkpt lat="35.80247312874147" lon="10.61368482434455"><ele>41.599999999999994</ele><time>2026-04-05T09:16:53.001Z</time></trkpt><trkpt lat="35.80240229533254" lon="10.613598285210475"><ele>42.2</ele><time>2026-04-05T09:16:54.001Z</time></trkpt><trkpt lat="35.80232885749748" lon="10.613509739487275"><ele>42.8</ele><time>2026-04-05T09:16:55.001Z</time></trkpt><trkpt lat="35.802253717468304" lon="10.61342114602408"><ele>43.400000000000006</ele><time>2026-04-05T09:16:56.001Z</time></trkpt><trkpt lat="35.80217704030786" lon="10.613332709219865"><ele>44.0</ele><time>2026-04-05T09:16:57.001Z</time></trkpt><trkpt lat="35.80210454213849" lon="10.61324946428489"><ele>44.0</ele><time>2026-04-05T09:16:58.001Z</time></trkpt><trkpt lat="35.802039328326224" lon="10.613172242760596"><ele>44.0</ele><time>2026-04-05T09:16:59.001Z</time></trkpt><trkpt lat="35.80197508917578" lon="10.613092951910497"><ele>44.0</ele><time>2026-04-05T09:17:00.001Z</time></trkpt><trkpt lat="35.80190644862247" lon="10.613007887370628"><ele>44.0</ele><time>2026-04-05T09:17:01.001Z</time></trkpt><trkpt lat="35.801834904840106" lon="10.61292165372196"><ele>44.0</ele><time>2026-04-05T09:17:02.001Z</time></trkpt><trkpt lat="35.80176009187346" lon="10.612832490720923"><ele>44.2</ele><time>2026-04-05T09:17:03.001Z</time></trkpt><trkpt lat="35.80168527106014" lon="10.61274280225494"><ele>44.400000000000006</ele><time>2026-04-05T09:17:04.001Z</time></trkpt><trkpt lat="35.80160497922953" lon="10.612647723860976"><ele>44.6</ele><time>2026-04-05T09:17:05.001Z</time></trkpt><trkpt lat="35.8015249541728" lon="10.612551413728978"><ele>44.8</ele><time>2026-04-05T09:17:06.001Z</time></trkpt><trkpt lat="35.80144043412645" lon="10.612451331447076"><ele>45.0</ele><time>2026-04-05T09:17:07.001Z</time></trkpt><trkpt lat="35.80135542859445" lon="10.61234969900116"><ele>45.0</ele><time>2026-04-05T09:17:08.001Z</time></trkpt><trkpt lat="35.8012624935375" lon="10.61224531588069"><ele>45.0</ele><time>2026-04-05T09:17:09.001Z</time></trkpt><trkpt lat="35.80116838306054" lon="10.612136811332707"><ele>45.0</ele><time>2026-04-05T09:17:10.001Z</time></trkpt><trkpt lat="35.80107383936013" lon="10.6120238256061"><ele>45.0</ele><time>2026-04-05T09:17:11.001Z</time></trkpt><trkpt lat="35.80097775941352" lon="10.611909215900017"><ele>45.5</ele><time>2026-04-05T09:17:12.001Z</time></trkpt><trkpt lat="35.80088205369813" lon="10.611796389399053"><ele>46.0</ele><time>2026-04-05T09:17:13.001Z</time></trkpt><trkpt lat="35.800787233528794" lon="10.611683329204888"><ele>46.5</ele><time>2026-04-05T09:17:14.001Z</time></trkpt><trkpt lat="35.80069627477835" lon="10.611568850604119"><ele>47.0</ele><time>2026-04-05T09:17:15Z</time></trkpt><trkpt lat="35.80060682686749" lon="10.611453590949912"><ele>47.0</ele><time>2026-04-05T09:17:16Z</time></trkpt><trkpt lat="35.80051635258507" lon="10.611338001814564"><ele>47.0</ele><time>2026-04-05T09:17:17Z</time></trkpt><trkpt lat="35.80042452292982" lon="10.611220996182384"><ele>47.0</ele><time>2026-04-05T09:17:18Z</time></trkpt><trkpt lat="35.80033880798451" lon="10.61110305116454"><ele>47.0</ele><time>2026-04-05T09:17:19Z</time></trkpt><trkpt lat="35.80025613956137" lon="10.610982531102396"><ele>47.0</ele><time>2026-04-05T09:17:20Z</time></trkpt><trkpt lat="35.80017408694794" lon="10.610859532368336"><ele>47.0</ele><time>2026-04-05T09:17:21Z</time></trkpt><trkpt lat="35.80009282022279" lon="10.610735587544223"><ele>47.0</ele><time>2026-04-05T09:17:22Z</time></trkpt><trkpt lat="35.8000135674527" lon="10.610613079363594"><ele>47.0</ele><time>2026-04-05T09:17:23Z</time></trkpt><trkpt lat="35.7999349333646" lon="10.610487705681244"><ele>47.5</ele><time>2026-04-05T09:17:24Z</time></trkpt><trkpt lat="35.799860949255496" lon="10.610358803365166"><ele>48.0</ele><time>2026-04-05T09:17:25Z</time></trkpt><trkpt lat="35.79978832059038" lon="10.610230133522595"><ele>48.5</ele><time>2026-04-05T09:17:26Z</time></trkpt><trkpt lat="35.79971594800684" lon="10.610102168918512"><ele>49.0</ele><time>2026-04-05T09:17:27Z</time></trkpt><trkpt lat="35.7995754095205" lon="10.609839487795647"><ele>49.0</ele><time>2026-04-05T09:17:29Z</time></trkpt><trkpt lat="35.79950999510605" lon="10.609702775176613"><ele>49.0</ele><time>2026-04-05T09:17:30Z</time></trkpt><trkpt lat="35.799445358419526" lon="10.609561346130372"><ele>49.0</ele><time>2026-04-05T09:17:31Z</time></trkpt><trkpt lat="35.799381004805255" lon="10.609423296996017"><ele>49.0</ele><time>2026-04-05T09:17:32Z</time></trkpt><trkpt lat="35.79931831969192" lon="10.609285821762567"><ele>49.33333333333333</ele><time>2026-04-05T09:17:33Z</time></trkpt><trkpt lat="35.79925627151407" lon="10.60913722866438"><ele>49.66666666666667</ele><time>2026-04-05T09:17:34Z</time></trkpt><trkpt lat="35.79918930245251" lon="10.608970706323214"><ele>50.0</ele><time>2026-04-05T09:17:35Z</time></trkpt><trkpt lat="35.799112341221864" lon="10.608788233218425"><ele>50.66666666666667</ele><time>2026-04-05T09:17:36Z</time></trkpt><trkpt lat="35.79902286244174" lon="10.60859435623631"><ele>51.33333333333333</ele><time>2026-04-05T09:17:37Z</time></trkpt><trkpt lat="35.798933027840135" lon="10.608416391902773"><ele>52.0</ele><time>2026-04-05T09:17:38Z</time></trkpt><trkpt lat="35.79885566254981" lon="10.608265694014031"><ele>52.0</ele><time>2026-04-05T09:17:39Z</time></trkpt><trkpt lat="35.79879859358761" lon="10.608138893572223"><ele>52.0</ele><time>2026-04-05T09:17:40Z</time></trkpt><trkpt lat="35.798754507974714" lon="10.608026784996532"><ele>52.0</ele><time>2026-04-05T09:17:41Z</time></trkpt><trkpt lat="35.79870838241548" lon="10.607934349918528"><ele>52.0</ele><time>2026-04-05T09:17:42Z</time></trkpt><trkpt lat="35.79866570818833" lon="10.60785105984381"><ele>52.0</ele><time>2026-04-05T09:17:43Z</time></trkpt><trkpt lat="35.798622515755916" lon="10.607768468975868"><ele>52.166666666666664</ele><time>2026-04-05T09:17:44Z</time></trkpt><trkpt lat="35.79857723395481" lon="10.607683599826535"><ele>52.33333333333333</ele><time>2026-04-05T09:17:45Z</time></trkpt><trkpt lat="35.7985379834604" lon="10.607586857318369"><ele>52.5</ele><time>2026-04-05T09:17:46Z</time></trkpt><trkpt lat="35.79850350713633" lon="10.60749529328975"><ele>52.66666666666667</ele><time>2026-04-05T09:17:47Z</time></trkpt><trkpt lat="35.79847398516195" lon="10.607407110308975"><ele>52.833333333333336</ele><time>2026-04-05T09:17:48Z</time></trkpt><trkpt lat="35.79845248587317" lon="10.607322893714247"><ele>53.0</ele><time>2026-04-05T09:17:49Z</time></trkpt><trkpt lat="35.79843154982128" lon="10.607241694392496"><ele>53.00000000000001</ele><time>2026-04-05T09:17:50Z</time></trkpt><trkpt lat="35.79839946309368" lon="10.607119435582229"><ele>53.0</ele><time>2026-04-05T09:17:52Z</time></trkpt><trkpt lat="35.79838062186363" lon="10.607025471867098"><ele>53.0</ele><time>2026-04-05T09:17:54Z</time></trkpt><trkpt lat="35.79833226618317" lon="10.606928583110935"><ele>53.0</ele><time>2026-04-05T09:17:57Z</time></trkpt><trkpt lat="35.79828367561388" lon="10.606862642965927"><ele>53.00000000000001</ele><time>2026-04-05T09:17:59Z</time></trkpt><trkpt lat="35.79822119426623" lon="10.606791787565019"><ele>53.0</ele><time>2026-04-05T09:18:01Z</time></trkpt><trkpt lat="35.79815901894459" lon="10.606727006654264"><ele>53.16666666666667</ele><time>2026-04-05T09:18:03Z</time></trkpt><trkpt lat="35.79810716089742" lon="10.606644493455851"><ele>53.333333333333336</ele><time>2026-04-05T09:18:06Z</time></trkpt><trkpt lat="35.79805804258439" lon="10.60655712570852"><ele>53.5</ele><time>2026-04-05T09:18:09Z</time></trkpt><trkpt lat="35.798029992933" lon="10.60648755132617"><ele>53.66666666666667</ele><time>2026-04-05T09:18:12Z</time></trkpt><trkpt lat="35.79799680597138" lon="10.606414279858955"><ele>53.833333333333336</ele><time>2026-04-05T09:18:15Z</time></trkpt><trkpt lat="35.797961279864644" lon="10.606342170453717"><ele>54.0</ele><time>2026-04-05T09:18:18Z</time></trkpt><trkpt lat="35.797917929118654" lon="10.606249847372274"><ele>54.0</ele><time>2026-04-05T09:18:22Z</time></trkpt><trkpt lat="35.79788403250257" lon="10.60617633700839"><ele>54.0</ele><time>2026-04-05T09:18:25Z</time></trkpt><trkpt lat="35.79785580245126" lon="10.60610181783885"><ele>54.0</ele><time>2026-04-05T09:18:28Z</time></trkpt><trkpt lat="35.79780793053485" lon="10.60600899894378"><ele>54.0</ele><time>2026-04-05T09:18:42Z</time></trkpt><trkpt lat="35.797771099997924" lon="10.605930468194627"><ele>54.0</ele><time>2026-04-05T09:18:44Z</time></trkpt><trkpt lat="35.79772984819463" lon="10.605843619782734"><ele>54.0</ele><time>2026-04-05T09:18:47Z</time></trkpt><trkpt lat="35.79769962656603" lon="10.605766203997172"><ele>54.0</ele><time>2026-04-05T09:18:50Z</time></trkpt><trkpt lat="35.79766170774654" lon="10.605684462311853"><ele>54.2</ele><time>2026-04-05T09:18:59Z</time></trkpt><trkpt lat="35.79761852943442" lon="10.605596368007776"><ele>54.400000000000006</ele><time>2026-04-05T09:19:01Z</time></trkpt><trkpt lat="35.797570681477204" lon="10.605492814495447"><ele>54.6</ele><time>2026-04-05T09:19:03Z</time></trkpt><trkpt lat="35.797516940194285" lon="10.605390202056496"><ele>54.8</ele><time>2026-04-05T09:19:05Z</time></trkpt><trkpt lat="35.797466014754306" lon="10.605285465765196"><ele>55.0</ele><time>2026-04-05T09:19:07Z</time></trkpt><trkpt lat="35.797414637988254" lon="10.605169842465646"><ele>55.49999999999999</ele><time>2026-04-05T09:19:09Z</time></trkpt><trkpt lat="35.797370446219354" lon="10.60506672654821"><ele>56.0</ele><time>2026-04-05T09:19:11Z</time></trkpt><trkpt lat="35.79733883003191" lon="10.604997703746191"><ele>56.5</ele><time>2026-04-05T09:19:12Z</time></trkpt><trkpt lat="35.79730532985708" lon="10.604923159289992"><ele>57.0</ele><time>2026-04-05T09:19:13Z</time></trkpt><trkpt lat="35.79726989960926" lon="10.604837503293208"><ele>57.49999999999999</ele><time>2026-04-05T09:19:14Z</time></trkpt><trkpt lat="35.7972290318203" lon="10.604746568296058"><ele>58.0</ele><time>2026-04-05T09:19:15Z</time></trkpt><trkpt lat="35.797184445012604" lon="10.604654173124702"><ele>57.99999999999999</ele><time>2026-04-05T09:19:16Z</time></trkpt><trkpt lat="35.79713961304816" lon="10.604559169676184"><ele>58.0</ele><time>2026-04-05T09:19:17Z</time></trkpt><trkpt lat="35.79709734680556" lon="10.604461138050674"><ele>58.0</ele><time>2026-04-05T09:19:18Z</time></trkpt><trkpt lat="35.79705600419366" lon="10.604366028960715"><ele>58.0</ele><time>2026-04-05T09:19:19Z</time></trkpt><trkpt lat="35.79701272267829" lon="10.604269867796232"><ele>57.99999999999999</ele><time>2026-04-05T09:19:20Z</time></trkpt><trkpt lat="35.79697036825004" lon="10.604175188335885"><ele>58.0</ele><time>2026-04-05T09:19:21Z</time></trkpt><trkpt lat="35.7969279301703" lon="10.604080592738015"><ele>57.99999999999999</ele><time>2026-04-05T09:19:22Z</time></trkpt><trkpt lat="35.79688779263826" lon="10.603984848245137"><ele>58.0</ele><time>2026-04-05T09:19:23Z</time></trkpt><trkpt lat="35.79684972997632" lon="10.60389252929511"><ele>58.0</ele><time>2026-04-05T09:19:24Z</time></trkpt><trkpt lat="35.7968127416593" lon="10.603810577791739"><ele>58.0</ele><time>2026-04-05T09:19:25Z</time></trkpt><trkpt lat="35.79678115163024" lon="10.60372953727725"><ele>57.99999999999999</ele><time>2026-04-05T09:19:26Z</time></trkpt><trkpt lat="35.79675657140579" lon="10.603640586693345"><ele>58.0</ele><time>2026-04-05T09:19:27Z</time></trkpt><trkpt lat="35.79673537477529" lon="10.603549664787698"><ele>58.0</ele><time>2026-04-05T09:19:28Z</time></trkpt><trkpt lat="35.796716581568106" lon="10.603474341767019"><ele>58.0</ele><time>2026-04-05T09:19:29Z</time></trkpt><trkpt lat="35.796654091938514" lon="10.603353840163916"><ele>58.0</ele><time>2026-04-05T09:19:31Z</time></trkpt><trkpt lat="35.79659324666887" lon="10.603288792371291"><ele>58.0</ele><time>2026-04-05T09:19:32Z</time></trkpt><trkpt lat="35.796537197035065" lon="10.603201901572833"><ele>58.0</ele><time>2026-04-05T09:19:33Z</time></trkpt><trkpt lat="35.79648465405308" lon="10.603090201160695"><ele>58.0</ele><time>2026-04-05T09:19:34Z</time></trkpt><trkpt lat="35.7964332873645" lon="10.60297174259811"><ele>58.0</ele><time>2026-04-05T09:19:35Z</time></trkpt><trkpt lat="35.7963791845374" lon="10.602844285338481"><ele>58.0</ele><time>2026-04-05T09:19:36Z</time></trkpt><trkpt lat="35.79632172658026" lon="10.602715919383567"><ele>58.0</ele><time>2026-04-05T09:19:37Z</time></trkpt><trkpt lat="35.79626353085422" lon="10.602590671236658"><ele>58.2</ele><time>2026-04-05T09:19:38Z</time></trkpt><trkpt lat="35.79621083353242" lon="10.602473159623553"><ele>58.4</ele><time>2026-04-05T09:19:39Z</time></trkpt><trkpt lat="35.79616040536745" lon="10.602360840788958"><ele>58.60000000000001</ele><time>2026-04-05T09:19:40Z</time></trkpt><trkpt lat="35.7961138654283" lon="10.602257002537549"><ele>58.800000000000004</ele><time>2026-04-05T09:19:41Z</time></trkpt><trkpt lat="35.79606643820342" lon="10.602154862221532"><ele>59.0</ele><time>2026-04-05T09:19:42Z</time></trkpt><trkpt lat="35.796020319131856" lon="10.602048038357406"><ele>58.800000000000004</ele><time>2026-04-05T09:19:43Z</time></trkpt><trkpt lat="35.79596910791913" lon="10.601932706106176"><ele>58.60000000000001</ele><time>2026-04-05T09:19:44Z</time></trkpt><trkpt lat="35.79591500659943" lon="10.601810573331727"><ele>58.4</ele><time>2026-04-05T09:19:45Z</time></trkpt><trkpt lat="35.795859661381925" lon="10.601687760154707"><ele>58.2</ele><time>2026-04-05T09:19:46Z</time></trkpt><trkpt lat="35.79580358007006" lon="10.601566500317816"><ele>58.0</ele><time>2026-04-05T09:19:47Z</time></trkpt><trkpt lat="35.7957470297779" lon="10.601442801638397"><ele>58.0</ele><time>2026-04-05T09:19:48Z</time></trkpt><trkpt lat="35.79569438323927" lon="10.601319790483691"><ele>58.0</ele><time>2026-04-05T09:19:49Z</time></trkpt><trkpt lat="35.79564546484872" lon="10.601207365328818"><ele>58.0</ele><time>2026-04-05T09:19:50Z</time></trkpt><trkpt lat="35.79560165908558" lon="10.601099936605145"><ele>58.0</ele><time>2026-04-05T09:19:51Z</time></trkpt><trkpt lat="35.795557269635815" lon="10.60099321579574"><ele>58.0</ele><time>2026-04-05T09:19:52Z</time></trkpt><trkpt lat="35.79550582163747" lon="10.600885972091705"><ele>57.8</ele><time>2026-04-05T09:19:53Z</time></trkpt><trkpt lat="35.79545152175962" lon="10.600773866985632"><ele>57.599999999999994</ele><time>2026-04-05T09:19:54Z</time></trkpt><trkpt lat="35.79539695265548" lon="10.600657759578478"><ele>57.400000000000006</ele><time>2026-04-05T09:19:55Z</time></trkpt><trkpt lat="35.79534212883808" lon="10.600537000713738"><ele>57.2</ele><time>2026-04-05T09:19:56Z</time></trkpt><trkpt lat="35.795286189958745" lon="10.6004129472615"><ele>57.0</ele><time>2026-04-05T09:19:57Z</time></trkpt><trkpt lat="35.795227010973846" lon="10.600282299392507"><ele>56.5</ele><time>2026-04-05T09:19:58Z</time></trkpt><trkpt lat="35.795165182485285" lon="10.600145061298525"><ele>56.0</ele><time>2026-04-05T09:19:59Z</time></trkpt><trkpt lat="35.79510229151454" lon="10.600003654746924"><ele>55.5</ele><time>2026-04-05T09:20:00Z</time></trkpt><trkpt lat="35.795037869343034" lon="10.59985583346546"><ele>55.0</ele><time>2026-04-05T09:20:01Z</time></trkpt><trkpt lat="35.794976675538415" lon="10.599712693123426"><ele>55.0</ele><time>2026-04-05T09:20:02Z</time></trkpt><trkpt lat="35.794918777907675" lon="10.599584495451584"><ele>55.0</ele><time>2026-04-05T09:20:03Z</time></trkpt><trkpt lat="35.794863167902975" lon="10.599464864968079"><ele>55.0</ele><time>2026-04-05T09:20:04Z</time></trkpt><trkpt lat="35.794812000204864" lon="10.59935277904508"><ele>55.0</ele><time>2026-04-05T09:20:05Z</time></trkpt><trkpt lat="35.79476830619625" lon="10.599243754126462"><ele>55.0</ele><time>2026-04-05T09:20:06Z</time></trkpt><trkpt lat="35.79473388210033" lon="10.599129268649078"><ele>55.2</ele><time>2026-04-05T09:20:07Z</time></trkpt><trkpt lat="35.79470443347706" lon="10.599017180438985"><ele>55.4</ele><time>2026-04-05T09:20:08Z</time></trkpt><trkpt lat="35.79466582768094" lon="10.598907684436336"><ele>55.599999999999994</ele><time>2026-04-05T09:20:09Z</time></trkpt><trkpt lat="35.794607248735765" lon="10.59879747146593"><ele>55.8</ele><time>2026-04-05T09:20:10Z</time></trkpt><trkpt lat="35.79452678887765" lon="10.598675769668313"><ele>56.0</ele><time>2026-04-05T09:20:11Z</time></trkpt><trkpt lat="35.79445067417252" lon="10.59853716784378"><ele>56.0</ele><time>2026-04-05T09:20:12Z</time></trkpt><trkpt lat="35.79437539819414" lon="10.59838867473594"><ele>56.0</ele><time>2026-04-05T09:20:13Z</time></trkpt><trkpt lat="35.794301495457354" lon="10.598229246309675"><ele>56.0</ele><time>2026-04-05T09:20:14Z</time></trkpt><trkpt lat="35.794227602897585" lon="10.598067832144624"><ele>56.0</ele><time>2026-04-05T09:20:15Z</time></trkpt><trkpt lat="35.794153598213704" lon="10.59790104824241"><ele>54.0</ele><time>2026-04-05T09:20:16Z</time></trkpt><trkpt lat="35.79407814873729" lon="10.597733056466051"><ele>52.0</ele><time>2026-04-05T09:20:17Z</time></trkpt><trkpt lat="35.79399905857277" lon="10.59755944245952"><ele>50.0</ele><time>2026-04-05T09:20:18Z</time></trkpt><trkpt lat="35.79392389093592" lon="10.59738671549177"><ele>50.0</ele><time>2026-04-05T09:20:19Z</time></trkpt><trkpt lat="35.79385280701021" lon="10.597225405692114"><ele>50.0</ele><time>2026-04-05T09:20:20Z</time></trkpt><trkpt lat="35.793784791803056" lon="10.597077233478343"><ele>50.0</ele><time>2026-04-05T09:20:21Z</time></trkpt><trkpt lat="35.79372357493099" lon="10.59693611380077"><ele>50.0</ele><time>2026-04-05T09:20:22Z</time></trkpt><trkpt lat="35.79366630287716" lon="10.596804316354243"><ele>50.2</ele><time>2026-04-05T09:20:23Z</time></trkpt><trkpt lat="35.79361223832347" lon="10.596679405289882"><ele>50.4</ele><time>2026-04-05T09:20:24Z</time></trkpt><trkpt lat="35.79356017469944" lon="10.596560025030925"><ele>50.599999999999994</ele><time>2026-04-05T09:20:25Z</time></trkpt><trkpt lat="35.79351093068927" lon="10.596448432250735"><ele>50.8</ele><time>2026-04-05T09:20:26Z</time></trkpt><trkpt lat="35.79346049850632" lon="10.596345898520974"><ele>51.0</ele><time>2026-04-05T09:20:27Z</time></trkpt><trkpt lat="35.79341762132494" lon="10.596246455233375"><ele>51.0</ele><time>2026-04-05T09:20:28Z</time></trkpt><trkpt lat="35.7933814579523" lon="10.596160832698587"><ele>51.0</ele><time>2026-04-05T09:20:29Z</time></trkpt><trkpt lat="35.79332848167608" lon="10.596039623925277"><ele>51.0</ele><time>2026-04-05T09:20:31Z</time></trkpt><trkpt lat="35.79328235524973" lon="10.595954074497547"><ele>51.0</ele><time>2026-04-05T09:20:33Z</time></trkpt><trkpt lat="35.793248732174256" lon="10.595852447399606"><ele>51.0</ele><time>2026-04-05T09:20:35Z</time></trkpt><trkpt lat="35.79322325939837" lon="10.595739998635475"><ele>51.0</ele><time>2026-04-05T09:20:37Z</time></trkpt><trkpt lat="35.79316059187575" lon="10.595614893538615"><ele>51.0</ele><time>2026-04-05T09:20:39Z</time></trkpt><trkpt lat="35.79310682325242" lon="10.595536890332374"><ele>51.0</ele><time>2026-04-05T09:20:40Z</time></trkpt><trkpt lat="35.79305410608814" lon="10.595442819191998"><ele>51.0</ele><time>2026-04-05T09:20:41Z</time></trkpt><trkpt lat="35.793005060504626" lon="10.595334637251693"><ele>51.0</ele><time>2026-04-05T09:20:42Z</time></trkpt><trkpt lat="35.79295577806661" lon="10.595219541436615"><ele>51.75</ele><time>2026-04-05T09:20:43Z</time></trkpt><trkpt lat="35.79290219077125" lon="10.59509947348987"><ele>52.5</ele><time>2026-04-05T09:20:44Z</time></trkpt><trkpt lat="35.79284062599703" lon="10.594968746997685"><ele>53.25</ele><time>2026-04-05T09:20:45Z</time></trkpt><trkpt lat="35.79277537534615" lon="10.59483104351681"><ele>54.0</ele><time>2026-04-05T09:20:46Z</time></trkpt><trkpt lat="35.792710808156514" lon="10.594685833838202"><ele>54.25</ele><time>2026-04-05T09:20:47Z</time></trkpt><trkpt lat="35.79264521816015" lon="10.594534265579389"><ele>54.5</ele><time>2026-04-05T09:20:48Z</time></trkpt><trkpt lat="35.79257686336378" lon="10.594378685586408"><ele>54.75</ele><time>2026-04-05T09:20:49Z</time></trkpt><trkpt lat="35.79251210525074" lon="10.594232903651664"><ele>55.0</ele><time>2026-04-05T09:20:50Z</time></trkpt><trkpt lat="35.79245386819324" lon="10.594100160018726"><ele>55.0</ele><time>2026-04-05T09:20:51Z</time></trkpt><trkpt lat="35.79239980864346" lon="10.59397483374783"><ele>55.0</ele><time>2026-04-05T09:20:52Z</time></trkpt><trkpt lat="35.79234172178999" lon="10.593847308677887"><ele>55.0</ele><time>2026-04-05T09:20:53Z</time></trkpt><trkpt lat="35.7922823307479" lon="10.593718799311445"><ele>55.0</ele><time>2026-04-05T09:20:54Z</time></trkpt><trkpt lat="35.792223728256474" lon="10.593591057291128"><ele>55.25</ele><time>2026-04-05T09:20:55Z</time></trkpt><trkpt lat="35.79216733005145" lon="10.59346437304932"><ele>55.5</ele><time>2026-04-05T09:20:56Z</time></trkpt><trkpt lat="35.79211011252273" lon="10.59333686793669"><ele>55.75</ele><time>2026-04-05T09:20:57Z</time></trkpt><trkpt lat="35.79205314675526" lon="10.593209948070724"><ele>56.0</ele><time>2026-04-05T09:20:58Z</time></trkpt><trkpt lat="35.79199490583036" lon="10.593082183688637"><ele>56.0</ele><time>2026-04-05T09:20:59Z</time></trkpt><trkpt lat="35.7919376344902" lon="10.59295486417548"><ele>55.99999999999999</ele><time>2026-04-05T09:21:00Z</time></trkpt><trkpt lat="35.79189423721699" lon="10.592861722527038"><ele>55.99999999999999</ele><time>2026-04-05T09:21:01Z</time></trkpt><trkpt lat="35.79184057764644" lon="10.592739768368979"><ele>56.0</ele><time>2026-04-05T09:21:02.999Z</time></trkpt><trkpt lat="35.79178785131182" lon="10.592625843662702"><ele>56.0</ele><time>2026-04-05T09:21:04.999Z</time></trkpt><trkpt lat="35.79174071659979" lon="10.592518154929607"><ele>56.0</ele><time>2026-04-05T09:21:06.999Z</time></trkpt><trkpt lat="35.79168658148791" lon="10.592400371426125"><ele>55.99999999999999</ele><time>2026-04-05T09:21:08.999Z</time></trkpt><trkpt lat="35.79162247654882" lon="10.592261730136617"><ele>55.99999999999999</ele><time>2026-04-05T09:21:10.999Z</time></trkpt><trkpt lat="35.79158863033977" lon="10.592188235701263"><ele>56.0</ele><time>2026-04-05T09:21:11.999Z</time></trkpt><trkpt lat="35.791552218540055" lon="10.592111578348366"><ele>56.0</ele><time>2026-04-05T09:21:12.999Z</time></trkpt><trkpt lat="35.79151330156895" lon="10.592023454438019"><ele>56.0</ele><time>2026-04-05T09:21:13.999Z</time></trkpt><trkpt lat="35.79147296322636" lon="10.591931250664604"><ele>55.99999999999999</ele><time>2026-04-05T09:21:14.999Z</time></trkpt><trkpt lat="35.79143124571414" lon="10.591834359182812"><ele>55.99999999999999</ele><time>2026-04-05T09:21:15.999Z</time></trkpt><trkpt lat="35.791386303023025" lon="10.59173409527978"><ele>56.0</ele><time>2026-04-05T09:21:16.999Z</time></trkpt><trkpt lat="35.79133810608343" lon="10.591623580678428"><ele>56.0</ele><time>2026-04-05T09:21:17.999Z</time></trkpt><trkpt lat="35.791290875889736" lon="10.591512192009391"><ele>56.0</ele><time>2026-04-05T09:21:18.999Z</time></trkpt><trkpt lat="35.791241338876375" lon="10.591394939417702"><ele>56.0</ele><time>2026-04-05T09:21:19.999Z</time></trkpt><trkpt lat="35.79118950003885" lon="10.591270885018867"><ele>56.0</ele><time>2026-04-05T09:21:20.999Z</time></trkpt><trkpt lat="35.791134011033996" lon="10.591141639330411"><ele>56.0</ele><time>2026-04-05T09:21:21.999Z</time></trkpt><trkpt lat="35.791076786495445" lon="10.591008979218916"><ele>56.0</ele><time>2026-04-05T09:21:22.999Z</time></trkpt><trkpt lat="35.7910186778658" lon="10.590875989689648"><ele>56.0</ele><time>2026-04-05T09:21:23.999Z</time></trkpt><trkpt lat="35.79095983732215" lon="10.59073965937722"><ele>56.0</ele><time>2026-04-05T09:21:24.999Z</time></trkpt><trkpt lat="35.79090359066534" lon="10.59059962323603"><ele>56.0</ele><time>2026-04-05T09:21:25.999Z</time></trkpt><trkpt lat="35.79084067890539" lon="10.59045518362803"><ele>56.25</ele><time>2026-04-05T09:21:26.999Z</time></trkpt><trkpt lat="35.79077143109834" lon="10.59030788509659"><ele>56.5</ele><time>2026-04-05T09:21:27.999Z</time></trkpt><trkpt lat="35.790705844975314" lon="10.590156656577546"><ele>56.75</ele><time>2026-04-05T09:21:28.999Z</time></trkpt><trkpt lat="35.79064338836721" lon="10.590007126400945"><ele>57.0</ele><time>2026-04-05T09:21:29.999Z</time></trkpt><trkpt lat="35.79058791503668" lon="10.589867672547502"><ele>57.0</ele><time>2026-04-05T09:21:30.999Z</time></trkpt><trkpt lat="35.7905299957569" lon="10.589729913438406"><ele>57.0</ele><time>2026-04-05T09:21:31.999Z</time></trkpt><trkpt lat="35.79046944728408" lon="10.589587687512743"><ele>57.0</ele><time>2026-04-05T09:21:32.999Z</time></trkpt><trkpt lat="35.790408011259196" lon="10.589444749300588"><ele>57.0</ele><time>2026-04-05T09:21:33.999Z</time></trkpt><trkpt lat="35.790345206145425" lon="10.589299813329335"><ele>57.0</ele><time>2026-04-05T09:21:34.999Z</time></trkpt><trkpt lat="35.79028357493481" lon="10.589150277208018"><ele>57.0</ele><time>2026-04-05T09:21:35.999Z</time></trkpt><trkpt lat="35.79022408817887" lon="10.589004350462709"><ele>57.0</ele><time>2026-04-05T09:21:36.999Z</time></trkpt><trkpt lat="35.79016644819462" lon="10.588863365823206"><ele>57.0</ele><time>2026-04-05T09:21:37.999Z</time></trkpt><trkpt lat="35.79011179983703" lon="10.588732590263225"><ele>56.25</ele><time>2026-04-05T09:21:38.999Z</time></trkpt><trkpt lat="35.790054441233444" lon="10.588598244796264"><ele>55.5</ele><time>2026-04-05T09:21:39.999Z</time></trkpt><trkpt lat="35.789993838501886" lon="10.588464413666712"><ele>54.75</ele><time>2026-04-05T09:21:40.999Z</time></trkpt><trkpt lat="35.789932283732895" lon="10.588327486983827"><ele>54.0</ele><time>2026-04-05T09:21:41.999Z</time></trkpt><trkpt lat="35.789870931277754" lon="10.588187619312288"><ele>54.0</ele><time>2026-04-05T09:21:42.999Z</time></trkpt><trkpt lat="35.78981111874394" lon="10.588048503043572"><ele>54.0</ele><time>2026-04-05T09:21:43.999Z</time></trkpt><trkpt lat="35.7897521196314" lon="10.587905507496297"><ele>54.0</ele><time>2026-04-05T09:21:44.999Z</time></trkpt><trkpt lat="35.78969246402481" lon="10.587763896285333"><ele>54.0</ele><time>2026-04-05T09:21:45.999Z</time></trkpt><trkpt lat="35.78963103660796" lon="10.58762282108573"><ele>54.5</ele><time>2026-04-05T09:21:46.999Z</time></trkpt><trkpt lat="35.78957163881708" lon="10.587479785521152"><ele>55.0</ele><time>2026-04-05T09:21:47.999Z</time></trkpt><trkpt lat="35.78951211555414" lon="10.587338149666369"><ele>55.5</ele><time>2026-04-05T09:21:48.999Z</time></trkpt><trkpt lat="35.789457588435205" lon="10.587203854967086"><ele>56.0</ele><time>2026-04-05T09:21:49.999Z</time></trkpt><trkpt lat="35.78940592892658" lon="10.58708187623741"><ele>55.8</ele><time>2026-04-05T09:21:50.999Z</time></trkpt><trkpt lat="35.78935672755109" lon="10.586966196956658"><ele>55.599999999999994</ele><time>2026-04-05T09:21:51.999Z</time></trkpt><trkpt lat="35.7893102427647" lon="10.586860227467055"><ele>55.4</ele><time>2026-04-05T09:21:52.999Z</time></trkpt><trkpt lat="35.78926864028918" lon="10.58675683393591"><ele>55.2</ele><time>2026-04-05T09:21:53.999Z</time></trkpt><trkpt lat="35.78924078965521" lon="10.586668101635768"><ele>55.0</ele><time>2026-04-05T09:21:54.999Z</time></trkpt><trkpt lat="35.78921788148375" lon="10.586579749962816"><ele>54.666666666666664</ele><time>2026-04-05T09:21:55.999Z</time></trkpt><trkpt lat="35.78919902959155" lon="10.586494621970099"><ele>54.33333333333333</ele><time>2026-04-05T09:21:56.999Z</time></trkpt><trkpt lat="35.78917614665403" lon="10.586419071651532"><ele>54.0</ele><time>2026-04-05T09:21:57.999Z</time></trkpt><trkpt lat="35.789127117534186" lon="10.586344392534427"><ele>53.66666666666667</ele><time>2026-04-05T09:21:58.999Z</time></trkpt><trkpt lat="35.7890642166931" lon="10.586259751050365"><ele>53.333333333333336</ele><time>2026-04-05T09:21:59.999Z</time></trkpt><trkpt lat="35.78900715664199" lon="10.586145025110484"><ele>53.0</ele><time>2026-04-05T09:22:00.999Z</time></trkpt><trkpt lat="35.78895465712307" lon="10.586022602749038"><ele>53.0</ele><time>2026-04-05T09:22:01.999Z</time></trkpt><trkpt lat="35.788901426790474" lon="10.585905790097275"><ele>53.0</ele><time>2026-04-05T09:22:02.999Z</time></trkpt><trkpt lat="35.788848967491056" lon="10.5857862512484"><ele>53.0</ele><time>2026-04-05T09:22:03.999Z</time></trkpt><trkpt lat="35.78879997101991" lon="10.585670753307085"><ele>53.0</ele><time>2026-04-05T09:22:04.999Z</time></trkpt><trkpt lat="35.78875371522895" lon="10.585561265143301"><ele>53.0</ele><time>2026-04-05T09:22:05.999Z</time></trkpt><trkpt lat="35.78870774282176" lon="10.585450205010657"><ele>52.8</ele><time>2026-04-05T09:22:06.999Z</time></trkpt><trkpt lat="35.78866178715744" lon="10.585338565928074"><ele>52.599999999999994</ele><time>2026-04-05T09:22:07.999Z</time></trkpt><trkpt lat="35.7886122346444" lon="10.585228332141883"><ele>52.400000000000006</ele><time>2026-04-05T09:22:08.999Z</time></trkpt><trkpt lat="35.78856183726273" lon="10.58511470731486"><ele>52.2</ele><time>2026-04-05T09:22:09.999Z</time></trkpt><trkpt lat="35.78851269980754" lon="10.58499980065191"><ele>52.0</ele><time>2026-04-05T09:22:10.999Z</time></trkpt><trkpt lat="35.78846237643675" lon="10.584885338807206"><ele>52.0</ele><time>2026-04-05T09:22:11.999Z</time></trkpt><trkpt lat="35.78840856116237" lon="10.584769140039658"><ele>52.0</ele><time>2026-04-05T09:22:12.999Z</time></trkpt><trkpt lat="35.788354046294195" lon="10.584653648983814"><ele>52.0</ele><time>2026-04-05T09:22:13.999Z</time></trkpt><trkpt lat="35.78830139240627" lon="10.584532522421439"><ele>52.0</ele><time>2026-04-05T09:22:14.999Z</time></trkpt><trkpt lat="35.78825025920793" lon="10.584410125482743"><ele>52.0</ele><time>2026-04-05T09:22:15.999Z</time></trkpt><trkpt lat="35.78819643727576" lon="10.584288590670024"><ele>51.5</ele><time>2026-04-05T09:22:16.999Z</time></trkpt><trkpt lat="35.788141252692384" lon="10.58416363014519"><ele>51.0</ele><time>2026-04-05T09:22:17.999Z</time></trkpt><trkpt lat="35.78808443869321" lon="10.584036408225957"><ele>50.5</ele><time>2026-04-05T09:22:18.999Z</time></trkpt><trkpt lat="35.788024416842156" lon="10.5839023738383"><ele>50.0</ele><time>2026-04-05T09:22:19.999Z</time></trkpt><trkpt lat="35.78796124747195" lon="10.583767341541547"><ele>50.25</ele><time>2026-04-05T09:22:20.999Z</time></trkpt><trkpt lat="35.78789820324868" lon="10.583629890910192"><ele>50.5</ele><time>2026-04-05T09:22:21.999Z</time></trkpt><trkpt lat="35.787831678512106" lon="10.583493065438129"><ele>50.75</ele><time>2026-04-05T09:22:22.999Z</time></trkpt><trkpt lat="35.7877654401468" lon="10.583358786200558"><ele>51.0</ele><time>2026-04-05T09:22:23.999Z</time></trkpt><trkpt lat="35.78769550001654" lon="10.583226421020479"><ele>50.75</ele><time>2026-04-05T09:22:24.999Z</time></trkpt><trkpt lat="35.787632288105335" lon="10.583103364954475"><ele>50.5</ele><time>2026-04-05T09:22:25.999Z</time></trkpt><trkpt lat="35.78756987766752" lon="10.582981829879348"><ele>50.25</ele><time>2026-04-05T09:22:26.999Z</time></trkpt><trkpt lat="35.78750865482033" lon="10.582858842325631"><ele>50.0</ele><time>2026-04-05T09:22:27.999Z</time></trkpt><trkpt lat="35.78744849560549" lon="10.582742262112179"><ele>50.0</ele><time>2026-04-05T09:22:28.999Z</time></trkpt><trkpt lat="35.78739262429024" lon="10.582632809014127"><ele>50.0</ele><time>2026-04-05T09:22:29.999Z</time></trkpt><trkpt lat="35.78733693061593" lon="10.582531629314701"><ele>50.0</ele><time>2026-04-05T09:22:30.999Z</time></trkpt><trkpt lat="35.78728298130218" lon="10.582429577445932"><ele>50.0</ele><time>2026-04-05T09:22:31.999Z</time></trkpt><trkpt lat="35.78723115975687" lon="10.582325628537092"><ele>50.0</ele><time>2026-04-05T09:22:32.999Z</time></trkpt><trkpt lat="35.78717780131135" lon="10.582226721190027"><ele>50.00000000000001</ele><time>2026-04-05T09:22:33.999Z</time></trkpt><trkpt lat="35.787128230789065" lon="10.582134967039423"><ele>50.0</ele><time>2026-04-05T09:22:34.999Z</time></trkpt><trkpt lat="35.78708419480082" lon="10.582049394876147"><ele>50.0</ele><time>2026-04-05T09:22:35.999Z</time></trkpt><trkpt lat="35.787049642827114" lon="10.581973084687153"><ele>50.0</ele><time>2026-04-05T09:22:36.999Z</time></trkpt><trkpt lat="35.78700434679698" lon="10.581883832747353"><ele>50.00000000000001</ele><time>2026-04-05T09:22:38.999Z</time></trkpt><trkpt lat="35.786966937126365" lon="10.581807451692677"><ele>50.0</ele><time>2026-04-05T09:22:40.999Z</time></trkpt><trkpt lat="35.78692218621088" lon="10.581729041786675"><ele>50.00000000000001</ele><time>2026-04-05T09:22:42.999Z</time></trkpt><trkpt lat="35.78686198068546" lon="10.581613330818588"><ele>50.0</ele><time>2026-04-05T09:22:44.999Z</time></trkpt><trkpt lat="35.78678984324196" lon="10.581490118912514"><ele>50.0</ele><time>2026-04-05T09:22:46.999Z</time></trkpt><trkpt lat="35.78675284932628" lon="10.581424157927442"><ele>50.0</ele><time>2026-04-05T09:22:47.999Z</time></trkpt><trkpt lat="35.786714265904614" lon="10.581350182161641"><ele>50.00000000000001</ele><time>2026-04-05T09:22:48.999Z</time></trkpt><trkpt lat="35.78667914296121" lon="10.5812740606198"><ele>50.0</ele><time>2026-04-05T09:22:49.999Z</time></trkpt><trkpt lat="35.786640807709055" lon="10.58119154805018"><ele>49.833333333333336</ele><time>2026-04-05T09:22:50.999Z</time></trkpt><trkpt lat="35.786599491703406" lon="10.581109306664874"><ele>49.66666666666667</ele><time>2026-04-05T09:22:51.999Z</time></trkpt><trkpt lat="35.786553030989545" lon="10.581021336911505"><ele>49.5</ele><time>2026-04-05T09:22:52.999Z</time></trkpt><trkpt lat="35.78650604641074" lon="10.580930174434876"><ele>49.33333333333333</ele><time>2026-04-05T09:22:53.999Z</time></trkpt><trkpt lat="35.786456873551174" lon="10.580834697727829"><ele>49.166666666666664</ele><time>2026-04-05T09:22:54.999Z</time></trkpt><trkpt lat="35.786403063905624" lon="10.580731489266817"><ele>49.0</ele><time>2026-04-05T09:22:55.999Z</time></trkpt><trkpt lat="35.78634463408222" lon="10.580622332046637"><ele>49.0</ele><time>2026-04-05T09:22:56.999Z</time></trkpt><trkpt lat="35.786287357243694" lon="10.580514278783411"><ele>49.0</ele><time>2026-04-05T09:22:57.999Z</time></trkpt><trkpt lat="35.786233323500944" lon="10.580408700749167"><ele>49.0</ele><time>2026-04-05T09:22:58.999Z</time></trkpt><trkpt lat="35.786182979279666" lon="10.580298524701634"><ele>49.0</ele><time>2026-04-05T09:22:59.999Z</time></trkpt><trkpt lat="35.78613449214414" lon="10.580186230616087"><ele>49.0</ele><time>2026-04-05T09:23:00.999Z</time></trkpt><trkpt lat="35.786083932629275" lon="10.580076687915579"><ele>49.0</ele><time>2026-04-05T09:23:01.999Z</time></trkpt><trkpt lat="35.78603217522225" lon="10.579968955322771"><ele>49.0</ele><time>2026-04-05T09:23:02.999Z</time></trkpt><trkpt lat="35.78598284086945" lon="10.579858652932256"><ele>49.0</ele><time>2026-04-05T09:23:03.999Z</time></trkpt><trkpt lat="35.78593495714391" lon="10.579750111790144"><ele>49.0</ele><time>2026-04-05T09:23:04.999Z</time></trkpt><trkpt lat="35.785886079925156" lon="10.579640720116966"><ele>49.0</ele><time>2026-04-05T09:23:05.999Z</time></trkpt><trkpt lat="35.785840152659944" lon="10.579528411031658"><ele>48.25</ele><time>2026-04-05T09:23:06.999Z</time></trkpt><trkpt lat="35.78579026667944" lon="10.579409549800639"><ele>47.5</ele><time>2026-04-05T09:23:07.999Z</time></trkpt><trkpt lat="35.785736585440944" lon="10.579284959098452"><ele>46.75</ele><time>2026-04-05T09:23:08.999Z</time></trkpt><trkpt lat="35.785685686377725" lon="10.57915642393998"><ele>46.0</ele><time>2026-04-05T09:23:09.999Z</time></trkpt><trkpt lat="35.78563434447571" lon="10.57902841727659"><ele>46.0</ele><time>2026-04-05T09:23:10.999Z</time></trkpt><trkpt lat="35.78557841896039" lon="10.578891428255924"><ele>46.0</ele><time>2026-04-05T09:23:11.999Z</time></trkpt><trkpt lat="35.7855208277222" lon="10.578745463196032"><ele>46.0</ele><time>2026-04-05T09:23:12.999Z</time></trkpt><trkpt lat="35.78546503331551" lon="10.578595046993591"><ele>46.0</ele><time>2026-04-05T09:23:13.999Z</time></trkpt><trkpt lat="35.7854087602551" lon="10.578443099910677"><ele>45.5</ele><time>2026-04-05T09:23:14.999Z</time></trkpt><trkpt lat="35.78535229956917" lon="10.578293996220802"><ele>45.0</ele><time>2026-04-05T09:23:15.999Z</time></trkpt><trkpt lat="35.785295340150384" lon="10.57814595410687"><ele>44.5</ele><time>2026-04-05T09:23:16.999Z</time></trkpt><trkpt lat="35.78524438767522" lon="10.578009875410524"><ele>44.0</ele><time>2026-04-05T09:23:17.999Z</time></trkpt><trkpt lat="35.78520173119774" lon="10.577894581428902"><ele>43.6</ele><time>2026-04-05T09:23:18.999Z</time></trkpt><trkpt lat="35.78516174934559" lon="10.57778602416308"><ele>43.2</ele><time>2026-04-05T09:23:19.999Z</time></trkpt><trkpt lat="35.785117766790805" lon="10.5776752505246"><ele>42.800000000000004</ele><time>2026-04-05T09:23:20.999Z</time></trkpt><trkpt lat="35.78507186975209" lon="10.577561100911382"><ele>42.400000000000006</ele><time>2026-04-05T09:23:21.999Z</time></trkpt><trkpt lat="35.78502437091377" lon="10.57744309628052"><ele>42.0</ele><time>2026-04-05T09:23:22.999Z</time></trkpt><trkpt lat="35.7849726637647" lon="10.577314972466098"><ele>42.0</ele><time>2026-04-05T09:23:23.999Z</time></trkpt><trkpt lat="35.78492050062033" lon="10.577182878486466"><ele>42.0</ele><time>2026-04-05T09:23:24.999Z</time></trkpt><trkpt lat="35.78486573040059" lon="10.577044056488697"><ele>42.0</ele><time>2026-04-05T09:23:25.999Z</time></trkpt><trkpt lat="35.784808184904044" lon="10.576899820934699"><ele>42.0</ele><time>2026-04-05T09:23:26.999Z</time></trkpt><trkpt lat="35.784751205049616" lon="10.576753993144244"><ele>42.5</ele><time>2026-04-05T09:23:27.999Z</time></trkpt><trkpt lat="35.78469942086699" lon="10.576612834237537"><ele>43.0</ele><time>2026-04-05T09:23:28.999Z</time></trkpt><trkpt lat="35.78464866840152" lon="10.576474356818228"><ele>43.5</ele><time>2026-04-05T09:23:29.999Z</time></trkpt><trkpt lat="35.78459611104621" lon="10.576340237539238"><ele>44.0</ele><time>2026-04-05T09:23:30.999Z</time></trkpt><trkpt lat="35.78454347805128" lon="10.576208000917426"><ele>44.0</ele><time>2026-04-05T09:23:31.999Z</time></trkpt><trkpt lat="35.78449018098266" lon="10.57607640276871"><ele>44.0</ele><time>2026-04-05T09:23:32.999Z</time></trkpt><trkpt lat="35.78443716239579" lon="10.5759484957906"><ele>44.0</ele><time>2026-04-05T09:23:33.999Z</time></trkpt><trkpt lat="35.78438545701798" lon="10.575820794354033"><ele>44.0</ele><time>2026-04-05T09:23:34.999Z</time></trkpt><trkpt lat="35.784330761717044" lon="10.575696213026104"><ele>44.0</ele><time>2026-04-05T09:23:35.999Z</time></trkpt><trkpt lat="35.78427197230596" lon="10.575566602102352"><ele>44.0</ele><time>2026-04-05T09:23:36.999Z</time></trkpt><trkpt lat="35.784198826391865" lon="10.575413040166511"><ele>44.0</ele><time>2026-04-05T09:23:37.999Z</time></trkpt><trkpt lat="35.78411866392303" lon="10.575221493674716"><ele>44.0</ele><time>2026-04-05T09:23:38.999Z</time></trkpt><trkpt lat="35.78404029852895" lon="10.57502141046172"><ele>44.25</ele><time>2026-04-05T09:23:39.999Z</time></trkpt><trkpt lat="35.783976358409895" lon="10.57484544860704"><ele>44.5</ele><time>2026-04-05T09:23:40.999Z</time></trkpt><trkpt lat="35.783915863568275" lon="10.574685422196413"><ele>44.75</ele><time>2026-04-05T09:23:41.999Z</time></trkpt><trkpt lat="35.78386106136696" lon="10.57454475839205"><ele>45.0</ele><time>2026-04-05T09:23:42.999Z</time></trkpt><trkpt lat="35.7837992933174" lon="10.574395710042998"><ele>44.5</ele><time>2026-04-05T09:23:43.999Z</time></trkpt><trkpt lat="35.783758236189435" lon="10.574263163845702"><ele>44.0</ele><time>2026-04-05T09:23:44.999Z</time></trkpt><trkpt lat="35.78371422622001" lon="10.574142664194966"><ele>43.5</ele><time>2026-04-05T09:23:45.999Z</time></trkpt><trkpt lat="35.78367425246097" lon="10.574018281680884"><ele>43.0</ele><time>2026-04-05T09:23:46.999Z</time></trkpt><trkpt lat="35.78363299023705" lon="10.573880299921447"><ele>43.0</ele><time>2026-04-05T09:23:47.999Z</time></trkpt><trkpt lat="35.78358841579901" lon="10.573726184077557"><ele>43.0</ele><time>2026-04-05T09:23:48.999Z</time></trkpt><trkpt lat="35.78353157189481" lon="10.573580900713827"><ele>43.0</ele><time>2026-04-05T09:23:49.999Z</time></trkpt><trkpt lat="35.783456729341545" lon="10.57345348792983"><ele>43.0</ele><time>2026-04-05T09:23:50.999Z</time></trkpt><trkpt lat="35.783375203651474" lon="10.573322562759468"><ele>43.66666666666667</ele><time>2026-04-05T09:23:51.999Z</time></trkpt><trkpt lat="35.78328985063826" lon="10.57313721976087"><ele>44.333333333333336</ele><time>2026-04-05T09:23:52.999Z</time></trkpt><trkpt lat="35.783201982338156" lon="10.572880631721334"><ele>45.0</ele><time>2026-04-05T09:23:53.999Z</time></trkpt><trkpt lat="35.78311721334851" lon="10.572588233129524"><ele>46.0</ele><time>2026-04-05T09:23:54.999Z</time></trkpt><trkpt lat="35.78302454175596" lon="10.57227066048305"><ele>47.0</ele><time>2026-04-05T09:23:55.999Z</time></trkpt><trkpt lat="35.78293016453528" lon="10.57195937848503"><ele>47.5</ele><time>2026-04-05T09:23:56.999Z</time></trkpt><trkpt lat="35.782846725464516" lon="10.571683655931697"><ele>48.0</ele><time>2026-04-05T09:23:57.999Z</time></trkpt><trkpt lat="35.78277378820891" lon="10.571429961336387"><ele>47.5</ele><time>2026-04-05T09:23:58.999Z</time></trkpt><trkpt lat="35.782711222019046" lon="10.571169100671629"><ele>47.0</ele><time>2026-04-05T09:23:59.999Z</time></trkpt><trkpt lat="35.782653782868856" lon="10.570886664262956"><ele>47.0</ele><time>2026-04-05T09:24:00.999Z</time></trkpt><trkpt lat="35.78259914961749" lon="10.570589971140741"><ele>47.0</ele><time>2026-04-05T09:24:01.999Z</time></trkpt><trkpt lat="35.782547287822375" lon="10.570311644569347"><ele>47.666666666666664</ele><time>2026-04-05T09:24:02.999Z</time></trkpt><trkpt lat="35.78249742855721" lon="10.570048651985763"><ele>48.33333333333333</ele><time>2026-04-05T09:24:03.999Z</time></trkpt><trkpt lat="35.78244822375914" lon="10.569793248332648"><ele>49.0</ele><time>2026-04-05T09:24:04.999Z</time></trkpt><trkpt lat="35.782398274531985" lon="10.569541913375467"><ele>49.0</ele><time>2026-04-05T09:24:05.999Z</time></trkpt><trkpt lat="35.782345220098634" lon="10.569284762885271"><ele>49.0</ele><time>2026-04-05T09:24:06.999Z</time></trkpt><trkpt lat="35.78228967334452" lon="10.56900486237508"><ele>49.0</ele><time>2026-04-05T09:24:07.999Z</time></trkpt><trkpt lat="35.78223776394505" lon="10.568743099593283"><ele>50.33333333333333</ele><time>2026-04-05T09:24:08.999Z</time></trkpt><trkpt lat="35.782190531513706" lon="10.568500979687402"><ele>51.66666666666667</ele><time>2026-04-05T09:24:09.999Z</time></trkpt><trkpt lat="35.78214358378316" lon="10.568264883245828"><ele>53.0</ele><time>2026-04-05T09:24:10.999Z</time></trkpt><trkpt lat="35.78210091953706" lon="10.568049484509945"><ele>53.0</ele><time>2026-04-05T09:24:11.999Z</time></trkpt><trkpt lat="35.78206136328389" lon="10.567841235529995"><ele>53.0</ele><time>2026-04-05T09:24:12.999Z</time></trkpt><trkpt lat="35.7820210351448" lon="10.567635510180923"><ele>53.0</ele><time>2026-04-05T09:24:13.999Z</time></trkpt><trkpt lat="35.78198232892198" lon="10.567442923836081"><ele>53.0</ele><time>2026-04-05T09:24:14.999Z</time></trkpt><trkpt lat="35.781942479366336" lon="10.567249411835876"><ele>53.0</ele><time>2026-04-05T09:24:15.999Z</time></trkpt><trkpt lat="35.781903996441656" lon="10.567060392529681"><ele>53.0</ele><time>2026-04-05T09:24:16.999Z</time></trkpt><trkpt lat="35.781863495718746" lon="10.566870116657173"><ele>53.333333333333336</ele><time>2026-04-05T09:24:17.999Z</time></trkpt><trkpt lat="35.78182670423603" lon="10.56667511815328"><ele>53.66666666666667</ele><time>2026-04-05T09:24:18.999Z</time></trkpt><trkpt lat="35.78178586391665" lon="10.56646346386692"><ele>54.0</ele><time>2026-04-05T09:24:19.999Z</time></trkpt><trkpt lat="35.781738192293176" lon="10.566228230392857"><ele>53.5</ele><time>2026-04-05T09:24:20.999Z</time></trkpt><trkpt lat="35.78168267847731" lon="10.565961037456294"><ele>53.0</ele><time>2026-04-05T09:24:21.999Z</time></trkpt><trkpt lat="35.781614170001646" lon="10.56566937193977"><ele>53.0</ele><time>2026-04-05T09:24:22.999Z</time></trkpt><trkpt lat="35.78153370235131" lon="10.56536609445003"><ele>53.0</ele><time>2026-04-05T09:24:23.999Z</time></trkpt><trkpt lat="35.78143445511267" lon="10.565059322739064"><ele>53.0</ele><time>2026-04-05T09:24:24.999Z</time></trkpt><trkpt lat="35.78132963712005" lon="10.564783596418177"><ele>53.0</ele><time>2026-04-05T09:24:25.999Z</time></trkpt><trkpt lat="35.781215681830396" lon="10.56451711509972"><ele>53.0</ele><time>2026-04-05T09:24:26.999Z</time></trkpt><trkpt lat="35.781091620125814" lon="10.564245130095252"><ele>53.0</ele><time>2026-04-05T09:24:27.999Z</time></trkpt><trkpt lat="35.78095399014835" lon="10.563978275884415"><ele>53.0</ele><time>2026-04-05T09:24:28.999Z</time></trkpt><trkpt lat="35.780805027991356" lon="10.563720593791233"><ele>53.0</ele><time>2026-04-05T09:24:29.999Z</time></trkpt><trkpt lat="35.78064916062564" lon="10.563478882098472"><ele>53.5</ele><time>2026-04-05T09:24:30.999Z</time></trkpt><trkpt lat="35.78049603978477" lon="10.56325947167293"><ele>54.0</ele><time>2026-04-05T09:24:31.999Z</time></trkpt><trkpt lat="35.78034827938041" lon="10.563056532973505"><ele>54.0</ele><time>2026-04-05T09:24:32.999Z</time></trkpt><trkpt lat="35.78021258526449" lon="10.562874483913612"><ele>54.0</ele><time>2026-04-05T09:24:33.999Z</time></trkpt><trkpt lat="35.78008614950592" lon="10.562700948988102"><ele>54.0</ele><time>2026-04-05T09:24:34.999Z</time></trkpt><trkpt lat="35.7799666877538" lon="10.562537773135864"><ele>54.33333333333333</ele><time>2026-04-05T09:24:35.999Z</time></trkpt><trkpt lat="35.77984618164294" lon="10.562384683683053"><ele>54.666666666666664</ele><time>2026-04-05T09:24:36.999Z</time></trkpt><trkpt lat="35.77973278465684" lon="10.562245383551266"><ele>55.0</ele><time>2026-04-05T09:24:37.999Z</time></trkpt><trkpt lat="35.779626725993495" lon="10.562116650417044"><ele>56.0</ele><time>2026-04-05T09:24:38.999Z</time></trkpt><trkpt lat="35.77953010153452" lon="10.56199188693932"><ele>57.0</ele><time>2026-04-05T09:24:39.999Z</time></trkpt><trkpt lat="35.77944028586807" lon="10.561875789290834"><ele>58.0</ele><time>2026-04-05T09:24:40.999Z</time></trkpt><trkpt lat="35.779362482492935" lon="10.561772053508776"><ele>59.0</ele><time>2026-04-05T09:24:41.999Z</time></trkpt><trkpt lat="35.77929524756986" lon="10.561678175078422"><ele>59.00000000000001</ele><time>2026-04-05T09:24:42.999Z</time></trkpt><trkpt lat="35.77924128217436" lon="10.561584546540947"><ele>59.0</ele><time>2026-04-05T09:24:43.999Z</time></trkpt><trkpt lat="35.77920221197081" lon="10.561489080870597"><ele>59.0</ele><time>2026-04-05T09:24:44.999Z</time></trkpt><trkpt lat="35.77917948304239" lon="10.561398143526057"><ele>59.0</ele><time>2026-04-05T09:24:45.999Z</time></trkpt><trkpt lat="35.779148851391724" lon="10.561304007018103"><ele>59.00000000000001</ele><time>2026-04-05T09:24:46.999Z</time></trkpt><trkpt lat="35.77910606269632" lon="10.561228408564544"><ele>59.0</ele><time>2026-04-05T09:24:47.999Z</time></trkpt><trkpt lat="35.77904667356659" lon="10.561171093048584"><ele>59.5</ele><time>2026-04-05T09:24:48.999Z</time></trkpt><trkpt lat="35.77896481804096" lon="10.561136951153152"><ele>60.0</ele><time>2026-04-05T09:24:49.999Z</time></trkpt><trkpt lat="35.77886395310932" lon="10.561086660183692"><ele>60.5</ele><time>2026-04-05T09:24:50.999Z</time></trkpt><trkpt lat="35.77875892986932" lon="10.560988450661023"><ele>61.0</ele><time>2026-04-05T09:24:51.999Z</time></trkpt><trkpt lat="35.77865411625933" lon="10.56085524577674"><ele>61.0</ele><time>2026-04-05T09:24:52.999Z</time></trkpt><trkpt lat="35.77855842906119" lon="10.560717484411462"><ele>61.0</ele><time>2026-04-05T09:24:53.999Z</time></trkpt><trkpt lat="35.77847152083116" lon="10.560593128757281"><ele>61.0</ele><time>2026-04-05T09:24:54.999Z</time></trkpt><trkpt lat="35.778391324451874" lon="10.56048619231403"><ele>61.0</ele><time>2026-04-05T09:24:55.999Z</time></trkpt><trkpt lat="35.77830530467231" lon="10.560371745198346"><ele>61.0</ele><time>2026-04-05T09:24:56.999Z</time></trkpt><trkpt lat="35.77821507182908" lon="10.560255964759476"><ele>61.0</ele><time>2026-04-05T09:24:57.999Z</time></trkpt><trkpt lat="35.77812522423425" lon="10.560137102296256"><ele>61.0</ele><time>2026-04-05T09:24:58.999Z</time></trkpt><trkpt lat="35.778033312694255" lon="10.5600173288269"><ele>61.0</ele><time>2026-04-05T09:24:59.999Z</time></trkpt><trkpt lat="35.777938230392685" lon="10.559894283698096"><ele>61.0</ele><time>2026-04-05T09:25:00.999Z</time></trkpt><trkpt lat="35.77783887956506" lon="10.559768000741462"><ele>61.0</ele><time>2026-04-05T09:25:01.999Z</time></trkpt><trkpt lat="35.777740831417866" lon="10.559639623420916"><ele>61.0</ele><time>2026-04-05T09:25:02.999Z</time></trkpt><trkpt lat="35.777643864076126" lon="10.559510061740392"><ele>61.0</ele><time>2026-04-05T09:25:03.999Z</time></trkpt><trkpt lat="35.777547645993266" lon="10.559381012495686"><ele>61.75</ele><time>2026-04-05T09:25:04.999Z</time></trkpt><trkpt lat="35.777452622323246" lon="10.559250839585582"><ele>62.5</ele><time>2026-04-05T09:25:05.999Z</time></trkpt><trkpt lat="35.777357002455034" lon="10.55912191615703"><ele>63.25</ele><time>2026-04-05T09:25:06.999Z</time></trkpt><trkpt lat="35.77726179889044" lon="10.558996093957836"><ele>64.0</ele><time>2026-04-05T09:25:07.999Z</time></trkpt><trkpt lat="35.7771669098439" lon="10.55887219355916"><ele>64.0</ele><time>2026-04-05T09:25:08.999Z</time></trkpt><trkpt lat="35.77707129971032" lon="10.558744637193534"><ele>64.0</ele><time>2026-04-05T09:25:09.999Z</time></trkpt><trkpt lat="35.776975996588924" lon="10.5586118594282"><ele>64.0</ele><time>2026-04-05T09:25:10.999Z</time></trkpt><trkpt lat="35.77688111975899" lon="10.558472476383788"><ele>64.0</ele><time>2026-04-05T09:25:11.999Z</time></trkpt><trkpt lat="35.77678724656042" lon="10.558329267457298"><ele>65.0</ele><time>2026-04-05T09:25:12.999Z</time></trkpt><trkpt lat="35.776694999744" lon="10.5581863318511"><ele>66.0</ele><time>2026-04-05T09:25:13.999Z</time></trkpt><trkpt lat="35.7766056546571" lon="10.55803722835198"><ele>67.0</ele><time>2026-04-05T09:25:14.999Z</time></trkpt><trkpt lat="35.776519606722054" lon="10.557883235712014"><ele>67.5</ele><time>2026-04-05T09:25:15.999Z</time></trkpt><trkpt lat="35.77644327863423" lon="10.557726152867637"><ele>68.0</ele><time>2026-04-05T09:25:16.999Z</time></trkpt><trkpt lat="35.77636866506268" lon="10.557565207758078"><ele>68.5</ele><time>2026-04-05T09:25:17.999Z</time></trkpt><trkpt lat="35.776291148617304" lon="10.557408011504135"><ele>69.0</ele><time>2026-04-05T09:25:18.999Z</time></trkpt><trkpt lat="35.77621023283672" lon="10.557248247527978"><ele>69.0</ele><time>2026-04-05T09:25:19.999Z</time></trkpt><trkpt lat="35.77613153804804" lon="10.557087131520078"><ele>69.0</ele><time>2026-04-05T09:25:20.999Z</time></trkpt><trkpt lat="35.776056409066335" lon="10.556937480978046"><ele>69.0</ele><time>2026-04-05T09:25:21.999Z</time></trkpt><trkpt lat="35.77598045035897" lon="10.556784514195769"><ele>69.0</ele><time>2026-04-05T09:25:22.999Z</time></trkpt><trkpt lat="35.77590036251978" lon="10.556623114700422"><ele>69.0</ele><time>2026-04-05T09:25:23.999Z</time></trkpt><trkpt lat="35.775815002999344" lon="10.55645319608215"><ele>69.0</ele><time>2026-04-05T09:25:24.999Z</time></trkpt><trkpt lat="35.775725597677194" lon="10.556279177858157"><ele>69.0</ele><time>2026-04-05T09:25:25.999Z</time></trkpt><trkpt lat="35.77563943201597" lon="10.55610538747496"><ele>69.0</ele><time>2026-04-05T09:25:26.999Z</time></trkpt><trkpt lat="35.77555446277791" lon="10.555932455076247"><ele>69.0</ele><time>2026-04-05T09:25:27.999Z</time></trkpt><trkpt lat="35.77547172491164" lon="10.555761852061591"><ele>69.0</ele><time>2026-04-05T09:25:28.999Z</time></trkpt><trkpt lat="35.77538853188277" lon="10.555600254261284"><ele>69.0</ele><time>2026-04-05T09:25:29.999Z</time></trkpt><trkpt lat="35.77530993262381" lon="10.555451332677428"><ele>69.0</ele><time>2026-04-05T09:25:30.999Z</time></trkpt><trkpt lat="35.77523158213362" lon="10.555302163534826"><ele>69.0</ele><time>2026-04-05T09:25:31.999Z</time></trkpt><trkpt lat="35.775152739884504" lon="10.555151986945333"><ele>69.0</ele><time>2026-04-05T09:25:32.999Z</time></trkpt><trkpt lat="35.77507625679497" lon="10.555001614626702"><ele>68.75</ele><time>2026-04-05T09:25:33.999Z</time></trkpt><trkpt lat="35.775000446643396" lon="10.554849672914152"><ele>68.5</ele><time>2026-04-05T09:25:34.999Z</time></trkpt><trkpt lat="35.77493344168174" lon="10.554697155869256"><ele>68.25</ele><time>2026-04-05T09:25:35.999Z</time></trkpt><trkpt lat="35.77487381065786" lon="10.554547883204515"><ele>68.0</ele><time>2026-04-05T09:25:36.999Z</time></trkpt><trkpt lat="35.77481762826332" lon="10.554409796489153"><ele>68.8</ele><time>2026-04-05T09:25:37.999Z</time></trkpt><trkpt lat="35.77476461883216" lon="10.554290429977682"><ele>69.6</ele><time>2026-04-05T09:25:38.999Z</time></trkpt><trkpt lat="35.77471625553488" lon="10.554180441727732"><ele>70.4</ele><time>2026-04-05T09:25:39.999Z</time></trkpt><trkpt lat="35.7746779181691" lon="10.554073082050039"><ele>71.2</ele><time>2026-04-05T09:25:40.999Z</time></trkpt><trkpt lat="35.77465859620118" lon="10.553958632000581"><ele>72.0</ele><time>2026-04-05T09:25:41.999Z</time></trkpt><trkpt lat="35.774658795998334" lon="10.55385809747144"><ele>72.0</ele><time>2026-04-05T09:25:42.999Z</time></trkpt><trkpt lat="35.77465457084769" lon="10.553773095114117"><ele>72.0</ele><time>2026-04-05T09:25:43.999Z</time></trkpt><trkpt lat="35.77458970547499" lon="10.553655157530592"><ele>72.0</ele><time>2026-04-05T09:25:45.999Z</time></trkpt><trkpt lat="35.774490851076465" lon="10.553601301430488"><ele>72.0</ele><time>2026-04-05T09:25:47.999Z</time></trkpt><trkpt lat="35.77439763509719" lon="10.553656261844036"><ele>72.0</ele><time>2026-04-05T09:25:49.999Z</time></trkpt><trkpt lat="35.774346467670135" lon="10.55379517275259"><ele>72.0</ele><time>2026-04-05T09:25:51.999Z</time></trkpt><trkpt lat="35.77436032910712" lon="10.55387779339164"><ele>72.0</ele><time>2026-04-05T09:25:52.999Z</time></trkpt><trkpt lat="35.77441063268712" lon="10.553950804409906"><ele>72.0</ele><time>2026-04-05T09:25:53.999Z</time></trkpt><trkpt lat="35.774466572584465" lon="10.554012028047552"><ele>72.0</ele><time>2026-04-05T09:25:54.999Z</time></trkpt><trkpt lat="35.774531714093" lon="10.554078521114493"><ele>72.0</ele><time>2026-04-05T09:25:55.999Z</time></trkpt><trkpt lat="35.774591263248155" lon="10.554161096843426"><ele>72.0</ele><time>2026-04-05T09:25:56.999Z</time></trkpt><trkpt lat="35.77464743233952" lon="10.554266785829197"><ele>72.0</ele><time>2026-04-05T09:25:57.999Z</time></trkpt><trkpt lat="35.77469949796077" lon="10.554402211529684"><ele>72.0</ele><time>2026-04-05T09:25:58.999Z</time></trkpt><trkpt lat="35.774753522130986" lon="10.55454838740689"><ele>72.0</ele><time>2026-04-05T09:25:59.999Z</time></trkpt><trkpt lat="35.77481838949969" lon="10.554696978526094"><ele>72.0</ele><time>2026-04-05T09:26:00.999Z</time></trkpt><trkpt lat="35.7748858811513" lon="10.554849821796294"><ele>71.0</ele><time>2026-04-05T09:26:01.999Z</time></trkpt><trkpt lat="35.774950827547066" lon="10.555004568799152"><ele>70.0</ele><time>2026-04-05T09:26:02.999Z</time></trkpt><trkpt lat="35.775016636880046" lon="10.555159745602715"><ele>69.0</ele><time>2026-04-05T09:26:03.999Z</time></trkpt><trkpt lat="35.77507999694185" lon="10.55531655681545"><ele>68.0</ele><time>2026-04-05T09:26:04.999Z</time></trkpt><trkpt lat="35.7751379633644" lon="10.555471658308312"><ele>68.25</ele><time>2026-04-05T09:26:05.999Z</time></trkpt><trkpt lat="35.77519769298823" lon="10.555617571866604"><ele>68.5</ele><time>2026-04-05T09:26:06.999Z</time></trkpt><trkpt lat="35.7752557909623" lon="10.555753474835798"><ele>68.75</ele><time>2026-04-05T09:26:07.999Z</time></trkpt><trkpt lat="35.77530587038029" lon="10.555875493494725"><ele>69.0</ele><time>2026-04-05T09:26:08.999Z</time></trkpt><trkpt lat="35.775346699459384" lon="10.55600270561096"><ele>69.0</ele><time>2026-04-05T09:26:09.999Z</time></trkpt><trkpt lat="35.77536506794626" lon="10.556124949253125"><ele>69.0</ele><time>2026-04-05T09:26:10.999Z</time></trkpt><trkpt lat="35.77535835914634" lon="10.55624772497972"><ele>69.0</ele><time>2026-04-05T09:26:11.999Z</time></trkpt><trkpt lat="35.77533121434467" lon="10.556368363995942"><ele>69.0</ele><time>2026-04-05T09:26:12.999Z</time></trkpt><trkpt lat="35.77528992804138" lon="10.556486580131205"><ele>69.0</ele><time>2026-04-05T09:26:13.999Z</time></trkpt><trkpt lat="35.77522006580586" lon="10.556593097479146"><ele>68.25</ele><time>2026-04-05T09:26:14.999Z</time></trkpt><trkpt lat="35.7751334109387" lon="10.556688423370046"><ele>67.5</ele><time>2026-04-05T09:26:15.999Z</time></trkpt><trkpt lat="35.775025513869146" lon="10.556758687515462"><ele>66.75</ele><time>2026-04-05T09:26:16.999Z</time></trkpt><trkpt lat="35.77489928996888" lon="10.55680469013882"><ele>66.0</ele><time>2026-04-05T09:26:17.999Z</time></trkpt><trkpt lat="35.77476251182027" lon="10.556843028830142"><ele>66.0</ele><time>2026-04-05T09:26:18.999Z</time></trkpt><trkpt lat="35.77461379718059" lon="10.55689758955817"><ele>66.0</ele><time>2026-04-05T09:26:19.999Z</time></trkpt><trkpt lat="35.77446420780054" lon="10.556964655208304"><ele>66.0</ele><time>2026-04-05T09:26:20.999Z</time></trkpt><trkpt lat="35.77430564031101" lon="10.557036565094883"><ele>65.66666666666667</ele><time>2026-04-05T09:26:21.999Z</time></trkpt><trkpt lat="35.77414374149553" lon="10.557101387868629"><ele>65.33333333333334</ele><time>2026-04-05T09:26:22.999Z</time></trkpt><trkpt lat="35.7739819812378" lon="10.5571607470565"><ele>65.0</ele><time>2026-04-05T09:26:23.999Z</time></trkpt><trkpt lat="35.773822020159045" lon="10.557220099957775"><ele>65.0</ele><time>2026-04-05T09:26:24.999Z</time></trkpt><trkpt lat="35.77367517364261" lon="10.557275206327526"><ele>65.0</ele><time>2026-04-05T09:26:25.999Z</time></trkpt><trkpt lat="35.773520280224446" lon="10.5573304302738"><ele>65.0</ele><time>2026-04-05T09:26:26.999Z</time></trkpt><trkpt lat="35.77336015809231" lon="10.55738053169606"><ele>66.0</ele><time>2026-04-05T09:26:27.999Z</time></trkpt><trkpt lat="35.7731934022478" lon="10.557423566509458"><ele>67.0</ele><time>2026-04-05T09:26:28.999Z</time></trkpt><trkpt lat="35.773020830441" lon="10.557460844748345"><ele>68.0</ele><time>2026-04-05T09:26:29.999Z</time></trkpt><trkpt lat="35.77283902429915" lon="10.5574934311841"><ele>68.33333333333334</ele><time>2026-04-05T09:26:30.999Z</time></trkpt><trkpt lat="35.77265155362819" lon="10.55752414400633"><ele>68.66666666666667</ele><time>2026-04-05T09:26:31.999Z</time></trkpt><trkpt lat="35.77245882867435" lon="10.557557221820005"><ele>69.0</ele><time>2026-04-05T09:26:32.999Z</time></trkpt><trkpt lat="35.77226458601699" lon="10.557589596804934"><ele>69.0</ele><time>2026-04-05T09:26:33.999Z</time></trkpt><trkpt lat="35.77207175432894" lon="10.55762154643189"><ele>69.0</ele><time>2026-04-05T09:26:34.999Z</time></trkpt><trkpt lat="35.77187381094714" lon="10.55765561198409"><ele>69.0</ele><time>2026-04-05T09:26:35.999Z</time></trkpt><trkpt lat="35.77167487363521" lon="10.557690387724836"><ele>68.66666666666667</ele><time>2026-04-05T09:26:36.999Z</time></trkpt><trkpt lat="35.77146826404233" lon="10.557725355554274"><ele>68.33333333333334</ele><time>2026-04-05T09:26:37.999Z</time></trkpt><trkpt lat="35.7712642660304" lon="10.55775808421445"><ele>68.0</ele><time>2026-04-05T09:26:38.999Z</time></trkpt><trkpt lat="35.77105809133474" lon="10.55778803638927"><ele>67.33333333333334</ele><time>2026-04-05T09:26:39.999Z</time></trkpt><trkpt lat="35.77084707108109" lon="10.557818850671119"><ele>66.66666666666667</ele><time>2026-04-05T09:26:40.999Z</time></trkpt><trkpt lat="35.770630796010046" lon="10.55784681501059"><ele>66.0</ele><time>2026-04-05T09:26:41.999Z</time></trkpt><trkpt lat="35.77041454041908" lon="10.557875625192507"><ele>66.0</ele><time>2026-04-05T09:26:42.999Z</time></trkpt><trkpt lat="35.77019779121569" lon="10.55790821712295"><ele>66.0</ele><time>2026-04-05T09:26:43.999Z</time></trkpt><trkpt lat="35.769979524152866" lon="10.557936360902712"><ele>66.0</ele><time>2026-04-05T09:26:44.999Z</time></trkpt><trkpt lat="35.7697645508139" lon="10.557959159923197"><ele>65.33333333333333</ele><time>2026-04-05T09:26:45.999Z</time></trkpt><trkpt lat="35.76954648045217" lon="10.557983506213148"><ele>64.66666666666666</ele><time>2026-04-05T09:26:46.999Z</time></trkpt><trkpt lat="35.76933152189535" lon="10.558007448403249"><ele>64.0</ele><time>2026-04-05T09:26:47.999Z</time></trkpt><trkpt lat="35.769116951338276" lon="10.558029211384675"><ele>63.33333333333333</ele><time>2026-04-05T09:26:48.999Z</time></trkpt><trkpt lat="35.768899404878205" lon="10.558047411487063"><ele>62.66666666666667</ele><time>2026-04-05T09:26:49.999Z</time></trkpt><trkpt lat="35.76867796034749" lon="10.558063650854935"><ele>62.0</ele><time>2026-04-05T09:26:50.999Z</time></trkpt><trkpt lat="35.76845345949016" lon="10.558077598430184"><ele>61.5</ele><time>2026-04-05T09:26:51.999Z</time></trkpt><trkpt lat="35.76822545171538" lon="10.55809617475109"><ele>61.0</ele><time>2026-04-05T09:26:52.999Z</time></trkpt><trkpt lat="35.76799396030398" lon="10.558106066214235"><ele>61.0</ele><time>2026-04-05T09:26:53.999Z</time></trkpt><trkpt lat="35.76776367094063" lon="10.558117543563407"><ele>61.0</ele><time>2026-04-05T09:26:54.999Z</time></trkpt><trkpt lat="35.76753407606043" lon="10.558130075227458"><ele>60.0</ele><time>2026-04-05T09:26:55.999Z</time></trkpt><trkpt lat="35.76730640580063" lon="10.558140851199957"><ele>59.0</ele><time>2026-04-05T09:26:56.999Z</time></trkpt><trkpt lat="35.76707695594442" lon="10.558152237382364"><ele>58.5</ele><time>2026-04-05T09:26:57.999Z</time></trkpt><trkpt lat="35.76685296779326" lon="10.558160255415578"><ele>58.0</ele><time>2026-04-05T09:26:58.999Z</time></trkpt><trkpt lat="35.76662287276669" lon="10.558171699248085"><ele>58.0</ele><time>2026-04-05T09:26:59.999Z</time></trkpt><trkpt lat="35.76639590184225" lon="10.558175217451234"><ele>58.0</ele><time>2026-04-05T09:27:00.999Z</time></trkpt><trkpt lat="35.76616722230294" lon="10.558175812907288"><ele>57.5</ele><time>2026-04-05T09:27:01.999Z</time></trkpt><trkpt lat="35.7659376210503" lon="10.558177882852123"><ele>57.0</ele><time>2026-04-05T09:27:02.999Z</time></trkpt><trkpt lat="35.765710842184525" lon="10.55817857570625"><ele>57.0</ele><time>2026-04-05T09:27:03.999Z</time></trkpt><trkpt lat="35.76548396624079" lon="10.558178912651414"><ele>57.0</ele><time>2026-04-05T09:27:04.999Z</time></trkpt><trkpt lat="35.76525626648126" lon="10.558180382898476"><ele>57.0</ele><time>2026-04-05T09:27:05.999Z</time></trkpt><trkpt lat="35.765026439252985" lon="10.558180637195958"><ele>57.0</ele><time>2026-04-05T09:27:06.999Z</time></trkpt><trkpt lat="35.764798574603574" lon="10.558174387663449"><ele>57.0</ele><time>2026-04-05T09:27:07.999Z</time></trkpt><trkpt lat="35.76456683387628" lon="10.55816350339215"><ele>57.0</ele><time>2026-04-05T09:27:08.999Z</time></trkpt><trkpt lat="35.764328618245756" lon="10.558148970253617"><ele>57.0</ele><time>2026-04-05T09:27:09.999Z</time></trkpt><trkpt lat="35.76408315174911" lon="10.558138040759006"><ele>57.0</ele><time>2026-04-05T09:27:10.999Z</time></trkpt><trkpt lat="35.76384162023285" lon="10.558125884807874"><ele>57.0</ele><time>2026-04-05T09:27:11.999Z</time></trkpt><trkpt lat="35.76360122883825" lon="10.558115125471337"><ele>57.0</ele><time>2026-04-05T09:27:12.999Z</time></trkpt><trkpt lat="35.76335712741095" lon="10.558103630118653"><ele>58.0</ele><time>2026-04-05T09:27:13.999Z</time></trkpt><trkpt lat="35.763118459242726" lon="10.55808952814339"><ele>59.0</ele><time>2026-04-05T09:27:14.999Z</time></trkpt><trkpt lat="35.76287679841266" lon="10.558074101869206"><ele>59.5</ele><time>2026-04-05T09:27:15.999Z</time></trkpt><trkpt lat="35.762638857212636" lon="10.558056632046915"><ele>60.0</ele><time>2026-04-05T09:27:16.999Z</time></trkpt><trkpt lat="35.76239844200919" lon="10.558039239920495"><ele>60.0</ele><time>2026-04-05T09:27:17.999Z</time></trkpt><trkpt lat="35.76215628191577" lon="10.558021092773131"><ele>60.0</ele><time>2026-04-05T09:27:18.999Z</time></trkpt><trkpt lat="35.76191509984736" lon="10.55800190064251"><ele>61.0</ele><time>2026-04-05T09:27:19.999Z</time></trkpt><trkpt lat="35.76167345948186" lon="10.55798025313527"><ele>62.0</ele><time>2026-04-05T09:27:20.999Z</time></trkpt><trkpt lat="35.76143296380888" lon="10.557954143267155"><ele>62.0</ele><time>2026-04-05T09:27:21.999Z</time></trkpt><trkpt lat="35.76118862612722" lon="10.557921651459292"><ele>62.0</ele><time>2026-04-05T09:27:22.999Z</time></trkpt><trkpt lat="35.76094127950642" lon="10.557888993064344"><ele>62.0</ele><time>2026-04-05T09:27:23.999Z</time></trkpt><trkpt lat="35.760692190252556" lon="10.557853836411713"><ele>62.0</ele><time>2026-04-05T09:27:24.999Z</time></trkpt><trkpt lat="35.76044220195313" lon="10.557818875305362"><ele>62.0</ele><time>2026-04-05T09:27:25.999Z</time></trkpt><trkpt lat="35.760186835482784" lon="10.557782413258316"><ele>62.0</ele><time>2026-04-05T09:27:26.999Z</time></trkpt><trkpt lat="35.75993261267314" lon="10.557745995707219"><ele>62.0</ele><time>2026-04-05T09:27:27.999Z</time></trkpt><trkpt lat="35.759678990924485" lon="10.557709927540733"><ele>62.0</ele><time>2026-04-05T09:27:28.999Z</time></trkpt><trkpt lat="35.7594257571817" lon="10.557670922931841"><ele>63.5</ele><time>2026-04-05T09:27:29.999Z</time></trkpt><trkpt lat="35.75917414178074" lon="10.557630890200056"><ele>65.0</ele><time>2026-04-05T09:27:30.999Z</time></trkpt><trkpt lat="35.758923878824106" lon="10.557589207452718"><ele>65.0</ele><time>2026-04-05T09:27:31.999Z</time></trkpt><trkpt lat="35.758675246222744" lon="10.557546662260584"><ele>65.0</ele><time>2026-04-05T09:27:32.999Z</time></trkpt><trkpt lat="35.75842636776716" lon="10.55750297115048"><ele>64.5</ele><time>2026-04-05T09:27:33.999Z</time></trkpt><trkpt lat="35.75817507913787" lon="10.557456901141087"><ele>64.0</ele><time>2026-04-05T09:27:34.999Z</time></trkpt><trkpt lat="35.757925101628096" lon="10.55741083620293"><ele>62.5</ele><time>2026-04-05T09:27:35.999Z</time></trkpt><trkpt lat="35.75767613403031" lon="10.557365790137542"><ele>61.0</ele><time>2026-04-05T09:27:36.999Z</time></trkpt><trkpt lat="35.75742485356747" lon="10.557318944952803"><ele>61.0</ele><time>2026-04-05T09:27:37.999Z</time></trkpt><trkpt lat="35.757174363163706" lon="10.5572691544128"><ele>61.0</ele><time>2026-04-05T09:27:38.999Z</time></trkpt><trkpt lat="35.75692603113312" lon="10.55721363084144"><ele>60.5</ele><time>2026-04-05T09:27:39.999Z</time></trkpt><trkpt lat="35.756678308046695" lon="10.557155725306178"><ele>60.0</ele><time>2026-04-05T09:27:40.999Z</time></trkpt><trkpt lat="35.756426784408475" lon="10.55709406718335"><ele>60.5</ele><time>2026-04-05T09:27:41.999Z</time></trkpt><trkpt lat="35.756178811211264" lon="10.5570309606664"><ele>61.0</ele><time>2026-04-05T09:27:42.999Z</time></trkpt><trkpt lat="35.75593064633507" lon="10.556967074038774"><ele>60.0</ele><time>2026-04-05T09:27:43.999Z</time></trkpt><trkpt lat="35.755683964488675" lon="10.556904867757597"><ele>59.0</ele><time>2026-04-05T09:27:44.999Z</time></trkpt><trkpt lat="35.75543286339666" lon="10.556843673607919"><ele>58.5</ele><time>2026-04-05T09:27:45.999Z</time></trkpt><trkpt lat="35.75518698349203" lon="10.556782296134912"><ele>58.0</ele><time>2026-04-05T09:27:46.999Z</time></trkpt><trkpt lat="35.754935885751756" lon="10.556720152335293"><ele>58.0</ele><time>2026-04-05T09:27:47.999Z</time></trkpt><trkpt lat="35.75468878680503" lon="10.556652287619208"><ele>58.0</ele><time>2026-04-05T09:27:48.999Z</time></trkpt><trkpt lat="35.75444086227543" lon="10.55658156847119"><ele>58.0</ele><time>2026-04-05T09:27:49.999Z</time></trkpt><trkpt lat="35.75419557797473" lon="10.556507277057438"><ele>58.0</ele><time>2026-04-05T09:27:50.999Z</time></trkpt><trkpt lat="35.753946444226656" lon="10.556430432459369"><ele>58.0</ele><time>2026-04-05T09:27:51.999Z</time></trkpt><trkpt lat="35.75367969013048" lon="10.556347258718604"><ele>58.0</ele><time>2026-04-05T09:27:52.999Z</time></trkpt><trkpt lat="35.753386399337685" lon="10.556257561733698"><ele>58.5</ele><time>2026-04-05T09:27:53.999Z</time></trkpt><trkpt lat="35.753073427809525" lon="10.55616611564057"><ele>59.0</ele><time>2026-04-05T09:27:54.999Z</time></trkpt><trkpt lat="35.75274269041363" lon="10.556072312415129"><ele>57.0</ele><time>2026-04-05T09:27:55.999Z</time></trkpt><trkpt lat="35.75240104052628" lon="10.555980085893593"><ele>55.0</ele><time>2026-04-05T09:27:56.999Z</time></trkpt><trkpt lat="35.7520483194589" lon="10.555885677139589"><ele>52.5</ele><time>2026-04-05T09:27:57.999Z</time></trkpt><trkpt lat="35.75168640574988" lon="10.555778666093628"><ele>50.0</ele><time>2026-04-05T09:27:58.999Z</time></trkpt><trkpt lat="35.7513479804423" lon="10.555668942621802"><ele>49.5</ele><time>2026-04-05T09:27:59.999Z</time></trkpt><trkpt lat="35.75102373082032" lon="10.555559945764552"><ele>49.0</ele><time>2026-04-05T09:28:00.999Z</time></trkpt><trkpt lat="35.750684447041884" lon="10.555452554204267"><ele>49.0</ele><time>2026-04-05T09:28:01.999Z</time></trkpt><trkpt lat="35.75033955957925" lon="10.555348485726519"><ele>49.0</ele><time>2026-04-05T09:28:02.999Z</time></trkpt><trkpt lat="35.75001745159192" lon="10.555251042351749"><ele>48.5</ele><time>2026-04-05T09:28:03.999Z</time></trkpt><trkpt lat="35.74971524266913" lon="10.555154330204857"><ele>48.0</ele><time>2026-04-05T09:28:04.999Z</time></trkpt><trkpt lat="35.74942410281193" lon="10.555056004379564"><ele>49.0</ele><time>2026-04-05T09:28:05.999Z</time></trkpt><trkpt lat="35.74914369807342" lon="10.554962312499669"><ele>50.0</ele><time>2026-04-05T09:28:06.999Z</time></trkpt><trkpt lat="35.748872225166636" lon="10.554873477431382"><ele>50.0</ele><time>2026-04-05T09:28:07.999Z</time></trkpt><trkpt lat="35.74859742488195" lon="10.554787650942261"><ele>50.0</ele><time>2026-04-05T09:28:08.999Z</time></trkpt><trkpt lat="35.74831785367986" lon="10.554700359388336"><ele>50.5</ele><time>2026-04-05T09:28:09.999Z</time></trkpt><trkpt lat="35.74803093008057" lon="10.554616182089987"><ele>51.0</ele><time>2026-04-05T09:28:10.999Z</time></trkpt><trkpt lat="35.747738367914614" lon="10.554525735629593"><ele>52.5</ele><time>2026-04-05T09:28:11.999Z</time></trkpt><trkpt lat="35.74745100424186" lon="10.554433733057108"><ele>54.0</ele><time>2026-04-05T09:28:12.999Z</time></trkpt><trkpt lat="35.747167021979024" lon="10.554342755463315"><ele>54.0</ele><time>2026-04-05T09:28:13.999Z</time></trkpt><trkpt lat="35.74689906872555" lon="10.554260392383613"><ele>54.0</ele><time>2026-04-05T09:28:14.999Z</time></trkpt><trkpt lat="35.74663583803802" lon="10.55418201808062"><ele>56.0</ele><time>2026-04-05T09:28:15.999Z</time></trkpt><trkpt lat="35.74636374118343" lon="10.554097682509656"><ele>58.0</ele><time>2026-04-05T09:28:16.999Z</time></trkpt><trkpt lat="35.74608560217216" lon="10.554011602587732"><ele>58.5</ele><time>2026-04-05T09:28:17.999Z</time></trkpt><trkpt lat="35.74580265860327" lon="10.55392459095476"><ele>59.0</ele><time>2026-04-05T09:28:18.999Z</time></trkpt><trkpt lat="35.74551828726583" lon="10.553839533322028"><ele>59.0</ele><time>2026-04-05T09:28:19.999Z</time></trkpt><trkpt lat="35.74523165710816" lon="10.553756280355344"><ele>59.0</ele><time>2026-04-05T09:28:20.999Z</time></trkpt><trkpt lat="35.74494347649754" lon="10.553672313318717"><ele>60.0</ele><time>2026-04-05T09:28:21.999Z</time></trkpt><trkpt lat="35.7446508750359" lon="10.553587224541117"><ele>61.0</ele><time>2026-04-05T09:28:22.999Z</time></trkpt><trkpt lat="35.744359896101514" lon="10.553505076693257"><ele>61.0</ele><time>2026-04-05T09:28:23.999Z</time></trkpt><trkpt lat="35.74406994806936" lon="10.553425676476458"><ele>61.0</ele><time>2026-04-05T09:28:24.999Z</time></trkpt><trkpt lat="35.74378957431142" lon="10.553352344741565"><ele>61.5</ele><time>2026-04-05T09:28:25.999Z</time></trkpt><trkpt lat="35.74351273725163" lon="10.55328332771408"><ele>62.0</ele><time>2026-04-05T09:28:26.999Z</time></trkpt><trkpt lat="35.74324223617824" lon="10.5532153227204"><ele>62.0</ele><time>2026-04-05T09:28:27.999Z</time></trkpt><trkpt lat="35.74297128379696" lon="10.553147847540169"><ele>62.0</ele><time>2026-04-05T09:28:28.999Z</time></trkpt><trkpt lat="35.74269800627124" lon="10.553079988151437"><ele>63.0</ele><time>2026-04-05T09:28:29.999Z</time></trkpt><trkpt lat="35.74242418649943" lon="10.553013329794563"><ele>64.0</ele><time>2026-04-05T09:28:30.999Z</time></trkpt><trkpt lat="35.7421420953112" lon="10.552951588125065"><ele>64.0</ele><time>2026-04-05T09:28:31.999Z</time></trkpt><trkpt lat="35.741848368720134" lon="10.552891309686633"><ele>64.0</ele><time>2026-04-05T09:28:32.999Z</time></trkpt><trkpt lat="35.74155464726485" lon="10.552820190161961"><ele>66.0</ele><time>2026-04-05T09:28:33.999Z</time></trkpt><trkpt lat="35.741258981783346" lon="10.552748736451289"><ele>68.0</ele><time>2026-04-05T09:28:34.999Z</time></trkpt><trkpt lat="35.74097768878998" lon="10.552694443413062"><ele>68.0</ele><time>2026-04-05T09:28:35.999Z</time></trkpt><trkpt lat="35.740703148351884" lon="10.552648894845394"><ele>68.0</ele><time>2026-04-05T09:28:36.999Z</time></trkpt><trkpt lat="35.74043201626679" lon="10.552607520324468"><ele>66.5</ele><time>2026-04-05T09:28:37.999Z</time></trkpt><trkpt lat="35.74016717619278" lon="10.552567902383297"><ele>65.0</ele><time>2026-04-05T09:28:38.999Z</time></trkpt><trkpt lat="35.739905659171576" lon="10.552530595137393"><ele>65.0</ele><time>2026-04-05T09:28:39.999Z</time></trkpt><trkpt lat="35.73964715783977" lon="10.55249979814793"><ele>65.0</ele><time>2026-04-05T09:28:40.999Z</time></trkpt><trkpt lat="35.739394111906286" lon="10.552472405257522"><ele>66.0</ele><time>2026-04-05T09:28:41.999Z</time></trkpt><trkpt lat="35.73914418438775" lon="10.552447012923821"><ele>67.0</ele><time>2026-04-05T09:28:42.999Z</time></trkpt><trkpt lat="35.738899252168736" lon="10.552425780448402"><ele>67.0</ele><time>2026-04-05T09:28:43.999Z</time></trkpt><trkpt lat="35.73865596692335" lon="10.552402263025114"><ele>67.0</ele><time>2026-04-05T09:28:44.999Z</time></trkpt><trkpt lat="35.73841367430298" lon="10.55237979621286"><ele>68.0</ele><time>2026-04-05T09:28:45.999Z</time></trkpt><trkpt lat="35.73816980822197" lon="10.552360373552354"><ele>69.0</ele><time>2026-04-05T09:28:46.999Z</time></trkpt><trkpt lat="35.7379246802451" lon="10.552346427138335"><ele>68.5</ele><time>2026-04-05T09:28:47.999Z</time></trkpt><trkpt lat="35.73767873128556" lon="10.552332367015458"><ele>68.0</ele><time>2026-04-05T09:28:48.999Z</time></trkpt><trkpt lat="35.737429457396864" lon="10.552318441514565"><ele>68.0</ele><time>2026-04-05T09:28:49.999Z</time></trkpt><trkpt lat="35.73718195385043" lon="10.55230643430734"><ele>68.0</ele><time>2026-04-05T09:28:50.999Z</time></trkpt><trkpt lat="35.7369297685081" lon="10.552298590441612"><ele>70.0</ele><time>2026-04-05T09:28:51.999Z</time></trkpt><trkpt lat="35.73667657495909" lon="10.55229026643723"><ele>72.0</ele><time>2026-04-05T09:28:52.999Z</time></trkpt><trkpt lat="35.73642321163294" lon="10.552281499764268"><ele>72.0</ele><time>2026-04-05T09:28:53.999Z</time></trkpt><trkpt lat="35.73616962999927" lon="10.552279376704375"><ele>72.0</ele><time>2026-04-05T09:28:54.999Z</time></trkpt><trkpt lat="35.73591584045189" lon="10.552281090461204"><ele>71.5</ele><time>2026-04-05T09:28:55.999Z</time></trkpt><trkpt lat="35.73566005811942" lon="10.552290017739528"><ele>71.0</ele><time>2026-04-05T09:28:56.999Z</time></trkpt><trkpt lat="35.73540626127923" lon="10.552300063143218"><ele>71.0</ele><time>2026-04-05T09:28:57.999Z</time></trkpt><trkpt lat="35.73515369392295" lon="10.552312731135329"><ele>71.0</ele><time>2026-04-05T09:28:58.999Z</time></trkpt><trkpt lat="35.734896548605875" lon="10.552325114217378"><ele>71.0</ele><time>2026-04-05T09:28:59.999Z</time></trkpt><trkpt lat="35.734643598342736" lon="10.552334745997939"><ele>71.0</ele><time>2026-04-05T09:29:00.999Z</time></trkpt><trkpt lat="35.734386369779486" lon="10.552348309744348"><ele>70.0</ele><time>2026-04-05T09:29:01.999Z</time></trkpt><trkpt lat="35.734126776116426" lon="10.55236430257524"><ele>69.0</ele><time>2026-04-05T09:29:02.999Z</time></trkpt><trkpt lat="35.73385951837509" lon="10.55238183640497"><ele>69.0</ele><time>2026-04-05T09:29:03.999Z</time></trkpt><trkpt lat="35.733583692767915" lon="10.55240201892066"><ele>69.0</ele><time>2026-04-05T09:29:04.999Z</time></trkpt><trkpt lat="35.73330668782896" lon="10.552426710134513"><ele>67.5</ele><time>2026-04-05T09:29:05.999Z</time></trkpt><trkpt lat="35.73302786879945" lon="10.552453332669561"><ele>66.0</ele><time>2026-04-05T09:29:06.999Z</time></trkpt><trkpt lat="35.73274799231242" lon="10.552481298266109"><ele>66.5</ele><time>2026-04-05T09:29:07.999Z</time></trkpt><trkpt lat="35.73246787739193" lon="10.552511510891156"><ele>67.0</ele><time>2026-04-05T09:29:08.999Z</time></trkpt><trkpt lat="35.73218280380093" lon="10.552543968248488"><ele>67.0</ele><time>2026-04-05T09:29:09.999Z</time></trkpt><trkpt lat="35.731888489571446" lon="10.55257631050671"><ele>67.0</ele><time>2026-04-05T09:29:10.999Z</time></trkpt><trkpt lat="35.73159862681144" lon="10.552609085901318"><ele>67.0</ele><time>2026-04-05T09:29:11.999Z</time></trkpt><trkpt lat="35.73130973653378" lon="10.552643502271914"><ele>67.0</ele><time>2026-04-05T09:29:12.999Z</time></trkpt><trkpt lat="35.73102223162972" lon="10.552675192465179"><ele>67.0</ele><time>2026-04-05T09:29:13.999Z</time></trkpt><trkpt lat="35.73074008543321" lon="10.552704064956103"><ele>67.0</ele><time>2026-04-05T09:29:14.999Z</time></trkpt><trkpt lat="35.73045660518843" lon="10.552735587679665"><ele>66.5</ele><time>2026-04-05T09:29:15.999Z</time></trkpt><trkpt lat="35.73017225006238" lon="10.552767596172687"><ele>66.0</ele><time>2026-04-05T09:29:16.999Z</time></trkpt><trkpt lat="35.72988882607818" lon="10.55279722400432"><ele>66.0</ele><time>2026-04-05T09:29:17.999Z</time></trkpt><trkpt lat="35.72960407515639" lon="10.552831651844201"><ele>66.0</ele><time>2026-04-05T09:29:18.999Z</time></trkpt><trkpt lat="35.72932191517722" lon="10.552862751315764"><ele>64.0</ele><time>2026-04-05T09:29:19.999Z</time></trkpt><trkpt lat="35.7290388977914" lon="10.552892207194397"><ele>62.0</ele><time>2026-04-05T09:29:20.999Z</time></trkpt><trkpt lat="35.72875778771533" lon="10.55291966844704"><ele>63.0</ele><time>2026-04-05T09:29:21.999Z</time></trkpt><trkpt lat="35.7284740302517" lon="10.552949881652244"><ele>64.0</ele><time>2026-04-05T09:29:22.999Z</time></trkpt><trkpt lat="35.728191726103546" lon="10.552975685607663"><ele>64.0</ele><time>2026-04-05T09:29:23.999Z</time></trkpt><trkpt lat="35.727907443508506" lon="10.553007265106832"><ele>64.0</ele><time>2026-04-05T09:29:25Z</time></trkpt><trkpt lat="35.72762253813788" lon="10.553039767308514"><ele>64.5</ele><time>2026-04-05T09:29:26Z</time></trkpt><trkpt lat="35.72733988128405" lon="10.553072299310216"><ele>65.0</ele><time>2026-04-05T09:29:27Z</time></trkpt><trkpt lat="35.72705796486255" lon="10.55310229549832"><ele>65.0</ele><time>2026-04-05T09:29:28Z</time></trkpt><trkpt lat="35.72677284115299" lon="10.553134416387818"><ele>65.0</ele><time>2026-04-05T09:29:29Z</time></trkpt><trkpt lat="35.72648767245449" lon="10.553166185623324"><ele>65.0</ele><time>2026-04-05T09:29:30Z</time></trkpt><trkpt lat="35.72620198255699" lon="10.553196692814609"><ele>65.0</ele><time>2026-04-05T09:29:31Z</time></trkpt><trkpt lat="35.72591707377443" lon="10.553229143326558"><ele>65.5</ele><time>2026-04-05T09:29:32Z</time></trkpt><trkpt lat="35.72563183220414" lon="10.553258563193152"><ele>66.0</ele><time>2026-04-05T09:29:33Z</time></trkpt><trkpt lat="35.72534728280118" lon="10.553288447910688"><ele>66.0</ele><time>2026-04-05T09:29:34Z</time></trkpt><trkpt lat="35.72506248792938" lon="10.553319671463148"><ele>66.0</ele><time>2026-04-05T09:29:35Z</time></trkpt><trkpt lat="35.724778604539075" lon="10.553349627679209"><ele>66.0</ele><time>2026-04-05T09:29:36Z</time></trkpt><trkpt lat="35.72449344182073" lon="10.553379547584518"><ele>66.0</ele><time>2026-04-05T09:29:37Z</time></trkpt><trkpt lat="35.72421009235904" lon="10.553410706711183"><ele>66.0</ele><time>2026-04-05T09:29:38Z</time></trkpt><trkpt lat="35.723926292952704" lon="10.553441647834052"><ele>66.0</ele><time>2026-04-05T09:29:39Z</time></trkpt><trkpt lat="35.72364232043414" lon="10.553472790131568"><ele>63.5</ele><time>2026-04-05T09:29:40Z</time></trkpt><trkpt lat="35.72335792473501" lon="10.553507034907774"><ele>61.0</ele><time>2026-04-05T09:29:41Z</time></trkpt><trkpt lat="35.7230723540625" lon="10.553543463966284"><ele>61.0</ele><time>2026-04-05T09:29:42Z</time></trkpt><trkpt lat="35.72278824649351" lon="10.553578456469463"><ele>61.0</ele><time>2026-04-05T09:29:43Z</time></trkpt><trkpt lat="35.72250464984108" lon="10.55361029926181"><ele>63.0</ele><time>2026-04-05T09:29:44Z</time></trkpt><trkpt lat="35.72222022786329" lon="10.553640858014441"><ele>65.0</ele><time>2026-04-05T09:29:45Z</time></trkpt><trkpt lat="35.721935207092606" lon="10.553670142535648"><ele>66.0</ele><time>2026-04-05T09:29:46Z</time></trkpt><trkpt lat="35.721651529409506" lon="10.553698891966054"><ele>67.0</ele><time>2026-04-05T09:29:47Z</time></trkpt><trkpt lat="35.72136756972377" lon="10.55372883330794"><ele>65.0</ele><time>2026-04-05T09:29:48Z</time></trkpt><trkpt lat="35.721083750531484" lon="10.553760287218514"><ele>63.0</ele><time>2026-04-05T09:29:49Z</time></trkpt><trkpt lat="35.720798950330355" lon="10.553798808357294"><ele>63.0</ele><time>2026-04-05T09:29:50Z</time></trkpt><trkpt lat="35.72051652221198" lon="10.553843751670305"><ele>63.0</ele><time>2026-04-05T09:29:51Z</time></trkpt><trkpt lat="35.72023633422866" lon="10.553891895032592"><ele>62.5</ele><time>2026-04-05T09:29:52Z</time></trkpt><trkpt lat="35.719953606070405" lon="10.553948236542151"><ele>62.0</ele><time>2026-04-05T09:29:53Z</time></trkpt><trkpt lat="35.71967452154916" lon="10.554009909038388"><ele>63.5</ele><time>2026-04-05T09:29:54Z</time></trkpt><trkpt lat="35.71939568604648" lon="10.554077202375192"><ele>65.0</ele><time>2026-04-05T09:29:55Z</time></trkpt><trkpt lat="35.71911695740577" lon="10.554148288047124"><ele>65.0</ele><time>2026-04-05T09:29:56Z</time></trkpt><trkpt lat="35.71883934004909" lon="10.554225737434242"><ele>65.0</ele><time>2026-04-05T09:29:57Z</time></trkpt><trkpt lat="35.718564004887455" lon="10.554308466651571"><ele>63.5</ele><time>2026-04-05T09:29:58Z</time></trkpt><trkpt lat="35.7182882593629" lon="10.554396340285907"><ele>62.0</ele><time>2026-04-05T09:29:59Z</time></trkpt><trkpt lat="35.71800016416226" lon="10.554496394875692"><ele>62.0</ele><time>2026-04-05T09:30:00Z</time></trkpt><trkpt lat="35.717690130316036" lon="10.554614963450998"><ele>62.0</ele><time>2026-04-05T09:30:01Z</time></trkpt><trkpt lat="35.717366355629906" lon="10.554753770511349"><ele>62.0</ele><time>2026-04-05T09:30:02Z</time></trkpt><trkpt lat="35.717047155803414" lon="10.55489940676334"><ele>62.0</ele><time>2026-04-05T09:30:03Z</time></trkpt><trkpt lat="35.71674813702404" lon="10.55504251682677"><ele>63.0</ele><time>2026-04-05T09:30:04Z</time></trkpt><trkpt lat="35.71646617720106" lon="10.555177036228763"><ele>64.0</ele><time>2026-04-05T09:30:05Z</time></trkpt><trkpt lat="35.716188496254944" lon="10.555310322875908"><ele>62.5</ele><time>2026-04-05T09:30:06Z</time></trkpt><trkpt lat="35.71591719630672" lon="10.555447875854314"><ele>61.0</ele><time>2026-04-05T09:30:07Z</time></trkpt><trkpt lat="35.715647726177814" lon="10.555593038976008"><ele>61.0</ele><time>2026-04-05T09:30:08Z</time></trkpt><trkpt lat="35.715375192692896" lon="10.555744355105345"><ele>61.0</ele><time>2026-04-05T09:30:09Z</time></trkpt><trkpt lat="35.71510792618323" lon="10.555901253482658"><ele>60.5</ele><time>2026-04-05T09:30:10Z</time></trkpt><trkpt lat="35.71484495890129" lon="10.556063576215514"><ele>60.0</ele><time>2026-04-05T09:30:11Z</time></trkpt><trkpt lat="35.71458618323646" lon="10.556230557835384"><ele>59.5</ele><time>2026-04-05T09:30:12Z</time></trkpt><trkpt lat="35.714331631502404" lon="10.556400933871217"><ele>59.0</ele><time>2026-04-05T09:30:13Z</time></trkpt><trkpt lat="35.71407901922243" lon="10.556574350964636"><ele>59.0</ele><time>2026-04-05T09:30:14Z</time></trkpt><trkpt lat="35.71383092187403" lon="10.55675119224662"><ele>59.0</ele><time>2026-04-05T09:30:15Z</time></trkpt><trkpt lat="35.71358186219577" lon="10.5569319987504"><ele>59.0</ele><time>2026-04-05T09:30:16Z</time></trkpt><trkpt lat="35.713337996249294" lon="10.557119664302409"><ele>59.0</ele><time>2026-04-05T09:30:17Z</time></trkpt><trkpt lat="35.7130957188449" lon="10.557315278177745"><ele>59.0</ele><time>2026-04-05T09:30:18Z</time></trkpt><trkpt lat="35.71285423014571" lon="10.55751521135762"><ele>59.0</ele><time>2026-04-05T09:30:19Z</time></trkpt><trkpt lat="35.712617441401655" lon="10.557717043110241"><ele>58.0</ele><time>2026-04-05T09:30:20Z</time></trkpt><trkpt lat="35.71238166830819" lon="10.557924317705606"><ele>57.0</ele><time>2026-04-05T09:30:21Z</time></trkpt><trkpt lat="35.71214753179267" lon="10.558135187342035"><ele>57.0</ele><time>2026-04-05T09:30:22Z</time></trkpt><trkpt lat="35.71191738650294" lon="10.558348014908677"><ele>57.0</ele><time>2026-04-05T09:30:23Z</time></trkpt><trkpt lat="35.71169027103614" lon="10.558568352256424"><ele>57.0</ele><time>2026-04-05T09:30:24Z</time></trkpt><trkpt lat="35.71145921385987" lon="10.558782578580852"><ele>57.0</ele><time>2026-04-05T09:30:25Z</time></trkpt><trkpt lat="35.71123499583588" lon="10.558992333818455"><ele>56.5</ele><time>2026-04-05T09:30:26Z</time></trkpt><trkpt lat="35.7110141010211" lon="10.559198776052137"><ele>56.0</ele><time>2026-04-05T09:30:27Z</time></trkpt><trkpt lat="35.71079482815819" lon="10.559404488911323"><ele>56.5</ele><time>2026-04-05T09:30:28Z</time></trkpt><trkpt lat="35.71057811409823" lon="10.559606796208561"><ele>57.0</ele><time>2026-04-05T09:30:29Z</time></trkpt><trkpt lat="35.71036134404152" lon="10.55981039795107"><ele>56.5</ele><time>2026-04-05T09:30:30Z</time></trkpt><trkpt lat="35.71014534575011" lon="10.560008525854931"><ele>56.0</ele><time>2026-04-05T09:30:31Z</time></trkpt><trkpt lat="35.70993189345938" lon="10.560206484208798"><ele>53.5</ele><time>2026-04-05T09:30:32Z</time></trkpt><trkpt lat="35.70971627032464" lon="10.56040688562753"><ele>51.0</ele><time>2026-04-05T09:30:33Z</time></trkpt><trkpt lat="35.70950011268556" lon="10.56060168139548"><ele>53.5</ele><time>2026-04-05T09:30:34Z</time></trkpt><trkpt lat="35.70928014179476" lon="10.560792653467564"><ele>56.0</ele><time>2026-04-05T09:30:35Z</time></trkpt><trkpt lat="35.7090612464008" lon="10.560981449436731"><ele>56.0</ele><time>2026-04-05T09:30:36Z</time></trkpt><trkpt lat="35.70883878713946" lon="10.561171317424119"><ele>56.0</ele><time>2026-04-05T09:30:37Z</time></trkpt><trkpt lat="35.708613534821644" lon="10.561355079244457"><ele>55.5</ele><time>2026-04-05T09:30:38Z</time></trkpt><trkpt lat="35.708386378339746" lon="10.561530940476533"><ele>55.0</ele><time>2026-04-05T09:30:39Z</time></trkpt><trkpt lat="35.70815532903924" lon="10.561705303784791"><ele>55.0</ele><time>2026-04-05T09:30:40Z</time></trkpt><trkpt lat="35.70792059691902" lon="10.561875563916342"><ele>55.0</ele><time>2026-04-05T09:30:41Z</time></trkpt><trkpt lat="35.70768663100358" lon="10.562043065408139"><ele>52.0</ele><time>2026-04-05T09:30:42Z</time></trkpt><trkpt lat="35.707450298140735" lon="10.562208965242384"><ele>49.0</ele><time>2026-04-05T09:30:43Z</time></trkpt><trkpt lat="35.707213064529235" lon="10.56236515431166"><ele>49.0</ele><time>2026-04-05T09:30:44Z</time></trkpt><trkpt lat="35.70697115791841" lon="10.562520843957897"><ele>49.0</ele><time>2026-04-05T09:30:45Z</time></trkpt><trkpt lat="35.70672817305692" lon="10.56266654789403"><ele>48.5</ele><time>2026-04-05T09:30:46Z</time></trkpt><trkpt lat="35.70648355467222" lon="10.562807678793547"><ele>48.0</ele><time>2026-04-05T09:30:47Z</time></trkpt><trkpt lat="35.70623857929167" lon="10.562946007680326"><ele>47.5</ele><time>2026-04-05T09:30:48Z</time></trkpt><trkpt lat="35.70599211292074" lon="10.563082727293244"><ele>47.0</ele><time>2026-04-05T09:30:49Z</time></trkpt><trkpt lat="35.705744836327014" lon="10.563216361096565"><ele>47.0</ele><time>2026-04-05T09:30:50Z</time></trkpt><trkpt lat="35.70549654788337" lon="10.563346929635404"><ele>47.0</ele><time>2026-04-05T09:30:51Z</time></trkpt><trkpt lat="35.705246477656225" lon="10.563470232017911"><ele>47.0</ele><time>2026-04-05T09:30:52Z</time></trkpt><trkpt lat="35.70499665168465" lon="10.563589856936783"><ele>47.0</ele><time>2026-04-05T09:30:53Z</time></trkpt><trkpt lat="35.704741037612415" lon="10.563703333295031"><ele>47.0</ele><time>2026-04-05T09:30:54Z</time></trkpt><trkpt lat="35.704487256262006" lon="10.563805575969766"><ele>47.0</ele><time>2026-04-05T09:30:55Z</time></trkpt><trkpt lat="35.70423137702708" lon="10.563907508106029"><ele>46.5</ele><time>2026-04-05T09:30:56Z</time></trkpt><trkpt lat="35.70397164355868" lon="10.564003707610354"><ele>46.0</ele><time>2026-04-05T09:30:57Z</time></trkpt><trkpt lat="35.703713462993576" lon="10.564094259472014"><ele>46.5</ele><time>2026-04-05T09:30:58Z</time></trkpt><trkpt lat="35.7034513930197" lon="10.564179483040979"><ele>47.0</ele><time>2026-04-05T09:30:59Z</time></trkpt><trkpt lat="35.7031903953874" lon="10.564259239452054"><ele>47.0</ele><time>2026-04-05T09:31:00Z</time></trkpt><trkpt lat="35.70292698232167" lon="10.564337611303145"><ele>47.0</ele><time>2026-04-05T09:31:01Z</time></trkpt><trkpt lat="35.70266297442368" lon="10.564409515912242"><ele>47.5</ele><time>2026-04-05T09:31:02Z</time></trkpt><trkpt lat="35.702396790935744" lon="10.56447761360351"><ele>48.0</ele><time>2026-04-05T09:31:03Z</time></trkpt><trkpt lat="35.70213039603809" lon="10.564542210214096"><ele>47.5</ele><time>2026-04-05T09:31:04Z</time></trkpt><trkpt lat="35.70186289533694" lon="10.564601575309801"><ele>47.0</ele><time>2026-04-05T09:31:05Z</time></trkpt><trkpt lat="35.70159652489483" lon="10.5646544171365"><ele>47.0</ele><time>2026-04-05T09:31:06Z</time></trkpt><trkpt lat="35.70132957813537" lon="10.56470311964497"><ele>47.0</ele><time>2026-04-05T09:31:07Z</time></trkpt><trkpt lat="35.7010580889882" lon="10.564751643468322"><ele>46.5</ele><time>2026-04-05T09:31:08Z</time></trkpt><trkpt lat="35.70079326123954" lon="10.564789435827521"><ele>46.0</ele><time>2026-04-05T09:31:09Z</time></trkpt><trkpt lat="35.700523491927946" lon="10.564825042488224"><ele>46.0</ele><time>2026-04-05T09:31:10Z</time></trkpt><trkpt lat="35.700250745561114" lon="10.564854601849666"><ele>46.0</ele><time>2026-04-05T09:31:11Z</time></trkpt><trkpt lat="35.69998073012008" lon="10.564875389252933"><ele>47.0</ele><time>2026-04-05T09:31:12Z</time></trkpt><trkpt lat="35.69970875072547" lon="10.564893660824728"><ele>48.0</ele><time>2026-04-05T09:31:13Z</time></trkpt><trkpt lat="35.699437749025265" lon="10.564906025514022"><ele>47.5</ele><time>2026-04-05T09:31:14Z</time></trkpt><trkpt lat="35.699167058128985" lon="10.564915649052034"><ele>47.0</ele><time>2026-04-05T09:31:15Z</time></trkpt><trkpt lat="35.698894996151054" lon="10.564925254715009"><ele>47.0</ele><time>2026-04-05T09:31:16Z</time></trkpt><trkpt lat="35.69862737761957" lon="10.564927849703844"><ele>47.0</ele><time>2026-04-05T09:31:17Z</time></trkpt><trkpt lat="35.69835522585584" lon="10.564928199817949"><ele>47.5</ele><time>2026-04-05T09:31:18Z</time></trkpt><trkpt lat="35.6980829239188" lon="10.564920139597401"><ele>48.0</ele><time>2026-04-05T09:31:19Z</time></trkpt><trkpt lat="35.69781347422688" lon="10.564904241864715"><ele>47.5</ele><time>2026-04-05T09:31:20Z</time></trkpt><trkpt lat="35.69754299307209" lon="10.564882835308119"><ele>47.0</ele><time>2026-04-05T09:31:21Z</time></trkpt><trkpt lat="35.69727154909502" lon="10.564856357371884"><ele>47.0</ele><time>2026-04-05T09:31:22Z</time></trkpt><trkpt lat="35.6970116433397" lon="10.564823367691968"><ele>47.0</ele><time>2026-04-05T09:31:23Z</time></trkpt><trkpt lat="35.69677395167659" lon="10.564789107849798"><ele>47.33333333333333</ele><time>2026-04-05T09:31:24Z</time></trkpt><trkpt lat="35.696547076631184" lon="10.564750279917025"><ele>47.666666666666664</ele><time>2026-04-05T09:31:25Z</time></trkpt><trkpt lat="35.69633012449406" lon="10.56470815274454"><ele>48.0</ele><time>2026-04-05T09:31:26Z</time></trkpt><trkpt lat="35.69611891949645" lon="10.564664676383087"><ele>48.33333333333333</ele><time>2026-04-05T09:31:27Z</time></trkpt><trkpt lat="35.695918284940994" lon="10.56462228882503"><ele>48.666666666666664</ele><time>2026-04-05T09:31:28Z</time></trkpt><trkpt lat="35.695726013246585" lon="10.564582778647935"><ele>49.0</ele><time>2026-04-05T09:31:29Z</time></trkpt><trkpt lat="35.69554075864686" lon="10.564549427991787"><ele>49.33333333333333</ele><time>2026-04-05T09:31:30Z</time></trkpt><trkpt lat="35.6953582981983" lon="10.56451333177668"><ele>49.66666666666667</ele><time>2026-04-05T09:31:31Z</time></trkpt><trkpt lat="35.695190031640756" lon="10.564472588709375"><ele>50.0</ele><time>2026-04-05T09:31:32Z</time></trkpt><trkpt lat="35.69502464603092" lon="10.564430526371618"><ele>49.333333333333336</ele><time>2026-04-05T09:31:33Z</time></trkpt><trkpt lat="35.69486863758026" lon="10.564389371743038"><ele>48.66666666666667</ele><time>2026-04-05T09:31:34Z</time></trkpt><trkpt lat="35.69471939843488" lon="10.564348185125574"><ele>48.0</ele><time>2026-04-05T09:31:35Z</time></trkpt><trkpt lat="35.694570175293194" lon="10.56430430533981"><ele>48.0</ele><time>2026-04-05T09:31:36Z</time></trkpt><trkpt lat="35.694421737744165" lon="10.564259062160081"><ele>48.0</ele><time>2026-04-05T09:31:37Z</time></trkpt><trkpt lat="35.69427073838563" lon="10.564213918939066"><ele>48.0</ele><time>2026-04-05T09:31:38Z</time></trkpt><trkpt lat="35.694119884669526" lon="10.564168521500143"><ele>48.0</ele><time>2026-04-05T09:31:39Z</time></trkpt><trkpt lat="35.69397315885505" lon="10.564124363565421"><ele>48.0</ele><time>2026-04-05T09:31:40Z</time></trkpt><trkpt lat="35.693831814230805" lon="10.564081040308082"><ele>48.0</ele><time>2026-04-05T09:31:41Z</time></trkpt><trkpt lat="35.693700987714514" lon="10.564039508512982"><ele>48.0</ele><time>2026-04-05T09:31:42Z</time></trkpt><trkpt lat="35.693571919523826" lon="10.563997306496038"><ele>47.75</ele><time>2026-04-05T09:31:43Z</time></trkpt><trkpt lat="35.6934457699371" lon="10.563957611195601"><ele>47.5</ele><time>2026-04-05T09:31:44Z</time></trkpt><trkpt lat="35.69332584138094" lon="10.563918157050413"><ele>47.25</ele><time>2026-04-05T09:31:45Z</time></trkpt><trkpt lat="35.6932082923473" lon="10.56387893708353"><ele>47.0</ele><time>2026-04-05T09:31:46Z</time></trkpt><trkpt lat="35.6930986450802" lon="10.56383913865684"><ele>47.0</ele><time>2026-04-05T09:31:47Z</time></trkpt><trkpt lat="35.69299138541248" lon="10.56380282586676"><ele>47.0</ele><time>2026-04-05T09:31:48Z</time></trkpt><trkpt lat="35.692886414511264" lon="10.56377517300012"><ele>47.0</ele><time>2026-04-05T09:31:49Z</time></trkpt><trkpt lat="35.69278587361346" lon="10.563748997740694"><ele>47.0</ele><time>2026-04-05T09:31:50Z</time></trkpt><trkpt lat="35.69269015857642" lon="10.563719054690477"><ele>47.0</ele><time>2026-04-05T09:31:51Z</time></trkpt><trkpt lat="35.69259847423081" lon="10.563688123118437"><ele>47.166666666666664</ele><time>2026-04-05T09:31:52Z</time></trkpt><trkpt lat="35.69251087838263" lon="10.563661482588943"><ele>47.33333333333333</ele><time>2026-04-05T09:31:53Z</time></trkpt><trkpt lat="35.69242487794781" lon="10.563638991530153"><ele>47.5</ele><time>2026-04-05T09:31:54Z</time></trkpt><trkpt lat="35.69234292260106" lon="10.563613852378799"><ele>47.666666666666664</ele><time>2026-04-05T09:31:55Z</time></trkpt><trkpt lat="35.69226554795355" lon="10.563591326253466"><ele>47.833333333333336</ele><time>2026-04-05T09:31:56Z</time></trkpt><trkpt lat="35.69219366549779" lon="10.56357288856809"><ele>48.0</ele><time>2026-04-05T09:31:57Z</time></trkpt><trkpt lat="35.692126826504996" lon="10.563555463300219"><ele>47.99999999999999</ele><time>2026-04-05T09:31:58Z</time></trkpt><trkpt lat="35.692062350650964" lon="10.563536043863134"><ele>48.0</ele><time>2026-04-05T09:31:59Z</time></trkpt><trkpt lat="35.691993688556515" lon="10.563515960932454"><ele>48.0</ele><time>2026-04-05T09:32:00Z</time></trkpt><trkpt lat="35.69192377398708" lon="10.563495009238505"><ele>48.0</ele><time>2026-04-05T09:32:01Z</time></trkpt><trkpt lat="35.69185441467072" lon="10.563478312521797"><ele>48.0</ele><time>2026-04-05T09:32:02Z</time></trkpt><trkpt lat="35.691790168359226" lon="10.563461976371334"><ele>47.99999999999999</ele><time>2026-04-05T09:32:03Z</time></trkpt><trkpt lat="35.69172469279166" lon="10.563445626299453"><ele>48.0</ele><time>2026-04-05T09:32:04Z</time></trkpt><trkpt lat="35.69165962148567" lon="10.563429665604065"><ele>48.42857142857142</ele><time>2026-04-05T09:32:05Z</time></trkpt><trkpt lat="35.69159290852512" lon="10.56341337312949"><ele>48.857142857142854</ele><time>2026-04-05T09:32:06Z</time></trkpt><trkpt lat="35.691527650156246" lon="10.563397278676025"><ele>49.285714285714285</ele><time>2026-04-05T09:32:07Z</time></trkpt><trkpt lat="35.69146308831475" lon="10.563380444167647"><ele>49.71428571428571</ele><time>2026-04-05T09:32:08Z</time></trkpt><trkpt lat="35.691397641981546" lon="10.56336042152165"><ele>50.142857142857146</ele><time>2026-04-05T09:32:09Z</time></trkpt><trkpt lat="35.691330540030776" lon="10.563339065500136"><ele>50.57142857142857</ele><time>2026-04-05T09:32:10Z</time></trkpt><trkpt lat="35.69126494597611" lon="10.563318377170516"><ele>51.0</ele><time>2026-04-05T09:32:11Z</time></trkpt><trkpt lat="35.691197708828604" lon="10.563298279638474"><ele>51.0</ele><time>2026-04-05T09:32:12Z</time></trkpt><trkpt lat="35.69112672159418" lon="10.563273081475252"><ele>51.0</ele><time>2026-04-05T09:32:13Z</time></trkpt><trkpt lat="35.69104657549853" lon="10.563244261988755"><ele>51.0</ele><time>2026-04-05T09:32:14Z</time></trkpt><trkpt lat="35.69097659857252" lon="10.563225631092994"><ele>51.0</ele><time>2026-04-05T09:32:15Z</time></trkpt><trkpt lat="35.690906535043695" lon="10.563209492266852"><ele>51.0</ele><time>2026-04-05T09:32:16Z</time></trkpt><trkpt lat="35.6907969385986" lon="10.563179063039206"><ele>51.0</ele><time>2026-04-05T09:32:18Z</time></trkpt><trkpt lat="35.69073221506236" lon="10.563160725099427"><ele>50.833333333333336</ele><time>2026-04-05T09:32:20Z</time></trkpt><trkpt lat="35.69066058414837" lon="10.563135853915792"><ele>50.66666666666667</ele><time>2026-04-05T09:32:24Z</time></trkpt><trkpt lat="35.690597980977564" lon="10.56311969764023"><ele>50.5</ele><time>2026-04-05T09:33:11Z</time></trkpt><trkpt lat="35.69049347061074" lon="10.563086954352407"><ele>50.333333333333336</ele><time>2026-04-05T09:33:13Z</time></trkpt><trkpt lat="35.69040450432182" lon="10.563052886419264"><ele>50.16666666666667</ele><time>2026-04-05T09:33:15Z</time></trkpt><trkpt lat="35.6903470002232" lon="10.563019397256326"><ele>50.0</ele><time>2026-04-05T09:33:25Z</time></trkpt><trkpt lat="35.690283096408734" lon="10.562989903112431"><ele>49.66666666666667</ele><time>2026-04-05T09:33:27Z</time></trkpt><trkpt lat="35.690172238709934" lon="10.562954723225662"><ele>49.333333333333336</ele><time>2026-04-05T09:33:29Z</time></trkpt><trkpt lat="35.690107148267224" lon="10.562937221471435"><ele>49.0</ele><time>2026-04-05T09:33:30Z</time></trkpt><trkpt lat="35.69003364840006" lon="10.562908403330216"><ele>48.66666666666667</ele><time>2026-04-05T09:33:31Z</time></trkpt><trkpt lat="35.689957576862525" lon="10.562867606507673"><ele>48.333333333333336</ele><time>2026-04-05T09:33:32Z</time></trkpt><trkpt lat="35.68987601471578" lon="10.56281825934033"><ele>48.0</ele><time>2026-04-05T09:33:33Z</time></trkpt><trkpt lat="35.689790595615264" lon="10.562756711380711"><ele>48.0</ele><time>2026-04-05T09:33:34Z</time></trkpt><trkpt lat="35.68970959128243" lon="10.562695199598565"><ele>48.0</ele><time>2026-04-05T09:33:35.001Z</time></trkpt><trkpt lat="35.68964512412375" lon="10.562640386866919"><ele>48.0</ele><time>2026-04-05T09:33:36.001Z</time></trkpt><trkpt lat="35.6895488721396" lon="10.562574720369796"><ele>48.0</ele><time>2026-04-05T09:33:38.001Z</time></trkpt><trkpt lat="35.689480004461984" lon="10.562560270736796"><ele>48.0</ele><time>2026-04-05T09:33:40.001Z</time></trkpt><trkpt lat="35.6894025680433" lon="10.56257059104162"><ele>48.0</ele><time>2026-04-05T09:41:36.999Z</time></trkpt><trkpt lat="35.689320020595304" lon="10.562549194430032"><ele>48.4</ele><time>2026-04-05T09:41:38.999Z</time></trkpt><trkpt lat="35.68923612943396" lon="10.562531213098861"><ele>48.8</ele><time>2026-04-05T09:41:40.999Z</time></trkpt><trkpt lat="35.68914523614644" lon="10.562498769200332"><ele>49.2</ele><time>2026-04-05T09:41:42.999Z</time></trkpt><trkpt lat="35.68905029193572" lon="10.562470212393286"><ele>49.6</ele><time>2026-04-05T09:41:44.999Z</time></trkpt><trkpt lat="35.68895459293741" lon="10.562440457177312"><ele>50.0</ele><time>2026-04-05T09:41:46.999Z</time></trkpt><trkpt lat="35.688849099826896" lon="10.562402955118955"><ele>50.00000000000001</ele><time>2026-04-05T09:41:48.999Z</time></trkpt><trkpt lat="35.68874553309777" lon="10.562359753453489"><ele>50.0</ele><time>2026-04-05T09:41:50.999Z</time></trkpt><trkpt lat="35.68862855374048" lon="10.562322093488685"><ele>50.0</ele><time>2026-04-05T09:41:52.999Z</time></trkpt><trkpt lat="35.688565410361704" lon="10.562300683471467"><ele>50.0</ele><time>2026-04-05T09:41:53.999Z</time></trkpt><trkpt lat="35.688500430080964" lon="10.56227946299618"><ele>50.00000000000001</ele><time>2026-04-05T09:41:54.999Z</time></trkpt><trkpt lat="35.688432241921085" lon="10.562259283770215"><ele>50.0</ele><time>2026-04-05T09:41:55.999Z</time></trkpt><trkpt lat="35.68835709783841" lon="10.562236821863795"><ele>50.0</ele><time>2026-04-05T09:41:56.999Z</time></trkpt><trkpt lat="35.68827415609132" lon="10.562208731324432"><ele>50.0</ele><time>2026-04-05T09:41:57.999Z</time></trkpt><trkpt lat="35.68818901252476" lon="10.562181403647896"><ele>50.0</ele><time>2026-04-05T09:41:59Z</time></trkpt><trkpt lat="35.68810116033158" lon="10.562158228279042"><ele>50.0</ele><time>2026-04-05T09:42:00Z</time></trkpt><trkpt lat="35.688006766819555" lon="10.562126189846072"><ele>50.0</ele><time>2026-04-05T09:42:01Z</time></trkpt><trkpt lat="35.68790740035502" lon="10.562097310990733"><ele>50.0</ele><time>2026-04-05T09:42:02Z</time></trkpt><trkpt lat="35.68780318964455" lon="10.562071376388046"><ele>50.0</ele><time>2026-04-05T09:42:03Z</time></trkpt><trkpt lat="35.687698098971595" lon="10.562042353084237"><ele>50.0</ele><time>2026-04-05T09:42:04Z</time></trkpt><trkpt lat="35.6875914177298" lon="10.562010908831578"><ele>50.0</ele><time>2026-04-05T09:42:05Z</time></trkpt><trkpt lat="35.68748647644679" lon="10.561980032137404"><ele>50.0</ele><time>2026-04-05T09:42:06Z</time></trkpt><trkpt lat="35.68738249609938" lon="10.561950171277333"><ele>49.8</ele><time>2026-04-05T09:42:07Z</time></trkpt><trkpt lat="35.687277901128056" lon="10.561917972287429"><ele>49.6</ele><time>2026-04-05T09:42:08Z</time></trkpt><trkpt lat="35.68717407415873" lon="10.561882132799488"><ele>49.400000000000006</ele><time>2026-04-05T09:42:09Z</time></trkpt><trkpt lat="35.68706958251857" lon="10.561846811584703"><ele>49.2</ele><time>2026-04-05T09:42:10Z</time></trkpt><trkpt lat="35.68696583706395" lon="10.56181315287841"><ele>49.0</ele><time>2026-04-05T09:42:11Z</time></trkpt><trkpt lat="35.686861378064904" lon="10.561779383431244"><ele>49.0</ele><time>2026-04-05T09:42:12Z</time></trkpt><trkpt lat="35.686750369231575" lon="10.561744388551569"><ele>49.0</ele><time>2026-04-05T09:42:13Z</time></trkpt><trkpt lat="35.68663163992725" lon="10.561711707964138"><ele>49.0</ele><time>2026-04-05T09:42:14Z</time></trkpt><trkpt lat="35.68650528050141" lon="10.561676628341672"><ele>49.0</ele><time>2026-04-05T09:42:15Z</time></trkpt><trkpt lat="35.686362117693825" lon="10.561634610945246"><ele>49.0</ele><time>2026-04-05T09:42:16Z</time></trkpt><trkpt lat="35.68617419433626" lon="10.561579767065021"><ele>49.0</ele><time>2026-04-05T09:42:17Z</time></trkpt><trkpt lat="35.6859249422115" lon="10.561518608431685"><ele>49.0</ele><time>2026-04-05T09:42:18Z</time></trkpt><trkpt lat="35.685649893285415" lon="10.561454021501344"><ele>49.0</ele><time>2026-04-05T09:42:19Z</time></trkpt><trkpt lat="35.68540043565384" lon="10.561392592966982"><ele>49.0</ele><time>2026-04-05T09:42:20Z</time></trkpt><trkpt lat="35.68516174701908" lon="10.561335649421162"><ele>49.0</ele><time>2026-04-05T09:42:21Z</time></trkpt><trkpt lat="35.68489481502504" lon="10.561277604316746"><ele>49.0</ele><time>2026-04-05T09:42:22Z</time></trkpt><trkpt lat="35.684609459857214" lon="10.561218825590093"><ele>48.0</ele><time>2026-04-05T09:42:23Z</time></trkpt><trkpt lat="35.684291412620134" lon="10.561153783888214"><ele>47.0</ele><time>2026-04-05T09:42:24Z</time></trkpt><trkpt lat="35.6839462988576" lon="10.561084637354535"><ele>47.0</ele><time>2026-04-05T09:42:25Z</time></trkpt><trkpt lat="35.68360276211258" lon="10.561014089115186"><ele>47.0</ele><time>2026-04-05T09:42:26Z</time></trkpt><trkpt lat="35.68329177735821" lon="10.560956301079248"><ele>47.0</ele><time>2026-04-05T09:42:27Z</time></trkpt><trkpt lat="35.68300989696502" lon="10.56090566620736"><ele>47.0</ele><time>2026-04-05T09:42:28Z</time></trkpt><trkpt lat="35.68274810472465" lon="10.560860646044862"><ele>47.0</ele><time>2026-04-05T09:42:29Z</time></trkpt><trkpt lat="35.68249848171166" lon="10.560818006901563"><ele>47.0</ele><time>2026-04-05T09:42:30Z</time></trkpt><trkpt lat="35.682253966627094" lon="10.560779949126418"><ele>47.0</ele><time>2026-04-05T09:42:31Z</time></trkpt><trkpt lat="35.68201166872164" lon="10.56074488366107"><ele>47.0</ele><time>2026-04-05T09:42:32Z</time></trkpt><trkpt lat="35.68176909874577" lon="10.56071226238187"><ele>46.5</ele><time>2026-04-05T09:42:33Z</time></trkpt><trkpt lat="35.681537478957424" lon="10.560681314431658"><ele>46.0</ele><time>2026-04-05T09:42:34Z</time></trkpt><trkpt lat="35.68131611700872" lon="10.560654938191057"><ele>46.333333333333336</ele><time>2026-04-05T09:42:35Z</time></trkpt><trkpt lat="35.68109596049958" lon="10.56063176621715"><ele>46.666666666666664</ele><time>2026-04-05T09:42:36Z</time></trkpt><trkpt lat="35.68087365003014" lon="10.560607572908076"><ele>47.0</ele><time>2026-04-05T09:42:37Z</time></trkpt><trkpt lat="35.68065691310054" lon="10.56058229955573"><ele>47.0</ele><time>2026-04-05T09:42:38Z</time></trkpt><trkpt lat="35.68043584540933" lon="10.56056369778001"><ele>47.0</ele><time>2026-04-05T09:42:39Z</time></trkpt><trkpt lat="35.68021021617094" lon="10.560545476408793"><ele>47.0</ele><time>2026-04-05T09:42:40Z</time></trkpt><trkpt lat="35.679988803153385" lon="10.56052855745142"><ele>46.666666666666664</ele><time>2026-04-05T09:42:40.999Z</time></trkpt><trkpt lat="35.67976859136169" lon="10.56051108148235"><ele>46.333333333333336</ele><time>2026-04-05T09:42:41.999Z</time></trkpt><trkpt lat="35.67955075453528" lon="10.560495952264109"><ele>46.0</ele><time>2026-04-05T09:42:42.999Z</time></trkpt><trkpt lat="35.67933636409386" lon="10.560482007946401"><ele>47.0</ele><time>2026-04-05T09:42:43.999Z</time></trkpt><trkpt lat="35.67912356327289" lon="10.560470085118046"><ele>48.0</ele><time>2026-04-05T09:42:44.999Z</time></trkpt><trkpt lat="35.67891208616049" lon="10.560462357604687"><ele>49.0</ele><time>2026-04-05T09:42:45.999Z</time></trkpt><trkpt lat="35.678701967486965" lon="10.560454866788062"><ele>49.0</ele><time>2026-04-05T09:42:46.999Z</time></trkpt><trkpt lat="35.67849564859892" lon="10.560448520637497"><ele>49.0</ele><time>2026-04-05T09:42:47.999Z</time></trkpt><trkpt lat="35.678299543010205" lon="10.560449096976948"><ele>49.0</ele><time>2026-04-05T09:42:48.999Z</time></trkpt><trkpt lat="35.67810541296091" lon="10.560453288861993"><ele>49.0</ele><time>2026-04-05T09:42:49.999Z</time></trkpt><trkpt lat="35.67790295176167" lon="10.560455367479571"><ele>49.0</ele><time>2026-04-05T09:42:50.999Z</time></trkpt><trkpt lat="35.67769220004675" lon="10.560453985242615"><ele>49.0</ele><time>2026-04-05T09:42:51.999Z</time></trkpt><trkpt lat="35.677481540295815" lon="10.56045118677751"><ele>49.0</ele><time>2026-04-05T09:42:52.999Z</time></trkpt><trkpt lat="35.67727018226347" lon="10.560447388719798"><ele>49.0</ele><time>2026-04-05T09:42:53.999Z</time></trkpt><trkpt lat="35.67705716482354" lon="10.560443624963302"><ele>49.0</ele><time>2026-04-05T09:42:54.999Z</time></trkpt><trkpt lat="35.67684501299816" lon="10.560438094045917"><ele>49.0</ele><time>2026-04-05T09:42:55.999Z</time></trkpt><trkpt lat="35.67663181815679" lon="10.560434248809747"><ele>49.0</ele><time>2026-04-05T09:42:56.999Z</time></trkpt><trkpt lat="35.676417939726676" lon="10.560429953762737"><ele>49.0</ele><time>2026-04-05T09:42:57.999Z</time></trkpt><trkpt lat="35.676203642962015" lon="10.560424330689658"><ele>50.0</ele><time>2026-04-05T09:42:58.999Z</time></trkpt><trkpt lat="35.67599163495786" lon="10.56042612127636"><ele>51.0</ele><time>2026-04-05T09:42:59.999Z</time></trkpt><trkpt lat="35.6757788165279" lon="10.560428558055987"><ele>52.0</ele><time>2026-04-05T09:43:00.999Z</time></trkpt><trkpt lat="35.67556491406348" lon="10.560428613472125"><ele>52.0</ele><time>2026-04-05T09:43:01.999Z</time></trkpt><trkpt lat="35.675344882317034" lon="10.560423258450342"><ele>52.0</ele><time>2026-04-05T09:43:02.999Z</time></trkpt><trkpt lat="35.675131172470145" lon="10.560411468772571"><ele>52.0</ele><time>2026-04-05T09:43:03.999Z</time></trkpt><trkpt lat="35.67492181998757" lon="10.560399400526792"><ele>52.0</ele><time>2026-04-05T09:43:04.999Z</time></trkpt><trkpt lat="35.67471359847175" lon="10.560386638870247"><ele>52.0</ele><time>2026-04-05T09:43:05.999Z</time></trkpt><trkpt lat="35.67450640872619" lon="10.560378903522786"><ele>52.0</ele><time>2026-04-05T09:43:06.999Z</time></trkpt><trkpt lat="35.67429964614294" lon="10.560377215240832"><ele>52.0</ele><time>2026-04-05T09:43:07.999Z</time></trkpt><trkpt lat="35.67409482954259" lon="10.560376578532432"><ele>52.0</ele><time>2026-04-05T09:43:08.999Z</time></trkpt><trkpt lat="35.6738907899334" lon="10.560373510313525"><ele>52.0</ele><time>2026-04-05T09:43:09.999Z</time></trkpt><trkpt lat="35.67368219607429" lon="10.560370562261049"><ele>52.33333333333333</ele><time>2026-04-05T09:43:10.999Z</time></trkpt><trkpt lat="35.673479525961255" lon="10.560365251758402"><ele>52.66666666666667</ele><time>2026-04-05T09:43:11.999Z</time></trkpt><trkpt lat="35.6732779863325" lon="10.560359425155081"><ele>53.0</ele><time>2026-04-05T09:43:12.999Z</time></trkpt><trkpt lat="35.67307303269639" lon="10.560356239510726"><ele>53.0</ele><time>2026-04-05T09:43:13.999Z</time></trkpt><trkpt lat="35.67286076261725" lon="10.560361576100918"><ele>53.0</ele><time>2026-04-05T09:43:14.999Z</time></trkpt><trkpt lat="35.67265044640311" lon="10.560358536205515"><ele>53.0</ele><time>2026-04-05T09:43:15.999Z</time></trkpt><trkpt lat="35.67244108295184" lon="10.560355256821008"><ele>52.66666666666667</ele><time>2026-04-05T09:43:16.999Z</time></trkpt><trkpt lat="35.67224403370374" lon="10.560351127412504"><ele>52.33333333333333</ele><time>2026-04-05T09:43:17.999Z</time></trkpt><trkpt lat="35.672052226461226" lon="10.560346553122399"><ele>52.0</ele><time>2026-04-05T09:43:18.999Z</time></trkpt><trkpt lat="35.67185889458039" lon="10.560342826331135"><ele>52.666666666666664</ele><time>2026-04-05T09:43:19.999Z</time></trkpt><trkpt lat="35.671669919658356" lon="10.560336599421825"><ele>53.33333333333333</ele><time>2026-04-05T09:43:20.999Z</time></trkpt><trkpt lat="35.67147868412168" lon="10.560334341991"><ele>54.0</ele><time>2026-04-05T09:43:21.999Z</time></trkpt><trkpt lat="35.671286584847245" lon="10.56033646731828"><ele>54.0</ele><time>2026-04-05T09:43:22.999Z</time></trkpt><trkpt lat="35.671093965483614" lon="10.560333010383546"><ele>54.0</ele><time>2026-04-05T09:43:23.999Z</time></trkpt><trkpt lat="35.67089625856817" lon="10.560331067921913"><ele>54.0</ele><time>2026-04-05T09:43:24.999Z</time></trkpt><trkpt lat="35.67070320613082" lon="10.560326829595962"><ele>54.0</ele><time>2026-04-05T09:43:25.999Z</time></trkpt><trkpt lat="35.6705039044255" lon="10.560321526992793"><ele>54.0</ele><time>2026-04-05T09:43:26.999Z</time></trkpt><trkpt lat="35.6703045884359" lon="10.560320190922036"><ele>54.0</ele><time>2026-04-05T09:43:27.999Z</time></trkpt><trkpt lat="35.670100333005855" lon="10.56031593951623"><ele>55.0</ele><time>2026-04-05T09:43:28.999Z</time></trkpt><trkpt lat="35.66989893889302" lon="10.56031319852994"><ele>56.0</ele><time>2026-04-05T09:43:29.999Z</time></trkpt><trkpt lat="35.66969204377787" lon="10.560307785360617"><ele>57.0</ele><time>2026-04-05T09:43:30.999Z</time></trkpt><trkpt lat="35.6694876534552" lon="10.560304528289736"><ele>56.33333333333333</ele><time>2026-04-05T09:43:31.999Z</time></trkpt><trkpt lat="35.66927918171128" lon="10.56029990136208"><ele>55.666666666666664</ele><time>2026-04-05T09:43:32.999Z</time></trkpt><trkpt lat="35.66907104611793" lon="10.560297918180726"><ele>55.0</ele><time>2026-04-05T09:43:33.999Z</time></trkpt><trkpt lat="35.668857761825095" lon="10.560294053531354"><ele>55.0</ele><time>2026-04-05T09:43:34.999Z</time></trkpt><trkpt lat="35.668645945800314" lon="10.560292432808184"><ele>55.0</ele><time>2026-04-05T09:43:35.999Z</time></trkpt><trkpt lat="35.668429764582186" lon="10.560292690431028"><ele>55.0</ele><time>2026-04-05T09:43:36.999Z</time></trkpt><trkpt lat="35.66821248331893" lon="10.560294618895442"><ele>55.0</ele><time>2026-04-05T09:43:37.999Z</time></trkpt><trkpt lat="35.6679956664869" lon="10.560297351368284"><ele>55.0</ele><time>2026-04-05T09:43:38.999Z</time></trkpt><trkpt lat="35.66777799369359" lon="10.56030728675371"><ele>55.0</ele><time>2026-04-05T09:43:39.999Z</time></trkpt><trkpt lat="35.667559897453835" lon="10.560318233438231"><ele>55.0</ele><time>2026-04-05T09:43:40.999Z</time></trkpt><trkpt lat="35.66734079150094" lon="10.560330089681775"><ele>55.0</ele><time>2026-04-05T09:43:41.999Z</time></trkpt><trkpt lat="35.66712198483864" lon="10.560345400740047"><ele>55.0</ele><time>2026-04-05T09:43:42.999Z</time></trkpt><trkpt lat="35.666906056120325" lon="10.560362482815698"><ele>55.33333333333333</ele><time>2026-04-05T09:43:43.999Z</time></trkpt><trkpt lat="35.66668647603178" lon="10.560379421769952"><ele>55.66666666666667</ele><time>2026-04-05T09:43:44.999Z</time></trkpt><trkpt lat="35.66646354298169" lon="10.560397539841839"><ele>56.0</ele><time>2026-04-05T09:43:45.999Z</time></trkpt><trkpt lat="35.666244518550585" lon="10.560414451376513"><ele>56.66666666666667</ele><time>2026-04-05T09:43:46.999Z</time></trkpt><trkpt lat="35.66602025448201" lon="10.56044131089193"><ele>57.33333333333333</ele><time>2026-04-05T09:43:47.999Z</time></trkpt><trkpt lat="35.66579843466781" lon="10.560470542831032"><ele>58.0</ele><time>2026-04-05T09:43:48.999Z</time></trkpt><trkpt lat="35.66557683493235" lon="10.560503157957813"><ele>58.0</ele><time>2026-04-05T09:43:49.999Z</time></trkpt><trkpt lat="35.6653551889217" lon="10.560540113617098"><ele>58.0</ele><time>2026-04-05T09:43:50.999Z</time></trkpt><trkpt lat="35.66513146321446" lon="10.56057749574176"><ele>58.0</ele><time>2026-04-05T09:43:51.999Z</time></trkpt><trkpt lat="35.66490767907512" lon="10.56061364049601"><ele>58.666666666666664</ele><time>2026-04-05T09:43:52.999Z</time></trkpt><trkpt lat="35.664681736123605" lon="10.560652378686513"><ele>59.33333333333333</ele><time>2026-04-05T09:43:53.999Z</time></trkpt><trkpt lat="35.66446260810105" lon="10.56069109857779"><ele>60.0</ele><time>2026-04-05T09:43:54.999Z</time></trkpt><trkpt lat="35.6642383436436" lon="10.560734155621812"><ele>60.0</ele><time>2026-04-05T09:43:55.999Z</time></trkpt><trkpt lat="35.66401703077682" lon="10.560779596048604"><ele>60.0</ele><time>2026-04-05T09:43:56.999Z</time></trkpt><trkpt lat="35.66379696001188" lon="10.560829386273111"><ele>60.0</ele><time>2026-04-05T09:43:57.999Z</time></trkpt><trkpt lat="35.66357569904197" lon="10.560882394366168"><ele>60.0</ele><time>2026-04-05T09:43:58.999Z</time></trkpt><trkpt lat="35.663356328513984" lon="10.560930560894757"><ele>60.0</ele><time>2026-04-05T09:43:59.999Z</time></trkpt><trkpt lat="35.66313078263273" lon="10.560981128068974"><ele>60.0</ele><time>2026-04-05T09:44:00.999Z</time></trkpt><trkpt lat="35.662908685567295" lon="10.561038435251126"><ele>60.0</ele><time>2026-04-05T09:44:01.999Z</time></trkpt><trkpt lat="35.662690273476116" lon="10.56110099067253"><ele>59.5</ele><time>2026-04-05T09:44:02.999Z</time></trkpt><trkpt lat="35.66247075927541" lon="10.561166801941507"><ele>59.0</ele><time>2026-04-05T09:44:03.999Z</time></trkpt><trkpt lat="35.66225164521975" lon="10.561231386962769"><ele>59.0</ele><time>2026-04-05T09:44:04.999Z</time></trkpt><trkpt lat="35.66203037781871" lon="10.561301315748793"><ele>59.0</ele><time>2026-04-05T09:44:05.999Z</time></trkpt><trkpt lat="35.66181202223613" lon="10.561372020461317"><ele>60.5</ele><time>2026-04-05T09:44:06.999Z</time></trkpt><trkpt lat="35.66159519910144" lon="10.56144316602889"><ele>62.0</ele><time>2026-04-05T09:44:07.999Z</time></trkpt><trkpt lat="35.661374538916434" lon="10.561516772640557"><ele>62.0</ele><time>2026-04-05T09:44:08.999Z</time></trkpt><trkpt lat="35.66115746858596" lon="10.561586910183996"><ele>62.0</ele><time>2026-04-05T09:44:09.999Z</time></trkpt><trkpt lat="35.66094179737791" lon="10.561661792421082"><ele>62.0</ele><time>2026-04-05T09:44:10.999Z</time></trkpt><trkpt lat="35.66072546572977" lon="10.561740118867286"><ele>62.0</ele><time>2026-04-05T09:44:11.999Z</time></trkpt><trkpt lat="35.66050970444926" lon="10.56182241208448"><ele>62.0</ele><time>2026-04-05T09:44:12.999Z</time></trkpt><trkpt lat="35.66029189124518" lon="10.561906992746946"><ele>62.0</ele><time>2026-04-05T09:44:13.999Z</time></trkpt><trkpt lat="35.66006982458348" lon="10.561995385992514"><ele>62.0</ele><time>2026-04-05T09:44:14.999Z</time></trkpt><trkpt lat="35.6598450795554" lon="10.562088207315101"><ele>62.5</ele><time>2026-04-05T09:44:15.999Z</time></trkpt><trkpt lat="35.65962010158625" lon="10.562183537915322"><ele>63.0</ele><time>2026-04-05T09:44:16.999Z</time></trkpt><trkpt lat="35.65939169266368" lon="10.562283701998869"><ele>64.0</ele><time>2026-04-05T09:44:17.999Z</time></trkpt><trkpt lat="35.65916294533675" lon="10.562385278391059"><ele>65.0</ele><time>2026-04-05T09:44:18.999Z</time></trkpt><trkpt lat="35.65892947646274" lon="10.562490121254388"><ele>65.0</ele><time>2026-04-05T09:44:19.999Z</time></trkpt><trkpt lat="35.65869645395287" lon="10.56260169979103"><ele>65.0</ele><time>2026-04-05T09:44:20.999Z</time></trkpt><trkpt lat="35.65846411918768" lon="10.562717091894427"><ele>65.5</ele><time>2026-04-05T09:44:21.999Z</time></trkpt><trkpt lat="35.658228939143086" lon="10.562835787989965"><ele>66.0</ele><time>2026-04-05T09:44:22.999Z</time></trkpt><trkpt lat="35.6579954986266" lon="10.562954740565882"><ele>66.0</ele><time>2026-04-05T09:44:23.999Z</time></trkpt><trkpt lat="35.65776327542294" lon="10.563075032718801"><ele>66.0</ele><time>2026-04-05T09:44:24.999Z</time></trkpt><trkpt lat="35.657529716747646" lon="10.56320015582977"><ele>66.0</ele><time>2026-04-05T09:44:25.999Z</time></trkpt><trkpt lat="35.6572985570956" lon="10.563326173895032"><ele>66.0</ele><time>2026-04-05T09:44:26.999Z</time></trkpt><trkpt lat="35.657068011383075" lon="10.563458016977979"><ele>67.5</ele><time>2026-04-05T09:44:27.999Z</time></trkpt><trkpt lat="35.65683745016897" lon="10.563588631968166"><ele>69.0</ele><time>2026-04-05T09:44:28.999Z</time></trkpt><trkpt lat="35.6566098658659" lon="10.563719854558709"><ele>69.0</ele><time>2026-04-05T09:44:29.999Z</time></trkpt><trkpt lat="35.65638196183842" lon="10.563855735867842"><ele>69.0</ele><time>2026-04-05T09:44:30.999Z</time></trkpt><trkpt lat="35.65615656173948" lon="10.563997133744992"><ele>69.0</ele><time>2026-04-05T09:44:31.999Z</time></trkpt><trkpt lat="35.65593230065236" lon="10.564142274743892"><ele>69.0</ele><time>2026-04-05T09:44:32.999Z</time></trkpt><trkpt lat="35.65571165441348" lon="10.564290519282128"><ele>69.0</ele><time>2026-04-05T09:44:33.999Z</time></trkpt><trkpt lat="35.65549066351525" lon="10.56444361391653"><ele>69.0</ele><time>2026-04-05T09:44:34.999Z</time></trkpt><trkpt lat="35.65527262912894" lon="10.564598465556532"><ele>70.0</ele><time>2026-04-05T09:44:35.999Z</time></trkpt><trkpt lat="35.65505388172605" lon="10.564752631452684"><ele>71.0</ele><time>2026-04-05T09:44:36.999Z</time></trkpt><trkpt lat="35.65483410395751" lon="10.564907513029665"><ele>71.0</ele><time>2026-04-05T09:44:37.999Z</time></trkpt><trkpt lat="35.65461338154717" lon="10.56506648137159"><ele>71.0</ele><time>2026-04-05T09:44:38.999Z</time></trkpt><trkpt lat="35.6543955289613" lon="10.565225701522388"><ele>70.0</ele><time>2026-04-05T09:44:39.999Z</time></trkpt><trkpt lat="35.65418162457996" lon="10.565387053466079"><ele>69.0</ele><time>2026-04-05T09:44:40.999Z</time></trkpt><trkpt lat="35.65396770701296" lon="10.565553663525872"><ele>69.0</ele><time>2026-04-05T09:44:41.999Z</time></trkpt><trkpt lat="35.65375578922724" lon="10.565722632195826"><ele>69.0</ele><time>2026-04-05T09:44:42.999Z</time></trkpt><trkpt lat="35.65354281610918" lon="10.565895378283882"><ele>70.0</ele><time>2026-04-05T09:44:43.999Z</time></trkpt><trkpt lat="35.653334055969005" lon="10.566065705008102"><ele>71.0</ele><time>2026-04-05T09:44:44.999Z</time></trkpt><trkpt lat="35.65312522921515" lon="10.566242207203066"><ele>71.5</ele><time>2026-04-05T09:44:45.999Z</time></trkpt><trkpt lat="35.652919579738075" lon="10.566423018214628"><ele>72.0</ele><time>2026-04-05T09:44:46.999Z</time></trkpt><trkpt lat="35.65271284665342" lon="10.566604858311011"><ele>72.0</ele><time>2026-04-05T09:44:47.999Z</time></trkpt><trkpt lat="35.65250918876944" lon="10.566787730677486"><ele>72.0</ele><time>2026-04-05T09:44:48.999Z</time></trkpt><trkpt lat="35.65230662781969" lon="10.566972838734698"><ele>73.0</ele><time>2026-04-05T09:44:49.999Z</time></trkpt><trkpt lat="35.65210563072463" lon="10.567159855466695"><ele>74.0</ele><time>2026-04-05T09:44:50.999Z</time></trkpt><trkpt lat="35.65190544361909" lon="10.567350073649378"><ele>74.0</ele><time>2026-04-05T09:44:51.999Z</time></trkpt><trkpt lat="35.65170704922111" lon="10.567541894958259"><ele>74.0</ele><time>2026-04-05T09:44:52.999Z</time></trkpt><trkpt lat="35.65150898233246" lon="10.567734701487677"><ele>74.5</ele><time>2026-04-05T09:44:53.999Z</time></trkpt><trkpt lat="35.65131212008888" lon="10.56792781774801"><ele>75.0</ele><time>2026-04-05T09:44:54.999Z</time></trkpt><trkpt lat="35.651115621718695" lon="10.568123366151685"><ele>75.5</ele><time>2026-04-05T09:44:55.999Z</time></trkpt><trkpt lat="35.65092021580004" lon="10.56831835930254"><ele>76.0</ele><time>2026-04-05T09:44:56.999Z</time></trkpt><trkpt lat="35.65072492762256" lon="10.568516064027147"><ele>77.0</ele><time>2026-04-05T09:44:57.999Z</time></trkpt><trkpt lat="35.65052759640927" lon="10.568715536862802"><ele>78.0</ele><time>2026-04-05T09:44:58.999Z</time></trkpt><trkpt lat="35.650330491513614" lon="10.56891503138157"><ele>78.0</ele><time>2026-04-05T09:44:59.999Z</time></trkpt><trkpt lat="35.65013523423581" lon="10.569110214755689"><ele>78.0</ele><time>2026-04-05T09:45:00.999Z</time></trkpt><trkpt lat="35.64993569119145" lon="10.569305307894991"><ele>78.0</ele><time>2026-04-05T09:45:01.999Z</time></trkpt><trkpt lat="35.64974202521824" lon="10.569500582661"><ele>78.0</ele><time>2026-04-05T09:45:02.999Z</time></trkpt><trkpt lat="35.649547726537016" lon="10.569694813495559"><ele>77.5</ele><time>2026-04-05T09:45:03.999Z</time></trkpt><trkpt lat="35.64935169544192" lon="10.569891041386196"><ele>77.0</ele><time>2026-04-05T09:45:04.999Z</time></trkpt><trkpt lat="35.649157746307054" lon="10.570086470636696"><ele>77.0</ele><time>2026-04-05T09:45:05.999Z</time></trkpt><trkpt lat="35.64896659019502" lon="10.570283195089361"><ele>77.0</ele><time>2026-04-05T09:45:06.999Z</time></trkpt><trkpt lat="35.64877255643579" lon="10.57048708551465"><ele>78.0</ele><time>2026-04-05T09:45:07.999Z</time></trkpt><trkpt lat="35.648584233751464" lon="10.570686620848115"><ele>79.0</ele><time>2026-04-05T09:45:08.999Z</time></trkpt><trkpt lat="35.64839226983063" lon="10.570889742812225"><ele>79.0</ele><time>2026-04-05T09:45:09.999Z</time></trkpt><trkpt lat="35.648200841442915" lon="10.571085104795497"><ele>79.0</ele><time>2026-04-05T09:45:10.999Z</time></trkpt><trkpt lat="35.648000417754915" lon="10.571286904819864"><ele>79.5</ele><time>2026-04-05T09:45:11.999Z</time></trkpt><trkpt lat="35.64780477636622" lon="10.571481767878904"><ele>80.0</ele><time>2026-04-05T09:45:12.999Z</time></trkpt><trkpt lat="35.64760561729255" lon="10.571680619703283"><ele>80.0</ele><time>2026-04-05T09:45:13.999Z</time></trkpt><trkpt lat="35.64740391438974" lon="10.571880999581445"><ele>80.0</ele><time>2026-04-05T09:45:14.999Z</time></trkpt><trkpt lat="35.647200374013295" lon="10.57208361866146"><ele>79.5</ele><time>2026-04-05T09:45:15.999Z</time></trkpt><trkpt lat="35.64699686613301" lon="10.57228397884927"><ele>79.0</ele><time>2026-04-05T09:45:16.999Z</time></trkpt><trkpt lat="35.64678794182345" lon="10.572488172590942"><ele>78.5</ele><time>2026-04-05T09:45:17.999Z</time></trkpt><trkpt lat="35.64657589356894" lon="10.572694111859484"><ele>78.0</ele><time>2026-04-05T09:45:18.999Z</time></trkpt><trkpt lat="35.64636385622071" lon="10.572903272491335"><ele>79.5</ele><time>2026-04-05T09:45:19.999Z</time></trkpt><trkpt lat="35.646155558944656" lon="10.573111186273044"><ele>81.0</ele><time>2026-04-05T09:45:20.999Z</time></trkpt><trkpt lat="35.645961811204685" lon="10.573301171496992"><ele>81.5</ele><time>2026-04-05T09:45:21.999Z</time></trkpt><trkpt lat="35.64577546961377" lon="10.573488046364174"><ele>82.0</ele><time>2026-04-05T09:45:22.999Z</time></trkpt><trkpt lat="35.645594888444855" lon="10.573665889730167"><ele>82.0</ele><time>2026-04-05T09:45:23.999Z</time></trkpt><trkpt lat="35.6454140918235" lon="10.57385154001836"><ele>82.0</ele><time>2026-04-05T09:45:24.999Z</time></trkpt><trkpt lat="35.64524057388865" lon="10.57402371692855"><ele>82.33333333333333</ele><time>2026-04-05T09:45:25.999Z</time></trkpt><trkpt lat="35.64507284194466" lon="10.574192489277523"><ele>82.66666666666667</ele><time>2026-04-05T09:45:26.999Z</time></trkpt><trkpt lat="35.64490687285254" lon="10.57435956348642"><ele>83.0</ele><time>2026-04-05T09:45:27.999Z</time></trkpt><trkpt lat="35.64474190018114" lon="10.574529176198553"><ele>83.0</ele><time>2026-04-05T09:45:28.999Z</time></trkpt><trkpt lat="35.64457653656306" lon="10.57469956578783"><ele>83.0</ele><time>2026-04-05T09:45:29.999Z</time></trkpt><trkpt lat="35.64441026972355" lon="10.57486896654505"><ele>83.0</ele><time>2026-04-05T09:45:30.999Z</time></trkpt><trkpt lat="35.64423610803731" lon="10.575044620286823"><ele>83.0</ele><time>2026-04-05T09:45:31.999Z</time></trkpt><trkpt lat="35.64405363643873" lon="10.575223117268495"><ele>83.0</ele><time>2026-04-05T09:45:32.999Z</time></trkpt><trkpt lat="35.64386898369016" lon="10.575414839290099"><ele>83.5</ele><time>2026-04-05T09:45:33.999Z</time></trkpt><trkpt lat="35.6436779122973" lon="10.575606053617078"><ele>84.0</ele><time>2026-04-05T09:45:34.999Z</time></trkpt><trkpt lat="35.64348038489357" lon="10.575796846965739"><ele>86.0</ele><time>2026-04-05T09:45:35.999Z</time></trkpt><trkpt lat="35.643279187418685" lon="10.575986165490761"><ele>88.0</ele><time>2026-04-05T09:45:36.999Z</time></trkpt><trkpt lat="35.643070780532405" lon="10.57617908673998"><ele>87.5</ele><time>2026-04-05T09:45:37.999Z</time></trkpt><trkpt lat="35.642861070431024" lon="10.57637487235748"><ele>87.0</ele><time>2026-04-05T09:45:38.999Z</time></trkpt><trkpt lat="35.64264875122532" lon="10.576583810705506"><ele>87.0</ele><time>2026-04-05T09:45:39.999Z</time></trkpt><trkpt lat="35.64243769190194" lon="10.576796189520424"><ele>87.0</ele><time>2026-04-05T09:45:40.999Z</time></trkpt><trkpt lat="35.64222649805782" lon="10.577006820717415"><ele>86.0</ele><time>2026-04-05T09:45:41.999Z</time></trkpt><trkpt lat="35.64201689444787" lon="10.577211726526013"><ele>85.0</ele><time>2026-04-05T09:45:42.999Z</time></trkpt><trkpt lat="35.64180516281701" lon="10.577422547122387"><ele>85.0</ele><time>2026-04-05T09:45:43.999Z</time></trkpt><trkpt lat="35.64159283318203" lon="10.577632298868064"><ele>85.0</ele><time>2026-04-05T09:45:44.999Z</time></trkpt><trkpt lat="35.641382057964115" lon="10.577840304050648"><ele>85.5</ele><time>2026-04-05T09:45:45.999Z</time></trkpt><trkpt lat="35.64116763428002" lon="10.578051424804144"><ele>86.0</ele><time>2026-04-05T09:45:46.999Z</time></trkpt><trkpt lat="35.64095758702729" lon="10.57826052756932"><ele>86.0</ele><time>2026-04-05T09:45:47.999Z</time></trkpt><trkpt lat="35.640748291059296" lon="10.578472640319273"><ele>86.0</ele><time>2026-04-05T09:45:48.999Z</time></trkpt><trkpt lat="35.640548851084574" lon="10.578670269624817"><ele>86.0</ele><time>2026-04-05T09:45:49.999Z</time></trkpt><trkpt lat="35.640366183217516" lon="10.578854868912062"><ele>86.0</ele><time>2026-04-05T09:45:50.999Z</time></trkpt><trkpt lat="35.64017875038502" lon="10.579042061940912"><ele>87.0</ele><time>2026-04-05T09:45:51.999Z</time></trkpt><trkpt lat="35.63999431999834" lon="10.579225461808397"><ele>88.0</ele><time>2026-04-05T09:45:52.999Z</time></trkpt><trkpt lat="35.63980523555811" lon="10.579414356217553"><ele>88.0</ele><time>2026-04-05T09:45:53.999Z</time></trkpt><trkpt lat="35.63962769909404" lon="10.579596371691931"><ele>88.0</ele><time>2026-04-05T09:45:54.999Z</time></trkpt><trkpt lat="35.639460367595994" lon="10.579764850617604"><ele>88.0</ele><time>2026-04-05T09:45:55.999Z</time></trkpt><trkpt lat="35.639300544507066" lon="10.5799223227376"><ele>88.0</ele><time>2026-04-05T09:45:56.999Z</time></trkpt><trkpt lat="35.63914168662904" lon="10.580076546597688"><ele>88.0</ele><time>2026-04-05T09:45:57.999Z</time></trkpt><trkpt lat="35.63897845881078" lon="10.580238291755443"><ele>88.0</ele><time>2026-04-05T09:45:58.999Z</time></trkpt><trkpt lat="35.638818280283665" lon="10.58039793398087"><ele>88.0</ele><time>2026-04-05T09:45:59.999Z</time></trkpt><trkpt lat="35.638656470175626" lon="10.580556262800087"><ele>88.0</ele><time>2026-04-05T09:46:00.999Z</time></trkpt><trkpt lat="35.63849745133613" lon="10.580711084794235"><ele>88.0</ele><time>2026-04-05T09:46:01.999Z</time></trkpt><trkpt lat="35.638340789769195" lon="10.5808655408649"><ele>88.0</ele><time>2026-04-05T09:46:02.999Z</time></trkpt><trkpt lat="35.63818385268996" lon="10.581024409164037"><ele>88.0</ele><time>2026-04-05T09:46:03.999Z</time></trkpt><trkpt lat="35.638028632588565" lon="10.581181107348064"><ele>88.0</ele><time>2026-04-05T09:46:04.999Z</time></trkpt><trkpt lat="35.63786819415813" lon="10.58134088787798"><ele>87.66666666666666</ele><time>2026-04-05T09:46:05.999Z</time></trkpt><trkpt lat="35.63770914942191" lon="10.58149683715445"><ele>87.33333333333333</ele><time>2026-04-05T09:46:06.999Z</time></trkpt><trkpt lat="35.637550922871434" lon="10.581659207069087"><ele>87.0</ele><time>2026-04-05T09:46:07.999Z</time></trkpt><trkpt lat="35.63739038910077" lon="10.581822766975685"><ele>87.0</ele><time>2026-04-05T09:46:08.999Z</time></trkpt><trkpt lat="35.637223414842545" lon="10.58198503864288"><ele>87.0</ele><time>2026-04-05T09:46:09.999Z</time></trkpt><trkpt lat="35.637062040388116" lon="10.582141281871584"><ele>87.0</ele><time>2026-04-05T09:46:10.999Z</time></trkpt><trkpt lat="35.63689565163512" lon="10.582310687330587"><ele>87.66666666666667</ele><time>2026-04-05T09:46:11.999Z</time></trkpt><trkpt lat="35.63673508563858" lon="10.582474892566927"><ele>88.33333333333334</ele><time>2026-04-05T09:46:12.999Z</time></trkpt><trkpt lat="35.6365707517518" lon="10.582640480947036"><ele>89.0</ele><time>2026-04-05T09:46:13.999Z</time></trkpt><trkpt lat="35.63640836132933" lon="10.582803192385802"><ele>88.66666666666667</ele><time>2026-04-05T09:46:14.999Z</time></trkpt><trkpt lat="35.63624321332972" lon="10.582967337300751"><ele>88.33333333333333</ele><time>2026-04-05T09:46:15.999Z</time></trkpt><trkpt lat="35.63607924837443" lon="10.583131755038071"><ele>88.0</ele><time>2026-04-05T09:46:16.999Z</time></trkpt><trkpt lat="35.63591361869739" lon="10.5832959990006"><ele>88.0</ele><time>2026-04-05T09:46:17.999Z</time></trkpt><trkpt lat="35.63575042320964" lon="10.583458801432203"><ele>88.0</ele><time>2026-04-05T09:46:18.999Z</time></trkpt><trkpt lat="35.635588607501504" lon="10.583619182507224"><ele>88.0</ele><time>2026-04-05T09:46:19.999Z</time></trkpt><trkpt lat="35.63542185589546" lon="10.583783676383009"><ele>88.66666666666666</ele><time>2026-04-05T09:46:20.999Z</time></trkpt><trkpt lat="35.63525708653353" lon="10.583946360925916"><ele>89.33333333333333</ele><time>2026-04-05T09:46:21.999Z</time></trkpt><trkpt lat="35.635088331832534" lon="10.584116607304948"><ele>90.0</ele><time>2026-04-05T09:46:22.999Z</time></trkpt><trkpt lat="35.63491208704134" lon="10.584297500790464"><ele>90.0</ele><time>2026-04-05T09:46:23.999Z</time></trkpt><trkpt lat="35.634731152225754" lon="10.584483510388031"><ele>90.0</ele><time>2026-04-05T09:46:24.999Z</time></trkpt><trkpt lat="35.63454327192735" lon="10.584674418657697"><ele>90.0</ele><time>2026-04-05T09:46:25.999Z</time></trkpt><trkpt lat="35.63435013956007" lon="10.584870955146492"><ele>90.0</ele><time>2026-04-05T09:46:26.999Z</time></trkpt><trkpt lat="35.63415360086762" lon="10.58507543581857"><ele>90.0</ele><time>2026-04-05T09:46:27.999Z</time></trkpt><trkpt lat="35.633959813127085" lon="10.585276629800015"><ele>90.0</ele><time>2026-04-05T09:46:28.999Z</time></trkpt><trkpt lat="35.63377646430935" lon="10.585462949133595"><ele>88.5</ele><time>2026-04-05T09:46:29.999Z</time></trkpt><trkpt lat="35.633596779342284" lon="10.585647637412354"><ele>87.0</ele><time>2026-04-05T09:46:30.999Z</time></trkpt><trkpt lat="35.633414767201124" lon="10.585829788408473"><ele>87.0</ele><time>2026-04-05T09:46:31.999Z</time></trkpt><trkpt lat="35.63321987298803" lon="10.58602457811394"><ele>87.0</ele><time>2026-04-05T09:46:32.999Z</time></trkpt><trkpt lat="35.63300865897201" lon="10.586237239807422"><ele>88.0</ele><time>2026-04-05T09:46:33.999Z</time></trkpt><trkpt lat="35.63277936343005" lon="10.58646683957659"><ele>89.0</ele><time>2026-04-05T09:46:34.999Z</time></trkpt><trkpt lat="35.6325384180443" lon="10.586700909470627"><ele>89.0</ele><time>2026-04-05T09:46:35.999Z</time></trkpt><trkpt lat="35.63228889262221" lon="10.586937210853444"><ele>89.0</ele><time>2026-04-05T09:46:36.999Z</time></trkpt><trkpt lat="35.632037175002566" lon="10.587174444158588"><ele>87.5</ele><time>2026-04-05T09:46:37.999Z</time></trkpt><trkpt lat="35.63178630340307" lon="10.587416423451655"><ele>86.0</ele><time>2026-04-05T09:46:38.999Z</time></trkpt><trkpt lat="35.631540176427514" lon="10.587661176758445"><ele>86.0</ele><time>2026-04-05T09:46:39.999Z</time></trkpt><trkpt lat="35.63129896431628" lon="10.5879023165706"><ele>86.0</ele><time>2026-04-05T09:46:40.999Z</time></trkpt><trkpt lat="35.631062326925196" lon="10.58813681569152"><ele>86.0</ele><time>2026-04-05T09:46:41.999Z</time></trkpt><trkpt lat="35.630829826574164" lon="10.588361741981181"><ele>86.0</ele><time>2026-04-05T09:46:42.999Z</time></trkpt><trkpt lat="35.630598235403745" lon="10.588580007949846"><ele>86.0</ele><time>2026-04-05T09:46:43.999Z</time></trkpt><trkpt lat="35.630367969551536" lon="10.588786408652904"><ele>86.0</ele><time>2026-04-05T09:46:44.999Z</time></trkpt><trkpt lat="35.630139665837554" lon="10.588985580143142"><ele>86.0</ele><time>2026-04-05T09:46:45.999Z</time></trkpt><trkpt lat="35.629912187651165" lon="10.589179394221409"><ele>86.0</ele><time>2026-04-05T09:46:46.999Z</time></trkpt><trkpt lat="35.629684423815384" lon="10.589371531884062"><ele>86.5</ele><time>2026-04-05T09:46:47.999Z</time></trkpt><trkpt lat="35.62945693076322" lon="10.589562435737568"><ele>87.0</ele><time>2026-04-05T09:46:48.999Z</time></trkpt><trkpt lat="35.62922850640753" lon="10.589752155272476"><ele>87.0</ele><time>2026-04-05T09:46:49.999Z</time></trkpt><trkpt lat="35.62899726946267" lon="10.589935658422506"><ele>87.0</ele><time>2026-04-05T09:46:50.999Z</time></trkpt><trkpt lat="35.62876723572533" lon="10.59011290112817"><ele>87.0</ele><time>2026-04-05T09:46:51.999Z</time></trkpt><trkpt lat="35.62853304361206" lon="10.590288315925948"><ele>87.0</ele><time>2026-04-05T09:46:52.999Z</time></trkpt><trkpt lat="35.6283022185494" lon="10.590455477180587"><ele>87.0</ele><time>2026-04-05T09:46:53.999Z</time></trkpt><trkpt lat="35.62806969777774" lon="10.590621247805963"><ele>87.0</ele><time>2026-04-05T09:46:54.999Z</time></trkpt><trkpt lat="35.62783908224792" lon="10.59078189419269"><ele>86.0</ele><time>2026-04-05T09:46:55.999Z</time></trkpt><trkpt lat="35.627604936165625" lon="10.590942191180444"><ele>85.0</ele><time>2026-04-05T09:46:56.999Z</time></trkpt><trkpt lat="35.627376423116225" lon="10.591095155971027"><ele>85.5</ele><time>2026-04-05T09:46:57.999Z</time></trkpt><trkpt lat="35.627144434617364" lon="10.591245354918113"><ele>86.0</ele><time>2026-04-05T09:46:58.999Z</time></trkpt><trkpt lat="35.626910471727705" lon="10.59139470630626"><ele>86.0</ele><time>2026-04-05T09:46:59.999Z</time></trkpt><trkpt lat="35.62667315228845" lon="10.591546136655024"><ele>86.0</ele><time>2026-04-05T09:47:00.999Z</time></trkpt><trkpt lat="35.626430205108335" lon="10.591696884461808"><ele>86.0</ele><time>2026-04-05T09:47:01.999Z</time></trkpt><trkpt lat="35.62619276870834" lon="10.591839711654847"><ele>86.0</ele><time>2026-04-05T09:47:02.999Z</time></trkpt><trkpt lat="35.62595133576108" lon="10.591982442963294"><ele>86.5</ele><time>2026-04-05T09:47:03.999Z</time></trkpt><trkpt lat="35.62571189752998" lon="10.592120685498159"><ele>87.0</ele><time>2026-04-05T09:47:04.999Z</time></trkpt><trkpt lat="35.62546556317904" lon="10.592260333978569"><ele>87.0</ele><time>2026-04-05T09:47:05.999Z</time></trkpt><trkpt lat="35.625216775962095" lon="10.59239548744827"><ele>87.0</ele><time>2026-04-05T09:47:06.999Z</time></trkpt><trkpt lat="35.62496690056961" lon="10.592527035263306"><ele>87.0</ele><time>2026-04-05T09:47:07.999Z</time></trkpt><trkpt lat="35.62471686163407" lon="10.59265092555087"><ele>87.0</ele><time>2026-04-05T09:47:08.999Z</time></trkpt><trkpt lat="35.62446406321352" lon="10.592773221679723"><ele>88.0</ele><time>2026-04-05T09:47:09.999Z</time></trkpt><trkpt lat="35.62421479504889" lon="10.592890958460535"><ele>89.0</ele><time>2026-04-05T09:47:10.999Z</time></trkpt><trkpt lat="35.623966904442455" lon="10.59300954876021"><ele>89.0</ele><time>2026-04-05T09:47:11.999Z</time></trkpt><trkpt lat="35.62371124459622" lon="10.593129727841003"><ele>89.0</ele><time>2026-04-05T09:47:12.999Z</time></trkpt><trkpt lat="35.623455803536466" lon="10.593240868304433"><ele>88.5</ele><time>2026-04-05T09:47:13.999Z</time></trkpt><trkpt lat="35.62320380762348" lon="10.593345388459818"><ele>88.0</ele><time>2026-04-05T09:47:14.999Z</time></trkpt><trkpt lat="35.62294257223924" lon="10.593452911128884"><ele>86.5</ele><time>2026-04-05T09:47:15.999Z</time></trkpt><trkpt lat="35.62268572052149" lon="10.593553735606232"><ele>85.0</ele><time>2026-04-05T09:47:16.999Z</time></trkpt><trkpt lat="35.6224282032539" lon="10.593655102062792"><ele>86.0</ele><time>2026-04-05T09:47:17.999Z</time></trkpt><trkpt lat="35.62217214477782" lon="10.593754532485681"><ele>87.0</ele><time>2026-04-05T09:47:18.999Z</time></trkpt><trkpt lat="35.621915183963296" lon="10.593851925700797"><ele>87.5</ele><time>2026-04-05T09:47:19.999Z</time></trkpt><trkpt lat="35.62165500699485" lon="10.593945971920437"><ele>88.0</ele><time>2026-04-05T09:47:20.999Z</time></trkpt><trkpt lat="35.62139265223362" lon="10.594035446044233"><ele>88.5</ele><time>2026-04-05T09:47:21.999Z</time></trkpt><trkpt lat="35.62112572029016" lon="10.59412322512841"><ele>89.0</ele><time>2026-04-05T09:47:22.999Z</time></trkpt><trkpt lat="35.620857541763314" lon="10.594205057223649"><ele>89.0</ele><time>2026-04-05T09:47:23.999Z</time></trkpt><trkpt lat="35.620589387712194" lon="10.594282671795607"><ele>89.0</ele><time>2026-04-05T09:47:24.999Z</time></trkpt><trkpt lat="35.62031927798117" lon="10.59435943798331"><ele>89.0</ele><time>2026-04-05T09:47:25.999Z</time></trkpt><trkpt lat="35.62004523773384" lon="10.594437230493302"><ele>89.0</ele><time>2026-04-05T09:47:26.999Z</time></trkpt><trkpt lat="35.61977302947191" lon="10.59451332298395"><ele>89.0</ele><time>2026-04-05T09:47:27.999Z</time></trkpt><trkpt lat="35.6195037332527" lon="10.594586181185093"><ele>89.0</ele><time>2026-04-05T09:47:28.999Z</time></trkpt><trkpt lat="35.61922939767939" lon="10.594662544375224"><ele>89.5</ele><time>2026-04-05T09:47:29.999Z</time></trkpt><trkpt lat="35.618961453298" lon="10.594738410325991"><ele>90.0</ele><time>2026-04-05T09:47:30.999Z</time></trkpt><trkpt lat="35.618688125922255" lon="10.59481634884684"><ele>89.0</ele><time>2026-04-05T09:47:31.999Z</time></trkpt><trkpt lat="35.61841797482902" lon="10.594894873715099"><ele>88.0</ele><time>2026-04-05T09:47:32.999Z</time></trkpt><trkpt lat="35.61814690549597" lon="10.594973869562846"><ele>88.0</ele><time>2026-04-05T09:47:33.999Z</time></trkpt><trkpt lat="35.617877973895176" lon="10.595054773170835"><ele>88.0</ele><time>2026-04-05T09:47:34.999Z</time></trkpt><trkpt lat="35.6176059649251" lon="10.595134430499645"><ele>88.0</ele><time>2026-04-05T09:47:35.999Z</time></trkpt><trkpt lat="35.61733707177962" lon="10.595214818752046"><ele>88.0</ele><time>2026-04-05T09:47:36.999Z</time></trkpt><trkpt lat="35.61706635868091" lon="10.595295455072788"><ele>88.0</ele><time>2026-04-05T09:47:37.999Z</time></trkpt><trkpt lat="35.61679578462566" lon="10.59537362969064"><ele>88.0</ele><time>2026-04-05T09:47:38.999Z</time></trkpt><trkpt lat="35.61652361800444" lon="10.595451114423582"><ele>88.0</ele><time>2026-04-05T09:47:39.999Z</time></trkpt><trkpt lat="35.61625021172032" lon="10.59552886580252"><ele>88.0</ele><time>2026-04-05T09:47:40.999Z</time></trkpt><trkpt lat="35.61598104462404" lon="10.595604773400824"><ele>89.5</ele><time>2026-04-05T09:47:41.999Z</time></trkpt><trkpt lat="35.615709001992954" lon="10.59568360521462"><ele>91.0</ele><time>2026-04-05T09:47:42.999Z</time></trkpt><trkpt lat="35.61544113151253" lon="10.595763880027372"><ele>89.0</ele><time>2026-04-05T09:47:43.999Z</time></trkpt><trkpt lat="35.61516965672976" lon="10.595847774959829"><ele>87.0</ele><time>2026-04-05T09:47:44.999Z</time></trkpt><trkpt lat="35.614902026745156" lon="10.595928066479708"><ele>87.0</ele><time>2026-04-05T09:47:45.999Z</time></trkpt><trkpt lat="35.61463305182354" lon="10.596007021241423"><ele>87.0</ele><time>2026-04-05T09:47:46.999Z</time></trkpt><trkpt lat="35.61435917383307" lon="10.59608641127978"><ele>87.0</ele><time>2026-04-05T09:47:47.999Z</time></trkpt><trkpt lat="35.61408651460615" lon="10.596163979031344"><ele>87.0</ele><time>2026-04-05T09:47:48.999Z</time></trkpt><trkpt lat="35.61380372579324" lon="10.59624471456075"><ele>86.5</ele><time>2026-04-05T09:47:49.999Z</time></trkpt><trkpt lat="35.61350913798498" lon="10.596328755269015"><ele>86.0</ele><time>2026-04-05T09:47:50.999Z</time></trkpt><trkpt lat="35.61319871787682" lon="10.596420155663255"><ele>86.0</ele><time>2026-04-05T09:47:51.999Z</time></trkpt><trkpt lat="35.61288135588841" lon="10.596514532479121"><ele>86.0</ele><time>2026-04-05T09:47:52.999Z</time></trkpt><trkpt lat="35.612550719223364" lon="10.59661403922754"><ele>87.5</ele><time>2026-04-05T09:47:53.999Z</time></trkpt><trkpt lat="35.6122236629641" lon="10.59671358841144"><ele>89.0</ele><time>2026-04-05T09:47:54.999Z</time></trkpt><trkpt lat="35.61189898214422" lon="10.596811759055727"><ele>89.0</ele><time>2026-04-05T09:47:55.999Z</time></trkpt><trkpt lat="35.61157308805916" lon="10.596908675791086"><ele>89.0</ele><time>2026-04-05T09:47:56.999Z</time></trkpt><trkpt lat="35.61125014015556" lon="10.597004950711812"><ele>89.0</ele><time>2026-04-05T09:47:57.999Z</time></trkpt><trkpt lat="35.61092560709002" lon="10.59710222116452"><ele>89.0</ele><time>2026-04-05T09:47:58.999Z</time></trkpt><trkpt lat="35.61060147710515" lon="10.597197216210407"><ele>88.5</ele><time>2026-04-05T09:47:59.999Z</time></trkpt><trkpt lat="35.610275468905286" lon="10.597292198474774"><ele>88.0</ele><time>2026-04-05T09:48:00.999Z</time></trkpt><trkpt lat="35.60995205063167" lon="10.59738213058365"><ele>88.0</ele><time>2026-04-05T09:48:01.999Z</time></trkpt><trkpt lat="35.60962807356333" lon="10.597470837692248"><ele>88.0</ele><time>2026-04-05T09:48:02.999Z</time></trkpt><trkpt lat="35.609303291099664" lon="10.597559753187795"><ele>85.5</ele><time>2026-04-05T09:48:03.999Z</time></trkpt><trkpt lat="35.60897771725911" lon="10.597651000171341"><ele>83.0</ele><time>2026-04-05T09:48:04.999Z</time></trkpt><trkpt lat="35.608652771471405" lon="10.597745032053819"><ele>82.0</ele><time>2026-04-05T09:48:05.999Z</time></trkpt><trkpt lat="35.608327898683775" lon="10.597842149096211"><ele>81.0</ele><time>2026-04-05T09:48:06.999Z</time></trkpt><trkpt lat="35.608004993742654" lon="10.59793944174254"><ele>82.0</ele><time>2026-04-05T09:48:07.999Z</time></trkpt><trkpt lat="35.6076781918242" lon="10.598035924656127"><ele>83.0</ele><time>2026-04-05T09:48:08.999Z</time></trkpt><trkpt lat="35.60735321651717" lon="10.598131276757362"><ele>83.0</ele><time>2026-04-05T09:48:09.999Z</time></trkpt><trkpt lat="35.607030146886224" lon="10.598228881295432"><ele>83.0</ele><time>2026-04-05T09:48:10.999Z</time></trkpt><trkpt lat="35.60670624585233" lon="10.598331794820572"><ele>82.0</ele><time>2026-04-05T09:48:11.999Z</time></trkpt><trkpt lat="35.60639735521725" lon="10.598433939141868"><ele>81.0</ele><time>2026-04-05T09:48:12.999Z</time></trkpt><trkpt lat="35.606103243480376" lon="10.59853734827179"><ele>81.0</ele><time>2026-04-05T09:48:13.999Z</time></trkpt><trkpt lat="35.60580972922312" lon="10.59863926740309"><ele>81.0</ele><time>2026-04-05T09:48:14.999Z</time></trkpt><trkpt lat="35.605513631514484" lon="10.59874007864588"><ele>78.5</ele><time>2026-04-05T09:48:15.999Z</time></trkpt><trkpt lat="35.60522202534863" lon="10.598840786113781"><ele>76.0</ele><time>2026-04-05T09:48:17Z</time></trkpt><trkpt lat="35.60493703609007" lon="10.59894313377395"><ele>76.0</ele><time>2026-04-05T09:48:18Z</time></trkpt><trkpt lat="35.60465721242396" lon="10.599045901751678"><ele>76.0</ele><time>2026-04-05T09:48:19Z</time></trkpt><trkpt lat="35.60439111353598" lon="10.599141147507998"><ele>76.5</ele><time>2026-04-05T09:48:20Z</time></trkpt><trkpt lat="35.60412954923056" lon="10.599237195569367"><ele>77.0</ele><time>2026-04-05T09:48:21Z</time></trkpt><trkpt lat="35.603872111898816" lon="10.599329458850125"><ele>75.5</ele><time>2026-04-05T09:48:22Z</time></trkpt><trkpt lat="35.603607339881115" lon="10.599427160008197"><ele>74.0</ele><time>2026-04-05T09:48:23Z</time></trkpt><trkpt lat="35.60334721186588" lon="10.599522903253316"><ele>73.5</ele><time>2026-04-05T09:48:24Z</time></trkpt><trkpt lat="35.6030923635392" lon="10.599615442846229"><ele>73.0</ele><time>2026-04-05T09:48:25Z</time></trkpt><trkpt lat="35.60284420042291" lon="10.599703412166953"><ele>72.0</ele><time>2026-04-05T09:48:26Z</time></trkpt><trkpt lat="35.60260887300147" lon="10.599791241759297"><ele>71.0</ele><time>2026-04-05T09:48:27Z</time></trkpt><trkpt lat="35.602384653928695" lon="10.599876428529777"><ele>71.0</ele><time>2026-04-05T09:48:28Z</time></trkpt><trkpt lat="35.60214956691681" lon="10.599967450840529"><ele>71.0</ele><time>2026-04-05T09:48:29Z</time></trkpt><trkpt lat="35.60191113034165" lon="10.600060346288892"><ele>70.0</ele><time>2026-04-05T09:48:30Z</time></trkpt><trkpt lat="35.60166985200496" lon="10.600159081473578"><ele>69.0</ele><time>2026-04-05T09:48:31Z</time></trkpt><trkpt lat="35.60143155470448" lon="10.600256160960848"><ele>68.0</ele><time>2026-04-05T09:48:32Z</time></trkpt><trkpt lat="35.60119282027208" lon="10.60035026679508"><ele>67.0</ele><time>2026-04-05T09:48:33Z</time></trkpt><trkpt lat="35.60095714824679" lon="10.600439854755152"><ele>66.5</ele><time>2026-04-05T09:48:34Z</time></trkpt><trkpt lat="35.60071777863661" lon="10.600529915544074"><ele>66.0</ele><time>2026-04-05T09:48:35Z</time></trkpt><trkpt lat="35.600485548892976" lon="10.600623094017768"><ele>65.0</ele><time>2026-04-05T09:48:36Z</time></trkpt><trkpt lat="35.600248750336256" lon="10.600723022753574"><ele>64.0</ele><time>2026-04-05T09:48:37Z</time></trkpt><trkpt lat="35.60001447001651" lon="10.60082462964709"><ele>64.0</ele><time>2026-04-05T09:48:38Z</time></trkpt><trkpt lat="35.59977760542029" lon="10.60092640157648"><ele>64.0</ele><time>2026-04-05T09:48:39Z</time></trkpt><trkpt lat="35.59953598366268" lon="10.601031710454428"><ele>63.0</ele><time>2026-04-05T09:48:40Z</time></trkpt><trkpt lat="35.5992891905" lon="10.601138701901489"><ele>62.0</ele><time>2026-04-05T09:48:41Z</time></trkpt><trkpt lat="35.59904693569452" lon="10.601240056935547"><ele>62.0</ele><time>2026-04-05T09:48:42Z</time></trkpt><trkpt lat="35.59880459278902" lon="10.601341559028075"><ele>62.0</ele><time>2026-04-05T09:48:43Z</time></trkpt><trkpt lat="35.5985610720621" lon="10.601442587938218"><ele>61.5</ele><time>2026-04-05T09:48:44Z</time></trkpt><trkpt lat="35.598319397846765" lon="10.601544498540536"><ele>61.0</ele><time>2026-04-05T09:48:45Z</time></trkpt><trkpt lat="35.59806483540236" lon="10.601656220954416"><ele>61.0</ele><time>2026-04-05T09:48:46Z</time></trkpt><trkpt lat="35.59780158350481" lon="10.601771704462596"><ele>61.0</ele><time>2026-04-05T09:48:47Z</time></trkpt><trkpt lat="35.59753438050455" lon="10.601890743487045"><ele>60.5</ele><time>2026-04-05T09:48:48Z</time></trkpt><trkpt lat="35.59726107256617" lon="10.602012655266002"><ele>60.0</ele><time>2026-04-05T09:48:49Z</time></trkpt><trkpt lat="35.59698367089859" lon="10.602134508232677"><ele>59.0</ele><time>2026-04-05T09:48:50Z</time></trkpt><trkpt lat="35.59669869571033" lon="10.602258042103003"><ele>58.0</ele><time>2026-04-05T09:48:50.999Z</time></trkpt><trkpt lat="35.59640023775276" lon="10.602386940843862"><ele>59.0</ele><time>2026-04-05T09:48:51.999Z</time></trkpt><trkpt lat="35.59609607174318" lon="10.602516758057988"><ele>60.0</ele><time>2026-04-05T09:48:52.999Z</time></trkpt><trkpt lat="35.59577930381473" lon="10.6026525373523"><ele>60.0</ele><time>2026-04-05T09:48:53.999Z</time></trkpt><trkpt lat="35.595462200458655" lon="10.602788628592453"><ele>60.0</ele><time>2026-04-05T09:48:54.999Z</time></trkpt><trkpt lat="35.59515528231496" lon="10.602925065778436"><ele>59.0</ele><time>2026-04-05T09:48:55.999Z</time></trkpt><trkpt lat="35.59484694915119" lon="10.603062098308081"><ele>58.0</ele><time>2026-04-05T09:48:56.999Z</time></trkpt><trkpt lat="35.594540269625206" lon="10.603197771562309"><ele>58.5</ele><time>2026-04-05T09:48:57.999Z</time></trkpt><trkpt lat="35.59423840367507" lon="10.603328552767126"><ele>59.0</ele><time>2026-04-05T09:48:58.999Z</time></trkpt><trkpt lat="35.59394532799997" lon="10.603455609885946"><ele>58.5</ele><time>2026-04-05T09:48:59.999Z</time></trkpt><trkpt lat="35.59365729892694" lon="10.603579065238609"><ele>58.0</ele><time>2026-04-05T09:49:00.999Z</time></trkpt><trkpt lat="35.59337583191739" lon="10.6036989292423"><ele>58.0</ele><time>2026-04-05T09:49:01.999Z</time></trkpt><trkpt lat="35.59309902207586" lon="10.603817892709836"><ele>58.0</ele><time>2026-04-05T09:49:02.999Z</time></trkpt><trkpt lat="35.592823290682176" lon="10.603937099610933"><ele>57.0</ele><time>2026-04-05T09:49:03.999Z</time></trkpt><trkpt lat="35.59254387630031" lon="10.604057657395263"><ele>56.0</ele><time>2026-04-05T09:49:04.999Z</time></trkpt><trkpt lat="35.59226362149659" lon="10.60417990237582"><ele>55.5</ele><time>2026-04-05T09:49:05.999Z</time></trkpt><trkpt lat="35.59198244588193" lon="10.604303311159896"><ele>55.0</ele><time>2026-04-05T09:49:06.999Z</time></trkpt><trkpt lat="35.591700941685836" lon="10.604426989689527"><ele>55.0</ele><time>2026-04-05T09:49:07.999Z</time></trkpt><trkpt lat="35.59141903751484" lon="10.60454845975014"><ele>55.0</ele><time>2026-04-05T09:49:08.999Z</time></trkpt><trkpt lat="35.59113968905569" lon="10.604667837958381"><ele>55.0</ele><time>2026-04-05T09:49:09.999Z</time></trkpt><trkpt lat="35.590862376569184" lon="10.604785582799128"><ele>55.0</ele><time>2026-04-05T09:49:10.999Z</time></trkpt><trkpt lat="35.5905903515611" lon="10.604902638913881"><ele>54.5</ele><time>2026-04-05T09:49:11.999Z</time></trkpt><trkpt lat="35.590317826743075" lon="10.605016882459406"><ele>54.0</ele><time>2026-04-05T09:49:12.999Z</time></trkpt><trkpt lat="35.59004816094541" lon="10.605129922685137"><ele>54.0</ele><time>2026-04-05T09:49:13.999Z</time></trkpt><trkpt lat="35.58977367291839" lon="10.605243160586612"><ele>54.0</ele><time>2026-04-05T09:49:14.999Z</time></trkpt><trkpt lat="35.589496793838386" lon="10.605353742441292"><ele>53.5</ele><time>2026-04-05T09:49:15.999Z</time></trkpt><trkpt lat="35.58921982361387" lon="10.60546143890776"><ele>53.0</ele><time>2026-04-05T09:49:16.999Z</time></trkpt><trkpt lat="35.58894204387933" lon="10.60556937400209"><ele>53.5</ele><time>2026-04-05T09:49:17.999Z</time></trkpt><trkpt lat="35.588661736460956" lon="10.605672908764221"><ele>54.0</ele><time>2026-04-05T09:49:18.999Z</time></trkpt><trkpt lat="35.58838019121899" lon="10.605773002547009"><ele>54.0</ele><time>2026-04-05T09:49:19.999Z</time></trkpt><trkpt lat="35.58809918564519" lon="10.60587135060066"><ele>54.0</ele><time>2026-04-05T09:49:20.999Z</time></trkpt><trkpt lat="35.58781988500202" lon="10.60597812985008"><ele>52.0</ele><time>2026-04-05T09:49:21.999Z</time></trkpt><trkpt lat="35.5875396982126" lon="10.60608489617847"><ele>50.0</ele><time>2026-04-05T09:49:22.999Z</time></trkpt><trkpt lat="35.58726154195529" lon="10.606184139945595"><ele>51.0</ele><time>2026-04-05T09:49:23.999Z</time></trkpt><trkpt lat="35.586978390555366" lon="10.60628249695361"><ele>52.0</ele><time>2026-04-05T09:49:24.999Z</time></trkpt><trkpt lat="35.586698066831914" lon="10.60637892501123"><ele>52.0</ele><time>2026-04-05T09:49:25.999Z</time></trkpt><trkpt lat="35.58641468578552" lon="10.606477167401511"><ele>52.0</ele><time>2026-04-05T09:49:26.999Z</time></trkpt><trkpt lat="35.586134876495684" lon="10.606576456652375"><ele>51.0</ele><time>2026-04-05T09:49:27.999Z</time></trkpt><trkpt lat="35.58585323592736" lon="10.606678490414685"><ele>50.0</ele><time>2026-04-05T09:49:28.999Z</time></trkpt><trkpt lat="35.58557547841735" lon="10.606778961479943"><ele>50.0</ele><time>2026-04-05T09:49:29.999Z</time></trkpt><trkpt lat="35.585294234799285" lon="10.606877950479497"><ele>50.0</ele><time>2026-04-05T09:49:30.999Z</time></trkpt><trkpt lat="35.585022203402644" lon="10.606974283550182"><ele>49.5</ele><time>2026-04-05T09:49:31.999Z</time></trkpt><trkpt lat="35.584765258552515" lon="10.60706549054047"><ele>49.0</ele><time>2026-04-05T09:49:32.999Z</time></trkpt><trkpt lat="35.58451630209862" lon="10.607152362389069"><ele>48.5</ele><time>2026-04-05T09:49:33.999Z</time></trkpt><trkpt lat="35.58426860910888" lon="10.607237834580241"><ele>48.0</ele><time>2026-04-05T09:49:34.999Z</time></trkpt><trkpt lat="35.58401885664285" lon="10.607324805445668"><ele>48.0</ele><time>2026-04-05T09:49:35.999Z</time></trkpt><trkpt lat="35.58376605397771" lon="10.607411493141749"><ele>48.0</ele><time>2026-04-05T09:49:36.999Z</time></trkpt><trkpt lat="35.58352065966319" lon="10.60749773479596"><ele>48.0</ele><time>2026-04-05T09:49:37.999Z</time></trkpt><trkpt lat="35.58328408579962" lon="10.607578716631073"><ele>48.0</ele><time>2026-04-05T09:49:38.999Z</time></trkpt><trkpt lat="35.58304843840531" lon="10.607658264700488"><ele>47.5</ele><time>2026-04-05T09:49:39.999Z</time></trkpt><trkpt lat="35.58280717987776" lon="10.607740953262935"><ele>47.0</ele><time>2026-04-05T09:49:40.999Z</time></trkpt><trkpt lat="35.582558837411774" lon="10.607828543101464"><ele>47.0</ele><time>2026-04-05T09:49:41.999Z</time></trkpt><trkpt lat="35.58230953379271" lon="10.60791865827582"><ele>47.0</ele><time>2026-04-05T09:49:42.999Z</time></trkpt><trkpt lat="35.582060235777725" lon="10.60800752220705"><ele>47.0</ele><time>2026-04-05T09:49:43.999Z</time></trkpt><trkpt lat="35.581809500958634" lon="10.608097316644297"><ele>47.0</ele><time>2026-04-05T09:49:44.999Z</time></trkpt><trkpt lat="35.58156128162589" lon="10.60818769365074"><ele>47.0</ele><time>2026-04-05T09:49:45.999Z</time></trkpt><trkpt lat="35.5813160905411" lon="10.608280886471391"><ele>47.0</ele><time>2026-04-05T09:49:46.999Z</time></trkpt><trkpt lat="35.58106782302604" lon="10.608374045332923"><ele>47.5</ele><time>2026-04-05T09:49:47.999Z</time></trkpt><trkpt lat="35.58082091352401" lon="10.608466733075835"><ele>48.0</ele><time>2026-04-05T09:49:48.999Z</time></trkpt><trkpt lat="35.58057583053909" lon="10.608558087537782"><ele>48.0</ele><time>2026-04-05T09:49:49.999Z</time></trkpt><trkpt lat="35.580328485462736" lon="10.608651644633758"><ele>48.0</ele><time>2026-04-05T09:49:50.999Z</time></trkpt><trkpt lat="35.58008295832773" lon="10.608743643109902"><ele>48.0</ele><time>2026-04-05T09:49:51.999Z</time></trkpt><trkpt lat="35.57983590190398" lon="10.60883378799196"><ele>48.0</ele><time>2026-04-05T09:49:52.999Z</time></trkpt><trkpt lat="35.579589601140135" lon="10.608925889522853"><ele>48.5</ele><time>2026-04-05T09:49:53.999Z</time></trkpt><trkpt lat="35.579344460345325" lon="10.60901685347003"><ele>49.0</ele><time>2026-04-05T09:49:54.999Z</time></trkpt><trkpt lat="35.5790967801453" lon="10.609112279243856"><ele>49.0</ele><time>2026-04-05T09:49:55.999Z</time></trkpt><trkpt lat="35.57884983759098" lon="10.609209913255523"><ele>49.0</ele><time>2026-04-05T09:49:56.999Z</time></trkpt><trkpt lat="35.578597898351795" lon="10.60930806868394"><ele>48.0</ele><time>2026-04-05T09:49:57.999Z</time></trkpt><trkpt lat="35.578344779215556" lon="10.609403693384698"><ele>47.0</ele><time>2026-04-05T09:49:58.999Z</time></trkpt><trkpt lat="35.57809212786807" lon="10.60949821957248"><ele>47.5</ele><time>2026-04-05T09:49:59.999Z</time></trkpt><trkpt lat="35.577841111162904" lon="10.609590640416313"><ele>48.0</ele><time>2026-04-05T09:50:00.999Z</time></trkpt><trkpt lat="35.577588700610306" lon="10.609682349160984"><ele>48.0</ele><time>2026-04-05T09:50:01.999Z</time></trkpt><trkpt lat="35.57733728207267" lon="10.609774358717013"><ele>48.0</ele><time>2026-04-05T09:50:02.999Z</time></trkpt><trkpt lat="35.57708478043498" lon="10.609869369039568"><ele>48.0</ele><time>2026-04-05T09:50:03.999Z</time></trkpt><trkpt lat="35.57683234018337" lon="10.609964658601227"><ele>48.0</ele><time>2026-04-05T09:50:04.999Z</time></trkpt><trkpt lat="35.576582696680305" lon="10.610061087700265"><ele>48.0</ele><time>2026-04-05T09:50:05.999Z</time></trkpt><trkpt lat="35.57633084368287" lon="10.610158144931622"><ele>48.0</ele><time>2026-04-05T09:50:06.999Z</time></trkpt><trkpt lat="35.576078380046226" lon="10.610256867162908"><ele>47.5</ele><time>2026-04-05T09:50:07.999Z</time></trkpt><trkpt lat="35.57583021464694" lon="10.610351815265044"><ele>47.0</ele><time>2026-04-05T09:50:08.999Z</time></trkpt><trkpt lat="35.57557867242991" lon="10.61045021278357"><ele>46.0</ele><time>2026-04-05T09:50:09.999Z</time></trkpt><trkpt lat="35.57533048421872" lon="10.610549185094134"><ele>45.0</ele><time>2026-04-05T09:50:10.999Z</time></trkpt><trkpt lat="35.57508235988073" lon="10.610650935847135"><ele>45.0</ele><time>2026-04-05T09:50:11.999Z</time></trkpt><trkpt lat="35.57483157096543" lon="10.610749261641933"><ele>45.0</ele><time>2026-04-05T09:50:12.999Z</time></trkpt><trkpt lat="35.57458133239026" lon="10.610842649971639"><ele>46.0</ele><time>2026-04-05T09:50:13.999Z</time></trkpt><trkpt lat="35.57433028026878" lon="10.610939374993318"><ele>47.0</ele><time>2026-04-05T09:50:14.999Z</time></trkpt><trkpt lat="35.574078503227476" lon="10.611036836700002"><ele>47.0</ele><time>2026-04-05T09:50:15.999Z</time></trkpt><trkpt lat="35.57382776379441" lon="10.61113504887461"><ele>47.0</ele><time>2026-04-05T09:50:16.999Z</time></trkpt><trkpt lat="35.57357608684456" lon="10.611230949134432"><ele>46.5</ele><time>2026-04-05T09:50:17.999Z</time></trkpt><trkpt lat="35.57331741150837" lon="10.611328184312276"><ele>46.0</ele><time>2026-04-05T09:50:18.999Z</time></trkpt><trkpt lat="35.57305876394798" lon="10.611423449578941"><ele>47.0</ele><time>2026-04-05T09:50:19.999Z</time></trkpt><trkpt lat="35.57279642743881" lon="10.611520917363222"><ele>48.0</ele><time>2026-04-05T09:50:20.999Z</time></trkpt><trkpt lat="35.57253654472546" lon="10.611618164039747"><ele>48.0</ele><time>2026-04-05T09:50:21.999Z</time></trkpt><trkpt lat="35.57228120135796" lon="10.611715188597493"><ele>48.0</ele><time>2026-04-05T09:50:23Z</time></trkpt><trkpt lat="35.57202188425423" lon="10.611812891857628"><ele>48.0</ele><time>2026-04-05T09:50:24Z</time></trkpt><trkpt lat="35.57176104028663" lon="10.611908814753729"><ele>48.0</ele><time>2026-04-05T09:50:25Z</time></trkpt><trkpt lat="35.57149910561985" lon="10.612007772989323"><ele>48.0</ele><time>2026-04-05T09:50:26Z</time></trkpt><trkpt lat="35.5712392574186" lon="10.612109344976952"><ele>48.0</ele><time>2026-04-05T09:50:27Z</time></trkpt><trkpt lat="35.570978897060826" lon="10.61221789058841"><ele>48.0</ele><time>2026-04-05T09:50:28Z</time></trkpt><trkpt lat="35.570720686891605" lon="10.612327508941217"><ele>48.0</ele><time>2026-04-05T09:50:29Z</time></trkpt><trkpt lat="35.57046361013405" lon="10.612437515032486"><ele>47.5</ele><time>2026-04-05T09:50:30Z</time></trkpt><trkpt lat="35.57020484787028" lon="10.612545447719699"><ele>47.0</ele><time>2026-04-05T09:50:31Z</time></trkpt><trkpt lat="35.56994195480756" lon="10.612651680338638"><ele>47.0</ele><time>2026-04-05T09:50:32Z</time></trkpt><trkpt lat="35.56968138118752" lon="10.612752693600203"><ele>47.0</ele><time>2026-04-05T09:50:33Z</time></trkpt><trkpt lat="35.569421746334704" lon="10.612853327842327"><ele>47.5</ele><time>2026-04-05T09:50:34Z</time></trkpt><trkpt lat="35.56916122042146" lon="10.612952716963143"><ele>48.0</ele><time>2026-04-05T09:50:35Z</time></trkpt><trkpt lat="35.56890138536465" lon="10.613048903176598"><ele>48.0</ele><time>2026-04-05T09:50:36Z</time></trkpt><trkpt lat="35.56863958821995" lon="10.61314552793502"><ele>48.0</ele><time>2026-04-05T09:50:37Z</time></trkpt><trkpt lat="35.56837945427066" lon="10.613244168350215"><ele>48.0</ele><time>2026-04-05T09:50:38Z</time></trkpt><trkpt lat="35.56811750694684" lon="10.61334393319754"><ele>48.0</ele><time>2026-04-05T09:50:39Z</time></trkpt><trkpt lat="35.567859245631745" lon="10.613442995721885"><ele>48.5</ele><time>2026-04-05T09:50:40Z</time></trkpt><trkpt lat="35.567596662740776" lon="10.613543357228124"><ele>49.0</ele><time>2026-04-05T09:50:41Z</time></trkpt><trkpt lat="35.56733758056877" lon="10.613645346769013"><ele>49.0</ele><time>2026-04-05T09:50:42Z</time></trkpt><trkpt lat="35.567075918618976" lon="10.613746912045949"><ele>49.0</ele><time>2026-04-05T09:50:43Z</time></trkpt><trkpt lat="35.566816520361186" lon="10.613844015807283"><ele>49.0</ele><time>2026-04-05T09:50:44Z</time></trkpt><trkpt lat="35.56655244527189" lon="10.61394176437109"><ele>49.0</ele><time>2026-04-05T09:50:45Z</time></trkpt><trkpt lat="35.56629001470756" lon="10.614040595471826"><ele>50.5</ele><time>2026-04-05T09:50:46Z</time></trkpt><trkpt lat="35.56602612015912" lon="10.614140026619872"><ele>52.0</ele><time>2026-04-05T09:50:47Z</time></trkpt><trkpt lat="35.56576167875694" lon="10.614236203241902"><ele>52.0</ele><time>2026-04-05T09:50:48Z</time></trkpt><trkpt lat="35.56549612445848" lon="10.614332081593052"><ele>52.0</ele><time>2026-04-05T09:50:49Z</time></trkpt><trkpt lat="35.56523109524795" lon="10.61442847456474"><ele>52.0</ele><time>2026-04-05T09:50:50Z</time></trkpt><trkpt lat="35.564963808310345" lon="10.614524100636743"><ele>52.0</ele><time>2026-04-05T09:50:51Z</time></trkpt><trkpt lat="35.56469754412319" lon="10.614622876822217"><ele>52.5</ele><time>2026-04-05T09:50:52Z</time></trkpt><trkpt lat="35.56443234955463" lon="10.614720166006501"><ele>53.0</ele><time>2026-04-05T09:50:53Z</time></trkpt><trkpt lat="35.56416592225323" lon="10.614817944979437"><ele>53.0</ele><time>2026-04-05T09:50:54Z</time></trkpt><trkpt lat="35.56389882354478" lon="10.614912838609154"><ele>53.0</ele><time>2026-04-05T09:50:55Z</time></trkpt><trkpt lat="35.56363026347702" lon="10.615007988552605"><ele>52.0</ele><time>2026-04-05T09:50:56Z</time></trkpt><trkpt lat="35.56336166336433" lon="10.615103642989341"><ele>51.0</ele><time>2026-04-05T09:50:57Z</time></trkpt><trkpt lat="35.563094990769265" lon="10.615201616220126"><ele>52.5</ele><time>2026-04-05T09:50:58Z</time></trkpt><trkpt lat="35.56282840463964" lon="10.615300977518157"><ele>54.0</ele><time>2026-04-05T09:50:59Z</time></trkpt><trkpt lat="35.56256532181906" lon="10.615404114764884"><ele>55.0</ele><time>2026-04-05T09:51:00Z</time></trkpt><trkpt lat="35.56230225510396" lon="10.61550855320936"><ele>56.0</ele><time>2026-04-05T09:51:01Z</time></trkpt><trkpt lat="35.56204087004611" lon="10.615613409780128"><ele>56.0</ele><time>2026-04-05T09:51:01.999Z</time></trkpt><trkpt lat="35.56177761033157" lon="10.615715477776368"><ele>56.0</ele><time>2026-04-05T09:51:02.999Z</time></trkpt><trkpt lat="35.561513396683516" lon="10.615817024353218"><ele>56.0</ele><time>2026-04-05T09:51:03.999Z</time></trkpt><trkpt lat="35.56124490331856" lon="10.615920037421011"><ele>56.0</ele><time>2026-04-05T09:51:04.999Z</time></trkpt><trkpt lat="35.5609830605136" lon="10.616024634377636"><ele>56.5</ele><time>2026-04-05T09:51:05.999Z</time></trkpt><trkpt lat="35.56071664789621" lon="10.6161288219197"><ele>57.0</ele><time>2026-04-05T09:51:06.999Z</time></trkpt><trkpt lat="35.56044950338646" lon="10.616234080312621"><ele>58.0</ele><time>2026-04-05T09:51:07.999Z</time></trkpt><trkpt lat="35.56018399345878" lon="10.616338847694873"><ele>59.0</ele><time>2026-04-05T09:51:08.999Z</time></trkpt><trkpt lat="35.559918345749786" lon="10.616439127693212"><ele>59.0</ele><time>2026-04-05T09:51:09.999Z</time></trkpt><trkpt lat="35.55965261672234" lon="10.616536339855099"><ele>59.0</ele><time>2026-04-05T09:51:10.999Z</time></trkpt><trkpt lat="35.5593895056476" lon="10.616634130047224"><ele>60.0</ele><time>2026-04-05T09:51:11.999Z</time></trkpt><trkpt lat="35.55912227024767" lon="10.616731128509501"><ele>61.0</ele><time>2026-04-05T09:51:12.999Z</time></trkpt><trkpt lat="35.55885407299778" lon="10.616828325832286"><ele>61.5</ele><time>2026-04-05T09:51:13.999Z</time></trkpt><trkpt lat="35.55859022207385" lon="10.616924282141353"><ele>62.0</ele><time>2026-04-05T09:51:14.999Z</time></trkpt><trkpt lat="35.55832168056713" lon="10.61702122668341"><ele>62.0</ele><time>2026-04-05T09:51:15.999Z</time></trkpt><trkpt lat="35.55805570753847" lon="10.61711586856215"><ele>62.0</ele><time>2026-04-05T09:51:16.999Z</time></trkpt><trkpt lat="35.55778760371056" lon="10.617211194946169"><ele>62.5</ele><time>2026-04-05T09:51:17.999Z</time></trkpt><trkpt lat="35.55752180504386" lon="10.617306071078964"><ele>63.0</ele><time>2026-04-05T09:51:18.999Z</time></trkpt><trkpt lat="35.557251950284794" lon="10.617398696939185"><ele>63.5</ele><time>2026-04-05T09:51:19.999Z</time></trkpt><trkpt lat="35.5569838038422" lon="10.617493255115727"><ele>64.0</ele><time>2026-04-05T09:51:20.999Z</time></trkpt><trkpt lat="35.556716514858806" lon="10.61758490318299"><ele>64.0</ele><time>2026-04-05T09:51:21.999Z</time></trkpt><trkpt lat="35.55644904235637" lon="10.617675281824406"><ele>64.0</ele><time>2026-04-05T09:51:22.999Z</time></trkpt><trkpt lat="35.55618063787063" lon="10.617767708964"><ele>66.5</ele><time>2026-04-05T09:51:23.999Z</time></trkpt><trkpt lat="35.55591572744941" lon="10.617860332196223"><ele>69.0</ele><time>2026-04-05T09:51:24.999Z</time></trkpt><trkpt lat="35.555650341611546" lon="10.61795506350292"><ele>69.0</ele><time>2026-04-05T09:51:25.999Z</time></trkpt><trkpt lat="35.55538231307965" lon="10.618049456684426"><ele>69.0</ele><time>2026-04-05T09:51:26.999Z</time></trkpt><trkpt lat="35.555114855736086" lon="10.61813950676839"><ele>69.5</ele><time>2026-04-05T09:51:27.999Z</time></trkpt><trkpt lat="35.55484662377557" lon="10.618223274318371"><ele>70.0</ele><time>2026-04-05T09:51:28.999Z</time></trkpt><trkpt lat="35.55457971954511" lon="10.618308971913189"><ele>71.5</ele><time>2026-04-05T09:51:29.999Z</time></trkpt><trkpt lat="35.55431285201527" lon="10.618398441542958"><ele>73.0</ele><time>2026-04-05T09:51:30.999Z</time></trkpt><trkpt lat="35.55404776480997" lon="10.618486906895065"><ele>73.0</ele><time>2026-04-05T09:51:31.999Z</time></trkpt><trkpt lat="35.55378149382395" lon="10.61856803669955"><ele>73.0</ele><time>2026-04-05T09:51:32.999Z</time></trkpt><trkpt lat="35.55351029382962" lon="10.618649347584833"><ele>74.0</ele><time>2026-04-05T09:51:33.999Z</time></trkpt><trkpt lat="35.55324174387464" lon="10.618731251014825"><ele>75.0</ele><time>2026-04-05T09:51:34.999Z</time></trkpt><trkpt lat="35.55297296967473" lon="10.618815278941174"><ele>76.5</ele><time>2026-04-05T09:51:35.999Z</time></trkpt><trkpt lat="35.55270397269476" lon="10.618898879882025"><ele>78.0</ele><time>2026-04-05T09:51:36.999Z</time></trkpt><trkpt lat="35.55243523251528" lon="10.618981813044124"><ele>78.0</ele><time>2026-04-05T09:51:37.999Z</time></trkpt><trkpt lat="35.552163733353986" lon="10.619064258954886"><ele>78.0</ele><time>2026-04-05T09:51:38.999Z</time></trkpt><trkpt lat="35.55189386770736" lon="10.619141669372961"><ele>78.0</ele><time>2026-04-05T09:51:39.999Z</time></trkpt><trkpt lat="35.55162427242395" lon="10.619219777361028"><ele>78.0</ele><time>2026-04-05T09:51:40.999Z</time></trkpt><trkpt lat="35.551354996629904" lon="10.619299621966833"><ele>81.5</ele><time>2026-04-05T09:51:41.999Z</time></trkpt><trkpt lat="35.5510856769041" lon="10.619379270800039"><ele>85.0</ele><time>2026-04-05T09:51:42.999Z</time></trkpt><trkpt lat="35.550815424081044" lon="10.61945891655101"><ele>85.5</ele><time>2026-04-05T09:51:43.999Z</time></trkpt><trkpt lat="35.55054628333408" lon="10.619536004718558"><ele>86.0</ele><time>2026-04-05T09:51:44.999Z</time></trkpt><trkpt lat="35.550277329741405" lon="10.619612723872766"><ele>87.5</ele><time>2026-04-05T09:51:45.999Z</time></trkpt><trkpt lat="35.550006459451396" lon="10.619696922890816"><ele>89.0</ele><time>2026-04-05T09:51:46.999Z</time></trkpt><trkpt lat="35.54973935272461" lon="10.61977976283261"><ele>89.0</ele><time>2026-04-05T09:51:47.999Z</time></trkpt><trkpt lat="35.549469141500886" lon="10.619870575395014"><ele>89.0</ele><time>2026-04-05T09:51:48.999Z</time></trkpt><trkpt lat="35.54920007977081" lon="10.61995506920784"><ele>89.0</ele><time>2026-04-05T09:51:49.999Z</time></trkpt><trkpt lat="35.548929911122734" lon="10.620037605779311"><ele>89.0</ele><time>2026-04-05T09:51:50.999Z</time></trkpt><trkpt lat="35.54865605018858" lon="10.620120663651972"><ele>90.0</ele><time>2026-04-05T09:51:51.999Z</time></trkpt><trkpt lat="35.54838407440338" lon="10.620195638759055"><ele>91.0</ele><time>2026-04-05T09:51:52.999Z</time></trkpt><trkpt lat="35.54811189824988" lon="10.620273232617258"><ele>92.0</ele><time>2026-04-05T09:51:53.999Z</time></trkpt><trkpt lat="35.54784118551207" lon="10.620353882309397"><ele>93.0</ele><time>2026-04-05T09:51:54.999Z</time></trkpt><trkpt lat="35.54757027150827" lon="10.620433595339518"><ele>93.0</ele><time>2026-04-05T09:51:55.999Z</time></trkpt><trkpt lat="35.54730080096477" lon="10.62051084639605"><ele>93.0</ele><time>2026-04-05T09:51:56.999Z</time></trkpt><trkpt lat="35.5470306838886" lon="10.620592728299192"><ele>92.5</ele><time>2026-04-05T09:51:57.999Z</time></trkpt><trkpt lat="35.54676074028731" lon="10.620677277065314"><ele>92.0</ele><time>2026-04-05T09:51:58.999Z</time></trkpt><trkpt lat="35.546490020865456" lon="10.620761019625718"><ele>92.0</ele><time>2026-04-05T09:51:59.999Z</time></trkpt><trkpt lat="35.546220049069184" lon="10.620839600475444"><ele>92.0</ele><time>2026-04-05T09:52:00.999Z</time></trkpt><trkpt lat="35.54594882208806" lon="10.62092183390396"><ele>92.5</ele><time>2026-04-05T09:52:01.999Z</time></trkpt><trkpt lat="35.54567698100088" lon="10.62100025658474"><ele>93.0</ele><time>2026-04-05T09:52:02.999Z</time></trkpt><trkpt lat="35.54540615868041" lon="10.621077635017974"><ele>90.5</ele><time>2026-04-05T09:52:03.999Z</time></trkpt><trkpt lat="35.545136253358436" lon="10.621156713360847"><ele>88.0</ele><time>2026-04-05T09:52:04.999Z</time></trkpt><trkpt lat="35.5448660451153" lon="10.621239263459394"><ele>88.0</ele><time>2026-04-05T09:52:05.999Z</time></trkpt><trkpt lat="35.544594994683415" lon="10.621329933508004"><ele>88.0</ele><time>2026-04-05T09:52:06.999Z</time></trkpt><trkpt lat="35.544325363013584" lon="10.621413833742775"><ele>88.5</ele><time>2026-04-05T09:52:07.999Z</time></trkpt><trkpt lat="35.54405510743392" lon="10.621494559158599"><ele>89.0</ele><time>2026-04-05T09:52:08.999Z</time></trkpt><trkpt lat="35.54378423077314" lon="10.621574391721598"><ele>89.5</ele><time>2026-04-05T09:52:09.999Z</time></trkpt><trkpt lat="35.54351344437939" lon="10.62165349805832"><ele>90.0</ele><time>2026-04-05T09:52:10.999Z</time></trkpt><trkpt lat="35.543244006718936" lon="10.621731068226588"><ele>90.0</ele><time>2026-04-05T09:52:11.999Z</time></trkpt><trkpt lat="35.54297082392787" lon="10.62181615918547"><ele>90.0</ele><time>2026-04-05T09:52:12.999Z</time></trkpt><trkpt lat="35.542695752878736" lon="10.62189357179402"><ele>90.5</ele><time>2026-04-05T09:52:13.999Z</time></trkpt><trkpt lat="35.54240986451532" lon="10.621978965762603"><ele>91.0</ele><time>2026-04-05T09:52:14.999Z</time></trkpt><trkpt lat="35.542112345352876" lon="10.622068939583508"><ele>89.5</ele><time>2026-04-05T09:52:15.999Z</time></trkpt><trkpt lat="35.541802878655005" lon="10.622162234156004"><ele>88.0</ele><time>2026-04-05T09:52:16.999Z</time></trkpt><trkpt lat="35.54148670093653" lon="10.622251953859257"><ele>86.0</ele><time>2026-04-05T09:52:17.999Z</time></trkpt><trkpt lat="35.54117349228932" lon="10.622343011998332"><ele>84.0</ele><time>2026-04-05T09:52:18.999Z</time></trkpt><trkpt lat="35.540862765237655" lon="10.622437997997807"><ele>84.0</ele><time>2026-04-05T09:52:19.999Z</time></trkpt><trkpt lat="35.54055338531533" lon="10.622533297220492"><ele>84.0</ele><time>2026-04-05T09:52:20.999Z</time></trkpt><trkpt lat="35.54024422107938" lon="10.62263178744741"><ele>83.5</ele><time>2026-04-05T09:52:21.999Z</time></trkpt><trkpt lat="35.53993678953324" lon="10.62273013899433"><ele>83.0</ele><time>2026-04-05T09:52:22.999Z</time></trkpt><trkpt lat="35.53962817310568" lon="10.622829333647537"><ele>83.0</ele><time>2026-04-05T09:52:23.999Z</time></trkpt><trkpt lat="35.539321616576984" lon="10.62292863324641"><ele>83.0</ele><time>2026-04-05T09:52:24.999Z</time></trkpt><trkpt lat="35.53901766342261" lon="10.623027378296584"><ele>83.0</ele><time>2026-04-05T09:52:25.999Z</time></trkpt><trkpt lat="35.538706157772424" lon="10.623128461153858"><ele>83.0</ele><time>2026-04-05T09:52:26.999Z</time></trkpt><trkpt lat="35.5383876345175" lon="10.623225146393882"><ele>83.0</ele><time>2026-04-05T09:52:27.999Z</time></trkpt><trkpt lat="35.538070287402135" lon="10.623317850577958"><ele>83.0</ele><time>2026-04-05T09:52:29Z</time></trkpt><trkpt lat="35.537759272370636" lon="10.623412006053119"><ele>82.5</ele><time>2026-04-05T09:52:30Z</time></trkpt><trkpt lat="35.537451601421736" lon="10.623508227279014"><ele>82.0</ele><time>2026-04-05T09:52:31Z</time></trkpt><trkpt lat="35.537147099396016" lon="10.623597648861365"><ele>81.0</ele><time>2026-04-05T09:52:32Z</time></trkpt><trkpt lat="35.53684202070051" lon="10.62368486614769"><ele>80.0</ele><time>2026-04-05T09:52:33Z</time></trkpt><trkpt lat="35.53653457428733" lon="10.623772143878256"><ele>80.5</ele><time>2026-04-05T09:52:34Z</time></trkpt><trkpt lat="35.53620698644165" lon="10.623868269422518"><ele>81.0</ele><time>2026-04-05T09:52:35Z</time></trkpt><trkpt lat="35.53588345935949" lon="10.623966735946288"><ele>81.0</ele><time>2026-04-05T09:52:36Z</time></trkpt><trkpt lat="35.535574410037334" lon="10.624059518255713"><ele>81.0</ele><time>2026-04-05T09:52:37Z</time></trkpt><trkpt lat="35.53526993086972" lon="10.624149423551021"><ele>80.5</ele><time>2026-04-05T09:52:38Z</time></trkpt><trkpt lat="35.534977674931405" lon="10.624235694710933"><ele>80.0</ele><time>2026-04-05T09:52:39Z</time></trkpt><trkpt lat="35.53469657346223" lon="10.624313373719481"><ele>79.5</ele><time>2026-04-05T09:52:40Z</time></trkpt><trkpt lat="35.53442911083522" lon="10.624385009136734"><ele>79.0</ele><time>2026-04-05T09:52:41Z</time></trkpt><trkpt lat="35.534167859293056" lon="10.624457261527722"><ele>77.5</ele><time>2026-04-05T09:52:42Z</time></trkpt><trkpt lat="35.53391022696038" lon="10.624532236738617"><ele>76.0</ele><time>2026-04-05T09:52:43Z</time></trkpt><trkpt lat="35.53364927760677" lon="10.62460671028965"><ele>75.0</ele><time>2026-04-05T09:52:44Z</time></trkpt><trkpt lat="35.53338650953845" lon="10.624673809880617"><ele>74.0</ele><time>2026-04-05T09:52:45Z</time></trkpt><trkpt lat="35.53311391779239" lon="10.624738985469378"><ele>74.5</ele><time>2026-04-05T09:52:46Z</time></trkpt><trkpt lat="35.53283106093097" lon="10.62480746974468"><ele>75.0</ele><time>2026-04-05T09:52:47Z</time></trkpt><trkpt lat="35.532543509065604" lon="10.624875643517303"><ele>75.0</ele><time>2026-04-05T09:52:48Z</time></trkpt><trkpt lat="35.532246884144435" lon="10.62494788840734"><ele>75.0</ele><time>2026-04-05T09:52:49Z</time></trkpt><trkpt lat="35.53194264933159" lon="10.625016643010557"><ele>74.0</ele><time>2026-04-05T09:52:50Z</time></trkpt><trkpt lat="35.53163241347518" lon="10.625085129624502"><ele>73.0</ele><time>2026-04-05T09:52:51Z</time></trkpt><trkpt lat="35.531325979984295" lon="10.625152891525255"><ele>72.0</ele><time>2026-04-05T09:52:52Z</time></trkpt><trkpt lat="35.531017055146336" lon="10.625218388830259"><ele>71.0</ele><time>2026-04-05T09:52:53Z</time></trkpt><trkpt lat="35.53070561751741" lon="10.625281186440676"><ele>71.0</ele><time>2026-04-05T09:52:54Z</time></trkpt><trkpt lat="35.53040107691379" lon="10.625339877626534"><ele>71.0</ele><time>2026-04-05T09:52:55Z</time></trkpt><trkpt lat="35.530099339419706" lon="10.625394630495459"><ele>70.5</ele><time>2026-04-05T09:52:56Z</time></trkpt><trkpt lat="35.52979792412483" lon="10.625452292240869"><ele>70.0</ele><time>2026-04-05T09:52:57Z</time></trkpt><trkpt lat="35.529498879792854" lon="10.625507679619034"><ele>69.5</ele><time>2026-04-05T09:52:58Z</time></trkpt><trkpt lat="35.52919682213214" lon="10.625562307367213"><ele>69.0</ele><time>2026-04-05T09:52:59Z</time></trkpt><trkpt lat="35.52889799171554" lon="10.625613768773775"><ele>68.5</ele><time>2026-04-05T09:53:00Z</time></trkpt><trkpt lat="35.528598655133806" lon="10.625668156906187"><ele>68.0</ele><time>2026-04-05T09:53:01Z</time></trkpt><trkpt lat="35.528300617366135" lon="10.62572148505617"><ele>68.0</ele><time>2026-04-05T09:53:02Z</time></trkpt><trkpt lat="35.528006613160045" lon="10.625770912388772"><ele>68.0</ele><time>2026-04-05T09:53:03Z</time></trkpt><trkpt lat="35.527709101665096" lon="10.625817855719"><ele>66.0</ele><time>2026-04-05T09:53:04Z</time></trkpt><trkpt lat="35.52741417659411" lon="10.62586234361272"><ele>64.0</ele><time>2026-04-05T09:53:05Z</time></trkpt><trkpt lat="35.527131235017166" lon="10.625905546592655"><ele>64.0</ele><time>2026-04-05T09:53:06Z</time></trkpt><trkpt lat="35.52686137051686" lon="10.625943429882"><ele>64.0</ele><time>2026-04-05T09:53:07Z</time></trkpt><trkpt lat="35.5265917989453" lon="10.625980189277245"><ele>64.0</ele><time>2026-04-05T09:53:07.999Z</time></trkpt><trkpt lat="35.52632468883942" lon="10.626014418450165"><ele>64.0</ele><time>2026-04-05T09:53:08.999Z</time></trkpt><trkpt lat="35.52605925008049" lon="10.626044684709873"><ele>62.0</ele><time>2026-04-05T09:53:09.999Z</time></trkpt><trkpt lat="35.52579317691495" lon="10.626073773514817"><ele>60.0</ele><time>2026-04-05T09:53:10.999Z</time></trkpt><trkpt lat="35.525532160794" lon="10.626099325444665"><ele>60.0</ele><time>2026-04-05T09:53:11.999Z</time></trkpt><trkpt lat="35.525272104083946" lon="10.626126615269236"><ele>60.0</ele><time>2026-04-05T09:53:12.999Z</time></trkpt><trkpt lat="35.52501708154266" lon="10.626155155901365"><ele>60.5</ele><time>2026-04-05T09:53:13.999Z</time></trkpt><trkpt lat="35.52476306779899" lon="10.626183191882598"><ele>61.0</ele><time>2026-04-05T09:53:14.999Z</time></trkpt><trkpt lat="35.52450356190331" lon="10.626210099546526"><ele>60.0</ele><time>2026-04-05T09:53:15.999Z</time></trkpt><trkpt lat="35.52424475835438" lon="10.626231665057787"><ele>59.0</ele><time>2026-04-05T09:53:16.999Z</time></trkpt><trkpt lat="35.52398163127185" lon="10.626256147559959"><ele>58.5</ele><time>2026-04-05T09:53:17.999Z</time></trkpt><trkpt lat="35.5237178981772" lon="10.626281845782968"><ele>58.0</ele><time>2026-04-05T09:53:18.999Z</time></trkpt><trkpt lat="35.52345384955507" lon="10.626304324698364"><ele>58.0</ele><time>2026-04-05T09:53:19.999Z</time></trkpt><trkpt lat="35.52319391884583" lon="10.626320607543231"><ele>58.0</ele><time>2026-04-05T09:53:20.999Z</time></trkpt><trkpt lat="35.522934347921776" lon="10.626336228522437"><ele>57.5</ele><time>2026-04-05T09:53:21.999Z</time></trkpt><trkpt lat="35.52267376769838" lon="10.626351166761326"><ele>57.0</ele><time>2026-04-05T09:53:22.999Z</time></trkpt><trkpt lat="35.522411927682874" lon="10.626364333533488"><ele>57.0</ele><time>2026-04-05T09:53:23.999Z</time></trkpt><trkpt lat="35.52214554691725" lon="10.626379418430792"><ele>57.0</ele><time>2026-04-05T09:53:24.999Z</time></trkpt><trkpt lat="35.52187494067549" lon="10.626397763092013"><ele>57.0</ele><time>2026-04-05T09:53:25.999Z</time></trkpt><trkpt lat="35.52160377704063" lon="10.626415334009199"><ele>57.0</ele><time>2026-04-05T09:53:26.999Z</time></trkpt><trkpt lat="35.521330451676185" lon="10.626430985664259"><ele>56.5</ele><time>2026-04-05T09:53:27.999Z</time></trkpt><trkpt lat="35.521053976356406" lon="10.626443397729814"><ele>56.0</ele><time>2026-04-05T09:53:28.999Z</time></trkpt><trkpt lat="35.52077976815891" lon="10.626452540451652"><ele>56.0</ele><time>2026-04-05T09:53:29.999Z</time></trkpt><trkpt lat="35.52050553691092" lon="10.626459987802672"><ele>56.0</ele><time>2026-04-05T09:53:30.999Z</time></trkpt><trkpt lat="35.52023004112223" lon="10.626470062886472"><ele>56.0</ele><time>2026-04-05T09:53:31.999Z</time></trkpt><trkpt lat="35.51995174477942" lon="10.626478524479396"><ele>56.0</ele><time>2026-04-05T09:53:32.999Z</time></trkpt><trkpt lat="35.519675638466275" lon="10.626484034546849"><ele>55.0</ele><time>2026-04-05T09:53:33.999Z</time></trkpt><trkpt lat="35.519398531471" lon="10.626484261905114"><ele>54.0</ele><time>2026-04-05T09:53:34.999Z</time></trkpt><trkpt lat="35.51911717307662" lon="10.626483787055276"><ele>54.0</ele><time>2026-04-05T09:53:35.999Z</time></trkpt><trkpt lat="35.518833990455775" lon="10.6264826747296"><ele>54.0</ele><time>2026-04-05T09:53:36.999Z</time></trkpt><trkpt lat="35.51854398587968" lon="10.626483134319173"><ele>54.0</ele><time>2026-04-05T09:53:37.999Z</time></trkpt><trkpt lat="35.51825520931479" lon="10.626483684739592"><ele>54.0</ele><time>2026-04-05T09:53:38.999Z</time></trkpt><trkpt lat="35.51796456535688" lon="10.626484567277256"><ele>53.5</ele><time>2026-04-05T09:53:39.999Z</time></trkpt><trkpt lat="35.51767477978664" lon="10.626479912316212"><ele>53.0</ele><time>2026-04-05T09:53:40.999Z</time></trkpt><trkpt lat="35.51738001292563" lon="10.62647096675326"><ele>53.0</ele><time>2026-04-05T09:53:41.999Z</time></trkpt><trkpt lat="35.51708571386852" lon="10.626458695943404"><ele>53.0</ele><time>2026-04-05T09:53:42.999Z</time></trkpt><trkpt lat="35.51679300960003" lon="10.626445326515212"><ele>52.0</ele><time>2026-04-05T09:53:43.999Z</time></trkpt><trkpt lat="35.51650359541765" lon="10.626433774995133"><ele>51.0</ele><time>2026-04-05T09:53:44.999Z</time></trkpt><trkpt lat="35.516219186415455" lon="10.626419074688494"><ele>50.5</ele><time>2026-04-05T09:53:45.999Z</time></trkpt><trkpt lat="35.51593007816777" lon="10.626406234990842"><ele>50.0</ele><time>2026-04-05T09:53:46.999Z</time></trkpt><trkpt lat="35.5156386485591" lon="10.62639174386242"><ele>49.0</ele><time>2026-04-05T09:53:47.999Z</time></trkpt><trkpt lat="35.51534433688518" lon="10.626377151838357"><ele>48.0</ele><time>2026-04-05T09:53:48.999Z</time></trkpt><trkpt lat="35.51505000459771" lon="10.626359617264532"><ele>48.0</ele><time>2026-04-05T09:53:49.999Z</time></trkpt><trkpt lat="35.514758560666486" lon="10.626338645338127"><ele>48.0</ele><time>2026-04-05T09:53:50.999Z</time></trkpt><trkpt lat="35.5144679091758" lon="10.626317399198486"><ele>48.0</ele><time>2026-04-05T09:53:51.999Z</time></trkpt><trkpt lat="35.514179756948344" lon="10.626294310369929"><ele>48.0</ele><time>2026-04-05T09:53:52.999Z</time></trkpt><trkpt lat="35.51388971680528" lon="10.626268680615356"><ele>46.5</ele><time>2026-04-05T09:53:53.999Z</time></trkpt><trkpt lat="35.513601950270015" lon="10.626243906157596"><ele>45.0</ele><time>2026-04-05T09:53:54.999Z</time></trkpt><trkpt lat="35.513313820946884" lon="10.626219820080669"><ele>45.0</ele><time>2026-04-05T09:53:55.999Z</time></trkpt><trkpt lat="35.513027108371546" lon="10.626195788892577"><ele>45.0</ele><time>2026-04-05T09:53:56.999Z</time></trkpt><trkpt lat="35.51273159264284" lon="10.626168750119689"><ele>45.0</ele><time>2026-04-05T09:53:57.999Z</time></trkpt><trkpt lat="35.512437032436495" lon="10.626140737630578"><ele>45.0</ele><time>2026-04-05T09:53:58.999Z</time></trkpt><trkpt lat="35.51213877037763" lon="10.626109907711584"><ele>45.5</ele><time>2026-04-05T09:53:59.999Z</time></trkpt><trkpt lat="35.51184670162598" lon="10.626074410893974"><ele>46.0</ele><time>2026-04-05T09:54:00.999Z</time></trkpt><trkpt lat="35.51155899745793" lon="10.626035460443681"><ele>46.0</ele><time>2026-04-05T09:54:01.999Z</time></trkpt><trkpt lat="35.51127174480003" lon="10.625994235016757"><ele>46.0</ele><time>2026-04-05T09:54:02.999Z</time></trkpt><trkpt lat="35.510987561094026" lon="10.625952969688354"><ele>46.0</ele><time>2026-04-05T09:54:03.999Z</time></trkpt><trkpt lat="35.51070522031148" lon="10.62591372812129"><ele>46.0</ele><time>2026-04-05T09:54:04.999Z</time></trkpt><trkpt lat="35.51042458358122" lon="10.625879985538761"><ele>46.0</ele><time>2026-04-05T09:54:05.999Z</time></trkpt><trkpt lat="35.51014671549273" lon="10.62584886532399"><ele>46.0</ele><time>2026-04-05T09:54:06.999Z</time></trkpt><trkpt lat="35.50987432568703" lon="10.625818408680724"><ele>46.0</ele><time>2026-04-05T09:54:07.999Z</time></trkpt><trkpt lat="35.5096070136034" lon="10.625787546827157"><ele>46.0</ele><time>2026-04-05T09:54:08.999Z</time></trkpt><trkpt lat="35.50934299752091" lon="10.625756544517051"><ele>45.5</ele><time>2026-04-05T09:54:09.999Z</time></trkpt><trkpt lat="35.5090785627547" lon="10.625720690469196"><ele>45.0</ele><time>2026-04-05T09:54:10.999Z</time></trkpt><trkpt lat="35.50881555627793" lon="10.625685563342042"><ele>44.5</ele><time>2026-04-05T09:54:11.999Z</time></trkpt><trkpt lat="35.50855228528874" lon="10.625655854907114"><ele>44.0</ele><time>2026-04-05T09:54:12.999Z</time></trkpt><trkpt lat="35.50828804171154" lon="10.62563136764302"><ele>44.0</ele><time>2026-04-05T09:54:13.999Z</time></trkpt><trkpt lat="35.50803345803145" lon="10.625606407962094"><ele>44.0</ele><time>2026-04-05T09:54:14.999Z</time></trkpt><trkpt lat="35.507769549994855" lon="10.625579301136572"><ele>43.5</ele><time>2026-04-05T09:54:15.999Z</time></trkpt><trkpt lat="35.50751065903849" lon="10.625547316518709"><ele>43.0</ele><time>2026-04-05T09:54:16.999Z</time></trkpt><trkpt lat="35.50724311034033" lon="10.625512145870186"><ele>42.5</ele><time>2026-04-05T09:54:17.999Z</time></trkpt><trkpt lat="35.50697404392575" lon="10.625476655514438"><ele>42.0</ele><time>2026-04-05T09:54:18.999Z</time></trkpt><trkpt lat="35.50670228453881" lon="10.625442946178545"><ele>42.0</ele><time>2026-04-05T09:54:19.999Z</time></trkpt><trkpt lat="35.50643346013269" lon="10.625413027603086"><ele>42.0</ele><time>2026-04-05T09:54:20.999Z</time></trkpt><trkpt lat="35.506161056434884" lon="10.625385002999886"><ele>42.0</ele><time>2026-04-05T09:54:21.999Z</time></trkpt><trkpt lat="35.50589008519898" lon="10.62535558953567"><ele>42.0</ele><time>2026-04-05T09:54:22.999Z</time></trkpt><trkpt lat="35.50561583040012" lon="10.62532438085606"><ele>41.0</ele><time>2026-04-05T09:54:23.999Z</time></trkpt><trkpt lat="35.50534363397254" lon="10.625294339152877"><ele>40.0</ele><time>2026-04-05T09:54:24.999Z</time></trkpt><trkpt lat="35.505069258486785" lon="10.625264254965305"><ele>40.0</ele><time>2026-04-05T09:54:25.999Z</time></trkpt><trkpt lat="35.504793638287126" lon="10.625235197583775"><ele>40.0</ele><time>2026-04-05T09:54:26.999Z</time></trkpt><trkpt lat="35.50452079436024" lon="10.625211113526255"><ele>40.0</ele><time>2026-04-05T09:54:27.999Z</time></trkpt><trkpt lat="35.50424687844998" lon="10.625188336852393"><ele>40.0</ele><time>2026-04-05T09:54:28.999Z</time></trkpt><trkpt lat="35.503979559964016" lon="10.625168078563664"><ele>40.0</ele><time>2026-04-05T09:54:29.999Z</time></trkpt><trkpt lat="35.50370879475255" lon="10.625149939445908"><ele>40.0</ele><time>2026-04-05T09:54:30.999Z</time></trkpt><trkpt lat="35.50343956867972" lon="10.625137511949966"><ele>40.0</ele><time>2026-04-05T09:54:31.999Z</time></trkpt><trkpt lat="35.503178271837875" lon="10.62512350680198"><ele>40.0</ele><time>2026-04-05T09:54:32.999Z</time></trkpt><trkpt lat="35.50290840635894" lon="10.625111973245682"><ele>39.0</ele><time>2026-04-05T09:54:34Z</time></trkpt><trkpt lat="35.50264241191607" lon="10.625101990817708"><ele>38.0</ele><time>2026-04-05T09:54:35Z</time></trkpt><trkpt lat="35.50238308105375" lon="10.625096797103756"><ele>38.0</ele><time>2026-04-05T09:54:36Z</time></trkpt><trkpt lat="35.50211687207879" lon="10.625103841918024"><ele>38.0</ele><time>2026-04-05T09:54:37Z</time></trkpt><trkpt lat="35.50186009477358" lon="10.625108590214829"><ele>37.5</ele><time>2026-04-05T09:54:38Z</time></trkpt><trkpt lat="35.5016056408114" lon="10.625108184780657"><ele>37.0</ele><time>2026-04-05T09:54:39Z</time></trkpt><trkpt lat="35.501344457866495" lon="10.625111341300972"><ele>38.0</ele><time>2026-04-05T09:54:40Z</time></trkpt><trkpt lat="35.50108310881189" lon="10.625115846577177"><ele>39.0</ele><time>2026-04-05T09:54:41Z</time></trkpt><trkpt lat="35.50081913405344" lon="10.625127009636866"><ele>39.0</ele><time>2026-04-05T09:54:42Z</time></trkpt><trkpt lat="35.50055631283165" lon="10.625139755042218"><ele>39.0</ele><time>2026-04-05T09:54:43Z</time></trkpt><trkpt lat="35.50029086214574" lon="10.625158335376092"><ele>38.0</ele><time>2026-04-05T09:54:44Z</time></trkpt><trkpt lat="35.50002175651966" lon="10.62517633112128"><ele>37.0</ele><time>2026-04-05T09:54:45Z</time></trkpt><trkpt lat="35.49975694715965" lon="10.625191728655146"><ele>37.0</ele><time>2026-04-05T09:54:46Z</time></trkpt><trkpt lat="35.49948986584068" lon="10.625206301833993"><ele>37.0</ele><time>2026-04-05T09:54:47Z</time></trkpt><trkpt lat="35.49922267019268" lon="10.625228382475505"><ele>37.0</ele><time>2026-04-05T09:54:48Z</time></trkpt><trkpt lat="35.498954141256334" lon="10.625256886207497"><ele>37.0</ele><time>2026-04-05T09:54:49Z</time></trkpt><trkpt lat="35.49868249064323" lon="10.625292171366256"><ele>38.0</ele><time>2026-04-05T09:54:50Z</time></trkpt><trkpt lat="35.49841433233581" lon="10.625326102899919"><ele>39.0</ele><time>2026-04-05T09:54:51Z</time></trkpt><trkpt lat="35.49814556227424" lon="10.625364432327068"><ele>38.0</ele><time>2026-04-05T09:54:52Z</time></trkpt><trkpt lat="35.49787509116396" lon="10.625404503971241"><ele>37.0</ele><time>2026-04-05T09:54:53Z</time></trkpt><trkpt lat="35.49760686014385" lon="10.625443042152726"><ele>37.0</ele><time>2026-04-05T09:54:54Z</time></trkpt><trkpt lat="35.4973339709862" lon="10.62548996249067"><ele>37.0</ele><time>2026-04-05T09:54:55Z</time></trkpt><trkpt lat="35.49707107093774" lon="10.625528806972254"><ele>36.5</ele><time>2026-04-05T09:54:56Z</time></trkpt><trkpt lat="35.49680033916828" lon="10.625579405242892"><ele>36.0</ele><time>2026-04-05T09:54:57Z</time></trkpt><trkpt lat="35.49653354054051" lon="10.625627209272048"><ele>36.0</ele><time>2026-04-05T09:54:58Z</time></trkpt><trkpt lat="35.496267384952276" lon="10.625678079081204"><ele>36.0</ele><time>2026-04-05T09:54:59Z</time></trkpt><trkpt lat="35.49600038127758" lon="10.625731201622758"><ele>38.0</ele><time>2026-04-05T09:55:00Z</time></trkpt><trkpt lat="35.49573710061035" lon="10.62578450784331"><ele>40.0</ele><time>2026-04-05T09:55:01Z</time></trkpt><trkpt lat="35.49547202681757" lon="10.625843475921581"><ele>39.0</ele><time>2026-04-05T09:55:02Z</time></trkpt><trkpt lat="35.495210049638665" lon="10.625905891948587"><ele>38.0</ele><time>2026-04-05T09:55:03Z</time></trkpt><trkpt lat="35.49494495711946" lon="10.625969292579379"><ele>38.0</ele><time>2026-04-05T09:55:04Z</time></trkpt><trkpt lat="35.49467709782974" lon="10.626035132626448"><ele>38.0</ele><time>2026-04-05T09:55:05Z</time></trkpt><trkpt lat="35.4944095464942" lon="10.62610562263138"><ele>39.5</ele><time>2026-04-05T09:55:06Z</time></trkpt><trkpt lat="35.49413900056822" lon="10.626184264241273"><ele>41.0</ele><time>2026-04-05T09:55:07Z</time></trkpt><trkpt lat="35.49386828585905" lon="10.626262612986165"><ele>40.0</ele><time>2026-04-05T09:55:08Z</time></trkpt><trkpt lat="35.49359823736863" lon="10.626339452337312"><ele>39.0</ele><time>2026-04-05T09:55:09Z</time></trkpt><trkpt lat="35.49332719441194" lon="10.626412741326343"><ele>39.0</ele><time>2026-04-05T09:55:09.999Z</time></trkpt><trkpt lat="35.49305227939307" lon="10.626484799107489"><ele>39.0</ele><time>2026-04-05T09:55:10.999Z</time></trkpt><trkpt lat="35.49277834562224" lon="10.62655407928261"><ele>39.0</ele><time>2026-04-05T09:55:11.999Z</time></trkpt><trkpt lat="35.49250238155755" lon="10.626624293588577"><ele>39.0</ele><time>2026-04-05T09:55:12.999Z</time></trkpt><trkpt lat="35.49222545321884" lon="10.626696887914541"><ele>39.0</ele><time>2026-04-05T09:55:13.999Z</time></trkpt><trkpt lat="35.49195022207372" lon="10.626772406886081"><ele>39.0</ele><time>2026-04-05T09:55:14.999Z</time></trkpt><trkpt lat="35.49167295519476" lon="10.62684810931741"><ele>39.0</ele><time>2026-04-05T09:55:15.999Z</time></trkpt><trkpt lat="35.491396721310814" lon="10.626920873356934"><ele>39.0</ele><time>2026-04-05T09:55:16.999Z</time></trkpt><trkpt lat="35.49111777734004" lon="10.626991950717457"><ele>38.0</ele><time>2026-04-05T09:55:17.999Z</time></trkpt><trkpt lat="35.49083847205562" lon="10.627063840841394"><ele>37.0</ele><time>2026-04-05T09:55:18.999Z</time></trkpt><trkpt lat="35.490559768722896" lon="10.627140134857706"><ele>37.5</ele><time>2026-04-05T09:55:19.999Z</time></trkpt><trkpt lat="35.490281713439394" lon="10.627217812969496"><ele>38.0</ele><time>2026-04-05T09:55:20.999Z</time></trkpt><trkpt lat="35.490003316689325" lon="10.62729489532444"><ele>38.0</ele><time>2026-04-05T09:55:21.999Z</time></trkpt><trkpt lat="35.48972831574322" lon="10.627369166719818"><ele>38.0</ele><time>2026-04-05T09:55:22.999Z</time></trkpt><trkpt lat="35.48944951023303" lon="10.627444035702501"><ele>38.5</ele><time>2026-04-05T09:55:23.999Z</time></trkpt><trkpt lat="35.48917772091027" lon="10.62751925563334"><ele>39.0</ele><time>2026-04-05T09:55:24.999Z</time></trkpt><trkpt lat="35.488902070424636" lon="10.627594393605122"><ele>38.5</ele><time>2026-04-05T09:55:25.999Z</time></trkpt><trkpt lat="35.48863193335055" lon="10.627666488660012"><ele>38.0</ele><time>2026-04-05T09:55:26.999Z</time></trkpt><trkpt lat="35.48835970082504" lon="10.62773894263621"><ele>38.0</ele><time>2026-04-05T09:55:27.999Z</time></trkpt><trkpt lat="35.488091012835895" lon="10.62781171104127"><ele>38.0</ele><time>2026-04-05T09:55:28.999Z</time></trkpt><trkpt lat="35.487819769941396" lon="10.627886156862026"><ele>38.5</ele><time>2026-04-05T09:55:29.999Z</time></trkpt><trkpt lat="35.487559212509126" lon="10.62796149871788"><ele>39.0</ele><time>2026-04-05T09:55:30.999Z</time></trkpt><trkpt lat="35.48728923450098" lon="10.628037062384337"><ele>37.5</ele><time>2026-04-05T09:55:31.999Z</time></trkpt><trkpt lat="35.487022012784955" lon="10.628107542171094"><ele>36.0</ele><time>2026-04-05T09:55:32.999Z</time></trkpt><trkpt lat="35.486750503294964" lon="10.62817600830232"><ele>36.0</ele><time>2026-04-05T09:55:33.999Z</time></trkpt><trkpt lat="35.48647983488468" lon="10.62824470683021"><ele>36.0</ele><time>2026-04-05T09:55:34.999Z</time></trkpt><trkpt lat="35.486208429813985" lon="10.628315757635276"><ele>37.0</ele><time>2026-04-05T09:55:35.999Z</time></trkpt><trkpt lat="35.48594003944152" lon="10.628388108743112"><ele>38.0</ele><time>2026-04-05T09:55:36.999Z</time></trkpt><trkpt lat="35.48567199392128" lon="10.628459572412616"><ele>38.0</ele><time>2026-04-05T09:55:37.999Z</time></trkpt><trkpt lat="35.485403249004015" lon="10.628530508331078"><ele>38.0</ele><time>2026-04-05T09:55:38.999Z</time></trkpt><trkpt lat="35.4851337088045" lon="10.628599790121136"><ele>37.0</ele><time>2026-04-05T09:55:39.999Z</time></trkpt><trkpt lat="35.4848654593092" lon="10.628669657892425"><ele>36.0</ele><time>2026-04-05T09:55:40.999Z</time></trkpt><trkpt lat="35.484596160717594" lon="10.628742459707107"><ele>36.0</ele><time>2026-04-05T09:55:41.999Z</time></trkpt><trkpt lat="35.484327942892925" lon="10.628816608941806"><ele>36.0</ele><time>2026-04-05T09:55:42.999Z</time></trkpt><trkpt lat="35.484056374576504" lon="10.62889361353203"><ele>36.0</ele><time>2026-04-05T09:55:43.999Z</time></trkpt><trkpt lat="35.48378538415349" lon="10.628965753496662"><ele>36.0</ele><time>2026-04-05T09:55:44.999Z</time></trkpt><trkpt lat="35.48351336160243" lon="10.629038116185441"><ele>37.5</ele><time>2026-04-05T09:55:45.999Z</time></trkpt><trkpt lat="35.483238503593505" lon="10.629109730906325"><ele>39.0</ele><time>2026-04-05T09:55:46.999Z</time></trkpt><trkpt lat="35.48296321344646" lon="10.62918096748879"><ele>38.5</ele><time>2026-04-05T09:55:47.999Z</time></trkpt><trkpt lat="35.48268554800392" lon="10.629254680570368"><ele>38.0</ele><time>2026-04-05T09:55:48.999Z</time></trkpt><trkpt lat="35.48240655421146" lon="10.629326820076981"><ele>38.0</ele><time>2026-04-05T09:55:49.999Z</time></trkpt><trkpt lat="35.482130611922685" lon="10.629399365926133"><ele>38.0</ele><time>2026-04-05T09:55:50.999Z</time></trkpt><trkpt lat="35.481852642753395" lon="10.6294725481277"><ele>38.5</ele><time>2026-04-05T09:55:51.999Z</time></trkpt><trkpt lat="35.48157309015494" lon="10.629550450339936"><ele>39.0</ele><time>2026-04-05T09:55:52.999Z</time></trkpt><trkpt lat="35.48129187198141" lon="10.629626858818838"><ele>38.0</ele><time>2026-04-05T09:55:53.999Z</time></trkpt><trkpt lat="35.4810107230425" lon="10.629702863674757"><ele>37.0</ele><time>2026-04-05T09:55:54.999Z</time></trkpt><trkpt lat="35.48072839095314" lon="10.629779792755437"><ele>37.0</ele><time>2026-04-05T09:55:55.999Z</time></trkpt><trkpt lat="35.48044710966595" lon="10.629854196986479"><ele>37.0</ele><time>2026-04-05T09:55:56.999Z</time></trkpt><trkpt lat="35.480165204483235" lon="10.629925817703844"><ele>37.5</ele><time>2026-04-05T09:55:57.999Z</time></trkpt><trkpt lat="35.479882605331255" lon="10.629998343514588"><ele>38.0</ele><time>2026-04-05T09:55:58.999Z</time></trkpt><trkpt lat="35.47960228812936" lon="10.630074862849593"><ele>38.5</ele><time>2026-04-05T09:55:59.999Z</time></trkpt><trkpt lat="35.479319047102436" lon="10.630154391930295"><ele>39.0</ele><time>2026-04-05T09:56:00.999Z</time></trkpt><trkpt lat="35.479040221180085" lon="10.630231236354394"><ele>38.5</ele><time>2026-04-05T09:56:01.999Z</time></trkpt><trkpt lat="35.478760485033874" lon="10.630307084457764"><ele>38.0</ele><time>2026-04-05T09:56:02.999Z</time></trkpt><trkpt lat="35.47848540750182" lon="10.630382992588244"><ele>37.0</ele><time>2026-04-05T09:56:03.999Z</time></trkpt><trkpt lat="35.47820625513503" lon="10.630457856769015"><ele>36.0</ele><time>2026-04-05T09:56:04.999Z</time></trkpt><trkpt lat="35.477928917861064" lon="10.630531438458812"><ele>36.0</ele><time>2026-04-05T09:56:05.999Z</time></trkpt><trkpt lat="35.477650251933554" lon="10.6306049212395"><ele>36.0</ele><time>2026-04-05T09:56:06.999Z</time></trkpt><trkpt lat="35.47737213501851" lon="10.630676765659485"><ele>35.5</ele><time>2026-04-05T09:56:07.999Z</time></trkpt><trkpt lat="35.477091940632334" lon="10.630747253915342"><ele>35.0</ele><time>2026-04-05T09:56:08.999Z</time></trkpt><trkpt lat="35.47681421757329" lon="10.630819151767646"><ele>35.0</ele><time>2026-04-05T09:56:09.999Z</time></trkpt><trkpt lat="35.476535793267374" lon="10.630895473964285"><ele>35.0</ele><time>2026-04-05T09:56:10.999Z</time></trkpt><trkpt lat="35.47625693743701" lon="10.630973352061293"><ele>34.0</ele><time>2026-04-05T09:56:11.999Z</time></trkpt><trkpt lat="35.47597602369221" lon="10.631048040953548"><ele>33.0</ele><time>2026-04-05T09:56:12.999Z</time></trkpt><trkpt lat="35.47569381950525" lon="10.631125511318611"><ele>35.0</ele><time>2026-04-05T09:56:13.999Z</time></trkpt><trkpt lat="35.47541649679336" lon="10.631200814775394"><ele>37.0</ele><time>2026-04-05T09:56:14.999Z</time></trkpt><trkpt lat="35.47513054225538" lon="10.63127656533802"><ele>37.0</ele><time>2026-04-05T09:56:15.999Z</time></trkpt><trkpt lat="35.474850697316235" lon="10.631349317348645"><ele>37.0</ele><time>2026-04-05T09:56:16.999Z</time></trkpt><trkpt lat="35.47456506345154" lon="10.631419907975882"><ele>36.5</ele><time>2026-04-05T09:56:17.999Z</time></trkpt><trkpt lat="35.47428166482225" lon="10.631494622953047"><ele>36.0</ele><time>2026-04-05T09:56:18.999Z</time></trkpt><trkpt lat="35.47399756298744" lon="10.631575304225867"><ele>34.5</ele><time>2026-04-05T09:56:19.999Z</time></trkpt><trkpt lat="35.47371339836381" lon="10.631657132579926"><ele>33.0</ele><time>2026-04-05T09:56:20.999Z</time></trkpt><trkpt lat="35.47342715451533" lon="10.631741923017811"><ele>33.0</ele><time>2026-04-05T09:56:21.999Z</time></trkpt><trkpt lat="35.47314043413175" lon="10.631826534526862"><ele>33.0</ele><time>2026-04-05T09:56:22.999Z</time></trkpt><trkpt lat="35.472850239882526" lon="10.631907931844058"><ele>35.0</ele><time>2026-04-05T09:56:23.999Z</time></trkpt><trkpt lat="35.47256187869607" lon="10.631982022841417"><ele>37.0</ele><time>2026-04-05T09:56:24.999Z</time></trkpt><trkpt lat="35.472268804712144" lon="10.632053792844932"><ele>38.5</ele><time>2026-04-05T09:56:25.999Z</time></trkpt><trkpt lat="35.47197450210711" lon="10.63212670018414"><ele>40.0</ele><time>2026-04-05T09:56:26.999Z</time></trkpt><trkpt lat="35.471679366688214" lon="10.632201197996894"><ele>40.0</ele><time>2026-04-05T09:56:27.999Z</time></trkpt><trkpt lat="35.471385636459665" lon="10.632277855465048"><ele>40.0</ele><time>2026-04-05T09:56:28.999Z</time></trkpt><trkpt lat="35.4710859580231" lon="10.632357968431103"><ele>40.0</ele><time>2026-04-05T09:56:29.999Z</time></trkpt><trkpt lat="35.470780566166546" lon="10.63244501291827"><ele>40.0</ele><time>2026-04-05T09:56:30.999Z</time></trkpt><trkpt lat="35.47047664154814" lon="10.632533366927307"><ele>40.0</ele><time>2026-04-05T09:56:31.999Z</time></trkpt><trkpt lat="35.470176665128726" lon="10.632623440987498"><ele>40.0</ele><time>2026-04-05T09:56:32.999Z</time></trkpt><trkpt lat="35.46988022902469" lon="10.632710636043033"><ele>40.0</ele><time>2026-04-05T09:56:33.999Z</time></trkpt><trkpt lat="35.469590594664595" lon="10.632792501957168"><ele>40.0</ele><time>2026-04-05T09:56:34.999Z</time></trkpt><trkpt lat="35.46929927660075" lon="10.632874623340957"><ele>41.0</ele><time>2026-04-05T09:56:35.999Z</time></trkpt><trkpt lat="35.469012687528476" lon="10.63295125210756"><ele>42.0</ele><time>2026-04-05T09:56:36.999Z</time></trkpt><trkpt lat="35.46872366374442" lon="10.633029136750926"><ele>45.0</ele><time>2026-04-05T09:56:37.999Z</time></trkpt><trkpt lat="35.468438173580815" lon="10.633105735554306"><ele>48.0</ele><time>2026-04-05T09:56:39Z</time></trkpt><trkpt lat="35.46815279545768" lon="10.633183560060687"><ele>49.5</ele><time>2026-04-05T09:56:40Z</time></trkpt><trkpt lat="35.467863583467825" lon="10.633263438858648"><ele>51.0</ele><time>2026-04-05T09:56:41Z</time></trkpt><trkpt lat="35.46757266118162" lon="10.633345094764955"><ele>51.0</ele><time>2026-04-05T09:56:42Z</time></trkpt><trkpt lat="35.467287385703216" lon="10.633423937008239"><ele>51.0</ele><time>2026-04-05T09:56:43Z</time></trkpt><trkpt lat="35.46700612949606" lon="10.633497794224102"><ele>52.5</ele><time>2026-04-05T09:56:44Z</time></trkpt><trkpt lat="35.46672907944671" lon="10.633569746380353"><ele>54.0</ele><time>2026-04-05T09:56:45Z</time></trkpt><trkpt lat="35.46645494094941" lon="10.633641127123202"><ele>54.5</ele><time>2026-04-05T09:56:46Z</time></trkpt><trkpt lat="35.466193507044736" lon="10.633711331366158"><ele>55.0</ele><time>2026-04-05T09:56:47Z</time></trkpt><trkpt lat="35.46594749830278" lon="10.63377640905992"><ele>55.0</ele><time>2026-04-05T09:56:48Z</time></trkpt><trkpt lat="35.46571492029107" lon="10.633838694902344"><ele>55.0</ele><time>2026-04-05T09:56:49Z</time></trkpt><trkpt lat="35.46549285222505" lon="10.633896469773903"><ele>54.0</ele><time>2026-04-05T09:56:50Z</time></trkpt><trkpt lat="35.46527342049995" lon="10.633953882811294"><ele>53.0</ele><time>2026-04-05T09:56:51Z</time></trkpt><trkpt lat="35.46504752290098" lon="10.634014699128466"><ele>53.0</ele><time>2026-04-05T09:56:52Z</time></trkpt><trkpt lat="35.464811855835585" lon="10.634079330786106"><ele>53.0</ele><time>2026-04-05T09:56:53Z</time></trkpt><trkpt lat="35.464575733273165" lon="10.634148696390895"><ele>52.5</ele><time>2026-04-05T09:56:54Z</time></trkpt><trkpt lat="35.464332231708966" lon="10.634218737537028"><ele>52.0</ele><time>2026-04-05T09:56:55Z</time></trkpt><trkpt lat="35.46408608369983" lon="10.634284981090499"><ele>52.0</ele><time>2026-04-05T09:56:56Z</time></trkpt><trkpt lat="35.463843241243644" lon="10.634350979910025"><ele>52.0</ele><time>2026-04-05T09:56:57Z</time></trkpt><trkpt lat="35.46359302691342" lon="10.634418454989476"><ele>51.5</ele><time>2026-04-05T09:56:58Z</time></trkpt><trkpt lat="35.463338479058784" lon="10.63448620409787"><ele>51.0</ele><time>2026-04-05T09:56:59Z</time></trkpt><trkpt lat="35.46308298268899" lon="10.634555253449339"><ele>52.5</ele><time>2026-04-05T09:57:00Z</time></trkpt><trkpt lat="35.46282580754814" lon="10.634627550400472"><ele>54.0</ele><time>2026-04-05T09:57:01Z</time></trkpt><trkpt lat="35.46256727561317" lon="10.634702250927191"><ele>54.0</ele><time>2026-04-05T09:57:02Z</time></trkpt><trkpt lat="35.46230682691612" lon="10.634782559475578"><ele>54.0</ele><time>2026-04-05T09:57:03Z</time></trkpt><trkpt lat="35.462042684766814" lon="10.634864124243261"><ele>55.0</ele><time>2026-04-05T09:57:04Z</time></trkpt><trkpt lat="35.46177681127623" lon="10.634950374938727"><ele>56.0</ele><time>2026-04-05T09:57:05Z</time></trkpt><trkpt lat="35.46150960060853" lon="10.635039291047642"><ele>55.5</ele><time>2026-04-05T09:57:06Z</time></trkpt><trkpt lat="35.46123913569417" lon="10.63513464859778"><ele>55.0</ele><time>2026-04-05T09:57:07Z</time></trkpt><trkpt lat="35.46096187524228" lon="10.635243905817585"><ele>55.0</ele><time>2026-04-05T09:57:08Z</time></trkpt><trkpt lat="35.46067588771749" lon="10.635363494233525"><ele>55.0</ele><time>2026-04-05T09:57:09Z</time></trkpt><trkpt lat="35.460379662129654" lon="10.635495342512606"><ele>55.5</ele><time>2026-04-05T09:57:09.999Z</time></trkpt><trkpt lat="35.46008255288746" lon="10.635621251992116"><ele>56.0</ele><time>2026-04-05T09:57:10.999Z</time></trkpt><trkpt lat="35.45978999095394" lon="10.635747413236558"><ele>57.5</ele><time>2026-04-05T09:57:11.999Z</time></trkpt><trkpt lat="35.45950278398802" lon="10.63588485620526"><ele>59.0</ele><time>2026-04-05T09:57:12.999Z</time></trkpt><trkpt lat="35.459217483829775" lon="10.636031664774176"><ele>58.5</ele><time>2026-04-05T09:57:13.999Z</time></trkpt><trkpt lat="35.45893736303739" lon="10.636178218990127"><ele>58.0</ele><time>2026-04-05T09:57:14.999Z</time></trkpt><trkpt lat="35.45866073762453" lon="10.636325519108434"><ele>59.0</ele><time>2026-04-05T09:57:15.999Z</time></trkpt><trkpt lat="35.458388615172154" lon="10.63647401884747"><ele>60.0</ele><time>2026-04-05T09:57:16.999Z</time></trkpt><trkpt lat="35.458122821430734" lon="10.636624763265786"><ele>61.0</ele><time>2026-04-05T09:57:17.999Z</time></trkpt><trkpt lat="35.45785927344385" lon="10.636782023640865"><ele>62.0</ele><time>2026-04-05T09:57:18.999Z</time></trkpt><trkpt lat="35.45760002359739" lon="10.636943066652224"><ele>63.0</ele><time>2026-04-05T09:57:19.999Z</time></trkpt><trkpt lat="35.45734142764869" lon="10.637106963268623"><ele>64.0</ele><time>2026-04-05T09:57:20.999Z</time></trkpt><trkpt lat="35.45708769307072" lon="10.637274688908107"><ele>64.5</ele><time>2026-04-05T09:57:21.999Z</time></trkpt><trkpt lat="35.456833561337675" lon="10.637444997094834"><ele>65.0</ele><time>2026-04-05T09:57:22.999Z</time></trkpt><trkpt lat="35.45658009362708" lon="10.637621379831417"><ele>64.5</ele><time>2026-04-05T09:57:23.999Z</time></trkpt><trkpt lat="35.45632390429481" lon="10.637802968548394"><ele>64.0</ele><time>2026-04-05T09:57:24.999Z</time></trkpt><trkpt lat="35.456071401814846" lon="10.637989565771347"><ele>65.5</ele><time>2026-04-05T09:57:25.999Z</time></trkpt><trkpt lat="35.455817643414385" lon="10.638182229748708"><ele>67.0</ele><time>2026-04-05T09:57:26.999Z</time></trkpt><trkpt lat="35.45556444281517" lon="10.638377338294802"><ele>67.5</ele><time>2026-04-05T09:57:27.999Z</time></trkpt><trkpt lat="35.45531179859503" lon="10.638578554699892"><ele>68.0</ele><time>2026-04-05T09:57:28.999Z</time></trkpt><trkpt lat="35.455062420130055" lon="10.6387849098826"><ele>68.0</ele><time>2026-04-05T09:57:29.999Z</time></trkpt><trkpt lat="35.45481293971851" lon="10.638997890988922"><ele>68.0</ele><time>2026-04-05T09:57:30.999Z</time></trkpt><trkpt lat="35.45456364057363" lon="10.639218895605447"><ele>70.0</ele><time>2026-04-05T09:57:31.999Z</time></trkpt><trkpt lat="35.454319931337736" lon="10.639444694793717"><ele>72.0</ele><time>2026-04-05T09:57:32.999Z</time></trkpt><trkpt lat="35.4540782327705" lon="10.639673584088925"><ele>72.5</ele><time>2026-04-05T09:57:33.999Z</time></trkpt><trkpt lat="35.4538345366109" lon="10.639905028468633"><ele>73.0</ele><time>2026-04-05T09:57:34.999Z</time></trkpt><trkpt lat="35.45359794634363" lon="10.640138401259543"><ele>76.0</ele><time>2026-04-05T09:57:35.999Z</time></trkpt><trkpt lat="35.4533624860861" lon="10.640377735997376"><ele>79.0</ele><time>2026-04-05T09:57:36.999Z</time></trkpt><trkpt lat="35.45312998647592" lon="10.640619797584948"><ele>80.5</ele><time>2026-04-05T09:57:37.999Z</time></trkpt><trkpt lat="35.45290037955795" lon="10.640863638309721"><ele>82.0</ele><time>2026-04-05T09:57:38.999Z</time></trkpt><trkpt lat="35.45267648718382" lon="10.64111118846003"><ele>82.5</ele><time>2026-04-05T09:57:39.999Z</time></trkpt><trkpt lat="35.452460026409" lon="10.641350199435681"><ele>83.0</ele><time>2026-04-05T09:57:40.999Z</time></trkpt><trkpt lat="35.45225406775689" lon="10.641584553218733"><ele>86.0</ele><time>2026-04-05T09:57:41.999Z</time></trkpt><trkpt lat="35.4520555639558" lon="10.641815335998428"><ele>89.0</ele><time>2026-04-05T09:57:42.999Z</time></trkpt><trkpt lat="35.45186668890075" lon="10.642034563188364"><ele>89.0</ele><time>2026-04-05T09:57:43.999Z</time></trkpt><trkpt lat="35.45168746346301" lon="10.642249287379089"><ele>89.0</ele><time>2026-04-05T09:57:44.999Z</time></trkpt><trkpt lat="35.45151677592581" lon="10.64246507970042"><ele>89.0</ele><time>2026-04-05T09:57:45.999Z</time></trkpt><trkpt lat="35.45135667165841" lon="10.64267677537507"><ele>89.0</ele><time>2026-04-05T09:57:46.999Z</time></trkpt><trkpt lat="35.45119875964687" lon="10.642887341673156"><ele>91.5</ele><time>2026-04-05T09:57:47.999Z</time></trkpt><trkpt lat="35.451033480312006" lon="10.643105318993095"><ele>94.0</ele><time>2026-04-05T09:57:48.999Z</time></trkpt><trkpt lat="35.450866702169506" lon="10.64332908388762"><ele>94.0</ele><time>2026-04-05T09:57:49.999Z</time></trkpt><trkpt lat="35.45070232592927" lon="10.643560872819194"><ele>94.0</ele><time>2026-04-05T09:57:50.999Z</time></trkpt><trkpt lat="35.450539554859894" lon="10.643796759262404"><ele>95.5</ele><time>2026-04-05T09:57:51.999Z</time></trkpt><trkpt lat="35.45037483727244" lon="10.644038329082724"><ele>97.0</ele><time>2026-04-05T09:57:52.999Z</time></trkpt><trkpt lat="35.450211831633865" lon="10.644281457574083"><ele>97.0</ele><time>2026-04-05T09:57:53.999Z</time></trkpt><trkpt lat="35.45005961295292" lon="10.644516989289553"><ele>97.0</ele><time>2026-04-05T09:57:54.999Z</time></trkpt><trkpt lat="35.44991412319118" lon="10.644749723492342"><ele>97.0</ele><time>2026-04-05T09:57:55.999Z</time></trkpt><trkpt lat="35.44975992342141" lon="10.644984494501127"><ele>97.0</ele><time>2026-04-05T09:57:56.999Z</time></trkpt><trkpt lat="35.449613525137096" lon="10.645218650571957"><ele>99.0</ele><time>2026-04-05T09:57:57.999Z</time></trkpt><trkpt lat="35.44946034159977" lon="10.645452386639674"><ele>101.0</ele><time>2026-04-05T09:57:58.999Z</time></trkpt><trkpt lat="35.44930786497999" lon="10.64568683034672"><ele>101.0</ele><time>2026-04-05T09:57:59.999Z</time></trkpt><trkpt lat="35.44915843967206" lon="10.645913100139564"><ele>101.0</ele><time>2026-04-05T09:58:00.999Z</time></trkpt><trkpt lat="35.449011581377086" lon="10.64615103964924"><ele>103.0</ele><time>2026-04-05T09:58:01.999Z</time></trkpt><trkpt lat="35.448863839063584" lon="10.646384882596033"><ele>105.0</ele><time>2026-04-05T09:58:02.999Z</time></trkpt><trkpt lat="35.448711284651566" lon="10.646622709123987"><ele>106.0</ele><time>2026-04-05T09:58:03.999Z</time></trkpt><trkpt lat="35.44855491062689" lon="10.646853878396852"><ele>107.0</ele><time>2026-04-05T09:58:04.999Z</time></trkpt><trkpt lat="35.44839127616792" lon="10.64708828201787"><ele>107.5</ele><time>2026-04-05T09:58:05.999Z</time></trkpt><trkpt lat="35.44822748402964" lon="10.647332685879215"><ele>108.0</ele><time>2026-04-05T09:58:06.999Z</time></trkpt><trkpt lat="35.448063713294054" lon="10.647583977474554"><ele>110.5</ele><time>2026-04-05T09:58:07.999Z</time></trkpt><trkpt lat="35.44789827999313" lon="10.647845346190161"><ele>113.0</ele><time>2026-04-05T09:58:08.999Z</time></trkpt><trkpt lat="35.447730268344465" lon="10.648109158307351"><ele>113.0</ele><time>2026-04-05T09:58:09.999Z</time></trkpt><trkpt lat="35.44755835144826" lon="10.648374529126416"><ele>113.0</ele><time>2026-04-05T09:58:10.999Z</time></trkpt><trkpt lat="35.44738446185057" lon="10.64864149455671"><ele>113.5</ele><time>2026-04-05T09:58:11.999Z</time></trkpt><trkpt lat="35.447208788867584" lon="10.64891283702059"><ele>114.0</ele><time>2026-04-05T09:58:12.999Z</time></trkpt><trkpt lat="35.44703164878255" lon="10.64918844084661"><ele>114.5</ele><time>2026-04-05T09:58:13.999Z</time></trkpt><trkpt lat="35.446854282277506" lon="10.649465182518483"><ele>115.0</ele><time>2026-04-05T09:58:14.999Z</time></trkpt><trkpt lat="35.446674848182404" lon="10.649749093464031"><ele>115.0</ele><time>2026-04-05T09:58:15.999Z</time></trkpt><trkpt lat="35.44649301691607" lon="10.650032780987772"><ele>115.0</ele><time>2026-04-05T09:58:16.999Z</time></trkpt><trkpt lat="35.44630973413591" lon="10.650317638354066"><ele>111.5</ele><time>2026-04-05T09:58:17.999Z</time></trkpt><trkpt lat="35.44612349679322" lon="10.65060624875154"><ele>108.0</ele><time>2026-04-05T09:58:18.999Z</time></trkpt><trkpt lat="35.44593489170922" lon="10.650897557432176"><ele>108.0</ele><time>2026-04-05T09:58:19.999Z</time></trkpt><trkpt lat="35.44574294899732" lon="10.651192648189337"><ele>108.0</ele><time>2026-04-05T09:58:20.999Z</time></trkpt><trkpt lat="35.44554610561975" lon="10.65149520197162"><ele>109.0</ele><time>2026-04-05T09:58:21.999Z</time></trkpt><trkpt lat="35.445352126566824" lon="10.65179408987229"><ele>110.0</ele><time>2026-04-05T09:58:22.999Z</time></trkpt><trkpt lat="35.445164797574506" lon="10.652087076353336"><ele>111.5</ele><time>2026-04-05T09:58:23.999Z</time></trkpt><trkpt lat="35.44498172335184" lon="10.652372145310482"><ele>113.0</ele><time>2026-04-05T09:58:24.999Z</time></trkpt><trkpt lat="35.444802013360324" lon="10.652653698692086"><ele>116.0</ele><time>2026-04-05T09:58:25.999Z</time></trkpt><trkpt lat="35.44462301985861" lon="10.652929104946129"><ele>119.0</ele><time>2026-04-05T09:58:26.999Z</time></trkpt><trkpt lat="35.444453100413654" lon="10.653186996761267"><ele>119.0</ele><time>2026-04-05T09:58:27.999Z</time></trkpt><trkpt lat="35.44428695950799" lon="10.65343715567757"><ele>119.0</ele><time>2026-04-05T09:58:28.999Z</time></trkpt><trkpt lat="35.44411749550788" lon="10.653690810992627"><ele>119.5</ele><time>2026-04-05T09:58:29.999Z</time></trkpt><trkpt lat="35.44394517968801" lon="10.65394968635537"><ele>120.0</ele><time>2026-04-05T09:58:30.999Z</time></trkpt><trkpt lat="35.44376964318073" lon="10.654208730854869"><ele>122.0</ele><time>2026-04-05T09:58:31.999Z</time></trkpt><trkpt lat="35.44358998084635" lon="10.654460161969736"><ele>124.0</ele><time>2026-04-05T09:58:32.999Z</time></trkpt><trkpt lat="35.44340742606388" lon="10.654706039077102"><ele>124.0</ele><time>2026-04-05T09:58:33.999Z</time></trkpt><trkpt lat="35.44322351639433" lon="10.654953271536224"><ele>124.0</ele><time>2026-04-05T09:58:34.999Z</time></trkpt><trkpt lat="35.44304039406368" lon="10.655196304211744"><ele>124.0</ele><time>2026-04-05T09:58:35.999Z</time></trkpt><trkpt lat="35.442854585320404" lon="10.655440570246911"><ele>124.0</ele><time>2026-04-05T09:58:36.999Z</time></trkpt><trkpt lat="35.442666265874635" lon="10.655681425298365"><ele>124.0</ele><time>2026-04-05T09:58:37.999Z</time></trkpt><trkpt lat="35.44247399748996" lon="10.65591870120033"><ele>124.0</ele><time>2026-04-05T09:58:38.999Z</time></trkpt><trkpt lat="35.44228329471127" lon="10.656152736424906"><ele>126.5</ele><time>2026-04-05T09:58:39.999Z</time></trkpt><trkpt lat="35.44209197927289" lon="10.656379977451435"><ele>129.0</ele><time>2026-04-05T09:58:40.999Z</time></trkpt><trkpt lat="35.44189873348856" lon="10.656606318201039"><ele>129.0</ele><time>2026-04-05T09:58:41.999Z</time></trkpt><trkpt lat="35.44170757576698" lon="10.656828981530271"><ele>129.0</ele><time>2026-04-05T09:58:42.999Z</time></trkpt><trkpt lat="35.44151378239758" lon="10.657053448277164"><ele>128.0</ele><time>2026-04-05T09:58:43.999Z</time></trkpt><trkpt lat="35.44131866981033" lon="10.657272678773195"><ele>127.0</ele><time>2026-04-05T09:58:45Z</time></trkpt><trkpt lat="35.44111832868641" lon="10.657487260444118"><ele>127.0</ele><time>2026-04-05T09:58:46Z</time></trkpt><trkpt lat="35.44091273431256" lon="10.657702860253858"><ele>127.0</ele><time>2026-04-05T09:58:47Z</time></trkpt><trkpt lat="35.44070553018801" lon="10.657917509330382"><ele>126.5</ele><time>2026-04-05T09:58:48Z</time></trkpt><trkpt lat="35.4404993059437" lon="10.658128810961994"><ele>126.0</ele><time>2026-04-05T09:58:49Z</time></trkpt><trkpt lat="35.44029022064001" lon="10.65834026099238"><ele>127.0</ele><time>2026-04-05T09:58:50Z</time></trkpt><trkpt lat="35.440079859227595" lon="10.658545003003356"><ele>128.0</ele><time>2026-04-05T09:58:51Z</time></trkpt><trkpt lat="35.4398642587859" lon="10.6587502839097"><ele>128.0</ele><time>2026-04-05T09:58:52Z</time></trkpt><trkpt lat="35.439645012016705" lon="10.658953292523318"><ele>128.0</ele><time>2026-04-05T09:58:53Z</time></trkpt><trkpt lat="35.439424998571674" lon="10.659155245384936"><ele>125.0</ele><time>2026-04-05T09:58:54Z</time></trkpt><trkpt lat="35.43920428999619" lon="10.659354954049078"><ele>122.0</ele><time>2026-04-05T09:58:55Z</time></trkpt><trkpt lat="35.438984292606854" lon="10.65955109422682"><ele>126.0</ele><time>2026-04-05T09:58:56Z</time></trkpt><trkpt lat="35.4387661157979" lon="10.659737463883511"><ele>130.0</ele><time>2026-04-05T09:58:57Z</time></trkpt><trkpt lat="35.438545070102805" lon="10.659920363736294"><ele>130.0</ele><time>2026-04-05T09:58:58Z</time></trkpt><trkpt lat="35.438319152245526" lon="10.660105278743185"><ele>130.0</ele><time>2026-04-05T09:58:59Z</time></trkpt><trkpt lat="35.43809525981347" lon="10.66028331527599"><ele>133.0</ele><time>2026-04-05T09:59:00Z</time></trkpt><trkpt lat="35.437868641433376" lon="10.660466242999236"><ele>136.0</ele><time>2026-04-05T09:59:01Z</time></trkpt><trkpt lat="35.437645605891944" lon="10.66063994676387"><ele>136.0</ele><time>2026-04-05T09:59:02Z</time></trkpt><trkpt lat="35.43741847405611" lon="10.660810485856974"><ele>136.0</ele><time>2026-04-05T09:59:03Z</time></trkpt><trkpt lat="35.437192130724085" lon="10.660977661937606"><ele>134.5</ele><time>2026-04-05T09:59:04Z</time></trkpt><trkpt lat="35.43696223134208" lon="10.661143674098458"><ele>133.0</ele><time>2026-04-05T09:59:05Z</time></trkpt><trkpt lat="35.436726499556926" lon="10.661309725093234"><ele>133.0</ele><time>2026-04-05T09:59:05.999Z</time></trkpt><trkpt lat="35.43648825047056" lon="10.661474373732295"><ele>133.0</ele><time>2026-04-05T09:59:06.999Z</time></trkpt><trkpt lat="35.43625164758059" lon="10.661629735829715"><ele>134.0</ele><time>2026-04-05T09:59:07.999Z</time></trkpt><trkpt lat="35.43600857178112" lon="10.661789643741358"><ele>135.0</ele><time>2026-04-05T09:59:08.999Z</time></trkpt><trkpt lat="35.435765151353074" lon="10.661947211284362"><ele>133.5</ele><time>2026-04-05T09:59:09.999Z</time></trkpt><trkpt lat="35.43552323857436" lon="10.662097335245656"><ele>132.0</ele><time>2026-04-05T09:59:10.999Z</time></trkpt><trkpt lat="35.4352770300449" lon="10.662246837533871"><ele>132.0</ele><time>2026-04-05T09:59:11.999Z</time></trkpt><trkpt lat="35.4350246334741" lon="10.662398457252548"><ele>132.0</ele><time>2026-04-05T09:59:12.999Z</time></trkpt><trkpt lat="35.43477693076514" lon="10.662537599589871"><ele>132.5</ele><time>2026-04-05T09:59:13.999Z</time></trkpt><trkpt lat="35.43454135107362" lon="10.662676281025"><ele>133.0</ele><time>2026-04-05T09:59:14.999Z</time></trkpt><trkpt lat="35.43431469884012" lon="10.662803058315472"><ele>134.5</ele><time>2026-04-05T09:59:15.999Z</time></trkpt><trkpt lat="35.434091698067945" lon="10.662922101678832"><ele>136.0</ele><time>2026-04-05T09:59:16.999Z</time></trkpt><trkpt lat="35.43387440681235" lon="10.663039208600217"><ele>138.0</ele><time>2026-04-05T09:59:17.999Z</time></trkpt><trkpt lat="35.4336568746436" lon="10.66315596655019"><ele>140.0</ele><time>2026-04-05T09:59:18.999Z</time></trkpt><trkpt lat="35.43343280507564" lon="10.663272551146843"><ele>140.0</ele><time>2026-04-05T09:59:19.999Z</time></trkpt><trkpt lat="35.43320750713549" lon="10.663388293843962"><ele>140.0</ele><time>2026-04-05T09:59:20.999Z</time></trkpt><trkpt lat="35.43298322034733" lon="10.663499989076533"><ele>138.0</ele><time>2026-04-05T09:59:21.999Z</time></trkpt><trkpt lat="35.432751979479406" lon="10.663615887193558"><ele>136.0</ele><time>2026-04-05T09:59:22.999Z</time></trkpt><trkpt lat="35.432523937427355" lon="10.663732305635603"><ele>136.0</ele><time>2026-04-05T09:59:23.999Z</time></trkpt><trkpt lat="35.43229466479077" lon="10.663847369808174"><ele>136.0</ele><time>2026-04-05T09:59:24.999Z</time></trkpt><trkpt lat="35.432060021233205" lon="10.663966825734033"><ele>137.0</ele><time>2026-04-05T09:59:25.999Z</time></trkpt><trkpt lat="35.43182974939241" lon="10.664086258744177"><ele>138.0</ele><time>2026-04-05T09:59:26.999Z</time></trkpt><trkpt lat="35.431599187452456" lon="10.664205561662948"><ele>138.0</ele><time>2026-04-05T09:59:27.999Z</time></trkpt><trkpt lat="35.43137553318599" lon="10.664320876794283"><ele>138.0</ele><time>2026-04-05T09:59:28.999Z</time></trkpt><trkpt lat="35.43115742465463" lon="10.664429462612372"><ele>136.5</ele><time>2026-04-05T09:59:29.999Z</time></trkpt><trkpt lat="35.43093392753627" lon="10.664542798848085"><ele>135.0</ele><time>2026-04-05T09:59:30.999Z</time></trkpt><trkpt lat="35.43070945940871" lon="10.664659804290778"><ele>135.0</ele><time>2026-04-05T09:59:31.999Z</time></trkpt><trkpt lat="35.43048545418764" lon="10.66477937705312"><ele>135.0</ele><time>2026-04-05T09:59:32.999Z</time></trkpt><trkpt lat="35.430262511671685" lon="10.66489811260091"><ele>134.0</ele><time>2026-04-05T09:59:33.999Z</time></trkpt><trkpt lat="35.43003372915965" lon="10.665016424167389"><ele>133.0</ele><time>2026-04-05T09:59:34.999Z</time></trkpt><trkpt lat="35.42980735828777" lon="10.665134901846592"><ele>130.5</ele><time>2026-04-05T09:59:35.999Z</time></trkpt><trkpt lat="35.42957888341159" lon="10.665248392138954"><ele>128.0</ele><time>2026-04-05T09:59:36.999Z</time></trkpt><trkpt lat="35.42935010419655" lon="10.66535933042136"><ele>128.0</ele><time>2026-04-05T09:59:37.999Z</time></trkpt><trkpt lat="35.42912347146229" lon="10.665473669715878"><ele>128.0</ele><time>2026-04-05T09:59:38.999Z</time></trkpt><trkpt lat="35.42889685714748" lon="10.66558859261781"><ele>126.0</ele><time>2026-04-05T09:59:39.999Z</time></trkpt><trkpt lat="35.42866871780786" lon="10.665707131347679"><ele>124.0</ele><time>2026-04-05T09:59:40.999Z</time></trkpt><trkpt lat="35.428441646411606" lon="10.66582485511089"><ele>124.0</ele><time>2026-04-05T09:59:41.999Z</time></trkpt><trkpt lat="35.428215942300035" lon="10.665943598082237"><ele>124.0</ele><time>2026-04-05T09:59:42.999Z</time></trkpt><trkpt lat="35.42798713549402" lon="10.666067208529988"><ele>125.0</ele><time>2026-04-05T09:59:43.999Z</time></trkpt><trkpt lat="35.42775618410869" lon="10.666189446451574"><ele>126.0</ele><time>2026-04-05T09:59:44.999Z</time></trkpt><trkpt lat="35.42752235343685" lon="10.66631140254607"><ele>126.0</ele><time>2026-04-05T09:59:45.999Z</time></trkpt><trkpt lat="35.4272851189144" lon="10.666431770310847"><ele>126.0</ele><time>2026-04-05T09:59:46.999Z</time></trkpt><trkpt lat="35.427048389308254" lon="10.666550720518277"><ele>129.0</ele><time>2026-04-05T09:59:47.999Z</time></trkpt><trkpt lat="35.426809979919994" lon="10.66667157137023"><ele>132.0</ele><time>2026-04-05T09:59:48.999Z</time></trkpt><trkpt lat="35.4265709927566" lon="10.666796346683928"><ele>132.0</ele><time>2026-04-05T09:59:49.999Z</time></trkpt><trkpt lat="35.42633278623137" lon="10.66692218770947"><ele>132.0</ele><time>2026-04-05T09:59:50.999Z</time></trkpt><trkpt lat="35.426086009465145" lon="10.667049004514832"><ele>132.5</ele><time>2026-04-05T09:59:51.999Z</time></trkpt><trkpt lat="35.425836852855525" lon="10.6671739745956"><ele>133.0</ele><time>2026-04-05T09:59:52.999Z</time></trkpt><trkpt lat="35.42558140601925" lon="10.667302462842358"><ele>135.5</ele><time>2026-04-05T09:59:53.999Z</time></trkpt><trkpt lat="35.42532759457152" lon="10.667433911334417"><ele>138.0</ele><time>2026-04-05T09:59:54.999Z</time></trkpt><trkpt lat="35.42507314160462" lon="10.667570821921705"><ele>138.0</ele><time>2026-04-05T09:59:55.999Z</time></trkpt><trkpt lat="35.42481526791873" lon="10.667708658110977"><ele>138.0</ele><time>2026-04-05T09:59:56.999Z</time></trkpt><trkpt lat="35.424552400227036" lon="10.667842747407493"><ele>137.5</ele><time>2026-04-05T09:59:57.999Z</time></trkpt><trkpt lat="35.424288513189666" lon="10.667971045674221"><ele>137.0</ele><time>2026-04-05T09:59:58.999Z</time></trkpt><trkpt lat="35.42401845560229" lon="10.668101752171541"><ele>137.5</ele><time>2026-04-05T09:59:59.999Z</time></trkpt><trkpt lat="35.42374670610894" lon="10.668237880912653"><ele>138.0</ele><time>2026-04-05T10:00:00.999Z</time></trkpt><trkpt lat="35.423464425898054" lon="10.668385297792405"><ele>138.0</ele><time>2026-04-05T10:00:02Z</time></trkpt><trkpt lat="35.423162494984616" lon="10.668545427371315"><ele>138.0</ele><time>2026-04-05T10:00:03Z</time></trkpt><trkpt lat="35.42284202862863" lon="10.668714044858769"><ele>138.5</ele><time>2026-04-05T10:00:04Z</time></trkpt><trkpt lat="35.42251366940792" lon="10.668885488054427"><ele>139.0</ele><time>2026-04-05T10:00:05Z</time></trkpt><trkpt lat="35.42216822074282" lon="10.669063967829025"><ele>139.5</ele><time>2026-04-05T10:00:06Z</time></trkpt><trkpt lat="35.42181269475985" lon="10.669246699985148"><ele>140.0</ele><time>2026-04-05T10:00:07Z</time></trkpt><trkpt lat="35.42144657553872" lon="10.669435678716763"><ele>139.5</ele><time>2026-04-05T10:00:08Z</time></trkpt><trkpt lat="35.421069990544524" lon="10.66963242893951"><ele>139.0</ele><time>2026-04-05T10:00:09Z</time></trkpt><trkpt lat="35.420688490721325" lon="10.669837386075443"><ele>141.0</ele><time>2026-04-05T10:00:10Z</time></trkpt><trkpt lat="35.42029998779642" lon="10.670046113729496"><ele>143.0</ele><time>2026-04-05T10:00:11Z</time></trkpt><trkpt lat="35.41990084351059" lon="10.670256398991219"><ele>141.0</ele><time>2026-04-05T10:00:12Z</time></trkpt><trkpt lat="35.41950295068149" lon="10.670467028276873"><ele>139.0</ele><time>2026-04-05T10:00:13Z</time></trkpt><trkpt lat="35.419105631346476" lon="10.67067622394637"><ele>138.5</ele><time>2026-04-05T10:00:14Z</time></trkpt><trkpt lat="35.4187369885979" lon="10.670864052419212"><ele>138.0</ele><time>2026-04-05T10:00:15Z</time></trkpt><trkpt lat="35.41839380075091" lon="10.671036181843364"><ele>137.5</ele><time>2026-04-05T10:00:16Z</time></trkpt><trkpt lat="35.41806737986543" lon="10.671199821994106"><ele>137.0</ele><time>2026-04-05T10:00:17Z</time></trkpt><trkpt lat="35.41776237798267" lon="10.671354946573093"><ele>139.5</ele><time>2026-04-05T10:00:18Z</time></trkpt><trkpt lat="35.417470045746825" lon="10.671504030096909"><ele>142.0</ele><time>2026-04-05T10:00:19Z</time></trkpt><trkpt lat="35.417192818283034" lon="10.671645421756423"><ele>144.5</ele><time>2026-04-05T10:00:20Z</time></trkpt><trkpt lat="35.4169181053812" lon="10.671786420586232"><ele>147.0</ele><time>2026-04-05T10:00:21Z</time></trkpt><trkpt lat="35.41664992546011" lon="10.671922680344585"><ele>146.0</ele><time>2026-04-05T10:00:22Z</time></trkpt><trkpt lat="35.41638727903744" lon="10.672055517748626"><ele>145.0</ele><time>2026-04-05T10:00:23Z</time></trkpt><trkpt lat="35.41612939704737" lon="10.672182175150285"><ele>147.5</ele><time>2026-04-05T10:00:24Z</time></trkpt><trkpt lat="35.41586867878282" lon="10.672309870005273"><ele>150.0</ele><time>2026-04-05T10:00:25Z</time></trkpt><trkpt lat="35.415611093364745" lon="10.67243455606042"><ele>152.0</ele><time>2026-04-05T10:00:26Z</time></trkpt><trkpt lat="35.4153548834485" lon="10.672558740525965"><ele>154.0</ele><time>2026-04-05T10:00:27Z</time></trkpt><trkpt lat="35.41510252176056" lon="10.672680146420527"><ele>153.5</ele><time>2026-04-05T10:00:28Z</time></trkpt><trkpt lat="35.414855506712414" lon="10.672800509789882"><ele>153.0</ele><time>2026-04-05T10:00:29Z</time></trkpt><trkpt lat="35.41460806169554" lon="10.672926644633893"><ele>154.5</ele><time>2026-04-05T10:00:30Z</time></trkpt><trkpt lat="35.414367241907925" lon="10.673052086024757"><ele>156.0</ele><time>2026-04-05T10:00:31Z</time></trkpt><trkpt lat="35.41413773510601" lon="10.6731743135438"><ele>156.0</ele><time>2026-04-05T10:00:32Z</time></trkpt><trkpt lat="35.413903039151734" lon="10.673301016398938"><ele>156.0</ele><time>2026-04-05T10:00:33Z</time></trkpt><trkpt lat="35.41367581320486" lon="10.673418358030325"><ele>155.5</ele><time>2026-04-05T10:00:34Z</time></trkpt><trkpt lat="35.41344804376789" lon="10.673536717184898"><ele>155.0</ele><time>2026-04-05T10:00:35Z</time></trkpt><trkpt lat="35.413227195008936" lon="10.673648515777986"><ele>155.0</ele><time>2026-04-05T10:00:36Z</time></trkpt><trkpt lat="35.41301253386815" lon="10.673758541585645"><ele>155.0</ele><time>2026-04-05T10:00:37Z</time></trkpt><trkpt lat="35.41280358407209" lon="10.673862286089834"><ele>152.5</ele><time>2026-04-05T10:00:38Z</time></trkpt><trkpt lat="35.4125940566208" lon="10.67396673183494"><ele>150.0</ele><time>2026-04-05T10:00:39Z</time></trkpt><trkpt lat="35.41238171588751" lon="10.674072692802385"><ele>150.0</ele><time>2026-04-05T10:00:40Z</time></trkpt><trkpt lat="35.41215867395745" lon="10.674181166923685"><ele>150.0</ele><time>2026-04-05T10:00:41Z</time></trkpt><trkpt lat="35.41192844026788" lon="10.67428814885555"><ele>149.5</ele><time>2026-04-05T10:00:42Z</time></trkpt><trkpt lat="35.411689841184604" lon="10.67439548664142"><ele>149.0</ele><time>2026-04-05T10:00:43Z</time></trkpt><trkpt lat="35.41144373745422" lon="10.674503395615101"><ele>147.0</ele><time>2026-04-05T10:00:44Z</time></trkpt><trkpt lat="35.41119220179424" lon="10.674607516969669"><ele>145.0</ele><time>2026-04-05T10:00:45Z</time></trkpt><trkpt lat="35.41093468232548" lon="10.674709940093"><ele>145.0</ele><time>2026-04-05T10:00:46Z</time></trkpt><trkpt lat="35.41067497503313" lon="10.674806026641193"><ele>145.0</ele><time>2026-04-05T10:00:47Z</time></trkpt><trkpt lat="35.41040948347045" lon="10.674898041171655"><ele>146.5</ele><time>2026-04-05T10:00:48Z</time></trkpt><trkpt lat="35.410142977023774" lon="10.67498281882898"><ele>148.0</ele><time>2026-04-05T10:00:49Z</time></trkpt><trkpt lat="35.409871762410035" lon="10.67506431144426"><ele>149.0</ele><time>2026-04-05T10:00:50Z</time></trkpt><trkpt lat="35.40960838844852" lon="10.675143468809"><ele>150.0</ele><time>2026-04-05T10:00:51Z</time></trkpt><trkpt lat="35.40934902390701" lon="10.675217270701719"><ele>150.0</ele><time>2026-04-05T10:00:52Z</time></trkpt><trkpt lat="35.40908606193482" lon="10.675289726852057"><ele>150.0</ele><time>2026-04-05T10:00:53Z</time></trkpt><trkpt lat="35.408820970622735" lon="10.675355723017006"><ele>152.0</ele><time>2026-04-05T10:00:54Z</time></trkpt><trkpt lat="35.408555269615874" lon="10.675418837296226"><ele>154.0</ele><time>2026-04-05T10:00:55Z</time></trkpt><trkpt lat="35.40828517900525" lon="10.675474933341285"><ele>154.0</ele><time>2026-04-05T10:00:56Z</time></trkpt><trkpt lat="35.408018707475094" lon="10.675518397293146"><ele>154.0</ele><time>2026-04-05T10:00:57Z</time></trkpt><trkpt lat="35.407750978596496" lon="10.675553092248581"><ele>155.5</ele><time>2026-04-05T10:00:58Z</time></trkpt><trkpt lat="35.40747992886126" lon="10.675588351771562"><ele>157.0</ele><time>2026-04-05T10:00:59Z</time></trkpt><trkpt lat="35.40720761895655" lon="10.675623262732932"><ele>157.5</ele><time>2026-04-05T10:01:00Z</time></trkpt><trkpt lat="35.40693250684178" lon="10.675655648841344"><ele>158.0</ele><time>2026-04-05T10:01:01Z</time></trkpt><trkpt lat="35.40665025666029" lon="10.675682024724193"><ele>158.0</ele><time>2026-04-05T10:01:02Z</time></trkpt><trkpt lat="35.406367866011784" lon="10.675701520059222"><ele>158.0</ele><time>2026-04-05T10:01:03Z</time></trkpt><trkpt lat="35.40607804647334" lon="10.675712000148666"><ele>158.5</ele><time>2026-04-05T10:01:04Z</time></trkpt><trkpt lat="35.40579008708617" lon="10.675719837524314"><ele>159.0</ele><time>2026-04-05T10:01:05Z</time></trkpt><trkpt lat="35.40550315234264" lon="10.675727544708485"><ele>159.0</ele><time>2026-04-05T10:01:06Z</time></trkpt><trkpt lat="35.405206456386395" lon="10.67573122755836"><ele>159.0</ele><time>2026-04-05T10:01:07Z</time></trkpt><trkpt lat="35.40490945139845" lon="10.675722921692321"><ele>158.0</ele><time>2026-04-05T10:01:08Z</time></trkpt><trkpt lat="35.4046072573" lon="10.675704181706163"><ele>157.0</ele><time>2026-04-05T10:01:09Z</time></trkpt><trkpt lat="35.404300612085756" lon="10.675677894679755"><ele>157.0</ele><time>2026-04-05T10:01:10Z</time></trkpt><trkpt lat="35.403988028782834" lon="10.675646880601638"><ele>157.0</ele><time>2026-04-05T10:01:11Z</time></trkpt><trkpt lat="35.40366043218808" lon="10.675609651278226"><ele>157.5</ele><time>2026-04-05T10:01:12Z</time></trkpt><trkpt lat="35.40331363744633" lon="10.675562066167165"><ele>158.0</ele><time>2026-04-05T10:01:13Z</time></trkpt><trkpt lat="35.402953407055556" lon="10.67550657670076"><ele>157.0</ele><time>2026-04-05T10:01:14Z</time></trkpt><trkpt lat="35.402586839703076" lon="10.675447015727737"><ele>156.0</ele><time>2026-04-05T10:01:15Z</time></trkpt><trkpt lat="35.402227779527635" lon="10.675379377551105"><ele>154.5</ele><time>2026-04-05T10:01:16Z</time></trkpt><trkpt lat="35.401883860885526" lon="10.675311670863467"><ele>153.0</ele><time>2026-04-05T10:01:17Z</time></trkpt><trkpt lat="35.40155670721761" lon="10.675244535230398"><ele>151.5</ele><time>2026-04-05T10:01:18Z</time></trkpt><trkpt lat="35.40123430824093" lon="10.675180510145543"><ele>150.0</ele><time>2026-04-05T10:01:19Z</time></trkpt><trkpt lat="35.400916317616165" lon="10.67511668820036"><ele>150.0</ele><time>2026-04-05T10:01:20Z</time></trkpt><trkpt lat="35.40059630480174" lon="10.675050383744699"><ele>150.0</ele><time>2026-04-05T10:01:21Z</time></trkpt><trkpt lat="35.40028444775059" lon="10.674983779114068"><ele>148.5</ele><time>2026-04-05T10:01:22Z</time></trkpt><trkpt lat="35.39997919513089" lon="10.674918008935387"><ele>147.0</ele><time>2026-04-05T10:01:23Z</time></trkpt><trkpt lat="35.39967437696236" lon="10.674855775608295"><ele>145.0</ele><time>2026-04-05T10:01:24Z</time></trkpt><trkpt lat="35.399376008787996" lon="10.674800698398224"><ele>143.0</ele><time>2026-04-05T10:01:25Z</time></trkpt><trkpt lat="35.399084741164316" lon="10.674748471983472"><ele>141.5</ele><time>2026-04-05T10:01:26Z</time></trkpt><trkpt lat="35.398794821254285" lon="10.674692425033948"><ele>140.0</ele><time>2026-04-05T10:01:27Z</time></trkpt><trkpt lat="35.39849953378533" lon="10.674636555933665"><ele>140.0</ele><time>2026-04-05T10:01:28Z</time></trkpt><trkpt lat="35.39820537704666" lon="10.674582395180817"><ele>140.0</ele><time>2026-04-05T10:01:29Z</time></trkpt><trkpt lat="35.39791549538748" lon="10.674530979429882"><ele>139.0</ele><time>2026-04-05T10:01:30Z</time></trkpt><trkpt lat="35.397622297993976" lon="10.674479582527084"><ele>138.0</ele><time>2026-04-05T10:01:31Z</time></trkpt><trkpt lat="35.397327534047164" lon="10.674422949628484"><ele>136.5</ele><time>2026-04-05T10:01:32Z</time></trkpt><trkpt lat="35.39702897456624" lon="10.67436243083009"><ele>135.0</ele><time>2026-04-05T10:01:33Z</time></trkpt><trkpt lat="35.39672908148133" lon="10.67430105291898"><ele>135.0</ele><time>2026-04-05T10:01:34Z</time></trkpt><trkpt lat="35.39642524642543" lon="10.67424152182734"><ele>135.0</ele><time>2026-04-05T10:01:35Z</time></trkpt><trkpt lat="35.396122563646685" lon="10.674182066660928"><ele>133.0</ele><time>2026-04-05T10:01:36Z</time></trkpt><trkpt lat="35.395825985967406" lon="10.67412415929757"><ele>131.0</ele><time>2026-04-05T10:01:37Z</time></trkpt><trkpt lat="35.39553301238858" lon="10.674067553052925"><ele>132.5</ele><time>2026-04-05T10:01:38Z</time></trkpt><trkpt lat="35.395241813435355" lon="10.674010435262568"><ele>134.0</ele><time>2026-04-05T10:01:39Z</time></trkpt><trkpt lat="35.39494835345443" lon="10.673953541944032"><ele>134.5</ele><time>2026-04-05T10:01:40Z</time></trkpt><trkpt lat="35.39464450622658" lon="10.67389563296165"><ele>135.0</ele><time>2026-04-05T10:01:41Z</time></trkpt><trkpt lat="35.39433405265631" lon="10.673836317689029"><ele>135.0</ele><time>2026-04-05T10:01:42Z</time></trkpt><trkpt lat="35.394011159367686" lon="10.673775721524535"><ele>135.0</ele><time>2026-04-05T10:01:43Z</time></trkpt><trkpt lat="35.39367790284422" lon="10.67371299235445"><ele>137.0</ele><time>2026-04-05T10:01:44Z</time></trkpt><trkpt lat="35.39334730640466" lon="10.673647846819007"><ele>139.0</ele><time>2026-04-05T10:01:45Z</time></trkpt><trkpt lat="35.39302029673551" lon="10.673581939716348"><ele>138.0</ele><time>2026-04-05T10:01:46Z</time></trkpt><trkpt lat="35.39268846744457" lon="10.673514201565336"><ele>137.0</ele><time>2026-04-05T10:01:47Z</time></trkpt><trkpt lat="35.39235685455164" lon="10.673446635657369"><ele>136.0</ele><time>2026-04-05T10:01:48Z</time></trkpt><trkpt lat="35.39203208715826" lon="10.673377274750598"><ele>135.0</ele><time>2026-04-05T10:01:49Z</time></trkpt><trkpt lat="35.39172226946062" lon="10.673300751942268"><ele>135.0</ele><time>2026-04-05T10:01:50Z</time></trkpt><trkpt lat="35.39142512161465" lon="10.673215618474346"><ele>135.0</ele><time>2026-04-05T10:01:51Z</time></trkpt><trkpt lat="35.391141812941314" lon="10.673133481780308"><ele>134.0</ele><time>2026-04-05T10:01:52Z</time></trkpt><trkpt lat="35.39085600126872" lon="10.673049442940643"><ele>133.0</ele><time>2026-04-05T10:01:53Z</time></trkpt><trkpt lat="35.390570926261425" lon="10.672967713240464"><ele>131.0</ele><time>2026-04-05T10:01:54Z</time></trkpt><trkpt lat="35.39028954528518" lon="10.672885357844306"><ele>129.0</ele><time>2026-04-05T10:01:55Z</time></trkpt><trkpt lat="35.39000926789737" lon="10.672799919003841"><ele>129.5</ele><time>2026-04-05T10:01:56Z</time></trkpt><trkpt lat="35.389727136137864" lon="10.672708950626117"><ele>130.0</ele><time>2026-04-05T10:01:57Z</time></trkpt><trkpt lat="35.38944419818684" lon="10.672612293136652"><ele>130.0</ele><time>2026-04-05T10:01:58Z</time></trkpt><trkpt lat="35.389164003588114" lon="10.672510607020248"><ele>130.0</ele><time>2026-04-05T10:01:59Z</time></trkpt><trkpt lat="35.38888467267119" lon="10.672408217409076"><ele>130.0</ele><time>2026-04-05T10:02:00Z</time></trkpt><trkpt lat="35.38860266982006" lon="10.672303300699305"><ele>130.0</ele><time>2026-04-05T10:02:01Z</time></trkpt><trkpt lat="35.38832335349622" lon="10.672197517506177"><ele>130.0</ele><time>2026-04-05T10:02:02Z</time></trkpt><trkpt lat="35.38804543834893" lon="10.672086903067528"><ele>130.0</ele><time>2026-04-05T10:02:03Z</time></trkpt><trkpt lat="35.38776810285734" lon="10.67197069125192"><ele>133.0</ele><time>2026-04-05T10:02:04Z</time></trkpt><trkpt lat="35.387490425869075" lon="10.671850410624023"><ele>136.0</ele><time>2026-04-05T10:02:05Z</time></trkpt><trkpt lat="35.38721570929867" lon="10.671729298539969"><ele>135.0</ele><time>2026-04-05T10:02:06Z</time></trkpt><trkpt lat="35.38693855632164" lon="10.671606575165663"><ele>134.0</ele><time>2026-04-05T10:02:07Z</time></trkpt><trkpt lat="35.386659529913224" lon="10.671479548653078"><ele>134.0</ele><time>2026-04-05T10:02:08Z</time></trkpt><trkpt lat="35.38638577566099" lon="10.671346926284102"><ele>134.0</ele><time>2026-04-05T10:02:09Z</time></trkpt><trkpt lat="35.386112408260004" lon="10.671211501864994"><ele>133.5</ele><time>2026-04-05T10:02:10Z</time></trkpt><trkpt lat="35.38583702549746" lon="10.671074196247622"><ele>133.0</ele><time>2026-04-05T10:02:11Z</time></trkpt><trkpt lat="35.38556012235997" lon="10.670932382149967"><ele>131.0</ele><time>2026-04-05T10:02:12Z</time></trkpt><trkpt lat="35.38528488378573" lon="10.670784662650481"><ele>129.0</ele><time>2026-04-05T10:02:13Z</time></trkpt><trkpt lat="35.38501020851182" lon="10.670634299007816"><ele>129.0</ele><time>2026-04-05T10:02:14Z</time></trkpt><trkpt lat="35.38473564473143" lon="10.670475811035976"><ele>129.0</ele><time>2026-04-05T10:02:15Z</time></trkpt><trkpt lat="35.38446609443286" lon="10.670320509535008"><ele>131.0</ele><time>2026-04-05T10:02:16Z</time></trkpt><trkpt lat="35.38420006080855" lon="10.670167714829075"><ele>133.0</ele><time>2026-04-05T10:02:17Z</time></trkpt><trkpt lat="35.383934640948425" lon="10.670010069093665"><ele>134.5</ele><time>2026-04-05T10:02:18Z</time></trkpt><trkpt lat="35.38367253308637" lon="10.669854593678291"><ele>136.0</ele><time>2026-04-05T10:02:19Z</time></trkpt><trkpt lat="35.3834146657205" lon="10.669701667178751"><ele>136.0</ele><time>2026-04-05T10:02:20Z</time></trkpt><trkpt lat="35.383162523573205" lon="10.669543710964392"><ele>136.0</ele><time>2026-04-05T10:02:21Z</time></trkpt><trkpt lat="35.38290469112937" lon="10.669386152834354"><ele>136.0</ele><time>2026-04-05T10:02:22Z</time></trkpt><trkpt lat="35.38264381050729" lon="10.669233102335179"><ele>136.0</ele><time>2026-04-05T10:02:23Z</time></trkpt><trkpt lat="35.38237380037359" lon="10.669073380051048"><ele>134.5</ele><time>2026-04-05T10:02:24Z</time></trkpt><trkpt lat="35.382101853627425" lon="10.668901794643512"><ele>133.0</ele><time>2026-04-05T10:02:25Z</time></trkpt><trkpt lat="35.38182982233701" lon="10.66873674301526"><ele>131.0</ele><time>2026-04-05T10:02:26Z</time></trkpt><trkpt lat="35.381558927423306" lon="10.668582179598936"><ele>129.0</ele><time>2026-04-05T10:02:27Z</time></trkpt><trkpt lat="35.381301312993344" lon="10.668429522327589"><ele>128.0</ele><time>2026-04-05T10:02:28Z</time></trkpt><trkpt lat="35.38105008534431" lon="10.668276711554816"><ele>127.0</ele><time>2026-04-05T10:02:29Z</time></trkpt><trkpt lat="35.38080988790419" lon="10.668132101867847"><ele>127.0</ele><time>2026-04-05T10:02:30Z</time></trkpt><trkpt lat="35.380565000420255" lon="10.667987967736059"><ele>127.0</ele><time>2026-04-05T10:02:31Z</time></trkpt><trkpt lat="35.38032690226709" lon="10.667845071580556"><ele>124.0</ele><time>2026-04-05T10:02:32Z</time></trkpt><trkpt lat="35.38007975348519" lon="10.667694671504412"><ele>121.0</ele><time>2026-04-05T10:02:33Z</time></trkpt><trkpt lat="35.379840766783296" lon="10.667549264953465"><ele>119.5</ele><time>2026-04-05T10:02:34Z</time></trkpt><trkpt lat="35.379595249018045" lon="10.667401462946962"><ele>118.0</ele><time>2026-04-05T10:02:35Z</time></trkpt><trkpt lat="35.3793457851582" lon="10.667251287349135"><ele>118.0</ele><time>2026-04-05T10:02:36Z</time></trkpt><trkpt lat="35.37909884573437" lon="10.667104827793171"><ele>118.0</ele><time>2026-04-05T10:02:37Z</time></trkpt><trkpt lat="35.37885415317561" lon="10.666961782922606"><ele>120.5</ele><time>2026-04-05T10:02:38Z</time></trkpt><trkpt lat="35.37861037911513" lon="10.666821312492496"><ele>123.0</ele><time>2026-04-05T10:02:39Z</time></trkpt><trkpt lat="35.37836641258765" lon="10.666675175282156"><ele>123.0</ele><time>2026-04-05T10:02:40Z</time></trkpt><trkpt lat="35.37812297783281" lon="10.666527055435187"><ele>123.0</ele><time>2026-04-05T10:02:41Z</time></trkpt><trkpt lat="35.37787681535713" lon="10.666378064928125"><ele>121.5</ele><time>2026-04-05T10:02:42Z</time></trkpt><trkpt lat="35.377637321671436" lon="10.666230713976754"><ele>120.0</ele><time>2026-04-05T10:02:43Z</time></trkpt><trkpt lat="35.377395727609965" lon="10.66607970783836"><ele>120.5</ele><time>2026-04-05T10:02:44Z</time></trkpt><trkpt lat="35.377157036179085" lon="10.665932292365033"><ele>121.0</ele><time>2026-04-05T10:02:45Z</time></trkpt><trkpt lat="35.376914709862696" lon="10.665785561858234"><ele>121.0</ele><time>2026-04-05T10:02:46Z</time></trkpt><trkpt lat="35.37667737004262" lon="10.665642076178468"><ele>121.0</ele><time>2026-04-05T10:02:47Z</time></trkpt><trkpt lat="35.37643559116203" lon="10.665498241923054"><ele>123.0</ele><time>2026-04-05T10:02:48Z</time></trkpt><trkpt lat="35.376196440174354" lon="10.665363262956758"><ele>125.0</ele><time>2026-04-05T10:02:49Z</time></trkpt><trkpt lat="35.375954741995514" lon="10.665230071836906"><ele>125.0</ele><time>2026-04-05T10:02:50Z</time></trkpt><trkpt lat="35.3757103618787" lon="10.665093460460309"><ele>125.0</ele><time>2026-04-05T10:02:51Z</time></trkpt><trkpt lat="35.375463099683664" lon="10.664954329183846"><ele>127.0</ele><time>2026-04-05T10:02:52Z</time></trkpt><trkpt lat="35.375212831947906" lon="10.664819867392058"><ele>129.0</ele><time>2026-04-05T10:02:53Z</time></trkpt><trkpt lat="35.37496435957465" lon="10.664691714929235"><ele>129.0</ele><time>2026-04-05T10:02:54Z</time></trkpt><trkpt lat="35.37470671930446" lon="10.664562814211743"><ele>129.0</ele><time>2026-04-05T10:02:55Z</time></trkpt><trkpt lat="35.37444424898941" lon="10.664432935209723"><ele>130.0</ele><time>2026-04-05T10:02:56Z</time></trkpt><trkpt lat="35.37417488648684" lon="10.664301041505448"><ele>131.0</ele><time>2026-04-05T10:02:57Z</time></trkpt><trkpt lat="35.373909147904975" lon="10.664173027439071"><ele>131.0</ele><time>2026-04-05T10:02:58Z</time></trkpt><trkpt lat="35.37364837087823" lon="10.664051216845392"><ele>131.0</ele><time>2026-04-05T10:02:59Z</time></trkpt><trkpt lat="35.37338400915416" lon="10.663934224771"><ele>131.0</ele><time>2026-04-05T10:03:00Z</time></trkpt><trkpt lat="35.37311891300535" lon="10.663822550351579"><ele>131.0</ele><time>2026-04-05T10:03:01Z</time></trkpt><trkpt lat="35.37285306860634" lon="10.663711429044854"><ele>134.0</ele><time>2026-04-05T10:03:02Z</time></trkpt><trkpt lat="35.3725812019855" lon="10.66360454363707"><ele>137.0</ele><time>2026-04-05T10:03:03Z</time></trkpt><trkpt lat="35.37231110551691" lon="10.66349762936219"><ele>136.0</ele><time>2026-04-05T10:03:04Z</time></trkpt><trkpt lat="35.3720383095432" lon="10.663391203619403"><ele>135.0</ele><time>2026-04-05T10:03:05Z</time></trkpt><trkpt lat="35.371767414206595" lon="10.663289938321773"><ele>135.0</ele><time>2026-04-05T10:03:06Z</time></trkpt><trkpt lat="35.371500766492616" lon="10.663195097291208"><ele>135.0</ele><time>2026-04-05T10:03:07Z</time></trkpt><trkpt lat="35.371243710496294" lon="10.663109176869725"><ele>136.0</ele><time>2026-04-05T10:03:08Z</time></trkpt><trkpt lat="35.37099005395864" lon="10.66302537379158"><ele>137.0</ele><time>2026-04-05T10:03:09Z</time></trkpt><trkpt lat="35.37074309948741" lon="10.662947925642564"><ele>137.0</ele><time>2026-04-05T10:03:10Z</time></trkpt><trkpt lat="35.3705063241518" lon="10.662871073956607"><ele>137.0</ele><time>2026-04-05T10:03:11Z</time></trkpt><trkpt lat="35.37026780490353" lon="10.662791418459147"><ele>136.5</ele><time>2026-04-05T10:03:12Z</time></trkpt><trkpt lat="35.3700117128769" lon="10.662710993947933"><ele>136.0</ele><time>2026-04-05T10:03:13Z</time></trkpt><trkpt lat="35.369748453116735" lon="10.66263480484666"><ele>134.5</ele><time>2026-04-05T10:03:14Z</time></trkpt><trkpt lat="35.369474230389365" lon="10.662561529417584"><ele>133.0</ele><time>2026-04-05T10:03:15Z</time></trkpt><trkpt lat="35.36919205335771" lon="10.662494508345716"><ele>133.0</ele><time>2026-04-05T10:03:16Z</time></trkpt><trkpt lat="35.36890393693727" lon="10.662428804748131"><ele>133.0</ele><time>2026-04-05T10:03:17Z</time></trkpt><trkpt lat="35.36861415068777" lon="10.662361758585709"><ele>133.5</ele><time>2026-04-05T10:03:18Z</time></trkpt><trkpt lat="35.36831862561423" lon="10.66229738388944"><ele>134.0</ele><time>2026-04-05T10:03:19Z</time></trkpt><trkpt lat="35.36801408047003" lon="10.662234912815244"><ele>133.0</ele><time>2026-04-05T10:03:20Z</time></trkpt><trkpt lat="35.36770941653143" lon="10.662175301239346"><ele>132.0</ele><time>2026-04-05T10:03:21Z</time></trkpt><trkpt lat="35.36740300271883" lon="10.66211945032519"><ele>131.0</ele><time>2026-04-05T10:03:22Z</time></trkpt><trkpt lat="35.367097767852606" lon="10.662063789093754"><ele>130.0</ele><time>2026-04-05T10:03:23Z</time></trkpt><trkpt lat="35.366807286194046" lon="10.662010281034606"><ele>130.0</ele><time>2026-04-05T10:03:24Z</time></trkpt><trkpt lat="35.366523617201956" lon="10.661962146197567"><ele>130.0</ele><time>2026-04-05T10:03:25Z</time></trkpt><trkpt lat="35.36624222333548" lon="10.661920887200353"><ele>130.0</ele><time>2026-04-05T10:03:26Z</time></trkpt><trkpt lat="35.3659628623737" lon="10.661886803465556"><ele>130.0</ele><time>2026-04-05T10:03:27Z</time></trkpt><trkpt lat="35.36568743553504" lon="10.661857052628347"><ele>130.0</ele><time>2026-04-05T10:03:28Z</time></trkpt><trkpt lat="35.365421697213016" lon="10.661829752545492"><ele>130.0</ele><time>2026-04-05T10:03:29Z</time></trkpt><trkpt lat="35.36516027351865" lon="10.66180223346157"><ele>130.0</ele><time>2026-04-05T10:03:30Z</time></trkpt><trkpt lat="35.364903220624605" lon="10.661770668469899"><ele>130.0</ele><time>2026-04-05T10:03:31Z</time></trkpt><trkpt lat="35.36465550825448" lon="10.661739034693305"><ele>130.0</ele><time>2026-04-05T10:03:32Z</time></trkpt><trkpt lat="35.36441032565114" lon="10.661707933964275"><ele>130.0</ele><time>2026-04-05T10:03:33Z</time></trkpt><trkpt lat="35.36416479704831" lon="10.661678581556975"><ele>130.0</ele><time>2026-04-05T10:03:34Z</time></trkpt><trkpt lat="35.36391606137277" lon="10.66164867004564"><ele>130.0</ele><time>2026-04-05T10:03:35Z</time></trkpt><trkpt lat="35.363653884475134" lon="10.661618730110186"><ele>130.5</ele><time>2026-04-05T10:03:36Z</time></trkpt><trkpt lat="35.36337636927396" lon="10.661591884594326"><ele>131.0</ele><time>2026-04-05T10:03:37Z</time></trkpt><trkpt lat="35.36309426353873" lon="10.6615652877005"><ele>130.0</ele><time>2026-04-05T10:03:38Z</time></trkpt><trkpt lat="35.36279717871115" lon="10.661537442495622"><ele>129.0</ele><time>2026-04-05T10:03:39Z</time></trkpt><trkpt lat="35.36249868832849" lon="10.661501855893246"><ele>129.0</ele><time>2026-04-05T10:03:40Z</time></trkpt><trkpt lat="35.36219862469147" lon="10.661460806998425"><ele>129.0</ele><time>2026-04-05T10:03:41Z</time></trkpt><trkpt lat="35.36189464294492" lon="10.661418557137832"><ele>129.0</ele><time>2026-04-05T10:03:42Z</time></trkpt><trkpt lat="35.36159590516428" lon="10.661373321273473"><ele>129.0</ele><time>2026-04-05T10:03:43Z</time></trkpt><trkpt lat="35.361299315179764" lon="10.661327117981475"><ele>127.5</ele><time>2026-04-05T10:03:44Z</time></trkpt><trkpt lat="35.361008446158486" lon="10.661287442215047"><ele>126.0</ele><time>2026-04-05T10:03:45Z</time></trkpt><trkpt lat="35.36071767394598" lon="10.661250136027833"><ele>127.0</ele><time>2026-04-05T10:03:46Z</time></trkpt><trkpt lat="35.36043186756888" lon="10.661215272221432"><ele>128.0</ele><time>2026-04-05T10:03:47Z</time></trkpt><trkpt lat="35.3601465565823" lon="10.661180846963115"><ele>128.0</ele><time>2026-04-05T10:03:48Z</time></trkpt><trkpt lat="35.35986006357757" lon="10.661145010351241"><ele>128.0</ele><time>2026-04-05T10:03:49Z</time></trkpt><trkpt lat="35.35956710261168" lon="10.661108906784557"><ele>125.5</ele><time>2026-04-05T10:03:50Z</time></trkpt><trkpt lat="35.35927765180418" lon="10.66107350528542"><ele>123.0</ele><time>2026-04-05T10:03:51Z</time></trkpt><trkpt lat="35.35898326967295" lon="10.661037906298358"><ele>121.5</ele><time>2026-04-05T10:03:52Z</time></trkpt><trkpt lat="35.358691481839834" lon="10.661002488337123"><ele>120.0</ele><time>2026-04-05T10:03:53Z</time></trkpt><trkpt lat="35.35840163256194" lon="10.660965963958068"><ele>120.0</ele><time>2026-04-05T10:03:54Z</time></trkpt><trkpt lat="35.358115098404106" lon="10.66093219754184"><ele>120.0</ele><time>2026-04-05T10:03:55Z</time></trkpt><trkpt lat="35.35783668802374" lon="10.660901110572523"><ele>121.0</ele><time>2026-04-05T10:03:56Z</time></trkpt><trkpt lat="35.35757312150187" lon="10.66087048991953"><ele>122.0</ele><time>2026-04-05T10:03:57Z</time></trkpt><trkpt lat="35.357307327433126" lon="10.660838126805855"><ele>123.5</ele><time>2026-04-05T10:03:58Z</time></trkpt><trkpt lat="35.357038645695226" lon="10.660803465089192"><ele>125.0</ele><time>2026-04-05T10:03:59Z</time></trkpt><trkpt lat="35.35677211311662" lon="10.660771245366947"><ele>125.0</ele><time>2026-04-05T10:04:00Z</time></trkpt><trkpt lat="35.35650489458316" lon="10.660740057029729"><ele>125.0</ele><time>2026-04-05T10:04:01Z</time></trkpt><trkpt lat="35.356239560451066" lon="10.660707884889144"><ele>125.0</ele><time>2026-04-05T10:04:02Z</time></trkpt><trkpt lat="35.355973657117545" lon="10.660670676288609"><ele>125.0</ele><time>2026-04-05T10:04:03Z</time></trkpt><trkpt lat="35.3557064289158" lon="10.660634677418544"><ele>125.0</ele><time>2026-04-05T10:04:04Z</time></trkpt><trkpt lat="35.35544230956904" lon="10.660605034506714"><ele>125.0</ele><time>2026-04-05T10:04:05Z</time></trkpt><trkpt lat="35.35517388501452" lon="10.660581506219106"><ele>125.0</ele><time>2026-04-05T10:04:06Z</time></trkpt><trkpt lat="35.354902839841316" lon="10.660553405824903"><ele>125.0</ele><time>2026-04-05T10:04:07Z</time></trkpt><trkpt lat="35.35462669170059" lon="10.66052173715491"><ele>124.5</ele><time>2026-04-05T10:04:08Z</time></trkpt><trkpt lat="35.35435077358203" lon="10.660490167067891"><ele>124.0</ele><time>2026-04-05T10:04:09Z</time></trkpt><trkpt lat="35.354073899702094" lon="10.660461431538922"><ele>125.0</ele><time>2026-04-05T10:04:10Z</time></trkpt><trkpt lat="35.35379583989702" lon="10.660429356468693"><ele>126.0</ele><time>2026-04-05T10:04:11Z</time></trkpt><trkpt lat="35.35351224319694" lon="10.660396800023431"><ele>126.0</ele><time>2026-04-05T10:04:12Z</time></trkpt><trkpt lat="35.35322867338562" lon="10.66036002031512"><ele>126.0</ele><time>2026-04-05T10:04:13Z</time></trkpt><trkpt lat="35.35294419800879" lon="10.660321522305098"><ele>126.0</ele><time>2026-04-05T10:04:14Z</time></trkpt><trkpt lat="35.352662623751876" lon="10.660282946537915"><ele>126.0</ele><time>2026-04-05T10:04:15Z</time></trkpt><trkpt lat="35.3523785722602" lon="10.66024344286224"><ele>125.0</ele><time>2026-04-05T10:04:16Z</time></trkpt><trkpt lat="35.35209821731992" lon="10.660199045443125"><ele>124.0</ele><time>2026-04-05T10:04:17Z</time></trkpt><trkpt lat="35.35181803136612" lon="10.660152269000376"><ele>124.0</ele><time>2026-04-05T10:04:18Z</time></trkpt><trkpt lat="35.35153689472692" lon="10.660105643580831"><ele>124.0</ele><time>2026-04-05T10:04:19Z</time></trkpt><trkpt lat="35.35125678918285" lon="10.66005510823802"><ele>123.0</ele><time>2026-04-05T10:04:20Z</time></trkpt><trkpt lat="35.35097764089224" lon="10.660001329647013"><ele>122.0</ele><time>2026-04-05T10:04:21Z</time></trkpt><trkpt lat="35.35069849268451" lon="10.659944892486285"><ele>120.0</ele><time>2026-04-05T10:04:22Z</time></trkpt><trkpt lat="35.35042061266181" lon="10.659888245674775"><ele>118.0</ele><time>2026-04-05T10:04:23Z</time></trkpt><trkpt lat="35.350142288226344" lon="10.65982986248234"><ele>118.0</ele><time>2026-04-05T10:04:24Z</time></trkpt><trkpt lat="35.349868971483474" lon="10.659770643398609"><ele>118.0</ele><time>2026-04-05T10:04:25Z</time></trkpt><trkpt lat="35.34958792985362" lon="10.659705719016937"><ele>121.5</ele><time>2026-04-05T10:04:26Z</time></trkpt><trkpt lat="35.34931093472897" lon="10.659639552212672"><ele>125.0</ele><time>2026-04-05T10:04:27Z</time></trkpt><trkpt lat="35.34903356959526" lon="10.659572302314746"><ele>126.0</ele><time>2026-04-05T10:04:28Z</time></trkpt><trkpt lat="35.34875416985546" lon="10.659504012090276"><ele>127.0</ele><time>2026-04-05T10:04:29Z</time></trkpt><trkpt lat="35.34847598647729" lon="10.659437349316715"><ele>127.0</ele><time>2026-04-05T10:04:30Z</time></trkpt><trkpt lat="35.348192714376175" lon="10.659366093066632"><ele>127.0</ele><time>2026-04-05T10:04:31Z</time></trkpt><trkpt lat="35.34790520960648" lon="10.659291472277713"><ele>124.0</ele><time>2026-04-05T10:04:32Z</time></trkpt><trkpt lat="35.347616920514355" lon="10.659211502557099"><ele>121.0</ele><time>2026-04-05T10:04:33Z</time></trkpt><trkpt lat="35.347328485187944" lon="10.659129223337473"><ele>120.5</ele><time>2026-04-05T10:04:34Z</time></trkpt><trkpt lat="35.3470409202286" lon="10.659048022241876"><ele>120.0</ele><time>2026-04-05T10:04:35Z</time></trkpt><trkpt lat="35.346749381156116" lon="10.658965810953466"><ele>120.0</ele><time>2026-04-05T10:04:36Z</time></trkpt><trkpt lat="35.346456005944724" lon="10.658888509824884"><ele>120.0</ele><time>2026-04-05T10:04:37Z</time></trkpt><trkpt lat="35.346158883049775" lon="10.65881516520021"><ele>120.0</ele><time>2026-04-05T10:04:38Z</time></trkpt><trkpt lat="35.34585924372815" lon="10.658736199398358"><ele>120.0</ele><time>2026-04-05T10:04:39Z</time></trkpt><trkpt lat="35.34555643259858" lon="10.65865226540208"><ele>122.0</ele><time>2026-04-05T10:04:40Z</time></trkpt><trkpt lat="35.34523829437584" lon="10.658562959949963"><ele>124.0</ele><time>2026-04-05T10:04:41Z</time></trkpt><trkpt lat="35.34490084449082" lon="10.658472615913857"><ele>125.5</ele><time>2026-04-05T10:04:42Z</time></trkpt><trkpt lat="35.34455619963857" lon="10.658383612783158"><ele>127.0</ele><time>2026-04-05T10:04:43Z</time></trkpt><trkpt lat="35.344221798558216" lon="10.658294150878806"><ele>127.0</ele><time>2026-04-05T10:04:44Z</time></trkpt><trkpt lat="35.343895268952615" lon="10.658203488116092"><ele>127.0</ele><time>2026-04-05T10:04:45Z</time></trkpt><trkpt lat="35.34357419159087" lon="10.658111041267674"><ele>126.5</ele><time>2026-04-05T10:04:46Z</time></trkpt><trkpt lat="35.343259000888715" lon="10.658020621465544"><ele>126.0</ele><time>2026-04-05T10:04:47Z</time></trkpt><trkpt lat="35.34295878762748" lon="10.657939318907776"><ele>125.0</ele><time>2026-04-05T10:04:48Z</time></trkpt><trkpt lat="35.342684938572376" lon="10.65786781145854"><ele>124.0</ele><time>2026-04-05T10:04:49Z</time></trkpt><trkpt lat="35.34241741310423" lon="10.657793078710712"><ele>123.5</ele><time>2026-04-05T10:04:50Z</time></trkpt><trkpt lat="35.34214545263145" lon="10.657716412026401"><ele>123.0</ele><time>2026-04-05T10:04:51Z</time></trkpt><trkpt lat="35.341870740061225" lon="10.657640804199481"><ele>123.0</ele><time>2026-04-05T10:04:52Z</time></trkpt><trkpt lat="35.34159902755072" lon="10.657567390587431"><ele>123.0</ele><time>2026-04-05T10:04:53Z</time></trkpt><trkpt lat="35.34132265641922" lon="10.657492128492018"><ele>121.5</ele><time>2026-04-05T10:04:54Z</time></trkpt><trkpt lat="35.34104231098231" lon="10.657414614869046"><ele>120.0</ele><time>2026-04-05T10:04:55Z</time></trkpt><trkpt lat="35.340764197546925" lon="10.657338440633565"><ele>119.0</ele><time>2026-04-05T10:04:56Z</time></trkpt><trkpt lat="35.34048132811993" lon="10.65726408574826"><ele>118.0</ele><time>2026-04-05T10:04:57Z</time></trkpt><trkpt lat="35.34020027337711" lon="10.65718845347337"><ele>118.0</ele><time>2026-04-05T10:04:58Z</time></trkpt><trkpt lat="35.33991518918493" lon="10.657113020956874"><ele>118.0</ele><time>2026-04-05T10:04:59Z</time></trkpt><trkpt lat="35.33962817334162" lon="10.657035793707855"><ele>118.0</ele><time>2026-04-05T10:05:00Z</time></trkpt><trkpt lat="35.3393377422977" lon="10.656959393972025"><ele>118.0</ele><time>2026-04-05T10:05:01Z</time></trkpt><trkpt lat="35.33904905998065" lon="10.656882168637722"><ele>119.0</ele><time>2026-04-05T10:05:02Z</time></trkpt><trkpt lat="35.338755127068595" lon="10.65680630925239"><ele>120.0</ele><time>2026-04-05T10:05:03Z</time></trkpt><trkpt lat="35.33846581661524" lon="10.656728262965634"><ele>120.0</ele><time>2026-04-05T10:05:04Z</time></trkpt><trkpt lat="35.33817375598485" lon="10.656649686205641"><ele>120.0</ele><time>2026-04-05T10:05:05Z</time></trkpt><trkpt lat="35.33788472740411" lon="10.656570543422355"><ele>121.0</ele><time>2026-04-05T10:05:06Z</time></trkpt><trkpt lat="35.33759577700665" lon="10.656490568342273"><ele>122.0</ele><time>2026-04-05T10:05:07Z</time></trkpt><trkpt lat="35.337311737170694" lon="10.656412930083723"><ele>122.0</ele><time>2026-04-05T10:05:08Z</time></trkpt><trkpt lat="35.337026340220596" lon="10.656334209468898"><ele>122.0</ele><time>2026-04-05T10:05:09Z</time></trkpt><trkpt lat="35.33674170264131" lon="10.656257957856475"><ele>122.0</ele><time>2026-04-05T10:05:10Z</time></trkpt><trkpt lat="35.33645602545316" lon="10.656180771416347"><ele>122.0</ele><time>2026-04-05T10:05:11Z</time></trkpt><trkpt lat="35.336171145513035" lon="10.656100107127093"><ele>121.0</ele><time>2026-04-05T10:05:12Z</time></trkpt><trkpt lat="35.335887932655865" lon="10.65601616443798"><ele>120.0</ele><time>2026-04-05T10:05:13Z</time></trkpt><trkpt lat="35.335599732606845" lon="10.655931585097306"><ele>120.0</ele><time>2026-04-05T10:05:14Z</time></trkpt><trkpt lat="35.335310627133104" lon="10.655852595184971"><ele>120.0</ele><time>2026-04-05T10:05:15Z</time></trkpt><trkpt lat="35.33501933936288" lon="10.655777932995086"><ele>120.0</ele><time>2026-04-05T10:05:16Z</time></trkpt><trkpt lat="35.334726627496714" lon="10.6557038412439"><ele>120.0</ele><time>2026-04-05T10:05:17Z</time></trkpt><trkpt lat="35.3344344381463" lon="10.655628582653804"><ele>120.0</ele><time>2026-04-05T10:05:18Z</time></trkpt><trkpt lat="35.334137491335156" lon="10.655551940756471"><ele>120.0</ele><time>2026-04-05T10:05:19Z</time></trkpt><trkpt lat="35.33383875940598" lon="10.655479523820945"><ele>119.0</ele><time>2026-04-05T10:05:20Z</time></trkpt><trkpt lat="35.333535927217724" lon="10.655411111060298"><ele>118.0</ele><time>2026-04-05T10:05:21Z</time></trkpt><trkpt lat="35.333218231911616" lon="10.655343809435346"><ele>120.5</ele><time>2026-04-05T10:05:22Z</time></trkpt><trkpt lat="35.3328855624649" lon="10.655282647762471"><ele>123.0</ele><time>2026-04-05T10:05:23Z</time></trkpt><trkpt lat="35.33254126687512" lon="10.655223650252628"><ele>123.0</ele><time>2026-04-05T10:05:24Z</time></trkpt><trkpt lat="35.332196790752015" lon="10.655157061498576"><ele>123.0</ele><time>2026-04-05T10:05:25Z</time></trkpt><trkpt lat="35.331849716478835" lon="10.655092414510047"><ele>123.0</ele><time>2026-04-05T10:05:26Z</time></trkpt><trkpt lat="35.331504357836444" lon="10.655032411200164"><ele>123.0</ele><time>2026-04-05T10:05:27Z</time></trkpt><trkpt lat="35.33116113039136" lon="10.654975729207449"><ele>123.0</ele><time>2026-04-05T10:05:28Z</time></trkpt><trkpt lat="35.330820048065796" lon="10.65492166305497"><ele>123.0</ele><time>2026-04-05T10:05:29Z</time></trkpt><trkpt lat="35.33048381368164" lon="10.654868067722935"><ele>121.5</ele><time>2026-04-05T10:05:30Z</time></trkpt><trkpt lat="35.330153989078994" lon="10.654813743992303"><ele>120.0</ele><time>2026-04-05T10:05:31Z</time></trkpt><trkpt lat="35.32983275820256" lon="10.654761836854622"><ele>120.0</ele><time>2026-04-05T10:05:32Z</time></trkpt><trkpt lat="35.329530630418105" lon="10.654712780037295"><ele>120.0</ele><time>2026-04-05T10:05:33Z</time></trkpt><trkpt lat="35.32924119758284" lon="10.654671661758632"><ele>120.0</ele><time>2026-04-05T10:05:34Z</time></trkpt><trkpt lat="35.32895971451002" lon="10.654640264618696"><ele>120.0</ele><time>2026-04-05T10:05:35Z</time></trkpt><trkpt lat="35.32869046864746" lon="10.654616111757203"><ele>119.5</ele><time>2026-04-05T10:05:36Z</time></trkpt><trkpt lat="35.32842887543413" lon="10.654593061900547"><ele>119.0</ele><time>2026-04-05T10:05:37Z</time></trkpt><trkpt lat="35.32817105387652" lon="10.654565391306626"><ele>118.5</ele><time>2026-04-05T10:05:38Z</time></trkpt><trkpt lat="35.3279141905099" lon="10.654534358669538"><ele>118.0</ele><time>2026-04-05T10:05:39Z</time></trkpt><trkpt lat="35.32765586018689" lon="10.654499551750671"><ele>118.0</ele><time>2026-04-05T10:05:40Z</time></trkpt><trkpt lat="35.32739895973171" lon="10.654467005933261"><ele>118.0</ele><time>2026-04-05T10:05:41Z</time></trkpt><trkpt lat="35.327144315421386" lon="10.654438747618324"><ele>118.0</ele><time>2026-04-05T10:05:42Z</time></trkpt><trkpt lat="35.32688857929596" lon="10.654411186391348"><ele>118.0</ele><time>2026-04-05T10:05:43Z</time></trkpt><trkpt lat="35.326634543139555" lon="10.65438452125032"><ele>119.0</ele><time>2026-04-05T10:05:44Z</time></trkpt><trkpt lat="35.32638113279693" lon="10.65435946655527"><ele>120.0</ele><time>2026-04-05T10:05:45Z</time></trkpt><trkpt lat="35.3261324818712" lon="10.6543367030104"><ele>120.0</ele><time>2026-04-05T10:05:46Z</time></trkpt><trkpt lat="35.325891895062156" lon="10.654310700735344"><ele>120.0</ele><time>2026-04-05T10:05:47Z</time></trkpt><trkpt lat="35.32565901213948" lon="10.654283212520506"><ele>119.5</ele><time>2026-04-05T10:05:48Z</time></trkpt><trkpt lat="35.32542474463823" lon="10.654251974422833"><ele>119.0</ele><time>2026-04-05T10:05:49Z</time></trkpt><trkpt lat="35.325199575221546" lon="10.654224588668894"><ele>119.0</ele><time>2026-04-05T10:05:50Z</time></trkpt><trkpt lat="35.324977843132274" lon="10.654198238909856"><ele>119.0</ele><time>2026-04-05T10:05:51Z</time></trkpt><trkpt lat="35.32476430909786" lon="10.654174525889024"><ele>119.0</ele><time>2026-04-05T10:05:52Z</time></trkpt><trkpt lat="35.32455416783866" lon="10.654149708441128"><ele>118.33333333333333</ele><time>2026-04-05T10:05:53Z</time></trkpt><trkpt lat="35.32435247716616" lon="10.654127758674715"><ele>117.66666666666666</ele><time>2026-04-05T10:05:54Z</time></trkpt><trkpt lat="35.324158454607236" lon="10.654105212928505"><ele>117.0</ele><time>2026-04-05T10:05:55Z</time></trkpt><trkpt lat="35.3239734593602" lon="10.654084657241777"><ele>117.0</ele><time>2026-04-05T10:05:56Z</time></trkpt><trkpt lat="35.323792572771936" lon="10.654067092172909"><ele>117.0</ele><time>2026-04-05T10:05:57Z</time></trkpt><trkpt lat="35.323616887299416" lon="10.65404898156753"><ele>117.0</ele><time>2026-04-05T10:05:58Z</time></trkpt><trkpt lat="35.32344154994823" lon="10.654027369122247"><ele>117.0</ele><time>2026-04-05T10:05:59Z</time></trkpt><trkpt lat="35.32325876564116" lon="10.654005761509397"><ele>117.0</ele><time>2026-04-05T10:06:00Z</time></trkpt><trkpt lat="35.32307637814142" lon="10.653983142366116"><ele>117.0</ele><time>2026-04-05T10:06:01Z</time></trkpt><trkpt lat="35.32288912157632" lon="10.653963759320641"><ele>117.66666666666666</ele><time>2026-04-05T10:06:02Z</time></trkpt><trkpt lat="35.322699885324056" lon="10.653943798157396"><ele>118.33333333333333</ele><time>2026-04-05T10:06:03Z</time></trkpt><trkpt lat="35.322505185606396" lon="10.653924554247144"><ele>119.0</ele><time>2026-04-05T10:06:04Z</time></trkpt><trkpt lat="35.322305715723445" lon="10.653905495782883"><ele>119.0</ele><time>2026-04-05T10:06:05Z</time></trkpt><trkpt lat="35.322105106833774" lon="10.65388482635746"><ele>119.0</ele><time>2026-04-05T10:06:06Z</time></trkpt><trkpt lat="35.32190546338737" lon="10.653862285975833"><ele>119.0</ele><time>2026-04-05T10:06:07Z</time></trkpt><trkpt lat="35.3217033706793" lon="10.653837885376586"><ele>119.0</ele><time>2026-04-05T10:06:08Z</time></trkpt><trkpt lat="35.3214976926507" lon="10.653812144487386"><ele>119.0</ele><time>2026-04-05T10:06:09Z</time></trkpt><trkpt lat="35.32129088724873" lon="10.653785830398812"><ele>119.0</ele><time>2026-04-05T10:06:10Z</time></trkpt><trkpt lat="35.32107598385157" lon="10.653757645086147"><ele>118.0</ele><time>2026-04-05T10:06:11Z</time></trkpt><trkpt lat="35.320861577395775" lon="10.653727692945033"><ele>117.0</ele><time>2026-04-05T10:06:12Z</time></trkpt><trkpt lat="35.320640158551726" lon="10.653699241629898"><ele>116.0</ele><time>2026-04-05T10:06:13Z</time></trkpt><trkpt lat="35.320412418296186" lon="10.653674001048453"><ele>116.0</ele><time>2026-04-05T10:06:14Z</time></trkpt><trkpt lat="35.32018860913543" lon="10.653647755364545"><ele>116.0</ele><time>2026-04-05T10:06:15Z</time></trkpt><trkpt lat="35.319953463393915" lon="10.653622304653542"><ele>114.5</ele><time>2026-04-05T10:06:16Z</time></trkpt><trkpt lat="35.3197205027016" lon="10.653593969703753"><ele>113.0</ele><time>2026-04-05T10:06:17Z</time></trkpt><trkpt lat="35.319486635634256" lon="10.653565710692458"><ele>113.0</ele><time>2026-04-05T10:06:18Z</time></trkpt><trkpt lat="35.31924991998971" lon="10.653539200052833"><ele>113.0</ele><time>2026-04-05T10:06:19Z</time></trkpt><trkpt lat="35.31901176086287" lon="10.653515274190461"><ele>113.5</ele><time>2026-04-05T10:06:20Z</time></trkpt><trkpt lat="35.318768247047146" lon="10.653493174657807"><ele>114.0</ele><time>2026-04-05T10:06:21Z</time></trkpt><trkpt lat="35.31853035553391" lon="10.653467107733537"><ele>114.0</ele><time>2026-04-05T10:06:22Z</time></trkpt><trkpt lat="35.31830243787199" lon="10.653441414513324"><ele>114.0</ele><time>2026-04-05T10:06:23Z</time></trkpt><trkpt lat="35.31808018355934" lon="10.653411730083345"><ele>112.66666666666666</ele><time>2026-04-05T10:06:24Z</time></trkpt><trkpt lat="35.31786120701453" lon="10.65338398958259"><ele>111.33333333333333</ele><time>2026-04-05T10:06:25Z</time></trkpt><trkpt lat="35.31764089613012" lon="10.653359969687036"><ele>110.0</ele><time>2026-04-05T10:06:26Z</time></trkpt><trkpt lat="35.31742363308949" lon="10.65333823450657"><ele>109.66666666666666</ele><time>2026-04-05T10:06:27Z</time></trkpt><trkpt lat="35.31720751744924" lon="10.653316274942734"><ele>109.33333333333334</ele><time>2026-04-05T10:06:28Z</time></trkpt><trkpt lat="35.316991359110965" lon="10.653293369010935"><ele>109.0</ele><time>2026-04-05T10:06:29Z</time></trkpt><trkpt lat="35.31677054609747" lon="10.653269648822643"><ele>109.0</ele><time>2026-04-05T10:06:30Z</time></trkpt><trkpt lat="35.31654681172503" lon="10.65324496563143"><ele>109.0</ele><time>2026-04-05T10:06:31Z</time></trkpt><trkpt lat="35.316323222527025" lon="10.65321894069271"><ele>109.0</ele><time>2026-04-05T10:06:32Z</time></trkpt><trkpt lat="35.316096061044206" lon="10.65319075803364"><ele>111.0</ele><time>2026-04-05T10:06:33Z</time></trkpt><trkpt lat="35.31586954575054" lon="10.653162737490762"><ele>113.0</ele><time>2026-04-05T10:06:34Z</time></trkpt><trkpt lat="35.315638196373236" lon="10.653136465843113"><ele>115.0</ele><time>2026-04-05T10:06:35Z</time></trkpt><trkpt lat="35.31540310810825" lon="10.65311371289906"><ele>117.0</ele><time>2026-04-05T10:06:36Z</time></trkpt><trkpt lat="35.31516624965136" lon="10.653092696874001"><ele>117.0</ele><time>2026-04-05T10:06:37Z</time></trkpt><trkpt lat="35.314935339814305" lon="10.653070887781046"><ele>117.0</ele><time>2026-04-05T10:06:38Z</time></trkpt><trkpt lat="35.314709067761854" lon="10.653046546222665"><ele>117.33333333333334</ele><time>2026-04-05T10:06:39Z</time></trkpt><trkpt lat="35.314487925094525" lon="10.653020390030868"><ele>117.66666666666667</ele><time>2026-04-05T10:06:40Z</time></trkpt><trkpt lat="35.31427607029151" lon="10.652995275646717"><ele>118.0</ele><time>2026-04-05T10:06:41Z</time></trkpt><trkpt lat="35.31407401534699" lon="10.652971057098197"><ele>118.0</ele><time>2026-04-05T10:06:42Z</time></trkpt><trkpt lat="35.31388665365619" lon="10.652945080135236"><ele>118.0</ele><time>2026-04-05T10:06:43Z</time></trkpt><trkpt lat="35.313721694290486" lon="10.652926238501"><ele>118.0</ele><time>2026-04-05T10:06:44Z</time></trkpt><trkpt lat="35.3135576804167" lon="10.652912371067815"><ele>118.0</ele><time>2026-04-05T10:06:45Z</time></trkpt><trkpt lat="35.31340309966394" lon="10.652897656479373"><ele>118.0</ele><time>2026-04-05T10:06:46Z</time></trkpt><trkpt lat="35.31325152374329" lon="10.652878076022686"><ele>118.0</ele><time>2026-04-05T10:06:47Z</time></trkpt><trkpt lat="35.31309998708647" lon="10.652856771868855"><ele>118.0</ele><time>2026-04-05T10:06:48Z</time></trkpt><trkpt lat="35.31295419920809" lon="10.652837941003723"><ele>118.0</ele><time>2026-04-05T10:06:49Z</time></trkpt><trkpt lat="35.312813954197985" lon="10.652818924833957"><ele>118.0</ele><time>2026-04-05T10:06:50Z</time></trkpt><trkpt lat="35.31268111772294" lon="10.652800360167783"><ele>118.0</ele><time>2026-04-05T10:06:51Z</time></trkpt><trkpt lat="35.31255045898294" lon="10.652781143432657"><ele>118.0</ele><time>2026-04-05T10:06:52Z</time></trkpt><trkpt lat="35.3124251427199" lon="10.652762110572283"><ele>118.0</ele><time>2026-04-05T10:06:53Z</time></trkpt><trkpt lat="35.312306853298374" lon="10.652746661403942"><ele>118.0</ele><time>2026-04-05T10:06:54Z</time></trkpt><trkpt lat="35.31219261535957" lon="10.652731556690533"><ele>118.0</ele><time>2026-04-05T10:06:55Z</time></trkpt><trkpt lat="35.31208268637746" lon="10.652716650746973"><ele>117.60000000000001</ele><time>2026-04-05T10:06:56Z</time></trkpt><trkpt lat="35.311974936272506" lon="10.652705543219332"><ele>117.20000000000002</ele><time>2026-04-05T10:06:57Z</time></trkpt><trkpt lat="35.31185686394853" lon="10.652686695388283"><ele>116.8</ele><time>2026-04-05T10:06:58Z</time></trkpt><trkpt lat="35.31175043464121" lon="10.652665369949762"><ele>116.4</ele><time>2026-04-05T10:06:59Z</time></trkpt><trkpt lat="35.31163894875071" lon="10.65263731289157"><ele>116.0</ele><time>2026-04-05T10:07:00Z</time></trkpt><trkpt lat="35.311531059579416" lon="10.652595361619728"><ele>116.0</ele><time>2026-04-05T10:07:01Z</time></trkpt><trkpt lat="35.31143076228275" lon="10.652544518361168"><ele>116.0</ele><time>2026-04-05T10:07:02Z</time></trkpt><trkpt lat="35.31133191697501" lon="10.652481630903532"><ele>116.0</ele><time>2026-04-05T10:07:03Z</time></trkpt><trkpt lat="35.31123413810975" lon="10.652406115515003"><ele>116.0</ele><time>2026-04-05T10:07:04Z</time></trkpt><trkpt lat="35.31114368000953" lon="10.652323117954044"><ele>116.0</ele><time>2026-04-05T10:07:05Z</time></trkpt><trkpt lat="35.3110562460999" lon="10.652228503773099"><ele>116.25</ele><time>2026-04-05T10:07:06Z</time></trkpt><trkpt lat="35.31097778868849" lon="10.652123903563028"><ele>116.5</ele><time>2026-04-05T10:07:07Z</time></trkpt><trkpt lat="35.31090268563487" lon="10.652012378567854"><ele>116.75</ele><time>2026-04-05T10:07:08Z</time></trkpt><trkpt lat="35.31083520657628" lon="10.651893888309758"><ele>117.0</ele><time>2026-04-05T10:07:09Z</time></trkpt><trkpt lat="35.31077246275541" lon="10.651767787486497"><ele>117.39999999999999</ele><time>2026-04-05T10:07:10Z</time></trkpt><trkpt lat="35.31072145342402" lon="10.651642977313106"><ele>117.79999999999998</ele><time>2026-04-05T10:07:11Z</time></trkpt><trkpt lat="35.310676218038985" lon="10.651525457237845"><ele>118.2</ele><time>2026-04-05T10:07:12Z</time></trkpt><trkpt lat="35.31062219789186" lon="10.65141177600018"><ele>118.6</ele><time>2026-04-05T10:07:13Z</time></trkpt><trkpt lat="35.31055601890943" lon="10.651316428896237"><ele>119.0</ele><time>2026-04-05T10:07:14Z</time></trkpt><trkpt lat="35.31047629052911" lon="10.651242358209293"><ele>118.0</ele><time>2026-04-05T10:07:15Z</time></trkpt><trkpt lat="35.31038452291485" lon="10.651188548994176"><ele>117.0</ele><time>2026-04-05T10:07:16Z</time></trkpt><trkpt lat="35.310287103294236" lon="10.651148592926107"><ele>116.0</ele><time>2026-04-05T10:07:17Z</time></trkpt><trkpt lat="35.3101802305064" lon="10.651132606389206"><ele>115.0</ele><time>2026-04-05T10:07:18Z</time></trkpt><trkpt lat="35.31006604539517" lon="10.651144968760592"><ele>114.0</ele><time>2026-04-05T10:07:19Z</time></trkpt><trkpt lat="35.30995206870409" lon="10.651180665628644"><ele>114.0</ele><time>2026-04-05T10:07:20Z</time></trkpt><trkpt lat="35.30984521293075" lon="10.651248980937208"><ele>114.0</ele><time>2026-04-05T10:07:21Z</time></trkpt><trkpt lat="35.30975025937486" lon="10.651348635785599"><ele>114.0</ele><time>2026-04-05T10:07:22Z</time></trkpt><trkpt lat="35.30967144200524" lon="10.65147513814597"><ele>114.0</ele><time>2026-04-05T10:07:23Z</time></trkpt><trkpt lat="35.30961299593355" lon="10.6516227761925"><ele>113.75</ele><time>2026-04-05T10:07:24Z</time></trkpt><trkpt lat="35.309575512334675" lon="10.65178599124495"><ele>113.5</ele><time>2026-04-05T10:07:25Z</time></trkpt><trkpt lat="35.30956024967645" lon="10.65195918901359"><ele>113.25</ele><time>2026-04-05T10:07:26Z</time></trkpt><trkpt lat="35.309559287566366" lon="10.652136810971816"><ele>113.0</ele><time>2026-04-05T10:07:27Z</time></trkpt><trkpt lat="35.30955628293233" lon="10.652313311807777"><ele>113.0</ele><time>2026-04-05T10:07:28Z</time></trkpt><trkpt lat="35.30954494823111" lon="10.6524755681977"><ele>113.0</ele><time>2026-04-05T10:07:29Z</time></trkpt><trkpt lat="35.309528631537475" lon="10.652628617439948"><ele>113.0</ele><time>2026-04-05T10:07:30Z</time></trkpt><trkpt lat="35.309516087059265" lon="10.652782800156734"><ele>113.0</ele><time>2026-04-05T10:07:31Z</time></trkpt><trkpt lat="35.30950523518573" lon="10.652937560257678"><ele>112.75</ele><time>2026-04-05T10:07:32Z</time></trkpt><trkpt lat="35.30949322295111" lon="10.65309843482053"><ele>112.5</ele><time>2026-04-05T10:07:33Z</time></trkpt><trkpt lat="35.30948277493422" lon="10.653247229814"><ele>112.25</ele><time>2026-04-05T10:07:34Z</time></trkpt><trkpt lat="35.309472130318504" lon="10.653384796363126"><ele>112.0</ele><time>2026-04-05T10:07:35Z</time></trkpt><trkpt lat="35.30946333099217" lon="10.653511305653398"><ele>111.8</ele><time>2026-04-05T10:07:36Z</time></trkpt><trkpt lat="35.309454248339954" lon="10.653631930735772"><ele>111.6</ele><time>2026-04-05T10:07:37Z</time></trkpt><trkpt lat="35.309444052501554" lon="10.653747484730772"><ele>111.39999999999999</ele><time>2026-04-05T10:07:38Z</time></trkpt><trkpt lat="35.309433574185434" lon="10.653858316727542"><ele>111.19999999999999</ele><time>2026-04-05T10:07:39Z</time></trkpt><trkpt lat="35.30942600829684" lon="10.65396243134443"><ele>111.0</ele><time>2026-04-05T10:07:40Z</time></trkpt><trkpt lat="35.3094211440709" lon="10.65406550843247"><ele>111.0</ele><time>2026-04-05T10:07:41Z</time></trkpt><trkpt lat="35.30941530962899" lon="10.654163482511377"><ele>111.0</ele><time>2026-04-05T10:07:42Z</time></trkpt><trkpt lat="35.30940527011817" lon="10.654257785881317"><ele>111.0</ele><time>2026-04-05T10:07:43Z</time></trkpt><trkpt lat="35.309393469331205" lon="10.654348054102163"><ele>111.0</ele><time>2026-04-05T10:07:44Z</time></trkpt><trkpt lat="35.30938539030626" lon="10.654438029824787"><ele>111.0</ele><time>2026-04-05T10:07:45Z</time></trkpt><trkpt lat="35.309382102365994" lon="10.654520348912078"><ele>111.0</ele><time>2026-04-05T10:07:46Z</time></trkpt><trkpt lat="35.309378982432456" lon="10.654602632278456"><ele>111.0</ele><time>2026-04-05T10:07:47Z</time></trkpt><trkpt lat="35.30937319823673" lon="10.654683734304568"><ele>111.33333333333333</ele><time>2026-04-05T10:07:48Z</time></trkpt><trkpt lat="35.30936593984407" lon="10.6547611457631"><ele>111.66666666666666</ele><time>2026-04-05T10:07:49Z</time></trkpt><trkpt lat="35.309355403999504" lon="10.654903799770945"><ele>112.0</ele><time>2026-04-05T10:07:51Z</time></trkpt><trkpt lat="35.30934790277041" lon="10.655005965726234"><ele>112.33333333333333</ele><time>2026-04-05T10:07:53Z</time></trkpt><trkpt lat="35.30934619164772" lon="10.655083450024526"><ele>112.66666666666666</ele><time>2026-04-05T10:07:55Z</time></trkpt><trkpt lat="35.309331891090615" lon="10.65517937526277"><ele>113.0</ele><time>2026-04-05T10:07:58Z</time></trkpt><trkpt lat="35.309323905994326" lon="10.655275384380182"><ele>113.16666666666666</ele><time>2026-04-05T10:08:01Z</time></trkpt><trkpt lat="35.309313554927996" lon="10.65537857296503"><ele>113.33333333333333</ele><time>2026-04-05T10:08:04Z</time></trkpt><trkpt lat="35.30930642745255" lon="10.655472814719783"><ele>113.5</ele><time>2026-04-05T10:08:07Z</time></trkpt><trkpt lat="35.309292479021856" lon="10.655561469605406"><ele>113.66666666666666</ele><time>2026-04-05T10:08:10Z</time></trkpt><trkpt lat="35.30928883268046" lon="10.655654404150203"><ele>113.83333333333333</ele><time>2026-04-05T10:09:21Z</time></trkpt><trkpt lat="35.3092925359519" lon="10.655731982017272"><ele>114.0</ele><time>2026-04-05T10:09:33Z</time></trkpt><trkpt lat="35.309290369942865" lon="10.655823532976513"><ele>114.0</ele><time>2026-04-05T10:09:39Z</time></trkpt><trkpt lat="35.3092823728413" lon="10.655947782903285"><ele>114.0</ele><time>2026-04-05T10:09:41Z</time></trkpt><trkpt lat="35.30927279433705" lon="10.656057704667205"><ele>114.0</ele><time>2026-04-05T10:09:47Z</time></trkpt><trkpt lat="35.30926098861549" lon="10.656218140440226"><ele>114.0</ele><time>2026-04-05T10:09:49Z</time></trkpt><trkpt lat="35.309252426435584" lon="10.656312404136923"><ele>114.0</ele><time>2026-04-05T10:09:50Z</time></trkpt><trkpt lat="35.30921984289075" lon="10.65644737706248"><ele>113.75</ele><time>2026-04-05T10:09:51Z</time></trkpt><trkpt lat="35.309180500816716" lon="10.65659386352282"><ele>113.5</ele><time>2026-04-05T10:09:52Z</time></trkpt><trkpt lat="35.3091315101498" lon="10.65674564540681"><ele>113.25</ele><time>2026-04-05T10:09:53Z</time></trkpt><trkpt lat="35.309092367623755" lon="10.65687255594573"><ele>113.0</ele><time>2026-04-05T10:09:54Z</time></trkpt><trkpt lat="35.309070424614326" lon="10.656971295935003"><ele>112.83333333333333</ele><time>2026-04-05T10:09:55Z</time></trkpt><trkpt lat="35.30906796804992" lon="10.657086250082102"><ele>112.66666666666666</ele><time>2026-04-05T10:09:57Z</time></trkpt><trkpt lat="35.309087110084256" lon="10.657171326384058"><ele>112.5</ele><time>2026-04-05T10:15:09Z</time></trkpt><trkpt lat="35.30907272450505" lon="10.65726165881102"><ele>112.33333333333334</ele><time>2026-04-05T10:20:05Z</time></trkpt><trkpt lat="35.309050801657186" lon="10.657341134266538"><ele>112.16666666666667</ele><time>2026-04-05T10:20:17Z</time></trkpt><trkpt lat="35.30906305266204" lon="10.657442930008203"><ele>112.0</ele><time>2026-04-05T10:20:20Z</time></trkpt><trkpt lat="35.30910252526228" lon="10.657568763235306"><ele>112.0</ele><time>2026-04-05T10:20:22Z</time></trkpt><trkpt lat="35.30913539177145" lon="10.65773680004214"><ele>112.0</ele><time>2026-04-05T10:20:24Z</time></trkpt><trkpt lat="35.30913940501888" lon="10.65787961911345"><ele>112.0</ele><time>2026-04-05T10:20:25Z</time></trkpt><trkpt lat="35.309136318634145" lon="10.65805054922264"><ele>112.0</ele><time>2026-04-05T10:20:26Z</time></trkpt><trkpt lat="35.30913344619564" lon="10.658252928325613"><ele>112.0</ele><time>2026-04-05T10:20:27Z</time></trkpt><trkpt lat="35.309145589987104" lon="10.65845051080578"><ele>112.0</ele><time>2026-04-05T10:20:28Z</time></trkpt><trkpt lat="35.309184369793236" lon="10.658638374511897"><ele>112.0</ele><time>2026-04-05T10:20:29Z</time></trkpt><trkpt lat="35.309241039429665" lon="10.658814462475807"><ele>112.0</ele><time>2026-04-05T10:20:30Z</time></trkpt><trkpt lat="35.3093227248968" lon="10.65897861568291"><ele>112.0</ele><time>2026-04-05T10:20:31Z</time></trkpt><trkpt lat="35.30941598277934" lon="10.659135261113434"><ele>112.0</ele><time>2026-04-05T10:20:32Z</time></trkpt><trkpt lat="35.30951898088099" lon="10.659266198939614"><ele>112.0</ele><time>2026-04-05T10:20:33Z</time></trkpt><trkpt lat="35.309647729682894" lon="10.659374066973927"><ele>112.0</ele><time>2026-04-05T10:20:34Z</time></trkpt><trkpt lat="35.30979784249838" lon="10.659477077114586"><ele>112.0</ele><time>2026-04-05T10:20:35Z</time></trkpt><trkpt lat="35.30993318889174" lon="10.65956196798821"><ele>112.39999999999999</ele><time>2026-04-05T10:20:36Z</time></trkpt><trkpt lat="35.31004719186121" lon="10.659631920998198"><ele>112.79999999999998</ele><time>2026-04-05T10:20:37Z</time></trkpt><trkpt lat="35.31014315602857" lon="10.659684062214644"><ele>113.2</ele><time>2026-04-05T10:20:38Z</time></trkpt><trkpt lat="35.31022054163159" lon="10.659741078108562"><ele>113.6</ele><time>2026-04-05T10:20:39Z</time></trkpt><trkpt lat="35.31028548634769" lon="10.659805741048705"><ele>114.0</ele><time>2026-04-05T10:20:40Z</time></trkpt><trkpt lat="35.31033491873745" lon="10.659875062376143"><ele>114.0</ele><time>2026-04-05T10:20:41Z</time></trkpt><trkpt lat="35.310367887746565" lon="10.659955263784406"><ele>114.0</ele><time>2026-04-05T10:20:42Z</time></trkpt><trkpt lat="35.310397172196666" lon="10.660046665520012"><ele>114.0</ele><time>2026-04-05T10:20:43Z</time></trkpt><trkpt lat="35.31042712936025" lon="10.660147300662283"><ele>114.0</ele><time>2026-04-05T10:20:44Z</time></trkpt><trkpt lat="35.310443280046975" lon="10.660264451634054"><ele>114.0</ele><time>2026-04-05T10:20:45Z</time></trkpt><trkpt lat="35.31044419426174" lon="10.660393585011798"><ele>114.0</ele><time>2026-04-05T10:20:46Z</time></trkpt><trkpt lat="35.310429907495475" lon="10.660535646238182"><ele>113.75</ele><time>2026-04-05T10:20:47Z</time></trkpt><trkpt lat="35.31040379880178" lon="10.660683549345121"><ele>113.5</ele><time>2026-04-05T10:20:48Z</time></trkpt><trkpt lat="35.3103678122296" lon="10.660835534960727"><ele>113.25</ele><time>2026-04-05T10:20:49Z</time></trkpt><trkpt lat="35.31033024274829" lon="10.660986928211445"><ele>113.0</ele><time>2026-04-05T10:20:50Z</time></trkpt><trkpt lat="35.31029351685676" lon="10.661135318990986"><ele>113.0</ele><time>2026-04-05T10:20:51Z</time></trkpt><trkpt lat="35.310260442798196" lon="10.661284532945512"><ele>113.0</ele><time>2026-04-05T10:20:52Z</time></trkpt><trkpt lat="35.310229407278875" lon="10.66143145521949"><ele>113.0</ele><time>2026-04-05T10:20:53Z</time></trkpt><trkpt lat="35.310195992151336" lon="10.661578854671971"><ele>113.0</ele><time>2026-04-05T10:20:54Z</time></trkpt><trkpt lat="35.31016186321157" lon="10.661725470620992"><ele>113.0</ele><time>2026-04-05T10:20:55Z</time></trkpt><trkpt lat="35.31012926310259" lon="10.66187305650755"><ele>113.0</ele><time>2026-04-05T10:20:56Z</time></trkpt><trkpt lat="35.31009522625414" lon="10.662019780061437"><ele>113.0</ele><time>2026-04-05T10:20:57Z</time></trkpt><trkpt lat="35.31005978464788" lon="10.662175338672125"><ele>113.0</ele><time>2026-04-05T10:20:58Z</time></trkpt><trkpt lat="35.310024782106055" lon="10.662345243515833"><ele>112.66666666666666</ele><time>2026-04-05T10:20:59Z</time></trkpt><trkpt lat="35.30998753720975" lon="10.662535111768435"><ele>112.33333333333334</ele><time>2026-04-05T10:21:00Z</time></trkpt><trkpt lat="35.30994228551559" lon="10.662757739371983"><ele>112.0</ele><time>2026-04-05T10:21:01Z</time></trkpt><trkpt lat="35.30989092548945" lon="10.662996088105514"><ele>113.0</ele><time>2026-04-05T10:21:02Z</time></trkpt><trkpt lat="35.309845520343885" lon="10.663218537949282"><ele>114.0</ele><time>2026-04-05T10:21:03Z</time></trkpt><trkpt lat="35.30980025117601" lon="10.663422498145843"><ele>115.0</ele><time>2026-04-05T10:21:04Z</time></trkpt><trkpt lat="35.30975717861575" lon="10.663613135483482"><ele>114.0</ele><time>2026-04-05T10:21:05Z</time></trkpt><trkpt lat="35.30971916079287" lon="10.663793666881196"><ele>113.0</ele><time>2026-04-05T10:21:06Z</time></trkpt><trkpt lat="35.30968641185652" lon="10.663966525326003"><ele>112.0</ele><time>2026-04-05T10:21:07Z</time></trkpt><trkpt lat="35.30965286349986" lon="10.66412982367838"><ele>111.0</ele><time>2026-04-05T10:21:08Z</time></trkpt><trkpt lat="35.3096206348087" lon="10.66428486212032"><ele>111.0</ele><time>2026-04-05T10:21:09Z</time></trkpt><trkpt lat="35.3095868409118" lon="10.664432690962483"><ele>111.0</ele><time>2026-04-05T10:21:10Z</time></trkpt><trkpt lat="35.309552555956515" lon="10.664578445555948"><ele>111.0</ele><time>2026-04-05T10:21:11Z</time></trkpt><trkpt lat="35.309518549032916" lon="10.664726288099532"><ele>111.0</ele><time>2026-04-05T10:21:12Z</time></trkpt><trkpt lat="35.30948514620247" lon="10.664876768488513"><ele>111.0</ele><time>2026-04-05T10:21:13Z</time></trkpt><trkpt lat="35.30945398630164" lon="10.665027237219002"><ele>111.0</ele><time>2026-04-05T10:21:14Z</time></trkpt><trkpt lat="35.309419883586656" lon="10.665188653436452"><ele>111.0</ele><time>2026-04-05T10:21:15Z</time></trkpt><trkpt lat="35.30938404313401" lon="10.665365898538925"><ele>111.0</ele><time>2026-04-05T10:21:16Z</time></trkpt><trkpt lat="35.3093430824748" lon="10.665558125599683"><ele>111.0</ele><time>2026-04-05T10:21:17Z</time></trkpt><trkpt lat="35.309301179310125" lon="10.665765661687153"><ele>111.0</ele><time>2026-04-05T10:21:18Z</time></trkpt><trkpt lat="35.30925701824443" lon="10.665980438039877"><ele>111.0</ele><time>2026-04-05T10:21:19Z</time></trkpt><trkpt lat="35.30921210592856" lon="10.666193581753198"><ele>111.0</ele><time>2026-04-05T10:21:20Z</time></trkpt><trkpt lat="35.309170269436564" lon="10.666406852887961"><ele>111.0</ele><time>2026-04-05T10:21:21Z</time></trkpt><trkpt lat="35.30912874882144" lon="10.666617119939927"><ele>111.0</ele><time>2026-04-05T10:21:22Z</time></trkpt><trkpt lat="35.309081853852994" lon="10.66685038070594"><ele>111.0</ele><time>2026-04-05T10:21:23Z</time></trkpt><trkpt lat="35.30902506531514" lon="10.66713941765467"><ele>111.0</ele><time>2026-04-05T10:21:24Z</time></trkpt><trkpt lat="35.308957172432315" lon="10.667448431991964"><ele>110.66666666666666</ele><time>2026-04-05T10:21:25Z</time></trkpt><trkpt lat="35.30888828788055" lon="10.667725690733732"><ele>110.33333333333333</ele><time>2026-04-05T10:21:26Z</time></trkpt><trkpt lat="35.308829000996845" lon="10.667960882690668"><ele>110.0</ele><time>2026-04-05T10:21:27Z</time></trkpt><trkpt lat="35.30878103566509" lon="10.66817166129881"><ele>110.0</ele><time>2026-04-05T10:21:28Z</time></trkpt><trkpt lat="35.308737453342346" lon="10.668369787847519"><ele>110.0</ele><time>2026-04-05T10:21:29Z</time></trkpt><trkpt lat="35.308692218655835" lon="10.668565244878685"><ele>110.0</ele><time>2026-04-05T10:21:30Z</time></trkpt><trkpt lat="35.30864578205441" lon="10.668767948044293"><ele>111.0</ele><time>2026-04-05T10:21:31Z</time></trkpt><trkpt lat="35.308599702594925" lon="10.668973970021826"><ele>112.0</ele><time>2026-04-05T10:21:32Z</time></trkpt><trkpt lat="35.30855464690416" lon="10.669181237931406"><ele>113.0</ele><time>2026-04-05T10:21:33Z</time></trkpt><trkpt lat="35.30850866695326" lon="10.669382817486706"><ele>112.66666666666666</ele><time>2026-04-05T10:21:34Z</time></trkpt><trkpt lat="35.30845725314849" lon="10.669583492558404"><ele>112.33333333333334</ele><time>2026-04-05T10:21:35Z</time></trkpt><trkpt lat="35.30839854701269" lon="10.669788232921196"><ele>112.0</ele><time>2026-04-05T10:21:36Z</time></trkpt><trkpt lat="35.30833246430842" lon="10.669993508804087"><ele>112.0</ele><time>2026-04-05T10:21:37Z</time></trkpt><trkpt lat="35.30825946767275" lon="10.67019092472601"><ele>112.0</ele><time>2026-04-05T10:21:38Z</time></trkpt><trkpt lat="35.30818279515434" lon="10.670384519526637"><ele>112.0</ele><time>2026-04-05T10:21:39Z</time></trkpt><trkpt lat="35.30810477150834" lon="10.670583120859922"><ele>111.66666666666667</ele><time>2026-04-05T10:21:40Z</time></trkpt><trkpt lat="35.30802916989814" lon="10.670785479282301"><ele>111.33333333333334</ele><time>2026-04-05T10:21:41Z</time></trkpt><trkpt lat="35.30795192801753" lon="10.670985480807527"><ele>111.0</ele><time>2026-04-05T10:21:42Z</time></trkpt><trkpt lat="35.30787880241793" lon="10.671180116051195"><ele>111.0</ele><time>2026-04-05T10:21:43Z</time></trkpt><trkpt lat="35.307811987077336" lon="10.671362411296466"><ele>111.0</ele><time>2026-04-05T10:21:44Z</time></trkpt><trkpt lat="35.307748808786535" lon="10.671535638311891"><ele>111.0</ele><time>2026-04-05T10:21:45Z</time></trkpt><trkpt lat="35.30768546966892" lon="10.671701299882432"><ele>111.0</ele><time>2026-04-05T10:21:45.999Z</time></trkpt><trkpt lat="35.30762385020848" lon="10.67186490789299"><ele>111.0</ele><time>2026-04-05T10:21:46.999Z</time></trkpt><trkpt lat="35.30756023042672" lon="10.672029378061778"><ele>111.0</ele><time>2026-04-05T10:21:47.999Z</time></trkpt><trkpt lat="35.30749785878604" lon="10.672193746613916"><ele>111.0</ele><time>2026-04-05T10:21:49Z</time></trkpt><trkpt lat="35.30743429347743" lon="10.672361110517436"><ele>110.75</ele><time>2026-04-05T10:21:50Z</time></trkpt><trkpt lat="35.307371604260624" lon="10.672524595567689"><ele>110.5</ele><time>2026-04-05T10:21:51Z</time></trkpt><trkpt lat="35.30730785553373" lon="10.672689924790909"><ele>110.25</ele><time>2026-04-05T10:21:52Z</time></trkpt><trkpt lat="35.307246681589206" lon="10.672855101281593"><ele>110.0</ele><time>2026-04-05T10:21:53Z</time></trkpt><trkpt lat="35.30718274607224" lon="10.673025013760816"><ele>109.66666666666666</ele><time>2026-04-05T10:21:54Z</time></trkpt><trkpt lat="35.30711747110531" lon="10.673195051219354"><ele>109.33333333333334</ele><time>2026-04-05T10:21:55Z</time></trkpt><trkpt lat="35.30705181718065" lon="10.67336698305411"><ele>109.0</ele><time>2026-04-05T10:21:56Z</time></trkpt><trkpt lat="35.30698731983347" lon="10.673541347524871"><ele>109.0</ele><time>2026-04-05T10:21:57Z</time></trkpt><trkpt lat="35.30692305231477" lon="10.673716307765618"><ele>109.0</ele><time>2026-04-05T10:21:58Z</time></trkpt><trkpt lat="35.30685813216551" lon="10.673893936531027"><ele>109.0</ele><time>2026-04-05T10:21:59Z</time></trkpt><trkpt lat="35.30679051232997" lon="10.674073465718873"><ele>109.0</ele><time>2026-04-05T10:22:00Z</time></trkpt><trkpt lat="35.30672094493086" lon="10.674255000541333"><ele>109.0</ele><time>2026-04-05T10:22:01Z</time></trkpt><trkpt lat="35.30664933629552" lon="10.674436622732777"><ele>109.0</ele><time>2026-04-05T10:22:02Z</time></trkpt><trkpt lat="35.30658273600909" lon="10.67462058611444"><ele>108.66666666666667</ele><time>2026-04-05T10:22:03Z</time></trkpt><trkpt lat="35.30651905936414" lon="10.67480567201721"><ele>108.33333333333334</ele><time>2026-04-05T10:22:04Z</time></trkpt><trkpt lat="35.30645245442788" lon="10.674987842500325"><ele>108.0</ele><time>2026-04-05T10:22:05Z</time></trkpt><trkpt lat="35.3063846700482" lon="10.675174531078241"><ele>108.66666666666666</ele><time>2026-04-05T10:22:06Z</time></trkpt><trkpt lat="35.306316266821206" lon="10.675354794657371"><ele>109.33333333333333</ele><time>2026-04-05T10:22:07Z</time></trkpt><trkpt lat="35.306244782476426" lon="10.675540442839393"><ele>110.0</ele><time>2026-04-05T10:22:08Z</time></trkpt><trkpt lat="35.30617313956492" lon="10.67572905593946"><ele>110.0</ele><time>2026-04-05T10:22:09Z</time></trkpt><trkpt lat="35.3061014268289" lon="10.675917258635264"><ele>110.0</ele><time>2026-04-05T10:22:10Z</time></trkpt><trkpt lat="35.30602313805192" lon="10.676107660826146"><ele>110.0</ele><time>2026-04-05T10:22:11Z</time></trkpt><trkpt lat="35.30594141646965" lon="10.676295184457421"><ele>110.33333333333333</ele><time>2026-04-05T10:22:12Z</time></trkpt><trkpt lat="35.30585717239542" lon="10.67647769954853"><ele>110.66666666666666</ele><time>2026-04-05T10:22:13Z</time></trkpt><trkpt lat="35.305768496147465" lon="10.67666121062373"><ele>111.0</ele><time>2026-04-05T10:22:14Z</time></trkpt><trkpt lat="35.305674477333795" lon="10.676837085774643"><ele>111.66666666666666</ele><time>2026-04-05T10:22:15Z</time></trkpt><trkpt lat="35.30557763467155" lon="10.677008613734444"><ele>112.33333333333333</ele><time>2026-04-05T10:22:16Z</time></trkpt><trkpt lat="35.30548102322963" lon="10.677179668038287"><ele>113.0</ele><time>2026-04-05T10:22:17Z</time></trkpt><trkpt lat="35.30538164155111" lon="10.677349835650187"><ele>113.0</ele><time>2026-04-05T10:22:18Z</time></trkpt><trkpt lat="35.30528505316769" lon="10.677523834692256"><ele>113.0</ele><time>2026-04-05T10:22:19Z</time></trkpt><trkpt lat="35.3051872813509" lon="10.677696766311259"><ele>113.0</ele><time>2026-04-05T10:22:20Z</time></trkpt><trkpt lat="35.30508992265443" lon="10.677871806260615"><ele>112.33333333333333</ele><time>2026-04-05T10:22:21Z</time></trkpt><trkpt lat="35.30499456245824" lon="10.678036109396738"><ele>111.66666666666666</ele><time>2026-04-05T10:22:22Z</time></trkpt><trkpt lat="35.30491010065378" lon="10.678195471149166"><ele>111.0</ele><time>2026-04-05T10:22:23Z</time></trkpt><trkpt lat="35.30482421517715" lon="10.678349178055324"><ele>111.0</ele><time>2026-04-05T10:22:24Z</time></trkpt><trkpt lat="35.30474538140353" lon="10.678489657213614"><ele>111.0</ele><time>2026-04-05T10:22:25Z</time></trkpt><trkpt lat="35.30466808737484" lon="10.678627697143977"><ele>111.0</ele><time>2026-04-05T10:22:26Z</time></trkpt><trkpt lat="35.30459656373674" lon="10.678750974609606"><ele>111.0</ele><time>2026-04-05T10:22:27Z</time></trkpt><trkpt lat="35.304528491061966" lon="10.678870974705324"><ele>112.5</ele><time>2026-04-05T10:22:28Z</time></trkpt><trkpt lat="35.304461854623575" lon="10.678992398746743"><ele>114.0</ele><time>2026-04-05T10:22:29Z</time></trkpt><trkpt lat="35.304394383671315" lon="10.679118029786597"><ele>115.5</ele><time>2026-04-05T10:22:30Z</time></trkpt><trkpt lat="35.30432775205362" lon="10.679241936422189"><ele>117.0</ele><time>2026-04-05T10:22:31Z</time></trkpt><trkpt lat="35.304259021295955" lon="10.679368809776726"><ele>116.5</ele><time>2026-04-05T10:22:32Z</time></trkpt><trkpt lat="35.30418770094898" lon="10.67950078764085"><ele>116.0</ele><time>2026-04-05T10:22:33Z</time></trkpt><trkpt lat="35.3041129427334" lon="10.679637205719287"><ele>115.5</ele><time>2026-04-05T10:22:34Z</time></trkpt><trkpt lat="35.30403733675531" lon="10.679776132333071"><ele>115.0</ele><time>2026-04-05T10:22:35Z</time></trkpt><trkpt lat="35.30396266793382" lon="10.679906932179987"><ele>115.0</ele><time>2026-04-05T10:22:36Z</time></trkpt><trkpt lat="35.30389631723762" lon="10.680028955787344"><ele>115.0</ele><time>2026-04-05T10:22:37Z</time></trkpt><trkpt lat="35.30382914059119" lon="10.680152413920778"><ele>115.0</ele><time>2026-04-05T10:22:38Z</time></trkpt><trkpt lat="35.30375708931385" lon="10.680279531750678"><ele>115.0</ele><time>2026-04-05T10:22:39Z</time></trkpt><trkpt lat="35.30368621845969" lon="10.680406739094888"><ele>115.0</ele><time>2026-04-05T10:22:40Z</time></trkpt><trkpt lat="35.303613557601324" lon="10.680536662300234"><ele>115.0</ele><time>2026-04-05T10:22:41Z</time></trkpt><trkpt lat="35.303544203531885" lon="10.680666094128524"><ele>115.0</ele><time>2026-04-05T10:22:42Z</time></trkpt><trkpt lat="35.30347321054687" lon="10.680803699379133"><ele>115.0</ele><time>2026-04-05T10:22:43Z</time></trkpt><trkpt lat="35.303396860388425" lon="10.680948356954055"><ele>115.0</ele><time>2026-04-05T10:22:44Z</time></trkpt><trkpt lat="35.303319213929505" lon="10.681098125694419"><ele>115.0</ele><time>2026-04-05T10:22:45Z</time></trkpt><trkpt lat="35.30324413024262" lon="10.681257186911877"><ele>115.0</ele><time>2026-04-05T10:22:46Z</time></trkpt><trkpt lat="35.303172786793404" lon="10.681421079491198"><ele>115.0</ele><time>2026-04-05T10:22:47Z</time></trkpt><trkpt lat="35.30310599641102" lon="10.6815823801311"><ele>114.75</ele><time>2026-04-05T10:22:48Z</time></trkpt><trkpt lat="35.303036447900105" lon="10.681744377354917"><ele>114.5</ele><time>2026-04-05T10:22:49Z</time></trkpt><trkpt lat="35.30296547033999" lon="10.681903687567106"><ele>114.25</ele><time>2026-04-05T10:22:50Z</time></trkpt><trkpt lat="35.30289851841255" lon="10.682059908405625"><ele>114.0</ele><time>2026-04-05T10:22:51Z</time></trkpt><trkpt lat="35.302833514516735" lon="10.68220371922718"><ele>114.0</ele><time>2026-04-05T10:22:52Z</time></trkpt><trkpt lat="35.302769043364016" lon="10.682351007265913"><ele>114.0</ele><time>2026-04-05T10:22:53Z</time></trkpt><trkpt lat="35.30270379828132" lon="10.682502785216789"><ele>114.0</ele><time>2026-04-05T10:22:54Z</time></trkpt><trkpt lat="35.30263871203434" lon="10.682654862519007"><ele>114.0</ele><time>2026-04-05T10:22:55Z</time></trkpt><trkpt lat="35.30257243350675" lon="10.68280873081911"><ele>114.5</ele><time>2026-04-05T10:22:56Z</time></trkpt><trkpt lat="35.30250365608418" lon="10.682961936364006"><ele>115.0</ele><time>2026-04-05T10:22:57Z</time></trkpt><trkpt lat="35.30243770510719" lon="10.683109759236784"><ele>115.5</ele><time>2026-04-05T10:22:58Z</time></trkpt><trkpt lat="35.3023808509879" lon="10.683248321572446"><ele>116.0</ele><time>2026-04-05T10:22:59Z</time></trkpt><trkpt lat="35.302326877490884" lon="10.683378039788382"><ele>116.0</ele><time>2026-04-05T10:23:00Z</time></trkpt><trkpt lat="35.30227331392095" lon="10.683500528467334"><ele>116.0</ele><time>2026-04-05T10:23:01Z</time></trkpt><trkpt lat="35.302219064739816" lon="10.683619656440856"><ele>116.0</ele><time>2026-04-05T10:23:02Z</time></trkpt><trkpt lat="35.302166627496604" lon="10.683735004989714"><ele>116.0</ele><time>2026-04-05T10:23:03Z</time></trkpt><trkpt lat="35.30211813774355" lon="10.683848568425296"><ele>116.0</ele><time>2026-04-05T10:23:04Z</time></trkpt><trkpt lat="35.30207178456294" lon="10.683958738702703"><ele>115.4</ele><time>2026-04-05T10:23:05Z</time></trkpt><trkpt lat="35.302021571749485" lon="10.684068952158519"><ele>114.8</ele><time>2026-04-05T10:23:06Z</time></trkpt><trkpt lat="35.30197643809399" lon="10.68417330550152"><ele>114.20000000000002</ele><time>2026-04-05T10:23:07Z</time></trkpt><trkpt lat="35.30193318616748" lon="10.684277288881967"><ele>113.60000000000001</ele><time>2026-04-05T10:23:08Z</time></trkpt><trkpt lat="35.30189081379327" lon="10.684374116300285"><ele>113.0</ele><time>2026-04-05T10:23:09Z</time></trkpt><trkpt lat="35.301847641731435" lon="10.684470112590072"><ele>112.80000000000001</ele><time>2026-04-05T10:23:10Z</time></trkpt><trkpt lat="35.3018047361251" lon="10.68456524818545"><ele>112.60000000000001</ele><time>2026-04-05T10:23:11Z</time></trkpt><trkpt lat="35.30176052837845" lon="10.684667027060263"><ele>112.39999999999999</ele><time>2026-04-05T10:23:12Z</time></trkpt><trkpt lat="35.30171437918619" lon="10.684775423389421"><ele>112.19999999999999</ele><time>2026-04-05T10:23:13Z</time></trkpt><trkpt lat="35.30167068850771" lon="10.684881186736705"><ele>112.0</ele><time>2026-04-05T10:23:14Z</time></trkpt><trkpt lat="35.301625994036655" lon="10.684992446820367"><ele>112.0</ele><time>2026-04-05T10:23:15Z</time></trkpt><trkpt lat="35.301581870360124" lon="10.685103902008455"><ele>111.99999999999999</ele><time>2026-04-05T10:23:16Z</time></trkpt><trkpt lat="35.30154122462204" lon="10.685220975173761"><ele>111.99999999999999</ele><time>2026-04-05T10:23:17Z</time></trkpt><trkpt lat="35.30150651361576" lon="10.685340016187757"><ele>112.0</ele><time>2026-04-05T10:23:18Z</time></trkpt><trkpt lat="35.30147402540944" lon="10.685453352947324"><ele>112.0</ele><time>2026-04-05T10:23:19Z</time></trkpt><trkpt lat="35.30144332726988" lon="10.685563326758912"><ele>111.6</ele><time>2026-04-05T10:23:20Z</time></trkpt><trkpt lat="35.301413045673876" lon="10.685679589513489"><ele>111.19999999999999</ele><time>2026-04-05T10:23:21Z</time></trkpt><trkpt lat="35.301381116470225" lon="10.685796687637929"><ele>110.8</ele><time>2026-04-05T10:23:22Z</time></trkpt><trkpt lat="35.30135691211909" lon="10.685915841217872"><ele>110.4</ele><time>2026-04-05T10:23:23Z</time></trkpt><trkpt lat="35.30133716049896" lon="10.686033632160752"><ele>110.0</ele><time>2026-04-05T10:23:24Z</time></trkpt><trkpt lat="35.301311977749286" lon="10.686149988276462"><ele>110.0</ele><time>2026-04-05T10:23:25Z</time></trkpt><trkpt lat="35.30128346617189" lon="10.686265721314626"><ele>110.0</ele><time>2026-04-05T10:23:26Z</time></trkpt><trkpt lat="35.30125786238383" lon="10.686381023160067"><ele>110.0</ele><time>2026-04-05T10:23:27Z</time></trkpt><trkpt lat="35.301235690152645" lon="10.686490018272783"><ele>110.0</ele><time>2026-04-05T10:23:28Z</time></trkpt><trkpt lat="35.301210211030586" lon="10.686590560386124"><ele>110.0</ele><time>2026-04-05T10:23:29Z</time></trkpt><trkpt lat="35.30118389016243" lon="10.68669417330913"><ele>110.0</ele><time>2026-04-05T10:23:30Z</time></trkpt><trkpt lat="35.30116079015871" lon="10.6867989883388"><ele>110.0</ele><time>2026-04-05T10:23:31Z</time></trkpt><trkpt lat="35.30113402805168" lon="10.686909582562386"><ele>110.0</ele><time>2026-04-05T10:23:32Z</time></trkpt><trkpt lat="35.301107437183155" lon="10.687021147734217"><ele>110.0</ele><time>2026-04-05T10:23:33Z</time></trkpt><trkpt lat="35.30108425227679" lon="10.687131653177467"><ele>110.0</ele><time>2026-04-05T10:23:33.999Z</time></trkpt><trkpt lat="35.30106310870193" lon="10.687232578258486"><ele>109.49999999999999</ele><time>2026-04-05T10:23:34.999Z</time></trkpt><trkpt lat="35.30103732342747" lon="10.687334027285095"><ele>109.0</ele><time>2026-04-05T10:23:35.999Z</time></trkpt><trkpt lat="35.301010927630884" lon="10.687436880344881"><ele>108.5</ele><time>2026-04-05T10:23:36.999Z</time></trkpt><trkpt lat="35.300986914187426" lon="10.687539044774256"><ele>108.0</ele><time>2026-04-05T10:23:37.999Z</time></trkpt><trkpt lat="35.30096397786692" lon="10.68763723643251"><ele>107.49999999999999</ele><time>2026-04-05T10:23:38.999Z</time></trkpt><trkpt lat="35.300940438985485" lon="10.687736961713217"><ele>107.0</ele><time>2026-04-05T10:23:39.999Z</time></trkpt><trkpt lat="35.30091620416245" lon="10.687832394825087"><ele>106.99999999999999</ele><time>2026-04-05T10:23:40.999Z</time></trkpt><trkpt lat="35.3008939074979" lon="10.687923579668253"><ele>107.0</ele><time>2026-04-05T10:23:41.999Z</time></trkpt><trkpt lat="35.300876340598876" lon="10.688023293251035"><ele>107.0</ele><time>2026-04-05T10:23:42.999Z</time></trkpt><trkpt lat="35.300856922898525" lon="10.688127739606411"><ele>107.0</ele><time>2026-04-05T10:23:43.999Z</time></trkpt><trkpt lat="35.300836729204995" lon="10.688233517177938"><ele>106.99999999999999</ele><time>2026-04-05T10:23:44.999Z</time></trkpt><trkpt lat="35.300813531392556" lon="10.688340370026447"><ele>107.0</ele><time>2026-04-05T10:23:45.999Z</time></trkpt><trkpt lat="35.300786857815545" lon="10.68845128431385"><ele>106.99999999999999</ele><time>2026-04-05T10:23:46.999Z</time></trkpt><trkpt lat="35.30076093905895" lon="10.688558127789305"><ele>107.0</ele><time>2026-04-05T10:23:47.999Z</time></trkpt><trkpt lat="35.30073774289764" lon="10.688662481285183"><ele>107.0</ele><time>2026-04-05T10:23:48.999Z</time></trkpt><trkpt lat="35.30071734812572" lon="10.688755742866782"><ele>107.0</ele><time>2026-04-05T10:23:49.999Z</time></trkpt><trkpt lat="35.30069857790945" lon="10.688846749254385"><ele>106.99999999999999</ele><time>2026-04-05T10:23:50.999Z</time></trkpt><trkpt lat="35.30068033342749" lon="10.688933110891861"><ele>107.0</ele><time>2026-04-05T10:23:51.999Z</time></trkpt><trkpt lat="35.30066012236273" lon="10.689015786276586"><ele>107.00000000000001</ele><time>2026-04-05T10:23:52.999Z</time></trkpt><trkpt lat="35.3006404917202" lon="10.689089264503451"><ele>107.0</ele><time>2026-04-05T10:23:53.999Z</time></trkpt><trkpt lat="35.300619986269055" lon="10.68916338829729"><ele>107.0</ele><time>2026-04-05T10:23:55Z</time></trkpt><trkpt lat="35.3005996347508" lon="10.6892394571786"><ele>107.0</ele><time>2026-04-05T10:23:56Z</time></trkpt><trkpt lat="35.30057965777654" lon="10.689319012326598"><ele>107.0</ele><time>2026-04-05T10:23:57Z</time></trkpt><trkpt lat="35.30056170202693" lon="10.68940475290679"><ele>107.00000000000001</ele><time>2026-04-05T10:23:58Z</time></trkpt><trkpt lat="35.30054166745815" lon="10.689491247276239"><ele>107.0</ele><time>2026-04-05T10:23:59Z</time></trkpt><trkpt lat="35.30052176678643" lon="10.689570731797078"><ele>107.0</ele><time>2026-04-05T10:24:00Z</time></trkpt><trkpt lat="35.30048831031667" lon="10.689718630808882"><ele>107.0</ele><time>2026-04-05T10:24:02Z</time></trkpt><trkpt lat="35.300450572050856" lon="10.689861025156672"><ele>107.0</ele><time>2026-04-05T10:24:04Z</time></trkpt><trkpt lat="35.30042185158715" lon="10.690001893806487"><ele>107.0</ele><time>2026-04-05T10:24:06Z</time></trkpt><trkpt lat="35.300361755453366" lon="10.69013264211749"><ele>107.0</ele><time>2026-04-05T10:24:08Z</time></trkpt><trkpt lat="35.300313704716075" lon="10.690232892068991"><ele>106.99999999999999</ele><time>2026-04-05T10:24:10Z</time></trkpt><trkpt lat="35.30028447226924" lon="10.690315782734253"><ele>106.99999999999999</ele><time>2026-04-05T10:24:12Z</time></trkpt><trkpt lat="35.300241990329944" lon="10.69042778472715"><ele>107.0</ele><time>2026-04-05T10:24:14Z</time></trkpt><trkpt lat="35.300256292376474" lon="10.690552275544338"><ele>107.0</ele><time>2026-04-05T10:24:16Z</time></trkpt><trkpt lat="35.30033703199714" lon="10.690598559653433"><ele>107.39999999999999</ele><time>2026-04-05T10:24:18Z</time></trkpt><trkpt lat="35.300432516672" lon="10.690569086891141"><ele>107.79999999999998</ele><time>2026-04-05T10:24:20Z</time></trkpt><trkpt lat="35.30053753540314" lon="10.69052982059023"><ele>108.2</ele><time>2026-04-05T10:24:22Z</time></trkpt><trkpt lat="35.30065163660972" lon="10.690500106129022"><ele>108.6</ele><time>2026-04-05T10:24:24Z</time></trkpt><trkpt lat="35.30074059019024" lon="10.690479534103105"><ele>109.0</ele><time>2026-04-05T10:24:26Z</time></trkpt><trkpt lat="35.30082747786474" lon="10.690470034153613"><ele>108.33333333333334</ele><time>2026-04-05T10:24:28Z</time></trkpt><trkpt lat="35.30092100696082" lon="10.690460949717783"><ele>107.66666666666667</ele><time>2026-04-05T10:24:30Z</time></trkpt><trkpt lat="35.301037348240754" lon="10.69045470467966"><ele>107.0</ele><time>2026-04-05T10:24:32Z</time></trkpt><trkpt lat="35.30110040692858" lon="10.690458443636972"><ele>106.33333333333334</ele><time>2026-04-05T10:24:33Z</time></trkpt><trkpt lat="35.301163641417624" lon="10.690462585970394"><ele>105.66666666666667</ele><time>2026-04-05T10:24:34Z</time></trkpt><trkpt lat="35.30122696192863" lon="10.690466334981403"><ele>105.0</ele><time>2026-04-05T10:24:35Z</time></trkpt><trkpt lat="35.30129082955338" lon="10.690469513481228"><ele>105.0</ele><time>2026-04-05T10:24:36Z</time></trkpt><trkpt lat="35.3013543411663" lon="10.69047105533613"><ele>105.0</ele><time>2026-04-05T10:24:37Z</time></trkpt><trkpt lat="35.301419388335425" lon="10.690473757445718"><ele>105.0</ele><time>2026-04-05T10:24:38Z</time></trkpt><trkpt lat="35.30148513606808" lon="10.690477184069504"><ele>105.0</ele><time>2026-04-05T10:24:39Z</time></trkpt><trkpt lat="35.30155056344296" lon="10.690479823740812"><ele>105.0</ele><time>2026-04-05T10:24:40Z</time></trkpt><trkpt lat="35.301617447119604" lon="10.690482001149284"><ele>105.0</ele><time>2026-04-05T10:24:41Z</time></trkpt><trkpt lat="35.301681233242626" lon="10.690490355070175"><ele>105.0</ele><time>2026-04-05T10:24:42Z</time></trkpt><trkpt lat="35.301745540003665" lon="10.69050032716501"><ele>105.16666666666667</ele><time>2026-04-05T10:24:43Z</time></trkpt><trkpt lat="35.301810171757445" lon="10.69050884017155"><ele>105.33333333333334</ele><time>2026-04-05T10:24:44Z</time></trkpt><trkpt lat="35.30187402969707" lon="10.690511749368543"><ele>105.5</ele><time>2026-04-05T10:24:45Z</time></trkpt><trkpt lat="35.301939199657106" lon="10.690516738088402"><ele>105.66666666666667</ele><time>2026-04-05T10:24:46Z</time></trkpt><trkpt lat="35.30200319379241" lon="10.69052579622856"><ele>105.83333333333334</ele><time>2026-04-05T10:24:47Z</time></trkpt><trkpt lat="35.302066831013825" lon="10.690536713594662"><ele>106.0</ele><time>2026-04-05T10:24:48Z</time></trkpt><trkpt lat="35.302193322044324" lon="10.690555755612822"><ele>105.85714285714286</ele><time>2026-04-05T10:24:50Z</time></trkpt><trkpt lat="35.30225898119244" lon="10.69056792235489"><ele>105.71428571428571</ele><time>2026-04-05T10:24:51Z</time></trkpt><trkpt lat="35.302324298131026" lon="10.69057978933571"><ele>105.57142857142857</ele><time>2026-04-05T10:24:52Z</time></trkpt><trkpt lat="35.302390523431214" lon="10.690594834565593"><ele>105.42857142857143</ele><time>2026-04-05T10:24:53Z</time></trkpt><trkpt lat="35.30245844632289" lon="10.690609159866886"><ele>105.28571428571428</ele><time>2026-04-05T10:24:54Z</time></trkpt><trkpt lat="35.30252672530676" lon="10.69062348328783"><ele>105.14285714285714</ele><time>2026-04-05T10:24:55Z</time></trkpt><trkpt lat="35.30259390936439" lon="10.690642065293186"><ele>105.0</ele><time>2026-04-05T10:24:56Z</time></trkpt><trkpt lat="35.302664053813196" lon="10.690662121216887"><ele>105.0</ele><time>2026-04-05T10:24:57Z</time></trkpt><trkpt lat="35.302736106601856" lon="10.690680229605084"><ele>105.0</ele><time>2026-04-05T10:24:58Z</time></trkpt><trkpt lat="35.30281069806575" lon="10.690697102378813"><ele>105.0</ele><time>2026-04-05T10:24:59Z</time></trkpt><trkpt lat="35.302885817481595" lon="10.690715499888292"><ele>105.0</ele><time>2026-04-05T10:25:00Z</time></trkpt><trkpt lat="35.302961162850515" lon="10.69073724115402"><ele>105.0</ele><time>2026-04-05T10:25:01Z</time></trkpt><trkpt lat="35.30303766335035" lon="10.690760118923938"><ele>105.0</ele><time>2026-04-05T10:25:02Z</time></trkpt><trkpt lat="35.30311501771437" lon="10.690782545082818"><ele>104.66666666666667</ele><time>2026-04-05T10:25:03Z</time></trkpt><trkpt lat="35.30319424294872" lon="10.690806558713447"><ele>104.33333333333334</ele><time>2026-04-05T10:25:04Z</time></trkpt><trkpt lat="35.30327555521818" lon="10.690829669845035"><ele>104.0</ele><time>2026-04-05T10:25:05Z</time></trkpt><trkpt lat="35.30335601490044" lon="10.69085265149353"><ele>103.66666666666667</ele><time>2026-04-05T10:25:06Z</time></trkpt><trkpt lat="35.30343387087158" lon="10.690884979490377"><ele>103.33333333333334</ele><time>2026-04-05T10:25:07Z</time></trkpt><trkpt lat="35.303512637053885" lon="10.690914634987081"><ele>103.0</ele><time>2026-04-05T10:25:08Z</time></trkpt><trkpt lat="35.3035913693885" lon="10.690940921551862"><ele>103.00000000000001</ele><time>2026-04-05T10:25:09Z</time></trkpt><trkpt lat="35.3036685512882" lon="10.690969099771328"><ele>103.0</ele><time>2026-04-05T10:25:10Z</time></trkpt><trkpt lat="35.30374441571343" lon="10.691001468806343"><ele>103.0</ele><time>2026-04-05T10:25:11Z</time></trkpt><trkpt lat="35.30382116593509" lon="10.691032764033833"><ele>103.0</ele><time>2026-04-05T10:25:12Z</time></trkpt><trkpt lat="35.303896743109156" lon="10.691063798296144"><ele>103.00000000000001</ele><time>2026-04-05T10:25:13Z</time></trkpt><trkpt lat="35.30397464964736" lon="10.691099728585057"><ele>103.0</ele><time>2026-04-05T10:25:14Z</time></trkpt><trkpt lat="35.30405025416137" lon="10.691140937794657"><ele>102.80000000000001</ele><time>2026-04-05T10:25:15Z</time></trkpt><trkpt lat="35.304132753321845" lon="10.691180639089168"><ele>102.6</ele><time>2026-04-05T10:25:16Z</time></trkpt><trkpt lat="35.30422812955694" lon="10.691224416496837"><ele>102.4</ele><time>2026-04-05T10:25:17Z</time></trkpt><trkpt lat="35.30433196403315" lon="10.691271813465153"><ele>102.19999999999999</ele><time>2026-04-05T10:25:18Z</time></trkpt><trkpt lat="35.30444019644628" lon="10.691328158328648"><ele>102.0</ele><time>2026-04-05T10:25:19Z</time></trkpt><trkpt lat="35.3045487800749" lon="10.69138899802769"><ele>102.0</ele><time>2026-04-05T10:25:20Z</time></trkpt><trkpt lat="35.30465739363971" lon="10.691451608318884"><ele>102.0</ele><time>2026-04-05T10:25:21Z</time></trkpt><trkpt lat="35.30476974601457" lon="10.691518488701918"><ele>102.0</ele><time>2026-04-05T10:25:22Z</time></trkpt><trkpt lat="35.304880396733665" lon="10.69158737248161"><ele>102.0</ele><time>2026-04-05T10:25:23Z</time></trkpt><trkpt lat="35.304992445593115" lon="10.691654270735736"><ele>102.5</ele><time>2026-04-05T10:25:24Z</time></trkpt><trkpt lat="35.30510503171293" lon="10.691717985756748"><ele>103.0</ele><time>2026-04-05T10:25:25Z</time></trkpt><trkpt lat="35.305214627975225" lon="10.69178375912419"><ele>103.5</ele><time>2026-04-05T10:25:26Z</time></trkpt><trkpt lat="35.3053239493538" lon="10.691853069694627"><ele>104.0</ele><time>2026-04-05T10:25:27Z</time></trkpt><trkpt lat="35.30543140380023" lon="10.691922060558221"><ele>103.5</ele><time>2026-04-05T10:25:28Z</time></trkpt><trkpt lat="35.3055379684835" lon="10.691988297853737"><ele>103.0</ele><time>2026-04-05T10:25:29Z</time></trkpt><trkpt lat="35.30564250307826" lon="10.69205303259307"><ele>102.5</ele><time>2026-04-05T10:25:30Z</time></trkpt><trkpt lat="35.305743353124974" lon="10.692125782115085"><ele>102.0</ele><time>2026-04-05T10:25:31Z</time></trkpt><trkpt lat="35.30584575040457" lon="10.692193671033628"><ele>101.5</ele><time>2026-04-05T10:25:32Z</time></trkpt><trkpt lat="35.305948860783694" lon="10.692261075449824"><ele>101.0</ele><time>2026-04-05T10:25:33Z</time></trkpt><trkpt lat="35.30605250393673" lon="10.692329879762319"><ele>100.5</ele><time>2026-04-05T10:25:34Z</time></trkpt><trkpt lat="35.30615597387229" lon="10.692399689365795"><ele>100.0</ele><time>2026-04-05T10:25:35Z</time></trkpt><trkpt lat="35.30625968581579" lon="10.692467666252112"><ele>100.0</ele><time>2026-04-05T10:25:36Z</time></trkpt><trkpt lat="35.30635856507206" lon="10.692536461658602"><ele>100.0</ele><time>2026-04-05T10:25:37Z</time></trkpt><trkpt lat="35.306456242500246" lon="10.692606238563013"><ele>100.0</ele><time>2026-04-05T10:25:38Z</time></trkpt><trkpt lat="35.30655532489193" lon="10.692678823363673"><ele>100.0</ele><time>2026-04-05T10:25:39Z</time></trkpt><trkpt lat="35.30665691053757" lon="10.692748526426072"><ele>101.25</ele><time>2026-04-05T10:25:40Z</time></trkpt><trkpt lat="35.30676100818483" lon="10.692811053853225"><ele>102.5</ele><time>2026-04-05T10:25:41Z</time></trkpt><trkpt lat="35.30686279495886" lon="10.692875683263816"><ele>103.75</ele><time>2026-04-05T10:25:42Z</time></trkpt><trkpt lat="35.30696483380037" lon="10.692941406949513"><ele>105.0</ele><time>2026-04-05T10:25:43Z</time></trkpt><trkpt lat="35.30706716707502" lon="10.693010008303366"><ele>105.0</ele><time>2026-04-05T10:25:44Z</time></trkpt><trkpt lat="35.30716714233568" lon="10.693079019525165"><ele>105.0</ele><time>2026-04-05T10:25:45Z</time></trkpt><trkpt lat="35.30726935192494" lon="10.693148893060773"><ele>105.0</ele><time>2026-04-05T10:25:46Z</time></trkpt><trkpt lat="35.307369687587666" lon="10.693219320841756"><ele>105.0</ele><time>2026-04-05T10:25:46.999Z</time></trkpt><trkpt lat="35.30747142446161" lon="10.693288715077136"><ele>104.5</ele><time>2026-04-05T10:25:47.999Z</time></trkpt><trkpt lat="35.307573525793046" lon="10.693355132371755"><ele>104.0</ele><time>2026-04-05T10:25:48.999Z</time></trkpt><trkpt lat="35.30767672438972" lon="10.693420416836878"><ele>103.5</ele><time>2026-04-05T10:25:49.999Z</time></trkpt><trkpt lat="35.30777874655013" lon="10.693487929048134"><ele>103.0</ele><time>2026-04-05T10:25:50.999Z</time></trkpt><trkpt lat="35.307879769890775" lon="10.693555121172228"><ele>103.0</ele><time>2026-04-05T10:25:51.999Z</time></trkpt><trkpt lat="35.30798193041742" lon="10.693622366136115"><ele>103.0</ele><time>2026-04-05T10:25:52.999Z</time></trkpt><trkpt lat="35.308083398846485" lon="10.693690386626379"><ele>103.0</ele><time>2026-04-05T10:25:53.999Z</time></trkpt><trkpt lat="35.308186651201225" lon="10.693757785659795"><ele>103.0</ele><time>2026-04-05T10:25:54.999Z</time></trkpt><trkpt lat="35.30828657861876" lon="10.693827024261367"><ele>103.0</ele><time>2026-04-05T10:25:55.999Z</time></trkpt><trkpt lat="35.30838718301516" lon="10.69389561341454"><ele>103.0</ele><time>2026-04-05T10:25:56.999Z</time></trkpt><trkpt lat="35.30848717415428" lon="10.693965120711624"><ele>103.0</ele><time>2026-04-05T10:25:57.999Z</time></trkpt><trkpt lat="35.30858741650728" lon="10.69403501817267"><ele>103.0</ele><time>2026-04-05T10:25:58.999Z</time></trkpt><trkpt lat="35.30868671306138" lon="10.694103458178896"><ele>103.0</ele><time>2026-04-05T10:25:59.999Z</time></trkpt><trkpt lat="35.308789308810134" lon="10.694168742223932"><ele>103.0</ele><time>2026-04-05T10:26:01Z</time></trkpt><trkpt lat="35.308891526284725" lon="10.694232135161123"><ele>103.0</ele><time>2026-04-05T10:26:02Z</time></trkpt><trkpt lat="35.308994040979464" lon="10.694297574718426"><ele>103.0</ele><time>2026-04-05T10:26:03Z</time></trkpt><trkpt lat="35.30909557832834" lon="10.69436450771813"><ele>104.0</ele><time>2026-04-05T10:26:04Z</time></trkpt><trkpt lat="35.30919679331957" lon="10.694434859558557"><ele>105.0</ele><time>2026-04-05T10:26:05Z</time></trkpt><trkpt lat="35.30929648585711" lon="10.694503616012714"><ele>106.0</ele><time>2026-04-05T10:26:06Z</time></trkpt><trkpt lat="35.309397424534154" lon="10.694572423088024"><ele>107.0</ele><time>2026-04-05T10:26:07Z</time></trkpt><trkpt lat="35.30949984203627" lon="10.69464086486072"><ele>107.0</ele><time>2026-04-05T10:26:08Z</time></trkpt><trkpt lat="35.30960032123901" lon="10.694709415562619"><ele>107.0</ele><time>2026-04-05T10:26:09Z</time></trkpt><trkpt lat="35.30970187945864" lon="10.694777473230898"><ele>107.0</ele><time>2026-04-05T10:26:10Z</time></trkpt><trkpt lat="35.309811953027925" lon="10.69484835822624"><ele>107.0</ele><time>2026-04-05T10:26:11Z</time></trkpt><trkpt lat="35.30992006291911" lon="10.694913868872144"><ele>106.5</ele><time>2026-04-05T10:26:12Z</time></trkpt><trkpt lat="35.310024598628885" lon="10.694983700158478"><ele>106.0</ele><time>2026-04-05T10:26:13Z</time></trkpt><trkpt lat="35.31012890354931" lon="10.695053528812346"><ele>105.5</ele><time>2026-04-05T10:26:14Z</time></trkpt><trkpt lat="35.310239173420925" lon="10.695124490373718"><ele>105.0</ele><time>2026-04-05T10:26:15Z</time></trkpt><trkpt lat="35.31035735310293" lon="10.695195741527598"><ele>105.0</ele><time>2026-04-05T10:26:16Z</time></trkpt><trkpt lat="35.31047866335747" lon="10.695263877232383"><ele>105.0</ele><time>2026-04-05T10:26:17Z</time></trkpt><trkpt lat="35.3106084938981" lon="10.69534103513002"><ele>105.0</ele><time>2026-04-05T10:26:18Z</time></trkpt><trkpt lat="35.31074630286417" lon="10.695417820991667"><ele>105.0</ele><time>2026-04-05T10:26:19Z</time></trkpt><trkpt lat="35.310885219405954" lon="10.695488879301994"><ele>105.0</ele><time>2026-04-05T10:26:20Z</time></trkpt><trkpt lat="35.31102789789077" lon="10.695558939591546"><ele>105.0</ele><time>2026-04-05T10:26:21Z</time></trkpt><trkpt lat="35.31117092123359" lon="10.695624827707707"><ele>105.0</ele><time>2026-04-05T10:26:22Z</time></trkpt><trkpt lat="35.31131601142293" lon="10.695685755751102"><ele>105.33333333333334</ele><time>2026-04-05T10:26:23Z</time></trkpt><trkpt lat="35.31146386794381" lon="10.695738472280022"><ele>105.66666666666667</ele><time>2026-04-05T10:26:24Z</time></trkpt><trkpt lat="35.311614212000755" lon="10.69578196029519"><ele>106.0</ele><time>2026-04-05T10:26:25Z</time></trkpt><trkpt lat="35.31176127066846" lon="10.695820329540085"><ele>106.0</ele><time>2026-04-05T10:26:26Z</time></trkpt><trkpt lat="35.311907023813" lon="10.695858222935017"><ele>106.0</ele><time>2026-04-05T10:26:27Z</time></trkpt><trkpt lat="35.31204865577696" lon="10.695892684691994"><ele>106.0</ele><time>2026-04-05T10:26:28Z</time></trkpt><trkpt lat="35.31218865728542" lon="10.695922463096956"><ele>106.0</ele><time>2026-04-05T10:26:29Z</time></trkpt><trkpt lat="35.31232871521411" lon="10.695949838624697"><ele>105.25</ele><time>2026-04-05T10:26:30Z</time></trkpt><trkpt lat="35.312466306425264" lon="10.695971002309602"><ele>104.5</ele><time>2026-04-05T10:26:31Z</time></trkpt><trkpt lat="35.312607213784354" lon="10.695986366286094"><ele>103.75</ele><time>2026-04-05T10:26:32Z</time></trkpt><trkpt lat="35.312746053975566" lon="10.696000784085912"><ele>103.0</ele><time>2026-04-05T10:26:33Z</time></trkpt><trkpt lat="35.31288262374841" lon="10.696012488752842"><ele>103.0</ele><time>2026-04-05T10:26:34Z</time></trkpt><trkpt lat="35.31301730095283" lon="10.696018392694983"><ele>103.0</ele><time>2026-04-05T10:26:35Z</time></trkpt><trkpt lat="35.31315062719968" lon="10.69601692801927"><ele>103.0</ele><time>2026-04-05T10:26:36Z</time></trkpt><trkpt lat="35.31327598977902" lon="10.69601155559132"><ele>103.0</ele><time>2026-04-05T10:26:37Z</time></trkpt><trkpt lat="35.31338995793752" lon="10.69600495927596"><ele>103.0</ele><time>2026-04-05T10:26:38Z</time></trkpt><trkpt lat="35.31350070035092" lon="10.695999936828624"><ele>103.0</ele><time>2026-04-05T10:26:39Z</time></trkpt><trkpt lat="35.31361135583978" lon="10.695999029723867"><ele>103.0</ele><time>2026-04-05T10:26:40Z</time></trkpt><trkpt lat="35.31371638524632" lon="10.69599600310486"><ele>103.0</ele><time>2026-04-05T10:26:41Z</time></trkpt><trkpt lat="35.3137988449534" lon="10.695994499868641"><ele>103.0</ele><time>2026-04-05T10:26:42Z</time></trkpt><trkpt lat="35.31386334874216" lon="10.696003391226416"><ele>103.0</ele><time>2026-04-05T10:26:43Z</time></trkpt><trkpt lat="35.31396291064123" lon="10.696076681408126"><ele>103.0</ele><time>2026-04-05T10:26:45Z</time></trkpt><trkpt lat="35.313997783553184" lon="10.696195357066085"><ele>103.0</ele><time>2026-04-05T10:26:47Z</time></trkpt><trkpt lat="35.31397443624092" lon="10.696303600563867"><ele>103.0</ele><time>2026-04-05T10:26:49Z</time></trkpt><trkpt lat="35.31393295397071" lon="10.696384297587713"><ele>103.0</ele><time>2026-04-05T10:26:51Z</time></trkpt><trkpt lat="35.31387480060069" lon="10.696437384818166"><ele>103.00000000000001</ele><time>2026-04-05T10:26:53Z</time></trkpt><trkpt lat="35.313786160163446" lon="10.696489599848341"><ele>103.0</ele><time>2026-04-05T10:26:55Z</time></trkpt><trkpt lat="35.313683885616626" lon="10.696554172858608"><ele>103.0</ele><time>2026-04-05T10:26:57Z</time></trkpt><trkpt lat="35.31362593805081" lon="10.696586837322473"><ele>103.0</ele><time>2026-04-05T10:26:58Z</time></trkpt><trkpt lat="35.31356319008447" lon="10.696622744721216"><ele>103.00000000000001</ele><time>2026-04-05T10:26:59Z</time></trkpt><trkpt lat="35.31349848617797" lon="10.69666313098141"><ele>103.0</ele><time>2026-04-05T10:27:00Z</time></trkpt><trkpt lat="35.3134301878425" lon="10.696709172411701"><ele>103.00000000000001</ele><time>2026-04-05T10:27:01Z</time></trkpt><trkpt lat="35.31336069937816" lon="10.69675530922661"><ele>103.0</ele><time>2026-04-05T10:27:02Z</time></trkpt><trkpt lat="35.31328955538824" lon="10.69679742078753"><ele>103.0</ele><time>2026-04-05T10:27:03Z</time></trkpt><trkpt lat="35.313221186901856" lon="10.6968357744078"><ele>103.0</ele><time>2026-04-05T10:27:04Z</time></trkpt><trkpt lat="35.313161761502734" lon="10.696875556651658"><ele>103.00000000000001</ele><time>2026-04-05T10:27:05Z</time></trkpt><trkpt lat="35.313043644752675" lon="10.696943416127356"><ele>103.0</ele><time>2026-04-05T10:27:07Z</time></trkpt><trkpt lat="35.31298288395048" lon="10.696979667942129"><ele>103.50000000000001</ele><time>2026-04-05T10:27:08Z</time></trkpt><trkpt lat="35.31291907876431" lon="10.697017983686756"><ele>104.0</ele><time>2026-04-05T10:27:09Z</time></trkpt><trkpt lat="35.31285234636183" lon="10.697057496769723"><ele>104.5</ele><time>2026-04-05T10:27:10Z</time></trkpt><trkpt lat="35.3127837889712" lon="10.697101525144086"><ele>105.0</ele><time>2026-04-05T10:27:11Z</time></trkpt><trkpt lat="35.31271180333245" lon="10.697145171498075"><ele>105.50000000000001</ele><time>2026-04-05T10:27:12Z</time></trkpt><trkpt lat="35.31263825190867" lon="10.697187903034557"><ele>106.0</ele><time>2026-04-05T10:27:13Z</time></trkpt><trkpt lat="35.31256359322378" lon="10.69723269788591"><ele>106.00000000000001</ele><time>2026-04-05T10:27:14Z</time></trkpt><trkpt lat="35.312485706133785" lon="10.697278886372807"><ele>106.0</ele><time>2026-04-05T10:27:15Z</time></trkpt><trkpt lat="35.312409097907484" lon="10.69732770927783"><ele>106.0</ele><time>2026-04-05T10:27:16Z</time></trkpt><trkpt lat="35.312335162244246" lon="10.697374607196906"><ele>106.0</ele><time>2026-04-05T10:27:17Z</time></trkpt><trkpt lat="35.31227046710595" lon="10.697421762482014"><ele>106.00000000000001</ele><time>2026-04-05T10:27:18Z</time></trkpt><trkpt lat="35.312211797594266" lon="10.697456248824782"><ele>106.0</ele><time>2026-04-05T10:27:19Z</time></trkpt><trkpt lat="35.31209988927818" lon="10.697519023159133"><ele>106.00000000000001</ele><time>2026-04-05T10:27:21Z</time></trkpt><trkpt lat="35.311989687918754" lon="10.697585449777003"><ele>106.0</ele><time>2026-04-05T10:27:23Z</time></trkpt><trkpt lat="35.31192718020711" lon="10.697619718143624"><ele>106.0</ele><time>2026-04-05T10:27:24Z</time></trkpt><trkpt lat="35.3118598406484" lon="10.69765756466609"><ele>106.0</ele><time>2026-04-05T10:27:25Z</time></trkpt><trkpt lat="35.31179044327359" lon="10.69769959299338"><ele>106.00000000000001</ele><time>2026-04-05T10:27:26Z</time></trkpt><trkpt lat="35.311716333730004" lon="10.697750161898362"><ele>106.0</ele><time>2026-04-05T10:27:27Z</time></trkpt><trkpt lat="35.31164061696602" lon="10.697799681504918"><ele>106.0</ele><time>2026-04-05T10:27:28Z</time></trkpt><trkpt lat="35.31155850875702" lon="10.697846024076123"><ele>106.0</ele><time>2026-04-05T10:27:29Z</time></trkpt><trkpt lat="35.3114721058115" lon="10.697891492112273"><ele>106.0</ele><time>2026-04-05T10:27:30Z</time></trkpt><trkpt lat="35.31138364055528" lon="10.69794257399049"><ele>106.0</ele><time>2026-04-05T10:27:31Z</time></trkpt><trkpt lat="35.31129754094666" lon="10.69799630952869"><ele>106.0</ele><time>2026-04-05T10:27:32Z</time></trkpt><trkpt lat="35.31120542610824" lon="10.698051952128152"><ele>105.8</ele><time>2026-04-05T10:27:33Z</time></trkpt><trkpt lat="35.311115014898476" lon="10.698105573575472"><ele>105.6</ele><time>2026-04-05T10:27:34Z</time></trkpt><trkpt lat="35.31102076198261" lon="10.698163246939815"><ele>105.4</ele><time>2026-04-05T10:27:35Z</time></trkpt><trkpt lat="35.31092639271946" lon="10.698220205891765"><ele>105.2</ele><time>2026-04-05T10:27:36Z</time></trkpt><trkpt lat="35.31082865114158" lon="10.698278135397048"><ele>105.0</ele><time>2026-04-05T10:27:37Z</time></trkpt><trkpt lat="35.31072842913666" lon="10.698339169560837"><ele>105.0</ele><time>2026-04-05T10:27:38Z</time></trkpt><trkpt lat="35.31062933828705" lon="10.698401522521591"><ele>105.0</ele><time>2026-04-05T10:27:39Z</time></trkpt><trkpt lat="35.310527660159416" lon="10.698465934275225"><ele>105.0</ele><time>2026-04-05T10:27:40Z</time></trkpt><trkpt lat="35.31042478359081" lon="10.69853005995601"><ele>105.0</ele><time>2026-04-05T10:27:41Z</time></trkpt><trkpt lat="35.31031906029772" lon="10.698589667896467"><ele>104.25</ele><time>2026-04-05T10:27:42Z</time></trkpt><trkpt lat="35.31021220548561" lon="10.698649521730538"><ele>103.5</ele><time>2026-04-05T10:27:43Z</time></trkpt><trkpt lat="35.310106722642594" lon="10.698711646214175"><ele>102.75</ele><time>2026-04-05T10:27:44Z</time></trkpt><trkpt lat="35.31000218605842" lon="10.698773521256673"><ele>102.0</ele><time>2026-04-05T10:27:45Z</time></trkpt><trkpt lat="35.30989815236893" lon="10.698836310932471"><ele>102.0</ele><time>2026-04-05T10:27:46Z</time></trkpt><trkpt lat="35.30979551381002" lon="10.698898453004743"><ele>102.0</ele><time>2026-04-05T10:27:47Z</time></trkpt><trkpt lat="35.30969347670436" lon="10.698963542023732"><ele>102.0</ele><time>2026-04-05T10:27:47.999Z</time></trkpt><trkpt lat="35.30959116972452" lon="10.699026102456392"><ele>102.0</ele><time>2026-04-05T10:27:48.999Z</time></trkpt><trkpt lat="35.3094950275829" lon="10.69908347628915"><ele>102.0</ele><time>2026-04-05T10:27:49.999Z</time></trkpt><trkpt lat="35.30940137077305" lon="10.699136195602557"><ele>102.0</ele><time>2026-04-05T10:27:50.999Z</time></trkpt><trkpt lat="35.30930856944265" lon="10.69919242308484"><ele>102.0</ele><time>2026-04-05T10:27:51.999Z</time></trkpt><trkpt lat="35.30921758685469" lon="10.699248154951896"><ele>102.0</ele><time>2026-04-05T10:27:52.999Z</time></trkpt><trkpt lat="35.30912709293535" lon="10.699301311477532"><ele>102.0</ele><time>2026-04-05T10:27:53.999Z</time></trkpt><trkpt lat="35.30903569097341" lon="10.699352666027721"><ele>102.0</ele><time>2026-04-05T10:27:54.999Z</time></trkpt><trkpt lat="35.30894147110865" lon="10.699405264563266"><ele>102.0</ele><time>2026-04-05T10:27:55.999Z</time></trkpt><trkpt lat="35.30885003869461" lon="10.699455168818577"><ele>102.0</ele><time>2026-04-05T10:27:56.999Z</time></trkpt><trkpt lat="35.30876240320189" lon="10.699499970641847"><ele>102.0</ele><time>2026-04-05T10:27:57.999Z</time></trkpt><trkpt lat="35.30868423803922" lon="10.699548130657458"><ele>102.0</ele><time>2026-04-05T10:27:58.999Z</time></trkpt><trkpt lat="35.308607901084265" lon="10.69959478371892"><ele>102.6</ele><time>2026-04-05T10:27:59.999Z</time></trkpt><trkpt lat="35.30853205415077" lon="10.699635142654097"><ele>103.19999999999999</ele><time>2026-04-05T10:28:00.999Z</time></trkpt><trkpt lat="35.30844996092808" lon="10.69968019274032"><ele>103.8</ele><time>2026-04-05T10:28:01.999Z</time></trkpt><trkpt lat="35.308370356816056" lon="10.699734388917724"><ele>104.4</ele><time>2026-04-05T10:28:02.999Z</time></trkpt><trkpt lat="35.308290612843365" lon="10.699797307519974"><ele>105.0</ele><time>2026-04-05T10:28:03.999Z</time></trkpt><trkpt lat="35.30820669183346" lon="10.699855985304062"><ele>105.0</ele><time>2026-04-05T10:28:04.999Z</time></trkpt><trkpt lat="35.308118008819335" lon="10.699910864507622"><ele>105.0</ele><time>2026-04-05T10:28:05.999Z</time></trkpt><trkpt lat="35.3080281303935" lon="10.699960234179247"><ele>105.0</ele><time>2026-04-05T10:28:07Z</time></trkpt><trkpt lat="35.307937877635005" lon="10.700011727174298"><ele>105.0</ele><time>2026-04-05T10:28:08Z</time></trkpt><trkpt lat="35.30784453951014" lon="10.700066991089631"><ele>105.0</ele><time>2026-04-05T10:28:09Z</time></trkpt><trkpt lat="35.30775209605382" lon="10.7001181602239"><ele>104.8</ele><time>2026-04-05T10:28:10Z</time></trkpt><trkpt lat="35.30765550745968" lon="10.700168027208967"><ele>104.6</ele><time>2026-04-05T10:28:11Z</time></trkpt><trkpt lat="35.307558422040145" lon="10.700221986498095"><ele>104.4</ele><time>2026-04-05T10:28:12Z</time></trkpt><trkpt lat="35.307470926827655" lon="10.700283722451388"><ele>104.2</ele><time>2026-04-05T10:28:13Z</time></trkpt><trkpt lat="35.30737513721653" lon="10.700348290676317"><ele>104.0</ele><time>2026-04-05T10:28:14Z</time></trkpt><trkpt lat="35.30727734389387" lon="10.700404655253546"><ele>104.0</ele><time>2026-04-05T10:28:15Z</time></trkpt><trkpt lat="35.30716625051431" lon="10.700472489404325"><ele>104.0</ele><time>2026-04-05T10:28:16Z</time></trkpt><trkpt lat="35.30704510182522" lon="10.700543771543012"><ele>104.0</ele><time>2026-04-05T10:28:17Z</time></trkpt><trkpt lat="35.306923267817226" lon="10.70061735394179"><ele>104.0</ele><time>2026-04-05T10:28:18Z</time></trkpt><trkpt lat="35.30680232513568" lon="10.700686277551249"><ele>104.0</ele><time>2026-04-05T10:28:19Z</time></trkpt><trkpt lat="35.30668416361119" lon="10.700756408209575"><ele>104.0</ele><time>2026-04-05T10:28:20Z</time></trkpt><trkpt lat="35.30656433712837" lon="10.700822742598758"><ele>104.0</ele><time>2026-04-05T10:28:21Z</time></trkpt><trkpt lat="35.30645072235633" lon="10.700891674349387"><ele>104.0</ele><time>2026-04-05T10:28:22Z</time></trkpt><trkpt lat="35.30634467688161" lon="10.7009564590456"><ele>104.0</ele><time>2026-04-05T10:28:23Z</time></trkpt><trkpt lat="35.306247578589954" lon="10.701018795312457"><ele>104.0</ele><time>2026-04-05T10:28:24Z</time></trkpt><trkpt lat="35.30615710327644" lon="10.701073642338287"><ele>104.0</ele><time>2026-04-05T10:28:25Z</time></trkpt><trkpt lat="35.30607088861532" lon="10.701124931621022"><ele>104.0</ele><time>2026-04-05T10:28:26Z</time></trkpt><trkpt lat="35.305991185065885" lon="10.7011745949295"><ele>104.0</ele><time>2026-04-05T10:28:27Z</time></trkpt><trkpt lat="35.305914047553735" lon="10.701224247827408"><ele>104.0</ele><time>2026-04-05T10:28:28Z</time></trkpt><trkpt lat="35.3058427698979" lon="10.701267274154244"><ele>104.0</ele><time>2026-04-05T10:28:29Z</time></trkpt><trkpt lat="35.30577439323993" lon="10.70130529429638"><ele>104.0</ele><time>2026-04-05T10:28:30Z</time></trkpt><trkpt lat="35.30566427313691" lon="10.70136645797863"><ele>104.0</ele><time>2026-04-05T10:28:32Z</time></trkpt><trkpt lat="35.305559500723405" lon="10.701430292647489"><ele>104.0</ele><time>2026-04-05T10:28:34Z</time></trkpt><trkpt lat="35.30544425219885" lon="10.70150569173903"><ele>104.16666666666666</ele><time>2026-04-05T10:28:36Z</time></trkpt><trkpt lat="35.305380180629115" lon="10.701541005384206"><ele>104.33333333333333</ele><time>2026-04-05T10:28:37Z</time></trkpt><trkpt lat="35.30531317459269" lon="10.701577249288245"><ele>104.5</ele><time>2026-04-05T10:28:38Z</time></trkpt><trkpt lat="35.305248046329794" lon="10.701613881053499"><ele>104.66666666666666</ele><time>2026-04-05T10:28:39Z</time></trkpt><trkpt lat="35.30517551872725" lon="10.701651368747038"><ele>104.83333333333333</ele><time>2026-04-05T10:28:40Z</time></trkpt><trkpt lat="35.30510340949551" lon="10.701691259983793"><ele>105.0</ele><time>2026-04-05T10:28:41Z</time></trkpt><trkpt lat="35.3050288404418" lon="10.70173880713286"><ele>105.0</ele><time>2026-04-05T10:28:42Z</time></trkpt><trkpt lat="35.30494744753121" lon="10.701791806167543"><ele>105.0</ele><time>2026-04-05T10:28:43Z</time></trkpt><trkpt lat="35.304868441081446" lon="10.701845211696138"><ele>105.0</ele><time>2026-04-05T10:28:44Z</time></trkpt><trkpt lat="35.30478713784574" lon="10.701897038179334"><ele>105.0</ele><time>2026-04-05T10:28:45Z</time></trkpt><trkpt lat="35.30470091117936" lon="10.701950017769272"><ele>105.0</ele><time>2026-04-05T10:28:46Z</time></trkpt><trkpt lat="35.30461439634489" lon="10.702006203838684"><ele>104.6</ele><time>2026-04-05T10:28:47Z</time></trkpt><trkpt lat="35.30452414291041" lon="10.702059536379418"><ele>104.2</ele><time>2026-04-05T10:28:48Z</time></trkpt><trkpt lat="35.304431536606174" lon="10.702111378068777"><ele>103.80000000000001</ele><time>2026-04-05T10:28:49Z</time></trkpt><trkpt lat="35.304338358044326" lon="10.702165500208833"><ele>103.4</ele><time>2026-04-05T10:28:50Z</time></trkpt><trkpt lat="35.30424641154184" lon="10.702219747261651"><ele>103.0</ele><time>2026-04-05T10:28:51Z</time></trkpt><trkpt lat="35.30415686629446" lon="10.702271376988353"><ele>103.0</ele><time>2026-04-05T10:28:52Z</time></trkpt><trkpt lat="35.304067980235224" lon="10.702322434342468"><ele>103.0</ele><time>2026-04-05T10:28:53Z</time></trkpt><trkpt lat="35.303983854009125" lon="10.702372250347588"><ele>103.0</ele><time>2026-04-05T10:28:54Z</time></trkpt><trkpt lat="35.303895430245085" lon="10.70242539055987"><ele>103.0</ele><time>2026-04-05T10:28:55Z</time></trkpt><trkpt lat="35.30380567025387" lon="10.70247787569682"><ele>103.0</ele><time>2026-04-05T10:28:56Z</time></trkpt><trkpt lat="35.303715868869176" lon="10.702524410735283"><ele>103.2</ele><time>2026-04-05T10:28:57Z</time></trkpt><trkpt lat="35.30362987491931" lon="10.702572510033473"><ele>103.4</ele><time>2026-04-05T10:28:58Z</time></trkpt><trkpt lat="35.30354280768262" lon="10.702622616222834"><ele>103.60000000000001</ele><time>2026-04-05T10:28:59Z</time></trkpt><trkpt lat="35.30345368555612" lon="10.702676255407734"><ele>103.80000000000001</ele><time>2026-04-05T10:29:00Z</time></trkpt><trkpt lat="35.30336380085121" lon="10.702732589376236"><ele>104.0</ele><time>2026-04-05T10:29:01Z</time></trkpt><trkpt lat="35.303276663726656" lon="10.702785574110782"><ele>104.16666666666666</ele><time>2026-04-05T10:29:02Z</time></trkpt><trkpt lat="35.30319115019514" lon="10.702837434267526"><ele>104.33333333333333</ele><time>2026-04-05T10:29:03Z</time></trkpt><trkpt lat="35.30311609798413" lon="10.702883412629285"><ele>104.5</ele><time>2026-04-05T10:29:04Z</time></trkpt><trkpt lat="35.3030364244556" lon="10.702931114600704"><ele>104.66666666666666</ele><time>2026-04-05T10:29:05Z</time></trkpt><trkpt lat="35.302960797013284" lon="10.702976887605473"><ele>104.83333333333333</ele><time>2026-04-05T10:29:06Z</time></trkpt><trkpt lat="35.302891267927016" lon="10.703020694124795"><ele>105.0</ele><time>2026-04-05T10:29:07Z</time></trkpt><trkpt lat="35.30281244644147" lon="10.703065518403392"><ele>104.6</ele><time>2026-04-05T10:29:08Z</time></trkpt><trkpt lat="35.30272907590929" lon="10.703118039681337"><ele>104.2</ele><time>2026-04-05T10:29:09Z</time></trkpt><trkpt lat="35.30264487909924" lon="10.703175787546225"><ele>103.80000000000001</ele><time>2026-04-05T10:29:10Z</time></trkpt><trkpt lat="35.302557618528766" lon="10.703229435004987"><ele>103.4</ele><time>2026-04-05T10:29:11Z</time></trkpt><trkpt lat="35.30247210998969" lon="10.703282672687326"><ele>103.0</ele><time>2026-04-05T10:29:12Z</time></trkpt><trkpt lat="35.30238384419744" lon="10.703336061782654"><ele>103.0</ele><time>2026-04-05T10:29:13Z</time></trkpt><trkpt lat="35.30229310114609" lon="10.703388863707103"><ele>103.0</ele><time>2026-04-05T10:29:14Z</time></trkpt><trkpt lat="35.30220002829638" lon="10.703436649047294"><ele>103.0</ele><time>2026-04-05T10:29:15Z</time></trkpt><trkpt lat="35.302105177597745" lon="10.70348986477964"><ele>103.0</ele><time>2026-04-05T10:29:16Z</time></trkpt><trkpt lat="35.30201038050835" lon="10.70354596405343"><ele>103.0</ele><time>2026-04-05T10:29:17Z</time></trkpt><trkpt lat="35.30191969479337" lon="10.703599338970722"><ele>103.4</ele><time>2026-04-05T10:29:18Z</time></trkpt><trkpt lat="35.30182588292139" lon="10.703656539935263"><ele>103.80000000000001</ele><time>2026-04-05T10:29:19Z</time></trkpt><trkpt lat="35.3017325959262" lon="10.703715857116224"><ele>104.2</ele><time>2026-04-05T10:29:20Z</time></trkpt><trkpt lat="35.30163970346062" lon="10.703773541630362"><ele>104.6</ele><time>2026-04-05T10:29:21Z</time></trkpt><trkpt lat="35.30154788976845" lon="10.703826552282948"><ele>105.0</ele><time>2026-04-05T10:29:22Z</time></trkpt><trkpt lat="35.30145621947716" lon="10.70388129220499"><ele>105.2</ele><time>2026-04-05T10:29:23Z</time></trkpt><trkpt lat="35.3013700716146" lon="10.703933738516973"><ele>105.4</ele><time>2026-04-05T10:29:24Z</time></trkpt><trkpt lat="35.301286872043704" lon="10.703983352448917"><ele>105.6</ele><time>2026-04-05T10:29:25Z</time></trkpt><trkpt lat="35.30120506701892" lon="10.704032772375756"><ele>105.8</ele><time>2026-04-05T10:29:26Z</time></trkpt><trkpt lat="35.30112248235653" lon="10.704087518767137"><ele>106.0</ele><time>2026-04-05T10:29:27Z</time></trkpt><trkpt lat="35.30103917032281" lon="10.704138587415724"><ele>106.0</ele><time>2026-04-05T10:29:28Z</time></trkpt><trkpt lat="35.30095461245825" lon="10.7041913826894"><ele>106.0</ele><time>2026-04-05T10:29:29Z</time></trkpt><trkpt lat="35.30087097309901" lon="10.704242773802285"><ele>106.0</ele><time>2026-04-05T10:29:30Z</time></trkpt><trkpt lat="35.3007839756181" lon="10.704293124322868"><ele>106.0</ele><time>2026-04-05T10:29:31Z</time></trkpt><trkpt lat="35.30070271919561" lon="10.704338734083466"><ele>106.0</ele><time>2026-04-05T10:29:32Z</time></trkpt><trkpt lat="35.30063044980681" lon="10.704378416940855"><ele>105.83333333333334</ele><time>2026-04-05T10:29:33Z</time></trkpt><trkpt lat="35.300561709539245" lon="10.70442059876814"><ele>105.66666666666667</ele><time>2026-04-05T10:29:34Z</time></trkpt><trkpt lat="35.3004913850288" lon="10.7044647514143"><ele>105.5</ele><time>2026-04-05T10:29:35Z</time></trkpt><trkpt lat="35.30041855148177" lon="10.704507630581743"><ele>105.33333333333334</ele><time>2026-04-05T10:29:36Z</time></trkpt><trkpt lat="35.300350510454614" lon="10.704547649923633"><ele>105.16666666666667</ele><time>2026-04-05T10:29:37Z</time></trkpt><trkpt lat="35.30028901895476" lon="10.704587044474865"><ele>105.0</ele><time>2026-04-05T10:29:38Z</time></trkpt><trkpt lat="35.30022796779064" lon="10.70462592347276"><ele>105.0</ele><time>2026-04-05T10:29:39Z</time></trkpt><trkpt lat="35.30016792120199" lon="10.704661685979216"><ele>105.0</ele><time>2026-04-05T10:29:40Z</time></trkpt><trkpt lat="35.30010812798056" lon="10.704696743008922"><ele>105.0</ele><time>2026-04-05T10:29:41Z</time></trkpt><trkpt lat="35.30004706935452" lon="10.704735536289498"><ele>105.0</ele><time>2026-04-05T10:29:42Z</time></trkpt><trkpt lat="35.29998778953312" lon="10.704774804440818"><ele>105.0</ele><time>2026-04-05T10:29:43Z</time></trkpt><trkpt lat="35.29992575944073" lon="10.704813247252561"><ele>105.0</ele><time>2026-04-05T10:29:44Z</time></trkpt><trkpt lat="35.29986323486512" lon="10.704844527928831"><ele>105.0</ele><time>2026-04-05T10:29:45Z</time></trkpt><trkpt lat="35.299800448948986" lon="10.704878304425732"><ele>104.85714285714286</ele><time>2026-04-05T10:29:46Z</time></trkpt><trkpt lat="35.2997413462495" lon="10.704914947082658"><ele>104.71428571428572</ele><time>2026-04-05T10:29:47Z</time></trkpt><trkpt lat="35.2996793684222" lon="10.704949997675927"><ele>104.57142857142857</ele><time>2026-04-05T10:29:48Z</time></trkpt><trkpt lat="35.299613122014776" lon="10.704989038861319"><ele>104.42857142857143</ele><time>2026-04-05T10:29:49Z</time></trkpt><trkpt lat="35.29954330712316" lon="10.70502947569847"><ele>104.28571428571429</ele><time>2026-04-05T10:29:50Z</time></trkpt><trkpt lat="35.29947460467168" lon="10.705072584342433"><ele>104.14285714285714</ele><time>2026-04-05T10:29:51Z</time></trkpt><trkpt lat="35.29940561709437" lon="10.705120700302583"><ele>104.0</ele><time>2026-04-05T10:29:51.999Z</time></trkpt><trkpt lat="35.29934651361775" lon="10.705162709201694"><ele>104.0</ele><time>2026-04-05T10:29:52.999Z</time></trkpt><trkpt lat="35.2992397873461" lon="10.70522620563281"><ele>104.0</ele><time>2026-04-05T10:29:54.999Z</time></trkpt><trkpt lat="35.29913476015885" lon="10.705292572765755"><ele>104.0</ele><time>2026-04-05T10:29:56.999Z</time></trkpt><trkpt lat="35.29902108230674" lon="10.7053542653407"><ele>104.0</ele><time>2026-04-05T10:29:58.999Z</time></trkpt><trkpt lat="35.298961706563674" lon="10.70538451439709"><ele>104.0</ele><time>2026-04-05T10:29:59.999Z</time></trkpt><trkpt lat="35.29890447038672" lon="10.705417464611738"><ele>104.25</ele><time>2026-04-05T10:30:00.999Z</time></trkpt><trkpt lat="35.29880201170002" lon="10.705480499347289"><ele>104.5</ele><time>2026-04-05T10:30:02.999Z</time></trkpt><trkpt lat="35.29869862405473" lon="10.70554424256026"><ele>104.75</ele><time>2026-04-05T10:30:04.999Z</time></trkpt><trkpt lat="35.29859154699371" lon="10.705608714107852"><ele>105.0</ele><time>2026-04-05T10:30:06.999Z</time></trkpt><trkpt lat="35.29848349077657" lon="10.70567182035471"><ele>105.0</ele><time>2026-04-05T10:30:08.999Z</time></trkpt><trkpt lat="35.298396060236406" lon="10.705727194956681"><ele>105.0</ele><time>2026-04-05T10:30:10.999Z</time></trkpt><trkpt lat="35.298326536689856" lon="10.70576802132768"><ele>105.0</ele><time>2026-04-05T10:30:13Z</time></trkpt><trkpt lat="35.298257219169805" lon="10.705804453183765"><ele>105.0</ele><time>2026-04-05T10:30:16Z</time></trkpt><trkpt lat="35.29816770299418" lon="10.70578992054568"><ele>105.0</ele><time>2026-04-05T10:30:19Z</time></trkpt><trkpt lat="35.29811141365825" lon="10.70569291548938"><ele>105.0</ele><time>2026-04-05T10:30:21Z</time></trkpt><trkpt lat="35.29805189099564" lon="10.705606894653444"><ele>105.16666666666667</ele><time>2026-04-05T10:30:23Z</time></trkpt><trkpt lat="35.29798821722882" lon="10.705521677831282"><ele>105.33333333333334</ele><time>2026-04-05T10:30:25Z</time></trkpt><trkpt lat="35.2979291652078" lon="10.705441153872526"><ele>105.5</ele><time>2026-04-05T10:30:27Z</time></trkpt><trkpt lat="35.297875932657995" lon="10.705359285468411"><ele>105.66666666666667</ele><time>2026-04-05T10:30:29Z</time></trkpt><trkpt lat="35.29782713474731" lon="10.705276313276007"><ele>105.83333333333334</ele><time>2026-04-05T10:30:32Z</time></trkpt><trkpt lat="35.297738455212" lon="10.705253708239756"><ele>106.0</ele><time>2026-04-05T10:31:39Z</time></trkpt><trkpt lat="35.2976615195176" lon="10.705264834404423"><ele>106.00000000000001</ele><time>2026-04-05T10:31:41Z</time></trkpt><trkpt lat="35.2976039781027" lon="10.705175276868662"><ele>106.0</ele><time>2026-04-05T10:31:43Z</time></trkpt><trkpt lat="35.29756480241304" lon="10.705093618875688"><ele>106.0</ele><time>2026-04-05T10:31:45Z</time></trkpt><trkpt lat="35.29762175620493" lon="10.705013791656553"><ele>106.0</ele><time>2026-04-05T10:31:48Z</time></trkpt><trkpt lat="35.297668470021456" lon="10.70510418924384"><ele>106.00000000000001</ele><time>2026-04-05T10:31:51Z</time></trkpt><trkpt lat="35.297643181916584" lon="10.705197198796265"><ele>106.0</ele><time>2026-04-05T10:31:53Z</time></trkpt><trkpt lat="35.29766928724942" lon="10.705290224810451"><ele>106.0</ele><time>2026-04-05T10:31:55Z</time></trkpt><trkpt lat="35.2977209395697" lon="10.70533515877057"><ele>106.0</ele><time>2026-04-05T10:31:56.999Z</time></trkpt><trkpt lat="35.29779926118581" lon="10.705333586786436"><ele>106.0</ele><time>2026-04-05T10:31:59.999Z</time></trkpt><trkpt lat="35.29780578471993" lon="10.705226811814429"><ele>106.0</ele><time>2026-04-05T10:32:02.999Z</time></trkpt><trkpt lat="35.29777487094848" lon="10.705147277745912"><ele>106.0</ele><time>2026-04-05T10:32:11.999Z</time></trkpt><trkpt lat="35.297725281216344" lon="10.705085479402419"><ele>106.0</ele><time>2026-04-05T10:36:35Z</time></trkpt><trkpt lat="35.297690792777956" lon="10.705015812989018"><ele>106.0</ele><time>2026-04-05T10:36:49Z</time></trkpt><trkpt lat="35.29773173329207" lon="10.705085203311006"><ele>106.0</ele><time>2026-04-05T10:39:53Z</time></trkpt><trkpt lat="35.297784289719665" lon="10.70513817468924"><ele>106.0</ele><time>2026-04-05T10:40:00Z</time></trkpt><trkpt lat="35.29782096897905" lon="10.705213641278792"><ele>106.0</ele><time>2026-04-05T10:43:09Z</time></trkpt><trkpt lat="35.29786387963066" lon="10.705283164206952"><ele>106.0</ele><time>2026-04-05T10:43:15Z</time></trkpt><trkpt lat="35.297906738778856" lon="10.705358145627983"><ele>106.0</ele><time>2026-04-05T10:43:21Z</time></trkpt><trkpt lat="35.29794537542239" lon="10.705420139247183"><ele>106.0</ele><time>2026-04-05T10:43:26Z</time></trkpt><trkpt lat="35.29797935293342" lon="10.705495801973473"><ele>106.0</ele><time>2026-04-05T10:43:32Z</time></trkpt><trkpt lat="35.29800617492974" lon="10.705565739277214"><ele>106.0</ele><time>2026-04-05T10:43:37Z</time></trkpt><trkpt lat="35.29804634837512" lon="10.705627478181848"><ele>106.0</ele><time>2026-04-05T10:43:43Z</time></trkpt><trkpt lat="35.298078824432544" lon="10.705693793926098"><ele>106.0</ele><time>2026-04-05T10:43:48Z</time></trkpt><trkpt lat="35.29810873096856" lon="10.705771443092221"><ele>106.0</ele><time>2026-04-05T10:43:55Z</time></trkpt><trkpt lat="35.29812051142991" lon="10.705849888177818"><ele>106.0</ele><time>2026-04-05T10:44:01Z</time></trkpt><trkpt lat="35.29810755445274" lon="10.705927977374733"><ele>106.0</ele><time>2026-04-05T10:44:11Z</time></trkpt><trkpt lat="35.2980483372044" lon="10.705993165405673"><ele>106.0</ele><time>2026-04-05T10:44:35.999Z</time></trkpt><trkpt lat="35.297996745021145" lon="10.706053742391498"><ele>106.0</ele><time>2026-04-05T10:48:18Z</time></trkpt><trkpt lat="35.29793435953842" lon="10.706035819456165"><ele>106.0</ele><time>2026-04-05T10:50:25.999Z</time></trkpt><trkpt lat="35.29787598922622" lon="10.706002640240097"><ele>106.0</ele><time>2026-04-05T10:50:33.999Z</time></trkpt><trkpt lat="35.2978230457899" lon="10.705954552342163"><ele>106.0</ele><time>2026-04-05T10:51:21.999Z</time></trkpt><trkpt lat="35.297784681877324" lon="10.70588800340956"><ele>106.0</ele><time>2026-04-05T10:51:35.999Z</time></trkpt><trkpt lat="35.297771792720596" lon="10.705809485821296"><ele>106.0</ele><time>2026-04-05T10:51:44.999Z</time></trkpt><trkpt lat="35.297715632012384" lon="10.70586056955622"><ele>106.0</ele><time>2026-04-05T10:52:01.999Z</time></trkpt><trkpt lat="35.297720140523886" lon="10.705945284429493"><ele>106.0</ele><time>2026-04-05T10:52:04.999Z</time></trkpt><trkpt lat="35.297647328074795" lon="10.705960977938359"><ele>106.0</ele><time>2026-04-05T10:52:11.999Z</time></trkpt><trkpt lat="35.297662772913164" lon="10.706042010341532"><ele>106.0</ele><time>2026-04-05T10:52:17.999Z</time></trkpt><trkpt lat="35.29760025744322" lon="10.706086084986968"><ele>106.0</ele><time>2026-04-05T10:52:25.999Z</time></trkpt><trkpt lat="35.29755474231285" lon="10.706030654781621"><ele>106.0</ele><time>2026-04-05T10:52:43.999Z</time></trkpt><trkpt lat="35.29753114153335" lon="10.705950137061695"><ele>106.0</ele><time>2026-04-05T10:52:51.999Z</time></trkpt><trkpt lat="35.297504998115066" lon="10.705876202077636"><ele>106.0</ele><time>2026-04-05T10:52:57.999Z</time></trkpt><trkpt lat="35.297467487243566" lon="10.705806894749568"><ele>106.0</ele><time>2026-04-05T10:53:03.999Z</time></trkpt><trkpt lat="35.29741946033609" lon="10.70574424855214"><ele>106.0</ele><time>2026-04-05T10:53:10.999Z</time></trkpt><trkpt lat="35.29736643364032" lon="10.705677291661955"><ele>106.0</ele><time>2026-04-05T10:53:23.999Z</time></trkpt><trkpt lat="35.29731237806873" lon="10.705717816939716"><ele>106.0</ele><time>2026-04-05T10:53:30.999Z</time></trkpt><trkpt lat="35.297259541032695" lon="10.705775202152115"><ele>106.0</ele><time>2026-04-05T10:53:38Z</time></trkpt><trkpt lat="35.29720293860635" lon="10.705819222440219"><ele>106.0</ele><time>2026-04-05T10:53:45Z</time></trkpt><trkpt lat="35.2971437908911" lon="10.705871633629327"><ele>106.0</ele><time>2026-04-05T10:53:52Z</time></trkpt><trkpt lat="35.297089859832" lon="10.705924046009962"><ele>106.28571428571429</ele><time>2026-04-05T10:53:59Z</time></trkpt><trkpt lat="35.29703908594711" lon="10.705975128548735"><ele>106.57142857142857</ele><time>2026-04-05T10:54:04Z</time></trkpt><trkpt lat="35.29698468913441" lon="10.706031044421625"><ele>106.85714285714286</ele><time>2026-04-05T10:54:10Z</time></trkpt><trkpt lat="35.29693040733318" lon="10.706082135573974"><ele>107.14285714285714</ele><time>2026-04-05T10:54:16Z</time></trkpt><trkpt lat="35.29686403011357" lon="10.706072848892589"><ele>107.42857142857142</ele><time>2026-04-05T10:54:25Z</time></trkpt><trkpt lat="35.296828870800965" lon="10.705999682658248"><ele>107.71428571428571</ele><time>2026-04-05T10:54:32Z</time></trkpt><trkpt lat="35.296762884168004" lon="10.705963853054483"><ele>108.0</ele><time>2026-04-05T10:54:41Z</time></trkpt><trkpt lat="35.2967551081332" lon="10.705883518503466"><ele>108.0</ele><time>2026-04-05T10:55:05.999Z</time></trkpt><trkpt lat="35.29669152414582" lon="10.705870368821545"><ele>108.0</ele><time>2026-04-05T10:55:36Z</time></trkpt><trkpt lat="35.2966285431396" lon="10.705877342295636"><ele>108.0</ele><time>2026-04-05T10:55:42Z</time></trkpt><trkpt lat="35.296562363405634" lon="10.705855724997104"><ele>108.0</ele><time>2026-04-05T10:55:53Z</time></trkpt><trkpt lat="35.29649349267929" lon="10.70586185144597"><ele>108.0</ele><time>2026-04-05T10:56:01Z</time></trkpt><trkpt lat="35.29641892890929" lon="10.705866396162556"><ele>108.0</ele><time>2026-04-05T10:56:10Z</time></trkpt><trkpt lat="35.296356004156124" lon="10.705875550903803"><ele>108.0</ele><time>2026-04-05T10:56:17Z</time></trkpt><trkpt lat="35.29629080373226" lon="10.705883436621262"><ele>108.28571428571428</ele><time>2026-04-05T10:56:23Z</time></trkpt><trkpt lat="35.29621810162581" lon="10.705885053449336"><ele>108.57142857142857</ele><time>2026-04-05T10:56:44Z</time></trkpt><trkpt lat="35.29616266170897" lon="10.705921838746713"><ele>108.85714285714286</ele><time>2026-04-05T10:56:53Z</time></trkpt><trkpt lat="35.2960993538625" lon="10.705954078544176"><ele>109.14285714285714</ele><time>2026-04-05T10:57:04Z</time></trkpt><trkpt lat="35.29604591655729" lon="10.70601263862645"><ele>109.42857142857143</ele><time>2026-04-05T10:57:11Z</time></trkpt><trkpt lat="35.29600031481422" lon="10.706067947338216"><ele>109.71428571428571</ele><time>2026-04-05T10:57:18Z</time></trkpt><trkpt lat="35.29595318272789" lon="10.706123067644711"><ele>110.0</ele><time>2026-04-05T10:57:26Z</time></trkpt><trkpt lat="35.295907281082336" lon="10.70618603703755"><ele>110.14285714285714</ele><time>2026-04-05T10:57:47.999Z</time></trkpt><trkpt lat="35.295863390297846" lon="10.706242058898054"><ele>110.28571428571428</ele><time>2026-04-05T10:57:53.999Z</time></trkpt><trkpt lat="35.295815012181635" lon="10.706313963695724"><ele>110.42857142857142</ele><time>2026-04-05T10:58:01.999Z</time></trkpt><trkpt lat="35.29579736990111" lon="10.706397668371384"><ele>110.57142857142857</ele><time>2026-04-05T10:58:10Z</time></trkpt><trkpt lat="35.29576527105985" lon="10.706472839933937"><ele>110.71428571428572</ele><time>2026-04-05T10:58:17Z</time></trkpt><trkpt lat="35.29575272277262" lon="10.70654934444714"><ele>110.85714285714285</ele><time>2026-04-05T10:58:23Z</time></trkpt><trkpt lat="35.295728384732335" lon="10.706620899156208"><ele>111.0</ele><time>2026-04-05T10:58:29Z</time></trkpt><trkpt lat="35.29569368747869" lon="10.706692756750789"><ele>111.0</ele><time>2026-04-05T10:58:37Z</time></trkpt><trkpt lat="35.29563606352295" lon="10.706761668296705"><ele>111.0</ele><time>2026-04-05T10:58:44Z</time></trkpt><trkpt lat="35.29562797759408" lon="10.70684399397536"><ele>111.0</ele><time>2026-04-05T10:58:51Z</time></trkpt><trkpt lat="35.29563086220923" lon="10.706929521859124"><ele>111.0</ele><time>2026-04-05T10:58:58Z</time></trkpt><trkpt lat="35.29562050304402" lon="10.707014092743247"><ele>111.0</ele><time>2026-04-05T10:59:04Z</time></trkpt><trkpt lat="35.29563031448101" lon="10.707096008169888"><ele>111.0</ele><time>2026-04-05T10:59:11Z</time></trkpt><trkpt lat="35.2956357342733" lon="10.70718126795142"><ele>111.0</ele><time>2026-04-05T10:59:20Z</time></trkpt><trkpt lat="35.29565549751642" lon="10.707270885556316"><ele>110.85714285714285</ele><time>2026-04-05T10:59:30Z</time></trkpt><trkpt lat="35.295666180072686" lon="10.707353515809734"><ele>110.71428571428572</ele><time>2026-04-05T10:59:40Z</time></trkpt><trkpt lat="35.29561848679675" lon="10.707406931479039"><ele>110.57142857142857</ele><time>2026-04-05T10:59:46Z</time></trkpt><trkpt lat="35.295609153801465" lon="10.707488726456466"><ele>110.42857142857142</ele><time>2026-04-05T11:00:02Z</time></trkpt><trkpt lat="35.29567421158525" lon="10.707532008072711"><ele>110.28571428571428</ele><time>2026-04-05T11:01:31Z</time></trkpt><trkpt lat="35.295741149330134" lon="10.707537878312966"><ele>110.14285714285714</ele><time>2026-04-05T11:01:49Z</time></trkpt><trkpt lat="35.29580972367096" lon="10.70756301652617"><ele>110.0</ele><time>2026-04-05T11:02:00Z</time></trkpt><trkpt lat="35.29587852884994" lon="10.70757276672921"><ele>109.99999999999999</ele><time>2026-04-05T11:02:06Z</time></trkpt><trkpt lat="35.29594225804623" lon="10.707579270573481"><ele>110.0</ele><time>2026-04-05T11:02:13Z</time></trkpt><trkpt lat="35.29606147823771" lon="10.707558427966976"><ele>110.0</ele><time>2026-04-05T11:03:20Z</time></trkpt><trkpt lat="35.29615202727722" lon="10.707499563989096"><ele>110.0</ele><time>2026-04-05T11:04:01.999Z</time></trkpt><trkpt lat="35.29619969186636" lon="10.707446453003714"><ele>109.99999999999999</ele><time>2026-04-05T11:04:12Z</time></trkpt><trkpt lat="35.2962704053948" lon="10.707417191840909"><ele>110.0</ele><time>2026-04-05T11:04:19Z</time></trkpt><trkpt lat="35.29632896261885" lon="10.70707264365537"><ele>110.0</ele><time>2026-04-05T11:04:27Z</time></trkpt><trkpt lat="35.296251782015574" lon="10.707164784946496"><ele>110.0</ele><time>2026-04-05T11:04:28Z</time></trkpt><trkpt lat="35.29628938935099" lon="10.707227356077599"><ele>110.0</ele><time>2026-04-05T11:04:29Z</time></trkpt><trkpt lat="35.296353927732255" lon="10.707350967686471"><ele>110.0</ele><time>2026-04-05T11:04:33Z</time></trkpt><trkpt lat="35.296472087000076" lon="10.707351299273833"><ele>110.0</ele><time>2026-04-05T11:06:03Z</time></trkpt><trkpt lat="35.296487836881035" lon="10.707267985731143"><ele>109.99999999999999</ele><time>2026-04-05T11:06:08Z</time></trkpt><trkpt lat="35.29645577948479" lon="10.707185625424119"><ele>110.0</ele><time>2026-04-05T11:06:19Z</time></trkpt><trkpt lat="35.296390171428875" lon="10.707203127307098"><ele>110.0</ele><time>2026-04-05T11:22:07Z</time></trkpt><trkpt lat="35.296425100870714" lon="10.707137753990938"><ele>110.0</ele><time>2026-04-05T11:22:20Z</time></trkpt><trkpt lat="35.296433968074226" lon="10.707050268159119"><ele>110.0</ele><time>2026-04-05T11:22:29Z</time></trkpt><trkpt lat="35.29640228420368" lon="10.70698318730991"><ele>109.99999999999999</ele><time>2026-04-05T11:22:37Z</time></trkpt><trkpt lat="35.296465999386214" lon="10.70697917321222"><ele>110.0</ele><time>2026-04-05T11:28:15Z</time></trkpt><trkpt lat="35.29648511238216" lon="10.707058934006472"><ele>109.99999999999999</ele><time>2026-04-05T11:28:23Z</time></trkpt><trkpt lat="35.29649448163905" lon="10.707137827538563"><ele>110.0</ele><time>2026-04-05T11:28:32Z</time></trkpt><trkpt lat="35.29650725318701" lon="10.70721995034347"><ele>110.0</ele><time>2026-04-05T11:28:40Z</time></trkpt><trkpt lat="35.296523372629025" lon="10.707297259558574"><ele>110.0</ele><time>2026-04-05T11:28:49.999Z</time></trkpt><trkpt lat="35.29653691928806" lon="10.707380575229637"><ele>109.99999999999999</ele><time>2026-04-05T11:29:01Z</time></trkpt><trkpt lat="35.296508065155926" lon="10.707449997425702"><ele>110.0</ele><time>2026-04-05T11:29:19Z</time></trkpt><trkpt lat="35.296519707340906" lon="10.706993627576747"><ele>109.99999999999999</ele><time>2026-04-05T11:33:08.01Z</time></trkpt><trkpt lat="35.296616944217284" lon="10.706975298168615"><ele>110.0</ele><time>2026-04-05T11:33:16.01Z</time></trkpt><trkpt lat="35.29668664249193" lon="10.706981107107872"><ele>110.0</ele><time>2026-04-05T11:33:22.01Z</time></trkpt><trkpt lat="35.296630161992816" lon="10.706913934403214"><ele>110.0</ele><time>2026-04-05T11:33:36.012Z</time></trkpt><trkpt lat="35.29654729316393" lon="10.706887751349756"><ele>109.99999999999999</ele><time>2026-04-05T11:33:38.015Z</time></trkpt><trkpt lat="35.29657581371247" lon="10.706802080222507"><ele>110.0</ele><time>2026-04-05T11:33:44.013Z</time></trkpt><trkpt lat="35.296633489200715" lon="10.706749958311326"><ele>110.0</ele><time>2026-04-05T11:33:48.028Z</time></trkpt><trkpt lat="35.296712356155616" lon="10.706698588111033"><ele>110.0</ele><time>2026-04-05T11:33:52.735Z</time></trkpt><trkpt lat="35.29681675614333" lon="10.706634544247798"><ele>110.0</ele><time>2026-04-05T11:34:00.112Z</time></trkpt><trkpt lat="35.29676040302839" lon="10.706983778653816"><ele>109.99999999999999</ele><time>2026-04-05T11:34:02.01Z</time></trkpt><trkpt lat="35.29668537138948" lon="10.706957504405015"><ele>110.0</ele><time>2026-04-05T11:34:04.011Z</time></trkpt><trkpt lat="35.29660977264376" lon="10.706894442306147"><ele>110.0</ele><time>2026-04-05T11:34:07.011Z</time></trkpt><trkpt lat="35.296545441607535" lon="10.706847419869877"><ele>110.0</ele><time>2026-04-05T11:34:09.011Z</time></trkpt><trkpt lat="35.29650761230872" lon="10.706768425528772"><ele>109.99999999999999</ele><time>2026-04-05T11:34:14.011Z</time></trkpt><trkpt lat="35.296633489200715" lon="10.706749958311326"><ele>110.0</ele><time>2026-04-05T11:33:48.028Z</time></trkpt><trkpt lat="35.296712356155616" lon="10.706698588111033"><ele>110.0</ele><time>2026-04-05T11:33:52.735Z</time></trkpt><trkpt lat="35.29681675614333" lon="10.706634544247798"><ele>110.0</ele><time>2026-04-05T11:34:00.112Z</time></trkpt><trkpt lat="35.29676040302839" lon="10.706983778653816"><ele>110.0</ele><time>2026-04-05T11:34:02.01Z</time></trkpt><trkpt lat="35.29668537138948" lon="10.706957504405015"><ele>109.99999999999999</ele><time>2026-04-05T11:34:04.011Z</time></trkpt><trkpt lat="35.29660977264376" lon="10.706894442306147"><ele>110.0</ele><time>2026-04-05T11:34:07.011Z</time></trkpt><trkpt lat="35.296545441607535" lon="10.706847419869877"><ele>110.0</ele><time>2026-04-05T11:34:09.011Z</time></trkpt><trkpt lat="35.29650761230872" lon="10.706768425528772"><ele>110.0</ele><time>2026-04-05T11:34:14.011Z</time></trkpt><trkpt lat="35.29643956765276" lon="10.706724439382182"><ele>109.99999999999999</ele><time>2026-04-05T11:34:20.012Z</time></trkpt><trkpt lat="35.29642260994056" lon="10.706840786145518"><ele>110.0</ele><time>2026-04-05T11:36:33.999Z</time></trkpt><trkpt lat="35.29642270264854" lon="10.70692442764811"><ele>110.0</ele><time>2026-04-05T11:36:49.999Z</time></trkpt><trkpt lat="35.296301097816105" lon="10.707233960579988"><ele>110.0</ele><time>2026-04-05T11:45:27.018Z</time></trkpt><trkpt lat="35.29610814888995" lon="10.706770268417182"><ele>109.99999999999999</ele><time>2026-04-05T11:45:28.018Z</time></trkpt><trkpt lat="35.29616086653813" lon="10.706820727075561"><ele>110.0</ele><time>2026-04-05T11:45:33.001Z</time></trkpt><trkpt lat="35.29619313793567" lon="10.706893361773247"><ele>110.0</ele><time>2026-04-05T11:45:37.001Z</time></trkpt><trkpt lat="35.296216540103586" lon="10.706971906890232"><ele>110.0</ele><time>2026-04-05T11:45:53.001Z</time></trkpt><trkpt lat="35.296244759863676" lon="10.707046678496942"><ele>109.99999999999999</ele><time>2026-04-05T11:46:02Z</time></trkpt><trkpt lat="35.29630286948833" lon="10.707171516735661"><ele>110.0</ele><time>2026-04-05T11:46:18Z</time></trkpt><trkpt lat="35.296348868880266" lon="10.707230027825569"><ele>109.99999999999999</ele><time>2026-04-05T11:46:28Z</time></trkpt><trkpt lat="35.29641885166988" lon="10.707276811134285"><ele>110.0</ele><time>2026-04-05T11:46:35Z</time></trkpt><trkpt lat="35.29646537691872" lon="10.707332651159073"><ele>110.0</ele><time>2026-04-05T11:46:46Z</time></trkpt><trkpt lat="35.296533853418175" lon="10.707377123528834"><ele>110.0</ele><time>2026-04-05T11:56:25Z</time></trkpt><trkpt lat="35.296511422222395" lon="10.707450891329609"><ele>110.0</ele><time>2026-04-05T11:59:51Z</time></trkpt><trkpt lat="35.2964481358647" lon="10.707491874396725"><ele>109.99999999999999</ele><time>2026-04-05T12:00:08.999Z</time></trkpt><trkpt lat="35.29637184827455" lon="10.70743398571217"><ele>110.0</ele><time>2026-04-05T12:00:33Z</time></trkpt><trkpt lat="35.2963277701178" lon="10.707543715716826"><ele>109.99999999999999</ele><time>2026-04-05T12:00:42Z</time></trkpt><trkpt lat="35.2962687308512" lon="10.7075760420317"><ele>110.0</ele><time>2026-04-05T12:00:44Z</time></trkpt><trkpt lat="35.29620423911441" lon="10.707519292856782"><ele>110.0</ele><time>2026-04-05T12:00:46.039Z</time></trkpt><trkpt lat="35.296260202031334" lon="10.707563056557687"><ele>110.0</ele><time>2026-04-05T12:00:48.038Z</time></trkpt><trkpt lat="35.29631539656438" lon="10.70760473201123"><ele>110.0</ele><time>2026-04-05T12:00:49.034Z</time></trkpt><trkpt lat="35.296264978917485" lon="10.707672973234947"><ele>109.99999999999999</ele><time>2026-04-05T12:00:59Z</time></trkpt><trkpt lat="35.296193493222006" lon="10.707671036386447"><ele>110.0</ele><time>2026-04-05T12:01:14Z</time></trkpt><trkpt lat="35.296134885266284" lon="10.707635043870056"><ele>109.99999999999999</ele><time>2026-04-05T12:01:24Z</time></trkpt><trkpt lat="35.2961090380653" lon="10.707554908094775"><ele>110.0</ele><time>2026-04-05T12:01:33Z</time></trkpt><trkpt lat="35.29605233368869" lon="10.707503129673126"><ele>110.0</ele><time>2026-04-05T12:01:40Z</time></trkpt><trkpt lat="35.29600350900996" lon="10.707588417031129"><ele>110.0</ele><time>2026-04-05T12:02:01Z</time></trkpt><trkpt lat="35.29593810170355" lon="10.707615638969243"><ele>110.0</ele><time>2026-04-05T12:02:12.999Z</time></trkpt><trkpt lat="35.29587694384868" lon="10.707649605603834"><ele>109.99999999999999</ele><time>2026-04-05T12:02:21.999Z</time></trkpt><trkpt lat="35.295807748305265" lon="10.707663269022405"><ele>110.0</ele><time>2026-04-05T12:02:42Z</time></trkpt><trkpt lat="35.29574410039225" lon="10.707698146236918"><ele>109.99999999999999</ele><time>2026-04-05T12:02:54Z</time></trkpt><trkpt lat="35.29568098846606" lon="10.707726380749898"><ele>110.0</ele><time>2026-04-05T12:03:06Z</time></trkpt><trkpt lat="35.295614848394074" lon="10.707752321365428"><ele>110.0</ele><time>2026-04-05T12:03:15Z</time></trkpt><trkpt lat="35.29556236490311" lon="10.70780326742142"><ele>110.0</ele><time>2026-04-05T12:56:22.999Z</time></trkpt><trkpt lat="35.295501706873225" lon="10.707834396232244"><ele>110.0</ele><time>2026-04-05T12:56:38.999Z</time></trkpt><trkpt lat="35.29540910428587" lon="10.707850045305467"><ele>109.99999999999999</ele><time>2026-04-05T12:56:43.999Z</time></trkpt><trkpt lat="35.29534743542331" lon="10.707873449855176"><ele>110.0</ele><time>2026-04-05T12:56:47.999Z</time></trkpt><trkpt lat="35.295320692157084" lon="10.7079484664853"><ele>110.42857142857142</ele><time>2026-04-05T12:56:55Z</time></trkpt><trkpt lat="35.29526461748963" lon="10.707991760615807"><ele>110.85714285714286</ele><time>2026-04-05T12:56:58Z</time></trkpt><trkpt lat="35.29535491186196" lon="10.707937598331707"><ele>111.28571428571428</ele><time>2026-04-05T12:57:03Z</time></trkpt><trkpt lat="35.29542032904738" lon="10.707929318191852"><ele>111.71428571428571</ele><time>2026-04-05T12:57:07Z</time></trkpt><trkpt lat="35.29544925460605" lon="10.707845114773312"><ele>112.14285714285714</ele><time>2026-04-05T12:57:20Z</time></trkpt><trkpt lat="35.29551422812734" lon="10.707813413745885"><ele>112.57142857142857</ele><time>2026-04-05T12:57:30.999Z</time></trkpt><trkpt lat="35.2954557696263" lon="10.707851166018834"><ele>113.0</ele><time>2026-04-05T13:04:01.999Z</time></trkpt><trkpt lat="35.29537713345481" lon="10.707887139883862"><ele>113.0</ele><time>2026-04-05T13:04:04.999Z</time></trkpt><trkpt lat="35.295302722927495" lon="10.707898722192594"><ele>113.0</ele><time>2026-04-05T13:04:07.999Z</time></trkpt><trkpt lat="35.295373949878794" lon="10.707876061829493"><ele>113.0</ele><time>2026-04-05T13:04:13.999Z</time></trkpt><trkpt lat="35.29542328276313" lon="10.707811088844263"><ele>113.0</ele><time>2026-04-05T13:04:33.999Z</time></trkpt><trkpt lat="35.29548158705447" lon="10.707752985833025"><ele>113.0</ele><time>2026-04-05T13:04:36.999Z</time></trkpt><trkpt lat="35.29552961637959" lon="10.707700433928137"><ele>113.0</ele><time>2026-04-05T13:04:41.999Z</time></trkpt><trkpt lat="35.29547051996516" lon="10.70773370926926"><ele>113.0</ele><time>2026-04-05T13:04:58.999Z</time></trkpt><trkpt lat="35.29540878674324" lon="10.707756321909201"><ele>113.0</ele><time>2026-04-05T13:05:04.999Z</time></trkpt><trkpt lat="35.295351968984065" lon="10.70779390722164"><ele>113.0</ele><time>2026-04-05T13:05:10.999Z</time></trkpt><trkpt lat="35.29529594905564" lon="10.707850102469653"><ele>113.0</ele><time>2026-04-05T13:05:18Z</time></trkpt><trkpt lat="35.29524465031534" lon="10.707901319999392"><ele>113.0</ele><time>2026-04-05T13:05:24Z</time></trkpt><trkpt lat="35.29518386459893" lon="10.707923546485418"><ele>113.0</ele><time>2026-04-05T13:05:30Z</time></trkpt><trkpt lat="35.29512361311744" lon="10.707956413081401"><ele>113.0</ele><time>2026-04-05T13:05:36Z</time></trkpt><trkpt lat="35.29506310289982" lon="10.708003536419394"><ele>113.0</ele><time>2026-04-05T13:05:42.999Z</time></trkpt><trkpt lat="35.295001040730625" lon="10.70802886367827"><ele>113.0</ele><time>2026-04-05T13:05:48.999Z</time></trkpt><trkpt lat="35.29493264053855" lon="10.708061309313834"><ele>113.0</ele><time>2026-04-05T13:05:56.999Z</time></trkpt><trkpt lat="35.294873548680265" lon="10.708098505359615"><ele>113.0</ele><time>2026-04-05T13:06:02.999Z</time></trkpt><trkpt lat="35.29481621190169" lon="10.708154951810526"><ele>113.0</ele><time>2026-04-05T13:06:10.999Z</time></trkpt><trkpt lat="35.29475122947462" lon="10.708203842868556"><ele>113.0</ele><time>2026-04-05T13:06:16.999Z</time></trkpt><trkpt lat="35.29469073085092" lon="10.708249146773493"><ele>113.0</ele><time>2026-04-05T13:06:23.999Z</time></trkpt><trkpt lat="35.294628080662164" lon="10.708296061443782"><ele>113.0</ele><time>2026-04-05T13:06:31.999Z</time></trkpt><trkpt lat="35.29456455326658" lon="10.708328755431031"><ele>112.85714285714286</ele><time>2026-04-05T13:06:38.999Z</time></trkpt><trkpt lat="35.29450436154355" lon="10.708357313687431"><ele>112.71428571428571</ele><time>2026-04-05T13:06:44.999Z</time></trkpt><trkpt lat="35.294447138130934" lon="10.708390456490877"><ele>112.57142857142857</ele><time>2026-04-05T13:06:50.999Z</time></trkpt><trkpt lat="35.29438265303954" lon="10.708418055320069"><ele>112.42857142857143</ele><time>2026-04-05T13:06:57.999Z</time></trkpt><trkpt lat="35.2943238868451" lon="10.708452886559012"><ele>112.28571428571428</ele><time>2026-04-05T13:07:02.999Z</time></trkpt><trkpt lat="35.29425876755794" lon="10.708482734174975"><ele>112.14285714285714</ele><time>2026-04-05T13:07:08.999Z</time></trkpt><trkpt lat="35.294225951079184" lon="10.708550182674566"><ele>112.0</ele><time>2026-04-05T13:07:12.999Z</time></trkpt><trkpt lat="35.29415557872717" lon="10.708569540230195"><ele>112.0</ele><time>2026-04-05T13:07:21.999Z</time></trkpt><trkpt lat="35.29410268010468" lon="10.708612382094206"><ele>112.0</ele><time>2026-04-05T13:07:30Z</time></trkpt><trkpt lat="35.294036346243246" lon="10.708637422274617"><ele>112.0</ele><time>2026-04-05T13:07:35Z</time></trkpt><trkpt lat="35.29397838364921" lon="10.70867552143062"><ele>112.0</ele><time>2026-04-05T13:07:39Z</time></trkpt><trkpt lat="35.29392337897229" lon="10.708727998594695"><ele>112.0</ele><time>2026-04-05T13:07:43Z</time></trkpt><trkpt lat="35.293861187452165" lon="10.708741311307506"><ele>112.0</ele><time>2026-04-05T13:07:47Z</time></trkpt><trkpt lat="35.293792937079765" lon="10.708743114964149"><ele>112.0</ele><time>2026-04-05T13:07:51.999Z</time></trkpt><trkpt lat="35.29372517183417" lon="10.708759422902727"><ele>112.14285714285714</ele><time>2026-04-05T13:07:56.999Z</time></trkpt><trkpt lat="35.293663312719815" lon="10.708775895797462"><ele>112.28571428571428</ele><time>2026-04-05T13:08:01.999Z</time></trkpt><trkpt lat="35.293592466367635" lon="10.708786027802974"><ele>112.42857142857143</ele><time>2026-04-05T13:08:07.999Z</time></trkpt><trkpt lat="35.293541848273186" lon="10.708841102392787"><ele>112.57142857142857</ele><time>2026-04-05T13:08:13.999Z</time></trkpt><trkpt lat="35.29348498158415" lon="10.708881034004929"><ele>112.71428571428571</ele><time>2026-04-05T13:08:18.999Z</time></trkpt><trkpt lat="35.29342132428364" lon="10.708897711199478"><ele>112.85714285714286</ele><time>2026-04-05T13:08:23.999Z</time></trkpt><trkpt lat="35.29335052729581" lon="10.708928162076784"><ele>113.0</ele><time>2026-04-05T13:08:29.999Z</time></trkpt><trkpt lat="35.29328858911943" lon="10.708947838533792"><ele>113.0</ele><time>2026-04-05T13:08:34.999Z</time></trkpt><trkpt lat="35.29322514182355" lon="10.708968597954176"><ele>113.0</ele><time>2026-04-05T13:08:39.999Z</time></trkpt><trkpt lat="35.29315936643897" lon="10.708986867300148"><ele>113.0</ele><time>2026-04-05T13:08:44.999Z</time></trkpt><trkpt lat="35.2930919272457" lon="10.709013365208243"><ele>113.0</ele><time>2026-04-05T13:08:49.999Z</time></trkpt><trkpt lat="35.29302158904448" lon="10.709002020330123"><ele>113.0</ele><time>2026-04-05T13:08:55.999Z</time></trkpt><trkpt lat="35.292953041094506" lon="10.708969574941154"><ele>113.0</ele><time>2026-04-05T13:08:59.999Z</time></trkpt><trkpt lat="35.292891217345115" lon="10.708941265000963"><ele>113.0</ele><time>2026-04-05T13:09:08.999Z</time></trkpt><trkpt lat="35.292826817624814" lon="10.70892450955678"><ele>112.99999999999999</ele><time>2026-04-05T13:10:00.999Z</time></trkpt><trkpt lat="35.29290593022209" lon="10.708925976340446"><ele>113.0</ele><time>2026-04-05T13:13:19.999Z</time></trkpt><trkpt lat="35.293013420036495" lon="10.7089184164444"><ele>113.0</ele><time>2026-04-05T13:13:26.999Z</time></trkpt><trkpt lat="35.29307801467522" lon="10.708907935309117"><ele>113.0</ele><time>2026-04-05T13:13:30.999Z</time></trkpt><trkpt lat="35.29314156906465" lon="10.70889825495285"><ele>112.99999999999999</ele><time>2026-04-05T13:13:34.999Z</time></trkpt><trkpt lat="35.293214954089784" lon="10.708879114717424"><ele>113.0</ele><time>2026-04-05T13:13:39.999Z</time></trkpt><trkpt lat="35.293282983026266" lon="10.708859954251617"><ele>113.0</ele><time>2026-04-05T13:13:44.999Z</time></trkpt><trkpt lat="35.293344539509405" lon="10.708839136791998"><ele>113.0</ele><time>2026-04-05T13:13:49.999Z</time></trkpt><trkpt lat="35.29341070758164" lon="10.708821055690544"><ele>113.0</ele><time>2026-04-05T13:13:55.999Z</time></trkpt><trkpt lat="35.29348249077187" lon="10.708797810429038"><ele>113.0</ele><time>2026-04-05T13:14:01.999Z</time></trkpt><trkpt lat="35.29354546500401" lon="10.708782355097329"><ele>113.0</ele><time>2026-04-05T13:14:06.999Z</time></trkpt><trkpt lat="35.293614539768285" lon="10.708766118791832"><ele>113.0</ele><time>2026-04-05T13:14:12.999Z</time></trkpt><trkpt lat="35.293675904579835" lon="10.708736126724364"><ele>113.0</ele><time>2026-04-05T13:14:17.999Z</time></trkpt><trkpt lat="35.293743441912305" lon="10.708713366738364"><ele>113.0</ele><time>2026-04-05T13:14:23.999Z</time></trkpt><trkpt lat="35.29380215289369" lon="10.708682106432589"><ele>113.0</ele><time>2026-04-05T13:14:29.999Z</time></trkpt><trkpt lat="35.29387341044839" lon="10.70865611279272"><ele>113.0</ele><time>2026-04-05T13:14:35.999Z</time></trkpt><trkpt lat="35.293939260590676" lon="10.708637257871935"><ele>113.0</ele><time>2026-04-05T13:14:42.999Z</time></trkpt><trkpt lat="35.29400149577652" lon="10.708606368555886"><ele>113.0</ele><time>2026-04-05T13:14:47.999Z</time></trkpt><trkpt lat="35.29407197924052" lon="10.708578897538661"><ele>113.0</ele><time>2026-04-05T13:14:53.999Z</time></trkpt><trkpt lat="35.294150729915806" lon="10.708566779896028"><ele>113.0</ele><time>2026-04-05T13:15:18.999Z</time></trkpt><trkpt lat="35.294206842486034" lon="10.708531595388568"><ele>112.85714285714286</ele><time>2026-04-05T13:15:39.999Z</time></trkpt><trkpt lat="35.294269410285786" lon="10.70850612381923"><ele>112.71428571428571</ele><time>2026-04-05T13:15:56Z</time></trkpt><trkpt lat="35.29432690892845" lon="10.708464404736393"><ele>112.57142857142857</ele><time>2026-04-05T13:16:34.999Z</time></trkpt><trkpt lat="35.29438758797407" lon="10.708432145311361"><ele>112.42857142857143</ele><time>2026-04-05T13:16:44.999Z</time></trkpt><trkpt lat="35.29444357701701" lon="10.708396547647995"><ele>112.28571428571428</ele><time>2026-04-05T13:16:51.999Z</time></trkpt><trkpt lat="35.2944961346059" lon="10.708345596263321"><ele>112.14285714285714</ele><time>2026-04-05T13:16:58.999Z</time></trkpt><trkpt lat="35.29455170609084" lon="10.708306961644304"><ele>112.0</ele><time>2026-04-05T13:17:03.999Z</time></trkpt><trkpt lat="35.294612994619385" lon="10.708273552175813"><ele>112.0</ele><time>2026-04-05T13:17:11.999Z</time></trkpt><trkpt lat="35.294675369817206" lon="10.708236131303385"><ele>112.0</ele><time>2026-04-05T13:17:18.999Z</time></trkpt><trkpt lat="35.29473096691968" lon="10.708192016382501"><ele>112.0</ele><time>2026-04-05T13:17:25.999Z</time></trkpt><trkpt lat="35.29478068261974" lon="10.708139001505883"><ele>112.0</ele><time>2026-04-05T13:17:31.999Z</time></trkpt><trkpt lat="35.29484390351538" lon="10.70810295647348"><ele>112.0</ele><time>2026-04-05T13:17:38.999Z</time></trkpt><trkpt lat="35.29490599703715" lon="10.708077629515289"><ele>112.0</ele><time>2026-04-05T13:17:45.999Z</time></trkpt><trkpt lat="35.29497985498955" lon="10.708059428061912"><ele>112.0</ele><time>2026-04-05T13:17:52.999Z</time></trkpt><trkpt lat="35.29504223135726" lon="10.70801773895923"><ele>112.14285714285714</ele><time>2026-04-05T13:17:58.999Z</time></trkpt><trkpt lat="35.29511748425528" lon="10.70800446780685"><ele>112.28571428571428</ele><time>2026-04-05T13:18:07.999Z</time></trkpt><trkpt lat="35.29519499919504" lon="10.707971117528734"><ele>112.42857142857143</ele><time>2026-04-05T13:18:12.999Z</time></trkpt><trkpt lat="35.29525660423247" lon="10.707935577102218"><ele>112.57142857142857</ele><time>2026-04-05T13:18:17.999Z</time></trkpt><trkpt lat="35.29530982845554" lon="10.707884901197689"><ele>112.71428571428571</ele><time>2026-04-05T13:18:23.999Z</time></trkpt><trkpt lat="35.295361751632775" lon="10.707834489999648"><ele>112.85714285714286</ele><time>2026-04-05T13:18:30.999Z</time></trkpt><trkpt lat="35.295417367755505" lon="10.70778389708362"><ele>113.0</ele><time>2026-04-05T13:18:37.999Z</time></trkpt><trkpt lat="35.29547632792815" lon="10.707731480441302"><ele>112.57142857142857</ele><time>2026-04-05T13:18:44.999Z</time></trkpt><trkpt lat="35.295549130361145" lon="10.707704365733132"><ele>112.14285714285714</ele><time>2026-04-05T13:18:52.999Z</time></trkpt><trkpt lat="35.29559846135157" lon="10.707647248109007"><ele>111.71428571428571</ele><time>2026-04-05T13:18:59.999Z</time></trkpt><trkpt lat="35.29564738150678" lon="10.70757955553926"><ele>111.28571428571428</ele><time>2026-04-05T13:19:04.999Z</time></trkpt><trkpt lat="35.295674401043925" lon="10.707493307032596"><ele>110.85714285714286</ele><time>2026-04-05T13:19:10.999Z</time></trkpt><trkpt lat="35.295679616895356" lon="10.707401600905808"><ele>110.42857142857142</ele><time>2026-04-05T13:19:16.999Z</time></trkpt><trkpt lat="35.295663188227245" lon="10.707312173757826"><ele>110.0</ele><time>2026-04-05T13:19:21.999Z</time></trkpt><trkpt lat="35.295658916831805" lon="10.707232390410379"><ele>109.99999999999999</ele><time>2026-04-05T13:19:27.999Z</time></trkpt><trkpt lat="35.29565927963859" lon="10.707149073272916"><ele>110.0</ele><time>2026-04-05T13:19:33.999Z</time></trkpt><trkpt lat="35.29562053289513" lon="10.707077228221545"><ele>110.0</ele><time>2026-04-05T13:19:39.999Z</time></trkpt><trkpt lat="35.2955546961446" lon="10.707067977758136"><ele>110.0</ele><time>2026-04-05T13:19:43.999Z</time></trkpt><trkpt lat="35.2955667068075" lon="10.706970332545914"><ele>110.0</ele><time>2026-04-05T13:19:51.999Z</time></trkpt><trkpt lat="35.29560910727929" lon="10.706885560844812"><ele>109.99999999999999</ele><time>2026-04-05T13:19:56.999Z</time></trkpt><trkpt lat="35.295640536949776" lon="10.706817911060156"><ele>110.0</ele><time>2026-04-05T13:20:00.999Z</time></trkpt><trkpt lat="35.29568625199445" lon="10.70674857001841"><ele>110.14285714285714</ele><time>2026-04-05T13:20:05.999Z</time></trkpt><trkpt lat="35.29572846177354" lon="10.706681208206854"><ele>110.28571428571428</ele><time>2026-04-05T13:20:13.999Z</time></trkpt><trkpt lat="35.29574238475916" lon="10.706602657761051"><ele>110.42857142857142</ele><time>2026-04-05T13:20:21.999Z</time></trkpt><trkpt lat="35.29574551028845" lon="10.706513849345434"><ele>110.57142857142857</ele><time>2026-04-05T13:20:27.999Z</time></trkpt><trkpt lat="35.295757929660766" lon="10.706433953394479"><ele>110.71428571428572</ele><time>2026-04-05T13:20:32.999Z</time></trkpt><trkpt lat="35.295773116148695" lon="10.7063504213701"><ele>110.85714285714285</ele><time>2026-04-05T13:20:37.999Z</time></trkpt><trkpt lat="35.29582333090023" lon="10.706303289241822"><ele>111.0</ele><time>2026-04-05T13:20:41.999Z</time></trkpt><trkpt lat="35.29586887590693" lon="10.706243911974083"><ele>111.0</ele><time>2026-04-05T13:20:45.999Z</time></trkpt><trkpt lat="35.29592170974932" lon="10.70617907755776"><ele>111.0</ele><time>2026-04-05T13:20:50.999Z</time></trkpt><trkpt lat="35.29594824754579" lon="10.70610720122638"><ele>111.0</ele><time>2026-04-05T13:20:55.999Z</time></trkpt><trkpt lat="35.296000291630584" lon="10.706044968273341"><ele>111.0</ele><time>2026-04-05T13:21:00.999Z</time></trkpt><trkpt lat="35.29604731433687" lon="10.705992275811749"><ele>111.0</ele><time>2026-04-05T13:21:05.999Z</time></trkpt><trkpt lat="35.29610941985985" lon="10.705928717358585"><ele>111.0</ele><time>2026-04-05T13:21:12.999Z</time></trkpt><trkpt lat="35.296174917044816" lon="10.705892663769166"><ele>111.0</ele><time>2026-04-05T13:21:16.999Z</time></trkpt><trkpt lat="35.296242007529045" lon="10.705862519652484"><ele>110.85714285714285</ele><time>2026-04-05T13:21:30.999Z</time></trkpt><trkpt lat="35.29630283279048" lon="10.705842395639051"><ele>110.71428571428572</ele><time>2026-04-05T13:21:33.999Z</time></trkpt><trkpt lat="35.29638497647172" lon="10.705843153745551"><ele>110.57142857142857</ele><time>2026-04-05T13:21:38.999Z</time></trkpt><trkpt lat="35.29645862805765" lon="10.70584358924873"><ele>110.42857142857142</ele><time>2026-04-05T13:21:44.999Z</time></trkpt><trkpt lat="35.296520687532556" lon="10.70586186528509"><ele>110.28571428571428</ele><time>2026-04-05T13:21:49.999Z</time></trkpt><trkpt lat="35.29659436590578" lon="10.705869918796093"><ele>110.14285714285714</ele><time>2026-04-05T13:21:53.999Z</time></trkpt><trkpt lat="35.296659893339836" lon="10.70588737913289"><ele>110.0</ele><time>2026-04-05T13:21:58.999Z</time></trkpt><trkpt lat="35.29672020928311" lon="10.70593271404409"><ele>109.71428571428571</ele><time>2026-04-05T13:22:03.999Z</time></trkpt><trkpt lat="35.29678000895293" lon="10.705966758309687"><ele>109.42857142857143</ele><time>2026-04-05T13:22:07.999Z</time></trkpt><trkpt lat="35.29683918521203" lon="10.706013833699119"><ele>109.14285714285714</ele><time>2026-04-05T13:22:11.999Z</time></trkpt><trkpt lat="35.296897549011746" lon="10.706052993251525"><ele>108.85714285714286</ele><time>2026-04-05T13:22:15.999Z</time></trkpt><trkpt lat="35.296962209963006" lon="10.706059742031332"><ele>108.57142857142857</ele><time>2026-04-05T13:22:21.999Z</time></trkpt><trkpt lat="35.297018746136935" lon="10.70599703176068"><ele>108.28571428571428</ele><time>2026-04-05T13:22:28.999Z</time></trkpt><trkpt lat="35.297067149464624" lon="10.705934862869922"><ele>108.0</ele><time>2026-04-05T13:22:35.999Z</time></trkpt><trkpt lat="35.29713273527927" lon="10.705881376192583"><ele>108.0</ele><time>2026-04-05T13:22:40.999Z</time></trkpt><trkpt lat="35.297178024629844" lon="10.705816452382727"><ele>108.0</ele><time>2026-04-05T13:22:47.999Z</time></trkpt><trkpt lat="35.29723709399296" lon="10.705773754754118"><ele>108.0</ele><time>2026-04-05T13:22:52.999Z</time></trkpt><trkpt lat="35.29729344924204" lon="10.705720926677357"><ele>108.0</ele><time>2026-04-05T13:22:59.999Z</time></trkpt><trkpt lat="35.297369564446996" lon="10.705706319172908"><ele>108.0</ele><time>2026-04-05T13:23:05.999Z</time></trkpt><trkpt lat="35.29743917068348" lon="10.705731133729723"><ele>108.0</ele><time>2026-04-05T13:23:10.999Z</time></trkpt><trkpt lat="35.29750018273401" lon="10.705765372979187"><ele>108.0</ele><time>2026-04-05T13:23:15.999Z</time></trkpt><trkpt lat="35.297539757993256" lon="10.705832088338461"><ele>107.71428571428571</ele><time>2026-04-05T13:23:21.999Z</time></trkpt><trkpt lat="35.297578432641764" lon="10.705898054644742"><ele>107.42857142857142</ele><time>2026-04-05T13:23:26.999Z</time></trkpt><trkpt lat="35.29760221751256" lon="10.705984085483797"><ele>107.14285714285714</ele><time>2026-04-05T13:23:31.999Z</time></trkpt><trkpt lat="35.29763787989162" lon="10.706055756219197"><ele>106.85714285714286</ele><time>2026-04-05T13:23:36.999Z</time></trkpt><trkpt lat="35.297703563003566" lon="10.706094386820215"><ele>106.57142857142857</ele><time>2026-04-05T13:23:42.999Z</time></trkpt><trkpt lat="35.29777049653898" lon="10.706072542289723"><ele>106.28571428571429</ele><time>2026-04-05T13:23:49.999Z</time></trkpt><trkpt lat="35.2978394838786" lon="10.706047152039838"><ele>106.0</ele><time>2026-04-05T13:23:54.999Z</time></trkpt><trkpt lat="35.29789345828285" lon="10.705991140352705"><ele>106.0</ele><time>2026-04-05T13:24:00.999Z</time></trkpt><trkpt lat="35.297950051189396" lon="10.705937895693037"><ele>106.0</ele><time>2026-04-05T13:24:05.999Z</time></trkpt><trkpt lat="35.298006176768524" lon="10.705881744465088"><ele>106.0</ele><time>2026-04-05T13:24:12Z</time></trkpt><trkpt lat="35.29807226915684" lon="10.705846236230839"><ele>106.0</ele><time>2026-04-05T13:24:17Z</time></trkpt><trkpt lat="35.29811901166396" lon="10.705783783226481"><ele>106.0</ele><time>2026-04-05T13:24:22Z</time></trkpt><trkpt lat="35.298123939967525" lon="10.705704432967954"><ele>106.0</ele><time>2026-04-05T13:24:28Z</time></trkpt><trkpt lat="35.29809400032448" lon="10.705634060502772"><ele>106.0</ele><time>2026-04-05T13:24:31.999Z</time></trkpt><trkpt lat="35.29804460428638" lon="10.705573106747142"><ele>106.0</ele><time>2026-04-05T13:24:36.999Z</time></trkpt><trkpt lat="35.29800076222063" lon="10.705506464831707"><ele>106.0</ele><time>2026-04-05T13:24:41.999Z</time></trkpt><trkpt lat="35.29794592046138" lon="10.705459960804472"><ele>106.0</ele><time>2026-04-05T13:24:49Z</time></trkpt><trkpt lat="35.29790351552009" lon="10.705517675804394"><ele>106.0</ele><time>2026-04-05T13:25:01Z</time></trkpt><trkpt lat="35.29785806820464" lon="10.705460054660874"><ele>106.0</ele><time>2026-04-05T13:27:14Z</time></trkpt><trkpt lat="35.297843460196056" lon="10.705384572519051"><ele>106.0</ele><time>2026-04-05T13:27:19Z</time></trkpt><trkpt lat="35.29781707359596" lon="10.705297883316277"><ele>106.0</ele><time>2026-04-05T13:27:27Z</time></trkpt><trkpt lat="35.297810218929236" lon="10.705211683198286"><ele>106.0</ele><time>2026-04-05T13:27:33Z</time></trkpt><trkpt lat="35.29781075541532" lon="10.70532117740202"><ele>106.0</ele><time>2026-04-05T13:36:37Z</time></trkpt><trkpt lat="35.297912515104706" lon="10.705413319260787"><ele>106.0</ele><time>2026-04-05T13:36:39Z</time></trkpt><trkpt lat="35.29800157336225" lon="10.705512653778861"><ele>106.0</ele><time>2026-04-05T13:36:41Z</time></trkpt><trkpt lat="35.29805884205698" lon="10.705586969286161"><ele>106.0</ele><time>2026-04-05T13:36:42Z</time></trkpt><trkpt lat="35.2981432315261" lon="10.70568906638523"><ele>105.8</ele><time>2026-04-05T13:36:43Z</time></trkpt><trkpt lat="35.298220842514" lon="10.705803113005592"><ele>105.6</ele><time>2026-04-05T13:36:45Z</time></trkpt><trkpt lat="35.29831382922373" lon="10.705879745923461"><ele>105.4</ele><time>2026-04-05T13:36:47.001Z</time></trkpt><trkpt lat="35.2983784741223" lon="10.705865389603675"><ele>105.2</ele><time>2026-04-05T13:36:48.001Z</time></trkpt><trkpt lat="35.29844464729854" lon="10.705823471094593"><ele>105.0</ele><time>2026-04-05T13:36:49.001Z</time></trkpt><trkpt lat="35.2985371982595" lon="10.705733164968589"><ele>105.0</ele><time>2026-04-05T13:36:51Z</time></trkpt><trkpt lat="35.29858050812308" lon="10.705665821945658"><ele>105.0</ele><time>2026-04-05T13:36:52Z</time></trkpt><trkpt lat="35.29868909280602" lon="10.705596220108733"><ele>105.0</ele><time>2026-04-05T13:36:54Z</time></trkpt><trkpt lat="35.29877478887222" lon="10.705562213534503"><ele>105.0</ele><time>2026-04-05T13:36:56Z</time></trkpt><trkpt lat="35.29884754393995" lon="10.705512230823706"><ele>105.0</ele><time>2026-04-05T13:36:58Z</time></trkpt><trkpt lat="35.29893816849664" lon="10.705468709234822"><ele>105.0</ele><time>2026-04-05T13:37:00Z</time></trkpt><trkpt lat="35.299038048982496" lon="10.705403340255618"><ele>105.0</ele><time>2026-04-05T13:37:02Z</time></trkpt><trkpt lat="35.29915054372399" lon="10.705340305066773"><ele>105.0</ele><time>2026-04-05T13:37:04Z</time></trkpt><trkpt lat="35.29926053642515" lon="10.705286905146231"><ele>105.0</ele><time>2026-04-05T13:37:06Z</time></trkpt><trkpt lat="35.299361580200866" lon="10.705233067054706"><ele>105.0</ele><time>2026-04-05T13:37:08Z</time></trkpt><trkpt lat="35.29945242017613" lon="10.70517168874637"><ele>105.0</ele><time>2026-04-05T13:37:10Z</time></trkpt><trkpt lat="35.29956095100503" lon="10.705099605850389"><ele>105.0</ele><time>2026-04-05T13:37:12Z</time></trkpt><trkpt lat="35.299675063368895" lon="10.705027231389177"><ele>105.0</ele><time>2026-04-05T13:37:14Z</time></trkpt><trkpt lat="35.2997417740963" lon="10.704990450645573"><ele>105.0</ele><time>2026-04-05T13:37:15Z</time></trkpt><trkpt lat="35.299819378417475" lon="10.704949192482804"><ele>105.0</ele><time>2026-04-05T13:37:16Z</time></trkpt><trkpt lat="35.29991427273841" lon="10.704894524249518"><ele>105.0</ele><time>2026-04-05T13:37:17Z</time></trkpt><trkpt lat="35.29999711926963" lon="10.704849128673795"><ele>105.0</ele><time>2026-04-05T13:37:18Z</time></trkpt><trkpt lat="35.300072985109665" lon="10.704802872322492"><ele>105.0</ele><time>2026-04-05T13:37:19Z</time></trkpt><trkpt lat="35.30014938386897" lon="10.704753174114597"><ele>105.0</ele><time>2026-04-05T13:37:20Z</time></trkpt><trkpt lat="35.30021964602758" lon="10.704709502174921"><ele>105.0</ele><time>2026-04-05T13:37:21Z</time></trkpt><trkpt lat="35.300288119209924" lon="10.704665446128256"><ele>105.0</ele><time>2026-04-05T13:37:22Z</time></trkpt><trkpt lat="35.30035793019981" lon="10.70462160086669"><ele>105.0</ele><time>2026-04-05T13:37:23Z</time></trkpt><trkpt lat="35.30042742800246" lon="10.704576763539492"><ele>105.0</ele><time>2026-04-05T13:37:24Z</time></trkpt><trkpt lat="35.300494583341106" lon="10.704533433342128"><ele>105.0</ele><time>2026-04-05T13:37:25Z</time></trkpt><trkpt lat="35.30056354461078" lon="10.704493068886414"><ele>105.0</ele><time>2026-04-05T13:37:26Z</time></trkpt><trkpt lat="35.30063256871832" lon="10.704453450980907"><ele>105.0</ele><time>2026-04-05T13:37:27Z</time></trkpt><trkpt lat="35.30070261321168" lon="10.704411700133642"><ele>105.16666666666667</ele><time>2026-04-05T13:37:28Z</time></trkpt><trkpt lat="35.300774945030184" lon="10.704373993472007"><ele>105.33333333333334</ele><time>2026-04-05T13:37:29Z</time></trkpt><trkpt lat="35.300848643448035" lon="10.704337822466368"><ele>105.5</ele><time>2026-04-05T13:37:30Z</time></trkpt><trkpt lat="35.30092787658396" lon="10.704291091491962"><ele>105.66666666666667</ele><time>2026-04-05T13:37:31Z</time></trkpt><trkpt lat="35.30100895445141" lon="10.704233728116975"><ele>105.83333333333334</ele><time>2026-04-05T13:37:32Z</time></trkpt><trkpt lat="35.30109778933943" lon="10.704176524460639"><ele>106.0</ele><time>2026-04-05T13:37:33Z</time></trkpt><trkpt lat="35.30118523578768" lon="10.70411782972487"><ele>106.00000000000001</ele><time>2026-04-05T13:37:34Z</time></trkpt><trkpt lat="35.30126865014096" lon="10.704065938413319"><ele>106.0</ele><time>2026-04-05T13:37:35Z</time></trkpt><trkpt lat="35.301346969539615" lon="10.704019397903876"><ele>106.0</ele><time>2026-04-05T13:37:36Z</time></trkpt><trkpt lat="35.30142315172715" lon="10.703976011566315"><ele>106.0</ele><time>2026-04-05T13:37:37Z</time></trkpt><trkpt lat="35.30150342699973" lon="10.703929507715706"><ele>106.00000000000001</ele><time>2026-04-05T13:37:38Z</time></trkpt><trkpt lat="35.30158881028269" lon="10.703876579066767"><ele>106.0</ele><time>2026-04-05T13:37:39Z</time></trkpt><trkpt lat="35.301675147893874" lon="10.70382859174236"><ele>105.83333333333334</ele><time>2026-04-05T13:37:40Z</time></trkpt><trkpt lat="35.301754796259985" lon="10.703784864160918"><ele>105.66666666666667</ele><time>2026-04-05T13:37:41Z</time></trkpt><trkpt lat="35.301831827162225" lon="10.703739893410594"><ele>105.5</ele><time>2026-04-05T13:37:42Z</time></trkpt><trkpt lat="35.301903105464284" lon="10.70369577755067"><ele>105.33333333333334</ele><time>2026-04-05T13:37:43Z</time></trkpt><trkpt lat="35.301970629014605" lon="10.70365362078434"><ele>105.16666666666667</ele><time>2026-04-05T13:37:44Z</time></trkpt><trkpt lat="35.30203453939679" lon="10.703613449684578"><ele>105.0</ele><time>2026-04-05T13:37:45Z</time></trkpt><trkpt lat="35.30209946170416" lon="10.70357224732734"><ele>104.8</ele><time>2026-04-05T13:37:46Z</time></trkpt><trkpt lat="35.302166494238556" lon="10.703534957066633"><ele>104.6</ele><time>2026-04-05T13:37:47Z</time></trkpt><trkpt lat="35.3022269261331" lon="10.703497732146397"><ele>104.4</ele><time>2026-04-05T13:37:48Z</time></trkpt><trkpt lat="35.302331672028274" lon="10.703438748785535"><ele>104.2</ele><time>2026-04-05T13:37:50Z</time></trkpt><trkpt lat="35.302429543831266" lon="10.703374874332237"><ele>104.0</ele><time>2026-04-05T13:37:52Z</time></trkpt><trkpt lat="35.302531370588994" lon="10.703320609031692"><ele>103.83333333333333</ele><time>2026-04-05T13:37:54Z</time></trkpt><trkpt lat="35.30264848608736" lon="10.703246972946296"><ele>103.66666666666666</ele><time>2026-04-05T13:37:56Z</time></trkpt><trkpt lat="35.30270976520773" lon="10.703203848860785"><ele>103.5</ele><time>2026-04-05T13:37:57Z</time></trkpt><trkpt lat="35.30277679397906" lon="10.703161625622446"><ele>103.33333333333334</ele><time>2026-04-05T13:37:58Z</time></trkpt><trkpt lat="35.3028441181036" lon="10.70312304863195"><ele>103.16666666666667</ele><time>2026-04-05T13:37:59Z</time></trkpt><trkpt lat="35.302911299908715" lon="10.703086787667496"><ele>103.0</ele><time>2026-04-05T13:38:00Z</time></trkpt><trkpt lat="35.302976959094075" lon="10.70304865677356"><ele>103.00000000000001</ele><time>2026-04-05T13:38:01Z</time></trkpt><trkpt lat="35.30304297368346" lon="10.703009576735319"><ele>103.0</ele><time>2026-04-05T13:38:02Z</time></trkpt><trkpt lat="35.30310760474457" lon="10.702965740944556"><ele>103.0</ele><time>2026-04-05T13:38:03Z</time></trkpt><trkpt lat="35.30317372884697" lon="10.70292039493588"><ele>103.0</ele><time>2026-04-05T13:38:04Z</time></trkpt><trkpt lat="35.30324243895894" lon="10.702881317444634"><ele>103.00000000000001</ele><time>2026-04-05T13:38:05Z</time></trkpt><trkpt lat="35.30330900122324" lon="10.702835790591491"><ele>103.0</ele><time>2026-04-05T13:38:06Z</time></trkpt><trkpt lat="35.30338307422851" lon="10.702790330971755"><ele>103.16666666666667</ele><time>2026-04-05T13:38:07Z</time></trkpt><trkpt lat="35.30345783530704" lon="10.702743330936341"><ele>103.33333333333334</ele><time>2026-04-05T13:38:08Z</time></trkpt><trkpt lat="35.30353084706373" lon="10.702697935077248"><ele>103.5</ele><time>2026-04-05T13:38:09Z</time></trkpt><trkpt lat="35.30360547646342" lon="10.702653624036873"><ele>103.66666666666666</ele><time>2026-04-05T13:38:10Z</time></trkpt><trkpt lat="35.3036819238176" lon="10.702606132643135"><ele>103.83333333333333</ele><time>2026-04-05T13:38:11Z</time></trkpt><trkpt lat="35.303762487176506" lon="10.702553180739214"><ele>104.0</ele><time>2026-04-05T13:38:12Z</time></trkpt><trkpt lat="35.303849067801764" lon="10.702495413328771"><ele>103.80000000000001</ele><time>2026-04-05T13:38:13Z</time></trkpt><trkpt lat="35.30393325671165" lon="10.702441962758327"><ele>103.60000000000001</ele><time>2026-04-05T13:38:14Z</time></trkpt><trkpt lat="35.30401651546483" lon="10.702394325867596"><ele>103.4</ele><time>2026-04-05T13:38:15Z</time></trkpt><trkpt lat="35.30409540882912" lon="10.702345869995495"><ele>103.2</ele><time>2026-04-05T13:38:16Z</time></trkpt><trkpt lat="35.304175534566696" lon="10.702298393751057"><ele>103.0</ele><time>2026-04-05T13:38:17Z</time></trkpt><trkpt lat="35.304260126526685" lon="10.702252048281647"><ele>103.0</ele><time>2026-04-05T13:38:18Z</time></trkpt><trkpt lat="35.30434021533845" lon="10.702205430106403"><ele>103.0</ele><time>2026-04-05T13:38:19Z</time></trkpt><trkpt lat="35.304424603248606" lon="10.702160409599088"><ele>103.0</ele><time>2026-04-05T13:38:20Z</time></trkpt><trkpt lat="35.304505660650875" lon="10.702112818932477"><ele>103.0</ele><time>2026-04-05T13:38:21Z</time></trkpt><trkpt lat="35.304588523900044" lon="10.702065085425607"><ele>103.0</ele><time>2026-04-05T13:38:22Z</time></trkpt><trkpt lat="35.304667848785336" lon="10.70200966253153"><ele>103.4</ele><time>2026-04-05T13:38:23Z</time></trkpt><trkpt lat="35.30474838396734" lon="10.701955229966227"><ele>103.80000000000001</ele><time>2026-04-05T13:38:24Z</time></trkpt><trkpt lat="35.30483574559078" lon="10.701903854740507"><ele>104.2</ele><time>2026-04-05T13:38:25Z</time></trkpt><trkpt lat="35.3049304451215" lon="10.701848486356626"><ele>104.6</ele><time>2026-04-05T13:38:26Z</time></trkpt><trkpt lat="35.30502505621756" lon="10.701785398611536"><ele>105.0</ele><time>2026-04-05T13:38:27Z</time></trkpt><trkpt lat="35.30512315923272" lon="10.701725400136624"><ele>105.0</ele><time>2026-04-05T13:38:28Z</time></trkpt><trkpt lat="35.305224922494304" lon="10.701666209731654"><ele>105.0</ele><time>2026-04-05T13:38:29Z</time></trkpt><trkpt lat="35.30532521801474" lon="10.701609206927708"><ele>105.0</ele><time>2026-04-05T13:38:30Z</time></trkpt><trkpt lat="35.30542523987502" lon="10.701548861105103"><ele>105.0</ele><time>2026-04-05T13:38:31Z</time></trkpt><trkpt lat="35.305523933091415" lon="10.701486819964828"><ele>105.0</ele><time>2026-04-05T13:38:32Z</time></trkpt><trkpt lat="35.30562130587276" lon="10.701428096384937"><ele>104.8</ele><time>2026-04-05T13:38:33Z</time></trkpt><trkpt lat="35.30571019144822" lon="10.701371811660175"><ele>104.6</ele><time>2026-04-05T13:38:34Z</time></trkpt><trkpt lat="35.3057904986418" lon="10.701313608455692"><ele>104.4</ele><time>2026-04-05T13:38:35Z</time></trkpt><trkpt lat="35.30587948518952" lon="10.701258885813314"><ele>104.2</ele><time>2026-04-05T13:38:36Z</time></trkpt><trkpt lat="35.30597839036112" lon="10.70121236374326"><ele>104.0</ele><time>2026-04-05T13:38:37Z</time></trkpt><trkpt lat="35.30607474494427" lon="10.701149738460794"><ele>104.0</ele><time>2026-04-05T13:38:38Z</time></trkpt><trkpt lat="35.30616957760971" lon="10.701088391137807"><ele>104.0</ele><time>2026-04-05T13:38:39Z</time></trkpt><trkpt lat="35.30626106616366" lon="10.701032473953905"><ele>104.0</ele><time>2026-04-05T13:38:40Z</time></trkpt><trkpt lat="35.30635451236999" lon="10.700977058153793"><ele>104.0</ele><time>2026-04-05T13:38:41Z</time></trkpt><trkpt lat="35.30644747195013" lon="10.700922103277193"><ele>104.0</ele><time>2026-04-05T13:38:42Z</time></trkpt><trkpt lat="35.3065395211468" lon="10.700866117907292"><ele>104.0</ele><time>2026-04-05T13:38:43Z</time></trkpt><trkpt lat="35.306628902722814" lon="10.700808382630242"><ele>104.0</ele><time>2026-04-05T13:38:44Z</time></trkpt><trkpt lat="35.30672038639287" lon="10.70075597437954"><ele>104.0</ele><time>2026-04-05T13:38:45Z</time></trkpt><trkpt lat="35.3068136906547" lon="10.700703352063037"><ele>104.0</ele><time>2026-04-05T13:38:46Z</time></trkpt><trkpt lat="35.30690531490751" lon="10.700654642701673"><ele>104.0</ele><time>2026-04-05T13:38:47Z</time></trkpt><trkpt lat="35.30699413339217" lon="10.700600868267598"><ele>103.99999999999999</ele><time>2026-04-05T13:38:48Z</time></trkpt><trkpt lat="35.30707816783433" lon="10.700544756656633"><ele>104.0</ele><time>2026-04-05T13:38:49Z</time></trkpt><trkpt lat="35.307156022361724" lon="10.70049509146822"><ele>104.0</ele><time>2026-04-05T13:38:50Z</time></trkpt><trkpt lat="35.30723239163919" lon="10.700444547672687"><ele>104.0</ele><time>2026-04-05T13:38:51Z</time></trkpt><trkpt lat="35.30730449720413" lon="10.700400553091958"><ele>103.99999999999999</ele><time>2026-04-05T13:38:51.999Z</time></trkpt><trkpt lat="35.30739005894027" lon="10.700354690914192"><ele>104.0</ele><time>2026-04-05T13:38:52.999Z</time></trkpt><trkpt lat="35.30748074405493" lon="10.700306031490525"><ele>104.0</ele><time>2026-04-05T13:38:53.999Z</time></trkpt><trkpt lat="35.30757259877773" lon="10.700253875003895"><ele>104.0</ele><time>2026-04-05T13:38:54.999Z</time></trkpt><trkpt lat="35.30766568272697" lon="10.700194185235903"><ele>104.0</ele><time>2026-04-05T13:38:55.999Z</time></trkpt><trkpt lat="35.30775878515203" lon="10.70013445028722"><ele>104.0</ele><time>2026-04-05T13:38:56.999Z</time></trkpt><trkpt lat="35.307855303704855" lon="10.70007663475564"><ele>104.0</ele><time>2026-04-05T13:38:57.999Z</time></trkpt><trkpt lat="35.30795071916914" lon="10.700019339348259"><ele>104.0</ele><time>2026-04-05T13:38:58.999Z</time></trkpt><trkpt lat="35.308042871601984" lon="10.699963345032668"><ele>104.0</ele><time>2026-04-05T13:38:59.999Z</time></trkpt><trkpt lat="35.30813408077488" lon="10.69990869646812"><ele>104.0</ele><time>2026-04-05T13:39:00.999Z</time></trkpt><trkpt lat="35.30822539153871" lon="10.699857031322802"><ele>104.0</ele><time>2026-04-05T13:39:01.999Z</time></trkpt><trkpt lat="35.30831711594777" lon="10.699805212172192"><ele>104.0</ele><time>2026-04-05T13:39:02.999Z</time></trkpt><trkpt lat="35.30840664084483" lon="10.699749988155746"><ele>104.2</ele><time>2026-04-05T13:39:03.999Z</time></trkpt><trkpt lat="35.308497625484506" lon="10.699695509919543"><ele>104.4</ele><time>2026-04-05T13:39:04.999Z</time></trkpt><trkpt lat="35.30859206467582" lon="10.69964316596747"><ele>104.6</ele><time>2026-04-05T13:39:05.999Z</time></trkpt><trkpt lat="35.30868864268115" lon="10.699589037627327"><ele>104.8</ele><time>2026-04-05T13:39:06.999Z</time></trkpt><trkpt lat="35.308785746073106" lon="10.69952969418267"><ele>105.0</ele><time>2026-04-05T13:39:07.999Z</time></trkpt><trkpt lat="35.30888163498831" lon="10.699464586792432"><ele>104.4</ele><time>2026-04-05T13:39:08.999Z</time></trkpt><trkpt lat="35.308979783024114" lon="10.699402212183157"><ele>103.8</ele><time>2026-04-05T13:39:09.999Z</time></trkpt><trkpt lat="35.30907808349311" lon="10.699345810096021"><ele>103.19999999999999</ele><time>2026-04-05T13:39:11Z</time></trkpt><trkpt lat="35.30917832619155" lon="10.699292997482976"><ele>102.6</ele><time>2026-04-05T13:39:12Z</time></trkpt><trkpt lat="35.30927932026848" lon="10.69923954638054"><ele>102.0</ele><time>2026-04-05T13:39:13Z</time></trkpt><trkpt lat="35.30937923226414" lon="10.699174263298271"><ele>102.0</ele><time>2026-04-05T13:39:14Z</time></trkpt><trkpt lat="35.30947390866164" lon="10.69910886588546"><ele>102.0</ele><time>2026-04-05T13:39:15Z</time></trkpt><trkpt lat="35.309572551380384" lon="10.699050024500702"><ele>102.0</ele><time>2026-04-05T13:39:16Z</time></trkpt><trkpt lat="35.30966761921629" lon="10.69899322563669"><ele>102.0</ele><time>2026-04-05T13:39:17Z</time></trkpt><trkpt lat="35.30975987254156" lon="10.698940096641508"><ele>102.0</ele><time>2026-04-05T13:39:18Z</time></trkpt><trkpt lat="35.309850383578905" lon="10.69888775322546"><ele>102.0</ele><time>2026-04-05T13:39:19Z</time></trkpt><trkpt lat="35.309942210422456" lon="10.698833589295402"><ele>102.0</ele><time>2026-04-05T13:39:20Z</time></trkpt><trkpt lat="35.310033193382985" lon="10.69877963530931"><ele>102.0</ele><time>2026-04-05T13:39:21Z</time></trkpt><trkpt lat="35.310126096556786" lon="10.69872629163269"><ele>102.0</ele><time>2026-04-05T13:39:22Z</time></trkpt><trkpt lat="35.31021918186749" lon="10.698671910831875"><ele>102.0</ele><time>2026-04-05T13:39:23Z</time></trkpt><trkpt lat="35.31031320050428" lon="10.698616625622984"><ele>101.8</ele><time>2026-04-05T13:39:24Z</time></trkpt><trkpt lat="35.31040758536765" lon="10.698561109770074"><ele>101.6</ele><time>2026-04-05T13:39:25Z</time></trkpt><trkpt lat="35.31050181537962" lon="10.698504397279622"><ele>101.39999999999999</ele><time>2026-04-05T13:39:26Z</time></trkpt><trkpt lat="35.31060065762931" lon="10.698446034300442"><ele>101.19999999999999</ele><time>2026-04-05T13:39:27Z</time></trkpt><trkpt lat="35.31069789713063" lon="10.698387558117837"><ele>101.0</ele><time>2026-04-05T13:39:28Z</time></trkpt><trkpt lat="35.31079586034371" lon="10.698329105290947"><ele>101.8</ele><time>2026-04-05T13:39:29Z</time></trkpt><trkpt lat="35.31089433703549" lon="10.698270863912999"><ele>102.6</ele><time>2026-04-05T13:39:30Z</time></trkpt><trkpt lat="35.31099262878287" lon="10.698210681513382"><ele>103.4</ele><time>2026-04-05T13:39:31Z</time></trkpt><trkpt lat="35.31109027602765" lon="10.698149836075896"><ele>104.2</ele><time>2026-04-05T13:39:32Z</time></trkpt><trkpt lat="35.31118785446082" lon="10.698088061024086"><ele>105.0</ele><time>2026-04-05T13:39:33Z</time></trkpt><trkpt lat="35.311294579347695" lon="10.698025856725955"><ele>105.0</ele><time>2026-04-05T13:39:34Z</time></trkpt><trkpt lat="35.31140360168441" lon="10.697962012227002"><ele>105.0</ele><time>2026-04-05T13:39:35Z</time></trkpt><trkpt lat="35.311516815361905" lon="10.697893508217524"><ele>105.0</ele><time>2026-04-05T13:39:36Z</time></trkpt><trkpt lat="35.311627049269156" lon="10.697827068857492"><ele>105.0</ele><time>2026-04-05T13:39:37Z</time></trkpt><trkpt lat="35.31173839122356" lon="10.697768445251798"><ele>105.0</ele><time>2026-04-05T13:39:38Z</time></trkpt><trkpt lat="35.311849440191885" lon="10.697706161348004"><ele>105.0</ele><time>2026-04-05T13:39:39Z</time></trkpt><trkpt lat="35.31196347315834" lon="10.697631947605677"><ele>105.0</ele><time>2026-04-05T13:39:40Z</time></trkpt><trkpt lat="35.31207674911579" lon="10.697559814769749"><ele>105.0</ele><time>2026-04-05T13:39:41Z</time></trkpt><trkpt lat="35.31219042244788" lon="10.697491064709356"><ele>105.25</ele><time>2026-04-05T13:39:42Z</time></trkpt><trkpt lat="35.312303345735586" lon="10.697423314074246"><ele>105.5</ele><time>2026-04-05T13:39:43Z</time></trkpt><trkpt lat="35.312410094545285" lon="10.697360261777002"><ele>105.75</ele><time>2026-04-05T13:39:44Z</time></trkpt><trkpt lat="35.31251008687077" lon="10.697299281972416"><ele>106.0</ele><time>2026-04-05T13:39:45Z</time></trkpt><trkpt lat="35.3126077555722" lon="10.697237736026159"><ele>106.0</ele><time>2026-04-05T13:39:46Z</time></trkpt><trkpt lat="35.31270654783539" lon="10.697173391478598"><ele>106.0</ele><time>2026-04-05T13:39:47Z</time></trkpt><trkpt lat="35.31281166006455" lon="10.697109258993171"><ele>106.0</ele><time>2026-04-05T13:39:48Z</time></trkpt><trkpt lat="35.31291690812618" lon="10.697046876762364"><ele>106.0</ele><time>2026-04-05T13:39:49Z</time></trkpt><trkpt lat="35.31302029037941" lon="10.696986695036273"><ele>105.4</ele><time>2026-04-05T13:39:50Z</time></trkpt><trkpt lat="35.31311832530858" lon="10.696931164045253"><ele>104.8</ele><time>2026-04-05T13:39:51Z</time></trkpt><trkpt lat="35.313209343891515" lon="10.696877672702643"><ele>104.2</ele><time>2026-04-05T13:39:52Z</time></trkpt><trkpt lat="35.31329414922227" lon="10.696828173282215"><ele>103.60000000000001</ele><time>2026-04-05T13:39:53Z</time></trkpt><trkpt lat="35.313373045349024" lon="10.696785907798587"><ele>103.0</ele><time>2026-04-05T13:39:54Z</time></trkpt><trkpt lat="35.313448768062365" lon="10.696740685749782"><ele>103.00000000000001</ele><time>2026-04-05T13:39:55Z</time></trkpt><trkpt lat="35.31351955843977" lon="10.69669715631413"><ele>103.0</ele><time>2026-04-05T13:39:56Z</time></trkpt><trkpt lat="35.313587804956725" lon="10.696656366339921"><ele>103.0</ele><time>2026-04-05T13:39:57Z</time></trkpt><trkpt lat="35.31364786765715" lon="10.696621006247325"><ele>103.0</ele><time>2026-04-05T13:39:58Z</time></trkpt><trkpt lat="35.313742351348274" lon="10.696558288634897"><ele>103.00000000000001</ele><time>2026-04-05T13:39:59.999Z</time></trkpt><trkpt lat="35.313812544638836" lon="10.696515914606326"><ele>103.0</ele><time>2026-04-05T13:40:01.999Z</time></trkpt><trkpt lat="35.313898863394186" lon="10.696461878843978"><ele>102.85714285714285</ele><time>2026-04-05T13:40:04.999Z</time></trkpt><trkpt lat="35.31395494019865" lon="10.696403749018312"><ele>102.71428571428571</ele><time>2026-04-05T13:40:06.999Z</time></trkpt><trkpt lat="35.313994423053444" lon="10.696333336759041"><ele>102.57142857142857</ele><time>2026-04-05T13:40:08.999Z</time></trkpt><trkpt lat="35.314018831523235" lon="10.696251934979063"><ele>102.42857142857142</ele><time>2026-04-05T13:40:10.999Z</time></trkpt><trkpt lat="35.314021470978545" lon="10.69615302526534"><ele>102.28571428571429</ele><time>2026-04-05T13:40:12.999Z</time></trkpt><trkpt lat="35.314031084477335" lon="10.696071499190799"><ele>102.14285714285714</ele><time>2026-04-05T13:40:15.999Z</time></trkpt><trkpt lat="35.3140308822233" lon="10.695991865465473"><ele>102.0</ele><time>2026-04-05T13:40:21.999Z</time></trkpt><trkpt lat="35.31396798752627" lon="10.695947293711514"><ele>102.16666666666667</ele><time>2026-04-05T13:40:23.999Z</time></trkpt><trkpt lat="35.313902337284965" lon="10.695942725770307"><ele>102.33333333333334</ele><time>2026-04-05T13:40:24.999Z</time></trkpt><trkpt lat="35.31380399546914" lon="10.695975536826298"><ele>102.5</ele><time>2026-04-05T13:40:25.999Z</time></trkpt><trkpt lat="35.313705069546806" lon="10.695986456116191"><ele>102.66666666666667</ele><time>2026-04-05T13:40:26.999Z</time></trkpt><trkpt lat="35.31362552241252" lon="10.695989974858119"><ele>102.83333333333334</ele><time>2026-04-05T13:40:27.999Z</time></trkpt><trkpt lat="35.313536410579516" lon="10.695991049185503"><ele>103.0</ele><time>2026-04-05T13:40:28.999Z</time></trkpt><trkpt lat="35.313442528648814" lon="10.695993987404092"><ele>103.0</ele><time>2026-04-05T13:40:29.999Z</time></trkpt><trkpt lat="35.313346647577674" lon="10.696000129692031"><ele>103.0</ele><time>2026-04-05T13:40:30.999Z</time></trkpt><trkpt lat="35.31324604268339" lon="10.69600475111034"><ele>103.0</ele><time>2026-04-05T13:40:31.999Z</time></trkpt><trkpt lat="35.313144040449174" lon="10.696006481101431"><ele>103.0</ele><time>2026-04-05T13:40:32.999Z</time></trkpt><trkpt lat="35.313034463846776" lon="10.696007393482187"><ele>103.0</ele><time>2026-04-05T13:40:33.999Z</time></trkpt><trkpt lat="35.31292232413553" lon="10.696009810653454"><ele>103.0</ele><time>2026-04-05T13:40:34.999Z</time></trkpt><trkpt lat="35.31280587421314" lon="10.696002507943282"><ele>103.0</ele><time>2026-04-05T13:40:35.999Z</time></trkpt><trkpt lat="35.3126890431478" lon="10.695989932720284"><ele>103.0</ele><time>2026-04-05T13:40:36.999Z</time></trkpt><trkpt lat="35.31257181425706" lon="10.695978453265557"><ele>103.0</ele><time>2026-04-05T13:40:37.999Z</time></trkpt><trkpt lat="35.31245284540954" lon="10.695963380619993"><ele>103.0</ele><time>2026-04-05T13:40:38.999Z</time></trkpt><trkpt lat="35.31233638656522" lon="10.695941940724953"><ele>103.0</ele><time>2026-04-05T13:40:39.999Z</time></trkpt><trkpt lat="35.312220149822224" lon="10.695920449792652"><ele>103.0</ele><time>2026-04-05T13:40:40.999Z</time></trkpt><trkpt lat="35.31210661602687" lon="10.695898495290237"><ele>103.0</ele><time>2026-04-05T13:40:41.999Z</time></trkpt><trkpt lat="35.311993416563475" lon="10.695874416498123"><ele>103.75</ele><time>2026-04-05T13:40:42.999Z</time></trkpt><trkpt lat="35.31188167431256" lon="10.695847408091122"><ele>104.5</ele><time>2026-04-05T13:40:43.999Z</time></trkpt><trkpt lat="35.31177105278285" lon="10.695816870593772"><ele>105.25</ele><time>2026-04-05T13:40:44.999Z</time></trkpt><trkpt lat="35.31166171983489" lon="10.695783452103791"><ele>106.0</ele><time>2026-04-05T13:40:45.999Z</time></trkpt><trkpt lat="35.31155327627357" lon="10.695748969673081"><ele>106.0</ele><time>2026-04-05T13:40:46.999Z</time></trkpt><trkpt lat="35.31144608207708" lon="10.695716726276187"><ele>106.0</ele><time>2026-04-05T13:40:47.999Z</time></trkpt><trkpt lat="35.311340556622085" lon="10.695679972632014"><ele>106.0</ele><time>2026-04-05T13:40:48.999Z</time></trkpt><trkpt lat="35.31123750725195" lon="10.695638602427813"><ele>106.0</ele><time>2026-04-05T13:40:49.999Z</time></trkpt><trkpt lat="35.31113585805304" lon="10.695595350884822"><ele>106.0</ele><time>2026-04-05T13:40:50.999Z</time></trkpt><trkpt lat="35.311036289000306" lon="10.6955491914653"><ele>105.8</ele><time>2026-04-05T13:40:51.999Z</time></trkpt><trkpt lat="35.310938837080286" lon="10.695500844209066"><ele>105.6</ele><time>2026-04-05T13:40:52.999Z</time></trkpt><trkpt lat="35.310846306213044" lon="10.695450743866465"><ele>105.4</ele><time>2026-04-05T13:40:53.999Z</time></trkpt><trkpt lat="35.31075905317129" lon="10.695403220240184"><ele>105.2</ele><time>2026-04-05T13:40:54.999Z</time></trkpt><trkpt lat="35.31067661441936" lon="10.695359359933283"><ele>105.0</ele><time>2026-04-05T13:40:55.999Z</time></trkpt><trkpt lat="35.31059553379234" lon="10.695314474061707"><ele>105.0</ele><time>2026-04-05T13:40:56.999Z</time></trkpt><trkpt lat="35.31051342415577" lon="10.69526659603404"><ele>105.0</ele><time>2026-04-05T13:40:57.998Z</time></trkpt><trkpt lat="35.31043255644858" lon="10.695219088686743"><ele>105.0</ele><time>2026-04-05T13:40:58.998Z</time></trkpt><trkpt lat="35.310352800330456" lon="10.695171689212097"><ele>105.0</ele><time>2026-04-05T13:40:59.998Z</time></trkpt><trkpt lat="35.31027429862164" lon="10.695123253226893"><ele>105.0</ele><time>2026-04-05T13:41:00.998Z</time></trkpt><trkpt lat="35.31019156860056" lon="10.695071717017733"><ele>105.0</ele><time>2026-04-05T13:41:01.998Z</time></trkpt><trkpt lat="35.31010911982524" lon="10.695019490107013"><ele>105.0</ele><time>2026-04-05T13:41:02.998Z</time></trkpt><trkpt lat="35.31002665523123" lon="10.694966991858028"><ele>105.0</ele><time>2026-04-05T13:41:03.998Z</time></trkpt><trkpt lat="35.30994579182169" lon="10.69491429154727"><ele>105.0</ele><time>2026-04-05T13:41:04.998Z</time></trkpt><trkpt lat="35.30986412911481" lon="10.694860468719074"><ele>105.0</ele><time>2026-04-05T13:41:05.998Z</time></trkpt><trkpt lat="35.30978135879368" lon="10.694806999701324"><ele>105.4</ele><time>2026-04-05T13:41:06.998Z</time></trkpt><trkpt lat="35.30969886811365" lon="10.694750574991161"><ele>105.8</ele><time>2026-04-05T13:41:07.998Z</time></trkpt><trkpt lat="35.309617491184625" lon="10.694697756287407"><ele>106.19999999999999</ele><time>2026-04-05T13:41:08.998Z</time></trkpt><trkpt lat="35.30953338632187" lon="10.69464616191531"><ele>106.6</ele><time>2026-04-05T13:41:09.998Z</time></trkpt><trkpt lat="35.30945220167948" lon="10.694593495891565"><ele>107.0</ele><time>2026-04-05T13:41:10.998Z</time></trkpt><trkpt lat="35.30937116943169" lon="10.694536796815918"><ele>106.99999999999999</ele><time>2026-04-05T13:41:11.998Z</time></trkpt><trkpt lat="35.30929079164973" lon="10.694481058503097"><ele>107.0</ele><time>2026-04-05T13:41:12.999Z</time></trkpt><trkpt lat="35.309212350369016" lon="10.694425555759045"><ele>107.0</ele><time>2026-04-05T13:41:13.999Z</time></trkpt><trkpt lat="35.30914069862659" lon="10.694370868927393"><ele>107.0</ele><time>2026-04-05T13:41:14.999Z</time></trkpt><trkpt lat="35.309072705661976" lon="10.694323849047052"><ele>106.99999999999999</ele><time>2026-04-05T13:41:15.999Z</time></trkpt><trkpt lat="35.309000655692586" lon="10.694281089528637"><ele>107.0</ele><time>2026-04-05T13:41:16.999Z</time></trkpt><trkpt lat="35.30892912859436" lon="10.694236951206298"><ele>106.33333333333333</ele><time>2026-04-05T13:41:17.999Z</time></trkpt><trkpt lat="35.30885379904447" lon="10.694184405388935"><ele>105.66666666666666</ele><time>2026-04-05T13:41:18.999Z</time></trkpt><trkpt lat="35.308776283230465" lon="10.694136247230853"><ele>105.0</ele><time>2026-04-05T13:41:19.999Z</time></trkpt><trkpt lat="35.308697838526136" lon="10.694084967128058"><ele>104.33333333333334</ele><time>2026-04-05T13:41:20.999Z</time></trkpt><trkpt lat="35.308618291094625" lon="10.694028919369426"><ele>103.66666666666667</ele><time>2026-04-05T13:41:21.999Z</time></trkpt><trkpt lat="35.30853569073449" lon="10.693971830036924"><ele>103.0</ele><time>2026-04-05T13:41:22.999Z</time></trkpt><trkpt lat="35.308451759743406" lon="10.693916951987298"><ele>103.0</ele><time>2026-04-05T13:41:23.999Z</time></trkpt><trkpt lat="35.30836575928434" lon="10.693860426807042"><ele>103.0</ele><time>2026-04-05T13:41:24.999Z</time></trkpt><trkpt lat="35.30828050275268" lon="10.693801436800488"><ele>103.0</ele><time>2026-04-05T13:41:25.999Z</time></trkpt><trkpt lat="35.30819487291741" lon="10.69374143014724"><ele>103.0</ele><time>2026-04-05T13:41:26.999Z</time></trkpt><trkpt lat="35.30810708691274" lon="10.693684891354762"><ele>103.0</ele><time>2026-04-05T13:41:27.999Z</time></trkpt><trkpt lat="35.30801810784306" lon="10.693629610727301"><ele>103.0</ele><time>2026-04-05T13:41:28.999Z</time></trkpt><trkpt lat="35.30792921033836" lon="10.693570790560745"><ele>103.0</ele><time>2026-04-05T13:41:29.999Z</time></trkpt><trkpt lat="35.30784236298696" lon="10.693515178849061"><ele>103.0</ele><time>2026-04-05T13:41:30.999Z</time></trkpt><trkpt lat="35.307752953466434" lon="10.693454780876054"><ele>103.0</ele><time>2026-04-05T13:41:31.999Z</time></trkpt><trkpt lat="35.30766542375891" lon="10.693393596846267"><ele>103.0</ele><time>2026-04-05T13:41:32.999Z</time></trkpt><trkpt lat="35.307575949034565" lon="10.693328222645286"><ele>103.0</ele><time>2026-04-05T13:41:33.999Z</time></trkpt><trkpt lat="35.30748207717622" lon="10.693263260088111"><ele>103.0</ele><time>2026-04-05T13:41:34.999Z</time></trkpt><trkpt lat="35.30738319011895" lon="10.693195771086666"><ele>103.0</ele><time>2026-04-05T13:41:35.999Z</time></trkpt><trkpt lat="35.30727967048116" lon="10.693126228523079"><ele>103.0</ele><time>2026-04-05T13:41:36.999Z</time></trkpt><trkpt lat="35.307174975589916" lon="10.693058041758766"><ele>103.5</ele><time>2026-04-05T13:41:37.999Z</time></trkpt><trkpt lat="35.30706972567681" lon="10.692987699554672"><ele>104.0</ele><time>2026-04-05T13:41:38.999Z</time></trkpt><trkpt lat="35.30696461174896" lon="10.692912575459305"><ele>104.5</ele><time>2026-04-05T13:41:39.999Z</time></trkpt><trkpt lat="35.30685817806845" lon="10.692837506764558"><ele>105.0</ele><time>2026-04-05T13:41:40.999Z</time></trkpt><trkpt lat="35.306748267121655" lon="10.692765847427978"><ele>104.75</ele><time>2026-04-05T13:41:41.999Z</time></trkpt><trkpt lat="35.3066342905147" lon="10.692692892979128"><ele>104.5</ele><time>2026-04-05T13:41:42.999Z</time></trkpt><trkpt lat="35.30652264590518" lon="10.69261788881199"><ele>104.25</ele><time>2026-04-05T13:41:43.999Z</time></trkpt><trkpt lat="35.30641054801246" lon="10.692542864996726"><ele>104.0</ele><time>2026-04-05T13:41:44.999Z</time></trkpt><trkpt lat="35.306297296778126" lon="10.692467872136259"><ele>103.0</ele><time>2026-04-05T13:41:45.999Z</time></trkpt><trkpt lat="35.30618482592987" lon="10.692394856522606"><ele>102.0</ele><time>2026-04-05T13:41:46.999Z</time></trkpt><trkpt lat="35.30607980869276" lon="10.692324248778412"><ele>101.0</ele><time>2026-04-05T13:41:47.999Z</time></trkpt><trkpt lat="35.30598166915557" lon="10.692254953363863"><ele>100.0</ele><time>2026-04-05T13:41:48.999Z</time></trkpt><trkpt lat="35.30587759343251" lon="10.692184714890475"><ele>100.0</ele><time>2026-04-05T13:41:49.999Z</time></trkpt><trkpt lat="35.3057703516897" lon="10.692115143850272"><ele>100.0</ele><time>2026-04-05T13:41:50.999Z</time></trkpt><trkpt lat="35.30566131310698" lon="10.692045616465506"><ele>100.0</ele><time>2026-04-05T13:41:51.999Z</time></trkpt><trkpt lat="35.30555020346568" lon="10.691972128589574"><ele>100.0</ele><time>2026-04-05T13:41:52.999Z</time></trkpt><trkpt lat="35.305436933854786" lon="10.691896792248864"><ele>101.0</ele><time>2026-04-05T13:41:53.999Z</time></trkpt><trkpt lat="35.305319226279714" lon="10.691822158517144"><ele>102.0</ele><time>2026-04-05T13:41:54.999Z</time></trkpt><trkpt lat="35.30520281538255" lon="10.691750297442203"><ele>103.0</ele><time>2026-04-05T13:41:55.999Z</time></trkpt><trkpt lat="35.305087211126946" lon="10.691678315883173"><ele>104.0</ele><time>2026-04-05T13:41:56.999Z</time></trkpt><trkpt lat="35.304972704467644" lon="10.691608980549097"><ele>104.0</ele><time>2026-04-05T13:41:57.999Z</time></trkpt><trkpt lat="35.30486192372985" lon="10.691542912463527"><ele>104.0</ele><time>2026-04-05T13:41:58.999Z</time></trkpt><trkpt lat="35.30475397443558" lon="10.691478496665724"><ele>104.0</ele><time>2026-04-05T13:41:59.999Z</time></trkpt><trkpt lat="35.30463925849552" lon="10.691417970464858"><ele>104.0</ele><time>2026-04-05T13:42:00.999Z</time></trkpt><trkpt lat="35.304519827343825" lon="10.691359691930373"><ele>103.5</ele><time>2026-04-05T13:42:01.999Z</time></trkpt><trkpt lat="35.304401512695" lon="10.691296556076601"><ele>103.0</ele><time>2026-04-05T13:42:02.999Z</time></trkpt><trkpt lat="35.30428897948904" lon="10.691235554948095"><ele>102.5</ele><time>2026-04-05T13:42:03.999Z</time></trkpt><trkpt lat="35.304186891228156" lon="10.691184178370262"><ele>102.0</ele><time>2026-04-05T13:42:04.999Z</time></trkpt><trkpt lat="35.3040885228193" lon="10.69113901295122"><ele>102.25</ele><time>2026-04-05T13:42:05.999Z</time></trkpt><trkpt lat="35.303962996518145" lon="10.691081195066102"><ele>102.5</ele><time>2026-04-05T13:42:06.999Z</time></trkpt><trkpt lat="35.303819349637884" lon="10.691018916076072"><ele>102.75</ele><time>2026-04-05T13:42:07.999Z</time></trkpt><trkpt lat="35.303678743304744" lon="10.690962668414333"><ele>103.0</ele><time>2026-04-05T13:42:08.999Z</time></trkpt><trkpt lat="35.30353928076012" lon="10.690909388601701"><ele>103.0</ele><time>2026-04-05T13:42:09.999Z</time></trkpt><trkpt lat="35.30339965812135" lon="10.690859414583826"><ele>103.0</ele><time>2026-04-05T13:42:10.999Z</time></trkpt><trkpt lat="35.30326182149905" lon="10.690810856280857"><ele>103.0</ele><time>2026-04-05T13:42:11.999Z</time></trkpt><trkpt lat="35.30312168951576" lon="10.690768561798489"><ele>103.0</ele><time>2026-04-05T13:42:12.999Z</time></trkpt><trkpt lat="35.302982144138596" lon="10.6907290091209"><ele>103.5</ele><time>2026-04-05T13:42:13.999Z</time></trkpt><trkpt lat="35.30284208124049" lon="10.690688001819902"><ele>104.0</ele><time>2026-04-05T13:42:14.999Z</time></trkpt><trkpt lat="35.30270343824188" lon="10.690649628882422"><ele>104.5</ele><time>2026-04-05T13:42:15.999Z</time></trkpt><trkpt lat="35.30256566787698" lon="10.690621685642776"><ele>105.0</ele><time>2026-04-05T13:42:16.999Z</time></trkpt><trkpt lat="35.3024238361929" lon="10.690599223118674"><ele>105.0</ele><time>2026-04-05T13:42:17.999Z</time></trkpt><trkpt lat="35.30228527490813" lon="10.690570541330862"><ele>105.0</ele><time>2026-04-05T13:42:18.999Z</time></trkpt><trkpt lat="35.302149978031565" lon="10.690539819223266"><ele>105.0</ele><time>2026-04-05T13:42:19.999Z</time></trkpt><trkpt lat="35.30202752409365" lon="10.690518553989405"><ele>105.0</ele><time>2026-04-05T13:42:20.999Z</time></trkpt><trkpt lat="35.3019062049319" lon="10.690503296997067"><ele>105.0</ele><time>2026-04-05T13:42:21.999Z</time></trkpt><trkpt lat="35.30178779262261" lon="10.690493099781323"><ele>105.0</ele><time>2026-04-05T13:42:22.999Z</time></trkpt><trkpt lat="35.30168031065473" lon="10.690486291362937"><ele>105.0</ele><time>2026-04-05T13:42:23.999Z</time></trkpt><trkpt lat="35.30158183039122" lon="10.690479054822102"><ele>105.0</ele><time>2026-04-05T13:42:24.999Z</time></trkpt><trkpt lat="35.30148900991568" lon="10.690471526185991"><ele>105.0</ele><time>2026-04-05T13:42:25.999Z</time></trkpt><trkpt lat="35.30140051439847" lon="10.690465240358478"><ele>105.0</ele><time>2026-04-05T13:42:26.999Z</time></trkpt><trkpt lat="35.30131744209665" lon="10.690462656909446"><ele>105.0</ele><time>2026-04-05T13:42:27.999Z</time></trkpt><trkpt lat="35.301240264168385" lon="10.69046067361047"><ele>105.0</ele><time>2026-04-05T13:42:28.999Z</time></trkpt><trkpt lat="35.30116727832377" lon="10.690460434904326"><ele>105.0</ele><time>2026-04-05T13:42:29.999Z</time></trkpt><trkpt lat="35.30109321606516" lon="10.690458164516578"><ele>105.0</ele><time>2026-04-05T13:42:30.999Z</time></trkpt><trkpt lat="35.301015413386516" lon="10.690451658860455"><ele>105.0</ele><time>2026-04-05T13:42:31.999Z</time></trkpt><trkpt lat="35.30094012154253" lon="10.690446475545931"><ele>105.0</ele><time>2026-04-05T13:42:32.999Z</time></trkpt><trkpt lat="35.300872193124555" lon="10.690444409457516"><ele>105.0</ele><time>2026-04-05T13:42:33.999Z</time></trkpt><trkpt lat="35.30080749901533" lon="10.690447842649913"><ele>105.0</ele><time>2026-04-05T13:42:34.999Z</time></trkpt><trkpt lat="35.30069418575301" lon="10.690447001758768"><ele>105.0</ele><time>2026-04-05T13:42:36.999Z</time></trkpt><trkpt lat="35.30058218297023" lon="10.69041360118886"><ele>105.0</ele><time>2026-04-05T13:42:38.999Z</time></trkpt><trkpt lat="35.30050205448384" lon="10.690347925447565"><ele>105.33333333333333</ele><time>2026-04-05T13:42:40.999Z</time></trkpt><trkpt lat="35.300464791532036" lon="10.69025553832802"><ele>105.66666666666666</ele><time>2026-04-05T13:42:42.999Z</time></trkpt><trkpt lat="35.30045986328389" lon="10.69016198801006"><ele>106.0</ele><time>2026-04-05T13:42:44.999Z</time></trkpt><trkpt lat="35.300467266282844" lon="10.690070894798405"><ele>106.33333333333333</ele><time>2026-04-05T13:42:46.999Z</time></trkpt><trkpt lat="35.30047659658593" lon="10.689951798551792"><ele>106.66666666666666</ele><time>2026-04-05T13:42:48.999Z</time></trkpt><trkpt lat="35.30048355702643" lon="10.689869858119303"><ele>107.0</ele><time>2026-04-05T13:42:50.999Z</time></trkpt><trkpt lat="35.300504167314756" lon="10.68978815854084"><ele>106.99999999999999</ele><time>2026-04-05T13:42:52.999Z</time></trkpt><trkpt lat="35.3005215611772" lon="10.689702645783688"><ele>107.0</ele><time>2026-04-05T13:42:55.999Z</time></trkpt><trkpt lat="35.300543712198234" lon="10.689594061718454"><ele>107.0</ele><time>2026-04-05T13:42:58.999Z</time></trkpt><trkpt lat="35.300567410045325" lon="10.689491718375175"><ele>107.0</ele><time>2026-04-05T13:43:01.999Z</time></trkpt><trkpt lat="35.30058506437666" lon="10.689411623694003"><ele>106.99999999999999</ele><time>2026-04-05T13:43:03.998Z</time></trkpt><trkpt lat="35.300615844574196" lon="10.689302036387069"><ele>107.0</ele><time>2026-04-05T13:43:05.998Z</time></trkpt><trkpt lat="35.3006406033149" lon="10.689173859077092"><ele>107.25</ele><time>2026-04-05T13:43:07.998Z</time></trkpt><trkpt lat="35.300673681050796" lon="10.68903158850039"><ele>107.5</ele><time>2026-04-05T13:43:09.998Z</time></trkpt><trkpt lat="35.30070124082726" lon="10.688896693352609"><ele>107.75</ele><time>2026-04-05T13:43:11.998Z</time></trkpt><trkpt lat="35.30073316149648" lon="10.688769353818595"><ele>108.0</ele><time>2026-04-05T13:43:13.998Z</time></trkpt><trkpt lat="35.30076031317101" lon="10.688636054128647"><ele>107.80000000000001</ele><time>2026-04-05T13:43:15.998Z</time></trkpt><trkpt lat="35.300784767729496" lon="10.688512300744863"><ele>107.60000000000001</ele><time>2026-04-05T13:43:17.998Z</time></trkpt><trkpt lat="35.30081423242607" lon="10.688375680633056"><ele>107.39999999999999</ele><time>2026-04-05T13:43:19.998Z</time></trkpt><trkpt lat="35.3008469056395" lon="10.68822712573221"><ele>107.19999999999999</ele><time>2026-04-05T13:43:21.998Z</time></trkpt><trkpt lat="35.30086728565529" lon="10.688147965772327"><ele>107.0</ele><time>2026-04-05T13:43:22.999Z</time></trkpt><trkpt lat="35.30089040149181" lon="10.688065816465354"><ele>106.99999999999999</ele><time>2026-04-05T13:43:23.999Z</time></trkpt><trkpt lat="35.30091267784018" lon="10.68797897723646"><ele>107.0</ele><time>2026-04-05T13:43:24.999Z</time></trkpt><trkpt lat="35.30093327897505" lon="10.687883088234901"><ele>107.0</ele><time>2026-04-05T13:43:25.999Z</time></trkpt><trkpt lat="35.30095483354661" lon="10.687780971801823"><ele>107.0</ele><time>2026-04-05T13:43:26.999Z</time></trkpt><trkpt lat="35.300976338500135" lon="10.6876722779537"><ele>106.99999999999999</ele><time>2026-04-05T13:43:27.999Z</time></trkpt><trkpt lat="35.30100319246502" lon="10.687555661825604"><ele>107.0</ele><time>2026-04-05T13:43:28.999Z</time></trkpt><trkpt lat="35.301030941093686" lon="10.687435526418025"><ele>107.0</ele><time>2026-04-05T13:43:29.999Z</time></trkpt><trkpt lat="35.30105972635374" lon="10.687312588451823"><ele>107.0</ele><time>2026-04-05T13:43:30.999Z</time></trkpt><trkpt lat="35.30109086786383" lon="10.687182358622506"><ele>107.0</ele><time>2026-04-05T13:43:31.999Z</time></trkpt><trkpt lat="35.30112810543619" lon="10.687036399118881"><ele>107.0</ele><time>2026-04-05T13:43:32.999Z</time></trkpt><trkpt lat="35.301171514725105" lon="10.68685423607593"><ele>108.0</ele><time>2026-04-05T13:43:33.999Z</time></trkpt><trkpt lat="35.30121795163753" lon="10.686640950713434"><ele>109.0</ele><time>2026-04-05T13:43:34.999Z</time></trkpt><trkpt lat="35.30127006876394" lon="10.686404211111096"><ele>110.0</ele><time>2026-04-05T13:43:35.999Z</time></trkpt><trkpt lat="35.30132161378601" lon="10.686175935396916"><ele>110.0</ele><time>2026-04-05T13:43:36.999Z</time></trkpt><trkpt lat="35.301374298302214" lon="10.685941942712379"><ele>110.0</ele><time>2026-04-05T13:43:37.999Z</time></trkpt><trkpt lat="35.30143558647561" lon="10.685679828362263"><ele>110.0</ele><time>2026-04-05T13:43:38.999Z</time></trkpt><trkpt lat="35.30150570947989" lon="10.68540647144338"><ele>110.66666666666666</ele><time>2026-04-05T13:43:39.999Z</time></trkpt><trkpt lat="35.30158223944869" lon="10.685151415486342"><ele>111.33333333333334</ele><time>2026-04-05T13:43:40.999Z</time></trkpt><trkpt lat="35.301670350896806" lon="10.684906278470454"><ele>112.0</ele><time>2026-04-05T13:43:41.999Z</time></trkpt><trkpt lat="35.30176845308224" lon="10.684664959471094"><ele>112.0</ele><time>2026-04-05T13:43:42.999Z</time></trkpt><trkpt lat="35.30187135003651" lon="10.684432466163381"><ele>112.0</ele><time>2026-04-05T13:43:43.999Z</time></trkpt><trkpt lat="35.30197245502942" lon="10.684209778247807"><ele>112.0</ele><time>2026-04-05T13:43:44.999Z</time></trkpt><trkpt lat="35.30206910070551" lon="10.683999540330884"><ele>112.33333333333334</ele><time>2026-04-05T13:43:45.999Z</time></trkpt><trkpt lat="35.30216490145996" lon="10.683786355048838"><ele>112.66666666666666</ele><time>2026-04-05T13:43:46.999Z</time></trkpt><trkpt lat="35.302257785808656" lon="10.683571325308218"><ele>113.0</ele><time>2026-04-05T13:43:47.999Z</time></trkpt><trkpt lat="35.30235496857755" lon="10.683350990559294"><ele>113.33333333333333</ele><time>2026-04-05T13:43:48.999Z</time></trkpt><trkpt lat="35.302448318048114" lon="10.683135802237196"><ele>113.66666666666666</ele><time>2026-04-05T13:43:49.999Z</time></trkpt><trkpt lat="35.302542729623056" lon="10.682921839185944"><ele>114.0</ele><time>2026-04-05T13:43:50.999Z</time></trkpt><trkpt lat="35.30263655248667" lon="10.682704981194153"><ele>114.0</ele><time>2026-04-05T13:43:51.999Z</time></trkpt><trkpt lat="35.30272884266254" lon="10.682491642492842"><ele>114.0</ele><time>2026-04-05T13:43:52.999Z</time></trkpt><trkpt lat="35.302817894674675" lon="10.682283009426907"><ele>114.0</ele><time>2026-04-05T13:43:53.999Z</time></trkpt><trkpt lat="35.30290264803765" lon="10.682086420937614"><ele>114.33333333333334</ele><time>2026-04-05T13:43:54.999Z</time></trkpt><trkpt lat="35.302979724691156" lon="10.681903739408323"><ele>114.66666666666667</ele><time>2026-04-05T13:43:55.999Z</time></trkpt><trkpt lat="35.303054581208336" lon="10.6817286156836"><ele>115.0</ele><time>2026-04-05T13:43:56.999Z</time></trkpt><trkpt lat="35.30312486513139" lon="10.681566369777848"><ele>115.0</ele><time>2026-04-05T13:43:57.999Z</time></trkpt><trkpt lat="35.30319213451243" lon="10.681414177598345"><ele>115.0</ele><time>2026-04-05T13:43:58.999Z</time></trkpt><trkpt lat="35.30325711538058" lon="10.681270493556939"><ele>115.0</ele><time>2026-04-05T13:43:59.999Z</time></trkpt><trkpt lat="35.30331784435434" lon="10.681135162526367"><ele>115.0</ele><time>2026-04-05T13:44:00.999Z</time></trkpt><trkpt lat="35.3033811189331" lon="10.681003406706715"><ele>115.0</ele><time>2026-04-05T13:44:01.999Z</time></trkpt><trkpt lat="35.30344983525413" lon="10.680868859387196"><ele>115.0</ele><time>2026-04-05T13:44:02.999Z</time></trkpt><trkpt lat="35.30352671111143" lon="10.680731193216653"><ele>115.0</ele><time>2026-04-05T13:44:03.999Z</time></trkpt><trkpt lat="35.3036051894421" lon="10.680589753768993"><ele>115.0</ele><time>2026-04-05T13:44:04.999Z</time></trkpt><trkpt lat="35.303685410907704" lon="10.680446506848073"><ele>115.0</ele><time>2026-04-05T13:44:05.999Z</time></trkpt><trkpt lat="35.30376736794788" lon="10.680296635638376"><ele>115.0</ele><time>2026-04-05T13:44:06.999Z</time></trkpt><trkpt lat="35.303849565034284" lon="10.680147960699008"><ele>115.0</ele><time>2026-04-05T13:44:07.999Z</time></trkpt><trkpt lat="35.30393399389389" lon="10.679998366537921"><ele>115.0</ele><time>2026-04-05T13:44:08.999Z</time></trkpt><trkpt lat="35.30401916194359" lon="10.679849922889021"><ele>115.0</ele><time>2026-04-05T13:44:09.999Z</time></trkpt><trkpt lat="35.30410242793674" lon="10.679700765623297"><ele>115.0</ele><time>2026-04-05T13:44:10.999Z</time></trkpt><trkpt lat="35.30418075198052" lon="10.679555854599272"><ele>115.0</ele><time>2026-04-05T13:44:11.999Z</time></trkpt><trkpt lat="35.30425907890333" lon="10.67941602689692"><ele>115.0</ele><time>2026-04-05T13:44:12.999Z</time></trkpt><trkpt lat="35.3043425150677" lon="10.679270684212486"><ele>115.66666666666667</ele><time>2026-04-05T13:44:13.999Z</time></trkpt><trkpt lat="35.30442906281028" lon="10.679119025804193"><ele>116.33333333333334</ele><time>2026-04-05T13:44:14.999Z</time></trkpt><trkpt lat="35.304518328130854" lon="10.678958545935558"><ele>117.0</ele><time>2026-04-05T13:44:15.999Z</time></trkpt><trkpt lat="35.30460745511065" lon="10.67880023105763"><ele>117.0</ele><time>2026-04-05T13:44:16.999Z</time></trkpt><trkpt lat="35.304697276126056" lon="10.678640956980985"><ele>117.0</ele><time>2026-04-05T13:44:17.999Z</time></trkpt><trkpt lat="35.3047868876064" lon="10.678478930387724"><ele>117.0</ele><time>2026-04-05T13:44:18.999Z</time></trkpt><trkpt lat="35.30487533416478" lon="10.678314867042754"><ele>115.0</ele><time>2026-04-05T13:44:19.999Z</time></trkpt><trkpt lat="35.30496573434478" lon="10.678144879585096"><ele>113.0</ele><time>2026-04-05T13:44:20.999Z</time></trkpt><trkpt lat="35.30505977963768" lon="10.677972477071691"><ele>111.0</ele><time>2026-04-05T13:44:21.999Z</time></trkpt><trkpt lat="35.30515716245835" lon="10.677800175071301"><ele>111.66666666666666</ele><time>2026-04-05T13:44:22.999Z</time></trkpt><trkpt lat="35.305256271303136" lon="10.677625541982522"><ele>112.33333333333333</ele><time>2026-04-05T13:44:23.999Z</time></trkpt><trkpt lat="35.305357669093425" lon="10.67744702175533"><ele>113.0</ele><time>2026-04-05T13:44:24.999Z</time></trkpt><trkpt lat="35.305454459272084" lon="10.677274837160782"><ele>113.0</ele><time>2026-04-05T13:44:25.999Z</time></trkpt><trkpt lat="35.30554672194993" lon="10.677108608845476"><ele>113.0</ele><time>2026-04-05T13:44:26.999Z</time></trkpt><trkpt lat="35.305639284536056" lon="10.676941945681728"><ele>113.0</ele><time>2026-04-05T13:44:27.999Z</time></trkpt><trkpt lat="35.305728311881765" lon="10.676776901061364"><ele>112.33333333333333</ele><time>2026-04-05T13:44:28.999Z</time></trkpt><trkpt lat="35.305814453703334" lon="10.676609531151392"><ele>111.66666666666666</ele><time>2026-04-05T13:44:29.999Z</time></trkpt><trkpt lat="35.30589846516487" lon="10.676438768254135"><ele>111.0</ele><time>2026-04-05T13:44:30.999Z</time></trkpt><trkpt lat="35.30598022244995" lon="10.676266358624838"><ele>110.66666666666666</ele><time>2026-04-05T13:44:31.999Z</time></trkpt><trkpt lat="35.30605780672151" lon="10.676085741109071"><ele>110.33333333333333</ele><time>2026-04-05T13:44:32.999Z</time></trkpt><trkpt lat="35.30613083166057" lon="10.675901377368518"><ele>110.0</ele><time>2026-04-05T13:44:33.999Z</time></trkpt><trkpt lat="35.30620282638053" lon="10.675711382473725"><ele>110.0</ele><time>2026-04-05T13:44:34.999Z</time></trkpt><trkpt lat="35.306274699851144" lon="10.675522821840861"><ele>110.0</ele><time>2026-04-05T13:44:35.999Z</time></trkpt><trkpt lat="35.30634817868215" lon="10.67533047253333"><ele>110.0</ele><time>2026-04-05T13:44:36.999Z</time></trkpt><trkpt lat="35.30642377330391" lon="10.67513531819864"><ele>110.66666666666666</ele><time>2026-04-05T13:44:37.999Z</time></trkpt><trkpt lat="35.30649846040593" lon="10.674934137216555"><ele>111.33333333333334</ele><time>2026-04-05T13:44:38.999Z</time></trkpt><trkpt lat="35.306573875840115" lon="10.674726407015497"><ele>112.0</ele><time>2026-04-05T13:44:39.999Z</time></trkpt><trkpt lat="35.30665229842286" lon="10.674521765580444"><ele>111.0</ele><time>2026-04-05T13:44:40.999Z</time></trkpt><trkpt lat="35.30673370836829" lon="10.674309819207986"><ele>110.0</ele><time>2026-04-05T13:44:41.999Z</time></trkpt><trkpt lat="35.30681378826621" lon="10.674096283814741"><ele>109.0</ele><time>2026-04-05T13:44:42.999Z</time></trkpt><trkpt lat="35.306891742440385" lon="10.673882174152942"><ele>109.0</ele><time>2026-04-05T13:44:43.999Z</time></trkpt><trkpt lat="35.30697234124983" lon="10.673666127564363"><ele>109.0</ele><time>2026-04-05T13:44:44.999Z</time></trkpt><trkpt lat="35.30705269702507" lon="10.673455780902431"><ele>109.0</ele><time>2026-04-05T13:44:45.999Z</time></trkpt><trkpt lat="35.30713356713416" lon="10.673240962068302"><ele>109.0</ele><time>2026-04-05T13:44:46.999Z</time></trkpt><trkpt lat="35.307210906460064" lon="10.67303268261901"><ele>109.0</ele><time>2026-04-05T13:44:47.999Z</time></trkpt><trkpt lat="35.30729020451486" lon="10.672818157940501"><ele>109.0</ele><time>2026-04-05T13:44:48.999Z</time></trkpt><trkpt lat="35.30736597901104" lon="10.672608686716499"><ele>109.33333333333334</ele><time>2026-04-05T13:44:49.999Z</time></trkpt><trkpt lat="35.307443642949494" lon="10.672405409959257"><ele>109.66666666666666</ele><time>2026-04-05T13:44:50.999Z</time></trkpt><trkpt lat="35.307525308899024" lon="10.67219794019095"><ele>110.0</ele><time>2026-04-05T13:44:51.999Z</time></trkpt><trkpt lat="35.30760586949482" lon="10.671994791285995"><ele>110.33333333333333</ele><time>2026-04-05T13:44:52.999Z</time></trkpt><trkpt lat="35.30768373520853" lon="10.671792646129811"><ele>110.66666666666666</ele><time>2026-04-05T13:44:53.999Z</time></trkpt><trkpt lat="35.307757212969534" lon="10.67159047886437"><ele>111.0</ele><time>2026-04-05T13:44:54.999Z</time></trkpt><trkpt lat="35.30783174546332" lon="10.671378721202126"><ele>111.0</ele><time>2026-04-05T13:44:55.999Z</time></trkpt><trkpt lat="35.3079079467898" lon="10.671173036338889"><ele>111.0</ele><time>2026-04-05T13:44:56.999Z</time></trkpt><trkpt lat="35.3079848793916" lon="10.670967171910647"><ele>111.0</ele><time>2026-04-05T13:44:57.999Z</time></trkpt><trkpt lat="35.308063812887156" lon="10.670759020165255"><ele>111.0</ele><time>2026-04-05T13:44:58.999Z</time></trkpt><trkpt lat="35.30814231610313" lon="10.67055334098513"><ele>111.0</ele><time>2026-04-05T13:44:59.999Z</time></trkpt><trkpt lat="35.30822245501878" lon="10.670343824271626"><ele>111.0</ele><time>2026-04-05T13:45:00.999Z</time></trkpt><trkpt lat="35.30829993606534" lon="10.670139659478686"><ele>111.33333333333334</ele><time>2026-04-05T13:45:01.999Z</time></trkpt><trkpt lat="35.308375243256265" lon="10.669934286435208"><ele>111.66666666666667</ele><time>2026-04-05T13:45:02.999Z</time></trkpt><trkpt lat="35.308439610137945" lon="10.669737104620639"><ele>112.0</ele><time>2026-04-05T13:45:03.999Z</time></trkpt><trkpt lat="35.30849364635457" lon="10.669545728440479"><ele>112.33333333333334</ele><time>2026-04-05T13:45:04.999Z</time></trkpt><trkpt lat="35.308543787496625" lon="10.669343183005244"><ele>112.66666666666666</ele><time>2026-04-05T13:45:05.999Z</time></trkpt><trkpt lat="35.30859305706843" lon="10.6691331016237"><ele>113.0</ele><time>2026-04-05T13:45:06.999Z</time></trkpt><trkpt lat="35.308640570861506" lon="10.668914584913653"><ele>113.0</ele><time>2026-04-05T13:45:07.999Z</time></trkpt><trkpt lat="35.30868725142161" lon="10.668690766481312"><ele>113.0</ele><time>2026-04-05T13:45:08.999Z</time></trkpt><trkpt lat="35.308733008293366" lon="10.668470917742724"><ele>113.0</ele><time>2026-04-05T13:45:09.998Z</time></trkpt><trkpt lat="35.30877989026142" lon="10.668241597171924"><ele>112.33333333333333</ele><time>2026-04-05T13:45:10.998Z</time></trkpt><trkpt lat="35.30882719548912" lon="10.668011122343863"><ele>111.66666666666666</ele><time>2026-04-05T13:45:11.998Z</time></trkpt><trkpt lat="35.308874183786656" lon="10.667783127671928"><ele>111.0</ele><time>2026-04-05T13:45:12.998Z</time></trkpt><trkpt lat="35.3089274806657" lon="10.667552105626227"><ele>111.0</ele><time>2026-04-05T13:45:13.998Z</time></trkpt><trkpt lat="35.30898268819346" lon="10.667315943047187"><ele>111.0</ele><time>2026-04-05T13:45:14.998Z</time></trkpt><trkpt lat="35.30903720150816" lon="10.667081727929881"><ele>111.0</ele><time>2026-04-05T13:45:15.998Z</time></trkpt><trkpt lat="35.30908908982915" lon="10.666850138056457"><ele>111.0</ele><time>2026-04-05T13:45:16.998Z</time></trkpt><trkpt lat="35.30913889413985" lon="10.6666199780557"><ele>111.0</ele><time>2026-04-05T13:45:17.998Z</time></trkpt><trkpt lat="35.30918492377337" lon="10.666394252261869"><ele>111.0</ele><time>2026-04-05T13:45:18.998Z</time></trkpt><trkpt lat="35.309231831040684" lon="10.666179197431822"><ele>111.0</ele><time>2026-04-05T13:45:19.998Z</time></trkpt><trkpt lat="35.30927888692825" lon="10.665961738157689"><ele>111.0</ele><time>2026-04-05T13:45:20.998Z</time></trkpt><trkpt lat="35.30932553385919" lon="10.665746977553065"><ele>111.0</ele><time>2026-04-05T13:45:21.998Z</time></trkpt><trkpt lat="35.30937159350354" lon="10.66553830405005"><ele>111.0</ele><time>2026-04-05T13:45:22.998Z</time></trkpt><trkpt lat="35.30941340542264" lon="10.66533785847519"><ele>111.0</ele><time>2026-04-05T13:45:23.999Z</time></trkpt><trkpt lat="35.30945607781207" lon="10.665138755389975"><ele>111.0</ele><time>2026-04-05T13:45:24.999Z</time></trkpt><trkpt lat="35.30949895338944" lon="10.664940688403213"><ele>111.0</ele><time>2026-04-05T13:45:25.999Z</time></trkpt><trkpt lat="35.309541039778054" lon="10.66474245100028"><ele>111.0</ele><time>2026-04-05T13:45:26.999Z</time></trkpt><trkpt lat="35.309581087956005" lon="10.664543729104958"><ele>111.0</ele><time>2026-04-05T13:45:27.999Z</time></trkpt><trkpt lat="35.30962452931253" lon="10.664346260088998"><ele>111.0</ele><time>2026-04-05T13:45:28.999Z</time></trkpt><trkpt lat="35.309667937965216" lon="10.66414448303651"><ele>111.0</ele><time>2026-04-05T13:45:29.999Z</time></trkpt><trkpt lat="35.309713840656556" lon="10.663937044156478"><ele>111.0</ele><time>2026-04-05T13:45:30.999Z</time></trkpt><trkpt lat="35.30975845342378" lon="10.663727437199471"><ele>112.33333333333334</ele><time>2026-04-05T13:45:31.999Z</time></trkpt><trkpt lat="35.30980333398553" lon="10.663519895119482"><ele>113.66666666666667</ele><time>2026-04-05T13:45:32.999Z</time></trkpt><trkpt lat="35.30984746314697" lon="10.663311929143655"><ele>115.0</ele><time>2026-04-05T13:45:33.999Z</time></trkpt><trkpt lat="35.30989584163123" lon="10.663099213829678"><ele>115.0</ele><time>2026-04-05T13:45:34.999Z</time></trkpt><trkpt lat="35.309944123901985" lon="10.662883118241286"><ele>115.0</ele><time>2026-04-05T13:45:35.999Z</time></trkpt><trkpt lat="35.30998889896056" lon="10.662669457173527"><ele>115.0</ele><time>2026-04-05T13:45:36.999Z</time></trkpt><trkpt lat="35.310031713164975" lon="10.662458172420516"><ele>114.33333333333334</ele><time>2026-04-05T13:45:37.999Z</time></trkpt><trkpt lat="35.31007389050878" lon="10.662249737922195"><ele>113.66666666666666</ele><time>2026-04-05T13:45:38.999Z</time></trkpt><trkpt lat="35.310115364697324" lon="10.662048156250425"><ele>113.0</ele><time>2026-04-05T13:45:39.999Z</time></trkpt><trkpt lat="35.31015938314197" lon="10.661849443283"><ele>113.0</ele><time>2026-04-05T13:45:40.999Z</time></trkpt><trkpt lat="35.31020232329882" lon="10.661652318424464"><ele>113.0</ele><time>2026-04-05T13:45:41.999Z</time></trkpt><trkpt lat="35.31024372528999" lon="10.66146295328772"><ele>113.0</ele><time>2026-04-05T13:45:42.999Z</time></trkpt><trkpt lat="35.31028536942349" lon="10.661277853539618"><ele>113.0</ele><time>2026-04-05T13:45:43.999Z</time></trkpt><trkpt lat="35.31032661748852" lon="10.661098012966688"><ele>113.0</ele><time>2026-04-05T13:45:44.999Z</time></trkpt><trkpt lat="35.310363980900455" lon="10.660925249492196"><ele>113.0</ele><time>2026-04-05T13:45:45.999Z</time></trkpt><trkpt lat="35.31039617769977" lon="10.660762823094432"><ele>113.0</ele><time>2026-04-05T13:45:46.999Z</time></trkpt><trkpt lat="35.31042816186966" lon="10.660610875107277"><ele>113.0</ele><time>2026-04-05T13:45:47.999Z</time></trkpt><trkpt lat="35.31046715220908" lon="10.660468258498634"><ele>113.0</ele><time>2026-04-05T13:45:48.999Z</time></trkpt><trkpt lat="35.310515966962214" lon="10.660341593773527"><ele>113.0</ele><time>2026-04-05T13:45:49.999Z</time></trkpt><trkpt lat="35.31058250783191" lon="10.66022074693378"><ele>113.0</ele><time>2026-04-05T13:45:50.999Z</time></trkpt><trkpt lat="35.31065777886787" lon="10.66011586133238"><ele>112.83333333333333</ele><time>2026-04-05T13:45:51.999Z</time></trkpt><trkpt lat="35.31072378723902" lon="10.660027926084451"><ele>112.66666666666666</ele><time>2026-04-05T13:45:52.999Z</time></trkpt><trkpt lat="35.31075526486084" lon="10.659937837916777"><ele>112.5</ele><time>2026-04-05T13:45:53.999Z</time></trkpt><trkpt lat="35.310747746610595" lon="10.659852171236517"><ele>112.33333333333334</ele><time>2026-04-05T13:45:54.999Z</time></trkpt><trkpt lat="35.31070753907772" lon="10.65977432999249"><ele>112.16666666666667</ele><time>2026-04-05T13:45:55.999Z</time></trkpt><trkpt lat="35.310642602530116" lon="10.659718740911883"><ele>112.0</ele><time>2026-04-05T13:45:56.999Z</time></trkpt><trkpt lat="35.31055533060374" lon="10.659692848975292"><ele>112.5</ele><time>2026-04-05T13:45:57.999Z</time></trkpt><trkpt lat="35.31046375153126" lon="10.659697215943087"><ele>113.0</ele><time>2026-04-05T13:45:58.999Z</time></trkpt><trkpt lat="35.310355177321085" lon="10.65970869751718"><ele>113.5</ele><time>2026-04-05T13:45:59.999Z</time></trkpt><trkpt lat="35.31023632000192" lon="10.659692195773067"><ele>114.0</ele><time>2026-04-05T13:46:00.999Z</time></trkpt><trkpt lat="35.31010805843285" lon="10.659640019218738"><ele>114.0</ele><time>2026-04-05T13:46:01.999Z</time></trkpt><trkpt lat="35.30997160184595" lon="10.659567111225407"><ele>114.0</ele><time>2026-04-05T13:46:03Z</time></trkpt><trkpt lat="35.30983242426539" lon="10.65948130048747"><ele>114.0</ele><time>2026-04-05T13:46:04Z</time></trkpt><trkpt lat="35.30968816174139" lon="10.65938006238798"><ele>113.33333333333334</ele><time>2026-04-05T13:46:05Z</time></trkpt><trkpt lat="35.30954850183683" lon="10.65926050404831"><ele>112.66666666666667</ele><time>2026-04-05T13:46:06Z</time></trkpt><trkpt lat="35.30942722502737" lon="10.659126941181952"><ele>112.0</ele><time>2026-04-05T13:46:07Z</time></trkpt><trkpt lat="35.30933487683936" lon="10.65898348504427"><ele>112.0</ele><time>2026-04-05T13:46:08Z</time></trkpt><trkpt lat="35.309267112246324" lon="10.658842761652455"><ele>111.99999999999999</ele><time>2026-04-05T13:46:09Z</time></trkpt><trkpt lat="35.3092245245029" lon="10.658715437409777"><ele>111.99999999999999</ele><time>2026-04-05T13:46:10Z</time></trkpt><trkpt lat="35.30919503385142" lon="10.658598648553388"><ele>112.0</ele><time>2026-04-05T13:46:11Z</time></trkpt><trkpt lat="35.30917725853042" lon="10.658497734199067"><ele>112.0</ele><time>2026-04-05T13:46:12Z</time></trkpt><trkpt lat="35.30916433377145" lon="10.658408661764154"><ele>112.6</ele><time>2026-04-05T13:46:13Z</time></trkpt><trkpt lat="35.30915883693093" lon="10.658283338774773"><ele>113.19999999999999</ele><time>2026-04-05T13:46:15Z</time></trkpt><trkpt lat="35.30915314873885" lon="10.658173200609676"><ele>113.8</ele><time>2026-04-05T13:46:18Z</time></trkpt><trkpt lat="35.309144130146414" lon="10.658027687214368"><ele>114.4</ele><time>2026-04-05T13:46:20Z</time></trkpt><trkpt lat="35.30915042660196" lon="10.65794176669444"><ele>115.0</ele><time>2026-04-05T13:46:21Z</time></trkpt><trkpt lat="35.309157884276445" lon="10.657854732937002"><ele>114.50000000000001</ele><time>2026-04-05T13:46:22Z</time></trkpt><trkpt lat="35.309167393959754" lon="10.657767117361521"><ele>114.0</ele><time>2026-04-05T13:46:23Z</time></trkpt><trkpt lat="35.309176112001225" lon="10.657685789308589"><ele>113.5</ele><time>2026-04-05T13:46:24Z</time></trkpt><trkpt lat="35.309202115487665" lon="10.657560619753893"><ele>113.0</ele><time>2026-04-05T13:46:26Z</time></trkpt><trkpt lat="35.309225992509376" lon="10.657462000721706"><ele>112.50000000000001</ele><time>2026-04-05T13:46:28Z</time></trkpt><trkpt lat="35.309236758640225" lon="10.657360952259653"><ele>112.0</ele><time>2026-04-05T13:46:31Z</time></trkpt><trkpt lat="35.30923432858322" lon="10.657274689260145"><ele>112.00000000000001</ele><time>2026-04-05T13:46:36Z</time></trkpt><trkpt lat="35.30924734235429" lon="10.657187557071715"><ele>112.0</ele><time>2026-04-05T13:48:10Z</time></trkpt><trkpt lat="35.30925264421603" lon="10.657088495167923"><ele>112.0</ele><time>2026-04-05T13:48:12.001Z</time></trkpt><trkpt lat="35.309254079633924" lon="10.656985695996429"><ele>112.0</ele><time>2026-04-05T13:48:15.001Z</time></trkpt><trkpt lat="35.309255819463566" lon="10.656889708713454"><ele>112.00000000000001</ele><time>2026-04-05T13:48:18.001Z</time></trkpt><trkpt lat="35.309263034920455" lon="10.656794887819322"><ele>112.0</ele><time>2026-04-05T13:48:21.001Z</time></trkpt><trkpt lat="35.30926939638966" lon="10.656698093120466"><ele>112.14285714285714</ele><time>2026-04-05T13:48:24.001Z</time></trkpt><trkpt lat="35.30927313756448" lon="10.656603342359244"><ele>112.28571428571428</ele><time>2026-04-05T13:48:27.001Z</time></trkpt><trkpt lat="35.30927767165764" lon="10.656522855063304"><ele>112.42857142857143</ele><time>2026-04-05T13:49:00.001Z</time></trkpt><trkpt lat="35.30928374187266" lon="10.656433074111975"><ele>112.57142857142857</ele><time>2026-04-05T13:49:04.001Z</time></trkpt><trkpt lat="35.309291289279486" lon="10.656346763616176"><ele>112.71428571428571</ele><time>2026-04-05T13:50:45.001Z</time></trkpt><trkpt lat="35.30930181657192" lon="10.656259743364739"><ele>112.85714285714286</ele><time>2026-04-05T13:50:51.001Z</time></trkpt><trkpt lat="35.30930438653868" lon="10.656180610701755"><ele>113.0</ele><time>2026-04-05T13:51:01.001Z</time></trkpt><trkpt lat="35.30931041305218" lon="10.656065968719702"><ele>113.16666666666666</ele><time>2026-04-05T13:51:06.001Z</time></trkpt><trkpt lat="35.3093159317335" lon="10.655977045298545"><ele>113.33333333333333</ele><time>2026-04-05T13:51:08.001Z</time></trkpt><trkpt lat="35.30933086243122" lon="10.655875600541878"><ele>113.5</ele><time>2026-04-05T13:51:17.001Z</time></trkpt><trkpt lat="35.309342427704884" lon="10.655726683099157"><ele>113.66666666666666</ele><time>2026-04-05T13:51:19.001Z</time></trkpt><trkpt lat="35.30934589636942" lon="10.65563298272349"><ele>113.83333333333333</ele><time>2026-04-05T13:51:20.001Z</time></trkpt><trkpt lat="35.309353447535514" lon="10.655532017581997"><ele>114.0</ele><time>2026-04-05T13:51:21.001Z</time></trkpt><trkpt lat="35.30936275993173" lon="10.655418612716556"><ele>114.0</ele><time>2026-04-05T13:51:22.001Z</time></trkpt><trkpt lat="35.30937438165718" lon="10.655300258168438"><ele>114.0</ele><time>2026-04-05T13:51:23.001Z</time></trkpt><trkpt lat="35.3093889258027" lon="10.655175949973032"><ele>114.0</ele><time>2026-04-05T13:51:24.001Z</time></trkpt><trkpt lat="35.30939843721491" lon="10.6550545665732"><ele>114.0</ele><time>2026-04-05T13:51:25.001Z</time></trkpt><trkpt lat="35.309407371435434" lon="10.654946781903934"><ele>114.0</ele><time>2026-04-05T13:51:26.001Z</time></trkpt><trkpt lat="35.30941658977915" lon="10.65485131948204"><ele>113.83333333333333</ele><time>2026-04-05T13:51:27.001Z</time></trkpt><trkpt lat="35.309424573073485" lon="10.654766328583847"><ele>113.66666666666666</ele><time>2026-04-05T13:51:28.001Z</time></trkpt><trkpt lat="35.30943561839785" lon="10.654641031899043"><ele>113.5</ele><time>2026-04-05T13:51:30.001Z</time></trkpt><trkpt lat="35.30943423067104" lon="10.654529562682338"><ele>113.33333333333333</ele><time>2026-04-05T13:53:26.001Z</time></trkpt><trkpt lat="35.30943048267903" lon="10.654384236070904"><ele>113.16666666666666</ele><time>2026-04-05T13:53:28.001Z</time></trkpt><trkpt lat="35.30943030539948" lon="10.654303376871038"><ele>113.0</ele><time>2026-04-05T13:53:29.001Z</time></trkpt><trkpt lat="35.30943290599721" lon="10.654218258052456"><ele>112.80000000000001</ele><time>2026-04-05T13:53:30.001Z</time></trkpt><trkpt lat="35.30943738092242" lon="10.654130095181502"><ele>112.60000000000001</ele><time>2026-04-05T13:53:31.001Z</time></trkpt><trkpt lat="35.309443686352175" lon="10.654036014238779"><ele>112.39999999999999</ele><time>2026-04-05T13:53:32.001Z</time></trkpt><trkpt lat="35.309455186048325" lon="10.653920423426301"><ele>112.19999999999999</ele><time>2026-04-05T13:53:33.001Z</time></trkpt><trkpt lat="35.30946835210661" lon="10.653743533015538"><ele>112.0</ele><time>2026-04-05T13:53:34.001Z</time></trkpt><trkpt lat="35.30948058077447" lon="10.65356754072001"><ele>112.0</ele><time>2026-04-05T13:53:35.001Z</time></trkpt><trkpt lat="35.30949048188993" lon="10.653424598111403"><ele>111.99999999999999</ele><time>2026-04-05T13:53:36.001Z</time></trkpt><trkpt lat="35.30949973730029" lon="10.653297537942821"><ele>111.99999999999999</ele><time>2026-04-05T13:53:37.001Z</time></trkpt><trkpt lat="35.30951208214657" lon="10.653168546593943"><ele>112.0</ele><time>2026-04-05T13:53:38.001Z</time></trkpt><trkpt lat="35.309522452658335" lon="10.653038872665059"><ele>112.0</ele><time>2026-04-05T13:53:39.001Z</time></trkpt><trkpt lat="35.30953099218478" lon="10.652908867926014"><ele>112.19999999999999</ele><time>2026-04-05T13:53:40.001Z</time></trkpt><trkpt lat="35.30953945004847" lon="10.652777772593188"><ele>112.39999999999999</ele><time>2026-04-05T13:53:41.001Z</time></trkpt><trkpt lat="35.309550285389406" lon="10.65264526369955"><ele>112.60000000000001</ele><time>2026-04-05T13:53:42.001Z</time></trkpt><trkpt lat="35.30956119335011" lon="10.652511831816929"><ele>112.80000000000001</ele><time>2026-04-05T13:53:43.001Z</time></trkpt><trkpt lat="35.30957036367715" lon="10.652377532103039"><ele>113.0</ele><time>2026-04-05T13:53:44.001Z</time></trkpt><trkpt lat="35.309581739102796" lon="10.6522431675143"><ele>113.0</ele><time>2026-04-05T13:53:45.001Z</time></trkpt><trkpt lat="35.30959342853529" lon="10.65210733116013"><ele>113.00000000000001</ele><time>2026-04-05T13:53:46.001Z</time></trkpt><trkpt lat="35.309603363377946" lon="10.651972232179457"><ele>113.00000000000001</ele><time>2026-04-05T13:53:47.001Z</time></trkpt><trkpt lat="35.30961318543722" lon="10.65184879359935"><ele>113.0</ele><time>2026-04-05T13:53:48.001Z</time></trkpt><trkpt lat="35.30962643887968" lon="10.651730383965253"><ele>113.0</ele><time>2026-04-05T13:53:49.001Z</time></trkpt><trkpt lat="35.3096532738531" lon="10.651616802062746"><ele>113.0</ele><time>2026-04-05T13:53:50.001Z</time></trkpt><trkpt lat="35.30969409095102" lon="10.651501206220798"><ele>113.00000000000001</ele><time>2026-04-05T13:53:51.001Z</time></trkpt><trkpt lat="35.3097521820794" lon="10.65139418559481"><ele>113.00000000000001</ele><time>2026-04-05T13:53:52.001Z</time></trkpt><trkpt lat="35.30982665284735" lon="10.651299928753618"><ele>113.0</ele><time>2026-04-05T13:53:53.001Z</time></trkpt><trkpt lat="35.30991514427304" lon="10.651226384696056"><ele>113.0</ele><time>2026-04-05T13:53:54.001Z</time></trkpt><trkpt lat="35.31001329997005" lon="10.651176601950866"><ele>113.2</ele><time>2026-04-05T13:53:55.001Z</time></trkpt><trkpt lat="35.31010881617963" lon="10.651155147293968"><ele>113.4</ele><time>2026-04-05T13:53:56.001Z</time></trkpt><trkpt lat="35.31020169822583" lon="10.651153701038986"><ele>113.60000000000001</ele><time>2026-04-05T13:53:57.001Z</time></trkpt><trkpt lat="35.31029397290747" lon="10.651175724528759"><ele>113.80000000000001</ele><time>2026-04-05T13:53:58.001Z</time></trkpt><trkpt lat="35.31038631868733" lon="10.651217204954406"><ele>114.0</ele><time>2026-04-05T13:53:59.001Z</time></trkpt><trkpt lat="35.31047421032359" lon="10.651279446700705"><ele>114.0</ele><time>2026-04-05T13:54:00.001Z</time></trkpt><trkpt lat="35.31055341148385" lon="10.651360387323532"><ele>114.0</ele><time>2026-04-05T13:54:01.001Z</time></trkpt><trkpt lat="35.310619186643514" lon="10.651459699805613"><ele>114.0</ele><time>2026-04-05T13:54:02.001Z</time></trkpt><trkpt lat="35.310669588135475" lon="10.651576687389753"><ele>114.0</ele><time>2026-04-05T13:54:03.001Z</time></trkpt><trkpt lat="35.31069776747998" lon="10.65170461111594"><ele>114.0</ele><time>2026-04-05T13:54:04.001Z</time></trkpt><trkpt lat="35.31070499946237" lon="10.651840410640409"><ele>114.0</ele><time>2026-04-05T13:54:05.001Z</time></trkpt><trkpt lat="35.31068836892427" lon="10.651975498812304"><ele>114.0</ele><time>2026-04-05T13:54:06.001Z</time></trkpt><trkpt lat="35.31064756703634" lon="10.652101556573395"><ele>114.0</ele><time>2026-04-05T13:54:07.001Z</time></trkpt><trkpt lat="35.31058668161448" lon="10.652210027066003"><ele>114.0</ele><time>2026-04-05T13:54:08.001Z</time></trkpt><trkpt lat="35.31050944506282" lon="10.652300707464894"><ele>114.0</ele><time>2026-04-05T13:54:09.001Z</time></trkpt><trkpt lat="35.31041750172896" lon="10.652372920419658"><ele>114.0</ele><time>2026-04-05T13:54:10.001Z</time></trkpt><trkpt lat="35.31031228202616" lon="10.652422532725998"><ele>114.0</ele><time>2026-04-05T13:54:11.001Z</time></trkpt><trkpt lat="35.31019537602019" lon="10.652454167614119"><ele>114.0</ele><time>2026-04-05T13:54:12.001Z</time></trkpt><trkpt lat="35.31006803403505" lon="10.652466930567575"><ele>114.0</ele><time>2026-04-05T13:54:13.001Z</time></trkpt><trkpt lat="35.30993302157026" lon="10.652463946466018"><ele>114.0</ele><time>2026-04-05T13:54:14.001Z</time></trkpt><trkpt lat="35.30977963172677" lon="10.652448532610217"><ele>114.0</ele><time>2026-04-05T13:54:15.001Z</time></trkpt><trkpt lat="35.30961572455637" lon="10.652434497096717"><ele>114.0</ele><time>2026-04-05T13:54:16.001Z</time></trkpt><trkpt lat="35.309435969204344" lon="10.65242478504705"><ele>113.5</ele><time>2026-04-05T13:54:17.001Z</time></trkpt><trkpt lat="35.30922960350463" lon="10.652419370256531"><ele>113.0</ele><time>2026-04-05T13:54:18.001Z</time></trkpt><trkpt lat="35.30898184097016" lon="10.652416827608253"><ele>112.0</ele><time>2026-04-05T13:54:19.001Z</time></trkpt><trkpt lat="35.30870829204041" lon="10.652402436933745"><ele>111.0</ele><time>2026-04-05T13:54:20.001Z</time></trkpt><trkpt lat="35.30840856555238" lon="10.652375827916401"><ele>111.0</ele><time>2026-04-05T13:54:21.001Z</time></trkpt><trkpt lat="35.308083339219436" lon="10.652341630035506"><ele>111.0</ele><time>2026-04-05T13:54:22.001Z</time></trkpt><trkpt lat="35.30773475778474" lon="10.652306509020953"><ele>111.0</ele><time>2026-04-05T13:54:23.001Z</time></trkpt><trkpt lat="35.30736596917356" lon="10.652264103893291"><ele>111.0</ele><time>2026-04-05T13:54:24.001Z</time></trkpt><trkpt lat="35.30697525800184" lon="10.652217023587674"><ele>110.0</ele><time>2026-04-05T13:54:25.001Z</time></trkpt><trkpt lat="35.30657331333707" lon="10.65217229601618"><ele>109.0</ele><time>2026-04-05T13:54:26.001Z</time></trkpt><trkpt lat="35.30616808624796" lon="10.652128600046485"><ele>109.0</ele><time>2026-04-05T13:54:27.001Z</time></trkpt><trkpt lat="35.30579633550601" lon="10.652084527876404"><ele>109.0</ele><time>2026-04-05T13:54:28.001Z</time></trkpt><trkpt lat="35.30545385110841" lon="10.6520419772638"><ele>109.0</ele><time>2026-04-05T13:54:29.001Z</time></trkpt><trkpt lat="35.305133404004366" lon="10.65199963415859"><ele>109.0</ele><time>2026-04-05T13:54:30.001Z</time></trkpt><trkpt lat="35.30483001132108" lon="10.651958737545108"><ele>107.5</ele><time>2026-04-05T13:54:31.001Z</time></trkpt><trkpt lat="35.30453974602172" lon="10.651925981233624"><ele>106.0</ele><time>2026-04-05T13:54:32.001Z</time></trkpt><trkpt lat="35.30426161238358" lon="10.651896987848955"><ele>106.0</ele><time>2026-04-05T13:54:33.001Z</time></trkpt><trkpt lat="35.30399550480557" lon="10.651868528321081"><ele>106.0</ele><time>2026-04-05T13:54:34.001Z</time></trkpt><trkpt lat="35.30373079735476" lon="10.651838130723803"><ele>107.5</ele><time>2026-04-05T13:54:35.001Z</time></trkpt><trkpt lat="35.3034657723024" lon="10.651807527030545"><ele>109.0</ele><time>2026-04-05T13:54:36.001Z</time></trkpt><trkpt lat="35.30320040391637" lon="10.651778763729807"><ele>108.5</ele><time>2026-04-05T13:54:37.001Z</time></trkpt><trkpt lat="35.30293176365045" lon="10.651750141152695"><ele>108.0</ele><time>2026-04-05T13:54:38.001Z</time></trkpt><trkpt lat="35.30266111487441" lon="10.651721407781963"><ele>108.0</ele><time>2026-04-05T13:54:39.001Z</time></trkpt><trkpt lat="35.30239037406004" lon="10.651691042874841"><ele>108.0</ele><time>2026-04-05T13:54:40.001Z</time></trkpt><trkpt lat="35.30211526487734" lon="10.651661215030023"><ele>108.0</ele><time>2026-04-05T13:54:41.001Z</time></trkpt><trkpt lat="35.301839339437095" lon="10.651629909971028"><ele>108.0</ele><time>2026-04-05T13:54:42.001Z</time></trkpt><trkpt lat="35.30156448314674" lon="10.651597029677774"><ele>107.5</ele><time>2026-04-05T13:54:43.001Z</time></trkpt><trkpt lat="35.30129132093974" lon="10.651564510580693"><ele>107.0</ele><time>2026-04-05T13:54:44.001Z</time></trkpt><trkpt lat="35.30101730874024" lon="10.651534441105184"><ele>107.0</ele><time>2026-04-05T13:54:45.001Z</time></trkpt><trkpt lat="35.300744144591135" lon="10.65150614702649"><ele>107.0</ele><time>2026-04-05T13:54:46.001Z</time></trkpt><trkpt lat="35.300472072592065" lon="10.651478195574349"><ele>108.0</ele><time>2026-04-05T13:54:47.001Z</time></trkpt><trkpt lat="35.30019348702449" lon="10.65144810660088"><ele>109.0</ele><time>2026-04-05T13:54:48.001Z</time></trkpt><trkpt lat="35.29991601184" lon="10.651418156352761"><ele>108.5</ele><time>2026-04-05T13:54:49.001Z</time></trkpt><trkpt lat="35.29963113400628" lon="10.651386520565108"><ele>108.0</ele><time>2026-04-05T13:54:50.001Z</time></trkpt><trkpt lat="35.29934321481339" lon="10.651353412620628"><ele>108.0</ele><time>2026-04-05T13:54:51.001Z</time></trkpt><trkpt lat="35.29905004148349" lon="10.651317522996996"><ele>108.0</ele><time>2026-04-05T13:54:52.001Z</time></trkpt><trkpt lat="35.298756008297794" lon="10.65127871239742"><ele>108.0</ele><time>2026-04-05T13:54:53.001Z</time></trkpt><trkpt lat="35.298458399369686" lon="10.651239383566898"><ele>108.0</ele><time>2026-04-05T13:54:54.001Z</time></trkpt><trkpt lat="35.29816334711125" lon="10.651200389687405"><ele>108.5</ele><time>2026-04-05T13:54:55.001Z</time></trkpt><trkpt lat="35.29787419468694" lon="10.651166074067717"><ele>109.0</ele><time>2026-04-05T13:54:56.001Z</time></trkpt><trkpt lat="35.29759232963056" lon="10.651134886667219"><ele>108.0</ele><time>2026-04-05T13:54:57.001Z</time></trkpt><trkpt lat="35.29731221371271" lon="10.651103414683643"><ele>107.0</ele><time>2026-04-05T13:54:58.001Z</time></trkpt><trkpt lat="35.297035990657676" lon="10.65107003172372"><ele>109.0</ele><time>2026-04-05T13:54:59.001Z</time></trkpt><trkpt lat="35.296764316111826" lon="10.651036660550414"><ele>111.0</ele><time>2026-04-05T13:55:00.001Z</time></trkpt><trkpt lat="35.29649866003829" lon="10.651004743289235"><ele>110.0</ele><time>2026-04-05T13:55:01.001Z</time></trkpt><trkpt lat="35.29624021968052" lon="10.650973105988497"><ele>109.0</ele><time>2026-04-05T13:55:02.001Z</time></trkpt><trkpt lat="35.29599044984934" lon="10.650944131084605"><ele>109.0</ele><time>2026-04-05T13:55:03.001Z</time></trkpt><trkpt lat="35.29574026920224" lon="10.650918144733335"><ele>109.0</ele><time>2026-04-05T13:55:04.001Z</time></trkpt><trkpt lat="35.295482870803816" lon="10.650891929568854"><ele>110.0</ele><time>2026-04-05T13:55:05.001Z</time></trkpt><trkpt lat="35.295224365981994" lon="10.650864390594807"><ele>111.0</ele><time>2026-04-05T13:55:06.001Z</time></trkpt><trkpt lat="35.29495674581059" lon="10.650833365840953"><ele>110.0</ele><time>2026-04-05T13:55:07.001Z</time></trkpt><trkpt lat="35.29468302026518" lon="10.650803773855843"><ele>109.0</ele><time>2026-04-05T13:55:08.001Z</time></trkpt><trkpt lat="35.29440777974746" lon="10.650776433568979"><ele>109.0</ele><time>2026-04-05T13:55:09.001Z</time></trkpt><trkpt lat="35.29413620610464" lon="10.650745499313414"><ele>109.0</ele><time>2026-04-05T13:55:10.001Z</time></trkpt><trkpt lat="35.293862882188584" lon="10.65071194643599"><ele>110.0</ele><time>2026-04-05T13:55:11.001Z</time></trkpt><trkpt lat="35.293582112252444" lon="10.650680273892078"><ele>111.0</ele><time>2026-04-05T13:55:12.001Z</time></trkpt><trkpt lat="35.2933050152315" lon="10.650651338721152"><ele>111.5</ele><time>2026-04-05T13:55:13.001Z</time></trkpt><trkpt lat="35.29303337661349" lon="10.650621235068407"><ele>112.0</ele><time>2026-04-05T13:55:14.001Z</time></trkpt><trkpt lat="35.29276352456429" lon="10.650590122846344"><ele>112.0</ele><time>2026-04-05T13:55:15.001Z</time></trkpt><trkpt lat="35.29249294043586" lon="10.650557978878615"><ele>112.0</ele><time>2026-04-05T13:55:16.001Z</time></trkpt><trkpt lat="35.2922191647959" lon="10.650529669902024"><ele>112.0</ele><time>2026-04-05T13:55:17.001Z</time></trkpt><trkpt lat="35.29194592803855" lon="10.65049928894116"><ele>112.0</ele><time>2026-04-05T13:55:18.001Z</time></trkpt><trkpt lat="35.29166863586391" lon="10.650465606280592"><ele>112.0</ele><time>2026-04-05T13:55:19.001Z</time></trkpt><trkpt lat="35.29138895473472" lon="10.650431030748232"><ele>112.0</ele><time>2026-04-05T13:55:20.001Z</time></trkpt><trkpt lat="35.29110642707703" lon="10.650398370367496"><ele>112.0</ele><time>2026-04-05T13:55:21.001Z</time></trkpt><trkpt lat="35.290818301478815" lon="10.650366767299197"><ele>112.0</ele><time>2026-04-05T13:55:22.001Z</time></trkpt><trkpt lat="35.290527373692505" lon="10.650333857406997"><ele>112.0</ele><time>2026-04-05T13:55:23.001Z</time></trkpt><trkpt lat="35.290227775510324" lon="10.650302121069938"><ele>112.0</ele><time>2026-04-05T13:55:24.001Z</time></trkpt><trkpt lat="35.28992224554636" lon="10.650271490976513"><ele>111.5</ele><time>2026-04-05T13:55:25.001Z</time></trkpt><trkpt lat="35.289613635387596" lon="10.650242558542114"><ele>111.0</ele><time>2026-04-05T13:55:26.001Z</time></trkpt><trkpt lat="35.28930378848577" lon="10.65021537468098"><ele>111.0</ele><time>2026-04-05T13:55:27.001Z</time></trkpt><trkpt lat="35.28899141207716" lon="10.650193147761978"><ele>111.0</ele><time>2026-04-05T13:55:28.001Z</time></trkpt><trkpt lat="35.2886789024011" lon="10.650175404165292"><ele>110.5</ele><time>2026-04-05T13:55:29.001Z</time></trkpt><trkpt lat="35.28836889753574" lon="10.65015760941767"><ele>110.0</ele><time>2026-04-05T13:55:30.001Z</time></trkpt><trkpt lat="35.28805786559673" lon="10.650141496741691"><ele>109.0</ele><time>2026-04-05T13:55:31.001Z</time></trkpt><trkpt lat="35.28775045462738" lon="10.65012687942681"><ele>108.0</ele><time>2026-04-05T13:55:32.001Z</time></trkpt><trkpt lat="35.28744008998082" lon="10.650114153375483"><ele>107.0</ele><time>2026-04-05T13:55:33.001Z</time></trkpt><trkpt lat="35.28713012333503" lon="10.650103057634949"><ele>106.0</ele><time>2026-04-05T13:55:34.001Z</time></trkpt><trkpt lat="35.28681939911625" lon="10.650092956221775"><ele>106.0</ele><time>2026-04-05T13:55:35.001Z</time></trkpt><trkpt lat="35.286509709012776" lon="10.650087765852385"><ele>106.0</ele><time>2026-04-05T13:55:36.001Z</time></trkpt><trkpt lat="35.28620108000138" lon="10.650087360929254"><ele>105.0</ele><time>2026-04-05T13:55:37.001Z</time></trkpt><trkpt lat="35.28589274964161" lon="10.650094001766751"><ele>104.0</ele><time>2026-04-05T13:55:38.001Z</time></trkpt><trkpt lat="35.285582821278254" lon="10.650104660772516"><ele>104.0</ele><time>2026-04-05T13:55:39.001Z</time></trkpt><trkpt lat="35.28527439869071" lon="10.650114259060723"><ele>104.0</ele><time>2026-04-05T13:55:40.001Z</time></trkpt><trkpt lat="35.284964032061396" lon="10.650124268971933"><ele>103.5</ele><time>2026-04-05T13:55:41.001Z</time></trkpt><trkpt lat="35.28465516542044" lon="10.6501362363897"><ele>103.0</ele><time>2026-04-05T13:55:42.001Z</time></trkpt><trkpt lat="35.28434508239976" lon="10.650150301766567"><ele>103.0</ele><time>2026-04-05T13:55:43.001Z</time></trkpt><trkpt lat="35.28403492323154" lon="10.650166817618832"><ele>103.0</ele><time>2026-04-05T13:55:44.001Z</time></trkpt><trkpt lat="35.28372744701438" lon="10.650187158576383"><ele>103.0</ele><time>2026-04-05T13:55:45.001Z</time></trkpt><trkpt lat="35.28341747754176" lon="10.65021127497769"><ele>103.0</ele><time>2026-04-05T13:55:46.001Z</time></trkpt><trkpt lat="35.283109587636574" lon="10.6502383076121"><ele>102.5</ele><time>2026-04-05T13:55:47.001Z</time></trkpt><trkpt lat="35.28280170934255" lon="10.650267988054486"><ele>102.0</ele><time>2026-04-05T13:55:48.001Z</time></trkpt><trkpt lat="35.28249198935236" lon="10.65029798531489"><ele>101.5</ele><time>2026-04-05T13:55:49.001Z</time></trkpt><trkpt lat="35.28218355360206" lon="10.650329124589083"><ele>101.0</ele><time>2026-04-05T13:55:50.001Z</time></trkpt><trkpt lat="35.28187555342909" lon="10.650364376272867"><ele>101.0</ele><time>2026-04-05T13:55:51.001Z</time></trkpt><trkpt lat="35.28156865546453" lon="10.650405559533361"><ele>101.0</ele><time>2026-04-05T13:55:52.001Z</time></trkpt><trkpt lat="35.28126029823825" lon="10.650446532721745"><ele>102.0</ele><time>2026-04-05T13:55:53.001Z</time></trkpt><trkpt lat="35.28095224789437" lon="10.650487176577647"><ele>103.0</ele><time>2026-04-05T13:55:54.001Z</time></trkpt><trkpt lat="35.280645271067065" lon="10.65052939512372"><ele>103.5</ele><time>2026-04-05T13:55:55.001Z</time></trkpt><trkpt lat="35.28033724822215" lon="10.650575338042144"><ele>104.0</ele><time>2026-04-05T13:55:56.001Z</time></trkpt><trkpt lat="35.28003039307361" lon="10.650622263397137"><ele>104.0</ele><time>2026-04-05T13:55:57.001Z</time></trkpt><trkpt lat="35.27972233892423" lon="10.650665735974178"><ele>104.0</ele><time>2026-04-05T13:55:58.001Z</time></trkpt><trkpt lat="35.27941445051126" lon="10.650702149769526"><ele>104.0</ele><time>2026-04-05T13:55:59.001Z</time></trkpt><trkpt lat="35.27910614783518" lon="10.650739483384024"><ele>104.0</ele><time>2026-04-05T13:56:00.001Z</time></trkpt><trkpt lat="35.278796869615604" lon="10.650781511323999"><ele>102.5</ele><time>2026-04-05T13:56:01.001Z</time></trkpt><trkpt lat="35.278489585422236" lon="10.650823170448316"><ele>101.0</ele><time>2026-04-05T13:56:02.001Z</time></trkpt><trkpt lat="35.27818948481756" lon="10.650866528534733"><ele>99.5</ele><time>2026-04-05T13:56:03.001Z</time></trkpt><trkpt lat="35.27790651201946" lon="10.650907371433531"><ele>98.0</ele><time>2026-04-05T13:56:04.001Z</time></trkpt><trkpt lat="35.27763970381314" lon="10.65094510643202"><ele>98.0</ele><time>2026-04-05T13:56:05.001Z</time></trkpt><trkpt lat="35.277382997009724" lon="10.65097890387154"><ele>98.0</ele><time>2026-04-05T13:56:06.001Z</time></trkpt><trkpt lat="35.277127648202146" lon="10.651013391992946"><ele>98.0</ele><time>2026-04-05T13:56:07.001Z</time></trkpt><trkpt lat="35.276872697082126" lon="10.651048845617574"><ele>98.0</ele><time>2026-04-05T13:56:08.001Z</time></trkpt><trkpt lat="35.27661916169696" lon="10.651082978715026"><ele>97.5</ele><time>2026-04-05T13:56:09.001Z</time></trkpt><trkpt lat="35.27636162203771" lon="10.65111750950037"><ele>97.0</ele><time>2026-04-05T13:56:10.001Z</time></trkpt><trkpt lat="35.27610270056914" lon="10.651151091259102"><ele>97.0</ele><time>2026-04-05T13:56:11.001Z</time></trkpt><trkpt lat="35.275841971342935" lon="10.651184766594586"><ele>97.0</ele><time>2026-04-05T13:56:12.001Z</time></trkpt><trkpt lat="35.27558336449992" lon="10.651217483643881"><ele>98.0</ele><time>2026-04-05T13:56:13.001Z</time></trkpt><trkpt lat="35.2753277262565" lon="10.651252087269336"><ele>99.0</ele><time>2026-04-05T13:56:14.001Z</time></trkpt><trkpt lat="35.27506846343014" lon="10.651285585949815"><ele>99.0</ele><time>2026-04-05T13:56:15.001Z</time></trkpt><trkpt lat="35.27481114813165" lon="10.65131995278315"><ele>99.0</ele><time>2026-04-05T13:56:16.001Z</time></trkpt><trkpt lat="35.27454857889519" lon="10.651355710400566"><ele>100.5</ele><time>2026-04-05T13:56:17.001Z</time></trkpt><trkpt lat="35.274280765895334" lon="10.651389634785835"><ele>102.0</ele><time>2026-04-05T13:56:18.001Z</time></trkpt><trkpt lat="35.27400735232218" lon="10.65142850624767"><ele>101.5</ele><time>2026-04-05T13:56:19.001Z</time></trkpt><trkpt lat="35.273730345411394" lon="10.65146994514293"><ele>101.0</ele><time>2026-04-05T13:56:20.001Z</time></trkpt><trkpt lat="35.27344868163546" lon="10.651511423246864"><ele>101.0</ele><time>2026-04-05T13:56:21.001Z</time></trkpt><trkpt lat="35.27316261750323" lon="10.65155382614636"><ele>101.0</ele><time>2026-04-05T13:56:22.001Z</time></trkpt><trkpt lat="35.272874829239285" lon="10.65159785882451"><ele>98.5</ele><time>2026-04-05T13:56:23.001Z</time></trkpt><trkpt lat="35.27258778924287" lon="10.65163938426487"><ele>96.0</ele><time>2026-04-05T13:56:24.001Z</time></trkpt><trkpt lat="35.27229948395249" lon="10.651676937146608"><ele>96.0</ele><time>2026-04-05T13:56:25.001Z</time></trkpt><trkpt lat="35.27201024463121" lon="10.651715392504906"><ele>96.0</ele><time>2026-04-05T13:56:26.001Z</time></trkpt><trkpt lat="35.27172301725884" lon="10.651753956453712"><ele>95.5</ele><time>2026-04-05T13:56:27.001Z</time></trkpt><trkpt lat="35.271435473343544" lon="10.651791016554224"><ele>95.0</ele><time>2026-04-05T13:56:28.001Z</time></trkpt><trkpt lat="35.27114654055875" lon="10.651828204388414"><ele>95.0</ele><time>2026-04-05T13:56:29.001Z</time></trkpt><trkpt lat="35.27085745731989" lon="10.651865925764035"><ele>95.0</ele><time>2026-04-05T13:56:30.001Z</time></trkpt><trkpt lat="35.27056739540225" lon="10.651901586434983"><ele>95.5</ele><time>2026-04-05T13:56:31.001Z</time></trkpt><trkpt lat="35.27027990279392" lon="10.651933538363195"><ele>96.0</ele><time>2026-04-05T13:56:32.001Z</time></trkpt><trkpt lat="35.26998934070172" lon="10.65195813387564"><ele>95.5</ele><time>2026-04-05T13:56:33.001Z</time></trkpt><trkpt lat="35.2697085341425" lon="10.651977386209014"><ele>95.0</ele><time>2026-04-05T13:56:34.001Z</time></trkpt><trkpt lat="35.26944371798995" lon="10.651994103553344"><ele>95.0</ele><time>2026-04-05T13:56:35.001Z</time></trkpt><trkpt lat="35.269178133705964" lon="10.65200717493713"><ele>95.0</ele><time>2026-04-05T13:56:36.001Z</time></trkpt><trkpt lat="35.26891309178062" lon="10.652020875443318"><ele>96.0</ele><time>2026-04-05T13:56:37.001Z</time></trkpt><trkpt lat="35.26864663707182" lon="10.652029004649565"><ele>97.0</ele><time>2026-04-05T13:56:38.001Z</time></trkpt><trkpt lat="35.26838079811157" lon="10.652036349191158"><ele>97.0</ele><time>2026-04-05T13:56:39.001Z</time></trkpt><trkpt lat="35.268112418698614" lon="10.652044209735102"><ele>97.0</ele><time>2026-04-05T13:56:40.001Z</time></trkpt><trkpt lat="35.26784288773656" lon="10.65205376128102"><ele>95.5</ele><time>2026-04-05T13:56:41.001Z</time></trkpt><trkpt lat="35.26758458452684" lon="10.652057118795744"><ele>94.0</ele><time>2026-04-05T13:56:42.001Z</time></trkpt><trkpt lat="35.26735538083669" lon="10.652043833547873"><ele>93.33333333333333</ele><time>2026-04-05T13:56:43.001Z</time></trkpt><trkpt lat="35.26716050797695" lon="10.65203023731688"><ele>92.66666666666667</ele><time>2026-04-05T13:56:44.001Z</time></trkpt><trkpt lat="35.26698984727662" lon="10.6520271246169"><ele>92.0</ele><time>2026-04-05T13:56:45.001Z</time></trkpt><trkpt lat="35.26683352671074" lon="10.652023027882741"><ele>92.0</ele><time>2026-04-05T13:56:46.001Z</time></trkpt><trkpt lat="35.26668239186951" lon="10.652019089177335"><ele>92.0</ele><time>2026-04-05T13:56:47.001Z</time></trkpt><trkpt lat="35.26653696336446" lon="10.652011064530264"><ele>92.0</ele><time>2026-04-05T13:56:48.001Z</time></trkpt><trkpt lat="35.26639518235884" lon="10.652004563941189"><ele>92.0</ele><time>2026-04-05T13:56:49.001Z</time></trkpt><trkpt lat="35.26625180354481" lon="10.651999646139078"><ele>92.75</ele><time>2026-04-05T13:56:50.001Z</time></trkpt><trkpt lat="35.26610729264569" lon="10.651992133450747"><ele>93.5</ele><time>2026-04-05T13:56:51.001Z</time></trkpt><trkpt lat="35.26596148987434" lon="10.651980570586614"><ele>94.25</ele><time>2026-04-05T13:56:52.001Z</time></trkpt><trkpt lat="35.265817163913" lon="10.651968458634407"><ele>95.0</ele><time>2026-04-05T13:56:53.001Z</time></trkpt><trkpt lat="35.26566944296168" lon="10.65195759121143"><ele>94.5</ele><time>2026-04-05T13:56:54.001Z</time></trkpt><trkpt lat="35.26552517297969" lon="10.651947241056913"><ele>94.0</ele><time>2026-04-05T13:56:55.001Z</time></trkpt><trkpt lat="35.265380059767864" lon="10.651932600362676"><ele>93.5</ele><time>2026-04-05T13:56:56.001Z</time></trkpt><trkpt lat="35.2652330921817" lon="10.651916648994154"><ele>93.0</ele><time>2026-04-05T13:56:57.001Z</time></trkpt><trkpt lat="35.26508815210526" lon="10.651901937741929"><ele>93.0</ele><time>2026-04-05T13:56:58.001Z</time></trkpt><trkpt lat="35.264941578663986" lon="10.651887418703195"><ele>93.0</ele><time>2026-04-05T13:56:59.001Z</time></trkpt><trkpt lat="35.26479435143664" lon="10.651872370984515"><ele>93.0</ele><time>2026-04-05T13:57:00.001Z</time></trkpt><trkpt lat="35.26464644827589" lon="10.651854516413199"><ele>93.0</ele><time>2026-04-05T13:57:01.001Z</time></trkpt><trkpt lat="35.26449361750579" lon="10.651836702411153"><ele>92.66666666666667</ele><time>2026-04-05T13:57:02.001Z</time></trkpt><trkpt lat="35.26433675039134" lon="10.651819027007782"><ele>92.33333333333334</ele><time>2026-04-05T13:57:03.001Z</time></trkpt><trkpt lat="35.26418210211983" lon="10.651803973697115"><ele>92.0</ele><time>2026-04-05T13:57:04.001Z</time></trkpt><trkpt lat="35.2640281400216" lon="10.651788138553883"><ele>92.66666666666667</ele><time>2026-04-05T13:57:05.001Z</time></trkpt><trkpt lat="35.2638755435718" lon="10.651770058797647"><ele>93.33333333333333</ele><time>2026-04-05T13:57:06.001Z</time></trkpt><trkpt lat="35.263723765619176" lon="10.65175320545565"><ele>94.0</ele><time>2026-04-05T13:57:07.001Z</time></trkpt><trkpt lat="35.26357066697765" lon="10.651739056249697"><ele>94.0</ele><time>2026-04-05T13:57:08.001Z</time></trkpt><trkpt lat="35.26341643371853" lon="10.651722745445717"><ele>94.0</ele><time>2026-04-05T13:57:09.001Z</time></trkpt><trkpt lat="35.263263460567714" lon="10.651706157392193"><ele>94.0</ele><time>2026-04-05T13:57:10.001Z</time></trkpt><trkpt lat="35.263110600127085" lon="10.651688110412106"><ele>94.33333333333333</ele><time>2026-04-05T13:57:11.001Z</time></trkpt><trkpt lat="35.26295734826118" lon="10.65167171203108"><ele>94.66666666666667</ele><time>2026-04-05T13:57:12.001Z</time></trkpt><trkpt lat="35.262803424741655" lon="10.651654283791434"><ele>95.0</ele><time>2026-04-05T13:57:13.001Z</time></trkpt><trkpt lat="35.26265020494133" lon="10.651639771755484"><ele>95.0</ele><time>2026-04-05T13:57:14.001Z</time></trkpt><trkpt lat="35.2624958220138" lon="10.65162489042346"><ele>95.0</ele><time>2026-04-05T13:57:15.001Z</time></trkpt><trkpt lat="35.26234222532869" lon="10.651605849557933"><ele>95.0</ele><time>2026-04-05T13:57:16.001Z</time></trkpt><trkpt lat="35.262189086175496" lon="10.651584198296169"><ele>94.0</ele><time>2026-04-05T13:57:17.001Z</time></trkpt><trkpt lat="35.26203405876103" lon="10.651566135117776"><ele>93.0</ele><time>2026-04-05T13:57:18.001Z</time></trkpt><trkpt lat="35.26188067855954" lon="10.651551647432864"><ele>92.0</ele><time>2026-04-05T13:57:19.001Z</time></trkpt><trkpt lat="35.261727221467886" lon="10.651537049615671"><ele>92.0</ele><time>2026-04-05T13:57:20.001Z</time></trkpt><trkpt lat="35.26157177655571" lon="10.651520797552314"><ele>92.0</ele><time>2026-04-05T13:57:21.001Z</time></trkpt><trkpt lat="35.26141719144563" lon="10.65150164854006"><ele>92.0</ele><time>2026-04-05T13:57:22.001Z</time></trkpt><trkpt lat="35.26126361515365" lon="10.651479845188973"><ele>91.33333333333334</ele><time>2026-04-05T13:57:23.001Z</time></trkpt><trkpt lat="35.261111879041955" lon="10.651457731899733"><ele>90.66666666666667</ele><time>2026-04-05T13:57:24.001Z</time></trkpt><trkpt lat="35.26096011918826" lon="10.651435465857597"><ele>90.0</ele><time>2026-04-05T13:57:25.001Z</time></trkpt><trkpt lat="35.26080829861972" lon="10.651413023618963"><ele>90.0</ele><time>2026-04-05T13:57:26.001Z</time></trkpt><trkpt lat="35.260654683949326" lon="10.651390049089118"><ele>90.0</ele><time>2026-04-05T13:57:27.001Z</time></trkpt><trkpt lat="35.260502112577456" lon="10.65136628000685"><ele>90.0</ele><time>2026-04-05T13:57:28.001Z</time></trkpt><trkpt lat="35.26035371233978" lon="10.65134550463325"><ele>89.5</ele><time>2026-04-05T13:57:29.001Z</time></trkpt><trkpt lat="35.26021365668738" lon="10.651326317273174"><ele>89.0</ele><time>2026-04-05T13:57:30.001Z</time></trkpt><trkpt lat="35.2600856706898" lon="10.651305650054077"><ele>88.5</ele><time>2026-04-05T13:57:31.001Z</time></trkpt><trkpt lat="35.25996674808795" lon="10.651278983851533"><ele>88.0</ele><time>2026-04-05T13:57:32.001Z</time></trkpt><trkpt lat="35.25985850308839" lon="10.651243221937484"><ele>88.2</ele><time>2026-04-05T13:57:33.001Z</time></trkpt><trkpt lat="35.25975890352501" lon="10.651196836451696"><ele>88.4</ele><time>2026-04-05T13:57:34.001Z</time></trkpt><trkpt lat="35.25967461884738" lon="10.651138630756519"><ele>88.60000000000001</ele><time>2026-04-05T13:57:35.001Z</time></trkpt><trkpt lat="35.2595952432457" lon="10.651064139816828"><ele>88.80000000000001</ele><time>2026-04-05T13:57:36.001Z</time></trkpt><trkpt lat="35.25952182710875" lon="10.65097814528176"><ele>89.0</ele><time>2026-04-05T13:57:37.001Z</time></trkpt><trkpt lat="35.25945989467887" lon="10.650892069375042"><ele>89.0</ele><time>2026-04-05T13:57:38.001Z</time></trkpt><trkpt lat="35.259411860336876" lon="10.650807080237323"><ele>89.0</ele><time>2026-04-05T13:57:39.001Z</time></trkpt><trkpt lat="35.25937089079116" lon="10.650732815091116"><ele>89.0</ele><time>2026-04-05T13:57:40.001Z</time></trkpt><trkpt lat="35.25932477480454" lon="10.650676878464767"><ele>89.0</ele><time>2026-04-05T13:57:41.001Z</time></trkpt><trkpt lat="35.25921892628724" lon="10.650628200303576"><ele>89.0</ele><time>2026-04-05T13:57:43.001Z</time></trkpt><trkpt lat="35.25911428684974" lon="10.650617576178274"><ele>89.0</ele><time>2026-04-05T13:57:45.001Z</time></trkpt><trkpt lat="35.25902754306579" lon="10.650595249001153"><ele>89.0</ele><time>2026-04-05T13:57:47.001Z</time></trkpt><trkpt lat="35.25895352762917" lon="10.650583911747098"><ele>89.0</ele><time>2026-04-05T13:57:49.001Z</time></trkpt><trkpt lat="35.25887711293595" lon="10.650578987524275"><ele>89.0</ele><time>2026-04-05T13:57:51.001Z</time></trkpt><trkpt lat="35.25879981805331" lon="10.650581410957358"><ele>89.0</ele><time>2026-04-05T13:57:53.001Z</time></trkpt><trkpt lat="35.258731514376564" lon="10.650580379814173"><ele>89.0</ele><time>2026-04-05T13:57:55.001Z</time></trkpt><trkpt lat="35.25866984342833" lon="10.65051289093999"><ele>89.0</ele><time>2026-04-05T13:58:02.001Z</time></trkpt><trkpt lat="35.25858239765648" lon="10.65051117238063"><ele>88.71428571428571</ele><time>2026-04-05T14:01:28.001Z</time></trkpt><trkpt lat="35.258501670244655" lon="10.650528417501766"><ele>88.42857142857143</ele><time>2026-04-05T14:01:31.001Z</time></trkpt><trkpt lat="35.25846173682469" lon="10.650455188008708"><ele>88.14285714285714</ele><time>2026-04-05T14:04:21.001Z</time></trkpt><trkpt lat="35.25846861973901" lon="10.650373495547937"><ele>87.85714285714286</ele><time>2026-04-05T14:04:26.001Z</time></trkpt><trkpt lat="35.258529365624234" lon="10.650352273568636"><ele>87.57142857142857</ele><time>2026-04-05T14:04:30.001Z</time></trkpt><trkpt lat="35.25858759475349" lon="10.65031550876188"><ele>87.28571428571428</ele><time>2026-04-05T14:04:35.001Z</time></trkpt><trkpt lat="35.2586488590714" lon="10.650290818308052"><ele>87.0</ele><time>2026-04-05T14:04:39.001Z</time></trkpt><trkpt lat="35.25871144122265" lon="10.650244936790108"><ele>87.0</ele><time>2026-04-05T14:04:42.045Z</time></trkpt><trkpt lat="35.258822902250415" lon="10.650171794985804"><ele>87.0</ele><time>2026-04-05T14:04:55.429Z</time></trkpt><trkpt lat="35.258525462408485" lon="10.65041392555932"><ele>87.0</ele><time>2026-04-05T14:05:28.192Z</time></trkpt><trkpt lat="35.25855073034377" lon="10.65031480892459"><ele>87.0</ele><time>2026-04-05T14:07:41.016Z</time></trkpt><trkpt lat="35.25857048608602" lon="10.650226718060429"><ele>87.0</ele><time>2026-04-05T14:07:42.018Z</time></trkpt><trkpt lat="35.25850470799438" lon="10.650196732868068"><ele>87.0</ele><time>2026-04-05T14:08:16.017Z</time></trkpt><trkpt lat="35.25846659368691" lon="10.65025818148212"><ele>87.0</ele><time>2026-04-05T14:09:26.013Z</time></trkpt><trkpt lat="35.258505721091595" lon="10.650341906927258"><ele>87.0</ele><time>2026-04-05T14:09:38.943Z</time></trkpt><trkpt lat="35.258423407245196" lon="10.650412483800665"><ele>87.0</ele><time>2026-04-05T14:11:53.017Z</time></trkpt><trkpt lat="35.25846091334005" lon="10.650479589419872"><ele>87.0</ele><time>2026-04-05T14:17:31Z</time></trkpt><trkpt lat="35.25845973905861" lon="10.650557708319907"><ele>87.0</ele><time>2026-04-05T14:18:01Z</time></trkpt><trkpt lat="35.25842409092057" lon="10.650625974075831"><ele>87.0</ele><time>2026-04-05T14:23:19Z</time></trkpt><trkpt lat="35.25835954610268" lon="10.650618082882865"><ele>87.0</ele><time>2026-04-05T14:23:23Z</time></trkpt><trkpt lat="35.25829602029397" lon="10.6506039457373"><ele>87.0</ele><time>2026-04-05T14:23:27Z</time></trkpt><trkpt lat="35.258218902722305" lon="10.650594595116381"><ele>87.0</ele><time>2026-04-05T14:23:31Z</time></trkpt><trkpt lat="35.258135188368094" lon="10.650589841766573"><ele>86.66666666666667</ele><time>2026-04-05T14:23:34Z</time></trkpt><trkpt lat="35.25807077775139" lon="10.650571910023311"><ele>86.33333333333333</ele><time>2026-04-05T14:23:36Z</time></trkpt><trkpt lat="35.25800434099628" lon="10.650543085776027"><ele>86.0</ele><time>2026-04-05T14:23:39Z</time></trkpt><trkpt lat="35.2579244792579" lon="10.650519739969337"><ele>85.66666666666666</ele><time>2026-04-05T14:25:15Z</time></trkpt><trkpt lat="35.257850225706996" lon="10.65051367460293"><ele>85.33333333333333</ele><time>2026-04-05T14:25:18Z</time></trkpt><trkpt lat="35.25777147610367" lon="10.650501782406604"><ele>85.0</ele><time>2026-04-05T14:25:21Z</time></trkpt><trkpt lat="35.257691094323846" lon="10.650492016744604"><ele>85.0</ele><time>2026-04-05T14:25:24Z</time></trkpt><trkpt lat="35.25759736909539" lon="10.650478554035601"><ele>85.0</ele><time>2026-04-05T14:25:27Z</time></trkpt><trkpt lat="35.25751906264277" lon="10.650475734240853"><ele>85.0</ele><time>2026-04-05T14:25:29Z</time></trkpt><trkpt lat="35.25743607547383" lon="10.650463492931628"><ele>85.0</ele><time>2026-04-05T14:25:31Z</time></trkpt><trkpt lat="35.257348987449184" lon="10.650461233063249"><ele>85.0</ele><time>2026-04-05T14:25:33Z</time></trkpt><trkpt lat="35.257256883376066" lon="10.650458566864655"><ele>85.0</ele><time>2026-04-05T14:25:35Z</time></trkpt><trkpt lat="35.257161459333844" lon="10.650450625265336"><ele>85.0</ele><time>2026-04-05T14:25:37Z</time></trkpt><trkpt lat="35.25706168025454" lon="10.650441920212293"><ele>85.0</ele><time>2026-04-05T14:25:39Z</time></trkpt><trkpt lat="35.25694698378253" lon="10.650430632638294"><ele>85.0</ele><time>2026-04-05T14:25:41Z</time></trkpt><trkpt lat="35.25688291501007" lon="10.65042643923309"><ele>85.0</ele><time>2026-04-05T14:25:42Z</time></trkpt><trkpt lat="35.25681519796409" lon="10.65041587622214"><ele>85.0</ele><time>2026-04-05T14:25:43Z</time></trkpt><trkpt lat="35.25674938522935" lon="10.650406897458566"><ele>85.0</ele><time>2026-04-05T14:25:44Z</time></trkpt><trkpt lat="35.25668246089625" lon="10.650408394484616"><ele>85.0</ele><time>2026-04-05T14:25:45Z</time></trkpt><trkpt lat="35.25661981382523" lon="10.650434551255954"><ele>85.0</ele><time>2026-04-05T14:25:46Z</time></trkpt><trkpt lat="35.25655334319378" lon="10.650543199692546"><ele>85.0</ele><time>2026-04-05T14:25:48Z</time></trkpt><trkpt lat="35.256500666010055" lon="10.65066841279016"><ele>85.0</ele><time>2026-04-05T14:25:50Z</time></trkpt><trkpt lat="35.256459603061074" lon="10.650727919251295"><ele>85.0</ele><time>2026-04-05T14:25:51Z</time></trkpt><trkpt lat="35.256357432557074" lon="10.65080256254503"><ele>85.0</ele><time>2026-04-05T14:25:53Z</time></trkpt><trkpt lat="35.256268767084606" lon="10.650831207868535"><ele>85.0</ele><time>2026-04-05T14:25:55Z</time></trkpt><trkpt lat="35.25620775506694" lon="10.650855446144856"><ele>85.0</ele><time>2026-04-05T14:25:57Z</time></trkpt><trkpt lat="35.256131572336756" lon="10.650867512483627"><ele>85.0</ele><time>2026-04-05T14:25:59Z</time></trkpt><trkpt lat="35.255981271155896" lon="10.650855531040667"><ele>85.0</ele><time>2026-04-05T14:26:01Z</time></trkpt><trkpt lat="35.2558926717315" lon="10.650848527948204"><ele>85.0</ele><time>2026-04-05T14:26:02Z</time></trkpt><trkpt lat="35.25579688307656" lon="10.650842854988785"><ele>85.0</ele><time>2026-04-05T14:26:03Z</time></trkpt><trkpt lat="35.25568305241209" lon="10.650840450818613"><ele>85.0</ele><time>2026-04-05T14:26:04Z</time></trkpt><trkpt lat="35.25555935146194" lon="10.65082691211781"><ele>85.0</ele><time>2026-04-05T14:26:05Z</time></trkpt><trkpt lat="35.255399803186954" lon="10.650831668418842"><ele>85.33333333333333</ele><time>2026-04-05T14:26:06Z</time></trkpt><trkpt lat="35.25519082626603" lon="10.650838776517174"><ele>85.66666666666667</ele><time>2026-04-05T14:26:07Z</time></trkpt><trkpt lat="35.25495189258378" lon="10.650828021798388"><ele>86.0</ele><time>2026-04-05T14:26:08Z</time></trkpt><trkpt lat="35.25467163738059" lon="10.650805335210999"><ele>86.0</ele><time>2026-04-05T14:26:09Z</time></trkpt><trkpt lat="35.25436565717754" lon="10.650771270492992"><ele>86.0</ele><time>2026-04-05T14:26:10Z</time></trkpt><trkpt lat="35.25403390438423" lon="10.650742054048951"><ele>87.0</ele><time>2026-04-05T14:26:11Z</time></trkpt><trkpt lat="35.253683208096966" lon="10.650703909857228"><ele>88.0</ele><time>2026-04-05T14:26:12Z</time></trkpt><trkpt lat="35.253333744626985" lon="10.65066659579342"><ele>88.0</ele><time>2026-04-05T14:26:13Z</time></trkpt><trkpt lat="35.25301774143751" lon="10.650630520228924"><ele>88.0</ele><time>2026-04-05T14:26:13.999Z</time></trkpt><trkpt lat="35.25275777831142" lon="10.650601165868308"><ele>88.0</ele><time>2026-04-05T14:26:14.999Z</time></trkpt><trkpt lat="35.25254999545749" lon="10.650584893958689"><ele>88.0</ele><time>2026-04-05T14:26:15.999Z</time></trkpt><trkpt lat="35.25234641528101" lon="10.650555804803608"><ele>88.0</ele><time>2026-04-05T14:26:16.999Z</time></trkpt><trkpt lat="35.25214434883531" lon="10.650530110870994"><ele>87.66666666666666</ele><time>2026-04-05T14:26:17.999Z</time></trkpt><trkpt lat="35.25195092785964" lon="10.650507425115109"><ele>87.33333333333333</ele><time>2026-04-05T14:26:18.999Z</time></trkpt><trkpt lat="35.25179499716743" lon="10.650488675522528"><ele>87.0</ele><time>2026-04-05T14:26:19.999Z</time></trkpt><trkpt lat="35.25164437145707" lon="10.650469340669556"><ele>87.0</ele><time>2026-04-05T14:26:20.999Z</time></trkpt><trkpt lat="35.25149885256909" lon="10.650451362062368"><ele>87.0</ele><time>2026-04-05T14:26:21.999Z</time></trkpt><trkpt lat="35.25134820001716" lon="10.650434698049231"><ele>87.0</ele><time>2026-04-05T14:26:22.999Z</time></trkpt><trkpt lat="35.2511947010786" lon="10.650417771453778"><ele>87.66666666666667</ele><time>2026-04-05T14:26:23.999Z</time></trkpt><trkpt lat="35.25103355774824" lon="10.650401209888786"><ele>88.33333333333334</ele><time>2026-04-05T14:26:24.999Z</time></trkpt><trkpt lat="35.25085935671368" lon="10.650384145650364"><ele>89.0</ele><time>2026-04-05T14:26:25.999Z</time></trkpt><trkpt lat="35.25068716980633" lon="10.650363488714193"><ele>89.33333333333334</ele><time>2026-04-05T14:26:26.999Z</time></trkpt><trkpt lat="35.25051014282878" lon="10.650340297849166"><ele>89.66666666666667</ele><time>2026-04-05T14:26:27.999Z</time></trkpt><trkpt lat="35.250331767670716" lon="10.65031481328333"><ele>90.0</ele><time>2026-04-05T14:26:28.999Z</time></trkpt><trkpt lat="35.25015342825035" lon="10.65029133623907"><ele>90.0</ele><time>2026-04-05T14:26:29.999Z</time></trkpt><trkpt lat="35.24997582014622" lon="10.650268021057785"><ele>90.0</ele><time>2026-04-05T14:26:30.999Z</time></trkpt><trkpt lat="35.24980806721946" lon="10.650243316971418"><ele>90.0</ele><time>2026-04-05T14:26:31.999Z</time></trkpt><trkpt lat="35.24964871449092" lon="10.650219513007077"><ele>91.0</ele><time>2026-04-05T14:26:32.999Z</time></trkpt><trkpt lat="35.249491284957266" lon="10.6501983859497"><ele>92.0</ele><time>2026-04-05T14:26:33.999Z</time></trkpt><trkpt lat="35.24933152669694" lon="10.650178397475228"><ele>93.0</ele><time>2026-04-05T14:26:34.999Z</time></trkpt><trkpt lat="35.24916954780457" lon="10.650162012634443"><ele>93.0</ele><time>2026-04-05T14:26:35.999Z</time></trkpt><trkpt lat="35.24901617096312" lon="10.650147402517412"><ele>93.0</ele><time>2026-04-05T14:26:36.999Z</time></trkpt><trkpt lat="35.2488679402536" lon="10.650130853767335"><ele>93.0</ele><time>2026-04-05T14:26:37.999Z</time></trkpt><trkpt lat="35.24872307342577" lon="10.650113619933865"><ele>93.0</ele><time>2026-04-05T14:26:38.999Z</time></trkpt><trkpt lat="35.24857591420652" lon="10.650095895519962"><ele>93.66666666666667</ele><time>2026-04-05T14:26:39.999Z</time></trkpt><trkpt lat="35.24842288133109" lon="10.65007608862677"><ele>94.33333333333334</ele><time>2026-04-05T14:26:40.999Z</time></trkpt><trkpt lat="35.24826447696784" lon="10.650055414291112"><ele>95.0</ele><time>2026-04-05T14:26:41.999Z</time></trkpt><trkpt lat="35.24810471374878" lon="10.650039802782565"><ele>96.33333333333334</ele><time>2026-04-05T14:26:42.999Z</time></trkpt><trkpt lat="35.24794928533833" lon="10.650022264732394"><ele>97.66666666666667</ele><time>2026-04-05T14:26:43.999Z</time></trkpt><trkpt lat="35.24779939218594" lon="10.650007419848027"><ele>99.0</ele><time>2026-04-05T14:26:44.999Z</time></trkpt><trkpt lat="35.24765012235196" lon="10.649991278860352"><ele>99.0</ele><time>2026-04-05T14:26:45.999Z</time></trkpt><trkpt lat="35.24749474034044" lon="10.649973843570272"><ele>99.0</ele><time>2026-04-05T14:26:46.999Z</time></trkpt><trkpt lat="35.24733288036039" lon="10.649957092281253"><ele>99.0</ele><time>2026-04-05T14:26:47.999Z</time></trkpt><trkpt lat="35.24716496114081" lon="10.649939878543023"><ele>99.33333333333334</ele><time>2026-04-05T14:26:48.999Z</time></trkpt><trkpt lat="35.24700011919228" lon="10.64992475852553"><ele>99.66666666666667</ele><time>2026-04-05T14:26:49.999Z</time></trkpt><trkpt lat="35.24683508975845" lon="10.649906167358976"><ele>100.0</ele><time>2026-04-05T14:26:50.999Z</time></trkpt><trkpt lat="35.24667087567174" lon="10.649888588697781"><ele>100.0</ele><time>2026-04-05T14:26:51.999Z</time></trkpt><trkpt lat="35.24651209445993" lon="10.649872501326445"><ele>100.0</ele><time>2026-04-05T14:26:52.999Z</time></trkpt><trkpt lat="35.24635356235074" lon="10.649854789277207"><ele>100.0</ele><time>2026-04-05T14:26:53.999Z</time></trkpt><trkpt lat="35.24619611095479" lon="10.649837130154113"><ele>99.33333333333334</ele><time>2026-04-05T14:26:54.999Z</time></trkpt><trkpt lat="35.246038286149464" lon="10.649817649758845"><ele>98.66666666666666</ele><time>2026-04-05T14:26:55.999Z</time></trkpt><trkpt lat="35.24587856230308" lon="10.649802807256819"><ele>98.0</ele><time>2026-04-05T14:26:56.999Z</time></trkpt><trkpt lat="35.24572140970257" lon="10.649784503802804"><ele>97.33333333333333</ele><time>2026-04-05T14:26:57.999Z</time></trkpt><trkpt lat="35.24556241469419" lon="10.64976586487006"><ele>96.66666666666666</ele><time>2026-04-05T14:26:58.999Z</time></trkpt><trkpt lat="35.24539628602163" lon="10.649748928561827"><ele>96.0</ele><time>2026-04-05T14:26:59.999Z</time></trkpt><trkpt lat="35.24522225780568" lon="10.649730928954181"><ele>96.0</ele><time>2026-04-05T14:27:00.999Z</time></trkpt><trkpt lat="35.24504563559741" lon="10.649711626425658"><ele>96.0</ele><time>2026-04-05T14:27:02Z</time></trkpt><trkpt lat="35.24486745111783" lon="10.649697629268768"><ele>96.0</ele><time>2026-04-05T14:27:03Z</time></trkpt><trkpt lat="35.244686304368464" lon="10.649679640114908"><ele>96.0</ele><time>2026-04-05T14:27:04Z</time></trkpt><trkpt lat="35.244499922505156" lon="10.649658461695465"><ele>96.0</ele><time>2026-04-05T14:27:05Z</time></trkpt><trkpt lat="35.24431377900161" lon="10.649635842593586"><ele>96.0</ele><time>2026-04-05T14:27:06Z</time></trkpt><trkpt lat="35.24412735850324" lon="10.649612333232328"><ele>94.33333333333333</ele><time>2026-04-05T14:27:07Z</time></trkpt><trkpt lat="35.243945806969315" lon="10.64959230907745"><ele>92.66666666666666</ele><time>2026-04-05T14:27:08Z</time></trkpt><trkpt lat="35.24376595644442" lon="10.649574935257004"><ele>91.0</ele><time>2026-04-05T14:27:09Z</time></trkpt><trkpt lat="35.24359278412536" lon="10.649562821079385"><ele>91.0</ele><time>2026-04-05T14:27:10Z</time></trkpt><trkpt lat="35.243416790943336" lon="10.649539308164618"><ele>91.0</ele><time>2026-04-05T14:27:11Z</time></trkpt><trkpt lat="35.24323549424401" lon="10.649522735363323"><ele>91.0</ele><time>2026-04-05T14:27:12Z</time></trkpt><trkpt lat="35.243054205548596" lon="10.649504452723308"><ele>90.33333333333333</ele><time>2026-04-05T14:27:13Z</time></trkpt><trkpt lat="35.24287519566642" lon="10.64948166494703"><ele>89.66666666666667</ele><time>2026-04-05T14:27:14Z</time></trkpt><trkpt lat="35.2426908564853" lon="10.649461703300494"><ele>89.0</ele><time>2026-04-05T14:27:15Z</time></trkpt><trkpt lat="35.242505454138936" lon="10.6494437030601"><ele>89.0</ele><time>2026-04-05T14:27:16Z</time></trkpt><trkpt lat="35.24232406726382" lon="10.649425486721277"><ele>89.0</ele><time>2026-04-05T14:27:17Z</time></trkpt><trkpt lat="35.24213994726759" lon="10.64940417894862"><ele>89.0</ele><time>2026-04-05T14:27:18Z</time></trkpt><trkpt lat="35.241953056211464" lon="10.649380054140698"><ele>88.66666666666667</ele><time>2026-04-05T14:27:19Z</time></trkpt><trkpt lat="35.24176344626071" lon="10.649356927990711"><ele>88.33333333333333</ele><time>2026-04-05T14:27:20Z</time></trkpt><trkpt lat="35.24157497399699" lon="10.649339110530088"><ele>88.0</ele><time>2026-04-05T14:27:21Z</time></trkpt><trkpt lat="35.241389285285585" lon="10.649321217642678"><ele>86.66666666666666</ele><time>2026-04-05T14:27:22Z</time></trkpt><trkpt lat="35.24120487282351" lon="10.649302431064633"><ele>85.33333333333333</ele><time>2026-04-05T14:27:23Z</time></trkpt><trkpt lat="35.241020620376986" lon="10.649282387634438"><ele>84.0</ele><time>2026-04-05T14:27:24Z</time></trkpt><trkpt lat="35.24083120063007" lon="10.649260939248645"><ele>84.0</ele><time>2026-04-05T14:27:25Z</time></trkpt><trkpt lat="35.240634833489935" lon="10.649234451643482"><ele>84.0</ele><time>2026-04-05T14:27:26Z</time></trkpt><trkpt lat="35.240429849191194" lon="10.649210242423091"><ele>84.0</ele><time>2026-04-05T14:27:27Z</time></trkpt><trkpt lat="35.240221754142304" lon="10.649188218869293"><ele>85.0</ele><time>2026-04-05T14:27:28Z</time></trkpt><trkpt lat="35.240015710056504" lon="10.649167552836477"><ele>86.0</ele><time>2026-04-05T14:27:29Z</time></trkpt><trkpt lat="35.23980949927883" lon="10.649147253363056"><ele>87.0</ele><time>2026-04-05T14:27:30Z</time></trkpt><trkpt lat="35.239604072079885" lon="10.649126670894576"><ele>87.66666666666667</ele><time>2026-04-05T14:27:31Z</time></trkpt><trkpt lat="35.239397252020865" lon="10.649102691064781"><ele>88.33333333333334</ele><time>2026-04-05T14:27:32Z</time></trkpt><trkpt lat="35.239188181251734" lon="10.649076562344247"><ele>89.0</ele><time>2026-04-05T14:27:33Z</time></trkpt><trkpt lat="35.23897682087303" lon="10.649051191891022"><ele>87.33333333333334</ele><time>2026-04-05T14:27:34Z</time></trkpt><trkpt lat="35.23876078410278" lon="10.6490275013677"><ele>85.66666666666667</ele><time>2026-04-05T14:27:35Z</time></trkpt><trkpt lat="35.23854547969453" lon="10.649003009671793"><ele>84.0</ele><time>2026-04-05T14:27:36Z</time></trkpt><trkpt lat="35.23832886663837" lon="10.648980567090033"><ele>85.33333333333333</ele><time>2026-04-05T14:27:37Z</time></trkpt><trkpt lat="35.2381122155396" lon="10.648954957797807"><ele>86.66666666666666</ele><time>2026-04-05T14:27:38Z</time></trkpt><trkpt lat="35.237894405932366" lon="10.648933651184999"><ele>88.0</ele><time>2026-04-05T14:27:39Z</time></trkpt><trkpt lat="35.23767353022654" lon="10.648906521344456"><ele>88.0</ele><time>2026-04-05T14:27:40Z</time></trkpt><trkpt lat="35.23745342693064" lon="10.64888222314711"><ele>88.0</ele><time>2026-04-05T14:27:41Z</time></trkpt><trkpt lat="35.23723127767628" lon="10.648857485078956"><ele>88.0</ele><time>2026-04-05T14:27:42Z</time></trkpt><trkpt lat="35.237010731417534" lon="10.648834115784165"><ele>88.0</ele><time>2026-04-05T14:27:43Z</time></trkpt><trkpt lat="35.236785931333294" lon="10.648814585725578"><ele>88.0</ele><time>2026-04-05T14:27:44Z</time></trkpt><trkpt lat="35.236559622500195" lon="10.648789594303368"><ele>90.0</ele><time>2026-04-05T14:27:45Z</time></trkpt><trkpt lat="35.23633034463134" lon="10.648765324547684"><ele>92.0</ele><time>2026-04-05T14:27:46Z</time></trkpt><trkpt lat="35.236099373747955" lon="10.648743052866692"><ele>92.0</ele><time>2026-04-05T14:27:47Z</time></trkpt><trkpt lat="35.235873947239966" lon="10.648721695360058"><ele>92.0</ele><time>2026-04-05T14:27:47.999Z</time></trkpt><trkpt lat="35.23565069642828" lon="10.64870011532887"><ele>90.5</ele><time>2026-04-05T14:27:48.999Z</time></trkpt><trkpt lat="35.23542631621971" lon="10.64867429361968"><ele>89.0</ele><time>2026-04-05T14:27:49.999Z</time></trkpt><trkpt lat="35.23519559786763" lon="10.64864717743075"><ele>90.33333333333334</ele><time>2026-04-05T14:27:50.999Z</time></trkpt><trkpt lat="35.23497814304818" lon="10.648621953168824"><ele>91.66666666666667</ele><time>2026-04-05T14:27:51.999Z</time></trkpt><trkpt lat="35.234768093315786" lon="10.648595092066905"><ele>93.0</ele><time>2026-04-05T14:27:52.999Z</time></trkpt><trkpt lat="35.23453284344971" lon="10.64856658941826"><ele>95.0</ele><time>2026-04-05T14:27:53.999Z</time></trkpt><trkpt lat="35.23429414017881" lon="10.64853943722131"><ele>97.0</ele><time>2026-04-05T14:27:54.999Z</time></trkpt><trkpt lat="35.23405482780934" lon="10.648518071364375"><ele>100.0</ele><time>2026-04-05T14:27:55.999Z</time></trkpt><trkpt lat="35.23381423789937" lon="10.648496436742473"><ele>103.0</ele><time>2026-04-05T14:27:56.999Z</time></trkpt><trkpt lat="35.23355458635967" lon="10.648475772998243"><ele>103.0</ele><time>2026-04-05T14:27:57.999Z</time></trkpt><trkpt lat="35.233273258165696" lon="10.648447375808026"><ele>103.0</ele><time>2026-04-05T14:27:58.999Z</time></trkpt><trkpt lat="35.232969481583794" lon="10.64842333654403"><ele>103.5</ele><time>2026-04-05T14:27:59.999Z</time></trkpt><trkpt lat="35.23265458640149" lon="10.648400202852171"><ele>104.0</ele><time>2026-04-05T14:28:00.999Z</time></trkpt><trkpt lat="35.23235078359599" lon="10.648376383894417"><ele>101.0</ele><time>2026-04-05T14:28:01.999Z</time></trkpt><trkpt lat="35.232066669962364" lon="10.648349532995132"><ele>98.0</ele><time>2026-04-05T14:28:02.999Z</time></trkpt><trkpt lat="35.231792449875414" lon="10.648322307644403"><ele>98.0</ele><time>2026-04-05T14:28:03.999Z</time></trkpt><trkpt lat="35.23152010515724" lon="10.648288338909774"><ele>98.0</ele><time>2026-04-05T14:28:04.999Z</time></trkpt><trkpt lat="35.231248773604094" lon="10.648256467300733"><ele>96.5</ele><time>2026-04-05T14:28:05.999Z</time></trkpt><trkpt lat="35.23097359139715" lon="10.64822517264326"><ele>95.0</ele><time>2026-04-05T14:28:06.999Z</time></trkpt><trkpt lat="35.23069709499811" lon="10.648193295020121"><ele>93.5</ele><time>2026-04-05T14:28:07.999Z</time></trkpt><trkpt lat="35.23041665624445" lon="10.648162622359001"><ele>92.0</ele><time>2026-04-05T14:28:08.999Z</time></trkpt><trkpt lat="35.23013295939953" lon="10.648131420385166"><ele>92.0</ele><time>2026-04-05T14:28:09.999Z</time></trkpt><trkpt lat="35.22984370254873" lon="10.648095496647944"><ele>92.0</ele><time>2026-04-05T14:28:10.999Z</time></trkpt><trkpt lat="35.22955119719349" lon="10.648059132470038"><ele>89.5</ele><time>2026-04-05T14:28:11.999Z</time></trkpt><trkpt lat="35.229255809374514" lon="10.64802563932405"><ele>87.0</ele><time>2026-04-05T14:28:12.999Z</time></trkpt><trkpt lat="35.22895847200994" lon="10.647991806467395"><ele>83.5</ele><time>2026-04-05T14:28:13.999Z</time></trkpt><trkpt lat="35.22866396668682" lon="10.647960272120665"><ele>80.0</ele><time>2026-04-05T14:28:14.999Z</time></trkpt><trkpt lat="35.228371021223566" lon="10.647929404309894"><ele>79.5</ele><time>2026-04-05T14:28:15.999Z</time></trkpt><trkpt lat="35.228076438908744" lon="10.647898365168473"><ele>79.0</ele><time>2026-04-05T14:28:16.999Z</time></trkpt><trkpt lat="35.22777962199079" lon="10.647852741505375"><ele>79.0</ele><time>2026-04-05T14:28:17.999Z</time></trkpt><trkpt lat="35.227504459810895" lon="10.64780682227959"><ele>79.0</ele><time>2026-04-05T14:28:18.999Z</time></trkpt><trkpt lat="35.22721525962768" lon="10.647787664303236"><ele>78.0</ele><time>2026-04-05T14:28:19.999Z</time></trkpt><trkpt lat="35.22693107208979" lon="10.647757536986278"><ele>77.0</ele><time>2026-04-05T14:28:20.999Z</time></trkpt><trkpt lat="35.22664704658687" lon="10.647730188089483"><ele>76.0</ele><time>2026-04-05T14:28:21.999Z</time></trkpt><trkpt lat="35.2263687345823" lon="10.647703185779527"><ele>75.0</ele><time>2026-04-05T14:28:22.999Z</time></trkpt><trkpt lat="35.22609455716626" lon="10.647673060384143"><ele>75.0</ele><time>2026-04-05T14:28:23.999Z</time></trkpt><trkpt lat="35.225820641800425" lon="10.64764229083252"><ele>75.0</ele><time>2026-04-05T14:28:24.999Z</time></trkpt><trkpt lat="35.22554514039534" lon="10.647612502947261"><ele>73.0</ele><time>2026-04-05T14:28:25.999Z</time></trkpt><trkpt lat="35.22525857284454" lon="10.647585214659733"><ele>71.0</ele><time>2026-04-05T14:28:26.999Z</time></trkpt><trkpt lat="35.22496831635757" lon="10.647553030862458"><ele>71.0</ele><time>2026-04-05T14:28:27.999Z</time></trkpt><trkpt lat="35.22466860678179" lon="10.647518418912044"><ele>71.0</ele><time>2026-04-05T14:28:28.999Z</time></trkpt><trkpt lat="35.22436752905342" lon="10.647478648325324"><ele>71.0</ele><time>2026-04-05T14:28:29.999Z</time></trkpt><trkpt lat="35.224062414299425" lon="10.647450071854264"><ele>71.0</ele><time>2026-04-05T14:28:30.999Z</time></trkpt><trkpt lat="35.223758125111594" lon="10.6474131903473"><ele>70.5</ele><time>2026-04-05T14:28:31.999Z</time></trkpt><trkpt lat="35.22344589288284" lon="10.647387556390354"><ele>70.0</ele><time>2026-04-05T14:28:32.999Z</time></trkpt><trkpt lat="35.223138077132845" lon="10.647359109530774"><ele>68.5</ele><time>2026-04-05T14:28:33.999Z</time></trkpt><trkpt lat="35.22283113035064" lon="10.647330134939065"><ele>67.0</ele><time>2026-04-05T14:28:34.999Z</time></trkpt><trkpt lat="35.22252070665032" lon="10.64729890090559"><ele>65.5</ele><time>2026-04-05T14:28:35.999Z</time></trkpt><trkpt lat="35.22221086403428" lon="10.64726653763904"><ele>64.0</ele><time>2026-04-05T14:28:36.999Z</time></trkpt><trkpt lat="35.22190160581534" lon="10.647230342120649"><ele>64.0</ele><time>2026-04-05T14:28:37.999Z</time></trkpt><trkpt lat="35.22158764837976" lon="10.647194404174929"><ele>64.0</ele><time>2026-04-05T14:28:38.999Z</time></trkpt><trkpt lat="35.22126896630942" lon="10.647162633339477"><ele>64.0</ele><time>2026-04-05T14:28:39.999Z</time></trkpt><trkpt lat="35.2209355368217" lon="10.647123125853263"><ele>64.0</ele><time>2026-04-05T14:28:40.999Z</time></trkpt><trkpt lat="35.22059004820242" lon="10.647087092975283"><ele>64.0</ele><time>2026-04-05T14:28:41.999Z</time></trkpt><trkpt lat="35.22024171009301" lon="10.647060446177415"><ele>64.0</ele><time>2026-04-05T14:28:42.999Z</time></trkpt><trkpt lat="35.21989103717692" lon="10.647027317970018"><ele>62.5</ele><time>2026-04-05T14:28:43.999Z</time></trkpt><trkpt lat="35.21953489698373" lon="10.646984829240681"><ele>61.0</ele><time>2026-04-05T14:28:44.999Z</time></trkpt><trkpt lat="35.219181030380945" lon="10.646942730985392"><ele>60.0</ele><time>2026-04-05T14:28:45.999Z</time></trkpt><trkpt lat="35.21883424151583" lon="10.646908392738295"><ele>59.0</ele><time>2026-04-05T14:28:46.999Z</time></trkpt><trkpt lat="35.218479281658325" lon="10.646865900725686"><ele>58.5</ele><time>2026-04-05T14:28:47.999Z</time></trkpt><trkpt lat="35.218106687751636" lon="10.646827441237992"><ele>58.0</ele><time>2026-04-05T14:28:48.999Z</time></trkpt><trkpt lat="35.21775189565738" lon="10.64678932142073"><ele>58.0</ele><time>2026-04-05T14:28:49.999Z</time></trkpt><trkpt lat="35.217400165819164" lon="10.646750460817648"><ele>58.0</ele><time>2026-04-05T14:28:50.999Z</time></trkpt><trkpt lat="35.217053517498286" lon="10.646697882728626"><ele>56.5</ele><time>2026-04-05T14:28:51.999Z</time></trkpt><trkpt lat="35.216688498893674" lon="10.646671774795253"><ele>55.0</ele><time>2026-04-05T14:28:52.999Z</time></trkpt><trkpt lat="35.21633464920791" lon="10.646635362574914"><ele>55.0</ele><time>2026-04-05T14:28:53.999Z</time></trkpt><trkpt lat="35.21598325843239" lon="10.64659827615246"><ele>55.0</ele><time>2026-04-05T14:28:54.999Z</time></trkpt><trkpt lat="35.215632204561274" lon="10.64656208898277"><ele>57.0</ele><time>2026-04-05T14:28:55.999Z</time></trkpt><trkpt lat="35.215271628781394" lon="10.64652510821545"><ele>59.0</ele><time>2026-04-05T14:28:56.999Z</time></trkpt><trkpt lat="35.21490999687262" lon="10.646484415250397"><ele>59.0</ele><time>2026-04-05T14:28:57.999Z</time></trkpt><trkpt lat="35.21455660744227" lon="10.64644491623767"><ele>59.0</ele><time>2026-04-05T14:28:58.999Z</time></trkpt><trkpt lat="35.214204717483554" lon="10.64639036625072"><ele>59.0</ele><time>2026-04-05T14:28:59.999Z</time></trkpt><trkpt lat="35.21382963940231" lon="10.646360139808818"><ele>59.0</ele><time>2026-04-05T14:29:00.999Z</time></trkpt><trkpt lat="35.21344550378729" lon="10.64631862798615"><ele>60.0</ele><time>2026-04-05T14:29:01.999Z</time></trkpt><trkpt lat="35.21304927282732" lon="10.646275766718755"><ele>61.0</ele><time>2026-04-05T14:29:02.999Z</time></trkpt><trkpt lat="35.21264113052518" lon="10.646232212480443"><ele>60.0</ele><time>2026-04-05T14:29:03.999Z</time></trkpt><trkpt lat="35.21222560942729" lon="10.646188542349456"><ele>59.0</ele><time>2026-04-05T14:29:04.999Z</time></trkpt><trkpt lat="35.21180028366537" lon="10.646137371788504"><ele>59.0</ele><time>2026-04-05T14:29:05.999Z</time></trkpt><trkpt lat="35.211368152970266" lon="10.646092472533898"><ele>59.0</ele><time>2026-04-05T14:29:06.999Z</time></trkpt><trkpt lat="35.210928151436605" lon="10.646042938519336"><ele>57.5</ele><time>2026-04-05T14:29:07.999Z</time></trkpt><trkpt lat="35.21050359894721" lon="10.645993914174698"><ele>56.0</ele><time>2026-04-05T14:29:08.999Z</time></trkpt><trkpt lat="35.2101090496028" lon="10.645948647033109"><ele>57.5</ele><time>2026-04-05T14:29:09.999Z</time></trkpt><trkpt lat="35.209739885232416" lon="10.645908482042675"><ele>59.0</ele><time>2026-04-05T14:29:10.999Z</time></trkpt><trkpt lat="35.20938748734759" lon="10.645858241482488"><ele>59.0</ele><time>2026-04-05T14:29:11.999Z</time></trkpt><trkpt lat="35.20905429579435" lon="10.645814515739316"><ele>59.0</ele><time>2026-04-05T14:29:12.999Z</time></trkpt><trkpt lat="35.20873306020304" lon="10.645772954836008"><ele>57.5</ele><time>2026-04-05T14:29:13.999Z</time></trkpt><trkpt lat="35.208426305654314" lon="10.64573937080138"><ele>56.0</ele><time>2026-04-05T14:29:14.999Z</time></trkpt><trkpt lat="35.20812137881007" lon="10.645704807365233"><ele>56.0</ele><time>2026-04-05T14:29:15.999Z</time></trkpt><trkpt lat="35.207818553111935" lon="10.645675978634229"><ele>56.0</ele><time>2026-04-05T14:29:16.999Z</time></trkpt><trkpt lat="35.20751618716038" lon="10.645645816613342"><ele>56.5</ele><time>2026-04-05T14:29:17.999Z</time></trkpt><trkpt lat="35.20721345925067" lon="10.645612442524078"><ele>57.0</ele><time>2026-04-05T14:29:18.999Z</time></trkpt><trkpt lat="35.206916245668324" lon="10.645562482769307"><ele>57.0</ele><time>2026-04-05T14:29:19.999Z</time></trkpt><trkpt lat="35.20660810637705" lon="10.645538591065508"><ele>57.0</ele><time>2026-04-05T14:29:20.999Z</time></trkpt><trkpt lat="35.20630044463731" lon="10.645521703505901"><ele>59.0</ele><time>2026-04-05T14:29:21.999Z</time></trkpt><trkpt lat="35.20598676870227" lon="10.645508886086395"><ele>61.0</ele><time>2026-04-05T14:29:22.999Z</time></trkpt><trkpt lat="35.20569192480547" lon="10.64547155798912"><ele>58.5</ele><time>2026-04-05T14:29:23.999Z</time></trkpt><trkpt lat="35.205392277127615" lon="10.645453009032552"><ele>56.0</ele><time>2026-04-05T14:29:24.999Z</time></trkpt><trkpt lat="35.205088389603794" lon="10.6454451230853"><ele>56.0</ele><time>2026-04-05T14:29:25.999Z</time></trkpt><trkpt lat="35.20478237693829" lon="10.6454397657792"><ele>56.0</ele><time>2026-04-05T14:29:26.999Z</time></trkpt><trkpt lat="35.20447214846876" lon="10.645430532125"><ele>56.0</ele><time>2026-04-05T14:29:27.999Z</time></trkpt><trkpt lat="35.20416644047459" lon="10.645430152269036"><ele>56.0</ele><time>2026-04-05T14:29:28.999Z</time></trkpt><trkpt lat="35.20384287924003" lon="10.645400939020115"><ele>56.5</ele><time>2026-04-05T14:29:29.999Z</time></trkpt><trkpt lat="35.203541323079904" lon="10.645425587543913"><ele>57.0</ele><time>2026-04-05T14:29:30.999Z</time></trkpt><trkpt lat="35.20323595098319" lon="10.645438604070364"><ele>56.5</ele><time>2026-04-05T14:29:31.999Z</time></trkpt><trkpt lat="35.20292981739361" lon="10.64545226224258"><ele>56.0</ele><time>2026-04-05T14:29:32.999Z</time></trkpt><trkpt lat="35.20262295214911" lon="10.645466629623987"><ele>56.5</ele><time>2026-04-05T14:29:33.999Z</time></trkpt><trkpt lat="35.20231866305157" lon="10.64548667375457"><ele>57.0</ele><time>2026-04-05T14:29:34.999Z</time></trkpt><trkpt lat="35.202008000840756" lon="10.6454816583833"><ele>57.0</ele><time>2026-04-05T14:29:35.999Z</time></trkpt><trkpt lat="35.20171027647285" lon="10.645522161651815"><ele>57.0</ele><time>2026-04-05T14:29:36.999Z</time></trkpt><trkpt lat="35.20141082506932" lon="10.6455564356178"><ele>56.0</ele><time>2026-04-05T14:29:37.999Z</time></trkpt><trkpt lat="35.201113519898634" lon="10.645593853977699"><ele>55.0</ele><time>2026-04-05T14:29:38.999Z</time></trkpt><trkpt lat="35.200824028305945" lon="10.645637197137953"><ele>55.0</ele><time>2026-04-05T14:29:39.999Z</time></trkpt><trkpt lat="35.20053179617773" lon="10.645671430590399"><ele>55.0</ele><time>2026-04-05T14:29:40.999Z</time></trkpt><trkpt lat="35.20023408925414" lon="10.645715035190825"><ele>55.0</ele><time>2026-04-05T14:29:41.999Z</time></trkpt><trkpt lat="35.19993395989332" lon="10.645767841372113"><ele>55.0</ele><time>2026-04-05T14:29:42.999Z</time></trkpt><trkpt lat="35.19963763622592" lon="10.645824800243116"><ele>56.5</ele><time>2026-04-05T14:29:43.999Z</time></trkpt><trkpt lat="35.199337254747306" lon="10.645878378326866"><ele>58.0</ele><time>2026-04-05T14:29:44.999Z</time></trkpt><trkpt lat="35.19903830984594" lon="10.64593654270801"><ele>57.5</ele><time>2026-04-05T14:29:45.999Z</time></trkpt><trkpt lat="35.198732792026505" lon="10.645998432140395"><ele>57.0</ele><time>2026-04-05T14:29:46.999Z</time></trkpt><trkpt lat="35.19842853773584" lon="10.646064334405773"><ele>56.0</ele><time>2026-04-05T14:29:47.999Z</time></trkpt><trkpt lat="35.19811908022495" lon="10.646134715358627"><ele>55.0</ele><time>2026-04-05T14:29:48.999Z</time></trkpt><trkpt lat="35.19780352586568" lon="10.646218132003142"><ele>55.0</ele><time>2026-04-05T14:29:49.999Z</time></trkpt><trkpt lat="35.19750321509339" lon="10.646288963805295"><ele>55.0</ele><time>2026-04-05T14:29:50.999Z</time></trkpt><trkpt lat="35.19721638136121" lon="10.64636596485383"><ele>55.5</ele><time>2026-04-05T14:29:51.999Z</time></trkpt><trkpt lat="35.19689119760494" lon="10.646458881710261"><ele>56.0</ele><time>2026-04-05T14:29:52.999Z</time></trkpt><trkpt lat="35.19658241662814" lon="10.646540611255896"><ele>56.5</ele><time>2026-04-05T14:29:53.999Z</time></trkpt><trkpt lat="35.19627119882037" lon="10.646620150492542"><ele>57.0</ele><time>2026-04-05T14:29:54.999Z</time></trkpt><trkpt lat="35.19595876783851" lon="10.64669984568352"><ele>57.0</ele><time>2026-04-05T14:29:55.999Z</time></trkpt><trkpt lat="35.195645804728976" lon="10.646782789121339"><ele>57.0</ele><time>2026-04-05T14:29:56.999Z</time></trkpt><trkpt lat="35.19532453179442" lon="10.646877262671847"><ele>57.0</ele><time>2026-04-05T14:29:57.999Z</time></trkpt><trkpt lat="35.19501507599637" lon="10.646963190364458"><ele>57.0</ele><time>2026-04-05T14:29:58.999Z</time></trkpt><trkpt lat="35.19470887429052" lon="10.647038346188937"><ele>57.0</ele><time>2026-04-05T14:29:59.999Z</time></trkpt><trkpt lat="35.194416186608834" lon="10.647104910085668"><ele>57.0</ele><time>2026-04-05T14:30:00.999Z</time></trkpt><trkpt lat="35.19412148777944" lon="10.64719856426965"><ele>56.5</ele><time>2026-04-05T14:30:01.999Z</time></trkpt><trkpt lat="35.19383861265411" lon="10.647275702039645"><ele>56.0</ele><time>2026-04-05T14:30:02.999Z</time></trkpt><trkpt lat="35.19356169119097" lon="10.64734830855338"><ele>56.0</ele><time>2026-04-05T14:30:03.999Z</time></trkpt><trkpt lat="35.19327784171205" lon="10.64742610169441"><ele>56.0</ele><time>2026-04-05T14:30:04.999Z</time></trkpt><trkpt lat="35.192994707447454" lon="10.647505221512791"><ele>55.5</ele><time>2026-04-05T14:30:05.999Z</time></trkpt><trkpt lat="35.192707840748454" lon="10.647580679692005"><ele>55.0</ele><time>2026-04-05T14:30:06.999Z</time></trkpt><trkpt lat="35.19241563223422" lon="10.647639682716079"><ele>55.5</ele><time>2026-04-05T14:30:07.999Z</time></trkpt><trkpt lat="35.19212180903266" lon="10.647732841051077"><ele>56.0</ele><time>2026-04-05T14:30:08.999Z</time></trkpt><trkpt lat="35.19183306175261" lon="10.647815533894645"><ele>56.0</ele><time>2026-04-05T14:30:09.999Z</time></trkpt><trkpt lat="35.191538591909584" lon="10.6479031779652"><ele>56.0</ele><time>2026-04-05T14:30:10.999Z</time></trkpt><trkpt lat="35.19124309851411" lon="10.647991357955744"><ele>56.0</ele><time>2026-04-05T14:30:11.999Z</time></trkpt><trkpt lat="35.190946122946045" lon="10.64807418281974"><ele>56.0</ele><time>2026-04-05T14:30:12.999Z</time></trkpt><trkpt lat="35.19062588317729" lon="10.648153297122208"><ele>58.5</ele><time>2026-04-05T14:30:13.999Z</time></trkpt><trkpt lat="35.19033021134821" lon="10.648223545077485"><ele>61.0</ele><time>2026-04-05T14:30:14.999Z</time></trkpt><trkpt lat="35.19002806786474" lon="10.648296231111148"><ele>59.0</ele><time>2026-04-05T14:30:15.999Z</time></trkpt><trkpt lat="35.18972175363521" lon="10.648374644318897"><ele>57.0</ele><time>2026-04-05T14:30:16.999Z</time></trkpt><trkpt lat="35.18941552476457" lon="10.648449153204139"><ele>57.0</ele><time>2026-04-05T14:30:17.999Z</time></trkpt><trkpt lat="35.189094089705264" lon="10.648540405607317"><ele>57.0</ele><time>2026-04-05T14:30:18.999Z</time></trkpt><trkpt lat="35.18877284379404" lon="10.648626457800438"><ele>57.0</ele><time>2026-04-05T14:30:19.999Z</time></trkpt><trkpt lat="35.188458196540296" lon="10.648709731282018"><ele>57.0</ele><time>2026-04-05T14:30:20.999Z</time></trkpt><trkpt lat="35.18815080203214" lon="10.64879401774297"><ele>57.0</ele><time>2026-04-05T14:30:21.999Z</time></trkpt><trkpt lat="35.18784412453027" lon="10.648875418511885"><ele>57.0</ele><time>2026-04-05T14:30:22.999Z</time></trkpt><trkpt lat="35.18753648720012" lon="10.648954677423685"><ele>57.5</ele><time>2026-04-05T14:30:23.999Z</time></trkpt><trkpt lat="35.18723357407776" lon="10.64903674080211"><ele>58.0</ele><time>2026-04-05T14:30:24.999Z</time></trkpt><trkpt lat="35.18694163022525" lon="10.64910578917091"><ele>58.0</ele><time>2026-04-05T14:30:25.999Z</time></trkpt><trkpt lat="35.18663889590757" lon="10.649196332128833"><ele>58.0</ele><time>2026-04-05T14:30:26.999Z</time></trkpt><trkpt lat="35.186318513976396" lon="10.64929392099026"><ele>56.5</ele><time>2026-04-05T14:30:27.999Z</time></trkpt><trkpt lat="35.18603627713937" lon="10.649373180103156"><ele>55.0</ele><time>2026-04-05T14:30:28.999Z</time></trkpt><trkpt lat="35.185736994501084" lon="10.649457965325366"><ele>55.5</ele><time>2026-04-05T14:30:29.999Z</time></trkpt><trkpt lat="35.18543679095318" lon="10.649536806645022"><ele>56.0</ele><time>2026-04-05T14:30:30.999Z</time></trkpt><trkpt lat="35.185143447160954" lon="10.649613037789328"><ele>56.0</ele><time>2026-04-05T14:30:31.999Z</time></trkpt><trkpt lat="35.1848532437169" lon="10.64969452150261"><ele>56.0</ele><time>2026-04-05T14:30:32.999Z</time></trkpt><trkpt lat="35.18456560784369" lon="10.649766688197241"><ele>56.5</ele><time>2026-04-05T14:30:33.999Z</time></trkpt><trkpt lat="35.18427743704671" lon="10.649842009085015"><ele>57.0</ele><time>2026-04-05T14:30:34.999Z</time></trkpt><trkpt lat="35.18400188444279" lon="10.649899883358176"><ele>58.0</ele><time>2026-04-05T14:30:35.999Z</time></trkpt><trkpt lat="35.18371470104403" lon="10.649983147845036"><ele>59.0</ele><time>2026-04-05T14:30:36.999Z</time></trkpt><trkpt lat="35.183431572721304" lon="10.650049050832845"><ele>59.5</ele><time>2026-04-05T14:30:37.999Z</time></trkpt><trkpt lat="35.183146029565904" lon="10.650119833155234"><ele>60.0</ele><time>2026-04-05T14:30:38.999Z</time></trkpt><trkpt lat="35.18285612496719" lon="10.650189807568095"><ele>60.0</ele><time>2026-04-05T14:30:39.999Z</time></trkpt><trkpt lat="35.18255572417473" lon="10.65025853172046"><ele>60.0</ele><time>2026-04-05T14:30:40.999Z</time></trkpt><trkpt lat="35.18226642015624" lon="10.650329361930275"><ele>60.0</ele><time>2026-04-05T14:30:41.999Z</time></trkpt><trkpt lat="35.181978755911054" lon="10.650401827924489"><ele>60.0</ele><time>2026-04-05T14:30:42.999Z</time></trkpt><trkpt lat="35.18168534993402" lon="10.650473482774538"><ele>61.0</ele><time>2026-04-05T14:30:43.999Z</time></trkpt><trkpt lat="35.181392639037114" lon="10.650541921588546"><ele>62.0</ele><time>2026-04-05T14:30:44.999Z</time></trkpt><trkpt lat="35.18109594025137" lon="10.650616866783194"><ele>62.0</ele><time>2026-04-05T14:30:45.999Z</time></trkpt><trkpt lat="35.18079534925794" lon="10.650677599161732"><ele>62.0</ele><time>2026-04-05T14:30:46.999Z</time></trkpt><trkpt lat="35.180493160497775" lon="10.650743478950702"><ele>61.5</ele><time>2026-04-05T14:30:47.999Z</time></trkpt><trkpt lat="35.180189842724964" lon="10.650810041213164"><ele>61.0</ele><time>2026-04-05T14:30:48.999Z</time></trkpt><trkpt lat="35.17988629536679" lon="10.650874722141348"><ele>61.5</ele><time>2026-04-05T14:30:49.999Z</time></trkpt><trkpt lat="35.179577514428814" lon="10.650939110307695"><ele>62.0</ele><time>2026-04-05T14:30:50.999Z</time></trkpt><trkpt lat="35.179274944937184" lon="10.65100551284544"><ele>62.5</ele><time>2026-04-05T14:30:52Z</time></trkpt><trkpt lat="35.178964516290705" lon="10.651064410386187"><ele>63.0</ele><time>2026-04-05T14:30:53Z</time></trkpt><trkpt lat="35.17865301654332" lon="10.651137066553716"><ele>63.5</ele><time>2026-04-05T14:30:54Z</time></trkpt><trkpt lat="35.17834645197872" lon="10.651195269342553"><ele>64.0</ele><time>2026-04-05T14:30:55Z</time></trkpt><trkpt lat="35.1780349963315" lon="10.651259617594508"><ele>64.0</ele><time>2026-04-05T14:30:56Z</time></trkpt><trkpt lat="35.1777224500572" lon="10.651323474687405"><ele>64.0</ele><time>2026-04-05T14:30:57Z</time></trkpt><trkpt lat="35.17740735475998" lon="10.651388080869731"><ele>64.0</ele><time>2026-04-05T14:30:58Z</time></trkpt><trkpt lat="35.17710572913759" lon="10.65143931378894"><ele>64.0</ele><time>2026-04-05T14:30:59Z</time></trkpt><trkpt lat="35.17680165346604" lon="10.651493230390068"><ele>63.0</ele><time>2026-04-05T14:31:00Z</time></trkpt><trkpt lat="35.17649115550801" lon="10.651558981747204"><ele>62.0</ele><time>2026-04-05T14:31:01Z</time></trkpt><trkpt lat="35.176170280344024" lon="10.651631772181238"><ele>62.0</ele><time>2026-04-05T14:31:02Z</time></trkpt><trkpt lat="35.17583169721615" lon="10.651705014564971"><ele>62.0</ele><time>2026-04-05T14:31:03Z</time></trkpt><trkpt lat="35.17547856983045" lon="10.651779817699207"><ele>62.5</ele><time>2026-04-05T14:31:04Z</time></trkpt><trkpt lat="35.17511161168768" lon="10.651856009208567"><ele>63.0</ele><time>2026-04-05T14:31:05Z</time></trkpt><trkpt lat="35.17474675515809" lon="10.651927587385563"><ele>64.5</ele><time>2026-04-05T14:31:06Z</time></trkpt><trkpt lat="35.1744005658954" lon="10.651997154297087"><ele>66.0</ele><time>2026-04-05T14:31:07Z</time></trkpt><trkpt lat="35.17405753640495" lon="10.652063797062004"><ele>66.0</ele><time>2026-04-05T14:31:08Z</time></trkpt><trkpt lat="35.17371259099325" lon="10.652134475288362"><ele>66.0</ele><time>2026-04-05T14:31:09Z</time></trkpt><trkpt lat="35.17338213828864" lon="10.652199272324808"><ele>67.0</ele><time>2026-04-05T14:31:10Z</time></trkpt><trkpt lat="35.17306677818354" lon="10.652265386855012"><ele>68.0</ele><time>2026-04-05T14:31:11Z</time></trkpt><trkpt lat="35.172752200365" lon="10.652331233289537"><ele>68.0</ele><time>2026-04-05T14:31:12Z</time></trkpt><trkpt lat="35.172434400690385" lon="10.652397829711374"><ele>68.0</ele><time>2026-04-05T14:31:13Z</time></trkpt><trkpt lat="35.17212440106425" lon="10.652461333849054"><ele>68.0</ele><time>2026-04-05T14:31:14Z</time></trkpt><trkpt lat="35.171809823685074" lon="10.65253069542434"><ele>68.0</ele><time>2026-04-05T14:31:15Z</time></trkpt><trkpt lat="35.171491665312566" lon="10.652602912460235"><ele>68.0</ele><time>2026-04-05T14:31:16Z</time></trkpt><trkpt lat="35.17117912240644" lon="10.652674654297261"><ele>68.0</ele><time>2026-04-05T14:31:17Z</time></trkpt><trkpt lat="35.17085858338625" lon="10.652756333539159"><ele>69.0</ele><time>2026-04-05T14:31:18Z</time></trkpt><trkpt lat="35.170530608986596" lon="10.652846721255903"><ele>70.0</ele><time>2026-04-05T14:31:19Z</time></trkpt><trkpt lat="35.1702086982643" lon="10.652932896382303"><ele>70.0</ele><time>2026-04-05T14:31:20Z</time></trkpt><trkpt lat="35.16989531744709" lon="10.65304171388742"><ele>70.0</ele><time>2026-04-05T14:31:21Z</time></trkpt><trkpt lat="35.16958846462165" lon="10.653152813157252"><ele>70.5</ele><time>2026-04-05T14:31:22Z</time></trkpt><trkpt lat="35.16928263562859" lon="10.65327113344773"><ele>71.0</ele><time>2026-04-05T14:31:23Z</time></trkpt><trkpt lat="35.16897550828174" lon="10.653398640426003"><ele>71.0</ele><time>2026-04-05T14:31:24Z</time></trkpt><trkpt lat="35.16867253640131" lon="10.653525154643868"><ele>71.0</ele><time>2026-04-05T14:31:25Z</time></trkpt><trkpt lat="35.16837006099153" lon="10.65365758003198"><ele>71.0</ele><time>2026-04-05T14:31:26Z</time></trkpt><trkpt lat="35.16807209343709" lon="10.653792404969773"><ele>71.0</ele><time>2026-04-05T14:31:27Z</time></trkpt><trkpt lat="35.16777348060592" lon="10.653938225611537"><ele>71.0</ele><time>2026-04-05T14:31:28Z</time></trkpt><trkpt lat="35.16748179580111" lon="10.654084429982872"><ele>71.0</ele><time>2026-04-05T14:31:29Z</time></trkpt><trkpt lat="35.1672096268088" lon="10.654228440287591"><ele>72.0</ele><time>2026-04-05T14:31:30Z</time></trkpt><trkpt lat="35.16695818448183" lon="10.654370088458698"><ele>73.0</ele><time>2026-04-05T14:31:31Z</time></trkpt><trkpt lat="35.166725532034185" lon="10.654506737191154"><ele>73.0</ele><time>2026-04-05T14:31:32Z</time></trkpt><trkpt lat="35.16650348033887" lon="10.654643559824919"><ele>73.0</ele><time>2026-04-05T14:31:33Z</time></trkpt><trkpt lat="35.166282774417276" lon="10.65478339371205"><ele>73.0</ele><time>2026-04-05T14:31:34Z</time></trkpt><trkpt lat="35.16605006606796" lon="10.654933744116464"><ele>73.0</ele><time>2026-04-05T14:31:35Z</time></trkpt><trkpt lat="35.1658156525551" lon="10.65508702992911"><ele>73.0</ele><time>2026-04-05T14:31:36Z</time></trkpt><trkpt lat="35.16557682140577" lon="10.655254928560876"><ele>73.0</ele><time>2026-04-05T14:31:37Z</time></trkpt><trkpt lat="35.16534003385792" lon="10.655426946642084"><ele>72.5</ele><time>2026-04-05T14:31:38Z</time></trkpt><trkpt lat="35.16509762979554" lon="10.655611447247576"><ele>72.0</ele><time>2026-04-05T14:31:39Z</time></trkpt><trkpt lat="35.16485876020233" lon="10.65579736817506"><ele>72.0</ele><time>2026-04-05T14:31:40Z</time></trkpt><trkpt lat="35.16461775263815" lon="10.65599256694888"><ele>72.0</ele><time>2026-04-05T14:31:41Z</time></trkpt><trkpt lat="35.16438183433077" lon="10.656189177145022"><ele>72.0</ele><time>2026-04-05T14:31:42Z</time></trkpt><trkpt lat="35.16414303410284" lon="10.656391934847745"><ele>72.0</ele><time>2026-04-05T14:31:43Z</time></trkpt><trkpt lat="35.16391049086134" lon="10.65659588291216"><ele>72.0</ele><time>2026-04-05T14:31:44Z</time></trkpt><trkpt lat="35.16367525418632" lon="10.6568059279226"><ele>72.0</ele><time>2026-04-05T14:31:45Z</time></trkpt><trkpt lat="35.16344237168757" lon="10.657018822426126"><ele>72.0</ele><time>2026-04-05T14:31:46Z</time></trkpt><trkpt lat="35.163201588281595" lon="10.65724155702862"><ele>72.0</ele><time>2026-04-05T14:31:47Z</time></trkpt><trkpt lat="35.16297492317945" lon="10.657446489856621"><ele>72.0</ele><time>2026-04-05T14:31:48Z</time></trkpt><trkpt lat="35.162731714571" lon="10.657679733019934"><ele>72.0</ele><time>2026-04-05T14:31:49Z</time></trkpt><trkpt lat="35.162491262761066" lon="10.657903931305558"><ele>72.5</ele><time>2026-04-05T14:31:50Z</time></trkpt><trkpt lat="35.16224403533232" lon="10.658137272925565"><ele>73.0</ele><time>2026-04-05T14:31:51Z</time></trkpt><trkpt lat="35.16198867693652" lon="10.658375979933119"><ele>73.0</ele><time>2026-04-05T14:31:52Z</time></trkpt><trkpt lat="35.16172657473502" lon="10.658618616432433"><ele>73.0</ele><time>2026-04-05T14:31:53Z</time></trkpt><trkpt lat="35.1614725722405" lon="10.658851618185741"><ele>74.0</ele><time>2026-04-05T14:31:54Z</time></trkpt><trkpt lat="35.16121610175039" lon="10.659093434979942"><ele>75.0</ele><time>2026-04-05T14:31:55Z</time></trkpt><trkpt lat="35.160963143173845" lon="10.659323507239304"><ele>73.5</ele><time>2026-04-05T14:31:56Z</time></trkpt><trkpt lat="35.16070086132279" lon="10.659575020307209"><ele>72.0</ele><time>2026-04-05T14:31:57Z</time></trkpt><trkpt lat="35.16044590250529" lon="10.659815038263332"><ele>72.0</ele><time>2026-04-05T14:31:58Z</time></trkpt><trkpt lat="35.16018633196686" lon="10.660060465501287"><ele>72.0</ele><time>2026-04-05T14:31:59Z</time></trkpt><trkpt lat="35.15992979951289" lon="10.660303258200226"><ele>72.5</ele><time>2026-04-05T14:32:00Z</time></trkpt><trkpt lat="35.15966980833172" lon="10.660551607927943"><ele>73.0</ele><time>2026-04-05T14:32:01Z</time></trkpt><trkpt lat="35.159411260776906" lon="10.660796322895827"><ele>73.0</ele><time>2026-04-05T14:32:02Z</time></trkpt><trkpt lat="35.1591525084653" lon="10.661038727897001"><ele>73.0</ele><time>2026-04-05T14:32:03Z</time></trkpt><trkpt lat="35.15889464497559" lon="10.661280178895005"><ele>73.0</ele><time>2026-04-05T14:32:04Z</time></trkpt><trkpt lat="35.158631971219116" lon="10.661527756767088"><ele>73.0</ele><time>2026-04-05T14:32:05Z</time></trkpt><trkpt lat="35.15837222987555" lon="10.661768918728193"><ele>72.5</ele><time>2026-04-05T14:32:06Z</time></trkpt><trkpt lat="35.15811117861258" lon="10.662008529033496"><ele>72.0</ele><time>2026-04-05T14:32:07Z</time></trkpt><trkpt lat="35.157861051738976" lon="10.6622373096125"><ele>72.0</ele><time>2026-04-05T14:32:08Z</time></trkpt><trkpt lat="35.15759759148991" lon="10.662491444853057"><ele>72.0</ele><time>2026-04-05T14:32:09Z</time></trkpt><trkpt lat="35.15733815325379" lon="10.66275145754979"><ele>71.5</ele><time>2026-04-05T14:32:10Z</time></trkpt><trkpt lat="35.15708084831224" lon="10.662983138353859"><ele>71.0</ele><time>2026-04-05T14:32:11Z</time></trkpt><trkpt lat="35.15682990754816" lon="10.66321661660081"><ele>71.0</ele><time>2026-04-05T14:32:12Z</time></trkpt><trkpt lat="35.15656484838944" lon="10.663466320095745"><ele>71.0</ele><time>2026-04-05T14:32:13Z</time></trkpt><trkpt lat="35.156271236988246" lon="10.663715905750154"><ele>70.0</ele><time>2026-04-05T14:32:14Z</time></trkpt><trkpt lat="35.15597870632799" lon="10.663971597680927"><ele>69.0</ele><time>2026-04-05T14:32:15Z</time></trkpt><trkpt lat="35.155783250406024" lon="10.664197189456482"><ele>70.0</ele><time>2026-04-05T14:32:16Z</time></trkpt><trkpt lat="35.155524539947606" lon="10.664437753138149"><ele>71.0</ele><time>2026-04-05T14:32:17Z</time></trkpt><trkpt lat="35.15526185727605" lon="10.664676463576015"><ele>71.0</ele><time>2026-04-05T14:32:18Z</time></trkpt><trkpt lat="35.15500298990777" lon="10.66492025893527"><ele>71.0</ele><time>2026-04-05T14:32:19Z</time></trkpt><trkpt lat="35.15475066800732" lon="10.665149072449562"><ele>70.5</ele><time>2026-04-05T14:32:20Z</time></trkpt><trkpt lat="35.15449050971976" lon="10.665401615104068"><ele>70.0</ele><time>2026-04-05T14:32:21Z</time></trkpt><trkpt lat="35.15422148007139" lon="10.665629246686798"><ele>70.5</ele><time>2026-04-05T14:32:22Z</time></trkpt><trkpt lat="35.15396741478433" lon="10.66588427775677"><ele>71.0</ele><time>2026-04-05T14:32:23Z</time></trkpt><trkpt lat="35.1537084793743" lon="10.66613096670462"><ele>71.0</ele><time>2026-04-05T14:32:24Z</time></trkpt><trkpt lat="35.153446701821565" lon="10.66637028311443"><ele>71.0</ele><time>2026-04-05T14:32:25Z</time></trkpt><trkpt lat="35.153192508816076" lon="10.666601517876234"><ele>70.5</ele><time>2026-04-05T14:32:26Z</time></trkpt><trkpt lat="35.15293025114834" lon="10.666843568705742"><ele>70.0</ele><time>2026-04-05T14:32:27Z</time></trkpt><trkpt lat="35.15265706289036" lon="10.66706097212151"><ele>70.0</ele><time>2026-04-05T14:32:28Z</time></trkpt><trkpt lat="35.15240544267363" lon="10.667328157397783"><ele>70.0</ele><time>2026-04-05T14:32:29Z</time></trkpt><trkpt lat="35.152151980529005" lon="10.667580510202331"><ele>70.5</ele><time>2026-04-05T14:32:30Z</time></trkpt><trkpt lat="35.15189755860248" lon="10.667830498414757"><ele>71.0</ele><time>2026-04-05T14:32:31Z</time></trkpt><trkpt lat="35.15163830432464" lon="10.66807291829572"><ele>71.5</ele><time>2026-04-05T14:32:32Z</time></trkpt><trkpt lat="35.15138071389792" lon="10.668323040048081"><ele>72.0</ele><time>2026-04-05T14:32:33Z</time></trkpt><trkpt lat="35.15112310772982" lon="10.66856727829289"><ele>72.0</ele><time>2026-04-05T14:32:34Z</time></trkpt><trkpt lat="35.150862266569035" lon="10.668809402493684"><ele>72.0</ele><time>2026-04-05T14:32:35Z</time></trkpt><trkpt lat="35.15057864039809" lon="10.669011251036803"><ele>72.5</ele><time>2026-04-05T14:32:36Z</time></trkpt><trkpt lat="35.15033394723889" lon="10.669274674188808"><ele>73.0</ele><time>2026-04-05T14:32:37Z</time></trkpt><trkpt lat="35.15009802201464" lon="10.669515349389755"><ele>72.0</ele><time>2026-04-05T14:32:38Z</time></trkpt><trkpt lat="35.149858930692346" lon="10.669749074730806"><ele>71.0</ele><time>2026-04-05T14:32:39Z</time></trkpt><trkpt lat="35.14962945502293" lon="10.669970195248924"><ele>71.0</ele><time>2026-04-05T14:32:40Z</time></trkpt><trkpt lat="35.14937833652419" lon="10.670211897783538"><ele>71.0</ele><time>2026-04-05T14:32:41Z</time></trkpt><trkpt lat="35.149134552479794" lon="10.67043120589696"><ele>70.5</ele><time>2026-04-05T14:32:42Z</time></trkpt><trkpt lat="35.1488768880956" lon="10.67067303296244"><ele>70.0</ele><time>2026-04-05T14:32:43Z</time></trkpt><trkpt lat="35.14862282482236" lon="10.670908967423506"><ele>70.0</ele><time>2026-04-05T14:32:44Z</time></trkpt><trkpt lat="35.14836519416161" lon="10.671149945890258"><ele>70.0</ele><time>2026-04-05T14:32:45Z</time></trkpt><trkpt lat="35.14810258670865" lon="10.671399934348214"><ele>71.5</ele><time>2026-04-05T14:32:46Z</time></trkpt><trkpt lat="35.1478442012378" lon="10.67164921602603"><ele>73.0</ele><time>2026-04-05T14:32:47Z</time></trkpt><trkpt lat="35.14758792338939" lon="10.671891265373402"><ele>73.5</ele><time>2026-04-05T14:32:48Z</time></trkpt><trkpt lat="35.14732307283105" lon="10.67214159659722"><ele>74.0</ele><time>2026-04-05T14:32:49Z</time></trkpt><trkpt lat="35.14703552668355" lon="10.67234455643833"><ele>74.0</ele><time>2026-04-05T14:32:50Z</time></trkpt><trkpt lat="35.14678697121218" lon="10.672613771709612"><ele>74.0</ele><time>2026-04-05T14:32:51Z</time></trkpt><trkpt lat="35.146528657906174" lon="10.672861478882599"><ele>74.0</ele><time>2026-04-05T14:32:52Z</time></trkpt><trkpt lat="35.14626540101486" lon="10.673113585417799"><ele>74.0</ele><time>2026-04-05T14:32:53Z</time></trkpt><trkpt lat="35.14599366817562" lon="10.673367738806942"><ele>74.0</ele><time>2026-04-05T14:32:54Z</time></trkpt><trkpt lat="35.14571888146148" lon="10.673624855899273"><ele>74.0</ele><time>2026-04-05T14:32:55Z</time></trkpt><trkpt lat="35.145455302579094" lon="10.673878521547973"><ele>74.0</ele><time>2026-04-05T14:32:56Z</time></trkpt><trkpt lat="35.14518813249033" lon="10.674133470415022"><ele>74.0</ele><time>2026-04-05T14:32:57Z</time></trkpt><trkpt lat="35.14493099064571" lon="10.674370565359853"><ele>75.0</ele><time>2026-04-05T14:32:58.001Z</time></trkpt><trkpt lat="35.14466505878954" lon="10.674624874065778"><ele>76.0</ele><time>2026-04-05T14:32:59.001Z</time></trkpt><trkpt lat="35.144401708581334" lon="10.674866546381232"><ele>76.0</ele><time>2026-04-05T14:33:00.001Z</time></trkpt><trkpt lat="35.144141214175214" lon="10.67511069676243"><ele>76.0</ele><time>2026-04-05T14:33:01.001Z</time></trkpt><trkpt lat="35.14387987583051" lon="10.675351195949938"><ele>76.5</ele><time>2026-04-05T14:33:02.001Z</time></trkpt><trkpt lat="35.143618464891745" lon="10.675590078401061"><ele>77.0</ele><time>2026-04-05T14:33:03.001Z</time></trkpt><trkpt lat="35.1433652398945" lon="10.675811077409325"><ele>78.0</ele><time>2026-04-05T14:33:04.001Z</time></trkpt><trkpt lat="35.14309747299124" lon="10.676058836837457"><ele>79.0</ele><time>2026-04-05T14:33:05.001Z</time></trkpt><trkpt lat="35.14283693850668" lon="10.676292210176632"><ele>79.0</ele><time>2026-04-05T14:33:06.001Z</time></trkpt><trkpt lat="35.14257780701282" lon="10.676524661667498"><ele>79.0</ele><time>2026-04-05T14:33:07.001Z</time></trkpt><trkpt lat="35.14231696776719" lon="10.676757927102043"><ele>79.5</ele><time>2026-04-05T14:33:08.001Z</time></trkpt><trkpt lat="35.14205871995397" lon="10.67698850635891"><ele>80.0</ele><time>2026-04-05T14:33:09.001Z</time></trkpt><trkpt lat="35.141802544495256" lon="10.677224899180471"><ele>81.5</ele><time>2026-04-05T14:33:10.001Z</time></trkpt><trkpt lat="35.141544034511" lon="10.677462917316772"><ele>83.0</ele><time>2026-04-05T14:33:11.001Z</time></trkpt><trkpt lat="35.141283070511676" lon="10.677700455067079"><ele>82.0</ele><time>2026-04-05T14:33:12.001Z</time></trkpt><trkpt lat="35.141030477193596" lon="10.677928476945963"><ele>81.0</ele><time>2026-04-05T14:33:13.001Z</time></trkpt><trkpt lat="35.14077697800118" lon="10.67815308857891"><ele>81.0</ele><time>2026-04-05T14:33:14.001Z</time></trkpt><trkpt lat="35.14052127933663" lon="10.678379684509965"><ele>81.0</ele><time>2026-04-05T14:33:15.001Z</time></trkpt><trkpt lat="35.14026825224048" lon="10.678604663000543"><ele>81.0</ele><time>2026-04-05T14:33:16.001Z</time></trkpt><trkpt lat="35.14001573545295" lon="10.678832393573286"><ele>81.0</ele><time>2026-04-05T14:33:17.001Z</time></trkpt><trkpt lat="35.13977806560513" lon="10.679039072146047"><ele>81.0</ele><time>2026-04-05T14:33:18.001Z</time></trkpt><trkpt lat="35.13952072562244" lon="10.67928049816522"><ele>81.0</ele><time>2026-04-05T14:33:19.001Z</time></trkpt><trkpt lat="35.13927087344653" lon="10.679506427210566"><ele>79.5</ele><time>2026-04-05T14:33:20.001Z</time></trkpt><trkpt lat="35.139014653167024" lon="10.67973555773319"><ele>78.0</ele><time>2026-04-05T14:33:21.001Z</time></trkpt><trkpt lat="35.13877120640096" lon="10.67995717114643"><ele>78.0</ele><time>2026-04-05T14:33:22.001Z</time></trkpt><trkpt lat="35.13851214553781" lon="10.680187853044776"><ele>78.0</ele><time>2026-04-05T14:33:23.001Z</time></trkpt><trkpt lat="35.13825702334088" lon="10.68041387285201"><ele>78.0</ele><time>2026-04-05T14:33:24.001Z</time></trkpt><trkpt lat="35.13800300032039" lon="10.680643304405553"><ele>78.0</ele><time>2026-04-05T14:33:25.001Z</time></trkpt><trkpt lat="35.137758811517735" lon="10.680861675515406"><ele>78.0</ele><time>2026-04-05T14:33:26Z</time></trkpt><trkpt lat="35.13750630848624" lon="10.681090412890969"><ele>78.0</ele><time>2026-04-05T14:33:27Z</time></trkpt><trkpt lat="35.137263299812055" lon="10.681303543129843"><ele>76.5</ele><time>2026-04-05T14:33:28Z</time></trkpt><trkpt lat="35.13701072955121" lon="10.681536293398002"><ele>75.0</ele><time>2026-04-05T14:33:29Z</time></trkpt><trkpt lat="35.1367606483791" lon="10.68176367240231"><ele>74.5</ele><time>2026-04-05T14:33:30Z</time></trkpt><trkpt lat="35.136515881648556" lon="10.68198505389344"><ele>74.0</ele><time>2026-04-05T14:33:31Z</time></trkpt><trkpt lat="35.136281059474065" lon="10.682189141443093"><ele>74.0</ele><time>2026-04-05T14:33:32Z</time></trkpt><trkpt lat="35.136024424330195" lon="10.68243115015294"><ele>74.0</ele><time>2026-04-05T14:33:33Z</time></trkpt><trkpt lat="35.13577682548952" lon="10.682658746442513"><ele>76.5</ele><time>2026-04-05T14:33:34Z</time></trkpt><trkpt lat="35.135529458692616" lon="10.682884959913759"><ele>79.0</ele><time>2026-04-05T14:33:35Z</time></trkpt><trkpt lat="35.13527669909024" lon="10.683114620099705"><ele>79.0</ele><time>2026-04-05T14:33:36Z</time></trkpt><trkpt lat="35.13503057955449" lon="10.683336223107942"><ele>79.0</ele><time>2026-04-05T14:33:37Z</time></trkpt><trkpt lat="35.13478211471024" lon="10.683559935943553"><ele>80.5</ele><time>2026-04-05T14:33:38Z</time></trkpt><trkpt lat="35.134535805883516" lon="10.683782185306566"><ele>82.0</ele><time>2026-04-05T14:33:39Z</time></trkpt><trkpt lat="35.134289828302485" lon="10.684003898244274"><ele>83.5</ele><time>2026-04-05T14:33:40Z</time></trkpt><trkpt lat="35.134039619151245" lon="10.684230154733303"><ele>85.0</ele><time>2026-04-05T14:33:41Z</time></trkpt><trkpt lat="35.13379037696415" lon="10.684454071507052"><ele>85.0</ele><time>2026-04-05T14:33:42Z</time></trkpt><trkpt lat="35.1335420738139" lon="10.684679061859502"><ele>85.0</ele><time>2026-04-05T14:33:43Z</time></trkpt><trkpt lat="35.13329210859935" lon="10.68490431065784"><ele>86.0</ele><time>2026-04-05T14:33:44Z</time></trkpt><trkpt lat="35.1330454816775" lon="10.685135203219692"><ele>87.0</ele><time>2026-04-05T14:33:45Z</time></trkpt><trkpt lat="35.13279896453396" lon="10.685363344458716"><ele>87.0</ele><time>2026-04-05T14:33:46Z</time></trkpt><trkpt lat="35.13254900547054" lon="10.68559059113185"><ele>87.0</ele><time>2026-04-05T14:33:47Z</time></trkpt><trkpt lat="35.132299035726675" lon="10.685815767618148"><ele>88.0</ele><time>2026-04-05T14:33:48Z</time></trkpt><trkpt lat="35.13205115461046" lon="10.68604099793295"><ele>89.0</ele><time>2026-04-05T14:33:49Z</time></trkpt><trkpt lat="35.13180112894201" lon="10.686266276290635"><ele>90.0</ele><time>2026-04-05T14:33:50Z</time></trkpt><trkpt lat="35.13155259962654" lon="10.68649175602149"><ele>91.0</ele><time>2026-04-05T14:33:51Z</time></trkpt><trkpt lat="35.13130289292049" lon="10.68671771492406"><ele>89.0</ele><time>2026-04-05T14:33:52Z</time></trkpt><trkpt lat="35.13105287151247" lon="10.68694312306254"><ele>87.0</ele><time>2026-04-05T14:33:53Z</time></trkpt><trkpt lat="35.130805348611176" lon="10.687165782563348"><ele>89.0</ele><time>2026-04-05T14:33:54Z</time></trkpt><trkpt lat="35.1305562270587" lon="10.687392631258062"><ele>91.0</ele><time>2026-04-05T14:33:55Z</time></trkpt><trkpt lat="35.13030911798632" lon="10.687617523737282"><ele>90.5</ele><time>2026-04-05T14:33:56Z</time></trkpt><trkpt lat="35.130057117762554" lon="10.687844337556005"><ele>90.0</ele><time>2026-04-05T14:33:57Z</time></trkpt><trkpt lat="35.12981092186077" lon="10.688056840725947"><ele>90.0</ele><time>2026-04-05T14:33:58Z</time></trkpt><trkpt lat="35.129550254238275" lon="10.688298953758538"><ele>90.0</ele><time>2026-04-05T14:33:59Z</time></trkpt><trkpt lat="35.12929311535132" lon="10.6885307894002"><ele>89.0</ele><time>2026-04-05T14:34:00Z</time></trkpt><trkpt lat="35.12903628770395" lon="10.6887620022976"><ele>88.0</ele><time>2026-04-05T14:34:01Z</time></trkpt><trkpt lat="35.128780012171305" lon="10.688979521345697"><ele>88.0</ele><time>2026-04-05T14:34:02Z</time></trkpt><trkpt lat="35.128517935675625" lon="10.68922203205992"><ele>88.0</ele><time>2026-04-05T14:34:03Z</time></trkpt><trkpt lat="35.12825417683016" lon="10.689472821567302"><ele>85.5</ele><time>2026-04-05T14:34:04Z</time></trkpt><trkpt lat="35.12798070807737" lon="10.689697375053454"><ele>83.0</ele><time>2026-04-05T14:34:05Z</time></trkpt><trkpt lat="35.1277156310811" lon="10.6899341104734"><ele>83.0</ele><time>2026-04-05T14:34:06Z</time></trkpt><trkpt lat="35.12745089575877" lon="10.690173691737836"><ele>83.0</ele><time>2026-04-05T14:34:07Z</time></trkpt><trkpt lat="35.12719381988005" lon="10.690407504847528"><ele>81.0</ele><time>2026-04-05T14:34:08Z</time></trkpt><trkpt lat="35.12693034139498" lon="10.690649301878748"><ele>79.0</ele><time>2026-04-05T14:34:09Z</time></trkpt><trkpt lat="35.12667109141218" lon="10.690880015459815"><ele>79.0</ele><time>2026-04-05T14:34:10Z</time></trkpt><trkpt lat="35.12641502976006" lon="10.691114644590236"><ele>79.0</ele><time>2026-04-05T14:34:11Z</time></trkpt><trkpt lat="35.126157118230594" lon="10.691322012854949"><ele>79.0</ele><time>2026-04-05T14:34:12Z</time></trkpt><trkpt lat="35.125899731561546" lon="10.691571750503796"><ele>79.0</ele><time>2026-04-05T14:34:13Z</time></trkpt><trkpt lat="35.12563504812108" lon="10.691819041209005"><ele>78.0</ele><time>2026-04-05T14:34:14Z</time></trkpt><trkpt lat="35.12538405040644" lon="10.692039379562491"><ele>77.0</ele><time>2026-04-05T14:34:15Z</time></trkpt><trkpt lat="35.125129883605744" lon="10.692269179022126"><ele>77.5</ele><time>2026-04-05T14:34:16Z</time></trkpt><trkpt lat="35.12488001617527" lon="10.692513072776347"><ele>78.0</ele><time>2026-04-05T14:34:17Z</time></trkpt><trkpt lat="35.124626069611864" lon="10.692746679315842"><ele>78.5</ele><time>2026-04-05T14:34:18Z</time></trkpt><trkpt lat="35.124368725232934" lon="10.69298028735953"><ele>79.0</ele><time>2026-04-05T14:34:19Z</time></trkpt><trkpt lat="35.124109181883604" lon="10.693214690830994"><ele>79.5</ele><time>2026-04-05T14:34:20Z</time></trkpt><trkpt lat="35.12385397709374" lon="10.693444770952222"><ele>80.0</ele><time>2026-04-05T14:34:21Z</time></trkpt><trkpt lat="35.12358632696944" lon="10.693688016855887"><ele>80.0</ele><time>2026-04-05T14:34:22Z</time></trkpt><trkpt lat="35.12333368818035" lon="10.693918566661903"><ele>80.0</ele><time>2026-04-05T14:34:23Z</time></trkpt><trkpt lat="35.12307489857596" lon="10.694150884256633"><ele>81.0</ele><time>2026-04-05T14:34:24Z</time></trkpt><trkpt lat="35.12281604827225" lon="10.694383283820514"><ele>82.0</ele><time>2026-04-05T14:34:25Z</time></trkpt><trkpt lat="35.12255784042959" lon="10.694617134572892"><ele>83.0</ele><time>2026-04-05T14:34:26Z</time></trkpt><trkpt lat="35.12229760154305" lon="10.694851036072732"><ele>84.0</ele><time>2026-04-05T14:34:27Z</time></trkpt><trkpt lat="35.122036100874155" lon="10.695084982867908"><ele>83.0</ele><time>2026-04-05T14:34:28Z</time></trkpt><trkpt lat="35.121778735508194" lon="10.695318747834028"><ele>82.0</ele><time>2026-04-05T14:34:29Z</time></trkpt><trkpt lat="35.121520099027215" lon="10.695556417643346"><ele>82.0</ele><time>2026-04-05T14:34:30Z</time></trkpt><trkpt lat="35.12126133487127" lon="10.695790883995965"><ele>82.0</ele><time>2026-04-05T14:34:31Z</time></trkpt><trkpt lat="35.12099910709171" lon="10.696007068541128"><ele>81.0</ele><time>2026-04-05T14:34:32Z</time></trkpt><trkpt lat="35.12074141638121" lon="10.696253531001245"><ele>80.0</ele><time>2026-04-05T14:34:33Z</time></trkpt><trkpt lat="35.12048143935782" lon="10.696485269010628"><ele>79.0</ele><time>2026-04-05T14:34:34Z</time></trkpt><trkpt lat="35.12022112273889" lon="10.696718177722328"><ele>78.0</ele><time>2026-04-05T14:34:35Z</time></trkpt><trkpt lat="35.119980013848235" lon="10.696929422159634"><ele>76.5</ele><time>2026-04-05T14:34:36Z</time></trkpt><trkpt lat="35.1196853116414" lon="10.697168763624203"><ele>75.0</ele><time>2026-04-05T14:34:37Z</time></trkpt><trkpt lat="35.11942981931031" lon="10.697410300128542"><ele>75.0</ele><time>2026-04-05T14:34:38Z</time></trkpt><trkpt lat="35.11917390397453" lon="10.69764826179076"><ele>75.0</ele><time>2026-04-05T14:34:39Z</time></trkpt><trkpt lat="35.118912554117706" lon="10.697882834472988"><ele>73.0</ele><time>2026-04-05T14:34:40Z</time></trkpt><trkpt lat="35.11865939742232" lon="10.698115443277064"><ele>71.0</ele><time>2026-04-05T14:34:41Z</time></trkpt><trkpt lat="35.11842667930878" lon="10.698408422706382"><ele>71.5</ele><time>2026-04-05T14:34:42Z</time></trkpt><trkpt lat="35.11815967906603" lon="10.698605857420832"><ele>72.0</ele><time>2026-04-05T14:34:43Z</time></trkpt><trkpt lat="35.1178961105232" lon="10.698830297837452"><ele>72.0</ele><time>2026-04-05T14:34:44Z</time></trkpt><trkpt lat="35.11763020105472" lon="10.699062626388143"><ele>72.0</ele><time>2026-04-05T14:34:45Z</time></trkpt><trkpt lat="35.11737391902276" lon="10.699306709346802"><ele>71.0</ele><time>2026-04-05T14:34:46Z</time></trkpt><trkpt lat="35.1171096666511" lon="10.69953481289966"><ele>70.0</ele><time>2026-04-05T14:34:47Z</time></trkpt><trkpt lat="35.11684379572195" lon="10.699748498576078"><ele>70.0</ele><time>2026-04-05T14:34:48Z</time></trkpt><trkpt lat="35.11659106501335" lon="10.699984398038396"><ele>70.0</ele><time>2026-04-05T14:34:49Z</time></trkpt><trkpt lat="35.11634097797872" lon="10.700208011288368"><ele>69.0</ele><time>2026-04-05T14:34:50Z</time></trkpt><trkpt lat="35.11607793537346" lon="10.700442615365702"><ele>68.0</ele><time>2026-04-05T14:34:51Z</time></trkpt><trkpt lat="35.115838812807" lon="10.700644266933873"><ele>68.5</ele><time>2026-04-05T14:34:52Z</time></trkpt><trkpt lat="35.11556968723868" lon="10.700898051123012"><ele>69.0</ele><time>2026-04-05T14:34:53Z</time></trkpt><trkpt lat="35.11532404195026" lon="10.7011163051589"><ele>69.0</ele><time>2026-04-05T14:34:54Z</time></trkpt><trkpt lat="35.11505679446954" lon="10.701355401559427"><ele>69.0</ele><time>2026-04-05T14:34:55Z</time></trkpt><trkpt lat="35.114822971359644" lon="10.701581515275613"><ele>69.0</ele><time>2026-04-05T14:34:56Z</time></trkpt><trkpt lat="35.11455956052407" lon="10.701835796355084"><ele>69.0</ele><time>2026-04-05T14:34:57Z</time></trkpt><trkpt lat="35.11431499157578" lon="10.702063894349893"><ele>69.0</ele><time>2026-04-05T14:34:58Z</time></trkpt><trkpt lat="35.11405200347969" lon="10.702307385302682"><ele>69.0</ele><time>2026-04-05T14:34:59Z</time></trkpt><trkpt lat="35.113792498232435" lon="10.702543068506674"><ele>69.5</ele><time>2026-04-05T14:35:00Z</time></trkpt><trkpt lat="35.113533426213586" lon="10.702777771473299"><ele>70.0</ele><time>2026-04-05T14:35:01Z</time></trkpt><trkpt lat="35.11327407723797" lon="10.703004402833976"><ele>68.5</ele><time>2026-04-05T14:35:02Z</time></trkpt><trkpt lat="35.1130128727109" lon="10.703238109951506"><ele>67.0</ele><time>2026-04-05T14:35:03.001Z</time></trkpt><trkpt lat="35.11274373364609" lon="10.703468052974642"><ele>67.0</ele><time>2026-04-05T14:35:04.001Z</time></trkpt><trkpt lat="35.11247901541813" lon="10.703695615798537"><ele>67.0</ele><time>2026-04-05T14:35:05.001Z</time></trkpt><trkpt lat="35.112216858514444" lon="10.703903015191225"><ele>68.0</ele><time>2026-04-05T14:35:06.001Z</time></trkpt><trkpt lat="35.11194172114773" lon="10.70413321383604"><ele>69.0</ele><time>2026-04-05T14:35:07.001Z</time></trkpt><trkpt lat="35.11167756568153" lon="10.704340674082566"><ele>68.0</ele><time>2026-04-05T14:35:08.001Z</time></trkpt><trkpt lat="35.111402432040094" lon="10.70456467483413"><ele>67.0</ele><time>2026-04-05T14:35:09.001Z</time></trkpt><trkpt lat="35.111133213532405" lon="10.704757139752155"><ele>67.0</ele><time>2026-04-05T14:35:10.001Z</time></trkpt><trkpt lat="35.1108503076462" lon="10.70497716447299"><ele>67.0</ele><time>2026-04-05T14:35:11.001Z</time></trkpt><trkpt lat="35.11057186278206" lon="10.705183188169233"><ele>66.0</ele><time>2026-04-05T14:35:12.001Z</time></trkpt><trkpt lat="35.11029462060929" lon="10.705393891418606"><ele>65.0</ele><time>2026-04-05T14:35:13.001Z</time></trkpt><trkpt lat="35.11002412227411" lon="10.705579746709933"><ele>66.5</ele><time>2026-04-05T14:35:14.001Z</time></trkpt><trkpt lat="35.1097425825526" lon="10.705794221751669"><ele>68.0</ele><time>2026-04-05T14:35:15.001Z</time></trkpt><trkpt lat="35.10946296654527" lon="10.705986905493642"><ele>68.5</ele><time>2026-04-05T14:35:16.001Z</time></trkpt><trkpt lat="35.10918620011573" lon="10.706186715920335"><ele>69.0</ele><time>2026-04-05T14:35:17.001Z</time></trkpt><trkpt lat="35.108905185547066" lon="10.706385256379685"><ele>70.0</ele><time>2026-04-05T14:35:18.001Z</time></trkpt><trkpt lat="35.10862320581231" lon="10.706585139319527"><ele>71.0</ele><time>2026-04-05T14:35:19.001Z</time></trkpt><trkpt lat="35.10834142294972" lon="10.70678092009297"><ele>72.0</ele><time>2026-04-05T14:35:20.001Z</time></trkpt><trkpt lat="35.108055102646006" lon="10.706968027055622"><ele>73.0</ele><time>2026-04-05T14:35:21.001Z</time></trkpt><trkpt lat="35.10776411262892" lon="10.70715284410361"><ele>73.0</ele><time>2026-04-05T14:35:22.001Z</time></trkpt><trkpt lat="35.107470777752916" lon="10.707334937222964"><ele>73.0</ele><time>2026-04-05T14:35:23.001Z</time></trkpt><trkpt lat="35.107175599854294" lon="10.707518871627963"><ele>74.5</ele><time>2026-04-05T14:35:24.001Z</time></trkpt><trkpt lat="35.10687788933775" lon="10.707695713506606"><ele>76.0</ele><time>2026-04-05T14:35:25.001Z</time></trkpt><trkpt lat="35.10657113971361" lon="10.707875031568024"><ele>77.0</ele><time>2026-04-05T14:35:26.001Z</time></trkpt><trkpt lat="35.106263661158366" lon="10.708057611595411"><ele>78.0</ele><time>2026-04-05T14:35:27.001Z</time></trkpt><trkpt lat="35.10595335696717" lon="10.70823690337758"><ele>78.5</ele><time>2026-04-05T14:35:28.001Z</time></trkpt><trkpt lat="35.10564701789819" lon="10.708408441396825"><ele>79.0</ele><time>2026-04-05T14:35:29.001Z</time></trkpt><trkpt lat="35.1053426962899" lon="10.70857743676675"><ele>79.0</ele><time>2026-04-05T14:35:30.001Z</time></trkpt><trkpt lat="35.10503850005381" lon="10.708742266851006"><ele>79.0</ele><time>2026-04-05T14:35:31.001Z</time></trkpt><trkpt lat="35.10473792808538" lon="10.7089015660626"><ele>79.0</ele><time>2026-04-05T14:35:32.001Z</time></trkpt><trkpt lat="35.10443807548731" lon="10.709057309541572"><ele>79.0</ele><time>2026-04-05T14:35:33.001Z</time></trkpt><trkpt lat="35.104136083749836" lon="10.709208923385566"><ele>79.0</ele><time>2026-04-05T14:35:34.001Z</time></trkpt><trkpt lat="35.103836351623926" lon="10.709360575386102"><ele>79.0</ele><time>2026-04-05T14:35:35.001Z</time></trkpt><trkpt lat="35.10353629341985" lon="10.709505413803678"><ele>79.0</ele><time>2026-04-05T14:35:36.001Z</time></trkpt><trkpt lat="35.103236442022705" lon="10.709651694618483"><ele>79.0</ele><time>2026-04-05T14:35:37.001Z</time></trkpt><trkpt lat="35.102933964453136" lon="10.709799164163032"><ele>79.0</ele><time>2026-04-05T14:35:38.001Z</time></trkpt><trkpt lat="35.10263813307393" lon="10.709921941336763"><ele>79.0</ele><time>2026-04-05T14:35:39.001Z</time></trkpt><trkpt lat="35.102341718508775" lon="10.710027650563815"><ele>78.5</ele><time>2026-04-05T14:35:40.001Z</time></trkpt><trkpt lat="35.10203606327666" lon="10.710187423064621"><ele>78.0</ele><time>2026-04-05T14:35:41.001Z</time></trkpt><trkpt lat="35.10173660735437" lon="10.710320867314769"><ele>79.0</ele><time>2026-04-05T14:35:42.001Z</time></trkpt><trkpt lat="35.1014344573885" lon="10.710446260997523"><ele>80.0</ele><time>2026-04-05T14:35:43.001Z</time></trkpt><trkpt lat="35.101133482440844" lon="10.710547611501834"><ele>80.0</ele><time>2026-04-05T14:35:44.001Z</time></trkpt><trkpt lat="35.10082727781821" lon="10.710681623082566"><ele>80.0</ele><time>2026-04-05T14:35:45.001Z</time></trkpt><trkpt lat="35.10049221843097" lon="10.710802610370848"><ele>80.5</ele><time>2026-04-05T14:35:46.001Z</time></trkpt><trkpt lat="35.10020488051646" lon="10.710924621478155"><ele>81.0</ele><time>2026-04-05T14:35:47.001Z</time></trkpt><trkpt lat="35.09992068686546" lon="10.71103809967232"><ele>80.5</ele><time>2026-04-05T14:35:48.001Z</time></trkpt><trkpt lat="35.09960649562168" lon="10.711181079190863"><ele>80.0</ele><time>2026-04-05T14:35:49.001Z</time></trkpt><trkpt lat="35.099275919618115" lon="10.71133346542844"><ele>80.5</ele><time>2026-04-05T14:35:50.001Z</time></trkpt><trkpt lat="35.099013633304374" lon="10.71145268278222"><ele>81.0</ele><time>2026-04-05T14:35:51.001Z</time></trkpt><trkpt lat="35.09870354998016" lon="10.71156371602224"><ele>81.0</ele><time>2026-04-05T14:35:52.001Z</time></trkpt><trkpt lat="35.09841332664195" lon="10.711700211072866"><ele>81.0</ele><time>2026-04-05T14:35:53.001Z</time></trkpt><trkpt lat="35.098123102094966" lon="10.711822705838058"><ele>80.5</ele><time>2026-04-05T14:35:54.001Z</time></trkpt><trkpt lat="35.09783630960091" lon="10.711947226496202"><ele>80.0</ele><time>2026-04-05T14:35:55.001Z</time></trkpt><trkpt lat="35.09754855166428" lon="10.712062733761003"><ele>81.5</ele><time>2026-04-05T14:35:56Z</time></trkpt><trkpt lat="35.097259507651536" lon="10.712169921723948"><ele>83.0</ele><time>2026-04-05T14:35:57Z</time></trkpt><trkpt lat="35.0969674082552" lon="10.712267461171354"><ele>83.0</ele><time>2026-04-05T14:35:58Z</time></trkpt><trkpt lat="35.09667179388613" lon="10.712369381671289"><ele>83.0</ele><time>2026-04-05T14:35:59Z</time></trkpt><trkpt lat="35.09637709077784" lon="10.712462231224105"><ele>82.0</ele><time>2026-04-05T14:36:00Z</time></trkpt><trkpt lat="35.09607993229247" lon="10.712554977699899"><ele>81.0</ele><time>2026-04-05T14:36:01Z</time></trkpt><trkpt lat="35.09577459954488" lon="10.71263437605581"><ele>82.5</ele><time>2026-04-05T14:36:02Z</time></trkpt><trkpt lat="35.095480480446355" lon="10.7127190520442"><ele>84.0</ele><time>2026-04-05T14:36:03Z</time></trkpt><trkpt lat="35.095190672952334" lon="10.712798814340816"><ele>85.0</ele><time>2026-04-05T14:36:04Z</time></trkpt><trkpt lat="35.09489289636618" lon="10.712875218357517"><ele>86.0</ele><time>2026-04-05T14:36:05Z</time></trkpt><trkpt lat="35.094584327314195" lon="10.712946940784917"><ele>86.0</ele><time>2026-04-05T14:36:06Z</time></trkpt><trkpt lat="35.09426961635701" lon="10.713018683584577"><ele>86.0</ele><time>2026-04-05T14:36:07Z</time></trkpt><trkpt lat="35.09394945709643" lon="10.713087892581976"><ele>87.5</ele><time>2026-04-05T14:36:08Z</time></trkpt><trkpt lat="35.09363074693761" lon="10.71315425276263"><ele>89.0</ele><time>2026-04-05T14:36:09Z</time></trkpt><trkpt lat="35.09330535914176" lon="10.713235459716946"><ele>89.5</ele><time>2026-04-05T14:36:10Z</time></trkpt><trkpt lat="35.093003813698225" lon="10.713281450109042"><ele>90.0</ele><time>2026-04-05T14:36:11Z</time></trkpt><trkpt lat="35.092669175671844" lon="10.71336796924323"><ele>89.5</ele><time>2026-04-05T14:36:12Z</time></trkpt><trkpt lat="35.09238061040035" lon="10.71338799495973"><ele>89.0</ele><time>2026-04-05T14:36:13Z</time></trkpt><trkpt lat="35.092101224150845" lon="10.713416025532691"><ele>89.0</ele><time>2026-04-05T14:36:14Z</time></trkpt><trkpt lat="35.09179524115698" lon="10.713455842775154"><ele>89.0</ele><time>2026-04-05T14:36:15Z</time></trkpt><trkpt lat="35.091484325608135" lon="10.713495447138683"><ele>88.5</ele><time>2026-04-05T14:36:16Z</time></trkpt><trkpt lat="35.09117961542011" lon="10.71352943335285"><ele>88.0</ele><time>2026-04-05T14:36:17Z</time></trkpt><trkpt lat="35.09087666034374" lon="10.71356114766652"><ele>89.0</ele><time>2026-04-05T14:36:18Z</time></trkpt><trkpt lat="35.09057939703113" lon="10.713586300581909"><ele>90.0</ele><time>2026-04-05T14:36:19Z</time></trkpt><trkpt lat="35.09028390924259" lon="10.71360821867622"><ele>90.0</ele><time>2026-04-05T14:36:20Z</time></trkpt><trkpt lat="35.089997047287135" lon="10.71362295219053"><ele>90.0</ele><time>2026-04-05T14:36:21Z</time></trkpt><trkpt lat="35.08969623394832" lon="10.71363855701695"><ele>89.0</ele><time>2026-04-05T14:36:22Z</time></trkpt><trkpt lat="35.08942977449907" lon="10.71364845504444"><ele>88.0</ele><time>2026-04-05T14:36:23Z</time></trkpt><trkpt lat="35.08914613853078" lon="10.713654228621628"><ele>89.5</ele><time>2026-04-05T14:36:24Z</time></trkpt><trkpt lat="35.08887302525886" lon="10.713669651625636"><ele>91.0</ele><time>2026-04-05T14:36:25Z</time></trkpt><trkpt lat="35.08859791631392" lon="10.71367611951814"><ele>91.0</ele><time>2026-04-05T14:36:26Z</time></trkpt><trkpt lat="35.088323810985905" lon="10.713677071907167"><ele>91.0</ele><time>2026-04-05T14:36:27Z</time></trkpt><trkpt lat="35.088048117385284" lon="10.713677896536833"><ele>92.0</ele><time>2026-04-05T14:36:28Z</time></trkpt><trkpt lat="35.08777220173534" lon="10.7136712031824"><ele>93.0</ele><time>2026-04-05T14:36:29Z</time></trkpt><trkpt lat="35.08749431102183" lon="10.713663755562218"><ele>93.5</ele><time>2026-04-05T14:36:30Z</time></trkpt><trkpt lat="35.08721799571413" lon="10.713652056035558"><ele>94.0</ele><time>2026-04-05T14:36:31Z</time></trkpt><trkpt lat="35.08693986718717" lon="10.71364397776189"><ele>94.0</ele><time>2026-04-05T14:36:32Z</time></trkpt><trkpt lat="35.086663160568165" lon="10.713638358187776"><ele>94.0</ele><time>2026-04-05T14:36:33Z</time></trkpt><trkpt lat="35.08637411361648" lon="10.713638727035052"><ele>93.5</ele><time>2026-04-05T14:36:34Z</time></trkpt><trkpt lat="35.08610723070169" lon="10.713632200277678"><ele>93.0</ele><time>2026-04-05T14:36:35Z</time></trkpt><trkpt lat="35.08582450746804" lon="10.713631577065012"><ele>94.0</ele><time>2026-04-05T14:36:36Z</time></trkpt><trkpt lat="35.085544061562814" lon="10.713629036284287"><ele>95.0</ele><time>2026-04-05T14:36:37Z</time></trkpt><trkpt lat="35.08526375289148" lon="10.713628514108596"><ele>95.0</ele><time>2026-04-05T14:36:38Z</time></trkpt><trkpt lat="35.08498404424329" lon="10.713630617320185"><ele>95.0</ele><time>2026-04-05T14:36:39Z</time></trkpt><trkpt lat="35.08470549804804" lon="10.713627624169574"><ele>96.0</ele><time>2026-04-05T14:36:40Z</time></trkpt><trkpt lat="35.0844277447185" lon="10.713621053047873"><ele>97.0</ele><time>2026-04-05T14:36:41Z</time></trkpt><trkpt lat="35.084161704705934" lon="10.713607131263228"><ele>97.0</ele><time>2026-04-05T14:36:42Z</time></trkpt><trkpt lat="35.08387562537943" lon="10.713606395750116"><ele>97.0</ele><time>2026-04-05T14:36:43Z</time></trkpt><trkpt lat="35.083567270841094" lon="10.713611469711985"><ele>97.0</ele><time>2026-04-05T14:36:44Z</time></trkpt><trkpt lat="35.08326963300621" lon="10.713611695605463"><ele>97.0</ele><time>2026-04-05T14:36:45Z</time></trkpt><trkpt lat="35.08298456953591" lon="10.713599840216386"><ele>98.0</ele><time>2026-04-05T14:36:46Z</time></trkpt><trkpt lat="35.08272677118775" lon="10.713622181171473"><ele>99.0</ele><time>2026-04-05T14:36:47Z</time></trkpt><trkpt lat="35.082441166501674" lon="10.713610073715452"><ele>98.5</ele><time>2026-04-05T14:36:48Z</time></trkpt><trkpt lat="35.08217026484481" lon="10.713623232585027"><ele>98.0</ele><time>2026-04-05T14:36:49Z</time></trkpt><trkpt lat="35.081894182151615" lon="10.71361834027494"><ele>98.0</ele><time>2026-04-05T14:36:50Z</time></trkpt><trkpt lat="35.08162173576501" lon="10.713625117896555"><ele>98.0</ele><time>2026-04-05T14:36:51Z</time></trkpt><trkpt lat="35.08134637412385" lon="10.713621227167149"><ele>97.5</ele><time>2026-04-05T14:36:52Z</time></trkpt><trkpt lat="35.08107416637412" lon="10.713618043595433"><ele>97.0</ele><time>2026-04-05T14:36:53Z</time></trkpt><trkpt lat="35.08079201725417" lon="10.713612803567292"><ele>97.5</ele><time>2026-04-05T14:36:54Z</time></trkpt><trkpt lat="35.0805145855227" lon="10.713601465296481"><ele>98.0</ele><time>2026-04-05T14:36:55Z</time></trkpt><trkpt lat="35.08022349311519" lon="10.713585572090835"><ele>98.5</ele><time>2026-04-05T14:36:56Z</time></trkpt><trkpt lat="35.079922970563565" lon="10.71357550596556"><ele>99.0</ele><time>2026-04-05T14:36:57Z</time></trkpt><trkpt lat="35.0796033641813" lon="10.71357098030564"><ele>99.0</ele><time>2026-04-05T14:36:58Z</time></trkpt><trkpt lat="35.07930749409666" lon="10.713561953653484"><ele>99.0</ele><time>2026-04-05T14:36:59Z</time></trkpt><trkpt lat="35.079016338715256" lon="10.713541755221073"><ele>98.5</ele><time>2026-04-05T14:37:00Z</time></trkpt><trkpt lat="35.07870715591386" lon="10.713546473160212"><ele>98.0</ele><time>2026-04-05T14:37:01Z</time></trkpt><trkpt lat="35.07838764564527" lon="10.713540761359733"><ele>97.0</ele><time>2026-04-05T14:37:02Z</time></trkpt><trkpt lat="35.0780798028563" lon="10.713538813862808"><ele>96.0</ele><time>2026-04-05T14:37:03Z</time></trkpt><trkpt lat="35.077731511339266" lon="10.713576952379071"><ele>96.0</ele><time>2026-04-05T14:37:04Z</time></trkpt><trkpt lat="35.07745016110865" lon="10.713545266563951"><ele>96.0</ele><time>2026-04-05T14:37:05Z</time></trkpt><trkpt lat="35.07712065747255" lon="10.713518842292107"><ele>96.0</ele><time>2026-04-05T14:37:06Z</time></trkpt><trkpt lat="35.076832849325015" lon="10.713525383155309"><ele>96.0</ele><time>2026-04-05T14:37:07Z</time></trkpt><trkpt lat="35.076549999217946" lon="10.713487673684103"><ele>95.0</ele><time>2026-04-05T14:37:08Z</time></trkpt><trkpt lat="35.07620366619357" lon="10.713512141363713"><ele>94.0</ele><time>2026-04-05T14:37:09.001Z</time></trkpt><trkpt lat="35.07587173837054" lon="10.713508507386292"><ele>93.5</ele><time>2026-04-05T14:37:10.001Z</time></trkpt><trkpt lat="35.07553328649954" lon="10.713515462377353"><ele>93.0</ele><time>2026-04-05T14:37:11.001Z</time></trkpt><trkpt lat="35.075199703990066" lon="10.713524255312908"><ele>93.0</ele><time>2026-04-05T14:37:12.001Z</time></trkpt><trkpt lat="35.074866148678666" lon="10.71350217763945"><ele>93.0</ele><time>2026-04-05T14:37:13.001Z</time></trkpt><trkpt lat="35.07453151973721" lon="10.713488769820316"><ele>93.0</ele><time>2026-04-05T14:37:14.001Z</time></trkpt><trkpt lat="35.074199645018645" lon="10.713492082444564"><ele>93.0</ele><time>2026-04-05T14:37:15.001Z</time></trkpt><trkpt lat="35.07386829708317" lon="10.713488442538289"><ele>93.0</ele><time>2026-04-05T14:37:16.001Z</time></trkpt><trkpt lat="35.073534936840794" lon="10.713484808105934"><ele>93.0</ele><time>2026-04-05T14:37:17.001Z</time></trkpt><trkpt lat="35.07319949110455" lon="10.713479968937598"><ele>94.0</ele><time>2026-04-05T14:37:18.001Z</time></trkpt><trkpt lat="35.07286649473171" lon="10.713480742845347"><ele>95.0</ele><time>2026-04-05T14:37:19.001Z</time></trkpt><trkpt lat="35.07252132958055" lon="10.713475750265523"><ele>96.5</ele><time>2026-04-05T14:37:20.001Z</time></trkpt><trkpt lat="35.072200035995415" lon="10.713478465976552"><ele>98.0</ele><time>2026-04-05T14:37:21.001Z</time></trkpt><trkpt lat="35.071874819235404" lon="10.713460875997"><ele>98.5</ele><time>2026-04-05T14:37:22.001Z</time></trkpt><trkpt lat="35.07154127308054" lon="10.71346907836181"><ele>99.0</ele><time>2026-04-05T14:37:23.001Z</time></trkpt><trkpt lat="35.07119971290356" lon="10.713462811580216"><ele>99.0</ele><time>2026-04-05T14:37:24.001Z</time></trkpt><trkpt lat="35.07088339003607" lon="10.71345449992827"><ele>99.0</ele><time>2026-04-05T14:37:25.001Z</time></trkpt><trkpt lat="35.07055809640637" lon="10.713446840002776"><ele>99.5</ele><time>2026-04-05T14:37:26.001Z</time></trkpt><trkpt lat="35.07022951661162" lon="10.71344592233531"><ele>100.0</ele><time>2026-04-05T14:37:27.001Z</time></trkpt><trkpt lat="35.069903126958685" lon="10.713442251515772"><ele>100.0</ele><time>2026-04-05T14:37:28.001Z</time></trkpt><trkpt lat="35.069577128684735" lon="10.713440632325046"><ele>100.0</ele><time>2026-04-05T14:37:29.001Z</time></trkpt><trkpt lat="35.06923420398991" lon="10.713428530978394"><ele>99.0</ele><time>2026-04-05T14:37:30.001Z</time></trkpt><trkpt lat="35.06890276735919" lon="10.713414061474024"><ele>98.0</ele><time>2026-04-05T14:37:31.001Z</time></trkpt><trkpt lat="35.06859263151741" lon="10.713407869862685"><ele>98.5</ele><time>2026-04-05T14:37:32.001Z</time></trkpt><trkpt lat="35.068274734687215" lon="10.71341825847277"><ele>99.0</ele><time>2026-04-05T14:37:33.001Z</time></trkpt><trkpt lat="35.067946242264725" lon="10.713420296754807"><ele>99.0</ele><time>2026-04-05T14:37:34.001Z</time></trkpt><trkpt lat="35.06762579879558" lon="10.713431199056382"><ele>99.0</ele><time>2026-04-05T14:37:35.001Z</time></trkpt><trkpt lat="35.06730185215503" lon="10.713445912952839"><ele>98.5</ele><time>2026-04-05T14:37:36.001Z</time></trkpt><trkpt lat="35.06697749667635" lon="10.713463045546037"><ele>98.0</ele><time>2026-04-05T14:37:37.001Z</time></trkpt><trkpt lat="35.066654201476595" lon="10.71348360305076"><ele>99.0</ele><time>2026-04-05T14:37:38.001Z</time></trkpt><trkpt lat="35.06633024134811" lon="10.71350773870493"><ele>100.0</ele><time>2026-04-05T14:37:39.001Z</time></trkpt><trkpt lat="35.06598822038367" lon="10.713536347756966"><ele>101.5</ele><time>2026-04-05T14:37:40.001Z</time></trkpt><trkpt lat="35.06564543750493" lon="10.713555073914105"><ele>103.0</ele><time>2026-04-05T14:37:41.001Z</time></trkpt><trkpt lat="35.06532831176344" lon="10.713570283643547"><ele>102.5</ele><time>2026-04-05T14:37:42.001Z</time></trkpt><trkpt lat="35.06502408040417" lon="10.713607261758769"><ele>102.0</ele><time>2026-04-05T14:37:43.001Z</time></trkpt><trkpt lat="35.06474172988868" lon="10.71365069946942"><ele>103.5</ele><time>2026-04-05T14:37:44.001Z</time></trkpt><trkpt lat="35.06443273741225" lon="10.71369624604048"><ele>105.0</ele><time>2026-04-05T14:37:45.001Z</time></trkpt><trkpt lat="35.06410640805113" lon="10.7137044951216"><ele>105.0</ele><time>2026-04-05T14:37:46.001Z</time></trkpt><trkpt lat="35.063809120228676" lon="10.713734719093765"><ele>105.0</ele><time>2026-04-05T14:37:47.001Z</time></trkpt><trkpt lat="35.06351276360205" lon="10.713764156952044"><ele>105.5</ele><time>2026-04-05T14:37:48.001Z</time></trkpt><trkpt lat="35.063241797451205" lon="10.713810470335467"><ele>106.0</ele><time>2026-04-05T14:37:49.001Z</time></trkpt><trkpt lat="35.06298097378101" lon="10.713873897491125"><ele>106.0</ele><time>2026-04-05T14:37:50.001Z</time></trkpt><trkpt lat="35.0626952588198" lon="10.713939821427164"><ele>106.0</ele><time>2026-04-05T14:37:51.001Z</time></trkpt><trkpt lat="35.062394063841545" lon="10.713965539871229"><ele>106.0</ele><time>2026-04-05T14:37:52.001Z</time></trkpt><trkpt lat="35.0621009569147" lon="10.714032451750686"><ele>106.0</ele><time>2026-04-05T14:37:53.001Z</time></trkpt><trkpt lat="35.0617968540695" lon="10.71408975474193"><ele>106.5</ele><time>2026-04-05T14:37:54.001Z</time></trkpt><trkpt lat="35.061528408923664" lon="10.71413785101779"><ele>107.0</ele><time>2026-04-05T14:37:55.001Z</time></trkpt><trkpt lat="35.06124349355954" lon="10.714184640168899"><ele>107.0</ele><time>2026-04-05T14:37:56.001Z</time></trkpt><trkpt lat="35.06095753939867" lon="10.714234186929243"><ele>107.0</ele><time>2026-04-05T14:37:57.001Z</time></trkpt><trkpt lat="35.06067058427102" lon="10.714283376563143"><ele>106.5</ele><time>2026-04-05T14:37:58Z</time></trkpt><trkpt lat="35.06038457206709" lon="10.714331548757754"><ele>106.0</ele><time>2026-04-05T14:37:59Z</time></trkpt><trkpt lat="35.060099749281314" lon="10.714379410077484"><ele>105.5</ele><time>2026-04-05T14:38:00Z</time></trkpt><trkpt lat="35.0598163226274" lon="10.714433678578159"><ele>105.0</ele><time>2026-04-05T14:38:01Z</time></trkpt><trkpt lat="35.05951471875338" lon="10.714473595720436"><ele>105.0</ele><time>2026-04-05T14:38:02Z</time></trkpt><trkpt lat="35.0592413171344" lon="10.71453686753263"><ele>105.0</ele><time>2026-04-05T14:38:03Z</time></trkpt><trkpt lat="35.05895373567818" lon="10.71458531751949"><ele>105.5</ele><time>2026-04-05T14:38:04Z</time></trkpt><trkpt lat="35.058666194687206" lon="10.714637708426217"><ele>106.0</ele><time>2026-04-05T14:38:05Z</time></trkpt><trkpt lat="35.058360744836804" lon="10.7146772125752"><ele>106.5</ele><time>2026-04-05T14:38:06Z</time></trkpt><trkpt lat="35.05808486146145" lon="10.714736722744723"><ele>107.0</ele><time>2026-04-05T14:38:07Z</time></trkpt><trkpt lat="35.057806306039886" lon="10.71477850186054"><ele>107.0</ele><time>2026-04-05T14:38:08Z</time></trkpt><trkpt lat="35.05751602364772" lon="10.714842849081343"><ele>107.0</ele><time>2026-04-05T14:38:09Z</time></trkpt><trkpt lat="35.05721436345697" lon="10.714889572409021"><ele>107.5</ele><time>2026-04-05T14:38:10Z</time></trkpt><trkpt lat="35.056905782349155" lon="10.714934339349007"><ele>108.0</ele><time>2026-04-05T14:38:11Z</time></trkpt><trkpt lat="35.05664209709296" lon="10.715015505772783"><ele>107.5</ele><time>2026-04-05T14:38:12Z</time></trkpt><trkpt lat="35.05636439984166" lon="10.715072586066604"><ele>107.0</ele><time>2026-04-05T14:38:13Z</time></trkpt><trkpt lat="35.056070634708455" lon="10.715120516267"><ele>107.0</ele><time>2026-04-05T14:38:14Z</time></trkpt><trkpt lat="35.05579291550376" lon="10.715179344916304"><ele>107.0</ele><time>2026-04-05T14:38:15Z</time></trkpt><trkpt lat="35.055504887228146" lon="10.715235212670674"><ele>107.5</ele><time>2026-04-05T14:38:16Z</time></trkpt><trkpt lat="35.055224170719534" lon="10.715288189703983"><ele>108.0</ele><time>2026-04-05T14:38:17Z</time></trkpt><trkpt lat="35.05492827149023" lon="10.715332883816833"><ele>108.0</ele><time>2026-04-05T14:38:18Z</time></trkpt><trkpt lat="35.05464668569828" lon="10.715386298549992"><ele>108.0</ele><time>2026-04-05T14:38:19Z</time></trkpt><trkpt lat="35.054355177323096" lon="10.715432789668185"><ele>108.0</ele><time>2026-04-05T14:38:20Z</time></trkpt><trkpt lat="35.054056109537015" lon="10.715487951544755"><ele>108.0</ele><time>2026-04-05T14:38:21Z</time></trkpt><trkpt lat="35.053714912583274" lon="10.715527378737466"><ele>108.0</ele><time>2026-04-05T14:38:22Z</time></trkpt><trkpt lat="35.053406180366345" lon="10.71559273558021"><ele>108.0</ele><time>2026-04-05T14:38:23Z</time></trkpt><trkpt lat="35.053089803880724" lon="10.715654316321192"><ele>105.5</ele><time>2026-04-05T14:38:24Z</time></trkpt><trkpt lat="35.052766408077275" lon="10.715718844866997"><ele>103.0</ele><time>2026-04-05T14:38:25Z</time></trkpt><trkpt lat="35.0524446403267" lon="10.715789883488695"><ele>101.0</ele><time>2026-04-05T14:38:26Z</time></trkpt><trkpt lat="35.05212201726747" lon="10.715867268503168"><ele>99.0</ele><time>2026-04-05T14:38:27Z</time></trkpt><trkpt lat="35.051799143019856" lon="10.715955677179812"><ele>99.0</ele><time>2026-04-05T14:38:28Z</time></trkpt><trkpt lat="35.051474049545" lon="10.716047634182761"><ele>99.0</ele><time>2026-04-05T14:38:29Z</time></trkpt><trkpt lat="35.05113866970331" lon="10.716140807537549"><ele>99.0</ele><time>2026-04-05T14:38:30Z</time></trkpt><trkpt lat="35.050828363246374" lon="10.716255657961254"><ele>99.0</ele><time>2026-04-05T14:38:31Z</time></trkpt><trkpt lat="35.05050845669914" lon="10.716368292743711"><ele>99.0</ele><time>2026-04-05T14:38:32Z</time></trkpt><trkpt lat="35.05020328800167" lon="10.716500714297556"><ele>99.0</ele><time>2026-04-05T14:38:33Z</time></trkpt><trkpt lat="35.04988871549135" lon="10.716614756754328"><ele>98.0</ele><time>2026-04-05T14:38:34Z</time></trkpt><trkpt lat="35.049585477033375" lon="10.716772106622004"><ele>97.0</ele><time>2026-04-05T14:38:35Z</time></trkpt><trkpt lat="35.04926927471661" lon="10.716922635545362"><ele>96.5</ele><time>2026-04-05T14:38:36Z</time></trkpt><trkpt lat="35.04896911359391" lon="10.717082511141843"><ele>96.0</ele><time>2026-04-05T14:38:37Z</time></trkpt><trkpt lat="35.04862794920461" lon="10.717247880054178"><ele>96.0</ele><time>2026-04-05T14:38:38Z</time></trkpt><trkpt lat="35.04835322222794" lon="10.717415013409408"><ele>96.0</ele><time>2026-04-05T14:38:39Z</time></trkpt><trkpt lat="35.048040261434025" lon="10.717578025779577"><ele>96.0</ele><time>2026-04-05T14:38:40Z</time></trkpt><trkpt lat="35.047755078851054" lon="10.717765859803487"><ele>96.0</ele><time>2026-04-05T14:38:41Z</time></trkpt><trkpt lat="35.04743872701586" lon="10.717958973778316"><ele>95.5</ele><time>2026-04-05T14:38:42Z</time></trkpt><trkpt lat="35.04716719308247" lon="10.718158077404045"><ele>95.0</ele><time>2026-04-05T14:38:43Z</time></trkpt><trkpt lat="35.04688478857725" lon="10.718365804797024"><ele>93.5</ele><time>2026-04-05T14:38:44Z</time></trkpt><trkpt lat="35.04660912463131" lon="10.718573784883105"><ele>92.0</ele><time>2026-04-05T14:38:45Z</time></trkpt><trkpt lat="35.04632049496122" lon="10.71878239668799"><ele>92.0</ele><time>2026-04-05T14:38:46Z</time></trkpt><trkpt lat="35.04604921824579" lon="10.719008792180661"><ele>92.0</ele><time>2026-04-05T14:38:47Z</time></trkpt><trkpt lat="35.04578876870202" lon="10.719232723972006"><ele>90.5</ele><time>2026-04-05T14:38:48Z</time></trkpt><trkpt lat="35.04551536243391" lon="10.719458942869782"><ele>89.0</ele><time>2026-04-05T14:38:49Z</time></trkpt><trkpt lat="35.04524627079033" lon="10.71968971396215"><ele>89.0</ele><time>2026-04-05T14:38:50Z</time></trkpt><trkpt lat="35.044980785713825" lon="10.719927716414224"><ele>89.0</ele><time>2026-04-05T14:38:51Z</time></trkpt><trkpt lat="35.04472905156718" lon="10.720174121358058"><ele>88.0</ele><time>2026-04-05T14:38:52Z</time></trkpt><trkpt lat="35.044452858564746" lon="10.720421281543787"><ele>87.0</ele><time>2026-04-05T14:38:53Z</time></trkpt><trkpt lat="35.04419197316591" lon="10.720669558233613"><ele>87.5</ele><time>2026-04-05T14:38:54Z</time></trkpt><trkpt lat="35.04393972256771" lon="10.720917635378735"><ele>88.0</ele><time>2026-04-05T14:38:55Z</time></trkpt><trkpt lat="35.04368597295476" lon="10.721167103336622"><ele>88.5</ele><time>2026-04-05T14:38:56Z</time></trkpt><trkpt lat="35.04343216540146" lon="10.721414683720806"><ele>89.0</ele><time>2026-04-05T14:38:57Z</time></trkpt><trkpt lat="35.04318347234292" lon="10.721634731491115"><ele>89.0</ele><time>2026-04-05T14:38:58Z</time></trkpt><trkpt lat="35.04293537825164" lon="10.721854746794358"><ele>89.0</ele><time>2026-04-05T14:38:59Z</time></trkpt><trkpt lat="35.04263801692968" lon="10.722153783156495"><ele>88.5</ele><time>2026-04-05T14:39:00Z</time></trkpt><trkpt lat="35.04240108231387" lon="10.72239872399468"><ele>88.0</ele><time>2026-04-05T14:39:01Z</time></trkpt><trkpt lat="35.04214410583316" lon="10.722640500496983"><ele>86.5</ele><time>2026-04-05T14:39:02Z</time></trkpt><trkpt lat="35.04189371031198" lon="10.72287531438541"><ele>85.0</ele><time>2026-04-05T14:39:03Z</time></trkpt><trkpt lat="35.04161860552945" lon="10.723091705275557"><ele>85.0</ele><time>2026-04-05T14:39:04Z</time></trkpt><trkpt lat="35.04137400647441" lon="10.723319991162427"><ele>85.0</ele><time>2026-04-05T14:39:05Z</time></trkpt><trkpt lat="35.041107312913404" lon="10.723525965399613"><ele>86.5</ele><time>2026-04-05T14:39:06Z</time></trkpt><trkpt lat="35.04085890353476" lon="10.723747466128634"><ele>88.0</ele><time>2026-04-05T14:39:07Z</time></trkpt><trkpt lat="35.04058760356116" lon="10.723947579699328"><ele>89.5</ele><time>2026-04-05T14:39:08Z</time></trkpt><trkpt lat="35.040339388510894" lon="10.724157442073208"><ele>91.0</ele><time>2026-04-05T14:39:09Z</time></trkpt><trkpt lat="35.04008678169219" lon="10.724358964085587"><ele>91.0</ele><time>2026-04-05T14:39:10Z</time></trkpt><trkpt lat="35.03983261268794" lon="10.724549595110961"><ele>91.0</ele><time>2026-04-05T14:39:11Z</time></trkpt><trkpt lat="35.03958403582332" lon="10.72474742296946"><ele>91.0</ele><time>2026-04-05T14:39:12Z</time></trkpt><trkpt lat="35.039330715240276" lon="10.72492571730792"><ele>91.0</ele><time>2026-04-05T14:39:13Z</time></trkpt><trkpt lat="35.03907321488158" lon="10.725094317471026"><ele>92.5</ele><time>2026-04-05T14:39:14Z</time></trkpt><trkpt lat="35.0388167621262" lon="10.725274772853405"><ele>94.0</ele><time>2026-04-05T14:39:15.001Z</time></trkpt><trkpt lat="35.03855116091756" lon="10.725435614347017"><ele>95.0</ele><time>2026-04-05T14:39:16.001Z</time></trkpt><trkpt lat="35.03829186094943" lon="10.725615701503152"><ele>96.0</ele><time>2026-04-05T14:39:17.001Z</time></trkpt><trkpt lat="35.03803132160357" lon="10.725792779327818"><ele>96.0</ele><time>2026-04-05T14:39:18.001Z</time></trkpt><trkpt lat="35.03776180618739" lon="10.72594719887613"><ele>96.0</ele><time>2026-04-05T14:39:19.001Z</time></trkpt><trkpt lat="35.03749221952785" lon="10.726105041733454"><ele>97.0</ele><time>2026-04-05T14:39:20.001Z</time></trkpt><trkpt lat="35.03721988836526" lon="10.726261180483382"><ele>98.0</ele><time>2026-04-05T14:39:21.001Z</time></trkpt><trkpt lat="35.03694990996612" lon="10.726417113385365"><ele>98.0</ele><time>2026-04-05T14:39:22.001Z</time></trkpt><trkpt lat="35.03667363174059" lon="10.726570554922686"><ele>98.0</ele><time>2026-04-05T14:39:23.001Z</time></trkpt><trkpt lat="35.036397019876986" lon="10.72672299908657"><ele>99.0</ele><time>2026-04-05T14:39:24.001Z</time></trkpt><trkpt lat="35.03612565376604" lon="10.726881640820833"><ele>100.0</ele><time>2026-04-05T14:39:25.001Z</time></trkpt><trkpt lat="35.035852559867315" lon="10.727030602355317"><ele>100.0</ele><time>2026-04-05T14:39:26.001Z</time></trkpt><trkpt lat="35.03558670859546" lon="10.72719796484313"><ele>100.0</ele><time>2026-04-05T14:39:27.001Z</time></trkpt><trkpt lat="35.03531965220877" lon="10.727359401303605"><ele>100.0</ele><time>2026-04-05T14:39:28.001Z</time></trkpt><trkpt lat="35.035056232541535" lon="10.727516538076861"><ele>100.0</ele><time>2026-04-05T14:39:29.001Z</time></trkpt><trkpt lat="35.03481617017959" lon="10.727683416910343"><ele>101.5</ele><time>2026-04-05T14:39:30.001Z</time></trkpt><trkpt lat="35.034539267662154" lon="10.72782436501053"><ele>103.0</ele><time>2026-04-05T14:39:31.001Z</time></trkpt><trkpt lat="35.03427819253209" lon="10.72797646229628"><ele>103.5</ele><time>2026-04-05T14:39:32.001Z</time></trkpt><trkpt lat="35.03401645714026" lon="10.728124243983343"><ele>104.0</ele><time>2026-04-05T14:39:33.001Z</time></trkpt><trkpt lat="35.03376540461672" lon="10.728267223384927"><ele>104.0</ele><time>2026-04-05T14:39:34.001Z</time></trkpt><trkpt lat="35.033495714549225" lon="10.72842387675464"><ele>104.0</ele><time>2026-04-05T14:39:35.001Z</time></trkpt><trkpt lat="35.03321557235962" lon="10.728575916942964"><ele>106.0</ele><time>2026-04-05T14:39:36.001Z</time></trkpt><trkpt lat="35.032955270963654" lon="10.728730220026796"><ele>108.0</ele><time>2026-04-05T14:39:37.001Z</time></trkpt><trkpt lat="35.03268811960464" lon="10.728883879678277"><ele>108.0</ele><time>2026-04-05T14:39:38.001Z</time></trkpt><trkpt lat="35.03241767526238" lon="10.729042122923302"><ele>108.0</ele><time>2026-04-05T14:39:39.001Z</time></trkpt><trkpt lat="35.032146413850946" lon="10.729195039472541"><ele>108.0</ele><time>2026-04-05T14:39:40.001Z</time></trkpt><trkpt lat="35.03187561392724" lon="10.72935272927292"><ele>108.0</ele><time>2026-04-05T14:39:41.001Z</time></trkpt><trkpt lat="35.03160302323878" lon="10.729515067891825"><ele>110.5</ele><time>2026-04-05T14:39:42.001Z</time></trkpt><trkpt lat="35.03132813965446" lon="10.72967038795417"><ele>113.0</ele><time>2026-04-05T14:39:43.001Z</time></trkpt><trkpt lat="35.031056537027006" lon="10.729844796472225"><ele>110.5</ele><time>2026-04-05T14:39:44.001Z</time></trkpt><trkpt lat="35.03077063755591" lon="10.729968682870897"><ele>108.0</ele><time>2026-04-05T14:39:45.001Z</time></trkpt><trkpt lat="35.03047966711134" lon="10.730100302736664"><ele>107.5</ele><time>2026-04-05T14:39:46.001Z</time></trkpt><trkpt lat="35.03021397034873" lon="10.730241044887249"><ele>107.0</ele><time>2026-04-05T14:39:47.001Z</time></trkpt><trkpt lat="35.029948023691084" lon="10.730380658245648"><ele>107.0</ele><time>2026-04-05T14:39:48.001Z</time></trkpt><trkpt lat="35.02968867583008" lon="10.730517222099113"><ele>107.0</ele><time>2026-04-05T14:39:49Z</time></trkpt><trkpt lat="35.02942363950898" lon="10.730649278922709"><ele>107.0</ele><time>2026-04-05T14:39:50Z</time></trkpt><trkpt lat="35.029161069422166" lon="10.73077955876829"><ele>107.0</ele><time>2026-04-05T14:39:51Z</time></trkpt><trkpt lat="35.02889587703658" lon="10.730908466026786"><ele>106.5</ele><time>2026-04-05T14:39:52Z</time></trkpt><trkpt lat="35.02863016226532" lon="10.731033234001877"><ele>106.0</ele><time>2026-04-05T14:39:53Z</time></trkpt><trkpt lat="35.028342984129864" lon="10.73114046013502"><ele>107.0</ele><time>2026-04-05T14:39:54Z</time></trkpt><trkpt lat="35.028065324203766" lon="10.731246223788103"><ele>108.0</ele><time>2026-04-05T14:39:55Z</time></trkpt><trkpt lat="35.02777500737421" lon="10.73136092980869"><ele>108.0</ele><time>2026-04-05T14:39:56Z</time></trkpt><trkpt lat="35.02751074943296" lon="10.731480070741796"><ele>108.0</ele><time>2026-04-05T14:39:57Z</time></trkpt><trkpt lat="35.02723255297591" lon="10.731630059644973"><ele>108.5</ele><time>2026-04-05T14:39:58Z</time></trkpt><trkpt lat="35.02694030755801" lon="10.731780821452555"><ele>109.0</ele><time>2026-04-05T14:39:59Z</time></trkpt><trkpt lat="35.02663562980448" lon="10.73192708088474"><ele>109.0</ele><time>2026-04-05T14:40:00Z</time></trkpt><trkpt lat="35.02633852038416" lon="10.732066557264138"><ele>109.0</ele><time>2026-04-05T14:40:01Z</time></trkpt><trkpt lat="35.02603329989225" lon="10.73219668161107"><ele>109.5</ele><time>2026-04-05T14:40:02Z</time></trkpt><trkpt lat="35.02574934754016" lon="10.732343394390332"><ele>110.0</ele><time>2026-04-05T14:40:03Z</time></trkpt><trkpt lat="35.025455256546536" lon="10.73248670245354"><ele>110.0</ele><time>2026-04-05T14:40:04Z</time></trkpt><trkpt lat="35.02515716579077" lon="10.732632364171225"><ele>110.0</ele><time>2026-04-05T14:40:05Z</time></trkpt><trkpt lat="35.0248560691728" lon="10.732770488038707"><ele>111.0</ele><time>2026-04-05T14:40:06Z</time></trkpt><trkpt lat="35.024563719467196" lon="10.732913891485168"><ele>112.0</ele><time>2026-04-05T14:40:07Z</time></trkpt><trkpt lat="35.024264912089514" lon="10.733048439767362"><ele>112.0</ele><time>2026-04-05T14:40:08Z</time></trkpt><trkpt lat="35.023971931479004" lon="10.733201422799771"><ele>112.0</ele><time>2026-04-05T14:40:09Z</time></trkpt><trkpt lat="35.02369734733116" lon="10.73336544161367"><ele>112.0</ele><time>2026-04-05T14:40:10Z</time></trkpt><trkpt lat="35.02340075320108" lon="10.733526940812363"><ele>112.0</ele><time>2026-04-05T14:40:11Z</time></trkpt><trkpt lat="35.02308050037484" lon="10.733656751907414"><ele>112.5</ele><time>2026-04-05T14:40:12Z</time></trkpt><trkpt lat="35.0227769473837" lon="10.733811284092873"><ele>113.0</ele><time>2026-04-05T14:40:13Z</time></trkpt><trkpt lat="35.02247518072183" lon="10.733964433508458"><ele>113.0</ele><time>2026-04-05T14:40:14Z</time></trkpt><trkpt lat="35.022173096992795" lon="10.734112736285915"><ele>113.0</ele><time>2026-04-05T14:40:15Z</time></trkpt><trkpt lat="35.02186949025754" lon="10.73426482087568"><ele>114.0</ele><time>2026-04-05T14:40:16Z</time></trkpt><trkpt lat="35.021562524823985" lon="10.734407527294152"><ele>115.0</ele><time>2026-04-05T14:40:17Z</time></trkpt><trkpt lat="35.02125858045747" lon="10.734557572747699"><ele>115.0</ele><time>2026-04-05T14:40:18Z</time></trkpt><trkpt lat="35.02095536269342" lon="10.734701537883517"><ele>115.0</ele><time>2026-04-05T14:40:19Z</time></trkpt><trkpt lat="35.0206570947632" lon="10.734861005939692"><ele>116.0</ele><time>2026-04-05T14:40:20Z</time></trkpt><trkpt lat="35.0203484727213" lon="10.734995563974502"><ele>117.0</ele><time>2026-04-05T14:40:21Z</time></trkpt><trkpt lat="35.0200452531467" lon="10.73514203673816"><ele>119.5</ele><time>2026-04-05T14:40:22Z</time></trkpt><trkpt lat="35.01974241790373" lon="10.735291539871193"><ele>122.0</ele><time>2026-04-05T14:40:23Z</time></trkpt><trkpt lat="35.019452557665936" lon="10.735450013900486"><ele>121.5</ele><time>2026-04-05T14:40:24Z</time></trkpt><trkpt lat="35.01913884032367" lon="10.735587535001585"><ele>121.0</ele><time>2026-04-05T14:40:25Z</time></trkpt><trkpt lat="35.018834592637724" lon="10.735735218670916"><ele>121.0</ele><time>2026-04-05T14:40:26Z</time></trkpt><trkpt lat="35.0185292015057" lon="10.735876394382744"><ele>121.0</ele><time>2026-04-05T14:40:27Z</time></trkpt><trkpt lat="35.01822589770351" lon="10.736026552014097"><ele>122.5</ele><time>2026-04-05T14:40:28Z</time></trkpt><trkpt lat="35.01792085744439" lon="10.736176747378902"><ele>124.0</ele><time>2026-04-05T14:40:29Z</time></trkpt><trkpt lat="35.01761501338394" lon="10.736320427848005"><ele>123.0</ele><time>2026-04-05T14:40:30Z</time></trkpt><trkpt lat="35.017315179336876" lon="10.736470425944376"><ele>122.0</ele><time>2026-04-05T14:40:31Z</time></trkpt><trkpt lat="35.01701406877505" lon="10.736608923366983"><ele>122.0</ele><time>2026-04-05T14:40:32Z</time></trkpt><trkpt lat="35.016711629440685" lon="10.736754855056079"><ele>122.0</ele><time>2026-04-05T14:40:33Z</time></trkpt><trkpt lat="35.01640948759873" lon="10.736896261717556"><ele>121.5</ele><time>2026-04-05T14:40:34Z</time></trkpt><trkpt lat="35.01610631842032" lon="10.737042421917351"><ele>121.0</ele><time>2026-04-05T14:40:35Z</time></trkpt><trkpt lat="35.01580232323438" lon="10.737165138706366"><ele>120.5</ele><time>2026-04-05T14:40:36Z</time></trkpt><trkpt lat="35.01549770516878" lon="10.73728153714114"><ele>120.0</ele><time>2026-04-05T14:40:37Z</time></trkpt><trkpt lat="35.01518098438639" lon="10.737474086142141"><ele>120.5</ele><time>2026-04-05T14:40:38Z</time></trkpt><trkpt lat="35.01488854137583" lon="10.737627767661952"><ele>121.0</ele><time>2026-04-05T14:40:39Z</time></trkpt><trkpt lat="35.01459291934926" lon="10.737776967693847"><ele>121.0</ele><time>2026-04-05T14:40:40Z</time></trkpt><trkpt lat="35.01429256764773" lon="10.737923026677747"><ele>121.0</ele><time>2026-04-05T14:40:41Z</time></trkpt><trkpt lat="35.01399064198037" lon="10.738064402974734"><ele>121.0</ele><time>2026-04-05T14:40:42Z</time></trkpt><trkpt lat="35.01369053016187" lon="10.73820583293973"><ele>121.0</ele><time>2026-04-05T14:40:43Z</time></trkpt><trkpt lat="35.013386950290034" lon="10.738346703081318"><ele>121.0</ele><time>2026-04-05T14:40:44Z</time></trkpt><trkpt lat="35.01308591532553" lon="10.73848362790116"><ele>121.0</ele><time>2026-04-05T14:40:45Z</time></trkpt><trkpt lat="35.012751730072694" lon="10.738621232797517"><ele>120.5</ele><time>2026-04-05T14:40:46Z</time></trkpt><trkpt lat="35.01246593271075" lon="10.738749108190184"><ele>120.0</ele><time>2026-04-05T14:40:47Z</time></trkpt><trkpt lat="35.01213543958336" lon="10.738872253163436"><ele>120.0</ele><time>2026-04-05T14:40:48Z</time></trkpt><trkpt lat="35.01184304840083" lon="10.738979660828653"><ele>120.0</ele><time>2026-04-05T14:40:49Z</time></trkpt><trkpt lat="35.011545870560376" lon="10.739088233148747"><ele>120.0</ele><time>2026-04-05T14:40:50Z</time></trkpt><trkpt lat="35.01123756431791" lon="10.739203914578452"><ele>120.0</ele><time>2026-04-05T14:40:51Z</time></trkpt><trkpt lat="35.01098316636812" lon="10.739296426210707"><ele>119.0</ele><time>2026-04-05T14:40:52Z</time></trkpt><trkpt lat="35.01064303245869" lon="10.739413920310795"><ele>118.0</ele><time>2026-04-05T14:40:53Z</time></trkpt><trkpt lat="35.010349825712225" lon="10.739510727019647"><ele>118.0</ele><time>2026-04-05T14:40:54Z</time></trkpt><trkpt lat="35.01003068153444" lon="10.739616507322193"><ele>118.0</ele><time>2026-04-05T14:40:55Z</time></trkpt><trkpt lat="35.009718953491685" lon="10.739705466444375"><ele>118.5</ele><time>2026-04-05T14:40:56Z</time></trkpt><trkpt lat="35.00941337376326" lon="10.739789676602955"><ele>119.0</ele><time>2026-04-05T14:40:57Z</time></trkpt><trkpt lat="35.009104921797146" lon="10.739866485643109"><ele>119.0</ele><time>2026-04-05T14:40:58Z</time></trkpt><trkpt lat="35.008791340084855" lon="10.739942674007668"><ele>119.0</ele><time>2026-04-05T14:40:59Z</time></trkpt><trkpt lat="35.00842947125561" lon="10.74002366811753"><ele>119.5</ele><time>2026-04-05T14:41:00Z</time></trkpt><trkpt lat="35.008143403671674" lon="10.740086461926841"><ele>120.0</ele><time>2026-04-05T14:41:01Z</time></trkpt><trkpt lat="35.0078394692004" lon="10.740154772981487"><ele>119.5</ele><time>2026-04-05T14:41:02Z</time></trkpt><trkpt lat="35.00753448436505" lon="10.740219037184382"><ele>119.0</ele><time>2026-04-05T14:41:03Z</time></trkpt><trkpt lat="35.00719036703994" lon="10.740282050412416"><ele>118.0</ele><time>2026-04-05T14:41:04Z</time></trkpt><trkpt lat="35.00690253342801" lon="10.740340032375569"><ele>117.0</ele><time>2026-04-05T14:41:05Z</time></trkpt><trkpt lat="35.006577830223584" lon="10.740396254418183"><ele>115.0</ele><time>2026-04-05T14:41:06Z</time></trkpt><trkpt lat="35.00628257931242" lon="10.740440007788774"><ele>113.0</ele><time>2026-04-05T14:41:07Z</time></trkpt><trkpt lat="35.00595310864058" lon="10.740485839922759"><ele>111.5</ele><time>2026-04-05T14:41:08Z</time></trkpt><trkpt lat="35.00565930007675" lon="10.740525860778828"><ele>110.0</ele><time>2026-04-05T14:41:09Z</time></trkpt><trkpt lat="35.00532662340343" lon="10.74056309058557"><ele>110.0</ele><time>2026-04-05T14:41:10Z</time></trkpt><trkpt lat="35.00503194078352" lon="10.740595532564255"><ele>110.0</ele><time>2026-04-05T14:41:11Z</time></trkpt><trkpt lat="35.00472585179152" lon="10.740625335474208"><ele>112.5</ele><time>2026-04-05T14:41:12Z</time></trkpt><trkpt lat="35.004417488554125" lon="10.740653034658648"><ele>115.0</ele><time>2026-04-05T14:41:13Z</time></trkpt><trkpt lat="35.004110574345255" lon="10.740679857988994"><ele>116.0</ele><time>2026-04-05T14:41:14Z</time></trkpt><trkpt lat="35.00380252046555" lon="10.740694442360454"><ele>117.0</ele><time>2026-04-05T14:41:15Z</time></trkpt><trkpt lat="35.003491398523224" lon="10.740701388935795"><ele>116.0</ele><time>2026-04-05T14:41:16Z</time></trkpt><trkpt lat="35.00317613180616" lon="10.740709096810058"><ele>115.0</ele><time>2026-04-05T14:41:17Z</time></trkpt><trkpt lat="35.00286901300022" lon="10.740713164589028"><ele>115.0</ele><time>2026-04-05T14:41:18Z</time></trkpt><trkpt lat="35.00255807697852" lon="10.740717077878688"><ele>115.0</ele><time>2026-04-05T14:41:19Z</time></trkpt><trkpt lat="35.00224699288715" lon="10.740713762086612"><ele>117.5</ele><time>2026-04-05T14:41:20Z</time></trkpt><trkpt lat="35.001936297353076" lon="10.740710180738406"><ele>120.0</ele><time>2026-04-05T14:41:21.001Z</time></trkpt><trkpt lat="35.001614764894356" lon="10.74069853270008"><ele>121.5</ele><time>2026-04-05T14:41:22.001Z</time></trkpt><trkpt lat="35.0013091751227" lon="10.74069409679644"><ele>123.0</ele><time>2026-04-05T14:41:23.001Z</time></trkpt><trkpt lat="35.0009792607491" lon="10.740675046304492"><ele>123.5</ele><time>2026-04-05T14:41:24.001Z</time></trkpt><trkpt lat="35.000679453934104" lon="10.740671181299106"><ele>124.0</ele><time>2026-04-05T14:41:25.001Z</time></trkpt><trkpt lat="35.00034193144887" lon="10.740668768293665"><ele>124.0</ele><time>2026-04-05T14:41:26.001Z</time></trkpt><trkpt lat="35.000045330777745" lon="10.740667795480936"><ele>124.0</ele><time>2026-04-05T14:41:27.001Z</time></trkpt><trkpt lat="34.999738656701986" lon="10.740661755978726"><ele>124.0</ele><time>2026-04-05T14:41:28.001Z</time></trkpt><trkpt lat="34.99943337846472" lon="10.740658725425261"><ele>124.0</ele><time>2026-04-05T14:41:29.001Z</time></trkpt><trkpt lat="34.99912062617998" lon="10.740648509991615"><ele>121.5</ele><time>2026-04-05T14:41:30.001Z</time></trkpt><trkpt lat="34.9988056669987" lon="10.740638740373186"><ele>119.0</ele><time>2026-04-05T14:41:31.001Z</time></trkpt><trkpt lat="34.99848852215941" lon="10.740633339849413"><ele>117.5</ele><time>2026-04-05T14:41:32.001Z</time></trkpt><trkpt lat="34.998175598557594" lon="10.740630642094535"><ele>116.0</ele><time>2026-04-05T14:41:33.001Z</time></trkpt><trkpt lat="34.997857206077434" lon="10.740626874832946"><ele>116.0</ele><time>2026-04-05T14:41:34.001Z</time></trkpt><trkpt lat="34.99754623633382" lon="10.740619585965558"><ele>116.0</ele><time>2026-04-05T14:41:35.001Z</time></trkpt><trkpt lat="34.99727386846214" lon="10.740574488228997"><ele>113.5</ele><time>2026-04-05T14:41:36.001Z</time></trkpt><trkpt lat="34.9969335457318" lon="10.740609835324783"><ele>111.0</ele><time>2026-04-05T14:41:37.001Z</time></trkpt><trkpt lat="34.99661951800514" lon="10.740602736709052"><ele>108.5</ele><time>2026-04-05T14:41:38.001Z</time></trkpt><trkpt lat="34.99630628891966" lon="10.74059337084047"><ele>106.0</ele><time>2026-04-05T14:41:39.001Z</time></trkpt><trkpt lat="34.995992892961375" lon="10.740584247634068"><ele>105.5</ele><time>2026-04-05T14:41:40.001Z</time></trkpt><trkpt lat="34.995681850602644" lon="10.74057652554941"><ele>105.0</ele><time>2026-04-05T14:41:41Z</time></trkpt><trkpt lat="34.99537659358103" lon="10.740551891589158"><ele>105.0</ele><time>2026-04-05T14:41:42Z</time></trkpt><trkpt lat="34.995059763316284" lon="10.740551057204309"><ele>105.0</ele><time>2026-04-05T14:41:43Z</time></trkpt><trkpt lat="34.994740915649466" lon="10.740561853251995"><ele>103.5</ele><time>2026-04-05T14:41:44Z</time></trkpt><trkpt lat="34.994435612825754" lon="10.740529841234746"><ele>102.0</ele><time>2026-04-05T14:41:45Z</time></trkpt><trkpt lat="34.99413432942841" lon="10.740512076615362"><ele>102.0</ele><time>2026-04-05T14:41:46Z</time></trkpt><trkpt lat="34.9938152175762" lon="10.740514595216055"><ele>102.0</ele><time>2026-04-05T14:41:47Z</time></trkpt><trkpt lat="34.99348768023021" lon="10.740504685701751"><ele>102.5</ele><time>2026-04-05T14:41:48Z</time></trkpt><trkpt lat="34.993140878586175" lon="10.740504697077633"><ele>103.0</ele><time>2026-04-05T14:41:49Z</time></trkpt><trkpt lat="34.99277400783663" lon="10.740499277199131"><ele>103.5</ele><time>2026-04-05T14:41:50Z</time></trkpt><trkpt lat="34.9923957135198" lon="10.740494742629744"><ele>104.0</ele><time>2026-04-05T14:41:51Z</time></trkpt><trkpt lat="34.99200816220482" lon="10.740490281207517"><ele>103.5</ele><time>2026-04-05T14:41:52Z</time></trkpt><trkpt lat="34.99161859613401" lon="10.740477311683955"><ele>103.0</ele><time>2026-04-05T14:41:53Z</time></trkpt><trkpt lat="34.991241883451835" lon="10.740463614926327"><ele>103.0</ele><time>2026-04-05T14:41:54Z</time></trkpt><trkpt lat="34.990881957337216" lon="10.740450329716552"><ele>103.0</ele><time>2026-04-05T14:41:55Z</time></trkpt><trkpt lat="34.99052123799857" lon="10.740439623796313"><ele>103.5</ele><time>2026-04-05T14:41:56Z</time></trkpt><trkpt lat="34.99017639353052" lon="10.740429765815087"><ele>104.0</ele><time>2026-04-05T14:41:57Z</time></trkpt><trkpt lat="34.98983566109596" lon="10.740423639189297"><ele>105.5</ele><time>2026-04-05T14:41:58Z</time></trkpt><trkpt lat="34.98949987391285" lon="10.740411660763378"><ele>107.0</ele><time>2026-04-05T14:41:59Z</time></trkpt><trkpt lat="34.98916358697831" lon="10.740403527761936"><ele>108.5</ele><time>2026-04-05T14:42:00Z</time></trkpt><trkpt lat="34.9888165768784" lon="10.740396127523614"><ele>110.0</ele><time>2026-04-05T14:42:01Z</time></trkpt><trkpt lat="34.98847195201272" lon="10.740389999542368"><ele>111.5</ele><time>2026-04-05T14:42:02Z</time></trkpt><trkpt lat="34.988126400968085" lon="10.740381716843963"><ele>113.0</ele><time>2026-04-05T14:42:03Z</time></trkpt><trkpt lat="34.98778396652748" lon="10.740371818863755"><ele>114.5</ele><time>2026-04-05T14:42:04Z</time></trkpt><trkpt lat="34.98743934957812" lon="10.740360819497242"><ele>116.0</ele><time>2026-04-05T14:42:05Z</time></trkpt><trkpt lat="34.987092335164846" lon="10.740360573284908"><ele>116.0</ele><time>2026-04-05T14:42:06Z</time></trkpt><trkpt lat="34.98674873503764" lon="10.740363287182626"><ele>116.0</ele><time>2026-04-05T14:42:07Z</time></trkpt><trkpt lat="34.9864048853899" lon="10.740350812252336"><ele>117.0</ele><time>2026-04-05T14:42:08Z</time></trkpt><trkpt lat="34.98606182296039" lon="10.740329826612834"><ele>118.0</ele><time>2026-04-05T14:42:09Z</time></trkpt><trkpt lat="34.985723370637885" lon="10.740290487697276"><ele>118.5</ele><time>2026-04-05T14:42:10Z</time></trkpt><trkpt lat="34.98536130806263" lon="10.740322638582526"><ele>119.0</ele><time>2026-04-05T14:42:11Z</time></trkpt><trkpt lat="34.98502011028604" lon="10.74031038657774"><ele>119.0</ele><time>2026-04-05T14:42:12Z</time></trkpt><trkpt lat="34.98468106209853" lon="10.740296475932581"><ele>119.0</ele><time>2026-04-05T14:42:13Z</time></trkpt><trkpt lat="34.98433636707522" lon="10.740281177978552"><ele>118.5</ele><time>2026-04-05T14:42:14Z</time></trkpt><trkpt lat="34.983992771691945" lon="10.740266994831405"><ele>118.0</ele><time>2026-04-05T14:42:15Z</time></trkpt><trkpt lat="34.983645933956346" lon="10.740233843192982"><ele>117.5</ele><time>2026-04-05T14:42:16Z</time></trkpt><trkpt lat="34.983305043986775" lon="10.740231523072307"><ele>117.0</ele><time>2026-04-05T14:42:17Z</time></trkpt><trkpt lat="34.98296444442948" lon="10.740224750007533"><ele>117.0</ele><time>2026-04-05T14:42:18Z</time></trkpt><trkpt lat="34.98263198757419" lon="10.74021711590558"><ele>117.0</ele><time>2026-04-05T14:42:19Z</time></trkpt><trkpt lat="34.98230373734151" lon="10.740210661908662"><ele>117.5</ele><time>2026-04-05T14:42:20Z</time></trkpt><trkpt lat="34.98197850646147" lon="10.740206788084812"><ele>118.0</ele><time>2026-04-05T14:42:21Z</time></trkpt><trkpt lat="34.981644597472574" lon="10.740192179412485"><ele>119.0</ele><time>2026-04-05T14:42:22Z</time></trkpt><trkpt lat="34.98132029461373" lon="10.740198759923562"><ele>120.0</ele><time>2026-04-05T14:42:23Z</time></trkpt><trkpt lat="34.98100768668018" lon="10.740196677051292"><ele>120.0</ele><time>2026-04-05T14:42:24Z</time></trkpt><trkpt lat="34.9807124195125" lon="10.74018852830581"><ele>120.0</ele><time>2026-04-05T14:42:25Z</time></trkpt><trkpt lat="34.980418940699444" lon="10.740176358992242"><ele>120.0</ele><time>2026-04-05T14:42:26Z</time></trkpt><trkpt lat="34.98012376685377" lon="10.740166458135775"><ele>120.0</ele><time>2026-04-05T14:42:27Z</time></trkpt><trkpt lat="34.97979809890514" lon="10.740188151352047"><ele>119.5</ele><time>2026-04-05T14:42:28Z</time></trkpt><trkpt lat="34.979524505386635" lon="10.740161780652278"><ele>119.0</ele><time>2026-04-05T14:42:29Z</time></trkpt><trkpt lat="34.979269009276976" lon="10.740110444635077"><ele>118.0</ele><time>2026-04-05T14:42:30Z</time></trkpt><trkpt lat="34.9789510322912" lon="10.740121907697725"><ele>117.0</ele><time>2026-04-05T14:42:31Z</time></trkpt><trkpt lat="34.97865339405438" lon="10.740112891747259"><ele>117.0</ele><time>2026-04-05T14:42:32Z</time></trkpt><trkpt lat="34.978354740922114" lon="10.740098509829023"><ele>117.0</ele><time>2026-04-05T14:42:33Z</time></trkpt><trkpt lat="34.97807191617085" lon="10.740087579887021"><ele>115.0</ele><time>2026-04-05T14:42:34Z</time></trkpt><trkpt lat="34.97778898000617" lon="10.740071535404727"><ele>113.0</ele><time>2026-04-05T14:42:35Z</time></trkpt><trkpt lat="34.977504864031616" lon="10.740058077419999"><ele>110.0</ele><time>2026-04-05T14:42:36Z</time></trkpt><trkpt lat="34.97721974723744" lon="10.740046834237694"><ele>107.0</ele><time>2026-04-05T14:42:37Z</time></trkpt><trkpt lat="34.97692644933846" lon="10.740033549447022"><ele>106.0</ele><time>2026-04-05T14:42:38Z</time></trkpt><trkpt lat="34.97664393570725" lon="10.740020624464025"><ele>105.0</ele><time>2026-04-05T14:42:39Z</time></trkpt><trkpt lat="34.976354103489534" lon="10.740006065964495"><ele>105.0</ele><time>2026-04-05T14:42:40Z</time></trkpt><trkpt lat="34.97606302219894" lon="10.739994639514407"><ele>105.0</ele><time>2026-04-05T14:42:41Z</time></trkpt><trkpt lat="34.97576262286595" lon="10.7399903378648"><ele>104.0</ele><time>2026-04-05T14:42:42Z</time></trkpt><trkpt lat="34.975471838047525" lon="10.73997330569524"><ele>103.0</ele><time>2026-04-05T14:42:43Z</time></trkpt><trkpt lat="34.97517556746105" lon="10.739960134135975"><ele>101.0</ele><time>2026-04-05T14:42:44Z</time></trkpt><trkpt lat="34.97487530893476" lon="10.739946070898668"><ele>99.0</ele><time>2026-04-05T14:42:45Z</time></trkpt><trkpt lat="34.97454163270915" lon="10.739916265502366"><ele>99.0</ele><time>2026-04-05T14:42:46Z</time></trkpt><trkpt lat="34.974238141005515" lon="10.739910067316197"><ele>99.0</ele><time>2026-04-05T14:42:47Z</time></trkpt><trkpt lat="34.9739092396691" lon="10.739918472677886"><ele>98.0</ele><time>2026-04-05T14:42:48Z</time></trkpt><trkpt lat="34.97359380476547" lon="10.739885914592403"><ele>97.0</ele><time>2026-04-05T14:42:49Z</time></trkpt><trkpt lat="34.97328004988929" lon="10.739865863377023"><ele>95.5</ele><time>2026-04-05T14:42:50Z</time></trkpt><trkpt lat="34.97297761634748" lon="10.739847498159719"><ele>94.0</ele><time>2026-04-05T14:42:51Z</time></trkpt><trkpt lat="34.97267382999525" lon="10.739830286516222"><ele>95.0</ele><time>2026-04-05T14:42:52Z</time></trkpt><trkpt lat="34.972378166851925" lon="10.739821689112098"><ele>96.0</ele><time>2026-04-05T14:42:53Z</time></trkpt><trkpt lat="34.972094935059545" lon="10.739811997714122"><ele>96.0</ele><time>2026-04-05T14:42:54Z</time></trkpt><trkpt lat="34.971819871729636" lon="10.739801052086186"><ele>96.0</ele><time>2026-04-05T14:42:55Z</time></trkpt><trkpt lat="34.97155073059528" lon="10.739789682627627"><ele>96.0</ele><time>2026-04-05T14:42:56Z</time></trkpt><trkpt lat="34.97127648264887" lon="10.739776505076168"><ele>96.0</ele><time>2026-04-05T14:42:57Z</time></trkpt><trkpt lat="34.97100406251281" lon="10.739758469357874"><ele>96.0</ele><time>2026-04-05T14:42:58Z</time></trkpt><trkpt lat="34.970728254402964" lon="10.739745531059022"><ele>96.0</ele><time>2026-04-05T14:42:59Z</time></trkpt><trkpt lat="34.97044817993212" lon="10.739733164379903"><ele>96.0</ele><time>2026-04-05T14:43:00Z</time></trkpt><trkpt lat="34.970179795449475" lon="10.739722345167339"><ele>96.0</ele><time>2026-04-05T14:43:01Z</time></trkpt><trkpt lat="34.96989544966972" lon="10.739707148637205"><ele>97.0</ele><time>2026-04-05T14:43:02Z</time></trkpt><trkpt lat="34.96961949029892" lon="10.739698327717926"><ele>98.0</ele><time>2026-04-05T14:43:03Z</time></trkpt><trkpt lat="34.96932780989849" lon="10.739683344826155"><ele>100.0</ele><time>2026-04-05T14:43:04Z</time></trkpt><trkpt lat="34.969021251941584" lon="10.739667223771658"><ele>102.0</ele><time>2026-04-05T14:43:05Z</time></trkpt><trkpt lat="34.96870335564873" lon="10.739651238387916"><ele>102.0</ele><time>2026-04-05T14:43:06Z</time></trkpt><trkpt lat="34.96837055325401" lon="10.739636158976293"><ele>102.0</ele><time>2026-04-05T14:43:07Z</time></trkpt><trkpt lat="34.96802689897815" lon="10.739620116334038"><ele>102.5</ele><time>2026-04-05T14:43:08Z</time></trkpt><trkpt lat="34.967671184947264" lon="10.739603925114423"><ele>103.0</ele><time>2026-04-05T14:43:09Z</time></trkpt><trkpt lat="34.96731323116029" lon="10.739586690158605"><ele>102.0</ele><time>2026-04-05T14:43:10Z</time></trkpt><trkpt lat="34.96695140998228" lon="10.739569772178802"><ele>101.0</ele><time>2026-04-05T14:43:11Z</time></trkpt><trkpt lat="34.966591531841964" lon="10.739550954113808"><ele>99.0</ele><time>2026-04-05T14:43:12Z</time></trkpt><trkpt lat="34.966242285080455" lon="10.739534108418122"><ele>97.0</ele><time>2026-04-05T14:43:13Z</time></trkpt><trkpt lat="34.96589682631876" lon="10.739518452540853"><ele>96.0</ele><time>2026-04-05T14:43:14Z</time></trkpt><trkpt lat="34.9655560238388" lon="10.73950299667086"><ele>95.0</ele><time>2026-04-05T14:43:15Z</time></trkpt><trkpt lat="34.96521577855865" lon="10.739486141482244"><ele>95.0</ele><time>2026-04-05T14:43:16Z</time></trkpt><trkpt lat="34.96488128978147" lon="10.739469217234188"><ele>95.0</ele><time>2026-04-05T14:43:17Z</time></trkpt><trkpt lat="34.96454544733016" lon="10.739449078042465"><ele>95.0</ele><time>2026-04-05T14:43:18Z</time></trkpt><trkpt lat="34.96421439945375" lon="10.739432101121478"><ele>95.0</ele><time>2026-04-05T14:43:19Z</time></trkpt><trkpt lat="34.96388343255916" lon="10.739417563065873"><ele>96.0</ele><time>2026-04-05T14:43:20Z</time></trkpt><trkpt lat="34.963552652041976" lon="10.739400322879249"><ele>97.0</ele><time>2026-04-05T14:43:21Z</time></trkpt><trkpt lat="34.96322081154964" lon="10.739393501564633"><ele>98.0</ele><time>2026-04-05T14:43:22Z</time></trkpt><trkpt lat="34.96288843398368" lon="10.73937805457144"><ele>99.0</ele><time>2026-04-05T14:43:23Z</time></trkpt><trkpt lat="34.96255632946951" lon="10.739362179657272"><ele>100.0</ele><time>2026-04-05T14:43:24Z</time></trkpt><trkpt lat="34.96222466312813" lon="10.739329153233339"><ele>101.0</ele><time>2026-04-05T14:43:25Z</time></trkpt><trkpt lat="34.96188972343121" lon="10.739318555041319"><ele>101.5</ele><time>2026-04-05T14:43:26Z</time></trkpt><trkpt lat="34.961534461507384" lon="10.739295968956986"><ele>102.0</ele><time>2026-04-05T14:43:27Z</time></trkpt><trkpt lat="34.96122234567214" lon="10.739288055466128"><ele>102.0</ele><time>2026-04-05T14:43:28Z</time></trkpt><trkpt lat="34.960894396955936" lon="10.739264166222416"><ele>102.0</ele><time>2026-04-05T14:43:29Z</time></trkpt><trkpt lat="34.96056532049793" lon="10.739235047751349"><ele>101.5</ele><time>2026-04-05T14:43:30Z</time></trkpt><trkpt lat="34.960241010544" lon="10.739195465631711"><ele>101.0</ele><time>2026-04-05T14:43:31Z</time></trkpt><trkpt lat="34.95991824545746" lon="10.73914973742035"><ele>98.5</ele><time>2026-04-05T14:43:32Z</time></trkpt><trkpt lat="34.95959598276241" lon="10.739097896767875"><ele>96.0</ele><time>2026-04-05T14:43:33Z</time></trkpt><trkpt lat="34.959276225967656" lon="10.739039252462138"><ele>93.5</ele><time>2026-04-05T14:43:34Z</time></trkpt><trkpt lat="34.95895493092455" lon="10.738976949709095"><ele>91.0</ele><time>2026-04-05T14:43:35Z</time></trkpt><trkpt lat="34.95863895812933" lon="10.738905367817694"><ele>90.5</ele><time>2026-04-05T14:43:36Z</time></trkpt><trkpt lat="34.95832266283763" lon="10.73882659570112"><ele>90.0</ele><time>2026-04-05T14:43:37Z</time></trkpt><trkpt lat="34.95801143723537" lon="10.738740380184854"><ele>90.0</ele><time>2026-04-05T14:43:38Z</time></trkpt><trkpt lat="34.957697465935674" lon="10.738647099970748"><ele>90.0</ele><time>2026-04-05T14:43:39Z</time></trkpt><trkpt lat="34.95738651129607" lon="10.738548252476294"><ele>89.5</ele><time>2026-04-05T14:43:40Z</time></trkpt><trkpt lat="34.95707841816629" lon="10.738443215546647"><ele>89.0</ele><time>2026-04-05T14:43:41Z</time></trkpt><trkpt lat="34.956773966421" lon="10.73833160207219"><ele>90.5</ele><time>2026-04-05T14:43:42Z</time></trkpt><trkpt lat="34.95647119682386" lon="10.738211206255988"><ele>92.0</ele><time>2026-04-05T14:43:43Z</time></trkpt><trkpt lat="34.956172764513745" lon="10.738085036615223"><ele>92.0</ele><time>2026-04-05T14:43:44Z</time></trkpt><trkpt lat="34.955875471795295" lon="10.737953481911228"><ele>92.0</ele><time>2026-04-05T14:43:45Z</time></trkpt><trkpt lat="34.95558266211849" lon="10.737819402379456"><ele>92.5</ele><time>2026-04-05T14:43:46Z</time></trkpt><trkpt lat="34.95529135529942" lon="10.737682903555458"><ele>93.0</ele><time>2026-04-05T14:43:47Z</time></trkpt><trkpt lat="34.95500679172796" lon="10.73754692742167"><ele>94.0</ele><time>2026-04-05T14:43:48Z</time></trkpt><trkpt lat="34.95472460904701" lon="10.737411190425405"><ele>95.0</ele><time>2026-04-05T14:43:49Z</time></trkpt><trkpt lat="34.95444497985173" lon="10.737274826245494"><ele>96.5</ele><time>2026-04-05T14:43:50Z</time></trkpt><trkpt lat="34.954167749330594" lon="10.737135035771324"><ele>98.0</ele><time>2026-04-05T14:43:51Z</time></trkpt><trkpt lat="34.95389025310863" lon="10.736994964268932"><ele>99.5</ele><time>2026-04-05T14:43:52Z</time></trkpt><trkpt lat="34.95361624886154" lon="10.736860838152039"><ele>101.0</ele><time>2026-04-05T14:43:53Z</time></trkpt><trkpt lat="34.953341650680734" lon="10.736732099277747"><ele>101.5</ele><time>2026-04-05T14:43:54Z</time></trkpt><trkpt lat="34.95306575226328" lon="10.736597070759146"><ele>102.0</ele><time>2026-04-05T14:43:55Z</time></trkpt><trkpt lat="34.95278898007763" lon="10.736467050719618"><ele>105.0</ele><time>2026-04-05T14:43:56Z</time></trkpt><trkpt lat="34.95251246246306" lon="10.736339217334208"><ele>108.0</ele><time>2026-04-05T14:43:57Z</time></trkpt><trkpt lat="34.95223205718691" lon="10.736215534788865"><ele>108.0</ele><time>2026-04-05T14:43:58Z</time></trkpt><trkpt lat="34.95194730064137" lon="10.736093454130593"><ele>108.0</ele><time>2026-04-05T14:43:59Z</time></trkpt><trkpt lat="34.951657595552284" lon="10.735984289404024"><ele>110.0</ele><time>2026-04-05T14:44:00Z</time></trkpt><trkpt lat="34.9513647991215" lon="10.735878780027909"><ele>112.0</ele><time>2026-04-05T14:44:01Z</time></trkpt><trkpt lat="34.95107251254945" lon="10.73578129959389"><ele>113.0</ele><time>2026-04-05T14:44:02Z</time></trkpt><trkpt lat="34.95078048084624" lon="10.73568907377972"><ele>114.0</ele><time>2026-04-05T14:44:03Z</time></trkpt><trkpt lat="34.95049178440457" lon="10.735598898595695"><ele>114.0</ele><time>2026-04-05T14:44:04Z</time></trkpt><trkpt lat="34.950212947505456" lon="10.73552187395758"><ele>114.0</ele><time>2026-04-05T14:44:05Z</time></trkpt><trkpt lat="34.94991213507689" lon="10.735446013597182"><ele>113.0</ele><time>2026-04-05T14:44:06Z</time></trkpt><trkpt lat="34.94962025457789" lon="10.735381191273994"><ele>112.0</ele><time>2026-04-05T14:44:07Z</time></trkpt><trkpt lat="34.94932883284019" lon="10.735322604442898"><ele>112.0</ele><time>2026-04-05T14:44:08Z</time></trkpt><trkpt lat="34.94903639504282" lon="10.735271897691677"><ele>112.0</ele><time>2026-04-05T14:44:09Z</time></trkpt><trkpt lat="34.9487446580108" lon="10.735228264255289"><ele>111.5</ele><time>2026-04-05T14:44:10Z</time></trkpt><trkpt lat="34.948451846120705" lon="10.73518888439509"><ele>111.0</ele><time>2026-04-05T14:44:11Z</time></trkpt><trkpt lat="34.9481586102316" lon="10.73515802081776"><ele>111.0</ele><time>2026-04-05T14:44:12Z</time></trkpt><trkpt lat="34.947850874361905" lon="10.735125400271565"><ele>111.0</ele><time>2026-04-05T14:44:13Z</time></trkpt><trkpt lat="34.947579116650886" lon="10.735105447764"><ele>110.0</ele><time>2026-04-05T14:44:14Z</time></trkpt><trkpt lat="34.94730709103958" lon="10.735090008273183"><ele>109.0</ele><time>2026-04-05T14:44:15Z</time></trkpt><trkpt lat="34.947029854548475" lon="10.735087834868295"><ele>109.0</ele><time>2026-04-05T14:44:16Z</time></trkpt><trkpt lat="34.946716645325644" lon="10.7350959478205"><ele>109.0</ele><time>2026-04-05T14:44:17Z</time></trkpt><trkpt lat="34.94643762918872" lon="10.735094900268525"><ele>108.5</ele><time>2026-04-05T14:44:18Z</time></trkpt><trkpt lat="34.94613761964915" lon="10.735100312223462"><ele>108.0</ele><time>2026-04-05T14:44:19Z</time></trkpt><trkpt lat="34.945829514526835" lon="10.73511740932988"><ele>108.0</ele><time>2026-04-05T14:44:20Z</time></trkpt><trkpt lat="34.945516382933334" lon="10.735141987275279"><ele>108.0</ele><time>2026-04-05T14:44:21Z</time></trkpt><trkpt lat="34.94519699987383" lon="10.735174542995903"><ele>107.5</ele><time>2026-04-05T14:44:22Z</time></trkpt><trkpt lat="34.94486685063721" lon="10.735214740209718"><ele>107.0</ele><time>2026-04-05T14:44:23Z</time></trkpt><trkpt lat="34.94454573297323" lon="10.735266373563855"><ele>107.0</ele><time>2026-04-05T14:44:24Z</time></trkpt><trkpt lat="34.944220059951355" lon="10.735311338592561"><ele>107.0</ele><time>2026-04-05T14:44:25Z</time></trkpt><trkpt lat="34.94389709003853" lon="10.735362179983499"><ele>106.5</ele><time>2026-04-05T14:44:26Z</time></trkpt><trkpt lat="34.94359421845154" lon="10.735423310695776"><ele>106.0</ele><time>2026-04-05T14:44:27Z</time></trkpt><trkpt lat="34.943303082589416" lon="10.735497270666595"><ele>105.5</ele><time>2026-04-05T14:44:28Z</time></trkpt><trkpt lat="34.94302349964037" lon="10.735577849432602"><ele>105.0</ele><time>2026-04-05T14:44:29Z</time></trkpt><trkpt lat="34.9427386882802" lon="10.735663501585668"><ele>105.0</ele><time>2026-04-05T14:44:30Z</time></trkpt><trkpt lat="34.94246181104818" lon="10.735759801616252"><ele>105.0</ele><time>2026-04-05T14:44:31Z</time></trkpt><trkpt lat="34.942184727580546" lon="10.735844071302536"><ele>105.0</ele><time>2026-04-05T14:44:32Z</time></trkpt><trkpt lat="34.94191401415104" lon="10.735945965822307"><ele>105.0</ele><time>2026-04-05T14:44:33Z</time></trkpt><trkpt lat="34.94164909823982" lon="10.736049105272393"><ele>103.5</ele><time>2026-04-05T14:44:34Z</time></trkpt><trkpt lat="34.9413796967836" lon="10.736151674515268"><ele>102.0</ele><time>2026-04-05T14:44:35Z</time></trkpt><trkpt lat="34.9411087368301" lon="10.73625781503548"><ele>102.0</ele><time>2026-04-05T14:44:36Z</time></trkpt><trkpt lat="34.94083514654986" lon="10.736364371308097"><ele>102.0</ele><time>2026-04-05T14:44:37Z</time></trkpt><trkpt lat="34.94055984377541" lon="10.736470063434306"><ele>102.0</ele><time>2026-04-05T14:44:38Z</time></trkpt><trkpt lat="34.940283683876295" lon="10.736575121850638"><ele>102.0</ele><time>2026-04-05T14:44:39Z</time></trkpt><trkpt lat="34.94000928176784" lon="10.736682532611859"><ele>102.0</ele><time>2026-04-05T14:44:40Z</time></trkpt><trkpt lat="34.93973365373128" lon="10.736790558085566"><ele>102.0</ele><time>2026-04-05T14:44:41Z</time></trkpt><trkpt lat="34.93945777065065" lon="10.73689448898396"><ele>99.0</ele><time>2026-04-05T14:44:42Z</time></trkpt><trkpt lat="34.939178196774044" lon="10.736995758534807"><ele>96.0</ele><time>2026-04-05T14:44:43Z</time></trkpt><trkpt lat="34.9388967656886" lon="10.73709375826039"><ele>96.0</ele><time>2026-04-05T14:44:44Z</time></trkpt><trkpt lat="34.938607639462845" lon="10.737192690548454"><ele>96.0</ele><time>2026-04-05T14:44:45Z</time></trkpt><trkpt lat="34.93831199318203" lon="10.737289620371518"><ele>95.0</ele><time>2026-04-05T14:44:46Z</time></trkpt><trkpt lat="34.93801459769645" lon="10.737384517565246"><ele>94.0</ele><time>2026-04-05T14:44:47Z</time></trkpt><trkpt lat="34.93771137601905" lon="10.737477967385646"><ele>95.0</ele><time>2026-04-05T14:44:48Z</time></trkpt><trkpt lat="34.93740806195687" lon="10.737548352246261"><ele>96.0</ele><time>2026-04-05T14:44:49Z</time></trkpt><trkpt lat="34.937106661201774" lon="10.737609674674063"><ele>95.5</ele><time>2026-04-05T14:44:50Z</time></trkpt><trkpt lat="34.93678576531092" lon="10.737721467856257"><ele>95.0</ele><time>2026-04-05T14:44:51Z</time></trkpt><trkpt lat="34.93648138210873" lon="10.737787202959746"><ele>95.0</ele><time>2026-04-05T14:44:52Z</time></trkpt><trkpt lat="34.93614610583498" lon="10.737844931140224"><ele>95.0</ele><time>2026-04-05T14:44:53Z</time></trkpt><trkpt lat="34.93584124414772" lon="10.737888561828148"><ele>94.5</ele><time>2026-04-05T14:44:54Z</time></trkpt><trkpt lat="34.935514926227405" lon="10.737915787701718"><ele>94.0</ele><time>2026-04-05T14:44:55Z</time></trkpt><trkpt lat="34.935213263350164" lon="10.737958890008725"><ele>93.5</ele><time>2026-04-05T14:44:56Z</time></trkpt><trkpt lat="34.93489219190056" lon="10.737976851288725"><ele>93.0</ele><time>2026-04-05T14:44:57Z</time></trkpt><trkpt lat="34.934584383227666" lon="10.73799575640305"><ele>93.0</ele><time>2026-04-05T14:44:58Z</time></trkpt><trkpt lat="34.93423374496923" lon="10.738012209782612"><ele>93.0</ele><time>2026-04-05T14:44:59Z</time></trkpt><trkpt lat="34.93393352877095" lon="10.738010317037109"><ele>91.5</ele><time>2026-04-05T14:45:00Z</time></trkpt><trkpt lat="34.93360625487156" lon="10.738009323732992"><ele>90.0</ele><time>2026-04-05T14:45:01Z</time></trkpt><trkpt lat="34.933294481878974" lon="10.738005930159082"><ele>89.5</ele><time>2026-04-05T14:45:02Z</time></trkpt><trkpt lat="34.93296863105507" lon="10.73799952678792"><ele>89.0</ele><time>2026-04-05T14:45:03Z</time></trkpt><trkpt lat="34.932637307616496" lon="10.73798927514329"><ele>88.5</ele><time>2026-04-05T14:45:04Z</time></trkpt><trkpt lat="34.93230709153463" lon="10.737973237046042"><ele>88.0</ele><time>2026-04-05T14:45:05Z</time></trkpt><trkpt lat="34.93197620760014" lon="10.737955815770919"><ele>89.0</ele><time>2026-04-05T14:45:06Z</time></trkpt><trkpt lat="34.93164564701221" lon="10.73793447526481"><ele>90.0</ele><time>2026-04-05T14:45:07Z</time></trkpt><trkpt lat="34.93132020820015" lon="10.737914765874745"><ele>90.0</ele><time>2026-04-05T14:45:08Z</time></trkpt><trkpt lat="34.9309728900208" lon="10.737905472626823"><ele>90.0</ele><time>2026-04-05T14:45:09Z</time></trkpt><trkpt lat="34.93065775336054" lon="10.737883394987449"><ele>88.5</ele><time>2026-04-05T14:45:10Z</time></trkpt><trkpt lat="34.93029426808565" lon="10.737873932327288"><ele>87.0</ele><time>2026-04-05T14:45:11Z</time></trkpt><trkpt lat="34.92999712852139" lon="10.737847762910626"><ele>87.0</ele><time>2026-04-05T14:45:12Z</time></trkpt><trkpt lat="34.92970847770514" lon="10.73783367999644"><ele>87.0</ele><time>2026-04-05T14:45:13Z</time></trkpt><trkpt lat="34.92937317069691" lon="10.737819168249688"><ele>85.5</ele><time>2026-04-05T14:45:14Z</time></trkpt><trkpt lat="34.9290305924472" lon="10.737790854641434"><ele>84.0</ele><time>2026-04-05T14:45:15Z</time></trkpt><trkpt lat="34.92872285224635" lon="10.737785123526411"><ele>84.0</ele><time>2026-04-05T14:45:16Z</time></trkpt><trkpt lat="34.92839856126563" lon="10.737757512038437"><ele>84.0</ele><time>2026-04-05T14:45:17Z</time></trkpt><trkpt lat="34.92807270846974" lon="10.737761831242532"><ele>83.0</ele><time>2026-04-05T14:45:18Z</time></trkpt><trkpt lat="34.927745589973235" lon="10.737745333190492"><ele>82.0</ele><time>2026-04-05T14:45:19Z</time></trkpt><trkpt lat="34.92741258058137" lon="10.737730758663112"><ele>80.5</ele><time>2026-04-05T14:45:20Z</time></trkpt><trkpt lat="34.92708151710688" lon="10.737715532077859"><ele>79.0</ele><time>2026-04-05T14:45:21Z</time></trkpt><trkpt lat="34.92675004824498" lon="10.737700429414176"><ele>78.5</ele><time>2026-04-05T14:45:22Z</time></trkpt><trkpt lat="34.92641313271516" lon="10.737671131709867"><ele>78.0</ele><time>2026-04-05T14:45:23Z</time></trkpt><trkpt lat="34.926075119364285" lon="10.73767437494824"><ele>76.5</ele><time>2026-04-05T14:45:24Z</time></trkpt><trkpt lat="34.9257256861365" lon="10.737664881000473"><ele>75.0</ele><time>2026-04-05T14:45:25Z</time></trkpt><trkpt lat="34.92536744611866" lon="10.737651885700679"><ele>75.5</ele><time>2026-04-05T14:45:26Z</time></trkpt><trkpt lat="34.92500003666863" lon="10.73763307632881"><ele>76.0</ele><time>2026-04-05T14:45:27Z</time></trkpt><trkpt lat="34.924631768870256" lon="10.737611899543857"><ele>76.0</ele><time>2026-04-05T14:45:28Z</time></trkpt><trkpt lat="34.924277317408134" lon="10.737592233878477"><ele>76.0</ele><time>2026-04-05T14:45:29Z</time></trkpt><trkpt lat="34.92393838762043" lon="10.73757802592233"><ele>78.0</ele><time>2026-04-05T14:45:30Z</time></trkpt><trkpt lat="34.92361691873357" lon="10.737568547353241"><ele>80.0</ele><time>2026-04-05T14:45:31Z</time></trkpt><trkpt lat="34.923283026851756" lon="10.737547396697064"><ele>83.0</ele><time>2026-04-05T14:45:32Z</time></trkpt><trkpt lat="34.922963429450434" lon="10.737535965812192"><ele>86.0</ele><time>2026-04-05T14:45:33Z</time></trkpt><trkpt lat="34.922648722763725" lon="10.737523800527358"><ele>84.5</ele><time>2026-04-05T14:45:34Z</time></trkpt><trkpt lat="34.92233636587202" lon="10.737519159793754"><ele>83.0</ele><time>2026-04-05T14:45:35Z</time></trkpt><trkpt lat="34.92201360953731" lon="10.737493651409906"><ele>81.5</ele><time>2026-04-05T14:45:36Z</time></trkpt><trkpt lat="34.92169261971079" lon="10.737477806767384"><ele>80.0</ele><time>2026-04-05T14:45:37Z</time></trkpt><trkpt lat="34.92137097107587" lon="10.737463306623162"><ele>80.0</ele><time>2026-04-05T14:45:38Z</time></trkpt><trkpt lat="34.921049008921166" lon="10.737446379196626"><ele>80.0</ele><time>2026-04-05T14:45:39Z</time></trkpt><trkpt lat="34.920725146647484" lon="10.737428859988528"><ele>82.0</ele><time>2026-04-05T14:45:40Z</time></trkpt><trkpt lat="34.92040097302923" lon="10.737405177497973"><ele>84.0</ele><time>2026-04-05T14:45:41Z</time></trkpt><trkpt lat="34.92008002174645" lon="10.737386034867399"><ele>85.5</ele><time>2026-04-05T14:45:42Z</time></trkpt><trkpt lat="34.91976096552364" lon="10.73736801624623"><ele>87.0</ele><time>2026-04-05T14:45:43Z</time></trkpt><trkpt lat="34.91944314231787" lon="10.737350379278823"><ele>86.0</ele><time>2026-04-05T14:45:44Z</time></trkpt><trkpt lat="34.919130238381406" lon="10.737332802471686"><ele>85.0</ele><time>2026-04-05T14:45:45Z</time></trkpt><trkpt lat="34.91881968999097" lon="10.737317274333913"><ele>85.0</ele><time>2026-04-05T14:45:46Z</time></trkpt><trkpt lat="34.91849313700134" lon="10.737295962253418"><ele>85.0</ele><time>2026-04-05T14:45:47Z</time></trkpt><trkpt lat="34.91817180439831" lon="10.737264881145808"><ele>86.0</ele><time>2026-04-05T14:45:48Z</time></trkpt><trkpt lat="34.91787274430959" lon="10.737262518589517"><ele>87.0</ele><time>2026-04-05T14:45:49Z</time></trkpt><trkpt lat="34.91756782983101" lon="10.7372459276588"><ele>87.0</ele><time>2026-04-05T14:45:50Z</time></trkpt><trkpt lat="34.91726109973765" lon="10.737229724526344"><ele>87.0</ele><time>2026-04-05T14:45:51Z</time></trkpt><trkpt lat="34.9169516419745" lon="10.737208974177712"><ele>87.0</ele><time>2026-04-05T14:45:52Z</time></trkpt><trkpt lat="34.91662648337832" lon="10.737167275208716"><ele>87.0</ele><time>2026-04-05T14:45:53Z</time></trkpt><trkpt lat="34.916333634213714" lon="10.737154383392522"><ele>87.0</ele><time>2026-04-05T14:45:54Z</time></trkpt><trkpt lat="34.91602523721735" lon="10.73712402964727"><ele>87.0</ele><time>2026-04-05T14:45:55Z</time></trkpt><trkpt lat="34.91570757609153" lon="10.737087430014716"><ele>86.0</ele><time>2026-04-05T14:45:56Z</time></trkpt><trkpt lat="34.915388284502896" lon="10.737042299070382"><ele>85.0</ele><time>2026-04-05T14:45:57Z</time></trkpt><trkpt lat="34.91505952622273" lon="10.736985500526094"><ele>84.5</ele><time>2026-04-05T14:45:58Z</time></trkpt><trkpt lat="34.914723594834165" lon="10.736921860883953"><ele>84.0</ele><time>2026-04-05T14:45:59Z</time></trkpt><trkpt lat="34.91437513208081" lon="10.736846035365412"><ele>85.0</ele><time>2026-04-05T14:46:00Z</time></trkpt><trkpt lat="34.91404538485391" lon="10.736777718152464"><ele>86.0</ele><time>2026-04-05T14:46:01Z</time></trkpt><trkpt lat="34.91371298477611" lon="10.736696402989482"><ele>85.5</ele><time>2026-04-05T14:46:02Z</time></trkpt><trkpt lat="34.91338375305042" lon="10.73660974383858"><ele>85.0</ele><time>2026-04-05T14:46:03Z</time></trkpt><trkpt lat="34.91305809484242" lon="10.736520728081592"><ele>85.0</ele><time>2026-04-05T14:46:04Z</time></trkpt><trkpt lat="34.912732943426" lon="10.736425407784441"><ele>85.0</ele><time>2026-04-05T14:46:05Z</time></trkpt><trkpt lat="34.912409409638315" lon="10.736325186037114"><ele>84.5</ele><time>2026-04-05T14:46:06Z</time></trkpt><trkpt lat="34.912085210428295" lon="10.736212429396424"><ele>84.0</ele><time>2026-04-05T14:46:07Z</time></trkpt><trkpt lat="34.911762672045164" lon="10.736096775778005"><ele>84.0</ele><time>2026-04-05T14:46:08Z</time></trkpt><trkpt lat="34.91144646418972" lon="10.735962719643547"><ele>84.0</ele><time>2026-04-05T14:46:09Z</time></trkpt><trkpt lat="34.91112247277953" lon="10.735845924787657"><ele>84.0</ele><time>2026-04-05T14:46:10Z</time></trkpt><trkpt lat="34.910805774876145" lon="10.735709256560138"><ele>84.0</ele><time>2026-04-05T14:46:11Z</time></trkpt><trkpt lat="34.91049328580863" lon="10.735561630160278"><ele>84.0</ele><time>2026-04-05T14:46:12Z</time></trkpt><trkpt lat="34.91017919417368" lon="10.735406734072315"><ele>84.0</ele><time>2026-04-05T14:46:13Z</time></trkpt><trkpt lat="34.90986370694876" lon="10.735251416389616"><ele>84.0</ele><time>2026-04-05T14:46:14Z</time></trkpt><trkpt lat="34.90954950164757" lon="10.735091613845091"><ele>84.0</ele><time>2026-04-05T14:46:15Z</time></trkpt><trkpt lat="34.90923636286522" lon="10.73493138638537"><ele>82.5</ele><time>2026-04-05T14:46:16Z</time></trkpt><trkpt lat="34.908911242135225" lon="10.73475508872368"><ele>81.0</ele><time>2026-04-05T14:46:17Z</time></trkpt><trkpt lat="34.908599624849344" lon="10.734572716736627"><ele>81.0</ele><time>2026-04-05T14:46:18Z</time></trkpt><trkpt lat="34.9082802087262" lon="10.73437022776402"><ele>81.0</ele><time>2026-04-05T14:46:19Z</time></trkpt><trkpt lat="34.90796436541607" lon="10.734171568673121"><ele>81.0</ele><time>2026-04-05T14:46:20Z</time></trkpt><trkpt lat="34.90765315049462" lon="10.733964689880711"><ele>81.0</ele><time>2026-04-05T14:46:21Z</time></trkpt><trkpt lat="34.90734920849741" lon="10.733754631149594"><ele>81.5</ele><time>2026-04-05T14:46:22Z</time></trkpt><trkpt lat="34.907030220803584" lon="10.73352802601286"><ele>82.0</ele><time>2026-04-05T14:46:23Z</time></trkpt><trkpt lat="34.906753294252766" lon="10.733320764867624"><ele>81.5</ele><time>2026-04-05T14:46:24Z</time></trkpt><trkpt lat="34.90647404619845" lon="10.733101319147417"><ele>81.0</ele><time>2026-04-05T14:46:25Z</time></trkpt><trkpt lat="34.90619938685818" lon="10.73287925442233"><ele>80.5</ele><time>2026-04-05T14:46:26Z</time></trkpt><trkpt lat="34.90593586480755" lon="10.73266382835347"><ele>80.0</ele><time>2026-04-05T14:46:27Z</time></trkpt><trkpt lat="34.905686150531366" lon="10.732457865642282"><ele>80.0</ele><time>2026-04-05T14:46:28Z</time></trkpt><trkpt lat="34.90543218051702" lon="10.732239089511902"><ele>80.0</ele><time>2026-04-05T14:46:29Z</time></trkpt><trkpt lat="34.90522314130854" lon="10.732043916633637"><ele>80.0</ele><time>2026-04-05T14:46:30Z</time></trkpt><trkpt lat="34.904996587130796" lon="10.731834189793101"><ele>80.0</ele><time>2026-04-05T14:46:31Z</time></trkpt><trkpt lat="34.90476402965736" lon="10.731618999974954"><ele>80.0</ele><time>2026-04-05T14:46:32Z</time></trkpt><trkpt lat="34.90452994908648" lon="10.73140180938825"><ele>80.0</ele><time>2026-04-05T14:46:33Z</time></trkpt><trkpt lat="34.90429981000955" lon="10.731177874754236"><ele>79.0</ele><time>2026-04-05T14:46:34Z</time></trkpt><trkpt lat="34.90407740450551" lon="10.73093281231709"><ele>78.0</ele><time>2026-04-05T14:46:35Z</time></trkpt><trkpt lat="34.9038503383048" lon="10.730713723409522"><ele>78.0</ele><time>2026-04-05T14:46:36Z</time></trkpt><trkpt lat="34.903628524770504" lon="10.730484342473934"><ele>78.0</ele><time>2026-04-05T14:46:37Z</time></trkpt><trkpt lat="34.90340270037573" lon="10.73023819802843"><ele>76.5</ele><time>2026-04-05T14:46:38Z</time></trkpt><trkpt lat="34.90319765174601" lon="10.730003029920578"><ele>75.0</ele><time>2026-04-05T14:46:39Z</time></trkpt><trkpt lat="34.9030004633648" lon="10.729768839736716"><ele>75.0</ele><time>2026-04-05T14:46:40Z</time></trkpt><trkpt lat="34.90280482228368" lon="10.72952781200548"><ele>75.0</ele><time>2026-04-05T14:46:41Z</time></trkpt><trkpt lat="34.90260851587944" lon="10.729289909579023"><ele>75.0</ele><time>2026-04-05T14:46:42Z</time></trkpt><trkpt lat="34.9024054810122" lon="10.729038545470015"><ele>75.0</ele><time>2026-04-05T14:46:43Z</time></trkpt><trkpt lat="34.90222281918256" lon="10.728791878993315"><ele>76.0</ele><time>2026-04-05T14:46:44Z</time></trkpt><trkpt lat="34.902024039732645" lon="10.728530607398726"><ele>77.0</ele><time>2026-04-05T14:46:45Z</time></trkpt><trkpt lat="34.90183281750745" lon="10.728272004357502"><ele>77.0</ele><time>2026-04-05T14:46:46Z</time></trkpt><trkpt lat="34.90162556764702" lon="10.728006217939656"><ele>77.0</ele><time>2026-04-05T14:46:47Z</time></trkpt><trkpt lat="34.90143180551954" lon="10.727741097539413"><ele>77.5</ele><time>2026-04-05T14:46:48Z</time></trkpt><trkpt lat="34.90123391589969" lon="10.727469935930383"><ele>78.0</ele><time>2026-04-05T14:46:49Z</time></trkpt><trkpt lat="34.901024280388505" lon="10.727191714180465"><ele>77.5</ele><time>2026-04-05T14:46:50Z</time></trkpt><trkpt lat="34.90080590886505" lon="10.726899626995163"><ele>77.0</ele><time>2026-04-05T14:46:51Z</time></trkpt><trkpt lat="34.90058444231376" lon="10.72661041476156"><ele>77.0</ele><time>2026-04-05T14:46:52Z</time></trkpt><trkpt lat="34.900370348103884" lon="10.726321295922988"><ele>77.0</ele><time>2026-04-05T14:46:53Z</time></trkpt><trkpt lat="34.90016215654377" lon="10.726035735947724"><ele>76.5</ele><time>2026-04-05T14:46:54Z</time></trkpt><trkpt lat="34.89995739120713" lon="10.725747958053358"><ele>76.0</ele><time>2026-04-05T14:46:55Z</time></trkpt><trkpt lat="34.89975238643023" lon="10.725481360803736"><ele>76.5</ele><time>2026-04-05T14:46:56Z</time></trkpt><trkpt lat="34.89954762523361" lon="10.725218376046175"><ele>77.0</ele><time>2026-04-05T14:46:57Z</time></trkpt><trkpt lat="34.899341511044234" lon="10.72496353446847"><ele>77.0</ele><time>2026-04-05T14:46:58Z</time></trkpt><trkpt lat="34.899133890599565" lon="10.724714751103953"><ele>77.0</ele><time>2026-04-05T14:46:59Z</time></trkpt><trkpt lat="34.898928349810625" lon="10.724480689751958"><ele>77.5</ele><time>2026-04-05T14:47:00Z</time></trkpt><trkpt lat="34.89872704526803" lon="10.724246835509838"><ele>78.0</ele><time>2026-04-05T14:47:01Z</time></trkpt><trkpt lat="34.89852025914843" lon="10.724007541240242"><ele>78.0</ele><time>2026-04-05T14:47:02Z</time></trkpt><trkpt lat="34.89830616455905" lon="10.723764457456177"><ele>78.0</ele><time>2026-04-05T14:47:03Z</time></trkpt><trkpt lat="34.89808764110114" lon="10.723521477425312"><ele>78.0</ele><time>2026-04-05T14:47:04Z</time></trkpt><trkpt lat="34.897864920520696" lon="10.723278817846428"><ele>78.0</ele><time>2026-04-05T14:47:05Z</time></trkpt><trkpt lat="34.897669256782294" lon="10.723064935200526"><ele>77.0</ele><time>2026-04-05T14:47:06Z</time></trkpt><trkpt lat="34.897464109350025" lon="10.722844975239786"><ele>76.0</ele><time>2026-04-05T14:47:07Z</time></trkpt><trkpt lat="34.89726030864998" lon="10.722630080986086"><ele>76.0</ele><time>2026-04-05T14:47:08Z</time></trkpt><trkpt lat="34.89704300752032" lon="10.722402883675258"><ele>76.0</ele><time>2026-04-05T14:47:09Z</time></trkpt><trkpt lat="34.89685707760305" lon="10.722195732371654"><ele>76.0</ele><time>2026-04-05T14:47:10Z</time></trkpt><trkpt lat="34.89665372498803" lon="10.72197633724439"><ele>76.0</ele><time>2026-04-05T14:47:11Z</time></trkpt><trkpt lat="34.89645134610644" lon="10.721760503604472"><ele>76.0</ele><time>2026-04-05T14:47:12Z</time></trkpt><trkpt lat="34.896249253501274" lon="10.721545194519877"><ele>76.0</ele><time>2026-04-05T14:47:13Z</time></trkpt><trkpt lat="34.89604862528651" lon="10.721327824072539"><ele>75.0</ele><time>2026-04-05T14:47:14Z</time></trkpt><trkpt lat="34.8958538683048" lon="10.721118088731926"><ele>74.0</ele><time>2026-04-05T14:47:15Z</time></trkpt><trkpt lat="34.89565620943743" lon="10.720904265690079"><ele>74.0</ele><time>2026-04-05T14:47:16Z</time></trkpt><trkpt lat="34.89545966197932" lon="10.720689140691114"><ele>74.0</ele><time>2026-04-05T14:47:17Z</time></trkpt><trkpt lat="34.89526580851826" lon="10.720474955538384"><ele>74.0</ele><time>2026-04-05T14:47:18Z</time></trkpt><trkpt lat="34.895069970098575" lon="10.720257177977544"><ele>74.0</ele><time>2026-04-05T14:47:19Z</time></trkpt><trkpt lat="34.8948737469204" lon="10.720039611560292"><ele>75.0</ele><time>2026-04-05T14:47:20Z</time></trkpt><trkpt lat="34.894677853732894" lon="10.719822590179207"><ele>76.0</ele><time>2026-04-05T14:47:21Z</time></trkpt><trkpt lat="34.89446363762986" lon="10.7195841480726"><ele>76.5</ele><time>2026-04-05T14:47:22Z</time></trkpt><trkpt lat="34.89426830447387" lon="10.719359801362767"><ele>77.0</ele><time>2026-04-05T14:47:23Z</time></trkpt><trkpt lat="34.89407378238454" lon="10.719114570761475"><ele>76.0</ele><time>2026-04-05T14:47:24Z</time></trkpt><trkpt lat="34.893864429875485" lon="10.718886640872135"><ele>75.0</ele><time>2026-04-05T14:47:25Z</time></trkpt><trkpt lat="34.8936577402731" lon="10.718653456242812"><ele>75.0</ele><time>2026-04-05T14:47:26Z</time></trkpt><trkpt lat="34.89345549554354" lon="10.718415174169177"><ele>75.0</ele><time>2026-04-05T14:47:27Z</time></trkpt><trkpt lat="34.893251011976375" lon="10.71817396883745"><ele>74.5</ele><time>2026-04-05T14:47:28Z</time></trkpt><trkpt lat="34.893047713467425" lon="10.717932534408806"><ele>74.0</ele><time>2026-04-05T14:47:29Z</time></trkpt><trkpt lat="34.89284128726434" lon="10.717691857265406"><ele>74.0</ele><time>2026-04-05T14:47:30Z</time></trkpt><trkpt lat="34.89262801529741" lon="10.717447217832207"><ele>74.0</ele><time>2026-04-05T14:47:31Z</time></trkpt><trkpt lat="34.89240435439661" lon="10.717191119209298"><ele>73.0</ele><time>2026-04-05T14:47:32Z</time></trkpt><trkpt lat="34.892184583122784" lon="10.716938419482762"><ele>72.0</ele><time>2026-04-05T14:47:33Z</time></trkpt><trkpt lat="34.891959278772006" lon="10.716676815500048"><ele>71.0</ele><time>2026-04-05T14:47:34Z</time></trkpt><trkpt lat="34.891731494935605" lon="10.71642014487579"><ele>70.0</ele><time>2026-04-05T14:47:35Z</time></trkpt><trkpt lat="34.89150810054651" lon="10.71616421231107"><ele>71.0</ele><time>2026-04-05T14:47:36Z</time></trkpt><trkpt lat="34.8912873377064" lon="10.715912674922102"><ele>72.0</ele><time>2026-04-05T14:47:37Z</time></trkpt><trkpt lat="34.8910723765563" lon="10.715658974057135"><ele>70.5</ele><time>2026-04-05T14:47:38Z</time></trkpt><trkpt lat="34.890858552205586" lon="10.715410469692362"><ele>69.0</ele><time>2026-04-05T14:47:39Z</time></trkpt><trkpt lat="34.89063827305081" lon="10.715162131671855"><ele>69.0</ele><time>2026-04-05T14:47:40Z</time></trkpt><trkpt lat="34.890429419698194" lon="10.714917385622389"><ele>69.0</ele><time>2026-04-05T14:47:41Z</time></trkpt><trkpt lat="34.890214614997895" lon="10.714669216181818"><ele>69.0</ele><time>2026-04-05T14:47:42Z</time></trkpt><trkpt lat="34.88999987425486" lon="10.714424101045955"><ele>69.0</ele><time>2026-04-05T14:47:43Z</time></trkpt><trkpt lat="34.88978659329086" lon="10.714178510145599"><ele>69.0</ele><time>2026-04-05T14:47:44Z</time></trkpt><trkpt lat="34.889569752242586" lon="10.713929395826268"><ele>69.0</ele><time>2026-04-05T14:47:45Z</time></trkpt><trkpt lat="34.88934985480104" lon="10.713674542264648"><ele>69.0</ele><time>2026-04-05T14:47:46Z</time></trkpt><trkpt lat="34.88913303156018" lon="10.713415532634494"><ele>69.0</ele><time>2026-04-05T14:47:47Z</time></trkpt><trkpt lat="34.88891743980013" lon="10.713156965320652"><ele>69.0</ele><time>2026-04-05T14:47:48Z</time></trkpt><trkpt lat="34.88869978485464" lon="10.712897174779142"><ele>69.0</ele><time>2026-04-05T14:47:49Z</time></trkpt><trkpt lat="34.88847092168317" lon="10.712632304803595"><ele>69.0</ele><time>2026-04-05T14:47:50Z</time></trkpt><trkpt lat="34.88825543366191" lon="10.712375097431094"><ele>69.0</ele><time>2026-04-05T14:47:51Z</time></trkpt><trkpt lat="34.88804239094169" lon="10.712099603419365"><ele>69.5</ele><time>2026-04-05T14:47:52Z</time></trkpt><trkpt lat="34.887820564260785" lon="10.71184277566209"><ele>70.0</ele><time>2026-04-05T14:47:53Z</time></trkpt><trkpt lat="34.88759596549178" lon="10.711578082277322"><ele>69.5</ele><time>2026-04-05T14:47:54Z</time></trkpt><trkpt lat="34.88737661217796" lon="10.711313674725032"><ele>69.0</ele><time>2026-04-05T14:47:55Z</time></trkpt><trkpt lat="34.887158026425446" lon="10.711053689821693"><ele>69.0</ele><time>2026-04-05T14:47:56Z</time></trkpt><trkpt lat="34.88694213960131" lon="10.710803589955544"><ele>69.0</ele><time>2026-04-05T14:47:57Z</time></trkpt><trkpt lat="34.88672732191503" lon="10.710557051141958"><ele>68.5</ele><time>2026-04-05T14:47:58Z</time></trkpt><trkpt lat="34.8865122880272" lon="10.71031029946534"><ele>68.0</ele><time>2026-04-05T14:47:59Z</time></trkpt><trkpt lat="34.88629778368662" lon="10.710062147546651"><ele>67.5</ele><time>2026-04-05T14:48:00Z</time></trkpt><trkpt lat="34.88607942493874" lon="10.709807004119236"><ele>67.0</ele><time>2026-04-05T14:48:01Z</time></trkpt><trkpt lat="34.885861588807096" lon="10.709548635759893"><ele>68.0</ele><time>2026-04-05T14:48:02Z</time></trkpt><trkpt lat="34.88563515080169" lon="10.709284108349879"><ele>69.0</ele><time>2026-04-05T14:48:03Z</time></trkpt><trkpt lat="34.885429877391886" lon="10.709033559712152"><ele>69.0</ele><time>2026-04-05T14:48:04Z</time></trkpt><trkpt lat="34.88521778746829" lon="10.708779722028842"><ele>69.0</ele><time>2026-04-05T14:48:05Z</time></trkpt><trkpt lat="34.88500450975833" lon="10.708527283309358"><ele>68.0</ele><time>2026-04-05T14:48:06Z</time></trkpt><trkpt lat="34.88479019940832" lon="10.708273693160756"><ele>67.0</ele><time>2026-04-05T14:48:07Z</time></trkpt><trkpt lat="34.88457651008447" lon="10.708018959030978"><ele>67.0</ele><time>2026-04-05T14:48:08Z</time></trkpt><trkpt lat="34.8843611953095" lon="10.707764501214426"><ele>67.0</ele><time>2026-04-05T14:48:09Z</time></trkpt><trkpt lat="34.88414382960562" lon="10.70750853587855"><ele>67.0</ele><time>2026-04-05T14:48:10Z</time></trkpt><trkpt lat="34.88391889217571" lon="10.707248613363218"><ele>67.0</ele><time>2026-04-05T14:48:11Z</time></trkpt><trkpt lat="34.88369519701185" lon="10.706983475537674"><ele>66.0</ele><time>2026-04-05T14:48:12Z</time></trkpt><trkpt lat="34.883461207447425" lon="10.706716381683322"><ele>65.0</ele><time>2026-04-05T14:48:13Z</time></trkpt><trkpt lat="34.883224842261846" lon="10.706440613118598"><ele>65.0</ele><time>2026-04-05T14:48:14Z</time></trkpt><trkpt lat="34.88299195048309" lon="10.706160868779351"><ele>65.0</ele><time>2026-04-05T14:48:15Z</time></trkpt><trkpt lat="34.88276108448784" lon="10.70588113139831"><ele>63.0</ele><time>2026-04-05T14:48:16Z</time></trkpt><trkpt lat="34.882534370452056" lon="10.705600974932592"><ele>61.0</ele><time>2026-04-05T14:48:17Z</time></trkpt><trkpt lat="34.88231546360595" lon="10.705344253481929"><ele>61.5</ele><time>2026-04-05T14:48:18Z</time></trkpt><trkpt lat="34.88208099141822" lon="10.705066225215774"><ele>62.0</ele><time>2026-04-05T14:48:19Z</time></trkpt><trkpt lat="34.88185080198173" lon="10.704801349703823"><ele>60.5</ele><time>2026-04-05T14:48:20Z</time></trkpt><trkpt lat="34.88161997616866" lon="10.704543194890613"><ele>59.0</ele><time>2026-04-05T14:48:21Z</time></trkpt><trkpt lat="34.88139122296294" lon="10.704269143652283"><ele>59.0</ele><time>2026-04-05T14:48:22Z</time></trkpt><trkpt lat="34.88116072985019" lon="10.7040030304225"><ele>59.0</ele><time>2026-04-05T14:48:23Z</time></trkpt><trkpt lat="34.88091685097991" lon="10.703743224824615"><ele>58.5</ele><time>2026-04-05T14:48:24Z</time></trkpt><trkpt lat="34.88068914595176" lon="10.703473242917548"><ele>58.0</ele><time>2026-04-05T14:48:25Z</time></trkpt><trkpt lat="34.880452311986815" lon="10.703204768768975"><ele>58.0</ele><time>2026-04-05T14:48:26Z</time></trkpt><trkpt lat="34.88021678744422" lon="10.702943394873483"><ele>58.0</ele><time>2026-04-05T14:48:27Z</time></trkpt><trkpt lat="34.87998269392694" lon="10.702667198299197"><ele>61.0</ele><time>2026-04-05T14:48:28Z</time></trkpt><trkpt lat="34.87975476646653" lon="10.702385865548345"><ele>64.0</ele><time>2026-04-05T14:48:29Z</time></trkpt><trkpt lat="34.87952916278603" lon="10.702109553095047"><ele>64.0</ele><time>2026-04-05T14:48:30Z</time></trkpt><trkpt lat="34.87930312988735" lon="10.70183615566989"><ele>64.0</ele><time>2026-04-05T14:48:31Z</time></trkpt><trkpt lat="34.879079289497575" lon="10.701568774363054"><ele>64.5</ele><time>2026-04-05T14:48:32Z</time></trkpt><trkpt lat="34.87885658221013" lon="10.701305795272493"><ele>65.0</ele><time>2026-04-05T14:48:33Z</time></trkpt><trkpt lat="34.878634254784075" lon="10.701044844300997"><ele>65.5</ele><time>2026-04-05T14:48:34Z</time></trkpt><trkpt lat="34.878413181417216" lon="10.700782692905554"><ele>66.0</ele><time>2026-04-05T14:48:35Z</time></trkpt><trkpt lat="34.87817335926731" lon="10.700506306002842"><ele>66.0</ele><time>2026-04-05T14:48:36Z</time></trkpt><trkpt lat="34.877965532972176" lon="10.700251171476731"><ele>66.0</ele><time>2026-04-05T14:48:37Z</time></trkpt><trkpt lat="34.877754885358996" lon="10.699979526188555"><ele>65.5</ele><time>2026-04-05T14:48:38Z</time></trkpt><trkpt lat="34.87752491612331" lon="10.699729815869974"><ele>65.0</ele><time>2026-04-05T14:48:39Z</time></trkpt><trkpt lat="34.877287502856774" lon="10.699490240303923"><ele>66.5</ele><time>2026-04-05T14:48:40Z</time></trkpt><trkpt lat="34.87704602023793" lon="10.699252131186535"><ele>68.0</ele><time>2026-04-05T14:48:41Z</time></trkpt><trkpt lat="34.87684314348698" lon="10.698974543560352"><ele>67.0</ele><time>2026-04-05T14:48:42Z</time></trkpt><trkpt lat="34.876619856593955" lon="10.698738010387599"><ele>66.0</ele><time>2026-04-05T14:48:43Z</time></trkpt><trkpt lat="34.87639962115743" lon="10.698508826293958"><ele>66.0</ele><time>2026-04-05T14:48:44Z</time></trkpt><trkpt lat="34.87617062874322" lon="10.698282448867173"><ele>66.0</ele><time>2026-04-05T14:48:45Z</time></trkpt><trkpt lat="34.87594857103319" lon="10.69805689927129"><ele>67.5</ele><time>2026-04-05T14:48:46Z</time></trkpt><trkpt lat="34.875712329233075" lon="10.697806883660204"><ele>69.0</ele><time>2026-04-05T14:48:47Z</time></trkpt><trkpt lat="34.875481089332965" lon="10.69758928152163"><ele>69.5</ele><time>2026-04-05T14:48:48Z</time></trkpt><trkpt lat="34.875222493203644" lon="10.697318920884051"><ele>70.0</ele><time>2026-04-05T14:48:49Z</time></trkpt><trkpt lat="34.87499222634334" lon="10.697121885988444"><ele>70.5</ele><time>2026-04-05T14:48:50Z</time></trkpt><trkpt lat="34.87474742545161" lon="10.696899042104523"><ele>71.0</ele><time>2026-04-05T14:48:51Z</time></trkpt><trkpt lat="34.8744992700472" lon="10.696669689502633"><ele>71.5</ele><time>2026-04-05T14:48:52Z</time></trkpt><trkpt lat="34.87424201832687" lon="10.696436075482836"><ele>72.0</ele><time>2026-04-05T14:48:53Z</time></trkpt><trkpt lat="34.87397349153055" lon="10.696206789351814"><ele>72.5</ele><time>2026-04-05T14:48:54Z</time></trkpt><trkpt lat="34.87370856293507" lon="10.69598053310106"><ele>73.0</ele><time>2026-04-05T14:48:55Z</time></trkpt><trkpt lat="34.87343560476615" lon="10.695743415419663"><ele>73.0</ele><time>2026-04-05T14:48:56Z</time></trkpt><trkpt lat="34.87316461627049" lon="10.69552354038443"><ele>73.0</ele><time>2026-04-05T14:48:57Z</time></trkpt><trkpt lat="34.872892621131015" lon="10.695302544765626"><ele>73.5</ele><time>2026-04-05T14:48:58Z</time></trkpt><trkpt lat="34.87261626073741" lon="10.69508446009451"><ele>74.0</ele><time>2026-04-05T14:48:59Z</time></trkpt><trkpt lat="34.87233302596656" lon="10.694864782184515"><ele>74.0</ele><time>2026-04-05T14:49:00Z</time></trkpt><trkpt lat="34.87204915438391" lon="10.694648961571891"><ele>74.0</ele><time>2026-04-05T14:49:01Z</time></trkpt><trkpt lat="34.87176284909865" lon="10.694436309586722"><ele>74.5</ele><time>2026-04-05T14:49:02Z</time></trkpt><trkpt lat="34.87148937988631" lon="10.694234164419976"><ele>75.0</ele><time>2026-04-05T14:49:03Z</time></trkpt><trkpt lat="34.871210442786435" lon="10.694031071026334"><ele>75.0</ele><time>2026-04-05T14:49:04Z</time></trkpt><trkpt lat="34.8709361777883" lon="10.69382309147525"><ele>75.0</ele><time>2026-04-05T14:49:05Z</time></trkpt><trkpt lat="34.87066412264264" lon="10.693619615799916"><ele>76.0</ele><time>2026-04-05T14:49:06Z</time></trkpt><trkpt lat="34.870394018190645" lon="10.69341093273161"><ele>77.0</ele><time>2026-04-05T14:49:07Z</time></trkpt><trkpt lat="34.87013051349703" lon="10.693209839301668"><ele>76.5</ele><time>2026-04-05T14:49:08Z</time></trkpt><trkpt lat="34.86986878900308" lon="10.69301162459591"><ele>76.0</ele><time>2026-04-05T14:49:09Z</time></trkpt><trkpt lat="34.86960112885138" lon="10.69280112964358"><ele>77.0</ele><time>2026-04-05T14:49:10Z</time></trkpt><trkpt lat="34.86934555536503" lon="10.692614306228773"><ele>78.0</ele><time>2026-04-05T14:49:11Z</time></trkpt><trkpt lat="34.869089180273996" lon="10.692421711989963"><ele>78.0</ele><time>2026-04-05T14:49:12Z</time></trkpt><trkpt lat="34.86883583608583" lon="10.692233255490372"><ele>78.0</ele><time>2026-04-05T14:49:13Z</time></trkpt><trkpt lat="34.868568108387" lon="10.692031820563319"><ele>78.5</ele><time>2026-04-05T14:49:14Z</time></trkpt><trkpt lat="34.8683015493561" lon="10.6918405544526"><ele>79.0</ele><time>2026-04-05T14:49:15Z</time></trkpt><trkpt lat="34.86802393478581" lon="10.691635028981676"><ele>79.0</ele><time>2026-04-05T14:49:16Z</time></trkpt><trkpt lat="34.86773116886305" lon="10.69142625529408"><ele>79.0</ele><time>2026-04-05T14:49:17Z</time></trkpt><trkpt lat="34.86742747806617" lon="10.691207678301216"><ele>80.0</ele><time>2026-04-05T14:49:18Z</time></trkpt><trkpt lat="34.86712500348722" lon="10.690982752431484"><ele>81.0</ele><time>2026-04-05T14:49:19Z</time></trkpt><trkpt lat="34.86683146038433" lon="10.690763588358008"><ele>81.0</ele><time>2026-04-05T14:49:20Z</time></trkpt><trkpt lat="34.86654426074032" lon="10.690547898809756"><ele>81.0</ele><time>2026-04-05T14:49:21Z</time></trkpt><trkpt lat="34.866264816885256" lon="10.690334605327259"><ele>81.0</ele><time>2026-04-05T14:49:22Z</time></trkpt><trkpt lat="34.86598803248101" lon="10.69012385889149"><ele>81.0</ele><time>2026-04-05T14:49:23Z</time></trkpt><trkpt lat="34.865711768581306" lon="10.689916665209077"><ele>81.5</ele><time>2026-04-05T14:49:24Z</time></trkpt><trkpt lat="34.865433152666604" lon="10.68970895557884"><ele>82.0</ele><time>2026-04-05T14:49:25Z</time></trkpt><trkpt lat="34.86515523020201" lon="10.689497144617048"><ele>82.5</ele><time>2026-04-05T14:49:26Z</time></trkpt><trkpt lat="34.86487737071129" lon="10.689273815751173"><ele>83.0</ele><time>2026-04-05T14:49:27Z</time></trkpt><trkpt lat="34.864596309743426" lon="10.68903575596298"><ele>83.0</ele><time>2026-04-05T14:49:28Z</time></trkpt><trkpt lat="34.86431432080031" lon="10.688806314289819"><ele>83.0</ele><time>2026-04-05T14:49:29Z</time></trkpt><trkpt lat="34.864039655405584" lon="10.688600624618077"><ele>84.0</ele><time>2026-04-05T14:49:30Z</time></trkpt><trkpt lat="34.86377110705311" lon="10.688405117220913"><ele>85.0</ele><time>2026-04-05T14:49:31Z</time></trkpt><trkpt lat="34.86349752654448" lon="10.688203296469853"><ele>85.5</ele><time>2026-04-05T14:49:32Z</time></trkpt><trkpt lat="34.863225907352515" lon="10.688002068836257"><ele>86.0</ele><time>2026-04-05T14:49:33Z</time></trkpt><trkpt lat="34.862959299112376" lon="10.687799161340314"><ele>86.0</ele><time>2026-04-05T14:49:34Z</time></trkpt><trkpt lat="34.86269343432109" lon="10.687597047820747"><ele>86.0</ele><time>2026-04-05T14:49:35Z</time></trkpt><trkpt lat="34.86242935742062" lon="10.687396123284035"><ele>86.0</ele><time>2026-04-05T14:49:36Z</time></trkpt><trkpt lat="34.862162919612096" lon="10.687194954660386"><ele>86.0</ele><time>2026-04-05T14:49:37Z</time></trkpt><trkpt lat="34.86189984071558" lon="10.686997294972684"><ele>86.0</ele><time>2026-04-05T14:49:38Z</time></trkpt><trkpt lat="34.86164161854912" lon="10.686806604279603"><ele>86.0</ele><time>2026-04-05T14:49:39Z</time></trkpt><trkpt lat="34.86138422351764" lon="10.686622819979789"><ele>86.0</ele><time>2026-04-05T14:49:40Z</time></trkpt><trkpt lat="34.8611198630937" lon="10.686435965064916"><ele>86.0</ele><time>2026-04-05T14:49:41Z</time></trkpt><trkpt lat="34.860848252378524" lon="10.686244460344229"><ele>85.5</ele><time>2026-04-05T14:49:42Z</time></trkpt><trkpt lat="34.86057993202802" lon="10.686043532109439"><ele>85.0</ele><time>2026-04-05T14:49:43Z</time></trkpt><trkpt lat="34.86031404473398" lon="10.685842543742378"><ele>85.5</ele><time>2026-04-05T14:49:43.999Z</time></trkpt><trkpt lat="34.8600503836438" lon="10.685638768392575"><ele>86.0</ele><time>2026-04-05T14:49:45Z</time></trkpt><trkpt lat="34.85978041869287" lon="10.685439807861261"><ele>86.0</ele><time>2026-04-05T14:49:46Z</time></trkpt><trkpt lat="34.85949313766047" lon="10.685245919139831"><ele>86.0</ele><time>2026-04-05T14:49:47Z</time></trkpt><trkpt lat="34.8592401740531" lon="10.68504527416784"><ele>85.5</ele><time>2026-04-05T14:49:48Z</time></trkpt><trkpt lat="34.858974475662144" lon="10.684838050465526"><ele>85.0</ele><time>2026-04-05T14:49:49Z</time></trkpt><trkpt lat="34.85870574595176" lon="10.684629356451179"><ele>85.5</ele><time>2026-04-05T14:49:50Z</time></trkpt><trkpt lat="34.858438808740544" lon="10.684415353520048"><ele>86.0</ele><time>2026-04-05T14:49:51Z</time></trkpt><trkpt lat="34.85816951327698" lon="10.684199040133699"><ele>86.0</ele><time>2026-04-05T14:49:52Z</time></trkpt><trkpt lat="34.85789603361938" lon="10.683981966993892"><ele>86.0</ele><time>2026-04-05T14:49:53Z</time></trkpt><trkpt lat="34.85762149614713" lon="10.683769012569428"><ele>85.5</ele><time>2026-04-05T14:49:54Z</time></trkpt><trkpt lat="34.857341800875425" lon="10.68356156153611"><ele>85.0</ele><time>2026-04-05T14:49:55Z</time></trkpt><trkpt lat="34.85706020661621" lon="10.68335460107133"><ele>84.5</ele><time>2026-04-05T14:49:56Z</time></trkpt><trkpt lat="34.85676521900807" lon="10.683138815020786"><ele>84.0</ele><time>2026-04-05T14:49:57Z</time></trkpt><trkpt lat="34.85649260065356" lon="10.682928044117322"><ele>84.5</ele><time>2026-04-05T14:49:58Z</time></trkpt><trkpt lat="34.85623247434594" lon="10.682713888883113"><ele>85.0</ele><time>2026-04-05T14:49:59Z</time></trkpt><trkpt lat="34.85593333849975" lon="10.682505019826383"><ele>85.5</ele><time>2026-04-05T14:50:00Z</time></trkpt><trkpt lat="34.85565211695352" lon="10.682292338550257"><ele>86.0</ele><time>2026-04-05T14:50:01Z</time></trkpt><trkpt lat="34.855372715689626" lon="10.68208554436182"><ele>86.5</ele><time>2026-04-05T14:50:02Z</time></trkpt><trkpt lat="34.8550919509298" lon="10.681877949117002"><ele>87.0</ele><time>2026-04-05T14:50:03Z</time></trkpt><trkpt lat="34.854814572510115" lon="10.681665469245548"><ele>87.0</ele><time>2026-04-05T14:50:04Z</time></trkpt><trkpt lat="34.85454094081953" lon="10.68144405883885"><ele>87.0</ele><time>2026-04-05T14:50:05Z</time></trkpt><trkpt lat="34.854259884917575" lon="10.68124142929342"><ele>86.0</ele><time>2026-04-05T14:50:06Z</time></trkpt><trkpt lat="34.85397927317114" lon="10.68103491641192"><ele>85.0</ele><time>2026-04-05T14:50:07Z</time></trkpt><trkpt lat="34.85370402255938" lon="10.680829705804973"><ele>85.5</ele><time>2026-04-05T14:50:08Z</time></trkpt><trkpt lat="34.853424512802704" lon="10.68062162260254"><ele>86.0</ele><time>2026-04-05T14:50:09Z</time></trkpt><trkpt lat="34.85315361359426" lon="10.680424073646197"><ele>86.0</ele><time>2026-04-05T14:50:10Z</time></trkpt><trkpt lat="34.85288821176422" lon="10.680224842267235"><ele>86.0</ele><time>2026-04-05T14:50:11Z</time></trkpt><trkpt lat="34.8526236078052" lon="10.680022567207235"><ele>85.5</ele><time>2026-04-05T14:50:12Z</time></trkpt><trkpt lat="34.852359137251206" lon="10.67982846807149"><ele>85.0</ele><time>2026-04-05T14:50:13Z</time></trkpt><trkpt lat="34.8520853613889" lon="10.679615188155616"><ele>85.0</ele><time>2026-04-05T14:50:14Z</time></trkpt><trkpt lat="34.851824138081234" lon="10.679405112516697"><ele>85.0</ele><time>2026-04-05T14:50:15Z</time></trkpt><trkpt lat="34.85153739140753" lon="10.679196250110538"><ele>84.5</ele><time>2026-04-05T14:50:16Z</time></trkpt><trkpt lat="34.851257505224126" lon="10.678992613976106"><ele>84.0</ele><time>2026-04-05T14:50:17Z</time></trkpt><trkpt lat="34.850973351467836" lon="10.678782478943072"><ele>84.0</ele><time>2026-04-05T14:50:18Z</time></trkpt><trkpt lat="34.850686840908246" lon="10.678569738425093"><ele>84.0</ele><time>2026-04-05T14:50:19Z</time></trkpt><trkpt lat="34.85040186873356" lon="10.67835233688483"><ele>84.0</ele><time>2026-04-05T14:50:20Z</time></trkpt><trkpt lat="34.85011409040542" lon="10.67813483764683"><ele>84.0</ele><time>2026-04-05T14:50:21Z</time></trkpt><trkpt lat="34.8498307471237" lon="10.677917510668092"><ele>84.0</ele><time>2026-04-05T14:50:22Z</time></trkpt><trkpt lat="34.84956141349514" lon="10.677704883473059"><ele>84.0</ele><time>2026-04-05T14:50:23Z</time></trkpt><trkpt lat="34.84927314643822" lon="10.6774807492268"><ele>84.5</ele><time>2026-04-05T14:50:24Z</time></trkpt><trkpt lat="34.848987314946754" lon="10.67726538807643"><ele>85.0</ele><time>2026-04-05T14:50:25Z</time></trkpt><trkpt lat="34.84870231165126" lon="10.677059229955557"><ele>84.5</ele><time>2026-04-05T14:50:26Z</time></trkpt><trkpt lat="34.8484184222" lon="10.676846196703972"><ele>84.0</ele><time>2026-04-05T14:50:27Z</time></trkpt><trkpt lat="34.848137397303155" lon="10.676633252189397"><ele>84.0</ele><time>2026-04-05T14:50:28Z</time></trkpt><trkpt lat="34.847856250494814" lon="10.676415560715792"><ele>84.0</ele><time>2026-04-05T14:50:29Z</time></trkpt><trkpt lat="34.84757965621642" lon="10.676194000178507"><ele>84.0</ele><time>2026-04-05T14:50:30Z</time></trkpt><trkpt lat="34.84730816133851" lon="10.675966857616396"><ele>84.0</ele><time>2026-04-05T14:50:31Z</time></trkpt><trkpt lat="34.847041541212526" lon="10.675732260103118"><ele>83.5</ele><time>2026-04-05T14:50:32Z</time></trkpt><trkpt lat="34.846790225693695" lon="10.675477222417749"><ele>83.0</ele><time>2026-04-05T14:50:33Z</time></trkpt><trkpt lat="34.846531905328526" lon="10.675231752871591"><ele>84.0</ele><time>2026-04-05T14:50:34Z</time></trkpt><trkpt lat="34.846285369918746" lon="10.674972538570904"><ele>85.0</ele><time>2026-04-05T14:50:35Z</time></trkpt><trkpt lat="34.846042517548675" lon="10.674709971854812"><ele>84.0</ele><time>2026-04-05T14:50:36Z</time></trkpt><trkpt lat="34.845803655228444" lon="10.674441229134807"><ele>83.0</ele><time>2026-04-05T14:50:37Z</time></trkpt><trkpt lat="34.845570921477474" lon="10.674167694126481"><ele>82.5</ele><time>2026-04-05T14:50:38Z</time></trkpt><trkpt lat="34.84534266242314" lon="10.673887674478598"><ele>82.0</ele><time>2026-04-05T14:50:39Z</time></trkpt><trkpt lat="34.84512433420305" lon="10.673604837789096"><ele>83.0</ele><time>2026-04-05T14:50:40Z</time></trkpt><trkpt lat="34.84490916969722" lon="10.673319434398003"><ele>84.0</ele><time>2026-04-05T14:50:41Z</time></trkpt><trkpt lat="34.844700426579884" lon="10.67302915240009"><ele>84.0</ele><time>2026-04-05T14:50:42Z</time></trkpt><trkpt lat="34.84449898846281" lon="10.672733609704542"><ele>84.0</ele><time>2026-04-05T14:50:43Z</time></trkpt><trkpt lat="34.84429824917179" lon="10.672434209037176"><ele>83.5</ele><time>2026-04-05T14:50:44Z</time></trkpt><trkpt lat="34.84410473621203" lon="10.672130641294224"><ele>83.0</ele><time>2026-04-05T14:50:45Z</time></trkpt><trkpt lat="34.84391497757066" lon="10.671822785080685"><ele>84.0</ele><time>2026-04-05T14:50:46Z</time></trkpt><trkpt lat="34.84372967450408" lon="10.671511336335705"><ele>85.0</ele><time>2026-04-05T14:50:47Z</time></trkpt><trkpt lat="34.84354671148524" lon="10.671195578235695"><ele>84.5</ele><time>2026-04-05T14:50:48Z</time></trkpt><trkpt lat="34.84336666197714" lon="10.670880389942788"><ele>84.0</ele><time>2026-04-05T14:50:49Z</time></trkpt><trkpt lat="34.84319027584778" lon="10.670567463651397"><ele>81.5</ele><time>2026-04-05T14:50:50Z</time></trkpt><trkpt lat="34.843015174554544" lon="10.670254669800535"><ele>79.0</ele><time>2026-04-05T14:50:51Z</time></trkpt><trkpt lat="34.84283913459098" lon="10.669944124022008"><ele>79.0</ele><time>2026-04-05T14:50:52Z</time></trkpt><trkpt lat="34.84266512834797" lon="10.669633835611306"><ele>79.0</ele><time>2026-04-05T14:50:53Z</time></trkpt><trkpt lat="34.84248838602134" lon="10.669317595754702"><ele>79.5</ele><time>2026-04-05T14:50:54Z</time></trkpt><trkpt lat="34.84231139151672" lon="10.66901113013621"><ele>80.0</ele><time>2026-04-05T14:50:55Z</time></trkpt><trkpt lat="34.84213260316335" lon="10.668696843053388"><ele>81.5</ele><time>2026-04-05T14:50:56Z</time></trkpt><trkpt lat="34.84195543009354" lon="10.668389985350743"><ele>83.0</ele><time>2026-04-05T14:50:57Z</time></trkpt><trkpt lat="34.841776440055646" lon="10.668081098431005"><ele>83.0</ele><time>2026-04-05T14:50:58Z</time></trkpt><trkpt lat="34.84160121502222" lon="10.667773921980018"><ele>83.0</ele><time>2026-04-05T14:50:59Z</time></trkpt><trkpt lat="34.84142920552363" lon="10.66746614457428"><ele>83.0</ele><time>2026-04-05T14:51:00Z</time></trkpt><trkpt lat="34.84125846861224" lon="10.667158160714022"><ele>83.0</ele><time>2026-04-05T14:51:01Z</time></trkpt><trkpt lat="34.84108740052084" lon="10.666851431202762"><ele>81.5</ele><time>2026-04-05T14:51:02Z</time></trkpt><trkpt lat="34.840915202806606" lon="10.666542486266982"><ele>80.0</ele><time>2026-04-05T14:51:03Z</time></trkpt><trkpt lat="34.840742455267424" lon="10.666238069651444"><ele>79.5</ele><time>2026-04-05T14:51:04Z</time></trkpt><trkpt lat="34.84057107838088" lon="10.665937269529168"><ele>79.0</ele><time>2026-04-05T14:51:05Z</time></trkpt><trkpt lat="34.84040069201022" lon="10.6656408826169"><ele>79.0</ele><time>2026-04-05T14:51:06Z</time></trkpt><trkpt lat="34.84022835844007" lon="10.66534701308103"><ele>79.0</ele><time>2026-04-05T14:51:07Z</time></trkpt><trkpt lat="34.84005339274481" lon="10.665051303699006"><ele>78.0</ele><time>2026-04-05T14:51:08Z</time></trkpt><trkpt lat="34.8398820303591" lon="10.66475310540133"><ele>77.0</ele><time>2026-04-05T14:51:09Z</time></trkpt><trkpt lat="34.83970831179184" lon="10.664452039600338"><ele>75.5</ele><time>2026-04-05T14:51:10Z</time></trkpt><trkpt lat="34.83953984341692" lon="10.6641503267691"><ele>74.0</ele><time>2026-04-05T14:51:11Z</time></trkpt><trkpt lat="34.83936822699951" lon="10.663844547187388"><ele>73.5</ele><time>2026-04-05T14:51:12Z</time></trkpt><trkpt lat="34.83919839442587" lon="10.66353912368574"><ele>73.0</ele><time>2026-04-05T14:51:13Z</time></trkpt><trkpt lat="34.83902808709835" lon="10.663233058267313"><ele>73.0</ele><time>2026-04-05T14:51:14Z</time></trkpt><trkpt lat="34.83885615363658" lon="10.66292786449376"><ele>73.0</ele><time>2026-04-05T14:51:15Z</time></trkpt><trkpt lat="34.83868452259839" lon="10.66260799255006"><ele>73.0</ele><time>2026-04-05T14:51:16Z</time></trkpt><trkpt lat="34.83850677398706" lon="10.662310177690603"><ele>73.0</ele><time>2026-04-05T14:51:17Z</time></trkpt><trkpt lat="34.83833191192995" lon="10.662027651405937"><ele>74.0</ele><time>2026-04-05T14:51:18Z</time></trkpt><trkpt lat="34.838162523678854" lon="10.661709293724787"><ele>75.0</ele><time>2026-04-05T14:51:19Z</time></trkpt><trkpt lat="34.837991200641504" lon="10.661416145545026"><ele>75.0</ele><time>2026-04-05T14:51:20Z</time></trkpt><trkpt lat="34.83782050380411" lon="10.661120137736267"><ele>75.0</ele><time>2026-04-05T14:51:21Z</time></trkpt><trkpt lat="34.83764821019816" lon="10.660818071768798"><ele>75.0</ele><time>2026-04-05T14:51:22Z</time></trkpt><trkpt lat="34.837472964873356" lon="10.660512038776943"><ele>75.0</ele><time>2026-04-05T14:51:23Z</time></trkpt><trkpt lat="34.83729464885928" lon="10.660203520656449"><ele>75.0</ele><time>2026-04-05T14:51:24Z</time></trkpt><trkpt lat="34.83708661985418" lon="10.659875545568928"><ele>75.0</ele><time>2026-04-05T14:51:25Z</time></trkpt><trkpt lat="34.83691686333942" lon="10.659568384590125"><ele>73.0</ele><time>2026-04-05T14:51:26Z</time></trkpt><trkpt lat="34.83674144809689" lon="10.65925471203624"><ele>71.0</ele><time>2026-04-05T14:51:27Z</time></trkpt><trkpt lat="34.83655800722558" lon="10.658932414249605"><ele>71.0</ele><time>2026-04-05T14:51:28Z</time></trkpt><trkpt lat="34.836370485431246" lon="10.658599624680402"><ele>71.0</ele><time>2026-04-05T14:51:29Z</time></trkpt><trkpt lat="34.83618395720557" lon="10.658270786602378"><ele>71.0</ele><time>2026-04-05T14:51:30Z</time></trkpt><trkpt lat="34.83599853291784" lon="10.65794412545821"><ele>71.0</ele><time>2026-04-05T14:51:31Z</time></trkpt><trkpt lat="34.83581115354803" lon="10.65762831598104"><ele>69.5</ele><time>2026-04-05T14:51:32Z</time></trkpt><trkpt lat="34.83563061124165" lon="10.657319305467844"><ele>68.0</ele><time>2026-04-05T14:51:33Z</time></trkpt><trkpt lat="34.83546732175014" lon="10.657016011519254"><ele>68.5</ele><time>2026-04-05T14:51:34Z</time></trkpt><trkpt lat="34.8352981140113" lon="10.65671332237629"><ele>69.0</ele><time>2026-04-05T14:51:35Z</time></trkpt><trkpt lat="34.83511600286584" lon="10.656423448998767"><ele>69.0</ele><time>2026-04-05T14:51:36Z</time></trkpt><trkpt lat="34.834925815002954" lon="10.65613937363555"><ele>69.0</ele><time>2026-04-05T14:51:37Z</time></trkpt><trkpt lat="34.83473486911635" lon="10.65585509185138"><ele>68.5</ele><time>2026-04-05T14:51:38Z</time></trkpt><trkpt lat="34.83454227582371" lon="10.65557098090645"><ele>68.0</ele><time>2026-04-05T14:51:39Z</time></trkpt><trkpt lat="34.83434632201729" lon="10.65529569103389"><ele>65.5</ele><time>2026-04-05T14:51:40Z</time></trkpt><trkpt lat="34.83414400973397" lon="10.65502007286685"><ele>63.0</ele><time>2026-04-05T14:51:41Z</time></trkpt><trkpt lat="34.83393643799072" lon="10.654740568709371"><ele>63.0</ele><time>2026-04-05T14:51:42Z</time></trkpt><trkpt lat="34.83370665216264" lon="10.654465336234551"><ele>63.0</ele><time>2026-04-05T14:51:43Z</time></trkpt><trkpt lat="34.83348541553896" lon="10.654191395419772"><ele>64.0</ele><time>2026-04-05T14:51:44Z</time></trkpt><trkpt lat="34.833312187319784" lon="10.653904258705744"><ele>65.0</ele><time>2026-04-05T14:51:44.999Z</time></trkpt><trkpt lat="34.83310966452728" lon="10.653622951830622"><ele>65.5</ele><time>2026-04-05T14:51:45.999Z</time></trkpt><trkpt lat="34.832906546814016" lon="10.653345826006438"><ele>66.0</ele><time>2026-04-05T14:51:46.999Z</time></trkpt><trkpt lat="34.832701429677286" lon="10.6530699441438"><ele>66.0</ele><time>2026-04-05T14:51:47.999Z</time></trkpt><trkpt lat="34.832493059239205" lon="10.652795378529968"><ele>66.0</ele><time>2026-04-05T14:51:48.999Z</time></trkpt><trkpt lat="34.83228154807802" lon="10.652525964295743"><ele>66.0</ele><time>2026-04-05T14:51:49.999Z</time></trkpt><trkpt lat="34.83207047215923" lon="10.652259495958184"><ele>66.0</ele><time>2026-04-05T14:51:51Z</time></trkpt><trkpt lat="34.83186119757246" lon="10.651990249907067"><ele>65.5</ele><time>2026-04-05T14:51:52Z</time></trkpt><trkpt lat="34.831649598017776" lon="10.651718301887335"><ele>65.0</ele><time>2026-04-05T14:51:53Z</time></trkpt><trkpt lat="34.83143999428548" lon="10.651447777381728"><ele>65.0</ele><time>2026-04-05T14:51:54Z</time></trkpt><trkpt lat="34.831230053089854" lon="10.651176483045461"><ele>65.0</ele><time>2026-04-05T14:51:55Z</time></trkpt><trkpt lat="34.83101882806573" lon="10.65090859257237"><ele>66.0</ele><time>2026-04-05T14:51:56Z</time></trkpt><trkpt lat="34.83080965675507" lon="10.650635554934526"><ele>67.0</ele><time>2026-04-05T14:51:57Z</time></trkpt><trkpt lat="34.83060242352727" lon="10.650360675312609"><ele>68.0</ele><time>2026-04-05T14:51:58Z</time></trkpt><trkpt lat="34.8303919194761" lon="10.650081094052856"><ele>69.0</ele><time>2026-04-05T14:51:59Z</time></trkpt><trkpt lat="34.83017713548469" lon="10.649787607608134"><ele>69.5</ele><time>2026-04-05T14:52:00Z</time></trkpt><trkpt lat="34.82995415791551" lon="10.649478095499337"><ele>70.0</ele><time>2026-04-05T14:52:01Z</time></trkpt><trkpt lat="34.829724759628704" lon="10.649159029663654"><ele>71.0</ele><time>2026-04-05T14:52:02Z</time></trkpt><trkpt lat="34.829501839963186" lon="10.648835456475748"><ele>72.0</ele><time>2026-04-05T14:52:03Z</time></trkpt><trkpt lat="34.82929021108336" lon="10.648525759052971"><ele>73.5</ele><time>2026-04-05T14:52:04Z</time></trkpt><trkpt lat="34.829086821354366" lon="10.648231217433027"><ele>75.0</ele><time>2026-04-05T14:52:05Z</time></trkpt><trkpt lat="34.82889127205538" lon="10.647944702304786"><ele>75.0</ele><time>2026-04-05T14:52:06Z</time></trkpt><trkpt lat="34.82869781196457" lon="10.647655530128212"><ele>75.0</ele><time>2026-04-05T14:52:07Z</time></trkpt><trkpt lat="34.82850678959352" lon="10.647365698257843"><ele>75.5</ele><time>2026-04-05T14:52:08Z</time></trkpt><trkpt lat="34.82831616629606" lon="10.64707615580048"><ele>76.0</ele><time>2026-04-05T14:52:09Z</time></trkpt><trkpt lat="34.828130628430394" lon="10.6467863003056"><ele>77.0</ele><time>2026-04-05T14:52:10Z</time></trkpt><trkpt lat="34.827944717584266" lon="10.646496363965003"><ele>78.0</ele><time>2026-04-05T14:52:11Z</time></trkpt><trkpt lat="34.827758417507866" lon="10.646208338476606"><ele>77.5</ele><time>2026-04-05T14:52:12Z</time></trkpt><trkpt lat="34.827569915352264" lon="10.645922310371994"><ele>77.0</ele><time>2026-04-05T14:52:13Z</time></trkpt><trkpt lat="34.82737712281661" lon="10.645634254175404"><ele>77.0</ele><time>2026-04-05T14:52:14Z</time></trkpt><trkpt lat="34.82718972253275" lon="10.645347246049923"><ele>77.0</ele><time>2026-04-05T14:52:15Z</time></trkpt><trkpt lat="34.82700191405468" lon="10.645057567498407"><ele>77.0</ele><time>2026-04-05T14:52:16Z</time></trkpt><trkpt lat="34.82681689324943" lon="10.644772568105617"><ele>77.0</ele><time>2026-04-05T14:52:17Z</time></trkpt><trkpt lat="34.8266296208228" lon="10.644487188436944"><ele>78.0</ele><time>2026-04-05T14:52:18Z</time></trkpt><trkpt lat="34.826442894898854" lon="10.644200668736493"><ele>79.0</ele><time>2026-04-05T14:52:19Z</time></trkpt><trkpt lat="34.8262528912212" lon="10.64391177223271"><ele>78.5</ele><time>2026-04-05T14:52:20Z</time></trkpt><trkpt lat="34.82606128201604" lon="10.643618450957868"><ele>78.0</ele><time>2026-04-05T14:52:21Z</time></trkpt><trkpt lat="34.82586900013192" lon="10.643317592575757"><ele>77.5</ele><time>2026-04-05T14:52:22Z</time></trkpt><trkpt lat="34.82568188784226" lon="10.643028442401045"><ele>77.0</ele><time>2026-04-05T14:52:23Z</time></trkpt><trkpt lat="34.8254958798426" lon="10.6427423853709"><ele>77.0</ele><time>2026-04-05T14:52:24Z</time></trkpt><trkpt lat="34.825303832982264" lon="10.64245255501946"><ele>77.0</ele><time>2026-04-05T14:52:25Z</time></trkpt><trkpt lat="34.825110390203186" lon="10.642161522813387"><ele>77.5</ele><time>2026-04-05T14:52:26Z</time></trkpt><trkpt lat="34.82492050782713" lon="10.641874087869306"><ele>78.0</ele><time>2026-04-05T14:52:27Z</time></trkpt><trkpt lat="34.824729939010176" lon="10.641581627862418"><ele>78.0</ele><time>2026-04-05T14:52:28Z</time></trkpt><trkpt lat="34.82453956261684" lon="10.64128615287428"><ele>78.0</ele><time>2026-04-05T14:52:29Z</time></trkpt><trkpt lat="34.82435019717603" lon="10.64099029952306"><ele>78.5</ele><time>2026-04-05T14:52:30Z</time></trkpt><trkpt lat="34.82416191884259" lon="10.640696252575932"><ele>79.0</ele><time>2026-04-05T14:52:31Z</time></trkpt><trkpt lat="34.823975699991834" lon="10.640407474803075"><ele>81.0</ele><time>2026-04-05T14:52:32Z</time></trkpt><trkpt lat="34.823782608290585" lon="10.64010747106627"><ele>83.0</ele><time>2026-04-05T14:52:33Z</time></trkpt><trkpt lat="34.823587435200096" lon="10.639810304181099"><ele>82.0</ele><time>2026-04-05T14:52:34Z</time></trkpt><trkpt lat="34.82338826021194" lon="10.639512476984923"><ele>81.0</ele><time>2026-04-05T14:52:35Z</time></trkpt><trkpt lat="34.823178689108175" lon="10.639206960451782"><ele>81.0</ele><time>2026-04-05T14:52:36Z</time></trkpt><trkpt lat="34.82297930014384" lon="10.63890716653199"><ele>81.0</ele><time>2026-04-05T14:52:37Z</time></trkpt><trkpt lat="34.82277166673768" lon="10.63861118064528"><ele>80.5</ele><time>2026-04-05T14:52:38Z</time></trkpt><trkpt lat="34.82256084235497" lon="10.638315629915786"><ele>80.0</ele><time>2026-04-05T14:52:39Z</time></trkpt><trkpt lat="34.82234585512334" lon="10.638023323741361"><ele>81.5</ele><time>2026-04-05T14:52:40Z</time></trkpt><trkpt lat="34.8221264980771" lon="10.637737244563215"><ele>83.0</ele><time>2026-04-05T14:52:41Z</time></trkpt><trkpt lat="34.82190321533669" lon="10.637454151123114"><ele>83.0</ele><time>2026-04-05T14:52:42Z</time></trkpt><trkpt lat="34.82167687373265" lon="10.637173588028865"><ele>83.0</ele><time>2026-04-05T14:52:43Z</time></trkpt><trkpt lat="34.82145078186205" lon="10.636897552129703"><ele>83.0</ele><time>2026-04-05T14:52:44Z</time></trkpt><trkpt lat="34.82122013236592" lon="10.636624424270348"><ele>83.0</ele><time>2026-04-05T14:52:45Z</time></trkpt><trkpt lat="34.82098764129539" lon="10.636354839244376"><ele>84.0</ele><time>2026-04-05T14:52:46Z</time></trkpt><trkpt lat="34.8207512073202" lon="10.636088358046223"><ele>85.0</ele><time>2026-04-05T14:52:47Z</time></trkpt><trkpt lat="34.820506977713016" lon="10.635820917308902"><ele>85.0</ele><time>2026-04-05T14:52:48Z</time></trkpt><trkpt lat="34.820264700480706" lon="10.635563346873724"><ele>85.0</ele><time>2026-04-05T14:52:49Z</time></trkpt><trkpt lat="34.82001967520832" lon="10.635308443557852"><ele>85.5</ele><time>2026-04-05T14:52:50Z</time></trkpt><trkpt lat="34.81977228222387" lon="10.635053867071663"><ele>86.0</ele><time>2026-04-05T14:52:51Z</time></trkpt><trkpt lat="34.81952333204913" lon="10.634801894799924"><ele>86.0</ele><time>2026-04-05T14:52:52Z</time></trkpt><trkpt lat="34.819273902886316" lon="10.634557652610532"><ele>86.0</ele><time>2026-04-05T14:52:53Z</time></trkpt><trkpt lat="34.81902403293611" lon="10.634316543021708"><ele>86.5</ele><time>2026-04-05T14:52:54Z</time></trkpt><trkpt lat="34.81876940632352" lon="10.634086016735232"><ele>87.0</ele><time>2026-04-05T14:52:55Z</time></trkpt><trkpt lat="34.818512148714156" lon="10.633861509122069"><ele>88.5</ele><time>2026-04-05T14:52:56Z</time></trkpt><trkpt lat="34.81825071124506" lon="10.6336338030046"><ele>90.0</ele><time>2026-04-05T14:52:57Z</time></trkpt><trkpt lat="34.81799559790858" lon="10.633422205313149"><ele>90.0</ele><time>2026-04-05T14:52:58Z</time></trkpt><trkpt lat="34.81774900439108" lon="10.633213643390087"><ele>90.0</ele><time>2026-04-05T14:52:59Z</time></trkpt><trkpt lat="34.81751136108525" lon="10.633018708983421"><ele>90.0</ele><time>2026-04-05T14:53:00Z</time></trkpt><trkpt lat="34.81727097807665" lon="10.632828246389108"><ele>90.0</ele><time>2026-04-05T14:53:01Z</time></trkpt><trkpt lat="34.81702378783773" lon="10.632640542285783"><ele>90.0</ele><time>2026-04-05T14:53:02Z</time></trkpt><trkpt lat="34.81676945877503" lon="10.632448262567772"><ele>90.0</ele><time>2026-04-05T14:53:03Z</time></trkpt><trkpt lat="34.81651647346081" lon="10.632267243730809"><ele>90.0</ele><time>2026-04-05T14:53:04Z</time></trkpt><trkpt lat="34.81626187042429" lon="10.63208391428593"><ele>90.0</ele><time>2026-04-05T14:53:05Z</time></trkpt><trkpt lat="34.816006945642336" lon="10.631905886042263"><ele>89.5</ele><time>2026-04-05T14:53:06Z</time></trkpt><trkpt lat="34.81574982589472" lon="10.631728822176674"><ele>89.0</ele><time>2026-04-05T14:53:07Z</time></trkpt><trkpt lat="34.81549348609328" lon="10.63155536595752"><ele>89.0</ele><time>2026-04-05T14:53:08Z</time></trkpt><trkpt lat="34.81522380205143" lon="10.631380242574958"><ele>89.0</ele><time>2026-04-05T14:53:09Z</time></trkpt><trkpt lat="34.81496407989466" lon="10.63121014202933"><ele>89.5</ele><time>2026-04-05T14:53:10Z</time></trkpt><trkpt lat="34.81469925489181" lon="10.631034358662262"><ele>90.0</ele><time>2026-04-05T14:53:11Z</time></trkpt><trkpt lat="34.81443097243401" lon="10.630856522087136"><ele>89.5</ele><time>2026-04-05T14:53:12Z</time></trkpt><trkpt lat="34.81415490892974" lon="10.630666965293349"><ele>89.0</ele><time>2026-04-05T14:53:13Z</time></trkpt><trkpt lat="34.813906935893954" lon="10.630500093714662"><ele>89.0</ele><time>2026-04-05T14:53:14Z</time></trkpt><trkpt lat="34.813646850636" lon="10.630319220285156"><ele>89.0</ele><time>2026-04-05T14:53:15Z</time></trkpt><trkpt lat="34.813387493855046" lon="10.630144085794775"><ele>90.0</ele><time>2026-04-05T14:53:16Z</time></trkpt><trkpt lat="34.813134016741195" lon="10.629973075827893"><ele>91.0</ele><time>2026-04-05T14:53:17Z</time></trkpt><trkpt lat="34.81287891593861" lon="10.629803578512247"><ele>91.5</ele><time>2026-04-05T14:53:18Z</time></trkpt><trkpt lat="34.81262505509314" lon="10.629626038215036"><ele>92.0</ele><time>2026-04-05T14:53:19Z</time></trkpt><trkpt lat="34.81236964869054" lon="10.629448319311638"><ele>92.5</ele><time>2026-04-05T14:53:20Z</time></trkpt><trkpt lat="34.81211176404215" lon="10.629273943970423"><ele>93.0</ele><time>2026-04-05T14:53:21Z</time></trkpt><trkpt lat="34.81185369608335" lon="10.629103564701172"><ele>92.0</ele><time>2026-04-05T14:53:22Z</time></trkpt><trkpt lat="34.811595117740744" lon="10.628929308447143"><ele>91.0</ele><time>2026-04-05T14:53:23Z</time></trkpt><trkpt lat="34.811335215309306" lon="10.628753423121099"><ele>91.0</ele><time>2026-04-05T14:53:24Z</time></trkpt><trkpt lat="34.811070811234416" lon="10.62857292063294"><ele>91.0</ele><time>2026-04-05T14:53:25Z</time></trkpt><trkpt lat="34.81081632103777" lon="10.628404077069288"><ele>91.0</ele><time>2026-04-05T14:53:26Z</time></trkpt><trkpt lat="34.810558401006354" lon="10.628228100649899"><ele>91.0</ele><time>2026-04-05T14:53:27Z</time></trkpt><trkpt lat="34.81030060042834" lon="10.628050705859575"><ele>90.0</ele><time>2026-04-05T14:53:28Z</time></trkpt><trkpt lat="34.81004074052146" lon="10.627875468941399"><ele>89.0</ele><time>2026-04-05T14:53:29Z</time></trkpt><trkpt lat="34.80977875481963" lon="10.627701915147126"><ele>88.5</ele><time>2026-04-05T14:53:30Z</time></trkpt><trkpt lat="34.80951962887621" lon="10.627529247238549"><ele>88.0</ele><time>2026-04-05T14:53:31Z</time></trkpt><trkpt lat="34.80926004019415" lon="10.62735713016024"><ele>86.0</ele><time>2026-04-05T14:53:31.999Z</time></trkpt><trkpt lat="34.80900014651953" lon="10.627184262460917"><ele>84.0</ele><time>2026-04-05T14:53:32.999Z</time></trkpt><trkpt lat="34.80874124659858" lon="10.62700841562899"><ele>83.0</ele><time>2026-04-05T14:53:33.999Z</time></trkpt><trkpt lat="34.80848314425329" lon="10.626830054984111"><ele>82.0</ele><time>2026-04-05T14:53:34.999Z</time></trkpt><trkpt lat="34.80822667411159" lon="10.626654539475275"><ele>82.0</ele><time>2026-04-05T14:53:35.999Z</time></trkpt><trkpt lat="34.8079673392843" lon="10.6264853869438"><ele>82.0</ele><time>2026-04-05T14:53:36.999Z</time></trkpt><trkpt lat="34.80770766834807" lon="10.626316008131536"><ele>81.0</ele><time>2026-04-05T14:53:37.999Z</time></trkpt><trkpt lat="34.80745130693892" lon="10.626140786612217"><ele>80.0</ele><time>2026-04-05T14:53:38.999Z</time></trkpt><trkpt lat="34.807196676879514" lon="10.625963015272495"><ele>80.0</ele><time>2026-04-05T14:53:39.999Z</time></trkpt><trkpt lat="34.80694065193225" lon="10.62578476403334"><ele>80.0</ele><time>2026-04-05T14:53:40.999Z</time></trkpt><trkpt lat="34.806685344674136" lon="10.625614622274139"><ele>80.0</ele><time>2026-04-05T14:53:41.999Z</time></trkpt><trkpt lat="34.80642914647392" lon="10.625443023620495"><ele>80.0</ele><time>2026-04-05T14:53:42.999Z</time></trkpt><trkpt lat="34.806173167484424" lon="10.625276350899018"><ele>80.5</ele><time>2026-04-05T14:53:43.999Z</time></trkpt><trkpt lat="34.80591752264665" lon="10.625108015843189"><ele>81.0</ele><time>2026-04-05T14:53:44.999Z</time></trkpt><trkpt lat="34.80566147027444" lon="10.624940655187256"><ele>81.0</ele><time>2026-04-05T14:53:45.999Z</time></trkpt><trkpt lat="34.80540714167122" lon="10.624768831554228"><ele>81.0</ele><time>2026-04-05T14:53:46.999Z</time></trkpt><trkpt lat="34.80515044629258" lon="10.62459690839677"><ele>80.5</ele><time>2026-04-05T14:53:47.999Z</time></trkpt><trkpt lat="34.80488192999888" lon="10.624418586105172"><ele>80.0</ele><time>2026-04-05T14:53:48.999Z</time></trkpt><trkpt lat="34.8046303757048" lon="10.624245118008005"><ele>80.0</ele><time>2026-04-05T14:53:49.999Z</time></trkpt><trkpt lat="34.804369847601926" lon="10.624070390247534"><ele>80.0</ele><time>2026-04-05T14:53:50.999Z</time></trkpt><trkpt lat="34.80410770577214" lon="10.623895652487336"><ele>79.5</ele><time>2026-04-05T14:53:51.999Z</time></trkpt><trkpt lat="34.803846497704235" lon="10.623721777821377"><ele>79.0</ele><time>2026-04-05T14:53:52.999Z</time></trkpt><trkpt lat="34.80358839230629" lon="10.623546681299713"><ele>77.5</ele><time>2026-04-05T14:53:53.999Z</time></trkpt><trkpt lat="34.8033204512647" lon="10.623381643240636"><ele>76.0</ele><time>2026-04-05T14:53:54.999Z</time></trkpt><trkpt lat="34.80307795610615" lon="10.623197568734264"><ele>76.0</ele><time>2026-04-05T14:53:55.999Z</time></trkpt><trkpt lat="34.80282298483171" lon="10.62302239664061"><ele>76.0</ele><time>2026-04-05T14:53:57Z</time></trkpt><trkpt lat="34.80256820597355" lon="10.622849118023263"><ele>76.5</ele><time>2026-04-05T14:53:58Z</time></trkpt><trkpt lat="34.80230822030322" lon="10.622678117162145"><ele>77.0</ele><time>2026-04-05T14:53:59Z</time></trkpt><trkpt lat="34.80205746133678" lon="10.622505089784124"><ele>77.5</ele><time>2026-04-05T14:54:00Z</time></trkpt><trkpt lat="34.801805682739385" lon="10.62233333474559"><ele>78.0</ele><time>2026-04-05T14:54:01Z</time></trkpt><trkpt lat="34.80155114880297" lon="10.622162977922676"><ele>78.0</ele><time>2026-04-05T14:54:02Z</time></trkpt><trkpt lat="34.80129449264048" lon="10.621990863815935"><ele>78.0</ele><time>2026-04-05T14:54:03Z</time></trkpt><trkpt lat="34.80103498397454" lon="10.621817138730831"><ele>79.5</ele><time>2026-04-05T14:54:04Z</time></trkpt><trkpt lat="34.80077228354002" lon="10.621640082909352"><ele>81.0</ele><time>2026-04-05T14:54:05Z</time></trkpt><trkpt lat="34.80051301892608" lon="10.621463047263564"><ele>81.0</ele><time>2026-04-05T14:54:06Z</time></trkpt><trkpt lat="34.800254431521694" lon="10.62129010202581"><ele>81.0</ele><time>2026-04-05T14:54:07Z</time></trkpt><trkpt lat="34.79999191126494" lon="10.621112948678238"><ele>81.0</ele><time>2026-04-05T14:54:08Z</time></trkpt><trkpt lat="34.79972743865635" lon="10.620932721756184"><ele>81.0</ele><time>2026-04-05T14:54:09Z</time></trkpt><trkpt lat="34.79946361724214" lon="10.620753932260744"><ele>79.5</ele><time>2026-04-05T14:54:10Z</time></trkpt><trkpt lat="34.79919722671478" lon="10.620575621424589"><ele>78.0</ele><time>2026-04-05T14:54:11Z</time></trkpt><trkpt lat="34.798929855544166" lon="10.620397780364508"><ele>79.0</ele><time>2026-04-05T14:54:12Z</time></trkpt><trkpt lat="34.79865763149804" lon="10.620217322228601"><ele>80.0</ele><time>2026-04-05T14:54:13Z</time></trkpt><trkpt lat="34.79837292412466" lon="10.620029278260281"><ele>81.0</ele><time>2026-04-05T14:54:14Z</time></trkpt><trkpt lat="34.79807202804957" lon="10.619833438753451"><ele>82.0</ele><time>2026-04-05T14:54:15Z</time></trkpt><trkpt lat="34.797758487828304" lon="10.619629382139152"><ele>83.0</ele><time>2026-04-05T14:54:16Z</time></trkpt><trkpt lat="34.79744071109775" lon="10.619419135835502"><ele>84.0</ele><time>2026-04-05T14:54:17Z</time></trkpt><trkpt lat="34.79711795412606" lon="10.619199322702464"><ele>85.0</ele><time>2026-04-05T14:54:18Z</time></trkpt><trkpt lat="34.7968066422484" lon="10.618986173151926"><ele>86.0</ele><time>2026-04-05T14:54:19Z</time></trkpt><trkpt lat="34.79650947512068" lon="10.618784482324907"><ele>86.0</ele><time>2026-04-05T14:54:20Z</time></trkpt><trkpt lat="34.79622784006746" lon="10.618593870496014"><ele>86.0</ele><time>2026-04-05T14:54:21Z</time></trkpt><trkpt lat="34.79596432569368" lon="10.618409816280773"><ele>86.0</ele><time>2026-04-05T14:54:22Z</time></trkpt><trkpt lat="34.79569701375935" lon="10.6182208698929"><ele>86.0</ele><time>2026-04-05T14:54:23Z</time></trkpt><trkpt lat="34.79541850920063" lon="10.618029272535141"><ele>86.5</ele><time>2026-04-05T14:54:24Z</time></trkpt><trkpt lat="34.79516081868971" lon="10.617856316683461"><ele>87.0</ele><time>2026-04-05T14:54:25Z</time></trkpt><trkpt lat="34.794894807671085" lon="10.617684485376456"><ele>87.5</ele><time>2026-04-05T14:54:26Z</time></trkpt><trkpt lat="34.79462855561163" lon="10.61751668138141"><ele>88.0</ele><time>2026-04-05T14:54:27Z</time></trkpt><trkpt lat="34.79435991340153" lon="10.617351649992125"><ele>88.5</ele><time>2026-04-05T14:54:28Z</time></trkpt><trkpt lat="34.79409163428202" lon="10.617194250739116"><ele>89.0</ele><time>2026-04-05T14:54:29Z</time></trkpt><trkpt lat="34.79381236463743" lon="10.617038113607505"><ele>89.5</ele><time>2026-04-05T14:54:30Z</time></trkpt><trkpt lat="34.79354039774492" lon="10.616889262083042"><ele>90.0</ele><time>2026-04-05T14:54:31Z</time></trkpt><trkpt lat="34.793259603713885" lon="10.616739674526604"><ele>89.0</ele><time>2026-04-05T14:54:32Z</time></trkpt><trkpt lat="34.79298059752624" lon="10.616590408578094"><ele>88.0</ele><time>2026-04-05T14:54:33Z</time></trkpt><trkpt lat="34.79269908574446" lon="10.616443611428815"><ele>87.0</ele><time>2026-04-05T14:54:34Z</time></trkpt><trkpt lat="34.79241914691626" lon="10.616300798426096"><ele>86.0</ele><time>2026-04-05T14:54:35Z</time></trkpt><trkpt lat="34.79213346054887" lon="10.616164880999928"><ele>86.5</ele><time>2026-04-05T14:54:36Z</time></trkpt><trkpt lat="34.791840787386704" lon="10.61602938116891"><ele>87.0</ele><time>2026-04-05T14:54:37Z</time></trkpt><trkpt lat="34.791526414619234" lon="10.615892427220913"><ele>84.5</ele><time>2026-04-05T14:54:38Z</time></trkpt><trkpt lat="34.791189407801106" lon="10.615761462381862"><ele>82.0</ele><time>2026-04-05T14:54:39Z</time></trkpt><trkpt lat="34.790854359900294" lon="10.615630352538286"><ele>81.0</ele><time>2026-04-05T14:54:40Z</time></trkpt><trkpt lat="34.79053498057813" lon="10.615504830052936"><ele>80.0</ele><time>2026-04-05T14:54:41Z</time></trkpt><trkpt lat="34.790230561821815" lon="10.61538318082914"><ele>79.0</ele><time>2026-04-05T14:54:42Z</time></trkpt><trkpt lat="34.7899354295425" lon="10.615274836167604"><ele>78.0</ele><time>2026-04-05T14:54:43Z</time></trkpt><trkpt lat="34.7896453540706" lon="10.615174379703552"><ele>78.0</ele><time>2026-04-05T14:54:44Z</time></trkpt><trkpt lat="34.78935996620781" lon="10.615079930558533"><ele>78.0</ele><time>2026-04-05T14:54:45Z</time></trkpt><trkpt lat="34.78907750054261" lon="10.614989665925583"><ele>77.5</ele><time>2026-04-05T14:54:46Z</time></trkpt><trkpt lat="34.78879572112024" lon="10.614903276057126"><ele>77.0</ele><time>2026-04-05T14:54:47Z</time></trkpt><trkpt lat="34.78851234971294" lon="10.614818200418831"><ele>76.0</ele><time>2026-04-05T14:54:48Z</time></trkpt><trkpt lat="34.78821918786635" lon="10.614731736697728"><ele>75.0</ele><time>2026-04-05T14:54:49Z</time></trkpt><trkpt lat="34.78790933876683" lon="10.614646856306678"><ele>75.0</ele><time>2026-04-05T14:54:50Z</time></trkpt><trkpt lat="34.78757668790202" lon="10.61455100241076"><ele>75.0</ele><time>2026-04-05T14:54:51Z</time></trkpt><trkpt lat="34.78726354420805" lon="10.6144707563755"><ele>75.0</ele><time>2026-04-05T14:54:52Z</time></trkpt><trkpt lat="34.78696200372853" lon="10.61439411390786"><ele>75.0</ele><time>2026-04-05T14:54:53Z</time></trkpt><trkpt lat="34.78667726178569" lon="10.614320364130794"><ele>75.0</ele><time>2026-04-05T14:54:54Z</time></trkpt><trkpt lat="34.78639484283547" lon="10.614243457326571"><ele>75.0</ele><time>2026-04-05T14:54:55Z</time></trkpt><trkpt lat="34.78610548775694" lon="10.614167541259887"><ele>76.0</ele><time>2026-04-05T14:54:56Z</time></trkpt><trkpt lat="34.78582157471318" lon="10.614095467241112"><ele>77.0</ele><time>2026-04-05T14:54:57Z</time></trkpt><trkpt lat="34.78553935932647" lon="10.614025282531422"><ele>77.0</ele><time>2026-04-05T14:54:58Z</time></trkpt><trkpt lat="34.78525858916579" lon="10.613958256035408"><ele>77.0</ele><time>2026-04-05T14:54:59Z</time></trkpt><trkpt lat="34.78498196187834" lon="10.613887393981353"><ele>78.0</ele><time>2026-04-05T14:55:00Z</time></trkpt><trkpt lat="34.78470919707722" lon="10.613818918922451"><ele>79.0</ele><time>2026-04-05T14:55:01Z</time></trkpt><trkpt lat="34.784443374010785" lon="10.613753939529825"><ele>79.0</ele><time>2026-04-05T14:55:02Z</time></trkpt><trkpt lat="34.78418009060514" lon="10.61368933407328"><ele>79.0</ele><time>2026-04-05T14:55:03Z</time></trkpt><trkpt lat="34.78392201191644" lon="10.613621486481197"><ele>79.0</ele><time>2026-04-05T14:55:04Z</time></trkpt><trkpt lat="34.78366807692094" lon="10.61355556119407"><ele>79.0</ele><time>2026-04-05T14:55:05Z</time></trkpt><trkpt lat="34.78341886445375" lon="10.613490679517728"><ele>78.5</ele><time>2026-04-05T14:55:06Z</time></trkpt><trkpt lat="34.783161785132904" lon="10.613417285381754"><ele>78.0</ele><time>2026-04-05T14:55:07Z</time></trkpt><trkpt lat="34.782910028280945" lon="10.613360911422765"><ele>76.5</ele><time>2026-04-05T14:55:08Z</time></trkpt><trkpt lat="34.78265952565385" lon="10.613297029545684"><ele>75.0</ele><time>2026-04-05T14:55:09Z</time></trkpt><trkpt lat="34.78240918777664" lon="10.61323379392925"><ele>75.0</ele><time>2026-04-05T14:55:10Z</time></trkpt><trkpt lat="34.782162820355566" lon="10.613167793630485"><ele>75.0</ele><time>2026-04-05T14:55:11Z</time></trkpt><trkpt lat="34.781913479862034" lon="10.613107893005772"><ele>73.5</ele><time>2026-04-05T14:55:12Z</time></trkpt><trkpt lat="34.78166864701724" lon="10.613046150256249"><ele>72.0</ele><time>2026-04-05T14:55:13Z</time></trkpt><trkpt lat="34.78142181269697" lon="10.6129846617011"><ele>72.0</ele><time>2026-04-05T14:55:14Z</time></trkpt><trkpt lat="34.78117287325323" lon="10.612920795143841"><ele>72.0</ele><time>2026-04-05T14:55:15Z</time></trkpt><trkpt lat="34.780921336518944" lon="10.612858378956853"><ele>70.5</ele><time>2026-04-05T14:55:16Z</time></trkpt><trkpt lat="34.780670265125394" lon="10.612796850309936"><ele>69.0</ele><time>2026-04-05T14:55:17Z</time></trkpt><trkpt lat="34.78041313055374" lon="10.612733571926999"><ele>70.5</ele><time>2026-04-05T14:55:18Z</time></trkpt><trkpt lat="34.78015558695837" lon="10.612668436403787"><ele>72.0</ele><time>2026-04-05T14:55:19Z</time></trkpt><trkpt lat="34.77989946843224" lon="10.61260430372261"><ele>72.0</ele><time>2026-04-05T14:55:20Z</time></trkpt><trkpt lat="34.779653525345374" lon="10.612543784520257"><ele>72.0</ele><time>2026-04-05T14:55:21Z</time></trkpt><trkpt lat="34.779414714194935" lon="10.612485024059223"><ele>71.0</ele><time>2026-04-05T14:55:22Z</time></trkpt><trkpt lat="34.7791764072402" lon="10.612423543969728"><ele>70.0</ele><time>2026-04-05T14:55:23Z</time></trkpt><trkpt lat="34.77893286679067" lon="10.612358589860284"><ele>70.0</ele><time>2026-04-05T14:55:24Z</time></trkpt><trkpt lat="34.77869155081884" lon="10.612298018668806"><ele>70.0</ele><time>2026-04-05T14:55:25Z</time></trkpt><trkpt lat="34.778462778239245" lon="10.61224045732256"><ele>69.5</ele><time>2026-04-05T14:55:26Z</time></trkpt><trkpt lat="34.77823505939949" lon="10.61218469782013"><ele>69.0</ele><time>2026-04-05T14:55:27Z</time></trkpt><trkpt lat="34.77800854353222" lon="10.612128820944957"><ele>69.0</ele><time>2026-04-05T14:55:28Z</time></trkpt><trkpt lat="34.77778154578023" lon="10.612074492288475"><ele>69.0</ele><time>2026-04-05T14:55:28.999Z</time></trkpt><trkpt lat="34.77755487470703" lon="10.61201803145979"><ele>69.0</ele><time>2026-04-05T14:55:29.999Z</time></trkpt><trkpt lat="34.77733011011453" lon="10.611962095884326"><ele>69.0</ele><time>2026-04-05T14:55:30.999Z</time></trkpt><trkpt lat="34.777107822390555" lon="10.611906750072288"><ele>69.0</ele><time>2026-04-05T14:55:31.999Z</time></trkpt><trkpt lat="34.7768976169713" lon="10.611851419821186"><ele>69.0</ele><time>2026-04-05T14:55:32.999Z</time></trkpt><trkpt lat="34.776695973325104" lon="10.611796988052706"><ele>69.0</ele><time>2026-04-05T14:55:33.999Z</time></trkpt><trkpt lat="34.77649984861647" lon="10.611741822046532"><ele>69.33333333333333</ele><time>2026-04-05T14:55:34.999Z</time></trkpt><trkpt lat="34.776323804931266" lon="10.611697524679133"><ele>69.66666666666666</ele><time>2026-04-05T14:55:35.999Z</time></trkpt><trkpt lat="34.77614923459688" lon="10.61165086604549"><ele>70.0</ele><time>2026-04-05T14:55:36.999Z</time></trkpt><trkpt lat="34.775986428173" lon="10.611605508503914"><ele>70.33333333333333</ele><time>2026-04-05T14:55:37.999Z</time></trkpt><trkpt lat="34.775831765886245" lon="10.611561247940132"><ele>70.66666666666667</ele><time>2026-04-05T14:55:38.999Z</time></trkpt><trkpt lat="34.77568582982751" lon="10.611520738737267"><ele>71.0</ele><time>2026-04-05T14:55:39.999Z</time></trkpt><trkpt lat="34.77553068800513" lon="10.611472902802577"><ele>71.0</ele><time>2026-04-05T14:55:40.999Z</time></trkpt><trkpt lat="34.77541570122752" lon="10.611439877821224"><ele>71.0</ele><time>2026-04-05T14:55:41.999Z</time></trkpt><trkpt lat="34.77530328025675" lon="10.611393841539481"><ele>71.0</ele><time>2026-04-05T14:55:42.999Z</time></trkpt><trkpt lat="34.77519017643278" lon="10.61136519748152"><ele>71.0</ele><time>2026-04-05T14:55:43.999Z</time></trkpt><trkpt lat="34.77508496700975" lon="10.611332203267644"><ele>70.6</ele><time>2026-04-05T14:55:44.999Z</time></trkpt><trkpt lat="34.774983995188066" lon="10.611296510013023"><ele>70.19999999999999</ele><time>2026-04-05T14:55:45.999Z</time></trkpt><trkpt lat="34.774901338585885" lon="10.611236688317884"><ele>69.80000000000001</ele><time>2026-04-05T14:55:46.999Z</time></trkpt><trkpt lat="34.77480752217423" lon="10.611181625650273"><ele>69.4</ele><time>2026-04-05T14:55:47.999Z</time></trkpt><trkpt lat="34.774718722977795" lon="10.611106452265629"><ele>69.0</ele><time>2026-04-05T14:55:48.999Z</time></trkpt><trkpt lat="34.77465799741838" lon="10.611032526431178"><ele>69.0</ele><time>2026-04-05T14:55:49.999Z</time></trkpt><trkpt lat="34.77459127731208" lon="10.610952442852792"><ele>69.0</ele><time>2026-04-05T14:55:50.999Z</time></trkpt><trkpt lat="34.77453199862455" lon="10.610869512665285"><ele>69.0</ele><time>2026-04-05T14:55:51.999Z</time></trkpt><trkpt lat="34.7744856186327" lon="10.610790529753764"><ele>69.0</ele><time>2026-04-05T14:55:52.999Z</time></trkpt><trkpt lat="34.774442604321614" lon="10.610711862487713"><ele>69.0</ele><time>2026-04-05T14:55:53.999Z</time></trkpt><trkpt lat="34.77439750112247" lon="10.610637120133191"><ele>69.0</ele><time>2026-04-05T14:55:54.999Z</time></trkpt><trkpt lat="34.774352810088054" lon="10.610555218953216"><ele>69.33333333333333</ele><time>2026-04-05T14:55:55.999Z</time></trkpt><trkpt lat="34.774311289168196" lon="10.610476675267414"><ele>69.66666666666667</ele><time>2026-04-05T14:55:56.999Z</time></trkpt><trkpt lat="34.774274096861554" lon="10.610406865115614"><ele>70.0</ele><time>2026-04-05T14:55:57.999Z</time></trkpt><trkpt lat="34.77423776493772" lon="10.610342910706674"><ele>70.33333333333334</ele><time>2026-04-05T14:55:58.999Z</time></trkpt><trkpt lat="34.774142722495895" lon="10.610257343610375"><ele>70.66666666666667</ele><time>2026-04-05T14:56:00.999Z</time></trkpt><trkpt lat="34.77403317587708" lon="10.61026334119428"><ele>71.0</ele><time>2026-04-05T14:56:03Z</time></trkpt><trkpt lat="34.773970161332116" lon="10.610281652270912"><ele>71.16666666666667</ele><time>2026-04-05T14:56:04Z</time></trkpt><trkpt lat="34.77385184451637" lon="10.610292852566658"><ele>71.33333333333334</ele><time>2026-04-05T14:56:06Z</time></trkpt><trkpt lat="34.77375236515484" lon="10.610289562199567"><ele>71.5</ele><time>2026-04-05T14:56:08Z</time></trkpt><trkpt lat="34.77367304535069" lon="10.61031189929195"><ele>71.66666666666667</ele><time>2026-04-05T14:59:48Z</time></trkpt><trkpt lat="34.7735909975871" lon="10.610298421383192"><ele>71.83333333333333</ele><time>2026-04-05T14:59:52Z</time></trkpt><trkpt lat="34.77354885639517" lon="10.61023502173368"><ele>72.0</ele><time>2026-04-05T15:04:46Z</time></trkpt><trkpt lat="34.7735419559418" lon="10.610156135872437"><ele>72.14285714285715</ele><time>2026-04-05T15:05:01Z</time></trkpt><trkpt lat="34.77347024107373" lon="10.610175249331034"><ele>72.28571428571429</ele><time>2026-04-05T15:05:07Z</time></trkpt><trkpt lat="34.773407901299734" lon="10.61023692373546"><ele>72.42857142857143</ele><time>2026-04-05T15:05:15Z</time></trkpt><trkpt lat="34.77333457045516" lon="10.610217182118998"><ele>72.57142857142858</ele><time>2026-04-05T15:05:19Z</time></trkpt><trkpt lat="34.7733866039857" lon="10.610165136590146"><ele>72.71428571428572</ele><time>2026-04-05T15:05:30Z</time></trkpt><trkpt lat="34.77344566077541" lon="10.610133999809166"><ele>72.85714285714286</ele><time>2026-04-05T15:05:40Z</time></trkpt><trkpt lat="34.77337023737526" lon="10.610129947739788"><ele>73.0</ele><time>2026-04-05T15:05:42Z</time></trkpt><trkpt lat="34.77323522565577" lon="10.610122646555524"><ele>73.0</ele><time>2026-04-05T15:05:58.999Z</time></trkpt><trkpt lat="34.77330370600953" lon="10.61010212124848"><ele>73.0</ele><time>2026-04-05T15:06:38Z</time></trkpt><trkpt lat="34.77337504804138" lon="10.61007602624486"><ele>73.0</ele><time>2026-04-05T15:06:48Z</time></trkpt><trkpt lat="34.77339151461045" lon="10.609995047186795"><ele>73.0</ele><time>2026-04-05T15:07:00Z</time></trkpt><trkpt lat="34.77336814369179" lon="10.610135066612987"><ele>73.0</ele><time>2026-04-05T15:07:38.078Z</time></trkpt><trkpt lat="34.77340966290486" lon="10.610202036655577"><ele>73.0</ele><time>2026-04-05T15:08:31.999Z</time></trkpt><trkpt lat="34.77348193856653" lon="10.6102474057796"><ele>73.0</ele><time>2026-04-05T15:08:36.999Z</time></trkpt><trkpt lat="34.77354661054906" lon="10.61022537044759"><ele>73.0</ele><time>2026-04-05T15:08:40Z</time></trkpt><trkpt lat="34.773566243900675" lon="10.610298247973656"><ele>73.0</ele><time>2026-04-05T15:10:41.999Z</time></trkpt><trkpt lat="34.77353193982636" lon="10.610389946775218"><ele>73.0</ele><time>2026-04-05T15:10:44Z</time></trkpt><trkpt lat="34.773440015597146" lon="10.61039447650715"><ele>73.0</ele><time>2026-04-05T15:10:46Z</time></trkpt><trkpt lat="34.77331969402014" lon="10.6103512192405"><ele>73.0</ele><time>2026-04-05T15:10:48Z</time></trkpt><trkpt lat="34.77325467994638" lon="10.610335663854476"><ele>73.0</ele><time>2026-04-05T15:10:49Z</time></trkpt><trkpt lat="34.7731895953719" lon="10.61032490243649"><ele>73.0</ele><time>2026-04-05T15:10:50Z</time></trkpt><trkpt lat="34.7730692875417" lon="10.610288910472299"><ele>73.0</ele><time>2026-04-05T15:10:52Z</time></trkpt><trkpt lat="34.77300751563792" lon="10.610271973192996"><ele>73.0</ele><time>2026-04-05T15:10:53Z</time></trkpt><trkpt lat="34.772944796758736" lon="10.610256086308025"><ele>73.0</ele><time>2026-04-05T15:10:54Z</time></trkpt><trkpt lat="34.77288241100612" lon="10.610237678375807"><ele>73.0</ele><time>2026-04-05T15:10:55Z</time></trkpt><trkpt lat="34.7728201114037" lon="10.610222437822326"><ele>73.0</ele><time>2026-04-05T15:10:56Z</time></trkpt><trkpt lat="34.772756263871045" lon="10.610206469897681"><ele>73.0</ele><time>2026-04-05T15:10:57Z</time></trkpt><trkpt lat="34.77269308309145" lon="10.610190140418512"><ele>73.0</ele><time>2026-04-05T15:10:58Z</time></trkpt><trkpt lat="34.7726285260276" lon="10.61017403106854"><ele>73.0</ele><time>2026-04-05T15:10:59Z</time></trkpt><trkpt lat="34.772565133269715" lon="10.610156394116924"><ele>73.0</ele><time>2026-04-05T15:11:00Z</time></trkpt><trkpt lat="34.77250052644068" lon="10.610137996485292"><ele>73.0</ele><time>2026-04-05T15:11:01Z</time></trkpt><trkpt lat="34.77243571968524" lon="10.610119965901458"><ele>73.0</ele><time>2026-04-05T15:11:02Z</time></trkpt><trkpt lat="34.772387340948804" lon="10.610069382790577"><ele>73.0</ele><time>2026-04-05T15:11:03Z</time></trkpt><trkpt lat="34.77235422046513" lon="10.60998648879457"><ele>73.0</ele><time>2026-04-05T15:11:04Z</time></trkpt><trkpt lat="34.772337785945176" lon="10.609896429999726"><ele>73.0</ele><time>2026-04-05T15:11:05Z</time></trkpt><trkpt lat="34.772300514746476" lon="10.609820906908645"><ele>73.0</ele><time>2026-04-05T15:11:06Z</time></trkpt><trkpt lat="34.77223749512088" lon="10.609781454642338"><ele>73.0</ele><time>2026-04-05T15:11:07Z</time></trkpt><trkpt lat="34.77216251591221" lon="10.609770738423862"><ele>73.0</ele><time>2026-04-05T15:11:08Z</time></trkpt><trkpt lat="34.77207144336299" lon="10.60980148064306"><ele>73.0</ele><time>2026-04-05T15:11:09Z</time></trkpt><trkpt lat="34.771961656362755" lon="10.60988742853648"><ele>72.66666666666666</ele><time>2026-04-05T15:11:10Z</time></trkpt><trkpt lat="34.77182160215334" lon="10.610020643903443"><ele>72.33333333333333</ele><time>2026-04-05T15:11:11Z</time></trkpt><trkpt lat="34.77166473735764" lon="10.610142241518759"><ele>72.0</ele><time>2026-04-05T15:11:12Z</time></trkpt><trkpt lat="34.771492304531385" lon="10.610235421424537"><ele>72.0</ele><time>2026-04-05T15:11:13Z</time></trkpt><trkpt lat="34.77131621641849" lon="10.610301278062172"><ele>72.0</ele><time>2026-04-05T15:11:14Z</time></trkpt><trkpt lat="34.77112344187058" lon="10.610320185915256"><ele>72.0</ele><time>2026-04-05T15:11:15Z</time></trkpt><trkpt lat="34.770915917044896" lon="10.610310563993073"><ele>71.5</ele><time>2026-04-05T15:11:16Z</time></trkpt><trkpt lat="34.77067194949259" lon="10.610262920580924"><ele>71.0</ele><time>2026-04-05T15:11:17Z</time></trkpt><trkpt lat="34.77039884709227" lon="10.610197468655189"><ele>72.5</ele><time>2026-04-05T15:11:18Z</time></trkpt><trkpt lat="34.77009733435636" lon="10.610126461240247"><ele>74.0</ele><time>2026-04-05T15:11:19Z</time></trkpt><trkpt lat="34.76976970225487" lon="10.610057372909012"><ele>74.0</ele><time>2026-04-05T15:11:20Z</time></trkpt><trkpt lat="34.769426406357645" lon="10.609985162385964"><ele>74.0</ele><time>2026-04-05T15:11:21Z</time></trkpt><trkpt lat="34.7690704843872" lon="10.609907273588213"><ele>73.5</ele><time>2026-04-05T15:11:22Z</time></trkpt><trkpt lat="34.768698466779846" lon="10.60982116969291"><ele>73.0</ele><time>2026-04-05T15:11:23Z</time></trkpt><trkpt lat="34.76832112731066" lon="10.609729659655219"><ele>72.5</ele><time>2026-04-05T15:11:24Z</time></trkpt><trkpt lat="34.7679356949394" lon="10.60963332906814"><ele>72.0</ele><time>2026-04-05T15:11:25Z</time></trkpt><trkpt lat="34.76754505151607" lon="10.609528836619448"><ele>71.0</ele><time>2026-04-05T15:11:26Z</time></trkpt><trkpt lat="34.767148103595545" lon="10.609425867948762"><ele>70.0</ele><time>2026-04-05T15:11:27Z</time></trkpt><trkpt lat="34.76674036521842" lon="10.609319221920849"><ele>69.5</ele><time>2026-04-05T15:11:28Z</time></trkpt><trkpt lat="34.766329485043876" lon="10.609214110508642"><ele>69.0</ele><time>2026-04-05T15:11:29Z</time></trkpt><trkpt lat="34.765911631716236" lon="10.609111094619344"><ele>71.0</ele><time>2026-04-05T15:11:30Z</time></trkpt><trkpt lat="34.76549175610777" lon="10.609007093113203"><ele>73.0</ele><time>2026-04-05T15:11:31Z</time></trkpt><trkpt lat="34.765068145633215" lon="10.608903693607727"><ele>73.0</ele><time>2026-04-05T15:11:32Z</time></trkpt><trkpt lat="34.764641282081406" lon="10.60879718405163"><ele>73.0</ele><time>2026-04-05T15:11:33Z</time></trkpt><trkpt lat="34.764212681883315" lon="10.60868869901799"><ele>73.0</ele><time>2026-04-05T15:11:34Z</time></trkpt><trkpt lat="34.763782718073884" lon="10.608578148783742"><ele>73.0</ele><time>2026-04-05T15:11:35Z</time></trkpt><trkpt lat="34.76335013923377" lon="10.60846859787445"><ele>73.0</ele><time>2026-04-05T15:11:36Z</time></trkpt><trkpt lat="34.762913779897296" lon="10.608359879299439"><ele>73.0</ele><time>2026-04-05T15:11:37Z</time></trkpt><trkpt lat="34.762476493072576" lon="10.608254866107105"><ele>75.0</ele><time>2026-04-05T15:11:38Z</time></trkpt><trkpt lat="34.762034783921244" lon="10.608143632435084"><ele>74.5</ele><time>2026-04-05T15:11:39Z</time></trkpt><trkpt lat="34.76159955238992" lon="10.608032385814292"><ele>74.0</ele><time>2026-04-05T15:11:40Z</time></trkpt><trkpt lat="34.76117563264464" lon="10.60792466730111"><ele>74.5</ele><time>2026-04-05T15:11:41Z</time></trkpt><trkpt lat="34.76074685745072" lon="10.607813136544795"><ele>75.0</ele><time>2026-04-05T15:11:42Z</time></trkpt><trkpt lat="34.76031058384594" lon="10.607705168877652"><ele>77.0</ele><time>2026-04-05T15:11:43Z</time></trkpt><trkpt lat="34.75986787925427" lon="10.607599841287518"><ele>77.0</ele><time>2026-04-05T15:11:44Z</time></trkpt><trkpt lat="34.75942263520422" lon="10.607495449143629"><ele>79.0</ele><time>2026-04-05T15:11:45Z</time></trkpt><trkpt lat="34.758974394677864" lon="10.607387035380624"><ele>78.0</ele><time>2026-04-05T15:11:46Z</time></trkpt><trkpt lat="34.758522859837676" lon="10.60727624507936"><ele>78.0</ele><time>2026-04-05T15:11:47Z</time></trkpt><trkpt lat="34.758070551012146" lon="10.607163641336985"><ele>78.0</ele><time>2026-04-05T15:11:48Z</time></trkpt><trkpt lat="34.757613402392245" lon="10.607047510476448"><ele>78.0</ele><time>2026-04-05T15:11:49Z</time></trkpt><trkpt lat="34.75715697664915" lon="10.606925627498365"><ele>73.0</ele><time>2026-04-05T15:11:50Z</time></trkpt><trkpt lat="34.75670387305274" lon="10.606791291166484"><ele>73.0</ele><time>2026-04-05T15:11:51Z</time></trkpt><trkpt lat="34.756252952246626" lon="10.606646049667306"><ele>69.0</ele><time>2026-04-05T15:11:52Z</time></trkpt><trkpt lat="34.75580177769791" lon="10.606487919663113"><ele>69.0</ele><time>2026-04-05T15:11:53Z</time></trkpt><trkpt lat="34.75534959619311" lon="10.60631695672034"><ele>65.0</ele><time>2026-04-05T15:11:54Z</time></trkpt><trkpt lat="34.75490078035583" lon="10.606138651932971"><ele>65.0</ele><time>2026-04-05T15:11:55Z</time></trkpt><trkpt lat="34.754450067431456" lon="10.605952204364755"><ele>63.0</ele><time>2026-04-05T15:11:56Z</time></trkpt><trkpt lat="34.75400075811663" lon="10.605756859338356"><ele>63.0</ele><time>2026-04-05T15:11:57Z</time></trkpt><trkpt lat="34.75355144174009" lon="10.605549376724532"><ele>61.0</ele><time>2026-04-05T15:11:58Z</time></trkpt><trkpt lat="34.75310382264438" lon="10.60533522182337"><ele>57.0</ele><time>2026-04-05T15:11:59Z</time></trkpt><trkpt lat="34.7526584642063" lon="10.605109116681083"><ele>57.0</ele><time>2026-04-05T15:12:00Z</time></trkpt><trkpt lat="34.75221250823287" lon="10.604870012120069"><ele>57.0</ele><time>2026-04-05T15:12:01Z</time></trkpt><trkpt lat="34.751770396922964" lon="10.604624067994848"><ele>57.0</ele><time>2026-04-05T15:12:02Z</time></trkpt><trkpt lat="34.75132868207312" lon="10.604369611177484"><ele>57.0</ele><time>2026-04-05T15:12:03Z</time></trkpt><trkpt lat="34.7508887988742" lon="10.604103845860013"><ele>57.0</ele><time>2026-04-05T15:12:04Z</time></trkpt><trkpt lat="34.75045088400888" lon="10.60382683561949"><ele>54.0</ele><time>2026-04-05T15:12:05Z</time></trkpt><trkpt lat="34.75001603217034" lon="10.603543410719741"><ele>54.0</ele><time>2026-04-05T15:12:06Z</time></trkpt><trkpt lat="34.74958310866457" lon="10.603251331053514"><ele>54.0</ele><time>2026-04-05T15:12:07Z</time></trkpt><trkpt lat="34.74915201692409" lon="10.602954738025177"><ele>54.0</ele><time>2026-04-05T15:12:08Z</time></trkpt><trkpt lat="34.74872086740492" lon="10.602653140096306"><ele>55.0</ele><time>2026-04-05T15:12:09Z</time></trkpt><trkpt lat="34.74828887732508" lon="10.602351295048727"><ele>55.0</ele><time>2026-04-05T15:12:10Z</time></trkpt><trkpt lat="34.74785882456043" lon="10.602052667311309"><ele>54.0</ele><time>2026-04-05T15:12:11Z</time></trkpt><trkpt lat="34.74742729708384" lon="10.601756548131014"><ele>54.0</ele><time>2026-04-05T15:12:12Z</time></trkpt><trkpt lat="34.74699571795572" lon="10.601460659687485"><ele>54.0</ele><time>2026-04-05T15:12:13Z</time></trkpt><trkpt lat="34.746565123813795" lon="10.60116669462425"><ele>53.0</ele><time>2026-04-05T15:12:14Z</time></trkpt><trkpt lat="34.74613401848632" lon="10.600873157017766"><ele>53.0</ele><time>2026-04-05T15:12:15Z</time></trkpt><trkpt lat="34.74570265370058" lon="10.600578787454856"><ele>53.0</ele><time>2026-04-05T15:12:16Z</time></trkpt><trkpt lat="34.74527260916513" lon="10.600281284344733"><ele>54.0</ele><time>2026-04-05T15:12:17Z</time></trkpt><trkpt lat="34.74484361860507" lon="10.599984348071722"><ele>54.0</ele><time>2026-04-05T15:12:18Z</time></trkpt><trkpt lat="34.74441379446897" lon="10.59968917980713"><ele>52.0</ele><time>2026-04-05T15:12:19Z</time></trkpt><trkpt lat="34.7439875127782" lon="10.59939684161135"><ele>52.0</ele><time>2026-04-05T15:12:20Z</time></trkpt><trkpt lat="34.743560694908815" lon="10.599103379365154"><ele>50.0</ele><time>2026-04-05T15:12:21Z</time></trkpt><trkpt lat="34.7431345164765" lon="10.59880883741845"><ele>52.0</ele><time>2026-04-05T15:12:22Z</time></trkpt><trkpt lat="34.74271031888589" lon="10.598515289412102"><ele>52.0</ele><time>2026-04-05T15:12:23Z</time></trkpt><trkpt lat="34.74228644151817" lon="10.598222277221787"><ele>50.0</ele><time>2026-04-05T15:12:24Z</time></trkpt><trkpt lat="34.741862299030714" lon="10.597929950422426"><ele>50.0</ele><time>2026-04-05T15:12:25Z</time></trkpt><trkpt lat="34.74143733111901" lon="10.59763855392253"><ele>49.0</ele><time>2026-04-05T15:12:26Z</time></trkpt><trkpt lat="34.74101332008849" lon="10.597346844522727"><ele>49.0</ele><time>2026-04-05T15:12:27Z</time></trkpt><trkpt lat="34.74058795306975" lon="10.597052722017693"><ele>49.0</ele><time>2026-04-05T15:12:28Z</time></trkpt><trkpt lat="34.74016310799469" lon="10.596758034225866"><ele>49.0</ele><time>2026-04-05T15:12:29Z</time></trkpt><trkpt lat="34.739736433886115" lon="10.59646397306873"><ele>51.0</ele><time>2026-04-05T15:12:30Z</time></trkpt><trkpt lat="34.73931109088384" lon="10.59617166816848"><ele>52.0</ele><time>2026-04-05T15:12:31Z</time></trkpt><trkpt lat="34.73888859622436" lon="10.595885850991426"><ele>53.0</ele><time>2026-04-05T15:12:32Z</time></trkpt><trkpt lat="34.73847229124117" lon="10.59560365151696"><ele>51.0</ele><time>2026-04-05T15:12:33Z</time></trkpt><trkpt lat="34.73806211095515" lon="10.595325269497284"><ele>52.0</ele><time>2026-04-05T15:12:34Z</time></trkpt><trkpt lat="34.737649597216915" lon="10.595048030237848"><ele>52.0</ele><time>2026-04-05T15:12:35Z</time></trkpt><trkpt lat="34.7372335539893" lon="10.594779640563873"><ele>52.0</ele><time>2026-04-05T15:12:36Z</time></trkpt><trkpt lat="34.73681362980466" lon="10.594522797065462"><ele>54.0</ele><time>2026-04-05T15:12:37Z</time></trkpt><trkpt lat="34.736389853448344" lon="10.594275771736605"><ele>52.0</ele><time>2026-04-05T15:12:38Z</time></trkpt><trkpt lat="34.7359587028131" lon="10.594036641889671"><ele>52.0</ele><time>2026-04-05T15:12:38.999Z</time></trkpt><trkpt lat="34.73552580618837" lon="10.593805110109578"><ele>52.0</ele><time>2026-04-05T15:12:39.999Z</time></trkpt><trkpt lat="34.735091654078296" lon="10.593573517949558"><ele>52.0</ele><time>2026-04-05T15:12:40.999Z</time></trkpt><trkpt lat="34.734652673195164" lon="10.593339666115234"><ele>54.0</ele><time>2026-04-05T15:12:41.999Z</time></trkpt><trkpt lat="34.73421590848038" lon="10.593102197763072"><ele>54.0</ele><time>2026-04-05T15:12:42.999Z</time></trkpt><trkpt lat="34.73377841327008" lon="10.592863799214646"><ele>52.0</ele><time>2026-04-05T15:12:43.999Z</time></trkpt><trkpt lat="34.73333887193115" lon="10.592625871079111"><ele>52.0</ele><time>2026-04-05T15:12:44.999Z</time></trkpt><trkpt lat="34.73290140496037" lon="10.592386633980484"><ele>53.0</ele><time>2026-04-05T15:12:45.999Z</time></trkpt><trkpt lat="34.732467382383525" lon="10.59214661050221"><ele>54.0</ele><time>2026-04-05T15:12:46.999Z</time></trkpt><trkpt lat="34.73203655669627" lon="10.591902890988255"><ele>52.0</ele><time>2026-04-05T15:12:47.999Z</time></trkpt><trkpt lat="34.73161122280536" lon="10.591656143218016"><ele>52.0</ele><time>2026-04-05T15:12:49Z</time></trkpt><trkpt lat="34.731194724152196" lon="10.5914096378544"><ele>56.0</ele><time>2026-04-05T15:12:50Z</time></trkpt><trkpt lat="34.730790737141064" lon="10.59115108699094"><ele>56.0</ele><time>2026-04-05T15:12:51Z</time></trkpt><trkpt lat="34.73039373334685" lon="10.59088634584986"><ele>58.0</ele><time>2026-04-05T15:12:52Z</time></trkpt><trkpt lat="34.73000222961352" lon="10.590613878375514"><ele>59.5</ele><time>2026-04-05T15:12:53Z</time></trkpt><trkpt lat="34.72962189825079" lon="10.590338731912919"><ele>61.0</ele><time>2026-04-05T15:12:54Z</time></trkpt><trkpt lat="34.72925282318262" lon="10.59006126925668"><ele>62.5</ele><time>2026-04-05T15:12:55Z</time></trkpt><trkpt lat="34.72889570381001" lon="10.589789764151131"><ele>64.0</ele><time>2026-04-05T15:12:56Z</time></trkpt><trkpt lat="34.72855827166719" lon="10.589520875514273"><ele>65.5</ele><time>2026-04-05T15:12:57Z</time></trkpt><trkpt lat="34.7282467623059" lon="10.589266119689636"><ele>67.0</ele><time>2026-04-05T15:12:58Z</time></trkpt><trkpt lat="34.72797054011341" lon="10.589029305630884"><ele>66.5</ele><time>2026-04-05T15:12:59Z</time></trkpt><trkpt lat="34.727709535331" lon="10.58879727897461"><ele>66.0</ele><time>2026-04-05T15:13:00Z</time></trkpt><trkpt lat="34.72746344350788" lon="10.588579579809018"><ele>67.0</ele><time>2026-04-05T15:13:01Z</time></trkpt><trkpt lat="34.727216836870625" lon="10.588360946291303"><ele>68.0</ele><time>2026-04-05T15:13:02Z</time></trkpt><trkpt lat="34.72696851695086" lon="10.588130419723505"><ele>69.0</ele><time>2026-04-05T15:13:03Z</time></trkpt><trkpt lat="34.72671937178474" lon="10.587894315706716"><ele>70.0</ele><time>2026-04-05T15:13:04Z</time></trkpt><trkpt lat="34.72646644348926" lon="10.587644019223708"><ele>70.0</ele><time>2026-04-05T15:13:05Z</time></trkpt><trkpt lat="34.72620745876989" lon="10.587380929882753"><ele>70.0</ele><time>2026-04-05T15:13:06Z</time></trkpt><trkpt lat="34.72594074082475" lon="10.587105327886752"><ele>68.0</ele><time>2026-04-05T15:13:07Z</time></trkpt><trkpt lat="34.72566463946687" lon="10.586822406414798"><ele>66.0</ele><time>2026-04-05T15:13:08Z</time></trkpt><trkpt lat="34.725381131546264" lon="10.586535457326498"><ele>66.5</ele><time>2026-04-05T15:13:09Z</time></trkpt><trkpt lat="34.7250999765409" lon="10.586256039693327"><ele>67.0</ele><time>2026-04-05T15:13:10Z</time></trkpt><trkpt lat="34.72481289925681" lon="10.585969404928791"><ele>67.0</ele><time>2026-04-05T15:13:11Z</time></trkpt><trkpt lat="34.72451585062575" lon="10.585672607530368"><ele>67.0</ele><time>2026-04-05T15:13:12Z</time></trkpt><trkpt lat="34.72421334258658" lon="10.585368329313184"><ele>68.5</ele><time>2026-04-05T15:13:13Z</time></trkpt><trkpt lat="34.72391002044745" lon="10.58505261811015"><ele>70.0</ele><time>2026-04-05T15:13:14Z</time></trkpt><trkpt lat="34.723600846818236" lon="10.584724125434649"><ele>71.0</ele><time>2026-04-05T15:13:15Z</time></trkpt><trkpt lat="34.7232891985993" lon="10.584392829472305"><ele>72.0</ele><time>2026-04-05T15:13:16Z</time></trkpt><trkpt lat="34.72296866870439" lon="10.584059647437694"><ele>71.5</ele><time>2026-04-05T15:13:17Z</time></trkpt><trkpt lat="34.72264165918048" lon="10.583725325885075"><ele>71.0</ele><time>2026-04-05T15:13:18Z</time></trkpt><trkpt lat="34.72231009421385" lon="10.58339027597749"><ele>71.0</ele><time>2026-04-05T15:13:19Z</time></trkpt><trkpt lat="34.721975824349265" lon="10.583053632764527"><ele>71.0</ele><time>2026-04-05T15:13:20Z</time></trkpt><trkpt lat="34.721637472491" lon="10.582711489686895"><ele>73.0</ele><time>2026-04-05T15:13:21Z</time></trkpt><trkpt lat="34.72129819422256" lon="10.582363914370653"><ele>75.0</ele><time>2026-04-05T15:13:22Z</time></trkpt><trkpt lat="34.720956149953786" lon="10.582006603539492"><ele>75.0</ele><time>2026-04-05T15:13:23Z</time></trkpt><trkpt lat="34.72061452960706" lon="10.581648190280186"><ele>75.0</ele><time>2026-04-05T15:13:24Z</time></trkpt><trkpt lat="34.72027229574347" lon="10.581281912455568"><ele>76.0</ele><time>2026-04-05T15:13:25Z</time></trkpt><trkpt lat="34.719930747789796" lon="10.580914254053372"><ele>76.0</ele><time>2026-04-05T15:13:26Z</time></trkpt><trkpt lat="34.719590142900415" lon="10.580541806961314"><ele>76.0</ele><time>2026-04-05T15:13:27Z</time></trkpt><trkpt lat="34.71924857332161" lon="10.580170136294047"><ele>76.0</ele><time>2026-04-05T15:13:28Z</time></trkpt><trkpt lat="34.718906037859966" lon="10.579796907793476"><ele>76.0</ele><time>2026-04-05T15:13:29Z</time></trkpt><trkpt lat="34.718562508369686" lon="10.579418737689425"><ele>76.0</ele><time>2026-04-05T15:13:30Z</time></trkpt><trkpt lat="34.7182236066468" lon="10.579045741938007"><ele>78.0</ele><time>2026-04-05T15:13:31Z</time></trkpt><trkpt lat="34.71788518027732" lon="10.57866747583746"><ele>78.5</ele><time>2026-04-05T15:13:32Z</time></trkpt><trkpt lat="34.71755873626436" lon="10.578296910083333"><ele>79.0</ele><time>2026-04-05T15:13:33Z</time></trkpt><trkpt lat="34.717243224680566" lon="10.577940257205052"><ele>79.0</ele><time>2026-04-05T15:13:34Z</time></trkpt><trkpt lat="34.716937059891755" lon="10.577584596260614"><ele>79.0</ele><time>2026-04-05T15:13:35Z</time></trkpt><trkpt lat="34.716632725391584" lon="10.577236617041198"><ele>79.5</ele><time>2026-04-05T15:13:36Z</time></trkpt><trkpt lat="34.7163494843492" lon="10.576906178985261"><ele>80.0</ele><time>2026-04-05T15:13:37Z</time></trkpt><trkpt lat="34.71608820791129" lon="10.57659704862145"><ele>79.5</ele><time>2026-04-05T15:13:38Z</time></trkpt><trkpt lat="34.71583577382211" lon="10.576295503857164"><ele>79.0</ele><time>2026-04-05T15:13:39Z</time></trkpt><trkpt lat="34.71559124351108" lon="10.576004453294102"><ele>79.0</ele><time>2026-04-05T15:13:40Z</time></trkpt><trkpt lat="34.71535207434243" lon="10.575715275531902"><ele>79.0</ele><time>2026-04-05T15:13:41Z</time></trkpt><trkpt lat="34.715121907343075" lon="10.575437086076233"><ele>80.0</ele><time>2026-04-05T15:13:42Z</time></trkpt><trkpt lat="34.71489813846996" lon="10.575166184180327"><ele>81.0</ele><time>2026-04-05T15:13:43Z</time></trkpt><trkpt lat="34.71467707942754" lon="10.574898288109853"><ele>81.0</ele><time>2026-04-05T15:13:44Z</time></trkpt><trkpt lat="34.71445576351758" lon="10.57462814854719"><ele>81.0</ele><time>2026-04-05T15:13:45Z</time></trkpt><trkpt lat="34.714237659601665" lon="10.574360587171272"><ele>80.5</ele><time>2026-04-05T15:13:46Z</time></trkpt><trkpt lat="34.71402053062358" lon="10.574095735120613"><ele>80.0</ele><time>2026-04-05T15:13:47Z</time></trkpt><trkpt lat="34.71380486730755" lon="10.573832476044213"><ele>80.0</ele><time>2026-04-05T15:13:48Z</time></trkpt><trkpt lat="34.71358812383345" lon="10.573570369456087"><ele>80.0</ele><time>2026-04-05T15:13:49Z</time></trkpt><trkpt lat="34.713372394510195" lon="10.573313166159553"><ele>80.0</ele><time>2026-04-05T15:13:50Z</time></trkpt><trkpt lat="34.71315340044687" lon="10.573049073186787"><ele>80.0</ele><time>2026-04-05T15:13:51Z</time></trkpt><trkpt lat="34.712934762735095" lon="10.572784624959008"><ele>79.5</ele><time>2026-04-05T15:13:52Z</time></trkpt><trkpt lat="34.71271473694358" lon="10.572516822824491"><ele>79.0</ele><time>2026-04-05T15:13:53Z</time></trkpt><trkpt lat="34.71249415553424" lon="10.572247544108084"><ele>79.5</ele><time>2026-04-05T15:13:54Z</time></trkpt><trkpt lat="34.712274173479486" lon="10.571980440305387"><ele>80.0</ele><time>2026-04-05T15:13:55Z</time></trkpt><trkpt lat="34.71205619893596" lon="10.571714793530148"><ele>80.5</ele><time>2026-04-05T15:13:56Z</time></trkpt><trkpt lat="34.711842341532886" lon="10.571451809492016"><ele>81.0</ele><time>2026-04-05T15:13:57Z</time></trkpt><trkpt lat="34.71162893570504" lon="10.571188098979135"><ele>81.5</ele><time>2026-04-05T15:13:58Z</time></trkpt><trkpt lat="34.711413996026934" lon="10.570927157122043"><ele>82.0</ele><time>2026-04-05T15:13:59Z</time></trkpt><trkpt lat="34.71119631602336" lon="10.570670540476875"><ele>82.5</ele><time>2026-04-05T15:14:00Z</time></trkpt><trkpt lat="34.710973801015676" lon="10.570410557446701"><ele>83.0</ele><time>2026-04-05T15:14:01Z</time></trkpt><trkpt lat="34.710752818184645" lon="10.570147278680887"><ele>83.5</ele><time>2026-04-05T15:14:02Z</time></trkpt><trkpt lat="34.71053524263715" lon="10.56988121279067"><ele>84.0</ele><time>2026-04-05T15:14:03Z</time></trkpt><trkpt lat="34.71032213285485" lon="10.569617079420723"><ele>83.5</ele><time>2026-04-05T15:14:04Z</time></trkpt><trkpt lat="34.7101082931283" lon="10.569350448326423"><ele>83.0</ele><time>2026-04-05T15:14:05Z</time></trkpt><trkpt lat="34.70989513757759" lon="10.569080748513644"><ele>83.0</ele><time>2026-04-05T15:14:06Z</time></trkpt><trkpt lat="34.70968146857067" lon="10.568811642155369"><ele>83.0</ele><time>2026-04-05T15:14:07Z</time></trkpt><trkpt lat="34.70946735866642" lon="10.568542644467787"><ele>83.5</ele><time>2026-04-05T15:14:08Z</time></trkpt><trkpt lat="34.7092481509566" lon="10.568272472446782"><ele>84.0</ele><time>2026-04-05T15:14:09Z</time></trkpt><trkpt lat="34.7090262877304" lon="10.568001785239588"><ele>84.5</ele><time>2026-04-05T15:14:10Z</time></trkpt><trkpt lat="34.7088026644059" lon="10.567732450607995"><ele>85.0</ele><time>2026-04-05T15:14:11Z</time></trkpt><trkpt lat="34.70857916576192" lon="10.567461768159149"><ele>85.0</ele><time>2026-04-05T15:14:12Z</time></trkpt><trkpt lat="34.70835444465202" lon="10.567192075949185"><ele>85.0</ele><time>2026-04-05T15:14:13Z</time></trkpt><trkpt lat="34.708128050408085" lon="10.566921811364733"><ele>85.5</ele><time>2026-04-05T15:14:14Z</time></trkpt><trkpt lat="34.70790311844717" lon="10.56665215124235"><ele>86.0</ele><time>2026-04-05T15:14:15Z</time></trkpt><trkpt lat="34.70767955877138" lon="10.566380709600326"><ele>86.0</ele><time>2026-04-05T15:14:16Z</time></trkpt><trkpt lat="34.70745555897161" lon="10.566108948573675"><ele>86.0</ele><time>2026-04-05T15:14:17Z</time></trkpt><trkpt lat="34.70722911420322" lon="10.565839678570395"><ele>86.0</ele><time>2026-04-05T15:14:18Z</time></trkpt><trkpt lat="34.70700135617644" lon="10.565573661855755"><ele>86.0</ele><time>2026-04-05T15:14:19Z</time></trkpt><trkpt lat="34.70676843421563" lon="10.56531284542332"><ele>86.0</ele><time>2026-04-05T15:14:20Z</time></trkpt><trkpt lat="34.706531047222114" lon="10.565058719761558"><ele>86.0</ele><time>2026-04-05T15:14:21Z</time></trkpt><trkpt lat="34.70629081134314" lon="10.564804993491558"><ele>85.5</ele><time>2026-04-05T15:14:22Z</time></trkpt><trkpt lat="34.70605330619333" lon="10.564556030900587"><ele>85.0</ele><time>2026-04-05T15:14:23Z</time></trkpt><trkpt lat="34.7058324258637" lon="10.564321944382705"><ele>86.0</ele><time>2026-04-05T15:14:24Z</time></trkpt><trkpt lat="34.70562043361298" lon="10.56410096458036"><ele>87.0</ele><time>2026-04-05T15:14:25Z</time></trkpt><trkpt lat="34.70541500336724" lon="10.563891503075844"><ele>86.5</ele><time>2026-04-05T15:14:26Z</time></trkpt><trkpt lat="34.70520496584337" lon="10.563687771376856"><ele>86.0</ele><time>2026-04-05T15:14:27Z</time></trkpt><trkpt lat="34.70499554534694" lon="10.56348538457461"><ele>86.0</ele><time>2026-04-05T15:14:28Z</time></trkpt><trkpt lat="34.70478747247263" lon="10.5632883044034"><ele>86.0</ele><time>2026-04-05T15:14:29Z</time></trkpt><trkpt lat="34.704583786528474" lon="10.563096788724618"><ele>86.0</ele><time>2026-04-05T15:14:29.999Z</time></trkpt><trkpt lat="34.7043744393876" lon="10.562903008668043"><ele>86.0</ele><time>2026-04-05T15:14:30.999Z</time></trkpt><trkpt lat="34.70416064385018" lon="10.562708268378554"><ele>86.5</ele><time>2026-04-05T15:14:31.999Z</time></trkpt><trkpt lat="34.7039399034959" lon="10.562512422303824"><ele>87.0</ele><time>2026-04-05T15:14:32.999Z</time></trkpt><trkpt lat="34.703715073547635" lon="10.562316223169754"><ele>87.0</ele><time>2026-04-05T15:14:33.999Z</time></trkpt><trkpt lat="34.703479982187126" lon="10.562115699906128"><ele>87.0</ele><time>2026-04-05T15:14:34.999Z</time></trkpt><trkpt lat="34.703242677307514" lon="10.561913658861732"><ele>87.0</ele><time>2026-04-05T15:14:35.999Z</time></trkpt><trkpt lat="34.70300059957531" lon="10.561711807419561"><ele>87.0</ele><time>2026-04-05T15:14:36.999Z</time></trkpt><trkpt lat="34.702760116005344" lon="10.561513575782017"><ele>87.5</ele><time>2026-04-05T15:14:37.999Z</time></trkpt><trkpt lat="34.702522276087954" lon="10.56131836081125"><ele>88.0</ele><time>2026-04-05T15:14:38.999Z</time></trkpt><trkpt lat="34.70228174967195" lon="10.561127642109197"><ele>88.0</ele><time>2026-04-05T15:14:39.999Z</time></trkpt><trkpt lat="34.7020392508183" lon="10.560938259769447"><ele>88.0</ele><time>2026-04-05T15:14:40.999Z</time></trkpt><trkpt lat="34.70179539944162" lon="10.56074993141176"><ele>86.0</ele><time>2026-04-05T15:14:41.999Z</time></trkpt><trkpt lat="34.701541359217316" lon="10.560559934239583"><ele>84.0</ele><time>2026-04-05T15:14:42.999Z</time></trkpt><trkpt lat="34.70127910142288" lon="10.560369887408779"><ele>84.5</ele><time>2026-04-05T15:14:43.999Z</time></trkpt><trkpt lat="34.70101541266083" lon="10.560182654061885"><ele>85.0</ele><time>2026-04-05T15:14:44.999Z</time></trkpt><trkpt lat="34.700745066005794" lon="10.559997379138112"><ele>85.0</ele><time>2026-04-05T15:14:45.999Z</time></trkpt><trkpt lat="34.70047535121421" lon="10.559811621797477"><ele>85.0</ele><time>2026-04-05T15:14:46.999Z</time></trkpt><trkpt lat="34.7002039441665" lon="10.559627575965818"><ele>86.5</ele><time>2026-04-05T15:14:47.999Z</time></trkpt><trkpt lat="34.6999290024628" lon="10.559445506595022"><ele>88.0</ele><time>2026-04-05T15:14:48.999Z</time></trkpt><trkpt lat="34.699650661773575" lon="10.559267677628027"><ele>87.5</ele><time>2026-04-05T15:14:49.999Z</time></trkpt><trkpt lat="34.699373178954694" lon="10.55909300789217"><ele>87.0</ele><time>2026-04-05T15:14:50.999Z</time></trkpt><trkpt lat="34.69909182114999" lon="10.558921965076792"><ele>87.0</ele><time>2026-04-05T15:14:51.999Z</time></trkpt><trkpt lat="34.69880734966148" lon="10.558749882411446"><ele>87.0</ele><time>2026-04-05T15:14:52.999Z</time></trkpt><trkpt lat="34.698521233381854" lon="10.558579631561773"><ele>86.0</ele><time>2026-04-05T15:14:53.999Z</time></trkpt><trkpt lat="34.69823006417001" lon="10.558412705526985"><ele>85.0</ele><time>2026-04-05T15:14:55Z</time></trkpt><trkpt lat="34.6979361141099" lon="10.5582479098799"><ele>85.0</ele><time>2026-04-05T15:14:56Z</time></trkpt><trkpt lat="34.69764328444829" lon="10.558087332348585"><ele>85.0</ele><time>2026-04-05T15:14:57Z</time></trkpt><trkpt lat="34.69734790348936" lon="10.557931735616032"><ele>85.0</ele><time>2026-04-05T15:14:58Z</time></trkpt><trkpt lat="34.69705234470907" lon="10.557779346265615"><ele>85.0</ele><time>2026-04-05T15:14:59Z</time></trkpt><trkpt lat="34.696752299874895" lon="10.557630983002472"><ele>85.0</ele><time>2026-04-05T15:15:00Z</time></trkpt><trkpt lat="34.69645258715674" lon="10.557482459248988"><ele>85.0</ele><time>2026-04-05T15:15:01Z</time></trkpt><trkpt lat="34.69614873136803" lon="10.55733207181495"><ele>84.5</ele><time>2026-04-05T15:15:02Z</time></trkpt><trkpt lat="34.695843940122195" lon="10.557183024925783"><ele>84.0</ele><time>2026-04-05T15:15:03Z</time></trkpt><trkpt lat="34.69553857352147" lon="10.557032836091668"><ele>83.5</ele><time>2026-04-05T15:15:04Z</time></trkpt><trkpt lat="34.69523205434455" lon="10.556883267154785"><ele>83.0</ele><time>2026-04-05T15:15:05Z</time></trkpt><trkpt lat="34.69492499383959" lon="10.556731039573519"><ele>83.0</ele><time>2026-04-05T15:15:06Z</time></trkpt><trkpt lat="34.69461275136763" lon="10.55657844545153"><ele>83.0</ele><time>2026-04-05T15:15:07Z</time></trkpt><trkpt lat="34.694299157637204" lon="10.556423877538611"><ele>82.0</ele><time>2026-04-05T15:15:08Z</time></trkpt><trkpt lat="34.69398287204137" lon="10.556270305988214"><ele>81.0</ele><time>2026-04-05T15:15:09Z</time></trkpt><trkpt lat="34.69366762810188" lon="10.556117693611162"><ele>77.5</ele><time>2026-04-05T15:15:10Z</time></trkpt><trkpt lat="34.69335204570662" lon="10.555963138545158"><ele>74.0</ele><time>2026-04-05T15:15:11Z</time></trkpt><trkpt lat="34.69303634406091" lon="10.555805620830595"><ele>72.0</ele><time>2026-04-05T15:15:12Z</time></trkpt><trkpt lat="34.6927218886749" lon="10.555647305465016"><ele>70.0</ele><time>2026-04-05T15:15:13Z</time></trkpt><trkpt lat="34.69240150591772" lon="10.555487457165322"><ele>70.0</ele><time>2026-04-05T15:15:14Z</time></trkpt><trkpt lat="34.692080769266774" lon="10.555328945600849"><ele>70.0</ele><time>2026-04-05T15:15:15Z</time></trkpt><trkpt lat="34.69175669045765" lon="10.555171838959211"><ele>69.0</ele><time>2026-04-05T15:15:16Z</time></trkpt><trkpt lat="34.691434488897" lon="10.55501358106604"><ele>68.0</ele><time>2026-04-05T15:15:17Z</time></trkpt><trkpt lat="34.69111150843425" lon="10.554853599507268"><ele>67.5</ele><time>2026-04-05T15:15:18Z</time></trkpt><trkpt lat="34.690788873049556" lon="10.55469465427532"><ele>67.0</ele><time>2026-04-05T15:15:19Z</time></trkpt><trkpt lat="34.69046696206336" lon="10.55453592243997"><ele>67.0</ele><time>2026-04-05T15:15:20Z</time></trkpt><trkpt lat="34.69014464535823" lon="10.554377929530954"><ele>67.0</ele><time>2026-04-05T15:15:21Z</time></trkpt><trkpt lat="34.68982389780165" lon="10.554220962506404"><ele>67.0</ele><time>2026-04-05T15:15:22Z</time></trkpt><trkpt lat="34.68950958185734" lon="10.554069598208306"><ele>67.0</ele><time>2026-04-05T15:15:23Z</time></trkpt><trkpt lat="34.68919269368397" lon="10.553920458478748"><ele>70.0</ele><time>2026-04-05T15:15:24Z</time></trkpt><trkpt lat="34.68888083287324" lon="10.553770723442199"><ele>73.0</ele><time>2026-04-05T15:15:25Z</time></trkpt><trkpt lat="34.68857751836881" lon="10.553622047048975"><ele>75.0</ele><time>2026-04-05T15:15:26Z</time></trkpt><trkpt lat="34.68828803081502" lon="10.553476860134857"><ele>77.0</ele><time>2026-04-05T15:15:27Z</time></trkpt><trkpt lat="34.688005858675645" lon="10.553334292457922"><ele>78.0</ele><time>2026-04-05T15:15:28Z</time></trkpt><trkpt lat="34.68773250846484" lon="10.553196598900856"><ele>79.0</ele><time>2026-04-05T15:15:29Z</time></trkpt><trkpt lat="34.6874584311846" lon="10.553061304674808"><ele>79.0</ele><time>2026-04-05T15:15:30Z</time></trkpt><trkpt lat="34.68718625190361" lon="10.5529261003014"><ele>79.0</ele><time>2026-04-05T15:15:31Z</time></trkpt><trkpt lat="34.68691736914031" lon="10.552791535897633"><ele>80.0</ele><time>2026-04-05T15:15:32Z</time></trkpt><trkpt lat="34.68664740220969" lon="10.55266106995623"><ele>81.0</ele><time>2026-04-05T15:15:33Z</time></trkpt><trkpt lat="34.68637803230809" lon="10.55253102935709"><ele>81.0</ele><time>2026-04-05T15:15:34Z</time></trkpt><trkpt lat="34.68610822468965" lon="10.5523979872676"><ele>81.0</ele><time>2026-04-05T15:15:35Z</time></trkpt><trkpt lat="34.68583234581182" lon="10.552260667513734"><ele>80.5</ele><time>2026-04-05T15:15:36Z</time></trkpt><trkpt lat="34.68555467160981" lon="10.552125956639108"><ele>80.0</ele><time>2026-04-05T15:15:37Z</time></trkpt><trkpt lat="34.68527085746351" lon="10.551992403619607"><ele>78.5</ele><time>2026-04-05T15:15:38Z</time></trkpt><trkpt lat="34.68499091908508" lon="10.55185403550245"><ele>77.0</ele><time>2026-04-05T15:15:39Z</time></trkpt><trkpt lat="34.68470843963313" lon="10.551705650895665"><ele>77.5</ele><time>2026-04-05T15:15:40Z</time></trkpt><trkpt lat="34.68442961286071" lon="10.551549943295006"><ele>78.0</ele><time>2026-04-05T15:15:41Z</time></trkpt><trkpt lat="34.684150789658794" lon="10.551389532640195"><ele>78.0</ele><time>2026-04-05T15:15:42Z</time></trkpt><trkpt lat="34.68387580912544" lon="10.551224672606356"><ele>78.0</ele><time>2026-04-05T15:15:43Z</time></trkpt><trkpt lat="34.68359954345315" lon="10.55105196329846"><ele>78.0</ele><time>2026-04-05T15:15:44Z</time></trkpt><trkpt lat="34.6833218186139" lon="10.550873896689888"><ele>78.0</ele><time>2026-04-05T15:15:45Z</time></trkpt><trkpt lat="34.683046481113514" lon="10.550688544561115"><ele>78.0</ele><time>2026-04-05T15:15:46Z</time></trkpt><trkpt lat="34.68277164997491" lon="10.550498505292957"><ele>78.0</ele><time>2026-04-05T15:15:47Z</time></trkpt><trkpt lat="34.682493753243534" lon="10.550302902136012"><ele>78.0</ele><time>2026-04-05T15:15:48Z</time></trkpt><trkpt lat="34.682215250803296" lon="10.550104371626999"><ele>78.0</ele><time>2026-04-05T15:15:49Z</time></trkpt><trkpt lat="34.681941562958286" lon="10.549900843955491"><ele>78.0</ele><time>2026-04-05T15:15:50Z</time></trkpt><trkpt lat="34.68166719315936" lon="10.549693852707696"><ele>78.0</ele><time>2026-04-05T15:15:51Z</time></trkpt><trkpt lat="34.68139634077044" lon="10.549482820047675"><ele>78.0</ele><time>2026-04-05T15:15:52Z</time></trkpt><trkpt lat="34.68112659005185" lon="10.54926877618603"><ele>78.0</ele><time>2026-04-05T15:15:53Z</time></trkpt><trkpt lat="34.68085958717958" lon="10.54904881319769"><ele>78.0</ele><time>2026-04-05T15:15:54Z</time></trkpt><trkpt lat="34.68059340847893" lon="10.548824187235484"><ele>78.0</ele><time>2026-04-05T15:15:55Z</time></trkpt><trkpt lat="34.68032821201927" lon="10.548599919748966"><ele>77.0</ele><time>2026-04-05T15:15:56Z</time></trkpt><trkpt lat="34.680064659368966" lon="10.548371870169591"><ele>76.0</ele><time>2026-04-05T15:15:57Z</time></trkpt><trkpt lat="34.67980196567943" lon="10.548141170834041"><ele>76.0</ele><time>2026-04-05T15:15:58Z</time></trkpt><trkpt lat="34.67953993039919" lon="10.547902035155023"><ele>76.0</ele><time>2026-04-05T15:15:59Z</time></trkpt><trkpt lat="34.679280402000366" lon="10.547658308714626"><ele>76.0</ele><time>2026-04-05T15:16:00Z</time></trkpt><trkpt lat="34.67902277948049" lon="10.547408298184413"><ele>76.0</ele><time>2026-04-05T15:16:01Z</time></trkpt><trkpt lat="34.67876696524382" lon="10.547152374318046"><ele>75.5</ele><time>2026-04-05T15:16:02Z</time></trkpt><trkpt lat="34.67851301422046" lon="10.546892073790833"><ele>75.0</ele><time>2026-04-05T15:16:03Z</time></trkpt><trkpt lat="34.67825720150949" lon="10.546624585213278"><ele>75.0</ele><time>2026-04-05T15:16:04Z</time></trkpt><trkpt lat="34.677999448128894" lon="10.54635566614864"><ele>75.0</ele><time>2026-04-05T15:16:05Z</time></trkpt><trkpt lat="34.67774698257484" lon="10.546078730244034"><ele>74.0</ele><time>2026-04-05T15:16:06Z</time></trkpt><trkpt lat="34.67749789377207" lon="10.545794322394764"><ele>73.0</ele><time>2026-04-05T15:16:07Z</time></trkpt><trkpt lat="34.677249971790026" lon="10.545507556924987"><ele>71.5</ele><time>2026-04-05T15:16:08Z</time></trkpt><trkpt lat="34.67700737155187" lon="10.545217766720848"><ele>70.0</ele><time>2026-04-05T15:16:09Z</time></trkpt><trkpt lat="34.67676681219072" lon="10.54492461586037"><ele>69.5</ele><time>2026-04-05T15:16:10Z</time></trkpt><trkpt lat="34.67652926546783" lon="10.5446290015741"><ele>69.0</ele><time>2026-04-05T15:16:11Z</time></trkpt><trkpt lat="34.676297170139186" lon="10.544326844771623"><ele>72.5</ele><time>2026-04-05T15:16:12Z</time></trkpt><trkpt lat="34.6760678295629" lon="10.544022883618222"><ele>76.0</ele><time>2026-04-05T15:16:13Z</time></trkpt><trkpt lat="34.67583897839117" lon="10.543720625212103"><ele>77.0</ele><time>2026-04-05T15:16:14Z</time></trkpt><trkpt lat="34.67561178484004" lon="10.543418102261962"><ele>78.0</ele><time>2026-04-05T15:16:15Z</time></trkpt><trkpt lat="34.67538532754106" lon="10.543108327402056"><ele>78.5</ele><time>2026-04-05T15:16:16Z</time></trkpt><trkpt lat="34.6751656037151" lon="10.542795173303304"><ele>79.0</ele><time>2026-04-05T15:16:17Z</time></trkpt><trkpt lat="34.674947460775414" lon="10.542474073857676"><ele>79.0</ele><time>2026-04-05T15:16:18Z</time></trkpt><trkpt lat="34.674731852608886" lon="10.542149494523603"><ele>79.0</ele><time>2026-04-05T15:16:19Z</time></trkpt><trkpt lat="34.67452137497922" lon="10.541816897247555"><ele>79.0</ele><time>2026-04-05T15:16:20Z</time></trkpt><trkpt lat="34.67431442379685" lon="10.541479507111855"><ele>79.0</ele><time>2026-04-05T15:16:21Z</time></trkpt><trkpt lat="34.674115370654555" lon="10.541137073898867"><ele>79.0</ele><time>2026-04-05T15:16:22Z</time></trkpt><trkpt lat="34.673918506608196" lon="10.540791024313268"><ele>79.0</ele><time>2026-04-05T15:16:23Z</time></trkpt><trkpt lat="34.6737231590173" lon="10.540448626709207"><ele>79.0</ele><time>2026-04-05T15:16:24Z</time></trkpt><trkpt lat="34.67352542693112" lon="10.540101074227888"><ele>79.0</ele><time>2026-04-05T15:16:25Z</time></trkpt><trkpt lat="34.67332832836692" lon="10.539755168820323"><ele>79.5</ele><time>2026-04-05T15:16:26Z</time></trkpt><trkpt lat="34.673130518565856" lon="10.539405817806786"><ele>80.0</ele><time>2026-04-05T15:16:27Z</time></trkpt><trkpt lat="34.67293161479958" lon="10.539055251770758"><ele>79.0</ele><time>2026-04-05T15:16:28Z</time></trkpt><trkpt lat="34.672730596022376" lon="10.538703442126275"><ele>78.0</ele><time>2026-04-05T15:16:29Z</time></trkpt><trkpt lat="34.67252740418892" lon="10.538352365010269"><ele>78.0</ele><time>2026-04-05T15:16:30Z</time></trkpt><trkpt lat="34.67232434805036" lon="10.538002189945033"><ele>78.0</ele><time>2026-04-05T15:16:31Z</time></trkpt><trkpt lat="34.67212014881109" lon="10.537647188780813"><ele>78.0</ele><time>2026-04-05T15:16:32Z</time></trkpt><trkpt lat="34.671916585911525" lon="10.53729409804404"><ele>78.0</ele><time>2026-04-05T15:16:33Z</time></trkpt><trkpt lat="34.67171197398403" lon="10.536938311594392"><ele>77.5</ele><time>2026-04-05T15:16:34Z</time></trkpt><trkpt lat="34.67150663600941" lon="10.536580327735768"><ele>77.0</ele><time>2026-04-05T15:16:35Z</time></trkpt><trkpt lat="34.671302431475986" lon="10.536219590271221"><ele>76.5</ele><time>2026-04-05T15:16:36Z</time></trkpt><trkpt lat="34.671099318481716" lon="10.535857396310561"><ele>76.0</ele><time>2026-04-05T15:16:37Z</time></trkpt><trkpt lat="34.6708975700047" lon="10.535493913809216"><ele>77.5</ele><time>2026-04-05T15:16:38Z</time></trkpt><trkpt lat="34.67069445878719" lon="10.535129951851593"><ele>79.0</ele><time>2026-04-05T15:16:39Z</time></trkpt><trkpt lat="34.67049005051763" lon="10.534766401432213"><ele>79.5</ele><time>2026-04-05T15:16:40Z</time></trkpt><trkpt lat="34.67028576517544" lon="10.534400931247232"><ele>80.0</ele><time>2026-04-05T15:16:41Z</time></trkpt><trkpt lat="34.670079577828595" lon="10.534043059414469"><ele>78.5</ele><time>2026-04-05T15:16:42Z</time></trkpt><trkpt lat="34.6698714298603" lon="10.53368140507752"><ele>77.0</ele><time>2026-04-05T15:16:43Z</time></trkpt><trkpt lat="34.66966398203237" lon="10.533323497738674"><ele>77.0</ele><time>2026-04-05T15:16:44Z</time></trkpt><trkpt lat="34.66945857790875" lon="10.532969164739212"><ele>77.0</ele><time>2026-04-05T15:16:45Z</time></trkpt><trkpt lat="34.6692512094011" lon="10.53261360553796"><ele>76.0</ele><time>2026-04-05T15:16:46Z</time></trkpt><trkpt lat="34.669043172349745" lon="10.532262432230546"><ele>75.0</ele><time>2026-04-05T15:16:47Z</time></trkpt><trkpt lat="34.66883477673602" lon="10.531916365889774"><ele>74.0</ele><time>2026-04-05T15:16:48Z</time></trkpt><trkpt lat="34.66862941299507" lon="10.531571381401765"><ele>73.0</ele><time>2026-04-05T15:16:49Z</time></trkpt><trkpt lat="34.66842991543328" lon="10.531228742254154"><ele>74.5</ele><time>2026-04-05T15:16:50Z</time></trkpt><trkpt lat="34.66823390745296" lon="10.530883548866695"><ele>76.0</ele><time>2026-04-05T15:16:51Z</time></trkpt><trkpt lat="34.66804027638254" lon="10.530536930575442"><ele>77.5</ele><time>2026-04-05T15:16:52Z</time></trkpt><trkpt lat="34.667845490242684" lon="10.530189613039576"><ele>79.0</ele><time>2026-04-05T15:16:53Z</time></trkpt><trkpt lat="34.66765023663385" lon="10.529843902223814"><ele>80.0</ele><time>2026-04-05T15:16:54Z</time></trkpt><trkpt lat="34.66745718464599" lon="10.529503326077217"><ele>81.0</ele><time>2026-04-05T15:16:55Z</time></trkpt><trkpt lat="34.667263232951996" lon="10.529165112569796"><ele>81.0</ele><time>2026-04-05T15:16:56Z</time></trkpt><trkpt lat="34.66707047489246" lon="10.528828084175949"><ele>81.0</ele><time>2026-04-05T15:16:57Z</time></trkpt><trkpt lat="34.666877640851574" lon="10.528492202159642"><ele>82.5</ele><time>2026-04-05T15:16:58Z</time></trkpt><trkpt lat="34.666685282157054" lon="10.528156811428719"><ele>84.0</ele><time>2026-04-05T15:16:58.999Z</time></trkpt><trkpt lat="34.66649300308819" lon="10.527818359264094"><ele>85.0</ele><time>2026-04-05T15:17:00Z</time></trkpt><trkpt lat="34.666302019324604" lon="10.527481877552566"><ele>86.0</ele><time>2026-04-05T15:17:01Z</time></trkpt><trkpt lat="34.666112165440744" lon="10.527145859895066"><ele>85.5</ele><time>2026-04-05T15:17:02Z</time></trkpt><trkpt lat="34.665921709084145" lon="10.526809796185994"><ele>85.0</ele><time>2026-04-05T15:17:03Z</time></trkpt><trkpt lat="34.66573149176951" lon="10.526475029729067"><ele>86.0</ele><time>2026-04-05T15:17:04Z</time></trkpt><trkpt lat="34.665541784187724" lon="10.526140656398246"><ele>87.0</ele><time>2026-04-05T15:17:05Z</time></trkpt><trkpt lat="34.665351870636215" lon="10.525808235483622"><ele>87.0</ele><time>2026-04-05T15:17:06Z</time></trkpt><trkpt lat="34.6651628908822" lon="10.525474373685505"><ele>87.0</ele><time>2026-04-05T15:17:07Z</time></trkpt><trkpt lat="34.66497418636935" lon="10.525139904561991"><ele>87.0</ele><time>2026-04-05T15:17:08Z</time></trkpt><trkpt lat="34.66478732014664" lon="10.524806702075567"><ele>87.0</ele><time>2026-04-05T15:17:09Z</time></trkpt><trkpt lat="34.66459959440411" lon="10.524471207978829"><ele>87.0</ele><time>2026-04-05T15:17:10Z</time></trkpt><trkpt lat="34.66440882678296" lon="10.524132617159411"><ele>87.0</ele><time>2026-04-05T15:17:11Z</time></trkpt><trkpt lat="34.66421815339975" lon="10.523794960822618"><ele>87.5</ele><time>2026-04-05T15:17:12Z</time></trkpt><trkpt lat="34.664025132230165" lon="10.523453805878637"><ele>88.0</ele><time>2026-04-05T15:17:13Z</time></trkpt><trkpt lat="34.66383444939696" lon="10.523118103838769"><ele>88.0</ele><time>2026-04-05T15:17:14Z</time></trkpt><trkpt lat="34.663643130664276" lon="10.522787459631465"><ele>88.0</ele><time>2026-04-05T15:17:15Z</time></trkpt><trkpt lat="34.663453170618304" lon="10.522460096204034"><ele>88.0</ele><time>2026-04-05T15:17:16Z</time></trkpt><trkpt lat="34.6632663068386" lon="10.52213434534371"><ele>88.0</ele><time>2026-04-05T15:17:17Z</time></trkpt><trkpt lat="34.663083945733796" lon="10.521814954030395"><ele>87.5</ele><time>2026-04-05T15:17:18Z</time></trkpt><trkpt lat="34.66290489194842" lon="10.52150056144424"><ele>87.0</ele><time>2026-04-05T15:17:19Z</time></trkpt><trkpt lat="34.66273324974558" lon="10.52119961401724"><ele>83.5</ele><time>2026-04-05T15:17:20Z</time></trkpt><trkpt lat="34.66256860073615" lon="10.520910203743432"><ele>80.0</ele><time>2026-04-05T15:17:21Z</time></trkpt><trkpt lat="34.662405770339475" lon="10.520622262108054"><ele>78.0</ele><time>2026-04-05T15:17:22Z</time></trkpt><trkpt lat="34.66224116702837" lon="10.520333838218935"><ele>76.0</ele><time>2026-04-05T15:17:23Z</time></trkpt><trkpt lat="34.662076815821855" lon="10.52004754673201"><ele>75.0</ele><time>2026-04-05T15:17:24Z</time></trkpt><trkpt lat="34.6619112960415" lon="10.519760543975641"><ele>74.0</ele><time>2026-04-05T15:17:25Z</time></trkpt><trkpt lat="34.66174837645826" lon="10.519474534470449"><ele>74.5</ele><time>2026-04-05T15:17:26Z</time></trkpt><trkpt lat="34.661584531146524" lon="10.519187526383103"><ele>75.0</ele><time>2026-04-05T15:17:27Z</time></trkpt><trkpt lat="34.66125089623881" lon="10.518618442401772"><ele>76.0</ele><time>2026-04-05T15:17:29Z</time></trkpt><trkpt lat="34.66108060758428" lon="10.518332681349737"><ele>77.0</ele><time>2026-04-05T15:17:30Z</time></trkpt><trkpt lat="34.660910546942084" lon="10.518047795926568"><ele>78.5</ele><time>2026-04-05T15:17:31Z</time></trkpt><trkpt lat="34.660740999341925" lon="10.517763035146144"><ele>80.0</ele><time>2026-04-05T15:17:32Z</time></trkpt><trkpt lat="34.660572016665725" lon="10.517477991828335"><ele>80.0</ele><time>2026-04-05T15:17:33Z</time></trkpt><trkpt lat="34.660401597227576" lon="10.517194059992002"><ele>80.0</ele><time>2026-04-05T15:17:34Z</time></trkpt><trkpt lat="34.660229887543416" lon="10.516908352655543"><ele>79.5</ele><time>2026-04-05T15:17:35Z</time></trkpt><trkpt lat="34.660053686515944" lon="10.516625541118378"><ele>79.0</ele><time>2026-04-05T15:17:36Z</time></trkpt><trkpt lat="34.65987467020122" lon="10.516348447739237"><ele>79.0</ele><time>2026-04-05T15:17:37Z</time></trkpt><trkpt lat="34.659692424509004" lon="10.516074375848323"><ele>79.0</ele><time>2026-04-05T15:17:38Z</time></trkpt><trkpt lat="34.659513862808645" lon="10.515798567032128"><ele>79.5</ele><time>2026-04-05T15:17:39Z</time></trkpt><trkpt lat="34.65933842890071" lon="10.515521735181716"><ele>80.0</ele><time>2026-04-05T15:17:40Z</time></trkpt><trkpt lat="34.659160479310415" lon="10.515245209400586"><ele>80.5</ele><time>2026-04-05T15:17:41Z</time></trkpt><trkpt lat="34.65897965214375" lon="10.514968887037433"><ele>81.0</ele><time>2026-04-05T15:17:42Z</time></trkpt><trkpt lat="34.65879885493824" lon="10.514691570202789"><ele>81.0</ele><time>2026-04-05T15:17:43Z</time></trkpt><trkpt lat="34.658622115177764" lon="10.514413577194322"><ele>81.0</ele><time>2026-04-05T15:17:44Z</time></trkpt><trkpt lat="34.6584465518752" lon="10.514132889684555"><ele>81.0</ele><time>2026-04-05T15:17:45Z</time></trkpt><trkpt lat="34.65826945555202" lon="10.513853411834255"><ele>81.0</ele><time>2026-04-05T15:17:46Z</time></trkpt><trkpt lat="34.658087459092755" lon="10.513579757542264"><ele>81.0</ele><time>2026-04-05T15:17:47Z</time></trkpt><trkpt lat="34.65790313528545" lon="10.513307989996054"><ele>81.0</ele><time>2026-04-05T15:17:48Z</time></trkpt><trkpt lat="34.657718191924914" lon="10.513034997031014"><ele>80.0</ele><time>2026-04-05T15:17:49Z</time></trkpt><trkpt lat="34.6575313353706" lon="10.512760145157488"><ele>79.0</ele><time>2026-04-05T15:17:50Z</time></trkpt><trkpt lat="34.65734386610262" lon="10.512484755633134"><ele>79.0</ele><time>2026-04-05T15:17:51Z</time></trkpt><trkpt lat="34.657153613872815" lon="10.51220593448212"><ele>79.0</ele><time>2026-04-05T15:17:52Z</time></trkpt><trkpt lat="34.65696325080839" lon="10.5119256110083"><ele>78.0</ele><time>2026-04-05T15:17:53Z</time></trkpt><trkpt lat="34.65676960758838" lon="10.511641308385107"><ele>77.0</ele><time>2026-04-05T15:17:54Z</time></trkpt><trkpt lat="34.65657484503413" lon="10.5113581824285"><ele>76.0</ele><time>2026-04-05T15:17:55Z</time></trkpt><trkpt lat="34.65638416547117" lon="10.511075475349514"><ele>75.0</ele><time>2026-04-05T15:17:56Z</time></trkpt><trkpt lat="34.656197850301616" lon="10.510788174135742"><ele>74.5</ele><time>2026-04-05T15:17:57Z</time></trkpt><trkpt lat="34.65601084053321" lon="10.510503400914903"><ele>74.0</ele><time>2026-04-05T15:17:58Z</time></trkpt><trkpt lat="34.65581632608818" lon="10.510221251151297"><ele>76.0</ele><time>2026-04-05T15:17:59Z</time></trkpt><trkpt lat="34.65562394279924" lon="10.509939849308026"><ele>78.0</ele><time>2026-04-05T15:18:00Z</time></trkpt><trkpt lat="34.65543055689948" lon="10.509658166588029"><ele>77.0</ele><time>2026-04-05T15:18:01Z</time></trkpt><trkpt lat="34.655235560204105" lon="10.50937667555416"><ele>76.0</ele><time>2026-04-05T15:18:02Z</time></trkpt><trkpt lat="34.65504176586152" lon="10.50909389868442"><ele>76.0</ele><time>2026-04-05T15:18:03Z</time></trkpt><trkpt lat="34.6548497255468" lon="10.508811322947256"><ele>76.0</ele><time>2026-04-05T15:18:04Z</time></trkpt><trkpt lat="34.654656976038126" lon="10.508527280669906"><ele>75.0</ele><time>2026-04-05T15:18:05Z</time></trkpt><trkpt lat="34.65446484195321" lon="10.508246006320032"><ele>74.0</ele><time>2026-04-05T15:18:06Z</time></trkpt><trkpt lat="34.6542648708645" lon="10.507953437483865"><ele>72.0</ele><time>2026-04-05T15:18:07Z</time></trkpt><trkpt lat="34.65405595880003" lon="10.507647859871543"><ele>70.0</ele><time>2026-04-05T15:18:08Z</time></trkpt><trkpt lat="34.6538477719818" lon="10.507340839261829"><ele>69.5</ele><time>2026-04-05T15:18:09Z</time></trkpt><trkpt lat="34.65364178161442" lon="10.507035978433828"><ele>69.0</ele><time>2026-04-05T15:18:10Z</time></trkpt><trkpt lat="34.65343953189053" lon="10.506733049582618"><ele>69.5</ele><time>2026-04-05T15:18:11Z</time></trkpt><trkpt lat="34.653237932770494" lon="10.50643250462159"><ele>70.0</ele><time>2026-04-05T15:18:12Z</time></trkpt><trkpt lat="34.653034725800424" lon="10.506136642139353"><ele>70.0</ele><time>2026-04-05T15:18:13Z</time></trkpt><trkpt lat="34.652831838743715" lon="10.505841111264386"><ele>70.0</ele><time>2026-04-05T15:18:14Z</time></trkpt><trkpt lat="34.652630967996025" lon="10.505543475891491"><ele>69.0</ele><time>2026-04-05T15:18:15Z</time></trkpt><trkpt lat="34.65243020975549" lon="10.505245329526792"><ele>68.0</ele><time>2026-04-05T15:18:16Z</time></trkpt><trkpt lat="34.65222768146622" lon="10.504949065957447"><ele>68.0</ele><time>2026-04-05T15:18:17Z</time></trkpt><trkpt lat="34.65202518656489" lon="10.504654653912652"><ele>68.0</ele><time>2026-04-05T15:18:18Z</time></trkpt><trkpt lat="34.6518235932463" lon="10.504361563410768"><ele>70.0</ele><time>2026-04-05T15:18:19Z</time></trkpt><trkpt lat="34.65162102721824" lon="10.504068067722674"><ele>72.0</ele><time>2026-04-05T15:18:20Z</time></trkpt><trkpt lat="34.651419252377025" lon="10.503769016773566"><ele>71.5</ele><time>2026-04-05T15:18:21Z</time></trkpt><trkpt lat="34.651217270566406" lon="10.503468391387724"><ele>71.0</ele><time>2026-04-05T15:18:22Z</time></trkpt><trkpt lat="34.65101333491128" lon="10.503165478996108"><ele>70.5</ele><time>2026-04-05T15:18:23Z</time></trkpt><trkpt lat="34.65080763251536" lon="10.50286130680872"><ele>70.0</ele><time>2026-04-05T15:18:24Z</time></trkpt><trkpt lat="34.65059676625463" lon="10.502554692604233"><ele>70.0</ele><time>2026-04-05T15:18:25Z</time></trkpt><trkpt lat="34.65038248155113" lon="10.502250901046105"><ele>70.0</ele><time>2026-04-05T15:18:26Z</time></trkpt><trkpt lat="34.65016239625204" lon="10.501949344585947"><ele>68.0</ele><time>2026-04-05T15:18:27Z</time></trkpt><trkpt lat="34.64993886926155" lon="10.501646462890823"><ele>66.0</ele><time>2026-04-05T15:18:28Z</time></trkpt><trkpt lat="34.649712161201414" lon="10.501343776459265"><ele>65.5</ele><time>2026-04-05T15:18:29Z</time></trkpt><trkpt lat="34.649480691319226" lon="10.501040911788689"><ele>65.0</ele><time>2026-04-05T15:18:30Z</time></trkpt><trkpt lat="34.64924557377057" lon="10.500741781804342"><ele>65.0</ele><time>2026-04-05T15:18:31Z</time></trkpt><trkpt lat="34.649005657932086" lon="10.500444023879913"><ele>65.0</ele><time>2026-04-05T15:18:32Z</time></trkpt><trkpt lat="34.64876275914413" lon="10.50014784093648"><ele>63.5</ele><time>2026-04-05T15:18:33Z</time></trkpt><trkpt lat="34.648518750772034" lon="10.49985393350115"><ele>62.0</ele><time>2026-04-05T15:18:34Z</time></trkpt><trkpt lat="34.64826992869829" lon="10.49956211007945"><ele>62.0</ele><time>2026-04-05T15:18:35Z</time></trkpt><trkpt lat="34.64801972954927" lon="10.499273749886974"><ele>62.0</ele><time>2026-04-05T15:18:36Z</time></trkpt><trkpt lat="34.647765414217524" lon="10.498987154887898"><ele>60.0</ele><time>2026-04-05T15:18:37Z</time></trkpt><trkpt lat="34.64750816789736" lon="10.498702072606907"><ele>58.0</ele><time>2026-04-05T15:18:38Z</time></trkpt><trkpt lat="34.647246789512586" lon="10.498417482123884"><ele>58.0</ele><time>2026-04-05T15:18:39Z</time></trkpt><trkpt lat="34.64697682921217" lon="10.49812857867816"><ele>58.0</ele><time>2026-04-05T15:18:40Z</time></trkpt><trkpt lat="34.6467027743772" lon="10.497841173460202"><ele>58.0</ele><time>2026-04-05T15:18:41Z</time></trkpt><trkpt lat="34.64642446889913" lon="10.497556630526585"><ele>58.0</ele><time>2026-04-05T15:18:42Z</time></trkpt><trkpt lat="34.64614440459223" lon="10.497270005414434"><ele>57.0</ele><time>2026-04-05T15:18:43Z</time></trkpt><trkpt lat="34.64586275075348" lon="10.496983873644442"><ele>56.0</ele><time>2026-04-05T15:18:44Z</time></trkpt><trkpt lat="34.64558194129637" lon="10.496698266523843"><ele>56.0</ele><time>2026-04-05T15:18:44.999Z</time></trkpt><trkpt lat="34.64530009578599" lon="10.496408067265623"><ele>56.0</ele><time>2026-04-05T15:18:45.999Z</time></trkpt><trkpt lat="34.64502072243855" lon="10.496118423597531"><ele>55.0</ele><time>2026-04-05T15:18:46.999Z</time></trkpt><trkpt lat="34.64474643861084" lon="10.495827894844059"><ele>54.0</ele><time>2026-04-05T15:18:47.999Z</time></trkpt><trkpt lat="34.64446897543822" lon="10.495538997299894"><ele>54.0</ele><time>2026-04-05T15:18:48.999Z</time></trkpt><trkpt lat="34.644191939341276" lon="10.495251556469793"><ele>54.0</ele><time>2026-04-05T15:18:49.999Z</time></trkpt><trkpt lat="34.64391295779683" lon="10.494966542745223"><ele>54.0</ele><time>2026-04-05T15:18:50.999Z</time></trkpt><trkpt lat="34.6436330326232" lon="10.494676161035025"><ele>54.0</ele><time>2026-04-05T15:18:51.999Z</time></trkpt><trkpt lat="34.64335435236978" lon="10.494387221655101"><ele>53.5</ele><time>2026-04-05T15:18:52.999Z</time></trkpt><trkpt lat="34.64307469017809" lon="10.494098239273155"><ele>53.0</ele><time>2026-04-05T15:18:53.999Z</time></trkpt><trkpt lat="34.64279065802138" lon="10.493807363695046"><ele>55.0</ele><time>2026-04-05T15:18:54.999Z</time></trkpt><trkpt lat="34.6425102551104" lon="10.49351720258824"><ele>57.0</ele><time>2026-04-05T15:18:55.999Z</time></trkpt><trkpt lat="34.642229594176925" lon="10.493228255991346"><ele>59.5</ele><time>2026-04-05T15:18:56.999Z</time></trkpt><trkpt lat="34.64194626724079" lon="10.492940281343245"><ele>62.0</ele><time>2026-04-05T15:18:57.999Z</time></trkpt><trkpt lat="34.641666736635486" lon="10.492651699325503"><ele>62.0</ele><time>2026-04-05T15:18:58.999Z</time></trkpt><trkpt lat="34.641388944683825" lon="10.492360929194037"><ele>62.0</ele><time>2026-04-05T15:18:59.999Z</time></trkpt><trkpt lat="34.64111055887937" lon="10.492071050188255"><ele>62.5</ele><time>2026-04-05T15:19:00.999Z</time></trkpt><trkpt lat="34.64083136767469" lon="10.49178170648763"><ele>63.0</ele><time>2026-04-05T15:19:01.999Z</time></trkpt><trkpt lat="34.640550584321915" lon="10.491491718487314"><ele>65.0</ele><time>2026-04-05T15:19:02.999Z</time></trkpt><trkpt lat="34.64027321136715" lon="10.49120105095939"><ele>67.0</ele><time>2026-04-05T15:19:03.999Z</time></trkpt><trkpt lat="34.639994498827136" lon="10.490908939448342"><ele>67.0</ele><time>2026-04-05T15:19:04.999Z</time></trkpt><trkpt lat="34.63971654101807" lon="10.490618406266702"><ele>67.0</ele><time>2026-04-05T15:19:06Z</time></trkpt><trkpt lat="34.63943506851645" lon="10.490330754520988"><ele>68.0</ele><time>2026-04-05T15:19:07Z</time></trkpt><trkpt lat="34.639152230114405" lon="10.490044870083581"><ele>69.0</ele><time>2026-04-05T15:19:08Z</time></trkpt><trkpt lat="34.638868693187085" lon="10.489758141028597"><ele>69.0</ele><time>2026-04-05T15:19:09Z</time></trkpt><trkpt lat="34.638588145560256" lon="10.489468934047254"><ele>69.0</ele><time>2026-04-05T15:19:10Z</time></trkpt><trkpt lat="34.638312883941616" lon="10.489175468486566"><ele>69.0</ele><time>2026-04-05T15:19:11Z</time></trkpt><trkpt lat="34.63803429039372" lon="10.488883930217769"><ele>69.0</ele><time>2026-04-05T15:19:12Z</time></trkpt><trkpt lat="34.63775342702932" lon="10.488595002420455"><ele>71.0</ele><time>2026-04-05T15:19:13Z</time></trkpt><trkpt lat="34.637468986764276" lon="10.488310393666385"><ele>73.0</ele><time>2026-04-05T15:19:14Z</time></trkpt><trkpt lat="34.637182634507276" lon="10.488029864858252"><ele>74.0</ele><time>2026-04-05T15:19:15Z</time></trkpt><trkpt lat="34.636892415933445" lon="10.48775383696091"><ele>75.0</ele><time>2026-04-05T15:19:16Z</time></trkpt><trkpt lat="34.63659834772927" lon="10.487481882664394"><ele>75.0</ele><time>2026-04-05T15:19:17Z</time></trkpt><trkpt lat="34.63630467724241" lon="10.487214407193953"><ele>75.0</ele><time>2026-04-05T15:19:18Z</time></trkpt><trkpt lat="34.636009673316195" lon="10.486951898880578"><ele>74.5</ele><time>2026-04-05T15:19:19Z</time></trkpt><trkpt lat="34.6357153321341" lon="10.486690754574447"><ele>74.0</ele><time>2026-04-05T15:19:20Z</time></trkpt><trkpt lat="34.635417336297365" lon="10.486435831726398"><ele>73.0</ele><time>2026-04-05T15:19:21Z</time></trkpt><trkpt lat="34.63511940859981" lon="10.486187112484437"><ele>72.0</ele><time>2026-04-05T15:19:22Z</time></trkpt><trkpt lat="34.63481938048734" lon="10.48594163891248"><ele>72.0</ele><time>2026-04-05T15:19:23Z</time></trkpt><trkpt lat="34.634511407908704" lon="10.485698161765884"><ele>72.0</ele><time>2026-04-05T15:19:24Z</time></trkpt><trkpt lat="34.6342087921484" lon="10.485457622659284"><ele>71.5</ele><time>2026-04-05T15:19:25Z</time></trkpt><trkpt lat="34.63390778550949" lon="10.485219649899992"><ele>71.0</ele><time>2026-04-05T15:19:26Z</time></trkpt><trkpt lat="34.63359838509919" lon="10.484987258284017"><ele>71.0</ele><time>2026-04-05T15:19:27Z</time></trkpt><trkpt lat="34.63328668647587" lon="10.484760166621571"><ele>71.0</ele><time>2026-04-05T15:19:28Z</time></trkpt><trkpt lat="34.63297713518266" lon="10.484534794918634"><ele>70.5</ele><time>2026-04-05T15:19:29Z</time></trkpt><trkpt lat="34.63265895631832" lon="10.484316745209247"><ele>70.0</ele><time>2026-04-05T15:19:30Z</time></trkpt><trkpt lat="34.63234468408101" lon="10.484100048883276"><ele>70.0</ele><time>2026-04-05T15:19:31Z</time></trkpt><trkpt lat="34.632035853426444" lon="10.483880877285197"><ele>70.0</ele><time>2026-04-05T15:19:32Z</time></trkpt><trkpt lat="34.631735779102875" lon="10.483674121756414"><ele>69.5</ele><time>2026-04-05T15:19:33Z</time></trkpt><trkpt lat="34.63144790570262" lon="10.483474035976304"><ele>69.0</ele><time>2026-04-05T15:19:34Z</time></trkpt><trkpt lat="34.631163435290276" lon="10.483270373143354"><ele>69.0</ele><time>2026-04-05T15:19:35Z</time></trkpt><trkpt lat="34.63088391387373" lon="10.483070734383096"><ele>69.0</ele><time>2026-04-05T15:19:36Z</time></trkpt><trkpt lat="34.63060371528118" lon="10.482873307029799"><ele>68.5</ele><time>2026-04-05T15:19:37Z</time></trkpt><trkpt lat="34.63032390969555" lon="10.482675460778935"><ele>68.0</ele><time>2026-04-05T15:19:38Z</time></trkpt><trkpt lat="34.630042741910174" lon="10.482481819623397"><ele>68.0</ele><time>2026-04-05T15:19:39Z</time></trkpt><trkpt lat="34.629761931220905" lon="10.482282775443329"><ele>68.0</ele><time>2026-04-05T15:19:40Z</time></trkpt><trkpt lat="34.62948067874499" lon="10.482084270232308"><ele>66.5</ele><time>2026-04-05T15:19:41Z</time></trkpt><trkpt lat="34.62919681479494" lon="10.481885525404229"><ele>65.0</ele><time>2026-04-05T15:19:42Z</time></trkpt><trkpt lat="34.62891476049688" lon="10.481686458448412"><ele>64.0</ele><time>2026-04-05T15:19:43Z</time></trkpt><trkpt lat="34.62863113335409" lon="10.48148919242015"><ele>63.0</ele><time>2026-04-05T15:19:44Z</time></trkpt><trkpt lat="34.62834953547703" lon="10.481287263713245"><ele>64.0</ele><time>2026-04-05T15:19:45Z</time></trkpt><trkpt lat="34.628068127475146" lon="10.481092299598494"><ele>65.0</ele><time>2026-04-05T15:19:46Z</time></trkpt><trkpt lat="34.62778383730564" lon="10.480901642998607"><ele>65.0</ele><time>2026-04-05T15:19:47Z</time></trkpt><trkpt lat="34.62750240401189" lon="10.480706787350039"><ele>65.0</ele><time>2026-04-05T15:19:48Z</time></trkpt><trkpt lat="34.62722224154126" lon="10.480503845696152"><ele>65.0</ele><time>2026-04-05T15:19:49Z</time></trkpt><trkpt lat="34.626942354700155" lon="10.480304690040084"><ele>65.0</ele><time>2026-04-05T15:19:50Z</time></trkpt><trkpt lat="34.626658435168395" lon="10.48010437801819"><ele>65.0</ele><time>2026-04-05T15:19:51Z</time></trkpt><trkpt lat="34.626376557355584" lon="10.479907308102161"><ele>65.0</ele><time>2026-04-05T15:19:52Z</time></trkpt><trkpt lat="34.626094087237895" lon="10.479708904809224"><ele>66.0</ele><time>2026-04-05T15:19:53Z</time></trkpt><trkpt lat="34.6258090201024" lon="10.479514612227037"><ele>67.0</ele><time>2026-04-05T15:19:54Z</time></trkpt><trkpt lat="34.62552203513644" lon="10.479322205269293"><ele>66.5</ele><time>2026-04-05T15:19:55Z</time></trkpt><trkpt lat="34.62524102909834" lon="10.479122330101736"><ele>66.0</ele><time>2026-04-05T15:19:56Z</time></trkpt><trkpt lat="34.6249603175446" lon="10.478922324488426"><ele>66.5</ele><time>2026-04-05T15:19:57Z</time></trkpt><trkpt lat="34.62467878721464" lon="10.478723851662123"><ele>67.0</ele><time>2026-04-05T15:19:58Z</time></trkpt><trkpt lat="34.62439705250125" lon="10.478523790265033"><ele>66.0</ele><time>2026-04-05T15:19:59Z</time></trkpt><trkpt lat="34.624116018244266" lon="10.478322839912956"><ele>65.0</ele><time>2026-04-05T15:20:00Z</time></trkpt><trkpt lat="34.62383465895113" lon="10.478121764840692"><ele>65.0</ele><time>2026-04-05T15:20:01Z</time></trkpt><trkpt lat="34.623553838694654" lon="10.477919509180577"><ele>65.0</ele><time>2026-04-05T15:20:02Z</time></trkpt><trkpt lat="34.623271396088676" lon="10.477719733565673"><ele>65.0</ele><time>2026-04-05T15:20:03Z</time></trkpt><trkpt lat="34.62298721226047" lon="10.477523205499152"><ele>65.0</ele><time>2026-04-05T15:20:04Z</time></trkpt><trkpt lat="34.62270163169477" lon="10.477327427139555"><ele>65.0</ele><time>2026-04-05T15:20:05Z</time></trkpt><trkpt lat="34.622417633683675" lon="10.477133200530767"><ele>65.0</ele><time>2026-04-05T15:20:06Z</time></trkpt><trkpt lat="34.62213359967775" lon="10.476940760390477"><ele>64.5</ele><time>2026-04-05T15:20:07Z</time></trkpt><trkpt lat="34.62185102088204" lon="10.476741757425176"><ele>64.0</ele><time>2026-04-05T15:20:08Z</time></trkpt><trkpt lat="34.62156990200999" lon="10.47654235463935"><ele>64.0</ele><time>2026-04-05T15:20:09Z</time></trkpt><trkpt lat="34.621286044874886" lon="10.476345524189094"><ele>64.0</ele><time>2026-04-05T15:20:10Z</time></trkpt><trkpt lat="34.621001087983956" lon="10.476147962609966"><ele>64.0</ele><time>2026-04-05T15:20:11Z</time></trkpt><trkpt lat="34.62072057979275" lon="10.47595021452203"><ele>64.0</ele><time>2026-04-05T15:20:12Z</time></trkpt><trkpt lat="34.62043907614328" lon="10.475751409609877"><ele>62.5</ele><time>2026-04-05T15:20:13Z</time></trkpt><trkpt lat="34.620155731550604" lon="10.475553198384947"><ele>61.0</ele><time>2026-04-05T15:20:14Z</time></trkpt><trkpt lat="34.61987559455049" lon="10.475353622744505"><ele>60.5</ele><time>2026-04-05T15:20:15Z</time></trkpt><trkpt lat="34.61959159300894" lon="10.475156793106235"><ele>60.0</ele><time>2026-04-05T15:20:16Z</time></trkpt><trkpt lat="34.61931043842481" lon="10.47495833494188"><ele>59.5</ele><time>2026-04-05T15:20:17Z</time></trkpt><trkpt lat="34.61902557027546" lon="10.474763769013832"><ele>59.0</ele><time>2026-04-05T15:20:18Z</time></trkpt><trkpt lat="34.61874051778641" lon="10.47456732864073"><ele>60.5</ele><time>2026-04-05T15:20:19Z</time></trkpt><trkpt lat="34.61845671148788" lon="10.474369213460333"><ele>62.0</ele><time>2026-04-05T15:20:20Z</time></trkpt><trkpt lat="34.61817451153055" lon="10.47416823372564"><ele>62.0</ele><time>2026-04-05T15:20:21Z</time></trkpt><trkpt lat="34.617891340841375" lon="10.473967570954008"><ele>62.0</ele><time>2026-04-05T15:20:22Z</time></trkpt><trkpt lat="34.61761203628961" lon="10.473763744500008"><ele>62.0</ele><time>2026-04-05T15:20:23Z</time></trkpt><trkpt lat="34.61732917781097" lon="10.473563759629359"><ele>62.0</ele><time>2026-04-05T15:20:24Z</time></trkpt><trkpt lat="34.61704545587787" lon="10.4733643342484"><ele>61.5</ele><time>2026-04-05T15:20:25Z</time></trkpt><trkpt lat="34.616762250155034" lon="10.473167193732495"><ele>61.0</ele><time>2026-04-05T15:20:26Z</time></trkpt><trkpt lat="34.61647895302597" lon="10.472970394487742"><ele>61.0</ele><time>2026-04-05T15:20:27Z</time></trkpt><trkpt lat="34.61619505145134" lon="10.472772960488408"><ele>61.0</ele><time>2026-04-05T15:20:28Z</time></trkpt><trkpt lat="34.61590942544327" lon="10.47257510360035"><ele>61.0</ele><time>2026-04-05T15:20:29Z</time></trkpt><trkpt lat="34.61562732118132" lon="10.472375909672445"><ele>61.0</ele><time>2026-04-05T15:20:30Z</time></trkpt><trkpt lat="34.61534630739226" lon="10.472174200856992"><ele>60.5</ele><time>2026-04-05T15:20:31Z</time></trkpt><trkpt lat="34.615068279023724" lon="10.471967883902451"><ele>60.0</ele><time>2026-04-05T15:20:32Z</time></trkpt><trkpt lat="34.61479389509988" lon="10.471754424604791"><ele>60.0</ele><time>2026-04-05T15:20:33Z</time></trkpt><trkpt lat="34.61452211842506" lon="10.47153671743897"><ele>60.0</ele><time>2026-04-05T15:20:34Z</time></trkpt><trkpt lat="34.614252156712816" lon="10.471312995194399"><ele>59.0</ele><time>2026-04-05T15:20:35Z</time></trkpt><trkpt lat="34.613981688858495" lon="10.47108569864687"><ele>58.0</ele><time>2026-04-05T15:20:36Z</time></trkpt><trkpt lat="34.613715552538764" lon="10.470854614046713"><ele>57.5</ele><time>2026-04-05T15:20:37Z</time></trkpt><trkpt lat="34.613439223792895" lon="10.470608416122845"><ele>57.0</ele><time>2026-04-05T15:20:38Z</time></trkpt><trkpt lat="34.613154757890975" lon="10.470349789075662"><ele>55.5</ele><time>2026-04-05T15:20:39Z</time></trkpt><trkpt lat="34.61286551618025" lon="10.470081699626066"><ele>54.0</ele><time>2026-04-05T15:20:40Z</time></trkpt><trkpt lat="34.61257248420226" lon="10.469801349721385"><ele>54.5</ele><time>2026-04-05T15:20:41Z</time></trkpt><trkpt lat="34.612284287073834" lon="10.46951538627393"><ele>55.0</ele><time>2026-04-05T15:20:41.999Z</time></trkpt><trkpt lat="34.61200501582397" lon="10.469231375568654"><ele>55.0</ele><time>2026-04-05T15:20:42.999Z</time></trkpt><trkpt lat="34.61173296305998" lon="10.468944618864787"><ele>55.0</ele><time>2026-04-05T15:20:43.999Z</time></trkpt><trkpt lat="34.61145773791761" lon="10.468645332917447"><ele>55.0</ele><time>2026-04-05T15:20:44.999Z</time></trkpt><trkpt lat="34.61118127788756" lon="10.468342295443952"><ele>55.0</ele><time>2026-04-05T15:20:45.999Z</time></trkpt><trkpt lat="34.61091201202444" lon="10.468037728825582"><ele>55.5</ele><time>2026-04-05T15:20:46.999Z</time></trkpt><trkpt lat="34.61064939644929" lon="10.467729487375125"><ele>56.0</ele><time>2026-04-05T15:20:47.999Z</time></trkpt><trkpt lat="34.610389764054425" lon="10.467411070862271"><ele>57.5</ele><time>2026-04-05T15:20:48.999Z</time></trkpt><trkpt lat="34.61013244675838" lon="10.467093865182084"><ele>59.0</ele><time>2026-04-05T15:20:49.999Z</time></trkpt><trkpt lat="34.60987767131409" lon="10.466769841159147"><ele>59.0</ele><time>2026-04-05T15:20:50.999Z</time></trkpt><trkpt lat="34.60962615259395" lon="10.466438811738826"><ele>59.0</ele><time>2026-04-05T15:20:51.999Z</time></trkpt><trkpt lat="34.60938123284245" lon="10.466108211373246"><ele>59.0</ele><time>2026-04-05T15:20:52.999Z</time></trkpt><trkpt lat="34.609139417796975" lon="10.465770127955603"><ele>59.0</ele><time>2026-04-05T15:20:53.999Z</time></trkpt><trkpt lat="34.60890197053529" lon="10.465430918441191"><ele>59.0</ele><time>2026-04-05T15:20:54.999Z</time></trkpt><trkpt lat="34.608668272359864" lon="10.465088454423517"><ele>59.0</ele><time>2026-04-05T15:20:55.999Z</time></trkpt><trkpt lat="34.60843554357908" lon="10.464743106054417"><ele>58.5</ele><time>2026-04-05T15:20:56.999Z</time></trkpt><trkpt lat="34.60820451192294" lon="10.464394803093564"><ele>58.0</ele><time>2026-04-05T15:20:57.999Z</time></trkpt><trkpt lat="34.60797375540362" lon="10.464046891344907"><ele>58.0</ele><time>2026-04-05T15:20:58.999Z</time></trkpt><trkpt lat="34.607743829642814" lon="10.463694463332942"><ele>58.0</ele><time>2026-04-05T15:20:59.999Z</time></trkpt><trkpt lat="34.60751344792128" lon="10.463345669960816"><ele>58.0</ele><time>2026-04-05T15:21:00.999Z</time></trkpt><trkpt lat="34.607285165163084" lon="10.46299627854473"><ele>58.0</ele><time>2026-04-05T15:21:01.999Z</time></trkpt><trkpt lat="34.607055077278716" lon="10.46265104506081"><ele>58.0</ele><time>2026-04-05T15:21:02.999Z</time></trkpt><trkpt lat="34.60682669220054" lon="10.462305522779332"><ele>58.0</ele><time>2026-04-05T15:21:03.999Z</time></trkpt><trkpt lat="34.60659664516091" lon="10.461961761169508"><ele>58.0</ele><time>2026-04-05T15:21:04.999Z</time></trkpt><trkpt lat="34.60637018153379" lon="10.461620940802845"><ele>58.0</ele><time>2026-04-05T15:21:05.999Z</time></trkpt><trkpt lat="34.60614407952638" lon="10.461282037424356"><ele>58.0</ele><time>2026-04-05T15:21:06.999Z</time></trkpt><trkpt lat="34.60592205875878" lon="10.460942852360416"><ele>58.0</ele><time>2026-04-05T15:21:07.999Z</time></trkpt><trkpt lat="34.605695984798544" lon="10.460602831798067"><ele>58.5</ele><time>2026-04-05T15:21:08.999Z</time></trkpt><trkpt lat="34.60547110191557" lon="10.460266215313736"><ele>59.0</ele><time>2026-04-05T15:21:09.999Z</time></trkpt><trkpt lat="34.60524523713747" lon="10.459931347422932"><ele>59.0</ele><time>2026-04-05T15:21:10.999Z</time></trkpt><trkpt lat="34.60502138045461" lon="10.459592930530007"><ele>59.0</ele><time>2026-04-05T15:21:12Z</time></trkpt><trkpt lat="34.60479634045658" lon="10.459255259652485"><ele>59.0</ele><time>2026-04-05T15:21:13Z</time></trkpt><trkpt lat="34.60457667076183" lon="10.458913785825265"><ele>59.0</ele><time>2026-04-05T15:21:14Z</time></trkpt><trkpt lat="34.604357748636986" lon="10.45856965972372"><ele>58.5</ele><time>2026-04-05T15:21:15Z</time></trkpt><trkpt lat="34.60414092064344" lon="10.458227219201467"><ele>58.0</ele><time>2026-04-05T15:21:16Z</time></trkpt><trkpt lat="34.60392306126172" lon="10.457886900576238"><ele>58.0</ele><time>2026-04-05T15:21:17Z</time></trkpt><trkpt lat="34.60370358861301" lon="10.457546509238052"><ele>58.0</ele><time>2026-04-05T15:21:18Z</time></trkpt><trkpt lat="34.603481822181536" lon="10.457208121037075"><ele>57.5</ele><time>2026-04-05T15:21:19Z</time></trkpt><trkpt lat="34.60326281946233" lon="10.456872931122396"><ele>57.0</ele><time>2026-04-05T15:21:20Z</time></trkpt><trkpt lat="34.60303909680953" lon="10.456534815746739"><ele>56.5</ele><time>2026-04-05T15:21:21Z</time></trkpt><trkpt lat="34.60281616852596" lon="10.456199127732145"><ele>56.0</ele><time>2026-04-05T15:21:22Z</time></trkpt><trkpt lat="34.60259349890697" lon="10.455863051409992"><ele>56.0</ele><time>2026-04-05T15:21:23Z</time></trkpt><trkpt lat="34.60237048050652" lon="10.455524198248028"><ele>56.0</ele><time>2026-04-05T15:21:24Z</time></trkpt><trkpt lat="34.6021493070727" lon="10.455186914389897"><ele>55.5</ele><time>2026-04-05T15:21:25Z</time></trkpt><trkpt lat="34.60192913091549" lon="10.454850511667098"><ele>55.0</ele><time>2026-04-05T15:21:26Z</time></trkpt><trkpt lat="34.601709177903516" lon="10.45451317160298"><ele>55.0</ele><time>2026-04-05T15:21:27Z</time></trkpt><trkpt lat="34.60148500644413" lon="10.454177656571998"><ele>55.0</ele><time>2026-04-05T15:21:28Z</time></trkpt><trkpt lat="34.601262893125394" lon="10.45384443018795"><ele>54.5</ele><time>2026-04-05T15:21:29Z</time></trkpt><trkpt lat="34.601041252742405" lon="10.45351404919727"><ele>54.0</ele><time>2026-04-05T15:21:30Z</time></trkpt><trkpt lat="34.60082145445149" lon="10.45318211463986"><ele>54.5</ele><time>2026-04-05T15:21:31Z</time></trkpt><trkpt lat="34.60060278826165" lon="10.452850138083498"><ele>55.0</ele><time>2026-04-05T15:21:32Z</time></trkpt><trkpt lat="34.600382699686584" lon="10.452516868390584"><ele>55.0</ele><time>2026-04-05T15:21:33Z</time></trkpt><trkpt lat="34.60016269277965" lon="10.452187652564094"><ele>55.0</ele><time>2026-04-05T15:21:34Z</time></trkpt><trkpt lat="34.59994411321228" lon="10.451857511897058"><ele>55.5</ele><time>2026-04-05T15:21:35Z</time></trkpt><trkpt lat="34.59972695132241" lon="10.451526227620574"><ele>56.0</ele><time>2026-04-05T15:21:36Z</time></trkpt><trkpt lat="34.59951016496813" lon="10.45119491016914"><ele>56.0</ele><time>2026-04-05T15:21:37Z</time></trkpt><trkpt lat="34.599292089765015" lon="10.450863382740481"><ele>56.0</ele><time>2026-04-05T15:21:38Z</time></trkpt><trkpt lat="34.59907475650169" lon="10.450534220018247"><ele>55.5</ele><time>2026-04-05T15:21:39Z</time></trkpt><trkpt lat="34.59886033501471" lon="10.450200539388034"><ele>55.0</ele><time>2026-04-05T15:21:40Z</time></trkpt><trkpt lat="34.59865034160834" lon="10.449863564593878"><ele>55.0</ele><time>2026-04-05T15:21:41Z</time></trkpt><trkpt lat="34.59844407080045" lon="10.449524005941935"><ele>55.0</ele><time>2026-04-05T15:21:42Z</time></trkpt><trkpt lat="34.59823884589247" lon="10.449180930800505"><ele>55.0</ele><time>2026-04-05T15:21:43Z</time></trkpt><trkpt lat="34.5980388372074" lon="10.448835779972173"><ele>55.0</ele><time>2026-04-05T15:21:44Z</time></trkpt><trkpt lat="34.597842983201986" lon="10.448485259790763"><ele>55.0</ele><time>2026-04-05T15:21:45Z</time></trkpt><trkpt lat="34.59765604769315" lon="10.44813190754452"><ele>55.0</ele><time>2026-04-05T15:21:46Z</time></trkpt><trkpt lat="34.597471102715105" lon="10.44777516620066"><ele>55.0</ele><time>2026-04-05T15:21:47Z</time></trkpt><trkpt lat="34.597290723281056" lon="10.447414943024853"><ele>55.0</ele><time>2026-04-05T15:21:48Z</time></trkpt><trkpt lat="34.597113659575484" lon="10.447052009249665"><ele>54.5</ele><time>2026-04-05T15:21:49Z</time></trkpt><trkpt lat="34.59694183178622" lon="10.446689528509578"><ele>54.0</ele><time>2026-04-05T15:21:50Z</time></trkpt><trkpt lat="34.59677182538626" lon="10.446324013315214"><ele>54.5</ele><time>2026-04-05T15:21:51Z</time></trkpt><trkpt lat="34.596605777834135" lon="10.445956312080146"><ele>55.0</ele><time>2026-04-05T15:21:52Z</time></trkpt><trkpt lat="34.596447645885554" lon="10.445589982768322"><ele>54.5</ele><time>2026-04-05T15:21:53Z</time></trkpt><trkpt lat="34.59629794685595" lon="10.44522661593558"><ele>54.0</ele><time>2026-04-05T15:21:54Z</time></trkpt><trkpt lat="34.59615192278218" lon="10.444863694188495"><ele>53.5</ele><time>2026-04-05T15:21:55Z</time></trkpt><trkpt lat="34.59601185552896" lon="10.444498446023093"><ele>53.0</ele><time>2026-04-05T15:21:56Z</time></trkpt><trkpt lat="34.59587350283003" lon="10.444129571015505"><ele>52.0</ele><time>2026-04-05T15:21:57Z</time></trkpt><trkpt lat="34.595738338130545" lon="10.443761152126928"><ele>51.0</ele><time>2026-04-05T15:21:58Z</time></trkpt><trkpt lat="34.59560748210491" lon="10.443391331310497"><ele>51.0</ele><time>2026-04-05T15:21:59Z</time></trkpt><trkpt lat="34.59548117110406" lon="10.443016655065556"><ele>51.0</ele><time>2026-04-05T15:22:00Z</time></trkpt><trkpt lat="34.59535790067347" lon="10.442641770687844"><ele>52.0</ele><time>2026-04-05T15:22:01Z</time></trkpt><trkpt lat="34.595242701116504" lon="10.44226248256749"><ele>53.0</ele><time>2026-04-05T15:22:02Z</time></trkpt><trkpt lat="34.595129033201985" lon="10.441881507279854"><ele>53.0</ele><time>2026-04-05T15:22:03Z</time></trkpt><trkpt lat="34.595021553636045" lon="10.44149884139366"><ele>53.0</ele><time>2026-04-05T15:22:04Z</time></trkpt><trkpt lat="34.594919406732146" lon="10.441117295086334"><ele>53.0</ele><time>2026-04-05T15:22:05Z</time></trkpt><trkpt lat="34.594821914817864" lon="10.440734081680532"><ele>53.0</ele><time>2026-04-05T15:22:06Z</time></trkpt><trkpt lat="34.59472912246323" lon="10.440349685399667"><ele>53.0</ele><time>2026-04-05T15:22:07Z</time></trkpt><trkpt lat="34.594638662701456" lon="10.439964000993678"><ele>53.0</ele><time>2026-04-05T15:22:08Z</time></trkpt><trkpt lat="34.59455154413191" lon="10.439575933125328"><ele>53.0</ele><time>2026-04-05T15:22:09Z</time></trkpt><trkpt lat="34.594470586332996" lon="10.43918780380708"><ele>53.0</ele><time>2026-04-05T15:22:10Z</time></trkpt><trkpt lat="34.59439242093494" lon="10.438800362023565"><ele>53.0</ele><time>2026-04-05T15:22:11Z</time></trkpt><trkpt lat="34.5943193930552" lon="10.438413333358623"><ele>53.0</ele><time>2026-04-05T15:22:12Z</time></trkpt><trkpt lat="34.59425445412545" lon="10.438047779196907"><ele>53.5</ele><time>2026-04-05T15:22:13Z</time></trkpt><trkpt lat="34.59419454874547" lon="10.437704409875233"><ele>54.0</ele><time>2026-04-05T15:22:14Z</time></trkpt><trkpt lat="34.59414358238631" lon="10.437382885124643"><ele>54.0</ele><time>2026-04-05T15:22:15Z</time></trkpt><trkpt lat="34.59409865363045" lon="10.437071483824777"><ele>54.0</ele><time>2026-04-05T15:22:16Z</time></trkpt><trkpt lat="34.59405642581775" lon="10.43675513157027"><ele>54.0</ele><time>2026-04-05T15:22:17Z</time></trkpt><trkpt lat="34.59401534674138" lon="10.436433092487789"><ele>54.0</ele><time>2026-04-05T15:22:18Z</time></trkpt><trkpt lat="34.593977296473355" lon="10.43610550694501"><ele>54.0</ele><time>2026-04-05T15:22:19Z</time></trkpt><trkpt lat="34.593942335501374" lon="10.435769696478733"><ele>54.0</ele><time>2026-04-05T15:22:20Z</time></trkpt><trkpt lat="34.59391151405257" lon="10.43542511424195"><ele>54.0</ele><time>2026-04-05T15:22:21Z</time></trkpt><trkpt lat="34.593882213323454" lon="10.435076686084924"><ele>54.0</ele><time>2026-04-05T15:22:22Z</time></trkpt><trkpt lat="34.59385582641451" lon="10.434724557175766"><ele>54.0</ele><time>2026-04-05T15:22:23Z</time></trkpt><trkpt lat="34.59382838549201" lon="10.434366283446671"><ele>54.0</ele><time>2026-04-05T15:22:24Z</time></trkpt><trkpt lat="34.59380087899217" lon="10.433998664942534"><ele>54.5</ele><time>2026-04-05T15:22:25Z</time></trkpt><trkpt lat="34.593777633833845" lon="10.433626552503675"><ele>55.0</ele><time>2026-04-05T15:22:26Z</time></trkpt><trkpt lat="34.5937568584288" lon="10.433257078732407"><ele>55.5</ele><time>2026-04-05T15:22:27Z</time></trkpt><trkpt lat="34.59373741068555" lon="10.432883603408406"><ele>56.0</ele><time>2026-04-05T15:22:28Z</time></trkpt><trkpt lat="34.59371759628411" lon="10.432505713896411"><ele>55.5</ele><time>2026-04-05T15:22:29Z</time></trkpt><trkpt lat="34.59369742761987" lon="10.432127816395797"><ele>55.0</ele><time>2026-04-05T15:22:30Z</time></trkpt><trkpt lat="34.593676372900006" lon="10.431746698614129"><ele>54.5</ele><time>2026-04-05T15:22:31Z</time></trkpt><trkpt lat="34.59365430972919" lon="10.431366270536993"><ele>54.0</ele><time>2026-04-05T15:22:32Z</time></trkpt><trkpt lat="34.59363442589438" lon="10.430979325249922"><ele>54.0</ele><time>2026-04-05T15:22:33Z</time></trkpt><trkpt lat="34.59361681960347" lon="10.430595474571803"><ele>54.0</ele><time>2026-04-05T15:22:34Z</time></trkpt><trkpt lat="34.59359870243185" lon="10.430210303242495"><ele>54.0</ele><time>2026-04-05T15:22:35Z</time></trkpt><trkpt lat="34.59357536817112" lon="10.429821823136225"><ele>54.0</ele><time>2026-04-05T15:22:36Z</time></trkpt><trkpt lat="34.59354706646568" lon="10.429434185250301"><ele>54.0</ele><time>2026-04-05T15:22:36.999Z</time></trkpt><trkpt lat="34.593518194770226" lon="10.429043707840993"><ele>54.0</ele><time>2026-04-05T15:22:37.999Z</time></trkpt><trkpt lat="34.59348893823181" lon="10.428653296930772"><ele>54.0</ele><time>2026-04-05T15:22:38.999Z</time></trkpt><trkpt lat="34.593456436239116" lon="10.428265207293515"><ele>54.0</ele><time>2026-04-05T15:22:39.999Z</time></trkpt><trkpt lat="34.59341855564826" lon="10.427877470723987"><ele>54.0</ele><time>2026-04-05T15:22:40.999Z</time></trkpt><trkpt lat="34.59337668710967" lon="10.42749057436734"><ele>54.0</ele><time>2026-04-05T15:22:41.999Z</time></trkpt><trkpt lat="34.59333013518412" lon="10.427107107381799"><ele>54.5</ele><time>2026-04-05T15:22:42.999Z</time></trkpt><trkpt lat="34.59328013128522" lon="10.42671991257355"><ele>55.0</ele><time>2026-04-05T15:22:43.999Z</time></trkpt><trkpt lat="34.59322561356" lon="10.42633864505445"><ele>55.5</ele><time>2026-04-05T15:22:44.999Z</time></trkpt><trkpt lat="34.59316807421814" lon="10.425954162189761"><ele>56.0</ele><time>2026-04-05T15:22:45.999Z</time></trkpt><trkpt lat="34.59310711330792" lon="10.425573052955617"><ele>55.0</ele><time>2026-04-05T15:22:46.999Z</time></trkpt><trkpt lat="34.59303974776784" lon="10.425191288723644"><ele>54.0</ele><time>2026-04-05T15:22:47.999Z</time></trkpt><trkpt lat="34.59296672096394" lon="10.424811030365833"><ele>54.5</ele><time>2026-04-05T15:22:48.999Z</time></trkpt><trkpt lat="34.592890859435265" lon="10.424431414234768"><ele>55.0</ele><time>2026-04-05T15:22:49.999Z</time></trkpt><trkpt lat="34.592811027311086" lon="10.424051474494204"><ele>54.5</ele><time>2026-04-05T15:22:50.999Z</time></trkpt><trkpt lat="34.59272979509113" lon="10.42367510530856"><ele>54.0</ele><time>2026-04-05T15:22:51.999Z</time></trkpt><trkpt lat="34.59264430162112" lon="10.423299823826945"><ele>54.0</ele><time>2026-04-05T15:22:52.999Z</time></trkpt><trkpt lat="34.59255368013769" lon="10.422925657129566"><ele>54.0</ele><time>2026-04-05T15:22:53.999Z</time></trkpt><trkpt lat="34.5924560244964" lon="10.422550566778433"><ele>54.0</ele><time>2026-04-05T15:22:54.999Z</time></trkpt><trkpt lat="34.59235106909507" lon="10.422177116382285"><ele>54.0</ele><time>2026-04-05T15:22:55.999Z</time></trkpt><trkpt lat="34.592242658827594" lon="10.421808603342564"><ele>54.0</ele><time>2026-04-05T15:22:56.999Z</time></trkpt><trkpt lat="34.59212941956514" lon="10.421442643826884"><ele>54.0</ele><time>2026-04-05T15:22:57.999Z</time></trkpt><trkpt lat="34.59201467920257" lon="10.421073648194584"><ele>54.0</ele><time>2026-04-05T15:22:58.999Z</time></trkpt><trkpt lat="34.59189775220141" lon="10.420708858682364"><ele>54.0</ele><time>2026-04-05T15:22:59.999Z</time></trkpt><trkpt lat="34.59177847598747" lon="10.420347889480025"><ele>54.0</ele><time>2026-04-05T15:23:00.999Z</time></trkpt><trkpt lat="34.59165463508452" lon="10.419987383345495"><ele>54.0</ele><time>2026-04-05T15:23:01.999Z</time></trkpt><trkpt lat="34.591526996740654" lon="10.419628487520875"><ele>54.0</ele><time>2026-04-05T15:23:02.999Z</time></trkpt><trkpt lat="34.59139846920771" lon="10.419270352057724"><ele>54.0</ele><time>2026-04-05T15:23:03.999Z</time></trkpt><trkpt lat="34.591266152676056" lon="10.418917095351503"><ele>53.5</ele><time>2026-04-05T15:23:04.999Z</time></trkpt><trkpt lat="34.59112683586616" lon="10.418565242404767"><ele>53.0</ele><time>2026-04-05T15:23:05.999Z</time></trkpt><trkpt lat="34.59098237029067" lon="10.41821675086072"><ele>53.0</ele><time>2026-04-05T15:23:06.999Z</time></trkpt><trkpt lat="34.59083609071191" lon="10.41787045839216"><ele>53.0</ele><time>2026-04-05T15:23:07.999Z</time></trkpt><trkpt lat="34.59068399160304" lon="10.417526511237094"><ele>53.0</ele><time>2026-04-05T15:23:08.999Z</time></trkpt><trkpt lat="34.590528687737795" lon="10.417186247153097"><ele>53.0</ele><time>2026-04-05T15:23:09.999Z</time></trkpt><trkpt lat="34.59036847160253" lon="10.416848616755473"><ele>53.0</ele><time>2026-04-05T15:23:10.999Z</time></trkpt><trkpt lat="34.59020304041829" lon="10.416509764114059"><ele>53.0</ele><time>2026-04-05T15:23:11.999Z</time></trkpt><trkpt lat="34.59003366892071" lon="10.416177361595059"><ele>53.0</ele><time>2026-04-05T15:23:12.999Z</time></trkpt><trkpt lat="34.58986123206561" lon="10.415846397134718"><ele>53.0</ele><time>2026-04-05T15:23:13.999Z</time></trkpt><trkpt lat="34.589689307437006" lon="10.415517204537865"><ele>52.5</ele><time>2026-04-05T15:23:14.999Z</time></trkpt><trkpt lat="34.58951753475429" lon="10.41518924586725"><ele>52.0</ele><time>2026-04-05T15:23:15.999Z</time></trkpt><trkpt lat="34.58934267507088" lon="10.41485974664665"><ele>52.0</ele><time>2026-04-05T15:23:16.999Z</time></trkpt><trkpt lat="34.58916759344409" lon="10.414532909031118"><ele>52.0</ele><time>2026-04-05T15:23:18Z</time></trkpt><trkpt lat="34.58899249389921" lon="10.414206569439726"><ele>52.0</ele><time>2026-04-05T15:23:19Z</time></trkpt><trkpt lat="34.58881483142903" lon="10.413878733070776"><ele>52.0</ele><time>2026-04-05T15:23:20Z</time></trkpt><trkpt lat="34.58863754606205" lon="10.413550868377994"><ele>53.0</ele><time>2026-04-05T15:23:21Z</time></trkpt><trkpt lat="34.588460702958166" lon="10.413225343554796"><ele>54.0</ele><time>2026-04-05T15:23:22Z</time></trkpt><trkpt lat="34.588284117214926" lon="10.412895838188888"><ele>54.0</ele><time>2026-04-05T15:23:23Z</time></trkpt><trkpt lat="34.58810706182843" lon="10.412566373926166"><ele>54.0</ele><time>2026-04-05T15:23:24Z</time></trkpt><trkpt lat="34.58793083218005" lon="10.41223669553809"><ele>53.0</ele><time>2026-04-05T15:23:25Z</time></trkpt><trkpt lat="34.58775266371556" lon="10.411908937868427"><ele>52.0</ele><time>2026-04-05T15:23:26Z</time></trkpt><trkpt lat="34.58757420133471" lon="10.411582087724135"><ele>51.0</ele><time>2026-04-05T15:23:27Z</time></trkpt><trkpt lat="34.58739617817873" lon="10.411254441412133"><ele>50.0</ele><time>2026-04-05T15:23:28Z</time></trkpt><trkpt lat="34.58721711992813" lon="10.410927161250415"><ele>50.0</ele><time>2026-04-05T15:23:29Z</time></trkpt><trkpt lat="34.587037844294635" lon="10.410602875227779"><ele>50.0</ele><time>2026-04-05T15:23:30Z</time></trkpt><trkpt lat="34.58685928946101" lon="10.410275716943815"><ele>50.0</ele><time>2026-04-05T15:23:31Z</time></trkpt><trkpt lat="34.58668379866195" lon="10.409947932016257"><ele>50.0</ele><time>2026-04-05T15:23:32Z</time></trkpt><trkpt lat="34.5865088327816" lon="10.409618269310156"><ele>50.0</ele><time>2026-04-05T15:23:33Z</time></trkpt><trkpt lat="34.58633696341108" lon="10.409287402377565"><ele>50.0</ele><time>2026-04-05T15:23:34Z</time></trkpt><trkpt lat="34.58616612292518" lon="10.408956104270413"><ele>50.0</ele><time>2026-04-05T15:23:35Z</time></trkpt><trkpt lat="34.58599636132149" lon="10.40862587689547"><ele>50.0</ele><time>2026-04-05T15:23:36Z</time></trkpt><trkpt lat="34.585823477074214" lon="10.408296518328669"><ele>49.0</ele><time>2026-04-05T15:23:37Z</time></trkpt><trkpt lat="34.585646195190456" lon="10.407971910006303"><ele>48.0</ele><time>2026-04-05T15:23:38Z</time></trkpt><trkpt lat="34.58546745687842" lon="10.407646023087096"><ele>48.0</ele><time>2026-04-05T15:23:39Z</time></trkpt><trkpt lat="34.58529021216133" lon="10.407320011283327"><ele>48.0</ele><time>2026-04-05T15:23:40Z</time></trkpt><trkpt lat="34.58511415352128" lon="10.406995305178478"><ele>48.5</ele><time>2026-04-05T15:23:41Z</time></trkpt><trkpt lat="34.584938425446026" lon="10.406665256616815"><ele>49.0</ele><time>2026-04-05T15:23:42Z</time></trkpt><trkpt lat="34.584764580267766" lon="10.406336809447756"><ele>49.0</ele><time>2026-04-05T15:23:43Z</time></trkpt><trkpt lat="34.58459005031133" lon="10.406008887506786"><ele>49.0</ele><time>2026-04-05T15:23:44Z</time></trkpt><trkpt lat="34.584413342621524" lon="10.4056794612918"><ele>48.5</ele><time>2026-04-05T15:23:45Z</time></trkpt><trkpt lat="34.58423815424093" lon="10.405351260868118"><ele>48.0</ele><time>2026-04-05T15:23:46Z</time></trkpt><trkpt lat="34.58406276320403" lon="10.405022322644013"><ele>48.0</ele><time>2026-04-05T15:23:47Z</time></trkpt><trkpt lat="34.583887057191426" lon="10.404694694007985"><ele>48.0</ele><time>2026-04-05T15:23:48Z</time></trkpt><trkpt lat="34.58371019918564" lon="10.404364644991885"><ele>48.5</ele><time>2026-04-05T15:23:49Z</time></trkpt><trkpt lat="34.583534732528285" lon="10.404037457960579"><ele>49.0</ele><time>2026-04-05T15:23:50Z</time></trkpt><trkpt lat="34.583358688032895" lon="10.40370732285287"><ele>49.0</ele><time>2026-04-05T15:23:51Z</time></trkpt><trkpt lat="34.58318354229941" lon="10.40337964282732"><ele>49.0</ele><time>2026-04-05T15:23:52Z</time></trkpt><trkpt lat="34.58300628545734" lon="10.403056558612581"><ele>48.5</ele><time>2026-04-05T15:23:53Z</time></trkpt><trkpt lat="34.5828255359706" lon="10.40273138763347"><ele>48.0</ele><time>2026-04-05T15:23:54Z</time></trkpt><trkpt lat="34.58264622714061" lon="10.402405726122204"><ele>48.0</ele><time>2026-04-05T15:23:55Z</time></trkpt><trkpt lat="34.58247152722569" lon="10.402081558678654"><ele>48.0</ele><time>2026-04-05T15:23:56Z</time></trkpt><trkpt lat="34.58229556992189" lon="10.401755554572718"><ele>48.0</ele><time>2026-04-05T15:23:57Z</time></trkpt><trkpt lat="34.58211881836229" lon="10.40142913169852"><ele>48.0</ele><time>2026-04-05T15:23:58Z</time></trkpt><trkpt lat="34.58194285958802" lon="10.401101591639671"><ele>49.0</ele><time>2026-04-05T15:23:59Z</time></trkpt><trkpt lat="34.58176778664736" lon="10.400774438821017"><ele>50.0</ele><time>2026-04-05T15:24:00Z</time></trkpt><trkpt lat="34.58159521887583" lon="10.400450430945307"><ele>50.0</ele><time>2026-04-05T15:24:01Z</time></trkpt><trkpt lat="34.581422831425876" lon="10.400129256110654"><ele>50.0</ele><time>2026-04-05T15:24:02Z</time></trkpt><trkpt lat="34.58125014897257" lon="10.399811366677714"><ele>50.5</ele><time>2026-04-05T15:24:03Z</time></trkpt><trkpt lat="34.58107911241096" lon="10.399495605749673"><ele>51.0</ele><time>2026-04-05T15:24:04Z</time></trkpt><trkpt lat="34.58090673870901" lon="10.399178136993822"><ele>51.0</ele><time>2026-04-05T15:24:05Z</time></trkpt><trkpt lat="34.58073610662682" lon="10.39885868517323"><ele>51.0</ele><time>2026-04-05T15:24:06Z</time></trkpt><trkpt lat="34.580568405753255" lon="10.398543900725924"><ele>51.0</ele><time>2026-04-05T15:24:07Z</time></trkpt><trkpt lat="34.58039514875505" lon="10.398219720810586"><ele>51.0</ele><time>2026-04-05T15:24:08Z</time></trkpt><trkpt lat="34.58022130379683" lon="10.397898533134917"><ele>51.0</ele><time>2026-04-05T15:24:09Z</time></trkpt><trkpt lat="34.58004969311407" lon="10.397579311592418"><ele>51.0</ele><time>2026-04-05T15:24:10Z</time></trkpt><trkpt lat="34.57987679671165" lon="10.397258684134743"><ele>52.5</ele><time>2026-04-05T15:24:11Z</time></trkpt><trkpt lat="34.57970461462116" lon="10.396941173779249"><ele>54.0</ele><time>2026-04-05T15:24:12Z</time></trkpt><trkpt lat="34.57953008432678" lon="10.396622472476512"><ele>52.5</ele><time>2026-04-05T15:24:13Z</time></trkpt><trkpt lat="34.579356318219205" lon="10.39630428033043"><ele>51.0</ele><time>2026-04-05T15:24:14Z</time></trkpt><trkpt lat="34.57918488976652" lon="10.395986215904328"><ele>51.0</ele><time>2026-04-05T15:24:15Z</time></trkpt><trkpt lat="34.579014803366306" lon="10.395667088910638"><ele>51.0</ele><time>2026-04-05T15:24:16Z</time></trkpt><trkpt lat="34.57884463465655" lon="10.395348982747715"><ele>51.0</ele><time>2026-04-05T15:24:17Z</time></trkpt><trkpt lat="34.578672449353306" lon="10.395030438433364"><ele>51.0</ele><time>2026-04-05T15:24:18Z</time></trkpt><trkpt lat="34.57850087321616" lon="10.394709867106755"><ele>52.5</ele><time>2026-04-05T15:24:19Z</time></trkpt><trkpt lat="34.57832994909115" lon="10.39439122678509"><ele>54.0</ele><time>2026-04-05T15:24:20Z</time></trkpt><trkpt lat="34.57815770787731" lon="10.39407250475156"><ele>53.5</ele><time>2026-04-05T15:24:21Z</time></trkpt><trkpt lat="34.57798383916811" lon="10.393755340444896"><ele>53.0</ele><time>2026-04-05T15:24:22Z</time></trkpt><trkpt lat="34.57781053318483" lon="10.393436675282663"><ele>53.0</ele><time>2026-04-05T15:24:23Z</time></trkpt><trkpt lat="34.577637147304635" lon="10.39311748912472"><ele>53.0</ele><time>2026-04-05T15:24:24Z</time></trkpt><trkpt lat="34.57746623165962" lon="10.39279964598029"><ele>52.0</ele><time>2026-04-05T15:24:25Z</time></trkpt><trkpt lat="34.57729625782864" lon="10.392480614824237"><ele>51.0</ele><time>2026-04-05T15:24:26Z</time></trkpt><trkpt lat="34.57712422238196" lon="10.39215986013676"><ele>50.5</ele><time>2026-04-05T15:24:27Z</time></trkpt><trkpt lat="34.57695398912349" lon="10.391841243456401"><ele>50.0</ele><time>2026-04-05T15:24:28Z</time></trkpt><trkpt lat="34.57678187960422" lon="10.391521042581784"><ele>49.5</ele><time>2026-04-05T15:24:29Z</time></trkpt><trkpt lat="34.57660961611137" lon="10.391202990541768"><ele>49.0</ele><time>2026-04-05T15:24:30Z</time></trkpt><trkpt lat="34.57643638475414" lon="10.390882698630238"><ele>49.0</ele><time>2026-04-05T15:24:31Z</time></trkpt><trkpt lat="34.57626461029698" lon="10.390564427199878"><ele>49.0</ele><time>2026-04-05T15:24:32Z</time></trkpt><trkpt lat="34.57609053312695" lon="10.390245516477709"><ele>49.0</ele><time>2026-04-05T15:24:33Z</time></trkpt><trkpt lat="34.575915475947625" lon="10.389929264397933"><ele>49.0</ele><time>2026-04-05T15:24:34Z</time></trkpt><trkpt lat="34.575740769775265" lon="10.389611143215962"><ele>50.0</ele><time>2026-04-05T15:24:35Z</time></trkpt><trkpt lat="34.57556956809135" lon="10.389294619000497"><ele>51.0</ele><time>2026-04-05T15:24:35.999Z</time></trkpt><trkpt lat="34.57539656360596" lon="10.38897750675856"><ele>51.0</ele><time>2026-04-05T15:24:36.999Z</time></trkpt><trkpt lat="34.5752232927139" lon="10.38865863261905"><ele>51.0</ele><time>2026-04-05T15:24:37.999Z</time></trkpt><trkpt lat="34.57504964308956" lon="10.388338399530701"><ele>51.0</ele><time>2026-04-05T15:24:38.999Z</time></trkpt><trkpt lat="34.574875300758485" lon="10.388012579580929"><ele>51.0</ele><time>2026-04-05T15:24:39.999Z</time></trkpt><trkpt lat="34.574702876557744" lon="10.387684590952718"><ele>51.5</ele><time>2026-04-05T15:24:40.999Z</time></trkpt><trkpt lat="34.574526300610465" lon="10.387353371268766"><ele>52.0</ele><time>2026-04-05T15:24:41.999Z</time></trkpt><trkpt lat="34.574346134847204" lon="10.387020844417421"><ele>51.0</ele><time>2026-04-05T15:24:42.999Z</time></trkpt><trkpt lat="34.57416365955158" lon="10.386690449675775"><ele>50.0</ele><time>2026-04-05T15:24:43.999Z</time></trkpt><trkpt lat="34.57398461409425" lon="10.386357916498952"><ele>50.5</ele><time>2026-04-05T15:24:44.999Z</time></trkpt><trkpt lat="34.57380569869162" lon="10.386025700761643"><ele>51.0</ele><time>2026-04-05T15:24:45.999Z</time></trkpt><trkpt lat="34.57362897240913" lon="10.385694584069382"><ele>51.5</ele><time>2026-04-05T15:24:46.999Z</time></trkpt><trkpt lat="34.57345443105405" lon="10.385361144478814"><ele>52.0</ele><time>2026-04-05T15:24:47.999Z</time></trkpt><trkpt lat="34.57327741017074" lon="10.385027895395003"><ele>52.0</ele><time>2026-04-05T15:24:48.999Z</time></trkpt><trkpt lat="34.57310075622516" lon="10.384699960612362"><ele>52.0</ele><time>2026-04-05T15:24:49.999Z</time></trkpt><trkpt lat="34.57292295903702" lon="10.384370720464661"><ele>52.0</ele><time>2026-04-05T15:24:50.999Z</time></trkpt><trkpt lat="34.57274169986544" lon="10.384040368864886"><ele>52.0</ele><time>2026-04-05T15:24:51.999Z</time></trkpt><trkpt lat="34.57255947870067" lon="10.383713379594642"><ele>52.5</ele><time>2026-04-05T15:24:52.999Z</time></trkpt><trkpt lat="34.5723811635892" lon="10.383388312366987"><ele>53.0</ele><time>2026-04-05T15:24:53.999Z</time></trkpt><trkpt lat="34.57220539394728" lon="10.383063726858095"><ele>52.5</ele><time>2026-04-05T15:24:54.999Z</time></trkpt><trkpt lat="34.57203024811104" lon="10.38274011686842"><ele>52.0</ele><time>2026-04-05T15:24:55.999Z</time></trkpt><trkpt lat="34.571858550869756" lon="10.38241837482342"><ele>51.5</ele><time>2026-04-05T15:24:56.999Z</time></trkpt><trkpt lat="34.57168558100878" lon="10.382095682188025"><ele>51.0</ele><time>2026-04-05T15:24:57.999Z</time></trkpt><trkpt lat="34.5715106005795" lon="10.381772179584601"><ele>51.0</ele><time>2026-04-05T15:24:58.999Z</time></trkpt><trkpt lat="34.57133647217014" lon="10.381450767232462"><ele>51.0</ele><time>2026-04-05T15:24:59.999Z</time></trkpt><trkpt lat="34.571159071748035" lon="10.381127081388344"><ele>51.0</ele><time>2026-04-05T15:25:00.999Z</time></trkpt><trkpt lat="34.570982653472036" lon="10.380805563582905"><ele>51.0</ele><time>2026-04-05T15:25:01.999Z</time></trkpt><trkpt lat="34.570806709535" lon="10.380483937644819"><ele>51.0</ele><time>2026-04-05T15:25:02.999Z</time></trkpt><trkpt lat="34.570631190104805" lon="10.380160075998608"><ele>51.0</ele><time>2026-04-05T15:25:03.999Z</time></trkpt><trkpt lat="34.57045758047774" lon="10.379837497918361"><ele>51.5</ele><time>2026-04-05T15:25:04.999Z</time></trkpt><trkpt lat="34.57028423080062" lon="10.379513970473047"><ele>52.0</ele><time>2026-04-05T15:25:05.999Z</time></trkpt><trkpt lat="34.57011323986874" lon="10.379187708658522"><ele>52.0</ele><time>2026-04-05T15:25:06.999Z</time></trkpt><trkpt lat="34.56994390782491" lon="10.378861809713097"><ele>52.0</ele><time>2026-04-05T15:25:07.999Z</time></trkpt><trkpt lat="34.56977273658082" lon="10.37853349932607"><ele>52.0</ele><time>2026-04-05T15:25:08.999Z</time></trkpt><trkpt lat="34.56960063996446" lon="10.378210823568702"><ele>52.0</ele><time>2026-04-05T15:25:09.999Z</time></trkpt><trkpt lat="34.56942151403675" lon="10.37788751170499"><ele>52.5</ele><time>2026-04-05T15:25:10.999Z</time></trkpt><trkpt lat="34.56924327033909" lon="10.377567493017956"><ele>53.0</ele><time>2026-04-05T15:25:11.999Z</time></trkpt><trkpt lat="34.5690666723145" lon="10.377243491065895"><ele>53.0</ele><time>2026-04-05T15:25:12.999Z</time></trkpt><trkpt lat="34.56889969293585" lon="10.376913080277813"><ele>53.0</ele><time>2026-04-05T15:25:13.999Z</time></trkpt><trkpt lat="34.56874116453827" lon="10.376576836803862"><ele>52.5</ele><time>2026-04-05T15:25:14.999Z</time></trkpt><trkpt lat="34.568582518653535" lon="10.376235001602307"><ele>52.0</ele><time>2026-04-05T15:25:15.999Z</time></trkpt><trkpt lat="34.568428560576216" lon="10.375890985629361"><ele>52.0</ele><time>2026-04-05T15:25:16.999Z</time></trkpt><trkpt lat="34.56827968249475" lon="10.375541819221679"><ele>52.0</ele><time>2026-04-05T15:25:17.999Z</time></trkpt><trkpt lat="34.56813404432727" lon="10.375189421238177"><ele>52.0</ele><time>2026-04-05T15:25:18.999Z</time></trkpt><trkpt lat="34.56799638576842" lon="10.374833959892415"><ele>52.0</ele><time>2026-04-05T15:25:19.999Z</time></trkpt><trkpt lat="34.567867265917435" lon="10.374473619017957"><ele>52.0</ele><time>2026-04-05T15:25:20.999Z</time></trkpt><trkpt lat="34.56774542839742" lon="10.374109960583716"><ele>52.0</ele><time>2026-04-05T15:25:21.999Z</time></trkpt><trkpt lat="34.56762939122549" lon="10.373744159423792"><ele>52.0</ele><time>2026-04-05T15:25:22.999Z</time></trkpt><trkpt lat="34.56751917505816" lon="10.373374180534151"><ele>52.0</ele><time>2026-04-05T15:25:24Z</time></trkpt><trkpt lat="34.56741479262231" lon="10.372999775548388"><ele>52.0</ele><time>2026-04-05T15:25:25Z</time></trkpt><trkpt lat="34.56731493095373" lon="10.372619958959618"><ele>52.0</ele><time>2026-04-05T15:25:26Z</time></trkpt><trkpt lat="34.567221069098665" lon="10.372237079392072"><ele>52.0</ele><time>2026-04-05T15:25:27Z</time></trkpt><trkpt lat="34.56713512538516" lon="10.371849846617513"><ele>52.0</ele><time>2026-04-05T15:25:28Z</time></trkpt><trkpt lat="34.56705322272606" lon="10.371457863897353"><ele>51.5</ele><time>2026-04-05T15:25:29Z</time></trkpt><trkpt lat="34.56697879516373" lon="10.371060753160235"><ele>51.0</ele><time>2026-04-05T15:25:30Z</time></trkpt><trkpt lat="34.566911321666424" lon="10.37065723734403"><ele>52.5</ele><time>2026-04-05T15:25:31Z</time></trkpt><trkpt lat="34.56684899711269" lon="10.370250811378344"><ele>54.0</ele><time>2026-04-05T15:25:32Z</time></trkpt><trkpt lat="34.56679476780513" lon="10.369843200767692"><ele>53.5</ele><time>2026-04-05T15:25:33Z</time></trkpt><trkpt lat="34.56674741619387" lon="10.369436512608216"><ele>53.0</ele><time>2026-04-05T15:25:34Z</time></trkpt><trkpt lat="34.56670748953574" lon="10.369027538210753"><ele>54.0</ele><time>2026-04-05T15:25:35Z</time></trkpt><trkpt lat="34.566672930262136" lon="10.368619613885782"><ele>55.0</ele><time>2026-04-05T15:25:36Z</time></trkpt><trkpt lat="34.56664222326015" lon="10.368206182148356"><ele>54.5</ele><time>2026-04-05T15:25:37Z</time></trkpt><trkpt lat="34.56661757099796" lon="10.367796386882251"><ele>54.0</ele><time>2026-04-05T15:25:38Z</time></trkpt><trkpt lat="34.566595929527004" lon="10.367387252354085"><ele>54.5</ele><time>2026-04-05T15:25:39Z</time></trkpt><trkpt lat="34.56657501449429" lon="10.366977266744957"><ele>55.0</ele><time>2026-04-05T15:25:40Z</time></trkpt><trkpt lat="34.56655277362445" lon="10.366564312361707"><ele>55.5</ele><time>2026-04-05T15:25:41Z</time></trkpt><trkpt lat="34.56652979318889" lon="10.366153636308002"><ele>56.0</ele><time>2026-04-05T15:25:42Z</time></trkpt><trkpt lat="34.56650854571911" lon="10.365743970739523"><ele>56.5</ele><time>2026-04-05T15:25:43Z</time></trkpt><trkpt lat="34.56648649742837" lon="10.365332782237338"><ele>57.0</ele><time>2026-04-05T15:25:44Z</time></trkpt><trkpt lat="34.56646290958322" lon="10.364923656881173"><ele>56.5</ele><time>2026-04-05T15:25:45Z</time></trkpt><trkpt lat="34.56644015439095" lon="10.364513148314344"><ele>56.0</ele><time>2026-04-05T15:25:46Z</time></trkpt><trkpt lat="34.56641808501744" lon="10.364105162429802"><ele>55.5</ele><time>2026-04-05T15:25:47Z</time></trkpt><trkpt lat="34.56639645557555" lon="10.363692594613289"><ele>55.0</ele><time>2026-04-05T15:25:48Z</time></trkpt><trkpt lat="34.5663743681542" lon="10.363283273114087"><ele>55.5</ele><time>2026-04-05T15:25:49Z</time></trkpt><trkpt lat="34.566351537728984" lon="10.362872269646461"><ele>56.0</ele><time>2026-04-05T15:25:50Z</time></trkpt><trkpt lat="34.566331137688785" lon="10.362464475337623"><ele>57.0</ele><time>2026-04-05T15:25:51Z</time></trkpt><trkpt lat="34.56631091739489" lon="10.362054978848333"><ele>58.0</ele><time>2026-04-05T15:25:52Z</time></trkpt><trkpt lat="34.56628696340227" lon="10.36164611649326"><ele>57.0</ele><time>2026-04-05T15:25:53Z</time></trkpt><trkpt lat="34.56626261558774" lon="10.361236096473093"><ele>56.0</ele><time>2026-04-05T15:25:54Z</time></trkpt><trkpt lat="34.56623914996945" lon="10.360827022423436"><ele>56.0</ele><time>2026-04-05T15:25:55Z</time></trkpt><trkpt lat="34.566217214853346" lon="10.360418088575727"><ele>56.0</ele><time>2026-04-05T15:25:56Z</time></trkpt><trkpt lat="34.56619567448241" lon="10.360008682366805"><ele>54.0</ele><time>2026-04-05T15:25:57Z</time></trkpt><trkpt lat="34.566175562902174" lon="10.359600964644612"><ele>52.0</ele><time>2026-04-05T15:25:58Z</time></trkpt><trkpt lat="34.56615493995615" lon="10.35919388154656"><ele>53.5</ele><time>2026-04-05T15:25:59Z</time></trkpt><trkpt lat="34.56613360164807" lon="10.358785142501892"><ele>55.0</ele><time>2026-04-05T15:26:00Z</time></trkpt><trkpt lat="34.5661116160282" lon="10.358377884698676"><ele>55.5</ele><time>2026-04-05T15:26:01Z</time></trkpt><trkpt lat="34.566089613385856" lon="10.357969377423295"><ele>56.0</ele><time>2026-04-05T15:26:02Z</time></trkpt><trkpt lat="34.566065510121554" lon="10.357560869881938"><ele>57.0</ele><time>2026-04-05T15:26:03Z</time></trkpt><trkpt lat="34.56604342600732" lon="10.357152800106201"><ele>58.0</ele><time>2026-04-05T15:26:04Z</time></trkpt><trkpt lat="34.566025960515" lon="10.356744870594035"><ele>58.0</ele><time>2026-04-05T15:26:05Z</time></trkpt><trkpt lat="34.56601301291214" lon="10.356337220442512"><ele>58.0</ele><time>2026-04-05T15:26:06Z</time></trkpt><trkpt lat="34.566000802712225" lon="10.355926425580188"><ele>58.5</ele><time>2026-04-05T15:26:07Z</time></trkpt><trkpt lat="34.56598409230043" lon="10.355515940153946"><ele>59.0</ele><time>2026-04-05T15:26:08Z</time></trkpt><trkpt lat="34.56596375631186" lon="10.355104661563777"><ele>59.5</ele><time>2026-04-05T15:26:09Z</time></trkpt><trkpt lat="34.56594587382756" lon="10.354697285858483"><ele>60.0</ele><time>2026-04-05T15:26:10Z</time></trkpt><trkpt lat="34.56592353894125" lon="10.354285316061624"><ele>60.0</ele><time>2026-04-05T15:26:11Z</time></trkpt><trkpt lat="34.565898256838764" lon="10.35387580026314"><ele>60.0</ele><time>2026-04-05T15:26:12Z</time></trkpt><trkpt lat="34.56587195897977" lon="10.353464367534308"><ele>60.0</ele><time>2026-04-05T15:26:13Z</time></trkpt><trkpt lat="34.565844456421715" lon="10.353054199428433"><ele>60.0</ele><time>2026-04-05T15:26:14Z</time></trkpt><trkpt lat="34.56581363309512" lon="10.352644847141928"><ele>59.0</ele><time>2026-04-05T15:26:15Z</time></trkpt><trkpt lat="34.56577557704244" lon="10.352236875444264"><ele>58.0</ele><time>2026-04-05T15:26:16Z</time></trkpt><trkpt lat="34.56573208292549" lon="10.351830545596496"><ele>58.0</ele><time>2026-04-05T15:26:17Z</time></trkpt><trkpt lat="34.56568051603053" lon="10.351423041057341"><ele>58.0</ele><time>2026-04-05T15:26:18Z</time></trkpt><trkpt lat="34.56561828573585" lon="10.35101764042708"><ele>58.0</ele><time>2026-04-05T15:26:19Z</time></trkpt><trkpt lat="34.56554992636936" lon="10.350612048198021"><ele>58.0</ele><time>2026-04-05T15:26:20Z</time></trkpt><trkpt lat="34.56547436788025" lon="10.350210981481665"><ele>59.5</ele><time>2026-04-05T15:26:21Z</time></trkpt><trkpt lat="34.56539314889822" lon="10.34981019311453"><ele>61.0</ele><time>2026-04-05T15:26:22Z</time></trkpt><trkpt lat="34.56530350206654" lon="10.349413022749804"><ele>61.5</ele><time>2026-04-05T15:26:23Z</time></trkpt><trkpt lat="34.56520948191062" lon="10.349016388752625"><ele>62.0</ele><time>2026-04-05T15:26:24Z</time></trkpt><trkpt lat="34.56510665531859" lon="10.3486199798748"><ele>62.5</ele><time>2026-04-05T15:26:25Z</time></trkpt><trkpt lat="34.564998189426184" lon="10.348229814624995"><ele>63.0</ele><time>2026-04-05T15:26:26Z</time></trkpt><trkpt lat="34.56488066639631" lon="10.347840825325408"><ele>63.0</ele><time>2026-04-05T15:26:27Z</time></trkpt><trkpt lat="34.564757270961195" lon="10.34745474080759"><ele>63.0</ele><time>2026-04-05T15:26:28Z</time></trkpt><trkpt lat="34.56462563884442" lon="10.347075060630237"><ele>62.0</ele><time>2026-04-05T15:26:29Z</time></trkpt><trkpt lat="34.564487248969954" lon="10.346698694150183"><ele>61.0</ele><time>2026-04-05T15:26:30Z</time></trkpt><trkpt lat="34.5643438691403" lon="10.346322028453542"><ele>61.0</ele><time>2026-04-05T15:26:31Z</time></trkpt><trkpt lat="34.56419405984846" lon="10.34595294200402"><ele>61.0</ele><time>2026-04-05T15:26:32Z</time></trkpt><trkpt lat="34.56403976599446" lon="10.345585185181314"><ele>61.5</ele><time>2026-04-05T15:26:33Z</time></trkpt><trkpt lat="34.563879639578616" lon="10.345219151807242"><ele>62.0</ele><time>2026-04-05T15:26:34Z</time></trkpt><trkpt lat="34.56371254199542" lon="10.34485993753643"><ele>59.5</ele><time>2026-04-05T15:26:34.999Z</time></trkpt><trkpt lat="34.563541349498855" lon="10.344504219449812"><ele>57.0</ele><time>2026-04-05T15:26:35.999Z</time></trkpt><trkpt lat="34.56336199276149" lon="10.344153237660407"><ele>57.5</ele><time>2026-04-05T15:26:36.999Z</time></trkpt><trkpt lat="34.5631770866029" lon="10.343802600206635"><ele>58.0</ele><time>2026-04-05T15:26:37.999Z</time></trkpt><trkpt lat="34.562986355707494" lon="10.343458551080396"><ele>57.0</ele><time>2026-04-05T15:26:38.999Z</time></trkpt><trkpt lat="34.562792290135555" lon="10.343115219023275"><ele>56.0</ele><time>2026-04-05T15:26:39.999Z</time></trkpt><trkpt lat="34.56259478149204" lon="10.34277378311657"><ele>56.0</ele><time>2026-04-05T15:26:40.999Z</time></trkpt><trkpt lat="34.56239652243264" lon="10.342430621002686"><ele>56.0</ele><time>2026-04-05T15:26:41.999Z</time></trkpt><trkpt lat="34.562202835536226" lon="10.342089589603095"><ele>55.5</ele><time>2026-04-05T15:26:42.999Z</time></trkpt><trkpt lat="34.56200864733141" lon="10.341747274255978"><ele>55.0</ele><time>2026-04-05T15:26:43.999Z</time></trkpt><trkpt lat="34.56181361645192" lon="10.34140611517463"><ele>55.5</ele><time>2026-04-05T15:26:44.999Z</time></trkpt><trkpt lat="34.56161759237284" lon="10.341063841196164"><ele>56.0</ele><time>2026-04-05T15:26:45.999Z</time></trkpt><trkpt lat="34.56142213108785" lon="10.340718844644483"><ele>55.5</ele><time>2026-04-05T15:26:46.999Z</time></trkpt><trkpt lat="34.56122948882111" lon="10.340374441585054"><ele>55.0</ele><time>2026-04-05T15:26:47.999Z</time></trkpt><trkpt lat="34.56103573224304" lon="10.340027947326082"><ele>54.5</ele><time>2026-04-05T15:26:48.999Z</time></trkpt><trkpt lat="34.56084389103531" lon="10.339685185312037"><ele>54.0</ele><time>2026-04-05T15:26:49.999Z</time></trkpt><trkpt lat="34.56065002862424" lon="10.339342345633002"><ele>54.0</ele><time>2026-04-05T15:26:50.999Z</time></trkpt><trkpt lat="34.560455548538" lon="10.33899934997147"><ele>54.0</ele><time>2026-04-05T15:26:51.999Z</time></trkpt><trkpt lat="34.560258335680636" lon="10.338658847405632"><ele>54.0</ele><time>2026-04-05T15:26:52.999Z</time></trkpt><trkpt lat="34.560060192283174" lon="10.338318531008877"><ele>54.0</ele><time>2026-04-05T15:26:53.999Z</time></trkpt><trkpt lat="34.55986225957443" lon="10.337977542494293"><ele>53.5</ele><time>2026-04-05T15:26:54.999Z</time></trkpt><trkpt lat="34.55966798110776" lon="10.337632816769593"><ele>53.0</ele><time>2026-04-05T15:26:55.999Z</time></trkpt><trkpt lat="34.55947773109492" lon="10.33728790839905"><ele>53.5</ele><time>2026-04-05T15:26:56.999Z</time></trkpt><trkpt lat="34.55928818519958" lon="10.336943375374918"><ele>54.0</ele><time>2026-04-05T15:26:57.999Z</time></trkpt><trkpt lat="34.559095757216966" lon="10.336595930010322"><ele>54.0</ele><time>2026-04-05T15:26:58.999Z</time></trkpt><trkpt lat="34.55890280131102" lon="10.336251583374994"><ele>54.0</ele><time>2026-04-05T15:26:59.999Z</time></trkpt><trkpt lat="34.55870700863405" lon="10.335907718836632"><ele>53.5</ele><time>2026-04-05T15:27:00.999Z</time></trkpt><trkpt lat="34.55851173866285" lon="10.335565332423768"><ele>53.0</ele><time>2026-04-05T15:27:01.999Z</time></trkpt><trkpt lat="34.55831786014826" lon="10.33522254146356"><ele>54.5</ele><time>2026-04-05T15:27:02.999Z</time></trkpt><trkpt lat="34.558123423095815" lon="10.334879028747205"><ele>56.0</ele><time>2026-04-05T15:27:03.999Z</time></trkpt><trkpt lat="34.55792750723667" lon="10.334535869388466"><ele>56.0</ele><time>2026-04-05T15:27:04.999Z</time></trkpt><trkpt lat="34.55773300726527" lon="10.334194518698265"><ele>56.0</ele><time>2026-04-05T15:27:05.999Z</time></trkpt><trkpt lat="34.55753677865985" lon="10.333852243618946"><ele>56.0</ele><time>2026-04-05T15:27:06.999Z</time></trkpt><trkpt lat="34.557341949649185" lon="10.333510405457773"><ele>56.0</ele><time>2026-04-05T15:27:07.999Z</time></trkpt><trkpt lat="34.557146301486426" lon="10.333167292116839"><ele>55.5</ele><time>2026-04-05T15:27:08.999Z</time></trkpt><trkpt lat="34.556950934654424" lon="10.332824237449794"><ele>55.0</ele><time>2026-04-05T15:27:09.999Z</time></trkpt><trkpt lat="34.55675638902771" lon="10.332482065550048"><ele>55.0</ele><time>2026-04-05T15:27:10.999Z</time></trkpt><trkpt lat="34.556560625396" lon="10.33213857943887"><ele>55.0</ele><time>2026-04-05T15:27:11.999Z</time></trkpt><trkpt lat="34.55636392942585" lon="10.33179478830628"><ele>55.0</ele><time>2026-04-05T15:27:12.999Z</time></trkpt><trkpt lat="34.55616841587843" lon="10.331452872791802"><ele>55.0</ele><time>2026-04-05T15:27:13.999Z</time></trkpt><trkpt lat="34.55597190032028" lon="10.331111157128138"><ele>55.0</ele><time>2026-04-05T15:27:14.999Z</time></trkpt><trkpt lat="34.555774959706184" lon="10.330766207035321"><ele>55.0</ele><time>2026-04-05T15:27:15.999Z</time></trkpt><trkpt lat="34.55558184209559" lon="10.330423389415769"><ele>55.0</ele><time>2026-04-05T15:27:16.999Z</time></trkpt><trkpt lat="34.55538761894852" lon="10.330079842987942"><ele>55.0</ele><time>2026-04-05T15:27:17.999Z</time></trkpt><trkpt lat="34.5551960975726" lon="10.329735526485702"><ele>54.0</ele><time>2026-04-05T15:27:18.999Z</time></trkpt><trkpt lat="34.55500241266801" lon="10.329392361218954"><ele>53.0</ele><time>2026-04-05T15:27:19.999Z</time></trkpt><trkpt lat="34.55480841077158" lon="10.329047210540057"><ele>53.0</ele><time>2026-04-05T15:27:20.999Z</time></trkpt><trkpt lat="34.55461155561475" lon="10.32870585946075"><ele>53.0</ele><time>2026-04-05T15:27:21.999Z</time></trkpt><trkpt lat="34.55441417995343" lon="10.328365061429402"><ele>52.5</ele><time>2026-04-05T15:27:22.999Z</time></trkpt><trkpt lat="34.554216725314916" lon="10.328023968342995"><ele>52.0</ele><time>2026-04-05T15:27:23.999Z</time></trkpt><trkpt lat="34.55402163427135" lon="10.327682130935706"><ele>52.0</ele><time>2026-04-05T15:27:24.999Z</time></trkpt><trkpt lat="34.55382888111132" lon="10.32734031075044"><ele>52.0</ele><time>2026-04-05T15:27:25.999Z</time></trkpt><trkpt lat="34.55363608315176" lon="10.326999602719953"><ele>51.5</ele><time>2026-04-05T15:27:26.999Z</time></trkpt><trkpt lat="34.553452103913045" lon="10.326675566994519"><ele>51.0</ele><time>2026-04-05T15:27:27.999Z</time></trkpt><trkpt lat="34.55326904216737" lon="10.326356003585664"><ele>50.5</ele><time>2026-04-05T15:27:28.999Z</time></trkpt><trkpt lat="34.553090844408274" lon="10.326044525078926"><ele>50.0</ele><time>2026-04-05T15:27:30Z</time></trkpt><trkpt lat="34.5529211711191" lon="10.325747565959906"><ele>49.5</ele><time>2026-04-05T15:27:31Z</time></trkpt><trkpt lat="34.552747070100054" lon="10.325442271597755"><ele>49.0</ele><time>2026-04-05T15:27:32Z</time></trkpt><trkpt lat="34.552572643640936" lon="10.325130266471094"><ele>49.0</ele><time>2026-04-05T15:27:33Z</time></trkpt><trkpt lat="34.552400330776315" lon="10.324820067197646"><ele>49.0</ele><time>2026-04-05T15:27:34Z</time></trkpt><trkpt lat="34.55222963803608" lon="10.324512172820631"><ele>49.0</ele><time>2026-04-05T15:27:35Z</time></trkpt><trkpt lat="34.55205357090228" lon="10.324199998593604"><ele>49.0</ele><time>2026-04-05T15:27:36Z</time></trkpt><trkpt lat="34.551874345313976" lon="10.32388376774771"><ele>49.5</ele><time>2026-04-05T15:27:37Z</time></trkpt><trkpt lat="34.55169134616419" lon="10.32356244730399"><ele>50.0</ele><time>2026-04-05T15:27:38Z</time></trkpt><trkpt lat="34.55150758422325" lon="10.323238097411597"><ele>50.0</ele><time>2026-04-05T15:27:39Z</time></trkpt><trkpt lat="34.55132427864759" lon="10.322912372396893"><ele>50.0</ele><time>2026-04-05T15:27:40Z</time></trkpt><trkpt lat="34.55114057208438" lon="10.322585642061036"><ele>50.0</ele><time>2026-04-05T15:27:41Z</time></trkpt><trkpt lat="34.55095586121502" lon="10.322259482361599"><ele>50.0</ele><time>2026-04-05T15:27:42Z</time></trkpt><trkpt lat="34.55077145165526" lon="10.32193246744333"><ele>50.5</ele><time>2026-04-05T15:27:43Z</time></trkpt><trkpt lat="34.55058766732559" lon="10.321606615204445"><ele>51.0</ele><time>2026-04-05T15:27:44Z</time></trkpt><trkpt lat="34.550404202682465" lon="10.32128385523645"><ele>51.5</ele><time>2026-04-05T15:27:45Z</time></trkpt><trkpt lat="34.55022196004394" lon="10.320957504625403"><ele>52.0</ele><time>2026-04-05T15:27:46Z</time></trkpt><trkpt lat="34.55003593371199" lon="10.32063018418056"><ele>52.0</ele><time>2026-04-05T15:27:47Z</time></trkpt><trkpt lat="34.549848053388494" lon="10.320296306494836"><ele>52.0</ele><time>2026-04-05T15:27:48Z</time></trkpt><trkpt lat="34.549661073009844" lon="10.31996531903622"><ele>51.0</ele><time>2026-04-05T15:27:49Z</time></trkpt><trkpt lat="34.5494738271618" lon="10.319630060956813"><ele>50.0</ele><time>2026-04-05T15:27:50Z</time></trkpt><trkpt lat="34.54928630311734" lon="10.31929870464276"><ele>50.0</ele><time>2026-04-05T15:27:51Z</time></trkpt><trkpt lat="34.54909860119707" lon="10.318967268155868"><ele>50.0</ele><time>2026-04-05T15:27:52Z</time></trkpt><trkpt lat="34.548909845260944" lon="10.318635455984968"><ele>50.0</ele><time>2026-04-05T15:27:53Z</time></trkpt><trkpt lat="34.54871958829428" lon="10.318303670739766"><ele>50.0</ele><time>2026-04-05T15:27:54Z</time></trkpt><trkpt lat="34.54852812080459" lon="10.317974097128072"><ele>50.0</ele><time>2026-04-05T15:27:55Z</time></trkpt><trkpt lat="34.54833952181472" lon="10.317645820852505"><ele>50.0</ele><time>2026-04-05T15:27:56Z</time></trkpt><trkpt lat="34.548156076623926" lon="10.317320576523167"><ele>50.5</ele><time>2026-04-05T15:27:57Z</time></trkpt><trkpt lat="34.54798076386567" lon="10.317008986810837"><ele>51.0</ele><time>2026-04-05T15:27:58Z</time></trkpt><trkpt lat="34.54780936488053" lon="10.316706813546457"><ele>51.0</ele><time>2026-04-05T15:27:59Z</time></trkpt><trkpt lat="34.54763476286966" lon="10.316406353553814"><ele>51.0</ele><time>2026-04-05T15:28:00Z</time></trkpt><trkpt lat="34.5474608222429" lon="10.316107181481085"><ele>51.0</ele><time>2026-04-05T15:28:01Z</time></trkpt><trkpt lat="34.547285930344" lon="10.315798742981723"><ele>51.0</ele><time>2026-04-05T15:28:02Z</time></trkpt><trkpt lat="34.547111715651425" lon="10.315486126019962"><ele>51.0</ele><time>2026-04-05T15:28:03Z</time></trkpt><trkpt lat="34.546936544826536" lon="10.315168195211749"><ele>51.0</ele><time>2026-04-05T15:28:04Z</time></trkpt><trkpt lat="34.54676041599775" lon="10.314844121969415"><ele>51.5</ele><time>2026-04-05T15:28:05Z</time></trkpt><trkpt lat="34.54658441799629" lon="10.31451791536635"><ele>52.0</ele><time>2026-04-05T15:28:06Z</time></trkpt><trkpt lat="34.546409479826565" lon="10.314188600693901"><ele>52.5</ele><time>2026-04-05T15:28:07Z</time></trkpt><trkpt lat="34.5462346891572" lon="10.31385111933723"><ele>53.0</ele><time>2026-04-05T15:28:08Z</time></trkpt><trkpt lat="34.546062623018564" lon="10.313510386057889"><ele>52.5</ele><time>2026-04-05T15:28:09Z</time></trkpt><trkpt lat="34.54589315784597" lon="10.313165321685249"><ele>52.0</ele><time>2026-04-05T15:28:10Z</time></trkpt><trkpt lat="34.545728321122816" lon="10.312820865673295"><ele>52.0</ele><time>2026-04-05T15:28:11Z</time></trkpt><trkpt lat="34.54556706102867" lon="10.312479610484768"><ele>52.0</ele><time>2026-04-05T15:28:12Z</time></trkpt><trkpt lat="34.545408814193614" lon="10.312139599347127"><ele>52.0</ele><time>2026-04-05T15:28:13Z</time></trkpt><trkpt lat="34.54525372567127" lon="10.311796201100861"><ele>52.0</ele><time>2026-04-05T15:28:14Z</time></trkpt><trkpt lat="34.54509990270802" lon="10.311454663855491"><ele>51.0</ele><time>2026-04-05T15:28:15Z</time></trkpt><trkpt lat="34.54494527716312" lon="10.311111530992834"><ele>50.0</ele><time>2026-04-05T15:28:16Z</time></trkpt><trkpt lat="34.54479191212413" lon="10.310769706096345"><ele>50.5</ele><time>2026-04-05T15:28:17Z</time></trkpt><trkpt lat="34.54463844383982" lon="10.310423773166681"><ele>51.0</ele><time>2026-04-05T15:28:18Z</time></trkpt><trkpt lat="34.54449149120643" lon="10.31008066772294"><ele>51.0</ele><time>2026-04-05T15:28:19Z</time></trkpt><trkpt lat="34.544348122889055" lon="10.3097378851076"><ele>51.0</ele><time>2026-04-05T15:28:20Z</time></trkpt><trkpt lat="34.54420655618605" lon="10.309393509906378"><ele>51.0</ele><time>2026-04-05T15:28:21Z</time></trkpt><trkpt lat="34.5440670086251" lon="10.309047420354734"><ele>51.0</ele><time>2026-04-05T15:28:22Z</time></trkpt><trkpt lat="34.54392876977624" lon="10.308699713798873"><ele>51.5</ele><time>2026-04-05T15:28:23Z</time></trkpt><trkpt lat="34.54379302293509" lon="10.308354894077942"><ele>52.0</ele><time>2026-04-05T15:28:24Z</time></trkpt><trkpt lat="34.543657636762134" lon="10.308005691606281"><ele>52.0</ele><time>2026-04-05T15:28:25Z</time></trkpt><trkpt lat="34.5435195710606" lon="10.307658974474352"><ele>52.0</ele><time>2026-04-05T15:28:26Z</time></trkpt><trkpt lat="34.543381185395056" lon="10.307311215237252"><ele>51.5</ele><time>2026-04-05T15:28:27Z</time></trkpt><trkpt lat="34.543239855526345" lon="10.306964402865884"><ele>51.0</ele><time>2026-04-05T15:28:28Z</time></trkpt><trkpt lat="34.54309657032369" lon="10.30661931925675"><ele>51.5</ele><time>2026-04-05T15:28:29Z</time></trkpt><trkpt lat="34.54295654744572" lon="10.306279763263513"><ele>52.0</ele><time>2026-04-05T15:28:30Z</time></trkpt><trkpt lat="34.54281495665344" lon="10.305932217832774"><ele>52.0</ele><time>2026-04-05T15:28:31Z</time></trkpt><trkpt lat="34.54267973458873" lon="10.305588915692448"><ele>52.0</ele><time>2026-04-05T15:28:32Z</time></trkpt><trkpt lat="34.542545342876465" lon="10.305245391670134"><ele>52.5</ele><time>2026-04-05T15:28:32.999Z</time></trkpt><trkpt lat="34.54240931275834" lon="10.304901259299765"><ele>53.0</ele><time>2026-04-05T15:28:33.999Z</time></trkpt><trkpt lat="34.542275522711456" lon="10.304559664217084"><ele>53.0</ele><time>2026-04-05T15:28:34.999Z</time></trkpt><trkpt lat="34.54214272417482" lon="10.304224524618903"><ele>53.0</ele><time>2026-04-05T15:28:35.999Z</time></trkpt><trkpt lat="34.54200730904742" lon="10.3038905433479"><ele>52.0</ele><time>2026-04-05T15:28:36.999Z</time></trkpt><trkpt lat="34.54187171474969" lon="10.303560207111833"><ele>51.0</ele><time>2026-04-05T15:28:37.999Z</time></trkpt><trkpt lat="34.541733469683095" lon="10.303227805657666"><ele>51.5</ele><time>2026-04-05T15:28:38.999Z</time></trkpt><trkpt lat="34.54159799182165" lon="10.302895218929809"><ele>52.0</ele><time>2026-04-05T15:28:39.999Z</time></trkpt><trkpt lat="34.54146388494992" lon="10.302559400950294"><ele>52.0</ele><time>2026-04-05T15:28:40.999Z</time></trkpt><trkpt lat="34.54133165760572" lon="10.30222047214643"><ele>52.0</ele><time>2026-04-05T15:28:41.999Z</time></trkpt><trkpt lat="34.54119917545639" lon="10.3018816983562"><ele>51.5</ele><time>2026-04-05T15:28:42.999Z</time></trkpt><trkpt lat="34.54106612854491" lon="10.30154679696118"><ele>51.0</ele><time>2026-04-05T15:28:43.999Z</time></trkpt><trkpt lat="34.5409302748871" lon="10.301207949557313"><ele>51.0</ele><time>2026-04-05T15:28:44.999Z</time></trkpt><trkpt lat="34.54079464867176" lon="10.300873397452364"><ele>51.0</ele><time>2026-04-05T15:28:45.999Z</time></trkpt><trkpt lat="34.540657954466525" lon="10.300537653641472"><ele>51.0</ele><time>2026-04-05T15:28:46.999Z</time></trkpt><trkpt lat="34.54052084476421" lon="10.300200769477861"><ele>51.0</ele><time>2026-04-05T15:28:47.999Z</time></trkpt><trkpt lat="34.540386370745765" lon="10.299864415919997"><ele>51.0</ele><time>2026-04-05T15:28:48.999Z</time></trkpt><trkpt lat="34.540253513979486" lon="10.299527093792994"><ele>51.0</ele><time>2026-04-05T15:28:49.999Z</time></trkpt><trkpt lat="34.540122552542385" lon="10.299196104524505"><ele>51.5</ele><time>2026-04-05T15:28:50.999Z</time></trkpt><trkpt lat="34.53998915912537" lon="10.29886600054569"><ele>52.0</ele><time>2026-04-05T15:28:51.999Z</time></trkpt><trkpt lat="34.539855606619916" lon="10.298535439075856"><ele>52.0</ele><time>2026-04-05T15:28:52.999Z</time></trkpt><trkpt lat="34.53972372498691" lon="10.298210843209219"><ele>52.0</ele><time>2026-04-05T15:28:53.999Z</time></trkpt><trkpt lat="34.53959182277116" lon="10.297882897975892"><ele>52.0</ele><time>2026-04-05T15:28:54.999Z</time></trkpt><trkpt lat="34.53945944574619" lon="10.297557894910627"><ele>52.0</ele><time>2026-04-05T15:28:55.999Z</time></trkpt><trkpt lat="34.53933227154627" lon="10.297236634591272"><ele>52.0</ele><time>2026-04-05T15:28:56.999Z</time></trkpt><trkpt lat="34.53920396040728" lon="10.296916565235327"><ele>52.0</ele><time>2026-04-05T15:28:57.999Z</time></trkpt><trkpt lat="34.539074712436786" lon="10.29659755430425"><ele>52.0</ele><time>2026-04-05T15:28:58.999Z</time></trkpt><trkpt lat="34.53894472902647" lon="10.296275670265434"><ele>52.0</ele><time>2026-04-05T15:28:59.999Z</time></trkpt><trkpt lat="34.53881483343928" lon="10.295951139344869"><ele>52.0</ele><time>2026-04-05T15:29:00.999Z</time></trkpt><trkpt lat="34.53868745060223" lon="10.295625995022688"><ele>52.0</ele><time>2026-04-05T15:29:01.999Z</time></trkpt><trkpt lat="34.538560978062534" lon="10.29530091045176"><ele>52.0</ele><time>2026-04-05T15:29:02.999Z</time></trkpt><trkpt lat="34.53843030318418" lon="10.294976238773867"><ele>52.0</ele><time>2026-04-05T15:29:03.999Z</time></trkpt><trkpt lat="34.53829625623475" lon="10.294651620639694"><ele>52.5</ele><time>2026-04-05T15:29:04.999Z</time></trkpt><trkpt lat="34.53815972607008" lon="10.294324078936796"><ele>53.0</ele><time>2026-04-05T15:29:05.999Z</time></trkpt><trkpt lat="34.538026426858636" lon="10.29399635094241"><ele>53.0</ele><time>2026-04-05T15:29:06.999Z</time></trkpt><trkpt lat="34.537893126027264" lon="10.2936619468687"><ele>53.0</ele><time>2026-04-05T15:29:07.999Z</time></trkpt><trkpt lat="34.53775964093457" lon="10.293326400884759"><ele>53.5</ele><time>2026-04-05T15:29:08.999Z</time></trkpt><trkpt lat="34.537625019937316" lon="10.292989493875101"><ele>54.0</ele><time>2026-04-05T15:29:09.999Z</time></trkpt><trkpt lat="34.53749069885597" lon="10.292655018556538"><ele>54.0</ele><time>2026-04-05T15:29:10.999Z</time></trkpt><trkpt lat="34.5373560945742" lon="10.292316097376538"><ele>54.0</ele><time>2026-04-05T15:29:11.999Z</time></trkpt><trkpt lat="34.53722383829265" lon="10.291980586545696"><ele>53.0</ele><time>2026-04-05T15:29:12.999Z</time></trkpt><trkpt lat="34.5370892914336" lon="10.291644540847885"><ele>52.0</ele><time>2026-04-05T15:29:13.999Z</time></trkpt><trkpt lat="34.53695376693686" lon="10.291308347015482"><ele>52.0</ele><time>2026-04-05T15:29:14.999Z</time></trkpt><trkpt lat="34.53681827767782" lon="10.290973889437184"><ele>52.0</ele><time>2026-04-05T15:29:15.999Z</time></trkpt><trkpt lat="34.53668338005941" lon="10.290640563592497"><ele>53.0</ele><time>2026-04-05T15:29:16.999Z</time></trkpt><trkpt lat="34.5365491779656" lon="10.290313034376672"><ele>54.0</ele><time>2026-04-05T15:29:17.999Z</time></trkpt><trkpt lat="34.53641283698559" lon="10.289981503494888"><ele>54.0</ele><time>2026-04-05T15:29:18.999Z</time></trkpt><trkpt lat="34.536279305425495" lon="10.289650553732223"><ele>54.0</ele><time>2026-04-05T15:29:19.999Z</time></trkpt><trkpt lat="34.536145621201555" lon="10.289318577113843"><ele>53.5</ele><time>2026-04-05T15:29:20.999Z</time></trkpt><trkpt lat="34.53601438001586" lon="10.288990014354361"><ele>53.0</ele><time>2026-04-05T15:29:21.999Z</time></trkpt><trkpt lat="34.535879842744414" lon="10.288654652231491"><ele>53.0</ele><time>2026-04-05T15:29:22.999Z</time></trkpt><trkpt lat="34.53574574165127" lon="10.288317601646035"><ele>53.0</ele><time>2026-04-05T15:29:23.999Z</time></trkpt><trkpt lat="34.53560766323529" lon="10.287977640321648"><ele>52.5</ele><time>2026-04-05T15:29:24.999Z</time></trkpt><trkpt lat="34.535468717894965" lon="10.287636914998634"><ele>52.0</ele><time>2026-04-05T15:29:25.999Z</time></trkpt><trkpt lat="34.53532682120262" lon="10.287290181252851"><ele>52.0</ele><time>2026-04-05T15:29:26.999Z</time></trkpt><trkpt lat="34.53518958672492" lon="10.286940365330622"><ele>52.0</ele><time>2026-04-05T15:29:27.999Z</time></trkpt><trkpt lat="34.535051810226946" lon="10.286585009994056"><ele>51.5</ele><time>2026-04-05T15:29:28.999Z</time></trkpt><trkpt lat="34.534911875218256" lon="10.286229022351037"><ele>51.0</ele><time>2026-04-05T15:29:29.999Z</time></trkpt><trkpt lat="34.53476836789066" lon="10.285869816084743"><ele>51.0</ele><time>2026-04-05T15:29:30.999Z</time></trkpt><trkpt lat="34.53462350270307" lon="10.285508899691264"><ele>51.0</ele><time>2026-04-05T15:29:31.999Z</time></trkpt><trkpt lat="34.534481671078375" lon="10.285143826628055"><ele>50.5</ele><time>2026-04-05T15:29:32.999Z</time></trkpt><trkpt lat="34.534341777853484" lon="10.284778680599267"><ele>50.0</ele><time>2026-04-05T15:29:33.999Z</time></trkpt><trkpt lat="34.534204748928715" lon="10.284412338724744"><ele>50.0</ele><time>2026-04-05T15:29:34.999Z</time></trkpt><trkpt lat="34.534067549602" lon="10.284046206492258"><ele>50.0</ele><time>2026-04-05T15:29:36Z</time></trkpt><trkpt lat="34.533925877524815" lon="10.283674236347155"><ele>50.0</ele><time>2026-04-05T15:29:37Z</time></trkpt><trkpt lat="34.53378340917595" lon="10.283294290056864"><ele>50.0</ele><time>2026-04-05T15:29:38Z</time></trkpt><trkpt lat="34.533642956768155" lon="10.282910825731582"><ele>50.0</ele><time>2026-04-05T15:29:39Z</time></trkpt><trkpt lat="34.53350803308393" lon="10.282529424759545"><ele>50.0</ele><time>2026-04-05T15:29:40Z</time></trkpt><trkpt lat="34.53338159486991" lon="10.282147567210405"><ele>51.0</ele><time>2026-04-05T15:29:41Z</time></trkpt><trkpt lat="34.533258733777316" lon="10.28176603475933"><ele>52.0</ele><time>2026-04-05T15:29:42Z</time></trkpt><trkpt lat="34.53313434944451" lon="10.28138391157108"><ele>52.0</ele><time>2026-04-05T15:29:43Z</time></trkpt><trkpt lat="34.53300880155104" lon="10.280999283286475"><ele>52.0</ele><time>2026-04-05T15:29:44Z</time></trkpt><trkpt lat="34.532880381866576" lon="10.280610756294438"><ele>54.0</ele><time>2026-04-05T15:29:45Z</time></trkpt><trkpt lat="34.53275416570011" lon="10.280218559795719"><ele>56.0</ele><time>2026-04-05T15:29:46Z</time></trkpt><trkpt lat="34.53262822077545" lon="10.27982122830177"><ele>56.5</ele><time>2026-04-05T15:29:47Z</time></trkpt><trkpt lat="34.53250684520981" lon="10.27942965369202"><ele>57.0</ele><time>2026-04-05T15:29:48Z</time></trkpt><trkpt lat="34.532384368463156" lon="10.279036184128895"><ele>57.5</ele><time>2026-04-05T15:29:49Z</time></trkpt><trkpt lat="34.532264354829096" lon="10.278643466618407"><ele>58.0</ele><time>2026-04-05T15:29:50Z</time></trkpt><trkpt lat="34.53214498050258" lon="10.278254383592573"><ele>57.5</ele><time>2026-04-05T15:29:51Z</time></trkpt><trkpt lat="34.532026392786754" lon="10.277863612324557"><ele>57.0</ele><time>2026-04-05T15:29:52Z</time></trkpt><trkpt lat="34.53190838622289" lon="10.277477029778808"><ele>56.5</ele><time>2026-04-05T15:29:53Z</time></trkpt><trkpt lat="34.5317907420813" lon="10.277091724081092"><ele>56.0</ele><time>2026-04-05T15:29:54Z</time></trkpt><trkpt lat="34.53167340149751" lon="10.276712121244834"><ele>57.0</ele><time>2026-04-05T15:29:55Z</time></trkpt><trkpt lat="34.53155900042675" lon="10.276340671095085"><ele>58.0</ele><time>2026-04-05T15:29:56Z</time></trkpt><trkpt lat="34.53144815648845" lon="10.27598092917341"><ele>58.0</ele><time>2026-04-05T15:29:57Z</time></trkpt><trkpt lat="34.531341752392734" lon="10.275629640491386"><ele>58.0</ele><time>2026-04-05T15:29:58Z</time></trkpt><trkpt lat="34.53123667753802" lon="10.275285986260624"><ele>58.0</ele><time>2026-04-05T15:29:59Z</time></trkpt><trkpt lat="34.5311323203638" lon="10.274948008898999"><ele>58.0</ele><time>2026-04-05T15:30:00Z</time></trkpt><trkpt lat="34.531026889220946" lon="10.274618712330895"><ele>58.0</ele><time>2026-04-05T15:30:01Z</time></trkpt><trkpt lat="34.530919593101665" lon="10.2742876325684"><ele>58.0</ele><time>2026-04-05T15:30:02Z</time></trkpt><trkpt lat="34.53081227492932" lon="10.273957827051966"><ele>57.0</ele><time>2026-04-05T15:30:03Z</time></trkpt><trkpt lat="34.53070625320521" lon="10.273624332837977"><ele>56.0</ele><time>2026-04-05T15:30:04Z</time></trkpt><trkpt lat="34.53060152473853" lon="10.273289632780367"><ele>55.5</ele><time>2026-04-05T15:30:05Z</time></trkpt><trkpt lat="34.53049949607664" lon="10.272953595496414"><ele>55.0</ele><time>2026-04-05T15:30:06Z</time></trkpt><trkpt lat="34.53039813529046" lon="10.27261699143705"><ele>55.0</ele><time>2026-04-05T15:30:07Z</time></trkpt><trkpt lat="34.53029281453819" lon="10.272280464827244"><ele>55.0</ele><time>2026-04-05T15:30:08Z</time></trkpt><trkpt lat="34.53018881717306" lon="10.27194635407397"><ele>55.0</ele><time>2026-04-05T15:30:09Z</time></trkpt><trkpt lat="34.530084978690525" lon="10.271609754501435"><ele>55.0</ele><time>2026-04-05T15:30:10Z</time></trkpt><trkpt lat="34.52998298309524" lon="10.271274944873651"><ele>56.0</ele><time>2026-04-05T15:30:11Z</time></trkpt><trkpt lat="34.529878733009674" lon="10.270932958643092"><ele>57.0</ele><time>2026-04-05T15:30:12Z</time></trkpt><trkpt lat="34.52977175425213" lon="10.270588643052825"><ele>57.0</ele><time>2026-04-05T15:30:13Z</time></trkpt><trkpt lat="34.529664692318605" lon="10.270241682844084"><ele>57.0</ele><time>2026-04-05T15:30:14Z</time></trkpt><trkpt lat="34.52955698746249" lon="10.2698909720348"><ele>56.5</ele><time>2026-04-05T15:30:15Z</time></trkpt><trkpt lat="34.529448760112295" lon="10.269538524506368"><ele>56.0</ele><time>2026-04-05T15:30:16Z</time></trkpt><trkpt lat="34.52934173900783" lon="10.269187493899606"><ele>56.0</ele><time>2026-04-05T15:30:17Z</time></trkpt><trkpt lat="34.52923468993738" lon="10.268833866979465"><ele>56.0</ele><time>2026-04-05T15:30:18Z</time></trkpt><trkpt lat="34.52912740344149" lon="10.268480666119618"><ele>56.0</ele><time>2026-04-05T15:30:19Z</time></trkpt><trkpt lat="34.52902031802261" lon="10.26813067180546"><ele>56.0</ele><time>2026-04-05T15:30:20Z</time></trkpt><trkpt lat="34.52891167446084" lon="10.267780080441707"><ele>56.0</ele><time>2026-04-05T15:30:21Z</time></trkpt><trkpt lat="34.52880425670752" lon="10.267432568049689"><ele>56.0</ele><time>2026-04-05T15:30:22Z</time></trkpt><trkpt lat="34.528698751261956" lon="10.267090013812293"><ele>56.0</ele><time>2026-04-05T15:30:23Z</time></trkpt><trkpt lat="34.52859274544829" lon="10.26674903373466"><ele>56.0</ele><time>2026-04-05T15:30:24Z</time></trkpt><trkpt lat="34.52848644468728" lon="10.266410386257533"><ele>56.0</ele><time>2026-04-05T15:30:25Z</time></trkpt><trkpt lat="34.52838049061832" lon="10.266074733658478"><ele>56.0</ele><time>2026-04-05T15:30:26Z</time></trkpt><trkpt lat="34.528273930709" lon="10.265732984072963"><ele>55.0</ele><time>2026-04-05T15:30:27Z</time></trkpt><trkpt lat="34.528167405478804" lon="10.265382824670354"><ele>54.0</ele><time>2026-04-05T15:30:28Z</time></trkpt><trkpt lat="34.52805797215497" lon="10.265031432861175"><ele>54.0</ele><time>2026-04-05T15:30:29Z</time></trkpt><trkpt lat="34.527950833486585" lon="10.264686088002625"><ele>54.0</ele><time>2026-04-05T15:30:30Z</time></trkpt><trkpt lat="34.52784568360611" lon="10.264339229243589"><ele>54.0</ele><time>2026-04-05T15:30:31Z</time></trkpt><trkpt lat="34.527740676710096" lon="10.26398992420765"><ele>54.0</ele><time>2026-04-05T15:30:32Z</time></trkpt><trkpt lat="34.52763436384848" lon="10.263635952575362"><ele>54.0</ele><time>2026-04-05T15:30:33Z</time></trkpt><trkpt lat="34.52752554564431" lon="10.26328250186677"><ele>54.0</ele><time>2026-04-05T15:30:34Z</time></trkpt><trkpt lat="34.52741575889589" lon="10.262928273861398"><ele>54.0</ele><time>2026-04-05T15:30:35Z</time></trkpt><trkpt lat="34.527306293047054" lon="10.262572747396279"><ele>54.0</ele><time>2026-04-05T15:30:36Z</time></trkpt><trkpt lat="34.52719676250293" lon="10.262217700440617"><ele>54.0</ele><time>2026-04-05T15:30:37Z</time></trkpt><trkpt lat="34.52708800835715" lon="10.26186280888269"><ele>54.0</ele><time>2026-04-05T15:30:38Z</time></trkpt><trkpt lat="34.52697916304971" lon="10.261512758781436"><ele>53.5</ele><time>2026-04-05T15:30:39Z</time></trkpt><trkpt lat="34.52687195485802" lon="10.26116287271298"><ele>53.0</ele><time>2026-04-05T15:30:40Z</time></trkpt><trkpt lat="34.52676453922075" lon="10.260811325899992"><ele>54.0</ele><time>2026-04-05T15:30:41Z</time></trkpt><trkpt lat="34.52665404641191" lon="10.260458029153492"><ele>55.0</ele><time>2026-04-05T15:30:42Z</time></trkpt><trkpt lat="34.52654558569709" lon="10.260106361699883"><ele>55.0</ele><time>2026-04-05T15:30:43Z</time></trkpt><trkpt lat="34.526435160689545" lon="10.259753623641313"><ele>55.0</ele><time>2026-04-05T15:30:44Z</time></trkpt><trkpt lat="34.52632592252532" lon="10.259401095619216"><ele>54.5</ele><time>2026-04-05T15:30:45Z</time></trkpt><trkpt lat="34.52622059606622" lon="10.259050755408152"><ele>54.0</ele><time>2026-04-05T15:30:46Z</time></trkpt><trkpt lat="34.52611252055295" lon="10.258698266208981"><ele>54.0</ele><time>2026-04-05T15:30:47Z</time></trkpt><trkpt lat="34.52600286554522" lon="10.25834658479928"><ele>54.0</ele><time>2026-04-05T15:30:48Z</time></trkpt><trkpt lat="34.52589329011413" lon="10.257995886531024"><ele>53.5</ele><time>2026-04-05T15:30:49Z</time></trkpt><trkpt lat="34.52577943779944" lon="10.25764499405114"><ele>53.0</ele><time>2026-04-05T15:30:50Z</time></trkpt><trkpt lat="34.52566886610706" lon="10.25729437258191"><ele>53.0</ele><time>2026-04-05T15:30:51Z</time></trkpt><trkpt lat="34.52556293568174" lon="10.256942356696271"><ele>53.0</ele><time>2026-04-05T15:30:52Z</time></trkpt><trkpt lat="34.52545690066012" lon="10.256590775979728"><ele>53.0</ele><time>2026-04-05T15:30:53Z</time></trkpt><trkpt lat="34.52534859101749" lon="10.25623836344969"><ele>53.0</ele><time>2026-04-05T15:30:54Z</time></trkpt><trkpt lat="34.525239234445266" lon="10.25588393319516"><ele>53.0</ele><time>2026-04-05T15:30:55Z</time></trkpt><trkpt lat="34.52513150786177" lon="10.255532279361491"><ele>53.0</ele><time>2026-04-05T15:30:55.999Z</time></trkpt><trkpt lat="34.52502235056318" lon="10.255177826102594"><ele>53.0</ele><time>2026-04-05T15:30:56.999Z</time></trkpt><trkpt lat="34.52491539265948" lon="10.254826958420768"><ele>53.0</ele><time>2026-04-05T15:30:57.999Z</time></trkpt><trkpt lat="34.524808423326874" lon="10.254473475055853"><ele>53.0</ele><time>2026-04-05T15:30:58.999Z</time></trkpt><trkpt lat="34.52470270375057" lon="10.254119381071018"><ele>53.0</ele><time>2026-04-05T15:30:59.999Z</time></trkpt><trkpt lat="34.52459645479467" lon="10.253764662930822"><ele>52.5</ele><time>2026-04-05T15:31:00.999Z</time></trkpt><trkpt lat="34.52448878228252" lon="10.253411552028167"><ele>52.0</ele><time>2026-04-05T15:31:01.999Z</time></trkpt><trkpt lat="34.52437953197722" lon="10.253059356497463"><ele>52.0</ele><time>2026-04-05T15:31:02.999Z</time></trkpt><trkpt lat="34.52427045086655" lon="10.252705895012173"><ele>52.0</ele><time>2026-04-05T15:31:03.999Z</time></trkpt><trkpt lat="34.524161264500215" lon="10.25235352577762"><ele>51.5</ele><time>2026-04-05T15:31:04.999Z</time></trkpt><trkpt lat="34.52405309450807" lon="10.251999862333571"><ele>51.0</ele><time>2026-04-05T15:31:05.999Z</time></trkpt><trkpt lat="34.52394309117434" lon="10.251645821371207"><ele>51.5</ele><time>2026-04-05T15:31:06.999Z</time></trkpt><trkpt lat="34.523837787780096" lon="10.25129260181287"><ele>52.0</ele><time>2026-04-05T15:31:07.999Z</time></trkpt><trkpt lat="34.52372812788542" lon="10.250936939779011"><ele>52.0</ele><time>2026-04-05T15:31:08.999Z</time></trkpt><trkpt lat="34.52361883179964" lon="10.250578411859799"><ele>52.0</ele><time>2026-04-05T15:31:09.999Z</time></trkpt><trkpt lat="34.52350794186418" lon="10.25021720418389"><ele>52.0</ele><time>2026-04-05T15:31:10.999Z</time></trkpt><trkpt lat="34.52339869230325" lon="10.249860722618124"><ele>52.0</ele><time>2026-04-05T15:31:11.999Z</time></trkpt><trkpt lat="34.52328808748822" lon="10.249501765386812"><ele>51.5</ele><time>2026-04-05T15:31:12.999Z</time></trkpt><trkpt lat="34.52317989281751" lon="10.249144101110256"><ele>51.0</ele><time>2026-04-05T15:31:13.999Z</time></trkpt><trkpt lat="34.52306975153177" lon="10.248788280566236"><ele>51.0</ele><time>2026-04-05T15:31:14.999Z</time></trkpt><trkpt lat="34.52296002915445" lon="10.248433386594717"><ele>51.0</ele><time>2026-04-05T15:31:15.999Z</time></trkpt><trkpt lat="34.522849733274626" lon="10.248078543343265"><ele>51.0</ele><time>2026-04-05T15:31:16.999Z</time></trkpt><trkpt lat="34.522740401114" lon="10.247724971334"><ele>51.0</ele><time>2026-04-05T15:31:17.999Z</time></trkpt><trkpt lat="34.52263183617208" lon="10.247368850762825"><ele>51.0</ele><time>2026-04-05T15:31:18.999Z</time></trkpt><trkpt lat="34.522523888474026" lon="10.247012174860377"><ele>51.0</ele><time>2026-04-05T15:31:19.999Z</time></trkpt><trkpt lat="34.522414241408555" lon="10.246656954097293"><ele>52.0</ele><time>2026-04-05T15:31:20.999Z</time></trkpt><trkpt lat="34.52230373471143" lon="10.246302046834359"><ele>53.0</ele><time>2026-04-05T15:31:21.999Z</time></trkpt><trkpt lat="34.5221933907874" lon="10.245946623396813"><ele>53.5</ele><time>2026-04-05T15:31:22.999Z</time></trkpt><trkpt lat="34.5220859777122" lon="10.245589826723458"><ele>54.0</ele><time>2026-04-05T15:31:23.999Z</time></trkpt><trkpt lat="34.5219790295901" lon="10.245232178600038"><ele>53.5</ele><time>2026-04-05T15:31:24.999Z</time></trkpt><trkpt lat="34.52187108900756" lon="10.244873643512669"><ele>53.0</ele><time>2026-04-05T15:31:25.999Z</time></trkpt><trkpt lat="34.521763798448895" lon="10.244516928290192"><ele>53.0</ele><time>2026-04-05T15:31:26.999Z</time></trkpt><trkpt lat="34.521656272596786" lon="10.244160822529443"><ele>53.0</ele><time>2026-04-05T15:31:27.999Z</time></trkpt><trkpt lat="34.52154611934613" lon="10.243804767758023"><ele>52.5</ele><time>2026-04-05T15:31:28.999Z</time></trkpt><trkpt lat="34.5214331675615" lon="10.24344861097796"><ele>52.0</ele><time>2026-04-05T15:31:29.999Z</time></trkpt><trkpt lat="34.5213209212593" lon="10.243092679028727"><ele>51.0</ele><time>2026-04-05T15:31:30.999Z</time></trkpt><trkpt lat="34.521209640046266" lon="10.242736020014336"><ele>50.0</ele><time>2026-04-05T15:31:31.999Z</time></trkpt><trkpt lat="34.52110200433627" lon="10.242380177711963"><ele>50.5</ele><time>2026-04-05T15:31:32.999Z</time></trkpt><trkpt lat="34.52099507682279" lon="10.242024226506492"><ele>51.0</ele><time>2026-04-05T15:31:33.999Z</time></trkpt><trkpt lat="34.52088579022001" lon="10.24166799124506"><ele>51.0</ele><time>2026-04-05T15:31:34.999Z</time></trkpt><trkpt lat="34.52077426698303" lon="10.241311923788786"><ele>51.0</ele><time>2026-04-05T15:31:35.999Z</time></trkpt><trkpt lat="34.52066116871924" lon="10.240957980730201"><ele>51.5</ele><time>2026-04-05T15:31:36.999Z</time></trkpt><trkpt lat="34.52054548637449" lon="10.240604125456867"><ele>52.0</ele><time>2026-04-05T15:31:37.999Z</time></trkpt><trkpt lat="34.52043254914527" lon="10.240249578431278"><ele>52.0</ele><time>2026-04-05T15:31:38.999Z</time></trkpt><trkpt lat="34.52032756749335" lon="10.239891926244534"><ele>52.0</ele><time>2026-04-05T15:31:39.999Z</time></trkpt><trkpt lat="34.520226352472584" lon="10.239532670113261"><ele>52.0</ele><time>2026-04-05T15:31:40.999Z</time></trkpt><trkpt lat="34.52012180987144" lon="10.239172219693097"><ele>52.0</ele><time>2026-04-05T15:31:42Z</time></trkpt><trkpt lat="34.5200175022612" lon="10.238813354574253"><ele>52.0</ele><time>2026-04-05T15:31:43Z</time></trkpt><trkpt lat="34.51991310669167" lon="10.23845032175064"><ele>52.0</ele><time>2026-04-05T15:31:44Z</time></trkpt><trkpt lat="34.51981444272599" lon="10.23809023987012"><ele>51.0</ele><time>2026-04-05T15:31:45Z</time></trkpt><trkpt lat="34.51971897230268" lon="10.237726305957976"><ele>50.0</ele><time>2026-04-05T15:31:46Z</time></trkpt><trkpt lat="34.51962618860479" lon="10.237364389460538"><ele>51.0</ele><time>2026-04-05T15:31:47Z</time></trkpt><trkpt lat="34.51953541041183" lon="10.237000194661071"><ele>52.0</ele><time>2026-04-05T15:31:48Z</time></trkpt><trkpt lat="34.519449910448266" lon="10.236635122568225"><ele>52.0</ele><time>2026-04-05T15:31:49Z</time></trkpt><trkpt lat="34.519367947700616" lon="10.236264839101974"><ele>52.0</ele><time>2026-04-05T15:31:50Z</time></trkpt><trkpt lat="34.5192875518223" lon="10.235889499695656"><ele>51.5</ele><time>2026-04-05T15:31:51Z</time></trkpt><trkpt lat="34.519208346796766" lon="10.2355090417359"><ele>51.0</ele><time>2026-04-05T15:31:52Z</time></trkpt><trkpt lat="34.519130898438334" lon="10.235124141275033"><ele>51.0</ele><time>2026-04-05T15:31:53Z</time></trkpt><trkpt lat="34.51905559982676" lon="10.234737069445723"><ele>51.0</ele><time>2026-04-05T15:31:54Z</time></trkpt><trkpt lat="34.51898242414443" lon="10.23434927484532"><ele>50.5</ele><time>2026-04-05T15:31:55Z</time></trkpt><trkpt lat="34.51891114236521" lon="10.233960468363767"><ele>50.0</ele><time>2026-04-05T15:31:56Z</time></trkpt><trkpt lat="34.518845802740024" lon="10.233575229252322"><ele>50.0</ele><time>2026-04-05T15:31:57Z</time></trkpt><trkpt lat="34.51878350909965" lon="10.233184396515668"><ele>50.0</ele><time>2026-04-05T15:31:58Z</time></trkpt><trkpt lat="34.51872724849263" lon="10.232793777045977"><ele>50.5</ele><time>2026-04-05T15:31:59Z</time></trkpt><trkpt lat="34.51867566908688" lon="10.232401856627538"><ele>51.0</ele><time>2026-04-05T15:32:00Z</time></trkpt><trkpt lat="34.518628948335" lon="10.232010775485763"><ele>51.5</ele><time>2026-04-05T15:32:01Z</time></trkpt><trkpt lat="34.51858559834984" lon="10.231619388704836"><ele>52.0</ele><time>2026-04-05T15:32:02Z</time></trkpt><trkpt lat="34.5185444150403" lon="10.231225547557516"><ele>52.0</ele><time>2026-04-05T15:32:03Z</time></trkpt><trkpt lat="34.518507189002975" lon="10.230833419351084"><ele>52.0</ele><time>2026-04-05T15:32:04Z</time></trkpt><trkpt lat="34.51847452048024" lon="10.23043901970191"><ele>51.5</ele><time>2026-04-05T15:32:05Z</time></trkpt><trkpt lat="34.51844427210334" lon="10.23004624537778"><ele>51.0</ele><time>2026-04-05T15:32:06Z</time></trkpt><trkpt lat="34.518415894502176" lon="10.229652501523173"><ele>51.0</ele><time>2026-04-05T15:32:07Z</time></trkpt><trkpt lat="34.51839220554472" lon="10.229259335357641"><ele>51.0</ele><time>2026-04-05T15:32:08Z</time></trkpt><trkpt lat="34.51837058765421" lon="10.228864678164866"><ele>52.0</ele><time>2026-04-05T15:32:09Z</time></trkpt><trkpt lat="34.51835028857421" lon="10.228471625760928"><ele>53.0</ele><time>2026-04-05T15:32:10Z</time></trkpt><trkpt lat="34.518332623220175" lon="10.22807672152712"><ele>53.0</ele><time>2026-04-05T15:32:11Z</time></trkpt><trkpt lat="34.518319005798666" lon="10.227682252058637"><ele>53.0</ele><time>2026-04-05T15:32:12Z</time></trkpt><trkpt lat="34.51830778200172" lon="10.22728522348533"><ele>52.5</ele><time>2026-04-05T15:32:13Z</time></trkpt><trkpt lat="34.518295311365684" lon="10.226888321432765"><ele>52.0</ele><time>2026-04-05T15:32:14Z</time></trkpt><trkpt lat="34.51827943806775" lon="10.226495364049391"><ele>52.0</ele><time>2026-04-05T15:32:15Z</time></trkpt><trkpt lat="34.51826305095862" lon="10.226099624026114"><ele>52.0</ele><time>2026-04-05T15:32:16Z</time></trkpt><trkpt lat="34.51824712625395" lon="10.225705038293828"><ele>52.0</ele><time>2026-04-05T15:32:17Z</time></trkpt><trkpt lat="34.51822993383262" lon="10.225308772516119"><ele>52.0</ele><time>2026-04-05T15:32:18Z</time></trkpt><trkpt lat="34.518210767315225" lon="10.224912968586365"><ele>51.5</ele><time>2026-04-05T15:32:19Z</time></trkpt><trkpt lat="34.51819391603239" lon="10.224518630791488"><ele>51.0</ele><time>2026-04-05T15:32:20Z</time></trkpt><trkpt lat="34.518177045212504" lon="10.224125213445546"><ele>51.5</ele><time>2026-04-05T15:32:21Z</time></trkpt><trkpt lat="34.518160440619624" lon="10.22372991477092"><ele>52.0</ele><time>2026-04-05T15:32:22Z</time></trkpt><trkpt lat="34.51814362604754" lon="10.223336305898352"><ele>52.5</ele><time>2026-04-05T15:32:23Z</time></trkpt><trkpt lat="34.518126401667665" lon="10.222940494727586"><ele>53.0</ele><time>2026-04-05T15:32:24Z</time></trkpt><trkpt lat="34.51810858055031" lon="10.22254564831094"><ele>53.0</ele><time>2026-04-05T15:32:25Z</time></trkpt><trkpt lat="34.518091761329444" lon="10.222151558619242"><ele>53.0</ele><time>2026-04-05T15:32:26Z</time></trkpt><trkpt lat="34.518075655243415" lon="10.22175669865278"><ele>52.5</ele><time>2026-04-05T15:32:27Z</time></trkpt><trkpt lat="34.51806044652044" lon="10.221362073609425"><ele>52.0</ele><time>2026-04-05T15:32:28Z</time></trkpt><trkpt lat="34.51804532863607" lon="10.220968388171945"><ele>52.5</ele><time>2026-04-05T15:32:29Z</time></trkpt><trkpt lat="34.51802814835203" lon="10.220574142981317"><ele>53.0</ele><time>2026-04-05T15:32:30Z</time></trkpt><trkpt lat="34.51801044210111" lon="10.22018391197803"><ele>53.5</ele><time>2026-04-05T15:32:31Z</time></trkpt><trkpt lat="34.51799134405091" lon="10.219789147990777"><ele>54.0</ele><time>2026-04-05T15:32:32Z</time></trkpt><trkpt lat="34.517975282261325" lon="10.21939756777825"><ele>54.0</ele><time>2026-04-05T15:32:33Z</time></trkpt><trkpt lat="34.51795732444293" lon="10.21900255631223"><ele>54.0</ele><time>2026-04-05T15:32:34Z</time></trkpt><trkpt lat="34.517937793013466" lon="10.218608122345945"><ele>53.0</ele><time>2026-04-05T15:32:35Z</time></trkpt><trkpt lat="34.51791623128453" lon="10.218212489891187"><ele>52.0</ele><time>2026-04-05T15:32:36Z</time></trkpt><trkpt lat="34.51789396062869" lon="10.217818859016907"><ele>50.5</ele><time>2026-04-05T15:32:37Z</time></trkpt><trkpt lat="34.517876936453575" lon="10.217440744561374"><ele>49.0</ele><time>2026-04-05T15:32:38Z</time></trkpt><trkpt lat="34.51786168553665" lon="10.21708493085256"><ele>48.5</ele><time>2026-04-05T15:32:39Z</time></trkpt><trkpt lat="34.517848171192554" lon="10.216744359762382"><ele>48.0</ele><time>2026-04-05T15:32:40Z</time></trkpt><trkpt lat="34.51783565253712" lon="10.216414566975457"><ele>48.0</ele><time>2026-04-05T15:32:41Z</time></trkpt><trkpt lat="34.51782294040857" lon="10.216101445771002"><ele>48.0</ele><time>2026-04-05T15:32:42Z</time></trkpt><trkpt lat="34.51781004510006" lon="10.215800691912422"><ele>47.5</ele><time>2026-04-05T15:32:43Z</time></trkpt><trkpt lat="34.51779900324648" lon="10.215513435150534"><ele>47.0</ele><time>2026-04-05T15:32:44Z</time></trkpt><trkpt lat="34.51778839614788" lon="10.215231409767362"><ele>47.0</ele><time>2026-04-05T15:32:45Z</time></trkpt><trkpt lat="34.51777940832877" lon="10.214952622912271"><ele>47.0</ele><time>2026-04-05T15:32:46Z</time></trkpt><trkpt lat="34.5177707247235" lon="10.214672876804096"><ele>47.0</ele><time>2026-04-05T15:32:47Z</time></trkpt><trkpt lat="34.517760443239474" lon="10.214397225710618"><ele>47.0</ele><time>2026-04-05T15:32:48Z</time></trkpt><trkpt lat="34.517749377170375" lon="10.214121740800831"><ele>48.0</ele><time>2026-04-05T15:32:49Z</time></trkpt><trkpt lat="34.51773796896302" lon="10.213849264714701"><ele>49.0</ele><time>2026-04-05T15:32:50Z</time></trkpt><trkpt lat="34.517729835183324" lon="10.213575088456409"><ele>49.0</ele><time>2026-04-05T15:32:51Z</time></trkpt><trkpt lat="34.517723007872426" lon="10.213290858674162"><ele>49.0</ele><time>2026-04-05T15:32:52Z</time></trkpt><trkpt lat="34.51771668462544" lon="10.21300768342867"><ele>50.0</ele><time>2026-04-05T15:32:53Z</time></trkpt><trkpt lat="34.517705944262815" lon="10.212724367324695"><ele>51.0</ele><time>2026-04-05T15:32:54Z</time></trkpt><trkpt lat="34.51769657788199" lon="10.212440761385531"><ele>51.0</ele><time>2026-04-05T15:32:55Z</time></trkpt><trkpt lat="34.51768496561757" lon="10.21216339267895"><ele>51.0</ele><time>2026-04-05T15:32:56Z</time></trkpt><trkpt lat="34.51767746289351" lon="10.211889381228017"><ele>51.0</ele><time>2026-04-05T15:32:57Z</time></trkpt><trkpt lat="34.51766703730839" lon="10.211612455195425"><ele>51.0</ele><time>2026-04-05T15:32:58Z</time></trkpt><trkpt lat="34.517654022860455" lon="10.211328993974703"><ele>51.0</ele><time>2026-04-05T15:32:59Z</time></trkpt><trkpt lat="34.517640869766055" lon="10.211040955714475"><ele>51.0</ele><time>2026-04-05T15:33:00Z</time></trkpt><trkpt lat="34.51762794405885" lon="10.210754082845032"><ele>52.0</ele><time>2026-04-05T15:33:01Z</time></trkpt><trkpt lat="34.51761603971661" lon="10.210460255072016"><ele>53.0</ele><time>2026-04-05T15:33:02Z</time></trkpt><trkpt lat="34.517604444984336" lon="10.210167074438488"><ele>53.0</ele><time>2026-04-05T15:33:03Z</time></trkpt><trkpt lat="34.517595318223385" lon="10.209867599334949"><ele>53.0</ele><time>2026-04-05T15:33:04Z</time></trkpt><trkpt lat="34.51758130362157" lon="10.209558421483651"><ele>54.0</ele><time>2026-04-05T15:33:05Z</time></trkpt><trkpt lat="34.5175690189454" lon="10.209247863969876"><ele>55.0</ele><time>2026-04-05T15:33:05.999Z</time></trkpt><trkpt lat="34.517555071305665" lon="10.208932653611564"><ele>55.0</ele><time>2026-04-05T15:33:06.999Z</time></trkpt><trkpt lat="34.5175435579607" lon="10.20861680005759"><ele>55.0</ele><time>2026-04-05T15:33:07.999Z</time></trkpt><trkpt lat="34.517531535957936" lon="10.208295720046308"><ele>55.5</ele><time>2026-04-05T15:33:08.999Z</time></trkpt><trkpt lat="34.51751944709399" lon="10.207972898471553"><ele>56.0</ele><time>2026-04-05T15:33:09.999Z</time></trkpt><trkpt lat="34.517508807065994" lon="10.207649180262441"><ele>55.0</ele><time>2026-04-05T15:33:10.999Z</time></trkpt><trkpt lat="34.51749496317276" lon="10.20732198804476"><ele>54.0</ele><time>2026-04-05T15:33:11.999Z</time></trkpt><trkpt lat="34.51748361653426" lon="10.206998321119686"><ele>54.0</ele><time>2026-04-05T15:33:12.999Z</time></trkpt><trkpt lat="34.517468937998565" lon="10.206672030343528"><ele>54.0</ele><time>2026-04-05T15:33:13.999Z</time></trkpt><trkpt lat="34.51745538790771" lon="10.206347289333127"><ele>54.0</ele><time>2026-04-05T15:33:14.999Z</time></trkpt><trkpt lat="34.51744111262104" lon="10.206024302361168"><ele>54.0</ele><time>2026-04-05T15:33:15.999Z</time></trkpt><trkpt lat="34.51742928884747" lon="10.205704278761146"><ele>54.5</ele><time>2026-04-05T15:33:16.999Z</time></trkpt><trkpt lat="34.51741584576696" lon="10.205385853853262"><ele>55.0</ele><time>2026-04-05T15:33:17.999Z</time></trkpt><trkpt lat="34.51740104313112" lon="10.205065740940883"><ele>55.5</ele><time>2026-04-05T15:33:18.999Z</time></trkpt><trkpt lat="34.517384361853345" lon="10.204740090249235"><ele>56.0</ele><time>2026-04-05T15:33:19.999Z</time></trkpt><trkpt lat="34.51737053556144" lon="10.204424206702297"><ele>56.0</ele><time>2026-04-05T15:33:20.999Z</time></trkpt><trkpt lat="34.517355767800304" lon="10.204107226152244"><ele>56.0</ele><time>2026-04-05T15:33:21.999Z</time></trkpt><trkpt lat="34.517342602953654" lon="10.203788458238172"><ele>56.0</ele><time>2026-04-05T15:33:22.999Z</time></trkpt><trkpt lat="34.517329159671334" lon="10.203467234481666"><ele>56.0</ele><time>2026-04-05T15:33:23.999Z</time></trkpt><trkpt lat="34.51731777244965" lon="10.203143659002627"><ele>56.0</ele><time>2026-04-05T15:33:24.999Z</time></trkpt><trkpt lat="34.517305925399675" lon="10.202821281774215"><ele>56.0</ele><time>2026-04-05T15:33:25.999Z</time></trkpt><trkpt lat="34.51729305497908" lon="10.202498732640864"><ele>56.5</ele><time>2026-04-05T15:33:26.999Z</time></trkpt><trkpt lat="34.51727837685448" lon="10.202175968987856"><ele>57.0</ele><time>2026-04-05T15:33:27.999Z</time></trkpt><trkpt lat="34.51726487894292" lon="10.201854703350865"><ele>57.0</ele><time>2026-04-05T15:33:28.999Z</time></trkpt><trkpt lat="34.51725287085555" lon="10.201528382591222"><ele>57.0</ele><time>2026-04-05T15:33:29.999Z</time></trkpt><trkpt lat="34.51724086023289" lon="10.201197407878793"><ele>57.0</ele><time>2026-04-05T15:33:30.999Z</time></trkpt><trkpt lat="34.517228825080984" lon="10.200864690451835"><ele>57.0</ele><time>2026-04-05T15:33:31.999Z</time></trkpt><trkpt lat="34.5172148996789" lon="10.200526952987499"><ele>57.0</ele><time>2026-04-05T15:33:32.999Z</time></trkpt><trkpt lat="34.51719981659608" lon="10.20017678348605"><ele>57.0</ele><time>2026-04-05T15:33:33.999Z</time></trkpt><trkpt lat="34.51718378918325" lon="10.199816792135472"><ele>57.5</ele><time>2026-04-05T15:33:34.999Z</time></trkpt><trkpt lat="34.517171738690564" lon="10.19946154085382"><ele>58.0</ele><time>2026-04-05T15:33:35.999Z</time></trkpt><trkpt lat="34.51715706862219" lon="10.199104249466007"><ele>57.5</ele><time>2026-04-05T15:33:36.999Z</time></trkpt><trkpt lat="34.51713973562214" lon="10.198740533667179"><ele>57.0</ele><time>2026-04-05T15:33:37.999Z</time></trkpt><trkpt lat="34.51712244465711" lon="10.198374126758493"><ele>56.5</ele><time>2026-04-05T15:33:38.999Z</time></trkpt><trkpt lat="34.51710660553828" lon="10.198009427488088"><ele>56.0</ele><time>2026-04-05T15:33:39.999Z</time></trkpt><trkpt lat="34.5170920577044" lon="10.197642590894638"><ele>55.5</ele><time>2026-04-05T15:33:40.999Z</time></trkpt><trkpt lat="34.517078009290955" lon="10.197274060211537"><ele>55.0</ele><time>2026-04-05T15:33:41.999Z</time></trkpt><trkpt lat="34.51706423345915" lon="10.19690208262557"><ele>54.5</ele><time>2026-04-05T15:33:42.999Z</time></trkpt><trkpt lat="34.51705079502667" lon="10.196529125555083"><ele>54.0</ele><time>2026-04-05T15:33:43.999Z</time></trkpt><trkpt lat="34.51703729681999" lon="10.196157625619426"><ele>54.0</ele><time>2026-04-05T15:33:44.999Z</time></trkpt><trkpt lat="34.517021557840856" lon="10.19578316176582"><ele>54.0</ele><time>2026-04-05T15:33:45.999Z</time></trkpt><trkpt lat="34.51700537381348" lon="10.195408587413203"><ele>54.0</ele><time>2026-04-05T15:33:46.999Z</time></trkpt><trkpt lat="34.5169893534817" lon="10.195035482431805"><ele>54.0</ele><time>2026-04-05T15:33:48Z</time></trkpt><trkpt lat="34.516972370336276" lon="10.194658755256777"><ele>53.5</ele><time>2026-04-05T15:33:49Z</time></trkpt><trkpt lat="34.51695458540757" lon="10.19428348175282"><ele>53.0</ele><time>2026-04-05T15:33:50Z</time></trkpt><trkpt lat="34.51693741953388" lon="10.193906165478957"><ele>53.0</ele><time>2026-04-05T15:33:51Z</time></trkpt><trkpt lat="34.516919501061736" lon="10.19352888168572"><ele>53.0</ele><time>2026-04-05T15:33:52Z</time></trkpt><trkpt lat="34.516903844914914" lon="10.193157279164042"><ele>52.5</ele><time>2026-04-05T15:33:53Z</time></trkpt><trkpt lat="34.51688961052596" lon="10.192787679619961"><ele>52.0</ele><time>2026-04-05T15:33:54Z</time></trkpt><trkpt lat="34.51687521726409" lon="10.192423486700703"><ele>52.0</ele><time>2026-04-05T15:33:55Z</time></trkpt><trkpt lat="34.51685988671021" lon="10.192058741131119"><ele>52.0</ele><time>2026-04-05T15:33:56Z</time></trkpt><trkpt lat="34.516845871592345" lon="10.191696517996258"><ele>51.0</ele><time>2026-04-05T15:33:57Z</time></trkpt><trkpt lat="34.5168330735268" lon="10.191340367425704"><ele>50.0</ele><time>2026-04-05T15:33:58Z</time></trkpt><trkpt lat="34.516815671925315" lon="10.190982814792868"><ele>48.5</ele><time>2026-04-05T15:33:59Z</time></trkpt><trkpt lat="34.51679876731124" lon="10.19062488610894"><ele>47.0</ele><time>2026-04-05T15:34:00Z</time></trkpt><trkpt lat="34.51678515608209" lon="10.190263592550183"><ele>47.0</ele><time>2026-04-05T15:34:01Z</time></trkpt><trkpt lat="34.51677476986707" lon="10.18990501768596"><ele>47.0</ele><time>2026-04-05T15:34:02Z</time></trkpt><trkpt lat="34.51676652417386" lon="10.189549949807349"><ele>46.5</ele><time>2026-04-05T15:34:03Z</time></trkpt><trkpt lat="34.516754317715346" lon="10.189193820564055"><ele>46.0</ele><time>2026-04-05T15:34:04Z</time></trkpt><trkpt lat="34.516739039715354" lon="10.188843512469184"><ele>45.5</ele><time>2026-04-05T15:34:05Z</time></trkpt><trkpt lat="34.516721401073006" lon="10.188494605344268"><ele>45.0</ele><time>2026-04-05T15:34:06Z</time></trkpt><trkpt lat="34.5167021501445" lon="10.188142706076007"><ele>44.0</ele><time>2026-04-05T15:34:07Z</time></trkpt><trkpt lat="34.5166759839265" lon="10.187791008898404"><ele>43.0</ele><time>2026-04-05T15:34:08Z</time></trkpt><trkpt lat="34.51664050372512" lon="10.187434838821883"><ele>43.0</ele><time>2026-04-05T15:34:09Z</time></trkpt><trkpt lat="34.51659440960902" lon="10.187081958649221"><ele>43.0</ele><time>2026-04-05T15:34:10Z</time></trkpt><trkpt lat="34.51654639825265" lon="10.186727921376821"><ele>43.5</ele><time>2026-04-05T15:34:11Z</time></trkpt><trkpt lat="34.516499557165" lon="10.18637109257517"><ele>44.0</ele><time>2026-04-05T15:34:12Z</time></trkpt><trkpt lat="34.516452439316566" lon="10.18601060039733"><ele>44.0</ele><time>2026-04-05T15:34:13Z</time></trkpt><trkpt lat="34.516405823094004" lon="10.185650374682607"><ele>44.0</ele><time>2026-04-05T15:34:14Z</time></trkpt><trkpt lat="34.51636171643489" lon="10.18529152699575"><ele>44.0</ele><time>2026-04-05T15:34:15Z</time></trkpt><trkpt lat="34.51631830542133" lon="10.18493374351266"><ele>44.0</ele><time>2026-04-05T15:34:16Z</time></trkpt><trkpt lat="34.51627302996984" lon="10.184579086845671"><ele>43.5</ele><time>2026-04-05T15:34:17Z</time></trkpt><trkpt lat="34.51622576361002" lon="10.18423267308614"><ele>43.0</ele><time>2026-04-05T15:34:18Z</time></trkpt><trkpt lat="34.51618288884021" lon="10.183888804581182"><ele>43.0</ele><time>2026-04-05T15:34:19Z</time></trkpt><trkpt lat="34.51614462431217" lon="10.18355498541188"><ele>43.0</ele><time>2026-04-05T15:34:20Z</time></trkpt><trkpt lat="34.51610561589834" lon="10.183220905066632"><ele>44.0</ele><time>2026-04-05T15:34:21Z</time></trkpt><trkpt lat="34.516063150884946" lon="10.182881391910794"><ele>45.0</ele><time>2026-04-05T15:34:22Z</time></trkpt><trkpt lat="34.51602020343269" lon="10.182539054114295"><ele>45.0</ele><time>2026-04-05T15:34:23Z</time></trkpt><trkpt lat="34.51597763907412" lon="10.182198675330598"><ele>45.0</ele><time>2026-04-05T15:34:24Z</time></trkpt><trkpt lat="34.51593366335395" lon="10.181861520655872"><ele>45.0</ele><time>2026-04-05T15:34:25Z</time></trkpt><trkpt lat="34.51589043503665" lon="10.181518037273358"><ele>45.0</ele><time>2026-04-05T15:34:26Z</time></trkpt><trkpt lat="34.515846310528886" lon="10.181170645886056"><ele>45.5</ele><time>2026-04-05T15:34:27Z</time></trkpt><trkpt lat="34.515803169835806" lon="10.180820188463153"><ele>46.0</ele><time>2026-04-05T15:34:28Z</time></trkpt><trkpt lat="34.5157600325024" lon="10.180465582985597"><ele>48.0</ele><time>2026-04-05T15:34:29Z</time></trkpt><trkpt lat="34.5157176414397" lon="10.180113150220961"><ele>50.0</ele><time>2026-04-05T15:34:30Z</time></trkpt><trkpt lat="34.51567394508596" lon="10.179761088811793"><ele>53.0</ele><time>2026-04-05T15:34:31Z</time></trkpt><trkpt lat="34.51563076154268" lon="10.179415259103068"><ele>56.0</ele><time>2026-04-05T15:34:32Z</time></trkpt><trkpt lat="34.51558757233514" lon="10.179074852170688"><ele>57.5</ele><time>2026-04-05T15:34:33Z</time></trkpt><trkpt lat="34.51554473292551" lon="10.17873479237444"><ele>59.0</ele><time>2026-04-05T15:34:34Z</time></trkpt><trkpt lat="34.51550236255296" lon="10.178394258570242"><ele>59.0</ele><time>2026-04-05T15:34:35Z</time></trkpt><trkpt lat="34.51545681865708" lon="10.17805489204021"><ele>59.0</ele><time>2026-04-05T15:34:36Z</time></trkpt><trkpt lat="34.51541190930768" lon="10.17771462160325"><ele>57.5</ele><time>2026-04-05T15:34:37Z</time></trkpt><trkpt lat="34.5153679492965" lon="10.177373959654666"><ele>56.0</ele><time>2026-04-05T15:34:38Z</time></trkpt><trkpt lat="34.51532702042056" lon="10.177037028718589"><ele>56.0</ele><time>2026-04-05T15:34:39Z</time></trkpt><trkpt lat="34.51529040947337" lon="10.176696569327033"><ele>56.0</ele><time>2026-04-05T15:34:40Z</time></trkpt><trkpt lat="34.51525319215874" lon="10.176355830898961"><ele>55.0</ele><time>2026-04-05T15:34:41Z</time></trkpt><trkpt lat="34.51521295678387" lon="10.176013729692487"><ele>54.0</ele><time>2026-04-05T15:34:42Z</time></trkpt><trkpt lat="34.515170934574456" lon="10.175669944730796"><ele>54.0</ele><time>2026-04-05T15:34:43Z</time></trkpt><trkpt lat="34.51513050674821" lon="10.175329815951386"><ele>54.0</ele><time>2026-04-05T15:34:44Z</time></trkpt><trkpt lat="34.51508807236332" lon="10.174989263757299"><ele>54.5</ele><time>2026-04-05T15:34:45Z</time></trkpt><trkpt lat="34.515045025880944" lon="10.174642764207105"><ele>55.0</ele><time>2026-04-05T15:34:46Z</time></trkpt><trkpt lat="34.51500203771633" lon="10.174300734958505"><ele>56.0</ele><time>2026-04-05T15:34:47Z</time></trkpt><trkpt lat="34.514958125250224" lon="10.173953135548148"><ele>57.0</ele><time>2026-04-05T15:34:48Z</time></trkpt><trkpt lat="34.51491195342596" lon="10.173606264038128"><ele>57.0</ele><time>2026-04-05T15:34:49Z</time></trkpt><trkpt lat="34.51486492755055" lon="10.173257207239114"><ele>57.0</ele><time>2026-04-05T15:34:50Z</time></trkpt><trkpt lat="34.5148192787623" lon="10.172908072142764"><ele>58.5</ele><time>2026-04-05T15:34:51Z</time></trkpt><trkpt lat="34.514774533820194" lon="10.17255665595459"><ele>60.0</ele><time>2026-04-05T15:34:52Z</time></trkpt><trkpt lat="34.514731940098685" lon="10.172203659769426"><ele>61.5</ele><time>2026-04-05T15:34:53Z</time></trkpt><trkpt lat="34.51469236041449" lon="10.171846013190903"><ele>63.0</ele><time>2026-04-05T15:34:54Z</time></trkpt><trkpt lat="34.514662314656015" lon="10.17148757857997"><ele>64.0</ele><time>2026-04-05T15:34:55Z</time></trkpt><trkpt lat="34.514639596865685" lon="10.171123982160683"><ele>65.0</ele><time>2026-04-05T15:34:56Z</time></trkpt><trkpt lat="34.51462044522661" lon="10.17076002874894"><ele>63.5</ele><time>2026-04-05T15:34:57Z</time></trkpt><trkpt lat="34.51460371231429" lon="10.170388424508893"><ele>62.0</ele><time>2026-04-05T15:34:58Z</time></trkpt><trkpt lat="34.51459656623614" lon="10.17001914558365"><ele>61.5</ele><time>2026-04-05T15:34:59Z</time></trkpt><trkpt lat="34.51459417426317" lon="10.169645975417174"><ele>61.0</ele><time>2026-04-05T15:35:00Z</time></trkpt><trkpt lat="34.51459591430577" lon="10.169272366199495"><ele>60.5</ele><time>2026-04-05T15:35:01Z</time></trkpt><trkpt lat="34.51460271941187" lon="10.168895961317768"><ele>60.0</ele><time>2026-04-05T15:35:02Z</time></trkpt><trkpt lat="34.51461561944106" lon="10.168518196490547"><ele>59.5</ele><time>2026-04-05T15:35:03Z</time></trkpt><trkpt lat="34.514631540325865" lon="10.168139293151322"><ele>59.0</ele><time>2026-04-05T15:35:04Z</time></trkpt><trkpt lat="34.51465489563106" lon="10.16775700367746"><ele>59.0</ele><time>2026-04-05T15:35:05Z</time></trkpt><trkpt lat="34.514682673407336" lon="10.167379487945416"><ele>59.0</ele><time>2026-04-05T15:35:06Z</time></trkpt><trkpt lat="34.51471663836305" lon="10.166999606515652"><ele>58.5</ele><time>2026-04-05T15:35:07Z</time></trkpt><trkpt lat="34.51475326401786" lon="10.166620963893854"><ele>58.0</ele><time>2026-04-05T15:35:08Z</time></trkpt><trkpt lat="34.51479953293064" lon="10.166241589478101"><ele>57.5</ele><time>2026-04-05T15:35:09Z</time></trkpt><trkpt lat="34.514852966984954" lon="10.165862220194656"><ele>57.0</ele><time>2026-04-05T15:35:10Z</time></trkpt><trkpt lat="34.51491093086675" lon="10.165483834989445"><ele>57.0</ele><time>2026-04-05T15:35:11Z</time></trkpt><trkpt lat="34.5149743514033" lon="10.165104183824402"><ele>57.0</ele><time>2026-04-05T15:35:12Z</time></trkpt><trkpt lat="34.515044218398764" lon="10.164726857233383"><ele>56.5</ele><time>2026-04-05T15:35:13Z</time></trkpt><trkpt lat="34.51511989124247" lon="10.164342296432503"><ele>56.0</ele><time>2026-04-05T15:35:14Z</time></trkpt><trkpt lat="34.51519865307812" lon="10.16396301290587"><ele>55.0</ele><time>2026-04-05T15:35:14.999Z</time></trkpt><trkpt lat="34.51528347012699" lon="10.163578940112195"><ele>54.0</ele><time>2026-04-05T15:35:15.999Z</time></trkpt><trkpt lat="34.51537397403428" lon="10.163199747976723"><ele>54.5</ele><time>2026-04-05T15:35:16.999Z</time></trkpt><trkpt lat="34.5154681267777" lon="10.162819583353839"><ele>55.0</ele><time>2026-04-05T15:35:17.999Z</time></trkpt><trkpt lat="34.515563214276995" lon="10.162442944047045"><ele>54.5</ele><time>2026-04-05T15:35:18.999Z</time></trkpt><trkpt lat="34.515663282667894" lon="10.16207180547288"><ele>54.0</ele><time>2026-04-05T15:35:19.999Z</time></trkpt><trkpt lat="34.51577269237969" lon="10.161699942525667"><ele>52.5</ele><time>2026-04-05T15:35:20.999Z</time></trkpt><trkpt lat="34.5158912674702" lon="10.161334967210422"><ele>51.0</ele><time>2026-04-05T15:35:21.999Z</time></trkpt><trkpt lat="34.51602047343398" lon="10.160974811186575"><ele>51.5</ele><time>2026-04-05T15:35:22.999Z</time></trkpt><trkpt lat="34.51615412397423" lon="10.16062107048669"><ele>52.0</ele><time>2026-04-05T15:35:23.999Z</time></trkpt><trkpt lat="34.5162931377161" lon="10.16026701357168"><ele>52.0</ele><time>2026-04-05T15:35:24.999Z</time></trkpt><trkpt lat="34.51643137927093" lon="10.159909688495325"><ele>52.0</ele><time>2026-04-05T15:35:25.999Z</time></trkpt><trkpt lat="34.516566371496495" lon="10.159545567701883"><ele>51.5</ele><time>2026-04-05T15:35:26.999Z</time></trkpt><trkpt lat="34.51669618585253" lon="10.159182245586083"><ele>51.0</ele><time>2026-04-05T15:35:27.999Z</time></trkpt><trkpt lat="34.51682479937617" lon="10.158813649241491"><ele>50.5</ele><time>2026-04-05T15:35:28.999Z</time></trkpt><trkpt lat="34.51694937832162" lon="10.158447932056944"><ele>50.0</ele><time>2026-04-05T15:35:29.999Z</time></trkpt><trkpt lat="34.51707827548739" lon="10.158076314766058"><ele>49.5</ele><time>2026-04-05T15:35:30.999Z</time></trkpt><trkpt lat="34.51720884058194" lon="10.1577063439531"><ele>49.0</ele><time>2026-04-05T15:35:31.999Z</time></trkpt><trkpt lat="34.51734252310682" lon="10.157331543605737"><ele>48.0</ele><time>2026-04-05T15:35:32.999Z</time></trkpt><trkpt lat="34.517479002024906" lon="10.156954083966733"><ele>47.0</ele><time>2026-04-05T15:35:33.999Z</time></trkpt><trkpt lat="34.51761758988744" lon="10.156574437488086"><ele>46.5</ele><time>2026-04-05T15:35:34.999Z</time></trkpt><trkpt lat="34.51775590998033" lon="10.156196347902169"><ele>46.0</ele><time>2026-04-05T15:35:35.999Z</time></trkpt><trkpt lat="34.51789187520679" lon="10.155815093479344"><ele>45.5</ele><time>2026-04-05T15:35:36.999Z</time></trkpt><trkpt lat="34.518027006940045" lon="10.155434324804606"><ele>45.0</ele><time>2026-04-05T15:35:37.999Z</time></trkpt><trkpt lat="34.51815948040846" lon="10.155053146129962"><ele>45.0</ele><time>2026-04-05T15:35:38.999Z</time></trkpt><trkpt lat="34.51829173870301" lon="10.154673102166296"><ele>45.0</ele><time>2026-04-05T15:35:39.999Z</time></trkpt><trkpt lat="34.518426714164356" lon="10.154293815381955"><ele>45.0</ele><time>2026-04-05T15:35:40.999Z</time></trkpt><trkpt lat="34.518562024423716" lon="10.15391778524102"><ele>45.0</ele><time>2026-04-05T15:35:41.999Z</time></trkpt><trkpt lat="34.51869797638782" lon="10.153540680340633"><ele>43.5</ele><time>2026-04-05T15:35:42.999Z</time></trkpt><trkpt lat="34.51883214222458" lon="10.15316705312958"><ele>42.0</ele><time>2026-04-05T15:35:43.999Z</time></trkpt><trkpt lat="34.518963399388845" lon="10.152793938196021"><ele>42.0</ele><time>2026-04-05T15:35:44.999Z</time></trkpt><trkpt lat="34.519094925985954" lon="10.152420394770054"><ele>42.0</ele><time>2026-04-05T15:35:45.999Z</time></trkpt><trkpt lat="34.519227328216665" lon="10.152047812064527"><ele>42.0</ele><time>2026-04-05T15:35:46.999Z</time></trkpt><trkpt lat="34.51935849370904" lon="10.151679106628041"><ele>42.0</ele><time>2026-04-05T15:35:47.999Z</time></trkpt><trkpt lat="34.519491000969545" lon="10.151311739048783"><ele>42.0</ele><time>2026-04-05T15:35:48.999Z</time></trkpt><trkpt lat="34.51962356033915" lon="10.150942958293422"><ele>42.0</ele><time>2026-04-05T15:35:49.999Z</time></trkpt><trkpt lat="34.51975524122198" lon="10.150574403027676"><ele>41.5</ele><time>2026-04-05T15:35:50.999Z</time></trkpt><trkpt lat="34.519886663506874" lon="10.150203588301757"><ele>41.0</ele><time>2026-04-05T15:35:51.999Z</time></trkpt><trkpt lat="34.52001688693532" lon="10.149831873772225"><ele>41.0</ele><time>2026-04-05T15:35:52.999Z</time></trkpt><trkpt lat="34.5201473658788" lon="10.149462370272602"><ele>41.0</ele><time>2026-04-05T15:35:54Z</time></trkpt><trkpt lat="34.52027928807005" lon="10.14909778887722"><ele>40.5</ele><time>2026-04-05T15:35:55Z</time></trkpt><trkpt lat="34.52041036608763" lon="10.148732568546764"><ele>40.0</ele><time>2026-04-05T15:35:56Z</time></trkpt><trkpt lat="34.52054242301107" lon="10.148367147644576"><ele>40.0</ele><time>2026-04-05T15:35:57Z</time></trkpt><trkpt lat="34.52067304617776" lon="10.14800433985418"><ele>40.0</ele><time>2026-04-05T15:35:58Z</time></trkpt><trkpt lat="34.52080238251013" lon="10.147640178707343"><ele>39.5</ele><time>2026-04-05T15:35:59Z</time></trkpt><trkpt lat="34.52093183942118" lon="10.147273460543456"><ele>39.0</ele><time>2026-04-05T15:36:00Z</time></trkpt><trkpt lat="34.52106041028832" lon="10.14690708141919"><ele>39.5</ele><time>2026-04-05T15:36:01Z</time></trkpt><trkpt lat="34.52118760415399" lon="10.146537072226291"><ele>40.0</ele><time>2026-04-05T15:36:02Z</time></trkpt><trkpt lat="34.521318905302806" lon="10.146171175399946"><ele>40.5</ele><time>2026-04-05T15:36:03Z</time></trkpt><trkpt lat="34.5214483739066" lon="10.145806848051159"><ele>41.0</ele><time>2026-04-05T15:36:04Z</time></trkpt><trkpt lat="34.52157436288268" lon="10.145444062905696"><ele>41.0</ele><time>2026-04-05T15:36:05Z</time></trkpt><trkpt lat="34.52170252460662" lon="10.145078357502852"><ele>41.0</ele><time>2026-04-05T15:36:06Z</time></trkpt><trkpt lat="34.52183239096082" lon="10.144712784733837"><ele>42.0</ele><time>2026-04-05T15:36:07Z</time></trkpt><trkpt lat="34.521965204131654" lon="10.14434806739342"><ele>43.0</ele><time>2026-04-05T15:36:08Z</time></trkpt><trkpt lat="34.52209948336334" lon="10.143984450275736"><ele>43.0</ele><time>2026-04-05T15:36:09Z</time></trkpt><trkpt lat="34.52222956633643" lon="10.143617216538916"><ele>43.0</ele><time>2026-04-05T15:36:10Z</time></trkpt><trkpt lat="34.52235650467522" lon="10.143250484355573"><ele>43.0</ele><time>2026-04-05T15:36:11Z</time></trkpt><trkpt lat="34.52248603235515" lon="10.142880407846182"><ele>43.0</ele><time>2026-04-05T15:36:12Z</time></trkpt><trkpt lat="34.52261517240518" lon="10.142514401108457"><ele>43.5</ele><time>2026-04-05T15:36:13Z</time></trkpt><trkpt lat="34.52274798212905" lon="10.142148451745694"><ele>44.0</ele><time>2026-04-05T15:36:14Z</time></trkpt><trkpt lat="34.522879457597575" lon="10.141784111706942"><ele>44.0</ele><time>2026-04-05T15:36:15Z</time></trkpt><trkpt lat="34.52301078455944" lon="10.1414169595882"><ele>44.0</ele><time>2026-04-05T15:36:16Z</time></trkpt><trkpt lat="34.523143027669946" lon="10.141051152488394"><ele>44.0</ele><time>2026-04-05T15:36:17Z</time></trkpt><trkpt lat="34.52327373453491" lon="10.140683856612453"><ele>44.0</ele><time>2026-04-05T15:36:18Z</time></trkpt><trkpt lat="34.523403893281795" lon="10.140316586204163"><ele>44.0</ele><time>2026-04-05T15:36:19Z</time></trkpt><trkpt lat="34.52353411659274" lon="10.139949821755891"><ele>44.0</ele><time>2026-04-05T15:36:20Z</time></trkpt><trkpt lat="34.52366478658683" lon="10.139586513401927"><ele>44.0</ele><time>2026-04-05T15:36:21Z</time></trkpt><trkpt lat="34.523797458194295" lon="10.13921893126558"><ele>44.0</ele><time>2026-04-05T15:36:22Z</time></trkpt><trkpt lat="34.52392864439384" lon="10.138852882150866"><ele>44.0</ele><time>2026-04-05T15:36:23Z</time></trkpt><trkpt lat="34.524056389015016" lon="10.138493976592752"><ele>44.0</ele><time>2026-04-05T15:36:24Z</time></trkpt><trkpt lat="34.524177124370034" lon="10.138147370345227"><ele>44.5</ele><time>2026-04-05T15:36:25Z</time></trkpt><trkpt lat="34.52429719277106" lon="10.137813201908557"><ele>45.0</ele><time>2026-04-05T15:36:26Z</time></trkpt><trkpt lat="34.52441460337641" lon="10.13748740366591"><ele>45.5</ele><time>2026-04-05T15:36:27Z</time></trkpt><trkpt lat="34.52452774380303" lon="10.13717266981334"><ele>46.0</ele><time>2026-04-05T15:36:28Z</time></trkpt><trkpt lat="34.52463734852876" lon="10.1368586558611"><ele>46.0</ele><time>2026-04-05T15:36:29Z</time></trkpt><trkpt lat="34.52474342737376" lon="10.136556945633787"><ele>46.0</ele><time>2026-04-05T15:36:30Z</time></trkpt><trkpt lat="34.52485145355303" lon="10.136251541673946"><ele>46.0</ele><time>2026-04-05T15:36:31Z</time></trkpt><trkpt lat="34.524961938447504" lon="10.135935292880044"><ele>46.0</ele><time>2026-04-05T15:36:32Z</time></trkpt><trkpt lat="34.52507501237237" lon="10.135615648679156"><ele>46.0</ele><time>2026-04-05T15:36:33Z</time></trkpt><trkpt lat="34.52519038775001" lon="10.135293464045525"><ele>46.0</ele><time>2026-04-05T15:36:34Z</time></trkpt><trkpt lat="34.525305105395766" lon="10.134971466333889"><ele>45.0</ele><time>2026-04-05T15:36:35Z</time></trkpt><trkpt lat="34.52542099415759" lon="10.134648221511421"><ele>44.0</ele><time>2026-04-05T15:36:36Z</time></trkpt><trkpt lat="34.5255364190289" lon="10.134320703807292"><ele>45.0</ele><time>2026-04-05T15:36:37Z</time></trkpt><trkpt lat="34.52565133190455" lon="10.133989710105864"><ele>46.0</ele><time>2026-04-05T15:36:38Z</time></trkpt><trkpt lat="34.5257617824933" lon="10.133664325257245"><ele>46.0</ele><time>2026-04-05T15:36:39Z</time></trkpt><trkpt lat="34.52587161791776" lon="10.133333935449922"><ele>46.0</ele><time>2026-04-05T15:36:40Z</time></trkpt><trkpt lat="34.52597556560842" lon="10.13300365104748"><ele>46.5</ele><time>2026-04-05T15:36:41Z</time></trkpt><trkpt lat="34.5260695207495" lon="10.132669979041689"><ele>47.0</ele><time>2026-04-05T15:36:42Z</time></trkpt><trkpt lat="34.5261555468262" lon="10.13233497654606"><ele>46.5</ele><time>2026-04-05T15:36:43Z</time></trkpt><trkpt lat="34.52623840702768" lon="10.132003138569505"><ele>46.0</ele><time>2026-04-05T15:36:44Z</time></trkpt><trkpt lat="34.52631663633451" lon="10.13166854414267"><ele>47.0</ele><time>2026-04-05T15:36:45Z</time></trkpt><trkpt lat="34.52639041874962" lon="10.131337931702488"><ele>48.0</ele><time>2026-04-05T15:36:46Z</time></trkpt><trkpt lat="34.526457653279174" lon="10.131011905863751"><ele>47.5</ele><time>2026-04-05T15:36:47Z</time></trkpt><trkpt lat="34.52652345479604" lon="10.130697626543556"><ele>47.0</ele><time>2026-04-05T15:36:48Z</time></trkpt><trkpt lat="34.526581354573615" lon="10.130419515389377"><ele>47.0</ele><time>2026-04-05T15:36:49Z</time></trkpt><trkpt lat="34.52663505252618" lon="10.130164298810934"><ele>47.0</ele><time>2026-04-05T15:36:50Z</time></trkpt><trkpt lat="34.52669054813793" lon="10.1299148898444"><ele>47.0</ele><time>2026-04-05T15:36:51Z</time></trkpt><trkpt lat="34.52674361800815" lon="10.129671781894906"><ele>46.666666666666664</ele><time>2026-04-05T15:36:52Z</time></trkpt><trkpt lat="34.52679345759425" lon="10.12943546578872"><ele>46.333333333333336</ele><time>2026-04-05T15:36:53Z</time></trkpt><trkpt lat="34.52684130840901" lon="10.129197080335619"><ele>46.0</ele><time>2026-04-05T15:36:54Z</time></trkpt><trkpt lat="34.52688851942795" lon="10.128968832148077"><ele>46.0</ele><time>2026-04-05T15:36:55Z</time></trkpt><trkpt lat="34.52693234645165" lon="10.128752621761983"><ele>46.0</ele><time>2026-04-05T15:36:56Z</time></trkpt><trkpt lat="34.5269777739289" lon="10.128545199922502"><ele>46.0</ele><time>2026-04-05T15:36:57Z</time></trkpt><trkpt lat="34.527024353384284" lon="10.128339545362952"><ele>46.66666666666667</ele><time>2026-04-05T15:36:58Z</time></trkpt><trkpt lat="34.52706855679812" lon="10.128133627465353"><ele>47.333333333333336</ele><time>2026-04-05T15:36:59Z</time></trkpt><trkpt lat="34.52710907884015" lon="10.127935686631064"><ele>48.0</ele><time>2026-04-05T15:37:00Z</time></trkpt><trkpt lat="34.52714962215673" lon="10.127748491682224"><ele>48.0</ele><time>2026-04-05T15:37:01Z</time></trkpt><trkpt lat="34.527190961619155" lon="10.12756642987015"><ele>48.0</ele><time>2026-04-05T15:37:02Z</time></trkpt><trkpt lat="34.527231186853996" lon="10.127384356691907"><ele>48.0</ele><time>2026-04-05T15:37:03Z</time></trkpt><trkpt lat="34.52726850825585" lon="10.127202713976605"><ele>47.666666666666664</ele><time>2026-04-05T15:37:04Z</time></trkpt><trkpt lat="34.52730483046087" lon="10.127021529624297"><ele>47.33333333333333</ele><time>2026-04-05T15:37:05Z</time></trkpt><trkpt lat="34.52733989306105" lon="10.126837702679316"><ele>47.0</ele><time>2026-04-05T15:37:06Z</time></trkpt><trkpt lat="34.52737966251489" lon="10.12665528055751"><ele>47.0</ele><time>2026-04-05T15:37:07Z</time></trkpt><trkpt lat="34.527419062061334" lon="10.126475339271604"><ele>47.0</ele><time>2026-04-05T15:37:08Z</time></trkpt><trkpt lat="34.52745730416466" lon="10.126292417794472"><ele>47.0</ele><time>2026-04-05T15:37:09Z</time></trkpt><trkpt lat="34.52749530050853" lon="10.12611165476028"><ele>47.0</ele><time>2026-04-05T15:37:10Z</time></trkpt><trkpt lat="34.52753229599222" lon="10.125930680841371"><ele>47.0</ele><time>2026-04-05T15:37:11Z</time></trkpt><trkpt lat="34.52756950826787" lon="10.125751683432345"><ele>47.0</ele><time>2026-04-05T15:37:12Z</time></trkpt><trkpt lat="34.52760482868375" lon="10.125582448126247"><ele>47.0</ele><time>2026-04-05T15:37:13Z</time></trkpt><trkpt lat="34.52763786965496" lon="10.125420220159354"><ele>47.0</ele><time>2026-04-05T15:37:14Z</time></trkpt><trkpt lat="34.527672254862736" lon="10.125263006739392"><ele>47.0</ele><time>2026-04-05T15:37:14.999Z</time></trkpt><trkpt lat="34.52770493180709" lon="10.125108227591484"><ele>47.0</ele><time>2026-04-05T15:37:15.999Z</time></trkpt><trkpt lat="34.52773272536545" lon="10.124952604806408"><ele>47.0</ele><time>2026-04-05T15:37:16.999Z</time></trkpt><trkpt lat="34.52775903503688" lon="10.124811883685249"><ele>47.0</ele><time>2026-04-05T15:37:17.999Z</time></trkpt><trkpt lat="34.52777987520367" lon="10.124705888537148"><ele>47.0</ele><time>2026-04-05T15:37:18.999Z</time></trkpt><trkpt lat="34.5278011122693" lon="10.124619777222772"><ele>47.0</ele><time>2026-04-05T15:37:19.999Z</time></trkpt><trkpt lat="34.527822596720654" lon="10.124547895802593"><ele>47.0</ele><time>2026-04-05T15:37:20.999Z</time></trkpt><trkpt lat="34.52785109222257" lon="10.124455090619081"><ele>47.0</ele><time>2026-04-05T15:37:22.999Z</time></trkpt><trkpt lat="34.52786580975578" lon="10.124365822257609"><ele>47.0</ele><time>2026-04-05T15:37:24.999Z</time></trkpt><trkpt lat="34.52788755143561" lon="10.124269814426798"><ele>47.0</ele><time>2026-04-05T15:37:26.999Z</time></trkpt><trkpt lat="34.52791260781276" lon="10.124190660205077"><ele>47.0</ele><time>2026-04-05T15:37:28.999Z</time></trkpt><trkpt lat="34.52793227255483" lon="10.12411379468961"><ele>47.0</ele><time>2026-04-05T15:37:30.999Z</time></trkpt><trkpt lat="34.52794337517976" lon="10.12402218829165"><ele>47.0</ele><time>2026-04-05T15:37:33.999Z</time></trkpt><trkpt lat="34.52796375604512" lon="10.123938796387817"><ele>47.0</ele><time>2026-04-05T15:37:36.999Z</time></trkpt><trkpt lat="34.527975987274566" lon="10.12382788435921"><ele>46.8</ele><time>2026-04-05T15:37:57.999Z</time></trkpt><trkpt lat="34.5280009926534" lon="10.12372051826226"><ele>46.6</ele><time>2026-04-05T15:38:00Z</time></trkpt><trkpt lat="34.52802801800597" lon="10.123606740233745"><ele>46.4</ele><time>2026-04-05T15:38:02Z</time></trkpt><trkpt lat="34.52804711872135" lon="10.123506411528355"><ele>46.199999999999996</ele><time>2026-04-05T15:38:28Z</time></trkpt><trkpt lat="34.52806064747812" lon="10.123399329586888"><ele>46.0</ele><time>2026-04-05T15:38:30Z</time></trkpt><trkpt lat="34.52807469739592" lon="10.123256722119212"><ele>46.16666666666667</ele><time>2026-04-05T15:38:32Z</time></trkpt><trkpt lat="34.528087166535094" lon="10.12317935638995"><ele>46.333333333333336</ele><time>2026-04-05T15:38:33Z</time></trkpt><trkpt lat="34.52810049963703" lon="10.123094587132282"><ele>46.5</ele><time>2026-04-05T15:38:34Z</time></trkpt><trkpt lat="34.5281167391438" lon="10.122998664481134"><ele>46.666666666666664</ele><time>2026-04-05T15:38:35Z</time></trkpt><trkpt lat="34.528137131766385" lon="10.122891448100793"><ele>46.83333333333333</ele><time>2026-04-05T15:38:36Z</time></trkpt><trkpt lat="34.52815755665597" lon="10.122773198514642"><ele>47.0</ele><time>2026-04-05T15:38:37Z</time></trkpt><trkpt lat="34.5281777800294" lon="10.122640691457422"><ele>47.0</ele><time>2026-04-05T15:38:38Z</time></trkpt><trkpt lat="34.528197722242425" lon="10.12250550295019"><ele>47.0</ele><time>2026-04-05T15:38:39Z</time></trkpt><trkpt lat="34.52821889811261" lon="10.122367476692895"><ele>47.0</ele><time>2026-04-05T15:38:40Z</time></trkpt><trkpt lat="34.5282418723151" lon="10.12222971889525"><ele>47.0</ele><time>2026-04-05T15:38:41Z</time></trkpt><trkpt lat="34.52826617993381" lon="10.122089928750153"><ele>47.0</ele><time>2026-04-05T15:38:42Z</time></trkpt><trkpt lat="34.52828987383299" lon="10.121947882714405"><ele>47.0</ele><time>2026-04-05T15:38:43Z</time></trkpt><trkpt lat="34.52831394330975" lon="10.121799829001235"><ele>47.0</ele><time>2026-04-05T15:38:44Z</time></trkpt><trkpt lat="34.528339463167434" lon="10.121650008914042"><ele>47.0</ele><time>2026-04-05T15:38:45Z</time></trkpt><trkpt lat="34.5283668354698" lon="10.12149211917302"><ele>47.0</ele><time>2026-04-05T15:38:46Z</time></trkpt><trkpt lat="34.528394879646974" lon="10.121328424179802"><ele>47.0</ele><time>2026-04-05T15:38:47Z</time></trkpt><trkpt lat="34.52842291769864" lon="10.121156302058367"><ele>47.0</ele><time>2026-04-05T15:38:48Z</time></trkpt><trkpt lat="34.52845033157654" lon="10.120979134298944"><ele>47.0</ele><time>2026-04-05T15:38:49Z</time></trkpt><trkpt lat="34.52847713889516" lon="10.120789864126477"><ele>47.0</ele><time>2026-04-05T15:38:50Z</time></trkpt><trkpt lat="34.528505150301896" lon="10.120593149554725"><ele>47.0</ele><time>2026-04-05T15:38:51Z</time></trkpt><trkpt lat="34.52853704148387" lon="10.120396054588706"><ele>47.0</ele><time>2026-04-05T15:38:52Z</time></trkpt><trkpt lat="34.528570448306645" lon="10.120198683150011"><ele>47.0</ele><time>2026-04-05T15:38:53Z</time></trkpt><trkpt lat="34.52860125961509" lon="10.119996633094793"><ele>47.0</ele><time>2026-04-05T15:38:54Z</time></trkpt><trkpt lat="34.52863000111772" lon="10.119790191139655"><ele>47.0</ele><time>2026-04-05T15:38:55Z</time></trkpt><trkpt lat="34.52866150871038" lon="10.119577869010541"><ele>46.666666666666664</ele><time>2026-04-05T15:38:56Z</time></trkpt><trkpt lat="34.52869219622747" lon="10.119364740348106"><ele>46.333333333333336</ele><time>2026-04-05T15:38:57Z</time></trkpt><trkpt lat="34.528722441922994" lon="10.119151283379848"><ele>46.0</ele><time>2026-04-05T15:38:58Z</time></trkpt><trkpt lat="34.52875297850307" lon="10.118933371992556"><ele>46.0</ele><time>2026-04-05T15:38:59Z</time></trkpt><trkpt lat="34.52878346056492" lon="10.118713930986742"><ele>46.0</ele><time>2026-04-05T15:39:00Z</time></trkpt><trkpt lat="34.52881289666998" lon="10.118486944474972"><ele>46.0</ele><time>2026-04-05T15:39:01Z</time></trkpt><trkpt lat="34.5288419189573" lon="10.118254124351726"><ele>45.333333333333336</ele><time>2026-04-05T15:39:02Z</time></trkpt><trkpt lat="34.528873012676875" lon="10.117995017353682"><ele>44.666666666666664</ele><time>2026-04-05T15:39:03Z</time></trkpt><trkpt lat="34.528902625759734" lon="10.11771740718654"><ele>44.0</ele><time>2026-04-05T15:39:04Z</time></trkpt><trkpt lat="34.52894089240631" lon="10.11741726659648"><ele>43.0</ele><time>2026-04-05T15:39:05Z</time></trkpt><trkpt lat="34.52898753540879" lon="10.117101803631614"><ele>42.0</ele><time>2026-04-05T15:39:06Z</time></trkpt><trkpt lat="34.529039223462235" lon="10.116756044078922"><ele>42.5</ele><time>2026-04-05T15:39:07Z</time></trkpt><trkpt lat="34.529092875865324" lon="10.116386813988019"><ele>43.0</ele><time>2026-04-05T15:39:08Z</time></trkpt><trkpt lat="34.52914608319364" lon="10.115993734089413"><ele>43.0</ele><time>2026-04-05T15:39:09Z</time></trkpt><trkpt lat="34.529201302265214" lon="10.115579075689755"><ele>43.0</ele><time>2026-04-05T15:39:10Z</time></trkpt><trkpt lat="34.5292596085852" lon="10.11514201721255"><ele>42.5</ele><time>2026-04-05T15:39:11Z</time></trkpt><trkpt lat="34.529318771604956" lon="10.114689040780256"><ele>42.0</ele><time>2026-04-05T15:39:12Z</time></trkpt><trkpt lat="34.52938332359632" lon="10.114215352646841"><ele>42.5</ele><time>2026-04-05T15:39:12.999Z</time></trkpt><trkpt lat="34.52945037481732" lon="10.113727117692832"><ele>43.0</ele><time>2026-04-05T15:39:13.999Z</time></trkpt><trkpt lat="34.52951678292427" lon="10.113225737595124"><ele>43.5</ele><time>2026-04-05T15:39:14.999Z</time></trkpt><trkpt lat="34.52958674252938" lon="10.112712639003314"><ele>44.0</ele><time>2026-04-05T15:39:15.999Z</time></trkpt><trkpt lat="34.52965912852448" lon="10.1121844976951"><ele>44.0</ele><time>2026-04-05T15:39:16.999Z</time></trkpt><trkpt lat="34.52973390760429" lon="10.111646007424506"><ele>44.0</ele><time>2026-04-05T15:39:17.999Z</time></trkpt><trkpt lat="34.52980916360498" lon="10.111099143385434"><ele>43.0</ele><time>2026-04-05T15:39:18.999Z</time></trkpt><trkpt lat="34.52988121589539" lon="10.110551762548342"><ele>43.0</ele><time>2026-04-05T15:39:19.999Z</time></trkpt><trkpt lat="34.52995438198064" lon="10.109999085725692"><ele>43.0</ele><time>2026-04-05T15:39:20.999Z</time></trkpt><trkpt lat="34.53002773554943" lon="10.109440823936117"><ele>44.0</ele><time>2026-04-05T15:39:21.999Z</time></trkpt><trkpt lat="34.53010283449046" lon="10.108878066120475"><ele>44.0</ele><time>2026-04-05T15:39:22.999Z</time></trkpt><trkpt lat="34.5301791513792" lon="10.108312820562295"><ele>45.0</ele><time>2026-04-05T15:39:23.999Z</time></trkpt><trkpt lat="34.530259017041644" lon="10.107745682104543"><ele>44.0</ele><time>2026-04-05T15:39:24.999Z</time></trkpt><trkpt lat="34.53033872425998" lon="10.107176582138749"><ele>46.0</ele><time>2026-04-05T15:39:25.999Z</time></trkpt><trkpt lat="34.530422109599684" lon="10.106600587986401"><ele>46.0</ele><time>2026-04-05T15:39:26.999Z</time></trkpt><trkpt lat="34.53050264552394" lon="10.106025399508288"><ele>46.0</ele><time>2026-04-05T15:39:27.999Z</time></trkpt><trkpt lat="34.5305836411148" lon="10.105445135379162"><ele>48.0</ele><time>2026-04-05T15:39:28.999Z</time></trkpt><trkpt lat="34.53066335929565" lon="10.10486448306427"><ele>48.0</ele><time>2026-04-05T15:39:29.999Z</time></trkpt><trkpt lat="34.53074281808014" lon="10.10428242776986"><ele>46.0</ele><time>2026-04-05T15:39:30.999Z</time></trkpt><trkpt lat="34.53082462085221" lon="10.103695415123777"><ele>48.0</ele><time>2026-04-05T15:39:31.999Z</time></trkpt><trkpt lat="34.53090497737286" lon="10.103106736585207"><ele>48.0</ele><time>2026-04-05T15:39:32.999Z</time></trkpt><trkpt lat="34.530984498926955" lon="10.102523575578742"><ele>47.0</ele><time>2026-04-05T15:39:33.999Z</time></trkpt><trkpt lat="34.531062688549234" lon="10.101950310380838"><ele>45.0</ele><time>2026-04-05T15:39:34.999Z</time></trkpt><trkpt lat="34.531137468106955" lon="10.101393881215563"><ele>45.0</ele><time>2026-04-05T15:39:35.999Z</time></trkpt><trkpt lat="34.53120392236673" lon="10.10085813811961"><ele>45.0</ele><time>2026-04-05T15:39:36.999Z</time></trkpt><trkpt lat="34.53125842836185" lon="10.100344201967351"><ele>47.0</ele><time>2026-04-05T15:39:37.999Z</time></trkpt><trkpt lat="34.53130004127903" lon="10.099848339899342"><ele>49.0</ele><time>2026-04-05T15:39:38.999Z</time></trkpt><trkpt lat="34.531329694337565" lon="10.099361402728046"><ele>49.0</ele><time>2026-04-05T15:39:39.999Z</time></trkpt><trkpt lat="34.53134940006874" lon="10.098882016707067"><ele>49.0</ele><time>2026-04-05T15:39:40.999Z</time></trkpt><trkpt lat="34.53135731240385" lon="10.098404389319231"><ele>49.5</ele><time>2026-04-05T15:39:41.999Z</time></trkpt><trkpt lat="34.53135783566771" lon="10.097935291933164"><ele>50.0</ele><time>2026-04-05T15:39:42.999Z</time></trkpt><trkpt lat="34.5313489293852" lon="10.097471766448288"><ele>50.5</ele><time>2026-04-05T15:39:43.999Z</time></trkpt><trkpt lat="34.53133510046734" lon="10.097013704061174"><ele>51.0</ele><time>2026-04-05T15:39:44.999Z</time></trkpt><trkpt lat="34.531311017856325" lon="10.096558919683346"><ele>51.0</ele><time>2026-04-05T15:39:45.999Z</time></trkpt><trkpt lat="34.53127966404172" lon="10.096107780542104"><ele>51.0</ele><time>2026-04-05T15:39:46.999Z</time></trkpt><trkpt lat="34.53124081046097" lon="10.095658232290077"><ele>50.5</ele><time>2026-04-05T15:39:47.999Z</time></trkpt><trkpt lat="34.53119365233687" lon="10.095213577237606"><ele>50.0</ele><time>2026-04-05T15:39:48.999Z</time></trkpt><trkpt lat="34.53113905738338" lon="10.094774077528474"><ele>50.0</ele><time>2026-04-05T15:39:49.999Z</time></trkpt><trkpt lat="34.53107329710313" lon="10.094331823509743"><ele>50.0</ele><time>2026-04-05T15:39:50.999Z</time></trkpt><trkpt lat="34.53100401720707" lon="10.093894956375705"><ele>50.5</ele><time>2026-04-05T15:39:51.999Z</time></trkpt><trkpt lat="34.53092649647262" lon="10.093456335642175"><ele>51.0</ele><time>2026-04-05T15:39:52.999Z</time></trkpt><trkpt lat="34.53084065294985" lon="10.093016967105756"><ele>52.0</ele><time>2026-04-05T15:39:53.999Z</time></trkpt><trkpt lat="34.53075016604703" lon="10.09256560592935"><ele>53.0</ele><time>2026-04-05T15:39:54.999Z</time></trkpt><trkpt lat="34.53065305156094" lon="10.092111732494322"><ele>54.0</ele><time>2026-04-05T15:39:55.999Z</time></trkpt><trkpt lat="34.530542124631104" lon="10.091665988445722"><ele>55.0</ele><time>2026-04-05T15:39:56.999Z</time></trkpt><trkpt lat="34.530418361999274" lon="10.09123188284572"><ele>56.0</ele><time>2026-04-05T15:39:57.999Z</time></trkpt><trkpt lat="34.53028837887714" lon="10.090806198225074"><ele>57.0</ele><time>2026-04-05T15:39:58.999Z</time></trkpt><trkpt lat="34.53015273946106" lon="10.090377454232279"><ele>58.0</ele><time>2026-04-05T15:39:59.999Z</time></trkpt><trkpt lat="34.53000946472443" lon="10.089956937398584"><ele>59.0</ele><time>2026-04-05T15:40:00.999Z</time></trkpt><trkpt lat="34.529857880580835" lon="10.089539421682597"><ele>59.5</ele><time>2026-04-05T15:40:01.999Z</time></trkpt><trkpt lat="34.52970083374334" lon="10.089128070248265"><ele>60.0</ele><time>2026-04-05T15:40:02.999Z</time></trkpt><trkpt lat="34.52953471386871" lon="10.088721845800421"><ele>60.0</ele><time>2026-04-05T15:40:03.999Z</time></trkpt><trkpt lat="34.529360184063336" lon="10.088314529951832"><ele>60.0</ele><time>2026-04-05T15:40:04.999Z</time></trkpt><trkpt lat="34.52917983768907" lon="10.087914991921915"><ele>61.0</ele><time>2026-04-05T15:40:06Z</time></trkpt><trkpt lat="34.52898414891945" lon="10.087515385540762"><ele>62.0</ele><time>2026-04-05T15:40:07Z</time></trkpt><trkpt lat="34.528778981430186" lon="10.087122265260732"><ele>62.0</ele><time>2026-04-05T15:40:08Z</time></trkpt><trkpt lat="34.528558713269234" lon="10.0867205964314"><ele>62.0</ele><time>2026-04-05T15:40:09Z</time></trkpt><trkpt lat="34.528326666875685" lon="10.086323098286071"><ele>62.0</ele><time>2026-04-05T15:40:10Z</time></trkpt><trkpt lat="34.528091796276875" lon="10.085937405528973"><ele>62.0</ele><time>2026-04-05T15:40:11Z</time></trkpt><trkpt lat="34.5278615093989" lon="10.0855574574114"><ele>62.5</ele><time>2026-04-05T15:40:12Z</time></trkpt><trkpt lat="34.52762713979778" lon="10.08518790925804"><ele>63.0</ele><time>2026-04-05T15:40:13Z</time></trkpt><trkpt lat="34.52738329481543" lon="10.08482532363885"><ele>63.0</ele><time>2026-04-05T15:40:14Z</time></trkpt><trkpt lat="34.527129990781674" lon="10.084466930225506"><ele>63.0</ele><time>2026-04-05T15:40:15Z</time></trkpt><trkpt lat="34.5268706908951" lon="10.084109727045634"><ele>62.0</ele><time>2026-04-05T15:40:16Z</time></trkpt><trkpt lat="34.526601868735106" lon="10.08375726060043"><ele>61.0</ele><time>2026-04-05T15:40:17Z</time></trkpt><trkpt lat="34.52632634934159" lon="10.083414702007422"><ele>60.5</ele><time>2026-04-05T15:40:18Z</time></trkpt><trkpt lat="34.52604736929289" lon="10.083082645158672"><ele>60.0</ele><time>2026-04-05T15:40:19Z</time></trkpt><trkpt lat="34.525763468114434" lon="10.082760666567694"><ele>60.0</ele><time>2026-04-05T15:40:20Z</time></trkpt><trkpt lat="34.52547383400935" lon="10.082445956379978"><ele>60.0</ele><time>2026-04-05T15:40:21Z</time></trkpt><trkpt lat="34.52517414698075" lon="10.08213909979131"><ele>58.5</ele><time>2026-04-05T15:40:22Z</time></trkpt><trkpt lat="34.52486396351826" lon="10.081838004001174"><ele>57.0</ele><time>2026-04-05T15:40:23Z</time></trkpt><trkpt lat="34.52454241456602" lon="10.081542218683543"><ele>55.5</ele><time>2026-04-05T15:40:24Z</time></trkpt><trkpt lat="34.52421212498355" lon="10.081249287063443"><ele>54.0</ele><time>2026-04-05T15:40:25Z</time></trkpt><trkpt lat="34.523871965394704" lon="10.080962739328628"><ele>54.0</ele><time>2026-04-05T15:40:26Z</time></trkpt><trkpt lat="34.5235236487546" lon="10.080680662220106"><ele>54.0</ele><time>2026-04-05T15:40:27Z</time></trkpt><trkpt lat="34.52317063417189" lon="10.080406759641495"><ele>53.0</ele><time>2026-04-05T15:40:28Z</time></trkpt><trkpt lat="34.52281404143278" lon="10.080144144248168"><ele>52.0</ele><time>2026-04-05T15:40:29Z</time></trkpt><trkpt lat="34.52245022443545" lon="10.079890624694299"><ele>51.5</ele><time>2026-04-05T15:40:30Z</time></trkpt><trkpt lat="34.522080397053415" lon="10.07965215745923"><ele>51.0</ele><time>2026-04-05T15:40:31Z</time></trkpt><trkpt lat="34.521700423133225" lon="10.079425770318435"><ele>51.0</ele><time>2026-04-05T15:40:32Z</time></trkpt><trkpt lat="34.521311227020405" lon="10.079207005973476"><ele>51.0</ele><time>2026-04-05T15:40:33Z</time></trkpt><trkpt lat="34.520916762125225" lon="10.078995614078528"><ele>50.5</ele><time>2026-04-05T15:40:34Z</time></trkpt><trkpt lat="34.520516287301156" lon="10.078796975536456"><ele>50.0</ele><time>2026-04-05T15:40:35Z</time></trkpt><trkpt lat="34.520116500317414" lon="10.078609691606731"><ele>48.0</ele><time>2026-04-05T15:40:36Z</time></trkpt><trkpt lat="34.51971526361502" lon="10.078434950471184"><ele>46.0</ele><time>2026-04-05T15:40:37Z</time></trkpt><trkpt lat="34.51931425329637" lon="10.078276992607044"><ele>43.5</ele><time>2026-04-05T15:40:38Z</time></trkpt><trkpt lat="34.5189035512975" lon="10.078128489996343"><ele>41.0</ele><time>2026-04-05T15:40:39Z</time></trkpt><trkpt lat="34.5184901258845" lon="10.077992960492388"><ele>40.5</ele><time>2026-04-05T15:40:40Z</time></trkpt><trkpt lat="34.51807665052773" lon="10.077869680407716"><ele>40.0</ele><time>2026-04-05T15:40:41Z</time></trkpt><trkpt lat="34.51766273765384" lon="10.077758933799283"><ele>41.0</ele><time>2026-04-05T15:40:42Z</time></trkpt><trkpt lat="34.517245230071005" lon="10.07765793232708"><ele>42.0</ele><time>2026-04-05T15:40:43Z</time></trkpt><trkpt lat="34.51682526213119" lon="10.077570613788108"><ele>44.5</ele><time>2026-04-05T15:40:44Z</time></trkpt><trkpt lat="34.51639866430074" lon="10.077491844014505"><ele>47.0</ele><time>2026-04-05T15:40:45Z</time></trkpt><trkpt lat="34.51596631750915" lon="10.077423643980328"><ele>48.0</ele><time>2026-04-05T15:40:46Z</time></trkpt><trkpt lat="34.51552871836774" lon="10.077359993696906"><ele>49.0</ele><time>2026-04-05T15:40:47Z</time></trkpt><trkpt lat="34.51508968259277" lon="10.077296586180715"><ele>50.0</ele><time>2026-04-05T15:40:48Z</time></trkpt><trkpt lat="34.51464661757481" lon="10.077233583133253"><ele>51.0</ele><time>2026-04-05T15:40:49Z</time></trkpt><trkpt lat="34.5142214916991" lon="10.077177030890482"><ele>51.5</ele><time>2026-04-05T15:40:50Z</time></trkpt><trkpt lat="34.513835654816845" lon="10.077119010591133"><ele>52.0</ele><time>2026-04-05T15:40:51Z</time></trkpt><trkpt lat="34.51346228682414" lon="10.077061288281138"><ele>53.5</ele><time>2026-04-05T15:40:52Z</time></trkpt><trkpt lat="34.51309802129457" lon="10.077004702118465"><ele>55.0</ele><time>2026-04-05T15:40:53Z</time></trkpt><trkpt lat="34.51273962490852" lon="10.076951551405326"><ele>55.5</ele><time>2026-04-05T15:40:54Z</time></trkpt><trkpt lat="34.51239464075305" lon="10.076901373210069"><ele>56.0</ele><time>2026-04-05T15:40:55Z</time></trkpt><trkpt lat="34.51206925426522" lon="10.076856212185909"><ele>57.0</ele><time>2026-04-05T15:40:56Z</time></trkpt><trkpt lat="34.51174674387404" lon="10.076806787718978"><ele>58.0</ele><time>2026-04-05T15:40:57Z</time></trkpt><trkpt lat="34.51142655751633" lon="10.076756553358472"><ele>58.0</ele><time>2026-04-05T15:40:58Z</time></trkpt><trkpt lat="34.51110816145529" lon="10.076705969284763"><ele>58.0</ele><time>2026-04-05T15:40:59Z</time></trkpt><trkpt lat="34.51079094198284" lon="10.076656724097225"><ele>58.0</ele><time>2026-04-05T15:41:00Z</time></trkpt><trkpt lat="34.51046486410344" lon="10.076606577961426"><ele>58.0</ele><time>2026-04-05T15:41:01Z</time></trkpt><trkpt lat="34.510128663035175" lon="10.076556704217822"><ele>58.0</ele><time>2026-04-05T15:41:02Z</time></trkpt><trkpt lat="34.5097832452225" lon="10.076505131021152"><ele>58.0</ele><time>2026-04-05T15:41:03Z</time></trkpt><trkpt lat="34.50944131572018" lon="10.076452672369221"><ele>58.5</ele><time>2026-04-05T15:41:04Z</time></trkpt><trkpt lat="34.509102970700276" lon="10.076402590904078"><ele>59.0</ele><time>2026-04-05T15:41:05Z</time></trkpt><trkpt lat="34.508774734794585" lon="10.07635223330764"><ele>59.5</ele><time>2026-04-05T15:41:06Z</time></trkpt><trkpt lat="34.50845105322711" lon="10.076301961511792"><ele>60.0</ele><time>2026-04-05T15:41:07Z</time></trkpt><trkpt lat="34.50813480240407" lon="10.076254291235898"><ele>62.5</ele><time>2026-04-05T15:41:08Z</time></trkpt><trkpt lat="34.50782479641953" lon="10.076207766875072"><ele>65.0</ele><time>2026-04-05T15:41:09Z</time></trkpt><trkpt lat="34.50751666863641" lon="10.076157193183267"><ele>65.0</ele><time>2026-04-05T15:41:10Z</time></trkpt><trkpt lat="34.50720886291066" lon="10.076102788240837"><ele>65.0</ele><time>2026-04-05T15:41:11Z</time></trkpt><trkpt lat="34.50690484395332" lon="10.076055888572078"><ele>65.5</ele><time>2026-04-05T15:41:12Z</time></trkpt><trkpt lat="34.50660473586365" lon="10.076016187319437"><ele>66.0</ele><time>2026-04-05T15:41:13Z</time></trkpt><trkpt lat="34.506306548271944" lon="10.07597807888187"><ele>66.5</ele><time>2026-04-05T15:41:14Z</time></trkpt><trkpt lat="34.506010486041475" lon="10.075934843148763"><ele>67.0</ele><time>2026-04-05T15:41:14.999Z</time></trkpt><trkpt lat="34.50571764348817" lon="10.0758907586882"><ele>67.0</ele><time>2026-04-05T15:41:15.999Z</time></trkpt><trkpt lat="34.50542204678206" lon="10.07584938051477"><ele>67.0</ele><time>2026-04-05T15:41:16.999Z</time></trkpt><trkpt lat="34.50512783884438" lon="10.075807196527663"><ele>68.5</ele><time>2026-04-05T15:41:17.999Z</time></trkpt><trkpt lat="34.50482870766012" lon="10.075762472027275"><ele>70.0</ele><time>2026-04-05T15:41:18.999Z</time></trkpt><trkpt lat="34.50452393963411" lon="10.075715389008733"><ele>70.5</ele><time>2026-04-05T15:41:19.999Z</time></trkpt><trkpt lat="34.504216751096706" lon="10.075669871335261"><ele>71.0</ele><time>2026-04-05T15:41:20.999Z</time></trkpt><trkpt lat="34.5039058856216" lon="10.075623009832222"><ele>71.5</ele><time>2026-04-05T15:41:21.999Z</time></trkpt><trkpt lat="34.503586976163106" lon="10.075576252896242"><ele>72.0</ele><time>2026-04-05T15:41:22.999Z</time></trkpt><trkpt lat="34.503264500097586" lon="10.075530209390598"><ele>72.0</ele><time>2026-04-05T15:41:23.999Z</time></trkpt><trkpt lat="34.50294497617359" lon="10.075482441337993"><ele>72.0</ele><time>2026-04-05T15:41:24.999Z</time></trkpt><trkpt lat="34.5026291258429" lon="10.075437315008047"><ele>73.5</ele><time>2026-04-05T15:41:25.999Z</time></trkpt><trkpt lat="34.50231315567618" lon="10.075391156909683"><ele>75.0</ele><time>2026-04-05T15:41:26.999Z</time></trkpt><trkpt lat="34.501996067233655" lon="10.0753433302326"><ele>75.5</ele><time>2026-04-05T15:41:27.999Z</time></trkpt><trkpt lat="34.50167987486893" lon="10.075294986228466"><ele>76.0</ele><time>2026-04-05T15:41:28.999Z</time></trkpt><trkpt lat="34.50136551965734" lon="10.075246599000332"><ele>77.0</ele><time>2026-04-05T15:41:29.999Z</time></trkpt><trkpt lat="34.5010500226165" lon="10.075200387883852"><ele>78.0</ele><time>2026-04-05T15:41:30.999Z</time></trkpt><trkpt lat="34.50074444440752" lon="10.075157008659573"><ele>78.0</ele><time>2026-04-05T15:41:31.999Z</time></trkpt><trkpt lat="34.500438814699024" lon="10.075112732793245"><ele>78.0</ele><time>2026-04-05T15:41:32.999Z</time></trkpt><trkpt lat="34.50013950029004" lon="10.075070515511502"><ele>78.5</ele><time>2026-04-05T15:41:33.999Z</time></trkpt><trkpt lat="34.49984316497232" lon="10.075029488163489"><ele>79.0</ele><time>2026-04-05T15:41:34.999Z</time></trkpt><trkpt lat="34.49954586077967" lon="10.074986340833242"><ele>79.0</ele><time>2026-04-05T15:41:35.999Z</time></trkpt><trkpt lat="34.49924919661802" lon="10.074940903123709"><ele>79.0</ele><time>2026-04-05T15:41:36.999Z</time></trkpt><trkpt lat="34.498956378553046" lon="10.074895837564194"><ele>78.5</ele><time>2026-04-05T15:41:37.999Z</time></trkpt><trkpt lat="34.498666498352286" lon="10.074850418194176"><ele>78.0</ele><time>2026-04-05T15:41:38.999Z</time></trkpt><trkpt lat="34.49837373826129" lon="10.074806954058568"><ele>78.0</ele><time>2026-04-05T15:41:39.999Z</time></trkpt><trkpt lat="34.49807863170281" lon="10.074765120475071"><ele>78.0</ele><time>2026-04-05T15:41:40.999Z</time></trkpt><trkpt lat="34.497781428065935" lon="10.074722260136124"><ele>79.0</ele><time>2026-04-05T15:41:41.999Z</time></trkpt><trkpt lat="34.49748269325491" lon="10.074679559416841"><ele>80.0</ele><time>2026-04-05T15:41:42.999Z</time></trkpt><trkpt lat="34.49718223860049" lon="10.074634781908555"><ele>79.5</ele><time>2026-04-05T15:41:43.999Z</time></trkpt><trkpt lat="34.49688432978157" lon="10.074589414829159"><ele>79.0</ele><time>2026-04-05T15:41:44.999Z</time></trkpt><trkpt lat="34.49658177739623" lon="10.074546339218758"><ele>79.0</ele><time>2026-04-05T15:41:45.999Z</time></trkpt><trkpt lat="34.49627860000811" lon="10.074504380400324"><ele>79.0</ele><time>2026-04-05T15:41:46.999Z</time></trkpt><trkpt lat="34.49597130136769" lon="10.074460502205762"><ele>79.0</ele><time>2026-04-05T15:41:47.999Z</time></trkpt><trkpt lat="34.495665286408524" lon="10.074415325409788"><ele>79.0</ele><time>2026-04-05T15:41:48.999Z</time></trkpt><trkpt lat="34.49535819739888" lon="10.074370213326638"><ele>79.0</ele><time>2026-04-05T15:41:49.999Z</time></trkpt><trkpt lat="34.49505123836085" lon="10.074324472345964"><ele>79.0</ele><time>2026-04-05T15:41:50.999Z</time></trkpt><trkpt lat="34.494745090278805" lon="10.074278388732704"><ele>77.5</ele><time>2026-04-05T15:41:51.999Z</time></trkpt><trkpt lat="34.494439301900016" lon="10.074230979786941"><ele>76.0</ele><time>2026-04-05T15:41:52.999Z</time></trkpt><trkpt lat="34.494126459688516" lon="10.074184901051002"><ele>76.0</ele><time>2026-04-05T15:41:53.999Z</time></trkpt><trkpt lat="34.49381246826355" lon="10.074138123723522"><ele>76.0</ele><time>2026-04-05T15:41:54.999Z</time></trkpt><trkpt lat="34.49349535882886" lon="10.074090465589956"><ele>76.0</ele><time>2026-04-05T15:41:55.999Z</time></trkpt><trkpt lat="34.49318152971938" lon="10.074040616268402"><ele>76.0</ele><time>2026-04-05T15:41:56.999Z</time></trkpt><trkpt lat="34.492868113872326" lon="10.073994383851907"><ele>76.0</ele><time>2026-04-05T15:41:57.999Z</time></trkpt><trkpt lat="34.49255466844628" lon="10.073949674854601"><ele>76.0</ele><time>2026-04-05T15:41:58.999Z</time></trkpt><trkpt lat="34.49223902759638" lon="10.07390565057964"><ele>74.5</ele><time>2026-04-05T15:41:59.999Z</time></trkpt><trkpt lat="34.49192493304023" lon="10.073858054047243"><ele>73.0</ele><time>2026-04-05T15:42:00.999Z</time></trkpt><trkpt lat="34.4916047078205" lon="10.073810356565433"><ele>73.0</ele><time>2026-04-05T15:42:01.999Z</time></trkpt><trkpt lat="34.491282526280095" lon="10.073762940443867"><ele>73.0</ele><time>2026-04-05T15:42:02.999Z</time></trkpt><trkpt lat="34.490957810889356" lon="10.07371634612644"><ele>71.5</ele><time>2026-04-05T15:42:03.999Z</time></trkpt><trkpt lat="34.49062703517691" lon="10.073670468150903"><ele>70.0</ele><time>2026-04-05T15:42:04.999Z</time></trkpt><trkpt lat="34.49029338674388" lon="10.073624227717959"><ele>69.0</ele><time>2026-04-05T15:42:05.999Z</time></trkpt><trkpt lat="34.48995687578295" lon="10.073577077215603"><ele>68.0</ele><time>2026-04-05T15:42:06.999Z</time></trkpt><trkpt lat="34.48962029466732" lon="10.073529279324601"><ele>67.5</ele><time>2026-04-05T15:42:07.999Z</time></trkpt><trkpt lat="34.489283772226834" lon="10.073479669572492"><ele>67.0</ele><time>2026-04-05T15:42:08.999Z</time></trkpt><trkpt lat="34.488944603721116" lon="10.073430295426329"><ele>66.0</ele><time>2026-04-05T15:42:09.999Z</time></trkpt><trkpt lat="34.48860387013865" lon="10.073381119646351"><ele>65.0</ele><time>2026-04-05T15:42:10.999Z</time></trkpt><trkpt lat="34.488268923733614" lon="10.073333999534977"><ele>65.0</ele><time>2026-04-05T15:42:12Z</time></trkpt><trkpt lat="34.48795189147463" lon="10.073293660587106"><ele>65.0</ele><time>2026-04-05T15:42:13Z</time></trkpt><trkpt lat="34.487638672629174" lon="10.073254570569881"><ele>62.0</ele><time>2026-04-05T15:42:14Z</time></trkpt><trkpt lat="34.4873235602409" lon="10.07321260888872"><ele>59.0</ele><time>2026-04-05T15:42:15Z</time></trkpt><trkpt lat="34.48700490600322" lon="10.073166655121657"><ele>58.5</ele><time>2026-04-05T15:42:16Z</time></trkpt><trkpt lat="34.48668545809609" lon="10.073119792890266"><ele>58.0</ele><time>2026-04-05T15:42:17Z</time></trkpt><trkpt lat="34.48636232647177" lon="10.073071041526356"><ele>58.0</ele><time>2026-04-05T15:42:18Z</time></trkpt><trkpt lat="34.48603539460023" lon="10.073019911133828"><ele>58.0</ele><time>2026-04-05T15:42:19Z</time></trkpt><trkpt lat="34.4857050449363" lon="10.072967389770179"><ele>57.5</ele><time>2026-04-05T15:42:20Z</time></trkpt><trkpt lat="34.485379179504825" lon="10.072915908940878"><ele>57.0</ele><time>2026-04-05T15:42:21Z</time></trkpt><trkpt lat="34.48505524761213" lon="10.072868222003969"><ele>57.0</ele><time>2026-04-05T15:42:22Z</time></trkpt><trkpt lat="34.48473166472487" lon="10.072820398506712"><ele>57.0</ele><time>2026-04-05T15:42:23Z</time></trkpt><trkpt lat="34.48440585181658" lon="10.072773012519818"><ele>58.5</ele><time>2026-04-05T15:42:24Z</time></trkpt><trkpt lat="34.48407380384457" lon="10.072725929527705"><ele>60.0</ele><time>2026-04-05T15:42:25Z</time></trkpt><trkpt lat="34.483743453818924" lon="10.072680122036727"><ele>62.0</ele><time>2026-04-05T15:42:26Z</time></trkpt><trkpt lat="34.4834166364809" lon="10.072634426594506"><ele>64.0</ele><time>2026-04-05T15:42:27Z</time></trkpt><trkpt lat="34.483088264539234" lon="10.072586776733932"><ele>63.0</ele><time>2026-04-05T15:42:28Z</time></trkpt><trkpt lat="34.48276331472198" lon="10.072537523414983"><ele>62.0</ele><time>2026-04-05T15:42:29Z</time></trkpt><trkpt lat="34.48244337733439" lon="10.072488752146894"><ele>62.0</ele><time>2026-04-05T15:42:30Z</time></trkpt><trkpt lat="34.482126371277545" lon="10.072441605876609"><ele>62.0</ele><time>2026-04-05T15:42:31Z</time></trkpt><trkpt lat="34.481825712986044" lon="10.072398575163382"><ele>63.0</ele><time>2026-04-05T15:42:32Z</time></trkpt><trkpt lat="34.48153171727283" lon="10.072356848357105"><ele>64.0</ele><time>2026-04-05T15:42:33Z</time></trkpt><trkpt lat="34.481241357185105" lon="10.072317064815003"><ele>62.0</ele><time>2026-04-05T15:42:34Z</time></trkpt><trkpt lat="34.48094124628323" lon="10.07227421186495"><ele>60.0</ele><time>2026-04-05T15:42:35Z</time></trkpt><trkpt lat="34.48062264436112" lon="10.072223700719034"><ele>58.0</ele><time>2026-04-05T15:42:36Z</time></trkpt><trkpt lat="34.48028617470537" lon="10.072169012729576"><ele>56.0</ele><time>2026-04-05T15:42:37Z</time></trkpt><trkpt lat="34.47993722836542" lon="10.072115984033607"><ele>55.5</ele><time>2026-04-05T15:42:38Z</time></trkpt><trkpt lat="34.479575531419975" lon="10.072060773144997"><ele>55.0</ele><time>2026-04-05T15:42:39Z</time></trkpt><trkpt lat="34.47920638725739" lon="10.072008111572677"><ele>55.0</ele><time>2026-04-05T15:42:40Z</time></trkpt><trkpt lat="34.47883800859097" lon="10.07195793499809"><ele>55.0</ele><time>2026-04-05T15:42:41Z</time></trkpt><trkpt lat="34.47846685831204" lon="10.071905877751735"><ele>55.0</ele><time>2026-04-05T15:42:42Z</time></trkpt><trkpt lat="34.47810573306966" lon="10.071852057523596"><ele>55.0</ele><time>2026-04-05T15:42:43Z</time></trkpt><trkpt lat="34.4777510762015" lon="10.071798790741791"><ele>54.0</ele><time>2026-04-05T15:42:44Z</time></trkpt><trkpt lat="34.477403335603285" lon="10.071746344706217"><ele>53.0</ele><time>2026-04-05T15:42:45Z</time></trkpt><trkpt lat="34.47705887467001" lon="10.071694974121565"><ele>52.5</ele><time>2026-04-05T15:42:46Z</time></trkpt><trkpt lat="34.47671711060452" lon="10.071643600367137"><ele>52.0</ele><time>2026-04-05T15:42:47Z</time></trkpt><trkpt lat="34.47637767274242" lon="10.071593557558401"><ele>53.0</ele><time>2026-04-05T15:42:48Z</time></trkpt><trkpt lat="34.4760378721714" lon="10.07154284426182"><ele>54.0</ele><time>2026-04-05T15:42:49Z</time></trkpt><trkpt lat="34.475701912815374" lon="10.071490375074239"><ele>52.5</ele><time>2026-04-05T15:42:50Z</time></trkpt><trkpt lat="34.47536650649762" lon="10.07144165119068"><ele>51.0</ele><time>2026-04-05T15:42:51Z</time></trkpt><trkpt lat="34.475030630640255" lon="10.071391946660897"><ele>51.0</ele><time>2026-04-05T15:42:52Z</time></trkpt><trkpt lat="34.47470041275715" lon="10.071339340908319"><ele>51.0</ele><time>2026-04-05T15:42:53Z</time></trkpt><trkpt lat="34.47437041415414" lon="10.07128781091274"><ele>51.0</ele><time>2026-04-05T15:42:54Z</time></trkpt><trkpt lat="34.47404373286926" lon="10.071238284459334"><ele>51.0</ele><time>2026-04-05T15:42:55Z</time></trkpt><trkpt lat="34.473719794170954" lon="10.07118830216075"><ele>50.0</ele><time>2026-04-05T15:42:56Z</time></trkpt><trkpt lat="34.473397457768776" lon="10.071142209012516"><ele>49.0</ele><time>2026-04-05T15:42:57Z</time></trkpt><trkpt lat="34.473082002975836" lon="10.071097245759612"><ele>48.5</ele><time>2026-04-05T15:42:58Z</time></trkpt><trkpt lat="34.47276818255256" lon="10.071050599184558"><ele>48.0</ele><time>2026-04-05T15:42:59Z</time></trkpt><trkpt lat="34.47245735044564" lon="10.07100381852032"><ele>48.0</ele><time>2026-04-05T15:43:00Z</time></trkpt><trkpt lat="34.47214579814984" lon="10.070959594604352"><ele>48.0</ele><time>2026-04-05T15:43:01Z</time></trkpt><trkpt lat="34.47184069028737" lon="10.070915811101067"><ele>47.5</ele><time>2026-04-05T15:43:02Z</time></trkpt><trkpt lat="34.47153772432327" lon="10.070869658026862"><ele>47.0</ele><time>2026-04-05T15:43:03Z</time></trkpt><trkpt lat="34.47124056643324" lon="10.070826211449056"><ele>46.5</ele><time>2026-04-05T15:43:04Z</time></trkpt><trkpt lat="34.470941280147116" lon="10.070782285678504"><ele>46.0</ele><time>2026-04-05T15:43:05Z</time></trkpt><trkpt lat="34.47064108044377" lon="10.070737915536336"><ele>46.5</ele><time>2026-04-05T15:43:06Z</time></trkpt><trkpt lat="34.470339715771885" lon="10.070693937396014"><ele>47.0</ele><time>2026-04-05T15:43:07Z</time></trkpt><trkpt lat="34.470039505242916" lon="10.070646682853354"><ele>47.0</ele><time>2026-04-05T15:43:08Z</time></trkpt><trkpt lat="34.46973626770595" lon="10.07059959409659"><ele>47.0</ele><time>2026-04-05T15:43:09Z</time></trkpt><trkpt lat="34.46943427772986" lon="10.070557614029223"><ele>46.5</ele><time>2026-04-05T15:43:10Z</time></trkpt><trkpt lat="34.469132648869895" lon="10.070515492301585"><ele>46.0</ele><time>2026-04-05T15:43:11Z</time></trkpt><trkpt lat="34.46883365329372" lon="10.070473432885068"><ele>45.5</ele><time>2026-04-05T15:43:12Z</time></trkpt><trkpt lat="34.46853649807907" lon="10.070428334721962"><ele>45.0</ele><time>2026-04-05T15:43:13Z</time></trkpt><trkpt lat="34.46824033705601" lon="10.070383421896654"><ele>45.0</ele><time>2026-04-05T15:43:14Z</time></trkpt><trkpt lat="34.467942536509256" lon="10.070335991816345"><ele>45.0</ele><time>2026-04-05T15:43:15Z</time></trkpt><trkpt lat="34.467646424311326" lon="10.070287411889828"><ele>45.0</ele><time>2026-04-05T15:43:16Z</time></trkpt><trkpt lat="34.46734263228063" lon="10.070244843538855"><ele>45.0</ele><time>2026-04-05T15:43:16.999Z</time></trkpt><trkpt lat="34.46703721449232" lon="10.070203048461275"><ele>44.0</ele><time>2026-04-05T15:43:17.999Z</time></trkpt><trkpt lat="34.46672972338109" lon="10.070157621354552"><ele>43.0</ele><time>2026-04-05T15:43:18.999Z</time></trkpt><trkpt lat="34.46641863793895" lon="10.07011151620406"><ele>42.5</ele><time>2026-04-05T15:43:19.999Z</time></trkpt><trkpt lat="34.46610727035033" lon="10.07006530462361"><ele>42.0</ele><time>2026-04-05T15:43:20.999Z</time></trkpt><trkpt lat="34.465795351206765" lon="10.070016580067964"><ele>42.0</ele><time>2026-04-05T15:43:21.999Z</time></trkpt><trkpt lat="34.46548447570499" lon="10.069970117017037"><ele>42.0</ele><time>2026-04-05T15:43:22.999Z</time></trkpt><trkpt lat="34.465170503213514" lon="10.06992619115153"><ele>41.5</ele><time>2026-04-05T15:43:23.999Z</time></trkpt><trkpt lat="34.46485659914508" lon="10.069883534821157"><ele>41.0</ele><time>2026-04-05T15:43:24.999Z</time></trkpt><trkpt lat="34.4645409234242" lon="10.06983679074672"><ele>41.0</ele><time>2026-04-05T15:43:25.999Z</time></trkpt><trkpt lat="34.46422296887464" lon="10.069788566411399"><ele>41.0</ele><time>2026-04-05T15:43:26.999Z</time></trkpt><trkpt lat="34.46390251523846" lon="10.069740317180162"><ele>41.0</ele><time>2026-04-05T15:43:27.999Z</time></trkpt><trkpt lat="34.463586348503355" lon="10.069691726089179"><ele>41.0</ele><time>2026-04-05T15:43:28.999Z</time></trkpt><trkpt lat="34.46327273269396" lon="10.069640404411622"><ele>41.0</ele><time>2026-04-05T15:43:29.999Z</time></trkpt><trkpt lat="34.462958457326" lon="10.069591978300242"><ele>41.0</ele><time>2026-04-05T15:43:30.999Z</time></trkpt><trkpt lat="34.4626435026505" lon="10.06954243235815"><ele>41.0</ele><time>2026-04-05T15:43:31.999Z</time></trkpt><trkpt lat="34.46232587769272" lon="10.069489349165696"><ele>41.0</ele><time>2026-04-05T15:43:32.999Z</time></trkpt><trkpt lat="34.46200825046613" lon="10.06943930158961"><ele>42.0</ele><time>2026-04-05T15:43:33.999Z</time></trkpt><trkpt lat="34.46168885535871" lon="10.069390064653856"><ele>43.0</ele><time>2026-04-05T15:43:34.999Z</time></trkpt><trkpt lat="34.46136875499552" lon="10.069344960650415"><ele>41.5</ele><time>2026-04-05T15:43:35.999Z</time></trkpt><trkpt lat="34.46104844900974" lon="10.069303494124467"><ele>40.0</ele><time>2026-04-05T15:43:36.999Z</time></trkpt><trkpt lat="34.46072899479889" lon="10.069258505671549"><ele>38.5</ele><time>2026-04-05T15:43:37.999Z</time></trkpt><trkpt lat="34.460409680391464" lon="10.069214205204105"><ele>37.0</ele><time>2026-04-05T15:43:38.999Z</time></trkpt><trkpt lat="34.460088400613074" lon="10.069169225799222"><ele>37.0</ele><time>2026-04-05T15:43:39.999Z</time></trkpt><trkpt lat="34.4597717718845" lon="10.06912318832689"><ele>37.0</ele><time>2026-04-05T15:43:40.999Z</time></trkpt><trkpt lat="34.45945382175313" lon="10.069075083894575"><ele>38.0</ele><time>2026-04-05T15:43:41.999Z</time></trkpt><trkpt lat="34.459132921323025" lon="10.069026891619009"><ele>39.0</ele><time>2026-04-05T15:43:42.999Z</time></trkpt><trkpt lat="34.45881679482832" lon="10.068973853300239"><ele>37.5</ele><time>2026-04-05T15:43:43.999Z</time></trkpt><trkpt lat="34.458498832117066" lon="10.068917933366121"><ele>36.0</ele><time>2026-04-05T15:43:44.999Z</time></trkpt><trkpt lat="34.458180950213155" lon="10.068857594698692"><ele>35.5</ele><time>2026-04-05T15:43:45.999Z</time></trkpt><trkpt lat="34.4578641862812" lon="10.068792577211372"><ele>35.0</ele><time>2026-04-05T15:43:46.999Z</time></trkpt><trkpt lat="34.45754760130679" lon="10.068724286561627"><ele>35.0</ele><time>2026-04-05T15:43:47.999Z</time></trkpt><trkpt lat="34.45723161691501" lon="10.06864874809076"><ele>35.0</ele><time>2026-04-05T15:43:48.999Z</time></trkpt><trkpt lat="34.45691556757119" lon="10.06857167533909"><ele>35.0</ele><time>2026-04-05T15:43:49.999Z</time></trkpt><trkpt lat="34.45659910232832" lon="10.068491729210622"><ele>35.0</ele><time>2026-04-05T15:43:50.999Z</time></trkpt><trkpt lat="34.45628432600205" lon="10.068414306810666"><ele>35.0</ele><time>2026-04-05T15:43:51.999Z</time></trkpt><trkpt lat="34.45596676958284" lon="10.068337891290355"><ele>35.0</ele><time>2026-04-05T15:43:52.999Z</time></trkpt><trkpt lat="34.455652237305415" lon="10.068257811180814"><ele>35.0</ele><time>2026-04-05T15:43:53.999Z</time></trkpt><trkpt lat="34.45533680165416" lon="10.068174651308013"><ele>35.0</ele><time>2026-04-05T15:43:54.999Z</time></trkpt><trkpt lat="34.45502307655374" lon="10.068088453199229"><ele>35.0</ele><time>2026-04-05T15:43:55.999Z</time></trkpt><trkpt lat="34.454708532629134" lon="10.068000484197245"><ele>35.0</ele><time>2026-04-05T15:43:56.999Z</time></trkpt><trkpt lat="34.4543966533555" lon="10.06791089968474"><ele>35.0</ele><time>2026-04-05T15:43:57.999Z</time></trkpt><trkpt lat="34.454082348687166" lon="10.067819711276325"><ele>35.0</ele><time>2026-04-05T15:43:58.999Z</time></trkpt><trkpt lat="34.45377125035556" lon="10.067724154381892"><ele>34.5</ele><time>2026-04-05T15:43:59.999Z</time></trkpt><trkpt lat="34.45346202638529" lon="10.067621269498613"><ele>34.0</ele><time>2026-04-05T15:44:00.999Z</time></trkpt><trkpt lat="34.45315215590142" lon="10.067515011193915"><ele>34.0</ele><time>2026-04-05T15:44:01.999Z</time></trkpt><trkpt lat="34.45284397202192" lon="10.067410973225595"><ele>34.0</ele><time>2026-04-05T15:44:02.999Z</time></trkpt><trkpt lat="34.45253469224081" lon="10.06730954514678"><ele>34.0</ele><time>2026-04-05T15:44:03.999Z</time></trkpt><trkpt lat="34.452224038379114" lon="10.067209710351838"><ele>34.0</ele><time>2026-04-05T15:44:04.999Z</time></trkpt><trkpt lat="34.451911575252666" lon="10.067109435416633"><ele>34.5</ele><time>2026-04-05T15:44:05.999Z</time></trkpt><trkpt lat="34.451602408320916" lon="10.067007833450361"><ele>35.0</ele><time>2026-04-05T15:44:06.999Z</time></trkpt><trkpt lat="34.45129143365328" lon="10.066906584333408"><ele>35.0</ele><time>2026-04-05T15:44:07.999Z</time></trkpt><trkpt lat="34.450983018310886" lon="10.066801937606062"><ele>35.0</ele><time>2026-04-05T15:44:08.999Z</time></trkpt><trkpt lat="34.45067358593665" lon="10.066698586045865"><ele>34.0</ele><time>2026-04-05T15:44:09.999Z</time></trkpt><trkpt lat="34.450364351705154" lon="10.066595322260715"><ele>33.0</ele><time>2026-04-05T15:44:10.999Z</time></trkpt><trkpt lat="34.45005658125687" lon="10.066494110981395"><ele>33.0</ele><time>2026-04-05T15:44:11.999Z</time></trkpt><trkpt lat="34.44974750945442" lon="10.066391927735951"><ele>33.0</ele><time>2026-04-05T15:44:12.999Z</time></trkpt><trkpt lat="34.44943809716061" lon="10.066291211402"><ele>34.0</ele><time>2026-04-05T15:44:13.999Z</time></trkpt><trkpt lat="34.44912730902131" lon="10.066189055980344"><ele>35.0</ele><time>2026-04-05T15:44:14.999Z</time></trkpt><trkpt lat="34.44881798110254" lon="10.066084641279753"><ele>33.5</ele><time>2026-04-05T15:44:15.999Z</time></trkpt><trkpt lat="34.44850861825325" lon="10.065980544022107"><ele>32.0</ele><time>2026-04-05T15:44:17Z</time></trkpt><trkpt lat="34.44819764055853" lon="10.065880981252795"><ele>31.5</ele><time>2026-04-05T15:44:18Z</time></trkpt><trkpt lat="34.44788645066939" lon="10.065781356376169"><ele>31.0</ele><time>2026-04-05T15:44:19Z</time></trkpt><trkpt lat="34.4475741699521" lon="10.065681414910934"><ele>32.0</ele><time>2026-04-05T15:44:20Z</time></trkpt><trkpt lat="34.4472641936706" lon="10.0655803836833"><ele>33.0</ele><time>2026-04-05T15:44:21Z</time></trkpt><trkpt lat="34.446953397772596" lon="10.065477681561445"><ele>33.5</ele><time>2026-04-05T15:44:22Z</time></trkpt><trkpt lat="34.446644375107674" lon="10.065371853299517"><ele>34.0</ele><time>2026-04-05T15:44:23Z</time></trkpt><trkpt lat="34.44633533457263" lon="10.065267747392735"><ele>34.0</ele><time>2026-04-05T15:44:24Z</time></trkpt><trkpt lat="34.44602387724334" lon="10.065164650200602"><ele>34.0</ele><time>2026-04-05T15:44:25Z</time></trkpt><trkpt lat="34.445713908412806" lon="10.065065026604778"><ele>34.0</ele><time>2026-04-05T15:44:26Z</time></trkpt><trkpt lat="34.44540423247337" lon="10.064964193746958"><ele>34.0</ele><time>2026-04-05T15:44:27Z</time></trkpt><trkpt lat="34.445098113027946" lon="10.064861172131602"><ele>34.0</ele><time>2026-04-05T15:44:28Z</time></trkpt><trkpt lat="34.444791406767116" lon="10.06475658548985"><ele>34.0</ele><time>2026-04-05T15:44:29Z</time></trkpt><trkpt lat="34.444485704728116" lon="10.064653846621978"><ele>34.0</ele><time>2026-04-05T15:44:30Z</time></trkpt><trkpt lat="34.4441805451619" lon="10.064554782112626"><ele>34.0</ele><time>2026-04-05T15:44:31Z</time></trkpt><trkpt lat="34.4438729128786" lon="10.06445645462271"><ele>33.5</ele><time>2026-04-05T15:44:32Z</time></trkpt><trkpt lat="34.44356371191415" lon="10.064358611495116"><ele>33.0</ele><time>2026-04-05T15:44:33Z</time></trkpt><trkpt lat="34.443258997056134" lon="10.06425836375233"><ele>33.0</ele><time>2026-04-05T15:44:34Z</time></trkpt><trkpt lat="34.44296990859903" lon="10.064159904736211"><ele>33.0</ele><time>2026-04-05T15:44:35Z</time></trkpt><trkpt lat="34.44269392855752" lon="10.064068770548996"><ele>33.5</ele><time>2026-04-05T15:44:36Z</time></trkpt><trkpt lat="34.44242687330994" lon="10.063979904646027"><ele>34.0</ele><time>2026-04-05T15:44:37Z</time></trkpt><trkpt lat="34.44215176943391" lon="10.06389094612952"><ele>34.0</ele><time>2026-04-05T15:44:38Z</time></trkpt><trkpt lat="34.44186902047312" lon="10.063802671614308"><ele>34.0</ele><time>2026-04-05T15:44:39Z</time></trkpt><trkpt lat="34.44158003915532" lon="10.063716567390555"><ele>34.0</ele><time>2026-04-05T15:44:40Z</time></trkpt><trkpt lat="34.44128671079035" lon="10.063631325459042"><ele>34.0</ele><time>2026-04-05T15:44:41Z</time></trkpt><trkpt lat="34.44098925743551" lon="10.063548944408351"><ele>34.0</ele><time>2026-04-05T15:44:42Z</time></trkpt><trkpt lat="34.44069185971303" lon="10.063469221241498"><ele>34.0</ele><time>2026-04-05T15:44:43Z</time></trkpt><trkpt lat="34.44039291072493" lon="10.063394954070716"><ele>34.0</ele><time>2026-04-05T15:44:44Z</time></trkpt><trkpt lat="34.44009237422939" lon="10.063322901482016"><ele>34.0</ele><time>2026-04-05T15:44:45Z</time></trkpt><trkpt lat="34.43978823314" lon="10.063253331399883"><ele>34.5</ele><time>2026-04-05T15:44:46Z</time></trkpt><trkpt lat="34.439480963704" lon="10.06318535567888"><ele>35.0</ele><time>2026-04-05T15:44:47Z</time></trkpt><trkpt lat="34.43916727083639" lon="10.063116712768926"><ele>35.0</ele><time>2026-04-05T15:44:48Z</time></trkpt><trkpt lat="34.438853067266166" lon="10.063050593764357"><ele>35.0</ele><time>2026-04-05T15:44:49Z</time></trkpt><trkpt lat="34.438534507644775" lon="10.062984608487644"><ele>34.5</ele><time>2026-04-05T15:44:50Z</time></trkpt><trkpt lat="34.438211898084916" lon="10.062922606558777"><ele>34.0</ele><time>2026-04-05T15:44:51Z</time></trkpt><trkpt lat="34.43788657669663" lon="10.062864139887012"><ele>34.0</ele><time>2026-04-05T15:44:52Z</time></trkpt><trkpt lat="34.43755473944983" lon="10.062810520723726"><ele>34.0</ele><time>2026-04-05T15:44:53Z</time></trkpt><trkpt lat="34.4372207905613" lon="10.062759908944727"><ele>34.0</ele><time>2026-04-05T15:44:54Z</time></trkpt><trkpt lat="34.43688456156182" lon="10.062713624313805"><ele>34.0</ele><time>2026-04-05T15:44:55Z</time></trkpt><trkpt lat="34.43654344081114" lon="10.062669621336344"><ele>34.5</ele><time>2026-04-05T15:44:56Z</time></trkpt><trkpt lat="34.4361994814938" lon="10.062627704938839"><ele>35.0</ele><time>2026-04-05T15:44:57Z</time></trkpt><trkpt lat="34.43585449684689" lon="10.062589921648879"><ele>35.0</ele><time>2026-04-05T15:44:58Z</time></trkpt><trkpt lat="34.4355140585784" lon="10.062555950438579"><ele>35.0</ele><time>2026-04-05T15:44:59Z</time></trkpt><trkpt lat="34.43517667269193" lon="10.062526704782972"><ele>35.0</ele><time>2026-04-05T15:45:00Z</time></trkpt><trkpt lat="34.4348435198938" lon="10.062500513375237"><ele>35.0</ele><time>2026-04-05T15:45:01Z</time></trkpt><trkpt lat="34.43451229468266" lon="10.062477850282143"><ele>34.5</ele><time>2026-04-05T15:45:02Z</time></trkpt><trkpt lat="34.4341861076556" lon="10.062458532377528"><ele>34.0</ele><time>2026-04-05T15:45:03Z</time></trkpt><trkpt lat="34.433861570870626" lon="10.062441072775254"><ele>35.0</ele><time>2026-04-05T15:45:04Z</time></trkpt><trkpt lat="34.433536348287404" lon="10.062427341356397"><ele>36.0</ele><time>2026-04-05T15:45:05Z</time></trkpt><trkpt lat="34.43321434306836" lon="10.06241427177948"><ele>37.0</ele><time>2026-04-05T15:45:06Z</time></trkpt><trkpt lat="34.43290708820531" lon="10.06240800188104"><ele>38.0</ele><time>2026-04-05T15:45:07Z</time></trkpt><trkpt lat="34.43260129586525" lon="10.062406181125882"><ele>38.0</ele><time>2026-04-05T15:45:08Z</time></trkpt><trkpt lat="34.432300142813865" lon="10.06240516386363"><ele>38.0</ele><time>2026-04-05T15:45:09Z</time></trkpt><trkpt lat="34.43200081453223" lon="10.062408524667209"><ele>38.5</ele><time>2026-04-05T15:45:10Z</time></trkpt><trkpt lat="34.43170063854529" lon="10.062414064607347"><ele>39.0</ele><time>2026-04-05T15:45:11Z</time></trkpt><trkpt lat="34.431399843465414" lon="10.062421031178644"><ele>37.5</ele><time>2026-04-05T15:45:12Z</time></trkpt><trkpt lat="34.431100520657004" lon="10.06243151372819"><ele>36.0</ele><time>2026-04-05T15:45:13Z</time></trkpt><trkpt lat="34.43080162465384" lon="10.062446859773088"><ele>36.0</ele><time>2026-04-05T15:45:14Z</time></trkpt><trkpt lat="34.43050262224002" lon="10.062461699606448"><ele>36.0</ele><time>2026-04-05T15:45:15Z</time></trkpt><trkpt lat="34.4302030049359" lon="10.06247935263767"><ele>37.0</ele><time>2026-04-05T15:45:16Z</time></trkpt><trkpt lat="34.42989928038094" lon="10.062502347291689"><ele>38.0</ele><time>2026-04-05T15:45:17Z</time></trkpt><trkpt lat="34.429592865318476" lon="10.062527824988349"><ele>38.0</ele><time>2026-04-05T15:45:18Z</time></trkpt><trkpt lat="34.42928608663992" lon="10.062551430822538"><ele>38.0</ele><time>2026-04-05T15:45:19Z</time></trkpt><trkpt lat="34.42897700164752" lon="10.062572166933734"><ele>38.0</ele><time>2026-04-05T15:45:20Z</time></trkpt><trkpt lat="34.428665857176235" lon="10.062596613964603"><ele>38.0</ele><time>2026-04-05T15:45:21Z</time></trkpt><trkpt lat="34.428352026328774" lon="10.062617869294707"><ele>38.0</ele><time>2026-04-05T15:45:22Z</time></trkpt><trkpt lat="34.428039431233564" lon="10.06263323875888"><ele>38.0</ele><time>2026-04-05T15:45:23Z</time></trkpt><trkpt lat="34.42772343924617" lon="10.062651533223658"><ele>37.5</ele><time>2026-04-05T15:45:24Z</time></trkpt><trkpt lat="34.427404555531254" lon="10.062671408636678"><ele>37.0</ele><time>2026-04-05T15:45:25Z</time></trkpt><trkpt lat="34.427075907715306" lon="10.06269233334082"><ele>37.0</ele><time>2026-04-05T15:45:26Z</time></trkpt><trkpt lat="34.4267455598127" lon="10.062713468834373"><ele>37.0</ele><time>2026-04-05T15:45:27Z</time></trkpt><trkpt lat="34.42641761439316" lon="10.062732333554598"><ele>38.5</ele><time>2026-04-05T15:45:28Z</time></trkpt><trkpt lat="34.42609442313855" lon="10.06275113582489"><ele>40.0</ele><time>2026-04-05T15:45:29Z</time></trkpt><trkpt lat="34.42577495547374" lon="10.062772611729521"><ele>39.5</ele><time>2026-04-05T15:45:30Z</time></trkpt><trkpt lat="34.42546126767611" lon="10.062794531324265"><ele>39.0</ele><time>2026-04-05T15:45:31Z</time></trkpt><trkpt lat="34.425145847608675" lon="10.062815523807807"><ele>39.0</ele><time>2026-04-05T15:45:32Z</time></trkpt><trkpt lat="34.424835905289235" lon="10.062838043019237"><ele>39.0</ele><time>2026-04-05T15:45:33Z</time></trkpt><trkpt lat="34.42452592102386" lon="10.06286098550009"><ele>40.0</ele><time>2026-04-05T15:45:34Z</time></trkpt><trkpt lat="34.42421807098389" lon="10.062883893278048"><ele>41.0</ele><time>2026-04-05T15:45:35Z</time></trkpt><trkpt lat="34.42391208798545" lon="10.06290276060004"><ele>41.5</ele><time>2026-04-05T15:45:36Z</time></trkpt><trkpt lat="34.42360684227137" lon="10.062924250499755"><ele>42.0</ele><time>2026-04-05T15:45:37Z</time></trkpt><trkpt lat="34.42330529123019" lon="10.062942354825154"><ele>42.0</ele><time>2026-04-05T15:45:38Z</time></trkpt><trkpt lat="34.42299888885954" lon="10.062963722341769"><ele>42.0</ele><time>2026-04-05T15:45:39Z</time></trkpt><trkpt lat="34.42269590746664" lon="10.062984679663133"><ele>42.0</ele><time>2026-04-05T15:45:39.999Z</time></trkpt><trkpt lat="34.42239042331889" lon="10.063005588906728"><ele>42.0</ele><time>2026-04-05T15:45:40.999Z</time></trkpt><trkpt lat="34.42208568018833" lon="10.063023526746257"><ele>41.5</ele><time>2026-04-05T15:45:41.999Z</time></trkpt><trkpt lat="34.421776081573064" lon="10.063040439312914"><ele>41.0</ele><time>2026-04-05T15:45:42.999Z</time></trkpt><trkpt lat="34.42146426297717" lon="10.063060304640821"><ele>41.5</ele><time>2026-04-05T15:45:43.999Z</time></trkpt><trkpt lat="34.421149589398844" lon="10.06307927759212"><ele>42.0</ele><time>2026-04-05T15:45:44.999Z</time></trkpt><trkpt lat="34.42083233269663" lon="10.063099051280311"><ele>42.0</ele><time>2026-04-05T15:45:45.999Z</time></trkpt><trkpt lat="34.42051450772258" lon="10.06311857716084"><ele>42.0</ele><time>2026-04-05T15:45:46.999Z</time></trkpt><trkpt lat="34.42019236544596" lon="10.063141691649985"><ele>42.0</ele><time>2026-04-05T15:45:47.999Z</time></trkpt><trkpt lat="34.419866833182084" lon="10.063163701152872"><ele>42.0</ele><time>2026-04-05T15:45:48.999Z</time></trkpt><trkpt lat="34.419539431101946" lon="10.063185270239721"><ele>42.0</ele><time>2026-04-05T15:45:49.999Z</time></trkpt><trkpt lat="34.41921211753779" lon="10.063205941862122"><ele>42.0</ele><time>2026-04-05T15:45:50.999Z</time></trkpt><trkpt lat="34.41888259504146" lon="10.063225894702335"><ele>43.0</ele><time>2026-04-05T15:45:51.999Z</time></trkpt><trkpt lat="34.418553561513015" lon="10.063248557758834"><ele>44.0</ele><time>2026-04-05T15:45:52.999Z</time></trkpt><trkpt lat="34.41822028636555" lon="10.063272960563319"><ele>43.5</ele><time>2026-04-05T15:45:53.999Z</time></trkpt><trkpt lat="34.417888001325096" lon="10.063295110690925"><ele>43.0</ele><time>2026-04-05T15:45:54.999Z</time></trkpt><trkpt lat="34.417555806403584" lon="10.063317071884548"><ele>43.0</ele><time>2026-04-05T15:45:55.999Z</time></trkpt><trkpt lat="34.41721797975398" lon="10.063340567040392"><ele>43.0</ele><time>2026-04-05T15:45:56.999Z</time></trkpt><trkpt lat="34.41688209374253" lon="10.063363198453574"><ele>43.5</ele><time>2026-04-05T15:45:57.999Z</time></trkpt><trkpt lat="34.41654234998377" lon="10.063380019029138"><ele>44.0</ele><time>2026-04-05T15:45:58.999Z</time></trkpt><trkpt lat="34.416206141976275" lon="10.063398573424756"><ele>44.0</ele><time>2026-04-05T15:45:59.999Z</time></trkpt><trkpt lat="34.41586709893035" lon="10.063420975006624"><ele>44.0</ele><time>2026-04-05T15:46:00.999Z</time></trkpt><trkpt lat="34.41552860089388" lon="10.063443796659532"><ele>44.0</ele><time>2026-04-05T15:46:01.999Z</time></trkpt><trkpt lat="34.41518616971967" lon="10.063470738477667"><ele>44.0</ele><time>2026-04-05T15:46:02.999Z</time></trkpt><trkpt lat="34.41484033141747" lon="10.063493981646376"><ele>44.0</ele><time>2026-04-05T15:46:03.999Z</time></trkpt><trkpt lat="34.41449249968567" lon="10.063516322700277"><ele>44.0</ele><time>2026-04-05T15:46:04.999Z</time></trkpt><trkpt lat="34.41413870387641" lon="10.06354023567463"><ele>44.0</ele><time>2026-04-05T15:46:05.999Z</time></trkpt><trkpt lat="34.41377553780456" lon="10.063564316721376"><ele>44.0</ele><time>2026-04-05T15:46:06.999Z</time></trkpt><trkpt lat="34.41341531659202" lon="10.063590247668143"><ele>44.0</ele><time>2026-04-05T15:46:07.999Z</time></trkpt><trkpt lat="34.41304116456017" lon="10.063611744021458"><ele>44.0</ele><time>2026-04-05T15:46:08.999Z</time></trkpt><trkpt lat="34.412676609542785" lon="10.063642002721837"><ele>44.0</ele><time>2026-04-05T15:46:09.999Z</time></trkpt><trkpt lat="34.412316362670964" lon="10.06367526278772"><ele>44.0</ele><time>2026-04-05T15:46:10.999Z</time></trkpt><trkpt lat="34.411974130421555" lon="10.063706305818245"><ele>44.0</ele><time>2026-04-05T15:46:11.999Z</time></trkpt><trkpt lat="34.41165484662058" lon="10.063739824320944"><ele>44.0</ele><time>2026-04-05T15:46:12.999Z</time></trkpt><trkpt lat="34.41134130383079" lon="10.063772870836134"><ele>45.0</ele><time>2026-04-05T15:46:13.999Z</time></trkpt><trkpt lat="34.41102870700079" lon="10.063796885700189"><ele>46.0</ele><time>2026-04-05T15:46:14.999Z</time></trkpt><trkpt lat="34.410716154312" lon="10.063811950062291"><ele>45.5</ele><time>2026-04-05T15:46:15.999Z</time></trkpt><trkpt lat="34.410397964183055" lon="10.063823550730087"><ele>45.0</ele><time>2026-04-05T15:46:16.999Z</time></trkpt><trkpt lat="34.41007321524102" lon="10.063834872438154"><ele>45.0</ele><time>2026-04-05T15:46:17.999Z</time></trkpt><trkpt lat="34.40974304373958" lon="10.063846305658751"><ele>45.0</ele><time>2026-04-05T15:46:18.999Z</time></trkpt><trkpt lat="34.40941498541128" lon="10.063864790780906"><ele>45.0</ele><time>2026-04-05T15:46:19.999Z</time></trkpt><trkpt lat="34.40908621628303" lon="10.063886520094984"><ele>45.0</ele><time>2026-04-05T15:46:20.999Z</time></trkpt><trkpt lat="34.40875891872746" lon="10.063909342384338"><ele>45.0</ele><time>2026-04-05T15:46:21.999Z</time></trkpt><trkpt lat="34.408435494344225" lon="10.06392962715212"><ele>45.0</ele><time>2026-04-05T15:46:23Z</time></trkpt><trkpt lat="34.408112823966746" lon="10.063946996959707"><ele>44.5</ele><time>2026-04-05T15:46:24Z</time></trkpt><trkpt lat="34.40779345061886" lon="10.063964018362066"><ele>44.0</ele><time>2026-04-05T15:46:25Z</time></trkpt><trkpt lat="34.407475007093936" lon="10.06398441165168"><ele>45.0</ele><time>2026-04-05T15:46:26Z</time></trkpt><trkpt lat="34.4071602743725" lon="10.064003417301057"><ele>46.0</ele><time>2026-04-05T15:46:27Z</time></trkpt><trkpt lat="34.40684659031376" lon="10.064020022142177"><ele>46.0</ele><time>2026-04-05T15:46:28Z</time></trkpt><trkpt lat="34.406542249414954" lon="10.064038992716396"><ele>46.0</ele><time>2026-04-05T15:46:29Z</time></trkpt><trkpt lat="34.406246066205185" lon="10.064054104470916"><ele>46.0</ele><time>2026-04-05T15:46:30Z</time></trkpt><trkpt lat="34.40596298248163" lon="10.06406714332281"><ele>46.0</ele><time>2026-04-05T15:46:31Z</time></trkpt><trkpt lat="34.40568560329905" lon="10.064088239876236"><ele>46.0</ele><time>2026-04-05T15:46:32Z</time></trkpt><trkpt lat="34.40540560889833" lon="10.064097896964256"><ele>46.0</ele><time>2026-04-05T15:46:33Z</time></trkpt><trkpt lat="34.405124515360875" lon="10.064100843287102"><ele>46.0</ele><time>2026-04-05T15:46:34Z</time></trkpt><trkpt lat="34.40484436500355" lon="10.06409709991358"><ele>46.0</ele><time>2026-04-05T15:46:35Z</time></trkpt><trkpt lat="34.40456529456202" lon="10.064091095815293"><ele>47.0</ele><time>2026-04-05T15:46:36Z</time></trkpt><trkpt lat="34.404286429221585" lon="10.064077244425134"><ele>48.0</ele><time>2026-04-05T15:46:37Z</time></trkpt><trkpt lat="34.404005034044715" lon="10.064055633781237"><ele>48.0</ele><time>2026-04-05T15:46:38Z</time></trkpt><trkpt lat="34.40372220797943" lon="10.064032554547392"><ele>48.0</ele><time>2026-04-05T15:46:39Z</time></trkpt><trkpt lat="34.40344303464706" lon="10.0640047776112"><ele>48.0</ele><time>2026-04-05T15:46:40Z</time></trkpt><trkpt lat="34.403158929030766" lon="10.063970128456967"><ele>48.0</ele><time>2026-04-05T15:46:41Z</time></trkpt><trkpt lat="34.402877084974506" lon="10.063924164224398"><ele>48.0</ele><time>2026-04-05T15:46:42Z</time></trkpt><trkpt lat="34.40259631270822" lon="10.063876675257744"><ele>48.0</ele><time>2026-04-05T15:46:43Z</time></trkpt><trkpt lat="34.402314496942886" lon="10.063822380531843"><ele>48.0</ele><time>2026-04-05T15:46:44Z</time></trkpt><trkpt lat="34.402030009620624" lon="10.06375878169438"><ele>48.0</ele><time>2026-04-05T15:46:45Z</time></trkpt><trkpt lat="34.4017474589204" lon="10.063691541678665"><ele>48.0</ele><time>2026-04-05T15:46:46Z</time></trkpt><trkpt lat="34.4014612645889" lon="10.063615522224511"><ele>48.0</ele><time>2026-04-05T15:46:47Z</time></trkpt><trkpt lat="34.40117764026436" lon="10.063533996693556"><ele>49.0</ele><time>2026-04-05T15:46:48Z</time></trkpt><trkpt lat="34.40088679812523" lon="10.06344381514262"><ele>50.0</ele><time>2026-04-05T15:46:49Z</time></trkpt><trkpt lat="34.400593565809736" lon="10.063346979924928"><ele>51.0</ele><time>2026-04-05T15:46:50Z</time></trkpt><trkpt lat="34.40029989460929" lon="10.063239068320554"><ele>52.0</ele><time>2026-04-05T15:46:51Z</time></trkpt><trkpt lat="34.40000647839686" lon="10.063125504052982"><ele>52.0</ele><time>2026-04-05T15:46:52Z</time></trkpt><trkpt lat="34.39971229637538" lon="10.063004696355133"><ele>52.0</ele><time>2026-04-05T15:46:53Z</time></trkpt><trkpt lat="34.39942261222211" lon="10.062877288124387"><ele>52.5</ele><time>2026-04-05T15:46:54Z</time></trkpt><trkpt lat="34.399135830460246" lon="10.06274584588411"><ele>53.0</ele><time>2026-04-05T15:46:55Z</time></trkpt><trkpt lat="34.39885097803026" lon="10.062607350479894"><ele>53.0</ele><time>2026-04-05T15:46:56Z</time></trkpt><trkpt lat="34.39856929875903" lon="10.062464918583748"><ele>53.0</ele><time>2026-04-05T15:46:57Z</time></trkpt><trkpt lat="34.398289305980065" lon="10.062315918648746"><ele>54.0</ele><time>2026-04-05T15:46:58Z</time></trkpt><trkpt lat="34.39801227920141" lon="10.062157389278081"><ele>55.0</ele><time>2026-04-05T15:46:59Z</time></trkpt><trkpt lat="34.39774163014466" lon="10.061993028975042"><ele>55.5</ele><time>2026-04-05T15:47:00Z</time></trkpt><trkpt lat="34.397472133291906" lon="10.061825333201398"><ele>56.0</ele><time>2026-04-05T15:47:01Z</time></trkpt><trkpt lat="34.397204529923386" lon="10.061649675651806"><ele>56.0</ele><time>2026-04-05T15:47:02Z</time></trkpt><trkpt lat="34.3969385928709" lon="10.061467013643602"><ele>56.0</ele><time>2026-04-05T15:47:03Z</time></trkpt><trkpt lat="34.39667248800411" lon="10.061278675403313"><ele>56.0</ele><time>2026-04-05T15:47:04Z</time></trkpt><trkpt lat="34.396412708150294" lon="10.061083056809426"><ele>56.0</ele><time>2026-04-05T15:47:05Z</time></trkpt><trkpt lat="34.39615498575536" lon="10.060881672918581"><ele>56.5</ele><time>2026-04-05T15:47:06Z</time></trkpt><trkpt lat="34.395898748158174" lon="10.060675782203212"><ele>57.0</ele><time>2026-04-05T15:47:07Z</time></trkpt><trkpt lat="34.395643178565365" lon="10.060464887177622"><ele>57.5</ele><time>2026-04-05T15:47:08Z</time></trkpt><trkpt lat="34.39538945356838" lon="10.060242454573979"><ele>58.0</ele><time>2026-04-05T15:47:09Z</time></trkpt><trkpt lat="34.39514215621589" lon="10.060013098037922"><ele>57.5</ele><time>2026-04-05T15:47:10Z</time></trkpt><trkpt lat="34.394897945492325" lon="10.05977313760632"><ele>57.0</ele><time>2026-04-05T15:47:11Z</time></trkpt><trkpt lat="34.39465550334878" lon="10.05952826221048"><ele>57.0</ele><time>2026-04-05T15:47:12Z</time></trkpt><trkpt lat="34.39441348928024" lon="10.05927659803974"><ele>57.0</ele><time>2026-04-05T15:47:13Z</time></trkpt><trkpt lat="34.39417420543064" lon="10.059017602039571"><ele>57.0</ele><time>2026-04-05T15:47:14Z</time></trkpt><trkpt lat="34.39393833814605" lon="10.058752754030133"><ele>57.0</ele><time>2026-04-05T15:47:15Z</time></trkpt><trkpt lat="34.39370482573273" lon="10.058482419517725"><ele>57.5</ele><time>2026-04-05T15:47:16Z</time></trkpt><trkpt lat="34.39347551057494" lon="10.058204592484833"><ele>58.0</ele><time>2026-04-05T15:47:17Z</time></trkpt><trkpt lat="34.3932509737482" lon="10.057920959893169"><ele>58.0</ele><time>2026-04-05T15:47:18Z</time></trkpt><trkpt lat="34.39302958629697" lon="10.057630913020153"><ele>58.0</ele><time>2026-04-05T15:47:19Z</time></trkpt><trkpt lat="34.39281353864647" lon="10.057335549756818"><ele>58.0</ele><time>2026-04-05T15:47:20Z</time></trkpt><trkpt lat="34.392604447375014" lon="10.057034962092942"><ele>58.0</ele><time>2026-04-05T15:47:21Z</time></trkpt><trkpt lat="34.39239873865289" lon="10.056727979008011"><ele>58.0</ele><time>2026-04-05T15:47:22Z</time></trkpt><trkpt lat="34.392197882830985" lon="10.056414695681676"><ele>58.0</ele><time>2026-04-05T15:47:23Z</time></trkpt><trkpt lat="34.39200338143969" lon="10.05610011273542"><ele>57.5</ele><time>2026-04-05T15:47:24Z</time></trkpt><trkpt lat="34.391812523872204" lon="10.05578046089813"><ele>57.0</ele><time>2026-04-05T15:47:25Z</time></trkpt><trkpt lat="34.39162766107758" lon="10.055457746981668"><ele>57.0</ele><time>2026-04-05T15:47:26Z</time></trkpt><trkpt lat="34.391450059089074" lon="10.055133842184492"><ele>57.0</ele><time>2026-04-05T15:47:27Z</time></trkpt><trkpt lat="34.3912769087297" lon="10.054803724893567"><ele>58.0</ele><time>2026-04-05T15:47:28Z</time></trkpt><trkpt lat="34.391110554092634" lon="10.054469271113357"><ele>59.0</ele><time>2026-04-05T15:47:29Z</time></trkpt><trkpt lat="34.39094579777489" lon="10.054143296333214"><ele>59.0</ele><time>2026-04-05T15:47:30Z</time></trkpt><trkpt lat="34.3907866285628" lon="10.053794434650822"><ele>59.0</ele><time>2026-04-05T15:47:31Z</time></trkpt><trkpt lat="34.39063692554778" lon="10.053446126132695"><ele>60.0</ele><time>2026-04-05T15:47:32Z</time></trkpt><trkpt lat="34.39049291712678" lon="10.053101595672464"><ele>61.0</ele><time>2026-04-05T15:47:33Z</time></trkpt><trkpt lat="34.39034918868543" lon="10.052756711879894"><ele>60.0</ele><time>2026-04-05T15:47:34Z</time></trkpt><trkpt lat="34.39020594805871" lon="10.05241165014498"><ele>59.0</ele><time>2026-04-05T15:47:35Z</time></trkpt><trkpt lat="34.39005754569891" lon="10.052062567056756"><ele>59.0</ele><time>2026-04-05T15:47:36Z</time></trkpt><trkpt lat="34.38990752433976" lon="10.051713066510832"><ele>59.0</ele><time>2026-04-05T15:47:37Z</time></trkpt><trkpt lat="34.38975389940457" lon="10.051362373508953"><ele>60.0</ele><time>2026-04-05T15:47:38Z</time></trkpt><trkpt lat="34.389598118581915" lon="10.051015596710178"><ele>61.0</ele><time>2026-04-05T15:47:39Z</time></trkpt><trkpt lat="34.389436457901134" lon="10.05067061969261"><ele>61.0</ele><time>2026-04-05T15:47:40Z</time></trkpt><trkpt lat="34.389269951700165" lon="10.05033016174104"><ele>61.0</ele><time>2026-04-05T15:47:41Z</time></trkpt><trkpt lat="34.389095856314476" lon="10.049991111503747"><ele>60.5</ele><time>2026-04-05T15:47:42Z</time></trkpt><trkpt lat="34.38891593901596" lon="10.049658392213331"><ele>60.0</ele><time>2026-04-05T15:47:43Z</time></trkpt><trkpt lat="34.38872875142681" lon="10.049333759382655"><ele>59.5</ele><time>2026-04-05T15:47:44Z</time></trkpt><trkpt lat="34.38853542120184" lon="10.049015597888289"><ele>59.0</ele><time>2026-04-05T15:47:45Z</time></trkpt><trkpt lat="34.388338823011836" lon="10.048702559637393"><ele>59.0</ele><time>2026-04-05T15:47:46Z</time></trkpt><trkpt lat="34.388140655372446" lon="10.048389119286197"><ele>59.0</ele><time>2026-04-05T15:47:47Z</time></trkpt><trkpt lat="34.387941505158466" lon="10.048083280748775"><ele>59.5</ele><time>2026-04-05T15:47:48Z</time></trkpt><trkpt lat="34.387739632283804" lon="10.047786751969646"><ele>60.0</ele><time>2026-04-05T15:47:49Z</time></trkpt><trkpt lat="34.38753148256838" lon="10.047503886536783"><ele>60.0</ele><time>2026-04-05T15:47:50Z</time></trkpt><trkpt lat="34.38731908284599" lon="10.04722845385868"><ele>60.0</ele><time>2026-04-05T15:47:51Z</time></trkpt><trkpt lat="34.38710550018377" lon="10.046958920044744"><ele>60.0</ele><time>2026-04-05T15:47:52Z</time></trkpt><trkpt lat="34.38688927258734" lon="10.04669493825066"><ele>60.0</ele><time>2026-04-05T15:47:53Z</time></trkpt><trkpt lat="34.38667606355042" lon="10.046439557221424"><ele>60.0</ele><time>2026-04-05T15:47:54Z</time></trkpt><trkpt lat="34.386460699649426" lon="10.046192341141328"><ele>60.0</ele><time>2026-04-05T15:47:55Z</time></trkpt><trkpt lat="34.38623549349493" lon="10.045950418999675"><ele>59.0</ele><time>2026-04-05T15:47:56Z</time></trkpt><trkpt lat="34.38600928460272" lon="10.045714204504103"><ele>58.0</ele><time>2026-04-05T15:47:57Z</time></trkpt><trkpt lat="34.38578285295174" lon="10.045481409430018"><ele>58.0</ele><time>2026-04-05T15:47:58Z</time></trkpt><trkpt lat="34.38555186621933" lon="10.0452516207132"><ele>58.0</ele><time>2026-04-05T15:47:59Z</time></trkpt><trkpt lat="34.3853213874159" lon="10.045031616157315"><ele>59.5</ele><time>2026-04-05T15:48:00Z</time></trkpt><trkpt lat="34.38509938935608" lon="10.044828117574305"><ele>61.0</ele><time>2026-04-05T15:48:01Z</time></trkpt><trkpt lat="34.384888366187376" lon="10.044640583159948"><ele>61.0</ele><time>2026-04-05T15:48:02Z</time></trkpt><trkpt lat="34.38468607221492" lon="10.044461715747818"><ele>61.0</ele><time>2026-04-05T15:48:03Z</time></trkpt><trkpt lat="34.384484499053215" lon="10.044281316499637"><ele>60.5</ele><time>2026-04-05T15:48:04Z</time></trkpt><trkpt lat="34.38427026831387" lon="10.04409789559011"><ele>60.0</ele><time>2026-04-05T15:48:05Z</time></trkpt><trkpt lat="34.38404327754017" lon="10.043906383166451"><ele>60.0</ele><time>2026-04-05T15:48:06Z</time></trkpt><trkpt lat="34.38381005804546" lon="10.043713073645268"><ele>60.0</ele><time>2026-04-05T15:48:07Z</time></trkpt><trkpt lat="34.38357537696918" lon="10.043516981991967"><ele>60.0</ele><time>2026-04-05T15:48:08Z</time></trkpt><trkpt lat="34.383339933233316" lon="10.043321195882264"><ele>60.0</ele><time>2026-04-05T15:48:09Z</time></trkpt><trkpt lat="34.38310074842111" lon="10.043120297720685"><ele>59.5</ele><time>2026-04-05T15:48:10Z</time></trkpt><trkpt lat="34.38286588384176" lon="10.042916189641266"><ele>59.0</ele><time>2026-04-05T15:48:11Z</time></trkpt><trkpt lat="34.3826270789539" lon="10.042714591880072"><ele>59.0</ele><time>2026-04-05T15:48:12Z</time></trkpt><trkpt lat="34.38238682373608" lon="10.042513330639972"><ele>59.0</ele><time>2026-04-05T15:48:13Z</time></trkpt><trkpt lat="34.382147424991864" lon="10.04231233434047"><ele>59.0</ele><time>2026-04-05T15:48:14Z</time></trkpt><trkpt lat="34.3819072513951" lon="10.042111480107069"><ele>59.0</ele><time>2026-04-05T15:48:14.999Z</time></trkpt><trkpt lat="34.38166952048248" lon="10.04191035050251"><ele>59.0</ele><time>2026-04-05T15:48:15.999Z</time></trkpt><trkpt lat="34.38143314390251" lon="10.041709087144588"><ele>59.0</ele><time>2026-04-05T15:48:16.999Z</time></trkpt><trkpt lat="34.38119671622651" lon="10.04150675503026"><ele>59.0</ele><time>2026-04-05T15:48:17.999Z</time></trkpt><trkpt lat="34.380963172170595" lon="10.04130539325209"><ele>59.0</ele><time>2026-04-05T15:48:18.999Z</time></trkpt><trkpt lat="34.38072589132483" lon="10.041106339701127"><ele>59.0</ele><time>2026-04-05T15:48:19.999Z</time></trkpt><trkpt lat="34.38048864065563" lon="10.040910396232388"><ele>59.0</ele><time>2026-04-05T15:48:20.999Z</time></trkpt><trkpt lat="34.38025551671226" lon="10.040717967585636"><ele>59.0</ele><time>2026-04-05T15:48:21.999Z</time></trkpt><trkpt lat="34.38002355834812" lon="10.040523948960796"><ele>59.0</ele><time>2026-04-05T15:48:22.999Z</time></trkpt><trkpt lat="34.37979382616206" lon="10.040329176529305"><ele>59.0</ele><time>2026-04-05T15:48:23.999Z</time></trkpt><trkpt lat="34.37956274007359" lon="10.040135273943307"><ele>59.0</ele><time>2026-04-05T15:48:24.999Z</time></trkpt><trkpt lat="34.37933403813729" lon="10.039941786385953"><ele>59.5</ele><time>2026-04-05T15:48:25.999Z</time></trkpt><trkpt lat="34.379102573690425" lon="10.039751794056365"><ele>60.0</ele><time>2026-04-05T15:48:26.999Z</time></trkpt><trkpt lat="34.37887266074564" lon="10.039564215963999"><ele>60.0</ele><time>2026-04-05T15:48:27.999Z</time></trkpt><trkpt lat="34.378642577403674" lon="10.0393762975457"><ele>60.0</ele><time>2026-04-05T15:48:29Z</time></trkpt><trkpt lat="34.37841244677365" lon="10.039184553307548"><ele>61.0</ele><time>2026-04-05T15:48:30Z</time></trkpt><trkpt lat="34.378178959937166" lon="10.038988953805587"><ele>62.0</ele><time>2026-04-05T15:48:31Z</time></trkpt><trkpt lat="34.37794583027573" lon="10.038793276998865"><ele>62.0</ele><time>2026-04-05T15:48:32Z</time></trkpt><trkpt lat="34.377714933665786" lon="10.038596968816089"><ele>62.0</ele><time>2026-04-05T15:48:33Z</time></trkpt><trkpt lat="34.377483242442025" lon="10.038400537192128"><ele>61.5</ele><time>2026-04-05T15:48:34Z</time></trkpt><trkpt lat="34.37724929325881" lon="10.03820514609752"><ele>61.0</ele><time>2026-04-05T15:48:35Z</time></trkpt><trkpt lat="34.37701481696682" lon="10.038011272338963"><ele>60.5</ele><time>2026-04-05T15:48:36Z</time></trkpt><trkpt lat="34.37677895759877" lon="10.03781459439237"><ele>60.0</ele><time>2026-04-05T15:48:37Z</time></trkpt><trkpt lat="34.3765457011362" lon="10.037618168528684"><ele>60.0</ele><time>2026-04-05T15:48:38Z</time></trkpt><trkpt lat="34.37631200470361" lon="10.037420885732018"><ele>60.0</ele><time>2026-04-05T15:48:39Z</time></trkpt><trkpt lat="34.37607820878002" lon="10.037225373039021"><ele>60.0</ele><time>2026-04-05T15:48:40Z</time></trkpt><trkpt lat="34.37584429999103" lon="10.037031460717547"><ele>60.0</ele><time>2026-04-05T15:48:41Z</time></trkpt><trkpt lat="34.37561048536779" lon="10.03683966621584"><ele>60.0</ele><time>2026-04-05T15:48:42Z</time></trkpt><trkpt lat="34.37537613181386" lon="10.036645978763332"><ele>60.0</ele><time>2026-04-05T15:48:43Z</time></trkpt><trkpt lat="34.375142193413666" lon="10.036451172176466"><ele>60.0</ele><time>2026-04-05T15:48:44Z</time></trkpt><trkpt lat="34.374908615384356" lon="10.036255077420336"><ele>60.0</ele><time>2026-04-05T15:48:45Z</time></trkpt><trkpt lat="34.37467447925552" lon="10.036060183056959"><ele>60.0</ele><time>2026-04-05T15:48:46Z</time></trkpt><trkpt lat="34.37443772285963" lon="10.035868752086492"><ele>60.0</ele><time>2026-04-05T15:48:47Z</time></trkpt><trkpt lat="34.37419969380232" lon="10.035679648423098"><ele>60.0</ele><time>2026-04-05T15:48:48Z</time></trkpt><trkpt lat="34.37396209598103" lon="10.035487393981658"><ele>60.0</ele><time>2026-04-05T15:48:49Z</time></trkpt><trkpt lat="34.373727346885225" lon="10.035291613342206"><ele>60.0</ele><time>2026-04-05T15:48:50Z</time></trkpt><trkpt lat="34.373488490598724" lon="10.035091651256351"><ele>60.0</ele><time>2026-04-05T15:48:51Z</time></trkpt><trkpt lat="34.37324469441462" lon="10.034890267926142"><ele>60.5</ele><time>2026-04-05T15:48:52Z</time></trkpt><trkpt lat="34.37299735158634" lon="10.034690458907644"><ele>61.0</ele><time>2026-04-05T15:48:53Z</time></trkpt><trkpt lat="34.3727468413899" lon="10.034491887709036"><ele>61.0</ele><time>2026-04-05T15:48:54Z</time></trkpt><trkpt lat="34.372493457593315" lon="10.034294222572921"><ele>61.0</ele><time>2026-04-05T15:48:55Z</time></trkpt><trkpt lat="34.37223403929829" lon="10.034095953378952"><ele>61.5</ele><time>2026-04-05T15:48:56Z</time></trkpt><trkpt lat="34.37197361357929" lon="10.03389719160124"><ele>62.0</ele><time>2026-04-05T15:48:57Z</time></trkpt><trkpt lat="34.37170995971995" lon="10.033693909033941"><ele>62.0</ele><time>2026-04-05T15:48:58Z</time></trkpt><trkpt lat="34.37144246196555" lon="10.033489016839587"><ele>62.0</ele><time>2026-04-05T15:48:59Z</time></trkpt><trkpt lat="34.37117255891125" lon="10.033283754219644"><ele>60.5</ele><time>2026-04-05T15:49:00Z</time></trkpt><trkpt lat="34.37090010092927" lon="10.033076451644439"><ele>59.0</ele><time>2026-04-05T15:49:01Z</time></trkpt><trkpt lat="34.370625989404836" lon="10.032866322683786"><ele>59.0</ele><time>2026-04-05T15:49:02Z</time></trkpt><trkpt lat="34.37035148128213" lon="10.032656285523938"><ele>59.0</ele><time>2026-04-05T15:49:03Z</time></trkpt><trkpt lat="34.370077012240266" lon="10.032446765405318"><ele>59.0</ele><time>2026-04-05T15:49:04Z</time></trkpt><trkpt lat="34.369804132647985" lon="10.03223759174686"><ele>59.0</ele><time>2026-04-05T15:49:05Z</time></trkpt><trkpt lat="34.36953100408418" lon="10.032026295127295"><ele>59.5</ele><time>2026-04-05T15:49:06Z</time></trkpt><trkpt lat="34.36925684718788" lon="10.031816923674372"><ele>60.0</ele><time>2026-04-05T15:49:07Z</time></trkpt><trkpt lat="34.36898293261551" lon="10.031606538268166"><ele>59.0</ele><time>2026-04-05T15:49:08Z</time></trkpt><trkpt lat="34.368710544677626" lon="10.03139582404113"><ele>58.0</ele><time>2026-04-05T15:49:09Z</time></trkpt><trkpt lat="34.36843981627551" lon="10.031184732580746"><ele>58.0</ele><time>2026-04-05T15:49:10Z</time></trkpt><trkpt lat="34.36817062485219" lon="10.03097500200304"><ele>58.0</ele><time>2026-04-05T15:49:11Z</time></trkpt><trkpt lat="34.36790191135133" lon="10.030768904998268"><ele>58.0</ele><time>2026-04-05T15:49:12Z</time></trkpt><trkpt lat="34.36763364595581" lon="10.030565897161763"><ele>58.0</ele><time>2026-04-05T15:49:13Z</time></trkpt><trkpt lat="34.367366153714514" lon="10.030364602240923"><ele>57.5</ele><time>2026-04-05T15:49:14Z</time></trkpt><trkpt lat="34.367099105192594" lon="10.030162145317593"><ele>57.0</ele><time>2026-04-05T15:49:15Z</time></trkpt><trkpt lat="34.36683085636837" lon="10.029958849081934"><ele>56.5</ele><time>2026-04-05T15:49:16Z</time></trkpt><trkpt lat="34.366565611973776" lon="10.029754701886581"><ele>56.0</ele><time>2026-04-05T15:49:17Z</time></trkpt><trkpt lat="34.366303232165585" lon="10.029549501445677"><ele>56.0</ele><time>2026-04-05T15:49:18Z</time></trkpt><trkpt lat="34.3660405605908" lon="10.029345634658776"><ele>56.0</ele><time>2026-04-05T15:49:19Z</time></trkpt><trkpt lat="34.365777090993284" lon="10.02914460515563"><ele>56.5</ele><time>2026-04-05T15:49:20Z</time></trkpt><trkpt lat="34.36551046414233" lon="10.028949788402251"><ele>57.0</ele><time>2026-04-05T15:49:21Z</time></trkpt><trkpt lat="34.36524597071797" lon="10.028754871293325"><ele>57.0</ele><time>2026-04-05T15:49:22Z</time></trkpt><trkpt lat="34.364980824963034" lon="10.028557004120458"><ele>57.0</ele><time>2026-04-05T15:49:23Z</time></trkpt><trkpt lat="34.36472200983434" lon="10.028358362717562"><ele>56.5</ele><time>2026-04-05T15:49:24Z</time></trkpt><trkpt lat="34.364462615317066" lon="10.028158380809822"><ele>56.0</ele><time>2026-04-05T15:49:25Z</time></trkpt><trkpt lat="34.364205942094614" lon="10.027961248912852"><ele>56.0</ele><time>2026-04-05T15:49:26Z</time></trkpt><trkpt lat="34.363947821094705" lon="10.02776982842613"><ele>56.0</ele><time>2026-04-05T15:49:27Z</time></trkpt><trkpt lat="34.363685398558445" lon="10.02758080771971"><ele>56.0</ele><time>2026-04-05T15:49:28Z</time></trkpt><trkpt lat="34.363429946069026" lon="10.02738991863491"><ele>56.0</ele><time>2026-04-05T15:49:29Z</time></trkpt><trkpt lat="34.363176262238134" lon="10.027197832809522"><ele>57.5</ele><time>2026-04-05T15:49:30Z</time></trkpt><trkpt lat="34.36292481888965" lon="10.027003533127337"><ele>59.0</ele><time>2026-04-05T15:49:31Z</time></trkpt><trkpt lat="34.362672846770025" lon="10.02681040969394"><ele>59.0</ele><time>2026-04-05T15:49:32Z</time></trkpt><trkpt lat="34.36242250346211" lon="10.02661756319461"><ele>59.0</ele><time>2026-04-05T15:49:33Z</time></trkpt><trkpt lat="34.362172370516234" lon="10.026425828981465"><ele>59.0</ele><time>2026-04-05T15:49:34Z</time></trkpt><trkpt lat="34.36192272729121" lon="10.026233816781279"><ele>59.0</ele><time>2026-04-05T15:49:35Z</time></trkpt><trkpt lat="34.36167327730927" lon="10.026042356519147"><ele>59.0</ele><time>2026-04-05T15:49:36Z</time></trkpt><trkpt lat="34.3614253542829" lon="10.025846952699808"><ele>59.0</ele><time>2026-04-05T15:49:37Z</time></trkpt><trkpt lat="34.36117915686225" lon="10.025651865241125"><ele>58.0</ele><time>2026-04-05T15:49:38Z</time></trkpt><trkpt lat="34.36093418801028" lon="10.02545791744095"><ele>57.0</ele><time>2026-04-05T15:49:39Z</time></trkpt><trkpt lat="34.36068901303949" lon="10.025263801767412"><ele>57.0</ele><time>2026-04-05T15:49:40Z</time></trkpt><trkpt lat="34.36044481808816" lon="10.025071839245067"><ele>57.0</ele><time>2026-04-05T15:49:41Z</time></trkpt><trkpt lat="34.36020250826036" lon="10.024882348477803"><ele>55.5</ele><time>2026-04-05T15:49:42Z</time></trkpt><trkpt lat="34.35996138936005" lon="10.024694471762166"><ele>54.0</ele><time>2026-04-05T15:49:43Z</time></trkpt><trkpt lat="34.35972285613389" lon="10.024509382079426"><ele>54.0</ele><time>2026-04-05T15:49:44Z</time></trkpt><trkpt lat="34.35948205254385" lon="10.024327397460189"><ele>54.0</ele><time>2026-04-05T15:49:45Z</time></trkpt><trkpt lat="34.359240672564376" lon="10.02414590840401"><ele>54.5</ele><time>2026-04-05T15:49:46Z</time></trkpt><trkpt lat="34.35900150893215" lon="10.023962747261868"><ele>55.0</ele><time>2026-04-05T15:49:47Z</time></trkpt><trkpt lat="34.35876339790234" lon="10.02377817410065"><ele>53.5</ele><time>2026-04-05T15:49:48Z</time></trkpt><trkpt lat="34.35852680460438" lon="10.023594843450441"><ele>52.0</ele><time>2026-04-05T15:49:49Z</time></trkpt><trkpt lat="34.35828841516523" lon="10.023413540161421"><ele>52.5</ele><time>2026-04-05T15:49:50Z</time></trkpt><trkpt lat="34.358049417460705" lon="10.023235222986717"><ele>53.0</ele><time>2026-04-05T15:49:51Z</time></trkpt><trkpt lat="34.3578121641471" lon="10.023055168231197"><ele>53.0</ele><time>2026-04-05T15:49:52Z</time></trkpt><trkpt lat="34.35757546098054" lon="10.022874238016072"><ele>53.0</ele><time>2026-04-05T15:49:53Z</time></trkpt><trkpt lat="34.357339048457156" lon="10.0226906110035"><ele>52.5</ele><time>2026-04-05T15:49:54Z</time></trkpt><trkpt lat="34.35710304825784" lon="10.022504455208985"><ele>52.0</ele><time>2026-04-05T15:49:55Z</time></trkpt><trkpt lat="34.356869978409776" lon="10.022320059731245"><ele>53.0</ele><time>2026-04-05T15:49:56Z</time></trkpt><trkpt lat="34.35663437014802" lon="10.022137592827363"><ele>54.0</ele><time>2026-04-05T15:49:57Z</time></trkpt><trkpt lat="34.35639903537347" lon="10.021958907077677"><ele>53.5</ele><time>2026-04-05T15:49:58Z</time></trkpt><trkpt lat="34.35616333455834" lon="10.021782820974456"><ele>53.0</ele><time>2026-04-05T15:49:59Z</time></trkpt><trkpt lat="34.35592783505286" lon="10.021606239716867"><ele>53.0</ele><time>2026-04-05T15:50:00Z</time></trkpt><trkpt lat="34.35569406095012" lon="10.021428167742577"><ele>53.0</ele><time>2026-04-05T15:50:01Z</time></trkpt><trkpt lat="34.3554557740829" lon="10.021243522244417"><ele>52.0</ele><time>2026-04-05T15:50:02Z</time></trkpt><trkpt lat="34.35520843950924" lon="10.021048981221705"><ele>51.0</ele><time>2026-04-05T15:50:03Z</time></trkpt><trkpt lat="34.35494387397819" lon="10.020846203816262"><ele>51.5</ele><time>2026-04-05T15:50:04Z</time></trkpt><trkpt lat="34.35466859381095" lon="10.020637956959506"><ele>52.0</ele><time>2026-04-05T15:50:05Z</time></trkpt><trkpt lat="34.354385934204956" lon="10.020425684525213"><ele>52.0</ele><time>2026-04-05T15:50:06Z</time></trkpt><trkpt lat="34.35409729142305" lon="10.020204249849039"><ele>52.0</ele><time>2026-04-05T15:50:07Z</time></trkpt><trkpt lat="34.353803185720544" lon="10.01997774128593"><ele>52.0</ele><time>2026-04-05T15:50:08Z</time></trkpt><trkpt lat="34.353504560287234" lon="10.01974525719065"><ele>52.0</ele><time>2026-04-05T15:50:09Z</time></trkpt><trkpt lat="34.35320758388064" lon="10.019514811830527"><ele>52.0</ele><time>2026-04-05T15:50:10Z</time></trkpt><trkpt lat="34.35290737306914" lon="10.01928690434326"><ele>52.0</ele><time>2026-04-05T15:50:11Z</time></trkpt><trkpt lat="34.3526069414034" lon="10.019056786534884"><ele>51.5</ele><time>2026-04-05T15:50:12Z</time></trkpt><trkpt lat="34.3523060332919" lon="10.018822294629611"><ele>51.0</ele><time>2026-04-05T15:50:13Z</time></trkpt><trkpt lat="34.35200390542288" lon="10.018586887088254"><ele>51.0</ele><time>2026-04-05T15:50:13.999Z</time></trkpt><trkpt lat="34.35170416603136" lon="10.018354780454407"><ele>51.0</ele><time>2026-04-05T15:50:14.999Z</time></trkpt><trkpt lat="34.35140056712543" lon="10.018120338170366"><ele>50.5</ele><time>2026-04-05T15:50:15.999Z</time></trkpt><trkpt lat="34.35109919066734" lon="10.01788926317313"><ele>50.0</ele><time>2026-04-05T15:50:16.999Z</time></trkpt><trkpt lat="34.350793530168765" lon="10.017654633840483"><ele>49.0</ele><time>2026-04-05T15:50:17.999Z</time></trkpt><trkpt lat="34.35049191230855" lon="10.017423557231629"><ele>48.0</ele><time>2026-04-05T15:50:18.999Z</time></trkpt><trkpt lat="34.35018581323646" lon="10.0171899010079"><ele>48.0</ele><time>2026-04-05T15:50:19.999Z</time></trkpt><trkpt lat="34.349881924482794" lon="10.016960942482399"><ele>48.0</ele><time>2026-04-05T15:50:20.999Z</time></trkpt><trkpt lat="34.349579918828525" lon="10.016727062555287"><ele>48.5</ele><time>2026-04-05T15:50:21.999Z</time></trkpt><trkpt lat="34.34927974335334" lon="10.016495806450848"><ele>49.0</ele><time>2026-04-05T15:50:22.999Z</time></trkpt><trkpt lat="34.34897760347849" lon="10.016267249146654"><ele>49.0</ele><time>2026-04-05T15:50:23.999Z</time></trkpt><trkpt lat="34.34867462009669" lon="10.016037948035635"><ele>49.0</ele><time>2026-04-05T15:50:24.999Z</time></trkpt><trkpt lat="34.34837356259653" lon="10.015808867397599"><ele>49.0</ele><time>2026-04-05T15:50:25.999Z</time></trkpt><trkpt lat="34.34807409839511" lon="10.015580380976019"><ele>49.0</ele><time>2026-04-05T15:50:26.999Z</time></trkpt><trkpt lat="34.34778156969547" lon="10.0153526530649"><ele>49.0</ele><time>2026-04-05T15:50:27.999Z</time></trkpt><trkpt lat="34.347489438597265" lon="10.015126406635005"><ele>49.0</ele><time>2026-04-05T15:50:28.999Z</time></trkpt><trkpt lat="34.34719200591718" lon="10.014899061801229"><ele>49.0</ele><time>2026-04-05T15:50:29.999Z</time></trkpt><trkpt lat="34.34689632781094" lon="10.014673916964638"><ele>49.0</ele><time>2026-04-05T15:50:30.999Z</time></trkpt><trkpt lat="34.346599696841615" lon="10.01444821033867"><ele>49.0</ele><time>2026-04-05T15:50:31.999Z</time></trkpt><trkpt lat="34.346303118386594" lon="10.014222504627416"><ele>49.0</ele><time>2026-04-05T15:50:32.999Z</time></trkpt><trkpt lat="34.34600524746471" lon="10.013995913986628"><ele>49.0</ele><time>2026-04-05T15:50:33.999Z</time></trkpt><trkpt lat="34.34570576578702" lon="10.013764077547094"><ele>49.0</ele><time>2026-04-05T15:50:35Z</time></trkpt><trkpt lat="34.345405216407016" lon="10.013531658182268"><ele>49.5</ele><time>2026-04-05T15:50:36Z</time></trkpt><trkpt lat="34.34509594558361" lon="10.013293079230042"><ele>50.0</ele><time>2026-04-05T15:50:37Z</time></trkpt><trkpt lat="34.344778627452015" lon="10.01305603275073"><ele>49.0</ele><time>2026-04-05T15:50:38Z</time></trkpt><trkpt lat="34.34444978623136" lon="10.012809470594146"><ele>48.0</ele><time>2026-04-05T15:50:39Z</time></trkpt><trkpt lat="34.344115480693375" lon="10.01255730225333"><ele>48.0</ele><time>2026-04-05T15:50:40Z</time></trkpt><trkpt lat="34.34377530998493" lon="10.012302876144538"><ele>48.0</ele><time>2026-04-05T15:50:41Z</time></trkpt><trkpt lat="34.34343186424063" lon="10.012050178069495"><ele>48.0</ele><time>2026-04-05T15:50:42Z</time></trkpt><trkpt lat="34.343081980743825" lon="10.011800260922225"><ele>48.0</ele><time>2026-04-05T15:50:43Z</time></trkpt><trkpt lat="34.34272516344661" lon="10.01154969858277"><ele>48.5</ele><time>2026-04-05T15:50:44Z</time></trkpt><trkpt lat="34.34236201077258" lon="10.011299540585227"><ele>49.0</ele><time>2026-04-05T15:50:45Z</time></trkpt><trkpt lat="34.341995209038046" lon="10.01104824177536"><ele>48.5</ele><time>2026-04-05T15:50:46Z</time></trkpt><trkpt lat="34.34162614777087" lon="10.010795710128317"><ele>48.0</ele><time>2026-04-05T15:50:47Z</time></trkpt><trkpt lat="34.34125719504586" lon="10.010547622150563"><ele>48.5</ele><time>2026-04-05T15:50:48Z</time></trkpt><trkpt lat="34.34088382358382" lon="10.010302396825887"><ele>49.0</ele><time>2026-04-05T15:50:49Z</time></trkpt><trkpt lat="34.34050858599991" lon="10.010060821656124"><ele>49.0</ele><time>2026-04-05T15:50:50Z</time></trkpt><trkpt lat="34.3401299977969" lon="10.009825282740444"><ele>49.0</ele><time>2026-04-05T15:50:51Z</time></trkpt><trkpt lat="34.33974808303415" lon="10.009595903074082"><ele>49.0</ele><time>2026-04-05T15:50:52Z</time></trkpt><trkpt lat="34.33936242077961" lon="10.009368973780834"><ele>49.0</ele><time>2026-04-05T15:50:53Z</time></trkpt><trkpt lat="34.33897113766743" lon="10.009142919554701"><ele>50.0</ele><time>2026-04-05T15:50:54Z</time></trkpt><trkpt lat="34.3385772535598" lon="10.008924329047268"><ele>51.0</ele><time>2026-04-05T15:50:55Z</time></trkpt><trkpt lat="34.338192436091596" lon="10.008714216027013"><ele>51.0</ele><time>2026-04-05T15:50:56Z</time></trkpt><trkpt lat="34.337821886872376" lon="10.008522121619237"><ele>51.0</ele><time>2026-04-05T15:50:57Z</time></trkpt><trkpt lat="34.33747792754749" lon="10.008340449688214"><ele>51.0</ele><time>2026-04-05T15:50:58Z</time></trkpt><trkpt lat="34.33715500927954" lon="10.00817635409939"><ele>51.0</ele><time>2026-04-05T15:50:59Z</time></trkpt><trkpt lat="34.33685696773054" lon="10.008030087594966"><ele>51.0</ele><time>2026-04-05T15:51:00Z</time></trkpt><trkpt lat="34.33656715244489" lon="10.007889309761413"><ele>51.0</ele><time>2026-04-05T15:51:01Z</time></trkpt><trkpt lat="34.33626646440173" lon="10.007746843376445"><ele>51.0</ele><time>2026-04-05T15:51:02Z</time></trkpt><trkpt lat="34.33594879314693" lon="10.007597488242268"><ele>51.0</ele><time>2026-04-05T15:51:03Z</time></trkpt><trkpt lat="34.335619222471884" lon="10.00744553262384"><ele>49.5</ele><time>2026-04-05T15:51:04Z</time></trkpt><trkpt lat="34.33527599108286" lon="10.007289528912459"><ele>48.0</ele><time>2026-04-05T15:51:05Z</time></trkpt><trkpt lat="34.33492548208611" lon="10.007135487300854"><ele>47.0</ele><time>2026-04-05T15:51:06Z</time></trkpt><trkpt lat="34.33457183085062" lon="10.006984551428044"><ele>46.0</ele><time>2026-04-05T15:51:07Z</time></trkpt><trkpt lat="34.33421203979991" lon="10.00683283246979"><ele>47.0</ele><time>2026-04-05T15:51:08Z</time></trkpt><trkpt lat="34.333841297162294" lon="10.006682687391098"><ele>48.0</ele><time>2026-04-05T15:51:09Z</time></trkpt><trkpt lat="34.33346808819754" lon="10.006535746560422"><ele>48.0</ele><time>2026-04-05T15:51:10Z</time></trkpt><trkpt lat="34.33308992279202" lon="10.006389528756957"><ele>48.0</ele><time>2026-04-05T15:51:11Z</time></trkpt><trkpt lat="34.33270185314774" lon="10.006245944706672"><ele>48.5</ele><time>2026-04-05T15:51:12Z</time></trkpt><trkpt lat="34.33231255082518" lon="10.006106799331004"><ele>49.0</ele><time>2026-04-05T15:51:13Z</time></trkpt><trkpt lat="34.331918292755006" lon="10.005971488243256"><ele>48.5</ele><time>2026-04-05T15:51:14Z</time></trkpt><trkpt lat="34.33152327179584" lon="10.00583985993371"><ele>48.0</ele><time>2026-04-05T15:51:15Z</time></trkpt><trkpt lat="34.331131883704366" lon="10.00571274460447"><ele>48.0</ele><time>2026-04-05T15:51:16Z</time></trkpt><trkpt lat="34.33073546649177" lon="10.005588848152183"><ele>48.0</ele><time>2026-04-05T15:51:17Z</time></trkpt><trkpt lat="34.33034030113262" lon="10.005466791337621"><ele>48.0</ele><time>2026-04-05T15:51:18Z</time></trkpt><trkpt lat="34.3299724063797" lon="10.005364565895565"><ele>48.0</ele><time>2026-04-05T15:51:19Z</time></trkpt><trkpt lat="34.329629148404514" lon="10.0052700150763"><ele>48.0</ele><time>2026-04-05T15:51:20Z</time></trkpt><trkpt lat="34.32929325486402" lon="10.005182067688034"><ele>48.0</ele><time>2026-04-05T15:51:21Z</time></trkpt><trkpt lat="34.328983988789325" lon="10.005102589985214"><ele>47.0</ele><time>2026-04-05T15:51:22Z</time></trkpt><trkpt lat="34.32868568580394" lon="10.005026879240058"><ele>46.0</ele><time>2026-04-05T15:51:23Z</time></trkpt><trkpt lat="34.328399019691965" lon="10.004957068786284"><ele>46.0</ele><time>2026-04-05T15:51:24Z</time></trkpt><trkpt lat="34.32810077164859" lon="10.00489239074972"><ele>46.0</ele><time>2026-04-05T15:51:25Z</time></trkpt><trkpt lat="34.327796727554514" lon="10.004829680507376"><ele>46.5</ele><time>2026-04-05T15:51:26Z</time></trkpt><trkpt lat="34.327500497587124" lon="10.004763586211515"><ele>47.0</ele><time>2026-04-05T15:51:27Z</time></trkpt><trkpt lat="34.32720795521756" lon="10.00469881857244"><ele>47.0</ele><time>2026-04-05T15:51:28Z</time></trkpt><trkpt lat="34.326927266485946" lon="10.004638526559383"><ele>47.0</ele><time>2026-04-05T15:51:29Z</time></trkpt><trkpt lat="34.32666643256842" lon="10.00458620518613"><ele>47.0</ele><time>2026-04-05T15:51:30Z</time></trkpt><trkpt lat="34.326426503316576" lon="10.004535097399652"><ele>47.0</ele><time>2026-04-05T15:51:31Z</time></trkpt><trkpt lat="34.32620348915844" lon="10.004495336862615"><ele>47.5</ele><time>2026-04-05T15:51:32Z</time></trkpt><trkpt lat="34.325984084794044" lon="10.004465014088108"><ele>48.0</ele><time>2026-04-05T15:51:33Z</time></trkpt><trkpt lat="34.325753667882786" lon="10.004429346557727"><ele>47.5</ele><time>2026-04-05T15:51:34Z</time></trkpt><trkpt lat="34.325513737711915" lon="10.004389388533124"><ele>47.0</ele><time>2026-04-05T15:51:35Z</time></trkpt><trkpt lat="34.325272999140516" lon="10.004351007793687"><ele>47.0</ele><time>2026-04-05T15:51:36Z</time></trkpt><trkpt lat="34.325027902984644" lon="10.004311547962457"><ele>47.0</ele><time>2026-04-05T15:51:37Z</time></trkpt><trkpt lat="34.32477865391894" lon="10.004268720923722"><ele>47.5</ele><time>2026-04-05T15:51:38Z</time></trkpt><trkpt lat="34.32454274864969" lon="10.004233996488656"><ele>48.0</ele><time>2026-04-05T15:51:39Z</time></trkpt><trkpt lat="34.3243005257476" lon="10.00420991731672"><ele>48.0</ele><time>2026-04-05T15:51:40Z</time></trkpt><trkpt lat="34.32403461227377" lon="10.004187224295093"><ele>48.0</ele><time>2026-04-05T15:51:41Z</time></trkpt><trkpt lat="34.32374802964224" lon="10.00415170431292"><ele>48.0</ele><time>2026-04-05T15:51:42Z</time></trkpt><trkpt lat="34.3234558850053" lon="10.004105941438711"><ele>48.0</ele><time>2026-04-05T15:51:43Z</time></trkpt><trkpt lat="34.32318779738576" lon="10.004064511191336"><ele>48.0</ele><time>2026-04-05T15:51:44Z</time></trkpt><trkpt lat="34.322927713191426" lon="10.004029221205347"><ele>48.0</ele><time>2026-04-05T15:51:45Z</time></trkpt><trkpt lat="34.32266932114918" lon="10.003992424193644"><ele>48.0</ele><time>2026-04-05T15:51:46Z</time></trkpt><trkpt lat="34.32241449706807" lon="10.003955973721261"><ele>48.0</ele><time>2026-04-05T15:51:47Z</time></trkpt><trkpt lat="34.32216113745671" lon="10.003919404449514"><ele>48.5</ele><time>2026-04-05T15:51:48Z</time></trkpt><trkpt lat="34.32190379840544" lon="10.00388261571045"><ele>49.0</ele><time>2026-04-05T15:51:49Z</time></trkpt><trkpt lat="34.32163966840382" lon="10.003844975625935"><ele>48.5</ele><time>2026-04-05T15:51:50Z</time></trkpt><trkpt lat="34.321352488390275" lon="10.003807791131909"><ele>48.0</ele><time>2026-04-05T15:51:51Z</time></trkpt><trkpt lat="34.32104435290032" lon="10.003760214733514"><ele>48.0</ele><time>2026-04-05T15:51:52Z</time></trkpt><trkpt lat="34.320734397385976" lon="10.003708875192967"><ele>48.0</ele><time>2026-04-05T15:51:53Z</time></trkpt><trkpt lat="34.32044856045102" lon="10.00366252196863"><ele>47.5</ele><time>2026-04-05T15:51:54Z</time></trkpt><trkpt lat="34.32018190343441" lon="10.003622042542593"><ele>47.0</ele><time>2026-04-05T15:51:55Z</time></trkpt><trkpt lat="34.31993237338201" lon="10.003584020887235"><ele>47.0</ele><time>2026-04-05T15:51:56Z</time></trkpt><trkpt lat="34.31970295752901" lon="10.003551052816075"><ele>47.0</ele><time>2026-04-05T15:51:57Z</time></trkpt><trkpt lat="34.31949481110919" lon="10.003520883017893"><ele>47.0</ele><time>2026-04-05T15:51:58Z</time></trkpt><trkpt lat="34.319309533483505" lon="10.003495055140144"><ele>47.0</ele><time>2026-04-05T15:51:59Z</time></trkpt><trkpt lat="34.31913519705355" lon="10.003467119196563"><ele>47.0</ele><time>2026-04-05T15:52:00Z</time></trkpt><trkpt lat="34.31896718766914" lon="10.003442616610203"><ele>47.0</ele><time>2026-04-05T15:52:01Z</time></trkpt><trkpt lat="34.31879382410152" lon="10.003424434325847"><ele>47.0</ele><time>2026-04-05T15:52:02Z</time></trkpt><trkpt lat="34.31860878283347" lon="10.00340307873462"><ele>47.0</ele><time>2026-04-05T15:52:03Z</time></trkpt><trkpt lat="34.31841763799908" lon="10.003371927572381"><ele>47.0</ele><time>2026-04-05T15:52:04Z</time></trkpt><trkpt lat="34.318216686968185" lon="10.00334019846158"><ele>47.0</ele><time>2026-04-05T15:52:05Z</time></trkpt><trkpt lat="34.31800273732342" lon="10.00331218568087"><ele>47.0</ele><time>2026-04-05T15:52:06Z</time></trkpt><trkpt lat="34.31777655823406" lon="10.003285024964867"><ele>47.0</ele><time>2026-04-05T15:52:07Z</time></trkpt><trkpt lat="34.3175383457166" lon="10.00325411903117"><ele>47.0</ele><time>2026-04-05T15:52:07.999Z</time></trkpt><trkpt lat="34.31729063556695" lon="10.0032178210338"><ele>47.0</ele><time>2026-04-05T15:52:08.999Z</time></trkpt><trkpt lat="34.317033524186485" lon="10.003179448821918"><ele>47.0</ele><time>2026-04-05T15:52:09.999Z</time></trkpt><trkpt lat="34.316765657758474" lon="10.003140932612917"><ele>47.0</ele><time>2026-04-05T15:52:10.999Z</time></trkpt><trkpt lat="34.316491632037284" lon="10.003099618513897"><ele>46.5</ele><time>2026-04-05T15:52:11.999Z</time></trkpt><trkpt lat="34.316215186895384" lon="10.003057419178345"><ele>46.0</ele><time>2026-04-05T15:52:12.999Z</time></trkpt><trkpt lat="34.31594598083749" lon="10.003017864551648"><ele>46.0</ele><time>2026-04-05T15:52:13.999Z</time></trkpt><trkpt lat="34.31566991748339" lon="10.002983085665054"><ele>46.0</ele><time>2026-04-05T15:52:14.999Z</time></trkpt><trkpt lat="34.31538612334342" lon="10.0029436423181"><ele>45.5</ele><time>2026-04-05T15:52:15.999Z</time></trkpt><trkpt lat="34.31510068901859" lon="10.00290072111932"><ele>45.0</ele><time>2026-04-05T15:52:16.999Z</time></trkpt><trkpt lat="34.314812539584736" lon="10.002862693858939"><ele>45.0</ele><time>2026-04-05T15:52:17.999Z</time></trkpt><trkpt lat="34.31451967104151" lon="10.002821823614612"><ele>45.0</ele><time>2026-04-05T15:52:18.999Z</time></trkpt><trkpt lat="34.31423122164668" lon="10.002777646374827"><ele>45.0</ele><time>2026-04-05T15:52:19.999Z</time></trkpt><trkpt lat="34.313947833010275" lon="10.00273445208648"><ele>45.0</ele><time>2026-04-05T15:52:20.999Z</time></trkpt><trkpt lat="34.31365807291352" lon="10.00269074918683"><ele>44.5</ele><time>2026-04-05T15:52:21.999Z</time></trkpt><trkpt lat="34.31337380845455" lon="10.002651118592015"><ele>44.0</ele><time>2026-04-05T15:52:22.999Z</time></trkpt><trkpt lat="34.31309217454115" lon="10.002610472071478"><ele>44.0</ele><time>2026-04-05T15:52:23.999Z</time></trkpt><trkpt lat="34.31281253313863" lon="10.002568292775806"><ele>44.0</ele><time>2026-04-05T15:52:24.999Z</time></trkpt><trkpt lat="34.31253828457498" lon="10.002531695089164"><ele>44.0</ele><time>2026-04-05T15:52:25.999Z</time></trkpt><trkpt lat="34.31227112983111" lon="10.002493604159369"><ele>44.0</ele><time>2026-04-05T15:52:26.999Z</time></trkpt><trkpt lat="34.312003140373584" lon="10.002457628682937"><ele>44.0</ele><time>2026-04-05T15:52:27.999Z</time></trkpt><trkpt lat="34.311741791097695" lon="10.002423678127732"><ele>44.0</ele><time>2026-04-05T15:52:28.999Z</time></trkpt><trkpt lat="34.31147875447857" lon="10.002385641922869"><ele>43.5</ele><time>2026-04-05T15:52:29.999Z</time></trkpt><trkpt lat="34.311215952382625" lon="10.00234560455558"><ele>43.0</ele><time>2026-04-05T15:52:30.999Z</time></trkpt><trkpt lat="34.31095169909124" lon="10.002309395207096"><ele>43.0</ele><time>2026-04-05T15:52:31.999Z</time></trkpt><trkpt lat="34.31068589717872" lon="10.002273558072442"><ele>43.0</ele><time>2026-04-05T15:52:32.999Z</time></trkpt><trkpt lat="34.310424110116095" lon="10.002237300883033"><ele>42.0</ele><time>2026-04-05T15:52:33.999Z</time></trkpt><trkpt lat="34.310163624101016" lon="10.002200630456402"><ele>41.0</ele><time>2026-04-05T15:52:34.999Z</time></trkpt><trkpt lat="34.30990333709399" lon="10.002165628720636"><ele>41.0</ele><time>2026-04-05T15:52:35.999Z</time></trkpt><trkpt lat="34.30964233528927" lon="10.002129325956007"><ele>41.0</ele><time>2026-04-05T15:52:36.999Z</time></trkpt><trkpt lat="34.30938145594167" lon="10.002091206611745"><ele>41.0</ele><time>2026-04-05T15:52:37.999Z</time></trkpt><trkpt lat="34.30912493037354" lon="10.00205524485108"><ele>41.0</ele><time>2026-04-05T15:52:38.999Z</time></trkpt><trkpt lat="34.308869604248706" lon="10.002020667573882"><ele>41.5</ele><time>2026-04-05T15:52:39.999Z</time></trkpt><trkpt lat="34.308609813137494" lon="10.001986492908546"><ele>42.0</ele><time>2026-04-05T15:52:41Z</time></trkpt><trkpt lat="34.30835942784163" lon="10.001949555318605"><ele>42.0</ele><time>2026-04-05T15:52:42Z</time></trkpt><trkpt lat="34.308114141182855" lon="10.00191491600033"><ele>42.0</ele><time>2026-04-05T15:52:43Z</time></trkpt><trkpt lat="34.307869021707965" lon="10.001878171743819"><ele>42.0</ele><time>2026-04-05T15:52:44Z</time></trkpt><trkpt lat="34.307615987592094" lon="10.00183895172688"><ele>42.0</ele><time>2026-04-05T15:52:45Z</time></trkpt><trkpt lat="34.307364494475344" lon="10.001801024046234"><ele>41.0</ele><time>2026-04-05T15:52:46Z</time></trkpt><trkpt lat="34.30710620725091" lon="10.001762909827256"><ele>40.0</ele><time>2026-04-05T15:52:47Z</time></trkpt><trkpt lat="34.306854050311614" lon="10.001726042638222"><ele>40.0</ele><time>2026-04-05T15:52:48Z</time></trkpt><trkpt lat="34.30659566521446" lon="10.001690706512422"><ele>40.0</ele><time>2026-04-05T15:52:49Z</time></trkpt><trkpt lat="34.30633383272356" lon="10.00165214124098"><ele>39.5</ele><time>2026-04-05T15:52:50Z</time></trkpt><trkpt lat="34.306069261077894" lon="10.00161428272093"><ele>39.0</ele><time>2026-04-05T15:52:51Z</time></trkpt><trkpt lat="34.30580272049372" lon="10.00157480842177"><ele>39.5</ele><time>2026-04-05T15:52:52Z</time></trkpt><trkpt lat="34.305531551338554" lon="10.001534502010571"><ele>40.0</ele><time>2026-04-05T15:52:53Z</time></trkpt><trkpt lat="34.305261864134025" lon="10.001495926264788"><ele>40.0</ele><time>2026-04-05T15:52:54Z</time></trkpt><trkpt lat="34.304989679541244" lon="10.001461104792964"><ele>40.0</ele><time>2026-04-05T15:52:55Z</time></trkpt><trkpt lat="34.30471869024368" lon="10.001421556508353"><ele>39.5</ele><time>2026-04-05T15:52:56Z</time></trkpt><trkpt lat="34.30444368324077" lon="10.00137860688838"><ele>39.0</ele><time>2026-04-05T15:52:57Z</time></trkpt><trkpt lat="34.30417049848084" lon="10.001332658808968"><ele>39.0</ele><time>2026-04-05T15:52:58Z</time></trkpt><trkpt lat="34.30389941064213" lon="10.001290453644584"><ele>39.0</ele><time>2026-04-05T15:52:59Z</time></trkpt><trkpt lat="34.30363330458383" lon="10.001255182179197"><ele>39.0</ele><time>2026-04-05T15:53:00Z</time></trkpt><trkpt lat="34.303372600194976" lon="10.001222709784948"><ele>39.0</ele><time>2026-04-05T15:53:01Z</time></trkpt><trkpt lat="34.30311348451393" lon="10.00118931628676"><ele>39.0</ele><time>2026-04-05T15:53:02Z</time></trkpt><trkpt lat="34.30285766716048" lon="10.001150182211399"><ele>39.0</ele><time>2026-04-05T15:53:03Z</time></trkpt><trkpt lat="34.30260211612094" lon="10.001109995924883"><ele>39.0</ele><time>2026-04-05T15:53:04Z</time></trkpt><trkpt lat="34.30234283785391" lon="10.001072623552208"><ele>39.0</ele><time>2026-04-05T15:53:05Z</time></trkpt><trkpt lat="34.302083828354625" lon="10.00103707419328"><ele>38.5</ele><time>2026-04-05T15:53:06Z</time></trkpt><trkpt lat="34.30182470850216" lon="10.001002158985338"><ele>38.0</ele><time>2026-04-05T15:53:07Z</time></trkpt><trkpt lat="34.30156138364701" lon="10.000966809378443"><ele>38.0</ele><time>2026-04-05T15:53:08Z</time></trkpt><trkpt lat="34.30129578660913" lon="10.000928395593997"><ele>38.0</ele><time>2026-04-05T15:53:09Z</time></trkpt><trkpt lat="34.30102813799446" lon="10.000888054573585"><ele>38.0</ele><time>2026-04-05T15:53:10Z</time></trkpt><trkpt lat="34.30075755519797" lon="10.000849340031387"><ele>38.0</ele><time>2026-04-05T15:53:11Z</time></trkpt><trkpt lat="34.30048169068715" lon="10.000806616919556"><ele>38.5</ele><time>2026-04-05T15:53:12Z</time></trkpt><trkpt lat="34.30020242477159" lon="10.000766215333668"><ele>39.0</ele><time>2026-04-05T15:53:13Z</time></trkpt><trkpt lat="34.29992290511841" lon="10.000729265663029"><ele>38.5</ele><time>2026-04-05T15:53:14Z</time></trkpt><trkpt lat="34.29964140133992" lon="10.000691755020739"><ele>38.0</ele><time>2026-04-05T15:53:15Z</time></trkpt><trkpt lat="34.299361811078114" lon="10.000653060912603"><ele>38.0</ele><time>2026-04-05T15:53:16Z</time></trkpt><trkpt lat="34.29908265022738" lon="10.000613121534927"><ele>38.0</ele><time>2026-04-05T15:53:17Z</time></trkpt><trkpt lat="34.29879867720958" lon="10.000572764964167"><ele>38.0</ele><time>2026-04-05T15:53:18Z</time></trkpt><trkpt lat="34.29851345679288" lon="10.000533652190763"><ele>38.0</ele><time>2026-04-05T15:53:19Z</time></trkpt><trkpt lat="34.298225344034876" lon="10.00049209687009"><ele>38.0</ele><time>2026-04-05T15:53:20Z</time></trkpt><trkpt lat="34.29794399041134" lon="10.000453002162288"><ele>38.0</ele><time>2026-04-05T15:53:21Z</time></trkpt><trkpt lat="34.29766991838894" lon="10.000413535513486"><ele>38.0</ele><time>2026-04-05T15:53:22Z</time></trkpt><trkpt lat="34.297401372646476" lon="10.000374256297222"><ele>38.0</ele><time>2026-04-05T15:53:23Z</time></trkpt><trkpt lat="34.297136021597936" lon="10.00033562479708"><ele>37.5</ele><time>2026-04-05T15:53:24Z</time></trkpt><trkpt lat="34.29687323335666" lon="10.000300922791908"><ele>37.0</ele><time>2026-04-05T15:53:25Z</time></trkpt><trkpt lat="34.29660705757666" lon="10.000266750882503"><ele>36.5</ele><time>2026-04-05T15:53:26Z</time></trkpt><trkpt lat="34.29634105934006" lon="10.000229929055887"><ele>36.0</ele><time>2026-04-05T15:53:27Z</time></trkpt><trkpt lat="34.29607692335615" lon="10.000192609539939"><ele>36.0</ele><time>2026-04-05T15:53:28Z</time></trkpt><trkpt lat="34.295808932973614" lon="10.000152513753923"><ele>36.0</ele><time>2026-04-05T15:53:29Z</time></trkpt><trkpt lat="34.29554270184226" lon="10.000113122748658"><ele>36.0</ele><time>2026-04-05T15:53:30Z</time></trkpt><trkpt lat="34.295277492843894" lon="10.000075313251568"><ele>36.0</ele><time>2026-04-05T15:53:31Z</time></trkpt><trkpt lat="34.29501502167316" lon="10.00003888404627"><ele>36.0</ele><time>2026-04-05T15:53:32Z</time></trkpt><trkpt lat="34.294764707673366" lon="10.00000659794662"><ele>36.0</ele><time>2026-04-05T15:53:33Z</time></trkpt><trkpt lat="34.294509470287935" lon="9.99996818135472"><ele>36.0</ele><time>2026-04-05T15:53:34Z</time></trkpt><trkpt lat="34.29425567880072" lon="9.999938858972191"><ele>36.0</ele><time>2026-04-05T15:53:35Z</time></trkpt><trkpt lat="34.29400191524284" lon="9.999906631062565"><ele>35.0</ele><time>2026-04-05T15:53:36Z</time></trkpt><trkpt lat="34.29374564439872" lon="9.999865041635287"><ele>34.0</ele><time>2026-04-05T15:53:37Z</time></trkpt><trkpt lat="34.29348404870238" lon="9.999823477471503"><ele>34.0</ele><time>2026-04-05T15:53:38Z</time></trkpt><trkpt lat="34.29322221925637" lon="9.999786422933484"><ele>34.0</ele><time>2026-04-05T15:53:39Z</time></trkpt><trkpt lat="34.292958478140875" lon="9.999753446792173"><ele>33.5</ele><time>2026-04-05T15:53:40Z</time></trkpt><trkpt lat="34.29270701402278" lon="9.999717232834186"><ele>33.0</ele><time>2026-04-05T15:53:41Z</time></trkpt><trkpt lat="34.292467845585854" lon="9.999682444046314"><ele>33.0</ele><time>2026-04-05T15:53:42Z</time></trkpt><trkpt lat="34.29223043625857" lon="9.999643557217523"><ele>33.0</ele><time>2026-04-05T15:53:43Z</time></trkpt><trkpt lat="34.29198913718595" lon="9.999600694520607"><ele>33.0</ele><time>2026-04-05T15:53:44Z</time></trkpt><trkpt lat="34.29174653524708" lon="9.999560670551208"><ele>33.0</ele><time>2026-04-05T15:53:45Z</time></trkpt><trkpt lat="34.29149928766593" lon="9.999520161519012"><ele>32.5</ele><time>2026-04-05T15:53:46Z</time></trkpt><trkpt lat="34.29125110732656" lon="9.999476223364077"><ele>32.0</ele><time>2026-04-05T15:53:47Z</time></trkpt><trkpt lat="34.29100434395438" lon="9.999425813553795"><ele>32.0</ele><time>2026-04-05T15:53:48Z</time></trkpt><trkpt lat="34.29075438525019" lon="9.99936603484923"><ele>32.0</ele><time>2026-04-05T15:53:49Z</time></trkpt><trkpt lat="34.290498299111675" lon="9.999305014772673"><ele>32.0</ele><time>2026-04-05T15:53:50Z</time></trkpt><trkpt lat="34.290245490114124" lon="9.999242833354883"><ele>32.0</ele><time>2026-04-05T15:53:51Z</time></trkpt><trkpt lat="34.289988491690615" lon="9.999178634523158"><ele>31.5</ele><time>2026-04-05T15:53:52Z</time></trkpt><trkpt lat="34.289727890986825" lon="9.99911209498462"><ele>31.0</ele><time>2026-04-05T15:53:53Z</time></trkpt><trkpt lat="34.28946482124553" lon="9.99904370513379"><ele>31.0</ele><time>2026-04-05T15:53:54Z</time></trkpt><trkpt lat="34.28919865525207" lon="9.99896726984931"><ele>31.0</ele><time>2026-04-05T15:53:55Z</time></trkpt><trkpt lat="34.28893680234862" lon="9.998886141824457"><ele>30.5</ele><time>2026-04-05T15:53:56Z</time></trkpt><trkpt lat="34.28867944482421" lon="9.998801519501535"><ele>30.0</ele><time>2026-04-05T15:53:57Z</time></trkpt><trkpt lat="34.28842095815796" lon="9.998717254370783"><ele>30.0</ele><time>2026-04-05T15:53:57.999Z</time></trkpt><trkpt lat="34.288161601180505" lon="9.99863011766336"><ele>30.0</ele><time>2026-04-05T15:53:58.999Z</time></trkpt><trkpt lat="34.287902575427644" lon="9.998539099824065"><ele>29.0</ele><time>2026-04-05T15:53:59.999Z</time></trkpt><trkpt lat="34.2876397322504" lon="9.99844751598604"><ele>28.0</ele><time>2026-04-05T15:54:00.999Z</time></trkpt><trkpt lat="34.287375650462494" lon="9.998350864629902"><ele>28.5</ele><time>2026-04-05T15:54:01.999Z</time></trkpt><trkpt lat="34.28711085390173" lon="9.998248224924264"><ele>29.0</ele><time>2026-04-05T15:54:02.999Z</time></trkpt><trkpt lat="34.286844387211026" lon="9.998141559463551"><ele>29.0</ele><time>2026-04-05T15:54:03.999Z</time></trkpt><trkpt lat="34.286583046631435" lon="9.998029896028633"><ele>29.0</ele><time>2026-04-05T15:54:04.999Z</time></trkpt><trkpt lat="34.286321750702356" lon="9.997915551889443"><ele>28.0</ele><time>2026-04-05T15:54:05.999Z</time></trkpt><trkpt lat="34.286061497831604" lon="9.997796529830996"><ele>27.0</ele><time>2026-04-05T15:54:06.999Z</time></trkpt><trkpt lat="34.285801191835624" lon="9.997676427506434"><ele>27.0</ele><time>2026-04-05T15:54:07.999Z</time></trkpt><trkpt lat="34.28554034364938" lon="9.997559816542783"><ele>27.0</ele><time>2026-04-05T15:54:08.999Z</time></trkpt><trkpt lat="34.28528123103082" lon="9.997444559206883"><ele>27.0</ele><time>2026-04-05T15:54:09.999Z</time></trkpt><trkpt lat="34.2850219760436" lon="9.997328967228652"><ele>27.0</ele><time>2026-04-05T15:54:10.999Z</time></trkpt><trkpt lat="34.28477281360466" lon="9.99722278877905"><ele>26.5</ele><time>2026-04-05T15:54:11.999Z</time></trkpt><trkpt lat="34.28453150883019" lon="9.997119881726727"><ele>26.0</ele><time>2026-04-05T15:54:12.999Z</time></trkpt><trkpt lat="34.28428697768529" lon="9.997016816779762"><ele>26.0</ele><time>2026-04-05T15:54:13.999Z</time></trkpt><trkpt lat="34.284040089402836" lon="9.99691331812166"><ele>26.0</ele><time>2026-04-05T15:54:14.999Z</time></trkpt><trkpt lat="34.28379576125085" lon="9.996805431361386"><ele>26.0</ele><time>2026-04-05T15:54:15.999Z</time></trkpt><trkpt lat="34.28355168008718" lon="9.996696251806153"><ele>26.0</ele><time>2026-04-05T15:54:16.999Z</time></trkpt><trkpt lat="34.28330213564499" lon="9.996586551710081"><ele>25.5</ele><time>2026-04-05T15:54:17.999Z</time></trkpt><trkpt lat="34.28304496785267" lon="9.996480155486628"><ele>25.0</ele><time>2026-04-05T15:54:18.999Z</time></trkpt><trkpt lat="34.2827859846615" lon="9.996370861356763"><ele>25.0</ele><time>2026-04-05T15:54:19.999Z</time></trkpt><trkpt lat="34.282525634416515" lon="9.996260418074678"><ele>25.0</ele><time>2026-04-05T15:54:20.999Z</time></trkpt><trkpt lat="34.28226515458023" lon="9.996149218324184"><ele>24.5</ele><time>2026-04-05T15:54:21.999Z</time></trkpt><trkpt lat="34.28200620929776" lon="9.99603365198674"><ele>24.0</ele><time>2026-04-05T15:54:22.999Z</time></trkpt><trkpt lat="34.28174821443587" lon="9.995919265006778"><ele>24.5</ele><time>2026-04-05T15:54:23.999Z</time></trkpt><trkpt lat="34.28148651546326" lon="9.995805735082579"><ele>25.0</ele><time>2026-04-05T15:54:24.999Z</time></trkpt><trkpt lat="34.281225301967574" lon="9.995692967151038"><ele>25.0</ele><time>2026-04-05T15:54:25.999Z</time></trkpt><trkpt lat="34.28095835142464" lon="9.99557962273977"><ele>25.0</ele><time>2026-04-05T15:54:26.999Z</time></trkpt><trkpt lat="34.28068685542407" lon="9.995467975382017"><ele>24.5</ele><time>2026-04-05T15:54:27.999Z</time></trkpt><trkpt lat="34.28040132026163" lon="9.995355660516793"><ele>24.0</ele><time>2026-04-05T15:54:28.999Z</time></trkpt><trkpt lat="34.28011154748544" lon="9.995235146009781"><ele>24.0</ele><time>2026-04-05T15:54:29.999Z</time></trkpt><trkpt lat="34.27981553487791" lon="9.995107226776689"><ele>24.0</ele><time>2026-04-05T15:54:30.999Z</time></trkpt><trkpt lat="34.27951822227361" lon="9.994976585173523"><ele>24.0</ele><time>2026-04-05T15:54:31.999Z</time></trkpt><trkpt lat="34.27921805233352" lon="9.994848082226017"><ele>24.0</ele><time>2026-04-05T15:54:32.999Z</time></trkpt><trkpt lat="34.278916668297995" lon="9.99471910248681"><ele>24.0</ele><time>2026-04-05T15:54:33.999Z</time></trkpt><trkpt lat="34.278624966562" lon="9.994592529931186"><ele>24.0</ele><time>2026-04-05T15:54:34.999Z</time></trkpt><trkpt lat="34.278333881017176" lon="9.994461832535157"><ele>23.0</ele><time>2026-04-05T15:54:35.999Z</time></trkpt><trkpt lat="34.27807118439676" lon="9.994339907639695"><ele>22.0</ele><time>2026-04-05T15:54:36.999Z</time></trkpt><trkpt lat="34.27781686247925" lon="9.994224443228832"><ele>23.0</ele><time>2026-04-05T15:54:37.999Z</time></trkpt><trkpt lat="34.27755882281231" lon="9.99411225564525"><ele>24.0</ele><time>2026-04-05T15:54:38.999Z</time></trkpt><trkpt lat="34.27729755903593" lon="9.99399737830374"><ele>24.0</ele><time>2026-04-05T15:54:39.999Z</time></trkpt><trkpt lat="34.277038744808465" lon="9.993880380779188"><ele>24.0</ele><time>2026-04-05T15:54:40.999Z</time></trkpt><trkpt lat="34.2767752628542" lon="9.993763378781258"><ele>24.0</ele><time>2026-04-05T15:54:41.999Z</time></trkpt><trkpt lat="34.27650458420011" lon="9.993646993422866"><ele>24.0</ele><time>2026-04-05T15:54:42.999Z</time></trkpt><trkpt lat="34.27623273470686" lon="9.993532252410917"><ele>23.5</ele><time>2026-04-05T15:54:43.999Z</time></trkpt><trkpt lat="34.27596262508379" lon="9.993414338559417"><ele>23.0</ele><time>2026-04-05T15:54:44.999Z</time></trkpt><trkpt lat="34.275697622980424" lon="9.99329634079795"><ele>23.0</ele><time>2026-04-05T15:54:45.999Z</time></trkpt><trkpt lat="34.27543530013096" lon="9.993180768418043"><ele>23.0</ele><time>2026-04-05T15:54:47Z</time></trkpt><trkpt lat="34.275170693820364" lon="9.993061503710798"><ele>23.0</ele><time>2026-04-05T15:54:48Z</time></trkpt><trkpt lat="34.27490632748592" lon="9.99294045949303"><ele>23.0</ele><time>2026-04-05T15:54:49Z</time></trkpt><trkpt lat="34.2746414033154" lon="9.992819732544316"><ele>21.5</ele><time>2026-04-05T15:54:50Z</time></trkpt><trkpt lat="34.274373246172836" lon="9.992702537600438"><ele>20.0</ele><time>2026-04-05T15:54:51Z</time></trkpt><trkpt lat="34.27410601747422" lon="9.992584396826528"><ele>20.0</ele><time>2026-04-05T15:54:52Z</time></trkpt><trkpt lat="34.273838755225654" lon="9.992467542420508"><ele>20.0</ele><time>2026-04-05T15:54:53Z</time></trkpt><trkpt lat="34.273567625257925" lon="9.99235196068542"><ele>20.0</ele><time>2026-04-05T15:54:54Z</time></trkpt><trkpt lat="34.27329714960776" lon="9.992237746097603"><ele>20.0</ele><time>2026-04-05T15:54:55Z</time></trkpt><trkpt lat="34.273028863927614" lon="9.992117107980464"><ele>20.0</ele><time>2026-04-05T15:54:56Z</time></trkpt><trkpt lat="34.272752330961715" lon="9.991994805121418"><ele>20.0</ele><time>2026-04-05T15:54:57Z</time></trkpt><trkpt lat="34.27247869904129" lon="9.991871029451177"><ele>20.0</ele><time>2026-04-05T15:54:58Z</time></trkpt><trkpt lat="34.27220230003521" lon="9.991748840956275"><ele>20.0</ele><time>2026-04-05T15:54:59Z</time></trkpt><trkpt lat="34.27192379215081" lon="9.991630616753545"><ele>20.5</ele><time>2026-04-05T15:55:00Z</time></trkpt><trkpt lat="34.27164720361058" lon="9.99150858086791"><ele>21.0</ele><time>2026-04-05T15:55:01Z</time></trkpt><trkpt lat="34.2713726234817" lon="9.99138794479026"><ele>21.0</ele><time>2026-04-05T15:55:02Z</time></trkpt><trkpt lat="34.27109821014723" lon="9.991267084291577"><ele>21.0</ele><time>2026-04-05T15:55:03Z</time></trkpt><trkpt lat="34.270829584737086" lon="9.991147407011322"><ele>21.0</ele><time>2026-04-05T15:55:04Z</time></trkpt><trkpt lat="34.27056329707352" lon="9.991029418994303"><ele>21.0</ele><time>2026-04-05T15:55:05Z</time></trkpt><trkpt lat="34.27029406915916" lon="9.99091037829418"><ele>21.5</ele><time>2026-04-05T15:55:06Z</time></trkpt><trkpt lat="34.2700216191328" lon="9.990792492396379"><ele>22.0</ele><time>2026-04-05T15:55:07Z</time></trkpt><trkpt lat="34.26974574583583" lon="9.990672855938067"><ele>22.0</ele><time>2026-04-05T15:55:08Z</time></trkpt><trkpt lat="34.26946885671214" lon="9.99055472166789"><ele>22.0</ele><time>2026-04-05T15:55:09Z</time></trkpt><trkpt lat="34.26919499119781" lon="9.99043769371129"><ele>21.5</ele><time>2026-04-05T15:55:10Z</time></trkpt><trkpt lat="34.268924844999255" lon="9.990320290123378"><ele>21.0</ele><time>2026-04-05T15:55:11Z</time></trkpt><trkpt lat="34.26865680126394" lon="9.990202934792592"><ele>21.0</ele><time>2026-04-05T15:55:12Z</time></trkpt><trkpt lat="34.2683918193542" lon="9.990084262049425"><ele>21.0</ele><time>2026-04-05T15:55:13Z</time></trkpt><trkpt lat="34.26812605492234" lon="9.989966471696428"><ele>21.0</ele><time>2026-04-05T15:55:14Z</time></trkpt><trkpt lat="34.26785986289629" lon="9.989850290988487"><ele>21.0</ele><time>2026-04-05T15:55:15Z</time></trkpt><trkpt lat="34.26759294190446" lon="9.989733877684964"><ele>21.0</ele><time>2026-04-05T15:55:16Z</time></trkpt><trkpt lat="34.267322553128324" lon="9.98961703147304"><ele>21.0</ele><time>2026-04-05T15:55:17Z</time></trkpt><trkpt lat="34.267052782259356" lon="9.989499247382783"><ele>21.5</ele><time>2026-04-05T15:55:18Z</time></trkpt><trkpt lat="34.26678398360925" lon="9.989382948838124"><ele>22.0</ele><time>2026-04-05T15:55:19Z</time></trkpt><trkpt lat="34.2665155976326" lon="9.989264813439082"><ele>23.0</ele><time>2026-04-05T15:55:20Z</time></trkpt><trkpt lat="34.26624436213295" lon="9.989146171469361"><ele>24.0</ele><time>2026-04-05T15:55:21Z</time></trkpt><trkpt lat="34.265970159558485" lon="9.989026419257737"><ele>24.0</ele><time>2026-04-05T15:55:22Z</time></trkpt><trkpt lat="34.26569268287687" lon="9.988907277865453"><ele>24.0</ele><time>2026-04-05T15:55:23Z</time></trkpt><trkpt lat="34.26541312781296" lon="9.988793628150528"><ele>23.5</ele><time>2026-04-05T15:55:24Z</time></trkpt><trkpt lat="34.26513227890913" lon="9.988684494530744"><ele>23.0</ele><time>2026-04-05T15:55:25Z</time></trkpt><trkpt lat="34.264847742211366" lon="9.988580698871079"><ele>22.5</ele><time>2026-04-05T15:55:26Z</time></trkpt><trkpt lat="34.264565168473766" lon="9.988479614583794"><ele>22.0</ele><time>2026-04-05T15:55:27Z</time></trkpt><trkpt lat="34.264282549108145" lon="9.988384024995497"><ele>22.0</ele><time>2026-04-05T15:55:28Z</time></trkpt><trkpt lat="34.26400448621606" lon="9.98829201844402"><ele>22.0</ele><time>2026-04-05T15:55:29Z</time></trkpt><trkpt lat="34.2637314339246" lon="9.988201422321557"><ele>22.0</ele><time>2026-04-05T15:55:30Z</time></trkpt><trkpt lat="34.26346294699747" lon="9.98811583283136"><ele>22.0</ele><time>2026-04-05T15:55:31Z</time></trkpt><trkpt lat="34.263195181427875" lon="9.988031748395574"><ele>21.5</ele><time>2026-04-05T15:55:32Z</time></trkpt><trkpt lat="34.26292549013565" lon="9.987953781146505"><ele>21.0</ele><time>2026-04-05T15:55:33Z</time></trkpt><trkpt lat="34.26239467996511" lon="9.987804867387116"><ele>21.0</ele><time>2026-04-05T15:55:35Z</time></trkpt><trkpt lat="34.2621257597249" lon="9.987736781093831"><ele>21.0</ele><time>2026-04-05T15:55:36Z</time></trkpt><trkpt lat="34.26182494495944" lon="9.987688040896694"><ele>21.0</ele><time>2026-04-05T15:55:37Z</time></trkpt><trkpt lat="34.26158836937672" lon="9.987606490885685"><ele>21.0</ele><time>2026-04-05T15:55:38Z</time></trkpt><trkpt lat="34.261316545606945" lon="9.987545530046953"><ele>21.5</ele><time>2026-04-05T15:55:39Z</time></trkpt><trkpt lat="34.26104105637176" lon="9.987488483681847"><ele>22.0</ele><time>2026-04-05T15:55:40Z</time></trkpt><trkpt lat="34.26076703534733" lon="9.987429774391744"><ele>21.5</ele><time>2026-04-05T15:55:41Z</time></trkpt><trkpt lat="34.2604894635523" lon="9.987376931628328"><ele>21.0</ele><time>2026-04-05T15:55:42Z</time></trkpt><trkpt lat="34.260213248232766" lon="9.987325556029282"><ele>21.0</ele><time>2026-04-05T15:55:43Z</time></trkpt><trkpt lat="34.259934028651834" lon="9.987274426663948"><ele>21.0</ele><time>2026-04-05T15:55:44Z</time></trkpt><trkpt lat="34.25965449067684" lon="9.987224100695295"><ele>20.5</ele><time>2026-04-05T15:55:45Z</time></trkpt><trkpt lat="34.259375785801474" lon="9.987176660356907"><ele>20.0</ele><time>2026-04-05T15:55:46Z</time></trkpt><trkpt lat="34.25909948788443" lon="9.987128515281698"><ele>19.0</ele><time>2026-04-05T15:55:47Z</time></trkpt><trkpt lat="34.25882838961536" lon="9.987073528351392"><ele>18.0</ele><time>2026-04-05T15:55:48Z</time></trkpt><trkpt lat="34.25856026702852" lon="9.987016540409028"><ele>18.0</ele><time>2026-04-05T15:55:49Z</time></trkpt><trkpt lat="34.25829064169558" lon="9.986964394130656"><ele>18.0</ele><time>2026-04-05T15:55:50Z</time></trkpt><trkpt lat="34.25802235673553" lon="9.986915026122025"><ele>18.5</ele><time>2026-04-05T15:55:51Z</time></trkpt><trkpt lat="34.257753027427874" lon="9.986866743505484"><ele>19.0</ele><time>2026-04-05T15:55:51.999Z</time></trkpt><trkpt lat="34.25748140383123" lon="9.986819785471498"><ele>19.5</ele><time>2026-04-05T15:55:52.999Z</time></trkpt><trkpt lat="34.25721240706738" lon="9.986772248339422"><ele>20.0</ele><time>2026-04-05T15:55:53.999Z</time></trkpt><trkpt lat="34.25694588488203" lon="9.986724285568194"><ele>20.0</ele><time>2026-04-05T15:55:54.999Z</time></trkpt><trkpt lat="34.25667318131184" lon="9.986674310723814"><ele>20.0</ele><time>2026-04-05T15:55:55.999Z</time></trkpt><trkpt lat="34.256399581508276" lon="9.986622697676586"><ele>20.0</ele><time>2026-04-05T15:55:56.999Z</time></trkpt><trkpt lat="34.25612939345414" lon="9.986573001028928"><ele>20.0</ele><time>2026-04-05T15:55:57.999Z</time></trkpt><trkpt lat="34.25585879298415" lon="9.98652059908424"><ele>20.0</ele><time>2026-04-05T15:55:58.999Z</time></trkpt><trkpt lat="34.25558125720021" lon="9.986468662730507"><ele>20.0</ele><time>2026-04-05T15:55:59.999Z</time></trkpt><trkpt lat="34.25530562699425" lon="9.986415645093555"><ele>20.0</ele><time>2026-04-05T15:56:00.999Z</time></trkpt><trkpt lat="34.25502578716202" lon="9.986358893430703"><ele>20.0</ele><time>2026-04-05T15:56:01.999Z</time></trkpt><trkpt lat="34.25474627242749" lon="9.98630498340126"><ele>20.5</ele><time>2026-04-05T15:56:02.999Z</time></trkpt><trkpt lat="34.2544654599177" lon="9.986250022713563"><ele>21.0</ele><time>2026-04-05T15:56:03.999Z</time></trkpt><trkpt lat="34.2541846872147" lon="9.986198491790024"><ele>21.5</ele><time>2026-04-05T15:56:04.999Z</time></trkpt><trkpt lat="34.25390040908018" lon="9.986148458860626"><ele>22.0</ele><time>2026-04-05T15:56:05.999Z</time></trkpt><trkpt lat="34.253618284831695" lon="9.986095969530625"><ele>22.0</ele><time>2026-04-05T15:56:06.999Z</time></trkpt><trkpt lat="34.253333584007244" lon="9.986043012335694"><ele>22.0</ele><time>2026-04-05T15:56:07.999Z</time></trkpt><trkpt lat="34.253046473417314" lon="9.985989618234656"><ele>22.0</ele><time>2026-04-05T15:56:08.999Z</time></trkpt><trkpt lat="34.2527603750591" lon="9.985937975348268"><ele>22.0</ele><time>2026-04-05T15:56:09.999Z</time></trkpt><trkpt lat="34.25247349798886" lon="9.985885750863932"><ele>22.5</ele><time>2026-04-05T15:56:10.999Z</time></trkpt><trkpt lat="34.252186116040015" lon="9.98583128927503"><ele>23.0</ele><time>2026-04-05T15:56:11.999Z</time></trkpt><trkpt lat="34.25189462995568" lon="9.985774404788035"><ele>23.0</ele><time>2026-04-05T15:56:12.999Z</time></trkpt><trkpt lat="34.251600003231744" lon="9.985721598375756"><ele>23.0</ele><time>2026-04-05T15:56:13.999Z</time></trkpt><trkpt lat="34.25131023016156" lon="9.985669154509443"><ele>23.5</ele><time>2026-04-05T15:56:14.999Z</time></trkpt><trkpt lat="34.25102044239358" lon="9.985614215333221"><ele>24.0</ele><time>2026-04-05T15:56:15.999Z</time></trkpt><trkpt lat="34.25073506982402" lon="9.985559829244343"><ele>24.5</ele><time>2026-04-05T15:56:16.999Z</time></trkpt><trkpt lat="34.250453826703115" lon="9.98550957106673"><ele>25.0</ele><time>2026-04-05T15:56:17.999Z</time></trkpt><trkpt lat="34.250174545693" lon="9.985459662752907"><ele>25.0</ele><time>2026-04-05T15:56:18.999Z</time></trkpt><trkpt lat="34.249899912766764" lon="9.985406139068285"><ele>25.0</ele><time>2026-04-05T15:56:19.999Z</time></trkpt><trkpt lat="34.249619921955464" lon="9.985352454498727"><ele>26.5</ele><time>2026-04-05T15:56:20.999Z</time></trkpt><trkpt lat="34.24934716156474" lon="9.985297572654543"><ele>28.0</ele><time>2026-04-05T15:56:21.999Z</time></trkpt><trkpt lat="34.24908209170415" lon="9.985243654719431"><ele>30.0</ele><time>2026-04-05T15:56:22.999Z</time></trkpt><trkpt lat="34.24881427218912" lon="9.985194512951734"><ele>32.0</ele><time>2026-04-05T15:56:23.999Z</time></trkpt><trkpt lat="34.24854763433868" lon="9.985146663405207"><ele>32.0</ele><time>2026-04-05T15:56:24.999Z</time></trkpt><trkpt lat="34.248282777532914" lon="9.98509805099219"><ele>32.0</ele><time>2026-04-05T15:56:25.999Z</time></trkpt><trkpt lat="34.2480189322985" lon="9.985051469274843"><ele>32.0</ele><time>2026-04-05T15:56:26.999Z</time></trkpt><trkpt lat="34.247757925754925" lon="9.985004798635792"><ele>32.0</ele><time>2026-04-05T15:56:27.999Z</time></trkpt><trkpt lat="34.24750101158887" lon="9.984964632865678"><ele>32.5</ele><time>2026-04-05T15:56:28.999Z</time></trkpt><trkpt lat="34.24723472844508" lon="9.984919917833711"><ele>33.0</ele><time>2026-04-05T15:56:29.999Z</time></trkpt><trkpt lat="34.24696761539673" lon="9.984866690515087"><ele>33.0</ele><time>2026-04-05T15:56:30.999Z</time></trkpt><trkpt lat="34.246699657437915" lon="9.984812572853322"><ele>33.0</ele><time>2026-04-05T15:56:31.999Z</time></trkpt><trkpt lat="34.24643081701166" lon="9.98476503195816"><ele>33.5</ele><time>2026-04-05T15:56:32.999Z</time></trkpt><trkpt lat="34.246160516718554" lon="9.984714972101235"><ele>34.0</ele><time>2026-04-05T15:56:33.999Z</time></trkpt><trkpt lat="34.245889590599205" lon="9.984664830064688"><ele>34.0</ele><time>2026-04-05T15:56:34.999Z</time></trkpt><trkpt lat="34.24562040654356" lon="9.984613014607772"><ele>34.0</ele><time>2026-04-05T15:56:35.999Z</time></trkpt><trkpt lat="34.24534704450642" lon="9.984560356439625"><ele>34.0</ele><time>2026-04-05T15:56:36.999Z</time></trkpt><trkpt lat="34.245068528969085" lon="9.984509770644815"><ele>34.0</ele><time>2026-04-05T15:56:37.999Z</time></trkpt><trkpt lat="34.2447875222408" lon="9.984460434803841"><ele>33.5</ele><time>2026-04-05T15:56:38.999Z</time></trkpt><trkpt lat="34.24450544959966" lon="9.984408858542755"><ele>33.0</ele><time>2026-04-05T15:56:39.999Z</time></trkpt><trkpt lat="34.24421863941323" lon="9.9843568100632"><ele>33.5</ele><time>2026-04-05T15:56:40.999Z</time></trkpt><trkpt lat="34.24393234413188" lon="9.984301924259094"><ele>34.0</ele><time>2026-04-05T15:56:41.999Z</time></trkpt><trkpt lat="34.2436446164194" lon="9.984247304588315"><ele>34.0</ele><time>2026-04-05T15:56:42.999Z</time></trkpt><trkpt lat="34.24335513425859" lon="9.98419047493456"><ele>34.0</ele><time>2026-04-05T15:56:43.999Z</time></trkpt><trkpt lat="34.24306625483989" lon="9.984137384996142"><ele>33.5</ele><time>2026-04-05T15:56:44.999Z</time></trkpt><trkpt lat="34.24278097481047" lon="9.984086161033026"><ele>33.0</ele><time>2026-04-05T15:56:45.999Z</time></trkpt><trkpt lat="34.24250716707826" lon="9.984036696956759"><ele>32.5</ele><time>2026-04-05T15:56:46.999Z</time></trkpt><trkpt lat="34.24224520063884" lon="9.983986847770272"><ele>32.0</ele><time>2026-04-05T15:56:47.999Z</time></trkpt><trkpt lat="34.241988143908586" lon="9.983937347538868"><ele>32.0</ele><time>2026-04-05T15:56:48.999Z</time></trkpt><trkpt lat="34.24173190650472" lon="9.983893161946552"><ele>32.0</ele><time>2026-04-05T15:56:49.999Z</time></trkpt><trkpt lat="34.24147227785055" lon="9.983847652877284"><ele>31.0</ele><time>2026-04-05T15:56:50.999Z</time></trkpt><trkpt lat="34.24121071350574" lon="9.9838030498423"><ele>30.0</ele><time>2026-04-05T15:56:51.999Z</time></trkpt><trkpt lat="34.24095084682511" lon="9.983757508281286"><ele>30.0</ele><time>2026-04-05T15:56:53Z</time></trkpt><trkpt lat="34.24069485508311" lon="9.98371219906481"><ele>30.0</ele><time>2026-04-05T15:56:54Z</time></trkpt><trkpt lat="34.24043770120872" lon="9.98366798790566"><ele>27.0</ele><time>2026-04-05T15:56:55Z</time></trkpt><trkpt lat="34.240178245024296" lon="9.983626655471905"><ele>24.0</ele><time>2026-04-05T15:56:56Z</time></trkpt><trkpt lat="34.239922707341755" lon="9.983587459058935"><ele>22.5</ele><time>2026-04-05T15:56:57Z</time></trkpt><trkpt lat="34.239660315795554" lon="9.983546074054654"><ele>21.0</ele><time>2026-04-05T15:56:58Z</time></trkpt><trkpt lat="34.239394976715495" lon="9.983503357162766"><ele>21.0</ele><time>2026-04-05T15:56:59Z</time></trkpt><trkpt lat="34.23912156283708" lon="9.983461158325802"><ele>21.0</ele><time>2026-04-05T15:57:00Z</time></trkpt><trkpt lat="34.23884393753855" lon="9.983424203998373"><ele>21.0</ele><time>2026-04-05T15:57:01Z</time></trkpt><trkpt lat="34.238560801258615" lon="9.98339300139377"><ele>21.0</ele><time>2026-04-05T15:57:02Z</time></trkpt><trkpt lat="34.23827464515653" lon="9.983362388526384"><ele>22.5</ele><time>2026-04-05T15:57:03Z</time></trkpt><trkpt lat="34.23798678376428" lon="9.983330326940623"><ele>24.0</ele><time>2026-04-05T15:57:04Z</time></trkpt><trkpt lat="34.23769297405391" lon="9.983299612210663"><ele>24.0</ele><time>2026-04-05T15:57:05Z</time></trkpt><trkpt lat="34.23739920809221" lon="9.98327489508716"><ele>24.0</ele><time>2026-04-05T15:57:06Z</time></trkpt><trkpt lat="34.237106916702096" lon="9.983251911961451"><ele>24.0</ele><time>2026-04-05T15:57:07Z</time></trkpt><trkpt lat="34.236813831782" lon="9.983231084383112"><ele>24.0</ele><time>2026-04-05T15:57:08Z</time></trkpt><trkpt lat="34.236519106726576" lon="9.983210579874287"><ele>24.0</ele><time>2026-04-05T15:57:09Z</time></trkpt><trkpt lat="34.23622392301547" lon="9.983194891948475"><ele>24.0</ele><time>2026-04-05T15:57:10Z</time></trkpt><trkpt lat="34.235930039170725" lon="9.983182482577394"><ele>24.5</ele><time>2026-04-05T15:57:11Z</time></trkpt><trkpt lat="34.235636407871944" lon="9.983170749945556"><ele>25.0</ele><time>2026-04-05T15:57:12Z</time></trkpt><trkpt lat="34.23534143208348" lon="9.983158308498167"><ele>25.0</ele><time>2026-04-05T15:57:13Z</time></trkpt><trkpt lat="34.235049271053455" lon="9.983145889661342"><ele>25.0</ele><time>2026-04-05T15:57:14Z</time></trkpt><trkpt lat="34.23476069671163" lon="9.983130322090608"><ele>24.0</ele><time>2026-04-05T15:57:15Z</time></trkpt><trkpt lat="34.23447591192724" lon="9.983119421381701"><ele>23.0</ele><time>2026-04-05T15:57:16Z</time></trkpt><trkpt lat="34.234195746734585" lon="9.983104621339063"><ele>23.0</ele><time>2026-04-05T15:57:17Z</time></trkpt><trkpt lat="34.23391352807043" lon="9.98309280182018"><ele>23.0</ele><time>2026-04-05T15:57:18Z</time></trkpt><trkpt lat="34.23362981112657" lon="9.983082889672712"><ele>23.0</ele><time>2026-04-05T15:57:19Z</time></trkpt><trkpt lat="34.233344318852176" lon="9.983069527944137"><ele>23.0</ele><time>2026-04-05T15:57:20Z</time></trkpt><trkpt lat="34.23305786993158" lon="9.98305596483402"><ele>23.5</ele><time>2026-04-05T15:57:21Z</time></trkpt><trkpt lat="34.23277404115922" lon="9.98304739775596"><ele>24.0</ele><time>2026-04-05T15:57:22Z</time></trkpt><trkpt lat="34.23249450520048" lon="9.983038670160127"><ele>25.0</ele><time>2026-04-05T15:57:23Z</time></trkpt><trkpt lat="34.23221409282412" lon="9.983032692963492"><ele>26.0</ele><time>2026-04-05T15:57:24Z</time></trkpt><trkpt lat="34.2319391652399" lon="9.983020808612734"><ele>26.0</ele><time>2026-04-05T15:57:25Z</time></trkpt><trkpt lat="34.23166533725665" lon="9.983007122041935"><ele>26.0</ele><time>2026-04-05T15:57:26Z</time></trkpt><trkpt lat="34.231393441426874" lon="9.982994164636105"><ele>24.5</ele><time>2026-04-05T15:57:27Z</time></trkpt><trkpt lat="34.23111683994667" lon="9.982984325537899"><ele>23.0</ele><time>2026-04-05T15:57:28Z</time></trkpt><trkpt lat="34.23084213066761" lon="9.982972661484492"><ele>23.5</ele><time>2026-04-05T15:57:29Z</time></trkpt><trkpt lat="34.23056411773097" lon="9.982961046660359"><ele>24.0</ele><time>2026-04-05T15:57:30Z</time></trkpt><trkpt lat="34.23028623244172" lon="9.982946967960249"><ele>24.0</ele><time>2026-04-05T15:57:31Z</time></trkpt><trkpt lat="34.23001180981278" lon="9.98293543395914"><ele>24.0</ele><time>2026-04-05T15:57:32Z</time></trkpt><trkpt lat="34.2297366418126" lon="9.982925099321683"><ele>24.5</ele><time>2026-04-05T15:57:33Z</time></trkpt><trkpt lat="34.22945798700026" lon="9.982914231647912"><ele>25.0</ele><time>2026-04-05T15:57:34Z</time></trkpt><trkpt lat="34.229175820351756" lon="9.982903553434301"><ele>25.0</ele><time>2026-04-05T15:57:35Z</time></trkpt><trkpt lat="34.22889532073776" lon="9.982892115498204"><ele>25.0</ele><time>2026-04-05T15:57:36Z</time></trkpt><trkpt lat="34.228609108650396" lon="9.982882389491195"><ele>25.0</ele><time>2026-04-05T15:57:37Z</time></trkpt><trkpt lat="34.22832317513176" lon="9.982875012535263"><ele>25.0</ele><time>2026-04-05T15:57:38Z</time></trkpt><trkpt lat="34.22804052053652" lon="9.982863177270433"><ele>23.5</ele><time>2026-04-05T15:57:39Z</time></trkpt><trkpt lat="34.22775682689705" lon="9.982850125950261"><ele>22.0</ele><time>2026-04-05T15:57:40Z</time></trkpt><trkpt lat="34.22747081281851" lon="9.982835362128249"><ele>22.0</ele><time>2026-04-05T15:57:41Z</time></trkpt><trkpt lat="34.22718622748907" lon="9.982820647204807"><ele>22.0</ele><time>2026-04-05T15:57:42Z</time></trkpt><trkpt lat="34.226900086028365" lon="9.982805786671381"><ele>22.0</ele><time>2026-04-05T15:57:43Z</time></trkpt><trkpt lat="34.2266147432686" lon="9.98279246267603"><ele>22.0</ele><time>2026-04-05T15:57:43.999Z</time></trkpt><trkpt lat="34.22632796612891" lon="9.982778265374606"><ele>22.0</ele><time>2026-04-05T15:57:44.999Z</time></trkpt><trkpt lat="34.22604190338076" lon="9.98276691009683"><ele>22.0</ele><time>2026-04-05T15:57:45.999Z</time></trkpt><trkpt lat="34.225756494872954" lon="9.982753717187604"><ele>22.0</ele><time>2026-04-05T15:57:46.999Z</time></trkpt><trkpt lat="34.225470542670564" lon="9.982738285721645"><ele>22.0</ele><time>2026-04-05T15:57:47.999Z</time></trkpt><trkpt lat="34.225186522143694" lon="9.98272010562161"><ele>22.0</ele><time>2026-04-05T15:57:48.999Z</time></trkpt><trkpt lat="34.22490371607379" lon="9.982699422663169"><ele>22.0</ele><time>2026-04-05T15:57:49.999Z</time></trkpt><trkpt lat="34.22462235810145" lon="9.982676351242619"><ele>24.0</ele><time>2026-04-05T15:57:50.999Z</time></trkpt><trkpt lat="34.224343495850306" lon="9.982651895396323"><ele>26.0</ele><time>2026-04-05T15:57:51.999Z</time></trkpt><trkpt lat="34.22406565398709" lon="9.982626256463446"><ele>26.0</ele><time>2026-04-05T15:57:52.999Z</time></trkpt><trkpt lat="34.223792905480416" lon="9.982600999981583"><ele>26.0</ele><time>2026-04-05T15:57:53.999Z</time></trkpt><trkpt lat="34.22352043733652" lon="9.982579882968045"><ele>26.0</ele><time>2026-04-05T15:57:54.999Z</time></trkpt><trkpt lat="34.22324508004386" lon="9.982556928711256"><ele>26.0</ele><time>2026-04-05T15:57:55.999Z</time></trkpt><trkpt lat="34.22297006898489" lon="9.982533048161057"><ele>25.5</ele><time>2026-04-05T15:57:56.999Z</time></trkpt><trkpt lat="34.22269611572627" lon="9.982507826785609"><ele>25.0</ele><time>2026-04-05T15:57:57.999Z</time></trkpt><trkpt lat="34.22242114812872" lon="9.98247863609474"><ele>25.0</ele><time>2026-04-05T15:57:58.999Z</time></trkpt><trkpt lat="34.22214462683448" lon="9.982445218022526"><ele>25.0</ele><time>2026-04-05T15:57:59.999Z</time></trkpt><trkpt lat="34.22186923463098" lon="9.982413068770667"><ele>25.0</ele><time>2026-04-05T15:58:00.999Z</time></trkpt><trkpt lat="34.2215945788571" lon="9.982383274518156"><ele>25.0</ele><time>2026-04-05T15:58:01.999Z</time></trkpt><trkpt lat="34.22131792346409" lon="9.98235143661006"><ele>26.0</ele><time>2026-04-05T15:58:02.999Z</time></trkpt><trkpt lat="34.22104830058332" lon="9.982316682932282"><ele>27.0</ele><time>2026-04-05T15:58:03.999Z</time></trkpt><trkpt lat="34.22077694100021" lon="9.98228218576772"><ele>27.0</ele><time>2026-04-05T15:58:04.999Z</time></trkpt><trkpt lat="34.22050642695111" lon="9.982248525723607"><ele>27.0</ele><time>2026-04-05T15:58:05.999Z</time></trkpt><trkpt lat="34.220237266225524" lon="9.982216453329988"><ele>27.0</ele><time>2026-04-05T15:58:06.999Z</time></trkpt><trkpt lat="34.219966535667645" lon="9.982183547665402"><ele>27.0</ele><time>2026-04-05T15:58:07.999Z</time></trkpt><trkpt lat="34.21969816598208" lon="9.98215102975582"><ele>27.0</ele><time>2026-04-05T15:58:08.999Z</time></trkpt><trkpt lat="34.21942773936473" lon="9.982117043723568"><ele>27.0</ele><time>2026-04-05T15:58:09.999Z</time></trkpt><trkpt lat="34.219158619653854" lon="9.982081971979756"><ele>26.5</ele><time>2026-04-05T15:58:10.999Z</time></trkpt><trkpt lat="34.218888057815434" lon="9.982041787956117"><ele>26.0</ele><time>2026-04-05T15:58:11.999Z</time></trkpt><trkpt lat="34.21861718746224" lon="9.981999603201329"><ele>26.0</ele><time>2026-04-05T15:58:12.999Z</time></trkpt><trkpt lat="34.2183499067933" lon="9.981958160948563"><ele>26.0</ele><time>2026-04-05T15:58:13.999Z</time></trkpt><trkpt lat="34.2181023684604" lon="9.981921165448357"><ele>26.5</ele><time>2026-04-05T15:58:14.999Z</time></trkpt><trkpt lat="34.21786577877696" lon="9.98188657986952"><ele>27.0</ele><time>2026-04-05T15:58:15.999Z</time></trkpt><trkpt lat="34.21763544564821" lon="9.98184952049297"><ele>27.0</ele><time>2026-04-05T15:58:16.999Z</time></trkpt><trkpt lat="34.2174032442214" lon="9.98181158311735"><ele>27.0</ele><time>2026-04-05T15:58:17.999Z</time></trkpt><trkpt lat="34.21717658152725" lon="9.98177531704195"><ele>27.0</ele><time>2026-04-05T15:58:18.999Z</time></trkpt><trkpt lat="34.21696362253194" lon="9.981738311354047"><ele>27.0</ele><time>2026-04-05T15:58:19.999Z</time></trkpt><trkpt lat="34.21676125708348" lon="9.98170607463298"><ele>27.0</ele><time>2026-04-05T15:58:20.999Z</time></trkpt><trkpt lat="34.21657129542747" lon="9.981676636182389"><ele>27.333333333333336</ele><time>2026-04-05T15:58:21.999Z</time></trkpt><trkpt lat="34.21638047768838" lon="9.981647759180305"><ele>27.666666666666668</ele><time>2026-04-05T15:58:22.999Z</time></trkpt><trkpt lat="34.21619207371551" lon="9.981618744605342"><ele>28.0</ele><time>2026-04-05T15:58:23.999Z</time></trkpt><trkpt lat="34.21600965817151" lon="9.981591313451139"><ele>28.0</ele><time>2026-04-05T15:58:24.999Z</time></trkpt><trkpt lat="34.21583130915798" lon="9.981565585314716"><ele>28.0</ele><time>2026-04-05T15:58:25.999Z</time></trkpt><trkpt lat="34.21565300317288" lon="9.981540948515834"><ele>28.0</ele><time>2026-04-05T15:58:26.999Z</time></trkpt><trkpt lat="34.215476279526655" lon="9.9815171412137"><ele>27.333333333333336</ele><time>2026-04-05T15:58:27.999Z</time></trkpt><trkpt lat="34.215302729842655" lon="9.981493596420986"><ele>26.666666666666664</ele><time>2026-04-05T15:58:28.999Z</time></trkpt><trkpt lat="34.215126108978" lon="9.981467633984023"><ele>26.0</ele><time>2026-04-05T15:58:29.999Z</time></trkpt><trkpt lat="34.21494946427691" lon="9.98143919467636"><ele>26.0</ele><time>2026-04-05T15:58:30.999Z</time></trkpt><trkpt lat="34.21477109040141" lon="9.981411805011874"><ele>26.0</ele><time>2026-04-05T15:58:31.999Z</time></trkpt><trkpt lat="34.21459254230757" lon="9.981385800042492"><ele>26.0</ele><time>2026-04-05T15:58:32.999Z</time></trkpt><trkpt lat="34.21441248368796" lon="9.9813608594975"><ele>26.0</ele><time>2026-04-05T15:58:33.999Z</time></trkpt><trkpt lat="34.2142332505837" lon="9.981334941306507"><ele>26.0</ele><time>2026-04-05T15:58:34.999Z</time></trkpt><trkpt lat="34.21405074747538" lon="9.981306766213454"><ele>26.0</ele><time>2026-04-05T15:58:35.999Z</time></trkpt><trkpt lat="34.21386210837978" lon="9.98127980770008"><ele>26.0</ele><time>2026-04-05T15:58:36.999Z</time></trkpt><trkpt lat="34.213669421835796" lon="9.98125046083657"><ele>26.0</ele><time>2026-04-05T15:58:37.999Z</time></trkpt><trkpt lat="34.21347324251053" lon="9.98121759292176"><ele>26.0</ele><time>2026-04-05T15:58:38.999Z</time></trkpt><trkpt lat="34.21326913497434" lon="9.981183619372926"><ele>25.666666666666664</ele><time>2026-04-05T15:58:39.999Z</time></trkpt><trkpt lat="34.21306074400685" lon="9.981151168058778"><ele>25.333333333333336</ele><time>2026-04-05T15:58:40.999Z</time></trkpt><trkpt lat="34.212841173202854" lon="9.9811186117421"><ele>25.0</ele><time>2026-04-05T15:58:41.999Z</time></trkpt><trkpt lat="34.21261373453054" lon="9.981086938573075"><ele>25.0</ele><time>2026-04-05T15:58:42.999Z</time></trkpt><trkpt lat="34.212370504686085" lon="9.981053370341547"><ele>25.0</ele><time>2026-04-05T15:58:43.999Z</time></trkpt><trkpt lat="34.21211896048357" lon="9.981016084494895"><ele>25.0</ele><time>2026-04-05T15:58:44.999Z</time></trkpt><trkpt lat="34.2118559378979" lon="9.980977731424522"><ele>25.0</ele><time>2026-04-05T15:58:45.999Z</time></trkpt><trkpt lat="34.2115798855659" lon="9.980934322349"><ele>25.5</ele><time>2026-04-05T15:58:46.999Z</time></trkpt><trkpt lat="34.211304563574444" lon="9.98089308160861"><ele>26.0</ele><time>2026-04-05T15:58:47.999Z</time></trkpt><trkpt lat="34.21102323232221" lon="9.98085222214448"><ele>26.0</ele><time>2026-04-05T15:58:48.999Z</time></trkpt><trkpt lat="34.2107371892217" lon="9.980814473663875"><ele>26.0</ele><time>2026-04-05T15:58:49.999Z</time></trkpt><trkpt lat="34.21044869828829" lon="9.98077845765545"><ele>26.0</ele><time>2026-04-05T15:58:50.999Z</time></trkpt><trkpt lat="34.21016824373038" lon="9.98074228335823"><ele>26.0</ele><time>2026-04-05T15:58:51.999Z</time></trkpt><trkpt lat="34.20988294197411" lon="9.9807033508539"><ele>25.5</ele><time>2026-04-05T15:58:52.999Z</time></trkpt><trkpt lat="34.20959338524932" lon="9.980661423128637"><ele>25.0</ele><time>2026-04-05T15:58:53.999Z</time></trkpt><trkpt lat="34.20930325570933" lon="9.980621062919028"><ele>25.0</ele><time>2026-04-05T15:58:54.999Z</time></trkpt><trkpt lat="34.20900878994981" lon="9.980581840523316"><ele>25.0</ele><time>2026-04-05T15:58:55.999Z</time></trkpt><trkpt lat="34.20871631427364" lon="9.98054170068359"><ele>25.0</ele><time>2026-04-05T15:58:56.999Z</time></trkpt><trkpt lat="34.208423126040145" lon="9.980497937166358"><ele>25.0</ele><time>2026-04-05T15:58:57.999Z</time></trkpt><trkpt lat="34.20813007304616" lon="9.980451633646336"><ele>24.0</ele><time>2026-04-05T15:58:59Z</time></trkpt><trkpt lat="34.207836002401436" lon="9.980404606411527"><ele>23.0</ele><time>2026-04-05T15:59:00Z</time></trkpt><trkpt lat="34.207543622889865" lon="9.980358569833545"><ele>23.0</ele><time>2026-04-05T15:59:01Z</time></trkpt><trkpt lat="34.20725232224776" lon="9.980314704862792"><ele>23.0</ele><time>2026-04-05T15:59:02Z</time></trkpt><trkpt lat="34.206961121708574" lon="9.980271270246943"><ele>23.0</ele><time>2026-04-05T15:59:03Z</time></trkpt><trkpt lat="34.206668739505304" lon="9.980227472913919"><ele>23.0</ele><time>2026-04-05T15:59:04Z</time></trkpt><trkpt lat="34.206376877507395" lon="9.98018368861049"><ele>23.0</ele><time>2026-04-05T15:59:05Z</time></trkpt><trkpt lat="34.20608370061709" lon="9.980139837883213"><ele>23.0</ele><time>2026-04-05T15:59:06Z</time></trkpt><trkpt lat="34.20579261889517" lon="9.980094989383858"><ele>23.0</ele><time>2026-04-05T15:59:07Z</time></trkpt><trkpt lat="34.20550203715122" lon="9.980049059911918"><ele>23.0</ele><time>2026-04-05T15:59:08Z</time></trkpt><trkpt lat="34.20520890777517" lon="9.980004725719704"><ele>23.0</ele><time>2026-04-05T15:59:09Z</time></trkpt><trkpt lat="34.20491831764365" lon="9.979958969023384"><ele>23.0</ele><time>2026-04-05T15:59:10Z</time></trkpt><trkpt lat="34.20462641960043" lon="9.979913451554005"><ele>23.0</ele><time>2026-04-05T15:59:11Z</time></trkpt><trkpt lat="34.20433344333058" lon="9.979869126347038"><ele>23.0</ele><time>2026-04-05T15:59:12Z</time></trkpt><trkpt lat="34.2040417131262" lon="9.979825325828305"><ele>23.5</ele><time>2026-04-05T15:59:13Z</time></trkpt><trkpt lat="34.20375008831359" lon="9.979782825445524"><ele>24.0</ele><time>2026-04-05T15:59:14Z</time></trkpt><trkpt lat="34.203455496274024" lon="9.979736377289546"><ele>25.0</ele><time>2026-04-05T15:59:15Z</time></trkpt><trkpt lat="34.20316357790946" lon="9.979687366445328"><ele>26.0</ele><time>2026-04-05T15:59:16Z</time></trkpt><trkpt lat="34.20287340235178" lon="9.979635267434556"><ele>26.0</ele><time>2026-04-05T15:59:17Z</time></trkpt><trkpt lat="34.2025781469395" lon="9.979583959907975"><ele>26.0</ele><time>2026-04-05T15:59:18Z</time></trkpt><trkpt lat="34.20228654133889" lon="9.97953893762202"><ele>25.5</ele><time>2026-04-05T15:59:19Z</time></trkpt><trkpt lat="34.201993434405615" lon="9.979497979473924"><ele>25.0</ele><time>2026-04-05T15:59:20Z</time></trkpt><trkpt lat="34.2017013560547" lon="9.979455993026088"><ele>25.5</ele><time>2026-04-05T15:59:21Z</time></trkpt><trkpt lat="34.20140875430564" lon="9.979414192611483"><ele>26.0</ele><time>2026-04-05T15:59:22Z</time></trkpt><trkpt lat="34.20111590019187" lon="9.979372133031319"><ele>26.0</ele><time>2026-04-05T15:59:23Z</time></trkpt><trkpt lat="34.20082363311808" lon="9.979328064841466"><ele>26.0</ele><time>2026-04-05T15:59:24Z</time></trkpt><trkpt lat="34.20053279926506" lon="9.979282843630312"><ele>26.0</ele><time>2026-04-05T15:59:25Z</time></trkpt><trkpt lat="34.200240579214785" lon="9.97923798953202"><ele>26.0</ele><time>2026-04-05T15:59:26Z</time></trkpt><trkpt lat="34.19994864858376" lon="9.979190012809642"><ele>26.5</ele><time>2026-04-05T15:59:27Z</time></trkpt><trkpt lat="34.19965629437018" lon="9.979142582133097"><ele>27.0</ele><time>2026-04-05T15:59:28Z</time></trkpt><trkpt lat="34.19936363140349" lon="9.979094328873023"><ele>27.0</ele><time>2026-04-05T15:59:29Z</time></trkpt><trkpt lat="34.199081017959806" lon="9.97904523476897"><ele>27.0</ele><time>2026-04-05T15:59:30Z</time></trkpt><trkpt lat="34.19880647973047" lon="9.978995557366229"><ele>27.0</ele><time>2026-04-05T15:59:31Z</time></trkpt><trkpt lat="34.19853122460645" lon="9.978945615919358"><ele>27.0</ele><time>2026-04-05T15:59:32Z</time></trkpt><trkpt lat="34.19825450416904" lon="9.978896152533903"><ele>27.5</ele><time>2026-04-05T15:59:33Z</time></trkpt><trkpt lat="34.197978675118115" lon="9.978847062666784"><ele>28.0</ele><time>2026-04-05T15:59:34Z</time></trkpt><trkpt lat="34.19770428930741" lon="9.978797557395987"><ele>28.0</ele><time>2026-04-05T15:59:35Z</time></trkpt><trkpt lat="34.19743001768858" lon="9.978748559658706"><ele>28.0</ele><time>2026-04-05T15:59:36Z</time></trkpt><trkpt lat="34.197152085663234" lon="9.978697701610065"><ele>26.0</ele><time>2026-04-05T15:59:37Z</time></trkpt><trkpt lat="34.19687517927527" lon="9.978645018291452"><ele>24.0</ele><time>2026-04-05T15:59:38Z</time></trkpt><trkpt lat="34.19659891381909" lon="9.978593339838724"><ele>22.5</ele><time>2026-04-05T15:59:39Z</time></trkpt><trkpt lat="34.19632179591611" lon="9.978542355515655"><ele>21.0</ele><time>2026-04-05T15:59:40Z</time></trkpt><trkpt lat="34.19604528407957" lon="9.978489804305845"><ele>21.0</ele><time>2026-04-05T15:59:41Z</time></trkpt><trkpt lat="34.19576754779725" lon="9.978438166055732"><ele>21.0</ele><time>2026-04-05T15:59:42Z</time></trkpt><trkpt lat="34.19548831526724" lon="9.97838756489343"><ele>20.5</ele><time>2026-04-05T15:59:42.999Z</time></trkpt><trkpt lat="34.19520769354806" lon="9.978338769064278"><ele>20.0</ele><time>2026-04-05T15:59:43.999Z</time></trkpt><trkpt lat="34.19492834369279" lon="9.978286193274705"><ele>18.5</ele><time>2026-04-05T15:59:44.999Z</time></trkpt><trkpt lat="34.19465205664683" lon="9.97822907915047"><ele>17.0</ele><time>2026-04-05T15:59:45.999Z</time></trkpt><trkpt lat="34.1943760808617" lon="9.978164819443789"><ele>17.0</ele><time>2026-04-05T15:59:46.999Z</time></trkpt><trkpt lat="34.19409733875652" lon="9.978098018586268"><ele>17.0</ele><time>2026-04-05T15:59:47.999Z</time></trkpt><trkpt lat="34.19382093672364" lon="9.978026802326603"><ele>15.5</ele><time>2026-04-05T15:59:48.999Z</time></trkpt><trkpt lat="34.19354641265784" lon="9.977952678545872"><ele>14.0</ele><time>2026-04-05T15:59:49.999Z</time></trkpt><trkpt lat="34.19327587967257" lon="9.977874027285532"><ele>14.0</ele><time>2026-04-05T15:59:50.999Z</time></trkpt><trkpt lat="34.19300474581032" lon="9.977791232701522"><ele>14.0</ele><time>2026-04-05T15:59:51.999Z</time></trkpt><trkpt lat="34.19273235688037" lon="9.977706754738167"><ele>14.0</ele><time>2026-04-05T15:59:52.999Z</time></trkpt><trkpt lat="34.19246329032789" lon="9.977620986586603"><ele>14.0</ele><time>2026-04-05T15:59:53.999Z</time></trkpt><trkpt lat="34.192193329407104" lon="9.977538479984224"><ele>13.0</ele><time>2026-04-05T15:59:54.999Z</time></trkpt><trkpt lat="34.19192310966016" lon="9.977456803122962"><ele>12.0</ele><time>2026-04-05T15:59:55.999Z</time></trkpt><trkpt lat="34.19165570129631" lon="9.977374855478883"><ele>11.5</ele><time>2026-04-05T15:59:56.999Z</time></trkpt><trkpt lat="34.191387474551696" lon="9.977293127060284"><ele>11.0</ele><time>2026-04-05T15:59:57.999Z</time></trkpt><trkpt lat="34.191118883871916" lon="9.977212771458584"><ele>11.0</ele><time>2026-04-05T15:59:58.999Z</time></trkpt><trkpt lat="34.19085127513498" lon="9.977130359548555"><ele>11.0</ele><time>2026-04-05T15:59:59.999Z</time></trkpt><trkpt lat="34.19058318460246" lon="9.977046549723758"><ele>11.0</ele><time>2026-04-05T16:00:00.999Z</time></trkpt><trkpt lat="34.190315354450256" lon="9.976967188848816"><ele>11.0</ele><time>2026-04-05T16:00:01.999Z</time></trkpt><trkpt lat="34.1900432160179" lon="9.976894923314925"><ele>11.0</ele><time>2026-04-05T16:00:02.999Z</time></trkpt><trkpt lat="34.1897717058009" lon="9.976825232152144"><ele>11.0</ele><time>2026-04-05T16:00:03.999Z</time></trkpt><trkpt lat="34.18949717025704" lon="9.976758040510738"><ele>11.0</ele><time>2026-04-05T16:00:04.999Z</time></trkpt><trkpt lat="34.1892203600779" lon="9.97669404029167"><ele>11.0</ele><time>2026-04-05T16:00:05.999Z</time></trkpt><trkpt lat="34.18893877737861" lon="9.976635089662343"><ele>10.5</ele><time>2026-04-05T16:00:06.999Z</time></trkpt><trkpt lat="34.1886588233793" lon="9.97657968183279"><ele>10.0</ele><time>2026-04-05T16:00:07.999Z</time></trkpt><trkpt lat="34.188374669415616" lon="9.976534385585776"><ele>10.0</ele><time>2026-04-05T16:00:08.999Z</time></trkpt><trkpt lat="34.188089591719475" lon="9.976498375486054"><ele>10.0</ele><time>2026-04-05T16:00:09.999Z</time></trkpt><trkpt lat="34.187806911082404" lon="9.976464931198542"><ele>10.0</ele><time>2026-04-05T16:00:10.999Z</time></trkpt><trkpt lat="34.18752447087141" lon="9.976435919365112"><ele>10.0</ele><time>2026-04-05T16:00:11.999Z</time></trkpt><trkpt lat="34.1872449787082" lon="9.976416265408712"><ele>10.0</ele><time>2026-04-05T16:00:12.999Z</time></trkpt><trkpt lat="34.18696040608002" lon="9.976403189415908"><ele>10.0</ele><time>2026-04-05T16:00:13.999Z</time></trkpt><trkpt lat="34.186676031592974" lon="9.976388452008306"><ele>10.5</ele><time>2026-04-05T16:00:14.999Z</time></trkpt><trkpt lat="34.186392742169794" lon="9.97637589278524"><ele>11.0</ele><time>2026-04-05T16:00:15.999Z</time></trkpt><trkpt lat="34.18610742158002" lon="9.976364963421473"><ele>11.0</ele><time>2026-04-05T16:00:16.999Z</time></trkpt><trkpt lat="34.18581810200734" lon="9.976356998271012"><ele>11.0</ele><time>2026-04-05T16:00:17.999Z</time></trkpt><trkpt lat="34.185528613944975" lon="9.976349539735669"><ele>11.5</ele><time>2026-04-05T16:00:18.999Z</time></trkpt><trkpt lat="34.18524189042111" lon="9.976333506100415"><ele>12.0</ele><time>2026-04-05T16:00:19.999Z</time></trkpt><trkpt lat="34.18495603998377" lon="9.976316169361603"><ele>13.0</ele><time>2026-04-05T16:00:20.999Z</time></trkpt><trkpt lat="34.18467341854446" lon="9.976294446594794"><ele>14.0</ele><time>2026-04-05T16:00:21.999Z</time></trkpt><trkpt lat="34.18439757760623" lon="9.976270672539382"><ele>14.0</ele><time>2026-04-05T16:00:22.999Z</time></trkpt><trkpt lat="34.18412960675121" lon="9.976242921548963"><ele>14.0</ele><time>2026-04-05T16:00:23.999Z</time></trkpt><trkpt lat="34.18386387453589" lon="9.976213646007086"><ele>14.5</ele><time>2026-04-05T16:00:24.999Z</time></trkpt><trkpt lat="34.183599623538015" lon="9.97617725199901"><ele>15.0</ele><time>2026-04-05T16:00:25.999Z</time></trkpt><trkpt lat="34.18334546786772" lon="9.97614398732383"><ele>16.0</ele><time>2026-04-05T16:00:26.999Z</time></trkpt><trkpt lat="34.183091378428415" lon="9.976105554619341"><ele>17.0</ele><time>2026-04-05T16:00:27.999Z</time></trkpt><trkpt lat="34.18283541789559" lon="9.976063161882259"><ele>17.0</ele><time>2026-04-05T16:00:28.999Z</time></trkpt><trkpt lat="34.18257765605617" lon="9.976018452677772"><ele>17.0</ele><time>2026-04-05T16:00:29.999Z</time></trkpt><trkpt lat="34.182316247694835" lon="9.975971925189121"><ele>17.5</ele><time>2026-04-05T16:00:30.999Z</time></trkpt><trkpt lat="34.182053162666406" lon="9.97592611030503"><ele>18.0</ele><time>2026-04-05T16:00:31.999Z</time></trkpt><trkpt lat="34.181789551453086" lon="9.975879743459293"><ele>19.0</ele><time>2026-04-05T16:00:32.999Z</time></trkpt><trkpt lat="34.18152634152202" lon="9.975831247890635"><ele>20.0</ele><time>2026-04-05T16:00:33.999Z</time></trkpt><trkpt lat="34.18126533625407" lon="9.97578387188993"><ele>21.0</ele><time>2026-04-05T16:00:34.999Z</time></trkpt><trkpt lat="34.18100359002521" lon="9.97573721740005"><ele>22.0</ele><time>2026-04-05T16:00:35.999Z</time></trkpt><trkpt lat="34.18073569867669" lon="9.975692074727709"><ele>23.0</ele><time>2026-04-05T16:00:36.999Z</time></trkpt><trkpt lat="34.180465975969994" lon="9.975645830635207"><ele>24.0</ele><time>2026-04-05T16:00:37.999Z</time></trkpt><trkpt lat="34.18019596669044" lon="9.975596956204086"><ele>24.0</ele><time>2026-04-05T16:00:38.999Z</time></trkpt><trkpt lat="34.17991995646105" lon="9.975545718181488"><ele>24.0</ele><time>2026-04-05T16:00:39.999Z</time></trkpt><trkpt lat="34.179630358275304" lon="9.975489833033683"><ele>24.5</ele><time>2026-04-05T16:00:40.999Z</time></trkpt><trkpt lat="34.17934091817003" lon="9.975431394400378"><ele>25.0</ele><time>2026-04-05T16:00:41.999Z</time></trkpt><trkpt lat="34.17905910894206" lon="9.975371847373085"><ele>25.0</ele><time>2026-04-05T16:00:42.999Z</time></trkpt><trkpt lat="34.17878229725519" lon="9.975311516869372"><ele>25.0</ele><time>2026-04-05T16:00:43.999Z</time></trkpt><trkpt lat="34.17850741928952" lon="9.97525238177612"><ele>25.0</ele><time>2026-04-05T16:00:44.999Z</time></trkpt><trkpt lat="34.178230304964885" lon="9.975195055918467"><ele>25.0</ele><time>2026-04-05T16:00:45.999Z</time></trkpt><trkpt lat="34.1779543891348" lon="9.975141565168697"><ele>25.5</ele><time>2026-04-05T16:00:46.999Z</time></trkpt><trkpt lat="34.17767737465768" lon="9.975091701708838"><ele>26.0</ele><time>2026-04-05T16:00:47.999Z</time></trkpt><trkpt lat="34.177397325695736" lon="9.975044726301833"><ele>26.5</ele><time>2026-04-05T16:00:48.999Z</time></trkpt><trkpt lat="34.177117572298805" lon="9.974996705548362"><ele>27.0</ele><time>2026-04-05T16:00:49.999Z</time></trkpt><trkpt lat="34.1768369557222" lon="9.974947601849994"><ele>27.0</ele><time>2026-04-05T16:00:50.999Z</time></trkpt><trkpt lat="34.1765562300462" lon="9.974897718510704"><ele>27.0</ele><time>2026-04-05T16:00:51.999Z</time></trkpt><trkpt lat="34.17627351704459" lon="9.974845344625432"><ele>26.5</ele><time>2026-04-05T16:00:52.999Z</time></trkpt><trkpt lat="34.17599089419355" lon="9.974792658119947"><ele>26.0</ele><time>2026-04-05T16:00:53.999Z</time></trkpt><trkpt lat="34.17570976750121" lon="9.974741041052148"><ele>26.5</ele><time>2026-04-05T16:00:54.999Z</time></trkpt><trkpt lat="34.17542791595431" lon="9.974689909159437"><ele>27.0</ele><time>2026-04-05T16:00:55.999Z</time></trkpt><trkpt lat="34.17514662526673" lon="9.974639232080126"><ele>27.0</ele><time>2026-04-05T16:00:56.999Z</time></trkpt><trkpt lat="34.17486401862379" lon="9.974591706527244"><ele>27.0</ele><time>2026-04-05T16:00:57.999Z</time></trkpt><trkpt lat="34.174580171170405" lon="9.974544770099351"><ele>28.0</ele><time>2026-04-05T16:00:58.999Z</time></trkpt><trkpt lat="34.17429904318246" lon="9.9744954399664"><ele>29.0</ele><time>2026-04-05T16:00:59.999Z</time></trkpt><trkpt lat="34.17401687235281" lon="9.974444032735468"><ele>29.0</ele><time>2026-04-05T16:01:00.999Z</time></trkpt><trkpt lat="34.173734757946036" lon="9.974391073567402"><ele>29.0</ele><time>2026-04-05T16:01:01.999Z</time></trkpt><trkpt lat="34.17345131040558" lon="9.974342294825158"><ele>28.0</ele><time>2026-04-05T16:01:02.999Z</time></trkpt><trkpt lat="34.17317457133041" lon="9.974286808155174"><ele>27.0</ele><time>2026-04-05T16:01:03.999Z</time></trkpt><trkpt lat="34.17289921082497" lon="9.974221442173203"><ele>28.0</ele><time>2026-04-05T16:01:05Z</time></trkpt><trkpt lat="34.172628964017015" lon="9.974155364201229"><ele>29.0</ele><time>2026-04-05T16:01:06Z</time></trkpt><trkpt lat="34.17236071171835" lon="9.97409937761801"><ele>29.0</ele><time>2026-04-05T16:01:07Z</time></trkpt><trkpt lat="34.1720889637828" lon="9.97405601586662"><ele>29.0</ele><time>2026-04-05T16:01:08Z</time></trkpt><trkpt lat="34.17181802509477" lon="9.97400935869569"><ele>29.0</ele><time>2026-04-05T16:01:09Z</time></trkpt><trkpt lat="34.17154938358941" lon="9.973961341114709"><ele>29.0</ele><time>2026-04-05T16:01:10Z</time></trkpt><trkpt lat="34.17128165744362" lon="9.973908949833387"><ele>29.5</ele><time>2026-04-05T16:01:11Z</time></trkpt><trkpt lat="34.17100971150173" lon="9.9738604806042"><ele>30.0</ele><time>2026-04-05T16:01:12Z</time></trkpt><trkpt lat="34.170738751930195" lon="9.973809406517418"><ele>30.0</ele><time>2026-04-05T16:01:13Z</time></trkpt><trkpt lat="34.170470467986625" lon="9.973757112286258"><ele>30.0</ele><time>2026-04-05T16:01:14Z</time></trkpt><trkpt lat="34.17020403736289" lon="9.973705076527978"><ele>30.0</ele><time>2026-04-05T16:01:15Z</time></trkpt><trkpt lat="34.16993766200987" lon="9.973657492038095"><ele>30.0</ele><time>2026-04-05T16:01:16Z</time></trkpt><trkpt lat="34.16967146153626" lon="9.973610913876154"><ele>31.5</ele><time>2026-04-05T16:01:17Z</time></trkpt><trkpt lat="34.16940705326144" lon="9.973562707330837"><ele>33.0</ele><time>2026-04-05T16:01:18Z</time></trkpt><trkpt lat="34.16914147178301" lon="9.973515596180516"><ele>34.0</ele><time>2026-04-05T16:01:19Z</time></trkpt><trkpt lat="34.16887736714938" lon="9.973465740624714"><ele>35.0</ele><time>2026-04-05T16:01:20Z</time></trkpt><trkpt lat="34.16860596809143" lon="9.973417381888234"><ele>35.0</ele><time>2026-04-05T16:01:21Z</time></trkpt><trkpt lat="34.16833587076641" lon="9.973370050446992"><ele>35.0</ele><time>2026-04-05T16:01:22Z</time></trkpt><trkpt lat="34.16806463026889" lon="9.973321397843177"><ele>35.0</ele><time>2026-04-05T16:01:23Z</time></trkpt><trkpt lat="34.16779560203889" lon="9.973269344787472"><ele>35.0</ele><time>2026-04-05T16:01:24Z</time></trkpt><trkpt lat="34.16752592326968" lon="9.973217082918806"><ele>36.0</ele><time>2026-04-05T16:01:25Z</time></trkpt><trkpt lat="34.16725470485452" lon="9.973167132488694"><ele>37.0</ele><time>2026-04-05T16:01:26Z</time></trkpt><trkpt lat="34.16698214547687" lon="9.973117569755257"><ele>37.0</ele><time>2026-04-05T16:01:27Z</time></trkpt><trkpt lat="34.16670632177151" lon="9.973068272678606"><ele>37.0</ele><time>2026-04-05T16:01:28Z</time></trkpt><trkpt lat="34.166430542282804" lon="9.973017691959178"><ele>37.5</ele><time>2026-04-05T16:01:29Z</time></trkpt><trkpt lat="34.16615378751043" lon="9.972966932853312"><ele>38.0</ele><time>2026-04-05T16:01:30Z</time></trkpt><trkpt lat="34.16587983469312" lon="9.972911731614468"><ele>37.5</ele><time>2026-04-05T16:01:31Z</time></trkpt><trkpt lat="34.16560415058295" lon="9.972857777205611"><ele>37.0</ele><time>2026-04-05T16:01:32Z</time></trkpt><trkpt lat="34.16532604812821" lon="9.97280695013761"><ele>37.0</ele><time>2026-04-05T16:01:32.999Z</time></trkpt><trkpt lat="34.16505355780168" lon="9.97275462036136"><ele>37.0</ele><time>2026-04-05T16:01:33.999Z</time></trkpt><trkpt lat="34.16477520170968" lon="9.972702256691907"><ele>37.5</ele><time>2026-04-05T16:01:34.999Z</time></trkpt><trkpt lat="34.1645016890472" lon="9.972641025568292"><ele>38.0</ele><time>2026-04-05T16:01:35.999Z</time></trkpt><trkpt lat="34.164229272413785" lon="9.972575340004965"><ele>39.5</ele><time>2026-04-05T16:01:36.999Z</time></trkpt><trkpt lat="34.16395612586022" lon="9.972510373032364"><ele>41.0</ele><time>2026-04-05T16:01:37.999Z</time></trkpt><trkpt lat="34.163682695268434" lon="9.972444601801923"><ele>41.0</ele><time>2026-04-05T16:01:38.999Z</time></trkpt><trkpt lat="34.16340931689286" lon="9.972379109730548"><ele>41.0</ele><time>2026-04-05T16:01:39.999Z</time></trkpt><trkpt lat="34.16313520578962" lon="9.972315195567239"><ele>42.0</ele><time>2026-04-05T16:01:40.999Z</time></trkpt><trkpt lat="34.16285886372863" lon="9.972253826261655"><ele>43.0</ele><time>2026-04-05T16:01:41.999Z</time></trkpt><trkpt lat="34.16258361144039" lon="9.972190580912713"><ele>45.0</ele><time>2026-04-05T16:01:42.999Z</time></trkpt><trkpt lat="34.162307703559655" lon="9.972122940086097"><ele>47.0</ele><time>2026-04-05T16:01:43.999Z</time></trkpt><trkpt lat="34.16203175258967" lon="9.972050380566895"><ele>47.0</ele><time>2026-04-05T16:01:44.999Z</time></trkpt><trkpt lat="34.16175739094052" lon="9.971982712738972"><ele>47.0</ele><time>2026-04-05T16:01:45.999Z</time></trkpt><trkpt lat="34.161481507740284" lon="9.971914949485816"><ele>47.5</ele><time>2026-04-05T16:01:46.999Z</time></trkpt><trkpt lat="34.16120408589701" lon="9.971847451378903"><ele>48.0</ele><time>2026-04-05T16:01:47.999Z</time></trkpt><trkpt lat="34.16092625590731" lon="9.971780460358966"><ele>47.5</ele><time>2026-04-05T16:01:48.999Z</time></trkpt><trkpt lat="34.16064797010098" lon="9.971715890704422"><ele>47.0</ele><time>2026-04-05T16:01:49.999Z</time></trkpt><trkpt lat="34.160369963131785" lon="9.971650539428003"><ele>47.5</ele><time>2026-04-05T16:01:50.999Z</time></trkpt><trkpt lat="34.16009602083412" lon="9.971585149419248"><ele>48.0</ele><time>2026-04-05T16:01:51.999Z</time></trkpt><trkpt lat="34.15982420430544" lon="9.971517441780932"><ele>48.0</ele><time>2026-04-05T16:01:52.999Z</time></trkpt><trkpt lat="34.15955481734888" lon="9.971449906561917"><ele>48.0</ele><time>2026-04-05T16:01:53.999Z</time></trkpt><trkpt lat="34.15928937921411" lon="9.971384088329856"><ele>48.5</ele><time>2026-04-05T16:01:54.999Z</time></trkpt><trkpt lat="34.15902286735118" lon="9.97132242456264"><ele>49.0</ele><time>2026-04-05T16:01:55.999Z</time></trkpt><trkpt lat="34.15875468930723" lon="9.971258492115249"><ele>49.0</ele><time>2026-04-05T16:01:56.999Z</time></trkpt><trkpt lat="34.15849036217826" lon="9.971188284930653"><ele>49.0</ele><time>2026-04-05T16:01:57.999Z</time></trkpt><trkpt lat="34.15822522074225" lon="9.971108434012184"><ele>50.0</ele><time>2026-04-05T16:01:58.999Z</time></trkpt><trkpt lat="34.1579627383976" lon="9.97102663201877"><ele>51.0</ele><time>2026-04-05T16:01:59.999Z</time></trkpt><trkpt lat="34.15769515344577" lon="9.97094287241104"><ele>52.0</ele><time>2026-04-05T16:02:00.999Z</time></trkpt><trkpt lat="34.15743097627364" lon="9.97085716513623"><ele>53.0</ele><time>2026-04-05T16:02:01.999Z</time></trkpt><trkpt lat="34.15716668927618" lon="9.97076786654889"><ele>54.0</ele><time>2026-04-05T16:02:02.999Z</time></trkpt><trkpt lat="34.1569034790426" lon="9.970675629325001"><ele>55.0</ele><time>2026-04-05T16:02:03.999Z</time></trkpt><trkpt lat="34.156642992920325" lon="9.970578721989888"><ele>52.0</ele><time>2026-04-05T16:02:04.999Z</time></trkpt><trkpt lat="34.15638606549792" lon="9.970478334904726"><ele>49.0</ele><time>2026-04-05T16:02:05.999Z</time></trkpt><trkpt lat="34.15613384285672" lon="9.97037604972502"><ele>49.0</ele><time>2026-04-05T16:02:06.999Z</time></trkpt><trkpt lat="34.155884848962394" lon="9.970271858446454"><ele>49.0</ele><time>2026-04-05T16:02:07.999Z</time></trkpt><trkpt lat="34.15563839772344" lon="9.970165766112537"><ele>49.5</ele><time>2026-04-05T16:02:08.999Z</time></trkpt><trkpt lat="34.155387031006036" lon="9.970055626818102"><ele>50.0</ele><time>2026-04-05T16:02:09.999Z</time></trkpt><trkpt lat="34.155135399018846" lon="9.96993820333824"><ele>50.0</ele><time>2026-04-05T16:02:10.999Z</time></trkpt><trkpt lat="34.15487938668574" lon="9.96981606730756"><ele>50.0</ele><time>2026-04-05T16:02:11.999Z</time></trkpt><trkpt lat="34.15462362837206" lon="9.969689870619332"><ele>49.5</ele><time>2026-04-05T16:02:12.999Z</time></trkpt><trkpt lat="34.15436345325789" lon="9.9695628248871"><ele>49.0</ele><time>2026-04-05T16:02:13.999Z</time></trkpt><trkpt lat="34.15410453336782" lon="9.96943321359249"><ele>50.0</ele><time>2026-04-05T16:02:14.999Z</time></trkpt><trkpt lat="34.1538474424539" lon="9.969299150881573"><ele>51.0</ele><time>2026-04-05T16:02:15.999Z</time></trkpt><trkpt lat="34.15359220210999" lon="9.969163836271736"><ele>51.5</ele><time>2026-04-05T16:02:16.999Z</time></trkpt><trkpt lat="34.15333355114566" lon="9.969023315929977"><ele>52.0</ele><time>2026-04-05T16:02:17.999Z</time></trkpt><trkpt lat="34.15307481559154" lon="9.96888211437204"><ele>52.0</ele><time>2026-04-05T16:02:18.999Z</time></trkpt><trkpt lat="34.152815122808285" lon="9.968740548350956"><ele>52.0</ele><time>2026-04-05T16:02:19.999Z</time></trkpt><trkpt lat="34.152558529847624" lon="9.968599767100223"><ele>52.0</ele><time>2026-04-05T16:02:20.999Z</time></trkpt><trkpt lat="34.15230322637262" lon="9.968463871262477"><ele>52.0</ele><time>2026-04-05T16:02:21.999Z</time></trkpt><trkpt lat="34.15204592160095" lon="9.968330842896183"><ele>52.0</ele><time>2026-04-05T16:02:22.999Z</time></trkpt><trkpt lat="34.15179362807676" lon="9.968200519833895"><ele>52.0</ele><time>2026-04-05T16:02:23.999Z</time></trkpt><trkpt lat="34.15154155592955" lon="9.968070167876347"><ele>51.0</ele><time>2026-04-05T16:02:24.999Z</time></trkpt><trkpt lat="34.151290387824794" lon="9.96794529996093"><ele>50.0</ele><time>2026-04-05T16:02:25.999Z</time></trkpt><trkpt lat="34.15104154930327" lon="9.967824413319597"><ele>50.0</ele><time>2026-04-05T16:02:26.999Z</time></trkpt><trkpt lat="34.15078813706905" lon="9.96771056458121"><ele>50.0</ele><time>2026-04-05T16:02:27.999Z</time></trkpt><trkpt lat="34.150537459022445" lon="9.967598569997337"><ele>50.0</ele><time>2026-04-05T16:02:28.999Z</time></trkpt><trkpt lat="34.15028863293723" lon="9.967489177393118"><ele>50.0</ele><time>2026-04-05T16:02:29.999Z</time></trkpt><trkpt lat="34.150036280670896" lon="9.967381123984277"><ele>48.5</ele><time>2026-04-05T16:02:30.999Z</time></trkpt><trkpt lat="34.14978451996465" lon="9.967273718347915"><ele>47.0</ele><time>2026-04-05T16:02:31.999Z</time></trkpt><trkpt lat="34.14952933873978" lon="9.96716624725393"><ele>47.0</ele><time>2026-04-05T16:02:32.999Z</time></trkpt><trkpt lat="34.1492733900502" lon="9.967060572799166"><ele>47.0</ele><time>2026-04-05T16:02:33.999Z</time></trkpt><trkpt lat="34.149015520509984" lon="9.966957382505829"><ele>46.0</ele><time>2026-04-05T16:02:34.999Z</time></trkpt><trkpt lat="34.14875742789122" lon="9.966856836934825"><ele>45.0</ele><time>2026-04-05T16:02:35.999Z</time></trkpt><trkpt lat="34.148501369689164" lon="9.966753345226694"><ele>45.5</ele><time>2026-04-05T16:02:36.999Z</time></trkpt><trkpt lat="34.14824733893158" lon="9.966643156583194"><ele>46.0</ele><time>2026-04-05T16:02:37.999Z</time></trkpt><trkpt lat="34.14799798173464" lon="9.966525342493227"><ele>46.5</ele><time>2026-04-05T16:02:38.999Z</time></trkpt><trkpt lat="34.147750858953245" lon="9.966403951427747"><ele>47.0</ele><time>2026-04-05T16:02:39.999Z</time></trkpt><trkpt lat="34.14750182623245" lon="9.96627953200789"><ele>46.5</ele><time>2026-04-05T16:02:40.999Z</time></trkpt><trkpt lat="34.147252356437825" lon="9.966150939442025"><ele>46.0</ele><time>2026-04-05T16:02:41.999Z</time></trkpt><trkpt lat="34.14700069795193" lon="9.966020116236091"><ele>46.0</ele><time>2026-04-05T16:02:42.999Z</time></trkpt><trkpt lat="34.146749380974946" lon="9.96589087145015"><ele>46.0</ele><time>2026-04-05T16:02:43.999Z</time></trkpt><trkpt lat="34.146492231952685" lon="9.965757643093887"><ele>46.0</ele><time>2026-04-05T16:02:44.999Z</time></trkpt><trkpt lat="34.146235685085756" lon="9.965620628439586"><ele>46.0</ele><time>2026-04-05T16:02:45.999Z</time></trkpt><trkpt lat="34.14597536179449" lon="9.965475258933377"><ele>46.0</ele><time>2026-04-05T16:02:46.999Z</time></trkpt><trkpt lat="34.14571332963051" lon="9.965322722201813"><ele>46.0</ele><time>2026-04-05T16:02:47.999Z</time></trkpt><trkpt lat="34.14545585693263" lon="9.965169404755024"><ele>45.5</ele><time>2026-04-05T16:02:48.999Z</time></trkpt><trkpt lat="34.14520491608414" lon="9.96501621601073"><ele>45.0</ele><time>2026-04-05T16:02:49.999Z</time></trkpt><trkpt lat="34.144951973628004" lon="9.964864200968696"><ele>43.5</ele><time>2026-04-05T16:02:50.999Z</time></trkpt><trkpt lat="34.144696719791156" lon="9.964712239323315"><ele>42.0</ele><time>2026-04-05T16:02:51.999Z</time></trkpt><trkpt lat="34.144443406251014" lon="9.964561075810092"><ele>42.0</ele><time>2026-04-05T16:02:52.999Z</time></trkpt><trkpt lat="34.14418890394556" lon="9.964406224491485"><ele>42.0</ele><time>2026-04-05T16:02:53.999Z</time></trkpt><trkpt lat="34.14393352044522" lon="9.964249203622085"><ele>42.0</ele><time>2026-04-05T16:02:54.999Z</time></trkpt><trkpt lat="34.14367507626619" lon="9.964094489996551"><ele>42.0</ele><time>2026-04-05T16:02:55.999Z</time></trkpt><trkpt lat="34.143414844224324" lon="9.963936718535466"><ele>41.5</ele><time>2026-04-05T16:02:56.999Z</time></trkpt><trkpt lat="34.14315570008416" lon="9.963779335060856"><ele>41.0</ele><time>2026-04-05T16:02:57.999Z</time></trkpt><trkpt lat="34.142893119319005" lon="9.96362174449049"><ele>41.0</ele><time>2026-04-05T16:02:58.999Z</time></trkpt><trkpt lat="34.14263718723492" lon="9.963468958059108"><ele>41.0</ele><time>2026-04-05T16:02:59.999Z</time></trkpt><trkpt lat="34.142381552759595" lon="9.963316747852138"><ele>41.0</ele><time>2026-04-05T16:03:00.999Z</time></trkpt><trkpt lat="34.142128000666624" lon="9.963166824924858"><ele>41.0</ele><time>2026-04-05T16:03:01.999Z</time></trkpt><trkpt lat="34.141877152901486" lon="9.963020621338153"><ele>41.0</ele><time>2026-04-05T16:03:02.999Z</time></trkpt><trkpt lat="34.14162496043689" lon="9.962873786798228"><ele>41.0</ele><time>2026-04-05T16:03:03.999Z</time></trkpt><trkpt lat="34.14137483941711" lon="9.962727125234627"><ele>40.5</ele><time>2026-04-05T16:03:04.999Z</time></trkpt><trkpt lat="34.141129954483674" lon="9.96257999514394"><ele>40.0</ele><time>2026-04-05T16:03:05.999Z</time></trkpt><trkpt lat="34.14088527640367" lon="9.962432351580844"><ele>40.0</ele><time>2026-04-05T16:03:06.999Z</time></trkpt><trkpt lat="34.14064191726998" lon="9.962287125073079"><ele>40.0</ele><time>2026-04-05T16:03:07.999Z</time></trkpt><trkpt lat="34.140399486074905" lon="9.96214139118038"><ele>40.0</ele><time>2026-04-05T16:03:08.999Z</time></trkpt><trkpt lat="34.14015437104735" lon="9.961995812223908"><ele>40.0</ele><time>2026-04-05T16:03:09.999Z</time></trkpt><trkpt lat="34.13990619591859" lon="9.961850059047608"><ele>40.5</ele><time>2026-04-05T16:03:10.999Z</time></trkpt><trkpt lat="34.13965354323658" lon="9.96170337411195"><ele>41.0</ele><time>2026-04-05T16:03:11.999Z</time></trkpt><trkpt lat="34.13939139448091" lon="9.961553743852328"><ele>41.0</ele><time>2026-04-05T16:03:12.999Z</time></trkpt><trkpt lat="34.13912670446282" lon="9.961407335028936"><ele>41.0</ele><time>2026-04-05T16:03:13.999Z</time></trkpt><trkpt lat="34.13885623213277" lon="9.961251372442812"><ele>40.0</ele><time>2026-04-05T16:03:14.999Z</time></trkpt><trkpt lat="34.138580351415605" lon="9.961081754811277"><ele>39.0</ele><time>2026-04-05T16:03:15.999Z</time></trkpt><trkpt lat="34.13831505733539" lon="9.960901279283084"><ele>39.5</ele><time>2026-04-05T16:03:16.999Z</time></trkpt><trkpt lat="34.138062771774166" lon="9.960715385940896"><ele>40.0</ele><time>2026-04-05T16:03:17.999Z</time></trkpt><trkpt lat="34.13781497971329" lon="9.960529288008559"><ele>40.0</ele><time>2026-04-05T16:03:18.999Z</time></trkpt><trkpt lat="34.13756131785597" lon="9.960345027395672"><ele>40.0</ele><time>2026-04-05T16:03:19.999Z</time></trkpt><trkpt lat="34.13730721399931" lon="9.960163849498404"><ele>40.0</ele><time>2026-04-05T16:03:20.999Z</time></trkpt><trkpt lat="34.137051856548844" lon="9.959985941545204"><ele>40.0</ele><time>2026-04-05T16:03:21.999Z</time></trkpt><trkpt lat="34.136794853884496" lon="9.959808315475085"><ele>39.5</ele><time>2026-04-05T16:03:22.999Z</time></trkpt><trkpt lat="34.1365375569916" lon="9.959631799321485"><ele>39.0</ele><time>2026-04-05T16:03:23.999Z</time></trkpt><trkpt lat="34.136280658711904" lon="9.959456164684804"><ele>39.0</ele><time>2026-04-05T16:03:24.999Z</time></trkpt><trkpt lat="34.13602180437603" lon="9.959279471297737"><ele>39.0</ele><time>2026-04-05T16:03:25.999Z</time></trkpt><trkpt lat="34.13576480140306" lon="9.95910265034175"><ele>39.0</ele><time>2026-04-05T16:03:26.999Z</time></trkpt><trkpt lat="34.13550694776232" lon="9.958926014633594"><ele>39.0</ele><time>2026-04-05T16:03:27.999Z</time></trkpt><trkpt lat="34.13524778205497" lon="9.958750306363326"><ele>39.0</ele><time>2026-04-05T16:03:28.999Z</time></trkpt><trkpt lat="34.13498974103043" lon="9.958577234917875"><ele>39.0</ele><time>2026-04-05T16:03:29.999Z</time></trkpt><trkpt lat="34.13473095284945" lon="9.958407022871771"><ele>39.0</ele><time>2026-04-05T16:03:30.999Z</time></trkpt><trkpt lat="34.134470151192126" lon="9.958246109375215"><ele>39.0</ele><time>2026-04-05T16:03:31.999Z</time></trkpt><trkpt lat="34.134213627832835" lon="9.958092726077403"><ele>40.5</ele><time>2026-04-05T16:03:32.999Z</time></trkpt><trkpt lat="34.133961122043715" lon="9.957943091847442"><ele>42.0</ele><time>2026-04-05T16:03:33.999Z</time></trkpt><trkpt lat="34.13370996449199" lon="9.957798385357698"><ele>42.0</ele><time>2026-04-05T16:03:34.999Z</time></trkpt><trkpt lat="34.13346856643123" lon="9.957660375750464"><ele>42.0</ele><time>2026-04-05T16:03:35.999Z</time></trkpt><trkpt lat="34.13322614393683" lon="9.95752410829497"><ele>42.0</ele><time>2026-04-05T16:03:36.999Z</time></trkpt><trkpt lat="34.132978370233126" lon="9.957393397985204"><ele>42.0</ele><time>2026-04-05T16:03:37.999Z</time></trkpt><trkpt lat="34.13273962570036" lon="9.957268335780562"><ele>42.0</ele><time>2026-04-05T16:03:38.999Z</time></trkpt><trkpt lat="34.13250122189302" lon="9.957147910713816"><ele>42.0</ele><time>2026-04-05T16:03:39.999Z</time></trkpt><trkpt lat="34.13225566833924" lon="9.957026935882578"><ele>42.0</ele><time>2026-04-05T16:03:40.999Z</time></trkpt><trkpt lat="34.132005104423705" lon="9.956905076234765"><ele>42.0</ele><time>2026-04-05T16:03:41.999Z</time></trkpt><trkpt lat="34.13175177527713" lon="9.956784712005893"><ele>42.0</ele><time>2026-04-05T16:03:42.999Z</time></trkpt><trkpt lat="34.131496948787216" lon="9.956664698636963"><ele>42.0</ele><time>2026-04-05T16:03:43.999Z</time></trkpt><trkpt lat="34.13123985999779" lon="9.956544073954786"><ele>42.0</ele><time>2026-04-05T16:03:44.999Z</time></trkpt><trkpt lat="34.130979693272124" lon="9.956417306400018"><ele>42.0</ele><time>2026-04-05T16:03:45.999Z</time></trkpt><trkpt lat="34.13071757445099" lon="9.956284728117588"><ele>41.5</ele><time>2026-04-05T16:03:46.999Z</time></trkpt><trkpt lat="34.13045092130889" lon="9.956149464575345"><ele>41.0</ele><time>2026-04-05T16:03:47.999Z</time></trkpt><trkpt lat="34.13018375218436" lon="9.956014288866443"><ele>41.0</ele><time>2026-04-05T16:03:48.999Z</time></trkpt><trkpt lat="34.12991314508599" lon="9.955880841695691"><ele>41.0</ele><time>2026-04-05T16:03:49.999Z</time></trkpt><trkpt lat="34.12963922300498" lon="9.955738822801484"><ele>40.5</ele><time>2026-04-05T16:03:50.999Z</time></trkpt><trkpt lat="34.129369375571" lon="9.955588149240722"><ele>40.0</ele><time>2026-04-05T16:03:51.999Z</time></trkpt><trkpt lat="34.12910239756717" lon="9.95542608769632"><ele>39.0</ele><time>2026-04-05T16:03:52.999Z</time></trkpt><trkpt lat="34.12883996832395" lon="9.955259583021705"><ele>38.0</ele><time>2026-04-05T16:03:53.999Z</time></trkpt><trkpt lat="34.12857589799525" lon="9.955097180108167"><ele>38.0</ele><time>2026-04-05T16:03:54.999Z</time></trkpt><trkpt lat="34.12831181010522" lon="9.954938675959575"><ele>38.0</ele><time>2026-04-05T16:03:55.999Z</time></trkpt><trkpt lat="34.12804677052647" lon="9.954777283297421"><ele>38.0</ele><time>2026-04-05T16:03:56.999Z</time></trkpt><trkpt lat="34.12778161061219" lon="9.954614717998014"><ele>38.0</ele><time>2026-04-05T16:03:57.999Z</time></trkpt><trkpt lat="34.12751448400688" lon="9.954452181032291"><ele>38.0</ele><time>2026-04-05T16:03:58.999Z</time></trkpt><trkpt lat="34.127245771967225" lon="9.954292444310964"><ele>38.0</ele><time>2026-04-05T16:03:59.999Z</time></trkpt><trkpt lat="34.126976399765844" lon="9.954132551520773"><ele>38.0</ele><time>2026-04-05T16:04:00.999Z</time></trkpt><trkpt lat="34.12670857908253" lon="9.953974276098071"><ele>38.0</ele><time>2026-04-05T16:04:01.999Z</time></trkpt><trkpt lat="34.12643501913816" lon="9.953813499285188"><ele>38.0</ele><time>2026-04-05T16:04:02.999Z</time></trkpt><trkpt lat="34.12616395185955" lon="9.953651786843421"><ele>38.0</ele><time>2026-04-05T16:04:03.999Z</time></trkpt><trkpt lat="34.12588618688488" lon="9.953488959711002"><ele>38.5</ele><time>2026-04-05T16:04:04.999Z</time></trkpt><trkpt lat="34.12561141582984" lon="9.953326904579024"><ele>39.0</ele><time>2026-04-05T16:04:05.999Z</time></trkpt><trkpt lat="34.12532932147481" lon="9.953163091484669"><ele>39.0</ele><time>2026-04-05T16:04:06.999Z</time></trkpt><trkpt lat="34.12503624112139" lon="9.952996258048953"><ele>39.0</ele><time>2026-04-05T16:04:07.999Z</time></trkpt><trkpt lat="34.124735791699734" lon="9.952825852475689"><ele>38.5</ele><time>2026-04-05T16:04:08.999Z</time></trkpt><trkpt lat="34.12443545293518" lon="9.952654335172175"><ele>38.0</ele><time>2026-04-05T16:04:09.999Z</time></trkpt><trkpt lat="34.12414005134434" lon="9.952481775170899"><ele>38.0</ele><time>2026-04-05T16:04:10.999Z</time></trkpt><trkpt lat="34.12384761934922" lon="9.952310909603982"><ele>38.0</ele><time>2026-04-05T16:04:11.999Z</time></trkpt><trkpt lat="34.12355655010559" lon="9.952140540577235"><ele>38.0</ele><time>2026-04-05T16:04:12.999Z</time></trkpt><trkpt lat="34.12327242305486" lon="9.951970302816804"><ele>38.0</ele><time>2026-04-05T16:04:13.999Z</time></trkpt><trkpt lat="34.12299552982678" lon="9.951805870727133"><ele>38.0</ele><time>2026-04-05T16:04:14.999Z</time></trkpt><trkpt lat="34.12272078476185" lon="9.951639686377739"><ele>38.0</ele><time>2026-04-05T16:04:15.999Z</time></trkpt><trkpt lat="34.12244284918031" lon="9.951478011665644"><ele>37.5</ele><time>2026-04-05T16:04:16.999Z</time></trkpt><trkpt lat="34.12216905696593" lon="9.95131513592222"><ele>37.0</ele><time>2026-04-05T16:04:17.999Z</time></trkpt><trkpt lat="34.12189703781091" lon="9.951154175499074"><ele>37.0</ele><time>2026-04-05T16:04:18.999Z</time></trkpt><trkpt lat="34.121629523102555" lon="9.95099385928235"><ele>37.0</ele><time>2026-04-05T16:04:19.999Z</time></trkpt><trkpt lat="34.12135614114936" lon="9.950831803449443"><ele>37.0</ele><time>2026-04-05T16:04:20.999Z</time></trkpt><trkpt lat="34.12108702496692" lon="9.950667548589465"><ele>37.0</ele><time>2026-04-05T16:04:21.999Z</time></trkpt><trkpt lat="34.12081950369762" lon="9.950505791747695"><ele>37.0</ele><time>2026-04-05T16:04:22.999Z</time></trkpt><trkpt lat="34.12055621791425" lon="9.950343204810611"><ele>37.0</ele><time>2026-04-05T16:04:23.999Z</time></trkpt><trkpt lat="34.120289840814706" lon="9.950184383859128"><ele>37.0</ele><time>2026-04-05T16:04:24.999Z</time></trkpt><trkpt lat="34.120024331466354" lon="9.950025536258138"><ele>37.0</ele><time>2026-04-05T16:04:25.999Z</time></trkpt><trkpt lat="34.11975942158145" lon="9.949865450940065"><ele>37.0</ele><time>2026-04-05T16:04:26.999Z</time></trkpt><trkpt lat="34.119494436908596" lon="9.949706639891515"><ele>37.0</ele><time>2026-04-05T16:04:27.999Z</time></trkpt><trkpt lat="34.11923206560741" lon="9.949550776304651"><ele>36.5</ele><time>2026-04-05T16:04:28.999Z</time></trkpt><trkpt lat="34.1189704849212" lon="9.94939365545089"><ele>36.0</ele><time>2026-04-05T16:04:29.999Z</time></trkpt><trkpt lat="34.11870715183984" lon="9.949237591179525"><ele>36.5</ele><time>2026-04-05T16:04:30.999Z</time></trkpt><trkpt lat="34.1184466414125" lon="9.949081245618672"><ele>37.0</ele><time>2026-04-05T16:04:31.999Z</time></trkpt><trkpt lat="34.11818554650751" lon="9.948927457936044"><ele>36.0</ele><time>2026-04-05T16:04:32.999Z</time></trkpt><trkpt lat="34.11792283917108" lon="9.948776379528873"><ele>35.0</ele><time>2026-04-05T16:04:33.999Z</time></trkpt><trkpt lat="34.11765611833288" lon="9.948622343168687"><ele>35.0</ele><time>2026-04-05T16:04:34.999Z</time></trkpt><trkpt lat="34.11739200882439" lon="9.948464731413138"><ele>35.0</ele><time>2026-04-05T16:04:35.999Z</time></trkpt><trkpt lat="34.117126060495586" lon="9.948305587587816"><ele>35.0</ele><time>2026-04-05T16:04:36.999Z</time></trkpt><trkpt lat="34.11686022955969" lon="9.948138460065655"><ele>35.0</ele><time>2026-04-05T16:04:37.999Z</time></trkpt><trkpt lat="34.116595330705245" lon="9.94796570623038"><ele>34.5</ele><time>2026-04-05T16:04:38.999Z</time></trkpt><trkpt lat="34.11632984864813" lon="9.947793189730302"><ele>34.0</ele><time>2026-04-05T16:04:39.999Z</time></trkpt><trkpt lat="34.116058299619844" lon="9.947630208936857"><ele>34.5</ele><time>2026-04-05T16:04:40.999Z</time></trkpt><trkpt lat="34.11578651707526" lon="9.947472162839524"><ele>35.0</ele><time>2026-04-05T16:04:41.999Z</time></trkpt><trkpt lat="34.11551795764495" lon="9.947313173697374"><ele>35.0</ele><time>2026-04-05T16:04:42.999Z</time></trkpt><trkpt lat="34.11524917173268" lon="9.94715167757741"><ele>35.0</ele><time>2026-04-05T16:04:43.999Z</time></trkpt><trkpt lat="34.11498476010833" lon="9.946991325200164"><ele>34.0</ele><time>2026-04-05T16:04:44.999Z</time></trkpt><trkpt lat="34.11471489627179" lon="9.946830888097445"><ele>33.0</ele><time>2026-04-05T16:04:45.999Z</time></trkpt><trkpt lat="34.114448632200464" lon="9.94666963030912"><ele>33.0</ele><time>2026-04-05T16:04:46.999Z</time></trkpt><trkpt lat="34.114180281559285" lon="9.94650787856076"><ele>33.0</ele><time>2026-04-05T16:04:47.999Z</time></trkpt><trkpt lat="34.11391404994729" lon="9.946349961293866"><ele>32.0</ele><time>2026-04-05T16:04:48.999Z</time></trkpt><trkpt lat="34.11365291257343" lon="9.946193591979515"><ele>31.0</ele><time>2026-04-05T16:04:49.999Z</time></trkpt><trkpt lat="34.11338221019686" lon="9.94603781848054"><ele>31.0</ele><time>2026-04-05T16:04:50.999Z</time></trkpt><trkpt lat="34.11311380542533" lon="9.945881969847116"><ele>31.0</ele><time>2026-04-05T16:04:51.999Z</time></trkpt><trkpt lat="34.11284834694374" lon="9.945723631609523"><ele>31.0</ele><time>2026-04-05T16:04:52.999Z</time></trkpt><trkpt lat="34.112584421540824" lon="9.94556557374052"><ele>31.0</ele><time>2026-04-05T16:04:53.999Z</time></trkpt><trkpt lat="34.112325855437206" lon="9.94541056182288"><ele>31.0</ele><time>2026-04-05T16:04:54.999Z</time></trkpt><trkpt lat="34.11206418334273" lon="9.945254103598035"><ele>31.0</ele><time>2026-04-05T16:04:55.999Z</time></trkpt><trkpt lat="34.11180651381727" lon="9.945098733257863"><ele>31.0</ele><time>2026-04-05T16:04:56.999Z</time></trkpt><trkpt lat="34.11155129166938" lon="9.944946441713013"><ele>31.0</ele><time>2026-04-05T16:04:57.999Z</time></trkpt><trkpt lat="34.11129718550256" lon="9.94479220899724"><ele>31.0</ele><time>2026-04-05T16:04:58.999Z</time></trkpt><trkpt lat="34.11104165754537" lon="9.944638962598278"><ele>31.0</ele><time>2026-04-05T16:04:59.999Z</time></trkpt><trkpt lat="34.11078520466387" lon="9.94448846340098"><ele>31.5</ele><time>2026-04-05T16:05:00.999Z</time></trkpt><trkpt lat="34.1105294733266" lon="9.944340115317614"><ele>32.0</ele><time>2026-04-05T16:05:01.999Z</time></trkpt><trkpt lat="34.11027246067143" lon="9.944189235589928"><ele>32.0</ele><time>2026-04-05T16:05:02.999Z</time></trkpt><trkpt lat="34.1100133972038" lon="9.944044751028457"><ele>32.0</ele><time>2026-04-05T16:05:03.999Z</time></trkpt><trkpt lat="34.10975289048347" lon="9.943908018207962"><ele>32.0</ele><time>2026-04-05T16:05:04.999Z</time></trkpt><trkpt lat="34.109493004079404" lon="9.943774621398207"><ele>32.0</ele><time>2026-04-05T16:05:05.999Z</time></trkpt><trkpt lat="34.109229427102825" lon="9.943643008853085"><ele>32.0</ele><time>2026-04-05T16:05:06.999Z</time></trkpt><trkpt lat="34.10896684024487" lon="9.94351364242244"><ele>32.0</ele><time>2026-04-05T16:05:07.999Z</time></trkpt><trkpt lat="34.10870521032226" lon="9.943386113975025"><ele>32.0</ele><time>2026-04-05T16:05:08.999Z</time></trkpt><trkpt lat="34.10845141549685" lon="9.943263916480918"><ele>32.0</ele><time>2026-04-05T16:05:09.999Z</time></trkpt><trkpt lat="34.10820158148363" lon="9.943151131835778"><ele>32.0</ele><time>2026-04-05T16:05:10.999Z</time></trkpt><trkpt lat="34.107953852663435" lon="9.943047204997004"><ele>32.0</ele><time>2026-04-05T16:05:11.999Z</time></trkpt><trkpt lat="34.10771053328392" lon="9.942947067679361"><ele>32.0</ele><time>2026-04-05T16:05:12.999Z</time></trkpt><trkpt lat="34.1074645143446" lon="9.942846927634069"><ele>32.0</ele><time>2026-04-05T16:05:13.999Z</time></trkpt><trkpt lat="34.1072090358098" lon="9.94274775376171"><ele>32.0</ele><time>2026-04-05T16:05:14.999Z</time></trkpt><trkpt lat="34.10695230649262" lon="9.942650312866444"><ele>32.0</ele><time>2026-04-05T16:05:15.999Z</time></trkpt><trkpt lat="34.10669466283552" lon="9.942555933746746"><ele>31.5</ele><time>2026-04-05T16:05:16.999Z</time></trkpt><trkpt lat="34.10643268601955" lon="9.942464765086328"><ele>31.0</ele><time>2026-04-05T16:05:17.999Z</time></trkpt><trkpt lat="34.10616883578837" lon="9.942377126218737"><ele>31.0</ele><time>2026-04-05T16:05:18.999Z</time></trkpt><trkpt lat="34.1059020387209" lon="9.942291706201408"><ele>31.0</ele><time>2026-04-05T16:05:19.999Z</time></trkpt><trkpt lat="34.105638172899546" lon="9.942209270375876"><ele>31.0</ele><time>2026-04-05T16:05:20.999Z</time></trkpt><trkpt lat="34.10537267906521" lon="9.942134601786044"><ele>31.0</ele><time>2026-04-05T16:05:21.999Z</time></trkpt><trkpt lat="34.10510317392948" lon="9.94206385413928"><ele>31.5</ele><time>2026-04-05T16:05:22.999Z</time></trkpt><trkpt lat="34.10483030828887" lon="9.941994224939474"><ele>32.0</ele><time>2026-04-05T16:05:23.999Z</time></trkpt><trkpt lat="34.104553619923124" lon="9.941928001775024"><ele>32.0</ele><time>2026-04-05T16:05:24.999Z</time></trkpt><trkpt lat="34.104272732210376" lon="9.941861504437888"><ele>32.0</ele><time>2026-04-05T16:05:25.999Z</time></trkpt><trkpt lat="34.1039970336123" lon="9.941793386317606"><ele>32.0</ele><time>2026-04-05T16:05:26.999Z</time></trkpt><trkpt lat="34.10372380573936" lon="9.941732218798522"><ele>32.0</ele><time>2026-04-05T16:05:27.999Z</time></trkpt><trkpt lat="34.10345006346087" lon="9.941680419821195"><ele>32.5</ele><time>2026-04-05T16:05:28.999Z</time></trkpt><trkpt lat="34.103175155994386" lon="9.941634621927903"><ele>33.0</ele><time>2026-04-05T16:05:29.999Z</time></trkpt><trkpt lat="34.10290218310695" lon="9.941589834230115"><ele>33.0</ele><time>2026-04-05T16:05:30.999Z</time></trkpt><trkpt lat="34.102634338779716" lon="9.941548641131941"><ele>33.0</ele><time>2026-04-05T16:05:31.999Z</time></trkpt><trkpt lat="34.10236628552695" lon="9.941509385502055"><ele>33.5</ele><time>2026-04-05T16:05:32.999Z</time></trkpt><trkpt lat="34.102095272950905" lon="9.94147107980048"><ele>34.0</ele><time>2026-04-05T16:05:33.999Z</time></trkpt><trkpt lat="34.10182377716276" lon="9.941438962695257"><ele>33.0</ele><time>2026-04-05T16:05:34.999Z</time></trkpt><trkpt lat="34.101551284544975" lon="9.94141163218604"><ele>32.0</ele><time>2026-04-05T16:05:35.999Z</time></trkpt><trkpt lat="34.101276859243896" lon="9.941387263075761"><ele>32.0</ele><time>2026-04-05T16:05:36.999Z</time></trkpt><trkpt lat="34.100999581012196" lon="9.941363912130713"><ele>32.0</ele><time>2026-04-05T16:05:37.999Z</time></trkpt><trkpt lat="34.10071653288809" lon="9.941343549690538"><ele>32.0</ele><time>2026-04-05T16:05:38.999Z</time></trkpt><trkpt lat="34.10042956232262" lon="9.94132862463971"><ele>32.0</ele><time>2026-04-05T16:05:39.999Z</time></trkpt><trkpt lat="34.10014207059804" lon="9.941310471781401"><ele>32.5</ele><time>2026-04-05T16:05:40.999Z</time></trkpt><trkpt lat="34.099854492798585" lon="9.941285825971233"><ele>33.0</ele><time>2026-04-05T16:05:41.999Z</time></trkpt><trkpt lat="34.0995678466179" lon="9.94125918646843"><ele>33.0</ele><time>2026-04-05T16:05:42.999Z</time></trkpt><trkpt lat="34.099284615000634" lon="9.941234147475534"><ele>33.0</ele><time>2026-04-05T16:05:43.999Z</time></trkpt><trkpt lat="34.09899769364861" lon="9.941212850767123"><ele>33.0</ele><time>2026-04-05T16:05:44.999Z</time></trkpt><trkpt lat="34.098712229191825" lon="9.94119188574573"><ele>33.0</ele><time>2026-04-05T16:05:45.999Z</time></trkpt><trkpt lat="34.098427453262595" lon="9.941172759083264"><ele>33.0</ele><time>2026-04-05T16:05:46.999Z</time></trkpt><trkpt lat="34.098145520766444" lon="9.94115336777587"><ele>33.0</ele><time>2026-04-05T16:05:47.999Z</time></trkpt><trkpt lat="34.09786620438226" lon="9.941130747138256"><ele>33.0</ele><time>2026-04-05T16:05:48.999Z</time></trkpt><trkpt lat="34.09758267810751" lon="9.941105085310294"><ele>33.0</ele><time>2026-04-05T16:05:49.999Z</time></trkpt><trkpt lat="34.0972996082905" lon="9.941081062094977"><ele>33.5</ele><time>2026-04-05T16:05:50.999Z</time></trkpt><trkpt lat="34.097016958264554" lon="9.941059370264226"><ele>34.0</ele><time>2026-04-05T16:05:51.999Z</time></trkpt><trkpt lat="34.096738899626246" lon="9.941038754477841"><ele>33.0</ele><time>2026-04-05T16:05:52.999Z</time></trkpt><trkpt lat="34.09646199556269" lon="9.941019238444412"><ele>32.0</ele><time>2026-04-05T16:05:53.999Z</time></trkpt><trkpt lat="34.09618534257099" lon="9.940997691129768"><ele>32.0</ele><time>2026-04-05T16:05:54.999Z</time></trkpt><trkpt lat="34.09590887454872" lon="9.940976519471624"><ele>32.0</ele><time>2026-04-05T16:05:55.999Z</time></trkpt><trkpt lat="34.09562745924528" lon="9.940954822221034"><ele>33.0</ele><time>2026-04-05T16:05:56.999Z</time></trkpt><trkpt lat="34.09534711260143" lon="9.940934014904764"><ele>34.0</ele><time>2026-04-05T16:05:57.999Z</time></trkpt><trkpt lat="34.09506758059061" lon="9.940912770213435"><ele>34.5</ele><time>2026-04-05T16:05:58.999Z</time></trkpt><trkpt lat="34.094787890597274" lon="9.940889336992099"><ele>35.0</ele><time>2026-04-05T16:05:59.999Z</time></trkpt><trkpt lat="34.094504510992095" lon="9.940866699467415"><ele>35.0</ele><time>2026-04-05T16:06:00.999Z</time></trkpt><trkpt lat="34.09421881062694" lon="9.940843546475275"><ele>35.0</ele><time>2026-04-05T16:06:01.999Z</time></trkpt><trkpt lat="34.09393408357748" lon="9.940820835759753"><ele>35.5</ele><time>2026-04-05T16:06:02.999Z</time></trkpt><trkpt lat="34.09365244672213" lon="9.940800160034385"><ele>36.0</ele><time>2026-04-05T16:06:03.999Z</time></trkpt><trkpt lat="34.09337156054796" lon="9.940779577315574"><ele>36.5</ele><time>2026-04-05T16:06:04.999Z</time></trkpt><trkpt lat="34.09309761883381" lon="9.94075961387917"><ele>37.0</ele><time>2026-04-05T16:06:05.999Z</time></trkpt><trkpt lat="34.092821350187286" lon="9.940738989114601"><ele>37.0</ele><time>2026-04-05T16:06:06.999Z</time></trkpt><trkpt lat="34.092543241886325" lon="9.94071613906339"><ele>37.0</ele><time>2026-04-05T16:06:07.999Z</time></trkpt><trkpt lat="34.09226421161145" lon="9.94069375841387"><ele>36.5</ele><time>2026-04-05T16:06:08.999Z</time></trkpt><trkpt lat="34.091986584204605" lon="9.940671684012955"><ele>36.0</ele><time>2026-04-05T16:06:09.999Z</time></trkpt><trkpt lat="34.09170932056116" lon="9.940649512740686"><ele>36.5</ele><time>2026-04-05T16:06:10.999Z</time></trkpt><trkpt lat="34.09143613261597" lon="9.94062650187946"><ele>37.0</ele><time>2026-04-05T16:06:11.999Z</time></trkpt><trkpt lat="34.0911599915548" lon="9.940601371280096"><ele>37.0</ele><time>2026-04-05T16:06:12.999Z</time></trkpt><trkpt lat="34.09088616251185" lon="9.940574819818535"><ele>37.0</ele><time>2026-04-05T16:06:13.999Z</time></trkpt><trkpt lat="34.0906064804927" lon="9.94055151853793"><ele>38.5</ele><time>2026-04-05T16:06:14.999Z</time></trkpt><trkpt lat="34.09032997201365" lon="9.94053553977683"><ele>40.0</ele><time>2026-04-05T16:06:15.999Z</time></trkpt><trkpt lat="34.09004911891188" lon="9.940519338034452"><ele>39.0</ele><time>2026-04-05T16:06:16.999Z</time></trkpt><trkpt lat="34.08977074799893" lon="9.940502564579988"><ele>38.0</ele><time>2026-04-05T16:06:17.999Z</time></trkpt><trkpt lat="34.08949427109879" lon="9.940479575483122"><ele>38.0</ele><time>2026-04-05T16:06:18.999Z</time></trkpt><trkpt lat="34.089215875201674" lon="9.940457065071117"><ele>38.0</ele><time>2026-04-05T16:06:19.999Z</time></trkpt><trkpt lat="34.08893516647416" lon="9.940436764673066"><ele>37.0</ele><time>2026-04-05T16:06:20.999Z</time></trkpt><trkpt lat="34.08865773884436" lon="9.940412676145167"><ele>36.0</ele><time>2026-04-05T16:06:21.999Z</time></trkpt><trkpt lat="34.08837982934844" lon="9.940389232976107"><ele>38.5</ele><time>2026-04-05T16:06:22.999Z</time></trkpt><trkpt lat="34.08810201448265" lon="9.940365583021796"><ele>41.0</ele><time>2026-04-05T16:06:23.999Z</time></trkpt><trkpt lat="34.087825487120476" lon="9.940342281736779"><ele>41.0</ele><time>2026-04-05T16:06:24.999Z</time></trkpt><trkpt lat="34.0875464449078" lon="9.940322226234146"><ele>41.0</ele><time>2026-04-05T16:06:25.999Z</time></trkpt><trkpt lat="34.08726830283447" lon="9.940302372556554"><ele>41.0</ele><time>2026-04-05T16:06:26.999Z</time></trkpt><trkpt lat="34.08699256312887" lon="9.940282864571419"><ele>41.0</ele><time>2026-04-05T16:06:27.999Z</time></trkpt><trkpt lat="34.08671381498306" lon="9.940261053612337"><ele>41.5</ele><time>2026-04-05T16:06:28.999Z</time></trkpt><trkpt lat="34.0864365365836" lon="9.940238228287734"><ele>42.0</ele><time>2026-04-05T16:06:29.999Z</time></trkpt><trkpt lat="34.0861591341253" lon="9.940217556311563"><ele>42.0</ele><time>2026-04-05T16:06:30.999Z</time></trkpt><trkpt lat="34.085881477266184" lon="9.940197322044876"><ele>42.0</ele><time>2026-04-05T16:06:31.999Z</time></trkpt><trkpt lat="34.08560398373366" lon="9.940174579716418"><ele>42.0</ele><time>2026-04-05T16:06:32.999Z</time></trkpt><trkpt lat="34.08532788063171" lon="9.940149265088078"><ele>42.0</ele><time>2026-04-05T16:06:33.999Z</time></trkpt><trkpt lat="34.085051319870665" lon="9.940120817054602"><ele>42.0</ele><time>2026-04-05T16:06:34.999Z</time></trkpt><trkpt lat="34.084773561644305" lon="9.940097400533837"><ele>42.0</ele><time>2026-04-05T16:06:35.999Z</time></trkpt><trkpt lat="34.084495556382336" lon="9.940082421201211"><ele>42.0</ele><time>2026-04-05T16:06:36.999Z</time></trkpt><trkpt lat="34.08421767114864" lon="9.94006338519156"><ele>42.0</ele><time>2026-04-05T16:06:37.999Z</time></trkpt><trkpt lat="34.08393833465256" lon="9.940041101341182"><ele>42.0</ele><time>2026-04-05T16:06:38.999Z</time></trkpt><trkpt lat="34.08366059426803" lon="9.940019958588506"><ele>42.0</ele><time>2026-04-05T16:06:39.999Z</time></trkpt><trkpt lat="34.083379821063936" lon="9.94000157492799"><ele>43.0</ele><time>2026-04-05T16:06:40.999Z</time></trkpt><trkpt lat="34.083101657595165" lon="9.939980925561722"><ele>44.0</ele><time>2026-04-05T16:06:41.999Z</time></trkpt><trkpt lat="34.08282301305358" lon="9.939958338158412"><ele>44.0</ele><time>2026-04-05T16:06:42.999Z</time></trkpt><trkpt lat="34.08254320211139" lon="9.939935430159165"><ele>44.0</ele><time>2026-04-05T16:06:43.999Z</time></trkpt><trkpt lat="34.082266610375775" lon="9.939913121274053"><ele>45.0</ele><time>2026-04-05T16:06:44.999Z</time></trkpt><trkpt lat="34.08199007874638" lon="9.939885232515667"><ele>46.0</ele><time>2026-04-05T16:06:45.999Z</time></trkpt><trkpt lat="34.0817121164942" lon="9.939853069807548"><ele>45.0</ele><time>2026-04-05T16:06:46.999Z</time></trkpt><trkpt lat="34.08143443172858" lon="9.93981855806181"><ele>44.0</ele><time>2026-04-05T16:06:47.999Z</time></trkpt><trkpt lat="34.0811574057529" lon="9.939779217905048"><ele>44.0</ele><time>2026-04-05T16:06:48.999Z</time></trkpt><trkpt lat="34.080879859446476" lon="9.939734693150696"><ele>44.0</ele><time>2026-04-05T16:06:49.999Z</time></trkpt><trkpt lat="34.080603227982415" lon="9.939685287847157"><ele>45.0</ele><time>2026-04-05T16:06:50.999Z</time></trkpt><trkpt lat="34.08032503352543" lon="9.939632788250883"><ele>46.0</ele><time>2026-04-05T16:06:51.999Z</time></trkpt><trkpt lat="34.08004245461854" lon="9.939580485965658"><ele>45.5</ele><time>2026-04-05T16:06:52.999Z</time></trkpt><trkpt lat="34.07975573879806" lon="9.939530653283098"><ele>45.0</ele><time>2026-04-05T16:06:53.999Z</time></trkpt><trkpt lat="34.07946450370585" lon="9.939476901538429"><ele>45.0</ele><time>2026-04-05T16:06:54.999Z</time></trkpt><trkpt lat="34.079171672301385" lon="9.939418805641576"><ele>45.0</ele><time>2026-04-05T16:06:55.999Z</time></trkpt><trkpt lat="34.07887963513061" lon="9.9393532728582"><ele>43.5</ele><time>2026-04-05T16:06:56.999Z</time></trkpt><trkpt lat="34.078591868800885" lon="9.93927828669694"><ele>42.0</ele><time>2026-04-05T16:06:57.999Z</time></trkpt><trkpt lat="34.0783081593002" lon="9.9391941768934"><ele>42.0</ele><time>2026-04-05T16:06:58.999Z</time></trkpt><trkpt lat="34.07802917810265" lon="9.939105124208869"><ele>42.0</ele><time>2026-04-05T16:06:59.999Z</time></trkpt><trkpt lat="34.07775667962925" lon="9.939021396626133"><ele>42.0</ele><time>2026-04-05T16:07:00.999Z</time></trkpt><trkpt lat="34.077487655306065" lon="9.938938952271778"><ele>42.0</ele><time>2026-04-05T16:07:01.999Z</time></trkpt><trkpt lat="34.07721953684878" lon="9.938860060314758"><ele>42.0</ele><time>2026-04-05T16:07:02.999Z</time></trkpt><trkpt lat="34.0769520577245" lon="9.938774385445063"><ele>42.0</ele><time>2026-04-05T16:07:03.999Z</time></trkpt><trkpt lat="34.07668423572074" lon="9.938682969866653"><ele>42.5</ele><time>2026-04-05T16:07:04.999Z</time></trkpt><trkpt lat="34.07641842574547" lon="9.938581026765322"><ele>43.0</ele><time>2026-04-05T16:07:05.999Z</time></trkpt><trkpt lat="34.07615509763045" lon="9.938473566724886"><ele>43.0</ele><time>2026-04-05T16:07:06.999Z</time></trkpt><trkpt lat="34.075895030749024" lon="9.938363870340991"><ele>43.0</ele><time>2026-04-05T16:07:07.999Z</time></trkpt><trkpt lat="34.07563473685794" lon="9.938250539474224"><ele>42.0</ele><time>2026-04-05T16:07:08.999Z</time></trkpt><trkpt lat="34.07537268203729" lon="9.93813680497006"><ele>41.0</ele><time>2026-04-05T16:07:09.999Z</time></trkpt><trkpt lat="34.07511275704029" lon="9.938020849612657"><ele>41.0</ele><time>2026-04-05T16:07:10.999Z</time></trkpt><trkpt lat="34.07485145704165" lon="9.937907301624442"><ele>41.0</ele><time>2026-04-05T16:07:11.999Z</time></trkpt><trkpt lat="34.0745868997315" lon="9.937797816442146"><ele>41.0</ele><time>2026-04-05T16:07:12.999Z</time></trkpt><trkpt lat="34.07432230223777" lon="9.937692386318954"><ele>41.0</ele><time>2026-04-05T16:07:13.999Z</time></trkpt><trkpt lat="34.07405677973924" lon="9.937588821434113"><ele>42.0</ele><time>2026-04-05T16:07:14.999Z</time></trkpt><trkpt lat="34.07378995790272" lon="9.937484700259981"><ele>43.0</ele><time>2026-04-05T16:07:15.999Z</time></trkpt><trkpt lat="34.0735258920462" lon="9.937378239944968"><ele>42.0</ele><time>2026-04-05T16:07:16.999Z</time></trkpt><trkpt lat="34.07326279259155" lon="9.93727103946164"><ele>41.0</ele><time>2026-04-05T16:07:17.999Z</time></trkpt><trkpt lat="34.07299741034169" lon="9.937166066846823"><ele>41.0</ele><time>2026-04-05T16:07:18.999Z</time></trkpt><trkpt lat="34.072732888064586" lon="9.937057804743938"><ele>41.0</ele><time>2026-04-05T16:07:19.999Z</time></trkpt><trkpt lat="34.072470747469545" lon="9.936950501458886"><ele>42.0</ele><time>2026-04-05T16:07:20.999Z</time></trkpt><trkpt lat="34.07220893582543" lon="9.936846335408234"><ele>43.0</ele><time>2026-04-05T16:07:21.999Z</time></trkpt><trkpt lat="34.07194287208229" lon="9.936746473188231"><ele>43.5</ele><time>2026-04-05T16:07:23Z</time></trkpt><trkpt lat="34.07168023240798" lon="9.936638485873193"><ele>44.0</ele><time>2026-04-05T16:07:24Z</time></trkpt><trkpt lat="34.07141608071224" lon="9.936526905472737"><ele>44.0</ele><time>2026-04-05T16:07:25Z</time></trkpt><trkpt lat="34.07115241817344" lon="9.93641969965827"><ele>44.0</ele><time>2026-04-05T16:07:26Z</time></trkpt><trkpt lat="34.07088819522245" lon="9.936314871100244"><ele>45.5</ele><time>2026-04-05T16:07:27Z</time></trkpt><trkpt lat="34.07062327623575" lon="9.93620807777376"><ele>47.0</ele><time>2026-04-05T16:07:28Z</time></trkpt><trkpt lat="34.070358639185066" lon="9.936099956713068"><ele>47.0</ele><time>2026-04-05T16:07:29Z</time></trkpt><trkpt lat="34.07009512200387" lon="9.935992698889093"><ele>47.0</ele><time>2026-04-05T16:07:30Z</time></trkpt><trkpt lat="34.06983143777806" lon="9.935884320801641"><ele>46.0</ele><time>2026-04-05T16:07:31Z</time></trkpt><trkpt lat="34.0695683553102" lon="9.935774761228341"><ele>45.0</ele><time>2026-04-05T16:07:32Z</time></trkpt><trkpt lat="34.06930374639746" lon="9.935667107717231"><ele>44.0</ele><time>2026-04-05T16:07:33Z</time></trkpt><trkpt lat="34.06903997071288" lon="9.93556070907344"><ele>43.0</ele><time>2026-04-05T16:07:34Z</time></trkpt><trkpt lat="34.068775139431516" lon="9.93545492463224"><ele>43.0</ele><time>2026-04-05T16:07:35Z</time></trkpt><trkpt lat="34.06851192465256" lon="9.935346904624307"><ele>43.0</ele><time>2026-04-05T16:07:36Z</time></trkpt><trkpt lat="34.0682486812963" lon="9.93524035036076"><ele>43.5</ele><time>2026-04-05T16:07:37Z</time></trkpt><trkpt lat="34.06798151846642" lon="9.935133286010082"><ele>44.0</ele><time>2026-04-05T16:07:38Z</time></trkpt><trkpt lat="34.067717594669396" lon="9.935028506418924"><ele>44.0</ele><time>2026-04-05T16:07:39Z</time></trkpt><trkpt lat="34.06745259235793" lon="9.934922128649704"><ele>44.0</ele><time>2026-04-05T16:07:40Z</time></trkpt><trkpt lat="34.06718704706175" lon="9.934814889936336"><ele>44.5</ele><time>2026-04-05T16:07:41Z</time></trkpt><trkpt lat="34.06692172857429" lon="9.93470590235967"><ele>45.0</ele><time>2026-04-05T16:07:42Z</time></trkpt><trkpt lat="34.06665934233307" lon="9.934596696979105"><ele>44.0</ele><time>2026-04-05T16:07:43Z</time></trkpt><trkpt lat="34.06639512106244" lon="9.934488891402143"><ele>43.0</ele><time>2026-04-05T16:07:44Z</time></trkpt><trkpt lat="34.066132272051625" lon="9.934379202156496"><ele>43.0</ele><time>2026-04-05T16:07:45Z</time></trkpt><trkpt lat="34.06586934062837" lon="9.934270924441769"><ele>43.0</ele><time>2026-04-05T16:07:46Z</time></trkpt><trkpt lat="34.06560296819707" lon="9.934165160308398"><ele>44.0</ele><time>2026-04-05T16:07:47Z</time></trkpt><trkpt lat="34.065339390508484" lon="9.93405867315064"><ele>45.0</ele><time>2026-04-05T16:07:48Z</time></trkpt><trkpt lat="34.065074890954435" lon="9.933954512396076"><ele>45.0</ele><time>2026-04-05T16:07:49Z</time></trkpt><trkpt lat="34.064809931583866" lon="9.933850666024536"><ele>45.0</ele><time>2026-04-05T16:07:50Z</time></trkpt><trkpt lat="34.06454460425585" lon="9.933746696219298"><ele>45.0</ele><time>2026-04-05T16:07:51Z</time></trkpt><trkpt lat="34.0642806766374" lon="9.933640975653825"><ele>45.0</ele><time>2026-04-05T16:07:52Z</time></trkpt><trkpt lat="34.06401686529354" lon="9.933531485131708"><ele>45.0</ele><time>2026-04-05T16:07:53Z</time></trkpt><trkpt lat="34.063751855984805" lon="9.933424721193768"><ele>45.0</ele><time>2026-04-05T16:07:54Z</time></trkpt><trkpt lat="34.063488964314715" lon="9.933317477969956"><ele>46.0</ele><time>2026-04-05T16:07:55Z</time></trkpt><trkpt lat="34.06322604810715" lon="9.933211664345912"><ele>47.0</ele><time>2026-04-05T16:07:56Z</time></trkpt><trkpt lat="34.06296285254006" lon="9.933106390005788"><ele>47.0</ele><time>2026-04-05T16:07:57Z</time></trkpt><trkpt lat="34.06269785359282" lon="9.933001135353358"><ele>47.0</ele><time>2026-04-05T16:07:58Z</time></trkpt><trkpt lat="34.06243416766003" lon="9.932896149290414"><ele>47.0</ele><time>2026-04-05T16:07:59Z</time></trkpt><trkpt lat="34.06217046884969" lon="9.932791270193224"><ele>47.0</ele><time>2026-04-05T16:08:00Z</time></trkpt><trkpt lat="34.061905974766276" lon="9.93268405792757"><ele>47.0</ele><time>2026-04-05T16:08:01Z</time></trkpt><trkpt lat="34.06164312724991" lon="9.932578158785297"><ele>47.0</ele><time>2026-04-05T16:08:02Z</time></trkpt><trkpt lat="34.06138058920261" lon="9.932471695488308"><ele>47.0</ele><time>2026-04-05T16:08:03Z</time></trkpt><trkpt lat="34.06111620676004" lon="9.93236343436944"><ele>47.0</ele><time>2026-04-05T16:08:04Z</time></trkpt><trkpt lat="34.060853342882474" lon="9.932256574634991"><ele>47.0</ele><time>2026-04-05T16:08:05Z</time></trkpt><trkpt lat="34.06058788533156" lon="9.932148575020877"><ele>47.0</ele><time>2026-04-05T16:08:06Z</time></trkpt><trkpt lat="34.06032421119472" lon="9.932043053156857"><ele>47.0</ele><time>2026-04-05T16:08:07Z</time></trkpt><trkpt lat="34.06006132528054" lon="9.931937863911129"><ele>47.0</ele><time>2026-04-05T16:08:08Z</time></trkpt><trkpt lat="34.059796436109096" lon="9.931831898435364"><ele>47.5</ele><time>2026-04-05T16:08:08.999Z</time></trkpt><trkpt lat="34.05953262619011" lon="9.931726683643687"><ele>48.0</ele><time>2026-04-05T16:08:09.999Z</time></trkpt><trkpt lat="34.05926747899303" lon="9.931621177136163"><ele>48.0</ele><time>2026-04-05T16:08:10.999Z</time></trkpt><trkpt lat="34.059004176884" lon="9.931516309089474"><ele>48.0</ele><time>2026-04-05T16:08:11.999Z</time></trkpt><trkpt lat="34.05873993432303" lon="9.93141046713665"><ele>48.0</ele><time>2026-04-05T16:08:12.999Z</time></trkpt><trkpt lat="34.05847466871674" lon="9.931305213183089"><ele>48.0</ele><time>2026-04-05T16:08:13.999Z</time></trkpt><trkpt lat="34.05820998128236" lon="9.931200130380727"><ele>48.5</ele><time>2026-04-05T16:08:14.999Z</time></trkpt><trkpt lat="34.05794715257455" lon="9.931092780969898"><ele>49.0</ele><time>2026-04-05T16:08:15.999Z</time></trkpt><trkpt lat="34.05768378387237" lon="9.930981373491127"><ele>49.0</ele><time>2026-04-05T16:08:16.999Z</time></trkpt><trkpt lat="34.057421107513974" lon="9.93086992750422"><ele>49.0</ele><time>2026-04-05T16:08:17.999Z</time></trkpt><trkpt lat="34.0571574324463" lon="9.930764102863666"><ele>49.0</ele><time>2026-04-05T16:08:18.999Z</time></trkpt><trkpt lat="34.056894844694895" lon="9.93065845554319"><ele>49.0</ele><time>2026-04-05T16:08:19.999Z</time></trkpt><trkpt lat="34.05662853815728" lon="9.930551618992876"><ele>49.5</ele><time>2026-04-05T16:08:20.999Z</time></trkpt><trkpt lat="34.056366450046596" lon="9.93044444981528"><ele>50.0</ele><time>2026-04-05T16:08:21.999Z</time></trkpt><trkpt lat="34.05610311194484" lon="9.93033678737721"><ele>50.0</ele><time>2026-04-05T16:08:22.999Z</time></trkpt><trkpt lat="34.05583894625313" lon="9.93022916093158"><ele>50.0</ele><time>2026-04-05T16:08:23.999Z</time></trkpt><trkpt lat="34.055575453549565" lon="9.930123387419288"><ele>51.5</ele><time>2026-04-05T16:08:24.999Z</time></trkpt><trkpt lat="34.05531025964468" lon="9.93001750251534"><ele>53.0</ele><time>2026-04-05T16:08:25.999Z</time></trkpt><trkpt lat="34.055047194115915" lon="9.929913495138269"><ele>52.5</ele><time>2026-04-05T16:08:26.999Z</time></trkpt><trkpt lat="34.05478177831295" lon="9.929810597942389"><ele>52.0</ele><time>2026-04-05T16:08:27.999Z</time></trkpt><trkpt lat="34.05451825763328" lon="9.92970970426024"><ele>52.0</ele><time>2026-04-05T16:08:28.999Z</time></trkpt><trkpt lat="34.05425407014674" lon="9.92960517356269"><ele>52.0</ele><time>2026-04-05T16:08:29.999Z</time></trkpt><trkpt lat="34.05398953412963" lon="9.929498704379814"><ele>52.0</ele><time>2026-04-05T16:08:30.999Z</time></trkpt><trkpt lat="34.053727634914736" lon="9.929389764795397"><ele>52.0</ele><time>2026-04-05T16:08:31.999Z</time></trkpt><trkpt lat="34.053464892358384" lon="9.92927577416595"><ele>52.5</ele><time>2026-04-05T16:08:32.999Z</time></trkpt><trkpt lat="34.053203543023876" lon="9.929163137821654"><ele>53.0</ele><time>2026-04-05T16:08:33.999Z</time></trkpt><trkpt lat="34.052941801648316" lon="9.929050622902743"><ele>53.0</ele><time>2026-04-05T16:08:34.999Z</time></trkpt><trkpt lat="34.0526781223174" lon="9.928941605057569"><ele>53.0</ele><time>2026-04-05T16:08:35.999Z</time></trkpt><trkpt lat="34.05241442471582" lon="9.928835969022613"><ele>54.0</ele><time>2026-04-05T16:08:36.999Z</time></trkpt><trkpt lat="34.052149898459795" lon="9.928734524494699"><ele>55.0</ele><time>2026-04-05T16:08:37.999Z</time></trkpt><trkpt lat="34.051882502537495" lon="9.928631113740261"><ele>55.0</ele><time>2026-04-05T16:08:38.999Z</time></trkpt><trkpt lat="34.05161650033062" lon="9.928526798039366"><ele>55.0</ele><time>2026-04-05T16:08:39.999Z</time></trkpt><trkpt lat="34.051351661916335" lon="9.928423092283001"><ele>55.0</ele><time>2026-04-05T16:08:40.999Z</time></trkpt><trkpt lat="34.05108682425172" lon="9.928315324568139"><ele>55.0</ele><time>2026-04-05T16:08:41.999Z</time></trkpt><trkpt lat="34.05082329958937" lon="9.928208009642033"><ele>54.0</ele><time>2026-04-05T16:08:42.999Z</time></trkpt><trkpt lat="34.05055899264661" lon="9.928100438215072"><ele>53.0</ele><time>2026-04-05T16:08:43.999Z</time></trkpt><trkpt lat="34.05029507822207" lon="9.927993801154145"><ele>53.0</ele><time>2026-04-05T16:08:44.999Z</time></trkpt><trkpt lat="34.05003078359767" lon="9.927887072250245"><ele>53.0</ele><time>2026-04-05T16:08:45.999Z</time></trkpt><trkpt lat="34.04976576217817" lon="9.927782053748928"><ele>56.5</ele><time>2026-04-05T16:08:46.999Z</time></trkpt><trkpt lat="34.04950133323769" lon="9.927677801076994"><ele>60.0</ele><time>2026-04-05T16:08:47.999Z</time></trkpt><trkpt lat="34.04923634039827" lon="9.92757163083134"><ele>59.0</ele><time>2026-04-05T16:08:48.999Z</time></trkpt><trkpt lat="34.04897177856702" lon="9.927466300534359"><ele>58.0</ele><time>2026-04-05T16:08:49.999Z</time></trkpt><trkpt lat="34.048707454970106" lon="9.927359023084199"><ele>58.0</ele><time>2026-04-05T16:08:50.999Z</time></trkpt><trkpt lat="34.04844372463327" lon="9.927252958424631"><ele>58.0</ele><time>2026-04-05T16:08:51.999Z</time></trkpt><trkpt lat="34.04817942463418" lon="9.927150231801289"><ele>58.5</ele><time>2026-04-05T16:08:52.999Z</time></trkpt><trkpt lat="34.04791397800072" lon="9.927049771976108"><ele>59.0</ele><time>2026-04-05T16:08:53.999Z</time></trkpt><trkpt lat="34.047647377709666" lon="9.926949452853165"><ele>58.5</ele><time>2026-04-05T16:08:54.999Z</time></trkpt><trkpt lat="34.04738094968044" lon="9.926849004535635"><ele>58.0</ele><time>2026-04-05T16:08:55.999Z</time></trkpt><trkpt lat="34.047115368618826" lon="9.926749015918746"><ele>58.0</ele><time>2026-04-05T16:08:56.999Z</time></trkpt><trkpt lat="34.04684896556002" lon="9.926646132462967"><ele>58.0</ele><time>2026-04-05T16:08:57.999Z</time></trkpt><trkpt lat="34.046583732737666" lon="9.926541276179744"><ele>59.0</ele><time>2026-04-05T16:08:58.999Z</time></trkpt><trkpt lat="34.04632053926057" lon="9.926435007501354"><ele>60.0</ele><time>2026-04-05T16:08:59.999Z</time></trkpt><trkpt lat="34.04605521361992" lon="9.926331146415318"><ele>60.0</ele><time>2026-04-05T16:09:00.999Z</time></trkpt><trkpt lat="34.045788790303064" lon="9.926236355661793"><ele>60.0</ele><time>2026-04-05T16:09:01.999Z</time></trkpt><trkpt lat="34.04551866618873" lon="9.926141817418939"><ele>60.0</ele><time>2026-04-05T16:09:02.999Z</time></trkpt><trkpt lat="34.045256598811434" lon="9.926051659795533"><ele>60.0</ele><time>2026-04-05T16:09:03.999Z</time></trkpt><trkpt lat="34.0450072756187" lon="9.925956942947348"><ele>62.0</ele><time>2026-04-05T16:09:04.999Z</time></trkpt><trkpt lat="34.044754973852356" lon="9.925861043499323"><ele>64.0</ele><time>2026-04-05T16:09:05.999Z</time></trkpt><trkpt lat="34.04450477229155" lon="9.925764740550107"><ele>64.0</ele><time>2026-04-05T16:09:06.999Z</time></trkpt><trkpt lat="34.0442494205678" lon="9.9256709789929"><ele>64.0</ele><time>2026-04-05T16:09:07.999Z</time></trkpt><trkpt lat="34.04399550266587" lon="9.92557615531032"><ele>64.0</ele><time>2026-04-05T16:09:08.999Z</time></trkpt><trkpt lat="34.043738687363934" lon="9.925482077796822"><ele>64.0</ele><time>2026-04-05T16:09:09.999Z</time></trkpt><trkpt lat="34.043483357491716" lon="9.925387734015331"><ele>64.5</ele><time>2026-04-05T16:09:10.999Z</time></trkpt><trkpt lat="34.0432273128872" lon="9.925294560236997"><ele>65.0</ele><time>2026-04-05T16:09:11.999Z</time></trkpt><trkpt lat="34.04297066797726" lon="9.925201195993727"><ele>65.0</ele><time>2026-04-05T16:09:12.999Z</time></trkpt><trkpt lat="34.04270932298036" lon="9.925109385072695"><ele>65.0</ele><time>2026-04-05T16:09:13.999Z</time></trkpt><trkpt lat="34.042449085236086" lon="9.925016086031304"><ele>66.5</ele><time>2026-04-05T16:09:14.999Z</time></trkpt><trkpt lat="34.04218327171863" lon="9.924920917204599"><ele>68.0</ele><time>2026-04-05T16:09:15.999Z</time></trkpt><trkpt lat="34.04191809141393" lon="9.92482416062789"><ele>68.0</ele><time>2026-04-05T16:09:16.999Z</time></trkpt><trkpt lat="34.04165381988554" lon="9.92472700292728"><ele>68.0</ele><time>2026-04-05T16:09:17.999Z</time></trkpt><trkpt lat="34.041389397172814" lon="9.924632098975879"><ele>68.0</ele><time>2026-04-05T16:09:18.999Z</time></trkpt><trkpt lat="34.041127230455494" lon="9.924539054261992"><ele>68.0</ele><time>2026-04-05T16:09:19.999Z</time></trkpt><trkpt lat="34.04087021088814" lon="9.924447772586321"><ele>68.0</ele><time>2026-04-05T16:09:20.999Z</time></trkpt><trkpt lat="34.04061783328885" lon="9.924356838012123"><ele>68.0</ele><time>2026-04-05T16:09:21.999Z</time></trkpt><trkpt lat="34.040365893385555" lon="9.924264020602768"><ele>68.0</ele><time>2026-04-05T16:09:22.999Z</time></trkpt><trkpt lat="34.040115268593404" lon="9.924171153099849"><ele>68.0</ele><time>2026-04-05T16:09:23.999Z</time></trkpt><trkpt lat="34.03986323078994" lon="9.924076990977532"><ele>70.0</ele><time>2026-04-05T16:09:24.999Z</time></trkpt><trkpt lat="34.03961384263629" lon="9.923986016160699"><ele>72.0</ele><time>2026-04-05T16:09:25.999Z</time></trkpt><trkpt lat="34.03936473701649" lon="9.923895542324294"><ele>73.0</ele><time>2026-04-05T16:09:26.999Z</time></trkpt><trkpt lat="34.03911355537131" lon="9.923806094763327"><ele>74.0</ele><time>2026-04-05T16:09:27.999Z</time></trkpt><trkpt lat="34.03886455806381" lon="9.923716729804903"><ele>74.0</ele><time>2026-04-05T16:09:29Z</time></trkpt><trkpt lat="34.03861509524733" lon="9.923629014834917"><ele>74.0</ele><time>2026-04-05T16:09:30Z</time></trkpt><trkpt lat="34.03836251559114" lon="9.923537935421493"><ele>74.0</ele><time>2026-04-05T16:09:31Z</time></trkpt><trkpt lat="34.038108284049116" lon="9.923440643875225"><ele>74.0</ele><time>2026-04-05T16:09:32Z</time></trkpt><trkpt lat="34.037857231225914" lon="9.923356222850078"><ele>74.0</ele><time>2026-04-05T16:09:33Z</time></trkpt><trkpt lat="34.037605618916736" lon="9.923267720166473"><ele>74.0</ele><time>2026-04-05T16:09:34Z</time></trkpt><trkpt lat="34.03735084849574" lon="9.923181366347468"><ele>74.0</ele><time>2026-04-05T16:09:35Z</time></trkpt><trkpt lat="34.037099466808804" lon="9.923091899940953"><ele>74.0</ele><time>2026-04-05T16:09:36Z</time></trkpt><trkpt lat="34.036848084884795" lon="9.923002609370318"><ele>74.0</ele><time>2026-04-05T16:09:37Z</time></trkpt><trkpt lat="34.03659591119609" lon="9.922914088098079"><ele>74.0</ele><time>2026-04-05T16:09:38Z</time></trkpt><trkpt lat="34.03634478306983" lon="9.922825638449057"><ele>74.0</ele><time>2026-04-05T16:09:39Z</time></trkpt><trkpt lat="34.036092980881286" lon="9.922734590177607"><ele>74.0</ele><time>2026-04-05T16:09:40Z</time></trkpt><trkpt lat="34.035842936209306" lon="9.922640786323354"><ele>72.5</ele><time>2026-04-05T16:09:41Z</time></trkpt><trkpt lat="34.03559496105632" lon="9.92254766279855"><ele>71.0</ele><time>2026-04-05T16:09:42Z</time></trkpt><trkpt lat="34.0353431452194" lon="9.922456115701147"><ele>71.0</ele><time>2026-04-05T16:09:43Z</time></trkpt><trkpt lat="34.035092768782164" lon="9.922365522558984"><ele>71.0</ele><time>2026-04-05T16:09:44Z</time></trkpt><trkpt lat="34.03484435703186" lon="9.922273607940602"><ele>71.0</ele><time>2026-04-05T16:09:45Z</time></trkpt><trkpt lat="34.034592614547236" lon="9.922188427934564"><ele>71.0</ele><time>2026-04-05T16:09:46Z</time></trkpt><trkpt lat="34.03434063889904" lon="9.92210964548825"><ele>71.5</ele><time>2026-04-05T16:09:47Z</time></trkpt><trkpt lat="34.0340892974409" lon="9.922028548565022"><ele>72.0</ele><time>2026-04-05T16:09:48Z</time></trkpt><trkpt lat="34.033839788856426" lon="9.921932824582171"><ele>72.0</ele><time>2026-04-05T16:09:49Z</time></trkpt><trkpt lat="34.03359129290972" lon="9.92183445688746"><ele>72.0</ele><time>2026-04-05T16:09:50Z</time></trkpt><trkpt lat="34.0333404999566" lon="9.921740909408664"><ele>72.0</ele><time>2026-04-05T16:09:51Z</time></trkpt><trkpt lat="34.03308946612206" lon="9.921650308677446"><ele>72.0</ele><time>2026-04-05T16:09:52Z</time></trkpt><trkpt lat="34.03283944216241" lon="9.9215597054909"><ele>72.0</ele><time>2026-04-05T16:09:53Z</time></trkpt><trkpt lat="34.03259087228554" lon="9.921470584591708"><ele>72.0</ele><time>2026-04-05T16:09:54Z</time></trkpt><trkpt lat="34.03233622544968" lon="9.921383167151182"><ele>72.5</ele><time>2026-04-05T16:09:55Z</time></trkpt><trkpt lat="34.03208699305596" lon="9.921294103708052"><ele>73.0</ele><time>2026-04-05T16:09:56Z</time></trkpt><trkpt lat="34.03182478481189" lon="9.921201197881812"><ele>73.5</ele><time>2026-04-05T16:09:57Z</time></trkpt><trkpt lat="34.03156697594171" lon="9.921105460378055"><ele>74.0</ele><time>2026-04-05T16:09:58Z</time></trkpt><trkpt lat="34.03130638753741" lon="9.921009432529036"><ele>74.0</ele><time>2026-04-05T16:09:59Z</time></trkpt><trkpt lat="34.031040498888565" lon="9.920912706978248"><ele>74.0</ele><time>2026-04-05T16:10:00Z</time></trkpt><trkpt lat="34.03077212987921" lon="9.920816253694568"><ele>75.0</ele><time>2026-04-05T16:10:01Z</time></trkpt><trkpt lat="34.03050808731752" lon="9.920718194896489"><ele>76.0</ele><time>2026-04-05T16:10:02Z</time></trkpt><trkpt lat="34.03024143086552" lon="9.920621862116198"><ele>76.5</ele><time>2026-04-05T16:10:03Z</time></trkpt><trkpt lat="34.029972343183246" lon="9.920527247382404"><ele>77.0</ele><time>2026-04-05T16:10:04Z</time></trkpt><trkpt lat="34.029705701111496" lon="9.92043541739301"><ele>77.0</ele><time>2026-04-05T16:10:05Z</time></trkpt><trkpt lat="34.02943832041072" lon="9.920341740555475"><ele>77.0</ele><time>2026-04-05T16:10:06Z</time></trkpt><trkpt lat="34.02917084284517" lon="9.920247283436026"><ele>76.5</ele><time>2026-04-05T16:10:07Z</time></trkpt><trkpt lat="34.02890468449998" lon="9.920154159024888"><ele>76.0</ele><time>2026-04-05T16:10:08Z</time></trkpt><trkpt lat="34.02863713881018" lon="9.92005924903617"><ele>76.0</ele><time>2026-04-05T16:10:09Z</time></trkpt><trkpt lat="34.02837127508159" lon="9.919964478219395"><ele>76.0</ele><time>2026-04-05T16:10:10Z</time></trkpt><trkpt lat="34.02810389429129" lon="9.919870808598182"><ele>76.0</ele><time>2026-04-05T16:10:11Z</time></trkpt><trkpt lat="34.02783269221263" lon="9.91978152570731"><ele>76.0</ele><time>2026-04-05T16:10:12Z</time></trkpt><trkpt lat="34.027556063684756" lon="9.919696408616405"><ele>76.0</ele><time>2026-04-05T16:10:13Z</time></trkpt><trkpt lat="34.02727701136985" lon="9.919615121095427"><ele>76.0</ele><time>2026-04-05T16:10:14Z</time></trkpt><trkpt lat="34.026998611144" lon="9.919537889413334"><ele>76.0</ele><time>2026-04-05T16:10:15Z</time></trkpt><trkpt lat="34.0267180648305" lon="9.919472755830201"><ele>76.0</ele><time>2026-04-05T16:10:16Z</time></trkpt><trkpt lat="34.02643491350879" lon="9.919414084350365"><ele>76.5</ele><time>2026-04-05T16:10:17Z</time></trkpt><trkpt lat="34.026151922057956" lon="9.919362406001358"><ele>77.0</ele><time>2026-04-05T16:10:18Z</time></trkpt><trkpt lat="34.02586738405179" lon="9.919316316014807"><ele>76.5</ele><time>2026-04-05T16:10:19Z</time></trkpt><trkpt lat="34.02558488452523" lon="9.919276060829263"><ele>76.0</ele><time>2026-04-05T16:10:19.999Z</time></trkpt><trkpt lat="34.02530083038088" lon="9.919240365179926"><ele>75.0</ele><time>2026-04-05T16:10:20.999Z</time></trkpt><trkpt lat="34.02501631471514" lon="9.919208865615483"><ele>74.0</ele><time>2026-04-05T16:10:21.999Z</time></trkpt><trkpt lat="34.02473458009205" lon="9.919180167757986"><ele>73.5</ele><time>2026-04-05T16:10:22.999Z</time></trkpt><trkpt lat="34.02444810631284" lon="9.919156594512856"><ele>73.0</ele><time>2026-04-05T16:10:23.999Z</time></trkpt><trkpt lat="34.024166257128655" lon="9.919138262312805"><ele>73.0</ele><time>2026-04-05T16:10:24.999Z</time></trkpt><trkpt lat="34.0238787464658" lon="9.919131199907772"><ele>73.0</ele><time>2026-04-05T16:10:25.999Z</time></trkpt><trkpt lat="34.0235956910649" lon="9.919130734248684"><ele>73.0</ele><time>2026-04-05T16:10:26.999Z</time></trkpt><trkpt lat="34.0233122646805" lon="9.919142247170784"><ele>73.0</ele><time>2026-04-05T16:10:27.999Z</time></trkpt><trkpt lat="34.02302825732088" lon="9.919154899275792"><ele>73.0</ele><time>2026-04-05T16:10:28.999Z</time></trkpt><trkpt lat="34.02274523329276" lon="9.919171439228796"><ele>73.0</ele><time>2026-04-05T16:10:29.999Z</time></trkpt><trkpt lat="34.02245832682" lon="9.91919544369444"><ele>72.0</ele><time>2026-04-05T16:10:30.999Z</time></trkpt><trkpt lat="34.02217539727171" lon="9.919221390143937"><ele>71.0</ele><time>2026-04-05T16:10:31.999Z</time></trkpt><trkpt lat="34.02189280448154" lon="9.919254909729082"><ele>72.0</ele><time>2026-04-05T16:10:32.999Z</time></trkpt><trkpt lat="34.021609421362754" lon="9.919293203700187"><ele>73.0</ele><time>2026-04-05T16:10:33.999Z</time></trkpt><trkpt lat="34.021326666176954" lon="9.919337424043018"><ele>73.0</ele><time>2026-04-05T16:10:34.999Z</time></trkpt><trkpt lat="34.02104494318238" lon="9.9193878713796"><ele>73.0</ele><time>2026-04-05T16:10:35.999Z</time></trkpt><trkpt lat="34.02076531210841" lon="9.919444618380084"><ele>72.5</ele><time>2026-04-05T16:10:36.999Z</time></trkpt><trkpt lat="34.02048474789001" lon="9.91950743568718"><ele>72.0</ele><time>2026-04-05T16:10:37.999Z</time></trkpt><trkpt lat="34.02020741968521" lon="9.919577835734234"><ele>69.5</ele><time>2026-04-05T16:10:38.999Z</time></trkpt><trkpt lat="34.019929827156346" lon="9.91965677473422"><ele>67.0</ele><time>2026-04-05T16:10:39.999Z</time></trkpt><trkpt lat="34.01965608905977" lon="9.919739707760522"><ele>67.0</ele><time>2026-04-05T16:10:40.999Z</time></trkpt><trkpt lat="34.01938046716123" lon="9.919830729166408"><ele>67.0</ele><time>2026-04-05T16:10:41.999Z</time></trkpt><trkpt lat="34.01910825425" lon="9.919922286415076"><ele>67.5</ele><time>2026-04-05T16:10:42.999Z</time></trkpt><trkpt lat="34.01883457293235" lon="9.920019241570243"><ele>68.0</ele><time>2026-04-05T16:10:43.999Z</time></trkpt><trkpt lat="34.018563464165645" lon="9.920120061474664"><ele>66.0</ele><time>2026-04-05T16:10:44.999Z</time></trkpt><trkpt lat="34.01829318526443" lon="9.92023108740306"><ele>64.0</ele><time>2026-04-05T16:10:45.999Z</time></trkpt><trkpt lat="34.01802588777813" lon="9.920348362420755"><ele>64.0</ele><time>2026-04-05T16:10:46.999Z</time></trkpt><trkpt lat="34.01775964491392" lon="9.920471505941006"><ele>64.0</ele><time>2026-04-05T16:10:47.999Z</time></trkpt><trkpt lat="34.017496799126484" lon="9.92059673562103"><ele>63.5</ele><time>2026-04-05T16:10:48.999Z</time></trkpt><trkpt lat="34.01723412815128" lon="9.920730980946313"><ele>63.0</ele><time>2026-04-05T16:10:49.999Z</time></trkpt><trkpt lat="34.01697445295364" lon="9.920866291035393"><ele>63.0</ele><time>2026-04-05T16:10:50.999Z</time></trkpt><trkpt lat="34.01671548482044" lon="9.921010479935946"><ele>63.0</ele><time>2026-04-05T16:10:51.999Z</time></trkpt><trkpt lat="34.0164578020338" lon="9.921158850661584"><ele>62.0</ele><time>2026-04-05T16:10:52.999Z</time></trkpt><trkpt lat="34.01620375066056" lon="9.92130818239628"><ele>61.0</ele><time>2026-04-05T16:10:53.999Z</time></trkpt><trkpt lat="34.01595044510389" lon="9.921465100791671"><ele>60.5</ele><time>2026-04-05T16:10:54.999Z</time></trkpt><trkpt lat="34.015699359012594" lon="9.921622041881166"><ele>60.0</ele><time>2026-04-05T16:10:55.999Z</time></trkpt><trkpt lat="34.01544810990384" lon="9.921781964308643"><ele>60.0</ele><time>2026-04-05T16:10:56.999Z</time></trkpt><trkpt lat="34.015198944684954" lon="9.921942930769902"><ele>60.0</ele><time>2026-04-05T16:10:57.999Z</time></trkpt><trkpt lat="34.01494611006997" lon="9.92210088567105"><ele>60.0</ele><time>2026-04-05T16:10:58.999Z</time></trkpt><trkpt lat="34.01469248701338" lon="9.922251723975801"><ele>60.0</ele><time>2026-04-05T16:10:59.999Z</time></trkpt><trkpt lat="34.01443515433484" lon="9.922402374937333"><ele>60.0</ele><time>2026-04-05T16:11:00.999Z</time></trkpt><trkpt lat="34.014180473829136" lon="9.922551585128042"><ele>60.0</ele><time>2026-04-05T16:11:01.999Z</time></trkpt><trkpt lat="34.013923623472614" lon="9.922703109794668"><ele>58.0</ele><time>2026-04-05T16:11:02.999Z</time></trkpt><trkpt lat="34.013668155833976" lon="9.922853150179082"><ele>56.0</ele><time>2026-04-05T16:11:03.999Z</time></trkpt><trkpt lat="34.01341339223805" lon="9.923005115516224"><ele>56.5</ele><time>2026-04-05T16:11:04.999Z</time></trkpt><trkpt lat="34.013157258512905" lon="9.92315966905738"><ele>57.0</ele><time>2026-04-05T16:11:05.999Z</time></trkpt><trkpt lat="34.012904125800134" lon="9.92331618053139"><ele>57.0</ele><time>2026-04-05T16:11:06.999Z</time></trkpt><trkpt lat="34.012651370977544" lon="9.923473459552017"><ele>57.0</ele><time>2026-04-05T16:11:07.999Z</time></trkpt><trkpt lat="34.012401403827326" lon="9.923631432070597"><ele>57.0</ele><time>2026-04-05T16:11:08.999Z</time></trkpt><trkpt lat="34.01214891256091" lon="9.923788437836286"><ele>57.0</ele><time>2026-04-05T16:11:09.999Z</time></trkpt><trkpt lat="34.011894350800304" lon="9.92394340601354"><ele>56.0</ele><time>2026-04-05T16:11:10.999Z</time></trkpt><trkpt lat="34.01163951565247" lon="9.924094942431937"><ele>55.0</ele><time>2026-04-05T16:11:11.999Z</time></trkpt><trkpt lat="34.011383932453654" lon="9.924244993848797"><ele>54.0</ele><time>2026-04-05T16:11:12.999Z</time></trkpt><trkpt lat="34.01112702356351" lon="9.924394600865094"><ele>53.0</ele><time>2026-04-05T16:11:13.999Z</time></trkpt><trkpt lat="34.01087180107792" lon="9.92454762463122"><ele>51.5</ele><time>2026-04-05T16:11:14.999Z</time></trkpt><trkpt lat="34.010618635002906" lon="9.924703149464845"><ele>50.0</ele><time>2026-04-05T16:11:15.999Z</time></trkpt><trkpt lat="34.01036624963433" lon="9.924862108822294"><ele>50.0</ele><time>2026-04-05T16:11:16.999Z</time></trkpt><trkpt lat="34.01011472751239" lon="9.925019274062112"><ele>50.0</ele><time>2026-04-05T16:11:17.999Z</time></trkpt><trkpt lat="34.009861561998214" lon="9.925178090242024"><ele>49.5</ele><time>2026-04-05T16:11:18.999Z</time></trkpt><trkpt lat="34.00960880719112" lon="9.925334726420083"><ele>49.0</ele><time>2026-04-05T16:11:19.999Z</time></trkpt><trkpt lat="34.00935427379483" lon="9.92548797625287"><ele>49.5</ele><time>2026-04-05T16:11:20.999Z</time></trkpt><trkpt lat="34.00909889809545" lon="9.925640594909545"><ele>50.0</ele><time>2026-04-05T16:11:21.999Z</time></trkpt><trkpt lat="34.00884280225986" lon="9.925792470957512"><ele>50.5</ele><time>2026-04-05T16:11:22.999Z</time></trkpt><trkpt lat="34.008588153411054" lon="9.925941873152219"><ele>51.0</ele><time>2026-04-05T16:11:23.999Z</time></trkpt><trkpt lat="34.00833216778831" lon="9.926094207765201"><ele>52.0</ele><time>2026-04-05T16:11:24.999Z</time></trkpt><trkpt lat="34.0080774833315" lon="9.926247336376774"><ele>53.0</ele><time>2026-04-05T16:11:25.999Z</time></trkpt><trkpt lat="34.00782342301005" lon="9.92640289821689"><ele>53.0</ele><time>2026-04-05T16:11:26.999Z</time></trkpt><trkpt lat="34.007571330892375" lon="9.926561949729024"><ele>53.0</ele><time>2026-04-05T16:11:27.999Z</time></trkpt><trkpt lat="34.00731733651263" lon="9.926723902020722"><ele>54.0</ele><time>2026-04-05T16:11:28.999Z</time></trkpt><trkpt lat="34.00706534638465" lon="9.926880190646354"><ele>55.0</ele><time>2026-04-05T16:11:29.999Z</time></trkpt><trkpt lat="34.006811741706514" lon="9.927036163980757"><ele>53.0</ele><time>2026-04-05T16:11:30.999Z</time></trkpt><trkpt lat="34.00655697205791" lon="9.927190361070414"><ele>51.0</ele><time>2026-04-05T16:11:31.999Z</time></trkpt><trkpt lat="34.00630190188394" lon="9.927345276641448"><ele>51.0</ele><time>2026-04-05T16:11:32.999Z</time></trkpt><trkpt lat="34.006046035356384" lon="9.92749803331204"><ele>51.0</ele><time>2026-04-05T16:11:33.999Z</time></trkpt><trkpt lat="34.00578912804804" lon="9.927651090165584"><ele>49.5</ele><time>2026-04-05T16:11:35Z</time></trkpt><trkpt lat="34.005533101973334" lon="9.927803068819076"><ele>48.0</ele><time>2026-04-05T16:11:36Z</time></trkpt><trkpt lat="34.005276990183205" lon="9.927954182356254"><ele>48.0</ele><time>2026-04-05T16:11:37Z</time></trkpt><trkpt lat="34.005021216770764" lon="9.92810611184108"><ele>48.0</ele><time>2026-04-05T16:11:38Z</time></trkpt><trkpt lat="34.00476542594039" lon="9.928258897833848"><ele>46.5</ele><time>2026-04-05T16:11:39Z</time></trkpt><trkpt lat="34.004510303449266" lon="9.928411736756841"><ele>45.0</ele><time>2026-04-05T16:11:40Z</time></trkpt><trkpt lat="34.00425686034579" lon="9.928566974504601"><ele>44.0</ele><time>2026-04-05T16:11:41Z</time></trkpt><trkpt lat="34.004003926660666" lon="9.92872292131784"><ele>43.0</ele><time>2026-04-05T16:11:42Z</time></trkpt><trkpt lat="34.003750056468" lon="9.928882323076865"><ele>43.0</ele><time>2026-04-05T16:11:43Z</time></trkpt><trkpt lat="34.0034976124339" lon="9.929040329937585"><ele>43.0</ele><time>2026-04-05T16:11:44Z</time></trkpt><trkpt lat="34.00324527234061" lon="9.92919468587892"><ele>43.5</ele><time>2026-04-05T16:11:45Z</time></trkpt><trkpt lat="34.00299002705747" lon="9.92934959297926"><ele>44.0</ele><time>2026-04-05T16:11:46Z</time></trkpt><trkpt lat="34.002737344087016" lon="9.92950180808515"><ele>42.0</ele><time>2026-04-05T16:11:47Z</time></trkpt><trkpt lat="34.00248372263207" lon="9.929654071649102"><ele>40.0</ele><time>2026-04-05T16:11:48Z</time></trkpt><trkpt lat="34.0022313122108" lon="9.929808076468724"><ele>40.0</ele><time>2026-04-05T16:11:48.999Z</time></trkpt><trkpt lat="34.001976946451464" lon="9.929962906992278"><ele>40.0</ele><time>2026-04-05T16:11:49.999Z</time></trkpt><trkpt lat="34.00172259395096" lon="9.930118691144825"><ele>40.5</ele><time>2026-04-05T16:11:50.999Z</time></trkpt><trkpt lat="34.00146922783042" lon="9.930270333350672"><ele>41.0</ele><time>2026-04-05T16:11:51.999Z</time></trkpt><trkpt lat="34.001215870623774" lon="9.93042438352047"><ele>41.0</ele><time>2026-04-05T16:11:52.999Z</time></trkpt><trkpt lat="34.000964490337125" lon="9.93057896461522"><ele>41.0</ele><time>2026-04-05T16:11:53.999Z</time></trkpt><trkpt lat="34.000711968839006" lon="9.930737486162203"><ele>40.5</ele><time>2026-04-05T16:11:54.999Z</time></trkpt><trkpt lat="34.000460801026655" lon="9.930894757203108"><ele>40.0</ele><time>2026-04-05T16:11:55.999Z</time></trkpt><trkpt lat="34.000206417668515" lon="9.931049117924527"><ele>40.0</ele><time>2026-04-05T16:11:56.999Z</time></trkpt><trkpt lat="33.99993605511514" lon="9.931210320655673"><ele>40.0</ele><time>2026-04-05T16:11:57.999Z</time></trkpt><trkpt lat="33.999646600408646" lon="9.931384667346121"><ele>40.0</ele><time>2026-04-05T16:11:58.999Z</time></trkpt><trkpt lat="33.99934415274639" lon="9.931570337533"><ele>40.0</ele><time>2026-04-05T16:11:59.999Z</time></trkpt><trkpt lat="33.99904283895308" lon="9.931755167679134"><ele>39.5</ele><time>2026-04-05T16:12:00.999Z</time></trkpt><trkpt lat="33.99875058952681" lon="9.931934511615268"><ele>39.0</ele><time>2026-04-05T16:12:01.999Z</time></trkpt><trkpt lat="33.99846893107325" lon="9.932107097311281"><ele>39.0</ele><time>2026-04-05T16:12:02.999Z</time></trkpt><trkpt lat="33.99819024361527" lon="9.932277071611766"><ele>39.0</ele><time>2026-04-05T16:12:03.999Z</time></trkpt><trkpt lat="33.9979088099286" lon="9.932444568683804"><ele>39.0</ele><time>2026-04-05T16:12:04.999Z</time></trkpt><trkpt lat="33.99763055319417" lon="9.932611691411736"><ele>39.0</ele><time>2026-04-05T16:12:05.999Z</time></trkpt><trkpt lat="33.99735358900872" lon="9.932780869969976"><ele>38.0</ele><time>2026-04-05T16:12:06.999Z</time></trkpt><trkpt lat="33.99707661541691" lon="9.932949251628655"><ele>37.0</ele><time>2026-04-05T16:12:07.999Z</time></trkpt><trkpt lat="33.996797466733874" lon="9.933119183048165"><ele>38.0</ele><time>2026-04-05T16:12:08.999Z</time></trkpt><trkpt lat="33.99652079111956" lon="9.933288043751691"><ele>39.0</ele><time>2026-04-05T16:12:09.999Z</time></trkpt><trkpt lat="33.99624532256473" lon="9.933456648671138"><ele>39.5</ele><time>2026-04-05T16:12:10.999Z</time></trkpt><trkpt lat="33.995973381108996" lon="9.933623224238538"><ele>40.0</ele><time>2026-04-05T16:12:11.999Z</time></trkpt><trkpt lat="33.99570043428691" lon="9.933788499705791"><ele>40.0</ele><time>2026-04-05T16:12:12.999Z</time></trkpt><trkpt lat="33.99542700002137" lon="9.933954468810718"><ele>40.0</ele><time>2026-04-05T16:12:13.999Z</time></trkpt><trkpt lat="33.99515410308668" lon="9.934118790180225"><ele>41.0</ele><time>2026-04-05T16:12:14.999Z</time></trkpt><trkpt lat="33.99488176189447" lon="9.93428341674352"><ele>42.0</ele><time>2026-04-05T16:12:15.999Z</time></trkpt><trkpt lat="33.99460765469998" lon="9.934450375520598"><ele>42.0</ele><time>2026-04-05T16:12:16.999Z</time></trkpt><trkpt lat="33.994334098955136" lon="9.934615785324448"><ele>42.0</ele><time>2026-04-05T16:12:17.999Z</time></trkpt><trkpt lat="33.9940583043178" lon="9.934777597684038"><ele>41.0</ele><time>2026-04-05T16:12:18.999Z</time></trkpt><trkpt lat="33.99378354963428" lon="9.93494218103881"><ele>40.0</ele><time>2026-04-05T16:12:19.999Z</time></trkpt><trkpt lat="33.993510332885855" lon="9.935109321809719"><ele>37.5</ele><time>2026-04-05T16:12:20.999Z</time></trkpt><trkpt lat="33.99324275500271" lon="9.935273695383996"><ele>35.0</ele><time>2026-04-05T16:12:21.999Z</time></trkpt><trkpt lat="33.99297985410898" lon="9.935441865629526"><ele>35.0</ele><time>2026-04-05T16:12:22.999Z</time></trkpt><trkpt lat="33.99271779857486" lon="9.935604708143055"><ele>35.0</ele><time>2026-04-05T16:12:23.999Z</time></trkpt><trkpt lat="33.99245577087768" lon="9.935763212515837"><ele>36.5</ele><time>2026-04-05T16:12:24.999Z</time></trkpt><trkpt lat="33.99219372374976" lon="9.935919667104324"><ele>38.0</ele><time>2026-04-05T16:12:25.999Z</time></trkpt><trkpt lat="33.99193464997155" lon="9.936076760591812"><ele>38.0</ele><time>2026-04-05T16:12:26.999Z</time></trkpt><trkpt lat="33.991675270801636" lon="9.936231650707581"><ele>38.0</ele><time>2026-04-05T16:12:27.999Z</time></trkpt><trkpt lat="33.9914201923212" lon="9.936388155787787"><ele>36.5</ele><time>2026-04-05T16:12:28.999Z</time></trkpt><trkpt lat="33.991164679344486" lon="9.936546931750092"><ele>35.0</ele><time>2026-04-05T16:12:29.999Z</time></trkpt><trkpt lat="33.990905967047524" lon="9.936703097789012"><ele>34.0</ele><time>2026-04-05T16:12:30.999Z</time></trkpt><trkpt lat="33.99064833467655" lon="9.936858258042662"><ele>33.0</ele><time>2026-04-05T16:12:31.999Z</time></trkpt><trkpt lat="33.990385911873126" lon="9.937018207683986"><ele>33.0</ele><time>2026-04-05T16:12:32.999Z</time></trkpt><trkpt lat="33.9901296127027" lon="9.937172566184715"><ele>33.0</ele><time>2026-04-05T16:12:33.999Z</time></trkpt><trkpt lat="33.98986730719971" lon="9.93732880347452"><ele>33.5</ele><time>2026-04-05T16:12:34.999Z</time></trkpt><trkpt lat="33.98961009919014" lon="9.937483173717947"><ele>34.0</ele><time>2026-04-05T16:12:35.999Z</time></trkpt><trkpt lat="33.98934871782967" lon="9.93763797240877"><ele>35.0</ele><time>2026-04-05T16:12:36.999Z</time></trkpt><trkpt lat="33.989093233339084" lon="9.937795266830648"><ele>36.0</ele><time>2026-04-05T16:12:37.999Z</time></trkpt><trkpt lat="33.988832860315796" lon="9.937955162577818"><ele>36.0</ele><time>2026-04-05T16:12:38.999Z</time></trkpt><trkpt lat="33.988578237039114" lon="9.938113208000235"><ele>36.0</ele><time>2026-04-05T16:12:39.999Z</time></trkpt><trkpt lat="33.98831925023813" lon="9.938275136250626"><ele>34.5</ele><time>2026-04-05T16:12:40.999Z</time></trkpt><trkpt lat="33.988062126274976" lon="9.938432513090458"><ele>33.0</ele><time>2026-04-05T16:12:41.999Z</time></trkpt><trkpt lat="33.98780414538029" lon="9.938590785962452"><ele>33.0</ele><time>2026-04-05T16:12:42.999Z</time></trkpt><trkpt lat="33.987544928524926" lon="9.938743371542442"><ele>33.0</ele><time>2026-04-05T16:12:43.999Z</time></trkpt><trkpt lat="33.98728545508448" lon="9.938898870598958"><ele>32.5</ele><time>2026-04-05T16:12:44.999Z</time></trkpt><trkpt lat="33.987029007580475" lon="9.93905414494008"><ele>32.0</ele><time>2026-04-05T16:12:45.999Z</time></trkpt><trkpt lat="33.98677100508432" lon="9.939215705155478"><ele>32.0</ele><time>2026-04-05T16:12:46.999Z</time></trkpt><trkpt lat="33.98651923582875" lon="9.939376978567342"><ele>32.0</ele><time>2026-04-05T16:12:47.999Z</time></trkpt><trkpt lat="33.98626363214918" lon="9.939545056268638"><ele>32.0</ele><time>2026-04-05T16:12:48.999Z</time></trkpt><trkpt lat="33.98600969511703" lon="9.939712461570368"><ele>32.0</ele><time>2026-04-05T16:12:49.999Z</time></trkpt><trkpt lat="33.985754981499944" lon="9.939875706828365"><ele>32.0</ele><time>2026-04-05T16:12:50.999Z</time></trkpt><trkpt lat="33.98549587358144" lon="9.940037737921772"><ele>32.0</ele><time>2026-04-05T16:12:51.999Z</time></trkpt><trkpt lat="33.98523521252253" lon="9.94019049290185"><ele>32.5</ele><time>2026-04-05T16:12:52.999Z</time></trkpt><trkpt lat="33.98497354260174" lon="9.940340282954125"><ele>33.0</ele><time>2026-04-05T16:12:53.999Z</time></trkpt><trkpt lat="33.98471019416513" lon="9.940486210386231"><ele>33.0</ele><time>2026-04-05T16:12:54.999Z</time></trkpt><trkpt lat="33.98444801823151" lon="9.940628701617173"><ele>33.0</ele><time>2026-04-05T16:12:55.999Z</time></trkpt><trkpt lat="33.98418599098896" lon="9.940770655567896"><ele>34.0</ele><time>2026-04-05T16:12:56.999Z</time></trkpt><trkpt lat="33.98392441954429" lon="9.940926597692172"><ele>35.0</ele><time>2026-04-05T16:12:57.999Z</time></trkpt><trkpt lat="33.98366956386443" lon="9.94108310869576"><ele>35.0</ele><time>2026-04-05T16:12:58.999Z</time></trkpt><trkpt lat="33.98341220783794" lon="9.941246941028927"><ele>35.0</ele><time>2026-04-05T16:12:59.999Z</time></trkpt><trkpt lat="33.983157320549005" lon="9.94140840307872"><ele>35.5</ele><time>2026-04-05T16:13:00.999Z</time></trkpt><trkpt lat="33.98289893243565" lon="9.94156765743732"><ele>36.0</ele><time>2026-04-05T16:13:01.999Z</time></trkpt><trkpt lat="33.982641503255444" lon="9.941720329296254"><ele>35.0</ele><time>2026-04-05T16:13:02.999Z</time></trkpt><trkpt lat="33.982380178501266" lon="9.941878191197738"><ele>34.0</ele><time>2026-04-05T16:13:03.999Z</time></trkpt><trkpt lat="33.98212242830104" lon="9.94203386639309"><ele>34.0</ele><time>2026-04-05T16:13:04.999Z</time></trkpt><trkpt lat="33.98186443627824" lon="9.942189986895311"><ele>34.0</ele><time>2026-04-05T16:13:05.999Z</time></trkpt><trkpt lat="33.98160379667021" lon="9.942352400413096"><ele>31.5</ele><time>2026-04-05T16:13:06.999Z</time></trkpt><trkpt lat="33.98134839826472" lon="9.942511585647928"><ele>29.0</ele><time>2026-04-05T16:13:07.999Z</time></trkpt><trkpt lat="33.981090313196795" lon="9.942671263660138"><ele>28.0</ele><time>2026-04-05T16:13:08.999Z</time></trkpt><trkpt lat="33.98083185740722" lon="9.942834586823892"><ele>27.0</ele><time>2026-04-05T16:13:09.999Z</time></trkpt><trkpt lat="33.98057507180024" lon="9.942989497637296"><ele>27.0</ele><time>2026-04-05T16:13:10.999Z</time></trkpt><trkpt lat="33.980314087272724" lon="9.943144011565186"><ele>27.0</ele><time>2026-04-05T16:13:11.999Z</time></trkpt><trkpt lat="33.980053389444464" lon="9.943300314895463"><ele>26.5</ele><time>2026-04-05T16:13:12.999Z</time></trkpt><trkpt lat="33.97979471863231" lon="9.943454621562108"><ele>26.0</ele><time>2026-04-05T16:13:13.999Z</time></trkpt><trkpt lat="33.9795354498915" lon="9.94361117770051"><ele>26.0</ele><time>2026-04-05T16:13:14.999Z</time></trkpt><trkpt lat="33.979277506357846" lon="9.943766851213512"><ele>26.0</ele><time>2026-04-05T16:13:15.999Z</time></trkpt><trkpt lat="33.97901914364096" lon="9.943929369254537"><ele>27.0</ele><time>2026-04-05T16:13:16.999Z</time></trkpt><trkpt lat="33.97875991151836" lon="9.944085651205018"><ele>28.0</ele><time>2026-04-05T16:13:17.999Z</time></trkpt><trkpt lat="33.97850091377483" lon="9.94423888830826"><ele>29.0</ele><time>2026-04-05T16:13:18.999Z</time></trkpt><trkpt lat="33.97824339502994" lon="9.944398939521331"><ele>30.0</ele><time>2026-04-05T16:13:19.999Z</time></trkpt><trkpt lat="33.97798400699882" lon="9.944560990509109"><ele>30.0</ele><time>2026-04-05T16:13:20.999Z</time></trkpt><trkpt lat="33.9777268313704" lon="9.944713821633847"><ele>30.0</ele><time>2026-04-05T16:13:21.999Z</time></trkpt><trkpt lat="33.97746859001256" lon="9.944875453923604"><ele>30.0</ele><time>2026-04-05T16:13:22.999Z</time></trkpt><trkpt lat="33.97720908039279" lon="9.945030183848393"><ele>30.0</ele><time>2026-04-05T16:13:23.999Z</time></trkpt><trkpt lat="33.97695067676077" lon="9.945186797612926"><ele>31.0</ele><time>2026-04-05T16:13:24.999Z</time></trkpt><trkpt lat="33.97669222976192" lon="9.945341982723086"><ele>32.0</ele><time>2026-04-05T16:13:25.999Z</time></trkpt><trkpt lat="33.97643302183132" lon="9.945497056260091"><ele>32.0</ele><time>2026-04-05T16:13:26.999Z</time></trkpt><trkpt lat="33.97617475831963" lon="9.94565911094324"><ele>32.0</ele><time>2026-04-05T16:13:27.999Z</time></trkpt><trkpt lat="33.97591641703795" lon="9.94581394083512"><ele>32.0</ele><time>2026-04-05T16:13:28.999Z</time></trkpt><trkpt lat="33.975658367369796" lon="9.9459709031075"><ele>32.0</ele><time>2026-04-05T16:13:29.999Z</time></trkpt><trkpt lat="33.97540059413439" lon="9.946125504230633"><ele>32.0</ele><time>2026-04-05T16:13:30.999Z</time></trkpt><trkpt lat="33.975141505854424" lon="9.946280867759079"><ele>32.0</ele><time>2026-04-05T16:13:31.999Z</time></trkpt><trkpt lat="33.974883900171115" lon="9.94643383364999"><ele>32.0</ele><time>2026-04-05T16:13:32.999Z</time></trkpt><trkpt lat="33.97462519405941" lon="9.94659515704239"><ele>32.0</ele><time>2026-04-05T16:13:33.999Z</time></trkpt><trkpt lat="33.974365595429795" lon="9.946750998884886"><ele>31.5</ele><time>2026-04-05T16:13:34.999Z</time></trkpt><trkpt lat="33.9741076012551" lon="9.946909452975323"><ele>31.0</ele><time>2026-04-05T16:13:35.999Z</time></trkpt><trkpt lat="33.973848552598355" lon="9.94706471724248"><ele>31.0</ele><time>2026-04-05T16:13:36.999Z</time></trkpt><trkpt lat="33.973590307977936" lon="9.947223269026274"><ele>31.0</ele><time>2026-04-05T16:13:37.999Z</time></trkpt><trkpt lat="33.973333228993056" lon="9.947386816493584"><ele>32.0</ele><time>2026-04-05T16:13:38.999Z</time></trkpt><trkpt lat="33.97307433316408" lon="9.947542034886366"><ele>33.0</ele><time>2026-04-05T16:13:39.999Z</time></trkpt><trkpt lat="33.97281765323344" lon="9.947702774139648"><ele>33.0</ele><time>2026-04-05T16:13:41Z</time></trkpt><trkpt lat="33.972560259752925" lon="9.947861052243189"><ele>33.0</ele><time>2026-04-05T16:13:42Z</time></trkpt><trkpt lat="33.97230051418364" lon="9.948018346491507"><ele>32.5</ele><time>2026-04-05T16:13:43Z</time></trkpt><trkpt lat="33.97204208339638" lon="9.948174788129982"><ele>32.0</ele><time>2026-04-05T16:13:44Z</time></trkpt><trkpt lat="33.97178440033143" lon="9.948329196346224"><ele>32.0</ele><time>2026-04-05T16:13:45Z</time></trkpt><trkpt lat="33.971526540447975" lon="9.948482103218096"><ele>32.0</ele><time>2026-04-05T16:13:46Z</time></trkpt><trkpt lat="33.97126737272724" lon="9.948634230507668"><ele>32.0</ele><time>2026-04-05T16:13:47Z</time></trkpt><trkpt lat="33.971010655585474" lon="9.948787478097081"><ele>32.0</ele><time>2026-04-05T16:13:48Z</time></trkpt><trkpt lat="33.97075428887897" lon="9.94894231758319"><ele>33.0</ele><time>2026-04-05T16:13:49Z</time></trkpt><trkpt lat="33.97049953844963" lon="9.94910116730153"><ele>34.0</ele><time>2026-04-05T16:13:50Z</time></trkpt><trkpt lat="33.97024410700144" lon="9.949257928783194"><ele>33.5</ele><time>2026-04-05T16:13:51Z</time></trkpt><trkpt lat="33.96998757398649" lon="9.949412013137488"><ele>33.0</ele><time>2026-04-05T16:13:52Z</time></trkpt><trkpt lat="33.96973124064545" lon="9.949567806506604"><ele>33.0</ele><time>2026-04-05T16:13:53Z</time></trkpt><trkpt lat="33.96947533256524" lon="9.949725482939652"><ele>33.0</ele><time>2026-04-05T16:13:54Z</time></trkpt><trkpt lat="33.96921614833559" lon="9.94987826556835"><ele>33.0</ele><time>2026-04-05T16:13:55Z</time></trkpt><trkpt lat="33.96896018947695" lon="9.950031646791443"><ele>33.0</ele><time>2026-04-05T16:13:56Z</time></trkpt><trkpt lat="33.9687042052609" lon="9.950187128733399"><ele>33.0</ele><time>2026-04-05T16:13:57Z</time></trkpt><trkpt lat="33.968447569808966" lon="9.950346053361882"><ele>33.0</ele><time>2026-04-05T16:13:58Z</time></trkpt><trkpt lat="33.96819253173808" lon="9.950504279549891"><ele>33.5</ele><time>2026-04-05T16:13:59Z</time></trkpt><trkpt lat="33.96793788123808" lon="9.95066179530797"><ele>34.0</ele><time>2026-04-05T16:14:00Z</time></trkpt><trkpt lat="33.9676826704041" lon="9.950815080946464"><ele>33.0</ele><time>2026-04-05T16:14:01Z</time></trkpt><trkpt lat="33.96742688061121" lon="9.950970373420185"><ele>32.0</ele><time>2026-04-05T16:14:02Z</time></trkpt><trkpt lat="33.967168840918156" lon="9.951123459566718"><ele>32.0</ele><time>2026-04-05T16:14:03Z</time></trkpt><trkpt lat="33.9669138739955" lon="9.95128174535827"><ele>32.0</ele><time>2026-04-05T16:14:04Z</time></trkpt><trkpt lat="33.966657863894085" lon="9.951440144804591"><ele>33.0</ele><time>2026-04-05T16:14:05Z</time></trkpt><trkpt lat="33.96640318785093" lon="9.951599728104183"><ele>34.0</ele><time>2026-04-05T16:14:06Z</time></trkpt><trkpt lat="33.96614723045371" lon="9.951754946001035"><ele>34.0</ele><time>2026-04-05T16:14:07Z</time></trkpt><trkpt lat="33.96589055093225" lon="9.951906444403749"><ele>34.0</ele><time>2026-04-05T16:14:08Z</time></trkpt><trkpt lat="33.96563336907422" lon="9.95206252913878"><ele>35.0</ele><time>2026-04-05T16:14:09Z</time></trkpt><trkpt lat="33.965377298488505" lon="9.952224060634801"><ele>36.0</ele><time>2026-04-05T16:14:10Z</time></trkpt><trkpt lat="33.96512347872651" lon="9.952386388307648"><ele>36.0</ele><time>2026-04-05T16:14:11Z</time></trkpt><trkpt lat="33.96486964591622" lon="9.9525474069699"><ele>36.0</ele><time>2026-04-05T16:14:12Z</time></trkpt><trkpt lat="33.96461632773365" lon="9.952708429789315"><ele>36.0</ele><time>2026-04-05T16:14:13Z</time></trkpt><trkpt lat="33.96436038819994" lon="9.95286602304599"><ele>36.0</ele><time>2026-04-05T16:14:14Z</time></trkpt><trkpt lat="33.96410277149302" lon="9.953017722480167"><ele>37.0</ele><time>2026-04-05T16:14:15Z</time></trkpt><trkpt lat="33.96384215450787" lon="9.953159434527407"><ele>38.0</ele><time>2026-04-05T16:14:16Z</time></trkpt><trkpt lat="33.963583063543076" lon="9.95331014181996"><ele>39.5</ele><time>2026-04-05T16:14:17Z</time></trkpt><trkpt lat="33.96332432393879" lon="9.953461803121813"><ele>41.0</ele><time>2026-04-05T16:14:18Z</time></trkpt><trkpt lat="33.96306871376183" lon="9.95361536633243"><ele>41.0</ele><time>2026-04-05T16:14:19Z</time></trkpt><trkpt lat="33.962812195307734" lon="9.953768997091158"><ele>41.0</ele><time>2026-04-05T16:14:20Z</time></trkpt><trkpt lat="33.96255588896549" lon="9.953927322315723"><ele>42.0</ele><time>2026-04-05T16:14:21Z</time></trkpt><trkpt lat="33.96229801943315" lon="9.954080396974623"><ele>43.0</ele><time>2026-04-05T16:14:22Z</time></trkpt><trkpt lat="33.96203918972887" lon="9.954227856848993"><ele>43.0</ele><time>2026-04-05T16:14:22.999Z</time></trkpt><trkpt lat="33.96177826025859" lon="9.954374754943661"><ele>43.0</ele><time>2026-04-05T16:14:23.999Z</time></trkpt><trkpt lat="33.9615174253614" lon="9.95452037403959"><ele>43.0</ele><time>2026-04-05T16:14:24.999Z</time></trkpt><trkpt lat="33.96125405486645" lon="9.954659984989656"><ele>43.0</ele><time>2026-04-05T16:14:25.999Z</time></trkpt><trkpt lat="33.96098956883684" lon="9.954793367013762"><ele>45.0</ele><time>2026-04-05T16:14:26.999Z</time></trkpt><trkpt lat="33.96072562706436" lon="9.954929895786982"><ele>47.0</ele><time>2026-04-05T16:14:27.999Z</time></trkpt><trkpt lat="33.96046066928165" lon="9.955071247509203"><ele>47.0</ele><time>2026-04-05T16:14:28.999Z</time></trkpt><trkpt lat="33.960196183824024" lon="9.955206042667733"><ele>47.0</ele><time>2026-04-05T16:14:29.999Z</time></trkpt><trkpt lat="33.95993104255482" lon="9.955338231598935"><ele>49.0</ele><time>2026-04-05T16:14:30.999Z</time></trkpt><trkpt lat="33.95966321245661" lon="9.955466741169825"><ele>51.0</ele><time>2026-04-05T16:14:31.999Z</time></trkpt><trkpt lat="33.959394296058036" lon="9.955593333622385"><ele>49.5</ele><time>2026-04-05T16:14:32.999Z</time></trkpt><trkpt lat="33.95912908292895" lon="9.955720662582921"><ele>48.0</ele><time>2026-04-05T16:14:33.999Z</time></trkpt><trkpt lat="33.95885769359715" lon="9.955842940427438"><ele>47.5</ele><time>2026-04-05T16:14:34.999Z</time></trkpt><trkpt lat="33.9585875388181" lon="9.955963393041122"><ele>47.0</ele><time>2026-04-05T16:14:35.999Z</time></trkpt><trkpt lat="33.95831538998326" lon="9.956076423348655"><ele>46.5</ele><time>2026-04-05T16:14:36.999Z</time></trkpt><trkpt lat="33.9580448575682" lon="9.956192039956074"><ele>46.0</ele><time>2026-04-05T16:14:37.999Z</time></trkpt><trkpt lat="33.95777421333727" lon="9.956309921305639"><ele>47.0</ele><time>2026-04-05T16:14:38.999Z</time></trkpt><trkpt lat="33.957503398602114" lon="9.956433972154493"><ele>48.0</ele><time>2026-04-05T16:14:39.999Z</time></trkpt><trkpt lat="33.95722453986093" lon="9.956549523409155"><ele>48.0</ele><time>2026-04-05T16:14:40.999Z</time></trkpt><trkpt lat="33.95692933245053" lon="9.956667360475233"><ele>48.0</ele><time>2026-04-05T16:14:41.999Z</time></trkpt><trkpt lat="33.95662519922992" lon="9.956783686495493"><ele>47.0</ele><time>2026-04-05T16:14:42.999Z</time></trkpt><trkpt lat="33.956320668476636" lon="9.956901327023429"><ele>46.0</ele><time>2026-04-05T16:14:43.999Z</time></trkpt><trkpt lat="33.95601430992582" lon="9.95701997661019"><ele>46.5</ele><time>2026-04-05T16:14:44.999Z</time></trkpt><trkpt lat="33.95571366483061" lon="9.95712870641073"><ele>47.0</ele><time>2026-04-05T16:14:45.999Z</time></trkpt><trkpt lat="33.955400472550146" lon="9.957243923452827"><ele>47.0</ele><time>2026-04-05T16:14:46.999Z</time></trkpt><trkpt lat="33.95510566156062" lon="9.957343695331426"><ele>47.0</ele><time>2026-04-05T16:14:47.999Z</time></trkpt><trkpt lat="33.95480308960925" lon="9.957452464149679"><ele>47.5</ele><time>2026-04-05T16:14:48.999Z</time></trkpt><trkpt lat="33.95450138007919" lon="9.957553238123102"><ele>48.0</ele><time>2026-04-05T16:14:49.999Z</time></trkpt><trkpt lat="33.95420602657249" lon="9.95765015488442"><ele>48.5</ele><time>2026-04-05T16:14:50.999Z</time></trkpt><trkpt lat="33.9539135635563" lon="9.95774134735691"><ele>49.0</ele><time>2026-04-05T16:14:51.999Z</time></trkpt><trkpt lat="33.95362354207193" lon="9.957824995502001"><ele>49.5</ele><time>2026-04-05T16:14:52.999Z</time></trkpt><trkpt lat="33.95333368135122" lon="9.957909394066423"><ele>50.0</ele><time>2026-04-05T16:14:53.999Z</time></trkpt><trkpt lat="33.95304638848318" lon="9.957990860719915"><ele>50.0</ele><time>2026-04-05T16:14:54.999Z</time></trkpt><trkpt lat="33.95276461003414" lon="9.958070037470494"><ele>50.0</ele><time>2026-04-05T16:14:55.999Z</time></trkpt><trkpt lat="33.952486267303904" lon="9.958146634495325"><ele>49.5</ele><time>2026-04-05T16:14:56.999Z</time></trkpt><trkpt lat="33.95220874044245" lon="9.958219791938227"><ele>49.0</ele><time>2026-04-05T16:14:57.999Z</time></trkpt><trkpt lat="33.95193018530098" lon="9.958288717265189"><ele>49.0</ele><time>2026-04-05T16:14:58.999Z</time></trkpt><trkpt lat="33.95164871856459" lon="9.958358832451609"><ele>49.0</ele><time>2026-04-05T16:14:59.999Z</time></trkpt><trkpt lat="33.95136905294616" lon="9.958430172377406"><ele>49.0</ele><time>2026-04-05T16:15:00.999Z</time></trkpt><trkpt lat="33.951090846307714" lon="9.958502478777536"><ele>49.0</ele><time>2026-04-05T16:15:01.999Z</time></trkpt><trkpt lat="33.950808306739454" lon="9.958577129551843"><ele>49.5</ele><time>2026-04-05T16:15:02.999Z</time></trkpt><trkpt lat="33.950526047866475" lon="9.958648097018006"><ele>50.0</ele><time>2026-04-05T16:15:03.999Z</time></trkpt><trkpt lat="33.95024143602184" lon="9.958721104138345"><ele>50.0</ele><time>2026-04-05T16:15:04.999Z</time></trkpt><trkpt lat="33.94995696459305" lon="9.958793709129584"><ele>50.0</ele><time>2026-04-05T16:15:05.999Z</time></trkpt><trkpt lat="33.94967611000895" lon="9.958866379512079"><ele>50.0</ele><time>2026-04-05T16:15:06.999Z</time></trkpt><trkpt lat="33.94939687036836" lon="9.958938349983425"><ele>50.0</ele><time>2026-04-05T16:15:07.999Z</time></trkpt><trkpt lat="33.94911675999005" lon="9.959009328259008"><ele>50.0</ele><time>2026-04-05T16:15:08.999Z</time></trkpt><trkpt lat="33.94883719275462" lon="9.959079612313275"><ele>50.0</ele><time>2026-04-05T16:15:09.999Z</time></trkpt><trkpt lat="33.94855971732064" lon="9.959152449479259"><ele>50.0</ele><time>2026-04-05T16:15:10.999Z</time></trkpt><trkpt lat="33.94827927962762" lon="9.959225646806603"><ele>50.0</ele><time>2026-04-05T16:15:11.999Z</time></trkpt><trkpt lat="33.94799754748905" lon="9.959296406626109"><ele>50.0</ele><time>2026-04-05T16:15:12.999Z</time></trkpt><trkpt lat="33.94771800158998" lon="9.959367348044625"><ele>50.0</ele><time>2026-04-05T16:15:13.999Z</time></trkpt><trkpt lat="33.94743580327363" lon="9.959438650177308"><ele>50.0</ele><time>2026-04-05T16:15:14.999Z</time></trkpt><trkpt lat="33.947154275343856" lon="9.959508492785"><ele>50.0</ele><time>2026-04-05T16:15:15.999Z</time></trkpt><trkpt lat="33.946871618152336" lon="9.959579340198141"><ele>50.0</ele><time>2026-04-05T16:15:16.999Z</time></trkpt><trkpt lat="33.94659161885733" lon="9.959650254407359"><ele>50.0</ele><time>2026-04-05T16:15:17.999Z</time></trkpt><trkpt lat="33.94631142831528" lon="9.959722832122653"><ele>50.0</ele><time>2026-04-05T16:15:18.999Z</time></trkpt><trkpt lat="33.946030960827734" lon="9.959798218747954"><ele>50.0</ele><time>2026-04-05T16:15:19.999Z</time></trkpt><trkpt lat="33.945750480091874" lon="9.959871612214359"><ele>50.5</ele><time>2026-04-05T16:15:20.999Z</time></trkpt><trkpt lat="33.94546829015783" lon="9.959941446386885"><ele>51.0</ele><time>2026-04-05T16:15:21.999Z</time></trkpt><trkpt lat="33.94518443731108" lon="9.960011549885019"><ele>51.5</ele><time>2026-04-05T16:15:22.999Z</time></trkpt><trkpt lat="33.94490399718445" lon="9.960083165880496"><ele>52.0</ele><time>2026-04-05T16:15:23.999Z</time></trkpt><trkpt lat="33.944621216247874" lon="9.960158773165041"><ele>52.0</ele><time>2026-04-05T16:15:24.999Z</time></trkpt><trkpt lat="33.94433586696939" lon="9.960236663109642"><ele>52.0</ele><time>2026-04-05T16:15:25.999Z</time></trkpt><trkpt lat="33.944044970080526" lon="9.96031582530178"><ele>51.0</ele><time>2026-04-05T16:15:26.999Z</time></trkpt><trkpt lat="33.94375425194601" lon="9.9603929390845"><ele>50.0</ele><time>2026-04-05T16:15:27.999Z</time></trkpt><trkpt lat="33.943459503216786" lon="9.960467541293188"><ele>50.5</ele><time>2026-04-05T16:15:28.999Z</time></trkpt><trkpt lat="33.943162839479214" lon="9.960542962722178"><ele>51.0</ele><time>2026-04-05T16:15:29.999Z</time></trkpt><trkpt lat="33.94286605688349" lon="9.960618072319116"><ele>51.0</ele><time>2026-04-05T16:15:30.999Z</time></trkpt><trkpt lat="33.94256692689028" lon="9.960692754439258"><ele>51.0</ele><time>2026-04-05T16:15:31.999Z</time></trkpt><trkpt lat="33.94227186104083" lon="9.960767331184186"><ele>51.0</ele><time>2026-04-05T16:15:32.999Z</time></trkpt><trkpt lat="33.941981030537676" lon="9.960843248721016"><ele>51.0</ele><time>2026-04-05T16:15:33.999Z</time></trkpt><trkpt lat="33.94169164881729" lon="9.960919360243452"><ele>51.0</ele><time>2026-04-05T16:15:34.999Z</time></trkpt><trkpt lat="33.94140370171081" lon="9.960990990115008"><ele>51.0</ele><time>2026-04-05T16:15:35.999Z</time></trkpt><trkpt lat="33.94111322548167" lon="9.96106425552625"><ele>50.5</ele><time>2026-04-05T16:15:36.999Z</time></trkpt><trkpt lat="33.940823597289885" lon="9.961138991925585"><ele>50.0</ele><time>2026-04-05T16:15:37.999Z</time></trkpt><trkpt lat="33.94053605581049" lon="9.961211862031792"><ele>50.0</ele><time>2026-04-05T16:15:38.999Z</time></trkpt><trkpt lat="33.94024752946478" lon="9.961281435265901"><ele>50.0</ele><time>2026-04-05T16:15:39.999Z</time></trkpt><trkpt lat="33.93995897607667" lon="9.961354770015998"><ele>51.0</ele><time>2026-04-05T16:15:40.999Z</time></trkpt><trkpt lat="33.93967198226577" lon="9.961432984100533"><ele>52.0</ele><time>2026-04-05T16:15:41.999Z</time></trkpt><trkpt lat="33.939383651604246" lon="9.961510306030894"><ele>51.0</ele><time>2026-04-05T16:15:42.999Z</time></trkpt><trkpt lat="33.93909182702976" lon="9.961585510245236"><ele>50.0</ele><time>2026-04-05T16:15:43.999Z</time></trkpt><trkpt lat="33.938793156457805" lon="9.961661003929748"><ele>49.5</ele><time>2026-04-05T16:15:44.999Z</time></trkpt><trkpt lat="33.938485799209" lon="9.961742722422834"><ele>49.0</ele><time>2026-04-05T16:15:45.999Z</time></trkpt><trkpt lat="33.93816382134699" lon="9.961835265774166"><ele>49.0</ele><time>2026-04-05T16:15:47Z</time></trkpt><trkpt lat="33.937844558824686" lon="9.961927535998512"><ele>49.0</ele><time>2026-04-05T16:15:48Z</time></trkpt><trkpt lat="33.9375170093216" lon="9.96201728968001"><ele>49.5</ele><time>2026-04-05T16:15:49Z</time></trkpt><trkpt lat="33.93718549071477" lon="9.962107192962534"><ele>50.0</ele><time>2026-04-05T16:15:50Z</time></trkpt><trkpt lat="33.93685288157074" lon="9.962193209643141"><ele>49.5</ele><time>2026-04-05T16:15:51Z</time></trkpt><trkpt lat="33.93653328770203" lon="9.962273917466222"><ele>49.0</ele><time>2026-04-05T16:15:52Z</time></trkpt><trkpt lat="33.93622786267646" lon="9.962352588874795"><ele>49.0</ele><time>2026-04-05T16:15:53Z</time></trkpt><trkpt lat="33.93591649456787" lon="9.962432423846185"><ele>49.0</ele><time>2026-04-05T16:15:54Z</time></trkpt><trkpt lat="33.93562119601954" lon="9.962506319547948"><ele>50.0</ele><time>2026-04-05T16:15:55Z</time></trkpt><trkpt lat="33.93534215971313" lon="9.96257526743038"><ele>51.0</ele><time>2026-04-05T16:15:56Z</time></trkpt><trkpt lat="33.93507026887853" lon="9.962640774749712"><ele>51.0</ele><time>2026-04-05T16:15:57Z</time></trkpt><trkpt lat="33.93479307452019" lon="9.962708268693781"><ele>51.0</ele><time>2026-04-05T16:15:58Z</time></trkpt><trkpt lat="33.934515302127664" lon="9.962781272427838"><ele>51.0</ele><time>2026-04-05T16:15:59Z</time></trkpt><trkpt lat="33.934237938372895" lon="9.96285885430782"><ele>51.0</ele><time>2026-04-05T16:16:00Z</time></trkpt><trkpt lat="33.933969883822854" lon="9.96292998935231"><ele>50.5</ele><time>2026-04-05T16:16:01Z</time></trkpt><trkpt lat="33.933721983241334" lon="9.962990379841441"><ele>50.0</ele><time>2026-04-05T16:16:02Z</time></trkpt><trkpt lat="33.9334839871505" lon="9.963051281812133"><ele>51.0</ele><time>2026-04-05T16:16:03Z</time></trkpt><trkpt lat="33.93325004942455" lon="9.963111816169302"><ele>52.0</ele><time>2026-04-05T16:16:04Z</time></trkpt><trkpt lat="33.93301142222776" lon="9.96316890054993"><ele>52.0</ele><time>2026-04-05T16:16:05Z</time></trkpt><trkpt lat="33.93278770094017" lon="9.963217367955943"><ele>52.0</ele><time>2026-04-05T16:16:06Z</time></trkpt><trkpt lat="33.93257189595028" lon="9.96327451787557"><ele>52.0</ele><time>2026-04-05T16:16:07Z</time></trkpt><trkpt lat="33.93235724472342" lon="9.963332334810794"><ele>51.5</ele><time>2026-04-05T16:16:08Z</time></trkpt><trkpt lat="33.932132939334224" lon="9.963390164141936"><ele>51.0</ele><time>2026-04-05T16:16:09Z</time></trkpt><trkpt lat="33.931899729655896" lon="9.963448739059936"><ele>51.0</ele><time>2026-04-05T16:16:10Z</time></trkpt><trkpt lat="33.93165854178267" lon="9.96351040852537"><ele>51.0</ele><time>2026-04-05T16:16:11Z</time></trkpt><trkpt lat="33.931413371193344" lon="9.963570098032088"><ele>51.0</ele><time>2026-04-05T16:16:12Z</time></trkpt><trkpt lat="33.931164610229374" lon="9.963636222595701"><ele>51.0</ele><time>2026-04-05T16:16:13Z</time></trkpt><trkpt lat="33.93091514719621" lon="9.963701610572592"><ele>51.5</ele><time>2026-04-05T16:16:14Z</time></trkpt><trkpt lat="33.93067648663456" lon="9.963764615131943"><ele>52.0</ele><time>2026-04-05T16:16:15Z</time></trkpt><trkpt lat="33.930443523849135" lon="9.963827688387711"><ele>52.0</ele><time>2026-04-05T16:16:16Z</time></trkpt><trkpt lat="33.9302124451612" lon="9.963888062174878"><ele>52.0</ele><time>2026-04-05T16:16:16.999Z</time></trkpt><trkpt lat="33.92997995499338" lon="9.963949509383934"><ele>52.5</ele><time>2026-04-05T16:16:17.999Z</time></trkpt><trkpt lat="33.92974943786756" lon="9.964010582778968"><ele>53.0</ele><time>2026-04-05T16:16:18.999Z</time></trkpt><trkpt lat="33.92952297510594" lon="9.96406807351239"><ele>53.0</ele><time>2026-04-05T16:16:19.999Z</time></trkpt><trkpt lat="33.9292970496903" lon="9.964121406603182"><ele>53.0</ele><time>2026-04-05T16:16:20.999Z</time></trkpt><trkpt lat="33.92905525148835" lon="9.964174001250345"><ele>52.5</ele><time>2026-04-05T16:16:21.999Z</time></trkpt><trkpt lat="33.92880196174748" lon="9.964232185280796"><ele>52.0</ele><time>2026-04-05T16:16:22.999Z</time></trkpt><trkpt lat="33.9285391212801" lon="9.964297576626468"><ele>52.5</ele><time>2026-04-05T16:16:23.999Z</time></trkpt><trkpt lat="33.92826543962473" lon="9.964366961644988"><ele>53.0</ele><time>2026-04-05T16:16:24.999Z</time></trkpt><trkpt lat="33.92798766345218" lon="9.964434543931176"><ele>53.0</ele><time>2026-04-05T16:16:25.999Z</time></trkpt><trkpt lat="33.92770009432699" lon="9.964508628510973"><ele>53.0</ele><time>2026-04-05T16:16:26.999Z</time></trkpt><trkpt lat="33.92741080456478" lon="9.964586304585177"><ele>51.5</ele><time>2026-04-05T16:16:27.999Z</time></trkpt><trkpt lat="33.92711434257147" lon="9.964665015749182"><ele>50.0</ele><time>2026-04-05T16:16:28.999Z</time></trkpt><trkpt lat="33.92681626205001" lon="9.964740885581978"><ele>50.5</ele><time>2026-04-05T16:16:29.999Z</time></trkpt><trkpt lat="33.92652270878592" lon="9.964817876779357"><ele>51.0</ele><time>2026-04-05T16:16:30.999Z</time></trkpt><trkpt lat="33.926231976877126" lon="9.96489512463067"><ele>51.0</ele><time>2026-04-05T16:16:31.999Z</time></trkpt><trkpt lat="33.92593701731889" lon="9.96497299595547"><ele>51.0</ele><time>2026-04-05T16:16:32.999Z</time></trkpt><trkpt lat="33.92563948911347" lon="9.965049771039235"><ele>52.0</ele><time>2026-04-05T16:16:33.999Z</time></trkpt><trkpt lat="33.925340648229394" lon="9.965123546624797"><ele>53.0</ele><time>2026-04-05T16:16:34.999Z</time></trkpt><trkpt lat="33.92504125689407" lon="9.965196364423008"><ele>53.0</ele><time>2026-04-05T16:16:35.999Z</time></trkpt><trkpt lat="33.92473981889313" lon="9.96527406467697"><ele>53.0</ele><time>2026-04-05T16:16:36.999Z</time></trkpt><trkpt lat="33.92443920631776" lon="9.965352278085378"><ele>53.5</ele><time>2026-04-05T16:16:37.999Z</time></trkpt><trkpt lat="33.924137795067494" lon="9.965428973434017"><ele>54.0</ele><time>2026-04-05T16:16:38.999Z</time></trkpt><trkpt lat="33.923836566866186" lon="9.965507234553305"><ele>54.0</ele><time>2026-04-05T16:16:39.999Z</time></trkpt><trkpt lat="33.9235368552138" lon="9.965583386494139"><ele>54.0</ele><time>2026-04-05T16:16:40.999Z</time></trkpt><trkpt lat="33.9232360773169" lon="9.965657759781926"><ele>53.5</ele><time>2026-04-05T16:16:41.999Z</time></trkpt><trkpt lat="33.92293636594985" lon="9.965733968769433"><ele>53.0</ele><time>2026-04-05T16:16:42.999Z</time></trkpt><trkpt lat="33.92263816319742" lon="9.9658131912496"><ele>53.5</ele><time>2026-04-05T16:16:43.999Z</time></trkpt><trkpt lat="33.922338456351625" lon="9.965892977799253"><ele>54.0</ele><time>2026-04-05T16:16:44.999Z</time></trkpt><trkpt lat="33.92203779073316" lon="9.96597132778225"><ele>54.0</ele><time>2026-04-05T16:16:45.999Z</time></trkpt><trkpt lat="33.92173774717401" lon="9.966048382377519"><ele>54.0</ele><time>2026-04-05T16:16:46.999Z</time></trkpt><trkpt lat="33.921438378629176" lon="9.966125816655516"><ele>54.0</ele><time>2026-04-05T16:16:47.999Z</time></trkpt><trkpt lat="33.921140663144286" lon="9.966208459317476"><ele>54.0</ele><time>2026-04-05T16:16:48.999Z</time></trkpt><trkpt lat="33.920843820833646" lon="9.966299152448116"><ele>54.0</ele><time>2026-04-05T16:16:49.999Z</time></trkpt><trkpt lat="33.92054793180003" lon="9.966397132989599"><ele>54.0</ele><time>2026-04-05T16:16:50.999Z</time></trkpt><trkpt lat="33.92025236590013" lon="9.966496610615648"><ele>53.5</ele><time>2026-04-05T16:16:51.999Z</time></trkpt><trkpt lat="33.91995481324827" lon="9.966597713039638"><ele>53.0</ele><time>2026-04-05T16:16:52.999Z</time></trkpt><trkpt lat="33.919659228444516" lon="9.966698796746487"><ele>53.0</ele><time>2026-04-05T16:16:53.999Z</time></trkpt><trkpt lat="33.9193660190583" lon="9.966802021306501"><ele>53.0</ele><time>2026-04-05T16:16:54.999Z</time></trkpt><trkpt lat="33.919081338631855" lon="9.966907661295059"><ele>53.5</ele><time>2026-04-05T16:16:55.999Z</time></trkpt><trkpt lat="33.91879914614914" lon="9.967017426201222"><ele>54.0</ele><time>2026-04-05T16:16:56.999Z</time></trkpt><trkpt lat="33.9185195112673" lon="9.967132539655577"><ele>53.5</ele><time>2026-04-05T16:16:57.999Z</time></trkpt><trkpt lat="33.918238179843826" lon="9.967250138752282"><ele>53.0</ele><time>2026-04-05T16:16:58.999Z</time></trkpt><trkpt lat="33.917957221773335" lon="9.967367689186625"><ele>53.0</ele><time>2026-04-05T16:16:59.999Z</time></trkpt><trkpt lat="33.91768135343219" lon="9.967486552989987"><ele>53.0</ele><time>2026-04-05T16:17:00.999Z</time></trkpt><trkpt lat="33.91740917908979" lon="9.967605597013135"><ele>54.0</ele><time>2026-04-05T16:17:01.999Z</time></trkpt><trkpt lat="33.91714375289641" lon="9.96772712035647"><ele>55.0</ele><time>2026-04-05T16:17:02.999Z</time></trkpt><trkpt lat="33.91687793642196" lon="9.967853054270801"><ele>55.5</ele><time>2026-04-05T16:17:03.999Z</time></trkpt><trkpt lat="33.916619551972126" lon="9.967979423190364"><ele>56.0</ele><time>2026-04-05T16:17:04.999Z</time></trkpt><trkpt lat="33.91636412530342" lon="9.96810954557955"><ele>56.0</ele><time>2026-04-05T16:17:05.999Z</time></trkpt><trkpt lat="33.916112885511495" lon="9.968236218604641"><ele>56.0</ele><time>2026-04-05T16:17:06.999Z</time></trkpt><trkpt lat="33.91586779989876" lon="9.968362355249612"><ele>55.5</ele><time>2026-04-05T16:17:07.999Z</time></trkpt><trkpt lat="33.91562729927529" lon="9.968491228447833"><ele>55.0</ele><time>2026-04-05T16:17:08.999Z</time></trkpt><trkpt lat="33.91539002702616" lon="9.968624034421415"><ele>55.0</ele><time>2026-04-05T16:17:09.999Z</time></trkpt><trkpt lat="33.915154785754524" lon="9.968757613556791"><ele>55.0</ele><time>2026-04-05T16:17:10.999Z</time></trkpt><trkpt lat="33.91492117978896" lon="9.968890511584416"><ele>54.5</ele><time>2026-04-05T16:17:11.999Z</time></trkpt><trkpt lat="33.914686203838784" lon="9.969023868049067"><ele>54.0</ele><time>2026-04-05T16:17:12.999Z</time></trkpt><trkpt lat="33.91445132735536" lon="9.969163054052828"><ele>54.5</ele><time>2026-04-05T16:17:13.999Z</time></trkpt><trkpt lat="33.914215890379765" lon="9.969306954442496"><ele>55.0</ele><time>2026-04-05T16:17:14.999Z</time></trkpt><trkpt lat="33.91397898480322" lon="9.96945658116461"><ele>55.0</ele><time>2026-04-05T16:17:15.999Z</time></trkpt><trkpt lat="33.913739908954135" lon="9.969605139461"><ele>55.0</ele><time>2026-04-05T16:17:16.999Z</time></trkpt><trkpt lat="33.91350162803876" lon="9.969754326156123"><ele>55.0</ele><time>2026-04-05T16:17:17.999Z</time></trkpt><trkpt lat="33.91326449511288" lon="9.969911477065608"><ele>55.0</ele><time>2026-04-05T16:17:18.999Z</time></trkpt><trkpt lat="33.91302513960542" lon="9.970075848295645"><ele>55.5</ele><time>2026-04-05T16:17:19.999Z</time></trkpt><trkpt lat="33.91278375650027" lon="9.970242427797778"><ele>56.0</ele><time>2026-04-05T16:17:20.999Z</time></trkpt><trkpt lat="33.91254644695503" lon="9.970413730773918"><ele>55.0</ele><time>2026-04-05T16:17:21.999Z</time></trkpt><trkpt lat="33.91231060243039" lon="9.970588160386415"><ele>54.0</ele><time>2026-04-05T16:17:22.999Z</time></trkpt><trkpt lat="33.912072670572655" lon="9.97076347875425"><ele>54.0</ele><time>2026-04-05T16:17:23.999Z</time></trkpt><trkpt lat="33.911829939287344" lon="9.970941328001015"><ele>54.0</ele><time>2026-04-05T16:17:24.999Z</time></trkpt><trkpt lat="33.911593521657736" lon="9.971119789895196"><ele>54.5</ele><time>2026-04-05T16:17:25.999Z</time></trkpt><trkpt lat="33.911364892398794" lon="9.971295555686334"><ele>55.0</ele><time>2026-04-05T16:17:26.999Z</time></trkpt><trkpt lat="33.91114352009852" lon="9.971471520110848"><ele>55.0</ele><time>2026-04-05T16:17:27.999Z</time></trkpt><trkpt lat="33.91093168933363" lon="9.971647579573819"><ele>55.0</ele><time>2026-04-05T16:17:28.999Z</time></trkpt><trkpt lat="33.910727218249676" lon="9.971819941305972"><ele>54.5</ele><time>2026-04-05T16:17:29.999Z</time></trkpt><trkpt lat="33.910521988527776" lon="9.971992051783054"><ele>54.0</ele><time>2026-04-05T16:17:30.999Z</time></trkpt><trkpt lat="33.91031236393347" lon="9.9721650127409"><ele>54.0</ele><time>2026-04-05T16:17:31.999Z</time></trkpt><trkpt lat="33.91010228094976" lon="9.97233655184435"><ele>54.0</ele><time>2026-04-05T16:17:32.999Z</time></trkpt><trkpt lat="33.90989761755738" lon="9.9725008526583"><ele>55.0</ele><time>2026-04-05T16:17:33.999Z</time></trkpt><trkpt lat="33.9096989371941" lon="9.972659333898648"><ele>56.0</ele><time>2026-04-05T16:17:34.999Z</time></trkpt><trkpt lat="33.90949581555163" lon="9.97281959454734"><ele>56.0</ele><time>2026-04-05T16:17:35.999Z</time></trkpt><trkpt lat="33.90929292683143" lon="9.972977590569991"><ele>56.0</ele><time>2026-04-05T16:17:36.999Z</time></trkpt><trkpt lat="33.909088243452686" lon="9.973132336133398"><ele>55.5</ele><time>2026-04-05T16:17:37.999Z</time></trkpt><trkpt lat="33.9088884923957" lon="9.973279462170966"><ele>55.0</ele><time>2026-04-05T16:17:38.999Z</time></trkpt><trkpt lat="33.9086910808941" lon="9.973424050863926"><ele>55.5</ele><time>2026-04-05T16:17:39.999Z</time></trkpt><trkpt lat="33.908488960872596" lon="9.973572462869283"><ele>56.0</ele><time>2026-04-05T16:17:40.999Z</time></trkpt><trkpt lat="33.90827954378634" lon="9.973736043539576"><ele>56.0</ele><time>2026-04-05T16:17:41.999Z</time></trkpt><trkpt lat="33.90806636766168" lon="9.973906806293023"><ele>56.0</ele><time>2026-04-05T16:17:42.999Z</time></trkpt><trkpt lat="33.90785679960358" lon="9.974074684690944"><ele>56.5</ele><time>2026-04-05T16:17:43.999Z</time></trkpt><trkpt lat="33.90764985955712" lon="9.974238751822151"><ele>57.0</ele><time>2026-04-05T16:17:44.999Z</time></trkpt><trkpt lat="33.90744244040697" lon="9.974400881921197"><ele>57.5</ele><time>2026-04-05T16:17:45.999Z</time></trkpt><trkpt lat="33.90723431410582" lon="9.97456670371651"><ele>58.0</ele><time>2026-04-05T16:17:46.999Z</time></trkpt><trkpt lat="33.907027557656534" lon="9.974740133041204"><ele>58.0</ele><time>2026-04-05T16:17:47.999Z</time></trkpt><trkpt lat="33.90681885579468" lon="9.974915896552167"><ele>58.0</ele><time>2026-04-05T16:17:48.999Z</time></trkpt><trkpt lat="33.90660717439678" lon="9.975084658687003"><ele>57.5</ele><time>2026-04-05T16:17:49.999Z</time></trkpt><trkpt lat="33.90638846872225" lon="9.975256809992972"><ele>57.0</ele><time>2026-04-05T16:17:50.999Z</time></trkpt><trkpt lat="33.906169535384365" lon="9.975425106966998"><ele>57.0</ele><time>2026-04-05T16:17:51.999Z</time></trkpt><trkpt lat="33.90594959816989" lon="9.975596321680671"><ele>57.0</ele><time>2026-04-05T16:17:52.999Z</time></trkpt><trkpt lat="33.90573045569107" lon="9.975767454565332"><ele>59.0</ele><time>2026-04-05T16:17:53.999Z</time></trkpt><trkpt lat="33.90551203887914" lon="9.975937864612"><ele>61.0</ele><time>2026-04-05T16:17:54.999Z</time></trkpt><trkpt lat="33.90529244878881" lon="9.976111857282328"><ele>60.0</ele><time>2026-04-05T16:17:55.999Z</time></trkpt><trkpt lat="33.90506763171" lon="9.976287559135299"><ele>59.0</ele><time>2026-04-05T16:17:56.999Z</time></trkpt><trkpt lat="33.90484036409581" lon="9.976462172907606"><ele>59.0</ele><time>2026-04-05T16:17:57.999Z</time></trkpt><trkpt lat="33.904613689904146" lon="9.976641137782046"><ele>59.0</ele><time>2026-04-05T16:17:58.999Z</time></trkpt><trkpt lat="33.904386131597995" lon="9.976825328974554"><ele>59.0</ele><time>2026-04-05T16:17:59.999Z</time></trkpt><trkpt lat="33.904160203932754" lon="9.977007533520801"><ele>59.0</ele><time>2026-04-05T16:18:00.999Z</time></trkpt><trkpt lat="33.903936837821114" lon="9.977188119768556"><ele>59.0</ele><time>2026-04-05T16:18:01.999Z</time></trkpt><trkpt lat="33.90371203252435" lon="9.97736751691106"><ele>59.0</ele><time>2026-04-05T16:18:02.999Z</time></trkpt><trkpt lat="33.90348343496835" lon="9.977547725156283"><ele>61.0</ele><time>2026-04-05T16:18:03.999Z</time></trkpt><trkpt lat="33.90325324224681" lon="9.97772538242937"><ele>63.0</ele><time>2026-04-05T16:18:04.999Z</time></trkpt><trkpt lat="33.90302502020285" lon="9.97790325421809"><ele>63.0</ele><time>2026-04-05T16:18:05.999Z</time></trkpt><trkpt lat="33.90279866977324" lon="9.97808434064542"><ele>63.0</ele><time>2026-04-05T16:18:06.999Z</time></trkpt><trkpt lat="33.902575869280426" lon="9.978264753847629"><ele>64.0</ele><time>2026-04-05T16:18:07.999Z</time></trkpt><trkpt lat="33.90235077737652" lon="9.978447246412681"><ele>65.0</ele><time>2026-04-05T16:18:08.999Z</time></trkpt><trkpt lat="33.902124763466176" lon="9.978627493415157"><ele>65.0</ele><time>2026-04-05T16:18:09.999Z</time></trkpt><trkpt lat="33.901897758263395" lon="9.9788077072766"><ele>65.0</ele><time>2026-04-05T16:18:10.999Z</time></trkpt><trkpt lat="33.90167120232797" lon="9.978987468810198"><ele>65.0</ele><time>2026-04-05T16:18:11.999Z</time></trkpt><trkpt lat="33.90144440917575" lon="9.979165385856021"><ele>65.0</ele><time>2026-04-05T16:18:12.999Z</time></trkpt><trkpt lat="33.901218178658446" lon="9.97934567935673"><ele>65.0</ele><time>2026-04-05T16:18:13.999Z</time></trkpt><trkpt lat="33.90099037480953" lon="9.979526997419079"><ele>65.0</ele><time>2026-04-05T16:18:14.999Z</time></trkpt><trkpt lat="33.90076230982474" lon="9.97970686665059"><ele>66.0</ele><time>2026-04-05T16:18:15.999Z</time></trkpt><trkpt lat="33.90053412761653" lon="9.979887059234676"><ele>67.0</ele><time>2026-04-05T16:18:16.999Z</time></trkpt><trkpt lat="33.90030497129912" lon="9.980070072240633"><ele>67.0</ele><time>2026-04-05T16:18:17.999Z</time></trkpt><trkpt lat="33.900073018126676" lon="9.980253197573338"><ele>67.0</ele><time>2026-04-05T16:18:18.999Z</time></trkpt><trkpt lat="33.899840614287406" lon="9.98043314552181"><ele>67.0</ele><time>2026-04-05T16:18:19.999Z</time></trkpt><trkpt lat="33.89961349014674" lon="9.980613073197192"><ele>67.0</ele><time>2026-04-05T16:18:20.999Z</time></trkpt><trkpt lat="33.89939124419142" lon="9.980794195375513"><ele>68.5</ele><time>2026-04-05T16:18:21.999Z</time></trkpt><trkpt lat="33.89916805053798" lon="9.980975495331943"><ele>70.0</ele><time>2026-04-05T16:18:22.999Z</time></trkpt><trkpt lat="33.8989455959536" lon="9.98115424104027"><ele>70.0</ele><time>2026-04-05T16:18:23.999Z</time></trkpt><trkpt lat="33.898720616920976" lon="9.981333326878595"><ele>70.0</ele><time>2026-04-05T16:18:24.999Z</time></trkpt><trkpt lat="33.898490914907555" lon="9.981512583154315"><ele>70.0</ele><time>2026-04-05T16:18:25.999Z</time></trkpt><trkpt lat="33.89826162911151" lon="9.981692817507044"><ele>70.0</ele><time>2026-04-05T16:18:26.999Z</time></trkpt><trkpt lat="33.898033046728095" lon="9.98187410899333"><ele>70.0</ele><time>2026-04-05T16:18:27.999Z</time></trkpt><trkpt lat="33.89780482514078" lon="9.982054879371441"><ele>70.0</ele><time>2026-04-05T16:18:28.999Z</time></trkpt><trkpt lat="33.897573564298" lon="9.982236796972217"><ele>69.5</ele><time>2026-04-05T16:18:29.999Z</time></trkpt><trkpt lat="33.89733842912767" lon="9.982421191038208"><ele>69.0</ele><time>2026-04-05T16:18:30.999Z</time></trkpt><trkpt lat="33.89710194746804" lon="9.982606771767612"><ele>70.5</ele><time>2026-04-05T16:18:31.999Z</time></trkpt><trkpt lat="33.89686917294312" lon="9.982788011088187"><ele>72.0</ele><time>2026-04-05T16:18:32.999Z</time></trkpt><trkpt lat="33.89663594455559" lon="9.982970943402115"><ele>72.0</ele><time>2026-04-05T16:18:33.999Z</time></trkpt><trkpt lat="33.89640683231564" lon="9.983154749318032"><ele>72.0</ele><time>2026-04-05T16:18:34.999Z</time></trkpt><trkpt lat="33.89618218517283" lon="9.98333529406999"><ele>72.5</ele><time>2026-04-05T16:18:35.999Z</time></trkpt><trkpt lat="33.89596178075596" lon="9.983508976127618"><ele>73.0</ele><time>2026-04-05T16:18:36.999Z</time></trkpt><trkpt lat="33.89574253812128" lon="9.983680324270791"><ele>73.0</ele><time>2026-04-05T16:18:37.999Z</time></trkpt><trkpt lat="33.89552680814071" lon="9.98384826157758"><ele>73.0</ele><time>2026-04-05T16:18:38.999Z</time></trkpt><trkpt lat="33.8953141915502" lon="9.98401580035793"><ele>72.0</ele><time>2026-04-05T16:18:39.999Z</time></trkpt><trkpt lat="33.895105318442404" lon="9.984188904069233"><ele>71.0</ele><time>2026-04-05T16:18:40.999Z</time></trkpt><trkpt lat="33.89489944868524" lon="9.984362017828786"><ele>71.0</ele><time>2026-04-05T16:18:41.999Z</time></trkpt><trkpt lat="33.89469186067021" lon="9.984538381252777"><ele>71.0</ele><time>2026-04-05T16:18:42.999Z</time></trkpt><trkpt lat="33.89448276436016" lon="9.984714690242152"><ele>71.0</ele><time>2026-04-05T16:18:43.999Z</time></trkpt><trkpt lat="33.8942719179628" lon="9.984889197039852"><ele>71.0</ele><time>2026-04-05T16:18:44.999Z</time></trkpt><trkpt lat="33.894061392540024" lon="9.98506139059535"><ele>72.5</ele><time>2026-04-05T16:18:45.999Z</time></trkpt><trkpt lat="33.893852067906614" lon="9.985237066171456"><ele>74.0</ele><time>2026-04-05T16:18:46.999Z</time></trkpt><trkpt lat="33.893643348433045" lon="9.985415390807642"><ele>74.0</ele><time>2026-04-05T16:18:47.999Z</time></trkpt><trkpt lat="33.89343260745754" lon="9.985595129267235"><ele>74.0</ele><time>2026-04-05T16:18:48.999Z</time></trkpt><trkpt lat="33.89321926944976" lon="9.985781838542387"><ele>74.0</ele><time>2026-04-05T16:18:49.999Z</time></trkpt><trkpt lat="33.893005246918214" lon="9.985972549089764"><ele>74.0</ele><time>2026-04-05T16:18:50.999Z</time></trkpt><trkpt lat="33.89278820711067" lon="9.98616735684877"><ele>73.5</ele><time>2026-04-05T16:18:51.999Z</time></trkpt><trkpt lat="33.89256963805881" lon="9.986364706558561"><ele>73.0</ele><time>2026-04-05T16:18:52.999Z</time></trkpt><trkpt lat="33.89235098620407" lon="9.986563194273904"><ele>73.5</ele><time>2026-04-05T16:18:53.999Z</time></trkpt><trkpt lat="33.89213287663385" lon="9.98676074617375"><ele>74.0</ele><time>2026-04-05T16:18:54.999Z</time></trkpt><trkpt lat="33.891913721626636" lon="9.986954457542373"><ele>73.0</ele><time>2026-04-05T16:18:55.999Z</time></trkpt><trkpt lat="33.89169206642188" lon="9.987144878320565"><ele>72.0</ele><time>2026-04-05T16:18:56.999Z</time></trkpt><trkpt lat="33.891471355927955" lon="9.987332812187866"><ele>71.5</ele><time>2026-04-05T16:18:57.999Z</time></trkpt><trkpt lat="33.89125070735598" lon="9.987519809665159"><ele>71.0</ele><time>2026-04-05T16:18:58.999Z</time></trkpt><trkpt lat="33.891029580843714" lon="9.987707169138574"><ele>70.0</ele><time>2026-04-05T16:18:59.999Z</time></trkpt><trkpt lat="33.890807379065464" lon="9.98789774397159"><ele>69.0</ele><time>2026-04-05T16:19:00.999Z</time></trkpt><trkpt lat="33.890587104148764" lon="9.988088855502518"><ele>69.0</ele><time>2026-04-05T16:19:01.999Z</time></trkpt><trkpt lat="33.8903687539783" lon="9.98827928904147"><ele>69.0</ele><time>2026-04-05T16:19:02.999Z</time></trkpt><trkpt lat="33.890154322137924" lon="9.988468004446556"><ele>68.5</ele><time>2026-04-05T16:19:03.999Z</time></trkpt><trkpt lat="33.88994406959126" lon="9.988652348669918"><ele>68.0</ele><time>2026-04-05T16:19:04.999Z</time></trkpt><trkpt lat="33.88973211388509" lon="9.988837880112051"><ele>68.0</ele><time>2026-04-05T16:19:05.999Z</time></trkpt><trkpt lat="33.8895227750179" lon="9.989021814457391"><ele>68.0</ele><time>2026-04-05T16:19:06.999Z</time></trkpt><trkpt lat="33.88931276825163" lon="9.989204930206606"><ele>67.5</ele><time>2026-04-05T16:19:07.999Z</time></trkpt><trkpt lat="33.889105522226494" lon="9.989387316183782"><ele>67.0</ele><time>2026-04-05T16:19:08.999Z</time></trkpt><trkpt lat="33.88889632230841" lon="9.98956871849302"><ele>67.0</ele><time>2026-04-05T16:19:09.999Z</time></trkpt><trkpt lat="33.88868409432004" lon="9.989752055732819"><ele>67.0</ele><time>2026-04-05T16:19:10.999Z</time></trkpt><trkpt lat="33.8884714029892" lon="9.989939409597465"><ele>66.0</ele><time>2026-04-05T16:19:11.999Z</time></trkpt><trkpt lat="33.88825858524766" lon="9.990131053261054"><ele>65.0</ele><time>2026-04-05T16:19:12.999Z</time></trkpt><trkpt lat="33.88804422886638" lon="9.990319225834659"><ele>65.0</ele><time>2026-04-05T16:19:13.999Z</time></trkpt><trkpt lat="33.887830166717706" lon="9.99050661625283"><ele>65.0</ele><time>2026-04-05T16:19:14.999Z</time></trkpt><trkpt lat="33.88761673425884" lon="9.990691516500688"><ele>63.5</ele><time>2026-04-05T16:19:15.999Z</time></trkpt><trkpt lat="33.887404477661015" lon="9.990877337661312"><ele>62.0</ele><time>2026-04-05T16:19:16.999Z</time></trkpt><trkpt lat="33.88719318617404" lon="9.991062176900527"><ele>62.0</ele><time>2026-04-05T16:19:17.999Z</time></trkpt><trkpt lat="33.886981609929585" lon="9.991247608453032"><ele>62.0</ele><time>2026-04-05T16:19:18.999Z</time></trkpt><trkpt lat="33.886770813115746" lon="9.991432603525729"><ele>61.5</ele><time>2026-04-05T16:19:19.999Z</time></trkpt><trkpt lat="33.88656202460054" lon="9.991619451105624"><ele>61.0</ele><time>2026-04-05T16:19:20.999Z</time></trkpt><trkpt lat="33.88635364904046" lon="9.991801506085965"><ele>62.0</ele><time>2026-04-05T16:19:21.999Z</time></trkpt><trkpt lat="33.886146912268984" lon="9.99198001818056"><ele>63.0</ele><time>2026-04-05T16:19:22.999Z</time></trkpt><trkpt lat="33.885938262775156" lon="9.992164274043423"><ele>61.5</ele><time>2026-04-05T16:19:23.999Z</time></trkpt><trkpt lat="33.88573600734788" lon="9.992343815388235"><ele>60.0</ele><time>2026-04-05T16:19:24.999Z</time></trkpt><trkpt lat="33.885531920386164" lon="9.99252649907388"><ele>60.0</ele><time>2026-04-05T16:19:25.999Z</time></trkpt><trkpt lat="33.88532475603142" lon="9.992705616262901"><ele>60.0</ele><time>2026-04-05T16:19:26.999Z</time></trkpt><trkpt lat="33.88511516658732" lon="9.992887297824641"><ele>60.0</ele><time>2026-04-05T16:19:27.999Z</time></trkpt><trkpt lat="33.88490743516292" lon="9.9930680490836"><ele>60.0</ele><time>2026-04-05T16:19:28.999Z</time></trkpt><trkpt lat="33.88470122655785" lon="9.993251316484034"><ele>58.5</ele><time>2026-04-05T16:19:29.999Z</time></trkpt><trkpt lat="33.88449912501459" lon="9.993429920034954"><ele>57.0</ele><time>2026-04-05T16:19:30.999Z</time></trkpt><trkpt lat="33.88431234429171" lon="9.99359531517226"><ele>57.33333333333333</ele><time>2026-04-05T16:19:31.999Z</time></trkpt><trkpt lat="33.88414170762679" lon="9.993744014000141"><ele>57.666666666666664</ele><time>2026-04-05T16:19:32.999Z</time></trkpt><trkpt lat="33.88398486511" lon="9.993879750305299"><ele>58.0</ele><time>2026-04-05T16:19:33.999Z</time></trkpt><trkpt lat="33.88383898784441" lon="9.994008247355405"><ele>58.0</ele><time>2026-04-05T16:19:34.999Z</time></trkpt><trkpt lat="33.88370039954877" lon="9.994133964627702"><ele>58.0</ele><time>2026-04-05T16:19:35.999Z</time></trkpt><trkpt lat="33.88355856580344" lon="9.994258857094664"><ele>58.0</ele><time>2026-04-05T16:19:36.999Z</time></trkpt><trkpt lat="33.883415318919276" lon="9.99438178017516"><ele>57.666666666666664</ele><time>2026-04-05T16:19:37.999Z</time></trkpt><trkpt lat="33.8832704579349" lon="9.994508655443104"><ele>57.33333333333333</ele><time>2026-04-05T16:19:38.999Z</time></trkpt><trkpt lat="33.883123823436215" lon="9.994632462450221"><ele>57.0</ele><time>2026-04-05T16:19:39.999Z</time></trkpt><trkpt lat="33.88297757138021" lon="9.994755283876763"><ele>57.0</ele><time>2026-04-05T16:19:40.999Z</time></trkpt><trkpt lat="33.882830530082664" lon="9.994880925221745"><ele>57.0</ele><time>2026-04-05T16:19:41.999Z</time></trkpt><trkpt lat="33.88267968608985" lon="9.995012838088678"><ele>57.0</ele><time>2026-04-05T16:19:42.999Z</time></trkpt><trkpt lat="33.88252699666822" lon="9.995148689323651"><ele>57.0</ele><time>2026-04-05T16:19:43.999Z</time></trkpt><trkpt lat="33.88237087637684" lon="9.99529014637605"><ele>57.0</ele><time>2026-04-05T16:19:44.999Z</time></trkpt><trkpt lat="33.88221270056756" lon="9.995431834770526"><ele>57.0</ele><time>2026-04-05T16:19:45.999Z</time></trkpt><trkpt lat="33.88205451902035" lon="9.995567564322284"><ele>57.0</ele><time>2026-04-05T16:19:46.999Z</time></trkpt><trkpt lat="33.88189456777082" lon="9.995704286110188"><ele>57.0</ele><time>2026-04-05T16:19:47.999Z</time></trkpt><trkpt lat="33.8817420653168" lon="9.995833189982692"><ele>57.0</ele><time>2026-04-05T16:19:48.999Z</time></trkpt><trkpt lat="33.88159707949427" lon="9.995957137959167"><ele>57.66666666666667</ele><time>2026-04-05T16:19:49.999Z</time></trkpt><trkpt lat="33.88145938784322" lon="9.996078907190627"><ele>58.333333333333336</ele><time>2026-04-05T16:19:50.999Z</time></trkpt><trkpt lat="33.88132735689724" lon="9.996191948550784"><ele>59.0</ele><time>2026-04-05T16:19:51.999Z</time></trkpt><trkpt lat="33.88119157580814" lon="9.996307619624726"><ele>59.0</ele><time>2026-04-05T16:19:52.999Z</time></trkpt><trkpt lat="33.88106166174901" lon="9.996422815762244"><ele>59.0</ele><time>2026-04-05T16:19:53.999Z</time></trkpt><trkpt lat="33.880938060580974" lon="9.996529935257959"><ele>59.0</ele><time>2026-04-05T16:19:54.999Z</time></trkpt><trkpt lat="33.88081969252721" lon="9.996632116999832"><ele>58.75</ele><time>2026-04-05T16:19:55.999Z</time></trkpt><trkpt lat="33.880705179086945" lon="9.99672574081479"><ele>58.5</ele><time>2026-04-05T16:19:56.999Z</time></trkpt><trkpt lat="33.880595578927725" lon="9.996809120752099"><ele>58.25</ele><time>2026-04-05T16:19:57.999Z</time></trkpt><trkpt lat="33.88048425160661" lon="9.996878796860104"><ele>58.0</ele><time>2026-04-05T16:19:58.999Z</time></trkpt><trkpt lat="33.8803699803965" lon="9.99692829609671"><ele>58.0</ele><time>2026-04-05T16:19:59.999Z</time></trkpt><trkpt lat="33.88025627748086" lon="9.996952273713779"><ele>58.0</ele><time>2026-04-05T16:20:00.999Z</time></trkpt><trkpt lat="33.8801484148326" lon="9.996945799724202"><ele>58.0</ele><time>2026-04-05T16:20:01.999Z</time></trkpt><trkpt lat="33.880048871948446" lon="9.996910034840033"><ele>58.0</ele><time>2026-04-05T16:20:02.999Z</time></trkpt><trkpt lat="33.87995834693037" lon="9.996847943869602"><ele>58.0</ele><time>2026-04-05T16:20:03.999Z</time></trkpt><trkpt lat="33.87988374715583" lon="9.996767506587066"><ele>58.2</ele><time>2026-04-05T16:20:04.999Z</time></trkpt><trkpt lat="33.87982820301085" lon="9.996675640427364"><ele>58.4</ele><time>2026-04-05T16:20:05.999Z</time></trkpt><trkpt lat="33.87978784580701" lon="9.996567985317585"><ele>58.60000000000001</ele><time>2026-04-05T16:20:06.999Z</time></trkpt><trkpt lat="33.87976516915537" lon="9.996453772638592"><ele>58.800000000000004</ele><time>2026-04-05T16:20:07.999Z</time></trkpt><trkpt lat="33.87976092711865" lon="9.996334487605571"><ele>59.0</ele><time>2026-04-05T16:20:09Z</time></trkpt><trkpt lat="33.87977581730015" lon="9.996212938216502"><ele>58.6</ele><time>2026-04-05T16:20:10Z</time></trkpt><trkpt lat="33.87980954214745" lon="9.996094770596489"><ele>58.2</ele><time>2026-04-05T16:20:11Z</time></trkpt><trkpt lat="33.87985821593034" lon="9.995977201573329"><ele>57.800000000000004</ele><time>2026-04-05T16:20:12Z</time></trkpt><trkpt lat="33.879923030868646" lon="9.99587070202987"><ele>57.400000000000006</ele><time>2026-04-05T16:20:13Z</time></trkpt><trkpt lat="33.88000919970826" lon="9.99577635633669"><ele>57.0</ele><time>2026-04-05T16:20:14Z</time></trkpt><trkpt lat="33.88010927912247" lon="9.995698410799415"><ele>56.75</ele><time>2026-04-05T16:20:15Z</time></trkpt><trkpt lat="33.88021773230543" lon="9.995634305451578"><ele>56.5</ele><time>2026-04-05T16:20:16Z</time></trkpt><trkpt lat="33.88033883455202" lon="9.99559488110032"><ele>56.25</ele><time>2026-04-05T16:20:17Z</time></trkpt><trkpt lat="33.880461156025675" lon="9.99557654195633"><ele>56.0</ele><time>2026-04-05T16:20:18Z</time></trkpt><trkpt lat="33.880587814020835" lon="9.995590804449732"><ele>56.0</ele><time>2026-04-05T16:20:19Z</time></trkpt><trkpt lat="33.88071206085299" lon="9.995631853024324"><ele>56.0</ele><time>2026-04-05T16:20:20Z</time></trkpt><trkpt lat="33.88083272762982" lon="9.995697632406367"><ele>56.0</ele><time>2026-04-05T16:20:21Z</time></trkpt><trkpt lat="33.880950008746034" lon="9.995783385119667"><ele>56.0</ele><time>2026-04-05T16:20:21.999Z</time></trkpt><trkpt lat="33.88106167378193" lon="9.995881906848137"><ele>56.75</ele><time>2026-04-05T16:20:22.999Z</time></trkpt><trkpt lat="33.881168515327765" lon="9.995982842612156"><ele>57.5</ele><time>2026-04-05T16:20:23.999Z</time></trkpt><trkpt lat="33.88127768504539" lon="9.996078423681702"><ele>58.25</ele><time>2026-04-05T16:20:24.999Z</time></trkpt><trkpt lat="33.8813858327301" lon="9.9961687706813"><ele>59.0</ele><time>2026-04-05T16:20:25.999Z</time></trkpt><trkpt lat="33.88149176427494" lon="9.996254353297013"><ele>59.0</ele><time>2026-04-05T16:20:26.999Z</time></trkpt><trkpt lat="33.88158705105033" lon="9.996334024405353"><ele>59.0</ele><time>2026-04-05T16:20:27.999Z</time></trkpt><trkpt lat="33.88167446922865" lon="9.996409475958195"><ele>59.0</ele><time>2026-04-05T16:20:28.999Z</time></trkpt><trkpt lat="33.88176367150544" lon="9.996485633063116"><ele>59.0</ele><time>2026-04-05T16:20:29.999Z</time></trkpt><trkpt lat="33.88186373654945" lon="9.996573598614193"><ele>58.75</ele><time>2026-04-05T16:20:30.999Z</time></trkpt><trkpt lat="33.88196575236713" lon="9.996665115014196"><ele>58.5</ele><time>2026-04-05T16:20:31.999Z</time></trkpt><trkpt lat="33.88207077887768" lon="9.996757285917889"><ele>58.25</ele><time>2026-04-05T16:20:32.999Z</time></trkpt><trkpt lat="33.88217850876261" lon="9.996849603874258"><ele>58.0</ele><time>2026-04-05T16:20:33.999Z</time></trkpt><trkpt lat="33.88229082729432" lon="9.996947800287817"><ele>57.5</ele><time>2026-04-05T16:20:34.999Z</time></trkpt><trkpt lat="33.8824052146791" lon="9.997047225619125"><ele>57.0</ele><time>2026-04-05T16:20:35.999Z</time></trkpt><trkpt lat="33.88252391842118" lon="9.997150934505317"><ele>56.5</ele><time>2026-04-05T16:20:36.999Z</time></trkpt><trkpt lat="33.882642797258086" lon="9.997255981810925"><ele>56.0</ele><time>2026-04-05T16:20:37.999Z</time></trkpt><trkpt lat="33.8827680930866" lon="9.99736383405576"><ele>56.0</ele><time>2026-04-05T16:20:38.999Z</time></trkpt><trkpt lat="33.88289757060238" lon="9.997476213162418"><ele>56.0</ele><time>2026-04-05T16:20:39.999Z</time></trkpt><trkpt lat="33.883031025360005" lon="9.997593289196685"><ele>56.0</ele><time>2026-04-05T16:20:40.999Z</time></trkpt><trkpt lat="33.88316663284508" lon="9.997717631736611"><ele>56.0</ele><time>2026-04-05T16:20:41.999Z</time></trkpt><trkpt lat="33.88329446263072" lon="9.997855101994908"><ele>56.0</ele><time>2026-04-05T16:20:42.999Z</time></trkpt><trkpt lat="33.88341159599781" lon="9.99800802364525"><ele>56.0</ele><time>2026-04-05T16:20:43.999Z</time></trkpt><trkpt lat="33.88350528205324" lon="9.998162312371884"><ele>56.25</ele><time>2026-04-05T16:20:44.999Z</time></trkpt><trkpt lat="33.883575696777" lon="9.998313835142632"><ele>56.5</ele><time>2026-04-05T16:20:45.999Z</time></trkpt><trkpt lat="33.88362745806999" lon="9.99843951971095"><ele>56.75</ele><time>2026-04-05T16:20:46.999Z</time></trkpt><trkpt lat="33.88366858373574" lon="9.99855534959054"><ele>57.0</ele><time>2026-04-05T16:20:47.999Z</time></trkpt><trkpt lat="33.8837014229463" lon="9.99867221202711"><ele>57.0</ele><time>2026-04-05T16:20:48.999Z</time></trkpt><trkpt lat="33.883730466114905" lon="9.998789452571154"><ele>57.0</ele><time>2026-04-05T16:20:49.999Z</time></trkpt><trkpt lat="33.88375669099211" lon="9.998901358706005"><ele>57.0</ele><time>2026-04-05T16:20:50.999Z</time></trkpt><trkpt lat="33.88378058199772" lon="9.99900423306177"><ele>57.0</ele><time>2026-04-05T16:20:51.999Z</time></trkpt><trkpt lat="33.88380168684357" lon="9.999090932124131"><ele>57.0</ele><time>2026-04-05T16:20:52.999Z</time></trkpt><trkpt lat="33.88383521168329" lon="9.999222091549397"><ele>57.0</ele><time>2026-04-05T16:20:54.999Z</time></trkpt><trkpt lat="33.88386249925884" lon="9.99932654127185"><ele>56.99999999999999</ele><time>2026-04-05T16:20:56.999Z</time></trkpt><trkpt lat="33.88388433815149" lon="9.999415189026534"><ele>57.0</ele><time>2026-04-05T16:20:58.999Z</time></trkpt><trkpt lat="33.883903403997074" lon="9.999498270928532"><ele>57.0</ele><time>2026-04-05T16:21:00.999Z</time></trkpt><trkpt lat="33.88392331803031" lon="9.999583125404174"><ele>56.99999999999999</ele><time>2026-04-05T16:21:02.999Z</time></trkpt><trkpt lat="33.88394105161051" lon="9.999659740317673"><ele>57.0</ele><time>2026-04-05T16:21:04.999Z</time></trkpt><trkpt lat="33.88395471170982" lon="9.999734741006078"><ele>57.0</ele><time>2026-04-05T16:22:38Z</time></trkpt><trkpt lat="33.883967392265596" lon="9.999813010845049"><ele>57.0</ele><time>2026-04-05T16:22:42Z</time></trkpt><trkpt lat="33.883992446537235" lon="9.999892813954816"><ele>57.0</ele><time>2026-04-05T16:22:46Z</time></trkpt><trkpt lat="33.88402003230504" lon="9.999970542703599"><ele>57.0</ele><time>2026-04-05T16:22:53.999Z</time></trkpt><trkpt lat="33.88405510347224" lon="10.000075759671526"><ele>57.0</ele><time>2026-04-05T16:22:55.999Z</time></trkpt><trkpt lat="33.88409500016474" lon="10.00016453358337"><ele>57.0</ele><time>2026-04-05T16:23:03.999Z</time></trkpt><trkpt lat="33.88413484682364" lon="10.000285262076785"><ele>57.0</ele><time>2026-04-05T16:23:05.999Z</time></trkpt><trkpt lat="33.88415679074149" lon="10.000358452587307"><ele>57.0</ele><time>2026-04-05T16:23:06.999Z</time></trkpt><trkpt lat="33.88418682332512" lon="10.000492168340894"><ele>57.0</ele><time>2026-04-05T16:23:08.999Z</time></trkpt><trkpt lat="33.884195610328874" lon="10.000634325169656"><ele>57.0</ele><time>2026-04-05T16:23:10.999Z</time></trkpt><trkpt lat="33.88419318751835" lon="10.000710672418405"><ele>57.0</ele><time>2026-04-05T16:23:11.999Z</time></trkpt><trkpt lat="33.88417545441399" lon="10.000790404693179"><ele>57.0</ele><time>2026-04-05T16:23:12.999Z</time></trkpt><trkpt lat="33.88415185746428" lon="10.000870725924287"><ele>57.0</ele><time>2026-04-05T16:23:13.999Z</time></trkpt><trkpt lat="33.88415099196364" lon="10.000949834821657"><ele>57.2</ele><time>2026-04-05T16:23:14.999Z</time></trkpt><trkpt lat="33.88417490747277" lon="10.001020561421175"><ele>57.400000000000006</ele><time>2026-04-05T16:23:15.999Z</time></trkpt><trkpt lat="33.884242780593965" lon="10.001139809196058"><ele>57.599999999999994</ele><time>2026-04-05T16:23:17.999Z</time></trkpt><trkpt lat="33.88428799910473" lon="10.001254823731706"><ele>57.8</ele><time>2026-04-05T16:23:19.999Z</time></trkpt><trkpt lat="33.884320576218244" lon="10.001350900993785"><ele>58.0</ele><time>2026-04-05T16:23:21.999Z</time></trkpt><trkpt lat="33.88435788122604" lon="10.00142996661734"><ele>58.166666666666664</ele><time>2026-04-05T16:47:48Z</time></trkpt><trkpt lat="33.884382696957466" lon="10.001517593086602"><ele>58.33333333333333</ele><time>2026-04-05T16:47:50Z</time></trkpt><trkpt lat="33.88441371613692" lon="10.00160495227124"><ele>58.5</ele><time>2026-04-05T16:47:53Z</time></trkpt><trkpt lat="33.88446970550139" lon="10.001663331394667"><ele>58.66666666666667</ele><time>2026-04-05T16:47:57Z</time></trkpt><trkpt lat="33.88455452792084" lon="10.001637909095846"><ele>58.833333333333336</ele><time>2026-04-05T16:48:00Z</time></trkpt><trkpt lat="33.884594838626214" lon="10.001568734350704"><ele>59.0</ele><time>2026-04-05T16:48:03Z</time></trkpt><trkpt lat="33.8845647210265" lon="10.001482372240076"><ele>59.00000000000001</ele><time>2026-04-05T16:48:05Z</time></trkpt><trkpt lat="33.884532947978876" lon="10.00138637518398"><ele>59.0</ele><time>2026-04-05T16:48:08Z</time></trkpt><trkpt lat="33.88450966019282" lon="10.001299818732049"><ele>59.0</ele><time>2026-04-05T16:48:10Z</time></trkpt><trkpt lat="33.884484700340444" lon="10.001204564324324"><ele>59.0</ele><time>2026-04-05T16:48:12Z</time></trkpt><trkpt lat="33.88445976890599" lon="10.00110507013337"><ele>59.00000000000001</ele><time>2026-04-05T16:48:14Z</time></trkpt><trkpt lat="33.8844381190996" lon="10.001011537522828"><ele>59.0</ele><time>2026-04-05T16:48:16Z</time></trkpt><trkpt lat="33.88441892808624" lon="10.000909440070714"><ele>58.857142857142854</ele><time>2026-04-05T16:48:19Z</time></trkpt><trkpt lat="33.884403147348515" lon="10.000821607547651"><ele>58.71428571428572</ele><time>2026-04-05T16:48:22Z</time></trkpt><trkpt lat="33.884381455157694" lon="10.000743379875328"><ele>58.57142857142858</ele><time>2026-04-05T16:48:25Z</time></trkpt><trkpt lat="33.88436667884551" lon="10.00066079682536"><ele>58.42857142857143</ele><time>2026-04-05T16:48:27.999Z</time></trkpt><trkpt lat="33.884355895621546" lon="10.000582537956673"><ele>58.28571428571429</ele><time>2026-04-05T16:48:30.999Z</time></trkpt><trkpt lat="33.88434425890143" lon="10.000506570565342"><ele>58.14285714285715</ele><time>2026-04-05T16:49:35.999Z</time></trkpt><trkpt lat="33.884329546074774" lon="10.000431995229308"><ele>58.00000000000001</ele><time>2026-04-05T16:49:38.999Z</time></trkpt><trkpt lat="33.88430578547852" lon="10.000352260843163"><ele>58.0</ele><time>2026-04-05T16:49:41.999Z</time></trkpt><trkpt lat="33.884282383420356" lon="10.000274940578226"><ele>58.0</ele><time>2026-04-05T16:49:45.999Z</time></trkpt><trkpt lat="33.884230199682726" lon="10.000147428026176"><ele>58.0</ele><time>2026-04-05T16:50:11.999Z</time></trkpt><trkpt lat="33.884192430853126" lon="10.000008267867162"><ele>58.0</ele><time>2026-04-05T16:50:13.999Z</time></trkpt><trkpt lat="33.88415016788848" lon="9.999858517556241"><ele>58.0</ele><time>2026-04-05T16:50:15.999Z</time></trkpt><trkpt lat="33.884123594444695" lon="9.999768803626678"><ele>57.8</ele><time>2026-04-05T16:50:16.999Z</time></trkpt><trkpt lat="33.8840907833672" lon="9.99967223730826"><ele>57.599999999999994</ele><time>2026-04-05T16:50:17.999Z</time></trkpt><trkpt lat="33.88405363742053" lon="9.999569710076987"><ele>57.400000000000006</ele><time>2026-04-05T16:50:18.999Z</time></trkpt><trkpt lat="33.88401407315415" lon="9.999458093470844"><ele>57.2</ele><time>2026-04-05T16:50:19.999Z</time></trkpt><trkpt lat="33.88397500326181" lon="9.999340354186053"><ele>57.0</ele><time>2026-04-05T16:50:20.999Z</time></trkpt><trkpt lat="33.88393688953393" lon="9.999214279431717"><ele>57.400000000000006</ele><time>2026-04-05T16:50:21.999Z</time></trkpt><trkpt lat="33.88389875095743" lon="9.999090779138948"><ele>57.800000000000004</ele><time>2026-04-05T16:50:22.999Z</time></trkpt><trkpt lat="33.88386131998331" lon="9.998970456127283"><ele>58.2</ele><time>2026-04-05T16:50:23.999Z</time></trkpt><trkpt lat="33.88382689479296" lon="9.998860915529978"><ele>58.6</ele><time>2026-04-05T16:50:24.999Z</time></trkpt><trkpt lat="33.88378978252965" lon="9.998753410694274"><ele>59.0</ele><time>2026-04-05T16:50:25.999Z</time></trkpt><trkpt lat="33.88375306473373" lon="9.998640788610167"><ele>59.0</ele><time>2026-04-05T16:50:26.999Z</time></trkpt><trkpt lat="33.883713936788574" lon="9.998523635171072"><ele>59.00000000000001</ele><time>2026-04-05T16:50:27.999Z</time></trkpt><trkpt lat="33.88367009316659" lon="9.998410313012402"><ele>59.00000000000001</ele><time>2026-04-05T16:50:28.999Z</time></trkpt><trkpt lat="33.883620170526086" lon="9.998298927735474"><ele>59.0</ele><time>2026-04-05T16:50:29.999Z</time></trkpt><trkpt lat="33.88356383695416" lon="9.998191486949484"><ele>59.0</ele><time>2026-04-05T16:50:30.999Z</time></trkpt><trkpt lat="33.88350228207325" lon="9.998089061476765"><ele>58.6</ele><time>2026-04-05T16:50:31.999Z</time></trkpt><trkpt lat="33.883436347824144" lon="9.997990523628644"><ele>58.2</ele><time>2026-04-05T16:50:32.999Z</time></trkpt><trkpt lat="33.88336874963617" lon="9.997894723141785"><ele>57.800000000000004</ele><time>2026-04-05T16:50:33.999Z</time></trkpt><trkpt lat="33.88329442136082" lon="9.997802332702175"><ele>57.400000000000006</ele><time>2026-04-05T16:50:34.999Z</time></trkpt><trkpt lat="33.883216035700734" lon="9.997717885928854"><ele>57.0</ele><time>2026-04-05T16:50:35.999Z</time></trkpt><trkpt lat="33.88313224690383" lon="9.997637810936551"><ele>56.8</ele><time>2026-04-05T16:50:36.999Z</time></trkpt><trkpt lat="33.8830467006522" lon="9.997561274815045"><ele>56.6</ele><time>2026-04-05T16:50:37.999Z</time></trkpt><trkpt lat="33.8829606932525" lon="9.997486484804666"><ele>56.39999999999999</ele><time>2026-04-05T16:50:38.999Z</time></trkpt><trkpt lat="33.882875546007035" lon="9.99741455828838"><ele>56.199999999999996</ele><time>2026-04-05T16:50:39.999Z</time></trkpt><trkpt lat="33.88278971476177" lon="9.997342089726553"><ele>56.0</ele><time>2026-04-05T16:50:40.999Z</time></trkpt><trkpt lat="33.882705080021" lon="9.997272200615228"><ele>56.0</ele><time>2026-04-05T16:50:41.999Z</time></trkpt><trkpt lat="33.88261756908206" lon="9.997192509080657"><ele>55.99999999999999</ele><time>2026-04-05T16:50:42.999Z</time></trkpt><trkpt lat="33.88252239991018" lon="9.997106904593185"><ele>55.99999999999999</ele><time>2026-04-05T16:50:43.999Z</time></trkpt><trkpt lat="33.882432680599884" lon="9.99703080841551"><ele>56.0</ele><time>2026-04-05T16:50:44.999Z</time></trkpt><trkpt lat="33.88235280688951" lon="9.996963270685299"><ele>56.0</ele><time>2026-04-05T16:50:45.999Z</time></trkpt><trkpt lat="33.88227566267731" lon="9.996897847679806"><ele>56.0</ele><time>2026-04-05T16:50:46.999Z</time></trkpt><trkpt lat="33.88219557847299" lon="9.99682850693433"><ele>55.99999999999999</ele><time>2026-04-05T16:50:47.999Z</time></trkpt><trkpt lat="33.88212513784703" lon="9.996766731062124"><ele>55.99999999999999</ele><time>2026-04-05T16:50:48.999Z</time></trkpt><trkpt lat="33.88206282547839" lon="9.996714328751333"><ele>56.0</ele><time>2026-04-05T16:50:49.999Z</time></trkpt><trkpt lat="33.88200705865431" lon="9.9966681305946"><ele>56.0</ele><time>2026-04-05T16:50:50.999Z</time></trkpt><trkpt lat="33.88190425440861" lon="9.996577753628829"><ele>56.333333333333336</ele><time>2026-04-05T16:50:52.999Z</time></trkpt><trkpt lat="33.881849807944825" lon="9.996532666785747"><ele>56.66666666666667</ele><time>2026-04-05T16:50:53.999Z</time></trkpt><trkpt lat="33.88179130770499" lon="9.996481372414953"><ele>57.0</ele><time>2026-04-05T16:50:54.999Z</time></trkpt><trkpt lat="33.88172892878529" lon="9.996426483406042"><ele>57.33333333333333</ele><time>2026-04-05T16:50:55.999Z</time></trkpt><trkpt lat="33.88166302251359" lon="9.996367830520795"><ele>57.666666666666664</ele><time>2026-04-05T16:50:56.999Z</time></trkpt><trkpt lat="33.88159410186054" lon="9.996307823182315"><ele>58.0</ele><time>2026-04-05T16:50:57.999Z</time></trkpt><trkpt lat="33.88152908084908" lon="9.996252884519242"><ele>58.166666666666664</ele><time>2026-04-05T16:50:58.999Z</time></trkpt><trkpt lat="33.88146578050311" lon="9.996196628682192"><ele>58.33333333333333</ele><time>2026-04-05T16:50:59.999Z</time></trkpt><trkpt lat="33.88140156426748" lon="9.996138957018818"><ele>58.5</ele><time>2026-04-05T16:51:00.999Z</time></trkpt><trkpt lat="33.881330151813756" lon="9.996078282148213"><ele>58.66666666666667</ele><time>2026-04-05T16:51:01.999Z</time></trkpt><trkpt lat="33.881255593021535" lon="9.996013052220663"><ele>58.833333333333336</ele><time>2026-04-05T16:51:02.999Z</time></trkpt><trkpt lat="33.88117434845624" lon="9.995945322379207"><ele>59.0</ele><time>2026-04-05T16:51:03.999Z</time></trkpt><trkpt lat="33.88109093323763" lon="9.995872877359753"><ele>58.800000000000004</ele><time>2026-04-05T16:51:04.999Z</time></trkpt><trkpt lat="33.881005158618926" lon="9.995801630612316"><ele>58.60000000000001</ele><time>2026-04-05T16:51:05.999Z</time></trkpt><trkpt lat="33.880913235893296" lon="9.99573036098963"><ele>58.4</ele><time>2026-04-05T16:51:06.999Z</time></trkpt><trkpt lat="33.88081380981281" lon="9.995663405205669"><ele>58.2</ele><time>2026-04-05T16:51:07.999Z</time></trkpt><trkpt lat="33.880706539611765" lon="9.995609791753502"><ele>58.0</ele><time>2026-04-05T16:51:08.999Z</time></trkpt><trkpt lat="33.88059232520058" lon="9.995577125694615"><ele>57.5</ele><time>2026-04-05T16:51:09.999Z</time></trkpt><trkpt lat="33.88047407393397" lon="9.995565741357044"><ele>57.0</ele><time>2026-04-05T16:51:10.999Z</time></trkpt><trkpt lat="33.880352893855004" lon="9.99557472995329"><ele>56.5</ele><time>2026-04-05T16:51:11.999Z</time></trkpt><trkpt lat="33.88023352555636" lon="9.995607860633678"><ele>56.0</ele><time>2026-04-05T16:51:12.999Z</time></trkpt><trkpt lat="33.880119350110355" lon="9.995668170244763"><ele>56.25</ele><time>2026-04-05T16:51:13.999Z</time></trkpt><trkpt lat="33.8800135725848" lon="9.995751263596636"><ele>56.5</ele><time>2026-04-05T16:51:14.999Z</time></trkpt><trkpt lat="33.87992259366789" lon="9.995863895244305"><ele>56.75</ele><time>2026-04-05T16:51:15.999Z</time></trkpt><trkpt lat="33.879844618634365" lon="9.995987879819378"><ele>57.0</ele><time>2026-04-05T16:51:16.999Z</time></trkpt><trkpt lat="33.879786479132086" lon="9.996125370683474"><ele>57.0</ele><time>2026-04-05T16:51:17.999Z</time></trkpt><trkpt lat="33.87975111642003" lon="9.996275490969802"><ele>57.0</ele><time>2026-04-05T16:51:18.999Z</time></trkpt><trkpt lat="33.87973506706235" lon="9.99643176428707"><ele>57.0</ele><time>2026-04-05T16:51:19.999Z</time></trkpt><trkpt lat="33.879736630461196" lon="9.996588939724697"><ele>57.0</ele><time>2026-04-05T16:51:20.999Z</time></trkpt><trkpt lat="33.879741669078726" lon="9.996752001342701"><ele>57.5</ele><time>2026-04-05T16:51:21.999Z</time></trkpt><trkpt lat="33.879740504400246" lon="9.996912085229345"><ele>58.0</ele><time>2026-04-05T16:51:22.999Z</time></trkpt><trkpt lat="33.87972806172919" lon="9.997073188371829"><ele>58.5</ele><time>2026-04-05T16:51:23.999Z</time></trkpt><trkpt lat="33.8797005453862" lon="9.997230258516504"><ele>59.0</ele><time>2026-04-05T16:51:24.999Z</time></trkpt><trkpt lat="33.87965364761061" lon="9.997381357708077"><ele>58.75</ele><time>2026-04-05T16:51:25.999Z</time></trkpt><trkpt lat="33.87958818841183" lon="9.99752849354964"><ele>58.5</ele><time>2026-04-05T16:51:26.999Z</time></trkpt><trkpt lat="33.8795088489341" lon="9.99767093061886"><ele>58.25</ele><time>2026-04-05T16:51:27.999Z</time></trkpt><trkpt lat="33.879412914856566" lon="9.997806246202694"><ele>58.0</ele><time>2026-04-05T16:51:28.999Z</time></trkpt><trkpt lat="33.8793013004483" lon="9.997930063478812"><ele>58.33333333333333</ele><time>2026-04-05T16:51:29.999Z</time></trkpt><trkpt lat="33.87917517612522" lon="9.998044670964429"><ele>58.66666666666667</ele><time>2026-04-05T16:51:30.999Z</time></trkpt><trkpt lat="33.87904122307407" lon="9.998154835134962"><ele>59.0</ele><time>2026-04-05T16:51:31.999Z</time></trkpt><trkpt lat="33.878904577246324" lon="9.998269530460295"><ele>59.333333333333336</ele><time>2026-04-05T16:51:32.999Z</time></trkpt><trkpt lat="33.8787646855162" lon="9.99838396292855"><ele>59.66666666666667</ele><time>2026-04-05T16:51:33.999Z</time></trkpt><trkpt lat="33.87862239359028" lon="9.998499426207914"><ele>60.0</ele><time>2026-04-05T16:51:34.999Z</time></trkpt><trkpt lat="33.87847774535425" lon="9.998622719463148"><ele>59.33333333333333</ele><time>2026-04-05T16:51:35.999Z</time></trkpt><trkpt lat="33.87833351562565" lon="9.998748608118323"><ele>58.666666666666664</ele><time>2026-04-05T16:51:36.999Z</time></trkpt><trkpt lat="33.87818111518609" lon="9.99887266265122"><ele>58.0</ele><time>2026-04-05T16:51:37.999Z</time></trkpt><trkpt lat="33.87802640375153" lon="9.998995063829623"><ele>58.0</ele><time>2026-04-05T16:51:38.999Z</time></trkpt><trkpt lat="33.87786810571566" lon="9.999120296509004"><ele>58.0</ele><time>2026-04-05T16:51:39.999Z</time></trkpt><trkpt lat="33.87771249966098" lon="9.999245784978863"><ele>58.0</ele><time>2026-04-05T16:51:40.999Z</time></trkpt><trkpt lat="33.87755687041515" lon="9.999365881689242"><ele>57.666666666666664</ele><time>2026-04-05T16:51:41.999Z</time></trkpt><trkpt lat="33.87740007786123" lon="9.99948093036513"><ele>57.33333333333333</ele><time>2026-04-05T16:51:42.999Z</time></trkpt><trkpt lat="33.877244622934164" lon="9.999596207066979"><ele>57.0</ele><time>2026-04-05T16:51:43.999Z</time></trkpt><trkpt lat="33.87708659476935" lon="9.999716427802769"><ele>57.0</ele><time>2026-04-05T16:51:44.999Z</time></trkpt><trkpt lat="33.876929431355606" lon="9.999835848333822"><ele>57.0</ele><time>2026-04-05T16:51:45.999Z</time></trkpt><trkpt lat="33.876769567943796" lon="9.999953961446447"><ele>57.0</ele><time>2026-04-05T16:51:46.999Z</time></trkpt><trkpt lat="33.87660794735058" lon="10.00007317749216"><ele>56.66666666666667</ele><time>2026-04-05T16:51:47.999Z</time></trkpt><trkpt lat="33.87643617874685" lon="10.000198105252466"><ele>56.333333333333336</ele><time>2026-04-05T16:51:48.999Z</time></trkpt><trkpt lat="33.876258686674404" lon="10.000327566019632"><ele>56.0</ele><time>2026-04-05T16:51:49.999Z</time></trkpt><trkpt lat="33.87608475864173" lon="10.000459065927208"><ele>56.0</ele><time>2026-04-05T16:51:50.999Z</time></trkpt><trkpt lat="33.87590870342016" lon="10.000591301031816"><ele>56.0</ele><time>2026-04-05T16:51:51.999Z</time></trkpt><trkpt lat="33.87573172170406" lon="10.000724023665441"><ele>56.0</ele><time>2026-04-05T16:51:52.999Z</time></trkpt><trkpt lat="33.87555087584865" lon="10.000859270416"><ele>56.0</ele><time>2026-04-05T16:51:53.999Z</time></trkpt><trkpt lat="33.87536857607039" lon="10.000997307593295"><ele>56.0</ele><time>2026-04-05T16:51:54.999Z</time></trkpt><trkpt lat="33.87518602544841" lon="10.001132870870931"><ele>56.0</ele><time>2026-04-05T16:51:55.999Z</time></trkpt><trkpt lat="33.874998366905636" lon="10.001274145846855"><ele>56.0</ele><time>2026-04-05T16:51:56.999Z</time></trkpt><trkpt lat="33.87481025291331" lon="10.001413163718293"><ele>56.0</ele><time>2026-04-05T16:51:57.999Z</time></trkpt><trkpt lat="33.874626269248324" lon="10.001549883411068"><ele>56.0</ele><time>2026-04-05T16:51:58.999Z</time></trkpt><trkpt lat="33.87444282678751" lon="10.001687056489303"><ele>57.0</ele><time>2026-04-05T16:51:59.999Z</time></trkpt><trkpt lat="33.87425336664493" lon="10.001831845564064"><ele>58.0</ele><time>2026-04-05T16:52:00.999Z</time></trkpt><trkpt lat="33.87406172524332" lon="10.001977729446732"><ele>58.0</ele><time>2026-04-05T16:52:01.999Z</time></trkpt><trkpt lat="33.873864238323534" lon="10.00212510286918"><ele>58.0</ele><time>2026-04-05T16:52:02.999Z</time></trkpt><trkpt lat="33.87366453010027" lon="10.002273497450041"><ele>58.0</ele><time>2026-04-05T16:52:03.999Z</time></trkpt><trkpt lat="33.87346781513157" lon="10.0024262996557"><ele>58.0</ele><time>2026-04-05T16:52:04.999Z</time></trkpt><trkpt lat="33.87326578670741" lon="10.002579941409355"><ele>56.5</ele><time>2026-04-05T16:52:05.999Z</time></trkpt><trkpt lat="33.873057287628214" lon="10.002736708038446"><ele>55.0</ele><time>2026-04-05T16:52:06.999Z</time></trkpt><trkpt lat="33.87285159022429" lon="10.002890246222544"><ele>55.0</ele><time>2026-04-05T16:52:07.999Z</time></trkpt><trkpt lat="33.87264647038896" lon="10.003042022447213"><ele>55.0</ele><time>2026-04-05T16:52:08.999Z</time></trkpt><trkpt lat="33.87244283904591" lon="10.003195053814599"><ele>55.0</ele><time>2026-04-05T16:52:09.999Z</time></trkpt><trkpt lat="33.87223525411598" lon="10.003349089854565"><ele>55.0</ele><time>2026-04-05T16:52:10.999Z</time></trkpt><trkpt lat="33.87202666642788" lon="10.00350528081397"><ele>55.0</ele><time>2026-04-05T16:52:11.999Z</time></trkpt><trkpt lat="33.87181701679871" lon="10.003665187560003"><ele>55.0</ele><time>2026-04-05T16:52:12.999Z</time></trkpt><trkpt lat="33.87160909299731" lon="10.00382683707721"><ele>55.5</ele><time>2026-04-05T16:52:13.999Z</time></trkpt><trkpt lat="33.87139929678602" lon="10.003988796939366"><ele>56.0</ele><time>2026-04-05T16:52:14.999Z</time></trkpt><trkpt lat="33.87118723643144" lon="10.004146593341774"><ele>56.0</ele><time>2026-04-05T16:52:15.999Z</time></trkpt><trkpt lat="33.870977340433704" lon="10.004302659598233"><ele>56.0</ele><time>2026-04-05T16:52:16.999Z</time></trkpt><trkpt lat="33.87076503192801" lon="10.004460792842226"><ele>56.0</ele><time>2026-04-05T16:52:17.999Z</time></trkpt><trkpt lat="33.8705557953817" lon="10.004616998049986"><ele>56.0</ele><time>2026-04-05T16:52:18.999Z</time></trkpt><trkpt lat="33.87034627465993" lon="10.004775773581699"><ele>56.0</ele><time>2026-04-05T16:52:19.999Z</time></trkpt><trkpt lat="33.8701397822401" lon="10.004935149017244"><ele>56.0</ele><time>2026-04-05T16:52:20.999Z</time></trkpt><trkpt lat="33.86992916971461" lon="10.005091237781162"><ele>55.5</ele><time>2026-04-05T16:52:21.999Z</time></trkpt><trkpt lat="33.86971905031094" lon="10.005243155265937"><ele>55.0</ele><time>2026-04-05T16:52:22.999Z</time></trkpt><trkpt lat="33.86950701248522" lon="10.00539821894101"><ele>55.0</ele><time>2026-04-05T16:52:23.999Z</time></trkpt><trkpt lat="33.86929681864097" lon="10.005555357042834"><ele>55.0</ele><time>2026-04-05T16:52:24.999Z</time></trkpt><trkpt lat="33.86909074161975" lon="10.005717677187413"><ele>55.0</ele><time>2026-04-05T16:52:25.999Z</time></trkpt><trkpt lat="33.868880169422255" lon="10.005877570129998"><ele>55.0</ele><time>2026-04-05T16:52:26.999Z</time></trkpt><trkpt lat="33.86867036292966" lon="10.006035605773715"><ele>55.0</ele><time>2026-04-05T16:52:27.999Z</time></trkpt><trkpt lat="33.868459477826896" lon="10.006194333132827"><ele>55.0</ele><time>2026-04-05T16:52:28.999Z</time></trkpt><trkpt lat="33.86824830563324" lon="10.00635178376465"><ele>55.5</ele><time>2026-04-05T16:52:29.999Z</time></trkpt><trkpt lat="33.86803628091067" lon="10.006508871882616"><ele>56.0</ele><time>2026-04-05T16:52:30.999Z</time></trkpt><trkpt lat="33.867831472056615" lon="10.00666597764842"><ele>56.0</ele><time>2026-04-05T16:52:31.999Z</time></trkpt><trkpt lat="33.867621419987906" lon="10.006829547051652"><ele>56.0</ele><time>2026-04-05T16:52:32.999Z</time></trkpt><trkpt lat="33.86741268376206" lon="10.006985394040044"><ele>55.5</ele><time>2026-04-05T16:52:33.999Z</time></trkpt><trkpt lat="33.867203796330365" lon="10.007138269622514"><ele>55.0</ele><time>2026-04-05T16:52:34.999Z</time></trkpt><trkpt lat="33.866994624548106" lon="10.007293554948085"><ele>55.0</ele><time>2026-04-05T16:52:35.999Z</time></trkpt><trkpt lat="33.866785023805605" lon="10.007449901452828"><ele>55.0</ele><time>2026-04-05T16:52:36.999Z</time></trkpt><trkpt lat="33.86657690373482" lon="10.007606248485272"><ele>55.5</ele><time>2026-04-05T16:52:37.999Z</time></trkpt><trkpt lat="33.86636762805298" lon="10.00776346742039"><ele>56.0</ele><time>2026-04-05T16:52:38.999Z</time></trkpt><trkpt lat="33.866155757869315" lon="10.007920477432174"><ele>56.0</ele><time>2026-04-05T16:52:39.999Z</time></trkpt><trkpt lat="33.86594548984369" lon="10.008075644438161"><ele>56.0</ele><time>2026-04-05T16:52:40.999Z</time></trkpt><trkpt lat="33.86573333764866" lon="10.008233959739483"><ele>55.5</ele><time>2026-04-05T16:52:41.999Z</time></trkpt><trkpt lat="33.86552511524417" lon="10.008386027498085"><ele>55.0</ele><time>2026-04-05T16:52:42.999Z</time></trkpt><trkpt lat="33.86531431471244" lon="10.00853967103565"><ele>55.5</ele><time>2026-04-05T16:52:43.999Z</time></trkpt><trkpt lat="33.86510385482433" lon="10.008697761376753"><ele>56.0</ele><time>2026-04-05T16:52:44.999Z</time></trkpt><trkpt lat="33.864895363928404" lon="10.008855325233588"><ele>56.0</ele><time>2026-04-05T16:52:45.999Z</time></trkpt><trkpt lat="33.86468570095548" lon="10.009015135643375"><ele>56.0</ele><time>2026-04-05T16:52:46.999Z</time></trkpt><trkpt lat="33.8644764416565" lon="10.00917278916521"><ele>56.5</ele><time>2026-04-05T16:52:47.999Z</time></trkpt><trkpt lat="33.86426545938156" lon="10.009329476398994"><ele>57.0</ele><time>2026-04-05T16:52:48.999Z</time></trkpt><trkpt lat="33.86405486690252" lon="10.009486596685264"><ele>57.0</ele><time>2026-04-05T16:52:49.999Z</time></trkpt><trkpt lat="33.86384396528638" lon="10.009643823825627"><ele>57.0</ele><time>2026-04-05T16:52:50.999Z</time></trkpt><trkpt lat="33.863633596937" lon="10.009800241465486"><ele>57.0</ele><time>2026-04-05T16:52:51.999Z</time></trkpt><trkpt lat="33.863424986734856" lon="10.009956859618569"><ele>57.0</ele><time>2026-04-05T16:52:52.999Z</time></trkpt><trkpt lat="33.863216248672074" lon="10.010116936419033"><ele>57.0</ele><time>2026-04-05T16:52:53.999Z</time></trkpt><trkpt lat="33.86300842106736" lon="10.010278216758085"><ele>57.0</ele><time>2026-04-05T16:52:54.999Z</time></trkpt><trkpt lat="33.86279807058972" lon="10.010436920084567"><ele>57.5</ele><time>2026-04-05T16:52:55.999Z</time></trkpt><trkpt lat="33.86258719891336" lon="10.010599470105086"><ele>58.0</ele><time>2026-04-05T16:52:56.999Z</time></trkpt><trkpt lat="33.86236879611593" lon="10.010763037330026"><ele>57.0</ele><time>2026-04-05T16:52:57.999Z</time></trkpt><trkpt lat="33.86213905611346" lon="10.010932877584334"><ele>56.0</ele><time>2026-04-05T16:52:58.999Z</time></trkpt><trkpt lat="33.861898553182094" lon="10.011109834666119"><ele>57.5</ele><time>2026-04-05T16:52:59.999Z</time></trkpt><trkpt lat="33.861648339012184" lon="10.011296535544261"><ele>59.0</ele><time>2026-04-05T16:53:00.999Z</time></trkpt><trkpt lat="33.8613976871967" lon="10.011483408035687"><ele>57.5</ele><time>2026-04-05T16:53:01.999Z</time></trkpt><trkpt lat="33.86115150309596" lon="10.011671336651537"><ele>56.0</ele><time>2026-04-05T16:53:02.999Z</time></trkpt><trkpt lat="33.860901615440746" lon="10.011857638521992"><ele>56.0</ele><time>2026-04-05T16:53:03.999Z</time></trkpt><trkpt lat="33.860641019481626" lon="10.012055083115328"><ele>56.0</ele><time>2026-04-05T16:53:04.999Z</time></trkpt><trkpt lat="33.860369136464485" lon="10.012262042554639"><ele>56.5</ele><time>2026-04-05T16:53:05.999Z</time></trkpt><trkpt lat="33.8600869186332" lon="10.012477427219748"><ele>57.0</ele><time>2026-04-05T16:53:06.999Z</time></trkpt><trkpt lat="33.85979909546358" lon="10.012696321438847"><ele>57.0</ele><time>2026-04-05T16:53:07.999Z</time></trkpt><trkpt lat="33.85951522063863" lon="10.012905249518862"><ele>57.0</ele><time>2026-04-05T16:53:08.999Z</time></trkpt><trkpt lat="33.859234192344005" lon="10.013113849739405"><ele>56.5</ele><time>2026-04-05T16:53:09.999Z</time></trkpt><trkpt lat="33.858953629810756" lon="10.013324157274551"><ele>56.0</ele><time>2026-04-05T16:53:10.999Z</time></trkpt><trkpt lat="33.858672197482726" lon="10.01353787912211"><ele>55.5</ele><time>2026-04-05T16:53:11.999Z</time></trkpt><trkpt lat="33.85838974155082" lon="10.013751952846386"><ele>55.0</ele><time>2026-04-05T16:53:12.999Z</time></trkpt><trkpt lat="33.858106938847044" lon="10.01396384377075"><ele>55.5</ele><time>2026-04-05T16:53:13.999Z</time></trkpt><trkpt lat="33.85782211680449" lon="10.014175901204782"><ele>56.0</ele><time>2026-04-05T16:53:14.999Z</time></trkpt><trkpt lat="33.85753709591081" lon="10.014387731508778"><ele>55.0</ele><time>2026-04-05T16:53:15.999Z</time></trkpt><trkpt lat="33.85725263600763" lon="10.014598796661573"><ele>54.0</ele><time>2026-04-05T16:53:16.999Z</time></trkpt><trkpt lat="33.85697134499244" lon="10.014808026626428"><ele>54.5</ele><time>2026-04-05T16:53:17.999Z</time></trkpt><trkpt lat="33.85668794999841" lon="10.01502475544609"><ele>55.0</ele><time>2026-04-05T16:53:18.999Z</time></trkpt><trkpt lat="33.8564052909986" lon="10.015239174930716"><ele>55.0</ele><time>2026-04-05T16:53:19.999Z</time></trkpt><trkpt lat="33.85612019886437" lon="10.015451931577326"><ele>55.0</ele><time>2026-04-05T16:53:20.999Z</time></trkpt><trkpt lat="33.85583410710137" lon="10.015660040172934"><ele>55.5</ele><time>2026-04-05T16:53:21.999Z</time></trkpt><trkpt lat="33.85554790423508" lon="10.015866642604983"><ele>56.0</ele><time>2026-04-05T16:53:22.999Z</time></trkpt><trkpt lat="33.85526437731611" lon="10.016078675098532"><ele>56.0</ele><time>2026-04-05T16:53:23.999Z</time></trkpt><trkpt lat="33.85498250990166" lon="10.016289721229862"><ele>56.0</ele><time>2026-04-05T16:53:24.999Z</time></trkpt><trkpt lat="33.85469833695536" lon="10.016501507003676"><ele>55.5</ele><time>2026-04-05T16:53:25.999Z</time></trkpt><trkpt lat="33.85441444882317" lon="10.016713573072575"><ele>55.0</ele><time>2026-04-05T16:53:26.999Z</time></trkpt><trkpt lat="33.85413030267082" lon="10.016929837157472"><ele>55.0</ele><time>2026-04-05T16:53:27.999Z</time></trkpt><trkpt lat="33.85384837558996" lon="10.017142573565403"><ele>55.0</ele><time>2026-04-05T16:53:28.999Z</time></trkpt><trkpt lat="33.85356475135344" lon="10.017353162468268"><ele>56.0</ele><time>2026-04-05T16:53:29.999Z</time></trkpt><trkpt lat="33.853280064737724" lon="10.017568961374119"><ele>57.0</ele><time>2026-04-05T16:53:30.999Z</time></trkpt><trkpt lat="33.85299684169721" lon="10.017784191559485"><ele>57.0</ele><time>2026-04-05T16:53:31.999Z</time></trkpt><trkpt lat="33.85271391445049" lon="10.018001995163132"><ele>57.0</ele><time>2026-04-05T16:53:32.999Z</time></trkpt><trkpt lat="33.85243013713258" lon="10.018219776533593"><ele>56.0</ele><time>2026-04-05T16:53:33.999Z</time></trkpt><trkpt lat="33.85214634031101" lon="10.018434939990852"><ele>55.0</ele><time>2026-04-05T16:53:34.999Z</time></trkpt><trkpt lat="33.851866279118475" lon="10.01864895106436"><ele>56.0</ele><time>2026-04-05T16:53:35.999Z</time></trkpt><trkpt lat="33.8515864375358" lon="10.018864699255305"><ele>57.0</ele><time>2026-04-05T16:53:36.999Z</time></trkpt><trkpt lat="33.85130368645295" lon="10.019083147419822"><ele>56.0</ele><time>2026-04-05T16:53:37.999Z</time></trkpt><trkpt lat="33.851019393983236" lon="10.019292952325182"><ele>55.0</ele><time>2026-04-05T16:53:38.999Z</time></trkpt><trkpt lat="33.85073347714039" lon="10.019501827203872"><ele>55.0</ele><time>2026-04-05T16:53:39.999Z</time></trkpt><trkpt lat="33.85044736098281" lon="10.019712298552879"><ele>55.0</ele><time>2026-04-05T16:53:40.999Z</time></trkpt><trkpt lat="33.85016158550003" lon="10.019920887262732"><ele>56.0</ele><time>2026-04-05T16:53:41.999Z</time></trkpt><trkpt lat="33.84987605755729" lon="10.020130085672578"><ele>57.0</ele><time>2026-04-05T16:53:42.999Z</time></trkpt><trkpt lat="33.8495894931067" lon="10.020341600362535"><ele>57.0</ele><time>2026-04-05T16:53:43.999Z</time></trkpt><trkpt lat="33.84930442088584" lon="10.020551989465037"><ele>57.0</ele><time>2026-04-05T16:53:44.999Z</time></trkpt><trkpt lat="33.84901849544025" lon="10.020766162128758"><ele>55.5</ele><time>2026-04-05T16:53:45.999Z</time></trkpt><trkpt lat="33.84873439748527" lon="10.020978061476294"><ele>54.0</ele><time>2026-04-05T16:53:46.999Z</time></trkpt><trkpt lat="33.84844788588506" lon="10.021191769881074"><ele>54.0</ele><time>2026-04-05T16:53:47.999Z</time></trkpt><trkpt lat="33.8481651159368" lon="10.021401785954815"><ele>54.0</ele><time>2026-04-05T16:53:48.999Z</time></trkpt><trkpt lat="33.84788026365377" lon="10.021615431859122"><ele>51.0</ele><time>2026-04-05T16:53:49.999Z</time></trkpt><trkpt lat="33.84759695118813" lon="10.021826592264404"><ele>48.0</ele><time>2026-04-05T16:53:50.999Z</time></trkpt><trkpt lat="33.847312115981204" lon="10.02203925936898"><ele>48.0</ele><time>2026-04-05T16:53:51.999Z</time></trkpt><trkpt lat="33.847031632151705" lon="10.022252620885292"><ele>48.0</ele><time>2026-04-05T16:53:52.999Z</time></trkpt><trkpt lat="33.84675054788108" lon="10.0224655351629"><ele>49.5</ele><time>2026-04-05T16:53:53.999Z</time></trkpt><trkpt lat="33.84646819354857" lon="10.022677155672302"><ele>51.0</ele><time>2026-04-05T16:53:54.999Z</time></trkpt><trkpt lat="33.84618682254354" lon="10.022887873009777"><ele>53.0</ele><time>2026-04-05T16:53:55.999Z</time></trkpt><trkpt lat="33.84590408307324" lon="10.023100488071638"><ele>55.0</ele><time>2026-04-05T16:53:56.999Z</time></trkpt><trkpt lat="33.8456224754804" lon="10.023313208269913"><ele>55.5</ele><time>2026-04-05T16:53:57.999Z</time></trkpt><trkpt lat="33.845340091191865" lon="10.023528202622272"><ele>56.0</ele><time>2026-04-05T16:53:58.999Z</time></trkpt><trkpt lat="33.84505983532135" lon="10.023742035972809"><ele>56.0</ele><time>2026-04-05T16:53:59.999Z</time></trkpt><trkpt lat="33.84477669739168" lon="10.023955799011706"><ele>56.0</ele><time>2026-04-05T16:54:00.999Z</time></trkpt><trkpt lat="33.84449290007959" lon="10.024168747272181"><ele>55.5</ele><time>2026-04-05T16:54:01.999Z</time></trkpt><trkpt lat="33.84420831876205" lon="10.024379251080283"><ele>55.0</ele><time>2026-04-05T16:54:02.999Z</time></trkpt><trkpt lat="33.84392202861696" lon="10.024593314171867"><ele>55.0</ele><time>2026-04-05T16:54:03.999Z</time></trkpt><trkpt lat="33.84363635039808" lon="10.024802216000095"><ele>55.0</ele><time>2026-04-05T16:54:04.999Z</time></trkpt><trkpt lat="33.843350722656204" lon="10.025009895849267"><ele>56.5</ele><time>2026-04-05T16:54:05.999Z</time></trkpt><trkpt lat="33.84306524279394" lon="10.02521923015882"><ele>58.0</ele><time>2026-04-05T16:54:06.999Z</time></trkpt><trkpt lat="33.84277969329606" lon="10.025431631106262"><ele>58.5</ele><time>2026-04-05T16:54:07.999Z</time></trkpt><trkpt lat="33.84249459499687" lon="10.025644798340513"><ele>59.0</ele><time>2026-04-05T16:54:08.999Z</time></trkpt><trkpt lat="33.842210507560054" lon="10.025858202269642"><ele>58.0</ele><time>2026-04-05T16:54:09.999Z</time></trkpt><trkpt lat="33.8419269336213" lon="10.026074209882106"><ele>57.0</ele><time>2026-04-05T16:54:10.999Z</time></trkpt><trkpt lat="33.841644275500485" lon="10.026289782246971"><ele>56.5</ele><time>2026-04-05T16:54:11.999Z</time></trkpt><trkpt lat="33.84136070689268" lon="10.02651051676973"><ele>56.0</ele><time>2026-04-05T16:54:12.999Z</time></trkpt><trkpt lat="33.841077618309264" lon="10.026728044394197"><ele>57.0</ele><time>2026-04-05T16:54:13.999Z</time></trkpt><trkpt lat="33.84079427352028" lon="10.02694337611957"><ele>58.0</ele><time>2026-04-05T16:54:14.999Z</time></trkpt><trkpt lat="33.84050962103758" lon="10.027156588970895"><ele>58.0</ele><time>2026-04-05T16:54:15.999Z</time></trkpt><trkpt lat="33.84022652196528" lon="10.027369396383612"><ele>58.0</ele><time>2026-04-05T16:54:16.999Z</time></trkpt><trkpt lat="33.83994336618243" lon="10.02758520272602"><ele>56.5</ele><time>2026-04-05T16:54:17.999Z</time></trkpt><trkpt lat="33.83966136983166" lon="10.02779883338172"><ele>55.0</ele><time>2026-04-05T16:54:18.999Z</time></trkpt><trkpt lat="33.83937852136885" lon="10.028015517713092"><ele>55.0</ele><time>2026-04-05T16:54:19.999Z</time></trkpt><trkpt lat="33.83909662603585" lon="10.028229824055238"><ele>55.0</ele><time>2026-04-05T16:54:20.999Z</time></trkpt><trkpt lat="33.838813889206726" lon="10.028447397003927"><ele>55.0</ele><time>2026-04-05T16:54:21.999Z</time></trkpt><trkpt lat="33.83853357595853" lon="10.028668991301414"><ele>55.0</ele><time>2026-04-05T16:54:22.999Z</time></trkpt><trkpt lat="33.838253205619466" lon="10.028894318991492"><ele>55.0</ele><time>2026-04-05T16:54:23.999Z</time></trkpt><trkpt lat="33.83797429784935" lon="10.029118100729235"><ele>55.0</ele><time>2026-04-05T16:54:24.999Z</time></trkpt><trkpt lat="33.8376941329083" lon="10.029340306801762"><ele>54.5</ele><time>2026-04-05T16:54:25.999Z</time></trkpt><trkpt lat="33.83741273346786" lon="10.029561647324144"><ele>54.0</ele><time>2026-04-05T16:54:26.999Z</time></trkpt><trkpt lat="33.83713244241109" lon="10.029782147069906"><ele>53.0</ele><time>2026-04-05T16:54:27.999Z</time></trkpt><trkpt lat="33.83685145374019" lon="10.030002623826107"><ele>52.0</ele><time>2026-04-05T16:54:28.999Z</time></trkpt><trkpt lat="33.83657185176313" lon="10.030225604188702"><ele>51.5</ele><time>2026-04-05T16:54:29.999Z</time></trkpt><trkpt lat="33.83629321131419" lon="10.03044964762552"><ele>51.0</ele><time>2026-04-05T16:54:30.999Z</time></trkpt><trkpt lat="33.8360162776037" lon="10.030672697242169"><ele>51.0</ele><time>2026-04-05T16:54:31.999Z</time></trkpt><trkpt lat="33.83573963787653" lon="10.030900211861484"><ele>51.0</ele><time>2026-04-05T16:54:32.999Z</time></trkpt><trkpt lat="33.83546473437435" lon="10.03112798158443"><ele>51.0</ele><time>2026-04-05T16:54:33.999Z</time></trkpt><trkpt lat="33.83518891542002" lon="10.031350261517423"><ele>51.0</ele><time>2026-04-05T16:54:34.999Z</time></trkpt><trkpt lat="33.83490931039518" lon="10.031574309104045"><ele>51.5</ele><time>2026-04-05T16:54:35.999Z</time></trkpt><trkpt lat="33.83463248290181" lon="10.03179436178239"><ele>52.0</ele><time>2026-04-05T16:54:36.999Z</time></trkpt><trkpt lat="33.83435422226234" lon="10.032015724316794"><ele>53.0</ele><time>2026-04-05T16:54:37.999Z</time></trkpt><trkpt lat="33.83407770276742" lon="10.032237031686513"><ele>54.0</ele><time>2026-04-05T16:54:38.999Z</time></trkpt><trkpt lat="33.83380163395248" lon="10.032458671995071"><ele>54.5</ele><time>2026-04-05T16:54:39.999Z</time></trkpt><trkpt lat="33.83352482814163" lon="10.0326809063197"><ele>55.0</ele><time>2026-04-05T16:54:40.999Z</time></trkpt><trkpt lat="33.83324721048897" lon="10.03290259792866"><ele>55.0</ele><time>2026-04-05T16:54:41.999Z</time></trkpt><trkpt lat="33.83296756968817" lon="10.033125151570522"><ele>55.0</ele><time>2026-04-05T16:54:42.999Z</time></trkpt><trkpt lat="33.83268979643573" lon="10.033345484727851"><ele>55.5</ele><time>2026-04-05T16:54:43.999Z</time></trkpt><trkpt lat="33.832414159621635" lon="10.033566666942784"><ele>56.0</ele><time>2026-04-05T16:54:44.999Z</time></trkpt><trkpt lat="33.832135024291574" lon="10.033793225856277"><ele>56.0</ele><time>2026-04-05T16:54:45.999Z</time></trkpt><trkpt lat="33.83185907397739" lon="10.034017376885142"><ele>56.0</ele><time>2026-04-05T16:54:46.999Z</time></trkpt><trkpt lat="33.831580627406574" lon="10.03424289694556"><ele>59.0</ele><time>2026-04-05T16:54:47.999Z</time></trkpt><trkpt lat="33.831305014774614" lon="10.034467329690456"><ele>62.0</ele><time>2026-04-05T16:54:48.999Z</time></trkpt><trkpt lat="33.83102785777458" lon="10.034690573793723"><ele>62.0</ele><time>2026-04-05T16:54:49.999Z</time></trkpt><trkpt lat="33.830748284687516" lon="10.034911631552752"><ele>62.0</ele><time>2026-04-05T16:54:50.999Z</time></trkpt><trkpt lat="33.830470579422915" lon="10.03513092631189"><ele>62.0</ele><time>2026-04-05T16:54:51.999Z</time></trkpt><trkpt lat="33.83019226577741" lon="10.035353430113918"><ele>62.0</ele><time>2026-04-05T16:54:52.999Z</time></trkpt><trkpt lat="33.829911390651986" lon="10.03557418531881"><ele>62.0</ele><time>2026-04-05T16:54:53.999Z</time></trkpt><trkpt lat="33.82963191838683" lon="10.035791735300801"><ele>62.0</ele><time>2026-04-05T16:54:54.999Z</time></trkpt><trkpt lat="33.82935238358665" lon="10.036010031691175"><ele>62.0</ele><time>2026-04-05T16:54:55.999Z</time></trkpt><trkpt lat="33.82907290365578" lon="10.036232085684773"><ele>62.0</ele><time>2026-04-05T16:54:56.999Z</time></trkpt><trkpt lat="33.82879495607942" lon="10.036455088231454"><ele>63.5</ele><time>2026-04-05T16:54:57.999Z</time></trkpt><trkpt lat="33.82851897109213" lon="10.036678680456415"><ele>65.0</ele><time>2026-04-05T16:54:58.999Z</time></trkpt><trkpt lat="33.828240951308" lon="10.036905353142775"><ele>65.5</ele><time>2026-04-05T16:54:59.999Z</time></trkpt><trkpt lat="33.82796289874722" lon="10.037131122220927"><ele>66.0</ele><time>2026-04-05T16:55:00.999Z</time></trkpt><trkpt lat="33.82768584104019" lon="10.037357259388173"><ele>67.5</ele><time>2026-04-05T16:55:01.999Z</time></trkpt><trkpt lat="33.82740812613126" lon="10.037583053910144"><ele>69.0</ele><time>2026-04-05T16:55:02.999Z</time></trkpt><trkpt lat="33.82713094928473" lon="10.037807145489694"><ele>69.0</ele><time>2026-04-05T16:55:03.999Z</time></trkpt><trkpt lat="33.82685277467384" lon="10.038031766884716"><ele>69.0</ele><time>2026-04-05T16:55:04.999Z</time></trkpt><trkpt lat="33.82657487261626" lon="10.038256208926121"><ele>69.0</ele><time>2026-04-05T16:55:05.999Z</time></trkpt><trkpt lat="33.82629555508885" lon="10.038479932523744"><ele>69.0</ele><time>2026-04-05T16:55:06.999Z</time></trkpt><trkpt lat="33.826015058794816" lon="10.038703410524622"><ele>69.0</ele><time>2026-04-05T16:55:07.999Z</time></trkpt><trkpt lat="33.82573476902076" lon="10.038926961208475"><ele>69.0</ele><time>2026-04-05T16:55:08.999Z</time></trkpt><trkpt lat="33.82545603033477" lon="10.039150117627447"><ele>68.5</ele><time>2026-04-05T16:55:09.999Z</time></trkpt><trkpt lat="33.82517739703573" lon="10.039372855370075"><ele>68.0</ele><time>2026-04-05T16:55:10.999Z</time></trkpt><trkpt lat="33.8249009973682" lon="10.039593723439014"><ele>68.0</ele><time>2026-04-05T16:55:11.999Z</time></trkpt><trkpt lat="33.824622942956985" lon="10.039817585051408"><ele>68.0</ele><time>2026-04-05T16:55:12.999Z</time></trkpt><trkpt lat="33.82434740184235" lon="10.040043760129729"><ele>70.0</ele><time>2026-04-05T16:55:13.999Z</time></trkpt><trkpt lat="33.82407094145928" lon="10.040271127401681"><ele>72.0</ele><time>2026-04-05T16:55:14.999Z</time></trkpt><trkpt lat="33.823797298287914" lon="10.040492807156799"><ele>72.0</ele><time>2026-04-05T16:55:15.999Z</time></trkpt><trkpt lat="33.8235287340837" lon="10.040712310883384"><ele>72.0</ele><time>2026-04-05T16:55:16.999Z</time></trkpt><trkpt lat="33.823266219599354" lon="10.040924370857905"><ele>71.0</ele><time>2026-04-05T16:55:17.999Z</time></trkpt><trkpt lat="33.82300919663672" lon="10.0411298877665"><ele>70.0</ele><time>2026-04-05T16:55:18.999Z</time></trkpt><trkpt lat="33.822754290155835" lon="10.04133664017203"><ele>70.5</ele><time>2026-04-05T16:55:19.999Z</time></trkpt><trkpt lat="33.82250669048747" lon="10.041541395284552"><ele>71.0</ele><time>2026-04-05T16:55:20.999Z</time></trkpt><trkpt lat="33.82227362376744" lon="10.041732633635192"><ele>71.0</ele><time>2026-04-05T16:55:21.999Z</time></trkpt><trkpt lat="33.822046419039616" lon="10.04191103380906"><ele>71.0</ele><time>2026-04-05T16:55:22.999Z</time></trkpt><trkpt lat="33.821826389451225" lon="10.04208265866356"><ele>73.0</ele><time>2026-04-05T16:55:23.999Z</time></trkpt><trkpt lat="33.82160508765268" lon="10.042252219056511"><ele>75.0</ele><time>2026-04-05T16:55:24.999Z</time></trkpt><trkpt lat="33.82138235659668" lon="10.04242512608993"><ele>74.0</ele><time>2026-04-05T16:55:25.999Z</time></trkpt><trkpt lat="33.821157915214876" lon="10.042601482223812"><ele>73.0</ele><time>2026-04-05T16:55:26.999Z</time></trkpt><trkpt lat="33.820934589330214" lon="10.04277538546042"><ele>76.0</ele><time>2026-04-05T16:55:27.999Z</time></trkpt><trkpt lat="33.82070475630652" lon="10.042954282366367"><ele>79.0</ele><time>2026-04-05T16:55:28.999Z</time></trkpt><trkpt lat="33.82047422174048" lon="10.04313779593277"><ele>76.0</ele><time>2026-04-05T16:55:29.999Z</time></trkpt><trkpt lat="33.820244538551115" lon="10.043323211791407"><ele>73.0</ele><time>2026-04-05T16:55:30.999Z</time></trkpt><trkpt lat="33.82001548163873" lon="10.043508991669414"><ele>72.0</ele><time>2026-04-05T16:55:31.999Z</time></trkpt><trkpt lat="33.819786150615094" lon="10.043694375857052"><ele>71.0</ele><time>2026-04-05T16:55:32.999Z</time></trkpt><trkpt lat="33.81955773214683" lon="10.04387840752655"><ele>71.0</ele><time>2026-04-05T16:55:33.999Z</time></trkpt><trkpt lat="33.81932828150704" lon="10.044060119870801"><ele>71.0</ele><time>2026-04-05T16:55:34.999Z</time></trkpt><trkpt lat="33.819098665549184" lon="10.04424178768392"><ele>72.5</ele><time>2026-04-05T16:55:35.999Z</time></trkpt><trkpt lat="33.81887128961332" lon="10.044423247000617"><ele>74.0</ele><time>2026-04-05T16:55:36.999Z</time></trkpt><trkpt lat="33.81864265579827" lon="10.044608569712965"><ele>75.0</ele><time>2026-04-05T16:55:37.999Z</time></trkpt><trkpt lat="33.818412291660565" lon="10.044793942095735"><ele>76.0</ele><time>2026-04-05T16:55:38.999Z</time></trkpt><trkpt lat="33.81818495777547" lon="10.044978040235417"><ele>76.5</ele><time>2026-04-05T16:55:39.999Z</time></trkpt><trkpt lat="33.817953034425436" lon="10.04516239080385"><ele>77.0</ele><time>2026-04-05T16:55:41Z</time></trkpt><trkpt lat="33.81772147575374" lon="10.045345184198004"><ele>76.5</ele><time>2026-04-05T16:55:42Z</time></trkpt><trkpt lat="33.8174902991644" lon="10.045526322866511"><ele>76.0</ele><time>2026-04-05T16:55:43Z</time></trkpt><trkpt lat="33.81725851076253" lon="10.045707809325947"><ele>76.0</ele><time>2026-04-05T16:55:44Z</time></trkpt><trkpt lat="33.81702608078434" lon="10.045892452843718"><ele>76.0</ele><time>2026-04-05T16:55:45Z</time></trkpt><trkpt lat="33.8167954005012" lon="10.046075156498219"><ele>75.5</ele><time>2026-04-05T16:55:46Z</time></trkpt><trkpt lat="33.8165652972365" lon="10.046260824097155"><ele>75.0</ele><time>2026-04-05T16:55:47Z</time></trkpt><trkpt lat="33.81633777383455" lon="10.046446196082185"><ele>75.0</ele><time>2026-04-05T16:55:48Z</time></trkpt><trkpt lat="33.81610745069613" lon="10.046630394063111"><ele>75.0</ele><time>2026-04-05T16:55:49Z</time></trkpt><trkpt lat="33.81587893185766" lon="10.046811680368185"><ele>74.0</ele><time>2026-04-05T16:55:50Z</time></trkpt><trkpt lat="33.81565715151795" lon="10.046989897774393"><ele>73.0</ele><time>2026-04-05T16:55:51Z</time></trkpt><trkpt lat="33.815440092077004" lon="10.047161652980947"><ele>73.0</ele><time>2026-04-05T16:55:52Z</time></trkpt><trkpt lat="33.81522687374138" lon="10.047330744849571"><ele>73.0</ele><time>2026-04-05T16:55:53Z</time></trkpt><trkpt lat="33.81502047006803" lon="10.047491274943908"><ele>72.0</ele><time>2026-04-05T16:55:54Z</time></trkpt><trkpt lat="33.814816629648604" lon="10.047651802755217"><ele>71.0</ele><time>2026-04-05T16:55:55Z</time></trkpt><trkpt lat="33.81461377908827" lon="10.0478132852325"><ele>71.0</ele><time>2026-04-05T16:55:56Z</time></trkpt><trkpt lat="33.81441379065552" lon="10.047977681519603"><ele>71.0</ele><time>2026-04-05T16:55:57Z</time></trkpt><trkpt lat="33.81421112201928" lon="10.048142820176079"><ele>71.0</ele><time>2026-04-05T16:55:58Z</time></trkpt><trkpt lat="33.81400794680362" lon="10.048303400223505"><ele>71.0</ele><time>2026-04-05T16:55:59Z</time></trkpt><trkpt lat="33.8138014920919" lon="10.048465890759804"><ele>71.0</ele><time>2026-04-05T16:56:00Z</time></trkpt><trkpt lat="33.813595961785985" lon="10.048622832419444"><ele>71.0</ele><time>2026-04-05T16:56:01Z</time></trkpt><trkpt lat="33.81338888502372" lon="10.048784975004937"><ele>70.5</ele><time>2026-04-05T16:56:02Z</time></trkpt><trkpt lat="33.81318462318027" lon="10.04894795385185"><ele>70.0</ele><time>2026-04-05T16:56:03Z</time></trkpt><trkpt lat="33.81297977599155" lon="10.049115903433712"><ele>70.5</ele><time>2026-04-05T16:56:04Z</time></trkpt><trkpt lat="33.812779350202426" lon="10.04927774188442"><ele>71.0</ele><time>2026-04-05T16:56:05Z</time></trkpt><trkpt lat="33.81257263574601" lon="10.04944287905078"><ele>71.0</ele><time>2026-04-05T16:56:06Z</time></trkpt><trkpt lat="33.81236927851894" lon="10.049606868159136"><ele>71.0</ele><time>2026-04-05T16:56:07Z</time></trkpt><trkpt lat="33.81216325385643" lon="10.049768272346455"><ele>71.0</ele><time>2026-04-05T16:56:08Z</time></trkpt><trkpt lat="33.81195819005061" lon="10.04992893506489"><ele>71.0</ele><time>2026-04-05T16:56:09Z</time></trkpt><trkpt lat="33.81175207908003" lon="10.050091977329405"><ele>69.5</ele><time>2026-04-05T16:56:10Z</time></trkpt><trkpt lat="33.81156014567198" lon="10.050248276469553"><ele>68.0</ele><time>2026-04-05T16:56:11Z</time></trkpt><trkpt lat="33.81137997073881" lon="10.05039760930363"><ele>68.0</ele><time>2026-04-05T16:56:12Z</time></trkpt><trkpt lat="33.811199929427964" lon="10.050546205903414"><ele>68.0</ele><time>2026-04-05T16:56:13Z</time></trkpt><trkpt lat="33.81101386586918" lon="10.05069910402142"><ele>68.0</ele><time>2026-04-05T16:56:14Z</time></trkpt><trkpt lat="33.81082213062953" lon="10.050849608141746"><ele>68.5</ele><time>2026-04-05T16:56:15Z</time></trkpt><trkpt lat="33.81062664146103" lon="10.051003473257826"><ele>69.0</ele><time>2026-04-05T16:56:16Z</time></trkpt><trkpt lat="33.81043307246816" lon="10.051157926765535"><ele>69.0</ele><time>2026-04-05T16:56:17Z</time></trkpt><trkpt lat="33.81023974788125" lon="10.051312747945476"><ele>69.0</ele><time>2026-04-05T16:56:18Z</time></trkpt><trkpt lat="33.81004828853978" lon="10.051467477513237"><ele>69.0</ele><time>2026-04-05T16:56:19Z</time></trkpt><trkpt lat="33.80986655093038" lon="10.051612607312508"><ele>69.0</ele><time>2026-04-05T16:56:20Z</time></trkpt><trkpt lat="33.80969250357638" lon="10.051751405761113"><ele>69.0</ele><time>2026-04-05T16:56:21Z</time></trkpt><trkpt lat="33.80952080717064" lon="10.051888275297383"><ele>69.0</ele><time>2026-04-05T16:56:22Z</time></trkpt><trkpt lat="33.809352210575085" lon="10.05202248900241"><ele>69.0</ele><time>2026-04-05T16:56:23Z</time></trkpt><trkpt lat="33.809180713841016" lon="10.052161424490121"><ele>69.0</ele><time>2026-04-05T16:56:24Z</time></trkpt><trkpt lat="33.8090043276621" lon="10.052301916126183"><ele>69.0</ele><time>2026-04-05T16:56:25Z</time></trkpt><trkpt lat="33.808827545566096" lon="10.05244304358738"><ele>69.0</ele><time>2026-04-05T16:56:26Z</time></trkpt><trkpt lat="33.8086499058648" lon="10.052588598886546"><ele>69.0</ele><time>2026-04-05T16:56:27Z</time></trkpt><trkpt lat="33.808471122187036" lon="10.052733045566155"><ele>67.0</ele><time>2026-04-05T16:56:28Z</time></trkpt><trkpt lat="33.808284028724835" lon="10.052881109041886"><ele>65.0</ele><time>2026-04-05T16:56:29Z</time></trkpt><trkpt lat="33.808093453751646" lon="10.053035592006326"><ele>65.0</ele><time>2026-04-05T16:56:30Z</time></trkpt><trkpt lat="33.80789654516069" lon="10.053192003502298"><ele>65.0</ele><time>2026-04-05T16:56:31Z</time></trkpt><trkpt lat="33.80769688634434" lon="10.05334996482329"><ele>64.0</ele><time>2026-04-05T16:56:32Z</time></trkpt><trkpt lat="33.80749390838349" lon="10.053512103294818"><ele>63.0</ele><time>2026-04-05T16:56:33Z</time></trkpt><trkpt lat="33.80728718437636" lon="10.053674419043148"><ele>63.0</ele><time>2026-04-05T16:56:34Z</time></trkpt><trkpt lat="33.80707617626863" lon="10.053841970414759"><ele>63.0</ele><time>2026-04-05T16:56:35Z</time></trkpt><trkpt lat="33.8068620073225" lon="10.054017931634815"><ele>61.5</ele><time>2026-04-05T16:56:36Z</time></trkpt><trkpt lat="33.80664061125282" lon="10.054201012162805"><ele>60.0</ele><time>2026-04-05T16:56:37Z</time></trkpt><trkpt lat="33.80641321970449" lon="10.054376596841864"><ele>60.0</ele><time>2026-04-05T16:56:38Z</time></trkpt><trkpt lat="33.80618301981223" lon="10.054551847719106"><ele>60.0</ele><time>2026-04-05T16:56:39Z</time></trkpt><trkpt lat="33.80595877073712" lon="10.054742352649942"><ele>60.0</ele><time>2026-04-05T16:56:40Z</time></trkpt><trkpt lat="33.80573642837693" lon="10.05493733284993"><ele>60.0</ele><time>2026-04-05T16:56:41Z</time></trkpt><trkpt lat="33.80550520437458" lon="10.055118613830553"><ele>60.0</ele><time>2026-04-05T16:56:42Z</time></trkpt><trkpt lat="33.805267878671685" lon="10.055296014367096"><ele>60.0</ele><time>2026-04-05T16:56:43Z</time></trkpt><trkpt lat="33.80503608817787" lon="10.055479511957811"><ele>60.0</ele><time>2026-04-05T16:56:44Z</time></trkpt><trkpt lat="33.80480574087291" lon="10.055667606671276"><ele>60.0</ele><time>2026-04-05T16:56:45Z</time></trkpt><trkpt lat="33.80458481345523" lon="10.055850038224515"><ele>60.0</ele><time>2026-04-05T16:56:46Z</time></trkpt><trkpt lat="33.80437958862263" lon="10.056026235014233"><ele>60.0</ele><time>2026-04-05T16:56:47Z</time></trkpt><trkpt lat="33.80418506814871" lon="10.056200183050892"><ele>59.33333333333333</ele><time>2026-04-05T16:56:48Z</time></trkpt><trkpt lat="33.8040055891206" lon="10.056362054023074"><ele>58.666666666666664</ele><time>2026-04-05T16:56:49Z</time></trkpt><trkpt lat="33.80384265704632" lon="10.05651296054689"><ele>58.0</ele><time>2026-04-05T16:56:50Z</time></trkpt><trkpt lat="33.803691449053" lon="10.056654346093476"><ele>57.666666666666664</ele><time>2026-04-05T16:56:51Z</time></trkpt><trkpt lat="33.803548095531845" lon="10.056785634993444"><ele>57.33333333333333</ele><time>2026-04-05T16:56:52Z</time></trkpt><trkpt lat="33.803411668684596" lon="10.056913670706649"><ele>57.0</ele><time>2026-04-05T16:56:53Z</time></trkpt><trkpt lat="33.803281053628154" lon="10.05703764886792"><ele>57.0</ele><time>2026-04-05T16:56:54Z</time></trkpt><trkpt lat="33.803156978315464" lon="10.05715738976052"><ele>57.0</ele><time>2026-04-05T16:56:55Z</time></trkpt><trkpt lat="33.80304264727354" lon="10.057270518373505"><ele>57.0</ele><time>2026-04-05T16:56:56Z</time></trkpt><trkpt lat="33.802931215968975" lon="10.05737928399397"><ele>56.75</ele><time>2026-04-05T16:56:57Z</time></trkpt><trkpt lat="33.80282081869984" lon="10.057488192783378"><ele>56.5</ele><time>2026-04-05T16:56:58Z</time></trkpt><trkpt lat="33.80271302042634" lon="10.057596377645496"><ele>56.25</ele><time>2026-04-05T16:56:59Z</time></trkpt><trkpt lat="33.80260642265268" lon="10.057698190747878"><ele>56.0</ele><time>2026-04-05T16:57:00Z</time></trkpt><trkpt lat="33.80249965519413" lon="10.057803392304336"><ele>57.5</ele><time>2026-04-05T16:57:01Z</time></trkpt><trkpt lat="33.80239622752805" lon="10.057906787218503"><ele>59.0</ele><time>2026-04-05T16:57:02Z</time></trkpt><trkpt lat="33.80229157785533" lon="10.058010853952702"><ele>60.5</ele><time>2026-04-05T16:57:03Z</time></trkpt><trkpt lat="33.80219121363429" lon="10.058109903595485"><ele>62.0</ele><time>2026-04-05T16:57:04Z</time></trkpt><trkpt lat="33.802089928298685" lon="10.058209643775088"><ele>62.0</ele><time>2026-04-05T16:57:05Z</time></trkpt><trkpt lat="33.801989275006854" lon="10.058303559033567"><ele>62.0</ele><time>2026-04-05T16:57:06Z</time></trkpt><trkpt lat="33.80188755052847" lon="10.058392497365672"><ele>62.0</ele><time>2026-04-05T16:57:07Z</time></trkpt><trkpt lat="33.8017870750032" lon="10.058472649862432"><ele>62.0</ele><time>2026-04-05T16:57:08Z</time></trkpt><trkpt lat="33.80168404419223" lon="10.058543333584792"><ele>63.25</ele><time>2026-04-05T16:57:09Z</time></trkpt><trkpt lat="33.80157650905592" lon="10.058600264010524"><ele>64.5</ele><time>2026-04-05T16:57:10Z</time></trkpt><trkpt lat="33.801462626202934" lon="10.058641757766301"><ele>65.75</ele><time>2026-04-05T16:57:11Z</time></trkpt><trkpt lat="33.80134150250045" lon="10.058668727504807"><ele>67.0</ele><time>2026-04-05T16:57:12Z</time></trkpt><trkpt lat="33.80121466971512" lon="10.05868057440359"><ele>67.0</ele><time>2026-04-05T16:57:13Z</time></trkpt><trkpt lat="33.80108566069977" lon="10.058679458943224"><ele>67.0</ele><time>2026-04-05T16:57:14Z</time></trkpt><trkpt lat="33.80095565093751" lon="10.058661304130991"><ele>67.0</ele><time>2026-04-05T16:57:15Z</time></trkpt><trkpt lat="33.80083718214845" lon="10.058635091096063"><ele>67.0</ele><time>2026-04-05T16:57:16Z</time></trkpt><trkpt lat="33.8007275344967" lon="10.058611606476983"><ele>66.5</ele><time>2026-04-05T16:57:17Z</time></trkpt><trkpt lat="33.800615326139514" lon="10.058598334620811"><ele>66.0</ele><time>2026-04-05T16:57:18Z</time></trkpt><trkpt lat="33.800503770962585" lon="10.058598748663425"><ele>65.5</ele><time>2026-04-05T16:57:19Z</time></trkpt><trkpt lat="33.80039097906533" lon="10.05861493967359"><ele>65.0</ele><time>2026-04-05T16:57:20Z</time></trkpt><trkpt lat="33.8002812946557" lon="10.058654743311834"><ele>65.0</ele><time>2026-04-05T16:57:21Z</time></trkpt><trkpt lat="33.80017687372367" lon="10.058708082578084"><ele>65.0</ele><time>2026-04-05T16:57:22Z</time></trkpt><trkpt lat="33.800086845269334" lon="10.058778629912924"><ele>65.0</ele><time>2026-04-05T16:57:23Z</time></trkpt><trkpt lat="33.80000895066016" lon="10.058860392109056"><ele>65.0</ele><time>2026-04-05T16:57:24Z</time></trkpt><trkpt lat="33.79994681389157" lon="10.058951995903453"><ele>65.0</ele><time>2026-04-05T16:57:25Z</time></trkpt><trkpt lat="33.799896911706746" lon="10.059042869410604"><ele>65.0</ele><time>2026-04-05T16:57:26Z</time></trkpt><trkpt lat="33.79985983340984" lon="10.059137195573955"><ele>65.0</ele><time>2026-04-05T16:57:27Z</time></trkpt><trkpt lat="33.799831897787925" lon="10.059237446533698"><ele>65.0</ele><time>2026-04-05T16:57:28Z</time></trkpt><trkpt lat="33.799814000892404" lon="10.05934221004472"><ele>65.0</ele><time>2026-04-05T16:57:29Z</time></trkpt><trkpt lat="33.79980683713574" lon="10.059449070918525"><ele>65.0</ele><time>2026-04-05T16:57:30Z</time></trkpt><trkpt lat="33.79980856475226" lon="10.059555348906255"><ele>65.0</ele><time>2026-04-05T16:57:31Z</time></trkpt><trkpt lat="33.799820873697804" lon="10.059660916179402"><ele>65.0</ele><time>2026-04-05T16:57:32Z</time></trkpt><trkpt lat="33.799845097299155" lon="10.059766825166564"><ele>65.0</ele><time>2026-04-05T16:57:33Z</time></trkpt><trkpt lat="33.799877149788735" lon="10.05987216595637"><ele>65.0</ele><time>2026-04-05T16:57:34Z</time></trkpt><trkpt lat="33.799913853754006" lon="10.059975194696095"><ele>65.0</ele><time>2026-04-05T16:57:35Z</time></trkpt><trkpt lat="33.7999584320476" lon="10.060072932144752"><ele>65.0</ele><time>2026-04-05T16:57:36Z</time></trkpt><trkpt lat="33.80000810002422" lon="10.060161737936687"><ele>65.0</ele><time>2026-04-05T16:57:37Z</time></trkpt><trkpt lat="33.80005272680052" lon="10.060247819149122"><ele>65.0</ele><time>2026-04-05T16:57:38Z</time></trkpt><trkpt lat="33.800097348582796" lon="10.060341147257343"><ele>65.0</ele><time>2026-04-05T16:57:39Z</time></trkpt><trkpt lat="33.800141122964185" lon="10.060436001242186"><ele>65.0</ele><time>2026-04-05T16:57:40Z</time></trkpt><trkpt lat="33.80018529086341" lon="10.060526046434452"><ele>65.0</ele><time>2026-04-05T16:57:41Z</time></trkpt><trkpt lat="33.800227172314166" lon="10.060611818198698"><ele>65.0</ele><time>2026-04-05T16:57:42Z</time></trkpt><trkpt lat="33.80026422549061" lon="10.060690352577046"><ele>65.0</ele><time>2026-04-05T16:57:43Z</time></trkpt><trkpt lat="33.80029732376591" lon="10.060768374311108"><ele>65.0</ele><time>2026-04-05T16:57:44Z</time></trkpt><trkpt lat="33.80033208523048" lon="10.06084622863364"><ele>65.0</ele><time>2026-04-05T16:57:45Z</time></trkpt><trkpt lat="33.80036683117148" lon="10.060921883069069"><ele>65.0</ele><time>2026-04-05T16:57:46Z</time></trkpt><trkpt lat="33.80040468845596" lon="10.060998622201765"><ele>65.0</ele><time>2026-04-05T16:57:47Z</time></trkpt><trkpt lat="33.800443571116624" lon="10.06107673381641"><ele>65.0</ele><time>2026-04-05T16:57:48Z</time></trkpt><trkpt lat="33.80048530276544" lon="10.061165660360274"><ele>64.8</ele><time>2026-04-05T16:57:49Z</time></trkpt><trkpt lat="33.80052967544004" lon="10.061260609873598"><ele>64.6</ele><time>2026-04-05T16:57:50Z</time></trkpt><trkpt lat="33.80057556358297" lon="10.061361683469432"><ele>64.4</ele><time>2026-04-05T16:57:51Z</time></trkpt><trkpt lat="33.80062641326925" lon="10.061464670553084"><ele>64.2</ele><time>2026-04-05T16:57:52Z</time></trkpt><trkpt lat="33.80068168974148" lon="10.061574599109793"><ele>64.0</ele><time>2026-04-05T16:57:53Z</time></trkpt><trkpt lat="33.800737819557526" lon="10.061691108373553"><ele>63.6</ele><time>2026-04-05T16:57:54Z</time></trkpt><trkpt lat="33.800791538299485" lon="10.061808646932676"><ele>63.2</ele><time>2026-04-05T16:57:55Z</time></trkpt><trkpt lat="33.800842216607734" lon="10.061922774687371"><ele>62.800000000000004</ele><time>2026-04-05T16:57:56Z</time></trkpt><trkpt lat="33.80089488707704" lon="10.062035253397484"><ele>62.400000000000006</ele><time>2026-04-05T16:57:57Z</time></trkpt><trkpt lat="33.80094773902752" lon="10.06214404721732"><ele>62.0</ele><time>2026-04-05T16:57:58Z</time></trkpt><trkpt lat="33.8010021707883" lon="10.062254118293897"><ele>62.0</ele><time>2026-04-05T16:57:59Z</time></trkpt><trkpt lat="33.80105780637887" lon="10.062369674717715"><ele>62.0</ele><time>2026-04-05T16:58:00Z</time></trkpt><trkpt lat="33.801111967348234" lon="10.062489582857225"><ele>62.0</ele><time>2026-04-05T16:58:01Z</time></trkpt><trkpt lat="33.80116208377439" lon="10.062611657213235"><ele>62.0</ele><time>2026-04-05T16:58:02Z</time></trkpt><trkpt lat="33.80120796776639" lon="10.06273072483476"><ele>62.0</ele><time>2026-04-05T16:58:03Z</time></trkpt><trkpt lat="33.801253352719804" lon="10.062846120726464"><ele>61.6</ele><time>2026-04-05T16:58:04Z</time></trkpt><trkpt lat="33.801298973339016" lon="10.062963468973209"><ele>61.2</ele><time>2026-04-05T16:58:05Z</time></trkpt><trkpt lat="33.80134123887091" lon="10.063081018999041"><ele>60.8</ele><time>2026-04-05T16:58:06Z</time></trkpt><trkpt lat="33.80138351270558" lon="10.063200701250253"><ele>60.4</ele><time>2026-04-05T16:58:07Z</time></trkpt><trkpt lat="33.80142505227428" lon="10.063317253454219"><ele>60.0</ele><time>2026-04-05T16:58:08Z</time></trkpt><trkpt lat="33.801467209630566" lon="10.063431490382595"><ele>60.0</ele><time>2026-04-05T16:58:09Z</time></trkpt><trkpt lat="33.80150853925395" lon="10.063539879781684"><ele>60.0</ele><time>2026-04-05T16:58:10Z</time></trkpt><trkpt lat="33.80154833586989" lon="10.063639276246125"><ele>60.0</ele><time>2026-04-05T16:58:11Z</time></trkpt><trkpt lat="33.80158667338771" lon="10.063726660390103"><ele>60.0</ele><time>2026-04-05T16:58:12Z</time></trkpt><trkpt lat="33.801621797139134" lon="10.063810532801227"><ele>60.0</ele><time>2026-04-05T16:58:13Z</time></trkpt><trkpt lat="33.80165599539611" lon="10.063894046050539"><ele>60.0</ele><time>2026-04-05T16:58:14Z</time></trkpt><trkpt lat="33.801693227011064" lon="10.063976724664403"><ele>60.0</ele><time>2026-04-05T16:58:15Z</time></trkpt><trkpt lat="33.80173380407374" lon="10.064058987267979"><ele>60.0</ele><time>2026-04-05T16:58:16Z</time></trkpt><trkpt lat="33.801774679611576" lon="10.064142357097397"><ele>60.0</ele><time>2026-04-05T16:58:17Z</time></trkpt><trkpt lat="33.801814807026815" lon="10.06421967119558"><ele>60.0</ele><time>2026-04-05T16:58:18Z</time></trkpt><trkpt lat="33.80185809657438" lon="10.064306867831416"><ele>60.0</ele><time>2026-04-05T16:58:19Z</time></trkpt><trkpt lat="33.80190230744648" lon="10.064399313421346"><ele>60.0</ele><time>2026-04-05T16:58:20Z</time></trkpt><trkpt lat="33.80195160944883" lon="10.064496974958466"><ele>59.4</ele><time>2026-04-05T16:58:21Z</time></trkpt><trkpt lat="33.802004992389335" lon="10.064599688625124"><ele>58.8</ele><time>2026-04-05T16:58:22Z</time></trkpt><trkpt lat="33.80206025429472" lon="10.064703305394763"><ele>58.2</ele><time>2026-04-05T16:58:23Z</time></trkpt><trkpt lat="33.80211815328568" lon="10.06480860811492"><ele>57.6</ele><time>2026-04-05T16:58:24Z</time></trkpt><trkpt lat="33.802177028239846" lon="10.064915679585448"><ele>57.0</ele><time>2026-04-05T16:58:25Z</time></trkpt><trkpt lat="33.80223727007594" lon="10.065030503407845"><ele>56.5</ele><time>2026-04-05T16:58:26Z</time></trkpt><trkpt lat="33.80230129427491" lon="10.065155674446267"><ele>56.0</ele><time>2026-04-05T16:58:27Z</time></trkpt><trkpt lat="33.802367640308475" lon="10.065288291056964"><ele>55.5</ele><time>2026-04-05T16:58:28Z</time></trkpt><trkpt lat="33.802436551570516" lon="10.065424433053163"><ele>55.0</ele><time>2026-04-05T16:58:29Z</time></trkpt><trkpt lat="33.80250427223855" lon="10.065570712084305"><ele>55.0</ele><time>2026-04-05T16:58:30Z</time></trkpt><trkpt lat="33.802567498340494" lon="10.065720252858277"><ele>55.0</ele><time>2026-04-05T16:58:31Z</time></trkpt><trkpt lat="33.802628273981334" lon="10.06587778864264"><ele>55.0</ele><time>2026-04-05T16:58:32Z</time></trkpt><trkpt lat="33.80268601489139" lon="10.066043024833041"><ele>55.0</ele><time>2026-04-05T16:58:33Z</time></trkpt><trkpt lat="33.80275028373642" lon="10.066213826660597"><ele>54.5</ele><time>2026-04-05T16:58:34Z</time></trkpt><trkpt lat="33.80280949277965" lon="10.06637752970503"><ele>54.0</ele><time>2026-04-05T16:58:35Z</time></trkpt><trkpt lat="33.80285694989844" lon="10.066534258569476"><ele>53.5</ele><time>2026-04-05T16:58:36Z</time></trkpt><trkpt lat="33.80289403569797" lon="10.066689716172505"><ele>53.0</ele><time>2026-04-05T16:58:37Z</time></trkpt><trkpt lat="33.80291930182289" lon="10.066841609263669"><ele>53.0</ele><time>2026-04-05T16:58:38Z</time></trkpt><trkpt lat="33.80293585646573" lon="10.066987708426778"><ele>53.0</ele><time>2026-04-05T16:58:39Z</time></trkpt><trkpt lat="33.80294691880137" lon="10.067121494917398"><ele>53.0</ele><time>2026-04-05T16:58:40Z</time></trkpt><trkpt lat="33.80295375506333" lon="10.067247694137297"><ele>53.0</ele><time>2026-04-05T16:58:41Z</time></trkpt><trkpt lat="33.80295335937155" lon="10.067363041995515"><ele>53.0</ele><time>2026-04-05T16:58:42Z</time></trkpt><trkpt lat="33.802939709416435" lon="10.067458474379649"><ele>52.8</ele><time>2026-04-05T16:58:43Z</time></trkpt><trkpt lat="33.80291084220961" lon="10.067535933247987"><ele>52.599999999999994</ele><time>2026-04-05T16:58:44Z</time></trkpt><trkpt lat="33.802815910722565" lon="10.067631784637458"><ele>52.400000000000006</ele><time>2026-04-05T16:58:46Z</time></trkpt><trkpt lat="33.802742389690735" lon="10.067656904154147"><ele>52.2</ele><time>2026-04-05T16:58:47Z</time></trkpt><trkpt lat="33.80265485265047" lon="10.067663522628456"><ele>52.0</ele><time>2026-04-05T16:58:48Z</time></trkpt><trkpt lat="33.8025533606443" lon="10.067645441638854"><ele>52.0</ele><time>2026-04-05T16:58:49Z</time></trkpt><trkpt lat="33.802453934245214" lon="10.067603189810258"><ele>52.0</ele><time>2026-04-05T16:58:50Z</time></trkpt><trkpt lat="33.80235480208619" lon="10.06754602268325"><ele>52.0</ele><time>2026-04-05T16:58:51Z</time></trkpt><trkpt lat="33.802242443861" lon="10.0674939672228"><ele>52.0</ele><time>2026-04-05T16:58:52Z</time></trkpt><trkpt lat="33.802125741329576" lon="10.067450832893105"><ele>51.6</ele><time>2026-04-05T16:58:53Z</time></trkpt><trkpt lat="33.80201768737171" lon="10.067412695434502"><ele>51.2</ele><time>2026-04-05T16:58:54Z</time></trkpt><trkpt lat="33.80191939405152" lon="10.067373448439415"><ele>50.8</ele><time>2026-04-05T16:58:55Z</time></trkpt><trkpt lat="33.80182065080118" lon="10.067330904406617"><ele>50.4</ele><time>2026-04-05T16:58:56Z</time></trkpt><trkpt lat="33.8017270038569" lon="10.067291489789241"><ele>50.0</ele><time>2026-04-05T16:58:57Z</time></trkpt><trkpt lat="33.801638785446094" lon="10.067254618110917"><ele>50.8</ele><time>2026-04-05T16:58:58Z</time></trkpt><trkpt lat="33.801548718420314" lon="10.067208196282081"><ele>51.6</ele><time>2026-04-05T16:58:59Z</time></trkpt><trkpt lat="33.801457847633905" lon="10.067158587717408"><ele>52.400000000000006</ele><time>2026-04-05T16:59:00Z</time></trkpt><trkpt lat="33.80135851600768" lon="10.067108990792885"><ele>53.2</ele><time>2026-04-05T16:59:01Z</time></trkpt><trkpt lat="33.80125591326144" lon="10.067060069246008"><ele>54.0</ele><time>2026-04-05T16:59:02Z</time></trkpt><trkpt lat="33.80115185963013" lon="10.067012108692403"><ele>54.0</ele><time>2026-04-05T16:59:03Z</time></trkpt><trkpt lat="33.80104766491882" lon="10.066965725985389"><ele>54.0</ele><time>2026-04-05T16:59:04Z</time></trkpt><trkpt lat="33.800939226115595" lon="10.066915949614037"><ele>54.0</ele><time>2026-04-05T16:59:05Z</time></trkpt><trkpt lat="33.80082621326741" lon="10.066857788102183"><ele>54.0</ele><time>2026-04-05T16:59:06Z</time></trkpt><trkpt lat="33.80071667350233" lon="10.066792137133948"><ele>53.75</ele><time>2026-04-05T16:59:07Z</time></trkpt><trkpt lat="33.80061293174193" lon="10.06672586384279"><ele>53.5</ele><time>2026-04-05T16:59:08Z</time></trkpt><trkpt lat="33.80051040681534" lon="10.06665861605611"><ele>53.25</ele><time>2026-04-05T16:59:09Z</time></trkpt><trkpt lat="33.800405910720535" lon="10.066589969463266"><ele>53.0</ele><time>2026-04-05T16:59:10Z</time></trkpt><trkpt lat="33.8002963591033" lon="10.066522951881957"><ele>53.5</ele><time>2026-04-05T16:59:11Z</time></trkpt><trkpt lat="33.80017872209454" lon="10.066452515977161"><ele>54.0</ele><time>2026-04-05T16:59:12Z</time></trkpt><trkpt lat="33.8000587212153" lon="10.066378665478263"><ele>54.5</ele><time>2026-04-05T16:59:13Z</time></trkpt><trkpt lat="33.7999389154969" lon="10.066299803568707"><ele>55.0</ele><time>2026-04-05T16:59:14Z</time></trkpt><trkpt lat="33.799815266999154" lon="10.066217400072274"><ele>55.0</ele><time>2026-04-05T16:59:15Z</time></trkpt><trkpt lat="33.79968634952458" lon="10.06612916041685"><ele>55.0</ele><time>2026-04-05T16:59:16Z</time></trkpt><trkpt lat="33.799552030285774" lon="10.066037241501371"><ele>55.0</ele><time>2026-04-05T16:59:17Z</time></trkpt><trkpt lat="33.79941873452024" lon="10.06595182239171"><ele>55.0</ele><time>2026-04-05T16:59:18Z</time></trkpt><trkpt lat="33.79929435828442" lon="10.065875742607181"><ele>55.0</ele><time>2026-04-05T16:59:19Z</time></trkpt><trkpt lat="33.799185029560896" lon="10.065805404995995"><ele>55.0</ele><time>2026-04-05T16:59:20Z</time></trkpt><trkpt lat="33.799074515757965" lon="10.06573143265638"><ele>55.0</ele><time>2026-04-05T16:59:21Z</time></trkpt><trkpt lat="33.798956532844784" lon="10.065652581504038"><ele>55.0</ele><time>2026-04-05T16:59:22Z</time></trkpt><trkpt lat="33.79883477355918" lon="10.06557060453651"><ele>55.0</ele><time>2026-04-05T16:59:23Z</time></trkpt><trkpt lat="33.798708625924235" lon="10.065486697755896"><ele>55.0</ele><time>2026-04-05T16:59:24Z</time></trkpt><trkpt lat="33.7985732031416" lon="10.065396370841944"><ele>55.0</ele><time>2026-04-05T16:59:25Z</time></trkpt><trkpt lat="33.79842803411078" lon="10.065299424636585"><ele>55.0</ele><time>2026-04-05T16:59:26Z</time></trkpt><trkpt lat="33.798266904771936" lon="10.065191120685487"><ele>55.0</ele><time>2026-04-05T16:59:27Z</time></trkpt><trkpt lat="33.79809655708898" lon="10.06507653694414"><ele>55.0</ele><time>2026-04-05T16:59:28Z</time></trkpt><trkpt lat="33.79793483081239" lon="10.064970789913817"><ele>55.0</ele><time>2026-04-05T16:59:29Z</time></trkpt><trkpt lat="33.79779037581594" lon="10.064877230273504"><ele>55.0</ele><time>2026-04-05T16:59:30Z</time></trkpt><trkpt lat="33.79765697070231" lon="10.064791097950275"><ele>55.0</ele><time>2026-04-05T16:59:31Z</time></trkpt><trkpt lat="33.79752920415213" lon="10.06470626521467"><ele>55.0</ele><time>2026-04-05T16:59:32Z</time></trkpt><trkpt lat="33.79740680752769" lon="10.064622290284426"><ele>55.0</ele><time>2026-04-05T16:59:33Z</time></trkpt><trkpt lat="33.79728252961042" lon="10.06453733908124"><ele>55.0</ele><time>2026-04-05T16:59:34Z</time></trkpt><trkpt lat="33.797156578319985" lon="10.06445366311928"><ele>55.0</ele><time>2026-04-05T16:59:35Z</time></trkpt><trkpt lat="33.797025267480805" lon="10.064365781507549"><ele>59.0</ele><time>2026-04-05T16:59:36Z</time></trkpt><trkpt lat="33.796307200494" lon="10.06389005559026"><ele>59.0</ele><time>2026-04-05T16:59:41Z</time></trkpt><trkpt lat="33.796151395948044" lon="10.063787816003904"><ele>59.0</ele><time>2026-04-05T16:59:42Z</time></trkpt><trkpt lat="33.79598914164182" lon="10.063679931990032"><ele>59.0</ele><time>2026-04-05T16:59:43Z</time></trkpt><trkpt lat="33.795832993845224" lon="10.063571829528817"><ele>59.333333333333336</ele><time>2026-04-05T16:59:44Z</time></trkpt><trkpt lat="33.79568536021552" lon="10.063470046444657"><ele>59.66666666666667</ele><time>2026-04-05T16:59:45Z</time></trkpt><trkpt lat="33.795547322579196" lon="10.063380068556397"><ele>60.0</ele><time>2026-04-05T16:59:46Z</time></trkpt><trkpt lat="33.79541494091843" lon="10.063296084755944"><ele>60.0</ele><time>2026-04-05T16:59:47Z</time></trkpt><trkpt lat="33.795294339633955" lon="10.063214512173854"><ele>60.0</ele><time>2026-04-05T16:59:48Z</time></trkpt><trkpt lat="33.795179490438414" lon="10.063138316743283"><ele>60.0</ele><time>2026-04-05T16:59:49Z</time></trkpt><trkpt lat="33.795066105011294" lon="10.063063437220402"><ele>60.0</ele><time>2026-04-05T16:59:50Z</time></trkpt><trkpt lat="33.794948204275755" lon="10.062982287541345"><ele>59.5</ele><time>2026-04-05T16:59:51Z</time></trkpt><trkpt lat="33.79482354552265" lon="10.062896498876055"><ele>59.0</ele><time>2026-04-05T16:59:52Z</time></trkpt><trkpt lat="33.79469525190027" lon="10.062808911930489"><ele>58.5</ele><time>2026-04-05T16:59:53Z</time></trkpt><trkpt lat="33.79456412014122" lon="10.062721012245218"><ele>58.0</ele><time>2026-04-05T16:59:54Z</time></trkpt><trkpt lat="33.79443743121315" lon="10.062635794350502"><ele>58.5</ele><time>2026-04-05T16:59:55Z</time></trkpt><trkpt lat="33.794313978781226" lon="10.062546553940928"><ele>59.0</ele><time>2026-04-05T16:59:56Z</time></trkpt><trkpt lat="33.79418970096463" lon="10.062456679578991"><ele>59.5</ele><time>2026-04-05T16:59:57Z</time></trkpt><trkpt lat="33.79406493514555" lon="10.062369578803628"><ele>60.0</ele><time>2026-04-05T16:59:58Z</time></trkpt><trkpt lat="33.79393189995389" lon="10.062280134267464"><ele>60.0</ele><time>2026-04-05T16:59:59Z</time></trkpt><trkpt lat="33.79379426362465" lon="10.062189409191905"><ele>60.0</ele><time>2026-04-05T17:00:00Z</time></trkpt><trkpt lat="33.793649834503185" lon="10.062095173014615"><ele>60.0</ele><time>2026-04-05T17:00:01Z</time></trkpt><trkpt lat="33.79350742014232" lon="10.061996068965703"><ele>60.66666666666667</ele><time>2026-04-05T17:00:02Z</time></trkpt><trkpt lat="33.793362078291814" lon="10.061895888550541"><ele>61.333333333333336</ele><time>2026-04-05T17:00:03Z</time></trkpt><trkpt lat="33.79321472661007" lon="10.061797699007714"><ele>62.0</ele><time>2026-04-05T17:00:04Z</time></trkpt><trkpt lat="33.793067294561816" lon="10.06169674276066"><ele>62.333333333333336</ele><time>2026-04-05T17:00:05Z</time></trkpt><trkpt lat="33.79290592364292" lon="10.061591229510581"><ele>62.66666666666667</ele><time>2026-04-05T17:00:06Z</time></trkpt><trkpt lat="33.79274366335357" lon="10.061481700734493"><ele>63.0</ele><time>2026-04-05T17:00:07Z</time></trkpt><trkpt lat="33.7925770367564" lon="10.061366675928577"><ele>61.66666666666667</ele><time>2026-04-05T17:00:08Z</time></trkpt><trkpt lat="33.792406365401206" lon="10.061247428241979"><ele>60.333333333333336</ele><time>2026-04-05T17:00:09Z</time></trkpt><trkpt lat="33.792230439269744" lon="10.061122462732966"><ele>59.0</ele><time>2026-04-05T17:00:10Z</time></trkpt><trkpt lat="33.792048005999646" lon="10.061005143172396"><ele>59.0</ele><time>2026-04-05T17:00:11Z</time></trkpt><trkpt lat="33.79186550052176" lon="10.060884437654593"><ele>59.0</ele><time>2026-04-05T17:00:12Z</time></trkpt><trkpt lat="33.791686106074046" lon="10.060759929092786"><ele>59.0</ele><time>2026-04-05T17:00:13Z</time></trkpt><trkpt lat="33.791505330142634" lon="10.060635829786092"><ele>58.66666666666667</ele><time>2026-04-05T17:00:14Z</time></trkpt><trkpt lat="33.791320862133524" lon="10.060510579695855"><ele>58.33333333333333</ele><time>2026-04-05T17:00:15Z</time></trkpt><trkpt lat="33.791138378550826" lon="10.060388087074886"><ele>58.0</ele><time>2026-04-05T17:00:16Z</time></trkpt><trkpt lat="33.79095382474449" lon="10.06026237830108"><ele>57.666666666666664</ele><time>2026-04-05T17:00:17Z</time></trkpt><trkpt lat="33.79076614990775" lon="10.060137860309453"><ele>57.33333333333333</ele><time>2026-04-05T17:00:18Z</time></trkpt><trkpt lat="33.79057997532919" lon="10.060014192729788"><ele>57.0</ele><time>2026-04-05T17:00:19Z</time></trkpt><trkpt lat="33.79039237068113" lon="10.059884261271403"><ele>57.0</ele><time>2026-04-05T17:00:20Z</time></trkpt><trkpt lat="33.7902025712729" lon="10.059756009164957"><ele>57.0</ele><time>2026-04-05T17:00:21Z</time></trkpt><trkpt lat="33.79000944719046" lon="10.059624330535648"><ele>57.0</ele><time>2026-04-05T17:00:22Z</time></trkpt><trkpt lat="33.78980954128886" lon="10.059484564782888"><ele>57.5</ele><time>2026-04-05T17:00:23Z</time></trkpt><trkpt lat="33.78960251227662" lon="10.059343698062456"><ele>58.0</ele><time>2026-04-05T17:00:24Z</time></trkpt><trkpt lat="33.789393036919755" lon="10.05920814016097"><ele>58.0</ele><time>2026-04-05T17:00:25Z</time></trkpt><trkpt lat="33.78918325874608" lon="10.059072805813596"><ele>58.0</ele><time>2026-04-05T17:00:26Z</time></trkpt><trkpt lat="33.788973665100904" lon="10.058935906366447"><ele>58.0</ele><time>2026-04-05T17:00:27Z</time></trkpt><trkpt lat="33.78876004024818" lon="10.058791898640902"><ele>58.0</ele><time>2026-04-05T17:00:28Z</time></trkpt><trkpt lat="33.78854563342762" lon="10.058649934388468"><ele>57.33333333333333</ele><time>2026-04-05T17:00:29Z</time></trkpt><trkpt lat="33.78834307043525" lon="10.058522867836679"><ele>56.66666666666667</ele><time>2026-04-05T17:00:30Z</time></trkpt><trkpt lat="33.78814996680797" lon="10.058405574130354"><ele>56.0</ele><time>2026-04-05T17:00:31Z</time></trkpt><trkpt lat="33.78796935710872" lon="10.058291316854062"><ele>56.0</ele><time>2026-04-05T17:00:32Z</time></trkpt><trkpt lat="33.787784220472936" lon="10.05816989448626"><ele>56.0</ele><time>2026-04-05T17:00:33Z</time></trkpt><trkpt lat="33.787598082228506" lon="10.058045361554484"><ele>56.0</ele><time>2026-04-05T17:00:34Z</time></trkpt><trkpt lat="33.787413846028834" lon="10.05792310004348"><ele>57.0</ele><time>2026-04-05T17:00:35Z</time></trkpt><trkpt lat="33.78722697456504" lon="10.057795593377278"><ele>58.0</ele><time>2026-04-05T17:00:36Z</time></trkpt><trkpt lat="33.787035648110894" lon="10.057663931718995"><ele>59.0</ele><time>2026-04-05T17:00:37Z</time></trkpt><trkpt lat="33.78684640497635" lon="10.057525614377063"><ele>59.5</ele><time>2026-04-05T17:00:38Z</time></trkpt><trkpt lat="33.78665870680897" lon="10.057378477903223"><ele>60.0</ele><time>2026-04-05T17:00:39Z</time></trkpt><trkpt lat="33.78647266347957" lon="10.057216462046682"><ele>60.0</ele><time>2026-04-05T17:00:40Z</time></trkpt><trkpt lat="33.78628404044056" lon="10.057049385562076"><ele>60.0</ele><time>2026-04-05T17:00:41Z</time></trkpt><trkpt lat="33.78609904961501" lon="10.056886615900442"><ele>61.0</ele><time>2026-04-05T17:00:42Z</time></trkpt><trkpt lat="33.78591254581543" lon="10.056718177924123"><ele>62.0</ele><time>2026-04-05T17:00:43Z</time></trkpt><trkpt lat="33.78573314697955" lon="10.056554865435155"><ele>62.333333333333336</ele><time>2026-04-05T17:00:44Z</time></trkpt><trkpt lat="33.78555961399797" lon="10.056398300640941"><ele>62.66666666666667</ele><time>2026-04-05T17:00:45Z</time></trkpt><trkpt lat="33.785382540968804" lon="10.056236712941669"><ele>63.0</ele><time>2026-04-05T17:00:46Z</time></trkpt><trkpt lat="33.78520456613186" lon="10.056078950370145"><ele>63.66666666666667</ele><time>2026-04-05T17:00:47Z</time></trkpt><trkpt lat="33.785023343810614" lon="10.055920793571875"><ele>64.33333333333334</ele><time>2026-04-05T17:00:48Z</time></trkpt><trkpt lat="33.7848529502213" lon="10.055769174724809"><ele>65.0</ele><time>2026-04-05T17:00:49Z</time></trkpt><trkpt lat="33.784692067583485" lon="10.05562515763454"><ele>65.0</ele><time>2026-04-05T17:00:50Z</time></trkpt><trkpt lat="33.78453750229076" lon="10.055482389584016"><ele>65.0</ele><time>2026-04-05T17:00:51Z</time></trkpt><trkpt lat="33.7843853553324" lon="10.055341802707442"><ele>65.0</ele><time>2026-04-05T17:00:52Z</time></trkpt><trkpt lat="33.78423593813448" lon="10.055198830447821"><ele>65.0</ele><time>2026-04-05T17:00:53Z</time></trkpt><trkpt lat="33.78410205860891" lon="10.055059740364435"><ele>65.0</ele><time>2026-04-05T17:00:54Z</time></trkpt><trkpt lat="33.78397366146315" lon="10.054915910668832"><ele>65.0</ele><time>2026-04-05T17:00:55Z</time></trkpt><trkpt lat="33.78385506323824" lon="10.05476816757311"><ele>65.0</ele><time>2026-04-05T17:00:56Z</time></trkpt><trkpt lat="33.783734084822974" lon="10.05460707633323"><ele>65.0</ele><time>2026-04-05T17:00:57Z</time></trkpt><trkpt lat="33.78361524534927" lon="10.05443850703119"><ele>65.0</ele><time>2026-04-05T17:00:58Z</time></trkpt><trkpt lat="33.78350319800222" lon="10.054269503253666"><ele>65.33333333333334</ele><time>2026-04-05T17:00:59Z</time></trkpt><trkpt lat="33.7833984424086" lon="10.054110055555187"><ele>65.66666666666667</ele><time>2026-04-05T17:01:00Z</time></trkpt><trkpt lat="33.783295224475374" lon="10.05396100253254"><ele>66.0</ele><time>2026-04-05T17:01:01Z</time></trkpt><trkpt lat="33.783197198347956" lon="10.053825090443679"><ele>66.0</ele><time>2026-04-05T17:01:02Z</time></trkpt><trkpt lat="33.7830932853781" lon="10.053684200675589"><ele>66.0</ele><time>2026-04-05T17:01:03Z</time></trkpt><trkpt lat="33.782982283936235" lon="10.053544893878804"><ele>66.0</ele><time>2026-04-05T17:01:04Z</time></trkpt><trkpt lat="33.78286573366823" lon="10.053410403475487"><ele>66.0</ele><time>2026-04-05T17:01:05Z</time></trkpt><trkpt lat="33.78273859831896" lon="10.053277300632878"><ele>66.0</ele><time>2026-04-05T17:01:06Z</time></trkpt><trkpt lat="33.782605872928045" lon="10.053144532852333"><ele>66.0</ele><time>2026-04-05T17:01:07Z</time></trkpt><trkpt lat="33.782465111552554" lon="10.053015759340983"><ele>66.33333333333333</ele><time>2026-04-05T17:01:08Z</time></trkpt><trkpt lat="33.78231119957023" lon="10.052890281869352"><ele>66.66666666666666</ele><time>2026-04-05T17:01:09Z</time></trkpt><trkpt lat="33.78214992972556" lon="10.052770409420317"><ele>67.0</ele><time>2026-04-05T17:01:10Z</time></trkpt><trkpt lat="33.78198577536625" lon="10.052652247993949"><ele>66.66666666666666</ele><time>2026-04-05T17:01:11Z</time></trkpt><trkpt lat="33.78182176339107" lon="10.052538509523567"><ele>66.33333333333333</ele><time>2026-04-05T17:01:12Z</time></trkpt><trkpt lat="33.78165016989441" lon="10.05241554559237"><ele>66.0</ele><time>2026-04-05T17:01:13Z</time></trkpt><trkpt lat="33.78147374736084" lon="10.052291269256573"><ele>66.0</ele><time>2026-04-05T17:01:14Z</time></trkpt><trkpt lat="33.78128882812992" lon="10.052161937565774"><ele>66.0</ele><time>2026-04-05T17:01:15Z</time></trkpt><trkpt lat="33.781095024839516" lon="10.052026806718699"><ele>66.0</ele><time>2026-04-05T17:01:16Z</time></trkpt><trkpt lat="33.78089637320006" lon="10.05188811109717"><ele>66.0</ele><time>2026-04-05T17:01:17Z</time></trkpt><trkpt lat="33.78068170914936" lon="10.05174304263786"><ele>66.0</ele><time>2026-04-05T17:01:18Z</time></trkpt><trkpt lat="33.78044968349306" lon="10.051591988903747"><ele>66.0</ele><time>2026-04-05T17:01:19Z</time></trkpt><trkpt lat="33.780199835931356" lon="10.051427235080507"><ele>66.0</ele><time>2026-04-05T17:01:20Z</time></trkpt><trkpt lat="33.77993799998165" lon="10.051253999017087"><ele>66.0</ele><time>2026-04-05T17:01:21Z</time></trkpt><trkpt lat="33.77966635429391" lon="10.051077058813615"><ele>66.0</ele><time>2026-04-05T17:01:22Z</time></trkpt><trkpt lat="33.77939319725993" lon="10.050889286597082"><ele>67.0</ele><time>2026-04-05T17:01:23Z</time></trkpt><trkpt lat="33.77912375575271" lon="10.050692901528993"><ele>68.0</ele><time>2026-04-05T17:01:24Z</time></trkpt><trkpt lat="33.77885020411344" lon="10.05049357666364"><ele>68.0</ele><time>2026-04-05T17:01:25Z</time></trkpt><trkpt lat="33.77857474506145" lon="10.050295966794883"><ele>68.0</ele><time>2026-04-05T17:01:26Z</time></trkpt><trkpt lat="33.778304080074946" lon="10.0501009358926"><ele>68.0</ele><time>2026-04-05T17:01:27Z</time></trkpt><trkpt lat="33.77803375540838" lon="10.049906843091204"><ele>68.0</ele><time>2026-04-05T17:01:28Z</time></trkpt><trkpt lat="33.777751761176866" lon="10.049708106141097"><ele>67.5</ele><time>2026-04-05T17:01:29Z</time></trkpt><trkpt lat="33.77747611235146" lon="10.049516959786587"><ele>67.0</ele><time>2026-04-05T17:01:30Z</time></trkpt><trkpt lat="33.77720538347797" lon="10.049333744758588"><ele>67.0</ele><time>2026-04-05T17:01:31Z</time></trkpt><trkpt lat="33.77694023133538" lon="10.049152543977453"><ele>67.0</ele><time>2026-04-05T17:01:32Z</time></trkpt><trkpt lat="33.77667548076951" lon="10.048968685251806"><ele>67.5</ele><time>2026-04-05T17:01:33Z</time></trkpt><trkpt lat="33.776416031873225" lon="10.048775958151436"><ele>68.0</ele><time>2026-04-05T17:01:34Z</time></trkpt><trkpt lat="33.77616330841815" lon="10.048572938140728"><ele>67.5</ele><time>2026-04-05T17:01:35Z</time></trkpt><trkpt lat="33.77591412437389" lon="10.048366713767301"><ele>67.0</ele><time>2026-04-05T17:01:36Z</time></trkpt><trkpt lat="33.77566113066268" lon="10.048156484160597"><ele>67.5</ele><time>2026-04-05T17:01:37Z</time></trkpt><trkpt lat="33.7754070334347" lon="10.047940962744144"><ele>68.0</ele><time>2026-04-05T17:01:38Z</time></trkpt><trkpt lat="33.775154260969664" lon="10.04772065119025"><ele>68.0</ele><time>2026-04-05T17:01:39Z</time></trkpt><trkpt lat="33.774901306571934" lon="10.047494765020808"><ele>68.0</ele><time>2026-04-05T17:01:40Z</time></trkpt><trkpt lat="33.77464532245076" lon="10.047267115295696"><ele>68.5</ele><time>2026-04-05T17:01:41Z</time></trkpt><trkpt lat="33.774393839955046" lon="10.047049530420516"><ele>69.0</ele><time>2026-04-05T17:01:42Z</time></trkpt><trkpt lat="33.77415014411696" lon="10.046840833212713"><ele>69.0</ele><time>2026-04-05T17:01:43Z</time></trkpt><trkpt lat="33.77392402385659" lon="10.046647415360978"><ele>69.0</ele><time>2026-04-05T17:01:44Z</time></trkpt><trkpt lat="33.773705946951516" lon="10.046464733238256"><ele>69.0</ele><time>2026-04-05T17:01:45Z</time></trkpt><trkpt lat="33.7735034250069" lon="10.046291563240228"><ele>69.0</ele><time>2026-04-05T17:01:46Z</time></trkpt><trkpt lat="33.77331175719739" lon="10.046126875105486"><ele>69.0</ele><time>2026-04-05T17:01:47Z</time></trkpt><trkpt lat="33.77312471085443" lon="10.0459720397688"><ele>69.0</ele><time>2026-04-05T17:01:48Z</time></trkpt><trkpt lat="33.772929518833394" lon="10.045820348975257"><ele>69.5</ele><time>2026-04-05T17:01:49Z</time></trkpt><trkpt lat="33.77273281454005" lon="10.045667845361681"><ele>70.0</ele><time>2026-04-05T17:01:50Z</time></trkpt><trkpt lat="33.77252789019289" lon="10.045519420162961"><ele>70.5</ele><time>2026-04-05T17:01:51Z</time></trkpt><trkpt lat="33.77231530093345" lon="10.045370748561522"><ele>71.0</ele><time>2026-04-05T17:01:52Z</time></trkpt><trkpt lat="33.77209544681277" lon="10.04522219343023"><ele>71.0</ele><time>2026-04-05T17:01:53Z</time></trkpt><trkpt lat="33.77186741705512" lon="10.045075751217908"><ele>71.0</ele><time>2026-04-05T17:01:54Z</time></trkpt><trkpt lat="33.77163885425774" lon="10.044935403759666"><ele>71.5</ele><time>2026-04-05T17:01:55Z</time></trkpt><trkpt lat="33.77142971726411" lon="10.044799291533291"><ele>72.0</ele><time>2026-04-05T17:01:56Z</time></trkpt><trkpt lat="33.77122248640243" lon="10.044664576466744"><ele>70.5</ele><time>2026-04-05T17:01:57Z</time></trkpt><trkpt lat="33.77101660445739" lon="10.044534431128147"><ele>69.0</ele><time>2026-04-05T17:01:58Z</time></trkpt><trkpt lat="33.7708091022289" lon="10.044401888813752"><ele>69.0</ele><time>2026-04-05T17:01:59Z</time></trkpt><trkpt lat="33.7706086147155" lon="10.044271040393749"><ele>69.0</ele><time>2026-04-05T17:02:00Z</time></trkpt><trkpt lat="33.77041848014211" lon="10.044152038907875"><ele>69.0</ele><time>2026-04-05T17:02:01Z</time></trkpt><trkpt lat="33.77023678730779" lon="10.044032927057996"><ele>67.66666666666667</ele><time>2026-04-05T17:02:02Z</time></trkpt><trkpt lat="33.77006458138424" lon="10.043916259934782"><ele>66.33333333333334</ele><time>2026-04-05T17:02:03Z</time></trkpt><trkpt lat="33.76990565104351" lon="10.04381173287957"><ele>65.0</ele><time>2026-04-05T17:02:04Z</time></trkpt><trkpt lat="33.769754030278705" lon="10.043714536777602"><ele>65.0</ele><time>2026-04-05T17:02:05Z</time></trkpt><trkpt lat="33.769610283850696" lon="10.04362135057513"><ele>65.0</ele><time>2026-04-05T17:02:06Z</time></trkpt><trkpt lat="33.769468836476804" lon="10.043526232548297"><ele>65.0</ele><time>2026-04-05T17:02:07Z</time></trkpt><trkpt lat="33.769319172645325" lon="10.043427694908484"><ele>65.0</ele><time>2026-04-05T17:02:08Z</time></trkpt><trkpt lat="33.76916036695798" lon="10.043325667501223"><ele>65.0</ele><time>2026-04-05T17:02:09Z</time></trkpt><trkpt lat="33.76899570455025" lon="10.043219868693832"><ele>65.0</ele><time>2026-04-05T17:02:10Z</time></trkpt><trkpt lat="33.768829056097665" lon="10.043111084729961"><ele>65.33333333333334</ele><time>2026-04-05T17:02:11Z</time></trkpt><trkpt lat="33.768659894364795" lon="10.04300118224205"><ele>65.66666666666667</ele><time>2026-04-05T17:02:12Z</time></trkpt><trkpt lat="33.768484498145135" lon="10.042887965514424"><ele>66.0</ele><time>2026-04-05T17:02:13Z</time></trkpt><trkpt lat="33.76830446868361" lon="10.042767625887874"><ele>67.66666666666667</ele><time>2026-04-05T17:02:14Z</time></trkpt><trkpt lat="33.76811215051908" lon="10.042641424397587"><ele>69.33333333333334</ele><time>2026-04-05T17:02:15Z</time></trkpt><trkpt lat="33.76791244456548" lon="10.042510440871798"><ele>71.0</ele><time>2026-04-05T17:02:16Z</time></trkpt><trkpt lat="33.76771408487139" lon="10.042376144122793"><ele>73.0</ele><time>2026-04-05T17:02:17Z</time></trkpt><trkpt lat="33.76752091499063" lon="10.042242015911903"><ele>75.0</ele><time>2026-04-05T17:02:18Z</time></trkpt><trkpt lat="33.76733448927159" lon="10.04210117283979"><ele>77.0</ele><time>2026-04-05T17:02:19Z</time></trkpt><trkpt lat="33.767158371493586" lon="10.041938983658007"><ele>77.0</ele><time>2026-04-05T17:02:20Z</time></trkpt><trkpt lat="33.766986361593304" lon="10.04175491486097"><ele>77.0</ele><time>2026-04-05T17:02:21Z</time></trkpt><trkpt lat="33.76681369212875" lon="10.041555683778585"><ele>76.5</ele><time>2026-04-05T17:02:22Z</time></trkpt><trkpt lat="33.76663937359681" lon="10.041350726626147"><ele>76.0</ele><time>2026-04-05T17:02:23Z</time></trkpt><trkpt lat="33.766465333070116" lon="10.041145822739809"><ele>76.0</ele><time>2026-04-05T17:02:24Z</time></trkpt><trkpt lat="33.766288418135076" lon="10.040941354981248"><ele>76.0</ele><time>2026-04-05T17:02:25Z</time></trkpt><trkpt lat="33.76611345005578" lon="10.040737735063658"><ele>77.33333333333333</ele><time>2026-04-05T17:02:26Z</time></trkpt><trkpt lat="33.76595591637605" lon="10.040552266506637"><ele>78.66666666666667</ele><time>2026-04-05T17:02:27Z</time></trkpt><trkpt lat="33.76579889568601" lon="10.040370991719906"><ele>80.0</ele><time>2026-04-05T17:02:28Z</time></trkpt><trkpt lat="33.765639321201434" lon="10.04018853840139"><ele>80.0</ele><time>2026-04-05T17:02:29Z</time></trkpt><trkpt lat="33.76548110951499" lon="10.040005694164963"><ele>80.0</ele><time>2026-04-05T17:02:30Z</time></trkpt><trkpt lat="33.765323822597175" lon="10.03982288649499"><ele>80.0</ele><time>2026-04-05T17:02:31Z</time></trkpt><trkpt lat="33.76516493847952" lon="10.039626169760687"><ele>80.0</ele><time>2026-04-05T17:02:32Z</time></trkpt><trkpt lat="33.76501264999747" lon="10.039417376679186"><ele>80.0</ele><time>2026-04-05T17:02:33Z</time></trkpt><trkpt lat="33.76486338621121" lon="10.03919654613695"><ele>77.0</ele><time>2026-04-05T17:02:34Z</time></trkpt><trkpt lat="33.76472062345027" lon="10.038965850001032"><ele>74.0</ele><time>2026-04-05T17:02:35Z</time></trkpt><trkpt lat="33.764583377078715" lon="10.038723904387854"><ele>74.0</ele><time>2026-04-05T17:02:36Z</time></trkpt><trkpt lat="33.76444529664779" lon="10.038484338860073"><ele>74.0</ele><time>2026-04-05T17:02:37Z</time></trkpt><trkpt lat="33.76430561886124" lon="10.038243647719616"><ele>76.5</ele><time>2026-04-05T17:02:38Z</time></trkpt><trkpt lat="33.76416289026163" lon="10.038001751950091"><ele>79.0</ele><time>2026-04-05T17:02:39Z</time></trkpt><trkpt lat="33.76402347078544" lon="10.037767899752895"><ele>79.0</ele><time>2026-04-05T17:02:40Z</time></trkpt><trkpt lat="33.76388759046862" lon="10.03753663989421"><ele>79.0</ele><time>2026-04-05T17:02:41Z</time></trkpt><trkpt lat="33.76375463075596" lon="10.037311249024194"><ele>80.0</ele><time>2026-04-05T17:02:42Z</time></trkpt><trkpt lat="33.7636238068657" lon="10.037082448795507"><ele>81.0</ele><time>2026-04-05T17:02:43Z</time></trkpt><trkpt lat="33.76348731686491" lon="10.036851827590725"><ele>80.5</ele><time>2026-04-05T17:02:44Z</time></trkpt><trkpt lat="33.76335516228133" lon="10.036623723164627"><ele>80.0</ele><time>2026-04-05T17:02:45Z</time></trkpt><trkpt lat="33.76322129600308" lon="10.036392797377866"><ele>80.0</ele><time>2026-04-05T17:02:46Z</time></trkpt><trkpt lat="33.763084986602536" lon="10.036164390959321"><ele>80.0</ele><time>2026-04-05T17:02:47Z</time></trkpt><trkpt lat="33.76294557360138" lon="10.035933615250617"><ele>82.0</ele><time>2026-04-05T17:02:48Z</time></trkpt><trkpt lat="33.762807464710534" lon="10.035699869632541"><ele>84.0</ele><time>2026-04-05T17:02:49Z</time></trkpt><trkpt lat="33.762669214916265" lon="10.035460061811222"><ele>84.0</ele><time>2026-04-05T17:02:50Z</time></trkpt><trkpt lat="33.76252483130579" lon="10.035211771973882"><ele>84.0</ele><time>2026-04-05T17:02:51Z</time></trkpt><trkpt lat="33.76237636121277" lon="10.034955818472385"><ele>85.0</ele><time>2026-04-05T17:02:52Z</time></trkpt><trkpt lat="33.762232715826556" lon="10.034698195234606"><ele>86.0</ele><time>2026-04-05T17:02:53Z</time></trkpt><trkpt lat="33.76208197218657" lon="10.034436704878521"><ele>86.0</ele><time>2026-04-05T17:02:54Z</time></trkpt><trkpt lat="33.76193184440201" lon="10.034177535281218"><ele>86.0</ele><time>2026-04-05T17:02:55Z</time></trkpt><trkpt lat="33.761774686998834" lon="10.033913883951799"><ele>85.0</ele><time>2026-04-05T17:02:56Z</time></trkpt><trkpt lat="33.76162206552977" lon="10.033653711885924"><ele>84.0</ele><time>2026-04-05T17:02:57Z</time></trkpt><trkpt lat="33.76146404062173" lon="10.033392700143736"><ele>85.0</ele><time>2026-04-05T17:02:58Z</time></trkpt><trkpt lat="33.761313756234856" lon="10.033137953597262"><ele>86.0</ele><time>2026-04-05T17:02:59Z</time></trkpt><trkpt lat="33.76116546288507" lon="10.032884878039548"><ele>86.5</ele><time>2026-04-05T17:03:00Z</time></trkpt><trkpt lat="33.761016343205114" lon="10.032632526811085"><ele>87.0</ele><time>2026-04-05T17:03:01Z</time></trkpt><trkpt lat="33.76086903657028" lon="10.032378778219234"><ele>87.0</ele><time>2026-04-05T17:03:02Z</time></trkpt><trkpt lat="33.76072392517547" lon="10.03212224158235"><ele>87.0</ele><time>2026-04-05T17:03:03Z</time></trkpt><trkpt lat="33.76057599559085" lon="10.031865293495537"><ele>87.0</ele><time>2026-04-05T17:03:04Z</time></trkpt><trkpt lat="33.76043003724741" lon="10.031610903142498"><ele>87.0</ele><time>2026-04-05T17:03:05Z</time></trkpt><trkpt lat="33.76027685897246" lon="10.031355273408098"><ele>87.0</ele><time>2026-04-05T17:03:06Z</time></trkpt><trkpt lat="33.76012385750796" lon="10.031099398539256"><ele>87.0</ele><time>2026-04-05T17:03:07Z</time></trkpt><trkpt lat="33.75997203366333" lon="10.030844314684403"><ele>88.5</ele><time>2026-04-05T17:03:08Z</time></trkpt><trkpt lat="33.75982024111535" lon="10.030586295369963"><ele>90.0</ele><time>2026-04-05T17:03:09Z</time></trkpt><trkpt lat="33.759665736032005" lon="10.030328466275622"><ele>90.0</ele><time>2026-04-05T17:03:10Z</time></trkpt><trkpt lat="33.75951179470949" lon="10.030066916289528"><ele>90.0</ele><time>2026-04-05T17:03:11Z</time></trkpt><trkpt lat="33.759365771670296" lon="10.029809219633137"><ele>90.0</ele><time>2026-04-05T17:03:12Z</time></trkpt><trkpt lat="33.75920833215744" lon="10.029548272537388"><ele>90.0</ele><time>2026-04-05T17:03:13Z</time></trkpt><trkpt lat="33.75905167325932" lon="10.029286696181032"><ele>92.0</ele><time>2026-04-05T17:03:14Z</time></trkpt><trkpt lat="33.75889707216041" lon="10.029026379256592"><ele>94.0</ele><time>2026-04-05T17:03:15Z</time></trkpt><trkpt lat="33.75874156761028" lon="10.028762084315476"><ele>94.0</ele><time>2026-04-05T17:03:16Z</time></trkpt><trkpt lat="33.75858779154601" lon="10.02850025901037"><ele>94.0</ele><time>2026-04-05T17:03:17Z</time></trkpt><trkpt lat="33.75843260606965" lon="10.028241841410269"><ele>94.0</ele><time>2026-04-05T17:03:18Z</time></trkpt><trkpt lat="33.758284657712075" lon="10.027986637377076"><ele>94.0</ele><time>2026-04-05T17:03:19Z</time></trkpt><trkpt lat="33.75813750156035" lon="10.027733635927822"><ele>94.0</ele><time>2026-04-05T17:03:20Z</time></trkpt><trkpt lat="33.757989471930635" lon="10.027484797234289"><ele>94.0</ele><time>2026-04-05T17:03:21Z</time></trkpt><trkpt lat="33.7578433639758" lon="10.027235490897093"><ele>95.0</ele><time>2026-04-05T17:03:22Z</time></trkpt><trkpt lat="33.75769938085446" lon="10.026989579089285"><ele>96.0</ele><time>2026-04-05T17:03:23Z</time></trkpt><trkpt lat="33.757555255704695" lon="10.026742953832036"><ele>97.0</ele><time>2026-04-05T17:03:24Z</time></trkpt><trkpt lat="33.757413176659725" lon="10.026495135651905"><ele>98.0</ele><time>2026-04-05T17:03:25Z</time></trkpt><trkpt lat="33.757266141396926" lon="10.026242609637782"><ele>98.0</ele><time>2026-04-05T17:03:26Z</time></trkpt><trkpt lat="33.757110596544656" lon="10.025985605080171"><ele>98.0</ele><time>2026-04-05T17:03:27Z</time></trkpt><trkpt lat="33.75695278411214" lon="10.025728554015723"><ele>98.5</ele><time>2026-04-05T17:03:28Z</time></trkpt><trkpt lat="33.75678716070158" lon="10.025466579733278"><ele>99.0</ele><time>2026-04-05T17:03:29Z</time></trkpt><trkpt lat="33.756605226099666" lon="10.025196856543907"><ele>99.5</ele><time>2026-04-05T17:03:30Z</time></trkpt><trkpt lat="33.756428863451916" lon="10.024951826347678"><ele>100.0</ele><time>2026-04-05T17:03:31Z</time></trkpt><trkpt lat="33.75625964417475" lon="10.024735091955082"><ele>100.0</ele><time>2026-04-05T17:03:32Z</time></trkpt><trkpt lat="33.75609926713848" lon="10.024536830504985"><ele>100.0</ele><time>2026-04-05T17:03:33Z</time></trkpt><trkpt lat="33.75594226253311" lon="10.02434666563082"><ele>100.0</ele><time>2026-04-05T17:03:34Z</time></trkpt><trkpt lat="33.75579756284886" lon="10.024167780966149"><ele>100.0</ele><time>2026-04-05T17:03:35Z</time></trkpt><trkpt lat="33.755659673095" lon="10.02400171315948"><ele>100.0</ele><time>2026-04-05T17:03:36Z</time></trkpt><trkpt lat="33.755526103663605" lon="10.023834272643654"><ele>100.0</ele><time>2026-04-05T17:03:37Z</time></trkpt><trkpt lat="33.75539792245551" lon="10.023676860424233"><ele>100.0</ele><time>2026-04-05T17:03:38Z</time></trkpt><trkpt lat="33.75526982090369" lon="10.023514974045321"><ele>100.0</ele><time>2026-04-05T17:03:39Z</time></trkpt><trkpt lat="33.75513823972447" lon="10.023347049836026"><ele>99.66666666666667</ele><time>2026-04-05T17:03:40Z</time></trkpt><trkpt lat="33.755006220384416" lon="10.023175777324935"><ele>99.33333333333334</ele><time>2026-04-05T17:03:41Z</time></trkpt><trkpt lat="33.754870591527116" lon="10.023004584059105"><ele>99.0</ele><time>2026-04-05T17:03:42Z</time></trkpt><trkpt lat="33.75472929549659" lon="10.02282090238238"><ele>99.0</ele><time>2026-04-05T17:03:43Z</time></trkpt><trkpt lat="33.7545848838924" lon="10.02263761739902"><ele>99.0</ele><time>2026-04-05T17:03:44Z</time></trkpt><trkpt lat="33.754440262928085" lon="10.022458528999593"><ele>99.0</ele><time>2026-04-05T17:03:45Z</time></trkpt><trkpt lat="33.754308301455154" lon="10.02229367480664"><ele>99.33333333333334</ele><time>2026-04-05T17:03:46Z</time></trkpt><trkpt lat="33.75418096996538" lon="10.022134694265473"><ele>99.66666666666667</ele><time>2026-04-05T17:03:47Z</time></trkpt><trkpt lat="33.75406004169936" lon="10.021984225522438"><ele>100.0</ele><time>2026-04-05T17:03:48Z</time></trkpt><trkpt lat="33.753942399573866" lon="10.021841467533488"><ele>100.0</ele><time>2026-04-05T17:03:49Z</time></trkpt><trkpt lat="33.75382786176002" lon="10.021700868831164"><ele>100.0</ele><time>2026-04-05T17:03:50Z</time></trkpt><trkpt lat="33.753715989708134" lon="10.021559143296768"><ele>100.0</ele><time>2026-04-05T17:03:51Z</time></trkpt><trkpt lat="33.75360290548967" lon="10.021410310675707"><ele>100.0</ele><time>2026-04-05T17:03:52Z</time></trkpt><trkpt lat="33.75348121836707" lon="10.021259112953029"><ele>100.0</ele><time>2026-04-05T17:03:53Z</time></trkpt><trkpt lat="33.75334535104258" lon="10.021101604226418"><ele>100.0</ele><time>2026-04-05T17:03:54Z</time></trkpt><trkpt lat="33.75319538572004" lon="10.020944599861467"><ele>100.0</ele><time>2026-04-05T17:03:55Z</time></trkpt><trkpt lat="33.753032397751404" lon="10.020781886763968"><ele>100.0</ele><time>2026-04-05T17:03:56Z</time></trkpt><trkpt lat="33.752855498859226" lon="10.020622504291405"><ele>100.0</ele><time>2026-04-05T17:03:57Z</time></trkpt><trkpt lat="33.75266942752478" lon="10.020474460652315"><ele>100.0</ele><time>2026-04-05T17:03:58Z</time></trkpt><trkpt lat="33.752471803543074" lon="10.0203287010261"><ele>100.0</ele><time>2026-04-05T17:03:59Z</time></trkpt><trkpt lat="33.752267769598866" lon="10.020192172943341"><ele>100.0</ele><time>2026-04-05T17:04:00Z</time></trkpt><trkpt lat="33.75204834179238" lon="10.020058641119398"><ele>100.0</ele><time>2026-04-05T17:04:01Z</time></trkpt><trkpt lat="33.75181248190724" lon="10.01992946233838"><ele>98.5</ele><time>2026-04-05T17:04:02Z</time></trkpt><trkpt lat="33.75156605600124" lon="10.019799327655381"><ele>97.0</ele><time>2026-04-05T17:04:03Z</time></trkpt><trkpt lat="33.751306121565975" lon="10.019666036351794"><ele>97.0</ele><time>2026-04-05T17:04:04Z</time></trkpt><trkpt lat="33.75103622339912" lon="10.019526764031738"><ele>97.0</ele><time>2026-04-05T17:04:05Z</time></trkpt><trkpt lat="33.750754789996634" lon="10.019385542916087"><ele>97.0</ele><time>2026-04-05T17:04:06Z</time></trkpt><trkpt lat="33.75045907111125" lon="10.019232821648101"><ele>97.0</ele><time>2026-04-05T17:04:07Z</time></trkpt><trkpt lat="33.750166072422395" lon="10.019071849545135"><ele>98.0</ele><time>2026-04-05T17:04:08Z</time></trkpt><trkpt lat="33.74988041320203" lon="10.018914993195354"><ele>99.0</ele><time>2026-04-05T17:04:09Z</time></trkpt><trkpt lat="33.749603363544544" lon="10.018770633318939"><ele>101.0</ele><time>2026-04-05T17:04:10Z</time></trkpt><trkpt lat="33.74934357499629" lon="10.018637420663637"><ele>103.0</ele><time>2026-04-05T17:04:11Z</time></trkpt><trkpt lat="33.74909788024184" lon="10.018511420089947"><ele>103.0</ele><time>2026-04-05T17:04:12Z</time></trkpt><trkpt lat="33.74885799438382" lon="10.018386631932854"><ele>103.0</ele><time>2026-04-05T17:04:13Z</time></trkpt><trkpt lat="33.748620549900195" lon="10.01826827927511"><ele>103.0</ele><time>2026-04-05T17:04:14Z</time></trkpt><trkpt lat="33.7483819548515" lon="10.018149283944725"><ele>103.0</ele><time>2026-04-05T17:04:15Z</time></trkpt><trkpt lat="33.74814446720184" lon="10.018029740554557"><ele>103.0</ele><time>2026-04-05T17:04:16Z</time></trkpt><trkpt lat="33.74790673605102" lon="10.01790579370679"><ele>103.0</ele><time>2026-04-05T17:04:17Z</time></trkpt><trkpt lat="33.74766527537323" lon="10.01778125244559"><ele>104.0</ele><time>2026-04-05T17:04:18Z</time></trkpt><trkpt lat="33.747414093830116" lon="10.017662139277368"><ele>105.0</ele><time>2026-04-05T17:04:19Z</time></trkpt><trkpt lat="33.74714981865567" lon="10.017547983717238"><ele>106.5</ele><time>2026-04-05T17:04:20Z</time></trkpt><trkpt lat="33.74687089428456" lon="10.017442826259524"><ele>108.0</ele><time>2026-04-05T17:04:21Z</time></trkpt><trkpt lat="33.746586037600956" lon="10.01734582036703"><ele>108.0</ele><time>2026-04-05T17:04:22Z</time></trkpt><trkpt lat="33.746289913330536" lon="10.017239075604413"><ele>108.0</ele><time>2026-04-05T17:04:23Z</time></trkpt><trkpt lat="33.74598461853124" lon="10.017127796914489"><ele>107.5</ele><time>2026-04-05T17:04:24Z</time></trkpt><trkpt lat="33.7456929444642" lon="10.017019379204834"><ele>107.0</ele><time>2026-04-05T17:04:25Z</time></trkpt><trkpt lat="33.745427071771964" lon="10.016922638734428"><ele>107.0</ele><time>2026-04-05T17:04:26Z</time></trkpt><trkpt lat="33.74518240495215" lon="10.016831703692985"><ele>107.0</ele><time>2026-04-05T17:04:27Z</time></trkpt><trkpt lat="33.744940563892634" lon="10.016743735596926"><ele>107.0</ele><time>2026-04-05T17:04:28Z</time></trkpt><trkpt lat="33.74469149201617" lon="10.016653041147098"><ele>107.0</ele><time>2026-04-05T17:04:29Z</time></trkpt><trkpt lat="33.74442197840213" lon="10.016554047522146"><ele>107.5</ele><time>2026-04-05T17:04:30Z</time></trkpt><trkpt lat="33.744159228673276" lon="10.016455168127385"><ele>108.0</ele><time>2026-04-05T17:04:31Z</time></trkpt><trkpt lat="33.74390243421433" lon="10.016356848749897"><ele>108.0</ele><time>2026-04-05T17:04:32Z</time></trkpt><trkpt lat="33.7436524079347" lon="10.016262490717077"><ele>108.0</ele><time>2026-04-05T17:04:33Z</time></trkpt><trkpt lat="33.74340936752531" lon="10.01617056038997"><ele>109.0</ele><time>2026-04-05T17:04:34Z</time></trkpt><trkpt lat="33.7431734299819" lon="10.016082938608564"><ele>110.0</ele><time>2026-04-05T17:04:35Z</time></trkpt><trkpt lat="33.74294998364699" lon="10.016001467417349"><ele>110.0</ele><time>2026-04-05T17:04:36Z</time></trkpt><trkpt lat="33.74273869764328" lon="10.015922130319655"><ele>110.0</ele><time>2026-04-05T17:04:37Z</time></trkpt><trkpt lat="33.74252945978092" lon="10.015845145343578"><ele>110.0</ele><time>2026-04-05T17:04:38Z</time></trkpt><trkpt lat="33.74233306842562" lon="10.015774306498436"><ele>110.33333333333333</ele><time>2026-04-05T17:04:39Z</time></trkpt><trkpt lat="33.74214302356161" lon="10.01570301352137"><ele>110.66666666666666</ele><time>2026-04-05T17:04:40Z</time></trkpt><trkpt lat="33.74195997879127" lon="10.015634594402648"><ele>111.0</ele><time>2026-04-05T17:04:41Z</time></trkpt><trkpt lat="33.74178169530176" lon="10.01556729939013"><ele>111.0</ele><time>2026-04-05T17:04:42Z</time></trkpt><trkpt lat="33.7416075029592" lon="10.015499936726147"><ele>111.0</ele><time>2026-04-05T17:04:43Z</time></trkpt><trkpt lat="33.741431042840794" lon="10.015434288464302"><ele>111.0</ele><time>2026-04-05T17:04:44Z</time></trkpt><trkpt lat="33.74125860142646" lon="10.015377221711937"><ele>111.0</ele><time>2026-04-05T17:04:45Z</time></trkpt><trkpt lat="33.74110224971676" lon="10.015332831042327"><ele>111.0</ele><time>2026-04-05T17:04:46Z</time></trkpt><trkpt lat="33.740952224120676" lon="10.015297292230347"><ele>111.0</ele><time>2026-04-05T17:04:47Z</time></trkpt><trkpt lat="33.74080766902127" lon="10.015271760254251"><ele>111.0</ele><time>2026-04-05T17:04:48Z</time></trkpt><trkpt lat="33.74066298683733" lon="10.015254408100994"><ele>111.0</ele><time>2026-04-05T17:04:49Z</time></trkpt><trkpt lat="33.740518550200996" lon="10.01524039407183"><ele>111.0</ele><time>2026-04-05T17:04:50Z</time></trkpt><trkpt lat="33.74038239333126" lon="10.015228470426585"><ele>111.0</ele><time>2026-04-05T17:04:51Z</time></trkpt><trkpt lat="33.74024734504878" lon="10.015225201033875"><ele>111.0</ele><time>2026-04-05T17:04:52Z</time></trkpt><trkpt lat="33.74011142582006" lon="10.015229561390605"><ele>111.0</ele><time>2026-04-05T17:04:53Z</time></trkpt><trkpt lat="33.73997029067812" lon="10.015235038216604"><ele>111.0</ele><time>2026-04-05T17:04:54Z</time></trkpt><trkpt lat="33.739828100461956" lon="10.01523665456645"><ele>111.0</ele><time>2026-04-05T17:04:55Z</time></trkpt><trkpt lat="33.73967875374405" lon="10.015234879717694"><ele>111.0</ele><time>2026-04-05T17:04:56Z</time></trkpt><trkpt lat="33.73952619475004" lon="10.015230440717307"><ele>111.0</ele><time>2026-04-05T17:04:57Z</time></trkpt><trkpt lat="33.73938341141368" lon="10.015229819651111"><ele>111.0</ele><time>2026-04-05T17:04:58Z</time></trkpt><trkpt lat="33.73924162361589" lon="10.015229917468794"><ele>111.0</ele><time>2026-04-05T17:04:59Z</time></trkpt><trkpt lat="33.73909491976948" lon="10.015231499908149"><ele>111.0</ele><time>2026-04-05T17:05:00Z</time></trkpt><trkpt lat="33.738948910430715" lon="10.015230305103104"><ele>111.0</ele><time>2026-04-05T17:05:01Z</time></trkpt><trkpt lat="33.73879509270437" lon="10.015228824137374"><ele>111.0</ele><time>2026-04-05T17:05:02Z</time></trkpt><trkpt lat="33.73863867625714" lon="10.015230382232254"><ele>110.5</ele><time>2026-04-05T17:05:03Z</time></trkpt><trkpt lat="33.73849337962247" lon="10.015233800668742"><ele>110.0</ele><time>2026-04-05T17:05:04Z</time></trkpt><trkpt lat="33.73836106685607" lon="10.01523552598781"><ele>109.5</ele><time>2026-04-05T17:05:05Z</time></trkpt><trkpt lat="33.7382358333285" lon="10.015238703332344"><ele>109.0</ele><time>2026-04-05T17:05:06Z</time></trkpt><trkpt lat="33.73811303051045" lon="10.015240395104458"><ele>109.0</ele><time>2026-04-05T17:05:07Z</time></trkpt><trkpt lat="33.73799515400678" lon="10.015242451983678"><ele>109.0</ele><time>2026-04-05T17:05:08Z</time></trkpt><trkpt lat="33.737876141274555" lon="10.015241130573793"><ele>109.0</ele><time>2026-04-05T17:05:09Z</time></trkpt><trkpt lat="33.7377541836506" lon="10.015243044593136"><ele>109.0</ele><time>2026-04-05T17:05:10Z</time></trkpt><trkpt lat="33.73762996875043" lon="10.01524607267322"><ele>109.0</ele><time>2026-04-05T17:05:11Z</time></trkpt><trkpt lat="33.737507523471116" lon="10.015246329690061"><ele>109.0</ele><time>2026-04-05T17:05:12Z</time></trkpt><trkpt lat="33.73738326934482" lon="10.015246470370972"><ele>109.0</ele><time>2026-04-05T17:05:13Z</time></trkpt><trkpt lat="33.737254861191" lon="10.015245188213754"><ele>109.0</ele><time>2026-04-05T17:05:14Z</time></trkpt><trkpt lat="33.73712593696399" lon="10.015243740407895"><ele>109.0</ele><time>2026-04-05T17:05:15Z</time></trkpt><trkpt lat="33.73698814735991" lon="10.015243051260528"><ele>109.0</ele><time>2026-04-05T17:05:16Z</time></trkpt><trkpt lat="33.73684172058968" lon="10.015247384538691"><ele>109.0</ele><time>2026-04-05T17:05:17Z</time></trkpt><trkpt lat="33.73669067851482" lon="10.015251600938733"><ele>109.0</ele><time>2026-04-05T17:05:18Z</time></trkpt><trkpt lat="33.7365353916405" lon="10.015251002423051"><ele>108.0</ele><time>2026-04-05T17:05:19Z</time></trkpt><trkpt lat="33.7363794048777" lon="10.01525053237261"><ele>107.0</ele><time>2026-04-05T17:05:20Z</time></trkpt><trkpt lat="33.73622370027588" lon="10.015251272645584"><ele>106.0</ele><time>2026-04-05T17:05:21Z</time></trkpt><trkpt lat="33.73607711960793" lon="10.01525242470821"><ele>106.0</ele><time>2026-04-05T17:05:22Z</time></trkpt><trkpt lat="33.73594162856688" lon="10.015253080187943"><ele>106.0</ele><time>2026-04-05T17:05:23Z</time></trkpt><trkpt lat="33.73582029772372" lon="10.0152519688831"><ele>106.0</ele><time>2026-04-05T17:05:24Z</time></trkpt><trkpt lat="33.7357331426001" lon="10.015250223341774"><ele>106.0</ele><time>2026-04-05T17:05:25Z</time></trkpt><trkpt lat="33.73564450404651" lon="10.015258892645548"><ele>106.0</ele><time>2026-04-05T17:05:28Z</time></trkpt><trkpt lat="33.73556631346742" lon="10.015262382830981"><ele>106.0</ele><time>2026-04-05T17:05:31Z</time></trkpt><trkpt lat="33.735493636759145" lon="10.015262155234424"><ele>106.0</ele><time>2026-04-05T17:05:33Z</time></trkpt><trkpt lat="33.735427168191066" lon="10.015258381520395"><ele>106.0</ele><time>2026-04-05T17:05:34Z</time></trkpt><trkpt lat="33.735335209524514" lon="10.015256651476768"><ele>106.0</ele><time>2026-04-05T17:05:35Z</time></trkpt><trkpt lat="33.73522331498899" lon="10.015260580025993"><ele>106.0</ele><time>2026-04-05T17:05:36Z</time></trkpt><trkpt lat="33.73510065924966" lon="10.01526522337438"><ele>105.66666666666667</ele><time>2026-04-05T17:05:37Z</time></trkpt><trkpt lat="33.73496302671728" lon="10.015272994481547"><ele>105.33333333333334</ele><time>2026-04-05T17:05:38Z</time></trkpt><trkpt lat="33.734811255100134" lon="10.01527601413662"><ele>105.0</ele><time>2026-04-05T17:05:39Z</time></trkpt><trkpt lat="33.734651071779446" lon="10.015264561982844"><ele>105.0</ele><time>2026-04-05T17:05:40Z</time></trkpt><trkpt lat="33.734496310871165" lon="10.015255948054588"><ele>105.0</ele><time>2026-04-05T17:05:41Z</time></trkpt><trkpt lat="33.73432464220051" lon="10.01525706448022"><ele>105.0</ele><time>2026-04-05T17:05:42Z</time></trkpt><trkpt lat="33.734140517777185" lon="10.01526127705691"><ele>105.0</ele><time>2026-04-05T17:05:43Z</time></trkpt><trkpt lat="33.73394739913525" lon="10.015260902744728"><ele>105.0</ele><time>2026-04-05T17:05:44Z</time></trkpt><trkpt lat="33.73374979430949" lon="10.015258277127367"><ele>105.0</ele><time>2026-04-05T17:05:45Z</time></trkpt><trkpt lat="33.73356506753903" lon="10.015255306093296"><ele>104.0</ele><time>2026-04-05T17:05:46Z</time></trkpt><trkpt lat="33.73339412694478" lon="10.015252805357798"><ele>103.0</ele><time>2026-04-05T17:05:47Z</time></trkpt><trkpt lat="33.73323786428233" lon="10.01525035971486"><ele>102.0</ele><time>2026-04-05T17:05:48Z</time></trkpt><trkpt lat="33.733101419524836" lon="10.015247870392663"><ele>102.0</ele><time>2026-04-05T17:05:49Z</time></trkpt><trkpt lat="33.73298508567865" lon="10.015245171548978"><ele>102.0</ele><time>2026-04-05T17:05:50Z</time></trkpt><trkpt lat="33.73287803040909" lon="10.015240565452634"><ele>102.0</ele><time>2026-04-05T17:05:51Z</time></trkpt><trkpt lat="33.73277742957651" lon="10.015242239323157"><ele>102.0</ele><time>2026-04-05T17:05:52Z</time></trkpt><trkpt lat="33.73268571068653" lon="10.015243957618281"><ele>102.0</ele><time>2026-04-05T17:05:53Z</time></trkpt><trkpt lat="33.732595484714786" lon="10.015245690281473"><ele>102.5</ele><time>2026-04-05T17:05:54Z</time></trkpt><trkpt lat="33.732481516079694" lon="10.015246511639573"><ele>103.0</ele><time>2026-04-05T17:05:55Z</time></trkpt><trkpt lat="33.732356406270554" lon="10.015250216112698"><ele>103.5</ele><time>2026-04-05T17:05:56Z</time></trkpt><trkpt lat="33.732241708765514" lon="10.015251006758218"><ele>104.0</ele><time>2026-04-05T17:05:56.999Z</time></trkpt><trkpt lat="33.732133389354196" lon="10.015251239556761"><ele>104.0</ele><time>2026-04-05T17:05:57.999Z</time></trkpt><trkpt lat="33.7320178664466" lon="10.01525250400923"><ele>104.0</ele><time>2026-04-05T17:05:58.999Z</time></trkpt><trkpt lat="33.73189433806066" lon="10.015257399259418"><ele>104.0</ele><time>2026-04-05T17:05:59.999Z</time></trkpt><trkpt lat="33.73176533820907" lon="10.015260134773094"><ele>104.0</ele><time>2026-04-05T17:06:00.999Z</time></trkpt><trkpt lat="33.731635193301635" lon="10.015261995113537"><ele>104.0</ele><time>2026-04-05T17:06:01.999Z</time></trkpt><trkpt lat="33.731501084239255" lon="10.01526315351041"><ele>104.0</ele><time>2026-04-05T17:06:02.999Z</time></trkpt><trkpt lat="33.73136256119402" lon="10.015263419751241"><ele>104.0</ele><time>2026-04-05T17:06:03.999Z</time></trkpt><trkpt lat="33.73121679175194" lon="10.01526289225278"><ele>104.0</ele><time>2026-04-05T17:06:04.999Z</time></trkpt><trkpt lat="33.731064361554864" lon="10.015262659093185"><ele>103.75</ele><time>2026-04-05T17:06:05.999Z</time></trkpt><trkpt lat="33.73091100350279" lon="10.015261084389541"><ele>103.5</ele><time>2026-04-05T17:06:06.999Z</time></trkpt><trkpt lat="33.73076358295263" lon="10.015259775205047"><ele>103.25</ele><time>2026-04-05T17:06:07.999Z</time></trkpt><trkpt lat="33.73062699832702" lon="10.015257970678094"><ele>103.0</ele><time>2026-04-05T17:06:08.999Z</time></trkpt><trkpt lat="33.730493102736986" lon="10.015260099249215"><ele>103.0</ele><time>2026-04-05T17:06:09.999Z</time></trkpt><trkpt lat="33.73035417511084" lon="10.015261433230997"><ele>103.0</ele><time>2026-04-05T17:06:11Z</time></trkpt><trkpt lat="33.73021317014754" lon="10.01526135955352"><ele>103.0</ele><time>2026-04-05T17:06:12Z</time></trkpt><trkpt lat="33.730064643258714" lon="10.015261336412301"><ele>103.0</ele><time>2026-04-05T17:06:13Z</time></trkpt><trkpt lat="33.72991574347501" lon="10.015260076294725"><ele>103.0</ele><time>2026-04-05T17:06:14Z</time></trkpt><trkpt lat="33.729766558077024" lon="10.015260672001865"><ele>103.0</ele><time>2026-04-05T17:06:15Z</time></trkpt><trkpt lat="33.72961606230526" lon="10.015259784375434"><ele>103.0</ele><time>2026-04-05T17:06:16Z</time></trkpt><trkpt lat="33.72946015703778" lon="10.015258785994055"><ele>103.0</ele><time>2026-04-05T17:06:17Z</time></trkpt><trkpt lat="33.729295129546635" lon="10.015257050996489"><ele>103.0</ele><time>2026-04-05T17:06:18Z</time></trkpt><trkpt lat="33.72912377693787" lon="10.015259083745963"><ele>103.0</ele><time>2026-04-05T17:06:19Z</time></trkpt><trkpt lat="33.72894739679324" lon="10.015258985641506"><ele>103.0</ele><time>2026-04-05T17:06:20Z</time></trkpt><trkpt lat="33.72877005446042" lon="10.01526085808392"><ele>103.0</ele><time>2026-04-05T17:06:21Z</time></trkpt><trkpt lat="33.728585411273016" lon="10.01526401713683"><ele>103.0</ele><time>2026-04-05T17:06:22Z</time></trkpt><trkpt lat="33.72839615070039" lon="10.015264795233158"><ele>103.0</ele><time>2026-04-05T17:06:23Z</time></trkpt><trkpt lat="33.72820205056121" lon="10.015263618790009"><ele>103.0</ele><time>2026-04-05T17:06:24Z</time></trkpt><trkpt lat="33.72800787626711" lon="10.015262079539793"><ele>103.0</ele><time>2026-04-05T17:06:25Z</time></trkpt><trkpt lat="33.727813571294085" lon="10.015260344190569"><ele>102.66666666666667</ele><time>2026-04-05T17:06:26Z</time></trkpt><trkpt lat="33.72761923856965" lon="10.015260582529852"><ele>102.33333333333334</ele><time>2026-04-05T17:06:27Z</time></trkpt><trkpt lat="33.72742663775387" lon="10.015261766734106"><ele>102.0</ele><time>2026-04-05T17:06:28Z</time></trkpt><trkpt lat="33.727233043317696" lon="10.015263801575319"><ele>102.0</ele><time>2026-04-05T17:06:29Z</time></trkpt><trkpt lat="33.72704066163653" lon="10.015266973165213"><ele>102.0</ele><time>2026-04-05T17:06:30Z</time></trkpt><trkpt lat="33.72684530402404" lon="10.015266496015501"><ele>102.0</ele><time>2026-04-05T17:06:31Z</time></trkpt><trkpt lat="33.726649706161304" lon="10.015270093513509"><ele>101.0</ele><time>2026-04-05T17:06:32Z</time></trkpt><trkpt lat="33.72645152069226" lon="10.015274954676887"><ele>100.0</ele><time>2026-04-05T17:06:33Z</time></trkpt><trkpt lat="33.7262525413883" lon="10.015277454361003"><ele>99.0</ele><time>2026-04-05T17:06:34Z</time></trkpt><trkpt lat="33.72604673002192" lon="10.015275335049896"><ele>98.66666666666666</ele><time>2026-04-05T17:06:35Z</time></trkpt><trkpt lat="33.72584059713765" lon="10.015279509638615"><ele>98.33333333333333</ele><time>2026-04-05T17:06:36Z</time></trkpt><trkpt lat="33.72563626223881" lon="10.01528373861554"><ele>98.0</ele><time>2026-04-05T17:06:37Z</time></trkpt><trkpt lat="33.72542812046287" lon="10.01528407015762"><ele>98.0</ele><time>2026-04-05T17:06:38Z</time></trkpt><trkpt lat="33.72523310208814" lon="10.015283557349239"><ele>98.0</ele><time>2026-04-05T17:06:39Z</time></trkpt><trkpt lat="33.725033691454605" lon="10.015280262348247"><ele>98.0</ele><time>2026-04-05T17:06:40Z</time></trkpt><trkpt lat="33.72483734813933" lon="10.015279406300161"><ele>98.0</ele><time>2026-04-05T17:06:41Z</time></trkpt><trkpt lat="33.72464349006023" lon="10.01527594107758"><ele>98.0</ele><time>2026-04-05T17:06:42Z</time></trkpt><trkpt lat="33.72444553508636" lon="10.015278863414371"><ele>98.0</ele><time>2026-04-05T17:06:43Z</time></trkpt><trkpt lat="33.72424469789147" lon="10.015282186592518"><ele>99.0</ele><time>2026-04-05T17:06:44Z</time></trkpt><trkpt lat="33.72403951440427" lon="10.015283314247869"><ele>100.0</ele><time>2026-04-05T17:06:45Z</time></trkpt><trkpt lat="33.723834045247855" lon="10.015285061064729"><ele>101.0</ele><time>2026-04-05T17:06:46Z</time></trkpt><trkpt lat="33.72362364399237" lon="10.015283233738604"><ele>102.0</ele><time>2026-04-05T17:06:47Z</time></trkpt><trkpt lat="33.723404713114114" lon="10.015284521215332"><ele>103.0</ele><time>2026-04-05T17:06:48Z</time></trkpt><trkpt lat="33.723174085118316" lon="10.015287546719989"><ele>103.0</ele><time>2026-04-05T17:06:49Z</time></trkpt><trkpt lat="33.72295023647506" lon="10.015291632224553"><ele>103.0</ele><time>2026-04-05T17:06:50Z</time></trkpt><trkpt lat="33.72274039966314" lon="10.01528945087559"><ele>103.0</ele><time>2026-04-05T17:06:51Z</time></trkpt><trkpt lat="33.72253295695767" lon="10.015285646824402"><ele>102.33333333333334</ele><time>2026-04-05T17:06:52Z</time></trkpt><trkpt lat="33.72232876938964" lon="10.01528531010368"><ele>101.66666666666666</ele><time>2026-04-05T17:06:53Z</time></trkpt><trkpt lat="33.72213793033183" lon="10.015286633182294"><ele>101.0</ele><time>2026-04-05T17:06:54Z</time></trkpt><trkpt lat="33.72194690611956" lon="10.015288192470408"><ele>101.0</ele><time>2026-04-05T17:06:55Z</time></trkpt><trkpt lat="33.72175874419613" lon="10.01529098112432"><ele>101.0</ele><time>2026-04-05T17:06:56Z</time></trkpt><trkpt lat="33.72157126295413" lon="10.015291131698913"><ele>101.0</ele><time>2026-04-05T17:06:57Z</time></trkpt><trkpt lat="33.721395180672715" lon="10.015291758643594"><ele>101.0</ele><time>2026-04-05T17:06:58Z</time></trkpt><trkpt lat="33.72123690709507" lon="10.015294766215023"><ele>101.0</ele><time>2026-04-05T17:06:59Z</time></trkpt><trkpt lat="33.72108173339339" lon="10.01529748395504"><ele>101.0</ele><time>2026-04-05T17:07:00Z</time></trkpt><trkpt lat="33.72092493442128" lon="10.01529929530995"><ele>100.66666666666666</ele><time>2026-04-05T17:07:01Z</time></trkpt><trkpt lat="33.72076456299147" lon="10.015301538128668"><ele>100.33333333333334</ele><time>2026-04-05T17:07:02Z</time></trkpt><trkpt lat="33.720601030963564" lon="10.015300490342463"><ele>100.0</ele><time>2026-04-05T17:07:03Z</time></trkpt><trkpt lat="33.72042734467071" lon="10.015304452858624"><ele>100.0</ele><time>2026-04-05T17:07:04Z</time></trkpt><trkpt lat="33.72024204231667" lon="10.015305324551047"><ele>100.0</ele><time>2026-04-05T17:07:05Z</time></trkpt><trkpt lat="33.72005103497597" lon="10.015304243025993"><ele>100.0</ele><time>2026-04-05T17:07:06Z</time></trkpt><trkpt lat="33.7198611570902" lon="10.015303111481932"><ele>100.66666666666667</ele><time>2026-04-05T17:07:07Z</time></trkpt><trkpt lat="33.719663762200966" lon="10.015298902398575"><ele>101.33333333333334</ele><time>2026-04-05T17:07:08Z</time></trkpt><trkpt lat="33.7194691048388" lon="10.015296293409472"><ele>102.0</ele><time>2026-04-05T17:07:09Z</time></trkpt><trkpt lat="33.71927091310553" lon="10.015296478981261"><ele>102.33333333333334</ele><time>2026-04-05T17:07:10Z</time></trkpt><trkpt lat="33.71906889243601" lon="10.015298232758498"><ele>102.66666666666667</ele><time>2026-04-05T17:07:11Z</time></trkpt><trkpt lat="33.718864905582144" lon="10.015304025342529"><ele>103.0</ele><time>2026-04-05T17:07:12Z</time></trkpt><trkpt lat="33.71865255856651" lon="10.015305622550114"><ele>102.33333333333334</ele><time>2026-04-05T17:07:13Z</time></trkpt><trkpt lat="33.71844933251254" lon="10.015303603401032"><ele>101.66666666666666</ele><time>2026-04-05T17:07:14Z</time></trkpt><trkpt lat="33.718244661934555" lon="10.015301591725626"><ele>101.0</ele><time>2026-04-05T17:07:15Z</time></trkpt><trkpt lat="33.71804409620108" lon="10.015302237067933"><ele>101.0</ele><time>2026-04-05T17:07:16Z</time></trkpt><trkpt lat="33.7178407625487" lon="10.015299269681305"><ele>101.0</ele><time>2026-04-05T17:07:17Z</time></trkpt><trkpt lat="33.717645369908425" lon="10.015299416513503"><ele>101.0</ele><time>2026-04-05T17:07:18Z</time></trkpt><trkpt lat="33.71745687565718" lon="10.015304819527781"><ele>101.66666666666666</ele><time>2026-04-05T17:07:19Z</time></trkpt><trkpt lat="33.71727041865811" lon="10.015306157143272"><ele>102.33333333333334</ele><time>2026-04-05T17:07:20Z</time></trkpt><trkpt lat="33.71707920669484" lon="10.015306078729608"><ele>103.0</ele><time>2026-04-05T17:07:21Z</time></trkpt><trkpt lat="33.71688334192584" lon="10.015305450509526"><ele>103.66666666666667</ele><time>2026-04-05T17:07:22Z</time></trkpt><trkpt lat="33.716688918035025" lon="10.015306201306412"><ele>104.33333333333334</ele><time>2026-04-05T17:07:23Z</time></trkpt><trkpt lat="33.71650419621576" lon="10.015304804944643"><ele>105.0</ele><time>2026-04-05T17:07:24Z</time></trkpt><trkpt lat="33.71632157654543" lon="10.01530755388701"><ele>105.0</ele><time>2026-04-05T17:07:25Z</time></trkpt><trkpt lat="33.71614033493301" lon="10.015308983165914"><ele>105.0</ele><time>2026-04-05T17:07:26Z</time></trkpt><trkpt lat="33.71595800471796" lon="10.015310574504104"><ele>105.0</ele><time>2026-04-05T17:07:27Z</time></trkpt><trkpt lat="33.715770678341315" lon="10.01530777066629"><ele>105.0</ele><time>2026-04-05T17:07:28Z</time></trkpt><trkpt lat="33.715575771441294" lon="10.015304919276959"><ele>105.0</ele><time>2026-04-05T17:07:29Z</time></trkpt><trkpt lat="33.715373389361396" lon="10.015306522267592"><ele>105.0</ele><time>2026-04-05T17:07:30Z</time></trkpt><trkpt lat="33.71516557763422" lon="10.015312894884868"><ele>104.66666666666666</ele><time>2026-04-05T17:07:31Z</time></trkpt><trkpt lat="33.714948922357706" lon="10.015314952982488"><ele>104.33333333333333</ele><time>2026-04-05T17:07:32Z</time></trkpt><trkpt lat="33.7147310843367" lon="10.015314551772176"><ele>104.0</ele><time>2026-04-05T17:07:33Z</time></trkpt><trkpt lat="33.71451529162766" lon="10.015315960731707"><ele>104.33333333333333</ele><time>2026-04-05T17:07:34Z</time></trkpt><trkpt lat="33.71429984943119" lon="10.015316835766956"><ele>104.66666666666666</ele><time>2026-04-05T17:07:35Z</time></trkpt><trkpt lat="33.71408008961503" lon="10.015315887455692"><ele>105.0</ele><time>2026-04-05T17:07:35.999Z</time></trkpt><trkpt lat="33.71386159684057" lon="10.015316136071698"><ele>105.0</ele><time>2026-04-05T17:07:36.999Z</time></trkpt><trkpt lat="33.71363990047974" lon="10.015315962241228"><ele>105.0</ele><time>2026-04-05T17:07:37.999Z</time></trkpt><trkpt lat="33.71342123472246" lon="10.015318959193111"><ele>105.0</ele><time>2026-04-05T17:07:38.999Z</time></trkpt><trkpt lat="33.71320377953144" lon="10.015318709542933"><ele>104.66666666666666</ele><time>2026-04-05T17:07:39.999Z</time></trkpt><trkpt lat="33.71299431837597" lon="10.01531884033667"><ele>104.33333333333333</ele><time>2026-04-05T17:07:40.999Z</time></trkpt><trkpt lat="33.712787866817536" lon="10.015317144602347"><ele>104.0</ele><time>2026-04-05T17:07:41.999Z</time></trkpt><trkpt lat="33.71258154832504" lon="10.015315484978542"><ele>103.66666666666666</ele><time>2026-04-05T17:07:42.999Z</time></trkpt><trkpt lat="33.71237382545917" lon="10.015319343305501"><ele>103.33333333333334</ele><time>2026-04-05T17:07:43.999Z</time></trkpt><trkpt lat="33.71216763784685" lon="10.015318421728512"><ele>103.0</ele><time>2026-04-05T17:07:44.999Z</time></trkpt><trkpt lat="33.71195799560637" lon="10.015317854874729"><ele>103.33333333333334</ele><time>2026-04-05T17:07:45.999Z</time></trkpt><trkpt lat="33.71175479393612" lon="10.015319273530809"><ele>103.66666666666666</ele><time>2026-04-05T17:07:46.999Z</time></trkpt><trkpt lat="33.71155485935722" lon="10.015316029552453"><ele>104.0</ele><time>2026-04-05T17:07:47.999Z</time></trkpt><trkpt lat="33.7113572054557" lon="10.015317546762807"><ele>104.0</ele><time>2026-04-05T17:07:48.999Z</time></trkpt><trkpt lat="33.711163549916414" lon="10.015319967302599"><ele>104.0</ele><time>2026-04-05T17:07:49.999Z</time></trkpt><trkpt lat="33.71097195660461" lon="10.015319239023738"><ele>104.0</ele><time>2026-04-05T17:07:50.999Z</time></trkpt><trkpt lat="33.710781633387384" lon="10.015312441270456"><ele>104.66666666666666</ele><time>2026-04-05T17:07:51.999Z</time></trkpt><trkpt lat="33.71058725650103" lon="10.015312735891909"><ele>105.33333333333334</ele><time>2026-04-05T17:07:52.999Z</time></trkpt><trkpt lat="33.71040037122496" lon="10.015315209123925"><ele>106.0</ele><time>2026-04-05T17:07:53.999Z</time></trkpt><trkpt lat="33.71021666197281" lon="10.015317749078852"><ele>106.0</ele><time>2026-04-05T17:07:54.999Z</time></trkpt><trkpt lat="33.71003683218165" lon="10.015322167874192"><ele>106.0</ele><time>2026-04-05T17:07:55.999Z</time></trkpt><trkpt lat="33.70985249912263" lon="10.015325879083449"><ele>106.0</ele><time>2026-04-05T17:07:56.999Z</time></trkpt><trkpt lat="33.70965894585575" lon="10.015330665381807"><ele>106.0</ele><time>2026-04-05T17:07:57.999Z</time></trkpt><trkpt lat="33.7094589870315" lon="10.015331419695833"><ele>106.0</ele><time>2026-04-05T17:07:58.999Z</time></trkpt><trkpt lat="33.70924469769337" lon="10.015331512503982"><ele>106.0</ele><time>2026-04-05T17:07:59.999Z</time></trkpt><trkpt lat="33.709024462358876" lon="10.015328804416745"><ele>106.0</ele><time>2026-04-05T17:08:00.999Z</time></trkpt><trkpt lat="33.70879857907844" lon="10.015328112350605"><ele>106.0</ele><time>2026-04-05T17:08:01.999Z</time></trkpt><trkpt lat="33.70856828754517" lon="10.015326146945695"><ele>106.0</ele><time>2026-04-05T17:08:02.999Z</time></trkpt><trkpt lat="33.70833521288961" lon="10.01532169237201"><ele>106.0</ele><time>2026-04-05T17:08:03.999Z</time></trkpt><trkpt lat="33.70811058967839" lon="10.015322193638154"><ele>106.0</ele><time>2026-04-05T17:08:04.999Z</time></trkpt><trkpt lat="33.70788428102723" lon="10.015323710055778"><ele>106.0</ele><time>2026-04-05T17:08:05.999Z</time></trkpt><trkpt lat="33.7076520364376" lon="10.015327859687776"><ele>105.0</ele><time>2026-04-05T17:08:06.999Z</time></trkpt><trkpt lat="33.707422107945845" lon="10.015332161749757"><ele>104.0</ele><time>2026-04-05T17:08:07.999Z</time></trkpt><trkpt lat="33.70719292022899" lon="10.015333232070157"><ele>104.0</ele><time>2026-04-05T17:08:08.999Z</time></trkpt><trkpt lat="33.70695786281464" lon="10.015336399398743"><ele>104.0</ele><time>2026-04-05T17:08:09.999Z</time></trkpt><trkpt lat="33.70672332125204" lon="10.015339843819108"><ele>104.0</ele><time>2026-04-05T17:08:10.999Z</time></trkpt><trkpt lat="33.706484846528625" lon="10.015339517306469"><ele>104.0</ele><time>2026-04-05T17:08:11.999Z</time></trkpt><trkpt lat="33.706249750535065" lon="10.015339051583677"><ele>104.5</ele><time>2026-04-05T17:08:12.999Z</time></trkpt><trkpt lat="33.706017696698574" lon="10.015340060397795"><ele>105.0</ele><time>2026-04-05T17:08:13.999Z</time></trkpt><trkpt lat="33.705782360168776" lon="10.015339277753018"><ele>105.0</ele><time>2026-04-05T17:08:14.999Z</time></trkpt><trkpt lat="33.70555030013125" lon="10.015338933011233"><ele>105.0</ele><time>2026-04-05T17:08:15.999Z</time></trkpt><trkpt lat="33.70531114607023" lon="10.015336841412042"><ele>103.5</ele><time>2026-04-05T17:08:17Z</time></trkpt><trkpt lat="33.70506665476075" lon="10.015336383268934"><ele>102.0</ele><time>2026-04-05T17:08:18Z</time></trkpt><trkpt lat="33.70482437847556" lon="10.015337814647303"><ele>102.0</ele><time>2026-04-05T17:08:19Z</time></trkpt><trkpt lat="33.70458277741488" lon="10.015341230523369"><ele>102.0</ele><time>2026-04-05T17:08:20Z</time></trkpt><trkpt lat="33.70434472305966" lon="10.015341189042967"><ele>101.5</ele><time>2026-04-05T17:08:21Z</time></trkpt><trkpt lat="33.704108353841576" lon="10.015341072264576"><ele>101.0</ele><time>2026-04-05T17:08:22Z</time></trkpt><trkpt lat="33.70387719926661" lon="10.015346366983675"><ele>101.0</ele><time>2026-04-05T17:08:23Z</time></trkpt><trkpt lat="33.70364409429539" lon="10.01534751548447"><ele>101.0</ele><time>2026-04-05T17:08:24Z</time></trkpt><trkpt lat="33.70341912135477" lon="10.015351052071022"><ele>101.33333333333333</ele><time>2026-04-05T17:08:25Z</time></trkpt><trkpt lat="33.70320629308361" lon="10.01534766847334"><ele>101.66666666666666</ele><time>2026-04-05T17:08:26Z</time></trkpt><trkpt lat="33.703002523551355" lon="10.015349095748773"><ele>102.0</ele><time>2026-04-05T17:08:27Z</time></trkpt><trkpt lat="33.702803248048966" lon="10.015350985404266"><ele>102.0</ele><time>2026-04-05T17:08:28Z</time></trkpt><trkpt lat="33.70260641146757" lon="10.015353261277255"><ele>102.0</ele><time>2026-04-05T17:08:29Z</time></trkpt><trkpt lat="33.702400569307784" lon="10.015353590255312"><ele>102.0</ele><time>2026-04-05T17:08:30Z</time></trkpt><trkpt lat="33.70219114536354" lon="10.015352344537895"><ele>102.0</ele><time>2026-04-05T17:08:31Z</time></trkpt><trkpt lat="33.701977135224446" lon="10.015355405094882"><ele>102.0</ele><time>2026-04-05T17:08:32Z</time></trkpt><trkpt lat="33.7017602259735" lon="10.015359280514835"><ele>102.0</ele><time>2026-04-05T17:08:33Z</time></trkpt><trkpt lat="33.70153031327836" lon="10.01535952984015"><ele>102.5</ele><time>2026-04-05T17:08:34Z</time></trkpt><trkpt lat="33.701294818610265" lon="10.015359142801255"><ele>103.0</ele><time>2026-04-05T17:08:35Z</time></trkpt><trkpt lat="33.7010520971949" lon="10.015356019065692"><ele>104.0</ele><time>2026-04-05T17:08:36Z</time></trkpt><trkpt lat="33.70080288490596" lon="10.015352730947736"><ele>105.0</ele><time>2026-04-05T17:08:37Z</time></trkpt><trkpt lat="33.700553223172186" lon="10.01535052410467"><ele>105.0</ele><time>2026-04-05T17:08:38Z</time></trkpt><trkpt lat="33.700302304179836" lon="10.01535262128732"><ele>105.0</ele><time>2026-04-05T17:08:39Z</time></trkpt><trkpt lat="33.70005039768406" lon="10.015351002180665"><ele>105.5</ele><time>2026-04-05T17:08:40Z</time></trkpt><trkpt lat="33.69979992577825" lon="10.015351973039891"><ele>106.0</ele><time>2026-04-05T17:08:41Z</time></trkpt><trkpt lat="33.69955541159882" lon="10.015354885697318"><ele>106.0</ele><time>2026-04-05T17:08:42Z</time></trkpt><trkpt lat="33.699309197416504" lon="10.015355115408498"><ele>106.0</ele><time>2026-04-05T17:08:43Z</time></trkpt><trkpt lat="33.699062193766025" lon="10.015353417810761"><ele>106.0</ele><time>2026-04-05T17:08:44Z</time></trkpt><trkpt lat="33.698818155157646" lon="10.015354746716005"><ele>106.0</ele><time>2026-04-05T17:08:45Z</time></trkpt><trkpt lat="33.69857832119317" lon="10.015354311529673"><ele>107.0</ele><time>2026-04-05T17:08:46Z</time></trkpt><trkpt lat="33.698340582501494" lon="10.015359203267131"><ele>108.0</ele><time>2026-04-05T17:08:47Z</time></trkpt><trkpt lat="33.6981023999949" lon="10.015361423291319"><ele>108.0</ele><time>2026-04-05T17:08:48Z</time></trkpt><trkpt lat="33.69786832891123" lon="10.015362345483673"><ele>108.0</ele><time>2026-04-05T17:08:49Z</time></trkpt><trkpt lat="33.69763861629116" lon="10.015362671622107"><ele>108.5</ele><time>2026-04-05T17:08:49.999Z</time></trkpt><trkpt lat="33.69740368552339" lon="10.015358803006114"><ele>109.0</ele><time>2026-04-05T17:08:50.999Z</time></trkpt><trkpt lat="33.6971686654045" lon="10.015358094313855"><ele>109.0</ele><time>2026-04-05T17:08:51.999Z</time></trkpt><trkpt lat="33.69692879696379" lon="10.015358239277923"><ele>109.0</ele><time>2026-04-05T17:08:52.999Z</time></trkpt><trkpt lat="33.69669100381331" lon="10.015359776852398"><ele>109.0</ele><time>2026-04-05T17:08:53.999Z</time></trkpt><trkpt lat="33.69645201275132" lon="10.015363370506028"><ele>109.0</ele><time>2026-04-05T17:08:54.999Z</time></trkpt><trkpt lat="33.69622216276045" lon="10.015361290889704"><ele>109.0</ele><time>2026-04-05T17:08:55.999Z</time></trkpt><trkpt lat="33.69600394323619" lon="10.015362341698637"><ele>109.0</ele><time>2026-04-05T17:08:56.999Z</time></trkpt><trkpt lat="33.695792004212244" lon="10.015361503178601"><ele>109.0</ele><time>2026-04-05T17:08:57.999Z</time></trkpt><trkpt lat="33.69557617243537" lon="10.01536614345468"><ele>109.0</ele><time>2026-04-05T17:08:58.999Z</time></trkpt><trkpt lat="33.69536228040639" lon="10.015369438608468"><ele>109.0</ele><time>2026-04-05T17:08:59.999Z</time></trkpt><trkpt lat="33.69514573528267" lon="10.01537216076912"><ele>109.0</ele><time>2026-04-05T17:09:00.999Z</time></trkpt><trkpt lat="33.69492883252868" lon="10.015372030333936"><ele>109.33333333333334</ele><time>2026-04-05T17:09:01.999Z</time></trkpt><trkpt lat="33.6947100340999" lon="10.015367371676037"><ele>109.66666666666666</ele><time>2026-04-05T17:09:02.999Z</time></trkpt><trkpt lat="33.69448617118087" lon="10.015359903030756"><ele>110.0</ele><time>2026-04-05T17:09:03.999Z</time></trkpt><trkpt lat="33.69425999820778" lon="10.015358970335697"><ele>110.0</ele><time>2026-04-05T17:09:04.999Z</time></trkpt><trkpt lat="33.694037692534884" lon="10.01535939630722"><ele>110.0</ele><time>2026-04-05T17:09:05.999Z</time></trkpt><trkpt lat="33.69381748187022" lon="10.015361567616766"><ele>110.0</ele><time>2026-04-05T17:09:06.999Z</time></trkpt><trkpt lat="33.69359653726991" lon="10.015364619953782"><ele>110.66666666666666</ele><time>2026-04-05T17:09:07.999Z</time></trkpt><trkpt lat="33.69337317725762" lon="10.015369705403371"><ele>111.33333333333334</ele><time>2026-04-05T17:09:08.999Z</time></trkpt><trkpt lat="33.693149101762" lon="10.015376228033164"><ele>112.0</ele><time>2026-04-05T17:09:09.999Z</time></trkpt><trkpt lat="33.69291660435265" lon="10.01538348372935"><ele>112.0</ele><time>2026-04-05T17:09:10.999Z</time></trkpt><trkpt lat="33.69269304192084" lon="10.015384242478953"><ele>112.0</ele><time>2026-04-05T17:09:11.999Z</time></trkpt><trkpt lat="33.69245874751013" lon="10.01538272290037"><ele>112.0</ele><time>2026-04-05T17:09:12.999Z</time></trkpt><trkpt lat="33.69222467494563" lon="10.015377571800839"><ele>112.0</ele><time>2026-04-05T17:09:13.999Z</time></trkpt><trkpt lat="33.69199776038498" lon="10.015370756091617"><ele>112.33333333333334</ele><time>2026-04-05T17:09:14.999Z</time></trkpt><trkpt lat="33.69178856914659" lon="10.015369018218578"><ele>112.66666666666666</ele><time>2026-04-05T17:09:15.999Z</time></trkpt><trkpt lat="33.69158814420877" lon="10.015372753932429"><ele>113.0</ele><time>2026-04-05T17:09:16.999Z</time></trkpt><trkpt lat="33.691394567887336" lon="10.015376198097275"><ele>113.0</ele><time>2026-04-05T17:09:17.999Z</time></trkpt><trkpt lat="33.69119963924271" lon="10.015375522030835"><ele>113.0</ele><time>2026-04-05T17:09:18.999Z</time></trkpt><trkpt lat="33.69101048598463" lon="10.015375058886388"><ele>113.0</ele><time>2026-04-05T17:09:19.999Z</time></trkpt><trkpt lat="33.69083317203598" lon="10.015378699013977"><ele>113.0</ele><time>2026-04-05T17:09:20.999Z</time></trkpt><trkpt lat="33.69066022708247" lon="10.015381301243178"><ele>113.0</ele><time>2026-04-05T17:09:21.999Z</time></trkpt><trkpt lat="33.69048525668161" lon="10.015383904625347"><ele>113.0</ele><time>2026-04-05T17:09:22.999Z</time></trkpt><trkpt lat="33.69030534601648" lon="10.015382869390484"><ele>113.66666666666666</ele><time>2026-04-05T17:09:23.999Z</time></trkpt><trkpt lat="33.690121544544944" lon="10.015382260305376"><ele>114.33333333333334</ele><time>2026-04-05T17:09:24.999Z</time></trkpt><trkpt lat="33.68993010360276" lon="10.015381635387808"><ele>115.0</ele><time>2026-04-05T17:09:25.999Z</time></trkpt><trkpt lat="33.68973303965942" lon="10.015382477611698"><ele>115.0</ele><time>2026-04-05T17:09:26.999Z</time></trkpt><trkpt lat="33.68953035987091" lon="10.01538218597077"><ele>115.0</ele><time>2026-04-05T17:09:27.999Z</time></trkpt><trkpt lat="33.689320615435875" lon="10.01538263287877"><ele>115.0</ele><time>2026-04-05T17:09:28.999Z</time></trkpt><trkpt lat="33.68910946089969" lon="10.015382409453432"><ele>115.0</ele><time>2026-04-05T17:09:29.999Z</time></trkpt><trkpt lat="33.68889732695428" lon="10.015384967093123"><ele>115.0</ele><time>2026-04-05T17:09:30.999Z</time></trkpt><trkpt lat="33.6886890870386" lon="10.015385840156219"><ele>115.0</ele><time>2026-04-05T17:09:31.999Z</time></trkpt><trkpt lat="33.68848330195834" lon="10.015388865992513"><ele>115.66666666666667</ele><time>2026-04-05T17:09:32.999Z</time></trkpt><trkpt lat="33.68828944464387" lon="10.015389306783232"><ele>116.33333333333334</ele><time>2026-04-05T17:09:33.999Z</time></trkpt><trkpt lat="33.688096314133396" lon="10.015386677293073"><ele>117.0</ele><time>2026-04-05T17:09:34.999Z</time></trkpt><trkpt lat="33.68789500472988" lon="10.015383497912868"><ele>117.0</ele><time>2026-04-05T17:09:35.999Z</time></trkpt><trkpt lat="33.68769352613109" lon="10.015382160444814"><ele>117.0</ele><time>2026-04-05T17:09:36.999Z</time></trkpt><trkpt lat="33.68748930918843" lon="10.015382182138504"><ele>117.0</ele><time>2026-04-05T17:09:37.999Z</time></trkpt><trkpt lat="33.68728182538782" lon="10.015379011829772"><ele>117.0</ele><time>2026-04-05T17:09:38.999Z</time></trkpt><trkpt lat="33.687080808145765" lon="10.015380621010879"><ele>117.0</ele><time>2026-04-05T17:09:39.999Z</time></trkpt><trkpt lat="33.68688616039175" lon="10.015384109062575"><ele>117.0</ele><time>2026-04-05T17:09:40.999Z</time></trkpt><trkpt lat="33.68670172195581" lon="10.015388973862693"><ele>117.33333333333334</ele><time>2026-04-05T17:09:41.999Z</time></trkpt><trkpt lat="33.68652544952517" lon="10.01539321831506"><ele>117.66666666666667</ele><time>2026-04-05T17:09:42.999Z</time></trkpt><trkpt lat="33.68635559084107" lon="10.015390116103285"><ele>118.0</ele><time>2026-04-05T17:09:43.999Z</time></trkpt><trkpt lat="33.68618351711102" lon="10.015390265591405"><ele>117.66666666666667</ele><time>2026-04-05T17:09:44.999Z</time></trkpt><trkpt lat="33.68601321910415" lon="10.01539152416057"><ele>117.33333333333334</ele><time>2026-04-05T17:09:45.999Z</time></trkpt><trkpt lat="33.68583347302159" lon="10.01539023785706"><ele>117.0</ele><time>2026-04-05T17:09:46.999Z</time></trkpt><trkpt lat="33.68564260078907" lon="10.01538710984196"><ele>117.0</ele><time>2026-04-05T17:09:47.999Z</time></trkpt><trkpt lat="33.68544407958738" lon="10.015385531772306"><ele>117.0</ele><time>2026-04-05T17:09:48.999Z</time></trkpt><trkpt lat="33.68524628545882" lon="10.015385782928249"><ele>117.0</ele><time>2026-04-05T17:09:49.999Z</time></trkpt><trkpt lat="33.685047034567816" lon="10.015386080041887"><ele>118.0</ele><time>2026-04-05T17:09:50.999Z</time></trkpt><trkpt lat="33.684848203885295" lon="10.01538745308061"><ele>119.0</ele><time>2026-04-05T17:09:51.999Z</time></trkpt><trkpt lat="33.68464869683903" lon="10.01538912090576"><ele>120.0</ele><time>2026-04-05T17:09:52.999Z</time></trkpt><trkpt lat="33.68444718852103" lon="10.015387999139193"><ele>119.66666666666666</ele><time>2026-04-05T17:09:53.999Z</time></trkpt><trkpt lat="33.68424876610777" lon="10.015392277675591"><ele>119.33333333333333</ele><time>2026-04-05T17:09:54.999Z</time></trkpt><trkpt lat="33.68404473520366" lon="10.015388950365129"><ele>119.0</ele><time>2026-04-05T17:09:55.999Z</time></trkpt><trkpt lat="33.683842731696735" lon="10.015388686322664"><ele>119.0</ele><time>2026-04-05T17:09:56.999Z</time></trkpt><trkpt lat="33.68363669751928" lon="10.015390372706598"><ele>119.0</ele><time>2026-04-05T17:09:57.999Z</time></trkpt><trkpt lat="33.68342946964792" lon="10.0153880001303"><ele>119.0</ele><time>2026-04-05T17:09:58.999Z</time></trkpt><trkpt lat="33.683221269037205" lon="10.015387051563248"><ele>119.0</ele><time>2026-04-05T17:09:59.999Z</time></trkpt><trkpt lat="33.68300686217765" lon="10.015388201781866"><ele>119.0</ele><time>2026-04-05T17:10:00.999Z</time></trkpt><trkpt lat="33.68279143694777" lon="10.015386271174046"><ele>119.0</ele><time>2026-04-05T17:10:01.999Z</time></trkpt><trkpt lat="33.68257957139913" lon="10.015386450454125"><ele>119.33333333333333</ele><time>2026-04-05T17:10:02.999Z</time></trkpt><trkpt lat="33.682361942954635" lon="10.015390599565839"><ele>119.66666666666666</ele><time>2026-04-05T17:10:03.999Z</time></trkpt><trkpt lat="33.68214539940314" lon="10.01539201204837"><ele>120.0</ele><time>2026-04-05T17:10:04.999Z</time></trkpt><trkpt lat="33.68193469524985" lon="10.015397157483322"><ele>120.0</ele><time>2026-04-05T17:10:05.999Z</time></trkpt><trkpt lat="33.681719351420334" lon="10.015401035156067"><ele>120.0</ele><time>2026-04-05T17:10:06.999Z</time></trkpt><trkpt lat="33.681510634242315" lon="10.015398983028168"><ele>120.0</ele><time>2026-04-05T17:10:07.999Z</time></trkpt><trkpt lat="33.68131304471579" lon="10.01540325722589"><ele>120.0</ele><time>2026-04-05T17:10:08.999Z</time></trkpt><trkpt lat="33.681127780984866" lon="10.015403986466756"><ele>120.0</ele><time>2026-04-05T17:10:09.999Z</time></trkpt><trkpt lat="33.68094885334857" lon="10.015400424113874"><ele>120.0</ele><time>2026-04-05T17:10:10.999Z</time></trkpt><trkpt lat="33.68077036616151" lon="10.015396512563203"><ele>120.0</ele><time>2026-04-05T17:10:11.999Z</time></trkpt><trkpt lat="33.68059592540742" lon="10.015395365822002"><ele>120.0</ele><time>2026-04-05T17:10:12.999Z</time></trkpt><trkpt lat="33.68042344900197" lon="10.015395858468624"><ele>120.0</ele><time>2026-04-05T17:10:13.999Z</time></trkpt><trkpt lat="33.680250497922586" lon="10.015397647830731"><ele>121.0</ele><time>2026-04-05T17:10:14.999Z</time></trkpt><trkpt lat="33.68007683150003" lon="10.01540091663459"><ele>122.0</ele><time>2026-04-05T17:10:15.999Z</time></trkpt><trkpt lat="33.67990200878744" lon="10.01540315039524"><ele>123.0</ele><time>2026-04-05T17:10:16.999Z</time></trkpt><trkpt lat="33.67972441727076" lon="10.015401061398702"><ele>123.0</ele><time>2026-04-05T17:10:17.999Z</time></trkpt><trkpt lat="33.67955029476394" lon="10.015401919066708"><ele>123.0</ele><time>2026-04-05T17:10:18.999Z</time></trkpt><trkpt lat="33.67937557895909" lon="10.015404761321674"><ele>123.0</ele><time>2026-04-05T17:10:19.999Z</time></trkpt><trkpt lat="33.679198543731545" lon="10.015403064060035"><ele>122.66666666666666</ele><time>2026-04-05T17:10:20.999Z</time></trkpt><trkpt lat="33.67902477302637" lon="10.015404696491602"><ele>122.33333333333333</ele><time>2026-04-05T17:10:21.999Z</time></trkpt><trkpt lat="33.67884860524883" lon="10.015407656236572"><ele>122.0</ele><time>2026-04-05T17:10:22.999Z</time></trkpt><trkpt lat="33.678677927942054" lon="10.015411158176194"><ele>121.33333333333333</ele><time>2026-04-05T17:10:23.999Z</time></trkpt><trkpt lat="33.678515567196236" lon="10.015412294383614"><ele>120.66666666666666</ele><time>2026-04-05T17:10:24.999Z</time></trkpt><trkpt lat="33.678361263501856" lon="10.015408709995228"><ele>120.0</ele><time>2026-04-05T17:10:25.999Z</time></trkpt><trkpt lat="33.6782132125838" lon="10.015407008195785"><ele>120.0</ele><time>2026-04-05T17:10:26.999Z</time></trkpt><trkpt lat="33.67807567167219" lon="10.015408466774595"><ele>120.0</ele><time>2026-04-05T17:10:27.999Z</time></trkpt><trkpt lat="33.67793627025807" lon="10.015409856948859"><ele>120.0</ele><time>2026-04-05T17:10:28.999Z</time></trkpt><trkpt lat="33.67779839594049" lon="10.015414271028485"><ele>120.0</ele><time>2026-04-05T17:10:29.999Z</time></trkpt><trkpt lat="33.67766597797691" lon="10.015416569516896"><ele>121.25</ele><time>2026-04-05T17:10:30.999Z</time></trkpt><trkpt lat="33.67753819361386" lon="10.015413723635529"><ele>122.5</ele><time>2026-04-05T17:10:31.999Z</time></trkpt><trkpt lat="33.67741702500841" lon="10.015411312783707"><ele>123.75</ele><time>2026-04-05T17:10:32.999Z</time></trkpt><trkpt lat="33.67730035542672" lon="10.015411485413646"><ele>125.0</ele><time>2026-04-05T17:10:33.999Z</time></trkpt><trkpt lat="33.677182119786806" lon="10.015414069836078"><ele>125.0</ele><time>2026-04-05T17:10:34.999Z</time></trkpt><trkpt lat="33.67707141675937" lon="10.015415555800033"><ele>125.0</ele><time>2026-04-05T17:10:35.999Z</time></trkpt><trkpt lat="33.6769671079591" lon="10.015411557064024"><ele>125.0</ele><time>2026-04-05T17:10:36.999Z</time></trkpt><trkpt lat="33.67687341748107" lon="10.015409663965036"><ele>125.0</ele><time>2026-04-05T17:10:37.999Z</time></trkpt><trkpt lat="33.67678715784423" lon="10.015408034430022"><ele>125.0</ele><time>2026-04-05T17:10:38.999Z</time></trkpt><trkpt lat="33.676703146635376" lon="10.015410367700508"><ele>125.2</ele><time>2026-04-05T17:10:39.999Z</time></trkpt><trkpt lat="33.676617085962995" lon="10.015410382673181"><ele>125.4</ele><time>2026-04-05T17:10:40.999Z</time></trkpt><trkpt lat="33.67652074507939" lon="10.015405105025577"><ele>125.6</ele><time>2026-04-05T17:10:41.999Z</time></trkpt><trkpt lat="33.67642136122448" lon="10.01540091833296"><ele>125.8</ele><time>2026-04-05T17:10:42.999Z</time></trkpt><trkpt lat="33.676327701210134" lon="10.015398781524944"><ele>126.0</ele><time>2026-04-05T17:10:43.999Z</time></trkpt><trkpt lat="33.67624762337008" lon="10.015395958888329"><ele>126.0</ele><time>2026-04-05T17:10:44.999Z</time></trkpt><trkpt lat="33.67617110768782" lon="10.015391500864807"><ele>126.0</ele><time>2026-04-05T17:10:45.999Z</time></trkpt><trkpt lat="33.676083009293166" lon="10.015386841806304"><ele>126.0</ele><time>2026-04-05T17:10:46.999Z</time></trkpt><trkpt lat="33.675989519457644" lon="10.015378022598291"><ele>126.0</ele><time>2026-04-05T17:10:47.999Z</time></trkpt><trkpt lat="33.675888480413604" lon="10.015368323285948"><ele>126.0</ele><time>2026-04-05T17:10:48.999Z</time></trkpt><trkpt lat="33.67578327425623" lon="10.01535718953894"><ele>125.75</ele><time>2026-04-05T17:10:49.999Z</time></trkpt><trkpt lat="33.67567578204136" lon="10.015342593981723"><ele>125.5</ele><time>2026-04-05T17:10:50.999Z</time></trkpt><trkpt lat="33.6755645274698" lon="10.015322409025183"><ele>125.25</ele><time>2026-04-05T17:10:51.999Z</time></trkpt><trkpt lat="33.67545047838848" lon="10.015302066321048"><ele>125.0</ele><time>2026-04-05T17:10:52.999Z</time></trkpt><trkpt lat="33.67533294187112" lon="10.015281539132308"><ele>125.5</ele><time>2026-04-05T17:10:53.999Z</time></trkpt><trkpt lat="33.675216119776785" lon="10.015265648750947"><ele>126.0</ele><time>2026-04-05T17:10:54.999Z</time></trkpt><trkpt lat="33.6750945751727" lon="10.015247256904349"><ele>126.5</ele><time>2026-04-05T17:10:55.999Z</time></trkpt><trkpt lat="33.67497429398514" lon="10.015232465862365"><ele>127.0</ele><time>2026-04-05T17:10:56.999Z</time></trkpt><trkpt lat="33.67485166492902" lon="10.015212549208595"><ele>127.0</ele><time>2026-04-05T17:10:57.999Z</time></trkpt><trkpt lat="33.674737304521145" lon="10.015200129597174"><ele>127.0</ele><time>2026-04-05T17:10:58.999Z</time></trkpt><trkpt lat="33.67462574101126" lon="10.015182923226872"><ele>127.0</ele><time>2026-04-05T17:10:59.999Z</time></trkpt><trkpt lat="33.67451412017394" lon="10.015163778478097"><ele>127.0</ele><time>2026-04-05T17:11:00.999Z</time></trkpt><trkpt lat="33.67440425720324" lon="10.015147621220635"><ele>127.0</ele><time>2026-04-05T17:11:01.999Z</time></trkpt><trkpt lat="33.67430317306462" lon="10.015134139685088"><ele>126.99999999999999</ele><time>2026-04-05T17:11:02.999Z</time></trkpt><trkpt lat="33.674213401320046" lon="10.015123346025733"><ele>126.99999999999999</ele><time>2026-04-05T17:11:03.999Z</time></trkpt><trkpt lat="33.67412117190374" lon="10.01511289782149"><ele>127.0</ele><time>2026-04-05T17:11:04.999Z</time></trkpt><trkpt lat="33.67401648314003" lon="10.015098305298638"><ele>127.0</ele><time>2026-04-05T17:11:05.999Z</time></trkpt><trkpt lat="33.673907437115446" lon="10.015084217714906"><ele>127.0</ele><time>2026-04-05T17:11:06.999Z</time></trkpt><trkpt lat="33.673803544092955" lon="10.015069055132303"><ele>126.99999999999999</ele><time>2026-04-05T17:11:07.999Z</time></trkpt><trkpt lat="33.67371171959478" lon="10.015053882237515"><ele>126.99999999999999</ele><time>2026-04-05T17:11:08.999Z</time></trkpt><trkpt lat="33.673623472408835" lon="10.015039602583462"><ele>127.0</ele><time>2026-04-05T17:11:09.999Z</time></trkpt><trkpt lat="33.67353548797048" lon="10.015025725103035"><ele>127.0</ele><time>2026-04-05T17:11:10.999Z</time></trkpt><trkpt lat="33.673445484656185" lon="10.015010709095696"><ele>127.0</ele><time>2026-04-05T17:11:11.999Z</time></trkpt><trkpt lat="33.673356738933485" lon="10.015000210595698"><ele>126.99999999999999</ele><time>2026-04-05T17:11:12.999Z</time></trkpt><trkpt lat="33.67326713099849" lon="10.014990714855145"><ele>126.99999999999999</ele><time>2026-04-05T17:11:13.999Z</time></trkpt><trkpt lat="33.67317612068615" lon="10.014979048994853"><ele>127.0</ele><time>2026-04-05T17:11:14.999Z</time></trkpt><trkpt lat="33.673082040830124" lon="10.014966085693123"><ele>127.0</ele><time>2026-04-05T17:11:15.999Z</time></trkpt><trkpt lat="33.67298922925679" lon="10.014953122322378"><ele>127.0</ele><time>2026-04-05T17:11:16.999Z</time></trkpt><trkpt lat="33.672892824325714" lon="10.014939609804612"><ele>126.99999999999999</ele><time>2026-04-05T17:11:17.999Z</time></trkpt><trkpt lat="33.672789327432085" lon="10.014923028686184"><ele>126.99999999999999</ele><time>2026-04-05T17:11:18.999Z</time></trkpt><trkpt lat="33.672684535747536" lon="10.014907177131654"><ele>127.0</ele><time>2026-04-05T17:11:19.999Z</time></trkpt><trkpt lat="33.67257651086979" lon="10.01489284550773"><ele>127.0</ele><time>2026-04-05T17:11:20.999Z</time></trkpt><trkpt lat="33.672464753836756" lon="10.014877768284457"><ele>127.0</ele><time>2026-04-05T17:11:21.999Z</time></trkpt><trkpt lat="33.67235076127884" lon="10.014860393797452"><ele>127.0</ele><time>2026-04-05T17:11:22.999Z</time></trkpt><trkpt lat="33.67223482557321" lon="10.014842568845586"><ele>127.0</ele><time>2026-04-05T17:11:23.999Z</time></trkpt><trkpt lat="33.67211758641766" lon="10.01482686246101"><ele>127.0</ele><time>2026-04-05T17:11:24.999Z</time></trkpt><trkpt lat="33.67199949642259" lon="10.014811506919452"><ele>126.75</ele><time>2026-04-05T17:11:25.999Z</time></trkpt><trkpt lat="33.671879193562845" lon="10.014793496105131"><ele>126.5</ele><time>2026-04-05T17:11:26.999Z</time></trkpt><trkpt lat="33.67175830770386" lon="10.01477599656784"><ele>126.25</ele><time>2026-04-05T17:11:27.999Z</time></trkpt><trkpt lat="33.67163674303669" lon="10.014758966683694"><ele>126.0</ele><time>2026-04-05T17:11:28.999Z</time></trkpt><trkpt lat="33.67151546266503" lon="10.014744526611025"><ele>126.0</ele><time>2026-04-05T17:11:29.999Z</time></trkpt><trkpt lat="33.67138313360626" lon="10.014726324777172"><ele>126.0</ele><time>2026-04-05T17:11:30.999Z</time></trkpt><trkpt lat="33.67124628069491" lon="10.014705103864548"><ele>126.0</ele><time>2026-04-05T17:11:31.999Z</time></trkpt><trkpt lat="33.67110581017969" lon="10.014681251474773"><ele>126.0</ele><time>2026-04-05T17:11:32.999Z</time></trkpt><trkpt lat="33.6709638240154" lon="10.014659668856378"><ele>126.75</ele><time>2026-04-05T17:11:33.999Z</time></trkpt><trkpt lat="33.670821615305115" lon="10.014637956853825"><ele>127.5</ele><time>2026-04-05T17:11:34.999Z</time></trkpt><trkpt lat="33.6706859514146" lon="10.014622854385594"><ele>128.25</ele><time>2026-04-05T17:11:35.999Z</time></trkpt><trkpt lat="33.67054874011117" lon="10.014603969895317"><ele>129.0</ele><time>2026-04-05T17:11:36.999Z</time></trkpt><trkpt lat="33.67042131989591" lon="10.014583434567687"><ele>129.0</ele><time>2026-04-05T17:11:37.999Z</time></trkpt><trkpt lat="33.67030514188673" lon="10.014565976869578"><ele>129.0</ele><time>2026-04-05T17:11:38.999Z</time></trkpt><trkpt lat="33.67019695052043" lon="10.014549983332198"><ele>129.0</ele><time>2026-04-05T17:11:39.999Z</time></trkpt><trkpt lat="33.670094656509654" lon="10.014538803778041"><ele>129.0</ele><time>2026-04-05T17:11:40.999Z</time></trkpt><trkpt lat="33.67000458828145" lon="10.014528897574637"><ele>129.0</ele><time>2026-04-05T17:11:41.999Z</time></trkpt><trkpt lat="33.669925327927245" lon="10.014516738597447"><ele>128.83333333333334</ele><time>2026-04-05T17:11:42.999Z</time></trkpt><trkpt lat="33.66985203947317" lon="10.014504486475413"><ele>128.66666666666666</ele><time>2026-04-05T17:11:43.999Z</time></trkpt><trkpt lat="33.669785475509585" lon="10.014496748704985"><ele>128.5</ele><time>2026-04-05T17:11:44.999Z</time></trkpt><trkpt lat="33.6696741289263" lon="10.014478553841148"><ele>128.33333333333331</ele><time>2026-04-05T17:11:46.999Z</time></trkpt><trkpt lat="33.669576015229964" lon="10.014463435479698"><ele>128.16666666666666</ele><time>2026-04-05T17:11:48.999Z</time></trkpt><trkpt lat="33.66948262813418" lon="10.014453908411678"><ele>128.0</ele><time>2026-04-05T17:11:50.999Z</time></trkpt><trkpt lat="33.669394629431984" lon="10.01444356853513"><ele>128.33333333333331</ele><time>2026-04-05T17:11:53.999Z</time></trkpt><trkpt lat="33.66932366522884" lon="10.014433032604963"><ele>128.66666666666666</ele><time>2026-04-05T17:11:56.999Z</time></trkpt><trkpt lat="33.669253490225174" lon="10.01441256186012"><ele>129.0</ele><time>2026-04-05T17:11:59.999Z</time></trkpt><trkpt lat="33.66918218914222" lon="10.014380892458805"><ele>129.33333333333334</ele><time>2026-04-05T17:12:01.999Z</time></trkpt><trkpt lat="33.66909468361923" lon="10.01435991954115"><ele>129.66666666666669</ele><time>2026-04-05T17:12:03.999Z</time></trkpt><trkpt lat="33.66899063108632" lon="10.014357322534096"><ele>130.0</ele><time>2026-04-05T17:12:05.999Z</time></trkpt><trkpt lat="33.6688693418842" lon="10.0143474885643"><ele>130.0</ele><time>2026-04-05T17:12:07.999Z</time></trkpt><trkpt lat="33.66879627603405" lon="10.014345838098844"><ele>130.0</ele><time>2026-04-05T17:12:08.999Z</time></trkpt><trkpt lat="33.66872150960783" lon="10.014337728834448"><ele>130.0</ele><time>2026-04-05T17:12:09.999Z</time></trkpt><trkpt lat="33.66865867481968" lon="10.0143302485168"><ele>130.0</ele><time>2026-04-05T17:12:10.999Z</time></trkpt><trkpt lat="33.66855713411886" lon="10.014317685601245"><ele>130.0</ele><time>2026-04-05T17:12:12.999Z</time></trkpt><trkpt lat="33.66845561032999" lon="10.014299429671297"><ele>130.0</ele><time>2026-04-05T17:12:14.999Z</time></trkpt><trkpt lat="33.66839213085636" lon="10.014291112580867"><ele>130.16666666666669</ele><time>2026-04-05T17:12:15.999Z</time></trkpt><trkpt lat="33.66832110726128" lon="10.01427591156766"><ele>130.33333333333334</ele><time>2026-04-05T17:12:16.999Z</time></trkpt><trkpt lat="33.668246722276976" lon="10.014261347547803"><ele>130.5</ele><time>2026-04-05T17:12:17.999Z</time></trkpt><trkpt lat="33.66816859457648" lon="10.01425204768893"><ele>130.66666666666666</ele><time>2026-04-05T17:12:18.999Z</time></trkpt><trkpt lat="33.6680963180603" lon="10.014245274733561"><ele>130.83333333333331</ele><time>2026-04-05T17:12:19.999Z</time></trkpt><trkpt lat="33.66803272149658" lon="10.01423560456762"><ele>131.0</ele><time>2026-04-05T17:12:20.999Z</time></trkpt><trkpt lat="33.667916561333236" lon="10.014214027387023"><ele>131.0</ele><time>2026-04-05T17:12:22.999Z</time></trkpt><trkpt lat="33.667854670012275" lon="10.014190057577931"><ele>131.0</ele><time>2026-04-05T17:12:23.999Z</time></trkpt><trkpt lat="33.667784068000174" lon="10.014174440972466"><ele>131.0</ele><time>2026-04-05T17:12:24.999Z</time></trkpt><trkpt lat="33.66770877460338" lon="10.014168198547573"><ele>131.0</ele><time>2026-04-05T17:12:25.999Z</time></trkpt><trkpt lat="33.667635137068984" lon="10.01416525885376"><ele>131.0</ele><time>2026-04-05T17:12:26.999Z</time></trkpt><trkpt lat="33.66756487142208" lon="10.01415991662535"><ele>131.0</ele><time>2026-04-05T17:12:27.999Z</time></trkpt><trkpt lat="33.66749745512054" lon="10.014147575420042"><ele>131.0</ele><time>2026-04-05T17:12:28.999Z</time></trkpt><trkpt lat="33.66743503695602" lon="10.01413477082368"><ele>131.0</ele><time>2026-04-05T17:12:29.999Z</time></trkpt><trkpt lat="33.6673179169623" lon="10.014117625821116"><ele>131.0</ele><time>2026-04-05T17:12:31.999Z</time></trkpt><trkpt lat="33.66719588836465" lon="10.014097550082727"><ele>131.0</ele><time>2026-04-05T17:12:33.999Z</time></trkpt><trkpt lat="33.667133073084564" lon="10.014083652170651"><ele>131.0</ele><time>2026-04-05T17:12:34.999Z</time></trkpt><trkpt lat="33.667064272640935" lon="10.014071858323241"><ele>131.0</ele><time>2026-04-05T17:12:35.999Z</time></trkpt><trkpt lat="33.66699047005531" lon="10.01406317727629"><ele>131.0</ele><time>2026-04-05T17:12:36.999Z</time></trkpt><trkpt lat="33.666911710331405" lon="10.014049624641194"><ele>131.0</ele><time>2026-04-05T17:12:37.999Z</time></trkpt><trkpt lat="33.66682709115466" lon="10.01403368847242"><ele>131.0</ele><time>2026-04-05T17:12:38.999Z</time></trkpt><trkpt lat="33.66674175024502" lon="10.014021148378628"><ele>131.0</ele><time>2026-04-05T17:12:39.999Z</time></trkpt><trkpt lat="33.66665427894693" lon="10.014010182926551"><ele>131.0</ele><time>2026-04-05T17:12:40.999Z</time></trkpt><trkpt lat="33.66656736050368" lon="10.013997291511007"><ele>131.0</ele><time>2026-04-05T17:12:41.999Z</time></trkpt><trkpt lat="33.66648000600492" lon="10.013983464351542"><ele>131.0</ele><time>2026-04-05T17:12:42.999Z</time></trkpt><trkpt lat="33.66639041813526" lon="10.013966875184577"><ele>131.0</ele><time>2026-04-05T17:12:43.999Z</time></trkpt><trkpt lat="33.666303994332885" lon="10.013952945149713"><ele>131.0</ele><time>2026-04-05T17:12:44.999Z</time></trkpt><trkpt lat="33.666225661078464" lon="10.013939626870435"><ele>131.0</ele><time>2026-04-05T17:12:45.999Z</time></trkpt><trkpt lat="33.66615305884559" lon="10.013925817565442"><ele>131.0</ele><time>2026-04-05T17:12:46.999Z</time></trkpt><trkpt lat="33.666079759799565" lon="10.013913951027423"><ele>131.0</ele><time>2026-04-05T17:12:47.999Z</time></trkpt><trkpt lat="33.66600077514077" lon="10.01390237216979"><ele>131.0</ele><time>2026-04-05T17:12:48.999Z</time></trkpt><trkpt lat="33.665918076485966" lon="10.01389032501791"><ele>131.2</ele><time>2026-04-05T17:12:49.999Z</time></trkpt><trkpt lat="33.66583355857194" lon="10.013877418024554"><ele>131.39999999999998</ele><time>2026-04-05T17:12:50.999Z</time></trkpt><trkpt lat="33.6657412911104" lon="10.013864233427695"><ele>131.6</ele><time>2026-04-05T17:12:51.999Z</time></trkpt><trkpt lat="33.66564860378292" lon="10.013849429381205"><ele>131.79999999999998</ele><time>2026-04-05T17:12:52.999Z</time></trkpt><trkpt lat="33.6655562306442" lon="10.013835025167774"><ele>132.0</ele><time>2026-04-05T17:12:53.999Z</time></trkpt><trkpt lat="33.66546276143074" lon="10.013819861167603"><ele>132.0</ele><time>2026-04-05T17:12:54.999Z</time></trkpt><trkpt lat="33.66536882360542" lon="10.013802160524758"><ele>132.0</ele><time>2026-04-05T17:12:55.999Z</time></trkpt><trkpt lat="33.66527451343562" lon="10.01378054533854"><ele>132.0</ele><time>2026-04-05T17:12:56.999Z</time></trkpt><trkpt lat="33.665177512044316" lon="10.013758919798757"><ele>132.0</ele><time>2026-04-05T17:12:57.999Z</time></trkpt><trkpt lat="33.665077780829584" lon="10.013738946002722"><ele>132.0</ele><time>2026-04-05T17:12:58.999Z</time></trkpt><trkpt lat="33.664978949419506" lon="10.01372166718132"><ele>132.4</ele><time>2026-04-05T17:12:59.999Z</time></trkpt><trkpt lat="33.66487732653474" lon="10.013706099153863"><ele>132.79999999999998</ele><time>2026-04-05T17:13:00.999Z</time></trkpt><trkpt lat="33.66477856001077" lon="10.013690215173801"><ele>133.2</ele><time>2026-04-05T17:13:01.999Z</time></trkpt><trkpt lat="33.66468572948548" lon="10.01367613496731"><ele>133.6</ele><time>2026-04-05T17:13:02.999Z</time></trkpt><trkpt lat="33.664596277460234" lon="10.01366053124361"><ele>134.0</ele><time>2026-04-05T17:13:03.999Z</time></trkpt><trkpt lat="33.66450361403082" lon="10.013644964024142"><ele>134.2</ele><time>2026-04-05T17:13:04.999Z</time></trkpt><trkpt lat="33.664408976905406" lon="10.013626375319449"><ele>134.4</ele><time>2026-04-05T17:13:05.999Z</time></trkpt><trkpt lat="33.6643094472905" lon="10.013604860969597"><ele>134.6</ele><time>2026-04-05T17:13:06.999Z</time></trkpt><trkpt lat="33.664205366592626" lon="10.013583882244523"><ele>134.8</ele><time>2026-04-05T17:13:07.999Z</time></trkpt><trkpt lat="33.664098494111656" lon="10.013562534831095"><ele>135.0</ele><time>2026-04-05T17:13:08.999Z</time></trkpt><trkpt lat="33.66399900895307" lon="10.013545818792782"><ele>135.0</ele><time>2026-04-05T17:13:09.999Z</time></trkpt><trkpt lat="33.663909042246935" lon="10.013528272339968"><ele>135.0</ele><time>2026-04-05T17:13:10.999Z</time></trkpt><trkpt lat="33.66381952660666" lon="10.013512935376864"><ele>135.0</ele><time>2026-04-05T17:13:11.999Z</time></trkpt><trkpt lat="33.66372462318143" lon="10.013496944027294"><ele>135.0</ele><time>2026-04-05T17:13:12.999Z</time></trkpt><trkpt lat="33.66362879298923" lon="10.013480250644513"><ele>135.0</ele><time>2026-04-05T17:13:13.999Z</time></trkpt><trkpt lat="33.663528173494726" lon="10.013462042055513"><ele>134.8</ele><time>2026-04-05T17:13:14.999Z</time></trkpt><trkpt lat="33.663425330897844" lon="10.013439736723123"><ele>134.6</ele><time>2026-04-05T17:13:15.999Z</time></trkpt><trkpt lat="33.663322565819655" lon="10.013417938475643"><ele>134.4</ele><time>2026-04-05T17:13:16.999Z</time></trkpt><trkpt lat="33.66322481261147" lon="10.01339875579601"><ele>134.2</ele><time>2026-04-05T17:13:17.999Z</time></trkpt><trkpt lat="33.66312916675466" lon="10.013377286887255"><ele>134.0</ele><time>2026-04-05T17:13:18.999Z</time></trkpt><trkpt lat="33.66303348130676" lon="10.01335699921992"><ele>134.0</ele><time>2026-04-05T17:13:19.999Z</time></trkpt><trkpt lat="33.662938726222556" lon="10.013341505176887"><ele>134.0</ele><time>2026-04-05T17:13:20.999Z</time></trkpt><trkpt lat="33.66285305831214" lon="10.013327401505302"><ele>134.0</ele><time>2026-04-05T17:13:21.999Z</time></trkpt><trkpt lat="33.662772607865236" lon="10.013312387362227"><ele>134.0</ele><time>2026-04-05T17:13:22.999Z</time></trkpt><trkpt lat="33.66269876277189" lon="10.013298178146263"><ele>134.0</ele><time>2026-04-05T17:13:23.999Z</time></trkpt><trkpt lat="33.66262808696103" lon="10.013281971358934"><ele>134.0</ele><time>2026-04-05T17:13:24.999Z</time></trkpt><trkpt lat="33.66256205521692" lon="10.013267680727056"><ele>134.0</ele><time>2026-04-05T17:13:25.999Z</time></trkpt><trkpt lat="33.662496419135934" lon="10.01325767516529"><ele>134.0</ele><time>2026-04-05T17:13:26.999Z</time></trkpt><trkpt lat="33.662433696847216" lon="10.013246839565298"><ele>134.0</ele><time>2026-04-05T17:13:27.999Z</time></trkpt><trkpt lat="33.66236440866609" lon="10.013233625278032"><ele>134.0</ele><time>2026-04-05T17:13:28.999Z</time></trkpt><trkpt lat="33.662289836161044" lon="10.013220321286484"><ele>134.0</ele><time>2026-04-05T17:13:29.999Z</time></trkpt><trkpt lat="33.66221450063431" lon="10.013205431508016"><ele>134.0</ele><time>2026-04-05T17:13:30.999Z</time></trkpt><trkpt lat="33.66214253820274" lon="10.013191987729856"><ele>134.0</ele><time>2026-04-05T17:13:31.999Z</time></trkpt><trkpt lat="33.66206667341981" lon="10.013175765474532"><ele>134.0</ele><time>2026-04-05T17:13:32.999Z</time></trkpt><trkpt lat="33.66199121805876" lon="10.013159689818004"><ele>134.0</ele><time>2026-04-05T17:13:33.999Z</time></trkpt><trkpt lat="33.661921777032674" lon="10.013145473167905"><ele>134.0</ele><time>2026-04-05T17:13:34.999Z</time></trkpt><trkpt lat="33.66185780469044" lon="10.01313539295634"><ele>134.0</ele><time>2026-04-05T17:13:35.999Z</time></trkpt><trkpt lat="33.66179224228678" lon="10.01312462147661"><ele>134.0</ele><time>2026-04-05T17:13:36.999Z</time></trkpt><trkpt lat="33.661723157412204" lon="10.013107423404275"><ele>134.0</ele><time>2026-04-05T17:13:37.999Z</time></trkpt><trkpt lat="33.66164735053831" lon="10.013091584981272"><ele>134.0</ele><time>2026-04-05T17:13:38.999Z</time></trkpt><trkpt lat="33.66156617538483" lon="10.013077355943798"><ele>134.0</ele><time>2026-04-05T17:13:39.999Z</time></trkpt><trkpt lat="33.661481637474154" lon="10.013057535199374"><ele>134.0</ele><time>2026-04-05T17:13:40.999Z</time></trkpt><trkpt lat="33.661397874527125" lon="10.013039153574855"><ele>134.0</ele><time>2026-04-05T17:13:41.999Z</time></trkpt><trkpt lat="33.66132429247975" lon="10.01302607172193"><ele>134.0</ele><time>2026-04-05T17:13:42.999Z</time></trkpt><trkpt lat="33.66124510194461" lon="10.013010940943571"><ele>134.0</ele><time>2026-04-05T17:13:43.999Z</time></trkpt><trkpt lat="33.66115909050009" lon="10.012993829662724"><ele>134.0</ele><time>2026-04-05T17:13:44.999Z</time></trkpt><trkpt lat="33.66106978806309" lon="10.012979462951446"><ele>133.83333333333331</ele><time>2026-04-05T17:13:45.999Z</time></trkpt><trkpt lat="33.660987448638714" lon="10.012965477833484"><ele>133.66666666666666</ele><time>2026-04-05T17:13:46.999Z</time></trkpt><trkpt lat="33.66090803428511" lon="10.01294795635735"><ele>133.5</ele><time>2026-04-05T17:13:47.999Z</time></trkpt><trkpt lat="33.660822892108456" lon="10.012929313129725"><ele>133.33333333333334</ele><time>2026-04-05T17:13:48.999Z</time></trkpt><trkpt lat="33.66073561392706" lon="10.012912630399027"><ele>133.16666666666669</ele><time>2026-04-05T17:13:49.999Z</time></trkpt><trkpt lat="33.66064678182472" lon="10.012900911791796"><ele>133.0</ele><time>2026-04-05T17:13:50.999Z</time></trkpt><trkpt lat="33.660555473579535" lon="10.012882894006793"><ele>133.0</ele><time>2026-04-05T17:13:51.999Z</time></trkpt><trkpt lat="33.66046382733473" lon="10.012862076370144"><ele>133.0</ele><time>2026-04-05T17:13:52.999Z</time></trkpt><trkpt lat="33.6603700331157" lon="10.012842593965878"><ele>133.0</ele><time>2026-04-05T17:13:53.999Z</time></trkpt><trkpt lat="33.66027145104385" lon="10.012824233173466"><ele>133.0</ele><time>2026-04-05T17:13:54.999Z</time></trkpt><trkpt lat="33.660169305236565" lon="10.012802210307441"><ele>133.0</ele><time>2026-04-05T17:13:55.999Z</time></trkpt><trkpt lat="33.660059559363965" lon="10.012774905016965"><ele>133.5</ele><time>2026-04-05T17:13:56.999Z</time></trkpt><trkpt lat="33.659943167090326" lon="10.012748003304774"><ele>134.0</ele><time>2026-04-05T17:13:57.999Z</time></trkpt><trkpt lat="33.65982141346333" lon="10.012731600450367"><ele>134.5</ele><time>2026-04-05T17:13:58.999Z</time></trkpt><trkpt lat="33.65969158233933" lon="10.012709066511578"><ele>135.0</ele><time>2026-04-05T17:13:59.999Z</time></trkpt><trkpt lat="33.659563791424645" lon="10.012683691353287"><ele>135.5</ele><time>2026-04-05T17:14:00.999Z</time></trkpt><trkpt lat="33.65943607818208" lon="10.01265705319733"><ele>136.0</ele><time>2026-04-05T17:14:01.999Z</time></trkpt><trkpt lat="33.65931226489001" lon="10.01263214191734"><ele>136.5</ele><time>2026-04-05T17:14:02.999Z</time></trkpt><trkpt lat="33.65919492764241" lon="10.012611963959808"><ele>137.0</ele><time>2026-04-05T17:14:03.999Z</time></trkpt><trkpt lat="33.65908589839341" lon="10.012594445479518"><ele>137.0</ele><time>2026-04-05T17:14:04.999Z</time></trkpt><trkpt lat="33.6589810851669" lon="10.01257241858309"><ele>137.0</ele><time>2026-04-05T17:14:05.999Z</time></trkpt><trkpt lat="33.6588846349339" lon="10.012551346712849"><ele>137.0</ele><time>2026-04-05T17:14:06.999Z</time></trkpt><trkpt lat="33.65879095162082" lon="10.012531010403533"><ele>137.0</ele><time>2026-04-05T17:14:07.999Z</time></trkpt><trkpt lat="33.658699356091205" lon="10.012511162042996"><ele>137.0</ele><time>2026-04-05T17:14:08.999Z</time></trkpt><trkpt lat="33.65860597396491" lon="10.01249574304565"><ele>137.0</ele><time>2026-04-05T17:14:09.999Z</time></trkpt><trkpt lat="33.658511875492145" lon="10.012478633351535"><ele>137.0</ele><time>2026-04-05T17:14:10.999Z</time></trkpt><trkpt lat="33.658414912257015" lon="10.012458310642632"><ele>137.0</ele><time>2026-04-05T17:14:11.999Z</time></trkpt><trkpt lat="33.65831734142104" lon="10.012436624428332"><ele>137.0</ele><time>2026-04-05T17:14:12.999Z</time></trkpt><trkpt lat="33.65821232999215" lon="10.012415284953361"><ele>137.0</ele><time>2026-04-05T17:14:13.999Z</time></trkpt><trkpt lat="33.658111322581824" lon="10.012393043901108"><ele>137.0</ele><time>2026-04-05T17:14:14.999Z</time></trkpt><trkpt lat="33.6580054837977" lon="10.012371363150859"><ele>137.0</ele><time>2026-04-05T17:14:15.999Z</time></trkpt><trkpt lat="33.657903479759405" lon="10.012348902376695"><ele>137.0</ele><time>2026-04-05T17:14:16.999Z</time></trkpt><trkpt lat="33.657796273258896" lon="10.012324684899768"><ele>137.0</ele><time>2026-04-05T17:14:17.999Z</time></trkpt><trkpt lat="33.65768412587995" lon="10.01229906008357"><ele>137.0</ele><time>2026-04-05T17:14:18.999Z</time></trkpt><trkpt lat="33.657564863479415" lon="10.012277491760596"><ele>137.0</ele><time>2026-04-05T17:14:19.999Z</time></trkpt><trkpt lat="33.6574407755841" lon="10.01225998664906"><ele>137.0</ele><time>2026-04-05T17:14:20.999Z</time></trkpt><trkpt lat="33.65731954414546" lon="10.012244343958407"><ele>137.0</ele><time>2026-04-05T17:14:21.999Z</time></trkpt><trkpt lat="33.65719800860124" lon="10.01222449569294"><ele>137.0</ele><time>2026-04-05T17:14:22.999Z</time></trkpt><trkpt lat="33.65707730530655" lon="10.012200443921802"><ele>137.0</ele><time>2026-04-05T17:14:23.999Z</time></trkpt><trkpt lat="33.65695894560071" lon="10.012174646826146"><ele>137.0</ele><time>2026-04-05T17:14:24.999Z</time></trkpt><trkpt lat="33.656838900070234" lon="10.012147055821709"><ele>137.0</ele><time>2026-04-05T17:14:25.999Z</time></trkpt><trkpt lat="33.65671693822488" lon="10.012120128865513"><ele>137.0</ele><time>2026-04-05T17:14:26.999Z</time></trkpt><trkpt lat="33.65659240869713" lon="10.012098104163881"><ele>137.0</ele><time>2026-04-05T17:14:27.999Z</time></trkpt><trkpt lat="33.65646579443492" lon="10.012075446055151"><ele>137.0</ele><time>2026-04-05T17:14:28.999Z</time></trkpt><trkpt lat="33.65633743589738" lon="10.012051222818126"><ele>137.0</ele><time>2026-04-05T17:14:29.999Z</time></trkpt><trkpt lat="33.65621104309257" lon="10.012024114576636"><ele>137.0</ele><time>2026-04-05T17:14:30.999Z</time></trkpt><trkpt lat="33.65608252158035" lon="10.011997881831798"><ele>137.25</ele><time>2026-04-05T17:14:31.999Z</time></trkpt><trkpt lat="33.655954402450504" lon="10.011973434543462"><ele>137.5</ele><time>2026-04-05T17:14:32.999Z</time></trkpt><trkpt lat="33.65582642074337" lon="10.0119504038674"><ele>137.75</ele><time>2026-04-05T17:14:33.999Z</time></trkpt><trkpt lat="33.65569836453427" lon="10.011925586898622"><ele>138.0</ele><time>2026-04-05T17:14:34.999Z</time></trkpt><trkpt lat="33.655571757938596" lon="10.011899806145873"><ele>138.0</ele><time>2026-04-05T17:14:35.999Z</time></trkpt><trkpt lat="33.65544682612974" lon="10.011875426868864"><ele>138.0</ele><time>2026-04-05T17:14:36.999Z</time></trkpt><trkpt lat="33.655329476377204" lon="10.011851210826425"><ele>138.0</ele><time>2026-04-05T17:14:37.999Z</time></trkpt><trkpt lat="33.65522830186646" lon="10.011835014377933"><ele>138.0</ele><time>2026-04-05T17:14:38.999Z</time></trkpt><trkpt lat="33.655144590631586" lon="10.011822504499877"><ele>138.0</ele><time>2026-04-05T17:14:39.999Z</time></trkpt><trkpt lat="33.65507912852782" lon="10.011811647768688"><ele>137.66666666666666</ele><time>2026-04-05T17:14:40.999Z</time></trkpt><trkpt lat="33.65498023818593" lon="10.011797110804162"><ele>137.33333333333334</ele><time>2026-04-05T17:14:42.999Z</time></trkpt><trkpt lat="33.65491041654313" lon="10.01178816271279"><ele>137.0</ele><time>2026-04-05T17:14:44.999Z</time></trkpt><trkpt lat="33.65482009727491" lon="10.01176963693068"><ele>136.66666666666669</ele><time>2026-04-05T17:14:47.999Z</time></trkpt><trkpt lat="33.654743868105356" lon="10.01176391016623"><ele>136.33333333333334</ele><time>2026-04-05T17:14:50.999Z</time></trkpt><trkpt lat="33.65466505215671" lon="10.011755462913952"><ele>136.0</ele><time>2026-04-05T17:14:52.999Z</time></trkpt><trkpt lat="33.65459422355561" lon="10.011738146379166"><ele>135.99999999999997</ele><time>2026-04-05T17:14:54.999Z</time></trkpt><trkpt lat="33.654491956052894" lon="10.011730145511041"><ele>136.0</ele><time>2026-04-05T17:14:57.999Z</time></trkpt><trkpt lat="33.65443683665741" lon="10.011797550846348"><ele>136.0</ele><time>2026-04-05T17:14:59.999Z</time></trkpt><trkpt lat="33.654413683499136" lon="10.011879312016475"><ele>136.0</ele><time>2026-04-05T17:15:03.999Z</time></trkpt><trkpt lat="33.654440701040926" lon="10.011950097863597"><ele>136.0</ele><time>2026-04-05T17:18:18.999Z</time></trkpt><trkpt lat="33.65444317928753" lon="10.012026471276837"><ele>135.99999999999997</ele><time>2026-04-05T17:18:21.999Z</time></trkpt><trkpt lat="33.65449351203193" lon="10.012071952759282"><ele>136.0</ele><time>2026-04-05T17:20:28.999Z</time></trkpt><trkpt lat="33.65457817247725" lon="10.012100083766116"><ele>136.0</ele><time>2026-04-05T17:26:24.999Z</time></trkpt><trkpt lat="33.6546607300757" lon="10.012044070137152"><ele>136.0</ele><time>2026-04-05T17:30:27.999Z</time></trkpt><trkpt lat="33.65469427891476" lon="10.011958057614457"><ele>136.0</ele><time>2026-04-05T17:30:36.999Z</time></trkpt><trkpt lat="33.65468406399179" lon="10.011870144654557"><ele>136.0</ele><time>2026-04-05T17:30:49.999Z</time></trkpt><trkpt lat="33.6546363826196" lon="10.011790036743056"><ele>136.0</ele><time>2026-04-05T17:30:52.999Z</time></trkpt><trkpt lat="33.65452533385727" lon="10.011721500923104"><ele>136.33333333333334</ele><time>2026-04-05T17:30:53.999Z</time></trkpt><trkpt lat="33.654399837344656" lon="10.011676600031397"><ele>136.66666666666666</ele><time>2026-04-05T17:30:54.999Z</time></trkpt><trkpt lat="33.65421357953171" lon="10.011626922016834"><ele>137.0</ele><time>2026-04-05T17:30:55.999Z</time></trkpt><trkpt lat="33.6539845113689" lon="10.011579251775432"><ele>137.0</ele><time>2026-04-05T17:30:56.999Z</time></trkpt><trkpt lat="33.65378605944949" lon="10.01154451209516"><ele>137.0</ele><time>2026-04-05T17:30:57.999Z</time></trkpt><trkpt lat="33.65361329095339" lon="10.011510635384546"><ele>137.0</ele><time>2026-04-05T17:30:58.999Z</time></trkpt><trkpt lat="33.65345779301901" lon="10.011476696627534"><ele>136.25</ele><time>2026-04-05T17:30:59.999Z</time></trkpt><trkpt lat="33.653310920430066" lon="10.011451171048819"><ele>135.5</ele><time>2026-04-05T17:31:00.999Z</time></trkpt><trkpt lat="33.653179032618304" lon="10.01143057542093"><ele>134.75</ele><time>2026-04-05T17:31:01.999Z</time></trkpt><trkpt lat="33.653041591289465" lon="10.011407586464978"><ele>134.0</ele><time>2026-04-05T17:31:02.999Z</time></trkpt><trkpt lat="33.65289934068609" lon="10.011379624012822"><ele>134.0</ele><time>2026-04-05T17:31:03.999Z</time></trkpt><trkpt lat="33.652756338986066" lon="10.011355618750136"><ele>134.0</ele><time>2026-04-05T17:31:04.999Z</time></trkpt><trkpt lat="33.65261762722554" lon="10.011332622007156"><ele>134.0</ele><time>2026-04-05T17:31:05.999Z</time></trkpt><trkpt lat="33.65247878524225" lon="10.011305236838325"><ele>134.0</ele><time>2026-04-05T17:31:06.999Z</time></trkpt><trkpt lat="33.65234019801986" lon="10.011276360955994"><ele>134.0</ele><time>2026-04-05T17:31:07.999Z</time></trkpt><trkpt lat="33.65219310635413" lon="10.011242818945256"><ele>134.0</ele><time>2026-04-05T17:31:08.999Z</time></trkpt><trkpt lat="33.65203661601114" lon="10.011212179670709"><ele>134.0</ele><time>2026-04-05T17:31:09.999Z</time></trkpt><trkpt lat="33.65188026459211" lon="10.01118127986238"><ele>134.66666666666666</ele><time>2026-04-05T17:31:10.999Z</time></trkpt><trkpt lat="33.65171685625762" lon="10.011151215270422"><ele>135.33333333333334</ele><time>2026-04-05T17:31:11.999Z</time></trkpt><trkpt lat="33.651556421884564" lon="10.011120841726168"><ele>136.0</ele><time>2026-04-05T17:31:12.999Z</time></trkpt><trkpt lat="33.65139865121732" lon="10.011094414824294"><ele>136.0</ele><time>2026-04-05T17:31:13.999Z</time></trkpt><trkpt lat="33.651245471253084" lon="10.011069645521664"><ele>136.0</ele><time>2026-04-05T17:31:14.999Z</time></trkpt><trkpt lat="33.65109268427769" lon="10.011044951712368"><ele>136.0</ele><time>2026-04-05T17:31:15.999Z</time></trkpt><trkpt lat="33.65094282586755" lon="10.01102245983312"><ele>136.66666666666669</ele><time>2026-04-05T17:31:16.999Z</time></trkpt><trkpt lat="33.650794445352865" lon="10.010999527683504"><ele>137.33333333333334</ele><time>2026-04-05T17:31:17.999Z</time></trkpt><trkpt lat="33.65064333793535" lon="10.010983150531315"><ele>138.0</ele><time>2026-04-05T17:31:18.999Z</time></trkpt><trkpt lat="33.65049342476982" lon="10.01096581131718"><ele>138.0</ele><time>2026-04-05T17:31:19.999Z</time></trkpt><trkpt lat="33.65034082945492" lon="10.01094579794146"><ele>138.0</ele><time>2026-04-05T17:31:20.999Z</time></trkpt><trkpt lat="33.650195844915345" lon="10.01092522470122"><ele>138.0</ele><time>2026-04-05T17:31:21.999Z</time></trkpt><trkpt lat="33.650047840005485" lon="10.010905343142532"><ele>138.0</ele><time>2026-04-05T17:31:23Z</time></trkpt><trkpt lat="33.64989675696658" lon="10.01088883950505"><ele>137.66666666666666</ele><time>2026-04-05T17:31:24Z</time></trkpt><trkpt lat="33.649738871466134" lon="10.010873900387237"><ele>137.33333333333331</ele><time>2026-04-05T17:31:25Z</time></trkpt><trkpt lat="33.64957719722136" lon="10.010857302024485"><ele>137.0</ele><time>2026-04-05T17:31:26Z</time></trkpt><trkpt lat="33.64940810923902" lon="10.01083736352186"><ele>137.66666666666666</ele><time>2026-04-05T17:31:27Z</time></trkpt><trkpt lat="33.649237659455544" lon="10.010818103196645"><ele>138.33333333333334</ele><time>2026-04-05T17:31:28.001Z</time></trkpt><trkpt lat="33.64908330648676" lon="10.010801241256686"><ele>139.0</ele><time>2026-04-05T17:31:29.001Z</time></trkpt><trkpt lat="33.64893706093286" lon="10.01079245002695"><ele>139.0</ele><time>2026-04-05T17:31:30.001Z</time></trkpt><trkpt lat="33.648789054234335" lon="10.010785769717048"><ele>139.0</ele><time>2026-04-05T17:31:31.001Z</time></trkpt><trkpt lat="33.64863375142325" lon="10.010777689502993"><ele>139.0</ele><time>2026-04-05T17:31:32.001Z</time></trkpt><trkpt lat="33.648478637492055" lon="10.01076658046809"><ele>140.0</ele><time>2026-04-05T17:31:33.001Z</time></trkpt><trkpt lat="33.648316249513236" lon="10.01075444579866"><ele>141.0</ele><time>2026-04-05T17:31:34.001Z</time></trkpt><trkpt lat="33.648155975960115" lon="10.01074340234965"><ele>142.0</ele><time>2026-04-05T17:31:35.001Z</time></trkpt><trkpt lat="33.648002735948666" lon="10.010733778639802"><ele>142.0</ele><time>2026-04-05T17:31:36.001Z</time></trkpt><trkpt lat="33.64785778302191" lon="10.01072720437326"><ele>142.0</ele><time>2026-04-05T17:31:37.001Z</time></trkpt><trkpt lat="33.6477119515734" lon="10.010717664943803"><ele>142.0</ele><time>2026-04-05T17:31:38.001Z</time></trkpt><trkpt lat="33.647567853031966" lon="10.010706974217092"><ele>142.0</ele><time>2026-04-05T17:31:39.001Z</time></trkpt><trkpt lat="33.6474238554341" lon="10.010699471553972"><ele>141.5</ele><time>2026-04-05T17:31:40.001Z</time></trkpt><trkpt lat="33.64728108053004" lon="10.010693143248854"><ele>141.0</ele><time>2026-04-05T17:31:41.001Z</time></trkpt><trkpt lat="33.64714157105428" lon="10.01068423134003"><ele>140.5</ele><time>2026-04-05T17:31:42.001Z</time></trkpt><trkpt lat="33.647005080565705" lon="10.010677020903582"><ele>140.0</ele><time>2026-04-05T17:31:43.001Z</time></trkpt><trkpt lat="33.646871095205135" lon="10.010670861170805"><ele>140.0</ele><time>2026-04-05T17:31:44.001Z</time></trkpt><trkpt lat="33.646738968242616" lon="10.010663105383554"><ele>140.0</ele><time>2026-04-05T17:31:45.001Z</time></trkpt><trkpt lat="33.646610849210774" lon="10.01065361574749"><ele>140.0</ele><time>2026-04-05T17:31:46.001Z</time></trkpt><trkpt lat="33.646483778187324" lon="10.010644740189056"><ele>140.0</ele><time>2026-04-05T17:31:47.001Z</time></trkpt><trkpt lat="33.64635928185196" lon="10.010636509488346"><ele>140.0</ele><time>2026-04-05T17:31:48.001Z</time></trkpt><trkpt lat="33.64623625508532" lon="10.010626941035936"><ele>140.0</ele><time>2026-04-05T17:31:49.001Z</time></trkpt><trkpt lat="33.64611364116711" lon="10.010617797248372"><ele>140.0</ele><time>2026-04-05T17:31:50.001Z</time></trkpt><trkpt lat="33.645994194835595" lon="10.01060920593352"><ele>140.0</ele><time>2026-04-05T17:31:51.001Z</time></trkpt><trkpt lat="33.645875007016286" lon="10.01059809555094"><ele>140.5</ele><time>2026-04-05T17:31:52.001Z</time></trkpt><trkpt lat="33.64575898695117" lon="10.010589131420204"><ele>141.0</ele><time>2026-04-05T17:31:53.001Z</time></trkpt><trkpt lat="33.64563831897181" lon="10.010581769965125"><ele>141.5</ele><time>2026-04-05T17:31:54.001Z</time></trkpt><trkpt lat="33.645510705161804" lon="10.010570924103515"><ele>142.0</ele><time>2026-04-05T17:31:55.001Z</time></trkpt><trkpt lat="33.645376050831565" lon="10.010556017646072"><ele>142.5</ele><time>2026-04-05T17:31:56.001Z</time></trkpt><trkpt lat="33.6452368215014" lon="10.010538756027763"><ele>143.0</ele><time>2026-04-05T17:31:57.001Z</time></trkpt><trkpt lat="33.645093794630824" lon="10.010517244251828"><ele>143.5</ele><time>2026-04-05T17:31:58.001Z</time></trkpt><trkpt lat="33.64494915753088" lon="10.010488398813882"><ele>144.0</ele><time>2026-04-05T17:31:59.001Z</time></trkpt><trkpt lat="33.64480338247268" lon="10.010447511119272"><ele>144.0</ele><time>2026-04-05T17:32:00.001Z</time></trkpt><trkpt lat="33.64466006510386" lon="10.01039686340908"><ele>144.0</ele><time>2026-04-05T17:32:01.001Z</time></trkpt><trkpt lat="33.64451510004237" lon="10.010342668553493"><ele>144.0</ele><time>2026-04-05T17:32:02.001Z</time></trkpt><trkpt lat="33.644368158339" lon="10.010285439787541"><ele>145.33333333333334</ele><time>2026-04-05T17:32:03.001Z</time></trkpt><trkpt lat="33.644218513881356" lon="10.0102250712936"><ele>146.66666666666669</ele><time>2026-04-05T17:32:04.001Z</time></trkpt><trkpt lat="33.64406631310286" lon="10.010163037682576"><ele>148.0</ele><time>2026-04-05T17:32:05.001Z</time></trkpt><trkpt lat="33.64390990710403" lon="10.010101044944259"><ele>148.0</ele><time>2026-04-05T17:32:06Z</time></trkpt><trkpt lat="33.643752189418905" lon="10.010037165515943"><ele>148.0</ele><time>2026-04-05T17:32:07Z</time></trkpt><trkpt lat="33.64359299659222" lon="10.009969272651166"><ele>148.0</ele><time>2026-04-05T17:32:08Z</time></trkpt><trkpt lat="33.64343171140013" lon="10.009901722612211"><ele>147.33333333333334</ele><time>2026-04-05T17:32:09Z</time></trkpt><trkpt lat="33.64327164959966" lon="10.009836421714445"><ele>146.66666666666666</ele><time>2026-04-05T17:32:10Z</time></trkpt><trkpt lat="33.6431092506016" lon="10.009769637506663"><ele>146.0</ele><time>2026-04-05T17:32:11Z</time></trkpt><trkpt lat="33.64294507353076" lon="10.009703040289068"><ele>146.0</ele><time>2026-04-05T17:32:12Z</time></trkpt><trkpt lat="33.642778126636664" lon="10.009634672220944"><ele>146.0</ele><time>2026-04-05T17:32:13Z</time></trkpt><trkpt lat="33.64261594945982" lon="10.00957033213738"><ele>146.0</ele><time>2026-04-05T17:32:14Z</time></trkpt><trkpt lat="33.64245296715441" lon="10.00950695876265"><ele>146.0</ele><time>2026-04-05T17:32:15Z</time></trkpt><trkpt lat="33.64229254576545" lon="10.009442418264914"><ele>146.0</ele><time>2026-04-05T17:32:16Z</time></trkpt><trkpt lat="33.6421314124472" lon="10.009378751910353"><ele>146.0</ele><time>2026-04-05T17:32:17Z</time></trkpt><trkpt lat="33.641972288684585" lon="10.009314713167859"><ele>146.0</ele><time>2026-04-05T17:32:18Z</time></trkpt><trkpt lat="33.64181327433341" lon="10.009247282757835"><ele>146.0</ele><time>2026-04-05T17:32:19Z</time></trkpt><trkpt lat="33.64165407893496" lon="10.009179742215506"><ele>146.0</ele><time>2026-04-05T17:32:20Z</time></trkpt><trkpt lat="33.64149711719064" lon="10.009115554967947"><ele>146.0</ele><time>2026-04-05T17:32:21Z</time></trkpt><trkpt lat="33.64134060314664" lon="10.009054335633742"><ele>146.0</ele><time>2026-04-05T17:32:22Z</time></trkpt><trkpt lat="33.64118267931211" lon="10.00898979003678"><ele>146.0</ele><time>2026-04-05T17:32:23Z</time></trkpt><trkpt lat="33.641028140717275" lon="10.00891932636465"><ele>145.66666666666666</ele><time>2026-04-05T17:32:24Z</time></trkpt><trkpt lat="33.6408768112392" lon="10.008852778948267"><ele>145.33333333333334</ele><time>2026-04-05T17:32:25Z</time></trkpt><trkpt lat="33.64072193865553" lon="10.008789216973787"><ele>145.0</ele><time>2026-04-05T17:32:26Z</time></trkpt><trkpt lat="33.64056809642726" lon="10.008726745816553"><ele>145.0</ele><time>2026-04-05T17:32:27Z</time></trkpt><trkpt lat="33.64041403739578" lon="10.008663148385606"><ele>145.0</ele><time>2026-04-05T17:32:28Z</time></trkpt><trkpt lat="33.64026107254392" lon="10.008598801371976"><ele>145.0</ele><time>2026-04-05T17:32:29Z</time></trkpt><trkpt lat="33.640109801624156" lon="10.008539983588395"><ele>146.0</ele><time>2026-04-05T17:32:30Z</time></trkpt><trkpt lat="33.6399595807022" lon="10.008481130398811"><ele>147.0</ele><time>2026-04-05T17:32:31Z</time></trkpt><trkpt lat="33.639811517287896" lon="10.008423418300108"><ele>148.0</ele><time>2026-04-05T17:32:32Z</time></trkpt><trkpt lat="33.639664653740056" lon="10.008366694423112"><ele>148.0</ele><time>2026-04-05T17:32:33Z</time></trkpt><trkpt lat="33.639520341470885" lon="10.008308323159977"><ele>148.0</ele><time>2026-04-05T17:32:34Z</time></trkpt><trkpt lat="33.639377577154384" lon="10.008248595913823"><ele>148.0</ele><time>2026-04-05T17:32:35Z</time></trkpt><trkpt lat="33.6392301970689" lon="10.00818635376048"><ele>148.33333333333334</ele><time>2026-04-05T17:32:36Z</time></trkpt><trkpt lat="33.63907686040408" lon="10.008122481729226"><ele>148.66666666666666</ele><time>2026-04-05T17:32:37Z</time></trkpt><trkpt lat="33.63891994105338" lon="10.008058209804982"><ele>149.0</ele><time>2026-04-05T17:32:38Z</time></trkpt><trkpt lat="33.63876165523358" lon="10.007987585919773"><ele>149.66666666666666</ele><time>2026-04-05T17:32:39Z</time></trkpt><trkpt lat="33.63860110732024" lon="10.007919387641069"><ele>150.33333333333334</ele><time>2026-04-05T17:32:40Z</time></trkpt><trkpt lat="33.63843684007346" lon="10.007853640930003"><ele>151.0</ele><time>2026-04-05T17:32:41Z</time></trkpt><trkpt lat="33.63827093964237" lon="10.00778997954433"><ele>151.0</ele><time>2026-04-05T17:32:42Z</time></trkpt><trkpt lat="33.63810319668633" lon="10.007721223167703"><ele>151.0</ele><time>2026-04-05T17:32:43Z</time></trkpt><trkpt lat="33.6379323213482" lon="10.007648285520998"><ele>151.0</ele><time>2026-04-05T17:32:44Z</time></trkpt><trkpt lat="33.63775642612174" lon="10.00757858071787"><ele>151.66666666666669</ele><time>2026-04-05T17:32:45Z</time></trkpt><trkpt lat="33.637578568082375" lon="10.007508021420522"><ele>152.33333333333334</ele><time>2026-04-05T17:32:46Z</time></trkpt><trkpt lat="33.63739626013218" lon="10.007429304412701"><ele>153.0</ele><time>2026-04-05T17:32:47Z</time></trkpt><trkpt lat="33.637211744301005" lon="10.007350018631373"><ele>153.0</ele><time>2026-04-05T17:32:48Z</time></trkpt><trkpt lat="33.63702723703828" lon="10.007258767797953"><ele>153.0</ele><time>2026-04-05T17:32:49Z</time></trkpt><trkpt lat="33.636842668970914" lon="10.007153963084559"><ele>153.0</ele><time>2026-04-05T17:32:50Z</time></trkpt><trkpt lat="33.636662778937314" lon="10.007041921295"><ele>153.0</ele><time>2026-04-05T17:32:51Z</time></trkpt><trkpt lat="33.63648539908574" lon="10.006919396817365"><ele>153.0</ele><time>2026-04-05T17:32:52Z</time></trkpt><trkpt lat="33.63631065087574" lon="10.006795233463293"><ele>153.0</ele><time>2026-04-05T17:32:53Z</time></trkpt><trkpt lat="33.63613099011583" lon="10.00667211406823"><ele>152.33333333333334</ele><time>2026-04-05T17:32:54Z</time></trkpt><trkpt lat="33.63594973480465" lon="10.006542848489103"><ele>151.66666666666669</ele><time>2026-04-05T17:32:55Z</time></trkpt><trkpt lat="33.6357735443661" lon="10.006415729856599"><ele>151.0</ele><time>2026-04-05T17:32:56Z</time></trkpt><trkpt lat="33.635592923169234" lon="10.006289342091417"><ele>151.0</ele><time>2026-04-05T17:32:57Z</time></trkpt><trkpt lat="33.63541717448794" lon="10.006170540783955"><ele>151.0</ele><time>2026-04-05T17:32:58Z</time></trkpt><trkpt lat="33.63524363975927" lon="10.006052918886768"><ele>151.0</ele><time>2026-04-05T17:32:59Z</time></trkpt><trkpt lat="33.63507349033497" lon="10.005937418175161"><ele>150.66666666666669</ele><time>2026-04-05T17:33:00Z</time></trkpt><trkpt lat="33.63490606393312" lon="10.00582094825441"><ele>150.33333333333334</ele><time>2026-04-05T17:33:01Z</time></trkpt><trkpt lat="33.63473701179897" lon="10.005705845835028"><ele>150.0</ele><time>2026-04-05T17:33:02Z</time></trkpt><trkpt lat="33.634570105485324" lon="10.00558779981895"><ele>150.66666666666666</ele><time>2026-04-05T17:33:03Z</time></trkpt><trkpt lat="33.63439620236328" lon="10.005475846484313"><ele>151.33333333333331</ele><time>2026-04-05T17:33:04Z</time></trkpt><trkpt lat="33.63422093589965" lon="10.005367855632993"><ele>152.0</ele><time>2026-04-05T17:33:05Z</time></trkpt><trkpt lat="33.634041075826666" lon="10.005263763551232"><ele>152.0</ele><time>2026-04-05T17:33:06Z</time></trkpt><trkpt lat="33.63385163095332" lon="10.005167252747707"><ele>152.0</ele><time>2026-04-05T17:33:07Z</time></trkpt><trkpt lat="33.63365409104828" lon="10.005076127816936"><ele>152.0</ele><time>2026-04-05T17:33:08Z</time></trkpt><trkpt lat="33.6334498384067" lon="10.004984272749903"><ele>151.0</ele><time>2026-04-05T17:33:09Z</time></trkpt><trkpt lat="33.633243769033456" lon="10.004898187798311"><ele>150.0</ele><time>2026-04-05T17:33:10Z</time></trkpt><trkpt lat="33.6330331144645" lon="10.00481263039223"><ele>149.0</ele><time>2026-04-05T17:33:11Z</time></trkpt><trkpt lat="33.6328214137025" lon="10.004734680944864"><ele>150.0</ele><time>2026-04-05T17:33:12Z</time></trkpt><trkpt lat="33.63260913438047" lon="10.004662351298514"><ele>151.0</ele><time>2026-04-05T17:33:13Z</time></trkpt><trkpt lat="33.63239498788736" lon="10.0045887159252"><ele>152.0</ele><time>2026-04-05T17:33:14Z</time></trkpt><trkpt lat="33.63218777200719" lon="10.004518892583892"><ele>152.0</ele><time>2026-04-05T17:33:15Z</time></trkpt><trkpt lat="33.63197403581375" lon="10.004461983141844"><ele>152.0</ele><time>2026-04-05T17:33:16Z</time></trkpt><trkpt lat="33.63175897352653" lon="10.004413686004993"><ele>152.0</ele><time>2026-04-05T17:33:17Z</time></trkpt><trkpt lat="33.63154190149583" lon="10.004375100568936"><ele>152.33333333333331</ele><time>2026-04-05T17:33:18Z</time></trkpt><trkpt lat="33.631320359808804" lon="10.00433954273276"><ele>152.66666666666666</ele><time>2026-04-05T17:33:19Z</time></trkpt><trkpt lat="33.63109807299392" lon="10.004310243048158"><ele>153.0</ele><time>2026-04-05T17:33:20Z</time></trkpt><trkpt lat="33.63086866516641" lon="10.004284974157352"><ele>154.0</ele><time>2026-04-05T17:33:21Z</time></trkpt><trkpt lat="33.630638055152694" lon="10.00426233262338"><ele>155.0</ele><time>2026-04-05T17:33:22Z</time></trkpt><trkpt lat="33.630404684732795" lon="10.004237027646424"><ele>156.5</ele><time>2026-04-05T17:33:23Z</time></trkpt><trkpt lat="33.63017422899314" lon="10.004211582441284"><ele>158.0</ele><time>2026-04-05T17:33:24Z</time></trkpt><trkpt lat="33.629942655387545" lon="10.004190239290292"><ele>158.0</ele><time>2026-04-05T17:33:25Z</time></trkpt><trkpt lat="33.629711441713916" lon="10.004167622273116"><ele>158.0</ele><time>2026-04-05T17:33:26Z</time></trkpt><trkpt lat="33.62947993039729" lon="10.00414531991078"><ele>158.0</ele><time>2026-04-05T17:33:27Z</time></trkpt><trkpt lat="33.62924790644768" lon="10.004122904073009"><ele>158.0</ele><time>2026-04-05T17:33:28Z</time></trkpt><trkpt lat="33.62901079510037" lon="10.004096203263"><ele>158.0</ele><time>2026-04-05T17:33:29.001Z</time></trkpt><trkpt lat="33.62877564623987" lon="10.00407168057582"><ele>158.0</ele><time>2026-04-05T17:33:30.001Z</time></trkpt><trkpt lat="33.62854299465987" lon="10.0040530695552"><ele>157.66666666666666</ele><time>2026-04-05T17:33:31.001Z</time></trkpt><trkpt lat="33.628317958457586" lon="10.004029793941042"><ele>157.33333333333334</ele><time>2026-04-05T17:33:32.001Z</time></trkpt><trkpt lat="33.62809670898157" lon="10.004001122854419"><ele>157.0</ele><time>2026-04-05T17:33:33.001Z</time></trkpt><trkpt lat="33.62787617322926" lon="10.00397216855039"><ele>157.66666666666669</ele><time>2026-04-05T17:33:34.001Z</time></trkpt><trkpt lat="33.62765546400052" lon="10.003947274536271"><ele>158.33333333333334</ele><time>2026-04-05T17:33:35.001Z</time></trkpt><trkpt lat="33.62743243388957" lon="10.00392731353673"><ele>159.0</ele><time>2026-04-05T17:33:36.001Z</time></trkpt><trkpt lat="33.62721012376889" lon="10.00390454697024"><ele>159.0</ele><time>2026-04-05T17:33:37.001Z</time></trkpt><trkpt lat="33.626987732885055" lon="10.003879299678784"><ele>159.0</ele><time>2026-04-05T17:33:38.001Z</time></trkpt><trkpt lat="33.62676781086063" lon="10.003845637739827"><ele>159.0</ele><time>2026-04-05T17:33:39.001Z</time></trkpt><trkpt lat="33.62655117662767" lon="10.003811155842303"><ele>160.0</ele><time>2026-04-05T17:33:40.001Z</time></trkpt><trkpt lat="33.62633143620185" lon="10.003771149891062"><ele>161.0</ele><time>2026-04-05T17:33:41.001Z</time></trkpt><trkpt lat="33.62610854772183" lon="10.003719517416153"><ele>162.0</ele><time>2026-04-05T17:33:42.001Z</time></trkpt><trkpt lat="33.625887297749294" lon="10.003662057490898"><ele>162.5</ele><time>2026-04-05T17:33:43.001Z</time></trkpt><trkpt lat="33.62565925119935" lon="10.003591586648056"><ele>163.0</ele><time>2026-04-05T17:33:44.001Z</time></trkpt><trkpt lat="33.62542973818898" lon="10.003519152950151"><ele>162.5</ele><time>2026-04-05T17:33:45.001Z</time></trkpt><trkpt lat="33.625202337755724" lon="10.003442444803138"><ele>162.0</ele><time>2026-04-05T17:33:46.001Z</time></trkpt><trkpt lat="33.62499194372987" lon="10.003354714917556"><ele>161.66666666666666</ele><time>2026-04-05T17:33:47.001Z</time></trkpt><trkpt lat="33.62480281798561" lon="10.003252328695654"><ele>161.33333333333331</ele><time>2026-04-05T17:33:48.001Z</time></trkpt><trkpt lat="33.62462632119099" lon="10.003134315719306"><ele>161.0</ele><time>2026-04-05T17:33:49.001Z</time></trkpt><trkpt lat="33.62445990938743" lon="10.002992629345927"><ele>161.0</ele><time>2026-04-05T17:33:50.001Z</time></trkpt><trkpt lat="33.62431039422648" lon="10.00283983943604"><ele>161.0</ele><time>2026-04-05T17:33:51.001Z</time></trkpt><trkpt lat="33.6241778148587" lon="10.002689441009691"><ele>161.0</ele><time>2026-04-05T17:33:52.001Z</time></trkpt><trkpt lat="33.624052207675724" lon="10.002545532104277"><ele>161.0</ele><time>2026-04-05T17:33:53.001Z</time></trkpt><trkpt lat="33.62392638430006" lon="10.002415212508877"><ele>161.0</ele><time>2026-04-05T17:33:54.001Z</time></trkpt><trkpt lat="33.62377425050668" lon="10.002291261005391"><ele>161.0</ele><time>2026-04-05T17:33:55.001Z</time></trkpt><trkpt lat="33.623607913145875" lon="10.002197091322921"><ele>161.66666666666666</ele><time>2026-04-05T17:33:56.001Z</time></trkpt><trkpt lat="33.62342021108088" lon="10.002124865314551"><ele>162.33333333333334</ele><time>2026-04-05T17:33:57.001Z</time></trkpt><trkpt lat="33.62321800152906" lon="10.002082513707048"><ele>163.0</ele><time>2026-04-05T17:33:58.001Z</time></trkpt><trkpt lat="33.62299985985251" lon="10.002073678081874"><ele>165.5</ele><time>2026-04-05T17:33:59.001Z</time></trkpt><trkpt lat="33.62276083751103" lon="10.002089722782081"><ele>168.0</ele><time>2026-04-05T17:34:00.001Z</time></trkpt><trkpt lat="33.622511429824314" lon="10.002120083616807"><ele>168.0</ele><time>2026-04-05T17:34:01.001Z</time></trkpt><trkpt lat="33.62224495151335" lon="10.002138059373058"><ele>168.0</ele><time>2026-04-05T17:34:02.001Z</time></trkpt><trkpt lat="33.62196334167765" lon="10.002152013864203"><ele>168.5</ele><time>2026-04-05T17:34:03.001Z</time></trkpt><trkpt lat="33.62167170478316" lon="10.002170271520894"><ele>169.0</ele><time>2026-04-05T17:34:04.001Z</time></trkpt><trkpt lat="33.62137484363361" lon="10.00218401950481"><ele>170.5</ele><time>2026-04-05T17:34:05.001Z</time></trkpt><trkpt lat="33.62109286758237" lon="10.00218537216946"><ele>172.0</ele><time>2026-04-05T17:34:06.001Z</time></trkpt><trkpt lat="33.62083490195237" lon="10.002188644019261"><ele>172.0</ele><time>2026-04-05T17:34:07.001Z</time></trkpt><trkpt lat="33.62058795304119" lon="10.002200583399318"><ele>172.0</ele><time>2026-04-05T17:34:08.001Z</time></trkpt><trkpt lat="33.62034164206197" lon="10.002208570474975"><ele>174.5</ele><time>2026-04-05T17:34:09.001Z</time></trkpt><trkpt lat="33.6200930405091" lon="10.002196489697173"><ele>177.0</ele><time>2026-04-05T17:34:10.001Z</time></trkpt><trkpt lat="33.619842626572016" lon="10.002163007901418"><ele>177.0</ele><time>2026-04-05T17:34:11.001Z</time></trkpt><trkpt lat="33.61959583876071" lon="10.002112481290851"><ele>177.0</ele><time>2026-04-05T17:34:12.001Z</time></trkpt><trkpt lat="33.61935443559743" lon="10.002041589581973"><ele>178.0</ele><time>2026-04-05T17:34:13Z</time></trkpt><trkpt lat="33.619110644382665" lon="10.00195225134034"><ele>179.0</ele><time>2026-04-05T17:34:14Z</time></trkpt><trkpt lat="33.618872573122786" lon="10.001850475375278"><ele>179.0</ele><time>2026-04-05T17:34:15Z</time></trkpt><trkpt lat="33.61865217471715" lon="10.001738374897581"><ele>179.0</ele><time>2026-04-05T17:34:16Z</time></trkpt><trkpt lat="33.61843794179275" lon="10.001617498349097"><ele>180.5</ele><time>2026-04-05T17:34:17Z</time></trkpt><trkpt lat="33.61823742525947" lon="10.001484431508459"><ele>182.0</ele><time>2026-04-05T17:34:18Z</time></trkpt><trkpt lat="33.61803969239231" lon="10.001340302745302"><ele>182.0</ele><time>2026-04-05T17:34:19Z</time></trkpt><trkpt lat="33.6178481215487" lon="10.001185233961571"><ele>182.0</ele><time>2026-04-05T17:34:20Z</time></trkpt><trkpt lat="33.61766179898098" lon="10.001026453347981"><ele>181.5</ele><time>2026-04-05T17:34:21Z</time></trkpt><trkpt lat="33.61747744616133" lon="10.000863487050916"><ele>181.0</ele><time>2026-04-05T17:34:22Z</time></trkpt><trkpt lat="33.61729546960438" lon="10.000693380030016"><ele>181.0</ele><time>2026-04-05T17:34:23Z</time></trkpt><trkpt lat="33.617114781525764" lon="10.000524769359656"><ele>181.0</ele><time>2026-04-05T17:34:24Z</time></trkpt><trkpt lat="33.61693623070658" lon="10.000360839199681"><ele>182.66666666666669</ele><time>2026-04-05T17:34:25Z</time></trkpt><trkpt lat="33.61676070432781" lon="10.000201967698327"><ele>184.33333333333334</ele><time>2026-04-05T17:34:26Z</time></trkpt><trkpt lat="33.61659806412076" lon="10.000054249440959"><ele>186.0</ele><time>2026-04-05T17:34:27Z</time></trkpt><trkpt lat="33.6164396749841" lon="9.999913726370908"><ele>186.0</ele><time>2026-04-05T17:34:28Z</time></trkpt><trkpt lat="33.6162823477449" lon="9.999788269551646"><ele>186.0</ele><time>2026-04-05T17:34:29Z</time></trkpt><trkpt lat="33.616108845263994" lon="9.999678259388393"><ele>186.0</ele><time>2026-04-05T17:34:30Z</time></trkpt><trkpt lat="33.61591687431296" lon="9.999609799440684"><ele>185.66666666666666</ele><time>2026-04-05T17:34:31Z</time></trkpt><trkpt lat="33.6157056111385" lon="9.999573521506951"><ele>185.33333333333331</ele><time>2026-04-05T17:34:32Z</time></trkpt><trkpt lat="33.61548074069778" lon="9.99957179894329"><ele>185.0</ele><time>2026-04-05T17:34:33Z</time></trkpt><trkpt lat="33.61525674596093" lon="9.999600288065043"><ele>185.66666666666666</ele><time>2026-04-05T17:34:34Z</time></trkpt><trkpt lat="33.61504802996614" lon="9.999636111720477"><ele>186.33333333333334</ele><time>2026-04-05T17:34:35Z</time></trkpt><trkpt lat="33.61485540750893" lon="9.999644168555637"><ele>187.0</ele><time>2026-04-05T17:34:36Z</time></trkpt><trkpt lat="33.61466255459731" lon="9.999619901362562"><ele>187.66666666666669</ele><time>2026-04-05T17:34:37Z</time></trkpt><trkpt lat="33.61447166126137" lon="9.999570182442927"><ele>188.33333333333334</ele><time>2026-04-05T17:34:38Z</time></trkpt><trkpt lat="33.614295283601685" lon="9.999497695780851"><ele>189.0</ele><time>2026-04-05T17:34:39Z</time></trkpt><trkpt lat="33.61413159299989" lon="9.99939578757002"><ele>189.0</ele><time>2026-04-05T17:34:40Z</time></trkpt><trkpt lat="33.6139720925563" lon="9.999278305442957"><ele>189.0</ele><time>2026-04-05T17:34:41Z</time></trkpt><trkpt lat="33.613809527213895" lon="9.999154363885626"><ele>189.0</ele><time>2026-04-05T17:34:42Z</time></trkpt><trkpt lat="33.613645621525" lon="9.999029530929912"><ele>189.33333333333334</ele><time>2026-04-05T17:34:43Z</time></trkpt><trkpt lat="33.613475893248975" lon="9.998898041864422"><ele>189.66666666666669</ele><time>2026-04-05T17:34:44Z</time></trkpt><trkpt lat="33.61330628418583" lon="9.998764906645611"><ele>190.0</ele><time>2026-04-05T17:34:45Z</time></trkpt><trkpt lat="33.61313563761592" lon="9.998634946118829"><ele>190.0</ele><time>2026-04-05T17:34:46Z</time></trkpt><trkpt lat="33.61296439439483" lon="9.998500531645545"><ele>190.0</ele><time>2026-04-05T17:34:47Z</time></trkpt><trkpt lat="33.612787963596205" lon="9.998357895032015"><ele>190.0</ele><time>2026-04-05T17:34:48Z</time></trkpt><trkpt lat="33.61261453924721" lon="9.998203687885646"><ele>190.66666666666669</ele><time>2026-04-05T17:34:49Z</time></trkpt><trkpt lat="33.612448456335166" lon="9.998035223511959"><ele>191.33333333333334</ele><time>2026-04-05T17:34:50Z</time></trkpt><trkpt lat="33.612292582424374" lon="9.997852988041565"><ele>192.0</ele><time>2026-04-05T17:34:51Z</time></trkpt><trkpt lat="33.612153623554626" lon="9.997663598906087"><ele>192.0</ele><time>2026-04-05T17:34:52Z</time></trkpt><trkpt lat="33.61203431758329" lon="9.997470790320827"><ele>192.0</ele><time>2026-04-05T17:34:53Z</time></trkpt><trkpt lat="33.61193216327111" lon="9.997263140897257"><ele>192.0</ele><time>2026-04-05T17:34:54Z</time></trkpt><trkpt lat="33.61184268704306" lon="9.997043394232858"><ele>191.66666666666666</ele><time>2026-04-05T17:34:55Z</time></trkpt><trkpt lat="33.61176700612757" lon="9.996818261452294"><ele>191.33333333333331</ele><time>2026-04-05T17:34:56Z</time></trkpt><trkpt lat="33.61170083160251" lon="9.99660172805363"><ele>191.0</ele><time>2026-04-05T17:34:57Z</time></trkpt><trkpt lat="33.61163757550459" lon="9.996372965938825"><ele>192.0</ele><time>2026-04-05T17:34:58Z</time></trkpt><trkpt lat="33.61157778519399" lon="9.99613639689417"><ele>193.0</ele><time>2026-04-05T17:34:59Z</time></trkpt><trkpt lat="33.61150995114232" lon="9.995910602778805"><ele>194.0</ele><time>2026-04-05T17:35:00Z</time></trkpt><trkpt lat="33.611417275490155" lon="9.995709459252351"><ele>194.33333333333334</ele><time>2026-04-05T17:35:01Z</time></trkpt><trkpt lat="33.61129678192046" lon="9.99551972553024"><ele>194.66666666666669</ele><time>2026-04-05T17:35:02Z</time></trkpt><trkpt lat="33.611158714411296" lon="9.995348992104518"><ele>195.0</ele><time>2026-04-05T17:35:03Z</time></trkpt><trkpt lat="33.611007310902764" lon="9.995187894136603"><ele>195.33333333333331</ele><time>2026-04-05T17:35:04Z</time></trkpt><trkpt lat="33.61085114173361" lon="9.995031301465595"><ele>195.66666666666666</ele><time>2026-04-05T17:35:05Z</time></trkpt><trkpt lat="33.61069152145539" lon="9.994868314317946"><ele>196.0</ele><time>2026-04-05T17:35:06Z</time></trkpt><trkpt lat="33.61053058515698" lon="9.994704103832614"><ele>196.0</ele><time>2026-04-05T17:35:07Z</time></trkpt><trkpt lat="33.61036132790721" lon="9.994549050699792"><ele>196.0</ele><time>2026-04-05T17:35:08Z</time></trkpt><trkpt lat="33.61019600511444" lon="9.994407093361653"><ele>196.0</ele><time>2026-04-05T17:35:09Z</time></trkpt><trkpt lat="33.61002931905761" lon="9.99428610583319"><ele>195.0</ele><time>2026-04-05T17:35:10Z</time></trkpt><trkpt lat="33.609860092834744" lon="9.994178553810174"><ele>194.0</ele><time>2026-04-05T17:35:11Z</time></trkpt><trkpt lat="33.609686769279975" lon="9.994073245829627"><ele>193.0</ele><time>2026-04-05T17:35:12Z</time></trkpt><trkpt lat="33.609510281044884" lon="9.993965377439784"><ele>191.66666666666666</ele><time>2026-04-05T17:35:13Z</time></trkpt><trkpt lat="33.60933016652939" lon="9.993846079164003"><ele>190.33333333333331</ele><time>2026-04-05T17:35:14Z</time></trkpt><trkpt lat="33.609146190720054" lon="9.993718441170468"><ele>189.0</ele><time>2026-04-05T17:35:15Z</time></trkpt><trkpt lat="33.60895240131306" lon="9.993590198502146"><ele>189.0</ele><time>2026-04-05T17:35:16Z</time></trkpt><trkpt lat="33.6087485448821" lon="9.993471438343787"><ele>189.0</ele><time>2026-04-05T17:35:17Z</time></trkpt><trkpt lat="33.60853179482866" lon="9.993367437284101"><ele>186.5</ele><time>2026-04-05T17:35:18Z</time></trkpt><trkpt lat="33.6083065248966" lon="9.993273432496911"><ele>184.0</ele><time>2026-04-05T17:35:19Z</time></trkpt><trkpt lat="33.60807825101025" lon="9.993195730967594"><ele>184.0</ele><time>2026-04-05T17:35:20Z</time></trkpt><trkpt lat="33.60785012325351" lon="9.993138493095483"><ele>184.0</ele><time>2026-04-05T17:35:21Z</time></trkpt><trkpt lat="33.60762658738459" lon="9.993084616496017"><ele>183.0</ele><time>2026-04-05T17:35:22Z</time></trkpt><trkpt lat="33.60740243990493" lon="9.993019074193617"><ele>182.0</ele><time>2026-04-05T17:35:23Z</time></trkpt><trkpt lat="33.60717854487895" lon="9.992953650125198"><ele>181.5</ele><time>2026-04-05T17:35:24Z</time></trkpt><trkpt lat="33.60694270794598" lon="9.992892063154658"><ele>181.0</ele><time>2026-04-05T17:35:25Z</time></trkpt><trkpt lat="33.60668520592592" lon="9.992836501304915"><ele>181.0</ele><time>2026-04-05T17:35:26Z</time></trkpt><trkpt lat="33.60639871345202" lon="9.992790912798286"><ele>181.0</ele><time>2026-04-05T17:35:27Z</time></trkpt><trkpt lat="33.60608980927111" lon="9.99275716033942"><ele>179.5</ele><time>2026-04-05T17:35:28Z</time></trkpt><trkpt lat="33.60577864996274" lon="9.99272685331216"><ele>178.0</ele><time>2026-04-05T17:35:29Z</time></trkpt><trkpt lat="33.60549675259477" lon="9.992700016114549"><ele>178.0</ele><time>2026-04-05T17:35:30Z</time></trkpt><trkpt lat="33.60523487910753" lon="9.992662070298804"><ele>178.0</ele><time>2026-04-05T17:35:31Z</time></trkpt><trkpt lat="33.60497997414063" lon="9.992595826913567"><ele>179.0</ele><time>2026-04-05T17:35:32Z</time></trkpt><trkpt lat="33.60471802086839" lon="9.992493041359905"><ele>180.0</ele><time>2026-04-05T17:35:33Z</time></trkpt><trkpt lat="33.60443202894967" lon="9.992352208766727"><ele>180.0</ele><time>2026-04-05T17:35:34Z</time></trkpt><trkpt lat="33.60413666379516" lon="9.992186867670386"><ele>180.0</ele><time>2026-04-05T17:35:35.001Z</time></trkpt><trkpt lat="33.60384342892058" lon="9.99201038925664"><ele>180.0</ele><time>2026-04-05T17:35:36.001Z</time></trkpt><trkpt lat="33.60358344785618" lon="9.991846762478753"><ele>180.0</ele><time>2026-04-05T17:35:37.001Z</time></trkpt><trkpt lat="33.60335584676565" lon="9.991713032904036"><ele>180.33333333333334</ele><time>2026-04-05T17:35:38.001Z</time></trkpt><trkpt lat="33.60316356044137" lon="9.991603278860666"><ele>180.66666666666669</ele><time>2026-04-05T17:35:39.001Z</time></trkpt><trkpt lat="33.602985243040415" lon="9.991496479451094"><ele>181.0</ele><time>2026-04-05T17:35:40.001Z</time></trkpt><trkpt lat="33.602822086767944" lon="9.991368478509076"><ele>181.0</ele><time>2026-04-05T17:35:41.001Z</time></trkpt><trkpt lat="33.60267809328038" lon="9.991198168325525"><ele>181.0</ele><time>2026-04-05T17:35:42.001Z</time></trkpt><trkpt lat="33.60254680348954" lon="9.990966568242703"><ele>181.0</ele><time>2026-04-05T17:35:43.001Z</time></trkpt><trkpt lat="33.60242656059879" lon="9.990689386362792"><ele>182.0</ele><time>2026-04-05T17:35:44.001Z</time></trkpt><trkpt lat="33.60231049746617" lon="9.99040076756642"><ele>183.0</ele><time>2026-04-05T17:35:45.001Z</time></trkpt><trkpt lat="33.602188564808934" lon="9.990152825165975"><ele>184.0</ele><time>2026-04-05T17:35:46.001Z</time></trkpt><trkpt lat="33.6020502440309" lon="9.989886936213123"><ele>185.0</ele><time>2026-04-05T17:35:47.001Z</time></trkpt><trkpt lat="33.601883290518245" lon="9.989604580910118"><ele>186.0</ele><time>2026-04-05T17:35:48.001Z</time></trkpt><trkpt lat="33.60168693196739" lon="9.989312088432204"><ele>187.0</ele><time>2026-04-05T17:35:49.001Z</time></trkpt><trkpt lat="33.601475486047256" lon="9.989036244815896"><ele>187.0</ele><time>2026-04-05T17:35:50.001Z</time></trkpt><trkpt lat="33.60124064801322" lon="9.988763605734457"><ele>187.0</ele><time>2026-04-05T17:35:51.001Z</time></trkpt><trkpt lat="33.60103198636005" lon="9.988532773441111"><ele>188.33333333333334</ele><time>2026-04-05T17:35:52.001Z</time></trkpt><trkpt lat="33.60085821500346" lon="9.988351835664185"><ele>189.66666666666666</ele><time>2026-04-05T17:35:53.001Z</time></trkpt><trkpt lat="33.6006921456585" lon="9.988198505998792"><ele>191.0</ele><time>2026-04-05T17:35:54.001Z</time></trkpt><trkpt lat="33.6005125440902" lon="9.988044023429852"><ele>192.66666666666666</ele><time>2026-04-05T17:35:55.001Z</time></trkpt><trkpt lat="33.600319543665826" lon="9.987910041003552"><ele>194.33333333333331</ele><time>2026-04-05T17:35:56.001Z</time></trkpt><trkpt lat="33.60012198460036" lon="9.987804305826051"><ele>196.0</ele><time>2026-04-05T17:35:57.001Z</time></trkpt><trkpt lat="33.59992803464091" lon="9.987708500729305"><ele>196.0</ele><time>2026-04-05T17:35:58.001Z</time></trkpt><trkpt lat="33.599746063155756" lon="9.987617368141873"><ele>196.0</ele><time>2026-04-05T17:35:59.001Z</time></trkpt><trkpt lat="33.599563480198874" lon="9.98753155439672"><ele>196.0</ele><time>2026-04-05T17:36:00.001Z</time></trkpt><trkpt lat="33.59937537106316" lon="9.987462250280855"><ele>199.66666666666666</ele><time>2026-04-05T17:36:01.001Z</time></trkpt><trkpt lat="33.59918559970588" lon="9.987410797956928"><ele>203.33333333333331</ele><time>2026-04-05T17:36:02.001Z</time></trkpt><trkpt lat="33.59899616357085" lon="9.987366741509184"><ele>207.0</ele><time>2026-04-05T17:36:03.001Z</time></trkpt><trkpt lat="33.59880495847133" lon="9.987324058724717"><ele>209.0</ele><time>2026-04-05T17:36:04.001Z</time></trkpt><trkpt lat="33.59860810647548" lon="9.987290067684633"><ele>211.0</ele><time>2026-04-05T17:36:05.001Z</time></trkpt><trkpt lat="33.59839594326003" lon="9.987266332078525"><ele>213.0</ele><time>2026-04-05T17:36:06Z</time></trkpt><trkpt lat="33.59817738895057" lon="9.987251512059016"><ele>213.0</ele><time>2026-04-05T17:36:07Z</time></trkpt><trkpt lat="33.59796125303204" lon="9.987243029157266"><ele>213.0</ele><time>2026-04-05T17:36:08Z</time></trkpt><trkpt lat="33.597752632518535" lon="9.987245627848518"><ele>213.0</ele><time>2026-04-05T17:36:09Z</time></trkpt><trkpt lat="33.597555786237315" lon="9.987267711457573"><ele>212.33333333333331</ele><time>2026-04-05T17:36:10Z</time></trkpt><trkpt lat="33.59735681913232" lon="9.987301004049208"><ele>211.66666666666666</ele><time>2026-04-05T17:36:11Z</time></trkpt><trkpt lat="33.59715974556483" lon="9.98733567673986"><ele>211.0</ele><time>2026-04-05T17:36:12Z</time></trkpt><trkpt lat="33.59695854559885" lon="9.987370883441779"><ele>212.33333333333331</ele><time>2026-04-05T17:36:13Z</time></trkpt><trkpt lat="33.5967616811993" lon="9.98740769574873"><ele>213.66666666666669</ele><time>2026-04-05T17:36:14Z</time></trkpt><trkpt lat="33.59656306771699" lon="9.987440890223708"><ele>215.0</ele><time>2026-04-05T17:36:15Z</time></trkpt><trkpt lat="33.59636490146439" lon="9.987470674945829"><ele>215.0</ele><time>2026-04-05T17:36:16Z</time></trkpt><trkpt lat="33.59617418566296" lon="9.987501234836836"><ele>215.0</ele><time>2026-04-05T17:36:17Z</time></trkpt><trkpt lat="33.595980727600704" lon="9.987531868692303"><ele>215.0</ele><time>2026-04-05T17:36:18Z</time></trkpt><trkpt lat="33.59578583914872" lon="9.987563375773975"><ele>214.66666666666669</ele><time>2026-04-05T17:36:19Z</time></trkpt><trkpt lat="33.59559594419364" lon="9.987592752056946"><ele>214.33333333333331</ele><time>2026-04-05T17:36:20Z</time></trkpt><trkpt lat="33.59539728634269" lon="9.987623905517532"><ele>214.0</ele><time>2026-04-05T17:36:21Z</time></trkpt><trkpt lat="33.59519771053248" lon="9.987650562836944"><ele>216.0</ele><time>2026-04-05T17:36:22Z</time></trkpt><trkpt lat="33.594998895609706" lon="9.987671768340842"><ele>218.0</ele><time>2026-04-05T17:36:23Z</time></trkpt><trkpt lat="33.594787713544505" lon="9.987680910815627"><ele>220.0</ele><time>2026-04-05T17:36:24Z</time></trkpt><trkpt lat="33.594575382990215" lon="9.987679247841108"><ele>220.0</ele><time>2026-04-05T17:36:25Z</time></trkpt><trkpt lat="33.59437172167446" lon="9.987662015167894"><ele>220.0</ele><time>2026-04-05T17:36:26Z</time></trkpt><trkpt lat="33.59417250975438" lon="9.987627885913147"><ele>220.0</ele><time>2026-04-05T17:36:27Z</time></trkpt><trkpt lat="33.59398826653559" lon="9.987576727466585"><ele>220.0</ele><time>2026-04-05T17:36:28Z</time></trkpt><trkpt lat="33.59380478163958" lon="9.987495890633806"><ele>220.0</ele><time>2026-04-05T17:36:29Z</time></trkpt><trkpt lat="33.593605683934086" lon="9.987386680607313"><ele>220.0</ele><time>2026-04-05T17:36:30Z</time></trkpt><trkpt lat="33.593411247194105" lon="9.987263478944044"><ele>220.0</ele><time>2026-04-05T17:36:31Z</time></trkpt><trkpt lat="33.593239502052484" lon="9.987129818253079"><ele>220.0</ele><time>2026-04-05T17:36:32Z</time></trkpt><trkpt lat="33.5930764778419" lon="9.98698459082606"><ele>220.0</ele><time>2026-04-05T17:36:33Z</time></trkpt><trkpt lat="33.59291028973377" lon="9.986816604094974"><ele>220.66666666666666</ele><time>2026-04-05T17:36:34Z</time></trkpt><trkpt lat="33.59275316788032" lon="9.986633553541035"><ele>221.33333333333331</ele><time>2026-04-05T17:36:35Z</time></trkpt><trkpt lat="33.59260899090682" lon="9.986452934452096"><ele>222.0</ele><time>2026-04-05T17:36:36Z</time></trkpt><trkpt lat="33.59245988855812" lon="9.98627999445623"><ele>222.0</ele><time>2026-04-05T17:36:37Z</time></trkpt><trkpt lat="33.59230774331243" lon="9.986115859612463"><ele>222.0</ele><time>2026-04-05T17:36:38Z</time></trkpt><trkpt lat="33.59214914576509" lon="9.985951200021093"><ele>222.0</ele><time>2026-04-05T17:36:39Z</time></trkpt><trkpt lat="33.59197897164534" lon="9.985781580633157"><ele>224.5</ele><time>2026-04-05T17:36:40Z</time></trkpt><trkpt lat="33.59179687559637" lon="9.98560448209386"><ele>227.0</ele><time>2026-04-05T17:36:41Z</time></trkpt><trkpt lat="33.591617377408454" lon="9.985422047443048"><ele>227.0</ele><time>2026-04-05T17:36:42Z</time></trkpt><trkpt lat="33.591444203271855" lon="9.985231081791092"><ele>227.0</ele><time>2026-04-05T17:36:43Z</time></trkpt><trkpt lat="33.59127359408252" lon="9.985029926259136"><ele>228.0</ele><time>2026-04-05T17:36:44Z</time></trkpt><trkpt lat="33.59109538394471" lon="9.984812033080546"><ele>229.0</ele><time>2026-04-05T17:36:45Z</time></trkpt><trkpt lat="33.59092345358386" lon="9.984595424517629"><ele>229.0</ele><time>2026-04-05T17:36:46Z</time></trkpt><trkpt lat="33.59076467017367" lon="9.984395946884556"><ele>229.0</ele><time>2026-04-05T17:36:47Z</time></trkpt><trkpt lat="33.59061253227639" lon="9.984215367284854"><ele>229.0</ele><time>2026-04-05T17:36:48Z</time></trkpt><trkpt lat="33.59045345644751" lon="9.984039208753488"><ele>234.5</ele><time>2026-04-05T17:36:49Z</time></trkpt><trkpt lat="33.59028975720088" lon="9.983870775530995"><ele>240.0</ele><time>2026-04-05T17:36:50Z</time></trkpt><trkpt lat="33.59009975778672" lon="9.983704819690969"><ele>240.0</ele><time>2026-04-05T17:36:51Z</time></trkpt><trkpt lat="33.58987705583307" lon="9.983541930288792"><ele>240.0</ele><time>2026-04-05T17:36:52Z</time></trkpt><trkpt lat="33.589634456800624" lon="9.983365516999015"><ele>240.0</ele><time>2026-04-05T17:36:53Z</time></trkpt><trkpt lat="33.589377352443" lon="9.983177257663197"><ele>240.0</ele><time>2026-04-05T17:36:54Z</time></trkpt><trkpt lat="33.58911405779978" lon="9.982986206801476"><ele>240.0</ele><time>2026-04-05T17:36:55Z</time></trkpt><trkpt lat="33.58887727537492" lon="9.982810242231427"><ele>240.0</ele><time>2026-04-05T17:36:56Z</time></trkpt><trkpt lat="33.588676694688075" lon="9.982657992778549"><ele>241.0</ele><time>2026-04-05T17:36:57Z</time></trkpt><trkpt lat="33.58849860176933" lon="9.982520823235914"><ele>242.0</ele><time>2026-04-05T17:36:58Z</time></trkpt><trkpt lat="33.58832910487042" lon="9.982394293943313"><ele>243.0</ele><time>2026-04-05T17:36:59Z</time></trkpt><trkpt lat="33.58817632464793" lon="9.98229234582463"><ele>243.0</ele><time>2026-04-05T17:37:00Z</time></trkpt><trkpt lat="33.58802403933509" lon="9.982202142126916"><ele>243.0</ele><time>2026-04-05T17:37:01Z</time></trkpt><trkpt lat="33.58786437903788" lon="9.982120749701204"><ele>243.0</ele><time>2026-04-05T17:37:02Z</time></trkpt><trkpt lat="33.587699464461025" lon="9.982053651459848"><ele>242.33333333333331</ele><time>2026-04-05T17:37:03Z</time></trkpt><trkpt lat="33.58753111763196" lon="9.982011341049352"><ele>241.66666666666666</ele><time>2026-04-05T17:37:04Z</time></trkpt><trkpt lat="33.58735490463388" lon="9.981993004544732"><ele>241.0</ele><time>2026-04-05T17:37:05Z</time></trkpt><trkpt lat="33.5871779206032" lon="9.98199813556963"><ele>240.0</ele><time>2026-04-05T17:37:06Z</time></trkpt><trkpt lat="33.58700272409868" lon="9.982025109904738"><ele>239.0</ele><time>2026-04-05T17:37:07Z</time></trkpt><trkpt lat="33.58684519491496" lon="9.98207167499867"><ele>238.0</ele><time>2026-04-05T17:37:08Z</time></trkpt><trkpt lat="33.5866925797978" lon="9.982126981537814"><ele>238.0</ele><time>2026-04-05T17:37:09Z</time></trkpt><trkpt lat="33.586549440455336" lon="9.982184896639554"><ele>238.0</ele><time>2026-04-05T17:37:10Z</time></trkpt><trkpt lat="33.58642159497753" lon="9.98223733538735"><ele>238.0</ele><time>2026-04-05T17:37:11Z</time></trkpt><trkpt lat="33.586297910974544" lon="9.982296979234437"><ele>238.0</ele><time>2026-04-05T17:37:12Z</time></trkpt><trkpt lat="33.586163062168076" lon="9.982360646589797"><ele>237.33333333333331</ele><time>2026-04-05T17:37:13Z</time></trkpt><trkpt lat="33.58601914565482" lon="9.982420569265281"><ele>236.66666666666669</ele><time>2026-04-05T17:37:14Z</time></trkpt><trkpt lat="33.585869374196236" lon="9.982467300162595"><ele>236.0</ele><time>2026-04-05T17:37:15Z</time></trkpt><trkpt lat="33.58571088491396" lon="9.98250430284422"><ele>233.33333333333334</ele><time>2026-04-05T17:37:16Z</time></trkpt><trkpt lat="33.58554100819064" lon="9.982525502287933"><ele>230.66666666666669</ele><time>2026-04-05T17:37:17Z</time></trkpt><trkpt lat="33.5853715364154" lon="9.982525042834874"><ele>228.0</ele><time>2026-04-05T17:37:18Z</time></trkpt><trkpt lat="33.58520969746733" lon="9.982504354690828"><ele>228.0</ele><time>2026-04-05T17:37:19Z</time></trkpt><trkpt lat="33.5850466767874" lon="9.982476998112075"><ele>228.0</ele><time>2026-04-05T17:37:20Z</time></trkpt><trkpt lat="33.58488049605043" lon="9.982449277058848"><ele>228.0</ele><time>2026-04-05T17:37:21Z</time></trkpt><trkpt lat="33.584715656987264" lon="9.982423766854494"><ele>228.0</ele><time>2026-04-05T17:37:22Z</time></trkpt><trkpt lat="33.58455083565871" lon="9.982399467121388"><ele>228.0</ele><time>2026-04-05T17:37:23Z</time></trkpt><trkpt lat="33.58439411787168" lon="9.98237128747225"><ele>228.0</ele><time>2026-04-05T17:37:24Z</time></trkpt><trkpt lat="33.584246143706395" lon="9.98233002617666"><ele>227.0</ele><time>2026-04-05T17:37:25Z</time></trkpt><trkpt lat="33.5841123479077" lon="9.982274567414262"><ele>226.0</ele><time>2026-04-05T17:37:26Z</time></trkpt><trkpt lat="33.58398158073637" lon="9.982199814253441"><ele>225.0</ele><time>2026-04-05T17:37:27Z</time></trkpt><trkpt lat="33.583859580532916" lon="9.982099358637413"><ele>224.0</ele><time>2026-04-05T17:37:28Z</time></trkpt><trkpt lat="33.58374040452769" lon="9.981968712400416"><ele>223.33333333333334</ele><time>2026-04-05T17:37:29Z</time></trkpt><trkpt lat="33.583625554657665" lon="9.981808327624774"><ele>222.66666666666669</ele><time>2026-04-05T17:37:30Z</time></trkpt><trkpt lat="33.58351363964159" lon="9.981631535184103"><ele>222.0</ele><time>2026-04-05T17:37:31Z</time></trkpt><trkpt lat="33.58339363494919" lon="9.9814459852341"><ele>222.0</ele><time>2026-04-05T17:37:32Z</time></trkpt><trkpt lat="33.58325900870117" lon="9.981234585898703"><ele>222.0</ele><time>2026-04-05T17:37:33Z</time></trkpt><trkpt lat="33.583111713285234" lon="9.980986832184467"><ele>222.0</ele><time>2026-04-05T17:37:34Z</time></trkpt><trkpt lat="33.58295145984798" lon="9.98071256273993"><ele>222.0</ele><time>2026-04-05T17:37:35Z</time></trkpt><trkpt lat="33.58278237789426" lon="9.980417491113728"><ele>222.0</ele><time>2026-04-05T17:37:36Z</time></trkpt><trkpt lat="33.58261519205098" lon="9.980122703338838"><ele>222.0</ele><time>2026-04-05T17:37:37Z</time></trkpt><trkpt lat="33.582464247503566" lon="9.979859081522832"><ele>224.0</ele><time>2026-04-05T17:37:38Z</time></trkpt><trkpt lat="33.58232150194491" lon="9.97961698547494"><ele>226.0</ele><time>2026-04-05T17:37:39Z</time></trkpt><trkpt lat="33.58218409373514" lon="9.979382581434853"><ele>226.5</ele><time>2026-04-05T17:37:40Z</time></trkpt><trkpt lat="33.58204932351499" lon="9.979158359547675"><ele>227.0</ele><time>2026-04-05T17:37:41.001Z</time></trkpt><trkpt lat="33.581913277460444" lon="9.978932838173538"><ele>227.0</ele><time>2026-04-05T17:37:42.001Z</time></trkpt><trkpt lat="33.581780910842475" lon="9.978712591018606"><ele>227.0</ele><time>2026-04-05T17:37:43.001Z</time></trkpt><trkpt lat="33.58165059342694" lon="9.978496696919374"><ele>227.0</ele><time>2026-04-05T17:37:44.001Z</time></trkpt><trkpt lat="33.581519032683694" lon="9.978279785465705"><ele>227.0</ele><time>2026-04-05T17:37:45.001Z</time></trkpt><trkpt lat="33.581385985662656" lon="9.978067620719774"><ele>227.0</ele><time>2026-04-05T17:37:46.001Z</time></trkpt><trkpt lat="33.58125196124584" lon="9.977851343361165"><ele>227.0</ele><time>2026-04-05T17:37:47.001Z</time></trkpt><trkpt lat="33.58111091290895" lon="9.977625098455219"><ele>226.0</ele><time>2026-04-05T17:37:48.001Z</time></trkpt><trkpt lat="33.58097059804902" lon="9.977393895989417"><ele>225.0</ele><time>2026-04-05T17:37:49.001Z</time></trkpt><trkpt lat="33.58082369151495" lon="9.97715419360811"><ele>225.0</ele><time>2026-04-05T17:37:50.001Z</time></trkpt><trkpt lat="33.58066579048602" lon="9.976922246674034"><ele>225.0</ele><time>2026-04-05T17:37:51.001Z</time></trkpt><trkpt lat="33.580490117394824" lon="9.976701500096853"><ele>227.0</ele><time>2026-04-05T17:37:52.001Z</time></trkpt><trkpt lat="33.580296547998906" lon="9.976490702796973"><ele>229.0</ele><time>2026-04-05T17:37:53.001Z</time></trkpt><trkpt lat="33.58009624715445" lon="9.976296080124936"><ele>229.0</ele><time>2026-04-05T17:37:54.001Z</time></trkpt><trkpt lat="33.579894773525915" lon="9.976122067432058"><ele>229.0</ele><time>2026-04-05T17:37:55.001Z</time></trkpt><trkpt lat="33.579687379073675" lon="9.975975426373793"><ele>230.5</ele><time>2026-04-05T17:37:56.001Z</time></trkpt><trkpt lat="33.57948253752068" lon="9.975844864991055"><ele>232.0</ele><time>2026-04-05T17:37:57.001Z</time></trkpt><trkpt lat="33.57928352382374" lon="9.975719582264793"><ele>232.0</ele><time>2026-04-05T17:37:58.001Z</time></trkpt><trkpt lat="33.57908523969522" lon="9.975591703427417"><ele>232.0</ele><time>2026-04-05T17:37:59.001Z</time></trkpt><trkpt lat="33.57888942297011" lon="9.9754623902293"><ele>232.0</ele><time>2026-04-05T17:38:00.001Z</time></trkpt><trkpt lat="33.57870145985554" lon="9.975335388660477"><ele>233.0</ele><time>2026-04-05T17:38:01.001Z</time></trkpt><trkpt lat="33.57851595818804" lon="9.975214096847676"><ele>234.0</ele><time>2026-04-05T17:38:02Z</time></trkpt><trkpt lat="33.57832663689667" lon="9.975092584105871"><ele>235.0</ele><time>2026-04-05T17:38:03Z</time></trkpt><trkpt lat="33.57813003649411" lon="9.974968460301048"><ele>235.0</ele><time>2026-04-05T17:38:04Z</time></trkpt><trkpt lat="33.57793557315091" lon="9.974842198002905"><ele>235.0</ele><time>2026-04-05T17:38:05Z</time></trkpt><trkpt lat="33.5777433808943" lon="9.97470693795004"><ele>235.0</ele><time>2026-04-05T17:38:06Z</time></trkpt><trkpt lat="33.57755442616931" lon="9.974567179167105"><ele>235.0</ele><time>2026-04-05T17:38:07Z</time></trkpt><trkpt lat="33.577364771501" lon="9.974414764686493"><ele>235.0</ele><time>2026-04-05T17:38:08Z</time></trkpt><trkpt lat="33.577172339454506" lon="9.974249078728691"><ele>235.0</ele><time>2026-04-05T17:38:09Z</time></trkpt><trkpt lat="33.576972145144" lon="9.974062385269436"><ele>235.0</ele><time>2026-04-05T17:38:10Z</time></trkpt><trkpt lat="33.57677481632328" lon="9.973859255792862"><ele>235.0</ele><time>2026-04-05T17:38:11Z</time></trkpt><trkpt lat="33.576586334366326" lon="9.973653563563657"><ele>235.0</ele><time>2026-04-05T17:38:12Z</time></trkpt><trkpt lat="33.57641340825706" lon="9.973464362472772"><ele>236.33333333333331</ele><time>2026-04-05T17:38:13Z</time></trkpt><trkpt lat="33.576250432364745" lon="9.973280613882226"><ele>237.66666666666669</ele><time>2026-04-05T17:38:14Z</time></trkpt><trkpt lat="33.57609869362134" lon="9.973107883706886"><ele>239.0</ele><time>2026-04-05T17:38:15Z</time></trkpt><trkpt lat="33.575950613731806" lon="9.972937270344618"><ele>239.0</ele><time>2026-04-05T17:38:16Z</time></trkpt><trkpt lat="33.57580044311911" lon="9.972765563070622"><ele>239.0</ele><time>2026-04-05T17:38:17Z</time></trkpt><trkpt lat="33.57564648970371" lon="9.972600632512046"><ele>239.0</ele><time>2026-04-05T17:38:18Z</time></trkpt><trkpt lat="33.57549757077721" lon="9.9724412423409"><ele>238.66666666666669</ele><time>2026-04-05T17:38:19Z</time></trkpt><trkpt lat="33.57535970039412" lon="9.972287192123055"><ele>238.33333333333331</ele><time>2026-04-05T17:38:20Z</time></trkpt><trkpt lat="33.575233788330216" lon="9.97214528617734"><ele>238.0</ele><time>2026-04-05T17:38:21Z</time></trkpt><trkpt lat="33.57510873393872" lon="9.972024181414657"><ele>240.66666666666666</ele><time>2026-04-05T17:38:22Z</time></trkpt><trkpt lat="33.57497293824801" lon="9.971930012425876"><ele>243.33333333333331</ele><time>2026-04-05T17:38:23Z</time></trkpt><trkpt lat="33.574827460881245" lon="9.971879518467269"><ele>246.0</ele><time>2026-04-05T17:38:24Z</time></trkpt><trkpt lat="33.57467555944588" lon="9.971858232059688"><ele>247.33333333333331</ele><time>2026-04-05T17:38:25Z</time></trkpt><trkpt lat="33.57451526797589" lon="9.9718798123567"><ele>248.66666666666666</ele><time>2026-04-05T17:38:26Z</time></trkpt><trkpt lat="33.574351650314306" lon="9.971946749180551"><ele>250.0</ele><time>2026-04-05T17:38:27Z</time></trkpt><trkpt lat="33.5741770860535" lon="9.972053465730449"><ele>250.0</ele><time>2026-04-05T17:38:28Z</time></trkpt><trkpt lat="33.57402117310305" lon="9.972174358839105"><ele>250.0</ele><time>2026-04-05T17:38:29Z</time></trkpt><trkpt lat="33.57387618289476" lon="9.972276196937262"><ele>250.0</ele><time>2026-04-05T17:38:30Z</time></trkpt><trkpt lat="33.57372459250749" lon="9.972345342443782"><ele>249.0</ele><time>2026-04-05T17:38:31Z</time></trkpt><trkpt lat="33.5735578360833" lon="9.972391396047799"><ele>248.0</ele><time>2026-04-05T17:38:32Z</time></trkpt><trkpt lat="33.57337846644303" lon="9.972400306294968"><ele>247.0</ele><time>2026-04-05T17:38:33Z</time></trkpt><trkpt lat="33.57318849202438" lon="9.972375166327291"><ele>247.0</ele><time>2026-04-05T17:38:34Z</time></trkpt><trkpt lat="33.57299055944153" lon="9.972315943922943"><ele>247.0</ele><time>2026-04-05T17:38:35Z</time></trkpt><trkpt lat="33.57278458552611" lon="9.972233343873553"><ele>247.0</ele><time>2026-04-05T17:38:36Z</time></trkpt><trkpt lat="33.57257842965391" lon="9.972135138297144"><ele>247.66666666666666</ele><time>2026-04-05T17:38:37Z</time></trkpt><trkpt lat="33.572393090343525" lon="9.972040734601654"><ele>248.33333333333331</ele><time>2026-04-05T17:38:38Z</time></trkpt><trkpt lat="33.57220740091048" lon="9.971951107576688"><ele>249.0</ele><time>2026-04-05T17:38:39Z</time></trkpt><trkpt lat="33.57200604591969" lon="9.971857373404427"><ele>249.5</ele><time>2026-04-05T17:38:40Z</time></trkpt><trkpt lat="33.57178798591803" lon="9.97175666634109"><ele>250.0</ele><time>2026-04-05T17:38:41Z</time></trkpt><trkpt lat="33.57157183499741" lon="9.971652063095464"><ele>250.0</ele><time>2026-04-05T17:38:42Z</time></trkpt><trkpt lat="33.57137358387816" lon="9.971544036338269"><ele>250.0</ele><time>2026-04-05T17:38:43Z</time></trkpt><trkpt lat="33.57118208331756" lon="9.97141359818237"><ele>250.0</ele><time>2026-04-05T17:38:44Z</time></trkpt><trkpt lat="33.57099980579233" lon="9.971274468398338"><ele>250.66666666666666</ele><time>2026-04-05T17:38:45Z</time></trkpt><trkpt lat="33.57083125344249" lon="9.971144327424037"><ele>251.33333333333331</ele><time>2026-04-05T17:38:46Z</time></trkpt><trkpt lat="33.57067560372745" lon="9.971014815300947"><ele>252.0</ele><time>2026-04-05T17:38:47Z</time></trkpt><trkpt lat="33.57051679444193" lon="9.970877742120734"><ele>253.33333333333331</ele><time>2026-04-05T17:38:48Z</time></trkpt><trkpt lat="33.57035515848307" lon="9.970748082992918"><ele>254.66666666666666</ele><time>2026-04-05T17:38:49Z</time></trkpt><trkpt lat="33.570186292388264" lon="9.970626676716295"><ele>256.0</ele><time>2026-04-05T17:38:50Z</time></trkpt><trkpt lat="33.570010964241305" lon="9.970520624124493"><ele>256.0</ele><time>2026-04-05T17:38:51Z</time></trkpt><trkpt lat="33.56983431057886" lon="9.97042607983322"><ele>256.0</ele><time>2026-04-05T17:38:52Z</time></trkpt><trkpt lat="33.56964656677401" lon="9.970349409360157"><ele>256.0</ele><time>2026-04-05T17:38:53Z</time></trkpt><trkpt lat="33.56944720203571" lon="9.970303280320271"><ele>256.0</ele><time>2026-04-05T17:38:54Z</time></trkpt><trkpt lat="33.569246606798345" lon="9.970286857028109"><ele>256.0</ele><time>2026-04-05T17:38:55Z</time></trkpt><trkpt lat="33.56904682338401" lon="9.970289315434528"><ele>256.0</ele><time>2026-04-05T17:38:56Z</time></trkpt><trkpt lat="33.56885294713111" lon="9.970289643471292"><ele>257.3333333333333</ele><time>2026-04-05T17:38:57Z</time></trkpt><trkpt lat="33.568656895933636" lon="9.97025728433089"><ele>258.6666666666667</ele><time>2026-04-05T17:38:58Z</time></trkpt><trkpt lat="33.56846599314957" lon="9.97017935158"><ele>260.0</ele><time>2026-04-05T17:38:59Z</time></trkpt><trkpt lat="33.568273013968266" lon="9.970059336851005"><ele>261.0</ele><time>2026-04-05T17:39:00Z</time></trkpt><trkpt lat="33.568068534390726" lon="9.969918825722734"><ele>262.0</ele><time>2026-04-05T17:39:01Z</time></trkpt><trkpt lat="33.567863212199924" lon="9.969790921104275"><ele>262.66666666666663</ele><time>2026-04-05T17:39:02Z</time></trkpt><trkpt lat="33.56766198020413" lon="9.969676729398865"><ele>263.3333333333333</ele><time>2026-04-05T17:39:03Z</time></trkpt><trkpt lat="33.56746246335779" lon="9.969566034477008"><ele>264.0</ele><time>2026-04-05T17:39:04Z</time></trkpt><trkpt lat="33.56725798702466" lon="9.969458381891862"><ele>264.0</ele><time>2026-04-05T17:39:05Z</time></trkpt><trkpt lat="33.56704829657193" lon="9.969367345438867"><ele>264.0</ele><time>2026-04-05T17:39:06Z</time></trkpt><trkpt lat="33.56683510849561" lon="9.969287438301999"><ele>264.0</ele><time>2026-04-05T17:39:07Z</time></trkpt><trkpt lat="33.566634716778324" lon="9.969218286615167"><ele>264.3333333333333</ele><time>2026-04-05T17:39:08Z</time></trkpt><trkpt lat="33.56645873298212" lon="9.969169663294458"><ele>264.66666666666663</ele><time>2026-04-05T17:39:09Z</time></trkpt><trkpt lat="33.566303251870934" lon="9.969145273155592"><ele>265.0</ele><time>2026-04-05T17:39:10Z</time></trkpt><trkpt lat="33.566164920446866" lon="9.969143443597167"><ele>266.5</ele><time>2026-04-05T17:39:11Z</time></trkpt><trkpt lat="33.56603240228015" lon="9.96916996376911"><ele>268.0</ele><time>2026-04-05T17:39:12Z</time></trkpt><trkpt lat="33.56589954824959" lon="9.969230865536192"><ele>269.5</ele><time>2026-04-05T17:39:13Z</time></trkpt><trkpt lat="33.565769630248255" lon="9.9693260603008"><ele>271.0</ele><time>2026-04-05T17:39:14Z</time></trkpt><trkpt lat="33.56564696266808" lon="9.969438529391004"><ele>273.0</ele><time>2026-04-05T17:39:15Z</time></trkpt><trkpt lat="33.56551845114573" lon="9.969536462706985"><ele>275.0</ele><time>2026-04-05T17:39:16Z</time></trkpt><trkpt lat="33.56538085742052" lon="9.96959582201338"><ele>277.0</ele><time>2026-04-05T17:39:17Z</time></trkpt><trkpt lat="33.565236835378904" lon="9.969618625122658"><ele>279.0</ele><time>2026-04-05T17:39:18Z</time></trkpt><trkpt lat="33.56509342077844" lon="9.969601518226204"><ele>280.5</ele><time>2026-04-05T17:39:19Z</time></trkpt><trkpt lat="33.56494248640718" lon="9.969550995278587"><ele>282.0</ele><time>2026-04-05T17:39:20Z</time></trkpt><trkpt lat="33.564797823782904" lon="9.969484011111108"><ele>283.5</ele><time>2026-04-05T17:39:21Z</time></trkpt><trkpt lat="33.564669863072545" lon="9.969428447223628"><ele>285.0</ele><time>2026-04-05T17:39:22Z</time></trkpt><trkpt lat="33.56453746711857" lon="9.969382800656266"><ele>287.0</ele><time>2026-04-05T17:39:23Z</time></trkpt><trkpt lat="33.56439411776185" lon="9.969351438489397"><ele>289.0</ele><time>2026-04-05T17:39:24Z</time></trkpt><trkpt lat="33.56424683922741" lon="9.969349644820237"><ele>291.0</ele><time>2026-04-05T17:39:25Z</time></trkpt><trkpt lat="33.564116345310765" lon="9.969379366521668"><ele>293.0</ele><time>2026-04-05T17:39:26Z</time></trkpt><trkpt lat="33.56400600075211" lon="9.96945268952466"><ele>293.0</ele><time>2026-04-05T17:39:27Z</time></trkpt><trkpt lat="33.563932088949194" lon="9.969560937431282"><ele>293.0</ele><time>2026-04-05T17:39:28Z</time></trkpt><trkpt lat="33.56387818228227" lon="9.969697128331024"><ele>293.0</ele><time>2026-04-05T17:39:29Z</time></trkpt><trkpt lat="33.56384568169687" lon="9.969865522132666"><ele>293.0</ele><time>2026-04-05T17:39:30Z</time></trkpt><trkpt lat="33.56383913918401" lon="9.970031056584077"><ele>294.25</ele><time>2026-04-05T17:39:31Z</time></trkpt><trkpt lat="33.563833624193435" lon="9.970186702721092"><ele>295.5</ele><time>2026-04-05T17:39:32Z</time></trkpt><trkpt lat="33.56379764099745" lon="9.970321621467706"><ele>296.75</ele><time>2026-04-05T17:39:33Z</time></trkpt><trkpt lat="33.56373079967647" lon="9.97042257217271"><ele>298.0</ele><time>2026-04-05T17:39:34Z</time></trkpt><trkpt lat="33.563629175185" lon="9.970508089931364"><ele>298.25</ele><time>2026-04-05T17:39:35Z</time></trkpt><trkpt lat="33.56349963908581" lon="9.970579789070657"><ele>298.5</ele><time>2026-04-05T17:39:36Z</time></trkpt><trkpt lat="33.56337254838485" lon="9.97065325414252"><ele>298.75</ele><time>2026-04-05T17:39:37Z</time></trkpt><trkpt lat="33.56326198195498" lon="9.970742784074742"><ele>299.0</ele><time>2026-04-05T17:39:38Z</time></trkpt><trkpt lat="33.56317408367161" lon="9.970833665349932"><ele>299.8</ele><time>2026-04-05T17:39:39Z</time></trkpt><trkpt lat="33.56309508446676" lon="9.970895604590783"><ele>300.59999999999997</ele><time>2026-04-05T17:39:40Z</time></trkpt><trkpt lat="33.56300187932242" lon="9.970909309875658"><ele>301.4</ele><time>2026-04-05T17:39:41Z</time></trkpt><trkpt lat="33.56290665305862" lon="9.970867493152314"><ele>302.2</ele><time>2026-04-05T17:39:42Z</time></trkpt><trkpt lat="33.56281843679777" lon="9.970774246389515"><ele>303.0</ele><time>2026-04-05T17:39:43Z</time></trkpt><trkpt lat="33.562738937088824" lon="9.970657832407511"><ele>303.0</ele><time>2026-04-05T17:39:44Z</time></trkpt><trkpt lat="33.56266611621116" lon="9.970572937851648"><ele>303.0</ele><time>2026-04-05T17:39:45Z</time></trkpt><trkpt lat="33.562588487053475" lon="9.970538621840298"><ele>303.0</ele><time>2026-04-05T17:39:46Z</time></trkpt><trkpt lat="33.56251023930554" lon="9.970553458731047"><ele>303.0</ele><time>2026-04-05T17:39:47Z</time></trkpt><trkpt lat="33.562437626399934" lon="9.970610021636254"><ele>303.0</ele><time>2026-04-05T17:39:48Z</time></trkpt><trkpt lat="33.56235601913759" lon="9.970704221309601"><ele>303.0</ele><time>2026-04-05T17:39:49Z</time></trkpt><trkpt lat="33.56225122965497" lon="9.97078852293415"><ele>303.0</ele><time>2026-04-05T17:39:50Z</time></trkpt><trkpt lat="33.562107931605055" lon="9.970819075355186"><ele>303.0</ele><time>2026-04-05T17:39:51Z</time></trkpt><trkpt lat="33.56193929106167" lon="9.970814617180183"><ele>303.0</ele><time>2026-04-05T17:39:52Z</time></trkpt><trkpt lat="33.56175403303214" lon="9.970784610424529"><ele>303.5</ele><time>2026-04-05T17:39:53Z</time></trkpt><trkpt lat="33.561593767718875" lon="9.970757184807184"><ele>304.0</ele><time>2026-04-05T17:39:54Z</time></trkpt><trkpt lat="33.56146554769679" lon="9.970730139234478"><ele>304.5</ele><time>2026-04-05T17:39:55Z</time></trkpt><trkpt lat="33.5613628067132" lon="9.97067304569882"><ele>305.0</ele><time>2026-04-05T17:39:56Z</time></trkpt><trkpt lat="33.56127264792415" lon="9.970608267149055"><ele>306.0</ele><time>2026-04-05T17:39:57Z</time></trkpt><trkpt lat="33.56117870532613" lon="9.970564295698285"><ele>307.0</ele><time>2026-04-05T17:39:58Z</time></trkpt><trkpt lat="33.56106791867296" lon="9.9705738108941"><ele>308.0</ele><time>2026-04-05T17:39:59Z</time></trkpt><trkpt lat="33.56094280156161" lon="9.970627816860928"><ele>309.0</ele><time>2026-04-05T17:40:00Z</time></trkpt><trkpt lat="33.56080637292765" lon="9.970677095263337"><ele>309.0</ele><time>2026-04-05T17:40:01Z</time></trkpt><trkpt lat="33.5606651503137" lon="9.97066886897779"><ele>309.0</ele><time>2026-04-05T17:40:02Z</time></trkpt><trkpt lat="33.56050454011896" lon="9.970598012937876"><ele>309.0</ele><time>2026-04-05T17:40:03Z</time></trkpt><trkpt lat="33.56032264584995" lon="9.970493331385777"><ele>310.3333333333333</ele><time>2026-04-05T17:40:04Z</time></trkpt><trkpt lat="33.56017094173544" lon="9.9703883222847"><ele>311.66666666666663</ele><time>2026-04-05T17:40:05Z</time></trkpt><trkpt lat="33.56004519948079" lon="9.970305763671472"><ele>313.0</ele><time>2026-04-05T17:40:06Z</time></trkpt><trkpt lat="33.559892994993646" lon="9.970255445470931"><ele>313.0</ele><time>2026-04-05T17:40:07Z</time></trkpt><trkpt lat="33.55971553215593" lon="9.970230590114205"><ele>313.0</ele><time>2026-04-05T17:40:08Z</time></trkpt><trkpt lat="33.55953509207596" lon="9.97022923126166"><ele>313.0</ele><time>2026-04-05T17:40:09Z</time></trkpt><trkpt lat="33.55938128682199" lon="9.970236969701588"><ele>313.25</ele><time>2026-04-05T17:40:10Z</time></trkpt><trkpt lat="33.559241006064" lon="9.970237959588017"><ele>313.5</ele><time>2026-04-05T17:40:11Z</time></trkpt><trkpt lat="33.559107721521585" lon="9.970235122529708"><ele>313.75</ele><time>2026-04-05T17:40:12Z</time></trkpt><trkpt lat="33.55896290446766" lon="9.970239306440758"><ele>314.0</ele><time>2026-04-05T17:40:13Z</time></trkpt><trkpt lat="33.558802622808" lon="9.970280015791195"><ele>315.75</ele><time>2026-04-05T17:40:14Z</time></trkpt><trkpt lat="33.55864039212079" lon="9.970348210451117"><ele>317.5</ele><time>2026-04-05T17:40:15Z</time></trkpt><trkpt lat="33.558514854497766" lon="9.970413526292546"><ele>319.25</ele><time>2026-04-05T17:40:16Z</time></trkpt><trkpt lat="33.55841120641597" lon="9.970457348119128"><ele>321.0</ele><time>2026-04-05T17:40:17Z</time></trkpt><trkpt lat="33.55832319504566" lon="9.970446861230812"><ele>321.0</ele><time>2026-04-05T17:40:18Z</time></trkpt><trkpt lat="33.55822755344819" lon="9.970406643966308"><ele>321.0</ele><time>2026-04-05T17:40:19Z</time></trkpt><trkpt lat="33.558124970866515" lon="9.970383348055485"><ele>321.0</ele><time>2026-04-05T17:40:20Z</time></trkpt><trkpt lat="33.558035708122695" lon="9.970387642612527"><ele>321.0</ele><time>2026-04-05T17:40:21Z</time></trkpt><trkpt lat="33.55794978422329" lon="9.970423870274566"><ele>321.0</ele><time>2026-04-05T17:40:22Z</time></trkpt><trkpt lat="33.55786208452849" lon="9.970508081342064"><ele>322.75</ele><time>2026-04-05T17:40:23Z</time></trkpt><trkpt lat="33.55776562541823" lon="9.970637928841535"><ele>324.5</ele><time>2026-04-05T17:40:24Z</time></trkpt><trkpt lat="33.55766946727676" lon="9.970783798809627"><ele>326.25</ele><time>2026-04-05T17:40:25Z</time></trkpt><trkpt lat="33.557584199649426" lon="9.970908456851298"><ele>328.0</ele><time>2026-04-05T17:40:26Z</time></trkpt><trkpt lat="33.557518153640835" lon="9.971020477523261"><ele>328.79999999999995</ele><time>2026-04-05T17:40:27Z</time></trkpt><trkpt lat="33.55745931792937" lon="9.971132953585736"><ele>329.6</ele><time>2026-04-05T17:40:28Z</time></trkpt><trkpt lat="33.5574072402976" lon="9.971244635229908"><ele>330.4</ele><time>2026-04-05T17:40:29Z</time></trkpt><trkpt lat="33.55735929695301" lon="9.971357899689105"><ele>331.20000000000005</ele><time>2026-04-05T17:40:30Z</time></trkpt><trkpt lat="33.557301929075486" lon="9.971466238591075"><ele>332.0</ele><time>2026-04-05T17:40:31Z</time></trkpt><trkpt lat="33.55721912657075" lon="9.971558513813426"><ele>332.0</ele><time>2026-04-05T17:40:32Z</time></trkpt><trkpt lat="33.55710349025345" lon="9.971620952560928"><ele>332.0</ele><time>2026-04-05T17:40:33Z</time></trkpt><trkpt lat="33.55696643324789" lon="9.971656296961633"><ele>332.0</ele><time>2026-04-05T17:40:34Z</time></trkpt><trkpt lat="33.556816339068696" lon="9.971661980546086"><ele>332.0</ele><time>2026-04-05T17:40:35Z</time></trkpt><trkpt lat="33.55666185086901" lon="9.971637810568598"><ele>334.33333333333337</ele><time>2026-04-05T17:40:36Z</time></trkpt><trkpt lat="33.556494080359265" lon="9.971588302000843"><ele>336.6666666666667</ele><time>2026-04-05T17:40:37Z</time></trkpt><trkpt lat="33.55631840561868" lon="9.971550366225115"><ele>339.0</ele><time>2026-04-05T17:40:38Z</time></trkpt><trkpt lat="33.556121161368715" lon="9.971533446366433"><ele>339.5</ele><time>2026-04-05T17:40:39Z</time></trkpt><trkpt lat="33.55590642619625" lon="9.971496497208578"><ele>340.0</ele><time>2026-04-05T17:40:40Z</time></trkpt><trkpt lat="33.55567736994963" lon="9.971420013013462"><ele>340.0</ele><time>2026-04-05T17:40:41Z</time></trkpt><trkpt lat="33.5554528648994" lon="9.971336037758356"><ele>340.0</ele><time>2026-04-05T17:40:42Z</time></trkpt><trkpt lat="33.55526720258882" lon="9.971263536211477"><ele>340.0</ele><time>2026-04-05T17:40:43Z</time></trkpt><trkpt lat="33.55511078108915" lon="9.97119163677876"><ele>339.3333333333333</ele><time>2026-04-05T17:40:44Z</time></trkpt><trkpt lat="33.55496552464832" lon="9.9710906031039"><ele>338.6666666666667</ele><time>2026-04-05T17:40:45Z</time></trkpt><trkpt lat="33.55481294590429" lon="9.970956102761825"><ele>338.0</ele><time>2026-04-05T17:40:46Z</time></trkpt><trkpt lat="33.5546465516006" lon="9.970806237392573"><ele>340.0</ele><time>2026-04-05T17:40:47Z</time></trkpt><trkpt lat="33.55447590595366" lon="9.970693084653513"><ele>342.0</ele><time>2026-04-05T17:40:48Z</time></trkpt><trkpt lat="33.554311965820276" lon="9.970597912846596"><ele>344.0</ele><time>2026-04-05T17:40:49Z</time></trkpt><trkpt lat="33.554159832562306" lon="9.97052242575157"><ele>344.0</ele><time>2026-04-05T17:40:50Z</time></trkpt><trkpt lat="33.55403008041169" lon="9.970439262933079"><ele>344.0</ele><time>2026-04-05T17:40:51Z</time></trkpt><trkpt lat="33.553894334072844" lon="9.970347977977315"><ele>344.0</ele><time>2026-04-05T17:40:52Z</time></trkpt><trkpt lat="33.55374792801521" lon="9.9702754475432"><ele>345.6666666666667</ele><time>2026-04-05T17:40:53Z</time></trkpt><trkpt lat="33.55358093676314" lon="9.970231383185016"><ele>347.3333333333333</ele><time>2026-04-05T17:40:54Z</time></trkpt><trkpt lat="33.553411697244435" lon="9.9702118102427"><ele>349.0</ele><time>2026-04-05T17:40:55Z</time></trkpt><trkpt lat="33.55326243192691" lon="9.970215358212373"><ele>349.0</ele><time>2026-04-05T17:40:56Z</time></trkpt><trkpt lat="33.553135461146645" lon="9.970236974345244"><ele>349.0</ele><time>2026-04-05T17:40:57Z</time></trkpt><trkpt lat="33.553028584460456" lon="9.970268381792128"><ele>349.0</ele><time>2026-04-05T17:40:58Z</time></trkpt><trkpt lat="33.552941755719125" lon="9.970315088938259"><ele>349.0</ele><time>2026-04-05T17:40:59Z</time></trkpt><trkpt lat="33.55286825653309" lon="9.97037427432208"><ele>349.0</ele><time>2026-04-05T17:41:00Z</time></trkpt><trkpt lat="33.55280609022178" lon="9.97044455667605"><ele>351.6</ele><time>2026-04-05T17:41:01Z</time></trkpt><trkpt lat="33.552759945201565" lon="9.970535503070982"><ele>354.2</ele><time>2026-04-05T17:41:02Z</time></trkpt><trkpt lat="33.5527259650389" lon="9.970645062042758"><ele>356.8</ele><time>2026-04-05T17:41:03Z</time></trkpt><trkpt lat="33.55271009938746" lon="9.970767080523947"><ele>359.40000000000003</ele><time>2026-04-05T17:41:04Z</time></trkpt><trkpt lat="33.55270049853752" lon="9.970886264071614"><ele>362.0</ele><time>2026-04-05T17:41:05Z</time></trkpt><trkpt lat="33.55268661227883" lon="9.970996969727768"><ele>362.0</ele><time>2026-04-05T17:41:06Z</time></trkpt><trkpt lat="33.55267000074421" lon="9.971092366212003"><ele>362.0</ele><time>2026-04-05T17:41:07Z</time></trkpt><trkpt lat="33.55264275454553" lon="9.971199723180225"><ele>362.0</ele><time>2026-04-05T17:41:09Z</time></trkpt><trkpt lat="33.55260779307312" lon="9.971283177606118"><ele>362.0</ele><time>2026-04-05T17:41:11Z</time></trkpt><trkpt lat="33.55259878433725" lon="9.971384988022217"><ele>362.0</ele><time>2026-04-05T17:41:13Z</time></trkpt><trkpt lat="33.55259534504111" lon="9.9714746953591"><ele>362.0</ele><time>2026-04-05T17:41:16Z</time></trkpt><trkpt lat="33.55257905699774" lon="9.971550986977078"><ele>362.0</ele><time>2026-04-05T17:42:45Z</time></trkpt><trkpt lat="33.55264372409255" lon="9.97151375433691"><ele>362.0</ele><time>2026-04-05T17:46:27Z</time></trkpt><trkpt lat="33.55271468512087" lon="9.971553894098495"><ele>362.0</ele><time>2026-04-05T17:46:35Z</time></trkpt><trkpt lat="33.55276317229383" lon="9.971637861558083"><ele>362.0</ele><time>2026-04-05T17:46:40Z</time></trkpt><trkpt lat="33.55279863248689" lon="9.97173555631395"><ele>362.0</ele><time>2026-04-05T17:46:45Z</time></trkpt><trkpt lat="33.55284667538733" lon="9.971796407486195"><ele>362.0</ele><time>2026-04-05T17:46:49Z</time></trkpt><trkpt lat="33.55288258628017" lon="9.971876889523353"><ele>362.0</ele><time>2026-04-05T17:46:54Z</time></trkpt><trkpt lat="33.55285014792322" lon="9.971993323216308"><ele>362.0</ele><time>2026-04-05T17:54:19.999Z</time></trkpt><trkpt lat="33.552841929425426" lon="9.971916295703375"><ele>362.0</ele><time>2026-04-05T17:54:58Z</time></trkpt><trkpt lat="33.552846817124184" lon="9.971823394373663"><ele>362.0</ele><time>2026-04-05T17:56:52Z</time></trkpt><trkpt lat="33.55281323498602" lon="9.971746759412202"><ele>362.0</ele><time>2026-04-05T17:56:57Z</time></trkpt><trkpt lat="33.5527761533591" lon="9.971676921854323"><ele>362.0</ele><time>2026-04-05T17:57:05Z</time></trkpt><trkpt lat="33.55272726933338" lon="9.971621029741126"><ele>362.0</ele><time>2026-04-05T17:57:14Z</time></trkpt><trkpt lat="33.552679942769025" lon="9.97156367614669"><ele>362.0</ele><time>2026-04-05T17:57:21Z</time></trkpt><trkpt lat="33.552622087382765" lon="9.971524106796217"><ele>362.0</ele><time>2026-04-05T17:57:30Z</time></trkpt><trkpt lat="33.55256345657636" lon="9.971493127145509"><ele>362.0</ele><time>2026-04-05T17:57:38Z</time></trkpt><trkpt lat="33.5524792856809" lon="9.971519663836325"><ele>362.0</ele><time>2026-04-05T17:59:50Z</time></trkpt><trkpt lat="33.55241991428273" lon="9.971480479439826"><ele>362.0</ele><time>2026-04-05T17:59:52Z</time></trkpt><trkpt lat="33.55237743501841" lon="9.971393849124762"><ele>362.0</ele><time>2026-04-05T17:59:54Z</time></trkpt><trkpt lat="33.552314200358666" lon="9.97126458248391"><ele>362.0</ele><time>2026-04-05T17:59:56Z</time></trkpt><trkpt lat="33.552287260117424" lon="9.971179487579207"><ele>362.0</ele><time>2026-04-05T17:59:57Z</time></trkpt><trkpt lat="33.55226109902702" lon="9.971078402180948"><ele>362.0</ele><time>2026-04-05T17:59:58Z</time></trkpt><trkpt lat="33.55222189808414" lon="9.970981477042924"><ele>362.0</ele><time>2026-04-05T17:59:59Z</time></trkpt><trkpt lat="33.55216338122575" lon="9.97089046156454"><ele>362.0</ele><time>2026-04-05T18:00:00Z</time></trkpt><trkpt lat="33.55208407130373" lon="9.970810791172692"><ele>361.0</ele><time>2026-04-05T18:00:01Z</time></trkpt><trkpt lat="33.55198880002317" lon="9.970769280928625"><ele>360.0</ele><time>2026-04-05T18:00:02Z</time></trkpt><trkpt lat="33.55187880471057" lon="9.970768571651195"><ele>359.0</ele><time>2026-04-05T18:00:03Z</time></trkpt><trkpt lat="33.5517701480391" lon="9.97080398926828"><ele>358.0</ele><time>2026-04-05T18:00:04Z</time></trkpt><trkpt lat="33.551657997146975" lon="9.97085998995011"><ele>357.0</ele><time>2026-04-05T18:00:05Z</time></trkpt><trkpt lat="33.551546196470326" lon="9.970886338374967"><ele>357.0</ele><time>2026-04-05T18:00:06Z</time></trkpt><trkpt lat="33.551427063815" lon="9.970885465430822"><ele>357.0</ele><time>2026-04-05T18:00:07Z</time></trkpt><trkpt lat="33.551307747468194" lon="9.970851111357064"><ele>357.0</ele><time>2026-04-05T18:00:08Z</time></trkpt><trkpt lat="33.55118899241256" lon="9.970784182360816"><ele>357.0</ele><time>2026-04-05T18:00:09Z</time></trkpt><trkpt lat="33.55106701017082" lon="9.97069530256107"><ele>364.3333333333333</ele><time>2026-04-05T18:00:10Z</time></trkpt><trkpt lat="33.55093980619934" lon="9.970601171565605"><ele>371.66666666666663</ele><time>2026-04-05T18:00:11Z</time></trkpt><trkpt lat="33.55080818133211" lon="9.97051290506997"><ele>379.0</ele><time>2026-04-05T18:00:12Z</time></trkpt><trkpt lat="33.55067396404696" lon="9.97042631691309"><ele>379.0</ele><time>2026-04-05T18:00:13Z</time></trkpt><trkpt lat="33.55053620045351" lon="9.970350023174737"><ele>379.0</ele><time>2026-04-05T18:00:14Z</time></trkpt><trkpt lat="33.550393327892216" lon="9.970286543198148"><ele>379.0</ele><time>2026-04-05T18:00:15Z</time></trkpt><trkpt lat="33.55026277089005" lon="9.970244596898235"><ele>379.0</ele><time>2026-04-05T18:00:16Z</time></trkpt><trkpt lat="33.55014639831929" lon="9.97020528836208"><ele>378.25</ele><time>2026-04-05T18:00:17Z</time></trkpt><trkpt lat="33.55003485491277" lon="9.970157026311613"><ele>377.5</ele><time>2026-04-05T18:00:18Z</time></trkpt><trkpt lat="33.549929570224236" lon="9.970089945489605"><ele>376.75</ele><time>2026-04-05T18:00:19Z</time></trkpt><trkpt lat="33.549835483309565" lon="9.970013226087584"><ele>376.0</ele><time>2026-04-05T18:00:20Z</time></trkpt><trkpt lat="33.549751063098164" lon="9.969942708973395"><ele>379.8333333333333</ele><time>2026-04-05T18:00:21Z</time></trkpt><trkpt lat="33.54967197952448" lon="9.96987625415765"><ele>383.66666666666663</ele><time>2026-04-05T18:00:22Z</time></trkpt><trkpt lat="33.54960012217982" lon="9.9698140554551"><ele>387.5</ele><time>2026-04-05T18:00:23Z</time></trkpt><trkpt lat="33.54953494917633" lon="9.969755746945419"><ele>391.3333333333333</ele><time>2026-04-05T18:00:24Z</time></trkpt><trkpt lat="33.5494741249127" lon="9.969708079571227"><ele>395.1666666666667</ele><time>2026-04-05T18:00:25Z</time></trkpt><trkpt lat="33.54941551692575" lon="9.96966070635385"><ele>399.0</ele><time>2026-04-05T18:00:26Z</time></trkpt><trkpt lat="33.54935563149604" lon="9.969614628577252"><ele>399.6666666666667</ele><time>2026-04-05T18:00:27Z</time></trkpt><trkpt lat="33.549294169489" lon="9.96957341973105"><ele>400.33333333333337</ele><time>2026-04-05T18:00:28Z</time></trkpt><trkpt lat="33.549227152133" lon="9.969531111090996"><ele>401.0</ele><time>2026-04-05T18:00:29Z</time></trkpt><trkpt lat="33.549153879445356" lon="9.969485726745923"><ele>401.6666666666667</ele><time>2026-04-05T18:00:30Z</time></trkpt><trkpt lat="33.549074801852655" lon="9.96944570684844"><ele>402.33333333333337</ele><time>2026-04-05T18:00:31Z</time></trkpt><trkpt lat="33.54898514100396" lon="9.96941158576839"><ele>403.0</ele><time>2026-04-05T18:00:32Z</time></trkpt><trkpt lat="33.548896317349254" lon="9.96938937636858"><ele>403.0</ele><time>2026-04-05T18:00:32.999Z</time></trkpt><trkpt lat="33.54880586491223" lon="9.9693781037466"><ele>403.0</ele><time>2026-04-05T18:00:33.999Z</time></trkpt><trkpt lat="33.54871423181973" lon="9.96936967680089"><ele>403.0</ele><time>2026-04-05T18:00:34.999Z</time></trkpt><trkpt lat="33.54861235435656" lon="9.96937125073077"><ele>403.0</ele><time>2026-04-05T18:00:35.999Z</time></trkpt><trkpt lat="33.54850556640798" lon="9.969387699719192"><ele>403.0</ele><time>2026-04-05T18:00:36.999Z</time></trkpt><trkpt lat="33.54839340338326" lon="9.969404358406848"><ele>404.59999999999997</ele><time>2026-04-05T18:00:37.999Z</time></trkpt><trkpt lat="33.54828436535124" lon="9.969427407061215"><ele>406.2</ele><time>2026-04-05T18:00:38.999Z</time></trkpt><trkpt lat="33.548181480864365" lon="9.969446187068518"><ele>407.8</ele><time>2026-04-05T18:00:39.999Z</time></trkpt><trkpt lat="33.54808237157596" lon="9.969459483324272"><ele>409.4</ele><time>2026-04-05T18:00:40.999Z</time></trkpt><trkpt lat="33.54798635442236" lon="9.969462003106978"><ele>411.0</ele><time>2026-04-05T18:00:41.999Z</time></trkpt><trkpt lat="33.5478947494916" lon="9.969455557667654"><ele>410.8</ele><time>2026-04-05T18:00:42.999Z</time></trkpt><trkpt lat="33.54780159985521" lon="9.969436556021327"><ele>410.6</ele><time>2026-04-05T18:00:43.999Z</time></trkpt><trkpt lat="33.547706682343495" lon="9.969415679655693"><ele>410.4</ele><time>2026-04-05T18:00:44.999Z</time></trkpt><trkpt lat="33.54760559896854" lon="9.969398162145147"><ele>410.2</ele><time>2026-04-05T18:00:46Z</time></trkpt><trkpt lat="33.5475043287408" lon="9.969379886584724"><ele>410.0</ele><time>2026-04-05T18:00:47Z</time></trkpt><trkpt lat="33.54740198936101" lon="9.969356106337314"><ele>410.0</ele><time>2026-04-05T18:00:48Z</time></trkpt><trkpt lat="33.5473003818977" lon="9.96932507473757"><ele>410.0</ele><time>2026-04-05T18:00:49Z</time></trkpt><trkpt lat="33.54719740842824" lon="9.96928893039687"><ele>410.0</ele><time>2026-04-05T18:00:50Z</time></trkpt><trkpt lat="33.54709383707921" lon="9.969244938305241"><ele>410.0</ele><time>2026-04-05T18:00:51Z</time></trkpt><trkpt lat="33.54699251159047" lon="9.969186435854821"><ele>410.0</ele><time>2026-04-05T18:00:52Z</time></trkpt><trkpt lat="33.546894585437364" lon="9.969105593397256"><ele>405.5</ele><time>2026-04-05T18:00:53Z</time></trkpt><trkpt lat="33.54680068197161" lon="9.968999930278727"><ele>401.0</ele><time>2026-04-05T18:00:54Z</time></trkpt><trkpt lat="33.54671813352802" lon="9.968874064656099"><ele>396.5</ele><time>2026-04-05T18:00:55Z</time></trkpt><trkpt lat="33.54663916352726" lon="9.968733422336658"><ele>392.0</ele><time>2026-04-05T18:00:56Z</time></trkpt><trkpt lat="33.54656647839036" lon="9.968598310270115"><ele>392.0</ele><time>2026-04-05T18:00:57Z</time></trkpt><trkpt lat="33.546493841277034" lon="9.968476167779668"><ele>392.0</ele><time>2026-04-05T18:00:58Z</time></trkpt><trkpt lat="33.54642898899693" lon="9.968368440822568"><ele>392.0</ele><time>2026-04-05T18:00:59Z</time></trkpt><trkpt lat="33.54636907731471" lon="9.96826710389108"><ele>392.0</ele><time>2026-04-05T18:01:00Z</time></trkpt><trkpt lat="33.54630966760089" lon="9.968164324928088"><ele>392.0</ele><time>2026-04-05T18:01:01Z</time></trkpt><trkpt lat="33.54625005205437" lon="9.968067243278126"><ele>389.99999999999994</ele><time>2026-04-05T18:01:02Z</time></trkpt><trkpt lat="33.54619429557859" lon="9.967979971205754"><ele>388.0</ele><time>2026-04-05T18:01:03Z</time></trkpt><trkpt lat="33.54614755364831" lon="9.96790640011359"><ele>386.0</ele><time>2026-04-05T18:01:04Z</time></trkpt><trkpt lat="33.546100658999656" lon="9.967844237572665"><ele>384.0</ele><time>2026-04-05T18:01:05Z</time></trkpt><trkpt lat="33.5460554749347" lon="9.967789899152033"><ele>382.0</ele><time>2026-04-05T18:01:06Z</time></trkpt><trkpt lat="33.54598783327717" lon="9.967704707368444"><ele>380.0</ele><time>2026-04-05T18:01:08Z</time></trkpt><trkpt lat="33.545938181242214" lon="9.967611180584441"><ele>379.83333333333337</ele><time>2026-04-05T18:01:10Z</time></trkpt><trkpt lat="33.545900060662106" lon="9.967465976811365"><ele>379.6666666666667</ele><time>2026-04-05T18:01:12Z</time></trkpt><trkpt lat="33.54587761776194" lon="9.967384087759887"><ele>379.5</ele><time>2026-04-05T18:01:13Z</time></trkpt><trkpt lat="33.545859499135844" lon="9.967295649054032"><ele>379.3333333333333</ele><time>2026-04-05T18:01:14Z</time></trkpt><trkpt lat="33.54584841328677" lon="9.967199413888032"><ele>379.16666666666663</ele><time>2026-04-05T18:01:15Z</time></trkpt><trkpt lat="33.54584544604888" lon="9.967101687012518"><ele>379.0</ele><time>2026-04-05T18:01:16Z</time></trkpt><trkpt lat="33.5458433713758" lon="9.967005357458772"><ele>379.0</ele><time>2026-04-05T18:01:17Z</time></trkpt><trkpt lat="33.5458387963872" lon="9.966903583644001"><ele>379.0</ele><time>2026-04-05T18:01:18Z</time></trkpt><trkpt lat="33.545834942307515" lon="9.966800534705595"><ele>379.0</ele><time>2026-04-05T18:01:19Z</time></trkpt><trkpt lat="33.545829034603656" lon="9.966697461007668"><ele>379.0</ele><time>2026-04-05T18:01:20Z</time></trkpt><trkpt lat="33.54582516614" lon="9.96659291163194"><ele>379.0</ele><time>2026-04-05T18:01:21Z</time></trkpt><trkpt lat="33.545825641864084" lon="9.966488816813824"><ele>379.0</ele><time>2026-04-05T18:01:22Z</time></trkpt><trkpt lat="33.54582718086563" lon="9.966381538935803"><ele>377.3333333333333</ele><time>2026-04-05T18:01:23Z</time></trkpt><trkpt lat="33.54582591912645" lon="9.966277313029444"><ele>375.66666666666663</ele><time>2026-04-05T18:01:24Z</time></trkpt><trkpt lat="33.545826979053125" lon="9.966179423258763"><ele>374.0</ele><time>2026-04-05T18:01:25Z</time></trkpt><trkpt lat="33.545831111887054" lon="9.966088160777177"><ele>372.3333333333333</ele><time>2026-04-05T18:01:26Z</time></trkpt><trkpt lat="33.545836804025456" lon="9.965998633758925"><ele>370.6666666666667</ele><time>2026-04-05T18:01:27Z</time></trkpt><trkpt lat="33.54584056917449" lon="9.96590439602988"><ele>369.0</ele><time>2026-04-05T18:01:28Z</time></trkpt><trkpt lat="33.54584286700779" lon="9.965813680566258"><ele>368.8333333333333</ele><time>2026-04-05T18:01:29Z</time></trkpt><trkpt lat="33.54584886449921" lon="9.965720678714304"><ele>368.6666666666667</ele><time>2026-04-05T18:01:30Z</time></trkpt><trkpt lat="33.54585730230988" lon="9.965627578388641"><ele>368.5</ele><time>2026-04-05T18:01:31Z</time></trkpt><trkpt lat="33.545863251370065" lon="9.965535815298265"><ele>368.33333333333337</ele><time>2026-04-05T18:01:32Z</time></trkpt><trkpt lat="33.545867602633194" lon="9.965443664849495"><ele>368.1666666666667</ele><time>2026-04-05T18:01:33Z</time></trkpt><trkpt lat="33.54587092276521" lon="9.965347533296333"><ele>368.0</ele><time>2026-04-05T18:01:34Z</time></trkpt><trkpt lat="33.54587482119334" lon="9.965249896368615"><ele>368.0</ele><time>2026-04-05T18:01:35Z</time></trkpt><trkpt lat="33.54586622917572" lon="9.96515120565079"><ele>368.0</ele><time>2026-04-05T18:01:36Z</time></trkpt><trkpt lat="33.54583467529783" lon="9.965056667764875"><ele>368.0</ele><time>2026-04-05T18:01:37Z</time></trkpt><trkpt lat="33.54577401454585" lon="9.96496964248441"><ele>368.0</ele><time>2026-04-05T18:01:38Z</time></trkpt><trkpt lat="33.54568209286791" lon="9.964894808925017"><ele>368.0</ele><time>2026-04-05T18:01:39Z</time></trkpt><trkpt lat="33.545580817252315" lon="9.964836376575427"><ele>368.5</ele><time>2026-04-05T18:01:40Z</time></trkpt><trkpt lat="33.545500666078" lon="9.96478556348305"><ele>369.0</ele><time>2026-04-05T18:01:41Z</time></trkpt><trkpt lat="33.54543962002045" lon="9.964707280387081"><ele>369.5</ele><time>2026-04-05T18:01:42Z</time></trkpt><trkpt lat="33.54538933842037" lon="9.964616618227028"><ele>370.0</ele><time>2026-04-05T18:01:43Z</time></trkpt><trkpt lat="33.54535159766715" lon="9.964530669419709"><ele>370.5</ele><time>2026-04-05T18:01:44Z</time></trkpt><trkpt lat="33.545319428364465" lon="9.964455023340014"><ele>371.0</ele><time>2026-04-05T18:01:45Z</time></trkpt><trkpt lat="33.54528791426603" lon="9.964383129037268"><ele>370.5</ele><time>2026-04-05T18:01:46Z</time></trkpt><trkpt lat="33.54525600771398" lon="9.964306180509116"><ele>370.0</ele><time>2026-04-05T18:01:47Z</time></trkpt><trkpt lat="33.545228398827845" lon="9.964222608414374"><ele>369.5</ele><time>2026-04-05T18:01:48Z</time></trkpt><trkpt lat="33.5452018111838" lon="9.96413374872047"><ele>369.0</ele><time>2026-04-05T18:01:49Z</time></trkpt><trkpt lat="33.545175588315296" lon="9.96404590086678"><ele>368.5</ele><time>2026-04-05T18:01:50Z</time></trkpt><trkpt lat="33.545147456742484" lon="9.963956321650219"><ele>368.0</ele><time>2026-04-05T18:01:51Z</time></trkpt><trkpt lat="33.54511939781491" lon="9.963872903223123"><ele>368.0</ele><time>2026-04-05T18:01:52Z</time></trkpt><trkpt lat="33.54509430394082" lon="9.963791898722157"><ele>368.0</ele><time>2026-04-05T18:01:53Z</time></trkpt><trkpt lat="33.545083626501906" lon="9.963699476734787"><ele>368.0</ele><time>2026-04-05T18:01:54Z</time></trkpt><trkpt lat="33.54509737134242" lon="9.963614807019143"><ele>368.0</ele><time>2026-04-05T18:01:55Z</time></trkpt><trkpt lat="33.545122540283536" lon="9.963541086746229"><ele>368.0</ele><time>2026-04-05T18:01:56Z</time></trkpt><trkpt lat="33.54515813620422" lon="9.96347501754946"><ele>368.0</ele><time>2026-04-05T18:01:57Z</time></trkpt><trkpt lat="33.545199365650284" lon="9.963410637615029"><ele>368.0</ele><time>2026-04-05T18:01:58Z</time></trkpt><trkpt lat="33.545241238150254" lon="9.963341931363107"><ele>368.14285714285717</ele><time>2026-04-05T18:01:59Z</time></trkpt><trkpt lat="33.54528238963305" lon="9.963271777112656"><ele>368.2857142857143</ele><time>2026-04-05T18:02:00Z</time></trkpt><trkpt lat="33.54532503241018" lon="9.963201864985018"><ele>368.42857142857144</ele><time>2026-04-05T18:02:01Z</time></trkpt><trkpt lat="33.545365001298734" lon="9.963131695604408"><ele>368.57142857142856</ele><time>2026-04-05T18:02:02Z</time></trkpt><trkpt lat="33.54540941774536" lon="9.96305769077998"><ele>368.71428571428567</ele><time>2026-04-05T18:02:03Z</time></trkpt><trkpt lat="33.5454555776246" lon="9.962982582658574"><ele>368.85714285714283</ele><time>2026-04-05T18:02:04Z</time></trkpt><trkpt lat="33.54550635530058" lon="9.962908675369219"><ele>369.0</ele><time>2026-04-05T18:02:05Z</time></trkpt><trkpt lat="33.545551995953076" lon="9.962827572247958"><ele>369.79999999999995</ele><time>2026-04-05T18:02:06Z</time></trkpt><trkpt lat="33.54559375194331" lon="9.962736946368727"><ele>370.59999999999997</ele><time>2026-04-05T18:02:07Z</time></trkpt><trkpt lat="33.54563115617483" lon="9.962636888138015"><ele>371.4</ele><time>2026-04-05T18:02:08Z</time></trkpt><trkpt lat="33.54566163956821" lon="9.962528150276606"><ele>372.2</ele><time>2026-04-05T18:02:09Z</time></trkpt><trkpt lat="33.54568664932087" lon="9.962413531523861"><ele>373.0</ele><time>2026-04-05T18:02:10Z</time></trkpt><trkpt lat="33.54571141893678" lon="9.96229024713103"><ele>373.0</ele><time>2026-04-05T18:02:11Z</time></trkpt><trkpt lat="33.54573387797761" lon="9.962166984000115"><ele>373.0</ele><time>2026-04-05T18:02:12Z</time></trkpt><trkpt lat="33.54575780630485" lon="9.962045586068687"><ele>373.0</ele><time>2026-04-05T18:02:13Z</time></trkpt><trkpt lat="33.54578435063558" lon="9.961939256313556"><ele>373.0</ele><time>2026-04-05T18:02:14Z</time></trkpt><trkpt lat="33.545813300276386" lon="9.961835653837667"><ele>373.0</ele><time>2026-04-05T18:02:15Z</time></trkpt><trkpt lat="33.54584454290768" lon="9.961732988593418"><ele>372.8333333333333</ele><time>2026-04-05T18:02:16Z</time></trkpt><trkpt lat="33.5458758187211" lon="9.961632785004543"><ele>372.66666666666663</ele><time>2026-04-05T18:02:17Z</time></trkpt><trkpt lat="33.5459073860008" lon="9.961532044785416"><ele>372.5</ele><time>2026-04-05T18:02:18Z</time></trkpt><trkpt lat="33.54593861857357" lon="9.961443677763757"><ele>372.3333333333333</ele><time>2026-04-05T18:02:19Z</time></trkpt><trkpt lat="33.545966240781354" lon="9.961357038812075"><ele>372.1666666666667</ele><time>2026-04-05T18:02:20Z</time></trkpt><trkpt lat="33.54599468115151" lon="9.961267811408607"><ele>372.0</ele><time>2026-04-05T18:02:21Z</time></trkpt><trkpt lat="33.54602205131737" lon="9.961177808030437"><ele>372.0</ele><time>2026-04-05T18:02:22Z</time></trkpt><trkpt lat="33.5460506464184" lon="9.96107980380708"><ele>372.0</ele><time>2026-04-05T18:02:23Z</time></trkpt><trkpt lat="33.546083186847945" lon="9.960976191288514"><ele>372.0</ele><time>2026-04-05T18:02:24Z</time></trkpt><trkpt lat="33.54611475562043" lon="9.960873731346913"><ele>372.0</ele><time>2026-04-05T18:02:25Z</time></trkpt><trkpt lat="33.546151973321216" lon="9.960767554943578"><ele>372.0</ele><time>2026-04-05T18:02:26Z</time></trkpt><trkpt lat="33.5461915673281" lon="9.960661510823934"><ele>371.0</ele><time>2026-04-05T18:02:27Z</time></trkpt><trkpt lat="33.54623585188151" lon="9.960554286741605"><ele>370.0</ele><time>2026-04-05T18:02:28Z</time></trkpt><trkpt lat="33.546290483399986" lon="9.960442187597316"><ele>369.0</ele><time>2026-04-05T18:02:29Z</time></trkpt><trkpt lat="33.54635147557701" lon="9.960330472618642"><ele>368.0</ele><time>2026-04-05T18:02:30Z</time></trkpt><trkpt lat="33.546417562966674" lon="9.960210952292963"><ele>367.0</ele><time>2026-04-05T18:02:31Z</time></trkpt><trkpt lat="33.54647915855155" lon="9.960084543397203"><ele>366.75</ele><time>2026-04-05T18:02:32Z</time></trkpt><trkpt lat="33.546545903988886" lon="9.959954592902497"><ele>366.5</ele><time>2026-04-05T18:02:33Z</time></trkpt><trkpt lat="33.54661129250547" lon="9.95983004115201"><ele>366.25</ele><time>2026-04-05T18:02:34Z</time></trkpt><trkpt lat="33.54667185693788" lon="9.959709684283776"><ele>366.0</ele><time>2026-04-05T18:02:35Z</time></trkpt><trkpt lat="33.54673033679297" lon="9.959591724759406"><ele>366.0</ele><time>2026-04-05T18:02:35.999Z</time></trkpt><trkpt lat="33.546794960519826" lon="9.959469685812437"><ele>366.0</ele><time>2026-04-05T18:02:36.999Z</time></trkpt><trkpt lat="33.54686121481842" lon="9.959346122303335"><ele>366.0</ele><time>2026-04-05T18:02:37.999Z</time></trkpt><trkpt lat="33.54692084369273" lon="9.959231185414735"><ele>366.0</ele><time>2026-04-05T18:02:38.999Z</time></trkpt><trkpt lat="33.54697348104377" lon="9.959113186399211"><ele>366.0</ele><time>2026-04-05T18:02:39.999Z</time></trkpt><trkpt lat="33.54700944701359" lon="9.958983319137529"><ele>366.0</ele><time>2026-04-05T18:02:40.999Z</time></trkpt><trkpt lat="33.54702125616122" lon="9.958842227017037"><ele>366.0</ele><time>2026-04-05T18:02:41.999Z</time></trkpt><trkpt lat="33.54701279158945" lon="9.958700681432395"><ele>366.0</ele><time>2026-04-05T18:02:42.999Z</time></trkpt><trkpt lat="33.54699060601953" lon="9.958562919469754"><ele>366.0</ele><time>2026-04-05T18:02:43.999Z</time></trkpt><trkpt lat="33.546960919451536" lon="9.958435911009799"><ele>366.0</ele><time>2026-04-05T18:02:44.999Z</time></trkpt><trkpt lat="33.54692589977066" lon="9.958316497514094"><ele>366.0</ele><time>2026-04-05T18:02:45.999Z</time></trkpt><trkpt lat="33.546889209680174" lon="9.95819460245868"><ele>366.0</ele><time>2026-04-05T18:02:46.999Z</time></trkpt><trkpt lat="33.54685581826744" lon="9.958072666132425"><ele>366.0</ele><time>2026-04-05T18:02:47.999Z</time></trkpt><trkpt lat="33.54682466806579" lon="9.95794684995037"><ele>366.20000000000005</ele><time>2026-04-05T18:02:48.999Z</time></trkpt><trkpt lat="33.546791120462245" lon="9.957820846911021"><ele>366.40000000000003</ele><time>2026-04-05T18:02:49.999Z</time></trkpt><trkpt lat="33.546757450272445" lon="9.957699082120357"><ele>366.6</ele><time>2026-04-05T18:02:50.999Z</time></trkpt><trkpt lat="33.546724981694915" lon="9.957584287449727"><ele>366.8</ele><time>2026-04-05T18:02:52Z</time></trkpt><trkpt lat="33.54669690391236" lon="9.957475259478576"><ele>367.0</ele><time>2026-04-05T18:02:53Z</time></trkpt><trkpt lat="33.546671619852205" lon="9.957367553758054"><ele>366.6</ele><time>2026-04-05T18:02:54Z</time></trkpt><trkpt lat="33.546650903144" lon="9.957254616197767"><ele>366.20000000000005</ele><time>2026-04-05T18:02:55Z</time></trkpt><trkpt lat="33.5466353544984" lon="9.95713954084021"><ele>365.8</ele><time>2026-04-05T18:02:56Z</time></trkpt><trkpt lat="33.546626631403036" lon="9.957021307384425"><ele>365.4</ele><time>2026-04-05T18:02:57Z</time></trkpt><trkpt lat="33.54662461304475" lon="9.95689946923338"><ele>365.0</ele><time>2026-04-05T18:02:58Z</time></trkpt><trkpt lat="33.54663067491515" lon="9.956771824023093"><ele>364.8</ele><time>2026-04-05T18:02:59Z</time></trkpt><trkpt lat="33.54664510369785" lon="9.956639762565572"><ele>364.6</ele><time>2026-04-05T18:03:00Z</time></trkpt><trkpt lat="33.5466659496227" lon="9.956505488824448"><ele>364.4</ele><time>2026-04-05T18:03:01Z</time></trkpt><trkpt lat="33.54669136519695" lon="9.956376502921929"><ele>364.2</ele><time>2026-04-05T18:03:02Z</time></trkpt><trkpt lat="33.54671575858868" lon="9.956262866187405"><ele>364.0</ele><time>2026-04-05T18:03:03Z</time></trkpt><trkpt lat="33.54673781625613" lon="9.956160950861635"><ele>364.0</ele><time>2026-04-05T18:03:04Z</time></trkpt><trkpt lat="33.54675808563228" lon="9.956067892044414"><ele>364.0</ele><time>2026-04-05T18:03:05Z</time></trkpt><trkpt lat="33.546780240176304" lon="9.955972461668582"><ele>364.0</ele><time>2026-04-05T18:03:06Z</time></trkpt><trkpt lat="33.54680149206255" lon="9.955879572935267"><ele>364.0</ele><time>2026-04-05T18:03:07Z</time></trkpt><trkpt lat="33.54682220127988" lon="9.95577898324007"><ele>364.0</ele><time>2026-04-05T18:03:08Z</time></trkpt><trkpt lat="33.546849652975524" lon="9.95567559260233"><ele>364.0</ele><time>2026-04-05T18:03:09Z</time></trkpt><trkpt lat="33.54688157509805" lon="9.955566780054996"><ele>363.4</ele><time>2026-04-05T18:03:10Z</time></trkpt><trkpt lat="33.54691672188533" lon="9.955455803838246"><ele>362.79999999999995</ele><time>2026-04-05T18:03:11Z</time></trkpt><trkpt lat="33.54695437930531" lon="9.95533826940908"><ele>362.20000000000005</ele><time>2026-04-05T18:03:12Z</time></trkpt><trkpt lat="33.54698504092099" lon="9.955217058150645"><ele>361.6</ele><time>2026-04-05T18:03:13Z</time></trkpt><trkpt lat="33.547004350158005" lon="9.955099088696585"><ele>361.0</ele><time>2026-04-05T18:03:14Z</time></trkpt><trkpt lat="33.54701863514728" lon="9.954986114341134"><ele>360.66666666666663</ele><time>2026-04-05T18:03:15Z</time></trkpt><trkpt lat="33.54702689655572" lon="9.95488156188818"><ele>360.3333333333333</ele><time>2026-04-05T18:03:16Z</time></trkpt><trkpt lat="33.547035488530675" lon="9.954774638343435"><ele>360.0</ele><time>2026-04-05T18:03:17Z</time></trkpt><trkpt lat="33.54704373913542" lon="9.954668350578027"><ele>359.6666666666667</ele><time>2026-04-05T18:03:18Z</time></trkpt><trkpt lat="33.54705355089881" lon="9.95456342293558"><ele>359.33333333333337</ele><time>2026-04-05T18:03:19Z</time></trkpt><trkpt lat="33.54706975208107" lon="9.954452048077505"><ele>359.0</ele><time>2026-04-05T18:03:20Z</time></trkpt><trkpt lat="33.54709130077421" lon="9.954343901071265"><ele>359.4</ele><time>2026-04-05T18:03:21Z</time></trkpt><trkpt lat="33.54712115808049" lon="9.954234882078243"><ele>359.79999999999995</ele><time>2026-04-05T18:03:22Z</time></trkpt><trkpt lat="33.547157021101945" lon="9.954126516146166"><ele>360.20000000000005</ele><time>2026-04-05T18:03:23Z</time></trkpt><trkpt lat="33.54719635230203" lon="9.954016408026156"><ele>360.6</ele><time>2026-04-05T18:03:24Z</time></trkpt><trkpt lat="33.54723166156232" lon="9.953902478577364"><ele>361.0</ele><time>2026-04-05T18:03:25Z</time></trkpt><trkpt lat="33.547261885329206" lon="9.953779560866291"><ele>361.0</ele><time>2026-04-05T18:03:26Z</time></trkpt><trkpt lat="33.547284098021805" lon="9.953651239967048"><ele>361.0</ele><time>2026-04-05T18:03:27Z</time></trkpt><trkpt lat="33.54730066442476" lon="9.95351760456429"><ele>361.0</ele><time>2026-04-05T18:03:28Z</time></trkpt><trkpt lat="33.54731460472728" lon="9.953383976004002"><ele>361.0</ele><time>2026-04-05T18:03:29Z</time></trkpt><trkpt lat="33.547331199546" lon="9.95325069528831"><ele>361.0</ele><time>2026-04-05T18:03:30Z</time></trkpt><trkpt lat="33.547347140095866" lon="9.953125353739813"><ele>360.3333333333333</ele><time>2026-04-05T18:03:31Z</time></trkpt><trkpt lat="33.54736243823785" lon="9.95301068533888"><ele>359.66666666666663</ele><time>2026-04-05T18:03:32Z</time></trkpt><trkpt lat="33.54737992678305" lon="9.952903811916338"><ele>359.0</ele><time>2026-04-05T18:03:33Z</time></trkpt><trkpt lat="33.547397981461984" lon="9.95280172451993"><ele>358.3333333333333</ele><time>2026-04-05T18:03:34Z</time></trkpt><trkpt lat="33.547416620601695" lon="9.95270600017895"><ele>357.6666666666667</ele><time>2026-04-05T18:03:35Z</time></trkpt><trkpt lat="33.547434616878405" lon="9.952605257165711"><ele>357.0</ele><time>2026-04-05T18:03:36Z</time></trkpt><trkpt lat="33.54745638139122" lon="9.952504522248827"><ele>357.0</ele><time>2026-04-05T18:03:37Z</time></trkpt><trkpt lat="33.547487668895386" lon="9.952401219000233"><ele>357.0</ele><time>2026-04-05T18:03:38Z</time></trkpt><trkpt lat="33.5475207579492" lon="9.952294843005287"><ele>357.0</ele><time>2026-04-05T18:03:39Z</time></trkpt><trkpt lat="33.54755575565295" lon="9.952188537853054"><ele>357.0</ele><time>2026-04-05T18:03:40Z</time></trkpt><trkpt lat="33.547595307080755" lon="9.952074183857846"><ele>357.0</ele><time>2026-04-05T18:03:41Z</time></trkpt><trkpt lat="33.54763373599543" lon="9.95195694315251"><ele>357.0</ele><time>2026-04-05T18:03:42Z</time></trkpt><trkpt lat="33.547671884351196" lon="9.951836481139226"><ele>357.0</ele><time>2026-04-05T18:03:43Z</time></trkpt><trkpt lat="33.54771341375625" lon="9.951711315209794"><ele>357.0</ele><time>2026-04-05T18:03:44Z</time></trkpt><trkpt lat="33.54775157509614" lon="9.951585006539267"><ele>357.0</ele><time>2026-04-05T18:03:45Z</time></trkpt><trkpt lat="33.54778362610454" lon="9.951461216384118"><ele>357.0</ele><time>2026-04-05T18:03:46Z</time></trkpt><trkpt lat="33.54780736399764" lon="9.951346810130952"><ele>357.1666666666667</ele><time>2026-04-05T18:03:47Z</time></trkpt><trkpt lat="33.54781957257305" lon="9.951239787378672"><ele>357.3333333333333</ele><time>2026-04-05T18:03:48Z</time></trkpt><trkpt lat="33.54782133961662" lon="9.951155932868245"><ele>357.5</ele><time>2026-04-05T18:03:49Z</time></trkpt><trkpt lat="33.54781519980242" lon="9.951038095905096"><ele>357.66666666666663</ele><time>2026-04-05T18:03:51Z</time></trkpt><trkpt lat="33.54780548079925" lon="9.950935273490916"><ele>357.8333333333333</ele><time>2026-04-05T18:03:53Z</time></trkpt><trkpt lat="33.54783023467484" lon="9.950816923134882"><ele>358.0</ele><time>2026-04-05T18:03:55Z</time></trkpt><trkpt lat="33.54790519550056" lon="9.950708260316018"><ele>357.59999999999997</ele><time>2026-04-05T18:03:57Z</time></trkpt><trkpt lat="33.54799934702679" lon="9.950596277886744"><ele>357.2</ele><time>2026-04-05T18:03:59Z</time></trkpt><trkpt lat="33.548053085973216" lon="9.950540436794096"><ele>356.8</ele><time>2026-04-05T18:04:00Z</time></trkpt><trkpt lat="33.54810703319435" lon="9.950493475785636"><ele>356.4</ele><time>2026-04-05T18:04:01Z</time></trkpt><trkpt lat="33.548203800761264" lon="9.950412017483126"><ele>356.0</ele><time>2026-04-05T18:04:03Z</time></trkpt><trkpt lat="33.54826632350617" lon="9.950358974199881"><ele>356.0</ele><time>2026-04-05T18:04:05Z</time></trkpt><trkpt lat="33.548321740346815" lon="9.95031413026067"><ele>356.0</ele><time>2026-04-05T18:04:10Z</time></trkpt><trkpt lat="33.54837469060053" lon="9.950266255606566"><ele>356.0</ele><time>2026-04-05T18:04:50.999Z</time></trkpt><trkpt lat="33.54847311861774" lon="9.950221458896033"><ele>356.0</ele><time>2026-04-05T18:05:01Z</time></trkpt><trkpt lat="33.54859019130842" lon="9.950208641349525"><ele>356.0</ele><time>2026-04-05T18:05:03Z</time></trkpt><trkpt lat="33.54865559965682" lon="9.95018821073858"><ele>356.0</ele><time>2026-04-05T18:05:05Z</time></trkpt><trkpt lat="33.548641661750025" lon="9.950112673509361"><ele>356.33333333333337</ele><time>2026-04-05T18:11:39Z</time></trkpt><trkpt lat="33.54864442505095" lon="9.950026262224467"><ele>356.6666666666667</ele><time>2026-04-05T18:11:53Z</time></trkpt><trkpt lat="33.54857184357239" lon="9.950021973258021"><ele>357.0</ele><time>2026-04-05T18:11:57Z</time></trkpt><trkpt lat="33.548551697512124" lon="9.949944171921508"><ele>357.3333333333333</ele><time>2026-04-05T18:12:04Z</time></trkpt><trkpt lat="33.54854805776757" lon="9.949798468365394"><ele>357.66666666666663</ele><time>2026-04-05T18:12:21Z</time></trkpt><trkpt lat="33.54854481033105" lon="9.949876628920764"><ele>358.0</ele><time>2026-04-05T18:12:25Z</time></trkpt><trkpt lat="33.548454880144064" lon="9.949994180058976"><ele>358.0</ele><time>2026-04-05T18:12:28Z</time></trkpt><trkpt lat="33.548494528057354" lon="9.949864993019125"><ele>358.0</ele><time>2026-04-05T18:12:40.065Z</time></trkpt><trkpt lat="33.54828321116464" lon="9.949828898888418"><ele>358.0</ele><time>2026-04-05T18:12:41.037Z</time></trkpt><trkpt lat="33.54829468525778" lon="9.949719211989656"><ele>358.0</ele><time>2026-04-05T18:12:42.035Z</time></trkpt><trkpt lat="33.54821461343993" lon="9.949672939098813"><ele>358.0</ele><time>2026-04-05T18:12:45.033Z</time></trkpt><trkpt lat="33.54833976984357" lon="9.94955552516481"><ele>358.0</ele><time>2026-04-05T18:12:58.415Z</time></trkpt><trkpt lat="33.54828990776994" lon="9.949722692423176"><ele>358.0</ele><time>2026-04-05T18:13:04.415Z</time></trkpt><trkpt lat="33.54838423727534" lon="9.94992202453418"><ele>358.0</ele><time>2026-04-05T18:13:08.026Z</time></trkpt><trkpt lat="33.54841696923956" lon="9.949729036868959"><ele>358.0</ele><time>2026-04-05T18:13:12.028Z</time></trkpt><trkpt lat="33.54838630169246" lon="9.949921234672683"><ele>358.0</ele><time>2026-04-05T18:13:15.999Z</time></trkpt><trkpt lat="33.54832950528472" lon="9.949997245234844"><ele>358.0</ele><time>2026-04-05T18:13:17.999Z</time></trkpt><trkpt lat="33.54824242701681" lon="9.949991739619005"><ele>358.0</ele><time>2026-04-05T18:13:21Z</time></trkpt><trkpt lat="33.548172252601184" lon="9.94998650574388"><ele>358.0</ele><time>2026-04-05T18:13:25Z</time></trkpt><trkpt lat="33.54810749346369" lon="9.949993573233838"><ele>358.0</ele><time>2026-04-05T18:13:30Z</time></trkpt><trkpt lat="33.548042543643525" lon="9.949972312766999"><ele>358.0</ele><time>2026-04-05T18:13:34Z</time></trkpt><trkpt lat="33.54830124577057" lon="9.949629960239621"><ele>358.0</ele><time>2026-04-05T18:17:41.015Z</time></trkpt><trkpt lat="33.548309204631344" lon="9.94951433080764"><ele>358.0</ele><time>2026-04-05T18:17:42.013Z</time></trkpt><trkpt lat="33.54825127369555" lon="9.949592579335453"><ele>358.0</ele><time>2026-04-05T18:17:44.012Z</time></trkpt><trkpt lat="33.54824859209823" lon="9.94970060210641"><ele>358.0</ele><time>2026-04-05T18:17:48.013Z</time></trkpt><trkpt lat="33.54822782243439" lon="9.949773290103701"><ele>358.0</ele><time>2026-04-05T18:17:51.998Z</time></trkpt><trkpt lat="33.54823258906509" lon="9.949666256059153"><ele>358.0</ele><time>2026-04-05T18:18:14Z</time></trkpt><trkpt lat="33.54822123037328" lon="9.949589989095134"><ele>358.0</ele><time>2026-04-05T18:18:17Z</time></trkpt><trkpt lat="33.54828495625824" lon="9.949633367977267"><ele>358.0</ele><time>2026-04-05T18:18:25Z</time></trkpt><trkpt lat="33.54826516151432" lon="9.949717329911886"><ele>358.0</ele><time>2026-04-05T18:18:30Z</time></trkpt><trkpt lat="33.548248431595944" lon="9.949808928020214"><ele>358.0</ele><time>2026-04-05T18:18:34Z</time></trkpt><trkpt lat="33.54822694020443" lon="9.949885954250645"><ele>358.0</ele><time>2026-04-05T18:18:38Z</time></trkpt><trkpt lat="33.548196830105425" lon="9.95006827432641"><ele>358.0</ele><time>2026-04-05T18:19:00Z</time></trkpt><trkpt lat="33.5481599789078" lon="9.949987134297828"><ele>358.0</ele><time>2026-04-05T18:19:20.999Z</time></trkpt><trkpt lat="33.54812263278575" lon="9.949900029240645"><ele>358.0</ele><time>2026-04-05T18:19:24.999Z</time></trkpt><trkpt lat="33.54805210125484" lon="9.949837554449422"><ele>358.0</ele><time>2026-04-05T18:20:49Z</time></trkpt><trkpt lat="33.54803029487272" lon="9.949925673051775"><ele>358.0</ele><time>2026-04-05T18:20:51Z</time></trkpt><trkpt lat="33.54802794848561" lon="9.950031884879762"><ele>358.0</ele><time>2026-04-05T18:20:53Z</time></trkpt><trkpt lat="33.54805742144931" lon="9.950197779227727"><ele>358.0</ele><time>2026-04-05T18:20:56Z</time></trkpt><trkpt lat="33.54811955446353" lon="9.950236842173707"><ele>358.0</ele><time>2026-04-05T18:20:57Z</time></trkpt><trkpt lat="33.54811942570006" lon="9.95015859046388"><ele>358.0</ele><time>2026-04-05T18:21:02Z</time></trkpt><trkpt lat="33.54812320787005" lon="9.950071531014839"><ele>358.0</ele><time>2026-04-05T18:21:07Z</time></trkpt><trkpt lat="33.547989551712554" lon="9.949930397490316"><ele>358.0</ele><time>2026-04-05T18:22:38Z</time></trkpt><trkpt lat="33.54795606050741" lon="9.94980112022344"><ele>358.0</ele><time>2026-04-05T18:22:40Z</time></trkpt><trkpt lat="33.54788643084962" lon="9.94972090600491"><ele>358.0</ele><time>2026-04-05T18:22:42.04Z</time></trkpt><trkpt lat="33.54799541976292" lon="9.949884145575167"><ele>358.0</ele><time>2026-04-05T18:22:43.042Z</time></trkpt></trkseg><trkseg><trkpt lat="33.53570782112898" lon="9.869931570823328"><ele>452.0</ele><time>2026-04-06T08:59:59Z</time></trkpt><trkpt lat="33.53573163419662" lon="9.869799507955749"><ele>452.00000000000006</ele><time>2026-04-06T09:00:00Z</time></trkpt><trkpt lat="33.53577075414848" lon="9.869693876593471"><ele>452.00000000000006</ele><time>2026-04-06T09:00:01Z</time></trkpt><trkpt lat="33.53581320998164" lon="9.86959146494521"><ele>452.0</ele><time>2026-04-06T09:00:02Z</time></trkpt><trkpt lat="33.53585569475266" lon="9.869481458778052"><ele>452.0</ele><time>2026-04-06T09:00:03Z</time></trkpt><trkpt lat="33.53590723129358" lon="9.869362004732263"><ele>452.25</ele><time>2026-04-06T09:00:04Z</time></trkpt><trkpt lat="33.53596468091269" lon="9.869237815300568"><ele>452.5</ele><time>2026-04-06T09:00:05Z</time></trkpt><trkpt lat="33.53602348143858" lon="9.869119229025394"><ele>452.75</ele><time>2026-04-06T09:00:06Z</time></trkpt><trkpt lat="33.53609802362044" lon="9.869007224441715"><ele>453.0</ele><time>2026-04-06T09:00:07Z</time></trkpt><trkpt lat="33.536175917553926" lon="9.868892665159507"><ele>453.5</ele><time>2026-04-06T09:00:08Z</time></trkpt><trkpt lat="33.53625779933307" lon="9.868777210082472"><ele>454.0</ele><time>2026-04-06T09:00:09Z</time></trkpt><trkpt lat="33.53634297830325" lon="9.868661403667637"><ele>454.5</ele><time>2026-04-06T09:00:10Z</time></trkpt><trkpt lat="33.53641491535034" lon="9.868548499614612"><ele>455.0</ele><time>2026-04-06T09:00:11Z</time></trkpt><trkpt lat="33.53646388100853" lon="9.868440296780095"><ele>455.6</ele><time>2026-04-06T09:00:12Z</time></trkpt><trkpt lat="33.53649184650314" lon="9.868326059531354"><ele>456.2</ele><time>2026-04-06T09:00:13Z</time></trkpt><trkpt lat="33.53649668916258" lon="9.868213003838216"><ele>456.79999999999995</ele><time>2026-04-06T09:00:14Z</time></trkpt><trkpt lat="33.536468704222614" lon="9.868114245896928"><ele>457.4</ele><time>2026-04-06T09:00:15Z</time></trkpt><trkpt lat="33.53640338892464" lon="9.868016931181533"><ele>458.0</ele><time>2026-04-06T09:00:16Z</time></trkpt><trkpt lat="33.536345867695445" lon="9.86792442376773"><ele>458.0</ele><time>2026-04-06T09:00:17Z</time></trkpt><trkpt lat="33.53622082955606" lon="9.867848654577774"><ele>458.0</ele><time>2026-04-06T09:00:18Z</time></trkpt><trkpt lat="33.5361109821173" lon="9.86776416120492"><ele>458.0</ele><time>2026-04-06T09:00:19Z</time></trkpt><trkpt lat="33.536022405257164" lon="9.867651409947927"><ele>458.0</ele><time>2026-04-06T09:00:20Z</time></trkpt><trkpt lat="33.535961806212114" lon="9.867533899345265"><ele>456.59999999999997</ele><time>2026-04-06T09:00:21Z</time></trkpt><trkpt lat="33.53591390881919" lon="9.867399730832082"><ele>455.19999999999993</ele><time>2026-04-06T09:00:21.999Z</time></trkpt><trkpt lat="33.53588092904816" lon="9.86727274871875"><ele>453.8</ele><time>2026-04-06T09:00:22.999Z</time></trkpt><trkpt lat="33.53586464165416" lon="9.867164901512918"><ele>452.4</ele><time>2026-04-06T09:00:24Z</time></trkpt><trkpt lat="33.53585627276712" lon="9.867083672843197"><ele>451.0</ele><time>2026-04-06T09:00:25Z</time></trkpt><trkpt lat="33.53585198405265" lon="9.866949890180699"><ele>451.00000000000006</ele><time>2026-04-06T09:00:27Z</time></trkpt><trkpt lat="33.53584732057253" lon="9.86687426991026"><ele>451.0</ele><time>2026-04-06T09:00:28Z</time></trkpt><trkpt lat="33.53584506281707" lon="9.86672633009847"><ele>451.0</ele><time>2026-04-06T09:00:30Z</time></trkpt><trkpt lat="33.53583784134523" lon="9.866641182834567"><ele>451.0</ele><time>2026-04-06T09:00:31Z</time></trkpt><trkpt lat="33.53583024412669" lon="9.866548921315394"><ele>451.00000000000006</ele><time>2026-04-06T09:00:32Z</time></trkpt><trkpt lat="33.535825058631474" lon="9.866450689035592"><ele>451.0</ele><time>2026-04-06T09:00:33Z</time></trkpt><trkpt lat="33.53582271472403" lon="9.866348305128703"><ele>450.50000000000006</ele><time>2026-04-06T09:00:34Z</time></trkpt><trkpt lat="33.535819911675176" lon="9.866240808613457"><ele>450.0</ele><time>2026-04-06T09:00:35Z</time></trkpt><trkpt lat="33.53581479791914" lon="9.866133540107954"><ele>449.5</ele><time>2026-04-06T09:00:36Z</time></trkpt><trkpt lat="33.53581100370947" lon="9.866025094220825"><ele>449.0</ele><time>2026-04-06T09:00:37Z</time></trkpt><trkpt lat="33.53580955527132" lon="9.865917450193724"><ele>448.50000000000006</ele><time>2026-04-06T09:00:38Z</time></trkpt><trkpt lat="33.535808687462065" lon="9.865810057533178"><ele>448.0</ele><time>2026-04-06T09:00:39Z</time></trkpt><trkpt lat="33.53580895997112" lon="9.865696883946947"><ele>447.50000000000006</ele><time>2026-04-06T09:00:40Z</time></trkpt><trkpt lat="33.53581188538888" lon="9.865588560825106"><ele>447.0</ele><time>2026-04-06T09:00:41Z</time></trkpt><trkpt lat="33.53580833735546" lon="9.865487571756278"><ele>446.5</ele><time>2026-04-06T09:00:42Z</time></trkpt><trkpt lat="33.535796361535155" lon="9.865392305462912"><ele>446.0</ele><time>2026-04-06T09:00:43Z</time></trkpt><trkpt lat="33.53578775437127" lon="9.865304550969364"><ele>445.50000000000006</ele><time>2026-04-06T09:00:44Z</time></trkpt><trkpt lat="33.535788795658824" lon="9.865219140339656"><ele>445.0</ele><time>2026-04-06T09:00:45Z</time></trkpt><trkpt lat="33.53579716509297" lon="9.865124501190841"><ele>445.1666666666667</ele><time>2026-04-06T09:00:46Z</time></trkpt><trkpt lat="33.53580704033566" lon="9.865023471861848"><ele>445.33333333333337</ele><time>2026-04-06T09:00:47Z</time></trkpt><trkpt lat="33.53581062838467" lon="9.86491998657612"><ele>445.5</ele><time>2026-04-06T09:00:48Z</time></trkpt><trkpt lat="33.535813661099574" lon="9.864814420857149"><ele>445.66666666666663</ele><time>2026-04-06T09:00:49Z</time></trkpt><trkpt lat="33.535818834001624" lon="9.864710398284853"><ele>445.8333333333333</ele><time>2026-04-06T09:00:50Z</time></trkpt><trkpt lat="33.53582556127183" lon="9.864605146711911"><ele>446.0</ele><time>2026-04-06T09:00:51Z</time></trkpt><trkpt lat="33.53582776015773" lon="9.864512257461032"><ele>445.99999999999994</ele><time>2026-04-06T09:00:52Z</time></trkpt><trkpt lat="33.53583084176023" lon="9.864423316382469"><ele>446.0</ele><time>2026-04-06T09:00:53Z</time></trkpt><trkpt lat="33.535835677835976" lon="9.864330684147063"><ele>446.0</ele><time>2026-04-06T09:00:54Z</time></trkpt><trkpt lat="33.535836203628705" lon="9.864235091548592"><ele>446.0</ele><time>2026-04-06T09:00:55Z</time></trkpt><trkpt lat="33.53583145001516" lon="9.864139829394508"><ele>445.99999999999994</ele><time>2026-04-06T09:00:56Z</time></trkpt><trkpt lat="33.53580439565521" lon="9.864052300614539"><ele>446.0</ele><time>2026-04-06T09:00:57Z</time></trkpt><trkpt lat="33.53575126712203" lon="9.86398144844949"><ele>445.6</ele><time>2026-04-06T09:00:58Z</time></trkpt><trkpt lat="33.53567425815571" lon="9.863929409548502"><ele>445.20000000000005</ele><time>2026-04-06T09:00:59Z</time></trkpt><trkpt lat="33.535582642581645" lon="9.86387629374848"><ele>444.79999999999995</ele><time>2026-04-06T09:01:00Z</time></trkpt><trkpt lat="33.53547764693199" lon="9.86381796400413"><ele>444.4</ele><time>2026-04-06T09:01:01Z</time></trkpt><trkpt lat="33.53536147011837" lon="9.8637552307929"><ele>444.0</ele><time>2026-04-06T09:01:02Z</time></trkpt><trkpt lat="33.5352404601869" lon="9.863683556757561"><ele>443.2</ele><time>2026-04-06T09:01:03Z</time></trkpt><trkpt lat="33.53512152173036" lon="9.863609133931867"><ele>442.4</ele><time>2026-04-06T09:01:04Z</time></trkpt><trkpt lat="33.53502251503284" lon="9.86352675182164"><ele>441.6</ele><time>2026-04-06T09:01:05Z</time></trkpt><trkpt lat="33.534945409008145" lon="9.863453017379143"><ele>440.8</ele><time>2026-04-06T09:01:06Z</time></trkpt><trkpt lat="33.53487699795586" lon="9.863380726569133"><ele>440.0</ele><time>2026-04-06T09:01:07Z</time></trkpt><trkpt lat="33.53481351511426" lon="9.863308816891251"><ele>439.99999999999994</ele><time>2026-04-06T09:01:08Z</time></trkpt><trkpt lat="33.534749956785674" lon="9.863235797463046"><ele>440.0</ele><time>2026-04-06T09:01:09Z</time></trkpt><trkpt lat="33.53468850824177" lon="9.863161817739856"><ele>440.0</ele><time>2026-04-06T09:01:10Z</time></trkpt><trkpt lat="33.53463472336805" lon="9.863083789049877"><ele>440.0</ele><time>2026-04-06T09:01:11Z</time></trkpt><trkpt lat="33.53458411972745" lon="9.862996077024725"><ele>439.99999999999994</ele><time>2026-04-06T09:01:12Z</time></trkpt><trkpt lat="33.534529617928634" lon="9.862902422338763"><ele>440.0</ele><time>2026-04-06T09:01:13Z</time></trkpt><trkpt lat="33.53447608843225" lon="9.862807505885723"><ele>440.0</ele><time>2026-04-06T09:01:14Z</time></trkpt><trkpt lat="33.53441547182892" lon="9.862712871774733"><ele>440.0</ele><time>2026-04-06T09:01:15Z</time></trkpt><trkpt lat="33.534343305875964" lon="9.862628487522848"><ele>440.0</ele><time>2026-04-06T09:01:16Z</time></trkpt><trkpt lat="33.53425659328299" lon="9.86256605693733"><ele>440.0</ele><time>2026-04-06T09:01:17Z</time></trkpt><trkpt lat="33.53415682874183" lon="9.86252609252071"><ele>440.0</ele><time>2026-04-06T09:01:18Z</time></trkpt><trkpt lat="33.53405061536095" lon="9.862507299986277"><ele>440.2</ele><time>2026-04-06T09:01:19Z</time></trkpt><trkpt lat="33.53394490969433" lon="9.862490091684723"><ele>440.4</ele><time>2026-04-06T09:01:20Z</time></trkpt><trkpt lat="33.533838664918996" lon="9.862465605046728"><ele>440.6</ele><time>2026-04-06T09:01:21Z</time></trkpt><trkpt lat="33.53373131029241" lon="9.86243700515669"><ele>440.8</ele><time>2026-04-06T09:01:22Z</time></trkpt><trkpt lat="33.533622928678525" lon="9.862411248001717"><ele>441.0</ele><time>2026-04-06T09:01:23Z</time></trkpt><trkpt lat="33.53351424483438" lon="9.862383251517587"><ele>440.0</ele><time>2026-04-06T09:01:24Z</time></trkpt><trkpt lat="33.533407110245" lon="9.862351326431499"><ele>439.0</ele><time>2026-04-06T09:01:25Z</time></trkpt><trkpt lat="33.533301019783195" lon="9.862308515218258"><ele>438.0</ele><time>2026-04-06T09:01:26Z</time></trkpt><trkpt lat="33.53321029036029" lon="9.862265112197877"><ele>437.0</ele><time>2026-04-06T09:01:27Z</time></trkpt><trkpt lat="33.53314980426028" lon="9.862230378763558"><ele>436.0</ele><time>2026-04-06T09:01:28Z</time></trkpt><trkpt lat="33.53305145676749" lon="9.862164480021207"><ele>436.00000000000006</ele><time>2026-04-06T09:01:30Z</time></trkpt><trkpt lat="33.532988333663695" lon="9.862120029800113"><ele>436.0</ele><time>2026-04-06T09:01:31Z</time></trkpt><trkpt lat="33.53291965329123" lon="9.862071207556061"><ele>436.0</ele><time>2026-04-06T09:01:32Z</time></trkpt><trkpt lat="33.53285298624022" lon="9.862013706522163"><ele>436.0</ele><time>2026-04-06T09:01:33Z</time></trkpt><trkpt lat="33.532791292054995" lon="9.861939405889283"><ele>436.00000000000006</ele><time>2026-04-06T09:01:34Z</time></trkpt><trkpt lat="33.53273860910531" lon="9.861857088756711"><ele>436.0</ele><time>2026-04-06T09:01:35Z</time></trkpt><trkpt lat="33.53269657555477" lon="9.861779081681094"><ele>435.6666666666667</ele><time>2026-04-06T09:01:36Z</time></trkpt><trkpt lat="33.53266132846" lon="9.861707199767027"><ele>435.33333333333337</ele><time>2026-04-06T09:01:37Z</time></trkpt><trkpt lat="33.53262496462195" lon="9.861638645714491"><ele>435.0</ele><time>2026-04-06T09:01:38Z</time></trkpt><trkpt lat="33.532590269623164" lon="9.861570540907437"><ele>434.66666666666663</ele><time>2026-04-06T09:01:39Z</time></trkpt><trkpt lat="33.532530462963045" lon="9.861443150001111"><ele>434.3333333333333</ele><time>2026-04-06T09:01:41Z</time></trkpt><trkpt lat="33.53249907896102" lon="9.8613760795071"><ele>434.0</ele><time>2026-04-06T09:01:42Z</time></trkpt><trkpt lat="33.532462860236336" lon="9.861304576840718"><ele>433.99999999999994</ele><time>2026-04-06T09:01:43Z</time></trkpt><trkpt lat="33.532425202256796" lon="9.861218992930961"><ele>434.0</ele><time>2026-04-06T09:01:44Z</time></trkpt><trkpt lat="33.53238591126624" lon="9.861131500080324"><ele>434.0</ele><time>2026-04-06T09:01:45Z</time></trkpt><trkpt lat="33.53234008108406" lon="9.861044838960476"><ele>434.0</ele><time>2026-04-06T09:01:46Z</time></trkpt><trkpt lat="33.53229033962733" lon="9.86095573203643"><ele>433.99999999999994</ele><time>2026-04-06T09:01:47Z</time></trkpt><trkpt lat="33.53223965128687" lon="9.860863472723972"><ele>434.0</ele><time>2026-04-06T09:01:48Z</time></trkpt><trkpt lat="33.5321917676825" lon="9.860770705635275"><ele>433.49999999999994</ele><time>2026-04-06T09:01:49Z</time></trkpt><trkpt lat="33.53215096576195" lon="9.860681844821912"><ele>433.0</ele><time>2026-04-06T09:01:50Z</time></trkpt><trkpt lat="33.53211203568774" lon="9.860595645711463"><ele>432.5</ele><time>2026-04-06T09:01:51Z</time></trkpt><trkpt lat="33.532073668407506" lon="9.860509881010726"><ele>432.0</ele><time>2026-04-06T09:01:52Z</time></trkpt><trkpt lat="33.532033462015505" lon="9.86041879634355"><ele>431.49999999999994</ele><time>2026-04-06T09:01:53Z</time></trkpt><trkpt lat="33.531989359864234" lon="9.860319854406015"><ele>431.0</ele><time>2026-04-06T09:01:54Z</time></trkpt><trkpt lat="33.53194460870329" lon="9.860224410162466"><ele>430.99999999999994</ele><time>2026-04-06T09:01:55Z</time></trkpt><trkpt lat="33.531900249743224" lon="9.860133793391547"><ele>431.0</ele><time>2026-04-06T09:01:56Z</time></trkpt><trkpt lat="33.53185602531441" lon="9.860044814241878"><ele>431.0</ele><time>2026-04-06T09:01:57Z</time></trkpt><trkpt lat="33.53181395024091" lon="9.859957639465721"><ele>431.0</ele><time>2026-04-06T09:01:58Z</time></trkpt><trkpt lat="33.53177471468885" lon="9.859870451157636"><ele>430.99999999999994</ele><time>2026-04-06T09:01:59Z</time></trkpt><trkpt lat="33.53173647502203" lon="9.859783684857968"><ele>431.0</ele><time>2026-04-06T09:02:00Z</time></trkpt><trkpt lat="33.531697094900714" lon="9.8596993508889"><ele>430.66666666666663</ele><time>2026-04-06T09:02:01Z</time></trkpt><trkpt lat="33.53165493475164" lon="9.859617913337319"><ele>430.3333333333333</ele><time>2026-04-06T09:02:02Z</time></trkpt><trkpt lat="33.531610688744095" lon="9.859540312841638"><ele>430.0</ele><time>2026-04-06T09:02:03Z</time></trkpt><trkpt lat="33.53156727872076" lon="9.859458258516975"><ele>429.66666666666663</ele><time>2026-04-06T09:02:04Z</time></trkpt><trkpt lat="33.531523250049936" lon="9.859374691448718"><ele>429.3333333333333</ele><time>2026-04-06T09:02:05Z</time></trkpt><trkpt lat="33.53147032600351" lon="9.859283324342977"><ele>429.0</ele><time>2026-04-06T09:02:06Z</time></trkpt><trkpt lat="33.53140913572764" lon="9.859190867101878"><ele>427.79999999999995</ele><time>2026-04-06T09:02:07Z</time></trkpt><trkpt lat="33.53133846656736" lon="9.859099699832708"><ele>426.59999999999997</ele><time>2026-04-06T09:02:08Z</time></trkpt><trkpt lat="33.531264720897326" lon="9.859007537879622"><ele>425.4</ele><time>2026-04-06T09:02:09Z</time></trkpt><trkpt lat="33.53119631124439" lon="9.858921109543717"><ele>424.2</ele><time>2026-04-06T09:02:10Z</time></trkpt><trkpt lat="33.53113088746197" lon="9.858832880377784"><ele>423.0</ele><time>2026-04-06T09:02:11Z</time></trkpt><trkpt lat="33.531068729402755" lon="9.858732117035208"><ele>422.5</ele><time>2026-04-06T09:02:12Z</time></trkpt><trkpt lat="33.53102209698848" lon="9.858614260436445"><ele>422.0</ele><time>2026-04-06T09:02:13Z</time></trkpt><trkpt lat="33.53100833502429" lon="9.858475364122539"><ele>421.5</ele><time>2026-04-06T09:02:14Z</time></trkpt><trkpt lat="33.531039051137505" lon="9.858316975357809"><ele>421.0</ele><time>2026-04-06T09:02:15Z</time></trkpt><trkpt lat="33.531114135613805" lon="9.858149256195828"><ele>419.0</ele><time>2026-04-06T09:02:16Z</time></trkpt><trkpt lat="33.531231074182536" lon="9.857969175528378"><ele>417.0</ele><time>2026-04-06T09:02:17Z</time></trkpt><trkpt lat="33.5313728163831" lon="9.857769650410859"><ele>415.0</ele><time>2026-04-06T09:02:18Z</time></trkpt><trkpt lat="33.53149002342041" lon="9.857577580727376"><ele>414.33333333333337</ele><time>2026-04-06T09:02:19Z</time></trkpt><trkpt lat="33.53158844349329" lon="9.85741278854118"><ele>413.66666666666663</ele><time>2026-04-06T09:02:20Z</time></trkpt><trkpt lat="33.53168453473662" lon="9.857261883277586"><ele>413.0</ele><time>2026-04-06T09:02:21Z</time></trkpt><trkpt lat="33.531779844177194" lon="9.857108241101134"><ele>413.0</ele><time>2026-04-06T09:02:22Z</time></trkpt><trkpt lat="33.531872870334105" lon="9.85695802353563"><ele>413.0</ele><time>2026-04-06T09:02:23Z</time></trkpt><trkpt lat="33.5319654549894" lon="9.856811085665747"><ele>413.0</ele><time>2026-04-06T09:02:24Z</time></trkpt><trkpt lat="33.53205897967572" lon="9.856664899247253"><ele>412.66666666666663</ele><time>2026-04-06T09:02:25Z</time></trkpt><trkpt lat="33.53215364557079" lon="9.856520719301184"><ele>412.33333333333337</ele><time>2026-04-06T09:02:26Z</time></trkpt><trkpt lat="33.53224821025081" lon="9.856376071231713"><ele>412.0</ele><time>2026-04-06T09:02:27Z</time></trkpt><trkpt lat="33.532340806455515" lon="9.856228204935114"><ele>412.0</ele><time>2026-04-06T09:02:28Z</time></trkpt><trkpt lat="33.53242941323685" lon="9.856086199792147"><ele>412.0</ele><time>2026-04-06T09:02:29Z</time></trkpt><trkpt lat="33.532519846461014" lon="9.855947685921166"><ele>412.0</ele><time>2026-04-06T09:02:29.999Z</time></trkpt><trkpt lat="33.53260852506732" lon="9.855805965578318"><ele>412.0</ele><time>2026-04-06T09:02:30.999Z</time></trkpt><trkpt lat="33.53268706503523" lon="9.855652157572392"><ele>411.6666666666667</ele><time>2026-04-06T09:02:31.999Z</time></trkpt><trkpt lat="33.532751575078215" lon="9.85547889444182"><ele>411.33333333333337</ele><time>2026-04-06T09:02:32.999Z</time></trkpt><trkpt lat="33.53280110382925" lon="9.855290694687698"><ele>411.0</ele><time>2026-04-06T09:02:33.999Z</time></trkpt><trkpt lat="33.53283191708266" lon="9.855080451191403"><ele>409.33333333333337</ele><time>2026-04-06T09:02:34.999Z</time></trkpt><trkpt lat="33.5328359940914" lon="9.854855644895888"><ele>407.6666666666667</ele><time>2026-04-06T09:02:35.999Z</time></trkpt><trkpt lat="33.532810563287505" lon="9.854626608532712"><ele>406.0</ele><time>2026-04-06T09:02:36.999Z</time></trkpt><trkpt lat="33.53275533421255" lon="9.854414419790489"><ele>404.6666666666667</ele><time>2026-04-06T09:02:37.999Z</time></trkpt><trkpt lat="33.53268972660176" lon="9.854221425184818"><ele>403.33333333333337</ele><time>2026-04-06T09:02:38.999Z</time></trkpt><trkpt lat="33.53263884606896" lon="9.854043972338438"><ele>402.0</ele><time>2026-04-06T09:02:39.999Z</time></trkpt><trkpt lat="33.53261125229389" lon="9.853866761212041"><ele>402.0</ele><time>2026-04-06T09:02:41Z</time></trkpt><trkpt lat="33.53261158357067" lon="9.853695160364737"><ele>402.0</ele><time>2026-04-06T09:02:42Z</time></trkpt><trkpt lat="33.53264074734099" lon="9.853532032048934"><ele>402.0</ele><time>2026-04-06T09:02:43Z</time></trkpt><trkpt lat="33.532708713030814" lon="9.853374241107288"><ele>402.0</ele><time>2026-04-06T09:02:44Z</time></trkpt><trkpt lat="33.53279519631087" lon="9.853213901902233"><ele>402.5</ele><time>2026-04-06T09:02:45Z</time></trkpt><trkpt lat="33.532881695453156" lon="9.853080272660396"><ele>403.0</ele><time>2026-04-06T09:02:46Z</time></trkpt><trkpt lat="33.532957503170216" lon="9.852965053958687"><ele>403.5</ele><time>2026-04-06T09:02:47Z</time></trkpt><trkpt lat="33.53302524810854" lon="9.852840206207903"><ele>404.0</ele><time>2026-04-06T09:02:48Z</time></trkpt><trkpt lat="33.53307268284451" lon="9.852694772901032"><ele>401.3333333333333</ele><time>2026-04-06T09:02:49Z</time></trkpt><trkpt lat="33.53308436839091" lon="9.85252238853339"><ele>398.66666666666663</ele><time>2026-04-06T09:02:50Z</time></trkpt><trkpt lat="33.533059074099455" lon="9.852332200012198"><ele>396.0</ele><time>2026-04-06T09:02:51Z</time></trkpt><trkpt lat="33.53301976226738" lon="9.852156356603777"><ele>396.0</ele><time>2026-04-06T09:02:52Z</time></trkpt><trkpt lat="33.533003850803986" lon="9.851993437905275"><ele>396.0</ele><time>2026-04-06T09:02:53Z</time></trkpt><trkpt lat="33.53302641362841" lon="9.851841705403725"><ele>396.0</ele><time>2026-04-06T09:02:54Z</time></trkpt><trkpt lat="33.5330760608373" lon="9.851702433219677"><ele>396.0</ele><time>2026-04-06T09:02:55Z</time></trkpt><trkpt lat="33.53314055289922" lon="9.851582165131443"><ele>395.25</ele><time>2026-04-06T09:02:56Z</time></trkpt><trkpt lat="33.53320980276605" lon="9.851471702686686"><ele>394.5</ele><time>2026-04-06T09:02:57Z</time></trkpt><trkpt lat="33.53326923217686" lon="9.851349388232258"><ele>393.75</ele><time>2026-04-06T09:02:58Z</time></trkpt><trkpt lat="33.53330641435948" lon="9.851208593723596"><ele>393.0</ele><time>2026-04-06T09:02:59Z</time></trkpt><trkpt lat="33.53330592084811" lon="9.851050253937434"><ele>392.0</ele><time>2026-04-06T09:03:00Z</time></trkpt><trkpt lat="33.53326702247635" lon="9.850872392373597"><ele>391.0</ele><time>2026-04-06T09:03:01Z</time></trkpt><trkpt lat="33.53320768066494" lon="9.850675632171782"><ele>390.0</ele><time>2026-04-06T09:03:02Z</time></trkpt><trkpt lat="33.533158164187945" lon="9.850478721026166"><ele>390.0</ele><time>2026-04-06T09:03:03Z</time></trkpt><trkpt lat="33.533115338797245" lon="9.850287911637539"><ele>390.0</ele><time>2026-04-06T09:03:04Z</time></trkpt><trkpt lat="33.533070220238905" lon="9.850102154981883"><ele>390.0</ele><time>2026-04-06T09:03:05Z</time></trkpt><trkpt lat="33.53302376149886" lon="9.849929339886604"><ele>389.5</ele><time>2026-04-06T09:03:06Z</time></trkpt><trkpt lat="33.532984598196826" lon="9.849765300411125"><ele>389.0</ele><time>2026-04-06T09:03:07Z</time></trkpt><trkpt lat="33.53295273553217" lon="9.849596534810411"><ele>388.5</ele><time>2026-04-06T09:03:08Z</time></trkpt><trkpt lat="33.532927757116056" lon="9.84942071656266"><ele>388.0</ele><time>2026-04-06T09:03:09Z</time></trkpt><trkpt lat="33.53291369192205" lon="9.849237974535962"><ele>389.25</ele><time>2026-04-06T09:03:10Z</time></trkpt><trkpt lat="33.53291033755019" lon="9.849053443583914"><ele>390.5</ele><time>2026-04-06T09:03:11Z</time></trkpt><trkpt lat="33.53291574122243" lon="9.848885194035876"><ele>391.75</ele><time>2026-04-06T09:03:12Z</time></trkpt><trkpt lat="33.53292418387938" lon="9.848732822741109"><ele>393.0</ele><time>2026-04-06T09:03:13Z</time></trkpt><trkpt lat="33.53291864937538" lon="9.848595557521262"><ele>394.0</ele><time>2026-04-06T09:03:14Z</time></trkpt><trkpt lat="33.53288182761302" lon="9.848455559741666"><ele>395.0</ele><time>2026-04-06T09:03:15Z</time></trkpt><trkpt lat="33.53280991995855" lon="9.848308200195891"><ele>396.0</ele><time>2026-04-06T09:03:16Z</time></trkpt><trkpt lat="33.53269915269223" lon="9.848159671626933"><ele>397.0</ele><time>2026-04-06T09:03:17Z</time></trkpt><trkpt lat="33.53257947012529" lon="9.848019609943925"><ele>397.0</ele><time>2026-04-06T09:03:18Z</time></trkpt><trkpt lat="33.53245770903877" lon="9.847906358165602"><ele>397.0</ele><time>2026-04-06T09:03:19Z</time></trkpt><trkpt lat="33.532337472625386" lon="9.84781270814966"><ele>397.0</ele><time>2026-04-06T09:03:20Z</time></trkpt><trkpt lat="33.532229766044566" lon="9.8477201922782"><ele>397.0</ele><time>2026-04-06T09:03:21Z</time></trkpt><trkpt lat="33.53215350546792" lon="9.847602347920503"><ele>394.75</ele><time>2026-04-06T09:03:22Z</time></trkpt><trkpt lat="33.53211940546772" lon="9.847462387200556"><ele>392.5</ele><time>2026-04-06T09:03:23Z</time></trkpt><trkpt lat="33.532137222290054" lon="9.847323612718245"><ele>390.25</ele><time>2026-04-06T09:03:24Z</time></trkpt><trkpt lat="33.532207403417566" lon="9.847216752720392"><ele>388.0</ele><time>2026-04-06T09:03:25Z</time></trkpt><trkpt lat="33.53232853926441" lon="9.847138636503402"><ele>388.0</ele><time>2026-04-06T09:03:26Z</time></trkpt><trkpt lat="33.53247239605727" lon="9.847075194313437"><ele>388.0</ele><time>2026-04-06T09:03:27Z</time></trkpt><trkpt lat="33.532622584418874" lon="9.846984015218245"><ele>388.0</ele><time>2026-04-06T09:03:28Z</time></trkpt><trkpt lat="33.53277619464084" lon="9.846854468994648"><ele>385.0</ele><time>2026-04-06T09:03:29Z</time></trkpt><trkpt lat="33.532915591423354" lon="9.846715769982707"><ele>382.0</ele><time>2026-04-06T09:03:30Z</time></trkpt><trkpt lat="33.53304326385756" lon="9.846584901832493"><ele>379.0</ele><time>2026-04-06T09:03:31Z</time></trkpt><trkpt lat="33.53317235038764" lon="9.846460051267268"><ele>379.0</ele><time>2026-04-06T09:03:32Z</time></trkpt><trkpt lat="33.53329503496883" lon="9.84633935583504"><ele>379.0</ele><time>2026-04-06T09:03:33Z</time></trkpt><trkpt lat="33.533414966482276" lon="9.846225612367551"><ele>379.0</ele><time>2026-04-06T09:03:34Z</time></trkpt><trkpt lat="33.533528907118615" lon="9.846111940624313"><ele>379.0</ele><time>2026-04-06T09:03:35Z</time></trkpt><trkpt lat="33.533639361890664" lon="9.845983173494961"><ele>379.0</ele><time>2026-04-06T09:03:36Z</time></trkpt><trkpt lat="33.53373457826801" lon="9.845837017324055"><ele>379.0</ele><time>2026-04-06T09:03:37Z</time></trkpt><trkpt lat="33.533797241914286" lon="9.845676114370498"><ele>377.5</ele><time>2026-04-06T09:03:38Z</time></trkpt><trkpt lat="33.533826479145986" lon="9.845509721894008"><ele>376.0</ele><time>2026-04-06T09:03:39Z</time></trkpt><trkpt lat="33.53384885875475" lon="9.845363858870371"><ele>374.5</ele><time>2026-04-06T09:03:40Z</time></trkpt><trkpt lat="33.53390700961554" lon="9.845247497735835"><ele>373.0</ele><time>2026-04-06T09:03:41Z</time></trkpt><trkpt lat="33.534010979018134" lon="9.84518058116341"><ele>373.0</ele><time>2026-04-06T09:03:42Z</time></trkpt><trkpt lat="33.53414456223353" lon="9.845169406137455"><ele>373.0</ele><time>2026-04-06T09:03:43Z</time></trkpt><trkpt lat="33.53429698555836" lon="9.845197044066065"><ele>373.0</ele><time>2026-04-06T09:03:44Z</time></trkpt><trkpt lat="33.53448142598455" lon="9.845270938963354"><ele>371.0</ele><time>2026-04-06T09:03:45Z</time></trkpt><trkpt lat="33.53467773348827" lon="9.84534887804085"><ele>369.0</ele><time>2026-04-06T09:03:46Z</time></trkpt><trkpt lat="33.534856436575666" lon="9.845395304654435"><ele>367.0</ele><time>2026-04-06T09:03:47Z</time></trkpt><trkpt lat="33.535023790779746" lon="9.845409986665567"><ele>367.0</ele><time>2026-04-06T09:03:48Z</time></trkpt><trkpt lat="33.53519017766756" lon="9.845399602123981"><ele>367.0</ele><time>2026-04-06T09:03:49Z</time></trkpt><trkpt lat="33.53535264559738" lon="9.845358748400763"><ele>367.0</ele><time>2026-04-06T09:03:50Z</time></trkpt><trkpt lat="33.53550657350705" lon="9.845298084798491"><ele>365.3333333333333</ele><time>2026-04-06T09:03:51Z</time></trkpt><trkpt lat="33.53565542085649" lon="9.84524254918598"><ele>363.6666666666667</ele><time>2026-04-06T09:03:52Z</time></trkpt><trkpt lat="33.53580449284064" lon="9.845188611165693"><ele>362.0</ele><time>2026-04-06T09:03:53Z</time></trkpt><trkpt lat="33.53594819009066" lon="9.845119926406406"><ele>362.0</ele><time>2026-04-06T09:03:54Z</time></trkpt><trkpt lat="33.53607654674839" lon="9.845015186567581"><ele>362.0</ele><time>2026-04-06T09:03:55Z</time></trkpt><trkpt lat="33.536183837957594" lon="9.84486990036439"><ele>362.0</ele><time>2026-04-06T09:03:56Z</time></trkpt><trkpt lat="33.536277255148185" lon="9.844697814794914"><ele>360.0</ele><time>2026-04-06T09:03:57Z</time></trkpt><trkpt lat="33.53637023695171" lon="9.844522241565"><ele>358.0</ele><time>2026-04-06T09:03:58Z</time></trkpt><trkpt lat="33.536460640232676" lon="9.844355428587939"><ele>356.0</ele><time>2026-04-06T09:03:59Z</time></trkpt><trkpt lat="33.5365398481294" lon="9.844189070478286"><ele>356.0</ele><time>2026-04-06T09:04:00Z</time></trkpt><trkpt lat="33.5366037936026" lon="9.844003059982228"><ele>356.0</ele><time>2026-04-06T09:04:01Z</time></trkpt><trkpt lat="33.53663501401845" lon="9.843786332186017"><ele>356.0</ele><time>2026-04-06T09:04:02Z</time></trkpt><trkpt lat="33.53662623315924" lon="9.843551240818638"><ele>356.0</ele><time>2026-04-06T09:04:03Z</time></trkpt><trkpt lat="33.536597101170024" lon="9.843328251425039"><ele>356.0</ele><time>2026-04-06T09:04:04Z</time></trkpt><trkpt lat="33.53658159584037" lon="9.843123326865296"><ele>356.0</ele><time>2026-04-06T09:04:05Z</time></trkpt><trkpt lat="33.53659052734099" lon="9.842927899427256"><ele>356.0</ele><time>2026-04-06T09:04:06Z</time></trkpt><trkpt lat="33.53662004945091" lon="9.842741637399566"><ele>356.0</ele><time>2026-04-06T09:04:07Z</time></trkpt><trkpt lat="33.53666838902273" lon="9.842567863634892"><ele>356.0</ele><time>2026-04-06T09:04:08Z</time></trkpt><trkpt lat="33.53671778758531" lon="9.842400905121384"><ele>355.0</ele><time>2026-04-06T09:04:09Z</time></trkpt><trkpt lat="33.53673327575635" lon="9.842234891945711"><ele>354.0</ele><time>2026-04-06T09:04:10Z</time></trkpt><trkpt lat="33.536691303295974" lon="9.842054190592943"><ele>353.0</ele><time>2026-04-06T09:04:11Z</time></trkpt><trkpt lat="33.536604891568096" lon="9.841856401959165"><ele>351.5</ele><time>2026-04-06T09:04:12Z</time></trkpt><trkpt lat="33.53647614901081" lon="9.841642632962168"><ele>350.0</ele><time>2026-04-06T09:04:13Z</time></trkpt><trkpt lat="33.53632531410827" lon="9.841405769396703"><ele>352.0</ele><time>2026-04-06T09:04:14Z</time></trkpt><trkpt lat="33.5361759372653" lon="9.841134693147362"><ele>354.0</ele><time>2026-04-06T09:04:15Z</time></trkpt><trkpt lat="33.53604849956592" lon="9.840877190887406"><ele>350.6666666666667</ele><time>2026-04-06T09:04:16Z</time></trkpt><trkpt lat="33.53592732963573" lon="9.840643913133604"><ele>347.33333333333337</ele><time>2026-04-06T09:04:17Z</time></trkpt><trkpt lat="33.535807046369776" lon="9.840431508472024"><ele>344.0</ele><time>2026-04-06T09:04:18Z</time></trkpt><trkpt lat="33.53569068925389" lon="9.840236397829486"><ele>343.33333333333337</ele><time>2026-04-06T09:04:19Z</time></trkpt><trkpt lat="33.53557642951098" lon="9.840042560095762"><ele>342.6666666666667</ele><time>2026-04-06T09:04:20Z</time></trkpt><trkpt lat="33.535458123081426" lon="9.839841685123133"><ele>342.0</ele><time>2026-04-06T09:04:21Z</time></trkpt><trkpt lat="33.53534113332293" lon="9.839639496209"><ele>343.3333333333333</ele><time>2026-04-06T09:04:22Z</time></trkpt><trkpt lat="33.53522811148005" lon="9.839443462162771"><ele>344.66666666666663</ele><time>2026-04-06T09:04:23Z</time></trkpt><trkpt lat="33.53512249767307" lon="9.839245074407021"><ele>346.0</ele><time>2026-04-06T09:04:24Z</time></trkpt><trkpt lat="33.535021649008705" lon="9.839032570484864"><ele>346.0</ele><time>2026-04-06T09:04:25Z</time></trkpt><trkpt lat="33.53494318447416" lon="9.838811088543507"><ele>346.0</ele><time>2026-04-06T09:04:26Z</time></trkpt><trkpt lat="33.534882389242284" lon="9.838569812562943"><ele>346.0</ele><time>2026-04-06T09:04:27Z</time></trkpt><trkpt lat="33.53483335740809" lon="9.838304076252085"><ele>344.5</ele><time>2026-04-06T09:04:28Z</time></trkpt><trkpt lat="33.53479321493416" lon="9.838021677525303"><ele>343.0</ele><time>2026-04-06T09:04:29Z</time></trkpt><trkpt lat="33.53475399104288" lon="9.837714197165212"><ele>341.0</ele><time>2026-04-06T09:04:30Z</time></trkpt><trkpt lat="33.534713624380736" lon="9.837392524445713"><ele>339.0</ele><time>2026-04-06T09:04:31Z</time></trkpt><trkpt lat="33.534673816718524" lon="9.83709076966251"><ele>339.0</ele><time>2026-04-06T09:04:32Z</time></trkpt><trkpt lat="33.53464001747575" lon="9.836812820685306"><ele>339.0</ele><time>2026-04-06T09:04:33Z</time></trkpt><trkpt lat="33.53460489056122" lon="9.836534061656739"><ele>339.0</ele><time>2026-04-06T09:04:34Z</time></trkpt><trkpt lat="33.53456459907086" lon="9.836248367538428"><ele>339.0</ele><time>2026-04-06T09:04:35Z</time></trkpt><trkpt lat="33.53451470433438" lon="9.835937952550761"><ele>340.0</ele><time>2026-04-06T09:04:36Z</time></trkpt><trkpt lat="33.53446273271912" lon="9.835597255064803"><ele>341.0</ele><time>2026-04-06T09:04:37Z</time></trkpt><trkpt lat="33.534422722546346" lon="9.835235702090952"><ele>340.5</ele><time>2026-04-06T09:04:38Z</time></trkpt><trkpt lat="33.53439036035751" lon="9.834856661390152"><ele>340.0</ele><time>2026-04-06T09:04:39Z</time></trkpt><trkpt lat="33.53434418554885" lon="9.83445597763485"><ele>338.5</ele><time>2026-04-06T09:04:40Z</time></trkpt><trkpt lat="33.53428311703382" lon="9.834044064634918"><ele>337.0</ele><time>2026-04-06T09:04:41Z</time></trkpt><trkpt lat="33.5342246321506" lon="9.833617871586764"><ele>335.5</ele><time>2026-04-06T09:04:42Z</time></trkpt><trkpt lat="33.534171075282" lon="9.833194514773988"><ele>334.0</ele><time>2026-04-06T09:04:43Z</time></trkpt><trkpt lat="33.534122036245" lon="9.832784766487201"><ele>332.5</ele><time>2026-04-06T09:04:44Z</time></trkpt><trkpt lat="33.53407137102029" lon="9.832386424511164"><ele>331.0</ele><time>2026-04-06T09:04:45Z</time></trkpt><trkpt lat="33.534022690032664" lon="9.83199652235681"><ele>330.5</ele><time>2026-04-06T09:04:46Z</time></trkpt><trkpt lat="33.53397194226323" lon="9.831605285173442"><ele>330.0</ele><time>2026-04-06T09:04:47Z</time></trkpt><trkpt lat="33.53391717469285" lon="9.8311994114693"><ele>329.0</ele><time>2026-04-06T09:04:48Z</time></trkpt><trkpt lat="33.533857605097566" lon="9.830782593947493"><ele>328.0</ele><time>2026-04-06T09:04:49Z</time></trkpt><trkpt lat="33.53379991313767" lon="9.830370878343917"><ele>327.5</ele><time>2026-04-06T09:04:50Z</time></trkpt><trkpt lat="33.5337447349825" lon="9.829963789559399"><ele>327.0</ele><time>2026-04-06T09:04:51Z</time></trkpt><trkpt lat="33.533691402718134" lon="9.829550553522564"><ele>326.5</ele><time>2026-04-06T09:04:52Z</time></trkpt><trkpt lat="33.533637551066306" lon="9.829127546031867"><ele>326.0</ele><time>2026-04-06T09:04:53Z</time></trkpt><trkpt lat="33.53358080936237" lon="9.828690379057903"><ele>326.0</ele><time>2026-04-06T09:04:54Z</time></trkpt><trkpt lat="33.53352258901967" lon="9.82824367669866"><ele>326.0</ele><time>2026-04-06T09:04:55Z</time></trkpt><trkpt lat="33.53346675871605" lon="9.827795790442284"><ele>325.0</ele><time>2026-04-06T09:04:56Z</time></trkpt><trkpt lat="33.533417227446996" lon="9.827371014977501"><ele>324.0</ele><time>2026-04-06T09:04:57Z</time></trkpt><trkpt lat="33.53337436417887" lon="9.826973893006263"><ele>324.0</ele><time>2026-04-06T09:04:58Z</time></trkpt><trkpt lat="33.533336683588146" lon="9.826599785517175"><ele>324.0</ele><time>2026-04-06T09:04:59Z</time></trkpt><trkpt lat="33.53330612146499" lon="9.826236569369902"><ele>325.0</ele><time>2026-04-06T09:05:00Z</time></trkpt><trkpt lat="33.53328177232652" lon="9.825876977763611"><ele>326.0</ele><time>2026-04-06T09:05:01Z</time></trkpt><trkpt lat="33.53325849985431" lon="9.825506550451964"><ele>327.0</ele><time>2026-04-06T09:05:02Z</time></trkpt><trkpt lat="33.533240803290504" lon="9.825140809855627"><ele>328.0</ele><time>2026-04-06T09:05:03Z</time></trkpt><trkpt lat="33.53322975093855" lon="9.824779237371477"><ele>328.0</ele><time>2026-04-06T09:05:04Z</time></trkpt><trkpt lat="33.53322997180544" lon="9.824408222730215"><ele>328.0</ele><time>2026-04-06T09:05:05Z</time></trkpt><trkpt lat="33.533235175544746" lon="9.824029783505154"><ele>330.0</ele><time>2026-04-06T09:05:06Z</time></trkpt><trkpt lat="33.53324651837527" lon="9.82365730800828"><ele>332.0</ele><time>2026-04-06T09:05:07Z</time></trkpt><trkpt lat="33.5332577202174" lon="9.823303067405533"><ele>333.0</ele><time>2026-04-06T09:05:08Z</time></trkpt><trkpt lat="33.53327261846536" lon="9.822970469072025"><ele>334.0</ele><time>2026-04-06T09:05:09Z</time></trkpt><trkpt lat="33.53328888126446" lon="9.822656536856861"><ele>336.5</ele><time>2026-04-06T09:05:10Z</time></trkpt><trkpt lat="33.53330363161612" lon="9.822365267085123"><ele>339.0</ele><time>2026-04-06T09:05:11Z</time></trkpt><trkpt lat="33.53331489855722" lon="9.822101618906244"><ele>339.0</ele><time>2026-04-06T09:05:12Z</time></trkpt><trkpt lat="33.533318229079114" lon="9.821897133816144"><ele>339.0</ele><time>2026-04-06T09:05:13Z</time></trkpt><trkpt lat="33.53330835433504" lon="9.821737462342941"><ele>339.0</ele><time>2026-04-06T09:05:14Z</time></trkpt><trkpt lat="33.533273554225765" lon="9.82159424385399"><ele>339.0</ele><time>2026-04-06T09:05:15Z</time></trkpt><trkpt lat="33.533206306153296" lon="9.821443564905325"><ele>340.0</ele><time>2026-04-06T09:05:16Z</time></trkpt><trkpt lat="33.533103522598985" lon="9.82129843214829"><ele>341.0</ele><time>2026-04-06T09:05:17Z</time></trkpt><trkpt lat="33.532971493805206" lon="9.821173480168865"><ele>342.0</ele><time>2026-04-06T09:05:18Z</time></trkpt><trkpt lat="33.53283188800923" lon="9.821062644420476"><ele>341.5</ele><time>2026-04-06T09:05:19Z</time></trkpt><trkpt lat="33.532717512896866" lon="9.820941591075481"><ele>341.0</ele><time>2026-04-06T09:05:20Z</time></trkpt><trkpt lat="33.53263565142951" lon="9.820793850162756"><ele>340.5</ele><time>2026-04-06T09:05:21Z</time></trkpt><trkpt lat="33.53259318459487" lon="9.820627829119907"><ele>340.0</ele><time>2026-04-06T09:05:22Z</time></trkpt><trkpt lat="33.53258571059467" lon="9.820446462569786"><ele>340.0</ele><time>2026-04-06T09:05:23Z</time></trkpt><trkpt lat="33.532613218052155" lon="9.820255785284191"><ele>340.0</ele><time>2026-04-06T09:05:24Z</time></trkpt><trkpt lat="33.53267922019517" lon="9.820086727090187"><ele>340.0</ele><time>2026-04-06T09:05:25Z</time></trkpt><trkpt lat="33.5327813938489" lon="9.8199523565835"><ele>336.66666666666663</ele><time>2026-04-06T09:05:26Z</time></trkpt><trkpt lat="33.53291517731516" lon="9.819834424731592"><ele>333.3333333333333</ele><time>2026-04-06T09:05:27Z</time></trkpt><trkpt lat="33.53305744376002" lon="9.819718252672665"><ele>330.0</ele><time>2026-04-06T09:05:28Z</time></trkpt><trkpt lat="33.53318464669299" lon="9.819590095231074"><ele>330.0</ele><time>2026-04-06T09:05:29Z</time></trkpt><trkpt lat="33.533283344294205" lon="9.819434245171427"><ele>330.0</ele><time>2026-04-06T09:05:30Z</time></trkpt><trkpt lat="33.53335549214999" lon="9.819238745279076"><ele>330.0</ele><time>2026-04-06T09:05:31Z</time></trkpt><trkpt lat="33.53340970812822" lon="9.81900570610445"><ele>328.5</ele><time>2026-04-06T09:05:32Z</time></trkpt><trkpt lat="33.53343752746077" lon="9.818735959865618"><ele>327.0</ele><time>2026-04-06T09:05:33Z</time></trkpt><trkpt lat="33.533431702247306" lon="9.818437889426278"><ele>324.0</ele><time>2026-04-06T09:05:34Z</time></trkpt><trkpt lat="33.5334043364321" lon="9.818152727020138"><ele>321.0</ele><time>2026-04-06T09:05:35Z</time></trkpt><trkpt lat="33.533360132184235" lon="9.81789099211897"><ele>320.6666666666667</ele><time>2026-04-06T09:05:36Z</time></trkpt><trkpt lat="33.53331201431641" lon="9.817641485587579"><ele>320.33333333333337</ele><time>2026-04-06T09:05:37Z</time></trkpt><trkpt lat="33.533265103198126" lon="9.817393086259328"><ele>320.0</ele><time>2026-04-06T09:05:38Z</time></trkpt><trkpt lat="33.53322232461806" lon="9.817132053257724"><ele>320.0</ele><time>2026-04-06T09:05:39Z</time></trkpt><trkpt lat="33.53319334730005" lon="9.816858678541664"><ele>320.0</ele><time>2026-04-06T09:05:40Z</time></trkpt><trkpt lat="33.53317656797107" lon="9.816572135418292"><ele>319.5</ele><time>2026-04-06T09:05:41Z</time></trkpt><trkpt lat="33.533168934941806" lon="9.81628128768359"><ele>319.0</ele><time>2026-04-06T09:05:42Z</time></trkpt><trkpt lat="33.53317381242872" lon="9.815985635675545"><ele>320.5</ele><time>2026-04-06T09:05:43Z</time></trkpt><trkpt lat="33.53319078186258" lon="9.815676827135349"><ele>322.0</ele><time>2026-04-06T09:05:44Z</time></trkpt><trkpt lat="33.53322027191186" lon="9.815349468056775"><ele>323.0</ele><time>2026-04-06T09:05:45Z</time></trkpt><trkpt lat="33.533247297609186" lon="9.81500868263303"><ele>324.0</ele><time>2026-04-06T09:05:46Z</time></trkpt><trkpt lat="33.53326331291136" lon="9.814672915851315"><ele>324.0</ele><time>2026-04-06T09:05:47Z</time></trkpt><trkpt lat="33.533271550913156" lon="9.814370720339191"><ele>324.0</ele><time>2026-04-06T09:05:48Z</time></trkpt><trkpt lat="33.53327185247866" lon="9.814090551372844"><ele>324.6666666666667</ele><time>2026-04-06T09:05:49Z</time></trkpt><trkpt lat="33.53325936990813" lon="9.813830388799529"><ele>325.33333333333337</ele><time>2026-04-06T09:05:50Z</time></trkpt><trkpt lat="33.533241881615574" lon="9.813587460418777"><ele>326.0</ele><time>2026-04-06T09:05:51Z</time></trkpt><trkpt lat="33.53322967208456" lon="9.81335574400685"><ele>327.0</ele><time>2026-04-06T09:05:52Z</time></trkpt><trkpt lat="33.53322631220129" lon="9.813152196921502"><ele>328.0</ele><time>2026-04-06T09:05:53Z</time></trkpt><trkpt lat="33.5332303920577" lon="9.812961624366945"><ele>329.0</ele><time>2026-04-06T09:05:54Z</time></trkpt><trkpt lat="33.53324884710344" lon="9.812778524304317"><ele>328.25</ele><time>2026-04-06T09:05:55Z</time></trkpt><trkpt lat="33.5332895714809" lon="9.812617282420655"><ele>327.5</ele><time>2026-04-06T09:05:56Z</time></trkpt><trkpt lat="33.53335688038508" lon="9.812478436067952"><ele>326.75</ele><time>2026-04-06T09:05:57Z</time></trkpt><trkpt lat="33.53345655072506" lon="9.812359411322001"><ele>326.0</ele><time>2026-04-06T09:05:58Z</time></trkpt><trkpt lat="33.533595730530706" lon="9.812256381445168"><ele>325.33333333333337</ele><time>2026-04-06T09:05:59Z</time></trkpt><trkpt lat="33.533761382947745" lon="9.812183819225472"><ele>324.6666666666667</ele><time>2026-04-06T09:06:00Z</time></trkpt><trkpt lat="33.53394734269958" lon="9.812138342072489"><ele>324.0</ele><time>2026-04-06T09:06:01Z</time></trkpt><trkpt lat="33.53413264158433" lon="9.812111155858291"><ele>324.0</ele><time>2026-04-06T09:06:02Z</time></trkpt><trkpt lat="33.534307977920534" lon="9.812073967964023"><ele>324.0</ele><time>2026-04-06T09:06:03Z</time></trkpt><trkpt lat="33.53447326950819" lon="9.812010526192925"><ele>324.0</ele><time>2026-04-06T09:06:04Z</time></trkpt><trkpt lat="33.53463703866744" lon="9.811915490399068"><ele>317.6666666666667</ele><time>2026-04-06T09:06:05Z</time></trkpt><trkpt lat="33.53480232285523" lon="9.811798492177314"><ele>311.33333333333337</ele><time>2026-04-06T09:06:06Z</time></trkpt><trkpt lat="33.534959189254245" lon="9.8116442194942"><ele>305.0</ele><time>2026-04-06T09:06:07Z</time></trkpt><trkpt lat="33.53509985522441" lon="9.811451228167734"><ele>305.0</ele><time>2026-04-06T09:06:08Z</time></trkpt><trkpt lat="33.535218064478435" lon="9.811223375795263"><ele>305.0</ele><time>2026-04-06T09:06:09Z</time></trkpt><trkpt lat="33.53532009599134" lon="9.810977039593235"><ele>307.0</ele><time>2026-04-06T09:06:10Z</time></trkpt><trkpt lat="33.535410203683405" lon="9.810710482584721"><ele>309.0</ele><time>2026-04-06T09:06:11Z</time></trkpt><trkpt lat="33.535480036267636" lon="9.810453698455477"><ele>309.0</ele><time>2026-04-06T09:06:12Z</time></trkpt><trkpt lat="33.53552238577417" lon="9.810216496532531"><ele>309.0</ele><time>2026-04-06T09:06:13Z</time></trkpt><trkpt lat="33.53553964681747" lon="9.809971820140076"><ele>309.0</ele><time>2026-04-06T09:06:14Z</time></trkpt><trkpt lat="33.535543501406906" lon="9.80972403084372"><ele>308.6666666666667</ele><time>2026-04-06T09:06:15Z</time></trkpt><trkpt lat="33.535544136739595" lon="9.809488261047273"><ele>308.33333333333337</ele><time>2026-04-06T09:06:16Z</time></trkpt><trkpt lat="33.53556219048552" lon="9.809267354003259"><ele>308.0</ele><time>2026-04-06T09:06:17Z</time></trkpt><trkpt lat="33.535606456758394" lon="9.809047475842066"><ele>306.0</ele><time>2026-04-06T09:06:18Z</time></trkpt><trkpt lat="33.535683014270866" lon="9.808830754649893"><ele>304.0</ele><time>2026-04-06T09:06:19Z</time></trkpt><trkpt lat="33.53578563280298" lon="9.808601040280898"><ele>302.0</ele><time>2026-04-06T09:06:20Z</time></trkpt><trkpt lat="33.535899170515414" lon="9.808359488233215"><ele>297.0</ele><time>2026-04-06T09:06:21Z</time></trkpt><trkpt lat="33.5360146750081" lon="9.80811017706603"><ele>292.0</ele><time>2026-04-06T09:06:22Z</time></trkpt><trkpt lat="33.53612288038916" lon="9.807866762023453"><ele>292.0</ele><time>2026-04-06T09:06:23Z</time></trkpt><trkpt lat="33.53621757423271" lon="9.807637567645187"><ele>292.0</ele><time>2026-04-06T09:06:24Z</time></trkpt><trkpt lat="33.536310988340574" lon="9.80741876471885"><ele>292.0</ele><time>2026-04-06T09:06:25Z</time></trkpt><trkpt lat="33.53641923674198" lon="9.80721930678748"><ele>292.0</ele><time>2026-04-06T09:06:26Z</time></trkpt><trkpt lat="33.536548375430336" lon="9.807037679976462"><ele>292.0</ele><time>2026-04-06T09:06:27Z</time></trkpt><trkpt lat="33.53670212618517" lon="9.806870582742121"><ele>292.0</ele><time>2026-04-06T09:06:28Z</time></trkpt><trkpt lat="33.53686360950272" lon="9.806721584387054"><ele>291.66666666666663</ele><time>2026-04-06T09:06:29Z</time></trkpt><trkpt lat="33.537021945559985" lon="9.80659564972228"><ele>291.3333333333333</ele><time>2026-04-06T09:06:30Z</time></trkpt><trkpt lat="33.53717651066095" lon="9.806487882137343"><ele>291.0</ele><time>2026-04-06T09:06:31Z</time></trkpt><trkpt lat="33.5373194829542" lon="9.806379960854551"><ele>291.0</ele><time>2026-04-06T09:06:32Z</time></trkpt><trkpt lat="33.537435904712105" lon="9.806252688128673"><ele>291.0</ele><time>2026-04-06T09:06:33Z</time></trkpt><trkpt lat="33.53752066558321" lon="9.80610265090391"><ele>291.0</ele><time>2026-04-06T09:06:34Z</time></trkpt><trkpt lat="33.53757125446507" lon="9.805912586558687"><ele>290.0</ele><time>2026-04-06T09:06:35Z</time></trkpt><trkpt lat="33.537599144523966" lon="9.8057055977944"><ele>289.0</ele><time>2026-04-06T09:06:36Z</time></trkpt><trkpt lat="33.537616493612916" lon="9.805473228121057"><ele>288.0</ele><time>2026-04-06T09:06:37Z</time></trkpt><trkpt lat="33.53763747129534" lon="9.80521024245117"><ele>286.0</ele><time>2026-04-06T09:06:38Z</time></trkpt><trkpt lat="33.53765510330787" lon="9.804919892231545"><ele>284.0</ele><time>2026-04-06T09:06:39Z</time></trkpt><trkpt lat="33.537653399061185" lon="9.804617474598743"><ele>283.5</ele><time>2026-04-06T09:06:40Z</time></trkpt><trkpt lat="33.53763146077636" lon="9.804294676637099"><ele>283.0</ele><time>2026-04-06T09:06:41Z</time></trkpt><trkpt lat="33.53758769034416" lon="9.803967127566477"><ele>283.0</ele><time>2026-04-06T09:06:42Z</time></trkpt><trkpt lat="33.53752248404756" lon="9.803635694604667"><ele>283.0</ele><time>2026-04-06T09:06:43Z</time></trkpt><trkpt lat="33.53744325445662" lon="9.803332993898575"><ele>281.5</ele><time>2026-04-06T09:06:44Z</time></trkpt><trkpt lat="33.53736268806901" lon="9.80305033868887"><ele>280.0</ele><time>2026-04-06T09:06:45Z</time></trkpt><trkpt lat="33.537285163523656" lon="9.802779511541372"><ele>280.0</ele><time>2026-04-06T09:06:46Z</time></trkpt><trkpt lat="33.537222164207385" lon="9.802518691011674"><ele>280.0</ele><time>2026-04-06T09:06:47Z</time></trkpt><trkpt lat="33.53718571817421" lon="9.802271777397301"><ele>280.0</ele><time>2026-04-06T09:06:48Z</time></trkpt><trkpt lat="33.537181351530364" lon="9.802039230977819"><ele>280.0</ele><time>2026-04-06T09:06:49Z</time></trkpt><trkpt lat="33.53720849755811" lon="9.80180617090743"><ele>280.0</ele><time>2026-04-06T09:06:50Z</time></trkpt><trkpt lat="33.537262970466706" lon="9.801577106370539"><ele>280.0</ele><time>2026-04-06T09:06:51Z</time></trkpt><trkpt lat="33.53734804055172" lon="9.801363518573444"><ele>280.0</ele><time>2026-04-06T09:06:52Z</time></trkpt><trkpt lat="33.53746473080439" lon="9.801154263626287"><ele>280.0</ele><time>2026-04-06T09:06:53Z</time></trkpt><trkpt lat="33.53761017607697" lon="9.800953322835335"><ele>280.0</ele><time>2026-04-06T09:06:54Z</time></trkpt><trkpt lat="33.537780635141374" lon="9.80076153570566"><ele>282.0</ele><time>2026-04-06T09:06:55Z</time></trkpt><trkpt lat="33.537962854533326" lon="9.8005690613793"><ele>284.0</ele><time>2026-04-06T09:06:56Z</time></trkpt><trkpt lat="33.53814991219805" lon="9.800357745978594"><ele>281.5</ele><time>2026-04-06T09:06:57Z</time></trkpt><trkpt lat="33.53832407471636" lon="9.800115706837436"><ele>279.0</ele><time>2026-04-06T09:06:58Z</time></trkpt><trkpt lat="33.53848787596561" lon="9.79983858482831"><ele>279.0</ele><time>2026-04-06T09:06:59Z</time></trkpt><trkpt lat="33.53864391415099" lon="9.799536195777371"><ele>279.0</ele><time>2026-04-06T09:07:00Z</time></trkpt><trkpt lat="33.53879379488308" lon="9.799235993593289"><ele>276.5</ele><time>2026-04-06T09:07:01Z</time></trkpt><trkpt lat="33.538951369950226" lon="9.798939272203736"><ele>274.0</ele><time>2026-04-06T09:07:02Z</time></trkpt><trkpt lat="33.53912509868246" lon="9.79863646252456"><ele>272.5</ele><time>2026-04-06T09:07:03Z</time></trkpt><trkpt lat="33.53930454570188" lon="9.798325769122147"><ele>271.0</ele><time>2026-04-06T09:07:04Z</time></trkpt><trkpt lat="33.53948191051557" lon="9.798014198164221"><ele>272.5</ele><time>2026-04-06T09:07:05Z</time></trkpt><trkpt lat="33.53965121357551" lon="9.797719835117434"><ele>274.0</ele><time>2026-04-06T09:07:06Z</time></trkpt><trkpt lat="33.53980998888209" lon="9.797454158393338"><ele>274.0</ele><time>2026-04-06T09:07:07Z</time></trkpt><trkpt lat="33.53996455690315" lon="9.797211632842096"><ele>274.0</ele><time>2026-04-06T09:07:08Z</time></trkpt><trkpt lat="33.54013121496182" lon="9.79697669210181"><ele>274.5</ele><time>2026-04-06T09:07:09Z</time></trkpt><trkpt lat="33.54030854480033" lon="9.796760159493987"><ele>275.0</ele><time>2026-04-06T09:07:10Z</time></trkpt><trkpt lat="33.5404869541398" lon="9.796564392594927"><ele>275.0</ele><time>2026-04-06T09:07:11Z</time></trkpt><trkpt lat="33.54065311209791" lon="9.796388465698705"><ele>275.0</ele><time>2026-04-06T09:07:12Z</time></trkpt><trkpt lat="33.54080643173564" lon="9.796212453083962"><ele>275.0</ele><time>2026-04-06T09:07:13Z</time></trkpt><trkpt lat="33.54095331582382" lon="9.79602419877822"><ele>274.0</ele><time>2026-04-06T09:07:14Z</time></trkpt><trkpt lat="33.54109430403576" lon="9.795798420337558"><ele>273.0</ele><time>2026-04-06T09:07:15Z</time></trkpt><trkpt lat="33.54122925785372" lon="9.79553928068317"><ele>272.5</ele><time>2026-04-06T09:07:16Z</time></trkpt><trkpt lat="33.541358598193845" lon="9.795252967862973"><ele>272.0</ele><time>2026-04-06T09:07:17Z</time></trkpt><trkpt lat="33.54148197391301" lon="9.794953827376123"><ele>272.0</ele><time>2026-04-06T09:07:18Z</time></trkpt><trkpt lat="33.5415920491469" lon="9.794676728036773"><ele>272.0</ele><time>2026-04-06T09:07:19Z</time></trkpt><trkpt lat="33.54168611298009" lon="9.794439455797113"><ele>271.0</ele><time>2026-04-06T09:07:20Z</time></trkpt><trkpt lat="33.54177031874382" lon="9.794244608652743"><ele>270.0</ele><time>2026-04-06T09:07:21Z</time></trkpt><trkpt lat="33.541860141070416" lon="9.794078931787812"><ele>269.0</ele><time>2026-04-06T09:07:22Z</time></trkpt><trkpt lat="33.54196981016988" lon="9.793945199247013"><ele>270.0</ele><time>2026-04-06T09:07:23Z</time></trkpt><trkpt lat="33.54209680248329" lon="9.793851580120904"><ele>271.0</ele><time>2026-04-06T09:07:24Z</time></trkpt><trkpt lat="33.54223713942333" lon="9.793800353488615"><ele>272.0</ele><time>2026-04-06T09:07:25Z</time></trkpt><trkpt lat="33.54239354016235" lon="9.793792312135892"><ele>272.0</ele><time>2026-04-06T09:07:26Z</time></trkpt><trkpt lat="33.5425624284929" lon="9.793819537952597"><ele>272.0</ele><time>2026-04-06T09:07:27Z</time></trkpt><trkpt lat="33.54272979677694" lon="9.793855178811953"><ele>272.0</ele><time>2026-04-06T09:07:28Z</time></trkpt><trkpt lat="33.5428942717679" lon="9.793848706290346"><ele>272.33333333333337</ele><time>2026-04-06T09:07:29Z</time></trkpt><trkpt lat="33.543062216410746" lon="9.793788384407966"><ele>272.6666666666667</ele><time>2026-04-06T09:07:30Z</time></trkpt><trkpt lat="33.54323346660541" lon="9.79368332631186"><ele>273.0</ele><time>2026-04-06T09:07:31Z</time></trkpt><trkpt lat="33.54340779443897" lon="9.793543731395184"><ele>274.0</ele><time>2026-04-06T09:07:32Z</time></trkpt><trkpt lat="33.543584596901944" lon="9.79336335589736"><ele>275.0</ele><time>2026-04-06T09:07:33Z</time></trkpt><trkpt lat="33.54376708596695" lon="9.793141630066916"><ele>275.0</ele><time>2026-04-06T09:07:34Z</time></trkpt><trkpt lat="33.54396023444577" lon="9.79289065193463"><ele>275.0</ele><time>2026-04-06T09:07:35Z</time></trkpt><trkpt lat="33.544167233199005" lon="9.792633938235419"><ele>276.0</ele><time>2026-04-06T09:07:36Z</time></trkpt><trkpt lat="33.54438691959794" lon="9.792372674831137"><ele>277.0</ele><time>2026-04-06T09:07:37Z</time></trkpt><trkpt lat="33.54460789025011" lon="9.792111678865577"><ele>277.0</ele><time>2026-04-06T09:07:38Z</time></trkpt><trkpt lat="33.544818713248226" lon="9.79184917446035"><ele>277.0</ele><time>2026-04-06T09:07:39Z</time></trkpt><trkpt lat="33.54503192926955" lon="9.791580603902737"><ele>276.5</ele><time>2026-04-06T09:07:40Z</time></trkpt><trkpt lat="33.54525563941942" lon="9.791309451262402"><ele>276.0</ele><time>2026-04-06T09:07:41Z</time></trkpt><trkpt lat="33.54548941120548" lon="9.791038943151024"><ele>277.0</ele><time>2026-04-06T09:07:42Z</time></trkpt><trkpt lat="33.545730056774666" lon="9.790770041996584"><ele>278.0</ele><time>2026-04-06T09:07:43Z</time></trkpt><trkpt lat="33.54596135056272" lon="9.790514139799708"><ele>278.0</ele><time>2026-04-06T09:07:44Z</time></trkpt><trkpt lat="33.54617619987762" lon="9.790273744125326"><ele>278.0</ele><time>2026-04-06T09:07:45Z</time></trkpt><trkpt lat="33.546377857691816" lon="9.790051702348082"><ele>278.0</ele><time>2026-04-06T09:07:46Z</time></trkpt><trkpt lat="33.54657223476163" lon="9.789839064598791"><ele>278.0</ele><time>2026-04-06T09:07:47Z</time></trkpt><trkpt lat="33.546754999584735" lon="9.78963627652967"><ele>278.0</ele><time>2026-04-06T09:07:48Z</time></trkpt><trkpt lat="33.546934922513834" lon="9.789441234452411"><ele>278.0</ele><time>2026-04-06T09:07:49Z</time></trkpt><trkpt lat="33.547097414686505" lon="9.789253054260824"><ele>278.6666666666667</ele><time>2026-04-06T09:07:50Z</time></trkpt><trkpt lat="33.54723232680955" lon="9.789060744530563"><ele>279.3333333333333</ele><time>2026-04-06T09:07:51Z</time></trkpt><trkpt lat="33.54734178854993" lon="9.7888248226314"><ele>280.0</ele><time>2026-04-06T09:07:52Z</time></trkpt><trkpt lat="33.547429585130956" lon="9.788543099433358"><ele>282.0</ele><time>2026-04-06T09:07:53Z</time></trkpt><trkpt lat="33.547499496499675" lon="9.788248727795642"><ele>284.0</ele><time>2026-04-06T09:07:54Z</time></trkpt><trkpt lat="33.54755370017163" lon="9.787985650186252"><ele>284.0</ele><time>2026-04-06T09:07:55Z</time></trkpt><trkpt lat="33.547613268258615" lon="9.787763888345648"><ele>284.0</ele><time>2026-04-06T09:07:56Z</time></trkpt><trkpt lat="33.54767767817768" lon="9.787563549716479"><ele>284.0</ele><time>2026-04-06T09:07:57Z</time></trkpt><trkpt lat="33.54775001802429" lon="9.787374709787082"><ele>284.33333333333337</ele><time>2026-04-06T09:07:58Z</time></trkpt><trkpt lat="33.547840692314544" lon="9.787192926544863"><ele>284.6666666666667</ele><time>2026-04-06T09:07:59Z</time></trkpt><trkpt lat="33.54795098289238" lon="9.787016110104776"><ele>285.0</ele><time>2026-04-06T09:08:00Z</time></trkpt><trkpt lat="33.548086658689336" lon="9.786824297255183"><ele>286.0</ele><time>2026-04-06T09:08:01Z</time></trkpt><trkpt lat="33.548242831892765" lon="9.786611030386373"><ele>287.0</ele><time>2026-04-06T09:08:02Z</time></trkpt><trkpt lat="33.54841221371823" lon="9.78637542137253"><ele>287.0</ele><time>2026-04-06T09:08:03Z</time></trkpt><trkpt lat="33.548599546693644" lon="9.786125818800423"><ele>287.0</ele><time>2026-04-06T09:08:04Z</time></trkpt><trkpt lat="33.548804735318434" lon="9.785867276056162"><ele>286.0</ele><time>2026-04-06T09:08:05Z</time></trkpt><trkpt lat="33.54901804126477" lon="9.785597420577398"><ele>285.0</ele><time>2026-04-06T09:08:06Z</time></trkpt><trkpt lat="33.54923216282712" lon="9.785304859783562"><ele>286.0</ele><time>2026-04-06T09:08:07Z</time></trkpt><trkpt lat="33.5494468587736" lon="9.78499751833637"><ele>287.0</ele><time>2026-04-06T09:08:08Z</time></trkpt><trkpt lat="33.549655615343475" lon="9.78469806628105"><ele>287.0</ele><time>2026-04-06T09:08:09Z</time></trkpt><trkpt lat="33.549843514201086" lon="9.784424115684299"><ele>287.0</ele><time>2026-04-06T09:08:10Z</time></trkpt><trkpt lat="33.55001533770626" lon="9.78417372522234"><ele>289.0</ele><time>2026-04-06T09:08:11Z</time></trkpt><trkpt lat="33.550182463054966" lon="9.783925140638477"><ele>291.0</ele><time>2026-04-06T09:08:12Z</time></trkpt><trkpt lat="33.55034203377913" lon="9.783681242795101"><ele>292.0</ele><time>2026-04-06T09:08:13Z</time></trkpt><trkpt lat="33.55049218781443" lon="9.783449544689308"><ele>293.0</ele><time>2026-04-06T09:08:14Z</time></trkpt><trkpt lat="33.55063877454845" lon="9.783229857521368"><ele>293.0</ele><time>2026-04-06T09:08:15Z</time></trkpt><trkpt lat="33.55078447312717" lon="9.783022039768182"><ele>293.0</ele><time>2026-04-06T09:08:16Z</time></trkpt><trkpt lat="33.55093505478624" lon="9.78282420630952"><ele>292.5</ele><time>2026-04-06T09:08:17Z</time></trkpt><trkpt lat="33.55110554940378" lon="9.782629379604872"><ele>292.0</ele><time>2026-04-06T09:08:18Z</time></trkpt><trkpt lat="33.551297814156534" lon="9.782442848238928"><ele>292.0</ele><time>2026-04-06T09:08:19Z</time></trkpt><trkpt lat="33.55149273182914" lon="9.78225325207113"><ele>292.0</ele><time>2026-04-06T09:08:20Z</time></trkpt><trkpt lat="33.55166680456657" lon="9.782058472771435"><ele>289.5</ele><time>2026-04-06T09:08:21Z</time></trkpt><trkpt lat="33.55181784514412" lon="9.781836908784117"><ele>287.0</ele><time>2026-04-06T09:08:22Z</time></trkpt><trkpt lat="33.551952942202874" lon="9.781574234431243"><ele>288.5</ele><time>2026-04-06T09:08:23Z</time></trkpt><trkpt lat="33.55207591446708" lon="9.781283190568432"><ele>290.0</ele><time>2026-04-06T09:08:24Z</time></trkpt><trkpt lat="33.55219213658259" lon="9.780973107909498"><ele>286.0</ele><time>2026-04-06T09:08:25Z</time></trkpt><trkpt lat="33.55231405020019" lon="9.780661962957378"><ele>282.0</ele><time>2026-04-06T09:08:26Z</time></trkpt><trkpt lat="33.552444968795534" lon="9.78034686370428"><ele>281.0</ele><time>2026-04-06T09:08:27Z</time></trkpt><trkpt lat="33.5525748391569" lon="9.780031969385364"><ele>280.0</ele><time>2026-04-06T09:08:28Z</time></trkpt><trkpt lat="33.552702285181944" lon="9.779713644574134"><ele>280.0</ele><time>2026-04-06T09:08:29Z</time></trkpt><trkpt lat="33.55282410438516" lon="9.779395126662413"><ele>280.0</ele><time>2026-04-06T09:08:30Z</time></trkpt><trkpt lat="33.552944485544025" lon="9.7790685334947"><ele>279.5</ele><time>2026-04-06T09:08:31Z</time></trkpt><trkpt lat="33.553057357895796" lon="9.778743503151201"><ele>279.0</ele><time>2026-04-06T09:08:32Z</time></trkpt><trkpt lat="33.55317243795493" lon="9.778405698390044"><ele>277.0</ele><time>2026-04-06T09:08:33Z</time></trkpt><trkpt lat="33.55329473414076" lon="9.778047047436985"><ele>275.0</ele><time>2026-04-06T09:08:34Z</time></trkpt><trkpt lat="33.553428586407534" lon="9.77766870559673"><ele>274.0</ele><time>2026-04-06T09:08:35Z</time></trkpt><trkpt lat="33.55357010039701" lon="9.777278812889833"><ele>273.0</ele><time>2026-04-06T09:08:36Z</time></trkpt><trkpt lat="33.55370483646987" lon="9.776909976900457"><ele>275.5</ele><time>2026-04-06T09:08:37Z</time></trkpt><trkpt lat="33.553828739180894" lon="9.77656627496489"><ele>278.0</ele><time>2026-04-06T09:08:38Z</time></trkpt><trkpt lat="33.55394199060586" lon="9.77623930806426"><ele>274.5</ele><time>2026-04-06T09:08:39Z</time></trkpt><trkpt lat="33.55405200341931" lon="9.775923496343973"><ele>271.0</ele><time>2026-04-06T09:08:40Z</time></trkpt><trkpt lat="33.55415758004147" lon="9.775621901909805"><ele>271.0</ele><time>2026-04-06T09:08:41Z</time></trkpt><trkpt lat="33.5542579667749" lon="9.775338973870452"><ele>271.0</ele><time>2026-04-06T09:08:42Z</time></trkpt><trkpt lat="33.55435801525203" lon="9.775061823882305"><ele>269.5</ele><time>2026-04-06T09:08:43Z</time></trkpt><trkpt lat="33.55446116911798" lon="9.774777190186013"><ele>268.0</ele><time>2026-04-06T09:08:44Z</time></trkpt><trkpt lat="33.554564544237174" lon="9.774486452069107"><ele>267.5</ele><time>2026-04-06T09:08:45Z</time></trkpt><trkpt lat="33.55466669860664" lon="9.774182478407724"><ele>267.0</ele><time>2026-04-06T09:08:46Z</time></trkpt><trkpt lat="33.554761679507266" lon="9.773870193267621"><ele>267.0</ele><time>2026-04-06T09:08:47Z</time></trkpt><trkpt lat="33.554849280091915" lon="9.773547392986513"><ele>267.0</ele><time>2026-04-06T09:08:48Z</time></trkpt><trkpt lat="33.55492744794596" lon="9.773223649365233"><ele>267.5</ele><time>2026-04-06T09:08:49Z</time></trkpt><trkpt lat="33.55499537806793" lon="9.772882414702966"><ele>268.0</ele><time>2026-04-06T09:08:50Z</time></trkpt><trkpt lat="33.55505150236145" lon="9.772537240365049"><ele>265.5</ele><time>2026-04-06T09:08:51Z</time></trkpt><trkpt lat="33.55508398019478" lon="9.77218684607643"><ele>263.0</ele><time>2026-04-06T09:08:52Z</time></trkpt><trkpt lat="33.55510042957196" lon="9.771832608082201"><ele>263.0</ele><time>2026-04-06T09:08:53Z</time></trkpt><trkpt lat="33.55510149317363" lon="9.771473046603544"><ele>263.0</ele><time>2026-04-06T09:08:54Z</time></trkpt><trkpt lat="33.555089342542715" lon="9.771112142337133"><ele>262.0</ele><time>2026-04-06T09:08:55Z</time></trkpt><trkpt lat="33.555062174933006" lon="9.770749400467167"><ele>261.0</ele><time>2026-04-06T09:08:56Z</time></trkpt><trkpt lat="33.55502650480674" lon="9.770384080592757"><ele>261.5</ele><time>2026-04-06T09:08:57Z</time></trkpt><trkpt lat="33.554984532331765" lon="9.770014221206676"><ele>262.0</ele><time>2026-04-06T09:08:58Z</time></trkpt><trkpt lat="33.55494550996103" lon="9.769645079985866"><ele>261.0</ele><time>2026-04-06T09:08:59Z</time></trkpt><trkpt lat="33.55491323877893" lon="9.769290994307672"><ele>260.0</ele><time>2026-04-06T09:09:00Z</time></trkpt><trkpt lat="33.554891479739254" lon="9.768944403519724"><ele>260.0</ele><time>2026-04-06T09:09:01Z</time></trkpt><trkpt lat="33.554879213501884" lon="9.768607051117465"><ele>260.0</ele><time>2026-04-06T09:09:02Z</time></trkpt><trkpt lat="33.554876362972855" lon="9.768279791704867"><ele>259.0</ele><time>2026-04-06T09:09:03Z</time></trkpt><trkpt lat="33.554885579732314" lon="9.767962224033678"><ele>258.0</ele><time>2026-04-06T09:09:04Z</time></trkpt><trkpt lat="33.554901284307995" lon="9.767649743677378"><ele>257.5</ele><time>2026-04-06T09:09:05Z</time></trkpt><trkpt lat="33.554921686000704" lon="9.767323224582048"><ele>257.0</ele><time>2026-04-06T09:09:06Z</time></trkpt><trkpt lat="33.554948203112204" lon="9.7669947412227"><ele>256.0</ele><time>2026-04-06T09:09:07Z</time></trkpt><trkpt lat="33.554987251858215" lon="9.766659079793062"><ele>255.0</ele><time>2026-04-06T09:09:08Z</time></trkpt><trkpt lat="33.555038283498" lon="9.766320461743506"><ele>254.5</ele><time>2026-04-06T09:09:09Z</time></trkpt><trkpt lat="33.555099084407914" lon="9.765976206979191"><ele>254.0</ele><time>2026-04-06T09:09:10Z</time></trkpt><trkpt lat="33.55515769763592" lon="9.765625685964677"><ele>254.0</ele><time>2026-04-06T09:09:11Z</time></trkpt><trkpt lat="33.55521543482498" lon="9.765271064741837"><ele>254.0</ele><time>2026-04-06T09:09:12Z</time></trkpt><trkpt lat="33.555270675098406" lon="9.76491198563535"><ele>254.0</ele><time>2026-04-06T09:09:13Z</time></trkpt><trkpt lat="33.55532900728633" lon="9.764538998526014"><ele>254.0</ele><time>2026-04-06T09:09:14Z</time></trkpt><trkpt lat="33.55539325177135" lon="9.764146790684435"><ele>254.0</ele><time>2026-04-06T09:09:15Z</time></trkpt><trkpt lat="33.555463165176164" lon="9.763736400020981"><ele>254.0</ele><time>2026-04-06T09:09:16Z</time></trkpt><trkpt lat="33.55554209437717" lon="9.763313429370202"><ele>253.0</ele><time>2026-04-06T09:09:17Z</time></trkpt><trkpt lat="33.55563344012735" lon="9.76288047881313"><ele>252.0</ele><time>2026-04-06T09:09:18Z</time></trkpt><trkpt lat="33.55572919908103" lon="9.762464376046166"><ele>251.0</ele><time>2026-04-06T09:09:19Z</time></trkpt><trkpt lat="33.55582313311334" lon="9.762084810818635"><ele>250.0</ele><time>2026-04-06T09:09:20Z</time></trkpt><trkpt lat="33.55591218049572" lon="9.761736850683594"><ele>249.5</ele><time>2026-04-06T09:09:21Z</time></trkpt><trkpt lat="33.55599835606053" lon="9.761412253633058"><ele>249.0</ele><time>2026-04-06T09:09:22Z</time></trkpt><trkpt lat="33.55608464361018" lon="9.761094594962898"><ele>248.5</ele><time>2026-04-06T09:09:23Z</time></trkpt><trkpt lat="33.55617311742597" lon="9.76077803324791"><ele>248.0</ele><time>2026-04-06T09:09:24Z</time></trkpt><trkpt lat="33.55626209433013" lon="9.7604590455806"><ele>249.5</ele><time>2026-04-06T09:09:25Z</time></trkpt><trkpt lat="33.556343767630466" lon="9.760155861273502"><ele>251.0</ele><time>2026-04-06T09:09:26Z</time></trkpt><trkpt lat="33.55642189340474" lon="9.75988091062073"><ele>251.0</ele><time>2026-04-06T09:09:27Z</time></trkpt><trkpt lat="33.55649620061902" lon="9.759632575202993"><ele>251.0</ele><time>2026-04-06T09:09:28Z</time></trkpt><trkpt lat="33.55656792973688" lon="9.75939789956516"><ele>251.0</ele><time>2026-04-06T09:09:29Z</time></trkpt><trkpt lat="33.5566387815792" lon="9.7591602845756"><ele>250.66666666666669</ele><time>2026-04-06T09:09:30Z</time></trkpt><trkpt lat="33.556707977114726" lon="9.758924755516956"><ele>250.33333333333331</ele><time>2026-04-06T09:09:31Z</time></trkpt><trkpt lat="33.55677512565785" lon="9.758686584958992"><ele>250.0</ele><time>2026-04-06T09:09:32Z</time></trkpt><trkpt lat="33.5568369819136" lon="9.758446517680092"><ele>250.0</ele><time>2026-04-06T09:09:33Z</time></trkpt><trkpt lat="33.5568972916639" lon="9.758202233390113"><ele>250.0</ele><time>2026-04-06T09:09:34Z</time></trkpt><trkpt lat="33.556962845453484" lon="9.757958321879412"><ele>250.0</ele><time>2026-04-06T09:09:35Z</time></trkpt><trkpt lat="33.5570348189756" lon="9.757707377650222"><ele>248.0</ele><time>2026-04-06T09:09:36Z</time></trkpt><trkpt lat="33.55710615085449" lon="9.757448854139168"><ele>246.0</ele><time>2026-04-06T09:09:37Z</time></trkpt><trkpt lat="33.55717046169292" lon="9.757189361125736"><ele>246.0</ele><time>2026-04-06T09:09:38Z</time></trkpt><trkpt lat="33.557228428616725" lon="9.756929679322527"><ele>246.0</ele><time>2026-04-06T09:09:39Z</time></trkpt><trkpt lat="33.55727987806297" lon="9.75668060514255"><ele>246.0</ele><time>2026-04-06T09:09:40Z</time></trkpt><trkpt lat="33.55732928058137" lon="9.756430669882464"><ele>246.0</ele><time>2026-04-06T09:09:41Z</time></trkpt><trkpt lat="33.5573778404848" lon="9.75616718321977"><ele>246.0</ele><time>2026-04-06T09:09:42Z</time></trkpt><trkpt lat="33.55742581349863" lon="9.755897123978155"><ele>246.0</ele><time>2026-04-06T09:09:43Z</time></trkpt><trkpt lat="33.55747273206212" lon="9.755630034223561"><ele>246.0</ele><time>2026-04-06T09:09:44Z</time></trkpt><trkpt lat="33.55751586395992" lon="9.75536489536088"><ele>244.0</ele><time>2026-04-06T09:09:45Z</time></trkpt><trkpt lat="33.55755543186406" lon="9.755098595655395"><ele>242.0</ele><time>2026-04-06T09:09:46Z</time></trkpt><trkpt lat="33.55758800208603" lon="9.754829716914163"><ele>242.0</ele><time>2026-04-06T09:09:47Z</time></trkpt><trkpt lat="33.557618033503026" lon="9.754559740514521"><ele>242.0</ele><time>2026-04-06T09:09:48Z</time></trkpt><trkpt lat="33.55764882743569" lon="9.75428494815807"><ele>242.0</ele><time>2026-04-06T09:09:49Z</time></trkpt><trkpt lat="33.557676683880956" lon="9.754010391912766"><ele>242.0</ele><time>2026-04-06T09:09:50Z</time></trkpt><trkpt lat="33.55770327731003" lon="9.753725595084672"><ele>241.0</ele><time>2026-04-06T09:09:51Z</time></trkpt><trkpt lat="33.557730091887066" lon="9.753443785304821"><ele>240.0</ele><time>2026-04-06T09:09:52Z</time></trkpt><trkpt lat="33.55775432670752" lon="9.753153959331167"><ele>240.0</ele><time>2026-04-06T09:09:53Z</time></trkpt><trkpt lat="33.557774390919874" lon="9.752862926173968"><ele>240.0</ele><time>2026-04-06T09:09:54Z</time></trkpt><trkpt lat="33.557791217936135" lon="9.752557506373883"><ele>238.5</ele><time>2026-04-06T09:09:55Z</time></trkpt><trkpt lat="33.557808278902165" lon="9.75224651608877"><ele>237.0</ele><time>2026-04-06T09:09:56Z</time></trkpt><trkpt lat="33.557823991820555" lon="9.751942705389482"><ele>238.5</ele><time>2026-04-06T09:09:57Z</time></trkpt><trkpt lat="33.557841462549035" lon="9.751643837368189"><ele>240.0</ele><time>2026-04-06T09:09:58Z</time></trkpt><trkpt lat="33.55785689361516" lon="9.751344628610571"><ele>240.0</ele><time>2026-04-06T09:09:59Z</time></trkpt><trkpt lat="33.557866803453166" lon="9.75104385366083"><ele>240.0</ele><time>2026-04-06T09:10:00Z</time></trkpt><trkpt lat="33.557879289325584" lon="9.750741059234072"><ele>240.5</ele><time>2026-04-06T09:10:01Z</time></trkpt><trkpt lat="33.5578960146293" lon="9.750440146360063"><ele>241.0</ele><time>2026-04-06T09:10:02Z</time></trkpt><trkpt lat="33.55791495168719" lon="9.75013546536078"><ele>241.5</ele><time>2026-04-06T09:10:03Z</time></trkpt><trkpt lat="33.557935609516285" lon="9.749847518797825"><ele>242.0</ele><time>2026-04-06T09:10:04Z</time></trkpt><trkpt lat="33.55795688105683" lon="9.749580182878827"><ele>242.66666666666669</ele><time>2026-04-06T09:10:05Z</time></trkpt><trkpt lat="33.55797428181578" lon="9.749323948456807"><ele>243.33333333333331</ele><time>2026-04-06T09:10:06Z</time></trkpt><trkpt lat="33.55798897415657" lon="9.74906591835887"><ele>244.0</ele><time>2026-04-06T09:10:07Z</time></trkpt><trkpt lat="33.557999209039515" lon="9.748802336597606"><ele>242.5</ele><time>2026-04-06T09:10:08Z</time></trkpt><trkpt lat="33.55800901345739" lon="9.74853392445621"><ele>241.0</ele><time>2026-04-06T09:10:09Z</time></trkpt><trkpt lat="33.55802079712449" lon="9.748257216494292"><ele>241.0</ele><time>2026-04-06T09:10:10Z</time></trkpt><trkpt lat="33.55803426181556" lon="9.747972611937387"><ele>241.0</ele><time>2026-04-06T09:10:11Z</time></trkpt><trkpt lat="33.55804554181701" lon="9.747683720503087"><ele>239.5</ele><time>2026-04-06T09:10:12Z</time></trkpt><trkpt lat="33.55805564364137" lon="9.747385646963087"><ele>238.0</ele><time>2026-04-06T09:10:13Z</time></trkpt><trkpt lat="33.55806567511149" lon="9.747079010879196"><ele>236.5</ele><time>2026-04-06T09:10:14Z</time></trkpt><trkpt lat="33.55807502617513" lon="9.746759419357604"><ele>235.0</ele><time>2026-04-06T09:10:15Z</time></trkpt><trkpt lat="33.55807609561177" lon="9.7464389562327"><ele>235.0</ele><time>2026-04-06T09:10:16Z</time></trkpt><trkpt lat="33.55806754069942" lon="9.746110402632905"><ele>235.0</ele><time>2026-04-06T09:10:17Z</time></trkpt><trkpt lat="33.55804770881417" lon="9.745781807074838"><ele>235.5</ele><time>2026-04-06T09:10:18Z</time></trkpt><trkpt lat="33.558023036029674" lon="9.745451934536986"><ele>236.0</ele><time>2026-04-06T09:10:19Z</time></trkpt><trkpt lat="33.55799291637639" lon="9.745131939383436"><ele>233.5</ele><time>2026-04-06T09:10:20Z</time></trkpt><trkpt lat="33.55796285914511" lon="9.74482764520082"><ele>231.0</ele><time>2026-04-06T09:10:21Z</time></trkpt><trkpt lat="33.557934873724996" lon="9.744530335624193"><ele>230.0</ele><time>2026-04-06T09:10:22Z</time></trkpt><trkpt lat="33.55790599096588" lon="9.74423511736492"><ele>229.0</ele><time>2026-04-06T09:10:23Z</time></trkpt><trkpt lat="33.557870657032346" lon="9.743943044226278"><ele>230.0</ele><time>2026-04-06T09:10:24Z</time></trkpt><trkpt lat="33.5578324854806" lon="9.743651989033447"><ele>231.0</ele><time>2026-04-06T09:10:25Z</time></trkpt><trkpt lat="33.557797119054534" lon="9.743357739555165"><ele>232.0</ele><time>2026-04-06T09:10:26Z</time></trkpt><trkpt lat="33.55776882478348" lon="9.743056763995092"><ele>233.0</ele><time>2026-04-06T09:10:27Z</time></trkpt><trkpt lat="33.55774442995901" lon="9.742754182704203"><ele>234.5</ele><time>2026-04-06T09:10:28Z</time></trkpt><trkpt lat="33.55772450467761" lon="9.742453070401304"><ele>236.0</ele><time>2026-04-06T09:10:29Z</time></trkpt><trkpt lat="33.55771387108508" lon="9.74214976902341"><ele>235.0</ele><time>2026-04-06T09:10:30Z</time></trkpt><trkpt lat="33.55771265828634" lon="9.74184273497217"><ele>234.0</ele><time>2026-04-06T09:10:31Z</time></trkpt><trkpt lat="33.55771980802347" lon="9.741537746952186"><ele>234.0</ele><time>2026-04-06T09:10:32Z</time></trkpt><trkpt lat="33.55773455410769" lon="9.741230010434853"><ele>234.0</ele><time>2026-04-06T09:10:33Z</time></trkpt><trkpt lat="33.55775367069056" lon="9.740927294116041"><ele>233.0</ele><time>2026-04-06T09:10:34Z</time></trkpt><trkpt lat="33.5577789795254" lon="9.740634012703433"><ele>232.0</ele><time>2026-04-06T09:10:35Z</time></trkpt><trkpt lat="33.55781149032111" lon="9.740344722712043"><ele>232.0</ele><time>2026-04-06T09:10:36Z</time></trkpt><trkpt lat="33.55785150283633" lon="9.740062068954472"><ele>232.0</ele><time>2026-04-06T09:10:37Z</time></trkpt><trkpt lat="33.557898900701126" lon="9.739776920424875"><ele>230.0</ele><time>2026-04-06T09:10:38Z</time></trkpt><trkpt lat="33.557954713830206" lon="9.73949427821607"><ele>228.0</ele><time>2026-04-06T09:10:39Z</time></trkpt><trkpt lat="33.55801830432524" lon="9.739211692191521"><ele>228.0</ele><time>2026-04-06T09:10:40Z</time></trkpt><trkpt lat="33.55808988620117" lon="9.738924329794395"><ele>228.0</ele><time>2026-04-06T09:10:41Z</time></trkpt><trkpt lat="33.558171443340576" lon="9.738634719715357"><ele>226.5</ele><time>2026-04-06T09:10:42Z</time></trkpt><trkpt lat="33.55826212732663" lon="9.738345293765942"><ele>225.0</ele><time>2026-04-06T09:10:43Z</time></trkpt><trkpt lat="33.55835886499472" lon="9.738056845745106"><ele>225.0</ele><time>2026-04-06T09:10:44Z</time></trkpt><trkpt lat="33.558463635260516" lon="9.737775035208347"><ele>225.0</ele><time>2026-04-06T09:10:45Z</time></trkpt><trkpt lat="33.55858106789465" lon="9.737491508087519"><ele>226.0</ele><time>2026-04-06T09:10:46Z</time></trkpt><trkpt lat="33.55870733736501" lon="9.737216163799248"><ele>227.0</ele><time>2026-04-06T09:10:47Z</time></trkpt><trkpt lat="33.55884182833024" lon="9.736952346384598"><ele>228.0</ele><time>2026-04-06T09:10:48Z</time></trkpt><trkpt lat="33.55897271599666" lon="9.736694293947304"><ele>229.0</ele><time>2026-04-06T09:10:49Z</time></trkpt><trkpt lat="33.55910020390465" lon="9.736444147224722"><ele>229.0</ele><time>2026-04-06T09:10:50Z</time></trkpt><trkpt lat="33.55923377858636" lon="9.736200807621724"><ele>229.0</ele><time>2026-04-06T09:10:51Z</time></trkpt><trkpt lat="33.55936934960814" lon="9.735958142376013"><ele>229.5</ele><time>2026-04-06T09:10:52Z</time></trkpt><trkpt lat="33.55950197763192" lon="9.735718012152766"><ele>230.0</ele><time>2026-04-06T09:10:53Z</time></trkpt><trkpt lat="33.55963764579581" lon="9.735475283120634"><ele>230.0</ele><time>2026-04-06T09:10:54Z</time></trkpt><trkpt lat="33.55977393891037" lon="9.73524018645237"><ele>230.0</ele><time>2026-04-06T09:10:55Z</time></trkpt><trkpt lat="33.559913160956576" lon="9.735000772724192"><ele>228.5</ele><time>2026-04-06T09:10:56Z</time></trkpt><trkpt lat="33.56005458112995" lon="9.734759537438272"><ele>227.0</ele><time>2026-04-06T09:10:57Z</time></trkpt><trkpt lat="33.56019795496849" lon="9.734514782598815"><ele>228.5</ele><time>2026-04-06T09:10:58Z</time></trkpt><trkpt lat="33.5603414274377" lon="9.7342632601681"><ele>230.0</ele><time>2026-04-06T09:10:59Z</time></trkpt><trkpt lat="33.560481072168955" lon="9.734006105955967"><ele>231.5</ele><time>2026-04-06T09:11:00Z</time></trkpt><trkpt lat="33.56061726381727" lon="9.733741595364775"><ele>233.0</ele><time>2026-04-06T09:11:01Z</time></trkpt><trkpt lat="33.560747486220585" lon="9.73346745833449"><ele>233.0</ele><time>2026-04-06T09:11:02Z</time></trkpt><trkpt lat="33.56087287337847" lon="9.733194133244908"><ele>233.0</ele><time>2026-04-06T09:11:03Z</time></trkpt><trkpt lat="33.56099281325063" lon="9.732924153757647"><ele>233.0</ele><time>2026-04-06T09:11:04Z</time></trkpt><trkpt lat="33.561108022405456" lon="9.732652192546178"><ele>233.0</ele><time>2026-04-06T09:11:05Z</time></trkpt><trkpt lat="33.56121904962542" lon="9.73236961234523"><ele>234.0</ele><time>2026-04-06T09:11:06Z</time></trkpt><trkpt lat="33.561323422178674" lon="9.732081435749619"><ele>235.0</ele><time>2026-04-06T09:11:07Z</time></trkpt><trkpt lat="33.56142374576834" lon="9.731794669591986"><ele>235.0</ele><time>2026-04-06T09:11:08Z</time></trkpt><trkpt lat="33.56151856133094" lon="9.731514981788774"><ele>235.0</ele><time>2026-04-06T09:11:09Z</time></trkpt><trkpt lat="33.56160465735859" lon="9.731230576833227"><ele>235.0</ele><time>2026-04-06T09:11:10Z</time></trkpt><trkpt lat="33.561686026036796" lon="9.730946712587766"><ele>235.0</ele><time>2026-04-06T09:11:11Z</time></trkpt><trkpt lat="33.561763828089084" lon="9.73066231517569"><ele>235.0</ele><time>2026-04-06T09:11:12Z</time></trkpt><trkpt lat="33.56183357043707" lon="9.730380805775964"><ele>235.0</ele><time>2026-04-06T09:11:13Z</time></trkpt><trkpt lat="33.56189782727183" lon="9.73009729907798"><ele>234.0</ele><time>2026-04-06T09:11:14Z</time></trkpt><trkpt lat="33.561957632755345" lon="9.729807933314653"><ele>233.0</ele><time>2026-04-06T09:11:15Z</time></trkpt><trkpt lat="33.56200941468543" lon="9.729519646254545"><ele>234.0</ele><time>2026-04-06T09:11:16Z</time></trkpt><trkpt lat="33.562058122542844" lon="9.729224180496468"><ele>235.0</ele><time>2026-04-06T09:11:17Z</time></trkpt><trkpt lat="33.56210330082534" lon="9.728930095793176"><ele>235.0</ele><time>2026-04-06T09:11:18Z</time></trkpt><trkpt lat="33.56214919589052" lon="9.728631218290246"><ele>235.0</ele><time>2026-04-06T09:11:19Z</time></trkpt><trkpt lat="33.56219323687558" lon="9.72833681946611"><ele>234.5</ele><time>2026-04-06T09:11:20Z</time></trkpt><trkpt lat="33.56223813336293" lon="9.728041880942117"><ele>234.0</ele><time>2026-04-06T09:11:21Z</time></trkpt><trkpt lat="33.56228460852423" lon="9.727748375536406"><ele>232.5</ele><time>2026-04-06T09:11:22Z</time></trkpt><trkpt lat="33.56233256186304" lon="9.727457670546082"><ele>231.0</ele><time>2026-04-06T09:11:23Z</time></trkpt><trkpt lat="33.56238125026372" lon="9.727166466304324"><ele>230.0</ele><time>2026-04-06T09:11:24Z</time></trkpt><trkpt lat="33.56243220841979" lon="9.726874572098657"><ele>229.0</ele><time>2026-04-06T09:11:25Z</time></trkpt><trkpt lat="33.56248201436265" lon="9.726582209299604"><ele>229.0</ele><time>2026-04-06T09:11:26Z</time></trkpt><trkpt lat="33.56252714025452" lon="9.726287485484386"><ele>229.0</ele><time>2026-04-06T09:11:27Z</time></trkpt><trkpt lat="33.56257182621861" lon="9.725992096162406"><ele>227.5</ele><time>2026-04-06T09:11:28Z</time></trkpt><trkpt lat="33.56261467219242" lon="9.725697152941317"><ele>226.0</ele><time>2026-04-06T09:11:29Z</time></trkpt><trkpt lat="33.56265826674645" lon="9.725403304473186"><ele>225.0</ele><time>2026-04-06T09:11:30Z</time></trkpt><trkpt lat="33.56270285553034" lon="9.72510681940044"><ele>224.0</ele><time>2026-04-06T09:11:31Z</time></trkpt><trkpt lat="33.56274837782746" lon="9.72481343601596"><ele>224.0</ele><time>2026-04-06T09:11:32Z</time></trkpt><trkpt lat="33.56279163765455" lon="9.72452473325385"><ele>224.0</ele><time>2026-04-06T09:11:33Z</time></trkpt><trkpt lat="33.56283264221763" lon="9.724257588957608"><ele>224.0</ele><time>2026-04-06T09:11:34Z</time></trkpt><trkpt lat="33.56287394919942" lon="9.723996800175865"><ele>224.0</ele><time>2026-04-06T09:11:35Z</time></trkpt><trkpt lat="33.56291899600551" lon="9.72373884766168"><ele>224.0</ele><time>2026-04-06T09:11:36Z</time></trkpt><trkpt lat="33.56296268450728" lon="9.723483223763765"><ele>224.0</ele><time>2026-04-06T09:11:37Z</time></trkpt><trkpt lat="33.56300750135567" lon="9.72322232005414"><ele>224.0</ele><time>2026-04-06T09:11:38Z</time></trkpt><trkpt lat="33.56305699082236" lon="9.722957248285134"><ele>224.0</ele><time>2026-04-06T09:11:39Z</time></trkpt><trkpt lat="33.56310944663757" lon="9.722690293716152"><ele>223.0</ele><time>2026-04-06T09:11:40Z</time></trkpt><trkpt lat="33.5631648304225" lon="9.722426322776784"><ele>222.0</ele><time>2026-04-06T09:11:41Z</time></trkpt><trkpt lat="33.563221393002266" lon="9.722167761871166"><ele>222.0</ele><time>2026-04-06T09:11:42Z</time></trkpt><trkpt lat="33.56328205509821" lon="9.721912588022958"><ele>222.0</ele><time>2026-04-06T09:11:43Z</time></trkpt><trkpt lat="33.56334982583987" lon="9.72165580080245"><ele>222.0</ele><time>2026-04-06T09:11:44Z</time></trkpt><trkpt lat="33.56341897769145" lon="9.721401755610382"><ele>222.0</ele><time>2026-04-06T09:11:45Z</time></trkpt><trkpt lat="33.56348824913068" lon="9.721146513555858"><ele>222.0</ele><time>2026-04-06T09:11:46Z</time></trkpt><trkpt lat="33.5635554677645" lon="9.720890381916233"><ele>222.0</ele><time>2026-04-06T09:11:47Z</time></trkpt><trkpt lat="33.563628750903874" lon="9.720627208843705"><ele>222.0</ele><time>2026-04-06T09:11:48Z</time></trkpt><trkpt lat="33.56370718987966" lon="9.720372056958533"><ele>222.0</ele><time>2026-04-06T09:11:49Z</time></trkpt><trkpt lat="33.56379068738531" lon="9.720117555526956"><ele>221.0</ele><time>2026-04-06T09:11:50Z</time></trkpt><trkpt lat="33.563876386536435" lon="9.719856940692313"><ele>220.0</ele><time>2026-04-06T09:11:51Z</time></trkpt><trkpt lat="33.56396434845285" lon="9.719597390813856"><ele>220.0</ele><time>2026-04-06T09:11:52Z</time></trkpt><trkpt lat="33.564057258854476" lon="9.719335696096122"><ele>220.0</ele><time>2026-04-06T09:11:53Z</time></trkpt><trkpt lat="33.56415574247687" lon="9.719073383398873"><ele>220.0</ele><time>2026-04-06T09:11:54Z</time></trkpt><trkpt lat="33.56425634917297" lon="9.718813977426315"><ele>220.0</ele><time>2026-04-06T09:11:55Z</time></trkpt><trkpt lat="33.56435205621662" lon="9.718547165415007"><ele>220.0</ele><time>2026-04-06T09:11:56Z</time></trkpt><trkpt lat="33.564444584127486" lon="9.718286575520292"><ele>220.0</ele><time>2026-04-06T09:11:57Z</time></trkpt><trkpt lat="33.56453742662481" lon="9.718018393287243"><ele>220.0</ele><time>2026-04-06T09:11:58Z</time></trkpt><trkpt lat="33.56462797162413" lon="9.717749181391724"><ele>220.0</ele><time>2026-04-06T09:11:59Z</time></trkpt><trkpt lat="33.5647202549735" lon="9.717483028375081"><ele>220.0</ele><time>2026-04-06T09:12:00Z</time></trkpt><trkpt lat="33.564814614610555" lon="9.717222539500721"><ele>220.0</ele><time>2026-04-06T09:12:01Z</time></trkpt><trkpt lat="33.564910109156386" lon="9.71696541826562"><ele>218.5</ele><time>2026-04-06T09:12:02Z</time></trkpt><trkpt lat="33.56500270062474" lon="9.716705330236284"><ele>217.0</ele><time>2026-04-06T09:12:03Z</time></trkpt><trkpt lat="33.565092028180814" lon="9.716447420669764"><ele>217.0</ele><time>2026-04-06T09:12:04Z</time></trkpt><trkpt lat="33.56518383905755" lon="9.716188982567381"><ele>217.0</ele><time>2026-04-06T09:12:05Z</time></trkpt><trkpt lat="33.56527675037743" lon="9.715932812542194"><ele>218.5</ele><time>2026-04-06T09:12:06Z</time></trkpt><trkpt lat="33.56536807359882" lon="9.715680038414499"><ele>220.0</ele><time>2026-04-06T09:12:07Z</time></trkpt><trkpt lat="33.56545704462862" lon="9.715428886391658"><ele>219.0</ele><time>2026-04-06T09:12:08Z</time></trkpt><trkpt lat="33.565546543687745" lon="9.715172952166732"><ele>218.0</ele><time>2026-04-06T09:12:09Z</time></trkpt><trkpt lat="33.56563434888031" lon="9.714925810592199"><ele>218.0</ele><time>2026-04-06T09:12:10Z</time></trkpt><trkpt lat="33.56572329074789" lon="9.714676114298552"><ele>218.0</ele><time>2026-04-06T09:12:11Z</time></trkpt><trkpt lat="33.565815233800784" lon="9.714427187954401"><ele>218.0</ele><time>2026-04-06T09:12:12Z</time></trkpt><trkpt lat="33.56590594628507" lon="9.714175791936924"><ele>218.0</ele><time>2026-04-06T09:12:13Z</time></trkpt><trkpt lat="33.5659963417454" lon="9.713922142892255"><ele>218.0</ele><time>2026-04-06T09:12:14Z</time></trkpt><trkpt lat="33.56608605662842" lon="9.713666422628169"><ele>218.0</ele><time>2026-04-06T09:12:15Z</time></trkpt><trkpt lat="33.56617697488509" lon="9.713404495085504"><ele>219.0</ele><time>2026-04-06T09:12:16Z</time></trkpt><trkpt lat="33.566271139591954" lon="9.71314144882308"><ele>220.0</ele><time>2026-04-06T09:12:17Z</time></trkpt><trkpt lat="33.56636525444937" lon="9.71287798988703"><ele>220.0</ele><time>2026-04-06T09:12:18Z</time></trkpt><trkpt lat="33.56646373735394" lon="9.712608160080096"><ele>220.0</ele><time>2026-04-06T09:12:19Z</time></trkpt><trkpt lat="33.56655803112818" lon="9.712339855476671"><ele>220.0</ele><time>2026-04-06T09:12:20Z</time></trkpt><trkpt lat="33.566650515052295" lon="9.712065819585158"><ele>220.0</ele><time>2026-04-06T09:12:21Z</time></trkpt><trkpt lat="33.56674214752501" lon="9.711793089849591"><ele>218.0</ele><time>2026-04-06T09:12:22Z</time></trkpt><trkpt lat="33.56683797567621" lon="9.71152096827759"><ele>216.0</ele><time>2026-04-06T09:12:23Z</time></trkpt><trkpt lat="33.56693611186675" lon="9.711251401709449"><ele>216.0</ele><time>2026-04-06T09:12:24Z</time></trkpt><trkpt lat="33.56702870696278" lon="9.710977480334966"><ele>216.0</ele><time>2026-04-06T09:12:25Z</time></trkpt><trkpt lat="33.567113936063485" lon="9.71070266237002"><ele>216.0</ele><time>2026-04-06T09:12:26Z</time></trkpt><trkpt lat="33.56719174446604" lon="9.710431490172445"><ele>216.0</ele><time>2026-04-06T09:12:27Z</time></trkpt><trkpt lat="33.56726367653989" lon="9.71016014581573"><ele>216.0</ele><time>2026-04-06T09:12:28Z</time></trkpt><trkpt lat="33.56732778370724" lon="9.709885349530827"><ele>216.0</ele><time>2026-04-06T09:12:29Z</time></trkpt><trkpt lat="33.56738834720196" lon="9.709612060948045"><ele>215.0</ele><time>2026-04-06T09:12:30Z</time></trkpt><trkpt lat="33.56744775225862" lon="9.709338895224057"><ele>214.0</ele><time>2026-04-06T09:12:31Z</time></trkpt><trkpt lat="33.567501087520114" lon="9.70906785774854"><ele>214.0</ele><time>2026-04-06T09:12:32Z</time></trkpt><trkpt lat="33.56755020029002" lon="9.708804581174448"><ele>214.0</ele><time>2026-04-06T09:12:33Z</time></trkpt><trkpt lat="33.56759655008713" lon="9.708542829950757"><ele>214.0</ele><time>2026-04-06T09:12:34Z</time></trkpt><trkpt lat="33.56764290072854" lon="9.708283280899378"><ele>213.66666666666666</ele><time>2026-04-06T09:12:35Z</time></trkpt><trkpt lat="33.567689620775546" lon="9.708032201571848"><ele>213.33333333333331</ele><time>2026-04-06T09:12:36Z</time></trkpt><trkpt lat="33.56773531527125" lon="9.707783099458124"><ele>213.0</ele><time>2026-04-06T09:12:37Z</time></trkpt><trkpt lat="33.56778026950469" lon="9.707537033244641"><ele>213.0</ele><time>2026-04-06T09:12:38Z</time></trkpt><trkpt lat="33.56786769861519" lon="9.707050921048491"><ele>213.0</ele><time>2026-04-06T09:12:40Z</time></trkpt><trkpt lat="33.56791499833913" lon="9.706806359454415"><ele>212.33333333333331</ele><time>2026-04-06T09:12:41Z</time></trkpt><trkpt lat="33.56796145899848" lon="9.706550947833318"><ele>211.66666666666666</ele><time>2026-04-06T09:12:42Z</time></trkpt><trkpt lat="33.56800600255884" lon="9.706287415529953"><ele>211.0</ele><time>2026-04-06T09:12:43Z</time></trkpt><trkpt lat="33.56804960252745" lon="9.706029683987847"><ele>210.66666666666666</ele><time>2026-04-06T09:12:44Z</time></trkpt><trkpt lat="33.5680971599547" lon="9.705770122039498"><ele>210.33333333333331</ele><time>2026-04-06T09:12:45Z</time></trkpt><trkpt lat="33.56814525422532" lon="9.705510452753826"><ele>210.0</ele><time>2026-04-06T09:12:46Z</time></trkpt><trkpt lat="33.56819622340712" lon="9.70524843069551"><ele>210.0</ele><time>2026-04-06T09:12:47Z</time></trkpt><trkpt lat="33.568249540734385" lon="9.7049824329353"><ele>210.0</ele><time>2026-04-06T09:12:48Z</time></trkpt><trkpt lat="33.56830110531799" lon="9.704714426949732"><ele>210.0</ele><time>2026-04-06T09:12:49Z</time></trkpt><trkpt lat="33.568350776490774" lon="9.704449067558556"><ele>210.0</ele><time>2026-04-06T09:12:50Z</time></trkpt><trkpt lat="33.56839778988276" lon="9.704184062042287"><ele>209.5</ele><time>2026-04-06T09:12:51Z</time></trkpt><trkpt lat="33.568451097508316" lon="9.703917800154422"><ele>209.0</ele><time>2026-04-06T09:12:52Z</time></trkpt><trkpt lat="33.568512934648766" lon="9.703650931143379"><ele>208.0</ele><time>2026-04-06T09:12:53Z</time></trkpt><trkpt lat="33.56858342143754" lon="9.703384574489295"><ele>207.0</ele><time>2026-04-06T09:12:54Z</time></trkpt><trkpt lat="33.56866169524919" lon="9.703119188755299"><ele>207.5</ele><time>2026-04-06T09:12:55Z</time></trkpt><trkpt lat="33.56874459236805" lon="9.702857508767991"><ele>208.0</ele><time>2026-04-06T09:12:56Z</time></trkpt><trkpt lat="33.56882901980163" lon="9.702602643862448"><ele>208.0</ele><time>2026-04-06T09:12:57Z</time></trkpt><trkpt lat="33.56891439768975" lon="9.70234408292873"><ele>208.0</ele><time>2026-04-06T09:12:58Z</time></trkpt><trkpt lat="33.568999627951214" lon="9.702093503597826"><ele>207.5</ele><time>2026-04-06T09:12:59Z</time></trkpt><trkpt lat="33.56908598917121" lon="9.701837532023715"><ele>207.0</ele><time>2026-04-06T09:12:59.999Z</time></trkpt><trkpt lat="33.569171576336196" lon="9.701577764626299"><ele>207.0</ele><time>2026-04-06T09:13:00.999Z</time></trkpt><trkpt lat="33.56925212441768" lon="9.701317026256046"><ele>207.0</ele><time>2026-04-06T09:13:01.999Z</time></trkpt><trkpt lat="33.569335968208776" lon="9.701058207681319"><ele>206.5</ele><time>2026-04-06T09:13:02.999Z</time></trkpt><trkpt lat="33.569424401383536" lon="9.700799642111063"><ele>206.0</ele><time>2026-04-06T09:13:03.999Z</time></trkpt><trkpt lat="33.56951268243984" lon="9.700537974483002"><ele>206.5</ele><time>2026-04-06T09:13:04.999Z</time></trkpt><trkpt lat="33.569603073748" lon="9.700278213557427"><ele>207.0</ele><time>2026-04-06T09:13:05.999Z</time></trkpt><trkpt lat="33.56970036019002" lon="9.70001708956384"><ele>207.0</ele><time>2026-04-06T09:13:06.999Z</time></trkpt><trkpt lat="33.569802662428636" lon="9.699766795984424"><ele>207.0</ele><time>2026-04-06T09:13:07.999Z</time></trkpt><trkpt lat="33.56991021295411" lon="9.699511487385086"><ele>206.5</ele><time>2026-04-06T09:13:08.999Z</time></trkpt><trkpt lat="33.57002034281074" lon="9.699258970046854"><ele>206.0</ele><time>2026-04-06T09:13:09.999Z</time></trkpt><trkpt lat="33.570135485905226" lon="9.69900290169167"><ele>206.0</ele><time>2026-04-06T09:13:10.999Z</time></trkpt><trkpt lat="33.57025538367262" lon="9.698753281621311"><ele>206.0</ele><time>2026-04-06T09:13:11.999Z</time></trkpt><trkpt lat="33.57038213984372" lon="9.698505012094781"><ele>205.0</ele><time>2026-04-06T09:13:12.999Z</time></trkpt><trkpt lat="33.570511799889374" lon="9.698264639889521"><ele>204.0</ele><time>2026-04-06T09:13:13.999Z</time></trkpt><trkpt lat="33.57064729835996" lon="9.698027726807297"><ele>204.0</ele><time>2026-04-06T09:13:14.999Z</time></trkpt><trkpt lat="33.57078424869689" lon="9.697789132826703"><ele>204.0</ele><time>2026-04-06T09:13:15.999Z</time></trkpt><trkpt lat="33.570921291345975" lon="9.697549245959737"><ele>203.0</ele><time>2026-04-06T09:13:16.999Z</time></trkpt><trkpt lat="33.57106639709184" lon="9.697301265974387"><ele>202.0</ele><time>2026-04-06T09:13:17.999Z</time></trkpt><trkpt lat="33.57121249591527" lon="9.697051258738263"><ele>202.0</ele><time>2026-04-06T09:13:18.999Z</time></trkpt><trkpt lat="33.5713575054041" lon="9.69679354893991"><ele>202.0</ele><time>2026-04-06T09:13:19.999Z</time></trkpt><trkpt lat="33.57150214903486" lon="9.696531161711691"><ele>202.0</ele><time>2026-04-06T09:13:20.999Z</time></trkpt><trkpt lat="33.57164247882509" lon="9.696265417278234"><ele>202.0</ele><time>2026-04-06T09:13:21.999Z</time></trkpt><trkpt lat="33.57178168500811" lon="9.695993872603124"><ele>202.0</ele><time>2026-04-06T09:13:22.999Z</time></trkpt><trkpt lat="33.57191638364472" lon="9.695726572625844"><ele>202.0</ele><time>2026-04-06T09:13:24Z</time></trkpt><trkpt lat="33.57204194770129" lon="9.695465568944709"><ele>202.5</ele><time>2026-04-06T09:13:25Z</time></trkpt><trkpt lat="33.5721588322855" lon="9.695203865370074"><ele>203.0</ele><time>2026-04-06T09:13:26Z</time></trkpt><trkpt lat="33.57226707620768" lon="9.694940711482895"><ele>203.0</ele><time>2026-04-06T09:13:27Z</time></trkpt><trkpt lat="33.5723681486647" lon="9.69467441663108"><ele>203.0</ele><time>2026-04-06T09:13:28Z</time></trkpt><trkpt lat="33.5724647067733" lon="9.694404474773183"><ele>202.0</ele><time>2026-04-06T09:13:29Z</time></trkpt><trkpt lat="33.5725582224016" lon="9.694133426915053"><ele>201.0</ele><time>2026-04-06T09:13:30Z</time></trkpt><trkpt lat="33.57265249724869" lon="9.693859823082112"><ele>199.5</ele><time>2026-04-06T09:13:31Z</time></trkpt><trkpt lat="33.5727403331983" lon="9.693585456149371"><ele>198.0</ele><time>2026-04-06T09:13:32Z</time></trkpt><trkpt lat="33.57281756882293" lon="9.693314017845157"><ele>197.0</ele><time>2026-04-06T09:13:33Z</time></trkpt><trkpt lat="33.57288707616177" lon="9.693041929206448"><ele>196.0</ele><time>2026-04-06T09:13:34Z</time></trkpt><trkpt lat="33.57295423378705" lon="9.692767133405685"><ele>197.0</ele><time>2026-04-06T09:13:35Z</time></trkpt><trkpt lat="33.573016630753806" lon="9.692494777997696"><ele>198.0</ele><time>2026-04-06T09:13:36Z</time></trkpt><trkpt lat="33.573078108077794" lon="9.692225407039897"><ele>198.0</ele><time>2026-04-06T09:13:37Z</time></trkpt><trkpt lat="33.573136104619955" lon="9.69196059201287"><ele>198.0</ele><time>2026-04-06T09:13:38Z</time></trkpt><trkpt lat="33.57319291556132" lon="9.691696083698336"><ele>197.5</ele><time>2026-04-06T09:13:39Z</time></trkpt><trkpt lat="33.573248807744534" lon="9.691432090887504"><ele>197.0</ele><time>2026-04-06T09:13:40Z</time></trkpt><trkpt lat="33.57330531660148" lon="9.691168911077588"><ele>196.0</ele><time>2026-04-06T09:13:41Z</time></trkpt><trkpt lat="33.573364982062174" lon="9.69089925861774"><ele>195.0</ele><time>2026-04-06T09:13:42Z</time></trkpt><trkpt lat="33.573425824001276" lon="9.690627077770673"><ele>195.0</ele><time>2026-04-06T09:13:43Z</time></trkpt><trkpt lat="33.57348900875315" lon="9.69035293545497"><ele>195.0</ele><time>2026-04-06T09:13:44Z</time></trkpt><trkpt lat="33.57354939694972" lon="9.690073382788846"><ele>194.5</ele><time>2026-04-06T09:13:45Z</time></trkpt><trkpt lat="33.57360882242273" lon="9.689797527857246"><ele>194.0</ele><time>2026-04-06T09:13:46Z</time></trkpt><trkpt lat="33.57366856428182" lon="9.68952576522571"><ele>193.0</ele><time>2026-04-06T09:13:47Z</time></trkpt><trkpt lat="33.57372947386575" lon="9.68926082687635"><ele>192.0</ele><time>2026-04-06T09:13:48Z</time></trkpt><trkpt lat="33.57379274379797" lon="9.689000432344475"><ele>192.0</ele><time>2026-04-06T09:13:49Z</time></trkpt><trkpt lat="33.57384994782619" lon="9.688758806008344"><ele>192.0</ele><time>2026-04-06T09:13:50Z</time></trkpt><trkpt lat="33.5739044493941" lon="9.688551675319564"><ele>192.0</ele><time>2026-04-06T09:13:51Z</time></trkpt><trkpt lat="33.573969436693446" lon="9.688353984503797"><ele>191.33333333333334</ele><time>2026-04-06T09:13:52Z</time></trkpt><trkpt lat="33.574031133729335" lon="9.688157272948985"><ele>190.66666666666669</ele><time>2026-04-06T09:13:53Z</time></trkpt><trkpt lat="33.574085505655425" lon="9.687963492643162"><ele>190.0</ele><time>2026-04-06T09:13:54Z</time></trkpt><trkpt lat="33.57414413170787" lon="9.687768039900586"><ele>190.0</ele><time>2026-04-06T09:13:55Z</time></trkpt><trkpt lat="33.574204110905725" lon="9.687580436685424"><ele>190.0</ele><time>2026-04-06T09:13:56Z</time></trkpt><trkpt lat="33.57426575434497" lon="9.687394367387867"><ele>190.0</ele><time>2026-04-06T09:13:57Z</time></trkpt><trkpt lat="33.57432555578144" lon="9.687210134145223"><ele>190.0</ele><time>2026-04-06T09:13:58Z</time></trkpt><trkpt lat="33.57438464773993" lon="9.68702720582039"><ele>190.0</ele><time>2026-04-06T09:13:59Z</time></trkpt><trkpt lat="33.574443472346765" lon="9.686852438796555"><ele>190.0</ele><time>2026-04-06T09:14:00Z</time></trkpt><trkpt lat="33.574503338653166" lon="9.68668720862984"><ele>190.0</ele><time>2026-04-06T09:14:01Z</time></trkpt><trkpt lat="33.57455723549193" lon="9.686529613531105"><ele>190.0</ele><time>2026-04-06T09:14:02Z</time></trkpt><trkpt lat="33.574607612389066" lon="9.686377717442062"><ele>190.0</ele><time>2026-04-06T09:14:03Z</time></trkpt><trkpt lat="33.57465395720656" lon="9.686231896615393"><ele>190.0</ele><time>2026-04-06T09:14:04Z</time></trkpt><trkpt lat="33.574698920194415" lon="9.686100112524995"><ele>190.16666666666669</ele><time>2026-04-06T09:14:05Z</time></trkpt><trkpt lat="33.57474104415824" lon="9.685988380774221"><ele>190.33333333333334</ele><time>2026-04-06T09:14:06Z</time></trkpt><trkpt lat="33.57477989210011" lon="9.685889778756975"><ele>190.5</ele><time>2026-04-06T09:14:07Z</time></trkpt><trkpt lat="33.574815977960775" lon="9.685800756883962"><ele>190.66666666666666</ele><time>2026-04-06T09:14:08Z</time></trkpt><trkpt lat="33.57484797247892" lon="9.685721217075374"><ele>190.83333333333331</ele><time>2026-04-06T09:14:09Z</time></trkpt><trkpt lat="33.57487418272908" lon="9.68565076937683"><ele>191.0</ele><time>2026-04-06T09:14:10Z</time></trkpt><trkpt lat="33.574884489107404" lon="9.68557557382944"><ele>191.0</ele><time>2026-04-06T09:14:11Z</time></trkpt><trkpt lat="33.574863744829855" lon="9.685500388943098"><ele>191.0</ele><time>2026-04-06T09:14:12Z</time></trkpt><trkpt lat="33.57482164088016" lon="9.68543162734547"><ele>191.0</ele><time>2026-04-06T09:14:13Z</time></trkpt><trkpt lat="33.5747689663809" lon="9.685389216633709"><ele>191.0</ele><time>2026-04-06T09:14:14Z</time></trkpt><trkpt lat="33.574725212501015" lon="9.685326126966096"><ele>191.0</ele><time>2026-04-06T09:14:16Z</time></trkpt><trkpt lat="33.57466494300998" lon="9.68525215418591"><ele>191.0</ele><time>2026-04-06T09:14:19Z</time></trkpt><trkpt lat="33.57458814682052" lon="9.685216176048813"><ele>191.0</ele><time>2026-04-06T09:14:21Z</time></trkpt><trkpt lat="33.574521955707695" lon="9.685204616191232"><ele>191.16666666666666</ele><time>2026-04-06T09:17:17.999Z</time></trkpt><trkpt lat="33.57442411693439" lon="9.685151501649527"><ele>191.33333333333331</ele><time>2026-04-06T09:17:20.999Z</time></trkpt><trkpt lat="33.574362754288096" lon="9.68512387458483"><ele>191.5</ele><time>2026-04-06T09:17:22.999Z</time></trkpt><trkpt lat="33.574285611936325" lon="9.685079111713625"><ele>191.66666666666666</ele><time>2026-04-06T09:17:25Z</time></trkpt><trkpt lat="33.57422518361071" lon="9.68504143934935"><ele>191.83333333333334</ele><time>2026-04-06T09:17:27Z</time></trkpt><trkpt lat="33.57414832548303" lon="9.684988492229811"><ele>192.0</ele><time>2026-04-06T09:17:29Z</time></trkpt><trkpt lat="33.57405316564508" lon="9.68491627123751"><ele>192.0</ele><time>2026-04-06T09:17:31Z</time></trkpt><trkpt lat="33.57399245918557" lon="9.684875104305918"><ele>192.0</ele><time>2026-04-06T09:17:32Z</time></trkpt><trkpt lat="33.57392168214656" lon="9.684832269401983"><ele>192.0</ele><time>2026-04-06T09:17:33Z</time></trkpt><trkpt lat="33.57381506962335" lon="9.68476845961762"><ele>192.0</ele><time>2026-04-06T09:17:34Z</time></trkpt><trkpt lat="33.573721251854536" lon="9.684704524014201"><ele>192.0</ele><time>2026-04-06T09:17:35Z</time></trkpt><trkpt lat="33.573632581162435" lon="9.684638809539871"><ele>192.0</ele><time>2026-04-06T09:17:36Z</time></trkpt><trkpt lat="33.573534219724856" lon="9.684572495591178"><ele>192.0</ele><time>2026-04-06T09:17:37Z</time></trkpt><trkpt lat="33.57342855201908" lon="9.684510387972063"><ele>192.0</ele><time>2026-04-06T09:17:38Z</time></trkpt><trkpt lat="33.573319734731854" lon="9.684447234466495"><ele>192.0</ele><time>2026-04-06T09:17:39Z</time></trkpt><trkpt lat="33.573209016008235" lon="9.684380721490284"><ele>191.5</ele><time>2026-04-06T09:17:40Z</time></trkpt><trkpt lat="33.573097012263304" lon="9.68431023788922"><ele>191.0</ele><time>2026-04-06T09:17:41Z</time></trkpt><trkpt lat="33.5729832021923" lon="9.684233291933536"><ele>190.5</ele><time>2026-04-06T09:17:42Z</time></trkpt><trkpt lat="33.57287325780522" lon="9.68415716723364"><ele>190.0</ele><time>2026-04-06T09:17:43Z</time></trkpt><trkpt lat="33.572769838824655" lon="9.684086711789574"><ele>189.6</ele><time>2026-04-06T09:17:44Z</time></trkpt><trkpt lat="33.572669770825826" lon="9.684020506451468"><ele>189.2</ele><time>2026-04-06T09:17:45Z</time></trkpt><trkpt lat="33.57257407548339" lon="9.683959073772801"><ele>188.8</ele><time>2026-04-06T09:17:46Z</time></trkpt><trkpt lat="33.57247491232898" lon="9.683895067571779"><ele>188.4</ele><time>2026-04-06T09:17:47Z</time></trkpt><trkpt lat="33.57237622878288" lon="9.683826503244497"><ele>188.0</ele><time>2026-04-06T09:17:48Z</time></trkpt><trkpt lat="33.57228482800546" lon="9.68376533070299"><ele>188.0</ele><time>2026-04-06T09:17:49Z</time></trkpt><trkpt lat="33.57219702542867" lon="9.683705764364884"><ele>188.0</ele><time>2026-04-06T09:17:50Z</time></trkpt><trkpt lat="33.57210649050517" lon="9.683640242229645"><ele>188.0</ele><time>2026-04-06T09:17:51Z</time></trkpt><trkpt lat="33.57201071027975" lon="9.683577492876164"><ele>188.0</ele><time>2026-04-06T09:17:52Z</time></trkpt><trkpt lat="33.5719122111791" lon="9.683514179697488"><ele>188.0</ele><time>2026-04-06T09:17:53Z</time></trkpt><trkpt lat="33.57181358487204" lon="9.683446303544004"><ele>187.5</ele><time>2026-04-06T09:17:54Z</time></trkpt><trkpt lat="33.57171441222722" lon="9.683375751517"><ele>187.0</ele><time>2026-04-06T09:17:55Z</time></trkpt><trkpt lat="33.57161013872471" lon="9.683304562593086"><ele>186.5</ele><time>2026-04-06T09:17:56Z</time></trkpt><trkpt lat="33.5715056156413" lon="9.68322863670904"><ele>186.0</ele><time>2026-04-06T09:17:57Z</time></trkpt><trkpt lat="33.571397811195894" lon="9.683155463855009"><ele>186.0</ele><time>2026-04-06T09:17:58Z</time></trkpt><trkpt lat="33.57128657249315" lon="9.683074837125016"><ele>186.0</ele><time>2026-04-06T09:17:59Z</time></trkpt><trkpt lat="33.57116928551392" lon="9.682993048927903"><ele>186.0</ele><time>2026-04-06T09:18:00Z</time></trkpt><trkpt lat="33.57102464874224" lon="9.682897235322134"><ele>186.0</ele><time>2026-04-06T09:18:01Z</time></trkpt><trkpt lat="33.57085215650952" lon="9.682782515047595"><ele>186.0</ele><time>2026-04-06T09:18:02Z</time></trkpt><trkpt lat="33.57065335013293" lon="9.682655894210399"><ele>186.0</ele><time>2026-04-06T09:18:03Z</time></trkpt><trkpt lat="33.57044853525148" lon="9.68252150159644"><ele>188.0</ele><time>2026-04-06T09:18:04Z</time></trkpt><trkpt lat="33.57025483678678" lon="9.682391318951382"><ele>190.0</ele><time>2026-04-06T09:18:05Z</time></trkpt><trkpt lat="33.57008426936531" lon="9.682273915633669"><ele>192.0</ele><time>2026-04-06T09:18:06Z</time></trkpt><trkpt lat="33.5699256225933" lon="9.682165189948595"><ele>192.0</ele><time>2026-04-06T09:18:07Z</time></trkpt><trkpt lat="33.56976755342144" lon="9.682059538313318"><ele>192.0</ele><time>2026-04-06T09:18:08Z</time></trkpt><trkpt lat="33.569603379691664" lon="9.681949842678291"><ele>192.0</ele><time>2026-04-06T09:18:09Z</time></trkpt><trkpt lat="33.569441503574616" lon="9.68183992569357"><ele>192.33333333333331</ele><time>2026-04-06T09:18:10Z</time></trkpt><trkpt lat="33.56928562252811" lon="9.681733887466779"><ele>192.66666666666666</ele><time>2026-04-06T09:18:11Z</time></trkpt><trkpt lat="33.569132379476045" lon="9.68163037027383"><ele>193.0</ele><time>2026-04-06T09:18:12Z</time></trkpt><trkpt lat="33.56898417428239" lon="9.6815342290857"><ele>193.0</ele><time>2026-04-06T09:18:13Z</time></trkpt><trkpt lat="33.5688280367827" lon="9.681432661070813"><ele>193.0</ele><time>2026-04-06T09:18:14Z</time></trkpt><trkpt lat="33.568673598452314" lon="9.68133309244142"><ele>193.0</ele><time>2026-04-06T09:18:15Z</time></trkpt><trkpt lat="33.568519319248715" lon="9.681231889950501"><ele>192.66666666666666</ele><time>2026-04-06T09:18:16Z</time></trkpt><trkpt lat="33.568366143201374" lon="9.681130948924931"><ele>192.33333333333331</ele><time>2026-04-06T09:18:17Z</time></trkpt><trkpt lat="33.56821844416836" lon="9.681029552346699"><ele>192.0</ele><time>2026-04-06T09:18:18Z</time></trkpt><trkpt lat="33.56807232511547" lon="9.680929867179545"><ele>192.0</ele><time>2026-04-06T09:18:19Z</time></trkpt><trkpt lat="33.56792615883316" lon="9.680833307219366"><ele>192.0</ele><time>2026-04-06T09:18:20Z</time></trkpt><trkpt lat="33.56777818497095" lon="9.680733572181829"><ele>192.0</ele><time>2026-04-06T09:18:21Z</time></trkpt><trkpt lat="33.56763503737884" lon="9.680639634218682"><ele>192.66666666666669</ele><time>2026-04-06T09:18:22Z</time></trkpt><trkpt lat="33.56749978863253" lon="9.680549140214877"><ele>193.33333333333334</ele><time>2026-04-06T09:18:23Z</time></trkpt><trkpt lat="33.56736636110359" lon="9.680461863067087"><ele>194.0</ele><time>2026-04-06T09:18:24Z</time></trkpt><trkpt lat="33.56722439691007" lon="9.68036984981797"><ele>194.0</ele><time>2026-04-06T09:18:25Z</time></trkpt><trkpt lat="33.567082463814195" lon="9.680281557509264"><ele>194.0</ele><time>2026-04-06T09:18:26Z</time></trkpt><trkpt lat="33.566945681153726" lon="9.680214793011976"><ele>194.0</ele><time>2026-04-06T09:18:27Z</time></trkpt><trkpt lat="33.56681212828373" lon="9.680178426936353"><ele>194.0</ele><time>2026-04-06T09:18:28Z</time></trkpt><trkpt lat="33.56667840414407" lon="9.680164393201922"><ele>194.0</ele><time>2026-04-06T09:18:29Z</time></trkpt><trkpt lat="33.5665333339729" lon="9.680161112905115"><ele>194.0</ele><time>2026-04-06T09:18:30Z</time></trkpt><trkpt lat="33.5663903444411" lon="9.68017433570703"><ele>194.0</ele><time>2026-04-06T09:18:31Z</time></trkpt><trkpt lat="33.56625245024093" lon="9.680199566325292"><ele>194.0</ele><time>2026-04-06T09:18:32Z</time></trkpt><trkpt lat="33.56611501679431" lon="9.680232884110865"><ele>194.0</ele><time>2026-04-06T09:18:33Z</time></trkpt><trkpt lat="33.56598220932375" lon="9.680264107968988"><ele>194.0</ele><time>2026-04-06T09:18:34Z</time></trkpt><trkpt lat="33.56584669584343" lon="9.680291763907546"><ele>194.0</ele><time>2026-04-06T09:18:35Z</time></trkpt><trkpt lat="33.56570902158882" lon="9.680313122260284"><ele>194.0</ele><time>2026-04-06T09:18:36Z</time></trkpt><trkpt lat="33.56556668258858" lon="9.680335926470264"><ele>194.0</ele><time>2026-04-06T09:18:37Z</time></trkpt><trkpt lat="33.56541262575348" lon="9.680364002285987"><ele>194.0</ele><time>2026-04-06T09:18:38Z</time></trkpt><trkpt lat="33.56524075553785" lon="9.68039819232645"><ele>194.0</ele><time>2026-04-06T09:18:39Z</time></trkpt><trkpt lat="33.56504737323561" lon="9.680435825981858"><ele>192.66666666666669</ele><time>2026-04-06T09:18:40Z</time></trkpt><trkpt lat="33.5648538837819" lon="9.68047026166161"><ele>191.33333333333334</ele><time>2026-04-06T09:18:41Z</time></trkpt><trkpt lat="33.5646652045106" lon="9.68050320723667"><ele>190.0</ele><time>2026-04-06T09:18:42Z</time></trkpt><trkpt lat="33.56447554175671" lon="9.680540404378617"><ele>190.0</ele><time>2026-04-06T09:18:43Z</time></trkpt><trkpt lat="33.56428069385179" lon="9.680578666754469"><ele>190.0</ele><time>2026-04-06T09:18:44Z</time></trkpt><trkpt lat="33.56408541154331" lon="9.680616152007762"><ele>190.0</ele><time>2026-04-06T09:18:45Z</time></trkpt><trkpt lat="33.56388961271471" lon="9.680652285579328"><ele>189.0</ele><time>2026-04-06T09:18:46Z</time></trkpt><trkpt lat="33.56368902508541" lon="9.680689199151926"><ele>188.0</ele><time>2026-04-06T09:18:47Z</time></trkpt><trkpt lat="33.56348590604975" lon="9.68072662926162"><ele>187.0</ele><time>2026-04-06T09:18:48Z</time></trkpt><trkpt lat="33.56328334057368" lon="9.680760350709255"><ele>187.0</ele><time>2026-04-06T09:18:49Z</time></trkpt><trkpt lat="33.56308357239605" lon="9.680794059984613"><ele>187.0</ele><time>2026-04-06T09:18:50Z</time></trkpt><trkpt lat="33.562887957879134" lon="9.680828993618126"><ele>187.0</ele><time>2026-04-06T09:18:51Z</time></trkpt><trkpt lat="33.562694131122285" lon="9.680867679940215"><ele>187.0</ele><time>2026-04-06T09:18:52Z</time></trkpt><trkpt lat="33.56250813722596" lon="9.680904817169697"><ele>187.0</ele><time>2026-04-06T09:18:53Z</time></trkpt><trkpt lat="33.56232214809681" lon="9.68094054447858"><ele>187.0</ele><time>2026-04-06T09:18:54Z</time></trkpt><trkpt lat="33.56213845808335" lon="9.680976868367202"><ele>187.0</ele><time>2026-04-06T09:18:55Z</time></trkpt><trkpt lat="33.561958045897285" lon="9.681013705332386"><ele>187.0</ele><time>2026-04-06T09:18:56Z</time></trkpt><trkpt lat="33.561776936870714" lon="9.681047188055858"><ele>187.0</ele><time>2026-04-06T09:18:57Z</time></trkpt><trkpt lat="33.561608524141626" lon="9.68107729628204"><ele>186.66666666666669</ele><time>2026-04-06T09:18:58Z</time></trkpt><trkpt lat="33.56144687646225" lon="9.681106441261774"><ele>186.33333333333334</ele><time>2026-04-06T09:18:59Z</time></trkpt><trkpt lat="33.56128443144722" lon="9.681138308340325"><ele>186.0</ele><time>2026-04-06T09:19:00Z</time></trkpt><trkpt lat="33.56111810645989" lon="9.68117028536447"><ele>186.0</ele><time>2026-04-06T09:19:01Z</time></trkpt><trkpt lat="33.56094806642346" lon="9.681203888983116"><ele>186.0</ele><time>2026-04-06T09:19:02Z</time></trkpt><trkpt lat="33.560773729833" lon="9.6812369143418"><ele>186.0</ele><time>2026-04-06T09:19:03Z</time></trkpt><trkpt lat="33.56059354556916" lon="9.681270955677457"><ele>186.0</ele><time>2026-04-06T09:19:04Z</time></trkpt><trkpt lat="33.560413851331155" lon="9.681306172911764"><ele>186.0</ele><time>2026-04-06T09:19:05Z</time></trkpt><trkpt lat="33.56022954515041" lon="9.681341463914379"><ele>186.0</ele><time>2026-04-06T09:19:06Z</time></trkpt><trkpt lat="33.560041950339084" lon="9.681380007495337"><ele>186.66666666666666</ele><time>2026-04-06T09:19:07Z</time></trkpt><trkpt lat="33.55984843050956" lon="9.681415449742978"><ele>187.33333333333331</ele><time>2026-04-06T09:19:08Z</time></trkpt><trkpt lat="33.55965365228155" lon="9.681453895936043"><ele>188.0</ele><time>2026-04-06T09:19:09Z</time></trkpt><trkpt lat="33.559462314570936" lon="9.681493516224231"><ele>188.66666666666666</ele><time>2026-04-06T09:19:10Z</time></trkpt><trkpt lat="33.55927195364887" lon="9.681531291740933"><ele>189.33333333333334</ele><time>2026-04-06T09:19:11Z</time></trkpt><trkpt lat="33.55908139970545" lon="9.68156999620992"><ele>190.0</ele><time>2026-04-06T09:19:12Z</time></trkpt><trkpt lat="33.55889227042084" lon="9.681607732376493"><ele>190.0</ele><time>2026-04-06T09:19:13Z</time></trkpt><trkpt lat="33.558700453807916" lon="9.681645657911286"><ele>190.0</ele><time>2026-04-06T09:19:14Z</time></trkpt><trkpt lat="33.55850393012419" lon="9.681681958718647"><ele>190.0</ele><time>2026-04-06T09:19:15Z</time></trkpt><trkpt lat="33.55830725981697" lon="9.681717009381648"><ele>190.0</ele><time>2026-04-06T09:19:16Z</time></trkpt><trkpt lat="33.55810855864233" lon="9.68175342207693"><ele>190.0</ele><time>2026-04-06T09:19:17Z</time></trkpt><trkpt lat="33.557910727284785" lon="9.681789411868996"><ele>190.0</ele><time>2026-04-06T09:19:18Z</time></trkpt><trkpt lat="33.55771048357076" lon="9.681828134358975"><ele>190.0</ele><time>2026-04-06T09:19:19Z</time></trkpt><trkpt lat="33.5575162642856" lon="9.681865365949324"><ele>190.0</ele><time>2026-04-06T09:19:20Z</time></trkpt><trkpt lat="33.557315713715575" lon="9.681902066472592"><ele>190.0</ele><time>2026-04-06T09:19:21Z</time></trkpt><trkpt lat="33.557115933116826" lon="9.681936794677341"><ele>189.33333333333334</ele><time>2026-04-06T09:19:22Z</time></trkpt><trkpt lat="33.556913092582164" lon="9.681974163256276"><ele>188.66666666666666</ele><time>2026-04-06T09:19:23Z</time></trkpt><trkpt lat="33.556707375049484" lon="9.682015340324734"><ele>188.0</ele><time>2026-04-06T09:19:24Z</time></trkpt><trkpt lat="33.55650072437452" lon="9.682060002106688"><ele>188.0</ele><time>2026-04-06T09:19:25Z</time></trkpt><trkpt lat="33.55629589152061" lon="9.682103511998895"><ele>188.0</ele><time>2026-04-06T09:19:26Z</time></trkpt><trkpt lat="33.55609396011313" lon="9.682147845505108"><ele>188.0</ele><time>2026-04-06T09:19:27Z</time></trkpt><trkpt lat="33.555892333896374" lon="9.682189020649485"><ele>187.33333333333331</ele><time>2026-04-06T09:19:28Z</time></trkpt><trkpt lat="33.555687308029704" lon="9.682230667822518"><ele>186.66666666666666</ele><time>2026-04-06T09:19:29Z</time></trkpt><trkpt lat="33.55548685015214" lon="9.68227027091215"><ele>186.0</ele><time>2026-04-06T09:19:30Z</time></trkpt><trkpt lat="33.55529484978326" lon="9.682306397287993"><ele>186.0</ele><time>2026-04-06T09:19:31Z</time></trkpt><trkpt lat="33.55510280547765" lon="9.682338334121718"><ele>186.0</ele><time>2026-04-06T09:19:32Z</time></trkpt><trkpt lat="33.554909311642874" lon="9.6823722864844"><ele>186.0</ele><time>2026-04-06T09:19:33Z</time></trkpt><trkpt lat="33.55471254137424" lon="9.682407231606367"><ele>186.0</ele><time>2026-04-06T09:19:34Z</time></trkpt><trkpt lat="33.55451299463317" lon="9.682443174193043"><ele>186.0</ele><time>2026-04-06T09:19:35Z</time></trkpt><trkpt lat="33.5543120912767" lon="9.682482971807193"><ele>186.0</ele><time>2026-04-06T09:19:36Z</time></trkpt><trkpt lat="33.554107317727045" lon="9.682520457065623"><ele>186.0</ele><time>2026-04-06T09:19:37Z</time></trkpt><trkpt lat="33.55389268875272" lon="9.682559466538892"><ele>186.0</ele><time>2026-04-06T09:19:38Z</time></trkpt><trkpt lat="33.55367063463486" lon="9.682603109844033"><ele>186.0</ele><time>2026-04-06T09:19:39Z</time></trkpt><trkpt lat="33.553442779001756" lon="9.682645874720187"><ele>186.0</ele><time>2026-04-06T09:19:40Z</time></trkpt><trkpt lat="33.55322061190603" lon="9.682684453691785"><ele>186.0</ele><time>2026-04-06T09:19:41Z</time></trkpt><trkpt lat="33.55300630914428" lon="9.682718514070604"><ele>186.0</ele><time>2026-04-06T09:19:42Z</time></trkpt><trkpt lat="33.55279155102842" lon="9.682751412011472"><ele>186.5</ele><time>2026-04-06T09:19:43Z</time></trkpt><trkpt lat="33.55256881910321" lon="9.682787879928044"><ele>187.0</ele><time>2026-04-06T09:19:44Z</time></trkpt><trkpt lat="33.55234463157483" lon="9.682828141683965"><ele>187.0</ele><time>2026-04-06T09:19:45Z</time></trkpt><trkpt lat="33.55212034218706" lon="9.682868985264866"><ele>187.0</ele><time>2026-04-06T09:19:46Z</time></trkpt><trkpt lat="33.551897338740716" lon="9.682910210352757"><ele>187.0</ele><time>2026-04-06T09:19:47Z</time></trkpt><trkpt lat="33.5516760581565" lon="9.68295384970848"><ele>187.0</ele><time>2026-04-06T09:19:48Z</time></trkpt><trkpt lat="33.55145309720851" lon="9.683000529222895"><ele>187.0</ele><time>2026-04-06T09:19:49Z</time></trkpt><trkpt lat="33.55123131006723" lon="9.683048878073956"><ele>187.0</ele><time>2026-04-06T09:19:50Z</time></trkpt><trkpt lat="33.551009388824966" lon="9.683097601298796"><ele>186.33333333333334</ele><time>2026-04-06T09:19:51Z</time></trkpt><trkpt lat="33.55079301084637" lon="9.683141523282368"><ele>185.66666666666666</ele><time>2026-04-06T09:19:52Z</time></trkpt><trkpt lat="33.55057521698133" lon="9.683180503748414"><ele>185.0</ele><time>2026-04-06T09:19:53Z</time></trkpt><trkpt lat="33.55035408831681" lon="9.683217527149147"><ele>184.0</ele><time>2026-04-06T09:19:54Z</time></trkpt><trkpt lat="33.5501260265534" lon="9.683261255650224"><ele>183.0</ele><time>2026-04-06T09:19:55Z</time></trkpt><trkpt lat="33.549893564570986" lon="9.68331024051057"><ele>183.0</ele><time>2026-04-06T09:19:56Z</time></trkpt><trkpt lat="33.54966201081946" lon="9.68335922102757"><ele>183.0</ele><time>2026-04-06T09:19:57Z</time></trkpt><trkpt lat="33.549438142759236" lon="9.683407924593801"><ele>183.0</ele><time>2026-04-06T09:19:58Z</time></trkpt><trkpt lat="33.549207460358424" lon="9.683452300922225"><ele>183.0</ele><time>2026-04-06T09:19:59Z</time></trkpt><trkpt lat="33.54899744121527" lon="9.683490415749075"><ele>183.0</ele><time>2026-04-06T09:20:00Z</time></trkpt><trkpt lat="33.548786254763044" lon="9.68352817435928"><ele>182.66666666666666</ele><time>2026-04-06T09:20:01Z</time></trkpt><trkpt lat="33.548576618211804" lon="9.683566697619911"><ele>182.33333333333331</ele><time>2026-04-06T09:20:02Z</time></trkpt><trkpt lat="33.54836510365746" lon="9.683600600591632"><ele>182.0</ele><time>2026-04-06T09:20:03Z</time></trkpt><trkpt lat="33.548150748367675" lon="9.68363917477472"><ele>182.0</ele><time>2026-04-06T09:20:04Z</time></trkpt><trkpt lat="33.54793357732397" lon="9.683678953386858"><ele>182.0</ele><time>2026-04-06T09:20:05Z</time></trkpt><trkpt lat="33.54771564691378" lon="9.683723838606115"><ele>182.0</ele><time>2026-04-06T09:20:06Z</time></trkpt><trkpt lat="33.54751108846153" lon="9.683772083359365"><ele>181.66666666666666</ele><time>2026-04-06T09:20:07Z</time></trkpt><trkpt lat="33.547306083663074" lon="9.683810505047802"><ele>181.33333333333334</ele><time>2026-04-06T09:20:08Z</time></trkpt><trkpt lat="33.5470978129311" lon="9.683845903091491"><ele>181.0</ele><time>2026-04-06T09:20:09Z</time></trkpt><trkpt lat="33.54689321051326" lon="9.683882575568663"><ele>181.66666666666669</ele><time>2026-04-06T09:20:10Z</time></trkpt><trkpt lat="33.546680904384914" lon="9.683925142450851"><ele>182.33333333333334</ele><time>2026-04-06T09:20:11Z</time></trkpt><trkpt lat="33.54647547864147" lon="9.683967897073131"><ele>183.0</ele><time>2026-04-06T09:20:12Z</time></trkpt><trkpt lat="33.54627077111746" lon="9.684009314423873"><ele>183.66666666666666</ele><time>2026-04-06T09:20:13Z</time></trkpt><trkpt lat="33.54606822538326" lon="9.684048821607794"><ele>184.33333333333331</ele><time>2026-04-06T09:20:14Z</time></trkpt><trkpt lat="33.54585890887123" lon="9.68408676779565"><ele>185.0</ele><time>2026-04-06T09:20:15Z</time></trkpt><trkpt lat="33.54564725868559" lon="9.684125219258283"><ele>185.0</ele><time>2026-04-06T09:20:16Z</time></trkpt><trkpt lat="33.545438470598576" lon="9.684163889497912"><ele>185.0</ele><time>2026-04-06T09:20:17Z</time></trkpt><trkpt lat="33.54522449961069" lon="9.684201308991602"><ele>185.0</ele><time>2026-04-06T09:20:18Z</time></trkpt><trkpt lat="33.54500621648099" lon="9.684238335017858"><ele>184.5</ele><time>2026-04-06T09:20:19Z</time></trkpt><trkpt lat="33.54478274391913" lon="9.684277964990962"><ele>184.0</ele><time>2026-04-06T09:20:20Z</time></trkpt><trkpt lat="33.54455718170307" lon="9.684319447285583"><ele>184.0</ele><time>2026-04-06T09:20:21Z</time></trkpt><trkpt lat="33.54432568425016" lon="9.68436512624216"><ele>184.0</ele><time>2026-04-06T09:20:22Z</time></trkpt><trkpt lat="33.54409379595708" lon="9.684410989553976"><ele>184.5</ele><time>2026-04-06T09:20:23Z</time></trkpt><trkpt lat="33.543858702551056" lon="9.684458985627712"><ele>185.0</ele><time>2026-04-06T09:20:24Z</time></trkpt><trkpt lat="33.54362099108505" lon="9.684506831936615"><ele>185.0</ele><time>2026-04-06T09:20:25Z</time></trkpt><trkpt lat="33.54338651630994" lon="9.68455269980642"><ele>185.0</ele><time>2026-04-06T09:20:26Z</time></trkpt><trkpt lat="33.54315164167181" lon="9.68459883837132"><ele>185.0</ele><time>2026-04-06T09:20:27Z</time></trkpt><trkpt lat="33.54291474877329" lon="9.684642400262932"><ele>185.0</ele><time>2026-04-06T09:20:28Z</time></trkpt><trkpt lat="33.5426824226891" lon="9.684684386996215"><ele>185.33333333333331</ele><time>2026-04-06T09:20:29Z</time></trkpt><trkpt lat="33.54245822405432" lon="9.684725818239874"><ele>185.66666666666666</ele><time>2026-04-06T09:20:30Z</time></trkpt><trkpt lat="33.54224977535426" lon="9.684768193117023"><ele>186.0</ele><time>2026-04-06T09:20:31Z</time></trkpt><trkpt lat="33.54204047217335" lon="9.68481137882125"><ele>185.33333333333334</ele><time>2026-04-06T09:20:32Z</time></trkpt><trkpt lat="33.54183894126725" lon="9.684852715936707"><ele>184.66666666666669</ele><time>2026-04-06T09:20:33Z</time></trkpt><trkpt lat="33.541635718213435" lon="9.684894258750704"><ele>184.0</ele><time>2026-04-06T09:20:34Z</time></trkpt><trkpt lat="33.54143484267739" lon="9.684931180656813"><ele>184.0</ele><time>2026-04-06T09:20:35Z</time></trkpt><trkpt lat="33.541231317478555" lon="9.684969089905147"><ele>184.0</ele><time>2026-04-06T09:20:36Z</time></trkpt><trkpt lat="33.54102119725956" lon="9.685004843704927"><ele>184.0</ele><time>2026-04-06T09:20:37Z</time></trkpt><trkpt lat="33.54080909095261" lon="9.685042601593793"><ele>184.33333333333334</ele><time>2026-04-06T09:20:38Z</time></trkpt><trkpt lat="33.54059916721175" lon="9.685080193662788"><ele>184.66666666666666</ele><time>2026-04-06T09:20:39Z</time></trkpt><trkpt lat="33.54039402220408" lon="9.685117072781923"><ele>185.0</ele><time>2026-04-06T09:20:40Z</time></trkpt><trkpt lat="33.54019060235098" lon="9.685156721829062"><ele>185.33333333333331</ele><time>2026-04-06T09:20:41Z</time></trkpt><trkpt lat="33.53998449309003" lon="9.685195770025185"><ele>185.66666666666666</ele><time>2026-04-06T09:20:42Z</time></trkpt><trkpt lat="33.539772195176035" lon="9.685236088954213"><ele>186.0</ele><time>2026-04-06T09:20:43Z</time></trkpt><trkpt lat="33.539560502936595" lon="9.68528007818194"><ele>186.66666666666666</ele><time>2026-04-06T09:20:44Z</time></trkpt><trkpt lat="33.539343397190656" lon="9.685325043465015"><ele>187.33333333333331</ele><time>2026-04-06T09:20:45Z</time></trkpt><trkpt lat="33.53912788299774" lon="9.685369634680074"><ele>188.0</ele><time>2026-04-06T09:20:46Z</time></trkpt><trkpt lat="33.53891328427235" lon="9.685411160771553"><ele>188.33333333333331</ele><time>2026-04-06T09:20:47.001Z</time></trkpt><trkpt lat="33.53869703390051" lon="9.685454122919035"><ele>188.66666666666666</ele><time>2026-04-06T09:20:48.001Z</time></trkpt><trkpt lat="33.53848044488357" lon="9.685492550424959"><ele>189.0</ele><time>2026-04-06T09:20:49.001Z</time></trkpt><trkpt lat="33.53826191636651" lon="9.685530885159103"><ele>189.0</ele><time>2026-04-06T09:20:50.001Z</time></trkpt><trkpt lat="33.53804524970102" lon="9.685565652902497"><ele>189.0</ele><time>2026-04-06T09:20:51.001Z</time></trkpt><trkpt lat="33.53783178922222" lon="9.68559919359737"><ele>189.0</ele><time>2026-04-06T09:20:52.001Z</time></trkpt><trkpt lat="33.53761725614602" lon="9.685638790612472"><ele>188.66666666666666</ele><time>2026-04-06T09:20:53.001Z</time></trkpt><trkpt lat="33.53740864859536" lon="9.685677277252937"><ele>188.33333333333331</ele><time>2026-04-06T09:20:54.001Z</time></trkpt><trkpt lat="33.53720617961643" lon="9.685717312594681"><ele>188.0</ele><time>2026-04-06T09:20:55.001Z</time></trkpt><trkpt lat="33.537007436484664" lon="9.685753317465846"><ele>188.0</ele><time>2026-04-06T09:20:56.001Z</time></trkpt><trkpt lat="33.53681199877287" lon="9.685790675406988"><ele>188.0</ele><time>2026-04-06T09:20:57.001Z</time></trkpt><trkpt lat="33.5366167035841" lon="9.68583005881797"><ele>188.0</ele><time>2026-04-06T09:20:58.001Z</time></trkpt><trkpt lat="33.53642730151724" lon="9.685870756609722"><ele>188.0</ele><time>2026-04-06T09:20:59.001Z</time></trkpt><trkpt lat="33.53624516683817" lon="9.685907905118626"><ele>188.0</ele><time>2026-04-06T09:21:00.001Z</time></trkpt><trkpt lat="33.53606388146041" lon="9.685948658966149"><ele>188.0</ele><time>2026-04-06T09:21:01.001Z</time></trkpt><trkpt lat="33.5358940803166" lon="9.685982900809252"><ele>188.0</ele><time>2026-04-06T09:21:02.001Z</time></trkpt><trkpt lat="33.535728857595885" lon="9.686013450956318"><ele>188.0</ele><time>2026-04-06T09:21:03.001Z</time></trkpt><trkpt lat="33.53556228673817" lon="9.68603841732026"><ele>188.0</ele><time>2026-04-06T09:21:04.001Z</time></trkpt><trkpt lat="33.53539898927041" lon="9.686061949003486"><ele>187.66666666666666</ele><time>2026-04-06T09:21:05.001Z</time></trkpt><trkpt lat="33.53523590992071" lon="9.686091932993367"><ele>187.33333333333334</ele><time>2026-04-06T09:21:06.001Z</time></trkpt><trkpt lat="33.53507279196898" lon="9.686124511760694"><ele>187.0</ele><time>2026-04-06T09:21:07.001Z</time></trkpt><trkpt lat="33.53490526238238" lon="9.686159549265533"><ele>187.0</ele><time>2026-04-06T09:21:08.001Z</time></trkpt><trkpt lat="33.53473479251258" lon="9.686194860320194"><ele>187.0</ele><time>2026-04-06T09:21:09.001Z</time></trkpt><trkpt lat="33.53455502567241" lon="9.686233012179219"><ele>187.0</ele><time>2026-04-06T09:21:10.001Z</time></trkpt><trkpt lat="33.53436969979104" lon="9.686273047708244"><ele>187.0</ele><time>2026-04-06T09:21:11.001Z</time></trkpt><trkpt lat="33.5341784869684" lon="9.686310835710001"><ele>187.0</ele><time>2026-04-06T09:21:12.001Z</time></trkpt><trkpt lat="33.53398342594893" lon="9.68634782449545"><ele>187.0</ele><time>2026-04-06T09:21:13.001Z</time></trkpt><trkpt lat="33.53378632305429" lon="9.686384607970135"><ele>187.0</ele><time>2026-04-06T09:21:14.001Z</time></trkpt><trkpt lat="33.53358804352533" lon="9.686422969247777"><ele>187.0</ele><time>2026-04-06T09:21:15.001Z</time></trkpt><trkpt lat="33.53339376029086" lon="9.68646353223458"><ele>187.0</ele><time>2026-04-06T09:21:16.001Z</time></trkpt><trkpt lat="33.53320096319725" lon="9.686504297194872"><ele>187.0</ele><time>2026-04-06T09:21:17.001Z</time></trkpt><trkpt lat="33.53301021490205" lon="9.686543044339993"><ele>187.0</ele><time>2026-04-06T09:21:18.001Z</time></trkpt><trkpt lat="33.532818181588986" lon="9.686579671507346"><ele>187.0</ele><time>2026-04-06T09:21:19.001Z</time></trkpt><trkpt lat="33.532629872602946" lon="9.68661098902001"><ele>187.33333333333334</ele><time>2026-04-06T09:21:20.001Z</time></trkpt><trkpt lat="33.53243988392687" lon="9.686640402822096"><ele>187.66666666666666</ele><time>2026-04-06T09:21:21.001Z</time></trkpt><trkpt lat="33.532254994751895" lon="9.68667544266093"><ele>188.0</ele><time>2026-04-06T09:21:22.001Z</time></trkpt><trkpt lat="33.532070795949664" lon="9.68671195038874"><ele>188.33333333333331</ele><time>2026-04-06T09:21:23.001Z</time></trkpt><trkpt lat="33.53188701126314" lon="9.686747639530791"><ele>188.66666666666666</ele><time>2026-04-06T09:21:24.001Z</time></trkpt><trkpt lat="33.5317010564325" lon="9.686783770697895"><ele>189.0</ele><time>2026-04-06T09:21:25.001Z</time></trkpt><trkpt lat="33.531517471153265" lon="9.686818687643518"><ele>189.0</ele><time>2026-04-06T09:21:26.001Z</time></trkpt><trkpt lat="33.53133887908677" lon="9.686857588717437"><ele>189.0</ele><time>2026-04-06T09:21:27.001Z</time></trkpt><trkpt lat="33.5311598264404" lon="9.686893016537795"><ele>189.0</ele><time>2026-04-06T09:21:28.001Z</time></trkpt><trkpt lat="33.53098178391813" lon="9.686928818777202"><ele>189.66666666666666</ele><time>2026-04-06T09:21:29.001Z</time></trkpt><trkpt lat="33.53080197501335" lon="9.686965315060302"><ele>190.33333333333331</ele><time>2026-04-06T09:21:30.001Z</time></trkpt><trkpt lat="33.53062626618899" lon="9.687003698933335"><ele>191.0</ele><time>2026-04-06T09:21:31.001Z</time></trkpt><trkpt lat="33.53045076339393" lon="9.687041638541897"><ele>190.33333333333331</ele><time>2026-04-06T09:21:32.001Z</time></trkpt><trkpt lat="33.53027338515913" lon="9.687074654630262"><ele>189.66666666666666</ele><time>2026-04-06T09:21:33.001Z</time></trkpt><trkpt lat="33.53009657775314" lon="9.687105227357764"><ele>189.0</ele><time>2026-04-06T09:21:34.001Z</time></trkpt><trkpt lat="33.529920637718554" lon="9.687138332015346"><ele>189.0</ele><time>2026-04-06T09:21:35.001Z</time></trkpt><trkpt lat="33.52974469455591" lon="9.687167145340622"><ele>189.0</ele><time>2026-04-06T09:21:36.001Z</time></trkpt><trkpt lat="33.52956559130172" lon="9.687196557033845"><ele>189.0</ele><time>2026-04-06T09:21:37.001Z</time></trkpt><trkpt lat="33.52938677457785" lon="9.68722830186834"><ele>189.33333333333334</ele><time>2026-04-06T09:21:38.001Z</time></trkpt><trkpt lat="33.52921055256014" lon="9.687260433862567"><ele>189.66666666666669</ele><time>2026-04-06T09:21:39.001Z</time></trkpt><trkpt lat="33.5290300492022" lon="9.687291070556654"><ele>190.0</ele><time>2026-04-06T09:21:40.001Z</time></trkpt><trkpt lat="33.52885172616243" lon="9.687320837754795"><ele>190.0</ele><time>2026-04-06T09:21:41.001Z</time></trkpt><trkpt lat="33.52867600046314" lon="9.68735409926505"><ele>190.0</ele><time>2026-04-06T09:21:42.001Z</time></trkpt><trkpt lat="33.52849765015463" lon="9.687388137223717"><ele>190.0</ele><time>2026-04-06T09:21:43.001Z</time></trkpt><trkpt lat="33.52832090248859" lon="9.68742334362112"><ele>190.0</ele><time>2026-04-06T09:21:44.001Z</time></trkpt><trkpt lat="33.52814346425969" lon="9.687458145608238"><ele>190.0</ele><time>2026-04-06T09:21:45.001Z</time></trkpt><trkpt lat="33.5279610015175" lon="9.687495650167937"><ele>190.0</ele><time>2026-04-06T09:21:46.001Z</time></trkpt><trkpt lat="33.527773518382325" lon="9.687533999334924"><ele>189.0</ele><time>2026-04-06T09:21:47.001Z</time></trkpt><trkpt lat="33.52758238725521" lon="9.687572599818802"><ele>188.0</ele><time>2026-04-06T09:21:48.001Z</time></trkpt><trkpt lat="33.527384725866504" lon="9.6876107774586"><ele>187.0</ele><time>2026-04-06T09:21:49.001Z</time></trkpt><trkpt lat="33.527179099523984" lon="9.687654815138991"><ele>187.0</ele><time>2026-04-06T09:21:50.001Z</time></trkpt><trkpt lat="33.52696181164863" lon="9.687699915944126"><ele>187.0</ele><time>2026-04-06T09:21:51.001Z</time></trkpt><trkpt lat="33.526731802191236" lon="9.687743766672199"><ele>187.5</ele><time>2026-04-06T09:21:52.001Z</time></trkpt><trkpt lat="33.52649416025963" lon="9.687788050610187"><ele>188.0</ele><time>2026-04-06T09:21:53.001Z</time></trkpt><trkpt lat="33.52624404386108" lon="9.687833127610585"><ele>188.0</ele><time>2026-04-06T09:21:54.001Z</time></trkpt><trkpt lat="33.525993132440014" lon="9.687881128327755"><ele>188.0</ele><time>2026-04-06T09:21:55.001Z</time></trkpt><trkpt lat="33.525742308918254" lon="9.687930580353466"><ele>188.0</ele><time>2026-04-06T09:21:56.001Z</time></trkpt><trkpt lat="33.52549855927173" lon="9.687980788465891"><ele>188.0</ele><time>2026-04-06T09:21:57.001Z</time></trkpt><trkpt lat="33.52502559567364" lon="9.68807550912665"><ele>187.0</ele><time>2026-04-06T09:21:59.001Z</time></trkpt><trkpt lat="33.524786451747474" lon="9.68811392211755"><ele>186.0</ele><time>2026-04-06T09:22:00.001Z</time></trkpt><trkpt lat="33.524537484009514" lon="9.688144042475017"><ele>186.0</ele><time>2026-04-06T09:22:01.001Z</time></trkpt><trkpt lat="33.524293070269835" lon="9.68818827885054"><ele>186.0</ele><time>2026-04-06T09:22:02.001Z</time></trkpt><trkpt lat="33.52404054343162" lon="9.688249501092473"><ele>186.0</ele><time>2026-04-06T09:22:03.001Z</time></trkpt><trkpt lat="33.52379548657964" lon="9.68829804915855"><ele>186.0</ele><time>2026-04-06T09:22:04.001Z</time></trkpt><trkpt lat="33.52354637223365" lon="9.688341801717135"><ele>186.0</ele><time>2026-04-06T09:22:05.001Z</time></trkpt><trkpt lat="33.523290918515656" lon="9.688390178189952"><ele>186.0</ele><time>2026-04-06T09:22:06.001Z</time></trkpt><trkpt lat="33.52304473526735" lon="9.688436710701662"><ele>187.5</ele><time>2026-04-06T09:22:07.001Z</time></trkpt><trkpt lat="33.52279356480329" lon="9.688486825423206"><ele>189.0</ele><time>2026-04-06T09:22:08.001Z</time></trkpt><trkpt lat="33.52254526270782" lon="9.688539299064338"><ele>189.0</ele><time>2026-04-06T09:22:09.001Z</time></trkpt><trkpt lat="33.52229619520196" lon="9.688584697321298"><ele>189.0</ele><time>2026-04-06T09:22:10.001Z</time></trkpt><trkpt lat="33.52204599961401" lon="9.688631485005242"><ele>190.5</ele><time>2026-04-06T09:22:11.001Z</time></trkpt><trkpt lat="33.52179516590068" lon="9.688687106772946"><ele>192.0</ele><time>2026-04-06T09:22:12.001Z</time></trkpt><trkpt lat="33.52154215206688" lon="9.688739546076409"><ele>192.0</ele><time>2026-04-06T09:22:13.001Z</time></trkpt><trkpt lat="33.52129046495175" lon="9.688789344992513"><ele>192.0</ele><time>2026-04-06T09:22:14.001Z</time></trkpt><trkpt lat="33.52103674123513" lon="9.688838373954702"><ele>192.5</ele><time>2026-04-06T09:22:15.001Z</time></trkpt><trkpt lat="33.52078695803858" lon="9.688885472120829"><ele>193.0</ele><time>2026-04-06T09:22:16.001Z</time></trkpt><trkpt lat="33.52053515592688" lon="9.688933535280418"><ele>193.5</ele><time>2026-04-06T09:22:17.001Z</time></trkpt><trkpt lat="33.520280117091566" lon="9.688983372195908"><ele>194.0</ele><time>2026-04-06T09:22:18.001Z</time></trkpt><trkpt lat="33.52002512202751" lon="9.689031577460389"><ele>194.0</ele><time>2026-04-06T09:22:19.001Z</time></trkpt><trkpt lat="33.51976919963154" lon="9.689076405639023"><ele>194.0</ele><time>2026-04-06T09:22:20.001Z</time></trkpt><trkpt lat="33.51951206638166" lon="9.689119805681734"><ele>194.5</ele><time>2026-04-06T09:22:21.001Z</time></trkpt><trkpt lat="33.519250021300245" lon="9.689166334186167"><ele>195.0</ele><time>2026-04-06T09:22:22.001Z</time></trkpt><trkpt lat="33.518990137138026" lon="9.689214799701622"><ele>195.5</ele><time>2026-04-06T09:22:23.001Z</time></trkpt><trkpt lat="33.51873402167966" lon="9.689264157635101"><ele>196.0</ele><time>2026-04-06T09:22:24.001Z</time></trkpt><trkpt lat="33.51847571143922" lon="9.68931136960322"><ele>196.0</ele><time>2026-04-06T09:22:25.001Z</time></trkpt><trkpt lat="33.51821146779642" lon="9.689360560360145"><ele>196.0</ele><time>2026-04-06T09:22:26.001Z</time></trkpt><trkpt lat="33.51793991272564" lon="9.689415502730014"><ele>197.5</ele><time>2026-04-06T09:22:27.001Z</time></trkpt><trkpt lat="33.517660893257954" lon="9.689471014521313"><ele>199.0</ele><time>2026-04-06T09:22:28.001Z</time></trkpt><trkpt lat="33.51738221976829" lon="9.689523998714543"><ele>199.0</ele><time>2026-04-06T09:22:29.001Z</time></trkpt><trkpt lat="33.51711036008895" lon="9.689574547451045"><ele>199.0</ele><time>2026-04-06T09:22:30.001Z</time></trkpt><trkpt lat="33.516841193420916" lon="9.689628543387025"><ele>200.5</ele><time>2026-04-06T09:22:31.001Z</time></trkpt><trkpt lat="33.51657484293558" lon="9.68968210840253"><ele>202.0</ele><time>2026-04-06T09:22:32.001Z</time></trkpt><trkpt lat="33.516312042994" lon="9.68973433096252"><ele>203.0</ele><time>2026-04-06T09:22:33.001Z</time></trkpt><trkpt lat="33.51605360068712" lon="9.689782324637598"><ele>204.0</ele><time>2026-04-06T09:22:34.001Z</time></trkpt><trkpt lat="33.51579674615299" lon="9.689828696079562"><ele>204.0</ele><time>2026-04-06T09:22:35.001Z</time></trkpt><trkpt lat="33.51554520605376" lon="9.689875925918956"><ele>204.0</ele><time>2026-04-06T09:22:36.001Z</time></trkpt><trkpt lat="33.515295782078184" lon="9.689921400841005"><ele>205.0</ele><time>2026-04-06T09:22:37.001Z</time></trkpt><trkpt lat="33.51504687164384" lon="9.689962471246655"><ele>206.0</ele><time>2026-04-06T09:22:38.001Z</time></trkpt><trkpt lat="33.514795364975264" lon="9.690005363911727"><ele>207.5</ele><time>2026-04-06T09:22:39.001Z</time></trkpt><trkpt lat="33.51453941771354" lon="9.690046526183052"><ele>209.0</ele><time>2026-04-06T09:22:40.001Z</time></trkpt><trkpt lat="33.51427806150626" lon="9.690099298271855"><ele>209.0</ele><time>2026-04-06T09:22:41.001Z</time></trkpt><trkpt lat="33.514011891327904" lon="9.690165391339761"><ele>209.0</ele><time>2026-04-06T09:22:42.001Z</time></trkpt><trkpt lat="33.51374495612434" lon="9.690238830268347"><ele>206.0</ele><time>2026-04-06T09:22:43.001Z</time></trkpt><trkpt lat="33.51347413678312" lon="9.69031344282014"><ele>203.0</ele><time>2026-04-06T09:22:44.001Z</time></trkpt><trkpt lat="33.513201870936456" lon="9.690383202505675"><ele>203.0</ele><time>2026-04-06T09:22:45.001Z</time></trkpt><trkpt lat="33.51292734232346" lon="9.690446608219217"><ele>203.0</ele><time>2026-04-06T09:22:46.001Z</time></trkpt><trkpt lat="33.512655526406924" lon="9.690509497486959"><ele>204.5</ele><time>2026-04-06T09:22:47.001Z</time></trkpt><trkpt lat="33.51238500657293" lon="9.690569726629965"><ele>206.0</ele><time>2026-04-06T09:22:48.001Z</time></trkpt><trkpt lat="33.512118763494804" lon="9.690629553697102"><ele>207.5</ele><time>2026-04-06T09:22:49.001Z</time></trkpt><trkpt lat="33.511858500551995" lon="9.690686144124186"><ele>209.0</ele><time>2026-04-06T09:22:50.001Z</time></trkpt><trkpt lat="33.511609310717674" lon="9.69074044097637"><ele>209.0</ele><time>2026-04-06T09:22:51.001Z</time></trkpt><trkpt lat="33.511365085297435" lon="9.690796232466871"><ele>209.0</ele><time>2026-04-06T09:22:52.001Z</time></trkpt><trkpt lat="33.51112740778566" lon="9.690851795440603"><ele>210.0</ele><time>2026-04-06T09:22:53.001Z</time></trkpt><trkpt lat="33.510894429532485" lon="9.690906393369367"><ele>211.0</ele><time>2026-04-06T09:22:54.001Z</time></trkpt><trkpt lat="33.510660600730425" lon="9.690958951763339"><ele>211.0</ele><time>2026-04-06T09:22:55.001Z</time></trkpt><trkpt lat="33.51042826061027" lon="9.691013016901959"><ele>211.0</ele><time>2026-04-06T09:22:56.001Z</time></trkpt><trkpt lat="33.51019535972278" lon="9.691069706404084"><ele>209.5</ele><time>2026-04-06T09:22:57.001Z</time></trkpt><trkpt lat="33.50995906713334" lon="9.691128740173836"><ele>208.0</ele><time>2026-04-06T09:22:58.001Z</time></trkpt><trkpt lat="33.509720527703045" lon="9.691185872632557"><ele>209.0</ele><time>2026-04-06T09:22:59.001Z</time></trkpt><trkpt lat="33.5094828986499" lon="9.691247220923282"><ele>210.0</ele><time>2026-04-06T09:23:00.001Z</time></trkpt><trkpt lat="33.50923815686955" lon="9.691309467611347"><ele>210.0</ele><time>2026-04-06T09:23:01.001Z</time></trkpt><trkpt lat="33.5089902690171" lon="9.691373608627844"><ele>210.0</ele><time>2026-04-06T09:23:02.001Z</time></trkpt><trkpt lat="33.508738096018625" lon="9.691435573642975"><ele>208.5</ele><time>2026-04-06T09:23:03.001Z</time></trkpt><trkpt lat="33.50848043751505" lon="9.691493211623687"><ele>207.0</ele><time>2026-04-06T09:23:04.001Z</time></trkpt><trkpt lat="33.50821747660713" lon="9.691551400031662"><ele>207.0</ele><time>2026-04-06T09:23:05.001Z</time></trkpt><trkpt lat="33.50795176571928" lon="9.691615989701456"><ele>207.0</ele><time>2026-04-06T09:23:06.001Z</time></trkpt><trkpt lat="33.50768493413274" lon="9.691683097689356"><ele>205.0</ele><time>2026-04-06T09:23:07.001Z</time></trkpt><trkpt lat="33.50741416142713" lon="9.69175097142931"><ele>203.0</ele><time>2026-04-06T09:23:08.001Z</time></trkpt><trkpt lat="33.50714065442068" lon="9.691818750209714"><ele>203.0</ele><time>2026-04-06T09:23:09.001Z</time></trkpt><trkpt lat="33.506864422990894" lon="9.691882732639579"><ele>203.0</ele><time>2026-04-06T09:23:10.001Z</time></trkpt><trkpt lat="33.50658921826767" lon="9.691944803830605"><ele>203.0</ele><time>2026-04-06T09:23:11.001Z</time></trkpt><trkpt lat="33.506311360247224" lon="9.692009503973281"><ele>203.0</ele><time>2026-04-06T09:23:12.001Z</time></trkpt><trkpt lat="33.50603470367959" lon="9.692076637920424"><ele>203.0</ele><time>2026-04-06T09:23:13.001Z</time></trkpt><trkpt lat="33.505759916979116" lon="9.692142893408809"><ele>203.0</ele><time>2026-04-06T09:23:14.001Z</time></trkpt><trkpt lat="33.50548626686769" lon="9.69221073322976"><ele>202.5</ele><time>2026-04-06T09:23:15.001Z</time></trkpt><trkpt lat="33.50521275304321" lon="9.692278312435816"><ele>202.0</ele><time>2026-04-06T09:23:16.001Z</time></trkpt><trkpt lat="33.5049434895965" lon="9.692344125921446"><ele>202.0</ele><time>2026-04-06T09:23:17.001Z</time></trkpt><trkpt lat="33.50467041085813" lon="9.692406816005343"><ele>202.0</ele><time>2026-04-06T09:23:18.001Z</time></trkpt><trkpt lat="33.50440716941984" lon="9.692472865719758"><ele>203.0</ele><time>2026-04-06T09:23:19.001Z</time></trkpt><trkpt lat="33.50414800257029" lon="9.692538184522354"><ele>204.0</ele><time>2026-04-06T09:23:20.001Z</time></trkpt><trkpt lat="33.50388605821162" lon="9.692601633550437"><ele>203.5</ele><time>2026-04-06T09:23:21.001Z</time></trkpt><trkpt lat="33.50361581018765" lon="9.6926652860977"><ele>203.0</ele><time>2026-04-06T09:23:22.001Z</time></trkpt><trkpt lat="33.503342585631614" lon="9.692726624231295"><ele>203.0</ele><time>2026-04-06T09:23:23.001Z</time></trkpt><trkpt lat="33.503065388651315" lon="9.692789724436134"><ele>203.0</ele><time>2026-04-06T09:23:24.001Z</time></trkpt><trkpt lat="33.50278648292568" lon="9.692857516191939"><ele>202.5</ele><time>2026-04-06T09:23:25.001Z</time></trkpt><trkpt lat="33.50250599665021" lon="9.69292750430245"><ele>202.0</ele><time>2026-04-06T09:23:26.001Z</time></trkpt><trkpt lat="33.50222536159855" lon="9.69299085779909"><ele>200.5</ele><time>2026-04-06T09:23:27.001Z</time></trkpt><trkpt lat="33.50194587977159" lon="9.69305060657767"><ele>199.0</ele><time>2026-04-06T09:23:28.001Z</time></trkpt><trkpt lat="33.50166696346959" lon="9.693107335523212"><ele>199.0</ele><time>2026-04-06T09:23:29.002Z</time></trkpt><trkpt lat="33.50138708270453" lon="9.693176379408227"><ele>199.0</ele><time>2026-04-06T09:23:30.002Z</time></trkpt><trkpt lat="33.50110962261461" lon="9.693242846617721"><ele>199.5</ele><time>2026-04-06T09:23:31.002Z</time></trkpt><trkpt lat="33.50083534570613" lon="9.69330524910507"><ele>200.0</ele><time>2026-04-06T09:23:32.002Z</time></trkpt><trkpt lat="33.500559676686976" lon="9.6933683376358"><ele>199.5</ele><time>2026-04-06T09:23:33.002Z</time></trkpt><trkpt lat="33.500283158626786" lon="9.693432618628346"><ele>199.0</ele><time>2026-04-06T09:23:34.002Z</time></trkpt><trkpt lat="33.50000439253298" lon="9.693496354098905"><ele>199.0</ele><time>2026-04-06T09:23:35.002Z</time></trkpt><trkpt lat="33.49973109155478" lon="9.693558341817575"><ele>199.0</ele><time>2026-04-06T09:23:36.002Z</time></trkpt><trkpt lat="33.499457560681584" lon="9.693619604278487"><ele>201.0</ele><time>2026-04-06T09:23:37.002Z</time></trkpt><trkpt lat="33.49918687167339" lon="9.693680332629546"><ele>203.0</ele><time>2026-04-06T09:23:38.002Z</time></trkpt><trkpt lat="33.49891691225051" lon="9.693738170841002"><ele>203.0</ele><time>2026-04-06T09:23:39.002Z</time></trkpt><trkpt lat="33.4986460422989" lon="9.69379465601087"><ele>203.0</ele><time>2026-04-06T09:23:40.002Z</time></trkpt><trkpt lat="33.49837290584049" lon="9.693848013826358"><ele>203.0</ele><time>2026-04-06T09:23:41.001Z</time></trkpt><trkpt lat="33.49809648178854" lon="9.693893807033174"><ele>203.0</ele><time>2026-04-06T09:23:42.001Z</time></trkpt><trkpt lat="33.4978190264984" lon="9.69393907169132"><ele>202.0</ele><time>2026-04-06T09:23:43.001Z</time></trkpt><trkpt lat="33.49754272940497" lon="9.693986067170396"><ele>201.0</ele><time>2026-04-06T09:23:44.001Z</time></trkpt><trkpt lat="33.497264758089514" lon="9.694036028068403"><ele>200.5</ele><time>2026-04-06T09:23:45.001Z</time></trkpt><trkpt lat="33.4969853157529" lon="9.69408762514273"><ele>200.0</ele><time>2026-04-06T09:23:46.001Z</time></trkpt><trkpt lat="33.49670747601923" lon="9.694139994579988"><ele>200.0</ele><time>2026-04-06T09:23:47.001Z</time></trkpt><trkpt lat="33.49643574246723" lon="9.69419164421054"><ele>200.0</ele><time>2026-04-06T09:23:48.001Z</time></trkpt><trkpt lat="33.49616567441468" lon="9.694243543187227"><ele>200.0</ele><time>2026-04-06T09:23:49.001Z</time></trkpt><trkpt lat="33.495904836416926" lon="9.694289075827585"><ele>200.0</ele><time>2026-04-06T09:23:50.001Z</time></trkpt><trkpt lat="33.495650893637745" lon="9.694332662404404"><ele>201.5</ele><time>2026-04-06T09:23:51.001Z</time></trkpt><trkpt lat="33.495396118982605" lon="9.69437740035599"><ele>203.0</ele><time>2026-04-06T09:23:52.001Z</time></trkpt><trkpt lat="33.49513470516235" lon="9.69442576461985"><ele>203.5</ele><time>2026-04-06T09:23:53.001Z</time></trkpt><trkpt lat="33.49486661256792" lon="9.694476583023837"><ele>204.0</ele><time>2026-04-06T09:23:54.001Z</time></trkpt><trkpt lat="33.49459826258375" lon="9.694528494224324"><ele>204.0</ele><time>2026-04-06T09:23:55.001Z</time></trkpt><trkpt lat="33.49433446931878" lon="9.694578390168866"><ele>204.0</ele><time>2026-04-06T09:23:56.001Z</time></trkpt><trkpt lat="33.49406946129563" lon="9.694628885918734"><ele>204.0</ele><time>2026-04-06T09:23:57.001Z</time></trkpt><trkpt lat="33.49380495969439" lon="9.694677675635813"><ele>204.0</ele><time>2026-04-06T09:23:58.001Z</time></trkpt><trkpt lat="33.49353631092739" lon="9.694727989580617"><ele>204.5</ele><time>2026-04-06T09:23:59.001Z</time></trkpt><trkpt lat="33.49327231618361" lon="9.69478208010461"><ele>205.0</ele><time>2026-04-06T09:24:00.001Z</time></trkpt><trkpt lat="33.49300579487404" lon="9.694836225938525"><ele>206.5</ele><time>2026-04-06T09:24:01.001Z</time></trkpt><trkpt lat="33.49273866477021" lon="9.694887419633357"><ele>208.0</ele><time>2026-04-06T09:24:02.001Z</time></trkpt><trkpt lat="33.4924719850457" lon="9.694935629196605"><ele>208.0</ele><time>2026-04-06T09:24:03.001Z</time></trkpt><trkpt lat="33.492207836201366" lon="9.694980737229356"><ele>208.0</ele><time>2026-04-06T09:24:04.001Z</time></trkpt><trkpt lat="33.49194329446074" lon="9.695023549761506"><ele>208.0</ele><time>2026-04-06T09:24:05.001Z</time></trkpt><trkpt lat="33.49167988037128" lon="9.69506978552739"><ele>208.0</ele><time>2026-04-06T09:24:06.001Z</time></trkpt><trkpt lat="33.49141498743888" lon="9.69511939240164"><ele>208.0</ele><time>2026-04-06T09:24:07.001Z</time></trkpt><trkpt lat="33.49114949513544" lon="9.695170262248196"><ele>208.0</ele><time>2026-04-06T09:24:08.001Z</time></trkpt><trkpt lat="33.49088454332416" lon="9.695222923800513"><ele>208.5</ele><time>2026-04-06T09:24:09.001Z</time></trkpt><trkpt lat="33.49061857344669" lon="9.695274528894924"><ele>209.0</ele><time>2026-04-06T09:24:10.001Z</time></trkpt><trkpt lat="33.49035417438914" lon="9.695321972760851"><ele>209.0</ele><time>2026-04-06T09:24:11.001Z</time></trkpt><trkpt lat="33.49008771594897" lon="9.695367953279066"><ele>209.0</ele><time>2026-04-06T09:24:12.001Z</time></trkpt><trkpt lat="33.489819538825515" lon="9.695415533339721"><ele>208.0</ele><time>2026-04-06T09:24:13.001Z</time></trkpt><trkpt lat="33.48955147507612" lon="9.695463042114453"><ele>207.0</ele><time>2026-04-06T09:24:14.001Z</time></trkpt><trkpt lat="33.489284147191" lon="9.695510481048405"><ele>207.0</ele><time>2026-04-06T09:24:15.001Z</time></trkpt><trkpt lat="33.489018076226444" lon="9.695557776277303"><ele>207.0</ele><time>2026-04-06T09:24:16.001Z</time></trkpt><trkpt lat="33.48875216199286" lon="9.695605612466768"><ele>205.0</ele><time>2026-04-06T09:24:17.001Z</time></trkpt><trkpt lat="33.48848912686712" lon="9.695652861242229"><ele>203.0</ele><time>2026-04-06T09:24:18.001Z</time></trkpt><trkpt lat="33.48822523728512" lon="9.695699168422948"><ele>203.0</ele><time>2026-04-06T09:24:19.001Z</time></trkpt><trkpt lat="33.48796363622643" lon="9.695745146294458"><ele>203.0</ele><time>2026-04-06T09:24:20.001Z</time></trkpt><trkpt lat="33.48770075170048" lon="9.695795089914627"><ele>203.5</ele><time>2026-04-06T09:24:21.001Z</time></trkpt><trkpt lat="33.487443632124894" lon="9.695849032531894"><ele>204.0</ele><time>2026-04-06T09:24:22.001Z</time></trkpt><trkpt lat="33.48718475321485" lon="9.695901111244995"><ele>203.0</ele><time>2026-04-06T09:24:23.001Z</time></trkpt><trkpt lat="33.48692228634391" lon="9.695951415022332"><ele>202.0</ele><time>2026-04-06T09:24:24.001Z</time></trkpt><trkpt lat="33.48665513978721" lon="9.696002968638599"><ele>202.0</ele><time>2026-04-06T09:24:25.001Z</time></trkpt><trkpt lat="33.4863862444988" lon="9.696053614478682"><ele>202.0</ele><time>2026-04-06T09:24:26.001Z</time></trkpt><trkpt lat="33.48611872371774" lon="9.696102640432821"><ele>201.0</ele><time>2026-04-06T09:24:27.001Z</time></trkpt><trkpt lat="33.4858505535688" lon="9.696147122266137"><ele>200.0</ele><time>2026-04-06T09:24:28.001Z</time></trkpt><trkpt lat="33.48558325321683" lon="9.696191156697854"><ele>199.5</ele><time>2026-04-06T09:24:29.001Z</time></trkpt><trkpt lat="33.48531404013018" lon="9.696238547557801"><ele>199.0</ele><time>2026-04-06T09:24:30.001Z</time></trkpt><trkpt lat="33.48504737890394" lon="9.696284113858553"><ele>199.0</ele><time>2026-04-06T09:24:31.001Z</time></trkpt><trkpt lat="33.48478764475418" lon="9.696332909692993"><ele>199.0</ele><time>2026-04-06T09:24:32.001Z</time></trkpt><trkpt lat="33.484530426806884" lon="9.6963830747611"><ele>199.0</ele><time>2026-04-06T09:24:33.001Z</time></trkpt><trkpt lat="33.484270469403825" lon="9.69643161683443"><ele>199.0</ele><time>2026-04-06T09:24:34.001Z</time></trkpt><trkpt lat="33.48401044315246" lon="9.696480547476872"><ele>199.0</ele><time>2026-04-06T09:24:35.001Z</time></trkpt><trkpt lat="33.483749015417445" lon="9.696528750980487"><ele>199.0</ele><time>2026-04-06T09:24:36.001Z</time></trkpt><trkpt lat="33.483483972628825" lon="9.696576583228374"><ele>199.0</ele><time>2026-04-06T09:24:37.001Z</time></trkpt><trkpt lat="33.48321639714037" lon="9.696624337508483"><ele>199.0</ele><time>2026-04-06T09:24:38.001Z</time></trkpt><trkpt lat="33.48294781034363" lon="9.696672355022518"><ele>200.0</ele><time>2026-04-06T09:24:39.001Z</time></trkpt><trkpt lat="33.48267865900422" lon="9.696717191611505"><ele>201.0</ele><time>2026-04-06T09:24:40.001Z</time></trkpt><trkpt lat="33.48240703637203" lon="9.696762141359503"><ele>201.0</ele><time>2026-04-06T09:24:41.001Z</time></trkpt><trkpt lat="33.482138729735205" lon="9.69680798263563"><ele>201.0</ele><time>2026-04-06T09:24:42.001Z</time></trkpt><trkpt lat="33.48186712132351" lon="9.696857010414142"><ele>201.0</ele><time>2026-04-06T09:24:43.001Z</time></trkpt><trkpt lat="33.481597623336896" lon="9.696902848317725"><ele>201.0</ele><time>2026-04-06T09:24:44.001Z</time></trkpt><trkpt lat="33.48132536754597" lon="9.696951959811901"><ele>201.5</ele><time>2026-04-06T09:24:45.001Z</time></trkpt><trkpt lat="33.48105386165901" lon="9.697002872254215"><ele>202.0</ele><time>2026-04-06T09:24:46.001Z</time></trkpt><trkpt lat="33.480784527556736" lon="9.697054143522251"><ele>202.0</ele><time>2026-04-06T09:24:47.001Z</time></trkpt><trkpt lat="33.48051584979552" lon="9.697103489417728"><ele>202.0</ele><time>2026-04-06T09:24:48.001Z</time></trkpt><trkpt lat="33.480245996372176" lon="9.697156014289195"><ele>201.5</ele><time>2026-04-06T09:24:49.001Z</time></trkpt><trkpt lat="33.479977793608484" lon="9.697207014417472"><ele>201.0</ele><time>2026-04-06T09:24:50.001Z</time></trkpt><trkpt lat="33.479708657540996" lon="9.697259955853664"><ele>200.5</ele><time>2026-04-06T09:24:51.001Z</time></trkpt><trkpt lat="33.47943745411072" lon="9.69731277000177"><ele>200.0</ele><time>2026-04-06T09:24:52.001Z</time></trkpt><trkpt lat="33.47916526068565" lon="9.6973629941743"><ele>200.0</ele><time>2026-04-06T09:24:53.001Z</time></trkpt><trkpt lat="33.47889431868327" lon="9.697412930375371"><ele>200.0</ele><time>2026-04-06T09:24:54.001Z</time></trkpt><trkpt lat="33.478623283674295" lon="9.69746064429088"><ele>200.5</ele><time>2026-04-06T09:24:55.001Z</time></trkpt><trkpt lat="33.47835024859258" lon="9.697508482569843"><ele>201.0</ele><time>2026-04-06T09:24:56.001Z</time></trkpt><trkpt lat="33.478079257341285" lon="9.697556786256232"><ele>201.0</ele><time>2026-04-06T09:24:57.001Z</time></trkpt><trkpt lat="33.47780853895014" lon="9.697604405898877"><ele>201.0</ele><time>2026-04-06T09:24:58.001Z</time></trkpt><trkpt lat="33.47753900778077" lon="9.697650757146713"><ele>201.0</ele><time>2026-04-06T09:24:59.001Z</time></trkpt><trkpt lat="33.47728946165739" lon="9.697698273640642"><ele>201.0</ele><time>2026-04-06T09:25:00.001Z</time></trkpt><trkpt lat="33.47705598843286" lon="9.69774394838935"><ele>200.5</ele><time>2026-04-06T09:25:01.001Z</time></trkpt><trkpt lat="33.47682938326059" lon="9.697789793757476"><ele>200.0</ele><time>2026-04-06T09:25:02.001Z</time></trkpt><trkpt lat="33.47660066903739" lon="9.697834533819245"><ele>200.0</ele><time>2026-04-06T09:25:03.001Z</time></trkpt><trkpt lat="33.476367930547724" lon="9.697876696008858"><ele>200.0</ele><time>2026-04-06T09:25:04.001Z</time></trkpt><trkpt lat="33.4761314635514" lon="9.69791949790179"><ele>199.5</ele><time>2026-04-06T09:25:05.001Z</time></trkpt><trkpt lat="33.47589672649882" lon="9.697958206800255"><ele>199.0</ele><time>2026-04-06T09:25:06.001Z</time></trkpt><trkpt lat="33.4756701015912" lon="9.697997999776401"><ele>199.0</ele><time>2026-04-06T09:25:07.001Z</time></trkpt><trkpt lat="33.475446810433006" lon="9.698037678813039"><ele>199.0</ele><time>2026-04-06T09:25:08.001Z</time></trkpt><trkpt lat="33.475223571684765" lon="9.698078936112331"><ele>200.0</ele><time>2026-04-06T09:25:09.001Z</time></trkpt><trkpt lat="33.47499602116778" lon="9.69812297739777"><ele>201.0</ele><time>2026-04-06T09:25:10.001Z</time></trkpt><trkpt lat="33.47476868756616" lon="9.69817060547086"><ele>201.5</ele><time>2026-04-06T09:25:11.001Z</time></trkpt><trkpt lat="33.474545829490424" lon="9.698214969071207"><ele>202.0</ele><time>2026-04-06T09:25:12.001Z</time></trkpt><trkpt lat="33.47432059085252" lon="9.698252888149197"><ele>202.0</ele><time>2026-04-06T09:25:13.001Z</time></trkpt><trkpt lat="33.474099166137314" lon="9.698290900872314"><ele>202.0</ele><time>2026-04-06T09:25:14.001Z</time></trkpt><trkpt lat="33.47387300256051" lon="9.698328206688513"><ele>201.5</ele><time>2026-04-06T09:25:15.001Z</time></trkpt><trkpt lat="33.473644781573356" lon="9.698367514656626"><ele>201.0</ele><time>2026-04-06T09:25:16.001Z</time></trkpt><trkpt lat="33.473412040584066" lon="9.698413155891537"><ele>201.0</ele><time>2026-04-06T09:25:17.001Z</time></trkpt><trkpt lat="33.473177551712205" lon="9.698461578464991"><ele>201.0</ele><time>2026-04-06T09:25:18.001Z</time></trkpt><trkpt lat="33.472944199121066" lon="9.698510018713742"><ele>200.5</ele><time>2026-04-06T09:25:19.001Z</time></trkpt><trkpt lat="33.4727090469168" lon="9.698556598522522"><ele>200.0</ele><time>2026-04-06T09:25:20.001Z</time></trkpt><trkpt lat="33.47247420304931" lon="9.698600560049544"><ele>200.0</ele><time>2026-04-06T09:25:21.001Z</time></trkpt><trkpt lat="33.47223668520066" lon="9.69864522321513"><ele>200.0</ele><time>2026-04-06T09:25:22.001Z</time></trkpt><trkpt lat="33.47199951668443" lon="9.698686346904484"><ele>200.0</ele><time>2026-04-06T09:25:23.001Z</time></trkpt><trkpt lat="33.47177702211624" lon="9.698727126191583"><ele>200.0</ele><time>2026-04-06T09:25:24.001Z</time></trkpt><trkpt lat="33.47154324632265" lon="9.698762743564687"><ele>200.0</ele><time>2026-04-06T09:25:25.001Z</time></trkpt><trkpt lat="33.47132052115458" lon="9.698794149499212"><ele>200.0</ele><time>2026-04-06T09:25:26.001Z</time></trkpt><trkpt lat="33.471096922101566" lon="9.698833445641029"><ele>199.0</ele><time>2026-04-06T09:25:27.001Z</time></trkpt><trkpt lat="33.47086035441902" lon="9.69886780128618"><ele>198.0</ele><time>2026-04-06T09:25:28.001Z</time></trkpt><trkpt lat="33.47061788517056" lon="9.698897277538668"><ele>198.0</ele><time>2026-04-06T09:25:29.001Z</time></trkpt><trkpt lat="33.47037066962397" lon="9.698924752047288"><ele>198.0</ele><time>2026-04-06T09:25:30.001Z</time></trkpt><trkpt lat="33.470121054335024" lon="9.698950808481694"><ele>198.0</ele><time>2026-04-06T09:25:31.001Z</time></trkpt><trkpt lat="33.469866355362676" lon="9.698973679461583"><ele>198.0</ele><time>2026-04-06T09:25:32.001Z</time></trkpt><trkpt lat="33.4696197236043" lon="9.698997393211593"><ele>199.0</ele><time>2026-04-06T09:25:33.001Z</time></trkpt><trkpt lat="33.469377076024344" lon="9.699017923465842"><ele>200.0</ele><time>2026-04-06T09:25:34.001Z</time></trkpt><trkpt lat="33.46912968684072" lon="9.699032548589107"><ele>200.0</ele><time>2026-04-06T09:25:35.002Z</time></trkpt><trkpt lat="33.46888634220695" lon="9.699046050257639"><ele>200.0</ele><time>2026-04-06T09:25:36.002Z</time></trkpt><trkpt lat="33.468641657794535" lon="9.699055667682138"><ele>200.0</ele><time>2026-04-06T09:25:37.002Z</time></trkpt><trkpt lat="33.468400312419796" lon="9.699066976232759"><ele>200.0</ele><time>2026-04-06T09:25:38.002Z</time></trkpt><trkpt lat="33.468154757778166" lon="9.699084232955016"><ele>199.0</ele><time>2026-04-06T09:25:39.002Z</time></trkpt><trkpt lat="33.467909348318514" lon="9.699118903046328"><ele>198.0</ele><time>2026-04-06T09:25:40.002Z</time></trkpt><trkpt lat="33.46766842141829" lon="9.699171303016675"><ele>198.0</ele><time>2026-04-06T09:25:41.002Z</time></trkpt><trkpt lat="33.467420999959" lon="9.699231437473248"><ele>198.0</ele><time>2026-04-06T09:25:42.002Z</time></trkpt><trkpt lat="33.467174068785" lon="9.699292794002806"><ele>197.5</ele><time>2026-04-06T09:25:43.002Z</time></trkpt><trkpt lat="33.46692711069342" lon="9.69935914673696"><ele>197.0</ele><time>2026-04-06T09:25:44.002Z</time></trkpt><trkpt lat="33.466679361443454" lon="9.699432156830726"><ele>197.0</ele><time>2026-04-06T09:25:45.002Z</time></trkpt><trkpt lat="33.46643115150096" lon="9.699503070718269"><ele>197.0</ele><time>2026-04-06T09:25:46.002Z</time></trkpt><trkpt lat="33.466180352499975" lon="9.699569082410097"><ele>197.5</ele><time>2026-04-06T09:25:47.002Z</time></trkpt><trkpt lat="33.4659287155662" lon="9.699630724976817"><ele>198.0</ele><time>2026-04-06T09:25:48.002Z</time></trkpt><trkpt lat="33.465675639511396" lon="9.699696826197437"><ele>197.5</ele><time>2026-04-06T09:25:49.001Z</time></trkpt><trkpt lat="33.46542672870286" lon="9.699764510288505"><ele>197.0</ele><time>2026-04-06T09:25:50.001Z</time></trkpt><trkpt lat="33.465179778517076" lon="9.699830948267685"><ele>197.0</ele><time>2026-04-06T09:25:51.001Z</time></trkpt><trkpt lat="33.46493336822296" lon="9.699898568352411"><ele>197.0</ele><time>2026-04-06T09:25:52.001Z</time></trkpt><trkpt lat="33.46468619315671" lon="9.699964476311834"><ele>198.0</ele><time>2026-04-06T09:25:53.001Z</time></trkpt><trkpt lat="33.46444067752169" lon="9.700028291429543"><ele>199.0</ele><time>2026-04-06T09:25:54.001Z</time></trkpt><trkpt lat="33.46419406652641" lon="9.700088395050521"><ele>199.0</ele><time>2026-04-06T09:25:55.001Z</time></trkpt><trkpt lat="33.4639492126022" lon="9.70014503635119"><ele>199.0</ele><time>2026-04-06T09:25:56.001Z</time></trkpt><trkpt lat="33.463704085354344" lon="9.700200126799551"><ele>199.0</ele><time>2026-04-06T09:25:57.001Z</time></trkpt><trkpt lat="33.46346151608207" lon="9.700251312996405"><ele>199.0</ele><time>2026-04-06T09:25:58.001Z</time></trkpt><trkpt lat="33.463220970095506" lon="9.700299877652446"><ele>199.0</ele><time>2026-04-06T09:25:59.001Z</time></trkpt><trkpt lat="33.46298068360065" lon="9.700350956210535"><ele>199.0</ele><time>2026-04-06T09:26:00.001Z</time></trkpt><trkpt lat="33.46274435252858" lon="9.70040040033041"><ele>198.5</ele><time>2026-04-06T09:26:01.001Z</time></trkpt><trkpt lat="33.46250697121842" lon="9.700447140855086"><ele>198.0</ele><time>2026-04-06T09:26:02.001Z</time></trkpt><trkpt lat="33.462267131737775" lon="9.700491114997376"><ele>197.5</ele><time>2026-04-06T09:26:03.001Z</time></trkpt><trkpt lat="33.46203015953556" lon="9.700533232836646"><ele>197.0</ele><time>2026-04-06T09:26:04.001Z</time></trkpt><trkpt lat="33.46180533625349" lon="9.700576839001567"><ele>197.0</ele><time>2026-04-06T09:26:05.001Z</time></trkpt><trkpt lat="33.4615966793632" lon="9.700614092377423"><ele>197.0</ele><time>2026-04-06T09:26:06.001Z</time></trkpt><trkpt lat="33.461394132404116" lon="9.700647670320079"><ele>197.0</ele><time>2026-04-06T09:26:07.001Z</time></trkpt><trkpt lat="33.46119420333007" lon="9.700681622520507"><ele>197.33333333333334</ele><time>2026-04-06T09:26:08.001Z</time></trkpt><trkpt lat="33.46099390819378" lon="9.700716997771279"><ele>197.66666666666669</ele><time>2026-04-06T09:26:09.001Z</time></trkpt><trkpt lat="33.460793130676905" lon="9.700756087289847"><ele>198.0</ele><time>2026-04-06T09:26:10.001Z</time></trkpt><trkpt lat="33.46059064510982" lon="9.7007963868347"><ele>198.0</ele><time>2026-04-06T09:26:11.001Z</time></trkpt><trkpt lat="33.46038533971921" lon="9.7008375887156"><ele>198.0</ele><time>2026-04-06T09:26:12.001Z</time></trkpt><trkpt lat="33.46018191428171" lon="9.700879110594132"><ele>198.0</ele><time>2026-04-06T09:26:13.001Z</time></trkpt><trkpt lat="33.45997565221187" lon="9.70092070101831"><ele>198.0</ele><time>2026-04-06T09:26:14.001Z</time></trkpt><trkpt lat="33.45977013372391" lon="9.70096236099147"><ele>198.0</ele><time>2026-04-06T09:26:15.001Z</time></trkpt><trkpt lat="33.45956101631632" lon="9.701001382388243"><ele>198.0</ele><time>2026-04-06T09:26:16.001Z</time></trkpt><trkpt lat="33.45935272454286" lon="9.701039453121597"><ele>198.0</ele><time>2026-04-06T09:26:17.001Z</time></trkpt><trkpt lat="33.459143692783634" lon="9.701076087123027"><ele>198.0</ele><time>2026-04-06T09:26:18.001Z</time></trkpt><trkpt lat="33.45893008159927" lon="9.701112376079605"><ele>198.0</ele><time>2026-04-06T09:26:19.001Z</time></trkpt><trkpt lat="33.45871636927216" lon="9.70114904582239"><ele>197.66666666666669</ele><time>2026-04-06T09:26:20.001Z</time></trkpt><trkpt lat="33.4585019185245" lon="9.70118690865808"><ele>197.33333333333334</ele><time>2026-04-06T09:26:21.001Z</time></trkpt><trkpt lat="33.45828840992433" lon="9.701223526614255"><ele>197.0</ele><time>2026-04-06T09:26:22.001Z</time></trkpt><trkpt lat="33.458075093585244" lon="9.701258529373337"><ele>197.0</ele><time>2026-04-06T09:26:23.001Z</time></trkpt><trkpt lat="33.457851945487974" lon="9.701291668799648"><ele>197.0</ele><time>2026-04-06T09:26:24.001Z</time></trkpt><trkpt lat="33.45762435085044" lon="9.701325409894977"><ele>197.0</ele><time>2026-04-06T09:26:25.001Z</time></trkpt><trkpt lat="33.457391883354475" lon="9.701371465430208"><ele>197.0</ele><time>2026-04-06T09:26:26.001Z</time></trkpt><trkpt lat="33.45717132335477" lon="9.701419934433993"><ele>196.66666666666669</ele><time>2026-04-06T09:26:27.001Z</time></trkpt><trkpt lat="33.456966431982615" lon="9.701456618281588"><ele>196.33333333333331</ele><time>2026-04-06T09:26:28.001Z</time></trkpt><trkpt lat="33.456761967346054" lon="9.701494506847878"><ele>196.0</ele><time>2026-04-06T09:26:29.001Z</time></trkpt><trkpt lat="33.45655758037955" lon="9.701537886695892"><ele>196.0</ele><time>2026-04-06T09:26:30.001Z</time></trkpt><trkpt lat="33.456353004885365" lon="9.701582580989685"><ele>196.0</ele><time>2026-04-06T09:26:31.001Z</time></trkpt><trkpt lat="33.4561456301203" lon="9.70163162815568"><ele>196.0</ele><time>2026-04-06T09:26:32.001Z</time></trkpt><trkpt lat="33.4559292543407" lon="9.7016754649622"><ele>196.5</ele><time>2026-04-06T09:26:33.001Z</time></trkpt><trkpt lat="33.45570662567945" lon="9.701709636893414"><ele>197.0</ele><time>2026-04-06T09:26:34.001Z</time></trkpt><trkpt lat="33.45547307061144" lon="9.701741899263917"><ele>197.5</ele><time>2026-04-06T09:26:35.001Z</time></trkpt><trkpt lat="33.455244359544736" lon="9.701780360262852"><ele>198.0</ele><time>2026-04-06T09:26:36.001Z</time></trkpt><trkpt lat="33.455011467686575" lon="9.701826209354664"><ele>198.0</ele><time>2026-04-06T09:26:37.001Z</time></trkpt><trkpt lat="33.4547711173136" lon="9.701872960418568"><ele>198.0</ele><time>2026-04-06T09:26:38.001Z</time></trkpt><trkpt lat="33.454523448360476" lon="9.701919261791733"><ele>197.5</ele><time>2026-04-06T09:26:39.001Z</time></trkpt><trkpt lat="33.45427568080996" lon="9.701967291331439"><ele>197.0</ele><time>2026-04-06T09:26:40.001Z</time></trkpt><trkpt lat="33.454037620684616" lon="9.702009327226403"><ele>197.0</ele><time>2026-04-06T09:26:41.001Z</time></trkpt><trkpt lat="33.453821712042696" lon="9.702052898562924"><ele>197.0</ele><time>2026-04-06T09:26:42.001Z</time></trkpt><trkpt lat="33.4536040002667" lon="9.702097181652004"><ele>197.0</ele><time>2026-04-06T09:26:43.001Z</time></trkpt><trkpt lat="33.453377899896985" lon="9.702135926382427"><ele>196.5</ele><time>2026-04-06T09:26:44.001Z</time></trkpt><trkpt lat="33.453151124547595" lon="9.702177916358252"><ele>196.0</ele><time>2026-04-06T09:26:45.001Z</time></trkpt><trkpt lat="33.45291956963471" lon="9.702216313473702"><ele>195.0</ele><time>2026-04-06T09:26:46.001Z</time></trkpt><trkpt lat="33.45268431759607" lon="9.70225504173243"><ele>194.0</ele><time>2026-04-06T09:26:47.001Z</time></trkpt><trkpt lat="33.452451025366614" lon="9.702296778794055"><ele>194.0</ele><time>2026-04-06T09:26:48.001Z</time></trkpt><trkpt lat="33.45221775924493" lon="9.70234122886453"><ele>194.0</ele><time>2026-04-06T09:26:49.001Z</time></trkpt><trkpt lat="33.45198489160214" lon="9.702380557610308"><ele>194.33333333333334</ele><time>2026-04-06T09:26:50.001Z</time></trkpt><trkpt lat="33.45176134843136" lon="9.702417823899484"><ele>194.66666666666669</ele><time>2026-04-06T09:26:51.001Z</time></trkpt><trkpt lat="33.45154217005211" lon="9.702458806259793"><ele>195.0</ele><time>2026-04-06T09:26:52.001Z</time></trkpt><trkpt lat="33.45133024535175" lon="9.702499119612542"><ele>195.0</ele><time>2026-04-06T09:26:53.001Z</time></trkpt><trkpt lat="33.45112045311304" lon="9.70253483876074"><ele>195.0</ele><time>2026-04-06T09:26:54.001Z</time></trkpt><trkpt lat="33.45090833847768" lon="9.702575216370917"><ele>195.0</ele><time>2026-04-06T09:26:55.001Z</time></trkpt><trkpt lat="33.45069215158724" lon="9.702614537625724"><ele>195.0</ele><time>2026-04-06T09:26:56.001Z</time></trkpt><trkpt lat="33.450459256769996" lon="9.702654232419361"><ele>195.0</ele><time>2026-04-06T09:26:57.001Z</time></trkpt><trkpt lat="33.45023496315958" lon="9.70269247248689"><ele>195.5</ele><time>2026-04-06T09:26:58.001Z</time></trkpt><trkpt lat="33.450009533307494" lon="9.702731067193376"><ele>196.0</ele><time>2026-04-06T09:26:59.001Z</time></trkpt><trkpt lat="33.449779558447624" lon="9.702771078336164"><ele>195.5</ele><time>2026-04-06T09:27:00.001Z</time></trkpt><trkpt lat="33.44954309593338" lon="9.702811038032404"><ele>195.0</ele><time>2026-04-06T09:27:01.001Z</time></trkpt><trkpt lat="33.44930242746655" lon="9.702853684097326"><ele>195.0</ele><time>2026-04-06T09:27:02.001Z</time></trkpt><trkpt lat="33.44905741211448" lon="9.702897338794465"><ele>195.0</ele><time>2026-04-06T09:27:03.001Z</time></trkpt><trkpt lat="33.448809567463556" lon="9.702942498353298"><ele>195.0</ele><time>2026-04-06T09:27:04.001Z</time></trkpt><trkpt lat="33.448560059256295" lon="9.702990411972904"><ele>195.0</ele><time>2026-04-06T09:27:05.001Z</time></trkpt><trkpt lat="33.448305391356406" lon="9.7030387782127"><ele>195.0</ele><time>2026-04-06T09:27:06.001Z</time></trkpt><trkpt lat="33.44805024960482" lon="9.703081138530564"><ele>195.0</ele><time>2026-04-06T09:27:07.001Z</time></trkpt><trkpt lat="33.4477915181975" lon="9.703123888094465"><ele>196.0</ele><time>2026-04-06T09:27:08.001Z</time></trkpt><trkpt lat="33.44753307887814" lon="9.703165293193178"><ele>197.0</ele><time>2026-04-06T09:27:09.001Z</time></trkpt><trkpt lat="33.447271092586526" lon="9.703212267594761"><ele>198.0</ele><time>2026-04-06T09:27:10.001Z</time></trkpt><trkpt lat="33.44701243014553" lon="9.703258185422216"><ele>199.0</ele><time>2026-04-06T09:27:11.001Z</time></trkpt><trkpt lat="33.44675745806926" lon="9.703306328526052"><ele>199.0</ele><time>2026-04-06T09:27:12.001Z</time></trkpt><trkpt lat="33.44650753846351" lon="9.703360008575517"><ele>199.0</ele><time>2026-04-06T09:27:13.001Z</time></trkpt><trkpt lat="33.44626125659966" lon="9.703410359870213"><ele>199.0</ele><time>2026-04-06T09:27:14.001Z</time></trkpt><trkpt lat="33.44601020499699" lon="9.703457219774938"><ele>199.0</ele><time>2026-04-06T09:27:15.001Z</time></trkpt><trkpt lat="33.4457616487508" lon="9.703502809043059"><ele>199.0</ele><time>2026-04-06T09:27:16.001Z</time></trkpt><trkpt lat="33.44551549596767" lon="9.703548366624021"><ele>199.0</ele><time>2026-04-06T09:27:17.001Z</time></trkpt><trkpt lat="33.445275260232066" lon="9.703594688085618"><ele>200.0</ele><time>2026-04-06T09:27:18.001Z</time></trkpt><trkpt lat="33.445033375166055" lon="9.703637827654106"><ele>201.0</ele><time>2026-04-06T09:27:19.001Z</time></trkpt><trkpt lat="33.44479471117471" lon="9.703681941526888"><ele>201.0</ele><time>2026-04-06T09:27:20.001Z</time></trkpt><trkpt lat="33.44455051263814" lon="9.703728137528277"><ele>201.0</ele><time>2026-04-06T09:27:21.001Z</time></trkpt><trkpt lat="33.44430476933241" lon="9.703773497933925"><ele>201.0</ele><time>2026-04-06T09:27:22.001Z</time></trkpt><trkpt lat="33.444062605637086" lon="9.7038207780661"><ele>201.0</ele><time>2026-04-06T09:27:23.001Z</time></trkpt><trkpt lat="33.44381923833208" lon="9.70386782068675"><ele>200.5</ele><time>2026-04-06T09:27:24.001Z</time></trkpt><trkpt lat="33.44357336016026" lon="9.703916093907198"><ele>200.0</ele><time>2026-04-06T09:27:25.001Z</time></trkpt><trkpt lat="33.44332918637847" lon="9.703963947949038"><ele>200.0</ele><time>2026-04-06T09:27:26.001Z</time></trkpt><trkpt lat="33.44308322802747" lon="9.704009709050467"><ele>200.0</ele><time>2026-04-06T09:27:27.001Z</time></trkpt><trkpt lat="33.44283612147051" lon="9.70405158301582"><ele>199.0</ele><time>2026-04-06T09:27:28.001Z</time></trkpt><trkpt lat="33.442587366046645" lon="9.704093479276654"><ele>198.0</ele><time>2026-04-06T09:27:29.001Z</time></trkpt><trkpt lat="33.442339345637336" lon="9.70413731657085"><ele>199.0</ele><time>2026-04-06T09:27:30.001Z</time></trkpt><trkpt lat="33.44208632394498" lon="9.704179758916291"><ele>200.0</ele><time>2026-04-06T09:27:31.001Z</time></trkpt><trkpt lat="33.44183652830729" lon="9.704219795668369"><ele>200.0</ele><time>2026-04-06T09:27:32.001Z</time></trkpt><trkpt lat="33.44158261594721" lon="9.704267070544843"><ele>200.0</ele><time>2026-04-06T09:27:33.001Z</time></trkpt><trkpt lat="33.4413371777129" lon="9.704313300645387"><ele>200.5</ele><time>2026-04-06T09:27:34.001Z</time></trkpt><trkpt lat="33.441094116971435" lon="9.704357274203511"><ele>201.0</ele><time>2026-04-06T09:27:35.001Z</time></trkpt><trkpt lat="33.440843335509044" lon="9.70440070505051"><ele>201.0</ele><time>2026-04-06T09:27:36.001Z</time></trkpt><trkpt lat="33.44059328588218" lon="9.704446136317328"><ele>201.0</ele><time>2026-04-06T09:27:37.001Z</time></trkpt><trkpt lat="33.440340321400164" lon="9.704492507364602"><ele>201.0</ele><time>2026-04-06T09:27:38.001Z</time></trkpt><trkpt lat="33.44008588529429" lon="9.704538731627066"><ele>201.0</ele><time>2026-04-06T09:27:39.001Z</time></trkpt><trkpt lat="33.43983227470486" lon="9.704583765169454"><ele>201.5</ele><time>2026-04-06T09:27:40.001Z</time></trkpt><trkpt lat="33.43957910265011" lon="9.704628522923175"><ele>202.0</ele><time>2026-04-06T09:27:41.002Z</time></trkpt><trkpt lat="33.439325784188235" lon="9.704676212721605"><ele>202.0</ele><time>2026-04-06T09:27:42.002Z</time></trkpt><trkpt lat="33.43907020177038" lon="9.704726631465446"><ele>202.0</ele><time>2026-04-06T09:27:43.002Z</time></trkpt><trkpt lat="33.43881800482294" lon="9.704773589915034"><ele>202.0</ele><time>2026-04-06T09:27:44.002Z</time></trkpt><trkpt lat="33.43856469800595" lon="9.704820553307302"><ele>202.0</ele><time>2026-04-06T09:27:45.002Z</time></trkpt><trkpt lat="33.4383146147899" lon="9.704868548865283"><ele>202.0</ele><time>2026-04-06T09:27:46.002Z</time></trkpt><trkpt lat="33.43806416405014" lon="9.704917008893286"><ele>202.0</ele><time>2026-04-06T09:27:47.002Z</time></trkpt><trkpt lat="33.43781433946967" lon="9.704964133335828"><ele>201.0</ele><time>2026-04-06T09:27:48.002Z</time></trkpt><trkpt lat="33.437562274039806" lon="9.7050128684248"><ele>200.0</ele><time>2026-04-06T09:27:49.002Z</time></trkpt><trkpt lat="33.43730341041278" lon="9.705058233719114"><ele>200.0</ele><time>2026-04-06T09:27:50.001Z</time></trkpt><trkpt lat="33.43704948581313" lon="9.705108768922148"><ele>200.0</ele><time>2026-04-06T09:27:51.001Z</time></trkpt><trkpt lat="33.43679634578295" lon="9.705156251104759"><ele>200.0</ele><time>2026-04-06T09:27:52.001Z</time></trkpt><trkpt lat="33.4365498382495" lon="9.705203162800483"><ele>200.0</ele><time>2026-04-06T09:27:53.001Z</time></trkpt><trkpt lat="33.4363036720313" lon="9.705247726649743"><ele>201.5</ele><time>2026-04-06T09:27:54.001Z</time></trkpt><trkpt lat="33.43605547644864" lon="9.705292496634353"><ele>203.0</ele><time>2026-04-06T09:27:55.001Z</time></trkpt><trkpt lat="33.43580749858545" lon="9.70533654228087"><ele>203.0</ele><time>2026-04-06T09:27:56.001Z</time></trkpt><trkpt lat="33.43556034064355" lon="9.705383184096265"><ele>203.0</ele><time>2026-04-06T09:27:57.001Z</time></trkpt><trkpt lat="33.43532307232778" lon="9.70542985365431"><ele>202.66666666666669</ele><time>2026-04-06T09:27:58.001Z</time></trkpt><trkpt lat="33.435105168430006" lon="9.705472563143877"><ele>202.33333333333331</ele><time>2026-04-06T09:27:59.001Z</time></trkpt><trkpt lat="33.43491675506611" lon="9.705515279887479"><ele>202.0</ele><time>2026-04-06T09:28:00.001Z</time></trkpt><trkpt lat="33.4347465964224" lon="9.70555107356195"><ele>202.5</ele><time>2026-04-06T09:28:01.001Z</time></trkpt><trkpt lat="33.43458832672914" lon="9.705589854750668"><ele>203.0</ele><time>2026-04-06T09:28:02.001Z</time></trkpt><trkpt lat="33.43445116448395" lon="9.705621812522885"><ele>203.5</ele><time>2026-04-06T09:28:03.001Z</time></trkpt><trkpt lat="33.43433911339727" lon="9.70564560963184"><ele>204.0</ele><time>2026-04-06T09:28:04.001Z</time></trkpt><trkpt lat="33.434244728608206" lon="9.705663021873791"><ele>204.0</ele><time>2026-04-06T09:28:05.001Z</time></trkpt><trkpt lat="33.43416383444887" lon="9.705678323916073"><ele>204.0</ele><time>2026-04-06T09:28:06.001Z</time></trkpt><trkpt lat="33.43409093145479" lon="9.705690350887854"><ele>204.0</ele><time>2026-04-06T09:28:07.001Z</time></trkpt><trkpt lat="33.434026233944934" lon="9.70569916794513"><ele>204.0</ele><time>2026-04-06T09:28:08.001Z</time></trkpt><trkpt lat="33.433919424943504" lon="9.705717309977988"><ele>204.0</ele><time>2026-04-06T09:28:10.001Z</time></trkpt><trkpt lat="33.43380307804985" lon="9.70574027765485"><ele>204.0</ele><time>2026-04-06T09:28:12.001Z</time></trkpt><trkpt lat="33.43369846103496" lon="9.705757497530092"><ele>204.0</ele><time>2026-04-06T09:28:14.001Z</time></trkpt><trkpt lat="33.43361204012012" lon="9.705767641732248"><ele>204.0</ele><time>2026-04-06T09:28:17.001Z</time></trkpt><trkpt lat="33.43348892739932" lon="9.705788727710454"><ele>204.0</ele><time>2026-04-06T09:28:19.001Z</time></trkpt><trkpt lat="33.43340241441184" lon="9.70580667846362"><ele>204.0</ele><time>2026-04-06T09:28:20.001Z</time></trkpt><trkpt lat="33.433313319487375" lon="9.705823765189225"><ele>204.0</ele><time>2026-04-06T09:28:21.001Z</time></trkpt><trkpt lat="33.43321613374854" lon="9.70584340890005"><ele>204.0</ele><time>2026-04-06T09:28:22.001Z</time></trkpt><trkpt lat="33.433107666646436" lon="9.705866786568459"><ele>204.0</ele><time>2026-04-06T09:28:23.001Z</time></trkpt><trkpt lat="33.43299147084826" lon="9.705889729364404"><ele>204.0</ele><time>2026-04-06T09:28:24.001Z</time></trkpt><trkpt lat="33.43286860601234" lon="9.705913380818183"><ele>204.0</ele><time>2026-04-06T09:28:25.001Z</time></trkpt><trkpt lat="33.43273867202771" lon="9.70594216125506"><ele>203.75</ele><time>2026-04-06T09:28:26.001Z</time></trkpt><trkpt lat="33.432600855940834" lon="9.705971807500283"><ele>203.5</ele><time>2026-04-06T09:28:27.001Z</time></trkpt><trkpt lat="33.432462872377975" lon="9.706001667217587"><ele>203.25</ele><time>2026-04-06T09:28:28.001Z</time></trkpt><trkpt lat="33.432319634267614" lon="9.706030366566184"><ele>203.0</ele><time>2026-04-06T09:28:29.001Z</time></trkpt><trkpt lat="33.43217568398226" lon="9.706059350499476"><ele>203.66666666666669</ele><time>2026-04-06T09:28:30.001Z</time></trkpt><trkpt lat="33.43202831791117" lon="9.70609276244666"><ele>204.33333333333331</ele><time>2026-04-06T09:28:31.001Z</time></trkpt><trkpt lat="33.4318817477863" lon="9.706127292277076"><ele>205.0</ele><time>2026-04-06T09:28:32.001Z</time></trkpt><trkpt lat="33.43173075101875" lon="9.706159026234921"><ele>205.0</ele><time>2026-04-06T09:28:33.001Z</time></trkpt><trkpt lat="33.43157761083731" lon="9.706186498219205"><ele>205.0</ele><time>2026-04-06T09:28:34.001Z</time></trkpt><trkpt lat="33.431420805356375" lon="9.70621584769249"><ele>205.0</ele><time>2026-04-06T09:28:35.001Z</time></trkpt><trkpt lat="33.43126523395189" lon="9.706245428316297"><ele>205.0</ele><time>2026-04-06T09:28:36.001Z</time></trkpt><trkpt lat="33.43110952118834" lon="9.706275374602438"><ele>205.0</ele><time>2026-04-06T09:28:37.001Z</time></trkpt><trkpt lat="33.430951958895875" lon="9.70630493916549"><ele>205.0</ele><time>2026-04-06T09:28:38.001Z</time></trkpt><trkpt lat="33.43079308352228" lon="9.706337979283704"><ele>205.0</ele><time>2026-04-06T09:28:39.001Z</time></trkpt><trkpt lat="33.430631559926056" lon="9.706372700485328"><ele>205.0</ele><time>2026-04-06T09:28:40.001Z</time></trkpt><trkpt lat="33.43046957807017" lon="9.706404899687675"><ele>205.0</ele><time>2026-04-06T09:28:41.001Z</time></trkpt><trkpt lat="33.43030559469213" lon="9.7064361626785"><ele>204.33333333333331</ele><time>2026-04-06T09:28:42.001Z</time></trkpt><trkpt lat="33.43013630984661" lon="9.706468257039486"><ele>203.66666666666669</ele><time>2026-04-06T09:28:43.001Z</time></trkpt><trkpt lat="33.429964993352996" lon="9.706501673798387"><ele>203.0</ele><time>2026-04-06T09:28:44.001Z</time></trkpt><trkpt lat="33.42978102062339" lon="9.70654107132859"><ele>203.0</ele><time>2026-04-06T09:28:45.001Z</time></trkpt><trkpt lat="33.429569815779445" lon="9.706581654195855"><ele>203.0</ele><time>2026-04-06T09:28:46.001Z</time></trkpt><trkpt lat="33.42936038406632" lon="9.706621032849286"><ele>203.0</ele><time>2026-04-06T09:28:47.001Z</time></trkpt><trkpt lat="33.429168528422586" lon="9.706653569059018"><ele>203.0</ele><time>2026-04-06T09:28:48.001Z</time></trkpt><trkpt lat="33.42898282428088" lon="9.70668583472742"><ele>203.0</ele><time>2026-04-06T09:28:49.001Z</time></trkpt><trkpt lat="33.428795937143725" lon="9.706722998193307"><ele>203.0</ele><time>2026-04-06T09:28:50.001Z</time></trkpt><trkpt lat="33.428604298674855" lon="9.706759204008357"><ele>203.33333333333334</ele><time>2026-04-06T09:28:51.001Z</time></trkpt><trkpt lat="33.42841118264196" lon="9.706793484406203"><ele>203.66666666666669</ele><time>2026-04-06T09:28:52.001Z</time></trkpt><trkpt lat="33.428218452171436" lon="9.706825928744626"><ele>204.0</ele><time>2026-04-06T09:28:53.001Z</time></trkpt><trkpt lat="33.42802749664114" lon="9.706861702521184"><ele>204.0</ele><time>2026-04-06T09:28:54.001Z</time></trkpt><trkpt lat="33.42783604830012" lon="9.706902196713243"><ele>204.0</ele><time>2026-04-06T09:28:55.001Z</time></trkpt><trkpt lat="33.42764090596786" lon="9.706944306412826"><ele>204.0</ele><time>2026-04-06T09:28:56.001Z</time></trkpt><trkpt lat="33.42744351538039" lon="9.706985815798543"><ele>204.0</ele><time>2026-04-06T09:28:57.001Z</time></trkpt><trkpt lat="33.42724380656005" lon="9.707026166719757"><ele>204.0</ele><time>2026-04-06T09:28:58.001Z</time></trkpt><trkpt lat="33.42704016067505" lon="9.707064586137905"><ele>204.0</ele><time>2026-04-06T09:28:59.001Z</time></trkpt><trkpt lat="33.42683504954266" lon="9.70710251550164"><ele>204.0</ele><time>2026-04-06T09:29:00.001Z</time></trkpt><trkpt lat="33.42662517343764" lon="9.70714233244551"><ele>204.0</ele><time>2026-04-06T09:29:01.001Z</time></trkpt><trkpt lat="33.42641565736271" lon="9.707181945072318"><ele>204.0</ele><time>2026-04-06T09:29:02.001Z</time></trkpt><trkpt lat="33.42620526808087" lon="9.707224797713575"><ele>204.66666666666669</ele><time>2026-04-06T09:29:03.001Z</time></trkpt><trkpt lat="33.425992114215134" lon="9.707266750475048"><ele>205.33333333333334</ele><time>2026-04-06T09:29:04.001Z</time></trkpt><trkpt lat="33.42577857830987" lon="9.707308867116053"><ele>206.0</ele><time>2026-04-06T09:29:05.001Z</time></trkpt><trkpt lat="33.42556558772163" lon="9.707348651040638"><ele>206.33333333333334</ele><time>2026-04-06T09:29:06.001Z</time></trkpt><trkpt lat="33.425349876295705" lon="9.707390984898579"><ele>206.66666666666669</ele><time>2026-04-06T09:29:07.001Z</time></trkpt><trkpt lat="33.42513123533946" lon="9.707437862608453"><ele>207.0</ele><time>2026-04-06T09:29:08.001Z</time></trkpt><trkpt lat="33.42490848809095" lon="9.70748488137782"><ele>207.0</ele><time>2026-04-06T09:29:09.001Z</time></trkpt><trkpt lat="33.42468865516333" lon="9.707534406180095"><ele>207.0</ele><time>2026-04-06T09:29:10.001Z</time></trkpt><trkpt lat="33.42446133568273" lon="9.707579579365005"><ele>207.0</ele><time>2026-04-06T09:29:11.001Z</time></trkpt><trkpt lat="33.42423590397123" lon="9.707625086846505"><ele>207.0</ele><time>2026-04-06T09:29:12.001Z</time></trkpt><trkpt lat="33.42400614076293" lon="9.707673003704668"><ele>207.0</ele><time>2026-04-06T09:29:13.001Z</time></trkpt><trkpt lat="33.42377306188465" lon="9.707720682782492"><ele>207.0</ele><time>2026-04-06T09:29:14.001Z</time></trkpt><trkpt lat="33.42353805388868" lon="9.707769595580064"><ele>207.5</ele><time>2026-04-06T09:29:15.001Z</time></trkpt><trkpt lat="33.423300709768654" lon="9.70781581504551"><ele>208.0</ele><time>2026-04-06T09:29:16.001Z</time></trkpt><trkpt lat="33.42306075678995" lon="9.70786131187534"><ele>208.0</ele><time>2026-04-06T09:29:17.001Z</time></trkpt><trkpt lat="33.4228174718291" lon="9.707909787553806"><ele>208.0</ele><time>2026-04-06T09:29:18.001Z</time></trkpt><trkpt lat="33.42257346488865" lon="9.707958129146665"><ele>208.0</ele><time>2026-04-06T09:29:19Z</time></trkpt><trkpt lat="33.422324189918164" lon="9.70800511040361"><ele>208.0</ele><time>2026-04-06T09:29:20Z</time></trkpt><trkpt lat="33.42207286544869" lon="9.708054013157573"><ele>207.0</ele><time>2026-04-06T09:29:21Z</time></trkpt><trkpt lat="33.42181750575545" lon="9.708107063342927"><ele>206.0</ele><time>2026-04-06T09:29:22Z</time></trkpt><trkpt lat="33.421565779123945" lon="9.708162058875168"><ele>206.0</ele><time>2026-04-06T09:29:23Z</time></trkpt><trkpt lat="33.42130920126217" lon="9.708214725639776"><ele>206.0</ele><time>2026-04-06T09:29:24Z</time></trkpt><trkpt lat="33.421071808585104" lon="9.708266010127636"><ele>206.0</ele><time>2026-04-06T09:29:25Z</time></trkpt><trkpt lat="33.420859742956985" lon="9.708310381175012"><ele>206.0</ele><time>2026-04-06T09:29:26Z</time></trkpt><trkpt lat="33.4206346641772" lon="9.708352776673031"><ele>206.0</ele><time>2026-04-06T09:29:27Z</time></trkpt><trkpt lat="33.420397817178355" lon="9.70839590828175"><ele>206.0</ele><time>2026-04-06T09:29:28Z</time></trkpt><trkpt lat="33.42015997202873" lon="9.70843992483775"><ele>206.0</ele><time>2026-04-06T09:29:29Z</time></trkpt><trkpt lat="33.419922827265" lon="9.708484970956876"><ele>206.0</ele><time>2026-04-06T09:29:30Z</time></trkpt><trkpt lat="33.41968325951196" lon="9.708532529546737"><ele>206.0</ele><time>2026-04-06T09:29:31Z</time></trkpt><trkpt lat="33.419458790017565" lon="9.708574354434454"><ele>206.33333333333334</ele><time>2026-04-06T09:29:32Z</time></trkpt><trkpt lat="33.41924717622621" lon="9.708610766576324"><ele>206.66666666666669</ele><time>2026-04-06T09:29:33Z</time></trkpt><trkpt lat="33.41905314445603" lon="9.708646511971121"><ele>207.0</ele><time>2026-04-06T09:29:34Z</time></trkpt><trkpt lat="33.41885165151932" lon="9.708683999628194"><ele>207.0</ele><time>2026-04-06T09:29:35Z</time></trkpt><trkpt lat="33.4186369491707" lon="9.708723474218932"><ele>207.0</ele><time>2026-04-06T09:29:36Z</time></trkpt><trkpt lat="33.41842667197754" lon="9.708768340491241"><ele>207.0</ele><time>2026-04-06T09:29:37Z</time></trkpt><trkpt lat="33.41821290341441" lon="9.708811197081117"><ele>207.0</ele><time>2026-04-06T09:29:38Z</time></trkpt><trkpt lat="33.41799980383911" lon="9.708855637380593"><ele>207.0</ele><time>2026-04-06T09:29:39Z</time></trkpt><trkpt lat="33.41778705003142" lon="9.708899959295655"><ele>207.0</ele><time>2026-04-06T09:29:40Z</time></trkpt><trkpt lat="33.417576824597774" lon="9.708937914232946"><ele>207.0</ele><time>2026-04-06T09:29:41Z</time></trkpt><trkpt lat="33.41738144436091" lon="9.708971180515936"><ele>207.0</ele><time>2026-04-06T09:29:42Z</time></trkpt><trkpt lat="33.41718193349987" lon="9.70900748399495"><ele>207.0</ele><time>2026-04-06T09:29:43Z</time></trkpt><trkpt lat="33.41697129278907" lon="9.709048022374347"><ele>206.66666666666669</ele><time>2026-04-06T09:29:44Z</time></trkpt><trkpt lat="33.41675103767833" lon="9.709095780541453"><ele>206.33333333333334</ele><time>2026-04-06T09:29:45Z</time></trkpt><trkpt lat="33.41652973686209" lon="9.709145443737729"><ele>206.0</ele><time>2026-04-06T09:29:46Z</time></trkpt><trkpt lat="33.416304960463535" lon="9.709194926442192"><ele>207.0</ele><time>2026-04-06T09:29:47.001Z</time></trkpt><trkpt lat="33.41607409992541" lon="9.70924082813001"><ele>208.0</ele><time>2026-04-06T09:29:48.001Z</time></trkpt><trkpt lat="33.41584105595552" lon="9.709281358280254"><ele>208.0</ele><time>2026-04-06T09:29:49.001Z</time></trkpt><trkpt lat="33.415614391201494" lon="9.709321289540357"><ele>208.0</ele><time>2026-04-06T09:29:50.001Z</time></trkpt><trkpt lat="33.41539331743047" lon="9.70936006983904"><ele>206.5</ele><time>2026-04-06T09:29:51.001Z</time></trkpt><trkpt lat="33.415168294023886" lon="9.70940069038335"><ele>205.0</ele><time>2026-04-06T09:29:52.001Z</time></trkpt><trkpt lat="33.41494711165414" lon="9.709447058889115"><ele>205.0</ele><time>2026-04-06T09:29:53.001Z</time></trkpt><trkpt lat="33.41472732701774" lon="9.709479217811236"><ele>205.0</ele><time>2026-04-06T09:29:54.001Z</time></trkpt><trkpt lat="33.414510883942334" lon="9.709522912117373"><ele>205.0</ele><time>2026-04-06T09:29:55.001Z</time></trkpt><trkpt lat="33.41429625673031" lon="9.709570423926396"><ele>205.0</ele><time>2026-04-06T09:29:56.001Z</time></trkpt><trkpt lat="33.4140841269675" lon="9.709618759560454"><ele>205.0</ele><time>2026-04-06T09:29:57.001Z</time></trkpt><trkpt lat="33.413872086747006" lon="9.70966369116122"><ele>205.0</ele><time>2026-04-06T09:29:58.001Z</time></trkpt><trkpt lat="33.413657258837254" lon="9.70970603834356"><ele>205.33333333333331</ele><time>2026-04-06T09:29:59.001Z</time></trkpt><trkpt lat="33.41343836366357" lon="9.709746213607382"><ele>205.66666666666669</ele><time>2026-04-06T09:30:00.001Z</time></trkpt><trkpt lat="33.41321963531295" lon="9.709785304410815"><ele>206.0</ele><time>2026-04-06T09:30:01.001Z</time></trkpt><trkpt lat="33.41300231951271" lon="9.709829449118743"><ele>206.0</ele><time>2026-04-06T09:30:02.001Z</time></trkpt><trkpt lat="33.41278466224745" lon="9.709875902383605"><ele>206.0</ele><time>2026-04-06T09:30:03.001Z</time></trkpt><trkpt lat="33.41256316319093" lon="9.709920095220014"><ele>206.0</ele><time>2026-04-06T09:30:04.001Z</time></trkpt><trkpt lat="33.412346068528805" lon="9.709964641741385"><ele>206.66666666666669</ele><time>2026-04-06T09:30:05.001Z</time></trkpt><trkpt lat="33.41213275043316" lon="9.710009672887395"><ele>207.33333333333331</ele><time>2026-04-06T09:30:06.001Z</time></trkpt><trkpt lat="33.41191587979407" lon="9.710050489395705"><ele>208.0</ele><time>2026-04-06T09:30:07.001Z</time></trkpt><trkpt lat="33.41169725608092" lon="9.710087896020552"><ele>208.0</ele><time>2026-04-06T09:30:08.001Z</time></trkpt><trkpt lat="33.411481404002004" lon="9.710126214140374"><ele>208.0</ele><time>2026-04-06T09:30:09.001Z</time></trkpt><trkpt lat="33.41126680986166" lon="9.710163661918644"><ele>208.0</ele><time>2026-04-06T09:30:10.001Z</time></trkpt><trkpt lat="33.411052156956956" lon="9.710202866941252"><ele>208.33333333333331</ele><time>2026-04-06T09:30:11.001Z</time></trkpt><trkpt lat="33.41083912161638" lon="9.710245380804645"><ele>208.66666666666669</ele><time>2026-04-06T09:30:12.001Z</time></trkpt><trkpt lat="33.41062321583076" lon="9.710290883681125"><ele>209.0</ele><time>2026-04-06T09:30:13.001Z</time></trkpt><trkpt lat="33.41040639092885" lon="9.710336135295137"><ele>209.0</ele><time>2026-04-06T09:30:14.001Z</time></trkpt><trkpt lat="33.41018934223271" lon="9.71038300394401"><ele>209.0</ele><time>2026-04-06T09:30:15.001Z</time></trkpt><trkpt lat="33.4099701288828" lon="9.710436908636384"><ele>209.0</ele><time>2026-04-06T09:30:16.001Z</time></trkpt><trkpt lat="33.40975105259423" lon="9.710485925144363"><ele>209.33333333333334</ele><time>2026-04-06T09:30:17.001Z</time></trkpt><trkpt lat="33.40953609896184" lon="9.710531181304818"><ele>209.66666666666669</ele><time>2026-04-06T09:30:18.001Z</time></trkpt><trkpt lat="33.40931759123109" lon="9.710581008963972"><ele>210.0</ele><time>2026-04-06T09:30:19.001Z</time></trkpt><trkpt lat="33.409102827421314" lon="9.710625711666506"><ele>210.0</ele><time>2026-04-06T09:30:20.001Z</time></trkpt><trkpt lat="33.40888588243259" lon="9.710672787719213"><ele>210.0</ele><time>2026-04-06T09:30:21.001Z</time></trkpt><trkpt lat="33.40866832946093" lon="9.710719328183776"><ele>210.0</ele><time>2026-04-06T09:30:22.001Z</time></trkpt><trkpt lat="33.408448516790386" lon="9.71076890971325"><ele>209.5</ele><time>2026-04-06T09:30:23.001Z</time></trkpt><trkpt lat="33.40822731623268" lon="9.710823630709378"><ele>209.0</ele><time>2026-04-06T09:30:24.001Z</time></trkpt><trkpt lat="33.40800715825938" lon="9.710877201968795"><ele>210.5</ele><time>2026-04-06T09:30:25.001Z</time></trkpt><trkpt lat="33.407785294294406" lon="9.710929708486026"><ele>212.0</ele><time>2026-04-06T09:30:26.001Z</time></trkpt><trkpt lat="33.40756227094878" lon="9.710976759818093"><ele>212.0</ele><time>2026-04-06T09:30:27.001Z</time></trkpt><trkpt lat="33.40733811365866" lon="9.711022582181734"><ele>212.0</ele><time>2026-04-06T09:30:28.001Z</time></trkpt><trkpt lat="33.407114650934844" lon="9.71106610537095"><ele>212.5</ele><time>2026-04-06T09:30:29.001Z</time></trkpt><trkpt lat="33.40688963814665" lon="9.711111770718313"><ele>213.0</ele><time>2026-04-06T09:30:30.001Z</time></trkpt><trkpt lat="33.40666113744498" lon="9.711158177041165"><ele>213.0</ele><time>2026-04-06T09:30:31.001Z</time></trkpt><trkpt lat="33.406431190114574" lon="9.71120727194668"><ele>213.0</ele><time>2026-04-06T09:30:32.001Z</time></trkpt><trkpt lat="33.406197062178705" lon="9.71125848958924"><ele>213.0</ele><time>2026-04-06T09:30:33.001Z</time></trkpt><trkpt lat="33.4059623618839" lon="9.711310500153795"><ele>213.0</ele><time>2026-04-06T09:30:34.001Z</time></trkpt><trkpt lat="33.40572628803464" lon="9.711364859717623"><ele>213.0</ele><time>2026-04-06T09:30:35.001Z</time></trkpt><trkpt lat="33.40548704701366" lon="9.711420049233233"><ele>213.0</ele><time>2026-04-06T09:30:36.001Z</time></trkpt><trkpt lat="33.40524159255631" lon="9.71147330809752"><ele>213.0</ele><time>2026-04-06T09:30:37.001Z</time></trkpt><trkpt lat="33.404998675272196" lon="9.71152544943946"><ele>213.0</ele><time>2026-04-06T09:30:38Z</time></trkpt><trkpt lat="33.40475040826788" lon="9.711580026610596"><ele>213.0</ele><time>2026-04-06T09:30:39Z</time></trkpt><trkpt lat="33.404501765902076" lon="9.711633557873178"><ele>213.0</ele><time>2026-04-06T09:30:40Z</time></trkpt><trkpt lat="33.40425221429626" lon="9.711685744105148"><ele>213.0</ele><time>2026-04-06T09:30:41Z</time></trkpt><trkpt lat="33.40399909790442" lon="9.711742223346453"><ele>213.0</ele><time>2026-04-06T09:30:42Z</time></trkpt><trkpt lat="33.403747266440064" lon="9.711799739202043"><ele>212.5</ele><time>2026-04-06T09:30:43Z</time></trkpt><trkpt lat="33.40349396757092" lon="9.711855205259184"><ele>212.0</ele><time>2026-04-06T09:30:44Z</time></trkpt><trkpt lat="33.40323845144452" lon="9.711908802381707"><ele>212.5</ele><time>2026-04-06T09:30:45Z</time></trkpt><trkpt lat="33.4029879348702" lon="9.711959811706341"><ele>213.0</ele><time>2026-04-06T09:30:46Z</time></trkpt><trkpt lat="33.402742593662424" lon="9.712016711096556"><ele>213.0</ele><time>2026-04-06T09:30:47Z</time></trkpt><trkpt lat="33.402507086972776" lon="9.712073224446542"><ele>213.0</ele><time>2026-04-06T09:30:48Z</time></trkpt><trkpt lat="33.402270908274666" lon="9.7121245669368"><ele>212.5</ele><time>2026-04-06T09:30:49Z</time></trkpt><trkpt lat="33.40203113583644" lon="9.712177983590154"><ele>212.0</ele><time>2026-04-06T09:30:50Z</time></trkpt><trkpt lat="33.401792237696306" lon="9.712230542967573"><ele>212.0</ele><time>2026-04-06T09:30:51Z</time></trkpt><trkpt lat="33.40155910143794" lon="9.712284711840889"><ele>212.0</ele><time>2026-04-06T09:30:52Z</time></trkpt><trkpt lat="33.401330335835524" lon="9.712338273337647"><ele>211.0</ele><time>2026-04-06T09:30:53Z</time></trkpt><trkpt lat="33.401100021047185" lon="9.712391992875247"><ele>210.0</ele><time>2026-04-06T09:30:54Z</time></trkpt><trkpt lat="33.40087082013461" lon="9.7124412931975"><ele>210.0</ele><time>2026-04-06T09:30:55Z</time></trkpt><trkpt lat="33.40064309599974" lon="9.712489845806713"><ele>210.0</ele><time>2026-04-06T09:30:56Z</time></trkpt><trkpt lat="33.400411871600944" lon="9.712539068474866"><ele>211.0</ele><time>2026-04-06T09:30:57Z</time></trkpt><trkpt lat="33.40018024209687" lon="9.712591043660394"><ele>212.0</ele><time>2026-04-06T09:30:58Z</time></trkpt><trkpt lat="33.39995530558766" lon="9.712645270494445"><ele>212.0</ele><time>2026-04-06T09:30:59Z</time></trkpt><trkpt lat="33.39972551328473" lon="9.712697229194365"><ele>212.0</ele><time>2026-04-06T09:31:00Z</time></trkpt><trkpt lat="33.39949813454495" lon="9.712744940911955"><ele>212.5</ele><time>2026-04-06T09:31:01Z</time></trkpt><trkpt lat="33.399268330700274" lon="9.712793258639806"><ele>213.0</ele><time>2026-04-06T09:31:02Z</time></trkpt><trkpt lat="33.39904005403318" lon="9.712840669806164"><ele>213.5</ele><time>2026-04-06T09:31:03Z</time></trkpt><trkpt lat="33.39881470774969" lon="9.712888351837078"><ele>214.0</ele><time>2026-04-06T09:31:04Z</time></trkpt><trkpt lat="33.398586373103626" lon="9.712932790231152"><ele>214.0</ele><time>2026-04-06T09:31:05Z</time></trkpt><trkpt lat="33.398353472022585" lon="9.712982477530376"><ele>214.0</ele><time>2026-04-06T09:31:06Z</time></trkpt><trkpt lat="33.3981140144924" lon="9.713034824919362"><ele>214.0</ele><time>2026-04-06T09:31:07Z</time></trkpt><trkpt lat="33.39786754047944" lon="9.713086552773294"><ele>214.0</ele><time>2026-04-06T09:31:08Z</time></trkpt><trkpt lat="33.3976178525623" lon="9.71314198400382"><ele>214.0</ele><time>2026-04-06T09:31:09Z</time></trkpt><trkpt lat="33.397362102559484" lon="9.713197327426286"><ele>214.0</ele><time>2026-04-06T09:31:10Z</time></trkpt><trkpt lat="33.397104054092914" lon="9.713252722186072"><ele>213.5</ele><time>2026-04-06T09:31:11Z</time></trkpt><trkpt lat="33.39684578169311" lon="9.713309096250507"><ele>213.0</ele><time>2026-04-06T09:31:12Z</time></trkpt><trkpt lat="33.3965863379165" lon="9.713365343167064"><ele>213.0</ele><time>2026-04-06T09:31:13Z</time></trkpt><trkpt lat="33.396327913438064" lon="9.71341943031319"><ele>213.0</ele><time>2026-04-06T09:31:14Z</time></trkpt><trkpt lat="33.396067559361946" lon="9.713478740937466"><ele>213.0</ele><time>2026-04-06T09:31:15Z</time></trkpt><trkpt lat="33.39580636336117" lon="9.713537830803197"><ele>213.0</ele><time>2026-04-06T09:31:16Z</time></trkpt><trkpt lat="33.395546498995806" lon="9.713592629920575"><ele>212.5</ele><time>2026-04-06T09:31:17Z</time></trkpt><trkpt lat="33.39528632788967" lon="9.713651175592858"><ele>212.0</ele><time>2026-04-06T09:31:18Z</time></trkpt><trkpt lat="33.39502905479244" lon="9.713707674340757"><ele>212.0</ele><time>2026-04-06T09:31:19Z</time></trkpt><trkpt lat="33.394770014090476" lon="9.713769086224913"><ele>212.0</ele><time>2026-04-06T09:31:20Z</time></trkpt><trkpt lat="33.39451248480646" lon="9.713827293485418"><ele>211.5</ele><time>2026-04-06T09:31:21Z</time></trkpt><trkpt lat="33.39425478338787" lon="9.713881240220575"><ele>211.0</ele><time>2026-04-06T09:31:22Z</time></trkpt><trkpt lat="33.39399541900437" lon="9.71393882822627"><ele>210.0</ele><time>2026-04-06T09:31:23Z</time></trkpt><trkpt lat="33.39373879718683" lon="9.71399744170052"><ele>209.0</ele><time>2026-04-06T09:31:24Z</time></trkpt><trkpt lat="33.393480196352975" lon="9.714057623797245"><ele>209.0</ele><time>2026-04-06T09:31:25Z</time></trkpt><trkpt lat="33.39321901707543" lon="9.714118744227429"><ele>209.0</ele><time>2026-04-06T09:31:26Z</time></trkpt><trkpt lat="33.39296120314192" lon="9.714174672484042"><ele>208.5</ele><time>2026-04-06T09:31:27Z</time></trkpt><trkpt lat="33.392700877862765" lon="9.714228038944784"><ele>208.0</ele><time>2026-04-06T09:31:28Z</time></trkpt><trkpt lat="33.392439058840274" lon="9.714281684813585"><ele>208.0</ele><time>2026-04-06T09:31:29Z</time></trkpt><trkpt lat="33.39217999480291" lon="9.714340505249707"><ele>208.0</ele><time>2026-04-06T09:31:30Z</time></trkpt><trkpt lat="33.391918302369156" lon="9.714398240051693"><ele>205.5</ele><time>2026-04-06T09:31:31Z</time></trkpt><trkpt lat="33.39166010612814" lon="9.714454765316379"><ele>203.0</ele><time>2026-04-06T09:31:32Z</time></trkpt><trkpt lat="33.39140165621643" lon="9.714514634874636"><ele>202.5</ele><time>2026-04-06T09:31:33Z</time></trkpt><trkpt lat="33.39114467317914" lon="9.714572528155864"><ele>202.0</ele><time>2026-04-06T09:31:34Z</time></trkpt><trkpt lat="33.39088543424863" lon="9.714624638546356"><ele>202.0</ele><time>2026-04-06T09:31:35Z</time></trkpt><trkpt lat="33.39062827935609" lon="9.714678027570269"><ele>202.0</ele><time>2026-04-06T09:31:36Z</time></trkpt><trkpt lat="33.390369740609195" lon="9.714733611072848"><ele>202.0</ele><time>2026-04-06T09:31:37Z</time></trkpt><trkpt lat="33.39011205893029" lon="9.714790806409201"><ele>202.0</ele><time>2026-04-06T09:31:38Z</time></trkpt><trkpt lat="33.389852655689104" lon="9.714847014101288"><ele>202.5</ele><time>2026-04-06T09:31:39Z</time></trkpt><trkpt lat="33.38959222514688" lon="9.714901805856893"><ele>203.0</ele><time>2026-04-06T09:31:40Z</time></trkpt><trkpt lat="33.38933522653258" lon="9.71495619303702"><ele>203.0</ele><time>2026-04-06T09:31:41Z</time></trkpt><trkpt lat="33.38907621600366" lon="9.715012897035182"><ele>203.0</ele><time>2026-04-06T09:31:42Z</time></trkpt><trkpt lat="33.38881691968012" lon="9.7150693137663"><ele>203.5</ele><time>2026-04-06T09:31:43Z</time></trkpt><trkpt lat="33.3885594664185" lon="9.7151304923972"><ele>204.0</ele><time>2026-04-06T09:31:44Z</time></trkpt><trkpt lat="33.388303455356464" lon="9.715190358279134"><ele>205.0</ele><time>2026-04-06T09:31:45Z</time></trkpt><trkpt lat="33.38804907795537" lon="9.715249990367836"><ele>206.0</ele><time>2026-04-06T09:31:46Z</time></trkpt><trkpt lat="33.38779091352145" lon="9.715308579952229"><ele>206.0</ele><time>2026-04-06T09:31:47Z</time></trkpt><trkpt lat="33.387535173553474" lon="9.715363695163429"><ele>206.0</ele><time>2026-04-06T09:31:48Z</time></trkpt><trkpt lat="33.387278898769424" lon="9.715422041715383"><ele>207.0</ele><time>2026-04-06T09:31:49Z</time></trkpt><trkpt lat="33.387020813745494" lon="9.715479469880083"><ele>208.0</ele><time>2026-04-06T09:31:50Z</time></trkpt><trkpt lat="33.38675932580076" lon="9.715536046469557"><ele>208.0</ele><time>2026-04-06T09:31:51Z</time></trkpt><trkpt lat="33.38649943426586" lon="9.715593183790116"><ele>208.0</ele><time>2026-04-06T09:31:52Z</time></trkpt><trkpt lat="33.38623858036672" lon="9.715649901473126"><ele>208.0</ele><time>2026-04-06T09:31:53.001Z</time></trkpt><trkpt lat="33.38597567206768" lon="9.715706002015684"><ele>208.0</ele><time>2026-04-06T09:31:54.001Z</time></trkpt><trkpt lat="33.38571653199555" lon="9.71575817709606"><ele>208.5</ele><time>2026-04-06T09:31:55.001Z</time></trkpt><trkpt lat="33.38545836305343" lon="9.715813263829983"><ele>209.0</ele><time>2026-04-06T09:31:56.001Z</time></trkpt><trkpt lat="33.38519729938605" lon="9.71587218223701"><ele>209.0</ele><time>2026-04-06T09:31:57.001Z</time></trkpt><trkpt lat="33.38493718189938" lon="9.71593181073482"><ele>209.0</ele><time>2026-04-06T09:31:58.001Z</time></trkpt><trkpt lat="33.3846765303936" lon="9.715985933825642"><ele>209.5</ele><time>2026-04-06T09:31:59.001Z</time></trkpt><trkpt lat="33.384417400718036" lon="9.716039340766033"><ele>210.0</ele><time>2026-04-06T09:32:00.001Z</time></trkpt><trkpt lat="33.3841593193585" lon="9.716092051305463"><ele>210.5</ele><time>2026-04-06T09:32:01.001Z</time></trkpt><trkpt lat="33.38389893084179" lon="9.716141852749798"><ele>211.0</ele><time>2026-04-06T09:32:02.001Z</time></trkpt><trkpt lat="33.38363789457284" lon="9.716195755265886"><ele>210.0</ele><time>2026-04-06T09:32:03.001Z</time></trkpt><trkpt lat="33.383379838514855" lon="9.716252955428294"><ele>209.0</ele><time>2026-04-06T09:32:04.001Z</time></trkpt><trkpt lat="33.383119384778155" lon="9.716310253107297"><ele>208.0</ele><time>2026-04-06T09:32:05.001Z</time></trkpt><trkpt lat="33.382859525545065" lon="9.716368754130608"><ele>207.0</ele><time>2026-04-06T09:32:06.001Z</time></trkpt><trkpt lat="33.382599301619294" lon="9.716428916960265"><ele>207.0</ele><time>2026-04-06T09:32:07.001Z</time></trkpt><trkpt lat="33.382338515769575" lon="9.716490482356384"><ele>207.0</ele><time>2026-04-06T09:32:08.001Z</time></trkpt><trkpt lat="33.38207887103961" lon="9.716550349254828"><ele>205.5</ele><time>2026-04-06T09:32:09.001Z</time></trkpt><trkpt lat="33.381804843127824" lon="9.716612785737835"><ele>204.0</ele><time>2026-04-06T09:32:10.001Z</time></trkpt><trkpt lat="33.38150833602957" lon="9.71668215095364"><ele>202.5</ele><time>2026-04-06T09:32:11.001Z</time></trkpt><trkpt lat="33.38119694994756" lon="9.716753323867547"><ele>201.0</ele><time>2026-04-06T09:32:12.001Z</time></trkpt><trkpt lat="33.38089617950568" lon="9.716821690197536"><ele>201.0</ele><time>2026-04-06T09:32:13.001Z</time></trkpt><trkpt lat="33.3806146689078" lon="9.716883648713845"><ele>201.0</ele><time>2026-04-06T09:32:14.001Z</time></trkpt><trkpt lat="33.380341959632474" lon="9.71693800943017"><ele>201.5</ele><time>2026-04-06T09:32:15.001Z</time></trkpt><trkpt lat="33.3800793484125" lon="9.716989707298875"><ele>202.0</ele><time>2026-04-06T09:32:16.001Z</time></trkpt><trkpt lat="33.379823902641895" lon="9.717042611306647"><ele>200.5</ele><time>2026-04-06T09:32:17.001Z</time></trkpt><trkpt lat="33.37958019254386" lon="9.717090186647589"><ele>199.0</ele><time>2026-04-06T09:32:18Z</time></trkpt><trkpt lat="33.3793557381989" lon="9.717132060185694"><ele>199.0</ele><time>2026-04-06T09:32:19Z</time></trkpt><trkpt lat="33.379146085815194" lon="9.717173938766168"><ele>199.0</ele><time>2026-04-06T09:32:20Z</time></trkpt><trkpt lat="33.37894530890412" lon="9.717216242535212"><ele>199.0</ele><time>2026-04-06T09:32:21Z</time></trkpt><trkpt lat="33.378745451125894" lon="9.717264264602102"><ele>199.5</ele><time>2026-04-06T09:32:22Z</time></trkpt><trkpt lat="33.37851718325392" lon="9.717317292728682"><ele>200.0</ele><time>2026-04-06T09:32:23Z</time></trkpt><trkpt lat="33.37827079309993" lon="9.71737106869868"><ele>200.0</ele><time>2026-04-06T09:32:24Z</time></trkpt><trkpt lat="33.378018454343575" lon="9.717426799081172"><ele>200.0</ele><time>2026-04-06T09:32:25Z</time></trkpt><trkpt lat="33.37776510811772" lon="9.717485394492629"><ele>201.0</ele><time>2026-04-06T09:32:26Z</time></trkpt><trkpt lat="33.377512277379225" lon="9.717541965869518"><ele>202.0</ele><time>2026-04-06T09:32:27Z</time></trkpt><trkpt lat="33.377278704711216" lon="9.717588963857969"><ele>203.0</ele><time>2026-04-06T09:32:28Z</time></trkpt><trkpt lat="33.37706236725486" lon="9.717633113326526"><ele>204.0</ele><time>2026-04-06T09:32:29Z</time></trkpt><trkpt lat="33.37684821381233" lon="9.717671852069316"><ele>205.0</ele><time>2026-04-06T09:32:30Z</time></trkpt><trkpt lat="33.37663689150082" lon="9.717715243773954"><ele>204.66666666666666</ele><time>2026-04-06T09:32:31Z</time></trkpt><trkpt lat="33.37642778806733" lon="9.717759824168594"><ele>204.33333333333331</ele><time>2026-04-06T09:32:32Z</time></trkpt><trkpt lat="33.37621394539577" lon="9.717809371785032"><ele>204.0</ele><time>2026-04-06T09:32:33Z</time></trkpt><trkpt lat="33.37599196679353" lon="9.717863434183485"><ele>205.0</ele><time>2026-04-06T09:32:34Z</time></trkpt><trkpt lat="33.37575457235497" lon="9.717924660852168"><ele>206.0</ele><time>2026-04-06T09:32:35Z</time></trkpt><trkpt lat="33.37550500835644" lon="9.71798997177361"><ele>206.0</ele><time>2026-04-06T09:32:36Z</time></trkpt><trkpt lat="33.375243301348306" lon="9.71805283851842"><ele>206.0</ele><time>2026-04-06T09:32:37Z</time></trkpt><trkpt lat="33.374971686797515" lon="9.718113040314712"><ele>206.0</ele><time>2026-04-06T09:32:38Z</time></trkpt><trkpt lat="33.37468702445786" lon="9.718173428691841"><ele>206.0</ele><time>2026-04-06T09:32:39Z</time></trkpt><trkpt lat="33.37439537650429" lon="9.718235411668623"><ele>206.0</ele><time>2026-04-06T09:32:40Z</time></trkpt><trkpt lat="33.37409101983644" lon="9.718300206774053"><ele>206.0</ele><time>2026-04-06T09:32:41Z</time></trkpt><trkpt lat="33.373789280180866" lon="9.718362482053145"><ele>206.0</ele><time>2026-04-06T09:32:42Z</time></trkpt><trkpt lat="33.37350772864505" lon="9.718422434942187"><ele>206.0</ele><time>2026-04-06T09:32:43Z</time></trkpt><trkpt lat="33.37323775579231" lon="9.71847933520873"><ele>206.5</ele><time>2026-04-06T09:32:44Z</time></trkpt><trkpt lat="33.37297743145528" lon="9.7185329172191"><ele>207.0</ele><time>2026-04-06T09:32:45Z</time></trkpt><trkpt lat="33.37272587133217" lon="9.718584986540938"><ele>207.0</ele><time>2026-04-06T09:32:46Z</time></trkpt><trkpt lat="33.37248622499931" lon="9.718636269902149"><ele>207.0</ele><time>2026-04-06T09:32:47Z</time></trkpt><trkpt lat="33.37224925729503" lon="9.718687233729138"><ele>207.5</ele><time>2026-04-06T09:32:48Z</time></trkpt><trkpt lat="33.37202377912185" lon="9.718734973269592"><ele>208.0</ele><time>2026-04-06T09:32:49Z</time></trkpt><trkpt lat="33.37180304997267" lon="9.718780273662427"><ele>208.0</ele><time>2026-04-06T09:32:50Z</time></trkpt><trkpt lat="33.37159287040092" lon="9.718825918602706"><ele>208.0</ele><time>2026-04-06T09:32:51Z</time></trkpt><trkpt lat="33.37138617667098" lon="9.718869967864459"><ele>208.0</ele><time>2026-04-06T09:32:52Z</time></trkpt><trkpt lat="33.37118601921894" lon="9.718910600681184"><ele>208.33333333333331</ele><time>2026-04-06T09:32:53Z</time></trkpt><trkpt lat="33.371000444402625" lon="9.718950783275973"><ele>208.66666666666669</ele><time>2026-04-06T09:32:54Z</time></trkpt><trkpt lat="33.37083969570784" lon="9.718987949310328"><ele>209.0</ele><time>2026-04-06T09:32:55Z</time></trkpt><trkpt lat="33.370684136983954" lon="9.71902616523858"><ele>209.0</ele><time>2026-04-06T09:32:56Z</time></trkpt><trkpt lat="33.37050225848635" lon="9.719066965622103"><ele>209.0</ele><time>2026-04-06T09:32:57Z</time></trkpt><trkpt lat="33.37030855513735" lon="9.719114483767596"><ele>209.0</ele><time>2026-04-06T09:32:58Z</time></trkpt><trkpt lat="33.37010620816901" lon="9.71916583427177"><ele>209.0</ele><time>2026-04-06T09:32:59Z</time></trkpt><trkpt lat="33.36989728408535" lon="9.719215873682286"><ele>209.0</ele><time>2026-04-06T09:33:00Z</time></trkpt><trkpt lat="33.369686210537196" lon="9.71926433584019"><ele>209.0</ele><time>2026-04-06T09:33:01Z</time></trkpt><trkpt lat="33.36946810984968" lon="9.719310179750913"><ele>209.0</ele><time>2026-04-06T09:33:02Z</time></trkpt><trkpt lat="33.36925174112003" lon="9.719356635974828"><ele>209.0</ele><time>2026-04-06T09:33:03Z</time></trkpt><trkpt lat="33.369024214492136" lon="9.719403829048971"><ele>210.5</ele><time>2026-04-06T09:33:04Z</time></trkpt><trkpt lat="33.36879342192376" lon="9.719448832891834"><ele>212.0</ele><time>2026-04-06T09:33:05Z</time></trkpt><trkpt lat="33.36856459272077" lon="9.719493152310855"><ele>212.0</ele><time>2026-04-06T09:33:06Z</time></trkpt><trkpt lat="33.368334293650165" lon="9.719540029575795"><ele>212.0</ele><time>2026-04-06T09:33:07Z</time></trkpt><trkpt lat="33.36809934453783" lon="9.719588516632724"><ele>211.5</ele><time>2026-04-06T09:33:08Z</time></trkpt><trkpt lat="33.36786781576031" lon="9.719635869247151"><ele>211.0</ele><time>2026-04-06T09:33:09Z</time></trkpt><trkpt lat="33.36763058105521" lon="9.71968029512919"><ele>211.0</ele><time>2026-04-06T09:33:10Z</time></trkpt><trkpt lat="33.36739175012219" lon="9.719725734443553"><ele>211.0</ele><time>2026-04-06T09:33:11Z</time></trkpt><trkpt lat="33.36715330910879" lon="9.719775155994196"><ele>211.0</ele><time>2026-04-06T09:33:12Z</time></trkpt><trkpt lat="33.36691029965459" lon="9.719826249116016"><ele>211.0</ele><time>2026-04-06T09:33:13Z</time></trkpt><trkpt lat="33.36666630125295" lon="9.719874450474686"><ele>211.0</ele><time>2026-04-06T09:33:14Z</time></trkpt><trkpt lat="33.36641604183299" lon="9.719926059825921"><ele>211.0</ele><time>2026-04-06T09:33:15Z</time></trkpt><trkpt lat="33.366168517122965" lon="9.719978157014129"><ele>211.0</ele><time>2026-04-06T09:33:16Z</time></trkpt><trkpt lat="33.36591689118867" lon="9.720031907297601"><ele>211.0</ele><time>2026-04-06T09:33:17Z</time></trkpt><trkpt lat="33.365664056071445" lon="9.720082911970083"><ele>210.5</ele><time>2026-04-06T09:33:18Z</time></trkpt><trkpt lat="33.36540773712899" lon="9.720129884106402"><ele>210.0</ele><time>2026-04-06T09:33:19Z</time></trkpt><trkpt lat="33.36515216450972" lon="9.720175396842292"><ele>210.0</ele><time>2026-04-06T09:33:20Z</time></trkpt><trkpt lat="33.364894754631244" lon="9.720223311832049"><ele>210.0</ele><time>2026-04-06T09:33:21Z</time></trkpt><trkpt lat="33.364634496660415" lon="9.720272051310033"><ele>211.0</ele><time>2026-04-06T09:33:22Z</time></trkpt><trkpt lat="33.36437449678677" lon="9.720320455611608"><ele>212.0</ele><time>2026-04-06T09:33:23Z</time></trkpt><trkpt lat="33.36410963875934" lon="9.72036951107682"><ele>211.5</ele><time>2026-04-06T09:33:24Z</time></trkpt><trkpt lat="33.363845876034105" lon="9.720420737383378"><ele>211.0</ele><time>2026-04-06T09:33:25Z</time></trkpt><trkpt lat="33.36357731058631" lon="9.720475951989975"><ele>211.0</ele><time>2026-04-06T09:33:26Z</time></trkpt><trkpt lat="33.36331172144679" lon="9.72052856538378"><ele>211.0</ele><time>2026-04-06T09:33:27Z</time></trkpt><trkpt lat="33.36304235412997" lon="9.72058046111025"><ele>210.5</ele><time>2026-04-06T09:33:28Z</time></trkpt><trkpt lat="33.362770851086225" lon="9.720630568941878"><ele>210.0</ele><time>2026-04-06T09:33:29Z</time></trkpt><trkpt lat="33.362498906978814" lon="9.720680475616101"><ele>210.0</ele><time>2026-04-06T09:33:30Z</time></trkpt><trkpt lat="33.36222760825476" lon="9.720732836281508"><ele>210.0</ele><time>2026-04-06T09:33:31Z</time></trkpt><trkpt lat="33.3619555849264" lon="9.720786052174384"><ele>211.5</ele><time>2026-04-06T09:33:32Z</time></trkpt><trkpt lat="33.36168159778146" lon="9.720838422126919"><ele>213.0</ele><time>2026-04-06T09:33:33Z</time></trkpt><trkpt lat="33.36140632520836" lon="9.720892930694582"><ele>212.0</ele><time>2026-04-06T09:33:34Z</time></trkpt><trkpt lat="33.36113078394061" lon="9.720946547666529"><ele>211.0</ele><time>2026-04-06T09:33:35Z</time></trkpt><trkpt lat="33.36085243290597" lon="9.721000126043462"><ele>211.0</ele><time>2026-04-06T09:33:36Z</time></trkpt><trkpt lat="33.36057258146302" lon="9.721053173625943"><ele>211.0</ele><time>2026-04-06T09:33:37Z</time></trkpt><trkpt lat="33.36028849279401" lon="9.721109208968219"><ele>210.0</ele><time>2026-04-06T09:33:38Z</time></trkpt><trkpt lat="33.35999893385221" lon="9.721166750714422"><ele>209.0</ele><time>2026-04-06T09:33:39Z</time></trkpt><trkpt lat="33.359704150469696" lon="9.721225458080783"><ele>209.0</ele><time>2026-04-06T09:33:40Z</time></trkpt><trkpt lat="33.3594062374392" lon="9.721281814446415"><ele>209.0</ele><time>2026-04-06T09:33:41Z</time></trkpt><trkpt lat="33.35910612684821" lon="9.721337573426217"><ele>209.0</ele><time>2026-04-06T09:33:42Z</time></trkpt><trkpt lat="33.35880570786741" lon="9.721392400127264"><ele>209.0</ele><time>2026-04-06T09:33:43Z</time></trkpt><trkpt lat="33.358505142467465" lon="9.721449924881323"><ele>209.0</ele><time>2026-04-06T09:33:44Z</time></trkpt><trkpt lat="33.35820740015693" lon="9.721509883667663"><ele>209.0</ele><time>2026-04-06T09:33:45Z</time></trkpt><trkpt lat="33.35791348487831" lon="9.721566533227483"><ele>209.0</ele><time>2026-04-06T09:33:46Z</time></trkpt><trkpt lat="33.35761871714936" lon="9.721619517419732"><ele>209.0</ele><time>2026-04-06T09:33:47Z</time></trkpt><trkpt lat="33.35732513168849" lon="9.721671986875533"><ele>209.5</ele><time>2026-04-06T09:33:48Z</time></trkpt><trkpt lat="33.357034730607715" lon="9.721724063098959"><ele>210.0</ele><time>2026-04-06T09:33:49Z</time></trkpt><trkpt lat="33.35674723222308" lon="9.721777868624955"><ele>210.0</ele><time>2026-04-06T09:33:50Z</time></trkpt><trkpt lat="33.35646163476071" lon="9.72183439907723"><ele>210.0</ele><time>2026-04-06T09:33:51Z</time></trkpt><trkpt lat="33.356180524121804" lon="9.721890829739419"><ele>211.0</ele><time>2026-04-06T09:33:52Z</time></trkpt><trkpt lat="33.35590254591947" lon="9.721948534499436"><ele>212.0</ele><time>2026-04-06T09:33:53Z</time></trkpt><trkpt lat="33.3556178108864" lon="9.722006004777615"><ele>212.0</ele><time>2026-04-06T09:33:54Z</time></trkpt><trkpt lat="33.355325679494996" lon="9.722063611208108"><ele>212.0</ele><time>2026-04-06T09:33:55Z</time></trkpt><trkpt lat="33.35503114394648" lon="9.722121640408067"><ele>212.0</ele><time>2026-04-06T09:33:56Z</time></trkpt><trkpt lat="33.35473886026384" lon="9.722178779041593"><ele>212.0</ele><time>2026-04-06T09:33:57Z</time></trkpt><trkpt lat="33.35444759392994" lon="9.722236172764761"><ele>212.5</ele><time>2026-04-06T09:33:58Z</time></trkpt><trkpt lat="33.35415603476686" lon="9.72229144725487"><ele>213.0</ele><time>2026-04-06T09:33:59Z</time></trkpt><trkpt lat="33.35386317341306" lon="9.722350928729789"><ele>213.0</ele><time>2026-04-06T09:34:00Z</time></trkpt><trkpt lat="33.35356662017914" lon="9.72241317859846"><ele>213.0</ele><time>2026-04-06T09:34:01Z</time></trkpt><trkpt lat="33.35326407590014" lon="9.722478281712789"><ele>213.5</ele><time>2026-04-06T09:34:02Z</time></trkpt><trkpt lat="33.35296190061662" lon="9.722542340962097"><ele>214.0</ele><time>2026-04-06T09:34:03Z</time></trkpt><trkpt lat="33.35266351297932" lon="9.722605283336803"><ele>214.0</ele><time>2026-04-06T09:34:04Z</time></trkpt><trkpt lat="33.35236859835966" lon="9.722665662982317"><ele>214.0</ele><time>2026-04-06T09:34:05Z</time></trkpt><trkpt lat="33.35206665339821" lon="9.722726014232467"><ele>213.5</ele><time>2026-04-06T09:34:06Z</time></trkpt><trkpt lat="33.35176317311963" lon="9.722787633092535"><ele>213.0</ele><time>2026-04-06T09:34:07Z</time></trkpt><trkpt lat="33.35145458530418" lon="9.722848606993875"><ele>212.0</ele><time>2026-04-06T09:34:08Z</time></trkpt><trkpt lat="33.351141716911634" lon="9.722913297331742"><ele>211.0</ele><time>2026-04-06T09:34:09Z</time></trkpt><trkpt lat="33.35081797405374" lon="9.722979095913107"><ele>211.0</ele><time>2026-04-06T09:34:10Z</time></trkpt><trkpt lat="33.35049051241808" lon="9.723039356328774"><ele>211.0</ele><time>2026-04-06T09:34:11Z</time></trkpt><trkpt lat="33.35016008268292" lon="9.723097097481352"><ele>211.0</ele><time>2026-04-06T09:34:12Z</time></trkpt><trkpt lat="33.349840269404716" lon="9.723149949732548"><ele>211.0</ele><time>2026-04-06T09:34:13Z</time></trkpt><trkpt lat="33.349539155413716" lon="9.72320205651311"><ele>210.5</ele><time>2026-04-06T09:34:14Z</time></trkpt><trkpt lat="33.349239301598466" lon="9.723253260972136"><ele>210.0</ele><time>2026-04-06T09:34:15Z</time></trkpt><trkpt lat="33.3489394499591" lon="9.723305062869606"><ele>209.0</ele><time>2026-04-06T09:34:16Z</time></trkpt><trkpt lat="33.34864511027949" lon="9.723357261801295"><ele>208.0</ele><time>2026-04-06T09:34:17Z</time></trkpt><trkpt lat="33.34835497552324" lon="9.723408357991962"><ele>208.0</ele><time>2026-04-06T09:34:18Z</time></trkpt><trkpt lat="33.34806608816836" lon="9.723463918323219"><ele>208.0</ele><time>2026-04-06T09:34:19Z</time></trkpt><trkpt lat="33.347783313035336" lon="9.723522567307707"><ele>208.5</ele><time>2026-04-06T09:34:20Z</time></trkpt><trkpt lat="33.347507359657754" lon="9.72358461470996"><ele>209.0</ele><time>2026-04-06T09:34:21Z</time></trkpt><trkpt lat="33.34724223159774" lon="9.723646801593395"><ele>209.0</ele><time>2026-04-06T09:34:22Z</time></trkpt><trkpt lat="33.3469794643895" lon="9.723705573689905"><ele>209.0</ele><time>2026-04-06T09:34:23Z</time></trkpt><trkpt lat="33.34671804365476" lon="9.723757668182367"><ele>209.0</ele><time>2026-04-06T09:34:24Z</time></trkpt><trkpt lat="33.34645605351149" lon="9.723794864647093"><ele>209.0</ele><time>2026-04-06T09:34:25Z</time></trkpt><trkpt lat="33.34618836507126" lon="9.723815542183537"><ele>210.0</ele><time>2026-04-06T09:34:26Z</time></trkpt><trkpt lat="33.345918325583106" lon="9.723816639643545"><ele>211.0</ele><time>2026-04-06T09:34:27Z</time></trkpt><trkpt lat="33.34565798475888" lon="9.723803227673937"><ele>210.66666666666666</ele><time>2026-04-06T09:34:28Z</time></trkpt><trkpt lat="33.34542860512906" lon="9.723779875836916"><ele>210.33333333333331</ele><time>2026-04-06T09:34:29Z</time></trkpt><trkpt lat="33.345229614768506" lon="9.723751708415328"><ele>210.0</ele><time>2026-04-06T09:34:30Z</time></trkpt><trkpt lat="33.345055048679214" lon="9.723737266514947"><ele>210.0</ele><time>2026-04-06T09:34:31Z</time></trkpt><trkpt lat="33.34489901912165" lon="9.723734629635088"><ele>210.0</ele><time>2026-04-06T09:34:32Z</time></trkpt><trkpt lat="33.3447535120987" lon="9.723739660888215"><ele>210.0</ele><time>2026-04-06T09:34:33Z</time></trkpt><trkpt lat="33.34461866866046" lon="9.72374749728027"><ele>210.0</ele><time>2026-04-06T09:34:34Z</time></trkpt><trkpt lat="33.3444862999579" lon="9.723758768772942"><ele>209.75</ele><time>2026-04-06T09:34:35Z</time></trkpt><trkpt lat="33.34434741681683" lon="9.723775827369623"><ele>209.5</ele><time>2026-04-06T09:34:36Z</time></trkpt><trkpt lat="33.34419705086134" lon="9.723802096915616"><ele>209.25</ele><time>2026-04-06T09:34:37Z</time></trkpt><trkpt lat="33.34404226936054" lon="9.72383463687426"><ele>209.0</ele><time>2026-04-06T09:34:38Z</time></trkpt><trkpt lat="33.34388595885453" lon="9.723869167745697"><ele>209.33333333333334</ele><time>2026-04-06T09:34:39Z</time></trkpt><trkpt lat="33.343725229053646" lon="9.72390460055582"><ele>209.66666666666669</ele><time>2026-04-06T09:34:40Z</time></trkpt><trkpt lat="33.343565783146964" lon="9.72393431515237"><ele>210.0</ele><time>2026-04-06T09:34:41Z</time></trkpt><trkpt lat="33.343411731588866" lon="9.72396586611037"><ele>210.0</ele><time>2026-04-06T09:34:42Z</time></trkpt><trkpt lat="33.34325734808348" lon="9.723996238091798"><ele>210.0</ele><time>2026-04-06T09:34:43Z</time></trkpt><trkpt lat="33.34310475892516" lon="9.724029242427639"><ele>210.0</ele><time>2026-04-06T09:34:44Z</time></trkpt><trkpt lat="33.34295322991912" lon="9.724066500810347"><ele>210.0</ele><time>2026-04-06T09:34:45Z</time></trkpt><trkpt lat="33.342799125985735" lon="9.724100138454707"><ele>210.0</ele><time>2026-04-06T09:34:46Z</time></trkpt><trkpt lat="33.34264490438734" lon="9.724133457090602"><ele>210.0</ele><time>2026-04-06T09:34:47Z</time></trkpt><trkpt lat="33.34248501713746" lon="9.724169018562005"><ele>210.0</ele><time>2026-04-06T09:34:48Z</time></trkpt><trkpt lat="33.34232611287279" lon="9.72420419175097"><ele>210.0</ele><time>2026-04-06T09:34:49Z</time></trkpt><trkpt lat="33.342164711044276" lon="9.724235653529368"><ele>210.0</ele><time>2026-04-06T09:34:50Z</time></trkpt><trkpt lat="33.34200017593356" lon="9.724264562821748"><ele>210.33333333333331</ele><time>2026-04-06T09:34:51Z</time></trkpt><trkpt lat="33.341835956107076" lon="9.724295338939903"><ele>210.66666666666666</ele><time>2026-04-06T09:34:52Z</time></trkpt><trkpt lat="33.34167158293266" lon="9.724330167235866"><ele>211.0</ele><time>2026-04-06T09:34:53Z</time></trkpt><trkpt lat="33.34150235530788" lon="9.724368886755027"><ele>211.66666666666666</ele><time>2026-04-06T09:34:54Z</time></trkpt><trkpt lat="33.34133001599752" lon="9.72441263487487"><ele>212.33333333333331</ele><time>2026-04-06T09:34:55Z</time></trkpt><trkpt lat="33.34116070407216" lon="9.724459183341763"><ele>213.0</ele><time>2026-04-06T09:34:56Z</time></trkpt><trkpt lat="33.34098952344677" lon="9.724507942681115"><ele>213.0</ele><time>2026-04-06T09:34:57Z</time></trkpt><trkpt lat="33.34081260024712" lon="9.7245583121824"><ele>213.0</ele><time>2026-04-06T09:34:58Z</time></trkpt><trkpt lat="33.340628354106464" lon="9.724610905542814"><ele>213.0</ele><time>2026-04-06T09:34:59Z</time></trkpt><trkpt lat="33.34044069674131" lon="9.724660675538324"><ele>213.0</ele><time>2026-04-06T09:35:00Z</time></trkpt><trkpt lat="33.34024256773698" lon="9.724705344166315"><ele>213.0</ele><time>2026-04-06T09:35:01Z</time></trkpt><trkpt lat="33.34004323355973" lon="9.724743299597508"><ele>213.0</ele><time>2026-04-06T09:35:02Z</time></trkpt><trkpt lat="33.339835711534526" lon="9.724777886413252"><ele>213.33333333333331</ele><time>2026-04-06T09:35:03Z</time></trkpt><trkpt lat="33.339621479214344" lon="9.724810323193735"><ele>213.66666666666666</ele><time>2026-04-06T09:35:04Z</time></trkpt><trkpt lat="33.339407709740925" lon="9.724839840840104"><ele>214.0</ele><time>2026-04-06T09:35:05Z</time></trkpt><trkpt lat="33.339193332372396" lon="9.72487211244165"><ele>214.0</ele><time>2026-04-06T09:35:06Z</time></trkpt><trkpt lat="33.3389796594439" lon="9.724907736580981"><ele>214.0</ele><time>2026-04-06T09:35:07Z</time></trkpt><trkpt lat="33.33875822151014" lon="9.724944940671962"><ele>214.0</ele><time>2026-04-06T09:35:08Z</time></trkpt><trkpt lat="33.338536252403195" lon="9.724977346038866"><ele>213.5</ele><time>2026-04-06T09:35:09Z</time></trkpt><trkpt lat="33.33831054867322" lon="9.725007349004608"><ele>213.0</ele><time>2026-04-06T09:35:10Z</time></trkpt><trkpt lat="33.33808391492637" lon="9.72502824805137"><ele>211.5</ele><time>2026-04-06T09:35:11Z</time></trkpt><trkpt lat="33.33785309387605" lon="9.725035356953486"><ele>210.0</ele><time>2026-04-06T09:35:12Z</time></trkpt><trkpt lat="33.33762335475783" lon="9.725030966869433"><ele>210.0</ele><time>2026-04-06T09:35:13Z</time></trkpt><trkpt lat="33.33740095789326" lon="9.725018773800766"><ele>210.0</ele><time>2026-04-06T09:35:14Z</time></trkpt><trkpt lat="33.33718903310823" lon="9.724998124982271"><ele>210.0</ele><time>2026-04-06T09:35:15Z</time></trkpt><trkpt lat="33.33698807832272" lon="9.724980380129827"><ele>210.33333333333331</ele><time>2026-04-06T09:35:16Z</time></trkpt><trkpt lat="33.336784510629485" lon="9.724979983279031"><ele>210.66666666666666</ele><time>2026-04-06T09:35:17Z</time></trkpt><trkpt lat="33.33657843257066" lon="9.725005805913385"><ele>211.0</ele><time>2026-04-06T09:35:18Z</time></trkpt><trkpt lat="33.33636458053021" lon="9.725056808777966"><ele>211.5</ele><time>2026-04-06T09:35:19Z</time></trkpt><trkpt lat="33.336147303657725" lon="9.725134986653332"><ele>212.0</ele><time>2026-04-06T09:35:20Z</time></trkpt><trkpt lat="33.33592484677223" lon="9.725233022814985"><ele>212.5</ele><time>2026-04-06T09:35:21Z</time></trkpt><trkpt lat="33.33570285236241" lon="9.725344221730063"><ele>213.0</ele><time>2026-04-06T09:35:22Z</time></trkpt><trkpt lat="33.33548181294583" lon="9.725458262243306"><ele>213.5</ele><time>2026-04-06T09:35:23Z</time></trkpt><trkpt lat="33.33526023075827" lon="9.725564555685716"><ele>214.0</ele><time>2026-04-06T09:35:24Z</time></trkpt><trkpt lat="33.33503322330116" lon="9.725653860388691"><ele>214.0</ele><time>2026-04-06T09:35:25Z</time></trkpt><trkpt lat="33.33479991623882" lon="9.725721848974352"><ele>214.0</ele><time>2026-04-06T09:35:26Z</time></trkpt><trkpt lat="33.334561553817" lon="9.72576869368857"><ele>214.0</ele><time>2026-04-06T09:35:27Z</time></trkpt><trkpt lat="33.3343172587952" lon="9.725807595167467"><ele>214.0</ele><time>2026-04-06T09:35:28Z</time></trkpt><trkpt lat="33.33407328285504" lon="9.725842300223611"><ele>214.5</ele><time>2026-04-06T09:35:29Z</time></trkpt><trkpt lat="33.33382634683985" lon="9.72587871407143"><ele>215.0</ele><time>2026-04-06T09:35:30Z</time></trkpt><trkpt lat="33.333577044994065" lon="9.725913739543595"><ele>215.0</ele><time>2026-04-06T09:35:31Z</time></trkpt><trkpt lat="33.33333775735069" lon="9.725943983860745"><ele>215.0</ele><time>2026-04-06T09:35:32Z</time></trkpt><trkpt lat="33.333115018814404" lon="9.725970631396162"><ele>214.33333333333334</ele><time>2026-04-06T09:35:33Z</time></trkpt><trkpt lat="33.33291043026663" lon="9.725997408411947"><ele>213.66666666666669</ele><time>2026-04-06T09:35:34Z</time></trkpt><trkpt lat="33.33271945652752" lon="9.726022186616225"><ele>213.0</ele><time>2026-04-06T09:35:35Z</time></trkpt><trkpt lat="33.33254140175211" lon="9.726044254118301"><ele>213.33333333333331</ele><time>2026-04-06T09:35:36Z</time></trkpt><trkpt lat="33.3323736367" lon="9.726066561734095"><ele>213.66666666666666</ele><time>2026-04-06T09:35:37Z</time></trkpt><trkpt lat="33.33220182845611" lon="9.726091175954"><ele>214.0</ele><time>2026-04-06T09:35:38Z</time></trkpt><trkpt lat="33.33203485367855" lon="9.726119696537568"><ele>214.0</ele><time>2026-04-06T09:35:39Z</time></trkpt><trkpt lat="33.331866378657715" lon="9.726146570135697"><ele>214.0</ele><time>2026-04-06T09:35:40Z</time></trkpt><trkpt lat="33.33170296365208" lon="9.726172691935226"><ele>214.0</ele><time>2026-04-06T09:35:41Z</time></trkpt><trkpt lat="33.3315343726954" lon="9.726196524301756"><ele>214.33333333333331</ele><time>2026-04-06T09:35:42Z</time></trkpt><trkpt lat="33.33136004952948" lon="9.726228062279725"><ele>214.66666666666669</ele><time>2026-04-06T09:35:43Z</time></trkpt><trkpt lat="33.33117547237919" lon="9.726260055993393"><ele>215.0</ele><time>2026-04-06T09:35:44Z</time></trkpt><trkpt lat="33.33098196078216" lon="9.726293683049816"><ele>215.0</ele><time>2026-04-06T09:35:45Z</time></trkpt><trkpt lat="33.3307764162514" lon="9.726330291002151"><ele>215.0</ele><time>2026-04-06T09:35:45.999Z</time></trkpt><trkpt lat="33.33056477888633" lon="9.726368055941641"><ele>215.0</ele><time>2026-04-06T09:35:46.999Z</time></trkpt><trkpt lat="33.33034723895023" lon="9.726406963533298"><ele>215.5</ele><time>2026-04-06T09:35:47.999Z</time></trkpt><trkpt lat="33.330124073604395" lon="9.726444650951404"><ele>216.0</ele><time>2026-04-06T09:35:48.999Z</time></trkpt><trkpt lat="33.32989804359206" lon="9.726481117676801"><ele>215.0</ele><time>2026-04-06T09:35:49.999Z</time></trkpt><trkpt lat="33.32966564773653" lon="9.726517923427664"><ele>214.0</ele><time>2026-04-06T09:35:50.999Z</time></trkpt><trkpt lat="33.3294316939971" lon="9.72655407450998"><ele>214.0</ele><time>2026-04-06T09:35:51.999Z</time></trkpt><trkpt lat="33.32919611899954" lon="9.726591108956328"><ele>214.0</ele><time>2026-04-06T09:35:52.999Z</time></trkpt><trkpt lat="33.32895601808883" lon="9.726632444117234"><ele>214.5</ele><time>2026-04-06T09:35:53.999Z</time></trkpt><trkpt lat="33.328716416906666" lon="9.726681358570623"><ele>215.0</ele><time>2026-04-06T09:35:54.999Z</time></trkpt><trkpt lat="33.32847563167808" lon="9.726735706343694"><ele>215.0</ele><time>2026-04-06T09:35:55.999Z</time></trkpt><trkpt lat="33.32823433020038" lon="9.726793129105936"><ele>215.0</ele><time>2026-04-06T09:35:56.999Z</time></trkpt><trkpt lat="33.32799477310061" lon="9.72685293568253"><ele>214.0</ele><time>2026-04-06T09:35:57.999Z</time></trkpt><trkpt lat="33.327750099829885" lon="9.726925726080243"><ele>213.0</ele><time>2026-04-06T09:35:58.999Z</time></trkpt><trkpt lat="33.32750582445331" lon="9.726999503790655"><ele>213.0</ele><time>2026-04-06T09:35:59.999Z</time></trkpt><trkpt lat="33.32725375493568" lon="9.72707602271394"><ele>213.0</ele><time>2026-04-06T09:36:00.999Z</time></trkpt><trkpt lat="33.326995189318836" lon="9.727153821769429"><ele>213.0</ele><time>2026-04-06T09:36:01.999Z</time></trkpt><trkpt lat="33.32673008505461" lon="9.727233203471455"><ele>213.0</ele><time>2026-04-06T09:36:02.999Z</time></trkpt><trkpt lat="33.32646416796386" lon="9.727306095852576"><ele>212.5</ele><time>2026-04-06T09:36:03.999Z</time></trkpt><trkpt lat="33.32619033928305" lon="9.727370253746797"><ele>212.0</ele><time>2026-04-06T09:36:05Z</time></trkpt><trkpt lat="33.32591011938243" lon="9.727428523975224"><ele>212.0</ele><time>2026-04-06T09:36:06Z</time></trkpt><trkpt lat="33.3256247970501" lon="9.727478201983553"><ele>212.0</ele><time>2026-04-06T09:36:07Z</time></trkpt><trkpt lat="33.32533960179469" lon="9.727524137184409"><ele>211.5</ele><time>2026-04-06T09:36:08Z</time></trkpt><trkpt lat="33.32506113376779" lon="9.727574825625624"><ele>211.0</ele><time>2026-04-06T09:36:09Z</time></trkpt><trkpt lat="33.32479084661696" lon="9.727628476508215"><ele>211.0</ele><time>2026-04-06T09:36:10Z</time></trkpt><trkpt lat="33.32452108224643" lon="9.727680367798115"><ele>211.0</ele><time>2026-04-06T09:36:11Z</time></trkpt><trkpt lat="33.32425106909919" lon="9.727733293644002"><ele>211.5</ele><time>2026-04-06T09:36:12Z</time></trkpt><trkpt lat="33.32398968289511" lon="9.727788581240478"><ele>212.0</ele><time>2026-04-06T09:36:13Z</time></trkpt><trkpt lat="33.32373293216522" lon="9.727844101394586"><ele>212.5</ele><time>2026-04-06T09:36:14Z</time></trkpt><trkpt lat="33.32348159666485" lon="9.727892992688222"><ele>213.0</ele><time>2026-04-06T09:36:15Z</time></trkpt><trkpt lat="33.3232340224942" lon="9.727936092478746"><ele>213.5</ele><time>2026-04-06T09:36:16Z</time></trkpt><trkpt lat="33.32299202704382" lon="9.727980353269206"><ele>214.0</ele><time>2026-04-06T09:36:17Z</time></trkpt><trkpt lat="33.322746619793" lon="9.728030946689227"><ele>214.0</ele><time>2026-04-06T09:36:18Z</time></trkpt><trkpt lat="33.32250377685111" lon="9.728082149538121"><ele>214.0</ele><time>2026-04-06T09:36:19Z</time></trkpt><trkpt lat="33.32226208410169" lon="9.728123659920016"><ele>215.0</ele><time>2026-04-06T09:36:20Z</time></trkpt><trkpt lat="33.3220249367416" lon="9.728146011750532"><ele>216.0</ele><time>2026-04-06T09:36:21Z</time></trkpt><trkpt lat="33.32179428783671" lon="9.728154303103071"><ele>216.0</ele><time>2026-04-06T09:36:22Z</time></trkpt><trkpt lat="33.32156314642773" lon="9.728146348973272"><ele>216.0</ele><time>2026-04-06T09:36:23Z</time></trkpt><trkpt lat="33.32133320294995" lon="9.728138147619624"><ele>215.5</ele><time>2026-04-06T09:36:24Z</time></trkpt><trkpt lat="33.32110460054908" lon="9.728146314178892"><ele>215.0</ele><time>2026-04-06T09:36:25Z</time></trkpt><trkpt lat="33.32087625566572" lon="9.728179853290085"><ele>215.0</ele><time>2026-04-06T09:36:26Z</time></trkpt><trkpt lat="33.32064182256366" lon="9.72823009255227"><ele>215.0</ele><time>2026-04-06T09:36:27Z</time></trkpt><trkpt lat="33.32041070900658" lon="9.728298378968702"><ele>214.5</ele><time>2026-04-06T09:36:28Z</time></trkpt><trkpt lat="33.32018241428012" lon="9.728375898642673"><ele>214.0</ele><time>2026-04-06T09:36:29Z</time></trkpt><trkpt lat="33.319954992739284" lon="9.728452084650208"><ele>214.0</ele><time>2026-04-06T09:36:30Z</time></trkpt><trkpt lat="33.31972833601812" lon="9.728529201044555"><ele>214.0</ele><time>2026-04-06T09:36:31Z</time></trkpt><trkpt lat="33.319504466484005" lon="9.728610213768182"><ele>214.0</ele><time>2026-04-06T09:36:32Z</time></trkpt><trkpt lat="33.319294673605675" lon="9.728691984220951"><ele>214.0</ele><time>2026-04-06T09:36:33Z</time></trkpt><trkpt lat="33.31909325280594" lon="9.728767269503958"><ele>214.0</ele><time>2026-04-06T09:36:34Z</time></trkpt><trkpt lat="33.31889959174708" lon="9.728831616097482"><ele>213.66666666666666</ele><time>2026-04-06T09:36:35Z</time></trkpt><trkpt lat="33.318715214956526" lon="9.728884802911724"><ele>213.33333333333331</ele><time>2026-04-06T09:36:36Z</time></trkpt><trkpt lat="33.31853603148967" lon="9.728928210912338"><ele>213.0</ele><time>2026-04-06T09:36:37Z</time></trkpt><trkpt lat="33.31836074151892" lon="9.7289625001779"><ele>213.0</ele><time>2026-04-06T09:36:38Z</time></trkpt><trkpt lat="33.31819534862846" lon="9.728994826037992"><ele>213.0</ele><time>2026-04-06T09:36:39Z</time></trkpt><trkpt lat="33.31803727916876" lon="9.729024491084935"><ele>213.0</ele><time>2026-04-06T09:36:40Z</time></trkpt><trkpt lat="33.31788206806351" lon="9.729055311054251"><ele>212.66666666666669</ele><time>2026-04-06T09:36:41Z</time></trkpt><trkpt lat="33.317728279358356" lon="9.729085286944668"><ele>212.33333333333334</ele><time>2026-04-06T09:36:42Z</time></trkpt><trkpt lat="33.31757279208001" lon="9.72911750841869"><ele>212.0</ele><time>2026-04-06T09:36:43Z</time></trkpt><trkpt lat="33.31741213650871" lon="9.729150976763206"><ele>212.0</ele><time>2026-04-06T09:36:44Z</time></trkpt><trkpt lat="33.317240132756865" lon="9.729177272528698"><ele>212.0</ele><time>2026-04-06T09:36:45Z</time></trkpt><trkpt lat="33.31706243677434" lon="9.729195629338202"><ele>212.0</ele><time>2026-04-06T09:36:46Z</time></trkpt><trkpt lat="33.31686558381454" lon="9.729225512263685"><ele>212.66666666666669</ele><time>2026-04-06T09:36:47Z</time></trkpt><trkpt lat="33.316658476087746" lon="9.729266786249587"><ele>213.33333333333331</ele><time>2026-04-06T09:36:48Z</time></trkpt><trkpt lat="33.31644671346151" lon="9.729307452010966"><ele>214.0</ele><time>2026-04-06T09:36:49Z</time></trkpt><trkpt lat="33.31623034355385" lon="9.729347834260338"><ele>214.0</ele><time>2026-04-06T09:36:50Z</time></trkpt><trkpt lat="33.31601655223824" lon="9.72938809175206"><ele>214.0</ele><time>2026-04-06T09:36:51Z</time></trkpt><trkpt lat="33.31580413511291" lon="9.729430902150025"><ele>214.0</ele><time>2026-04-06T09:36:52Z</time></trkpt><trkpt lat="33.31558893949737" lon="9.72947115385593"><ele>213.33333333333331</ele><time>2026-04-06T09:36:53Z</time></trkpt><trkpt lat="33.31537098299234" lon="9.729508615763784"><ele>212.66666666666669</ele><time>2026-04-06T09:36:54Z</time></trkpt><trkpt lat="33.31515322526" lon="9.729543652919025"><ele>212.0</ele><time>2026-04-06T09:36:55Z</time></trkpt><trkpt lat="33.31494997181641" lon="9.729572893126177"><ele>212.0</ele><time>2026-04-06T09:36:56Z</time></trkpt><trkpt lat="33.31476246706985" lon="9.729601767516968"><ele>212.0</ele><time>2026-04-06T09:36:57Z</time></trkpt><trkpt lat="33.314583269438884" lon="9.729629179158117"><ele>212.0</ele><time>2026-04-06T09:36:58Z</time></trkpt><trkpt lat="33.31442166906949" lon="9.729653138939568"><ele>212.0</ele><time>2026-04-06T09:36:59Z</time></trkpt><trkpt lat="33.31427542348271" lon="9.729673736888286"><ele>212.0</ele><time>2026-04-06T09:37:00Z</time></trkpt><trkpt lat="33.31414162966523" lon="9.72969163529158"><ele>212.0</ele><time>2026-04-06T09:37:01Z</time></trkpt><trkpt lat="33.31401371377644" lon="9.729706741934761"><ele>212.0</ele><time>2026-04-06T09:37:02Z</time></trkpt><trkpt lat="33.31388895529692" lon="9.729723229645161"><ele>212.0</ele><time>2026-04-06T09:37:03Z</time></trkpt><trkpt lat="33.31376090022402" lon="9.729737324720288"><ele>212.0</ele><time>2026-04-06T09:37:04Z</time></trkpt><trkpt lat="33.31363861113835" lon="9.729754001182679"><ele>212.0</ele><time>2026-04-06T09:37:05Z</time></trkpt><trkpt lat="33.313518732088596" lon="9.729771065573166"><ele>212.0</ele><time>2026-04-06T09:37:06Z</time></trkpt><trkpt lat="33.31339584829676" lon="9.729789469423398"><ele>212.0</ele><time>2026-04-06T09:37:07Z</time></trkpt><trkpt lat="33.313275311968106" lon="9.729808247705085"><ele>212.0</ele><time>2026-04-06T09:37:08Z</time></trkpt><trkpt lat="33.31316082509513" lon="9.729826730444069"><ele>212.0</ele><time>2026-04-06T09:37:09Z</time></trkpt><trkpt lat="33.313049687302794" lon="9.729842270582978"><ele>212.0</ele><time>2026-04-06T09:37:10Z</time></trkpt><trkpt lat="33.312940021582435" lon="9.729857442696975"><ele>211.5</ele><time>2026-04-06T09:37:11Z</time></trkpt><trkpt lat="33.31282771005059" lon="9.729875278407476"><ele>211.0</ele><time>2026-04-06T09:37:12Z</time></trkpt><trkpt lat="33.31270973981485" lon="9.729893734441491"><ele>210.5</ele><time>2026-04-06T09:37:13Z</time></trkpt><trkpt lat="33.31258562064813" lon="9.729912695506505"><ele>210.0</ele><time>2026-04-06T09:37:14Z</time></trkpt><trkpt lat="33.312459286467025" lon="9.729933518679283"><ele>210.0</ele><time>2026-04-06T09:37:15Z</time></trkpt><trkpt lat="33.312331303150366" lon="9.729958511589794"><ele>210.0</ele><time>2026-04-06T09:37:16Z</time></trkpt><trkpt lat="33.31220151075395" lon="9.729990492452176"><ele>210.0</ele><time>2026-04-06T09:37:17Z</time></trkpt><trkpt lat="33.312069463953925" lon="9.73002801461711"><ele>210.0</ele><time>2026-04-06T09:37:18Z</time></trkpt><trkpt lat="33.311928806971" lon="9.73006536504079"><ele>209.33333333333331</ele><time>2026-04-06T09:37:19Z</time></trkpt><trkpt lat="33.31177604714121" lon="9.730100489522812"><ele>208.66666666666666</ele><time>2026-04-06T09:37:20Z</time></trkpt><trkpt lat="33.311619723574616" lon="9.730133144520336"><ele>208.0</ele><time>2026-04-06T09:37:21Z</time></trkpt><trkpt lat="33.31145890074079" lon="9.730163143827438"><ele>208.0</ele><time>2026-04-06T09:37:22Z</time></trkpt><trkpt lat="33.31129267349533" lon="9.730191075965418"><ele>208.0</ele><time>2026-04-06T09:37:23Z</time></trkpt><trkpt lat="33.31112223979303" lon="9.730218717788746"><ele>208.0</ele><time>2026-04-06T09:37:24Z</time></trkpt><trkpt lat="33.31094488778562" lon="9.730246112129889"><ele>208.0</ele><time>2026-04-06T09:37:25Z</time></trkpt><trkpt lat="33.31075931286953" lon="9.730272480637964"><ele>208.0</ele><time>2026-04-06T09:37:26Z</time></trkpt><trkpt lat="33.31057330608718" lon="9.730298838469624"><ele>208.0</ele><time>2026-04-06T09:37:27Z</time></trkpt><trkpt lat="33.31038981968939" lon="9.73032502687167"><ele>207.66666666666666</ele><time>2026-04-06T09:37:27.999Z</time></trkpt><trkpt lat="33.31020825850202" lon="9.730353927466725"><ele>207.33333333333331</ele><time>2026-04-06T09:37:28.999Z</time></trkpt><trkpt lat="33.31002439007921" lon="9.730386301214859"><ele>207.0</ele><time>2026-04-06T09:37:29.999Z</time></trkpt><trkpt lat="33.3098436624287" lon="9.730421435338524"><ele>206.66666666666669</ele><time>2026-04-06T09:37:30.999Z</time></trkpt><trkpt lat="33.30966693183465" lon="9.73045727893581"><ele>206.33333333333334</ele><time>2026-04-06T09:37:31.999Z</time></trkpt><trkpt lat="33.309491109482536" lon="9.730485394770684"><ele>206.0</ele><time>2026-04-06T09:37:32.999Z</time></trkpt><trkpt lat="33.30931590025232" lon="9.730515295165217"><ele>206.0</ele><time>2026-04-06T09:37:33.999Z</time></trkpt><trkpt lat="33.30913983572719" lon="9.730542786813194"><ele>206.0</ele><time>2026-04-06T09:37:34.999Z</time></trkpt><trkpt lat="33.30896765240574" lon="9.73057453850093"><ele>206.0</ele><time>2026-04-06T09:37:35.999Z</time></trkpt><trkpt lat="33.30879427624685" lon="9.730606594521424"><ele>206.33333333333334</ele><time>2026-04-06T09:37:36.999Z</time></trkpt><trkpt lat="33.30861388294001" lon="9.730643896222283"><ele>206.66666666666669</ele><time>2026-04-06T09:37:37.999Z</time></trkpt><trkpt lat="33.308435195616156" lon="9.730680919388597"><ele>207.0</ele><time>2026-04-06T09:37:38.999Z</time></trkpt><trkpt lat="33.30825275403036" lon="9.730721435979586"><ele>207.0</ele><time>2026-04-06T09:37:39.999Z</time></trkpt><trkpt lat="33.308072736887624" lon="9.730762636459124"><ele>207.0</ele><time>2026-04-06T09:37:40.999Z</time></trkpt><trkpt lat="33.307896680227714" lon="9.730801207864557"><ele>207.0</ele><time>2026-04-06T09:37:41.999Z</time></trkpt><trkpt lat="33.30772079616115" lon="9.730838614995656"><ele>207.0</ele><time>2026-04-06T09:37:42.999Z</time></trkpt><trkpt lat="33.30754622723028" lon="9.730879760301521"><ele>207.0</ele><time>2026-04-06T09:37:43.999Z</time></trkpt><trkpt lat="33.307370131631956" lon="9.73092370685606"><ele>207.0</ele><time>2026-04-06T09:37:44.999Z</time></trkpt><trkpt lat="33.30719891550851" lon="9.730970511428072"><ele>208.5</ele><time>2026-04-06T09:37:45.999Z</time></trkpt><trkpt lat="33.30685441881398" lon="9.731064302522597"><ele>210.0</ele><time>2026-04-06T09:37:47.999Z</time></trkpt><trkpt lat="33.30668443922936" lon="9.731107011650955"><ele>210.0</ele><time>2026-04-06T09:37:48.999Z</time></trkpt><trkpt lat="33.306506880919315" lon="9.731155495346567"><ele>210.0</ele><time>2026-04-06T09:37:49.999Z</time></trkpt><trkpt lat="33.306329091406845" lon="9.731212770646538"><ele>210.0</ele><time>2026-04-06T09:37:50.999Z</time></trkpt><trkpt lat="33.306147255605026" lon="9.731277965390444"><ele>210.33333333333331</ele><time>2026-04-06T09:37:51.999Z</time></trkpt><trkpt lat="33.30596362092632" lon="9.731353488062819"><ele>210.66666666666666</ele><time>2026-04-06T09:37:52.999Z</time></trkpt><trkpt lat="33.30577775099585" lon="9.73143920395001"><ele>211.0</ele><time>2026-04-06T09:37:53.999Z</time></trkpt><trkpt lat="33.30558310634771" lon="9.731527222379931"><ele>211.0</ele><time>2026-04-06T09:37:54.999Z</time></trkpt><trkpt lat="33.30537907585428" lon="9.731611998253388"><ele>211.0</ele><time>2026-04-06T09:37:55.999Z</time></trkpt><trkpt lat="33.30517170118548" lon="9.7316908239997"><ele>211.0</ele><time>2026-04-06T09:37:56.999Z</time></trkpt><trkpt lat="33.30496286557415" lon="9.731763396465277"><ele>211.0</ele><time>2026-04-06T09:37:57.999Z</time></trkpt><trkpt lat="33.30474617166888" lon="9.73182962331078"><ele>211.0</ele><time>2026-04-06T09:37:58.999Z</time></trkpt><trkpt lat="33.3045234416681" lon="9.731889181913504"><ele>211.0</ele><time>2026-04-06T09:37:59.999Z</time></trkpt><trkpt lat="33.30430471436828" lon="9.731937408855295"><ele>211.0</ele><time>2026-04-06T09:38:00.999Z</time></trkpt><trkpt lat="33.304085641508536" lon="9.731971674157087"><ele>211.0</ele><time>2026-04-06T09:38:01.999Z</time></trkpt><trkpt lat="33.30386630912237" lon="9.732002407819799"><ele>211.0</ele><time>2026-04-06T09:38:02.999Z</time></trkpt><trkpt lat="33.30364965127157" lon="9.732038678046875"><ele>211.0</ele><time>2026-04-06T09:38:03.999Z</time></trkpt><trkpt lat="33.303436505938706" lon="9.732076077266102"><ele>211.0</ele><time>2026-04-06T09:38:04.999Z</time></trkpt><trkpt lat="33.30323170826038" lon="9.732113729506956"><ele>211.33333333333331</ele><time>2026-04-06T09:38:05.999Z</time></trkpt><trkpt lat="33.30303926839669" lon="9.732148986473467"><ele>211.66666666666669</ele><time>2026-04-06T09:38:06.999Z</time></trkpt><trkpt lat="33.30286193908478" lon="9.732186311093882"><ele>212.0</ele><time>2026-04-06T09:38:07.999Z</time></trkpt><trkpt lat="33.302688961384476" lon="9.732218700032304"><ele>212.0</ele><time>2026-04-06T09:38:08.999Z</time></trkpt><trkpt lat="33.30251396734362" lon="9.732251186179399"><ele>212.0</ele><time>2026-04-06T09:38:09.999Z</time></trkpt><trkpt lat="33.30234859604347" lon="9.732287866729692"><ele>212.0</ele><time>2026-04-06T09:38:11Z</time></trkpt><trkpt lat="33.302185344045775" lon="9.73232572876519"><ele>212.66666666666669</ele><time>2026-04-06T09:38:12Z</time></trkpt><trkpt lat="33.30202641212312" lon="9.732362518594726"><ele>213.33333333333331</ele><time>2026-04-06T09:38:13Z</time></trkpt><trkpt lat="33.30187895339135" lon="9.732396249874792"><ele>214.0</ele><time>2026-04-06T09:38:14Z</time></trkpt><trkpt lat="33.30173184816063" lon="9.732424029707209"><ele>214.0</ele><time>2026-04-06T09:38:15Z</time></trkpt><trkpt lat="33.301577931389595" lon="9.73245544079404"><ele>214.0</ele><time>2026-04-06T09:38:16Z</time></trkpt><trkpt lat="33.301421388116566" lon="9.732492568517259"><ele>214.0</ele><time>2026-04-06T09:38:17Z</time></trkpt><trkpt lat="33.30126669115105" lon="9.732527400874336"><ele>214.0</ele><time>2026-04-06T09:38:18Z</time></trkpt><trkpt lat="33.301111940529196" lon="9.732560054770785"><ele>214.0</ele><time>2026-04-06T09:38:19Z</time></trkpt><trkpt lat="33.300976315702634" lon="9.732590970533055"><ele>214.0</ele><time>2026-04-06T09:38:20Z</time></trkpt><trkpt lat="33.30085652526481" lon="9.73261573735193"><ele>214.0</ele><time>2026-04-06T09:38:21Z</time></trkpt><trkpt lat="33.30074620085533" lon="9.732640641074198"><ele>214.0</ele><time>2026-04-06T09:38:22Z</time></trkpt><trkpt lat="33.3006387272294" lon="9.732661349001424"><ele>213.99999999999997</ele><time>2026-04-06T09:38:23Z</time></trkpt><trkpt lat="33.30053921476167" lon="9.732684663560162"><ele>213.99999999999997</ele><time>2026-04-06T09:38:24Z</time></trkpt><trkpt lat="33.300452173102016" lon="9.73270607346698"><ele>214.0</ele><time>2026-04-06T09:38:25Z</time></trkpt><trkpt lat="33.300364959184336" lon="9.732721204616798"><ele>214.0</ele><time>2026-04-06T09:38:26Z</time></trkpt><trkpt lat="33.30027173977972" lon="9.73274072305023"><ele>214.0</ele><time>2026-04-06T09:38:27Z</time></trkpt><trkpt lat="33.30016974890016" lon="9.732762784847692"><ele>213.99999999999997</ele><time>2026-04-06T09:38:28Z</time></trkpt><trkpt lat="33.30007166178629" lon="9.732789027867868"><ele>213.99999999999997</ele><time>2026-04-06T09:38:29Z</time></trkpt><trkpt lat="33.29997580012284" lon="9.732810406282095"><ele>214.0</ele><time>2026-04-06T09:38:30Z</time></trkpt><trkpt lat="33.29989316826139" lon="9.732828122145698"><ele>214.0</ele><time>2026-04-06T09:38:31Z</time></trkpt><trkpt lat="33.299822412487394" lon="9.732842724521175"><ele>213.99999999999997</ele><time>2026-04-06T09:38:32Z</time></trkpt><trkpt lat="33.29975649183171" lon="9.732852509666925"><ele>214.0</ele><time>2026-04-06T09:38:33Z</time></trkpt><trkpt lat="33.29968853550089" lon="9.732861863233307"><ele>214.0</ele><time>2026-04-06T09:38:34Z</time></trkpt><trkpt lat="33.29961207711738" lon="9.732877970990057"><ele>214.0</ele><time>2026-04-06T09:38:35Z</time></trkpt><trkpt lat="33.299520520502874" lon="9.732893382270905"><ele>213.99999999999997</ele><time>2026-04-06T09:38:36Z</time></trkpt><trkpt lat="33.29941815758168" lon="9.732908620890873"><ele>214.0</ele><time>2026-04-06T09:38:37Z</time></trkpt><trkpt lat="33.29931032647781" lon="9.732923467688806"><ele>214.0</ele><time>2026-04-06T09:38:38Z</time></trkpt><trkpt lat="33.29918637257297" lon="9.732943793148637"><ele>214.0</ele><time>2026-04-06T09:38:39Z</time></trkpt><trkpt lat="33.29905426963598" lon="9.732969256106719"><ele>214.0</ele><time>2026-04-06T09:38:40Z</time></trkpt><trkpt lat="33.29891867702983" lon="9.732998044554448"><ele>214.0</ele><time>2026-04-06T09:38:41Z</time></trkpt><trkpt lat="33.29878446305797" lon="9.733025674508756"><ele>214.5</ele><time>2026-04-06T09:38:42Z</time></trkpt><trkpt lat="33.298644632173" lon="9.733055676410078"><ele>215.0</ele><time>2026-04-06T09:38:43Z</time></trkpt><trkpt lat="33.29849983583978" lon="9.733087547602901"><ele>215.5</ele><time>2026-04-06T09:38:44Z</time></trkpt><trkpt lat="33.29835023834984" lon="9.733122118178391"><ele>216.0</ele><time>2026-04-06T09:38:45Z</time></trkpt><trkpt lat="33.29819142171778" lon="9.733155698452833"><ele>215.66666666666669</ele><time>2026-04-06T09:38:46Z</time></trkpt><trkpt lat="33.29802837899693" lon="9.73319066684183"><ele>215.33333333333334</ele><time>2026-04-06T09:38:47Z</time></trkpt><trkpt lat="33.297859022130694" lon="9.733224131450347"><ele>215.0</ele><time>2026-04-06T09:38:48Z</time></trkpt><trkpt lat="33.297688280232535" lon="9.733259967794393"><ele>215.0</ele><time>2026-04-06T09:38:49Z</time></trkpt><trkpt lat="33.297518446290844" lon="9.733294780100055"><ele>215.0</ele><time>2026-04-06T09:38:50Z</time></trkpt><trkpt lat="33.29735217083354" lon="9.733325622717562"><ele>215.0</ele><time>2026-04-06T09:38:51Z</time></trkpt><trkpt lat="33.29719868020633" lon="9.733355823520803"><ele>215.0</ele><time>2026-04-06T09:38:52Z</time></trkpt><trkpt lat="33.29705016524218" lon="9.73337951655422"><ele>215.0</ele><time>2026-04-06T09:38:53Z</time></trkpt><trkpt lat="33.296908888771" lon="9.733405068407162"><ele>215.0</ele><time>2026-04-06T09:38:54Z</time></trkpt><trkpt lat="33.296764911425726" lon="9.733431726485907"><ele>215.0</ele><time>2026-04-06T09:38:55Z</time></trkpt><trkpt lat="33.29662343915632" lon="9.733458282411243"><ele>215.0</ele><time>2026-04-06T09:38:56Z</time></trkpt><trkpt lat="33.29648664498152" lon="9.733483997243715"><ele>215.0</ele><time>2026-04-06T09:38:57Z</time></trkpt><trkpt lat="33.2963613522761" lon="9.733509700648824"><ele>215.0</ele><time>2026-04-06T09:38:58Z</time></trkpt><trkpt lat="33.29623803880631" lon="9.733531707168607"><ele>215.0</ele><time>2026-04-06T09:38:59Z</time></trkpt><trkpt lat="33.29611801008646" lon="9.733552377698254"><ele>214.5</ele><time>2026-04-06T09:39:00Z</time></trkpt><trkpt lat="33.295998913174145" lon="9.733571508964323"><ele>214.0</ele><time>2026-04-06T09:39:01Z</time></trkpt><trkpt lat="33.29588796575188" lon="9.733591471953785"><ele>213.5</ele><time>2026-04-06T09:39:02Z</time></trkpt><trkpt lat="33.29577740064696" lon="9.733617589920817"><ele>213.0</ele><time>2026-04-06T09:39:03Z</time></trkpt><trkpt lat="33.29566160731487" lon="9.733640989683428"><ele>212.8</ele><time>2026-04-06T09:39:04Z</time></trkpt><trkpt lat="33.295552139306274" lon="9.733664307426093"><ele>212.60000000000002</ele><time>2026-04-06T09:39:05Z</time></trkpt><trkpt lat="33.295447805187166" lon="9.733682286866784"><ele>212.39999999999998</ele><time>2026-04-06T09:39:06Z</time></trkpt><trkpt lat="33.2953485158458" lon="9.733701346312378"><ele>212.2</ele><time>2026-04-06T09:39:07Z</time></trkpt><trkpt lat="33.295254007514814" lon="9.733716297422193"><ele>212.0</ele><time>2026-04-06T09:39:08Z</time></trkpt><trkpt lat="33.29516482452283" lon="9.73373117554122"><ele>212.0</ele><time>2026-04-06T09:39:09Z</time></trkpt><trkpt lat="33.29506909072111" lon="9.733748012508238"><ele>212.0</ele><time>2026-04-06T09:39:10Z</time></trkpt><trkpt lat="33.29497077445829" lon="9.733765809666032"><ele>212.0</ele><time>2026-04-06T09:39:11Z</time></trkpt><trkpt lat="33.29487115400589" lon="9.733783168255481"><ele>212.0</ele><time>2026-04-06T09:39:12Z</time></trkpt><trkpt lat="33.294769889723426" lon="9.733802419378193"><ele>212.0</ele><time>2026-04-06T09:39:13Z</time></trkpt><trkpt lat="33.29466245847674" lon="9.733822270266456"><ele>212.5</ele><time>2026-04-06T09:39:14Z</time></trkpt><trkpt lat="33.29454971575664" lon="9.733843231890798"><ele>213.0</ele><time>2026-04-06T09:39:15Z</time></trkpt><trkpt lat="33.29443187996827" lon="9.733865475636543"><ele>213.5</ele><time>2026-04-06T09:39:16Z</time></trkpt><trkpt lat="33.29430834661147" lon="9.733889357557715"><ele>214.0</ele><time>2026-04-06T09:39:17Z</time></trkpt><trkpt lat="33.294179925073514" lon="9.733915175420021"><ele>214.0</ele><time>2026-04-06T09:39:18Z</time></trkpt><trkpt lat="33.29405330839418" lon="9.733940938496103"><ele>214.0</ele><time>2026-04-06T09:39:19Z</time></trkpt><trkpt lat="33.293919623111755" lon="9.733965730293994"><ele>214.0</ele><time>2026-04-06T09:39:20Z</time></trkpt><trkpt lat="33.29378374708309" lon="9.733987149235988"><ele>214.0</ele><time>2026-04-06T09:39:21Z</time></trkpt><trkpt lat="33.293645299914644" lon="9.734011541913002"><ele>213.75</ele><time>2026-04-06T09:39:22Z</time></trkpt><trkpt lat="33.293503602629144" lon="9.73403814177044"><ele>213.5</ele><time>2026-04-06T09:39:23Z</time></trkpt><trkpt lat="33.293360532555" lon="9.734068320992755"><ele>213.25</ele><time>2026-04-06T09:39:24Z</time></trkpt><trkpt lat="33.29320998625344" lon="9.734096373394857"><ele>213.0</ele><time>2026-04-06T09:39:25Z</time></trkpt><trkpt lat="33.29306110607997" lon="9.734129623217239"><ele>213.0</ele><time>2026-04-06T09:39:26Z</time></trkpt><trkpt lat="33.29290694960463" lon="9.73416484176196"><ele>213.0</ele><time>2026-04-06T09:39:26.999Z</time></trkpt><trkpt lat="33.29275266518862" lon="9.734200935254762"><ele>213.0</ele><time>2026-04-06T09:39:27.999Z</time></trkpt><trkpt lat="33.29259155235114" lon="9.7342334233705"><ele>213.0</ele><time>2026-04-06T09:39:28.999Z</time></trkpt><trkpt lat="33.29242605124731" lon="9.734263475697245"><ele>213.0</ele><time>2026-04-06T09:39:29.999Z</time></trkpt><trkpt lat="33.292252102368124" lon="9.734292416315244"><ele>213.0</ele><time>2026-04-06T09:39:30.999Z</time></trkpt><trkpt lat="33.29207192854908" lon="9.73432327071027"><ele>212.66666666666669</ele><time>2026-04-06T09:39:31.999Z</time></trkpt><trkpt lat="33.29188352010282" lon="9.734356208455772"><ele>212.33333333333334</ele><time>2026-04-06T09:39:32.999Z</time></trkpt><trkpt lat="33.291700118094255" lon="9.734388333053221"><ele>212.0</ele><time>2026-04-06T09:39:33.999Z</time></trkpt><trkpt lat="33.29151654148952" lon="9.7344197435801"><ele>211.0</ele><time>2026-04-06T09:39:34.999Z</time></trkpt><trkpt lat="33.2913359849741" lon="9.73445171107612"><ele>210.0</ele><time>2026-04-06T09:39:35.999Z</time></trkpt><trkpt lat="33.29115197012179" lon="9.734485929774895"><ele>209.0</ele><time>2026-04-06T09:39:36.999Z</time></trkpt><trkpt lat="33.29097170726464" lon="9.734519544810357"><ele>209.0</ele><time>2026-04-06T09:39:37.999Z</time></trkpt><trkpt lat="33.29078955481904" lon="9.734549475549658"><ele>209.0</ele><time>2026-04-06T09:39:38.999Z</time></trkpt><trkpt lat="33.29060870217988" lon="9.734581489746228"><ele>209.0</ele><time>2026-04-06T09:39:39.999Z</time></trkpt><trkpt lat="33.290429985539845" lon="9.73461608114586"><ele>209.0</ele><time>2026-04-06T09:39:40.999Z</time></trkpt><trkpt lat="33.29025113783031" lon="9.734649519151956"><ele>209.0</ele><time>2026-04-06T09:39:41.999Z</time></trkpt><trkpt lat="33.290066086361506" lon="9.73468254489496"><ele>209.0</ele><time>2026-04-06T09:39:42.999Z</time></trkpt><trkpt lat="33.28988190273415" lon="9.734717739102884"><ele>209.0</ele><time>2026-04-06T09:39:43.999Z</time></trkpt><trkpt lat="33.28969085357547" lon="9.73475822665646"><ele>209.0</ele><time>2026-04-06T09:39:44.999Z</time></trkpt><trkpt lat="33.28949725000643" lon="9.734796610607667"><ele>209.0</ele><time>2026-04-06T09:39:45.999Z</time></trkpt><trkpt lat="33.289297811745385" lon="9.734830990712489"><ele>209.0</ele><time>2026-04-06T09:39:46.999Z</time></trkpt><trkpt lat="33.28910424834303" lon="9.734868718341275"><ele>209.0</ele><time>2026-04-06T09:39:47.999Z</time></trkpt><trkpt lat="33.28891120782805" lon="9.734907889819796"><ele>209.0</ele><time>2026-04-06T09:39:48.999Z</time></trkpt><trkpt lat="33.288722229201035" lon="9.734944584831426"><ele>209.0</ele><time>2026-04-06T09:39:49.999Z</time></trkpt><trkpt lat="33.28853174605879" lon="9.734979613822528"><ele>209.0</ele><time>2026-04-06T09:39:50.999Z</time></trkpt><trkpt lat="33.28834104942007" lon="9.735018746441089"><ele>209.0</ele><time>2026-04-06T09:39:51.999Z</time></trkpt><trkpt lat="33.28815305615118" lon="9.735057269969024"><ele>208.66666666666669</ele><time>2026-04-06T09:39:52.999Z</time></trkpt><trkpt lat="33.28796464643357" lon="9.735096334642998"><ele>208.33333333333331</ele><time>2026-04-06T09:39:53.999Z</time></trkpt><trkpt lat="33.28776844834864" lon="9.735137014906282"><ele>208.0</ele><time>2026-04-06T09:39:54.999Z</time></trkpt><trkpt lat="33.287568176950025" lon="9.735176789925513"><ele>208.0</ele><time>2026-04-06T09:39:55.999Z</time></trkpt><trkpt lat="33.28737095436672" lon="9.73521035542887"><ele>208.0</ele><time>2026-04-06T09:39:56.999Z</time></trkpt><trkpt lat="33.28717752805747" lon="9.735242880158781"><ele>208.0</ele><time>2026-04-06T09:39:57.999Z</time></trkpt><trkpt lat="33.286987512498584" lon="9.73528002158798"><ele>208.0</ele><time>2026-04-06T09:39:58.999Z</time></trkpt><trkpt lat="33.28681069640444" lon="9.735317443092727"><ele>208.0</ele><time>2026-04-06T09:39:59.999Z</time></trkpt><trkpt lat="33.28663598500049" lon="9.735354000892594"><ele>208.0</ele><time>2026-04-06T09:40:00.999Z</time></trkpt><trkpt lat="33.28645834655199" lon="9.735390062002834"><ele>208.0</ele><time>2026-04-06T09:40:01.999Z</time></trkpt><trkpt lat="33.286276263540195" lon="9.735425506234964"><ele>208.0</ele><time>2026-04-06T09:40:02.999Z</time></trkpt><trkpt lat="33.28609017694633" lon="9.735459612656252"><ele>208.0</ele><time>2026-04-06T09:40:03.999Z</time></trkpt><trkpt lat="33.285905339810874" lon="9.735496429081007"><ele>208.0</ele><time>2026-04-06T09:40:04.999Z</time></trkpt><trkpt lat="33.28571701932587" lon="9.735534763116508"><ele>208.0</ele><time>2026-04-06T09:40:05.999Z</time></trkpt><trkpt lat="33.28553956874967" lon="9.735573300765953"><ele>208.0</ele><time>2026-04-06T09:40:06.999Z</time></trkpt><trkpt lat="33.28535837521459" lon="9.735610068838705"><ele>208.33333333333331</ele><time>2026-04-06T09:40:07.999Z</time></trkpt><trkpt lat="33.28518387625185" lon="9.735645519721754"><ele>208.66666666666669</ele><time>2026-04-06T09:40:08.999Z</time></trkpt><trkpt lat="33.28501821964127" lon="9.735677280736084"><ele>209.0</ele><time>2026-04-06T09:40:09.999Z</time></trkpt><trkpt lat="33.284857807340735" lon="9.735709377892162"><ele>209.25</ele><time>2026-04-06T09:40:10.999Z</time></trkpt><trkpt lat="33.28470652910841" lon="9.735736876274641"><ele>209.5</ele><time>2026-04-06T09:40:11.999Z</time></trkpt><trkpt lat="33.28455823415009" lon="9.73576782335328"><ele>209.75</ele><time>2026-04-06T09:40:12.999Z</time></trkpt><trkpt lat="33.284420979280625" lon="9.735797626019941"><ele>210.0</ele><time>2026-04-06T09:40:13.999Z</time></trkpt><trkpt lat="33.28427602696873" lon="9.735826313692163"><ele>210.0</ele><time>2026-04-06T09:40:14.999Z</time></trkpt><trkpt lat="33.284119538249136" lon="9.735856020206166"><ele>210.0</ele><time>2026-04-06T09:40:15.999Z</time></trkpt><trkpt lat="33.283958182127556" lon="9.73588747639128"><ele>210.0</ele><time>2026-04-06T09:40:17Z</time></trkpt><trkpt lat="33.28379461440377" lon="9.73592125449659"><ele>211.0</ele><time>2026-04-06T09:40:18Z</time></trkpt><trkpt lat="33.283628021207576" lon="9.735954295238946"><ele>212.0</ele><time>2026-04-06T09:40:19Z</time></trkpt><trkpt lat="33.283460368293554" lon="9.735986393906478"><ele>213.0</ele><time>2026-04-06T09:40:20Z</time></trkpt><trkpt lat="33.283290273863976" lon="9.73601657634029"><ele>213.0</ele><time>2026-04-06T09:40:21Z</time></trkpt><trkpt lat="33.28311784601109" lon="9.736047696051168"><ele>213.0</ele><time>2026-04-06T09:40:22Z</time></trkpt><trkpt lat="33.282942420231464" lon="9.73608377782446"><ele>213.0</ele><time>2026-04-06T09:40:23Z</time></trkpt><trkpt lat="33.282767505340516" lon="9.736121297706054"><ele>213.33333333333331</ele><time>2026-04-06T09:40:24Z</time></trkpt><trkpt lat="33.28259133210056" lon="9.736155488044977"><ele>213.66666666666666</ele><time>2026-04-06T09:40:24.999Z</time></trkpt><trkpt lat="33.282409462140464" lon="9.73618658921233"><ele>214.0</ele><time>2026-04-06T09:40:26Z</time></trkpt><trkpt lat="33.28222502546236" lon="9.736216933078618"><ele>214.0</ele><time>2026-04-06T09:40:27Z</time></trkpt><trkpt lat="33.28203995243292" lon="9.736247683373112"><ele>214.0</ele><time>2026-04-06T09:40:28Z</time></trkpt><trkpt lat="33.281849739489566" lon="9.736280473333537"><ele>214.0</ele><time>2026-04-06T09:40:29Z</time></trkpt><trkpt lat="33.281655790237586" lon="9.736314917486496"><ele>214.0</ele><time>2026-04-06T09:40:30Z</time></trkpt><trkpt lat="33.28146010497276" lon="9.736353717948058"><ele>214.0</ele><time>2026-04-06T09:40:31Z</time></trkpt><trkpt lat="33.28125782592953" lon="9.736390619384572"><ele>214.0</ele><time>2026-04-06T09:40:32Z</time></trkpt><trkpt lat="33.2810528748951" lon="9.736430964019675"><ele>213.66666666666666</ele><time>2026-04-06T09:40:33Z</time></trkpt><trkpt lat="33.28084614433367" lon="9.736474053784045"><ele>213.33333333333331</ele><time>2026-04-06T09:40:34Z</time></trkpt><trkpt lat="33.280641390581415" lon="9.736519268434948"><ele>213.0</ele><time>2026-04-06T09:40:35Z</time></trkpt><trkpt lat="33.280434414407765" lon="9.736559626280831"><ele>213.66666666666669</ele><time>2026-04-06T09:40:36Z</time></trkpt><trkpt lat="33.28022683331574" lon="9.736597463266964"><ele>214.33333333333334</ele><time>2026-04-06T09:40:37Z</time></trkpt><trkpt lat="33.2800168622983" lon="9.736636977447944"><ele>215.0</ele><time>2026-04-06T09:40:38Z</time></trkpt><trkpt lat="33.27980503611994" lon="9.736676857980038"><ele>215.33333333333334</ele><time>2026-04-06T09:40:39Z</time></trkpt><trkpt lat="33.27959115073309" lon="9.736720573081781"><ele>215.66666666666669</ele><time>2026-04-06T09:40:40Z</time></trkpt><trkpt lat="33.27937506428762" lon="9.73676679328053"><ele>216.0</ele><time>2026-04-06T09:40:41Z</time></trkpt><trkpt lat="33.27915110228379" lon="9.736814870018714"><ele>215.5</ele><time>2026-04-06T09:40:42Z</time></trkpt><trkpt lat="33.27891610504427" lon="9.736860148517891"><ele>215.0</ele><time>2026-04-06T09:40:43Z</time></trkpt><trkpt lat="33.27866838445341" lon="9.736908074461702"><ele>215.0</ele><time>2026-04-06T09:40:44Z</time></trkpt><trkpt lat="33.27840392449585" lon="9.736959993609958"><ele>215.0</ele><time>2026-04-06T09:40:45Z</time></trkpt><trkpt lat="33.27813221444418" lon="9.737012214772625"><ele>214.5</ele><time>2026-04-06T09:40:46Z</time></trkpt><trkpt lat="33.277855836666" lon="9.737064286291659"><ele>214.0</ele><time>2026-04-06T09:40:47Z</time></trkpt><trkpt lat="33.27757910198668" lon="9.737119161341452"><ele>214.0</ele><time>2026-04-06T09:40:48Z</time></trkpt><trkpt lat="33.27730395699089" lon="9.737174138842024"><ele>214.0</ele><time>2026-04-06T09:40:49Z</time></trkpt><trkpt lat="33.277030930151675" lon="9.737225320003267"><ele>214.0</ele><time>2026-04-06T09:40:50Z</time></trkpt><trkpt lat="33.276768701716016" lon="9.737274684702436"><ele>214.0</ele><time>2026-04-06T09:40:51Z</time></trkpt><trkpt lat="33.27652646544098" lon="9.73731998064768"><ele>213.5</ele><time>2026-04-06T09:40:52Z</time></trkpt><trkpt lat="33.27629593033154" lon="9.737371594104124"><ele>213.0</ele><time>2026-04-06T09:40:53Z</time></trkpt><trkpt lat="33.27607342137728" lon="9.737419045006236"><ele>213.0</ele><time>2026-04-06T09:40:54Z</time></trkpt><trkpt lat="33.275858507095336" lon="9.7374610565748"><ele>213.0</ele><time>2026-04-06T09:40:55Z</time></trkpt><trkpt lat="33.27564074555923" lon="9.737503710883837"><ele>213.0</ele><time>2026-04-06T09:40:56Z</time></trkpt><trkpt lat="33.275421661565446" lon="9.73754513540811"><ele>213.66666666666669</ele><time>2026-04-06T09:40:57Z</time></trkpt><trkpt lat="33.27521178101175" lon="9.737584699148595"><ele>214.33333333333334</ele><time>2026-04-06T09:40:58Z</time></trkpt><trkpt lat="33.27499509235818" lon="9.737626309329006"><ele>215.0</ele><time>2026-04-06T09:40:59Z</time></trkpt><trkpt lat="33.27478586533642" lon="9.737665689708889"><ele>214.66666666666669</ele><time>2026-04-06T09:41:00Z</time></trkpt><trkpt lat="33.27457787197499" lon="9.737705034009362"><ele>214.33333333333331</ele><time>2026-04-06T09:41:01Z</time></trkpt><trkpt lat="33.274366655956065" lon="9.737745270519056"><ele>214.0</ele><time>2026-04-06T09:41:02Z</time></trkpt><trkpt lat="33.2741543756389" lon="9.737786537495708"><ele>215.0</ele><time>2026-04-06T09:41:03Z</time></trkpt><trkpt lat="33.27393431767701" lon="9.737830144464189"><ele>216.0</ele><time>2026-04-06T09:41:04Z</time></trkpt><trkpt lat="33.27371627339477" lon="9.73787079274054"><ele>217.0</ele><time>2026-04-06T09:41:05Z</time></trkpt><trkpt lat="33.273485015577606" lon="9.737915737678787"><ele>217.0</ele><time>2026-04-06T09:41:06Z</time></trkpt><trkpt lat="33.27325665477721" lon="9.73795832605687"><ele>217.0</ele><time>2026-04-06T09:41:07Z</time></trkpt><trkpt lat="33.27303072294519" lon="9.738002949185498"><ele>217.0</ele><time>2026-04-06T09:41:08Z</time></trkpt><trkpt lat="33.27280147377401" lon="9.738044550649061"><ele>217.0</ele><time>2026-04-06T09:41:09Z</time></trkpt><trkpt lat="33.27256533026155" lon="9.738088963566849"><ele>217.0</ele><time>2026-04-06T09:41:10Z</time></trkpt><trkpt lat="33.272325620671424" lon="9.738136120444775"><ele>217.0</ele><time>2026-04-06T09:41:11Z</time></trkpt><trkpt lat="33.27208506499247" lon="9.738182255748457"><ele>216.5</ele><time>2026-04-06T09:41:12Z</time></trkpt><trkpt lat="33.27184885974215" lon="9.738229700183325"><ele>216.0</ele><time>2026-04-06T09:41:13Z</time></trkpt><trkpt lat="33.271613462901" lon="9.738279590062222"><ele>216.0</ele><time>2026-04-06T09:41:14Z</time></trkpt><trkpt lat="33.27139141389116" lon="9.73832177582573"><ele>216.0</ele><time>2026-04-06T09:41:15Z</time></trkpt><trkpt lat="33.27118335439994" lon="9.738362687107436"><ele>216.0</ele><time>2026-04-06T09:41:16Z</time></trkpt><trkpt lat="33.27098364239032" lon="9.738408989184775"><ele>216.0</ele><time>2026-04-06T09:41:17Z</time></trkpt><trkpt lat="33.27077161966859" lon="9.738450186030796"><ele>216.0</ele><time>2026-04-06T09:41:18Z</time></trkpt><trkpt lat="33.27055544472668" lon="9.738489381208538"><ele>216.0</ele><time>2026-04-06T09:41:19Z</time></trkpt><trkpt lat="33.270333780758456" lon="9.738531001680231"><ele>217.5</ele><time>2026-04-06T09:41:20Z</time></trkpt><trkpt lat="33.270111187593805" lon="9.738570984718221"><ele>219.0</ele><time>2026-04-06T09:41:21Z</time></trkpt><trkpt lat="33.26988495975539" lon="9.73861379114126"><ele>219.33333333333331</ele><time>2026-04-06T09:41:22Z</time></trkpt><trkpt lat="33.26966408368227" lon="9.738656131929822"><ele>219.66666666666666</ele><time>2026-04-06T09:41:23Z</time></trkpt><trkpt lat="33.26944567557362" lon="9.73869650980784"><ele>220.0</ele><time>2026-04-06T09:41:24Z</time></trkpt><trkpt lat="33.26922801988016" lon="9.738734844089686"><ele>220.0</ele><time>2026-04-06T09:41:25Z</time></trkpt><trkpt lat="33.26903000090438" lon="9.738772706424555"><ele>220.0</ele><time>2026-04-06T09:41:26Z</time></trkpt><trkpt lat="33.26884558145995" lon="9.738807665234752"><ele>220.0</ele><time>2026-04-06T09:41:27Z</time></trkpt><trkpt lat="33.26866205885887" lon="9.738841206880876"><ele>220.0</ele><time>2026-04-06T09:41:28Z</time></trkpt><trkpt lat="33.26847930126029" lon="9.73887702998898"><ele>220.0</ele><time>2026-04-06T09:41:29Z</time></trkpt><trkpt lat="33.26829050203328" lon="9.7389155347578"><ele>220.0</ele><time>2026-04-06T09:41:30Z</time></trkpt><trkpt lat="33.26810482267971" lon="9.73895483200971"><ele>220.0</ele><time>2026-04-06T09:41:31Z</time></trkpt><trkpt lat="33.267929913013695" lon="9.738984600102985"><ele>220.0</ele><time>2026-04-06T09:41:32Z</time></trkpt><trkpt lat="33.2677704637624" lon="9.739016366424076"><ele>220.0</ele><time>2026-04-06T09:41:33Z</time></trkpt><trkpt lat="33.267628627304774" lon="9.739042234195301"><ele>220.0</ele><time>2026-04-06T09:41:34Z</time></trkpt><trkpt lat="33.2675029105368" lon="9.739068416830882"><ele>220.0</ele><time>2026-04-06T09:41:35Z</time></trkpt><trkpt lat="33.26738560149102" lon="9.739091715844076"><ele>220.0</ele><time>2026-04-06T09:41:35.999Z</time></trkpt><trkpt lat="33.267268632556444" lon="9.73911502846965"><ele>220.0</ele><time>2026-04-06T09:41:36.999Z</time></trkpt><trkpt lat="33.26715406238845" lon="9.73913932190876"><ele>220.0</ele><time>2026-04-06T09:41:37.999Z</time></trkpt><trkpt lat="33.267035829487824" lon="9.73916035653353"><ele>220.0</ele><time>2026-04-06T09:41:38.999Z</time></trkpt><trkpt lat="33.26692246817362" lon="9.739179669856421"><ele>220.0</ele><time>2026-04-06T09:41:39.999Z</time></trkpt><trkpt lat="33.26682242456565" lon="9.739200044121763"><ele>220.0</ele><time>2026-04-06T09:41:40.999Z</time></trkpt><trkpt lat="33.266724545382345" lon="9.739219044027445"><ele>220.0</ele><time>2026-04-06T09:41:41.999Z</time></trkpt><trkpt lat="33.26664104329178" lon="9.739233792095611"><ele>219.99999999999997</ele><time>2026-04-06T09:41:42.999Z</time></trkpt><trkpt lat="33.26656571396031" lon="9.739245501072272"><ele>220.0</ele><time>2026-04-06T09:41:43.999Z</time></trkpt><trkpt lat="33.26649533233748" lon="9.739255717194263"><ele>220.0</ele><time>2026-04-06T09:41:44.999Z</time></trkpt><trkpt lat="33.26643091117365" lon="9.739269022068113"><ele>220.0</ele><time>2026-04-06T09:41:45.999Z</time></trkpt><trkpt lat="33.266316398760736" lon="9.739294836295258"><ele>219.99999999999997</ele><time>2026-04-06T09:41:47.999Z</time></trkpt><trkpt lat="33.26623845803865" lon="9.739311240145199"><ele>220.0</ele><time>2026-04-06T09:41:48.999Z</time></trkpt><trkpt lat="33.266142784017035" lon="9.739329796337383"><ele>220.0</ele><time>2026-04-06T09:41:49.999Z</time></trkpt><trkpt lat="33.26603242148263" lon="9.739350682470313"><ele>220.0</ele><time>2026-04-06T09:41:50.999Z</time></trkpt><trkpt lat="33.26590422066704" lon="9.739375719489676"><ele>220.0</ele><time>2026-04-06T09:41:51.999Z</time></trkpt><trkpt lat="33.26576384951589" lon="9.739403333247768"><ele>220.0</ele><time>2026-04-06T09:41:52.999Z</time></trkpt><trkpt lat="33.26562264392196" lon="9.73943103952544"><ele>219.66666666666666</ele><time>2026-04-06T09:41:53.999Z</time></trkpt><trkpt lat="33.26547479677329" lon="9.739459577454829"><ele>219.33333333333331</ele><time>2026-04-06T09:41:54.999Z</time></trkpt><trkpt lat="33.26532468331351" lon="9.739488628825212"><ele>219.0</ele><time>2026-04-06T09:41:55.999Z</time></trkpt><trkpt lat="33.26517020883637" lon="9.739518389226836"><ele>219.0</ele><time>2026-04-06T09:41:56.999Z</time></trkpt><trkpt lat="33.26501487794096" lon="9.73954910350021"><ele>219.0</ele><time>2026-04-06T09:41:57.999Z</time></trkpt><trkpt lat="33.26486213421982" lon="9.739579434252537"><ele>219.0</ele><time>2026-04-06T09:41:58.999Z</time></trkpt><trkpt lat="33.26470452997156" lon="9.739611489865162"><ele>219.0</ele><time>2026-04-06T09:41:59.999Z</time></trkpt><trkpt lat="33.26454290780532" lon="9.739640729559694"><ele>219.0</ele><time>2026-04-06T09:42:00.999Z</time></trkpt><trkpt lat="33.26438250412095" lon="9.739668881568372"><ele>219.0</ele><time>2026-04-06T09:42:01.999Z</time></trkpt><trkpt lat="33.26421825884206" lon="9.739696563508813"><ele>219.0</ele><time>2026-04-06T09:42:02.999Z</time></trkpt><trkpt lat="33.2640521931914" lon="9.739729264890432"><ele>219.0</ele><time>2026-04-06T09:42:03.999Z</time></trkpt><trkpt lat="33.26388310299411" lon="9.739764378948749"><ele>219.0</ele><time>2026-04-06T09:42:04.999Z</time></trkpt><trkpt lat="33.26371214567176" lon="9.739798380495806"><ele>220.0</ele><time>2026-04-06T09:42:05.999Z</time></trkpt><trkpt lat="33.263544364434374" lon="9.739830060353379"><ele>221.0</ele><time>2026-04-06T09:42:06.999Z</time></trkpt><trkpt lat="33.263375160905795" lon="9.739863664107498"><ele>222.0</ele><time>2026-04-06T09:42:07.999Z</time></trkpt><trkpt lat="33.26320567390842" lon="9.739897038843072"><ele>222.33333333333331</ele><time>2026-04-06T09:42:08.999Z</time></trkpt><trkpt lat="33.26303927319496" lon="9.739928971806163"><ele>222.66666666666666</ele><time>2026-04-06T09:42:09.999Z</time></trkpt><trkpt lat="33.26287256314844" lon="9.739960363459256"><ele>223.0</ele><time>2026-04-06T09:42:10.999Z</time></trkpt><trkpt lat="33.26270105704024" lon="9.739988050283335"><ele>223.0</ele><time>2026-04-06T09:42:11.999Z</time></trkpt><trkpt lat="33.26253496456517" lon="9.740016264840014"><ele>223.0</ele><time>2026-04-06T09:42:12.999Z</time></trkpt><trkpt lat="33.26236516933614" lon="9.74004742193636"><ele>223.0</ele><time>2026-04-06T09:42:13.999Z</time></trkpt><trkpt lat="33.262194998216" lon="9.740083592325254"><ele>222.66666666666666</ele><time>2026-04-06T09:42:14.999Z</time></trkpt><trkpt lat="33.26202141496314" lon="9.74012267239043"><ele>222.33333333333331</ele><time>2026-04-06T09:42:15.999Z</time></trkpt><trkpt lat="33.261841503314265" lon="9.740158753545558"><ele>222.0</ele><time>2026-04-06T09:42:16.999Z</time></trkpt><trkpt lat="33.261658715000436" lon="9.740196428679873"><ele>221.66666666666669</ele><time>2026-04-06T09:42:17.999Z</time></trkpt><trkpt lat="33.2614695757846" lon="9.740233163659887"><ele>221.33333333333334</ele><time>2026-04-06T09:42:18.999Z</time></trkpt><trkpt lat="33.26128294364179" lon="9.740274416979796"><ele>221.0</ele><time>2026-04-06T09:42:19.999Z</time></trkpt><trkpt lat="33.26108799141031" lon="9.740306943695867"><ele>221.0</ele><time>2026-04-06T09:42:20.999Z</time></trkpt><trkpt lat="33.26089581035481" lon="9.740341727452376"><ele>221.0</ele><time>2026-04-06T09:42:21.999Z</time></trkpt><trkpt lat="33.260703808808614" lon="9.740376034113906"><ele>221.0</ele><time>2026-04-06T09:42:23Z</time></trkpt><trkpt lat="33.26050978827047" lon="9.740412346807762"><ele>221.66666666666669</ele><time>2026-04-06T09:42:24Z</time></trkpt><trkpt lat="33.26031808157945" lon="9.740450187963848"><ele>222.33333333333331</ele><time>2026-04-06T09:42:25Z</time></trkpt><trkpt lat="33.260125655630034" lon="9.74048523152035"><ele>223.0</ele><time>2026-04-06T09:42:26Z</time></trkpt><trkpt lat="33.25993632841759" lon="9.740517993358845"><ele>222.66666666666666</ele><time>2026-04-06T09:42:27Z</time></trkpt><trkpt lat="33.25973926373215" lon="9.740553695962227"><ele>222.33333333333331</ele><time>2026-04-06T09:42:28Z</time></trkpt><trkpt lat="33.259545015809444" lon="9.740585562687809"><ele>222.0</ele><time>2026-04-06T09:42:29Z</time></trkpt><trkpt lat="33.25934800214334" lon="9.740618167316425"><ele>222.0</ele><time>2026-04-06T09:42:30Z</time></trkpt><trkpt lat="33.25915064804461" lon="9.740657154161939"><ele>222.0</ele><time>2026-04-06T09:42:31Z</time></trkpt><trkpt lat="33.25895250151088" lon="9.740695638240657"><ele>222.0</ele><time>2026-04-06T09:42:32Z</time></trkpt><trkpt lat="33.25874848067835" lon="9.740731245678026"><ele>222.0</ele><time>2026-04-06T09:42:33Z</time></trkpt><trkpt lat="33.25854761098241" lon="9.740770715626452"><ele>222.0</ele><time>2026-04-06T09:42:34Z</time></trkpt><trkpt lat="33.25834176873538" lon="9.740805830504776"><ele>222.0</ele><time>2026-04-06T09:42:35Z</time></trkpt><trkpt lat="33.258134644252564" lon="9.740845568766053"><ele>221.33333333333331</ele><time>2026-04-06T09:42:36Z</time></trkpt><trkpt lat="33.257923957130274" lon="9.740888430785649"><ele>220.66666666666666</ele><time>2026-04-06T09:42:37Z</time></trkpt><trkpt lat="33.25770702146697" lon="9.740930267204595"><ele>220.0</ele><time>2026-04-06T09:42:38Z</time></trkpt><trkpt lat="33.25749175917922" lon="9.740973432866777"><ele>220.33333333333331</ele><time>2026-04-06T09:42:39Z</time></trkpt><trkpt lat="33.25727884491442" lon="9.741015829823384"><ele>220.66666666666669</ele><time>2026-04-06T09:42:40Z</time></trkpt><trkpt lat="33.257070904953004" lon="9.74105970568244"><ele>221.0</ele><time>2026-04-06T09:42:41Z</time></trkpt><trkpt lat="33.25685829828774" lon="9.741105926657418"><ele>221.0</ele><time>2026-04-06T09:42:42Z</time></trkpt><trkpt lat="33.256650864833375" lon="9.741149824316745"><ele>221.0</ele><time>2026-04-06T09:42:43Z</time></trkpt><trkpt lat="33.256437286500244" lon="9.741189018461604"><ele>221.0</ele><time>2026-04-06T09:42:44Z</time></trkpt><trkpt lat="33.256221385633474" lon="9.741226059603353"><ele>221.0</ele><time>2026-04-06T09:42:45Z</time></trkpt><trkpt lat="33.25600396986844" lon="9.741265984596552"><ele>221.0</ele><time>2026-04-06T09:42:46Z</time></trkpt><trkpt lat="33.255781751707666" lon="9.74130545362105"><ele>221.0</ele><time>2026-04-06T09:42:47Z</time></trkpt><trkpt lat="33.255565707105504" lon="9.7413462672464"><ele>221.0</ele><time>2026-04-06T09:42:48Z</time></trkpt><trkpt lat="33.25534866225397" lon="9.741393647285653"><ele>221.0</ele><time>2026-04-06T09:42:49Z</time></trkpt><trkpt lat="33.255133876386935" lon="9.741440902082186"><ele>221.0</ele><time>2026-04-06T09:42:50Z</time></trkpt><trkpt lat="33.25491072599801" lon="9.741484057023094"><ele>221.33333333333334</ele><time>2026-04-06T09:42:51Z</time></trkpt><trkpt lat="33.25469340712238" lon="9.741523410643492"><ele>221.66666666666669</ele><time>2026-04-06T09:42:52Z</time></trkpt><trkpt lat="33.25447482976596" lon="9.741561747885806"><ele>222.0</ele><time>2026-04-06T09:42:53Z</time></trkpt><trkpt lat="33.25425754852483" lon="9.741597509180494"><ele>222.0</ele><time>2026-04-06T09:42:54Z</time></trkpt><trkpt lat="33.254042952291776" lon="9.741628042818661"><ele>222.0</ele><time>2026-04-06T09:42:55Z</time></trkpt><trkpt lat="33.253834591494645" lon="9.741653266439537"><ele>222.0</ele><time>2026-04-06T09:42:56Z</time></trkpt><trkpt lat="33.253643092578834" lon="9.741672555849185"><ele>221.0</ele><time>2026-04-06T09:42:57Z</time></trkpt><trkpt lat="33.25347199163994" lon="9.741684911300483"><ele>220.0</ele><time>2026-04-06T09:42:58Z</time></trkpt><trkpt lat="33.25330273854403" lon="9.74169106356571"><ele>219.0</ele><time>2026-04-06T09:42:59Z</time></trkpt><trkpt lat="33.25313118075731" lon="9.741691280182891"><ele>219.66666666666669</ele><time>2026-04-06T09:43:00Z</time></trkpt><trkpt lat="33.25295163826578" lon="9.741683953181616"><ele>220.33333333333334</ele><time>2026-04-06T09:43:01Z</time></trkpt><trkpt lat="33.25277029929267" lon="9.741674722446778"><ele>221.0</ele><time>2026-04-06T09:43:02Z</time></trkpt><trkpt lat="33.25260433075095" lon="9.741673385801505"><ele>221.0</ele><time>2026-04-06T09:43:03Z</time></trkpt><trkpt lat="33.25245329396231" lon="9.741683865091117"><ele>221.0</ele><time>2026-04-06T09:43:04Z</time></trkpt><trkpt lat="33.25232137038536" lon="9.741704477789083"><ele>221.0</ele><time>2026-04-06T09:43:05Z</time></trkpt><trkpt lat="33.252181716117164" lon="9.741721152955416"><ele>221.0</ele><time>2026-04-06T09:43:06Z</time></trkpt><trkpt lat="33.25203633968427" lon="9.741741486645068"><ele>220.25</ele><time>2026-04-06T09:43:07Z</time></trkpt><trkpt lat="33.25189021655299" lon="9.741766771629228"><ele>219.5</ele><time>2026-04-06T09:43:08Z</time></trkpt><trkpt lat="33.25174709869455" lon="9.74179223740773"><ele>218.75</ele><time>2026-04-06T09:43:09Z</time></trkpt><trkpt lat="33.25160952135324" lon="9.741819649173781"><ele>218.0</ele><time>2026-04-06T09:43:10Z</time></trkpt><trkpt lat="33.25147284658055" lon="9.7418440922308"><ele>218.33333333333334</ele><time>2026-04-06T09:43:11Z</time></trkpt><trkpt lat="33.2513271381557" lon="9.741866216568809"><ele>218.66666666666669</ele><time>2026-04-06T09:43:12Z</time></trkpt><trkpt lat="33.251172302396604" lon="9.741893982913162"><ele>219.0</ele><time>2026-04-06T09:43:13Z</time></trkpt><trkpt lat="33.251012984834176" lon="9.7419184614187"><ele>219.0</ele><time>2026-04-06T09:43:14Z</time></trkpt><trkpt lat="33.25084247699113" lon="9.7419457517694"><ele>219.0</ele><time>2026-04-06T09:43:15Z</time></trkpt><trkpt lat="33.25067442177664" lon="9.741965838480251"><ele>219.0</ele><time>2026-04-06T09:43:16Z</time></trkpt><trkpt lat="33.25050281225597" lon="9.741986208701114"><ele>219.0</ele><time>2026-04-06T09:43:17Z</time></trkpt><trkpt lat="33.250329192030776" lon="9.742006567304164"><ele>219.0</ele><time>2026-04-06T09:43:18Z</time></trkpt><trkpt lat="33.25015191146726" lon="9.742026228897146"><ele>219.0</ele><time>2026-04-06T09:43:19Z</time></trkpt><trkpt lat="33.24997005980274" lon="9.742046983605194"><ele>218.66666666666669</ele><time>2026-04-06T09:43:20Z</time></trkpt><trkpt lat="33.249783220661804" lon="9.742068070187633"><ele>218.33333333333334</ele><time>2026-04-06T09:43:21Z</time></trkpt><trkpt lat="33.24959446777427" lon="9.74208839490681"><ele>218.0</ele><time>2026-04-06T09:43:22Z</time></trkpt><trkpt lat="33.249404324359745" lon="9.742112016110072"><ele>218.0</ele><time>2026-04-06T09:43:23Z</time></trkpt><trkpt lat="33.249217506032906" lon="9.742135928311287"><ele>218.0</ele><time>2026-04-06T09:43:24Z</time></trkpt><trkpt lat="33.24902370141678" lon="9.742161108563577"><ele>218.0</ele><time>2026-04-06T09:43:25Z</time></trkpt><trkpt lat="33.24883533016764" lon="9.742189318732294"><ele>218.0</ele><time>2026-04-06T09:43:26Z</time></trkpt><trkpt lat="33.248638662941374" lon="9.742219570776559"><ele>218.0</ele><time>2026-04-06T09:43:27Z</time></trkpt><trkpt lat="33.24843933716504" lon="9.742247805696065"><ele>218.0</ele><time>2026-04-06T09:43:28Z</time></trkpt><trkpt lat="33.24823534940191" lon="9.74227284482836"><ele>218.0</ele><time>2026-04-06T09:43:29Z</time></trkpt><trkpt lat="33.24803644562419" lon="9.74229882996232"><ele>218.0</ele><time>2026-04-06T09:43:30Z</time></trkpt><trkpt lat="33.24782872464633" lon="9.742331961338216"><ele>218.0</ele><time>2026-04-06T09:43:31Z</time></trkpt><trkpt lat="33.24762586836394" lon="9.742366225573425"><ele>218.0</ele><time>2026-04-06T09:43:32Z</time></trkpt><trkpt lat="33.24741785690077" lon="9.742403004598561"><ele>218.0</ele><time>2026-04-06T09:43:33Z</time></trkpt><trkpt lat="33.247207114932486" lon="9.742441369037344"><ele>218.0</ele><time>2026-04-06T09:43:34Z</time></trkpt><trkpt lat="33.24699601572958" lon="9.74247643861151"><ele>218.0</ele><time>2026-04-06T09:43:35Z</time></trkpt><trkpt lat="33.24678122276122" lon="9.742509734947024"><ele>218.0</ele><time>2026-04-06T09:43:36Z</time></trkpt><trkpt lat="33.246566024467015" lon="9.742545160824788"><ele>218.0</ele><time>2026-04-06T09:43:37Z</time></trkpt><trkpt lat="33.24635818987506" lon="9.742585465111416"><ele>217.33333333333334</ele><time>2026-04-06T09:43:38Z</time></trkpt><trkpt lat="33.24614752211868" lon="9.742622870969495"><ele>216.66666666666669</ele><time>2026-04-06T09:43:39Z</time></trkpt><trkpt lat="33.245939028414476" lon="9.742658084613511"><ele>216.0</ele><time>2026-04-06T09:43:40Z</time></trkpt><trkpt lat="33.24572444997105" lon="9.74269782897193"><ele>216.66666666666669</ele><time>2026-04-06T09:43:41Z</time></trkpt><trkpt lat="33.24551405934625" lon="9.742737354334816"><ele>217.33333333333334</ele><time>2026-04-06T09:43:42Z</time></trkpt><trkpt lat="33.24530022353953" lon="9.742780161473405"><ele>218.0</ele><time>2026-04-06T09:43:43Z</time></trkpt><trkpt lat="33.24508684109676" lon="9.742820541439622"><ele>218.0</ele><time>2026-04-06T09:43:44Z</time></trkpt><trkpt lat="33.24487358963301" lon="9.742861522674456"><ele>218.0</ele><time>2026-04-06T09:43:45Z</time></trkpt><trkpt lat="33.24466386587102" lon="9.742900502711821"><ele>218.0</ele><time>2026-04-06T09:43:46Z</time></trkpt><trkpt lat="33.24446759217596" lon="9.742936946474615"><ele>218.33333333333334</ele><time>2026-04-06T09:43:47Z</time></trkpt><trkpt lat="33.24428423654025" lon="9.742973673534996"><ele>218.66666666666669</ele><time>2026-04-06T09:43:48Z</time></trkpt><trkpt lat="33.24411221587318" lon="9.743004411525213"><ele>219.0</ele><time>2026-04-06T09:43:49Z</time></trkpt><trkpt lat="33.243944444204985" lon="9.743033935800481"><ele>219.0</ele><time>2026-04-06T09:43:50Z</time></trkpt><trkpt lat="33.24379772723047" lon="9.7430605531618"><ele>219.0</ele><time>2026-04-06T09:43:51Z</time></trkpt><trkpt lat="33.24366534662033" lon="9.743088387167411"><ele>219.0</ele><time>2026-04-06T09:43:52Z</time></trkpt><trkpt lat="33.24352842665576" lon="9.743117687006642"><ele>219.0</ele><time>2026-04-06T09:43:52.999Z</time></trkpt><trkpt lat="33.2433787324759" lon="9.743145713390502"><ele>219.0</ele><time>2026-04-06T09:43:53.999Z</time></trkpt><trkpt lat="33.24321860169742" lon="9.743174082575049"><ele>219.0</ele><time>2026-04-06T09:43:54.999Z</time></trkpt><trkpt lat="33.243057078316035" lon="9.743207828478436"><ele>219.0</ele><time>2026-04-06T09:43:55.999Z</time></trkpt><trkpt lat="33.24289515338868" lon="9.74324701430501"><ele>220.33333333333331</ele><time>2026-04-06T09:43:56.999Z</time></trkpt><trkpt lat="33.24273131862193" lon="9.74329255608039"><ele>221.66666666666666</ele><time>2026-04-06T09:43:57.999Z</time></trkpt><trkpt lat="33.24256577436302" lon="9.743345691403432"><ele>223.0</ele><time>2026-04-06T09:43:58.999Z</time></trkpt><trkpt lat="33.24239788522345" lon="9.743399918906375"><ele>224.0</ele><time>2026-04-06T09:43:59.999Z</time></trkpt><trkpt lat="33.24222805893438" lon="9.743454833264206"><ele>225.0</ele><time>2026-04-06T09:44:00.999Z</time></trkpt><trkpt lat="33.24205437855076" lon="9.743513457126927"><ele>226.0</ele><time>2026-04-06T09:44:01.999Z</time></trkpt><trkpt lat="33.24188296139724" lon="9.743573487438516"><ele>226.0</ele><time>2026-04-06T09:44:02.999Z</time></trkpt><trkpt lat="33.241710914660736" lon="9.74363793209606"><ele>226.0</ele><time>2026-04-06T09:44:03.999Z</time></trkpt><trkpt lat="33.24154004497751" lon="9.743712935419415"><ele>226.0</ele><time>2026-04-06T09:44:04.999Z</time></trkpt><trkpt lat="33.24136912542953" lon="9.743805579215152"><ele>225.66666666666666</ele><time>2026-04-06T09:44:05.999Z</time></trkpt><trkpt lat="33.24120641969712" lon="9.743906434030636"><ele>225.33333333333331</ele><time>2026-04-06T09:44:06.999Z</time></trkpt><trkpt lat="33.24105299988777" lon="9.743999535909513"><ele>225.0</ele><time>2026-04-06T09:44:07.999Z</time></trkpt><trkpt lat="33.24089551856156" lon="9.744087209417328"><ele>225.0</ele><time>2026-04-06T09:44:08.999Z</time></trkpt><trkpt lat="33.24072938260839" lon="9.744167047595898"><ele>225.0</ele><time>2026-04-06T09:44:09.999Z</time></trkpt><trkpt lat="33.240554494299474" lon="9.744236991884534"><ele>225.0</ele><time>2026-04-06T09:44:10.999Z</time></trkpt><trkpt lat="33.24037461479539" lon="9.74429311990448"><ele>224.66666666666669</ele><time>2026-04-06T09:44:11.999Z</time></trkpt><trkpt lat="33.240201175486284" lon="9.744327951989789"><ele>224.33333333333334</ele><time>2026-04-06T09:44:12.999Z</time></trkpt><trkpt lat="33.24003526269005" lon="9.74435572885247"><ele>224.0</ele><time>2026-04-06T09:44:13.999Z</time></trkpt><trkpt lat="33.239884178541075" lon="9.744378509869456"><ele>224.5</ele><time>2026-04-06T09:44:14.999Z</time></trkpt><trkpt lat="33.2397334945653" lon="9.744398234815842"><ele>225.0</ele><time>2026-04-06T09:44:15.999Z</time></trkpt><trkpt lat="33.23958538792911" lon="9.7444108021485"><ele>225.5</ele><time>2026-04-06T09:44:16.999Z</time></trkpt><trkpt lat="33.2394456224626" lon="9.744421063124104"><ele>226.0</ele><time>2026-04-06T09:44:17.999Z</time></trkpt><trkpt lat="33.23931897409336" lon="9.744423402175824"><ele>226.0</ele><time>2026-04-06T09:44:18.999Z</time></trkpt><trkpt lat="33.23919875173537" lon="9.744418098788339"><ele>226.0</ele><time>2026-04-06T09:44:19.999Z</time></trkpt><trkpt lat="33.239079932249396" lon="9.744397817953319"><ele>226.0</ele><time>2026-04-06T09:44:20.999Z</time></trkpt><trkpt lat="33.23895935515639" lon="9.744368774296635"><ele>226.0</ele><time>2026-04-06T09:44:21.999Z</time></trkpt><trkpt lat="33.238833082570004" lon="9.744332833430096"><ele>225.0</ele><time>2026-04-06T09:44:22.999Z</time></trkpt><trkpt lat="33.238693944075024" lon="9.74430044423725"><ele>224.0</ele><time>2026-04-06T09:44:23.999Z</time></trkpt><trkpt lat="33.23854431720006" lon="9.744273270890734"><ele>223.0</ele><time>2026-04-06T09:44:24.999Z</time></trkpt><trkpt lat="33.23838797893412" lon="9.744253096927949"><ele>223.0</ele><time>2026-04-06T09:44:25.999Z</time></trkpt><trkpt lat="33.238219561093175" lon="9.744245912658531"><ele>223.0</ele><time>2026-04-06T09:44:26.999Z</time></trkpt><trkpt lat="33.23804820525517" lon="9.744255672098003"><ele>223.0</ele><time>2026-04-06T09:44:27.999Z</time></trkpt><trkpt lat="33.23787133857749" lon="9.744274167376929"><ele>223.33333333333331</ele><time>2026-04-06T09:44:29Z</time></trkpt><trkpt lat="33.23769611102997" lon="9.744299222563502"><ele>223.66666666666669</ele><time>2026-04-06T09:44:30Z</time></trkpt><trkpt lat="33.23751844391051" lon="9.744331388605916"><ele>224.0</ele><time>2026-04-06T09:44:31Z</time></trkpt><trkpt lat="33.237333712132205" lon="9.74437130462803"><ele>224.0</ele><time>2026-04-06T09:44:32Z</time></trkpt><trkpt lat="33.237157105899215" lon="9.74441013016216"><ele>224.0</ele><time>2026-04-06T09:44:33Z</time></trkpt><trkpt lat="33.23697614264156" lon="9.744453409180103"><ele>224.0</ele><time>2026-04-06T09:44:34Z</time></trkpt><trkpt lat="33.236798860343676" lon="9.744494196835022"><ele>224.0</ele><time>2026-04-06T09:44:35Z</time></trkpt><trkpt lat="33.23662895293195" lon="9.744532350243647"><ele>224.0</ele><time>2026-04-06T09:44:36Z</time></trkpt><trkpt lat="33.236461170357636" lon="9.744565984143202"><ele>224.0</ele><time>2026-04-06T09:44:37Z</time></trkpt><trkpt lat="33.236295430868644" lon="9.744597304595874"><ele>224.0</ele><time>2026-04-06T09:44:38Z</time></trkpt><trkpt lat="33.236129565572895" lon="9.744627264399545"><ele>224.0</ele><time>2026-04-06T09:44:39Z</time></trkpt><trkpt lat="33.23596077742814" lon="9.74465930278539"><ele>224.0</ele><time>2026-04-06T09:44:40Z</time></trkpt><trkpt lat="33.23578740648812" lon="9.744690503609187"><ele>224.33333333333334</ele><time>2026-04-06T09:44:41Z</time></trkpt><trkpt lat="33.23560518254812" lon="9.74472245380997"><ele>224.66666666666669</ele><time>2026-04-06T09:44:42Z</time></trkpt><trkpt lat="33.23542490251763" lon="9.74475854616331"><ele>225.0</ele><time>2026-04-06T09:44:43Z</time></trkpt><trkpt lat="33.2352460085752" lon="9.744795548743003"><ele>225.0</ele><time>2026-04-06T09:44:44Z</time></trkpt><trkpt lat="33.23506263657892" lon="9.744836791920818"><ele>225.0</ele><time>2026-04-06T09:44:45Z</time></trkpt><trkpt lat="33.23487859314695" lon="9.744876163624896"><ele>225.0</ele><time>2026-04-06T09:44:46Z</time></trkpt><trkpt lat="33.234691274686355" lon="9.744913013646105"><ele>225.0</ele><time>2026-04-06T09:44:47Z</time></trkpt><trkpt lat="33.23450656059698" lon="9.744946257674616"><ele>225.0</ele><time>2026-04-06T09:44:48Z</time></trkpt><trkpt lat="33.23431235564253" lon="9.744977395233057"><ele>225.0</ele><time>2026-04-06T09:44:49Z</time></trkpt><trkpt lat="33.23411866644401" lon="9.745009359524124"><ele>225.0</ele><time>2026-04-06T09:44:50Z</time></trkpt><trkpt lat="33.23392201021979" lon="9.745042856989373"><ele>225.0</ele><time>2026-04-06T09:44:51Z</time></trkpt><trkpt lat="33.233721674184046" lon="9.745083132972834"><ele>225.0</ele><time>2026-04-06T09:44:52Z</time></trkpt><trkpt lat="33.23352254156452" lon="9.74512471681751"><ele>225.0</ele><time>2026-04-06T09:44:53Z</time></trkpt><trkpt lat="33.23332292925946" lon="9.745165264877853"><ele>225.0</ele><time>2026-04-06T09:44:54Z</time></trkpt><trkpt lat="33.23312285621706" lon="9.745203189552807"><ele>225.0</ele><time>2026-04-06T09:44:55Z</time></trkpt><trkpt lat="33.23292560152599" lon="9.745242757757024"><ele>225.0</ele><time>2026-04-06T09:44:56Z</time></trkpt><trkpt lat="33.23272674798287" lon="9.74528444183454"><ele>225.0</ele><time>2026-04-06T09:44:57Z</time></trkpt><trkpt lat="33.23252645608448" lon="9.74532499176894"><ele>225.0</ele><time>2026-04-06T09:44:58Z</time></trkpt><trkpt lat="33.23232462697034" lon="9.74536183243246"><ele>225.66666666666669</ele><time>2026-04-06T09:44:59Z</time></trkpt><trkpt lat="33.232125805892444" lon="9.745398096649518"><ele>226.33333333333334</ele><time>2026-04-06T09:45:00Z</time></trkpt><trkpt lat="33.231925837466584" lon="9.745437908297372"><ele>227.0</ele><time>2026-04-06T09:45:01Z</time></trkpt><trkpt lat="33.23172308004654" lon="9.74547836207447"><ele>227.0</ele><time>2026-04-06T09:45:02Z</time></trkpt><trkpt lat="33.231519981915746" lon="9.74552032186693"><ele>227.0</ele><time>2026-04-06T09:45:03Z</time></trkpt><trkpt lat="33.23130778354783" lon="9.745568056861504"><ele>227.0</ele><time>2026-04-06T09:45:04Z</time></trkpt><trkpt lat="33.231096425877126" lon="9.745611844441909"><ele>226.66666666666669</ele><time>2026-04-06T09:45:05Z</time></trkpt><trkpt lat="33.230880421555625" lon="9.745654061453928"><ele>226.33333333333331</ele><time>2026-04-06T09:45:06Z</time></trkpt><trkpt lat="33.23066294653823" lon="9.745698078067562"><ele>226.0</ele><time>2026-04-06T09:45:07Z</time></trkpt><trkpt lat="33.23043635415331" lon="9.745740365148297"><ele>226.0</ele><time>2026-04-06T09:45:08Z</time></trkpt><trkpt lat="33.2302019401511" lon="9.745783939757722"><ele>226.0</ele><time>2026-04-06T09:45:09Z</time></trkpt><trkpt lat="33.2299534742357" lon="9.745831962431218"><ele>226.5</ele><time>2026-04-06T09:45:10Z</time></trkpt><trkpt lat="33.22970043753658" lon="9.74587987101541"><ele>227.0</ele><time>2026-04-06T09:45:11Z</time></trkpt><trkpt lat="33.22944050586854" lon="9.74592342724306"><ele>227.0</ele><time>2026-04-06T09:45:12Z</time></trkpt><trkpt lat="33.22917573369441" lon="9.74596613597374"><ele>227.0</ele><time>2026-04-06T09:45:13Z</time></trkpt><trkpt lat="33.22890950473978" lon="9.746010347060707"><ele>226.0</ele><time>2026-04-06T09:45:14Z</time></trkpt><trkpt lat="33.22864079300774" lon="9.746055311380388"><ele>225.0</ele><time>2026-04-06T09:45:15Z</time></trkpt><trkpt lat="33.228372709627216" lon="9.74609702868746"><ele>225.5</ele><time>2026-04-06T09:45:16Z</time></trkpt><trkpt lat="33.2281014793202" lon="9.746138409993799"><ele>226.0</ele><time>2026-04-06T09:45:17Z</time></trkpt><trkpt lat="33.22783760908726" lon="9.746176566872723"><ele>226.0</ele><time>2026-04-06T09:45:18Z</time></trkpt><trkpt lat="33.22757251597541" lon="9.746224180515847"><ele>226.0</ele><time>2026-04-06T09:45:19Z</time></trkpt><trkpt lat="33.22729996616568" lon="9.74627313104319"><ele>227.0</ele><time>2026-04-06T09:45:20Z</time></trkpt><trkpt lat="33.22705369309393" lon="9.746321660599673"><ele>228.0</ele><time>2026-04-06T09:45:21Z</time></trkpt><trkpt lat="33.22682780639132" lon="9.746359227194036"><ele>228.0</ele><time>2026-04-06T09:45:22Z</time></trkpt><trkpt lat="33.22661875376562" lon="9.746396157859337"><ele>228.0</ele><time>2026-04-06T09:45:23Z</time></trkpt><trkpt lat="33.226428743073676" lon="9.74643410663125"><ele>228.0</ele><time>2026-04-06T09:45:24Z</time></trkpt><trkpt lat="33.22624727122078" lon="9.746468409967829"><ele>227.33333333333331</ele><time>2026-04-06T09:45:25Z</time></trkpt><trkpt lat="33.226079532946905" lon="9.746498356504217"><ele>226.66666666666666</ele><time>2026-04-06T09:45:26Z</time></trkpt><trkpt lat="33.22592122418934" lon="9.746526355997812"><ele>226.0</ele><time>2026-04-06T09:45:27Z</time></trkpt><trkpt lat="33.22577519283216" lon="9.746547760104876"><ele>226.0</ele><time>2026-04-06T09:45:28Z</time></trkpt><trkpt lat="33.22565486438783" lon="9.746570928541331"><ele>226.0</ele><time>2026-04-06T09:45:29Z</time></trkpt><trkpt lat="33.22554356685892" lon="9.746597500106303"><ele>226.0</ele><time>2026-04-06T09:45:30Z</time></trkpt><trkpt lat="33.225428390930965" lon="9.746619880253826"><ele>226.0</ele><time>2026-04-06T09:45:31Z</time></trkpt><trkpt lat="33.22528710905614" lon="9.746640075770033"><ele>226.66666666666666</ele><time>2026-04-06T09:45:32Z</time></trkpt><trkpt lat="33.22512841578547" lon="9.746669508129006"><ele>227.33333333333331</ele><time>2026-04-06T09:45:33Z</time></trkpt><trkpt lat="33.22495933823536" lon="9.746702790716004"><ele>228.0</ele><time>2026-04-06T09:45:34Z</time></trkpt><trkpt lat="33.2247886900975" lon="9.74673686428184"><ele>228.0</ele><time>2026-04-06T09:45:35Z</time></trkpt><trkpt lat="33.22461963132959" lon="9.74677214803896"><ele>228.0</ele><time>2026-04-06T09:45:36Z</time></trkpt><trkpt lat="33.22444490336494" lon="9.746804732545646"><ele>228.0</ele><time>2026-04-06T09:45:37Z</time></trkpt><trkpt lat="33.224263917462196" lon="9.746835382105928"><ele>228.0</ele><time>2026-04-06T09:45:38Z</time></trkpt><trkpt lat="33.224080437166556" lon="9.74686551077941"><ele>228.0</ele><time>2026-04-06T09:45:39Z</time></trkpt><trkpt lat="33.2238966100955" lon="9.74689479254379"><ele>228.0</ele><time>2026-04-06T09:45:40Z</time></trkpt><trkpt lat="33.22371775676844" lon="9.746925726519915"><ele>228.33333333333331</ele><time>2026-04-06T09:45:41Z</time></trkpt><trkpt lat="33.22352870179871" lon="9.746959427398956"><ele>228.66666666666666</ele><time>2026-04-06T09:45:42Z</time></trkpt><trkpt lat="33.22333727464541" lon="9.746995133755147"><ele>229.0</ele><time>2026-04-06T09:45:43Z</time></trkpt><trkpt lat="33.22314178209147" lon="9.747033816348653"><ele>229.0</ele><time>2026-04-06T09:45:44Z</time></trkpt><trkpt lat="33.22294164686723" lon="9.7470682526477"><ele>229.0</ele><time>2026-04-06T09:45:45Z</time></trkpt><trkpt lat="33.222744892373" lon="9.747101174217354"><ele>229.0</ele><time>2026-04-06T09:45:46Z</time></trkpt><trkpt lat="33.22254278004741" lon="9.747139591146146"><ele>229.0</ele><time>2026-04-06T09:45:47Z</time></trkpt><trkpt lat="33.22234080860712" lon="9.74718001071153"><ele>229.0</ele><time>2026-04-06T09:45:48Z</time></trkpt><trkpt lat="33.222140847174465" lon="9.747220008708783"><ele>229.0</ele><time>2026-04-06T09:45:49Z</time></trkpt><trkpt lat="33.22194000732993" lon="9.747264282421101"><ele>229.0</ele><time>2026-04-06T09:45:50Z</time></trkpt><trkpt lat="33.22173666776398" lon="9.747311721357146"><ele>229.0</ele><time>2026-04-06T09:45:51Z</time></trkpt><trkpt lat="33.22153103298574" lon="9.747358200181067"><ele>229.0</ele><time>2026-04-06T09:45:52Z</time></trkpt><trkpt lat="33.22132120084286" lon="9.747403254125581"><ele>228.66666666666666</ele><time>2026-04-06T09:45:53Z</time></trkpt><trkpt lat="33.22110907284" lon="9.747455871719076"><ele>228.33333333333331</ele><time>2026-04-06T09:45:54Z</time></trkpt><trkpt lat="33.2208945450727" lon="9.747510115421115"><ele>228.0</ele><time>2026-04-06T09:45:55Z</time></trkpt><trkpt lat="33.220681399410935" lon="9.747565351668138"><ele>227.5</ele><time>2026-04-06T09:45:56Z</time></trkpt><trkpt lat="33.22046337166874" lon="9.747624538033824"><ele>227.0</ele><time>2026-04-06T09:45:57Z</time></trkpt><trkpt lat="33.220242362005415" lon="9.747681138194286"><ele>227.0</ele><time>2026-04-06T09:45:58Z</time></trkpt><trkpt lat="33.220013714248964" lon="9.747737008889878"><ele>227.0</ele><time>2026-04-06T09:45:59Z</time></trkpt><trkpt lat="33.21979555844041" lon="9.747791098064537"><ele>227.66666666666669</ele><time>2026-04-06T09:46:00Z</time></trkpt><trkpt lat="33.21957011544802" lon="9.747857649120744"><ele>228.33333333333331</ele><time>2026-04-06T09:46:01Z</time></trkpt><trkpt lat="33.21937083348565" lon="9.747920080589028"><ele>229.0</ele><time>2026-04-06T09:46:02Z</time></trkpt><trkpt lat="33.21916847349936" lon="9.747982031918957"><ele>229.0</ele><time>2026-04-06T09:46:03Z</time></trkpt><trkpt lat="33.21896034309286" lon="9.74804713016961"><ele>229.0</ele><time>2026-04-06T09:46:04Z</time></trkpt><trkpt lat="33.21875691216326" lon="9.748112654220241"><ele>229.0</ele><time>2026-04-06T09:46:05Z</time></trkpt><trkpt lat="33.218539876186355" lon="9.748177812579177"><ele>229.0</ele><time>2026-04-06T09:46:06Z</time></trkpt><trkpt lat="33.21832127195833" lon="9.748244551770659"><ele>229.0</ele><time>2026-04-06T09:46:07Z</time></trkpt><trkpt lat="33.21809992634983" lon="9.74830938746944"><ele>229.5</ele><time>2026-04-06T09:46:08Z</time></trkpt><trkpt lat="33.21787484016265" lon="9.748371342800842"><ele>230.0</ele><time>2026-04-06T09:46:09Z</time></trkpt><trkpt lat="33.2176503640352" lon="9.748429050964608"><ele>230.0</ele><time>2026-04-06T09:46:10Z</time></trkpt><trkpt lat="33.217420115027565" lon="9.748483090544108"><ele>230.0</ele><time>2026-04-06T09:46:11Z</time></trkpt><trkpt lat="33.21718300238133" lon="9.74853386093002"><ele>229.5</ele><time>2026-04-06T09:46:12Z</time></trkpt><trkpt lat="33.21694744186995" lon="9.748584625737719"><ele>229.0</ele><time>2026-04-06T09:46:12.999Z</time></trkpt><trkpt lat="33.2167131710192" lon="9.748634901662951"><ele>229.5</ele><time>2026-04-06T09:46:13.999Z</time></trkpt><trkpt lat="33.2164755412846" lon="9.748687158776347"><ele>230.0</ele><time>2026-04-06T09:46:14.999Z</time></trkpt><trkpt lat="33.21624496000253" lon="9.748735623116511"><ele>230.0</ele><time>2026-04-06T09:46:15.999Z</time></trkpt><trkpt lat="33.21600910059455" lon="9.748782128810557"><ele>230.0</ele><time>2026-04-06T09:46:16.999Z</time></trkpt><trkpt lat="33.21577334500031" lon="9.748826385956956"><ele>231.0</ele><time>2026-04-06T09:46:17.999Z</time></trkpt><trkpt lat="33.215542236649924" lon="9.748869683245475"><ele>232.0</ele><time>2026-04-06T09:46:18.999Z</time></trkpt><trkpt lat="33.21531143800399" lon="9.748910214398954"><ele>232.0</ele><time>2026-04-06T09:46:19.999Z</time></trkpt><trkpt lat="33.21507837860735" lon="9.748952979491786"><ele>232.0</ele><time>2026-04-06T09:46:20.999Z</time></trkpt><trkpt lat="33.21484929132538" lon="9.748992243774078"><ele>231.5</ele><time>2026-04-06T09:46:21.999Z</time></trkpt><trkpt lat="33.21461667806264" lon="9.749036128421128"><ele>231.0</ele><time>2026-04-06T09:46:22.999Z</time></trkpt><trkpt lat="33.2143826681525" lon="9.74907888384037"><ele>231.0</ele><time>2026-04-06T09:46:23.999Z</time></trkpt><trkpt lat="33.21414451697099" lon="9.74912156422498"><ele>231.0</ele><time>2026-04-06T09:46:24.999Z</time></trkpt><trkpt lat="33.213905729573234" lon="9.749165549115492"><ele>231.0</ele><time>2026-04-06T09:46:25.999Z</time></trkpt><trkpt lat="33.21366631501171" lon="9.749212265191716"><ele>231.0</ele><time>2026-04-06T09:46:26.999Z</time></trkpt><trkpt lat="33.21342238650776" lon="9.749262496633632"><ele>231.0</ele><time>2026-04-06T09:46:27.999Z</time></trkpt><trkpt lat="33.213190644359145" lon="9.749309073382577"><ele>231.0</ele><time>2026-04-06T09:46:28.999Z</time></trkpt><trkpt lat="33.21296363894845" lon="9.749352318153399"><ele>231.0</ele><time>2026-04-06T09:46:29.999Z</time></trkpt><trkpt lat="33.212746698501554" lon="9.749398825681315"><ele>231.0</ele><time>2026-04-06T09:46:30.999Z</time></trkpt><trkpt lat="33.21252342004351" lon="9.749433165266849"><ele>231.0</ele><time>2026-04-06T09:46:31.999Z</time></trkpt><trkpt lat="33.21229595127242" lon="9.74946782604569"><ele>231.0</ele><time>2026-04-06T09:46:32.999Z</time></trkpt><trkpt lat="33.21207030108019" lon="9.749506412753474"><ele>231.0</ele><time>2026-04-06T09:46:34Z</time></trkpt><trkpt lat="33.211847388783376" lon="9.749542426316689"><ele>231.0</ele><time>2026-04-06T09:46:35Z</time></trkpt><trkpt lat="33.21162008019356" lon="9.74958021545792"><ele>231.0</ele><time>2026-04-06T09:46:36Z</time></trkpt><trkpt lat="33.211393699179915" lon="9.749617646963879"><ele>230.5</ele><time>2026-04-06T09:46:37Z</time></trkpt><trkpt lat="33.21116936638961" lon="9.749657724014615"><ele>230.0</ele><time>2026-04-06T09:46:38Z</time></trkpt><trkpt lat="33.21094128008021" lon="9.74970066935779"><ele>230.0</ele><time>2026-04-06T09:46:39Z</time></trkpt><trkpt lat="33.21071871110697" lon="9.749743387153377"><ele>230.0</ele><time>2026-04-06T09:46:40Z</time></trkpt><trkpt lat="33.21048918433937" lon="9.749784946182109"><ele>231.5</ele><time>2026-04-06T09:46:41Z</time></trkpt><trkpt lat="33.21026306429354" lon="9.749825823163613"><ele>233.0</ele><time>2026-04-06T09:46:42Z</time></trkpt><trkpt lat="33.21003731405972" lon="9.74987112828331"><ele>232.0</ele><time>2026-04-06T09:46:43Z</time></trkpt><trkpt lat="33.20980984004767" lon="9.749918456822545"><ele>231.0</ele><time>2026-04-06T09:46:44Z</time></trkpt><trkpt lat="33.20958234074313" lon="9.749968780848539"><ele>231.0</ele><time>2026-04-06T09:46:45Z</time></trkpt><trkpt lat="33.2093562186691" lon="9.750014711325091"><ele>231.0</ele><time>2026-04-06T09:46:46Z</time></trkpt><trkpt lat="33.209129288145924" lon="9.750062321815012"><ele>229.5</ele><time>2026-04-06T09:46:47Z</time></trkpt><trkpt lat="33.20890373470388" lon="9.750107641746137"><ele>228.0</ele><time>2026-04-06T09:46:48Z</time></trkpt><trkpt lat="33.20867605699884" lon="9.750153198461009"><ele>228.0</ele><time>2026-04-06T09:46:49Z</time></trkpt><trkpt lat="33.208450519655266" lon="9.75019647560053"><ele>228.0</ele><time>2026-04-06T09:46:50Z</time></trkpt><trkpt lat="33.20822277772942" lon="9.750238337561198"><ele>229.0</ele><time>2026-04-06T09:46:51Z</time></trkpt><trkpt lat="33.20799476742195" lon="9.750285357826419"><ele>230.0</ele><time>2026-04-06T09:46:52Z</time></trkpt><trkpt lat="33.20775158088548" lon="9.750337882815048"><ele>230.0</ele><time>2026-04-06T09:46:53Z</time></trkpt><trkpt lat="33.207496474358116" lon="9.750393224027498"><ele>230.0</ele><time>2026-04-06T09:46:54Z</time></trkpt><trkpt lat="33.20724260808789" lon="9.750448076308963"><ele>230.0</ele><time>2026-04-06T09:46:55Z</time></trkpt><trkpt lat="33.207001306537144" lon="9.75050063993578"><ele>230.0</ele><time>2026-04-06T09:46:56Z</time></trkpt><trkpt lat="33.20676389353859" lon="9.75054455775354"><ele>230.0</ele><time>2026-04-06T09:46:57Z</time></trkpt><trkpt lat="33.20652230825032" lon="9.75059451389144"><ele>230.0</ele><time>2026-04-06T09:46:58Z</time></trkpt><trkpt lat="33.206265056407766" lon="9.750647429696471"><ele>230.0</ele><time>2026-04-06T09:46:59Z</time></trkpt><trkpt lat="33.2060110827502" lon="9.750697194933304"><ele>230.0</ele><time>2026-04-06T09:47:00Z</time></trkpt><trkpt lat="33.20577006936012" lon="9.750747399922421"><ele>229.0</ele><time>2026-04-06T09:47:01Z</time></trkpt><trkpt lat="33.20554064467176" lon="9.750790797360082"><ele>228.0</ele><time>2026-04-06T09:47:02Z</time></trkpt><trkpt lat="33.205313339808555" lon="9.750829962274624"><ele>228.0</ele><time>2026-04-06T09:47:03Z</time></trkpt><trkpt lat="33.2050833760525" lon="9.750866018083878"><ele>228.0</ele><time>2026-04-06T09:47:04Z</time></trkpt><trkpt lat="33.20486573395643" lon="9.750897573831597"><ele>228.33333333333331</ele><time>2026-04-06T09:47:05Z</time></trkpt><trkpt lat="33.20466226825604" lon="9.750931157256392"><ele>228.66666666666666</ele><time>2026-04-06T09:47:06Z</time></trkpt><trkpt lat="33.2044511425821" lon="9.750973069691552"><ele>229.0</ele><time>2026-04-06T09:47:07Z</time></trkpt><trkpt lat="33.2042435287532" lon="9.751005586063634"><ele>229.0</ele><time>2026-04-06T09:47:08Z</time></trkpt><trkpt lat="33.204017745416145" lon="9.751028812533384"><ele>229.0</ele><time>2026-04-06T09:47:09Z</time></trkpt><trkpt lat="33.20379124863108" lon="9.751035220227884"><ele>230.0</ele><time>2026-04-06T09:47:10Z</time></trkpt><trkpt lat="33.20356062735274" lon="9.751025844864998"><ele>231.0</ele><time>2026-04-06T09:47:11Z</time></trkpt><trkpt lat="33.203329506147284" lon="9.751008041958318"><ele>230.5</ele><time>2026-04-06T09:47:12Z</time></trkpt><trkpt lat="33.203095137211974" lon="9.750998108321454"><ele>230.0</ele><time>2026-04-06T09:47:13Z</time></trkpt><trkpt lat="33.202866890711405" lon="9.751002659570505"><ele>230.0</ele><time>2026-04-06T09:47:14Z</time></trkpt><trkpt lat="33.20263465509696" lon="9.751030168480513"><ele>230.0</ele><time>2026-04-06T09:47:15Z</time></trkpt><trkpt lat="33.20240257169732" lon="9.751079866104424"><ele>230.0</ele><time>2026-04-06T09:47:16Z</time></trkpt><trkpt lat="33.20217143589317" lon="9.751146944635279"><ele>230.0</ele><time>2026-04-06T09:47:17Z</time></trkpt><trkpt lat="33.201960055549385" lon="9.751230115531555"><ele>230.0</ele><time>2026-04-06T09:47:18Z</time></trkpt><trkpt lat="33.20176670773327" lon="9.751326030571338"><ele>230.0</ele><time>2026-04-06T09:47:19Z</time></trkpt><trkpt lat="33.20158672970189" lon="9.751428135785604"><ele>230.0</ele><time>2026-04-06T09:47:20Z</time></trkpt><trkpt lat="33.201419608905745" lon="9.75153180060092"><ele>230.0</ele><time>2026-04-06T09:47:21Z</time></trkpt><trkpt lat="33.2012577218342" lon="9.751632633015522"><ele>230.0</ele><time>2026-04-06T09:47:22Z</time></trkpt><trkpt lat="33.20110254349445" lon="9.751720104867438"><ele>230.0</ele><time>2026-04-06T09:47:23Z</time></trkpt><trkpt lat="33.20095132662808" lon="9.751796140807134"><ele>230.0</ele><time>2026-04-06T09:47:24Z</time></trkpt><trkpt lat="33.200813036386606" lon="9.751855294545134"><ele>230.0</ele><time>2026-04-06T09:47:25Z</time></trkpt><trkpt lat="33.20069233501705" lon="9.751905339692064"><ele>230.0</ele><time>2026-04-06T09:47:26Z</time></trkpt><trkpt lat="33.20059211599199" lon="9.75193551078787"><ele>230.0</ele><time>2026-04-06T09:47:27Z</time></trkpt><trkpt lat="33.20050544813515" lon="9.751957136264824"><ele>230.2</ele><time>2026-04-06T09:47:28Z</time></trkpt><trkpt lat="33.20043022385756" lon="9.75197186920315"><ele>230.4</ele><time>2026-04-06T09:47:29Z</time></trkpt><trkpt lat="33.20034743124964" lon="9.751987889288936"><ele>230.60000000000002</ele><time>2026-04-06T09:47:30Z</time></trkpt><trkpt lat="33.2002499723742" lon="9.75201138873753"><ele>230.8</ele><time>2026-04-06T09:47:31Z</time></trkpt><trkpt lat="33.20014618896059" lon="9.75203601064437"><ele>231.0</ele><time>2026-04-06T09:47:32Z</time></trkpt><trkpt lat="33.20003905487857" lon="9.752060103459778"><ele>231.0</ele><time>2026-04-06T09:47:33Z</time></trkpt><trkpt lat="33.19992145622498" lon="9.752083802873331"><ele>231.00000000000003</ele><time>2026-04-06T09:47:34Z</time></trkpt><trkpt lat="33.19980446918895" lon="9.75210622399664"><ele>231.00000000000003</ele><time>2026-04-06T09:47:35Z</time></trkpt><trkpt lat="33.19970161037122" lon="9.752125151174754"><ele>231.0</ele><time>2026-04-06T09:47:36Z</time></trkpt><trkpt lat="33.19959510376418" lon="9.752141765497713"><ele>231.0</ele><time>2026-04-06T09:47:37Z</time></trkpt><trkpt lat="33.19948418906019" lon="9.752160210905247"><ele>231.0</ele><time>2026-04-06T09:47:38Z</time></trkpt><trkpt lat="33.19936778949736" lon="9.752181873570866"><ele>231.0</ele><time>2026-04-06T09:47:39Z</time></trkpt><trkpt lat="33.1992434361296" lon="9.752205897657571"><ele>231.0</ele><time>2026-04-06T09:47:40Z</time></trkpt><trkpt lat="33.19911929821192" lon="9.752227915910503"><ele>231.0</ele><time>2026-04-06T09:47:41Z</time></trkpt><trkpt lat="33.19898934814568" lon="9.75225132636509"><ele>231.0</ele><time>2026-04-06T09:47:42Z</time></trkpt><trkpt lat="33.19885358480683" lon="9.752277837624721"><ele>231.0</ele><time>2026-04-06T09:47:43Z</time></trkpt><trkpt lat="33.19870300754719" lon="9.752307746387798"><ele>231.0</ele><time>2026-04-06T09:47:44Z</time></trkpt><trkpt lat="33.19853982988464" lon="9.752339727010128"><ele>231.0</ele><time>2026-04-06T09:47:45Z</time></trkpt><trkpt lat="33.19836755375459" lon="9.752370043135683"><ele>231.0</ele><time>2026-04-06T09:47:46Z</time></trkpt><trkpt lat="33.19818916055181" lon="9.752406044714052"><ele>231.0</ele><time>2026-04-06T09:47:47Z</time></trkpt><trkpt lat="33.198004410901376" lon="9.75244304018911"><ele>230.66666666666669</ele><time>2026-04-06T09:47:48Z</time></trkpt><trkpt lat="33.19780721105511" lon="9.75248441285589"><ele>230.33333333333334</ele><time>2026-04-06T09:47:49Z</time></trkpt><trkpt lat="33.19760228410036" lon="9.752527347458397"><ele>230.0</ele><time>2026-04-06T09:47:50Z</time></trkpt><trkpt lat="33.197380820858875" lon="9.752574094913118"><ele>230.0</ele><time>2026-04-06T09:47:51Z</time></trkpt><trkpt lat="33.197162916784315" lon="9.752619707869066"><ele>230.0</ele><time>2026-04-06T09:47:52Z</time></trkpt><trkpt lat="33.19694336425823" lon="9.752662992032942"><ele>230.0</ele><time>2026-04-06T09:47:53Z</time></trkpt><trkpt lat="33.196715890709925" lon="9.752708574384904"><ele>230.0</ele><time>2026-04-06T09:47:54Z</time></trkpt><trkpt lat="33.196491413305296" lon="9.752754907664825"><ele>230.0</ele><time>2026-04-06T09:47:55Z</time></trkpt><trkpt lat="33.1962675459452" lon="9.752797616768207"><ele>230.0</ele><time>2026-04-06T09:47:56Z</time></trkpt><trkpt lat="33.19604852632013" lon="9.752840682816684"><ele>230.0</ele><time>2026-04-06T09:47:57Z</time></trkpt><trkpt lat="33.19583095142143" lon="9.752881870736664"><ele>230.0</ele><time>2026-04-06T09:47:58Z</time></trkpt><trkpt lat="33.19561801042387" lon="9.752925093136476"><ele>230.0</ele><time>2026-04-06T09:47:59Z</time></trkpt><trkpt lat="33.19540687778776" lon="9.7529656687085"><ele>230.0</ele><time>2026-04-06T09:48:00Z</time></trkpt><trkpt lat="33.19519297760059" lon="9.75300650953613"><ele>230.0</ele><time>2026-04-06T09:48:01Z</time></trkpt><trkpt lat="33.19498770938384" lon="9.753049555260855"><ele>230.33333333333334</ele><time>2026-04-06T09:48:02Z</time></trkpt><trkpt lat="33.19478172939044" lon="9.753088843057833"><ele>230.66666666666669</ele><time>2026-04-06T09:48:03Z</time></trkpt><trkpt lat="33.19456515417695" lon="9.753131801879572"><ele>231.0</ele><time>2026-04-06T09:48:04Z</time></trkpt><trkpt lat="33.194344350296625" lon="9.753173381233333"><ele>231.0</ele><time>2026-04-06T09:48:05Z</time></trkpt><trkpt lat="33.19411849305493" lon="9.753220047205243"><ele>231.0</ele><time>2026-04-06T09:48:06Z</time></trkpt><trkpt lat="33.19388769518575" lon="9.753268993810778"><ele>230.5</ele><time>2026-04-06T09:48:07Z</time></trkpt><trkpt lat="33.19366038489889" lon="9.753315650516043"><ele>230.0</ele><time>2026-04-06T09:48:08Z</time></trkpt><trkpt lat="33.19342902817486" lon="9.753364639509378"><ele>230.0</ele><time>2026-04-06T09:48:09Z</time></trkpt><trkpt lat="33.193196332560596" lon="9.75341162465127"><ele>230.0</ele><time>2026-04-06T09:48:10Z</time></trkpt><trkpt lat="33.19296557284671" lon="9.753456382932274"><ele>229.5</ele><time>2026-04-06T09:48:11Z</time></trkpt><trkpt lat="33.19273077036729" lon="9.753502877873059"><ele>229.0</ele><time>2026-04-06T09:48:12Z</time></trkpt><trkpt lat="33.19250083343323" lon="9.753544552674022"><ele>230.0</ele><time>2026-04-06T09:48:13Z</time></trkpt><trkpt lat="33.19226562844986" lon="9.753591962043322"><ele>231.0</ele><time>2026-04-06T09:48:14Z</time></trkpt><trkpt lat="33.19203127251415" lon="9.7536355092379"><ele>231.0</ele><time>2026-04-06T09:48:15Z</time></trkpt><trkpt lat="33.19179612544611" lon="9.753670437328362"><ele>231.0</ele><time>2026-04-06T09:48:16Z</time></trkpt><trkpt lat="33.19156142080333" lon="9.753707587989233"><ele>230.0</ele><time>2026-04-06T09:48:17Z</time></trkpt><trkpt lat="33.191329193491605" lon="9.753750587576535"><ele>229.0</ele><time>2026-04-06T09:48:18Z</time></trkpt><trkpt lat="33.190860533567324" lon="9.753838101395361"><ele>228.33333333333331</ele><time>2026-04-06T09:48:20Z</time></trkpt><trkpt lat="33.1906353207482" lon="9.753877347603598"><ele>227.66666666666669</ele><time>2026-04-06T09:48:21Z</time></trkpt><trkpt lat="33.19042351537985" lon="9.75391533500024"><ele>227.0</ele><time>2026-04-06T09:48:22Z</time></trkpt><trkpt lat="33.19021140038345" lon="9.753957007546976"><ele>227.0</ele><time>2026-04-06T09:48:23Z</time></trkpt><trkpt lat="33.18999661054809" lon="9.75400234606238"><ele>227.0</ele><time>2026-04-06T09:48:24Z</time></trkpt><trkpt lat="33.189781360767874" lon="9.75404760082322"><ele>227.0</ele><time>2026-04-06T09:48:25Z</time></trkpt><trkpt lat="33.18956696296673" lon="9.754088638587195"><ele>227.33333333333334</ele><time>2026-04-06T09:48:26Z</time></trkpt><trkpt lat="33.18935733902309" lon="9.754129249501567"><ele>227.66666666666669</ele><time>2026-04-06T09:48:27Z</time></trkpt><trkpt lat="33.18914945001859" lon="9.754167308246013"><ele>228.0</ele><time>2026-04-06T09:48:28Z</time></trkpt><trkpt lat="33.188934430610445" lon="9.754202958574549"><ele>228.33333333333331</ele><time>2026-04-06T09:48:29Z</time></trkpt><trkpt lat="33.18872092885626" lon="9.754239889180225"><ele>228.66666666666666</ele><time>2026-04-06T09:48:29.999Z</time></trkpt><trkpt lat="33.18850553582367" lon="9.7542773258335"><ele>229.0</ele><time>2026-04-06T09:48:30.999Z</time></trkpt><trkpt lat="33.18828772724998" lon="9.754315936506375"><ele>228.66666666666666</ele><time>2026-04-06T09:48:31.999Z</time></trkpt><trkpt lat="33.188071206735984" lon="9.754356273511966"><ele>228.33333333333331</ele><time>2026-04-06T09:48:32.999Z</time></trkpt><trkpt lat="33.18785303901451" lon="9.754399603388078"><ele>228.0</ele><time>2026-04-06T09:48:33.999Z</time></trkpt><trkpt lat="33.18763519062174" lon="9.754441780038807"><ele>228.0</ele><time>2026-04-06T09:48:34.999Z</time></trkpt><trkpt lat="33.187417897357655" lon="9.754483782640293"><ele>228.0</ele><time>2026-04-06T09:48:35.999Z</time></trkpt><trkpt lat="33.18720259942027" lon="9.754524653167904"><ele>228.0</ele><time>2026-04-06T09:48:36.999Z</time></trkpt><trkpt lat="33.18698513164714" lon="9.75456804515036"><ele>228.33333333333331</ele><time>2026-04-06T09:48:37.999Z</time></trkpt><trkpt lat="33.186772871187436" lon="9.754609510421508"><ele>228.66666666666666</ele><time>2026-04-06T09:48:38.999Z</time></trkpt><trkpt lat="33.1865550610959" lon="9.754652588472156"><ele>229.0</ele><time>2026-04-06T09:48:40Z</time></trkpt><trkpt lat="33.186339427964434" lon="9.754694703893138"><ele>229.0</ele><time>2026-04-06T09:48:41Z</time></trkpt><trkpt lat="33.186123049938246" lon="9.754739208369639"><ele>229.0</ele><time>2026-04-06T09:48:42Z</time></trkpt><trkpt lat="33.185909133003584" lon="9.754777715400095"><ele>229.0</ele><time>2026-04-06T09:48:43Z</time></trkpt><trkpt lat="33.185695314318856" lon="9.754819706272308"><ele>229.33333333333331</ele><time>2026-04-06T09:48:44Z</time></trkpt><trkpt lat="33.18548498918317" lon="9.75486240837065"><ele>229.66666666666669</ele><time>2026-04-06T09:48:45Z</time></trkpt><trkpt lat="33.18528817408542" lon="9.754902088666059"><ele>230.0</ele><time>2026-04-06T09:48:46Z</time></trkpt><trkpt lat="33.185097643391906" lon="9.754935634038533"><ele>230.0</ele><time>2026-04-06T09:48:47Z</time></trkpt><trkpt lat="33.18492419120563" lon="9.754969826843299"><ele>230.0</ele><time>2026-04-06T09:48:48Z</time></trkpt><trkpt lat="33.184770123754184" lon="9.754998445049715"><ele>230.0</ele><time>2026-04-06T09:48:49Z</time></trkpt><trkpt lat="33.184631980775215" lon="9.7550278496283"><ele>230.25</ele><time>2026-04-06T09:48:50Z</time></trkpt><trkpt lat="33.184505169007146" lon="9.755057437521168"><ele>230.5</ele><time>2026-04-06T09:48:51Z</time></trkpt><trkpt lat="33.18438676299321" lon="9.755083989322216"><ele>230.75</ele><time>2026-04-06T09:48:52Z</time></trkpt><trkpt lat="33.18427180427182" lon="9.755105171749003"><ele>231.0</ele><time>2026-04-06T09:48:53Z</time></trkpt><trkpt lat="33.184161910179796" lon="9.755127369500912"><ele>231.0</ele><time>2026-04-06T09:48:54Z</time></trkpt><trkpt lat="33.1840509785899" lon="9.755146592571487"><ele>231.0</ele><time>2026-04-06T09:48:55Z</time></trkpt><trkpt lat="33.18393707315754" lon="9.755164888392617"><ele>231.0</ele><time>2026-04-06T09:48:56Z</time></trkpt><trkpt lat="33.18382605052517" lon="9.75518337659316"><ele>231.0</ele><time>2026-04-06T09:48:57Z</time></trkpt><trkpt lat="33.18371306156421" lon="9.755208725629409"><ele>230.8</ele><time>2026-04-06T09:48:58Z</time></trkpt><trkpt lat="33.18359989695788" lon="9.755230478977005"><ele>230.60000000000002</ele><time>2026-04-06T09:48:59Z</time></trkpt><trkpt lat="33.18348906078859" lon="9.755249905218607"><ele>230.4</ele><time>2026-04-06T09:49:00Z</time></trkpt><trkpt lat="33.18338570635044" lon="9.755264220272814"><ele>230.2</ele><time>2026-04-06T09:49:01Z</time></trkpt><trkpt lat="33.18328643914483" lon="9.755278438733122"><ele>230.0</ele><time>2026-04-06T09:49:02Z</time></trkpt><trkpt lat="33.18319128383602" lon="9.7552932280993"><ele>230.00000000000003</ele><time>2026-04-06T09:49:03Z</time></trkpt><trkpt lat="33.18309896189203" lon="9.755307148547368"><ele>230.0</ele><time>2026-04-06T09:49:04Z</time></trkpt><trkpt lat="33.18301226524599" lon="9.755315827424408"><ele>230.0</ele><time>2026-04-06T09:49:05Z</time></trkpt><trkpt lat="33.18292974970094" lon="9.755323482572445"><ele>230.0</ele><time>2026-04-06T09:49:06Z</time></trkpt><trkpt lat="33.18285383785475" lon="9.755328705148408"><ele>230.00000000000003</ele><time>2026-04-06T09:49:07Z</time></trkpt><trkpt lat="33.18278308634958" lon="9.755337137020518"><ele>230.0</ele><time>2026-04-06T09:49:08Z</time></trkpt><trkpt lat="33.18271868074245" lon="9.755345168232257"><ele>229.99999999999997</ele><time>2026-04-06T09:49:09Z</time></trkpt><trkpt lat="33.18262456369061" lon="9.755357058103652"><ele>230.0</ele><time>2026-04-06T09:49:11Z</time></trkpt><trkpt lat="33.18256119215841" lon="9.755360731891425"><ele>229.99999999999997</ele><time>2026-04-06T09:49:13Z</time></trkpt><trkpt lat="33.18248845456513" lon="9.755377622264525"><ele>229.99999999999997</ele><time>2026-04-06T09:49:16Z</time></trkpt><trkpt lat="33.18241651080857" lon="9.755400676812403"><ele>230.0</ele><time>2026-04-06T09:49:19Z</time></trkpt><trkpt lat="33.18235530465711" lon="9.755422634538974"><ele>229.99999999999997</ele><time>2026-04-06T09:50:20Z</time></trkpt><trkpt lat="33.182287865790364" lon="9.755428769733166"><ele>229.99999999999997</ele><time>2026-04-06T09:50:23Z</time></trkpt><trkpt lat="33.182193450858264" lon="9.75542322342559"><ele>229.50000000000003</ele><time>2026-04-06T09:50:26Z</time></trkpt><trkpt lat="33.1820998855284" lon="9.755416623691122"><ele>229.0</ele><time>2026-04-06T09:50:29Z</time></trkpt><trkpt lat="33.18200268319367" lon="9.755412800855062"><ele>228.5</ele><time>2026-04-06T09:50:32Z</time></trkpt><trkpt lat="33.18191600024388" lon="9.755393707191915"><ele>228.0</ele><time>2026-04-06T09:50:33.999Z</time></trkpt><trkpt lat="33.18182865471352" lon="9.75537615661758"><ele>227.50000000000003</ele><time>2026-04-06T09:50:35.999Z</time></trkpt><trkpt lat="33.18176415702047" lon="9.755349153067325"><ele>227.0</ele><time>2026-04-06T09:50:37.999Z</time></trkpt><trkpt lat="33.18169176309904" lon="9.755322458526742"><ele>227.0</ele><time>2026-04-06T09:50:40.999Z</time></trkpt><trkpt lat="33.18162869658359" lon="9.755309883284887"><ele>227.0</ele><time>2026-04-06T09:51:07Z</time></trkpt><trkpt lat="33.18155695255715" lon="9.755268418390097"><ele>227.0</ele><time>2026-04-06T09:56:20.999Z</time></trkpt><trkpt lat="33.18143916438958" lon="9.755266026630405"><ele>227.0</ele><time>2026-04-06T09:56:22.999Z</time></trkpt><trkpt lat="33.181337043815596" lon="9.755269900876174"><ele>227.0</ele><time>2026-04-06T09:56:23.999Z</time></trkpt><trkpt lat="33.18119924863975" lon="9.755271667737535"><ele>227.0</ele><time>2026-04-06T09:56:24.999Z</time></trkpt><trkpt lat="33.18106165375028" lon="9.755267106551797"><ele>227.0</ele><time>2026-04-06T09:56:25.999Z</time></trkpt><trkpt lat="33.18094065882325" lon="9.755271121739272"><ele>227.0</ele><time>2026-04-06T09:56:26.999Z</time></trkpt><trkpt lat="33.180832219345376" lon="9.755284748236761"><ele>227.0</ele><time>2026-04-06T09:56:27.999Z</time></trkpt><trkpt lat="33.1807363383382" lon="9.755303444324126"><ele>227.00000000000003</ele><time>2026-04-06T09:56:28.999Z</time></trkpt><trkpt lat="33.18064815528359" lon="9.755322637923948"><ele>227.0</ele><time>2026-04-06T09:56:29.999Z</time></trkpt><trkpt lat="33.180564576294216" lon="9.755338895114829"><ele>227.0</ele><time>2026-04-06T09:56:30.999Z</time></trkpt><trkpt lat="33.180485171369014" lon="9.755355269612153"><ele>227.0</ele><time>2026-04-06T09:56:31.999Z</time></trkpt><trkpt lat="33.180402566013164" lon="9.755371754374153"><ele>227.00000000000003</ele><time>2026-04-06T09:56:32.999Z</time></trkpt><trkpt lat="33.18032168708097" lon="9.75538695112945"><ele>227.0</ele><time>2026-04-06T09:56:33.999Z</time></trkpt><trkpt lat="33.18023970280143" lon="9.755404636555715"><ele>227.00000000000003</ele><time>2026-04-06T09:56:34.999Z</time></trkpt><trkpt lat="33.18015854347534" lon="9.755426288498233"><ele>227.0</ele><time>2026-04-06T09:56:35.999Z</time></trkpt><trkpt lat="33.18006823517288" lon="9.755448230592698"><ele>227.0</ele><time>2026-04-06T09:56:36.999Z</time></trkpt><trkpt lat="33.17998777702977" lon="9.755465725183347"><ele>227.0</ele><time>2026-04-06T09:56:37.999Z</time></trkpt><trkpt lat="33.179918467642814" lon="9.755480742457804"><ele>227.00000000000003</ele><time>2026-04-06T09:56:38.999Z</time></trkpt><trkpt lat="33.17985051138774" lon="9.755497447651168"><ele>227.0</ele><time>2026-04-06T09:56:39.999Z</time></trkpt><trkpt lat="33.179778980547695" lon="9.755516538843702"><ele>227.39999999999998</ele><time>2026-04-06T09:56:40.999Z</time></trkpt><trkpt lat="33.17970265553917" lon="9.755537302553082"><ele>227.79999999999998</ele><time>2026-04-06T09:56:41.999Z</time></trkpt><trkpt lat="33.17961071176576" lon="9.755559149490034"><ele>228.2</ele><time>2026-04-06T09:56:42.999Z</time></trkpt><trkpt lat="33.1795198483543" lon="9.75558123253085"><ele>228.6</ele><time>2026-04-06T09:56:43.999Z</time></trkpt><trkpt lat="33.17942852504826" lon="9.75560582678813"><ele>229.0</ele><time>2026-04-06T09:56:44.999Z</time></trkpt><trkpt lat="33.179331902264686" lon="9.75563412144611"><ele>229.0</ele><time>2026-04-06T09:56:45.999Z</time></trkpt><trkpt lat="33.17922879055653" lon="9.755665785805288"><ele>229.0</ele><time>2026-04-06T09:56:46.999Z</time></trkpt><trkpt lat="33.17911752457727" lon="9.755703623425893"><ele>229.0</ele><time>2026-04-06T09:56:47.999Z</time></trkpt><trkpt lat="33.17899878465767" lon="9.755749626339204"><ele>229.0</ele><time>2026-04-06T09:56:48.999Z</time></trkpt><trkpt lat="33.17887560705626" lon="9.755794510685504"><ele>229.0</ele><time>2026-04-06T09:56:49.999Z</time></trkpt><trkpt lat="33.17875485369259" lon="9.755842572396904"><ele>229.0</ele><time>2026-04-06T09:56:50.999Z</time></trkpt><trkpt lat="33.17862582818372" lon="9.755891558617487"><ele>229.0</ele><time>2026-04-06T09:56:51.999Z</time></trkpt><trkpt lat="33.178487940959066" lon="9.75594115355923"><ele>229.0</ele><time>2026-04-06T09:56:52.999Z</time></trkpt><trkpt lat="33.17834631753474" lon="9.755995512330244"><ele>229.0</ele><time>2026-04-06T09:56:53.999Z</time></trkpt><trkpt lat="33.17819606062543" lon="9.756051732145272"><ele>229.0</ele><time>2026-04-06T09:56:54.999Z</time></trkpt><trkpt lat="33.178040825866624" lon="9.756110474088805"><ele>229.0</ele><time>2026-04-06T09:56:55.999Z</time></trkpt><trkpt lat="33.177883668498744" lon="9.75617168799196"><ele>228.66666666666666</ele><time>2026-04-06T09:56:56.999Z</time></trkpt><trkpt lat="33.17772069766085" lon="9.756228788835914"><ele>228.33333333333331</ele><time>2026-04-06T09:56:57.999Z</time></trkpt><trkpt lat="33.17755700746106" lon="9.756275817132995"><ele>228.0</ele><time>2026-04-06T09:56:58.999Z</time></trkpt><trkpt lat="33.177388160477406" lon="9.7563198972952"><ele>228.0</ele><time>2026-04-06T09:56:59.999Z</time></trkpt><trkpt lat="33.1772146123886" lon="9.756360056830845"><ele>228.0</ele><time>2026-04-06T09:57:00.999Z</time></trkpt><trkpt lat="33.17703637408804" lon="9.75639705541086"><ele>228.0</ele><time>2026-04-06T09:57:01.999Z</time></trkpt><trkpt lat="33.176862905488974" lon="9.756424081854945"><ele>228.0</ele><time>2026-04-06T09:57:02.999Z</time></trkpt><trkpt lat="33.17668790858024" lon="9.756457488795798"><ele>228.0</ele><time>2026-04-06T09:57:03.999Z</time></trkpt><trkpt lat="33.17651533106373" lon="9.75649193653734"><ele>228.0</ele><time>2026-04-06T09:57:04.999Z</time></trkpt><trkpt lat="33.1763375654052" lon="9.756524194248438"><ele>227.66666666666669</ele><time>2026-04-06T09:57:05.999Z</time></trkpt><trkpt lat="33.17615383471485" lon="9.756557082593844"><ele>227.33333333333334</ele><time>2026-04-06T09:57:06.999Z</time></trkpt><trkpt lat="33.17596980602388" lon="9.756586512883324"><ele>227.0</ele><time>2026-04-06T09:57:07.999Z</time></trkpt><trkpt lat="33.1757846097366" lon="9.756612029145412"><ele>226.66666666666669</ele><time>2026-04-06T09:57:08.999Z</time></trkpt><trkpt lat="33.17559597915631" lon="9.756627710158014"><ele>226.33333333333331</ele><time>2026-04-06T09:57:09.999Z</time></trkpt><trkpt lat="33.17540757059364" lon="9.756640338613794"><ele>226.0</ele><time>2026-04-06T09:57:10.999Z</time></trkpt><trkpt lat="33.17521502867154" lon="9.756652979345045"><ele>226.0</ele><time>2026-04-06T09:57:11.999Z</time></trkpt><trkpt lat="33.1750256282565" lon="9.75666197155073"><ele>226.0</ele><time>2026-04-06T09:57:12.999Z</time></trkpt><trkpt lat="33.17482697307887" lon="9.756666208767001"><ele>226.0</ele><time>2026-04-06T09:57:13.999Z</time></trkpt><trkpt lat="33.17463367794514" lon="9.756666595806385"><ele>225.0</ele><time>2026-04-06T09:57:14.999Z</time></trkpt><trkpt lat="33.17442943200889" lon="9.756671269355769"><ele>224.0</ele><time>2026-04-06T09:57:15.999Z</time></trkpt><trkpt lat="33.17423282827537" lon="9.756671609759334"><ele>223.0</ele><time>2026-04-06T09:57:16.999Z</time></trkpt><trkpt lat="33.17404365078595" lon="9.756677015874711"><ele>222.33333333333331</ele><time>2026-04-06T09:57:17.999Z</time></trkpt><trkpt lat="33.17385825030499" lon="9.75668751512274"><ele>221.66666666666669</ele><time>2026-04-06T09:57:18.999Z</time></trkpt><trkpt lat="33.17367342492599" lon="9.756696163994807"><ele>221.0</ele><time>2026-04-06T09:57:19.999Z</time></trkpt><trkpt lat="33.17349366629654" lon="9.756703731057948"><ele>221.0</ele><time>2026-04-06T09:57:20.999Z</time></trkpt><trkpt lat="33.17331509909522" lon="9.756716219150974"><ele>221.0</ele><time>2026-04-06T09:57:21.999Z</time></trkpt><trkpt lat="33.17314750708859" lon="9.75673354946521"><ele>221.0</ele><time>2026-04-06T09:57:22.999Z</time></trkpt><trkpt lat="33.172983215235604" lon="9.756754758810734"><ele>220.66666666666669</ele><time>2026-04-06T09:57:23.999Z</time></trkpt><trkpt lat="33.17282350726655" lon="9.756774013278868"><ele>220.33333333333331</ele><time>2026-04-06T09:57:24.999Z</time></trkpt><trkpt lat="33.17265920142376" lon="9.756800734187253"><ele>220.0</ele><time>2026-04-06T09:57:25.999Z</time></trkpt><trkpt lat="33.17248925399807" lon="9.756827486658564"><ele>220.33333333333331</ele><time>2026-04-06T09:57:26.999Z</time></trkpt><trkpt lat="33.17231473812842" lon="9.756860051821654"><ele>220.66666666666669</ele><time>2026-04-06T09:57:27.999Z</time></trkpt><trkpt lat="33.1721343174377" lon="9.756896714314255"><ele>221.0</ele><time>2026-04-06T09:57:28.999Z</time></trkpt><trkpt lat="33.171946464967654" lon="9.756938522136203"><ele>221.33333333333334</ele><time>2026-04-06T09:57:29.999Z</time></trkpt><trkpt lat="33.171756542364925" lon="9.756974943527304"><ele>221.66666666666669</ele><time>2026-04-06T09:57:30.999Z</time></trkpt><trkpt lat="33.171565253073254" lon="9.757001336181755"><ele>222.0</ele><time>2026-04-06T09:57:31.999Z</time></trkpt><trkpt lat="33.171365091540125" lon="9.757014704909082"><ele>222.0</ele><time>2026-04-06T09:57:32.999Z</time></trkpt><trkpt lat="33.17116776150483" lon="9.757024307448638"><ele>222.0</ele><time>2026-04-06T09:57:33.999Z</time></trkpt><trkpt lat="33.17096569751546" lon="9.757032391454166"><ele>222.0</ele><time>2026-04-06T09:57:34.999Z</time></trkpt><trkpt lat="33.170773690669236" lon="9.75703317593293"><ele>221.66666666666669</ele><time>2026-04-06T09:57:35.999Z</time></trkpt><trkpt lat="33.17058772339074" lon="9.757031764711083"><ele>221.33333333333334</ele><time>2026-04-06T09:57:36.999Z</time></trkpt><trkpt lat="33.17041229218482" lon="9.75704126075556"><ele>221.0</ele><time>2026-04-06T09:57:37.999Z</time></trkpt><trkpt lat="33.17023941845144" lon="9.757061044806083"><ele>221.0</ele><time>2026-04-06T09:57:38.999Z</time></trkpt><trkpt lat="33.1700680230937" lon="9.757080495746456"><ele>221.0</ele><time>2026-04-06T09:57:39.999Z</time></trkpt><trkpt lat="33.1698994194304" lon="9.757101016183938"><ele>221.0</ele><time>2026-04-06T09:57:40.999Z</time></trkpt><trkpt lat="33.16973461715813" lon="9.757135004426058"><ele>222.0</ele><time>2026-04-06T09:57:41.999Z</time></trkpt><trkpt lat="33.16957107812643" lon="9.757184852706677"><ele>223.0</ele><time>2026-04-06T09:57:42.999Z</time></trkpt><trkpt lat="33.16940869896573" lon="9.757251966079362"><ele>224.0</ele><time>2026-04-06T09:57:43.999Z</time></trkpt><trkpt lat="33.16925739209497" lon="9.757331930070935"><ele>224.0</ele><time>2026-04-06T09:57:44.999Z</time></trkpt><trkpt lat="33.16910773275961" lon="9.75742525863157"><ele>224.0</ele><time>2026-04-06T09:57:45.999Z</time></trkpt><trkpt lat="33.168964601298484" lon="9.75752547688705"><ele>224.0</ele><time>2026-04-06T09:57:46.999Z</time></trkpt><trkpt lat="33.168830537463265" lon="9.757625803501652"><ele>225.33333333333334</ele><time>2026-04-06T09:57:47.999Z</time></trkpt><trkpt lat="33.16869872467763" lon="9.757726096161663"><ele>226.66666666666669</ele><time>2026-04-06T09:57:48.999Z</time></trkpt><trkpt lat="33.16856902047788" lon="9.757820807062489"><ele>228.0</ele><time>2026-04-06T09:57:49.999Z</time></trkpt><trkpt lat="33.168438381603124" lon="9.757922765280094"><ele>228.0</ele><time>2026-04-06T09:57:50.999Z</time></trkpt><trkpt lat="33.16830896576723" lon="9.758010999921567"><ele>228.0</ele><time>2026-04-06T09:57:51.999Z</time></trkpt><trkpt lat="33.168182671807536" lon="9.758087588929934"><ele>228.0</ele><time>2026-04-06T09:57:52.999Z</time></trkpt><trkpt lat="33.168060251352955" lon="9.75815304973128"><ele>228.0</ele><time>2026-04-06T09:57:53.999Z</time></trkpt><trkpt lat="33.16793792220582" lon="9.758208465335489"><ele>228.0</ele><time>2026-04-06T09:57:54.999Z</time></trkpt><trkpt lat="33.16780831191448" lon="9.758255619847297"><ele>228.0</ele><time>2026-04-06T09:57:55.999Z</time></trkpt><trkpt lat="33.167677469160495" lon="9.758296190402579"><ele>228.0</ele><time>2026-04-06T09:57:56.999Z</time></trkpt><trkpt lat="33.16754588589796" lon="9.758331800450149"><ele>228.0</ele><time>2026-04-06T09:57:57.999Z</time></trkpt><trkpt lat="33.16741268212741" lon="9.758362634386778"><ele>227.25</ele><time>2026-04-06T09:57:58.999Z</time></trkpt><trkpt lat="33.16728257517316" lon="9.75839055181271"><ele>226.5</ele><time>2026-04-06T09:57:59.999Z</time></trkpt><trkpt lat="33.16714892058988" lon="9.758411253905885"><ele>225.75</ele><time>2026-04-06T09:58:00.999Z</time></trkpt><trkpt lat="33.16701858755051" lon="9.758437100637884"><ele>225.0</ele><time>2026-04-06T09:58:01.999Z</time></trkpt><trkpt lat="33.16688462836629" lon="9.758463774289009"><ele>225.0</ele><time>2026-04-06T09:58:02.999Z</time></trkpt><trkpt lat="33.16675000269312" lon="9.758487725857947"><ele>225.0</ele><time>2026-04-06T09:58:03.999Z</time></trkpt><trkpt lat="33.16660765956305" lon="9.758510784531428"><ele>225.0</ele><time>2026-04-06T09:58:04.999Z</time></trkpt><trkpt lat="33.16646727140115" lon="9.75854054335462"><ele>225.0</ele><time>2026-04-06T09:58:05.999Z</time></trkpt><trkpt lat="33.1663239172733" lon="9.758571070751547"><ele>225.0</ele><time>2026-04-06T09:58:06.999Z</time></trkpt><trkpt lat="33.16617590560881" lon="9.758599631344824"><ele>225.0</ele><time>2026-04-06T09:58:07.999Z</time></trkpt><trkpt lat="33.166030079178356" lon="9.75862408000313"><ele>225.0</ele><time>2026-04-06T09:58:08.999Z</time></trkpt><trkpt lat="33.165887953167456" lon="9.758649208106556"><ele>225.0</ele><time>2026-04-06T09:58:09.999Z</time></trkpt><trkpt lat="33.16574509990071" lon="9.758674774016994"><ele>225.25</ele><time>2026-04-06T09:58:10.999Z</time></trkpt><trkpt lat="33.16560277264675" lon="9.758703749370845"><ele>225.5</ele><time>2026-04-06T09:58:11.999Z</time></trkpt><trkpt lat="33.16546176966519" lon="9.758731203077904"><ele>225.75</ele><time>2026-04-06T09:58:12.999Z</time></trkpt><trkpt lat="33.1653202296108" lon="9.758753321820462"><ele>226.0</ele><time>2026-04-06T09:58:13.999Z</time></trkpt><trkpt lat="33.16518020922599" lon="9.7587727367509"><ele>226.0</ele><time>2026-04-06T09:58:14.999Z</time></trkpt><trkpt lat="33.1650412700876" lon="9.758797655194408"><ele>226.0</ele><time>2026-04-06T09:58:15.999Z</time></trkpt><trkpt lat="33.16490524460582" lon="9.758819001998262"><ele>226.0</ele><time>2026-04-06T09:58:16.999Z</time></trkpt><trkpt lat="33.16476233673845" lon="9.758843571206244"><ele>226.0</ele><time>2026-04-06T09:58:17.999Z</time></trkpt><trkpt lat="33.16461632606632" lon="9.758873237965343"><ele>226.0</ele><time>2026-04-06T09:58:18.999Z</time></trkpt><trkpt lat="33.16446355686514" lon="9.758907100480648"><ele>226.0</ele><time>2026-04-06T09:58:19.999Z</time></trkpt><trkpt lat="33.1643011650758" lon="9.758940256225374"><ele>226.0</ele><time>2026-04-06T09:58:20.999Z</time></trkpt><trkpt lat="33.16413191529701" lon="9.758974526006334"><ele>226.0</ele><time>2026-04-06T09:58:21.999Z</time></trkpt><trkpt lat="33.16396380511337" lon="9.759011305727809"><ele>226.0</ele><time>2026-04-06T09:58:22.999Z</time></trkpt><trkpt lat="33.16379225380778" lon="9.759048254588526"><ele>226.0</ele><time>2026-04-06T09:58:23.999Z</time></trkpt><trkpt lat="33.163614670862934" lon="9.759078632357982"><ele>226.0</ele><time>2026-04-06T09:58:24.999Z</time></trkpt><trkpt lat="33.16343127528516" lon="9.759111912653514"><ele>226.0</ele><time>2026-04-06T09:58:25.999Z</time></trkpt><trkpt lat="33.16324456076892" lon="9.759149408204276"><ele>226.0</ele><time>2026-04-06T09:58:26.999Z</time></trkpt><trkpt lat="33.163059774879684" lon="9.759185582722653"><ele>226.0</ele><time>2026-04-06T09:58:27.999Z</time></trkpt><trkpt lat="33.162866731924154" lon="9.759222468826808"><ele>226.0</ele><time>2026-04-06T09:58:28.999Z</time></trkpt><trkpt lat="33.16267273752786" lon="9.75926348025839"><ele>226.0</ele><time>2026-04-06T09:58:29.999Z</time></trkpt><trkpt lat="33.16247716430748" lon="9.759309115051385"><ele>226.0</ele><time>2026-04-06T09:58:30.999Z</time></trkpt><trkpt lat="33.16227303745244" lon="9.75935275090769"><ele>226.0</ele><time>2026-04-06T09:58:31.999Z</time></trkpt><trkpt lat="33.16206773313165" lon="9.759397847923761"><ele>226.0</ele><time>2026-04-06T09:58:32.999Z</time></trkpt><trkpt lat="33.161861523282234" lon="9.759438968624924"><ele>226.0</ele><time>2026-04-06T09:58:33.999Z</time></trkpt><trkpt lat="33.161662266255036" lon="9.759478969184388"><ele>226.0</ele><time>2026-04-06T09:58:34.999Z</time></trkpt><trkpt lat="33.16146482267212" lon="9.759515372619708"><ele>226.0</ele><time>2026-04-06T09:58:35.999Z</time></trkpt><trkpt lat="33.16126950083176" lon="9.759552477964455"><ele>226.0</ele><time>2026-04-06T09:58:36.999Z</time></trkpt><trkpt lat="33.161075829556175" lon="9.759589771448669"><ele>226.0</ele><time>2026-04-06T09:58:37.999Z</time></trkpt><trkpt lat="33.16087312521085" lon="9.759621520407308"><ele>226.0</ele><time>2026-04-06T09:58:38.999Z</time></trkpt><trkpt lat="33.16066865466973" lon="9.759650939104963"><ele>226.33333333333331</ele><time>2026-04-06T09:58:39.999Z</time></trkpt><trkpt lat="33.16045663623272" lon="9.759680013162154"><ele>226.66666666666669</ele><time>2026-04-06T09:58:40.999Z</time></trkpt><trkpt lat="33.160240522733005" lon="9.759706590531565"><ele>227.0</ele><time>2026-04-06T09:58:41.999Z</time></trkpt><trkpt lat="33.16000732305763" lon="9.759728389627853"><ele>226.0</ele><time>2026-04-06T09:58:42.999Z</time></trkpt><trkpt lat="33.15976134530922" lon="9.759748270094708"><ele>225.0</ele><time>2026-04-06T09:58:43.999Z</time></trkpt><trkpt lat="33.159507897792174" lon="9.7597660132233"><ele>225.0</ele><time>2026-04-06T09:58:44.999Z</time></trkpt><trkpt lat="33.159263271067196" lon="9.75978287428819"><ele>225.0</ele><time>2026-04-06T09:58:45.999Z</time></trkpt><trkpt lat="33.15902247183264" lon="9.759801658006113"><ele>224.0</ele><time>2026-04-06T09:58:46.999Z</time></trkpt><trkpt lat="33.15878750890579" lon="9.759819513325134"><ele>223.0</ele><time>2026-04-06T09:58:47.999Z</time></trkpt><trkpt lat="33.158556310445846" lon="9.759839469571903"><ele>223.0</ele><time>2026-04-06T09:58:48.999Z</time></trkpt><trkpt lat="33.15833180790022" lon="9.759862267071119"><ele>223.0</ele><time>2026-04-06T09:58:49.999Z</time></trkpt><trkpt lat="33.15811806334304" lon="9.759882038663994"><ele>223.0</ele><time>2026-04-06T09:58:50.999Z</time></trkpt><trkpt lat="33.1579019042337" lon="9.759901018051268"><ele>223.0</ele><time>2026-04-06T09:58:51.999Z</time></trkpt><trkpt lat="33.157690861851556" lon="9.75992053833173"><ele>223.0</ele><time>2026-04-06T09:58:52.999Z</time></trkpt><trkpt lat="33.15748461666466" lon="9.759941951796723"><ele>223.0</ele><time>2026-04-06T09:58:53.999Z</time></trkpt><trkpt lat="33.1572749234063" lon="9.759967924609622"><ele>222.66666666666666</ele><time>2026-04-06T09:58:54.999Z</time></trkpt><trkpt lat="33.15706628612294" lon="9.759994124022032"><ele>222.33333333333331</ele><time>2026-04-06T09:58:55.999Z</time></trkpt><trkpt lat="33.15685699919356" lon="9.760021156622969"><ele>222.0</ele><time>2026-04-06T09:58:56.999Z</time></trkpt><trkpt lat="33.156646629937384" lon="9.76005045123091"><ele>222.33333333333331</ele><time>2026-04-06T09:58:57.999Z</time></trkpt><trkpt lat="33.156436436530306" lon="9.760077975665556"><ele>222.66666666666666</ele><time>2026-04-06T09:58:58.999Z</time></trkpt><trkpt lat="33.15622468954148" lon="9.760106973372782"><ele>223.0</ele><time>2026-04-06T09:58:59.999Z</time></trkpt><trkpt lat="33.15601407224562" lon="9.7601415102819"><ele>223.0</ele><time>2026-04-06T09:59:00.999Z</time></trkpt><trkpt lat="33.15579985006607" lon="9.76017990828496"><ele>223.0</ele><time>2026-04-06T09:59:01.999Z</time></trkpt><trkpt lat="33.15558806939297" lon="9.760219484725084"><ele>223.0</ele><time>2026-04-06T09:59:02.999Z</time></trkpt><trkpt lat="33.15537402388386" lon="9.760251303009003"><ele>223.0</ele><time>2026-04-06T09:59:03.999Z</time></trkpt><trkpt lat="33.1551637958892" lon="9.760268601751097"><ele>223.0</ele><time>2026-04-06T09:59:04.999Z</time></trkpt><trkpt lat="33.154957545327896" lon="9.760269875578865"><ele>223.0</ele><time>2026-04-06T09:59:05.999Z</time></trkpt><trkpt lat="33.15475771462867" lon="9.760249865269364"><ele>222.66666666666666</ele><time>2026-04-06T09:59:06.999Z</time></trkpt><trkpt lat="33.154558003126546" lon="9.760213261294698"><ele>222.33333333333331</ele><time>2026-04-06T09:59:07.999Z</time></trkpt><trkpt lat="33.15435364264197" lon="9.760163196920416"><ele>222.0</ele><time>2026-04-06T09:59:08.999Z</time></trkpt><trkpt lat="33.15415535938443" lon="9.76009900153057"><ele>222.33333333333331</ele><time>2026-04-06T09:59:09.999Z</time></trkpt><trkpt lat="33.15395398949925" lon="9.760041562070567"><ele>222.66666666666666</ele><time>2026-04-06T09:59:10.999Z</time></trkpt><trkpt lat="33.153744395295" lon="9.759992656009358"><ele>223.0</ele><time>2026-04-06T09:59:11.999Z</time></trkpt><trkpt lat="33.153532704910795" lon="9.759967302595243"><ele>223.0</ele><time>2026-04-06T09:59:12.999Z</time></trkpt><trkpt lat="33.153319847018025" lon="9.759971958692594"><ele>223.0</ele><time>2026-04-06T09:59:13.999Z</time></trkpt><trkpt lat="33.153106397698174" lon="9.760002929604568"><ele>223.0</ele><time>2026-04-06T09:59:14.999Z</time></trkpt><trkpt lat="33.15289399420801" lon="9.760048679434972"><ele>222.66666666666666</ele><time>2026-04-06T09:59:15.999Z</time></trkpt><trkpt lat="33.152680305999326" lon="9.760096144929255"><ele>222.33333333333331</ele><time>2026-04-06T09:59:16.999Z</time></trkpt><trkpt lat="33.152479110210116" lon="9.760144607656947"><ele>222.0</ele><time>2026-04-06T09:59:17.999Z</time></trkpt><trkpt lat="33.152266246823395" lon="9.760187555089265"><ele>223.0</ele><time>2026-04-06T09:59:18.999Z</time></trkpt><trkpt lat="33.15205559153974" lon="9.760232054521174"><ele>224.0</ele><time>2026-04-06T09:59:20Z</time></trkpt><trkpt lat="33.151843158869404" lon="9.760280803567442"><ele>225.0</ele><time>2026-04-06T09:59:21Z</time></trkpt><trkpt lat="33.15162328786842" lon="9.76032969552185"><ele>224.66666666666669</ele><time>2026-04-06T09:59:22Z</time></trkpt><trkpt lat="33.15141025619435" lon="9.760378619960626"><ele>224.33333333333334</ele><time>2026-04-06T09:59:23Z</time></trkpt><trkpt lat="33.15119163387209" lon="9.760428084734547"><ele>224.0</ele><time>2026-04-06T09:59:24Z</time></trkpt><trkpt lat="33.15097041332574" lon="9.760478934821323"><ele>224.0</ele><time>2026-04-06T09:59:25Z</time></trkpt><trkpt lat="33.150751700908174" lon="9.760534370621272"><ele>224.0</ele><time>2026-04-06T09:59:26Z</time></trkpt><trkpt lat="33.150532247247206" lon="9.76059109542425"><ele>224.0</ele><time>2026-04-06T09:59:27Z</time></trkpt><trkpt lat="33.15031357441615" lon="9.760646378423024"><ele>224.0</ele><time>2026-04-06T09:59:28Z</time></trkpt><trkpt lat="33.15009770490547" lon="9.7607067034004"><ele>224.0</ele><time>2026-04-06T09:59:29Z</time></trkpt><trkpt lat="33.14988249872732" lon="9.760773328128035"><ele>224.0</ele><time>2026-04-06T09:59:30Z</time></trkpt><trkpt lat="33.149661107512216" lon="9.760851130030211"><ele>224.5</ele><time>2026-04-06T09:59:31Z</time></trkpt><trkpt lat="33.14944241415077" lon="9.760937817440446"><ele>225.0</ele><time>2026-04-06T09:59:32Z</time></trkpt><trkpt lat="33.14922252700386" lon="9.761031271813716"><ele>225.33333333333331</ele><time>2026-04-06T09:59:33Z</time></trkpt><trkpt lat="33.14901597400393" lon="9.761123816766393"><ele>225.66666666666666</ele><time>2026-04-06T09:59:34Z</time></trkpt><trkpt lat="33.14881410419612" lon="9.761214285201678"><ele>226.0</ele><time>2026-04-06T09:59:35Z</time></trkpt><trkpt lat="33.14861338639086" lon="9.7613017884818"><ele>226.0</ele><time>2026-04-06T09:59:36Z</time></trkpt><trkpt lat="33.14841357601476" lon="9.761385352651578"><ele>226.0</ele><time>2026-04-06T09:59:37Z</time></trkpt><trkpt lat="33.1482147335617" lon="9.761467334801749"><ele>226.0</ele><time>2026-04-06T09:59:38Z</time></trkpt><trkpt lat="33.148016648476485" lon="9.761550265225644"><ele>225.33333333333331</ele><time>2026-04-06T09:59:39Z</time></trkpt><trkpt lat="33.147818698571534" lon="9.76163583269523"><ele>224.66666666666669</ele><time>2026-04-06T09:59:40Z</time></trkpt><trkpt lat="33.147615641473344" lon="9.761723508332592"><ele>224.0</ele><time>2026-04-06T09:59:41Z</time></trkpt><trkpt lat="33.14741315409761" lon="9.761809136278316"><ele>223.66666666666669</ele><time>2026-04-06T09:59:42Z</time></trkpt><trkpt lat="33.14720990989892" lon="9.761894089835831"><ele>223.33333333333331</ele><time>2026-04-06T09:59:43Z</time></trkpt><trkpt lat="33.1470078136096" lon="9.761971888631866"><ele>223.0</ele><time>2026-04-06T09:59:44Z</time></trkpt><trkpt lat="33.14680382318129" lon="9.762047114665856"><ele>223.0</ele><time>2026-04-06T09:59:45Z</time></trkpt><trkpt lat="33.14660541447967" lon="9.762117316048737"><ele>223.0</ele><time>2026-04-06T09:59:46Z</time></trkpt><trkpt lat="33.146403363599134" lon="9.762184719099919"><ele>223.0</ele><time>2026-04-06T09:59:47Z</time></trkpt><trkpt lat="33.14620309357172" lon="9.762248000759994"><ele>223.66666666666666</ele><time>2026-04-06T09:59:48Z</time></trkpt><trkpt lat="33.14600467533679" lon="9.76230917729183"><ele>224.33333333333331</ele><time>2026-04-06T09:59:49Z</time></trkpt><trkpt lat="33.14580443626057" lon="9.762367444511549"><ele>225.0</ele><time>2026-04-06T09:59:50Z</time></trkpt><trkpt lat="33.14560510223674" lon="9.762417107833429"><ele>223.66666666666669</ele><time>2026-04-06T09:59:51Z</time></trkpt><trkpt lat="33.14539921907685" lon="9.762459106023679"><ele>222.33333333333334</ele><time>2026-04-06T09:59:52Z</time></trkpt><trkpt lat="33.14518691496225" lon="9.762495855241303"><ele>221.0</ele><time>2026-04-06T09:59:53Z</time></trkpt><trkpt lat="33.14496940870319" lon="9.762523930300155"><ele>221.0</ele><time>2026-04-06T09:59:54Z</time></trkpt><trkpt lat="33.14475374553477" lon="9.762540049977243"><ele>221.0</ele><time>2026-04-06T09:59:55Z</time></trkpt><trkpt lat="33.14453866406951" lon="9.762556564802473"><ele>221.0</ele><time>2026-04-06T09:59:56Z</time></trkpt><trkpt lat="33.144336622340404" lon="9.76257209593231"><ele>221.0</ele><time>2026-04-06T09:59:57Z</time></trkpt><trkpt lat="33.14414095859868" lon="9.762587325674232"><ele>221.0</ele><time>2026-04-06T09:59:58Z</time></trkpt><trkpt lat="33.14395896043502" lon="9.762610308031189"><ele>221.0</ele><time>2026-04-06T09:59:59Z</time></trkpt><trkpt lat="33.1437715273497" lon="9.762628011304821"><ele>221.66666666666669</ele><time>2026-04-06T10:00:00Z</time></trkpt><trkpt lat="33.14359257403483" lon="9.762646610676397"><ele>222.33333333333331</ele><time>2026-04-06T10:00:01Z</time></trkpt><trkpt lat="33.143415410323755" lon="9.762666265647452"><ele>223.0</ele><time>2026-04-06T10:00:02Z</time></trkpt><trkpt lat="33.1432343559834" lon="9.762686010680873"><ele>223.66666666666666</ele><time>2026-04-06T10:00:03Z</time></trkpt><trkpt lat="33.1430476505661" lon="9.762702925724662"><ele>224.33333333333331</ele><time>2026-04-06T10:00:04Z</time></trkpt><trkpt lat="33.14285338282202" lon="9.762724717265485"><ele>225.0</ele><time>2026-04-06T10:00:05Z</time></trkpt><trkpt lat="33.14265349247052" lon="9.762757931719216"><ele>225.0</ele><time>2026-04-06T10:00:06Z</time></trkpt><trkpt lat="33.142447486801174" lon="9.762787519783172"><ele>225.0</ele><time>2026-04-06T10:00:07Z</time></trkpt><trkpt lat="33.14224123763712" lon="9.76281375539228"><ele>225.0</ele><time>2026-04-06T10:00:08Z</time></trkpt><trkpt lat="33.14203312384605" lon="9.762834364771122"><ele>225.0</ele><time>2026-04-06T10:00:09Z</time></trkpt><trkpt lat="33.14182635150457" lon="9.762851269467362"><ele>225.0</ele><time>2026-04-06T10:00:10Z</time></trkpt><trkpt lat="33.141616773612505" lon="9.762864957263298"><ele>225.0</ele><time>2026-04-06T10:00:11Z</time></trkpt><trkpt lat="33.14140958841943" lon="9.762879740133926"><ele>225.0</ele><time>2026-04-06T10:00:12Z</time></trkpt><trkpt lat="33.141206355572166" lon="9.762897774767646"><ele>225.0</ele><time>2026-04-06T10:00:13Z</time></trkpt><trkpt lat="33.14100629856156" lon="9.76291244275681"><ele>225.0</ele><time>2026-04-06T10:00:14Z</time></trkpt><trkpt lat="33.140806140296974" lon="9.762921061439757"><ele>225.0</ele><time>2026-04-06T10:00:15Z</time></trkpt><trkpt lat="33.140606997375315" lon="9.762927310926214"><ele>225.0</ele><time>2026-04-06T10:00:16Z</time></trkpt><trkpt lat="33.14040955654231" lon="9.762927413097444"><ele>225.0</ele><time>2026-04-06T10:00:17Z</time></trkpt><trkpt lat="33.14020535735309" lon="9.762924906205123"><ele>225.0</ele><time>2026-04-06T10:00:18Z</time></trkpt><trkpt lat="33.13999972778219" lon="9.762918283309634"><ele>225.0</ele><time>2026-04-06T10:00:19Z</time></trkpt><trkpt lat="33.1397937017337" lon="9.76291897663464"><ele>225.0</ele><time>2026-04-06T10:00:20Z</time></trkpt><trkpt lat="33.13958316452008" lon="9.762924557302197"><ele>225.0</ele><time>2026-04-06T10:00:21Z</time></trkpt><trkpt lat="33.13937489061581" lon="9.762937117197968"><ele>225.0</ele><time>2026-04-06T10:00:22Z</time></trkpt><trkpt lat="33.13916405337593" lon="9.7629644908451"><ele>225.0</ele><time>2026-04-06T10:00:23Z</time></trkpt><trkpt lat="33.138950154278646" lon="9.763009415295443"><ele>225.33333333333331</ele><time>2026-04-06T10:00:24Z</time></trkpt><trkpt lat="33.13873741884626" lon="9.76306845700105"><ele>225.66666666666666</ele><time>2026-04-06T10:00:25Z</time></trkpt><trkpt lat="33.13852671526414" lon="9.763136356193572"><ele>226.0</ele><time>2026-04-06T10:00:26Z</time></trkpt><trkpt lat="33.13831636188483" lon="9.763207535228124"><ele>226.5</ele><time>2026-04-06T10:00:27Z</time></trkpt><trkpt lat="33.13809792141453" lon="9.763283604061408"><ele>227.0</ele><time>2026-04-06T10:00:28Z</time></trkpt><trkpt lat="33.137876115068934" lon="9.76336503988644"><ele>227.0</ele><time>2026-04-06T10:00:29Z</time></trkpt><trkpt lat="33.13765669531042" lon="9.763443834005745"><ele>227.0</ele><time>2026-04-06T10:00:30Z</time></trkpt><trkpt lat="33.13744145080255" lon="9.763511298490243"><ele>226.33333333333334</ele><time>2026-04-06T10:00:31Z</time></trkpt><trkpt lat="33.13722804760262" lon="9.76356212066067"><ele>225.66666666666669</ele><time>2026-04-06T10:00:32Z</time></trkpt><trkpt lat="33.13701363664487" lon="9.763601622532347"><ele>225.0</ele><time>2026-04-06T10:00:32.999Z</time></trkpt><trkpt lat="33.13679561733562" lon="9.763629704399744"><ele>225.0</ele><time>2026-04-06T10:00:33.999Z</time></trkpt><trkpt lat="33.1365721377429" lon="9.763646135089127"><ele>225.0</ele><time>2026-04-06T10:00:34.999Z</time></trkpt><trkpt lat="33.136348673682555" lon="9.763648439460713"><ele>225.0</ele><time>2026-04-06T10:00:35.999Z</time></trkpt><trkpt lat="33.13612216732681" lon="9.763635855573153"><ele>226.0</ele><time>2026-04-06T10:00:36.999Z</time></trkpt><trkpt lat="33.13589174828307" lon="9.763618693112917"><ele>227.0</ele><time>2026-04-06T10:00:37.999Z</time></trkpt><trkpt lat="33.135668579894286" lon="9.763605987832793"><ele>227.0</ele><time>2026-04-06T10:00:38.999Z</time></trkpt><trkpt lat="33.13543819056179" lon="9.763600434572304"><ele>227.0</ele><time>2026-04-06T10:00:39.999Z</time></trkpt><trkpt lat="33.13520961847502" lon="9.763598922913689"><ele>227.0</ele><time>2026-04-06T10:00:40.999Z</time></trkpt><trkpt lat="33.134986903105734" lon="9.763600779997432"><ele>227.0</ele><time>2026-04-06T10:00:41.999Z</time></trkpt><trkpt lat="33.134764692147165" lon="9.763606723974352"><ele>227.0</ele><time>2026-04-06T10:00:42.999Z</time></trkpt><trkpt lat="33.134535690228056" lon="9.763617920586467"><ele>227.0</ele><time>2026-04-06T10:00:43.999Z</time></trkpt><trkpt lat="33.134307425251585" lon="9.763629395544845"><ele>227.0</ele><time>2026-04-06T10:00:44.999Z</time></trkpt><trkpt lat="33.13408295600897" lon="9.76364390693709"><ele>228.5</ele><time>2026-04-06T10:00:45.999Z</time></trkpt><trkpt lat="33.13384904173645" lon="9.763666681053646"><ele>230.0</ele><time>2026-04-06T10:00:46.999Z</time></trkpt><trkpt lat="33.13362040261603" lon="9.763700468460849"><ele>230.0</ele><time>2026-04-06T10:00:47.999Z</time></trkpt><trkpt lat="33.133388529288915" lon="9.763737311492568"><ele>230.0</ele><time>2026-04-06T10:00:48.999Z</time></trkpt><trkpt lat="33.133160923540515" lon="9.763775155326988"><ele>229.5</ele><time>2026-04-06T10:00:49.999Z</time></trkpt><trkpt lat="33.132932444272164" lon="9.763822244813428"><ele>229.0</ele><time>2026-04-06T10:00:50.999Z</time></trkpt><trkpt lat="33.13269966883088" lon="9.763874105733153"><ele>229.0</ele><time>2026-04-06T10:00:51.999Z</time></trkpt><trkpt lat="33.13246344280187" lon="9.763927479628594"><ele>229.0</ele><time>2026-04-06T10:00:52.999Z</time></trkpt><trkpt lat="33.13222193536462" lon="9.763989147730602"><ele>229.5</ele><time>2026-04-06T10:00:53.999Z</time></trkpt><trkpt lat="33.13198228162385" lon="9.764054961943364"><ele>230.0</ele><time>2026-04-06T10:00:54.999Z</time></trkpt><trkpt lat="33.13174131920012" lon="9.76412727182623"><ele>231.0</ele><time>2026-04-06T10:00:55.999Z</time></trkpt><trkpt lat="33.13149956634637" lon="9.764205957096635"><ele>232.0</ele><time>2026-04-06T10:00:56.999Z</time></trkpt><trkpt lat="33.13126339183874" lon="9.764293994068034"><ele>232.0</ele><time>2026-04-06T10:00:57.999Z</time></trkpt><trkpt lat="33.13102974625124" lon="9.764381981232024"><ele>232.0</ele><time>2026-04-06T10:00:58.999Z</time></trkpt><trkpt lat="33.1307927775871" lon="9.76446111746239"><ele>232.0</ele><time>2026-04-06T10:00:59.999Z</time></trkpt><trkpt lat="33.13055887335996" lon="9.764547112761896"><ele>232.0</ele><time>2026-04-06T10:01:00.999Z</time></trkpt><trkpt lat="33.13032263999811" lon="9.764631717191632"><ele>232.0</ele><time>2026-04-06T10:01:01.999Z</time></trkpt><trkpt lat="33.130073061806485" lon="9.764734624047751"><ele>232.0</ele><time>2026-04-06T10:01:02.999Z</time></trkpt><trkpt lat="33.12983354787906" lon="9.764834746581494"><ele>233.5</ele><time>2026-04-06T10:01:03.999Z</time></trkpt><trkpt lat="33.12960545788719" lon="9.764927478523882"><ele>235.0</ele><time>2026-04-06T10:01:04.999Z</time></trkpt><trkpt lat="33.12938506930459" lon="9.765022175303821"><ele>235.0</ele><time>2026-04-06T10:01:05.999Z</time></trkpt><trkpt lat="33.12917567844261" lon="9.76510715520653"><ele>235.0</ele><time>2026-04-06T10:01:06.999Z</time></trkpt><trkpt lat="33.12897901088425" lon="9.765183088025644"><ele>235.0</ele><time>2026-04-06T10:01:07.999Z</time></trkpt><trkpt lat="33.12879253873591" lon="9.76525018236648"><ele>235.66666666666666</ele><time>2026-04-06T10:01:08.999Z</time></trkpt><trkpt lat="33.12861264278495" lon="9.765304543295795"><ele>236.33333333333331</ele><time>2026-04-06T10:01:09.999Z</time></trkpt><trkpt lat="33.12843487917911" lon="9.76534289098523"><ele>237.0</ele><time>2026-04-06T10:01:10.999Z</time></trkpt><trkpt lat="33.12825714707878" lon="9.765366079380659"><ele>237.0</ele><time>2026-04-06T10:01:11.999Z</time></trkpt><trkpt lat="33.128089323226106" lon="9.76537719128193"><ele>237.0</ele><time>2026-04-06T10:01:12.999Z</time></trkpt><trkpt lat="33.12793585804569" lon="9.765382220862882"><ele>237.0</ele><time>2026-04-06T10:01:13.999Z</time></trkpt><trkpt lat="33.12779911406131" lon="9.765378348262917"><ele>237.0</ele><time>2026-04-06T10:01:15Z</time></trkpt><trkpt lat="33.127685680079736" lon="9.765373315896223"><ele>237.0</ele><time>2026-04-06T10:01:16Z</time></trkpt><trkpt lat="33.12757874082399" lon="9.765370785313166"><ele>237.0</ele><time>2026-04-06T10:01:17Z</time></trkpt><trkpt lat="33.12747882516158" lon="9.765368519806552"><ele>237.0</ele><time>2026-04-06T10:01:18Z</time></trkpt><trkpt lat="33.12738570832145" lon="9.765367008732758"><ele>237.0</ele><time>2026-04-06T10:01:19Z</time></trkpt><trkpt lat="33.12729954320686" lon="9.765368591601687"><ele>237.2</ele><time>2026-04-06T10:01:20Z</time></trkpt><trkpt lat="33.127229062125515" lon="9.765370795296992"><ele>237.39999999999998</ele><time>2026-04-06T10:01:21Z</time></trkpt><trkpt lat="33.127127624318675" lon="9.765372099364445"><ele>237.60000000000002</ele><time>2026-04-06T10:01:23Z</time></trkpt><trkpt lat="33.127032066060465" lon="9.765359887154291"><ele>237.8</ele><time>2026-04-06T10:01:25Z</time></trkpt><trkpt lat="33.12690973567762" lon="9.765354365164656"><ele>238.0</ele><time>2026-04-06T10:01:27Z</time></trkpt><trkpt lat="33.12684647542073" lon="9.765355822069443"><ele>237.99999999999997</ele><time>2026-04-06T10:01:28Z</time></trkpt><trkpt lat="33.12674034406812" lon="9.76535950860915"><ele>238.0</ele><time>2026-04-06T10:01:30Z</time></trkpt><trkpt lat="33.12665734825122" lon="9.76534845464243"><ele>238.0</ele><time>2026-04-06T10:01:32Z</time></trkpt><trkpt lat="33.12654675070196" lon="9.765337280151806"><ele>238.0</ele><time>2026-04-06T10:01:34Z</time></trkpt><trkpt lat="33.12648141788107" lon="9.765327960717388"><ele>237.99999999999997</ele><time>2026-04-06T10:01:35Z</time></trkpt><trkpt lat="33.12641311275143" lon="9.765322510237912"><ele>238.0</ele><time>2026-04-06T10:01:36Z</time></trkpt><trkpt lat="33.12634025087437" lon="9.76531975239353"><ele>237.8</ele><time>2026-04-06T10:01:37Z</time></trkpt><trkpt lat="33.12625944944657" lon="9.765313878610488"><ele>237.60000000000002</ele><time>2026-04-06T10:01:38Z</time></trkpt><trkpt lat="33.12616651055632" lon="9.765306529082336"><ele>237.39999999999998</ele><time>2026-04-06T10:01:39Z</time></trkpt><trkpt lat="33.126061771241396" lon="9.76529727830733"><ele>237.2</ele><time>2026-04-06T10:01:40Z</time></trkpt><trkpt lat="33.12595176410322" lon="9.765286820107844"><ele>237.0</ele><time>2026-04-06T10:01:41Z</time></trkpt><trkpt lat="33.125833689589854" lon="9.765276723992445"><ele>237.25</ele><time>2026-04-06T10:01:42Z</time></trkpt><trkpt lat="33.125715287456586" lon="9.76526745634416"><ele>237.5</ele><time>2026-04-06T10:01:43Z</time></trkpt><trkpt lat="33.125579546396466" lon="9.765263582356178"><ele>237.75</ele><time>2026-04-06T10:01:44Z</time></trkpt><trkpt lat="33.12543391117755" lon="9.765271631595034"><ele>238.0</ele><time>2026-04-06T10:01:45Z</time></trkpt><trkpt lat="33.12528349481886" lon="9.76529724365574"><ele>238.0</ele><time>2026-04-06T10:01:46Z</time></trkpt><trkpt lat="33.12512694932873" lon="9.765338221486353"><ele>238.0</ele><time>2026-04-06T10:01:47Z</time></trkpt><trkpt lat="33.124965702354615" lon="9.765390107770338"><ele>238.0</ele><time>2026-04-06T10:01:48Z</time></trkpt><trkpt lat="33.12480032676813" lon="9.765449061843194"><ele>237.66666666666666</ele><time>2026-04-06T10:01:49Z</time></trkpt><trkpt lat="33.1246317653668" lon="9.76551023367077"><ele>237.33333333333331</ele><time>2026-04-06T10:01:50Z</time></trkpt><trkpt lat="33.124459865403736" lon="9.765574194298763"><ele>237.0</ele><time>2026-04-06T10:01:51Z</time></trkpt><trkpt lat="33.12428858369027" lon="9.765640313502216"><ele>237.0</ele><time>2026-04-06T10:01:52Z</time></trkpt><trkpt lat="33.12411964045873" lon="9.765710124855346"><ele>237.0</ele><time>2026-04-06T10:01:53Z</time></trkpt><trkpt lat="33.123949287958034" lon="9.76577942064132"><ele>237.0</ele><time>2026-04-06T10:01:54Z</time></trkpt><trkpt lat="33.12377522864716" lon="9.765849850655115"><ele>237.0</ele><time>2026-04-06T10:01:55Z</time></trkpt><trkpt lat="33.1236061447541" lon="9.76591854544616"><ele>237.0</ele><time>2026-04-06T10:01:56Z</time></trkpt><trkpt lat="33.12343821076551" lon="9.76599402423697"><ele>237.0</ele><time>2026-04-06T10:01:57Z</time></trkpt><trkpt lat="33.12327401966084" lon="9.766072435580709"><ele>236.66666666666669</ele><time>2026-04-06T10:01:58Z</time></trkpt><trkpt lat="33.12310932800261" lon="9.766154397036718"><ele>236.33333333333334</ele><time>2026-04-06T10:01:59Z</time></trkpt><trkpt lat="33.12293974091764" lon="9.766243000152027"><ele>236.0</ele><time>2026-04-06T10:02:00Z</time></trkpt><trkpt lat="33.12276573087776" lon="9.766334276416305"><ele>236.0</ele><time>2026-04-06T10:02:01Z</time></trkpt><trkpt lat="33.122587395436035" lon="9.766424457578168"><ele>236.0</ele><time>2026-04-06T10:02:02Z</time></trkpt><trkpt lat="33.122400931340955" lon="9.766510195381882"><ele>236.0</ele><time>2026-04-06T10:02:03Z</time></trkpt><trkpt lat="33.12220849909537" lon="9.766593400348258"><ele>235.66666666666669</ele><time>2026-04-06T10:02:04Z</time></trkpt><trkpt lat="33.12201761550153" lon="9.766675605493925"><ele>235.33333333333331</ele><time>2026-04-06T10:02:05Z</time></trkpt><trkpt lat="33.1218249806416" lon="9.766755505032368"><ele>235.0</ele><time>2026-04-06T10:02:06Z</time></trkpt><trkpt lat="33.121629135533695" lon="9.766831694612092"><ele>235.66666666666666</ele><time>2026-04-06T10:02:07Z</time></trkpt><trkpt lat="33.12142984926656" lon="9.766894859553648"><ele>236.33333333333331</ele><time>2026-04-06T10:02:08Z</time></trkpt><trkpt lat="33.12122045421461" lon="9.766950702632483"><ele>237.0</ele><time>2026-04-06T10:02:09Z</time></trkpt><trkpt lat="33.12101538909037" lon="9.767008622025447"><ele>237.0</ele><time>2026-04-06T10:02:10Z</time></trkpt><trkpt lat="33.12079982634396" lon="9.767066049135394"><ele>237.0</ele><time>2026-04-06T10:02:11Z</time></trkpt><trkpt lat="33.120589109453036" lon="9.767119874948099"><ele>237.0</ele><time>2026-04-06T10:02:12Z</time></trkpt><trkpt lat="33.12037302977207" lon="9.767170062599801"><ele>236.5</ele><time>2026-04-06T10:02:13Z</time></trkpt><trkpt lat="33.120147650414815" lon="9.76722215287034"><ele>236.0</ele><time>2026-04-06T10:02:14Z</time></trkpt><trkpt lat="33.119920949311954" lon="9.767271789934503"><ele>236.5</ele><time>2026-04-06T10:02:15Z</time></trkpt><trkpt lat="33.119685316296845" lon="9.767324938509624"><ele>237.0</ele><time>2026-04-06T10:02:16Z</time></trkpt><trkpt lat="33.11943680776679" lon="9.767380588631958"><ele>237.0</ele><time>2026-04-06T10:02:17Z</time></trkpt><trkpt lat="33.11917963983783" lon="9.767434651473604"><ele>237.0</ele><time>2026-04-06T10:02:18Z</time></trkpt><trkpt lat="33.11892190091204" lon="9.767488506463032"><ele>237.5</ele><time>2026-04-06T10:02:19Z</time></trkpt><trkpt lat="33.118666262157625" lon="9.767542350565686"><ele>238.0</ele><time>2026-04-06T10:02:20Z</time></trkpt><trkpt lat="33.11840386487284" lon="9.767590804145996"><ele>237.5</ele><time>2026-04-06T10:02:21Z</time></trkpt><trkpt lat="33.11814192757911" lon="9.767636313227127"><ele>237.0</ele><time>2026-04-06T10:02:22Z</time></trkpt><trkpt lat="33.11787858073431" lon="9.767680720176756"><ele>237.0</ele><time>2026-04-06T10:02:23Z</time></trkpt><trkpt lat="33.11761364727737" lon="9.767724777406974"><ele>237.0</ele><time>2026-04-06T10:02:24Z</time></trkpt><trkpt lat="33.11734964070838" lon="9.767769063780502"><ele>237.0</ele><time>2026-04-06T10:02:25Z</time></trkpt><trkpt lat="33.11708176948415" lon="9.76781019348911"><ele>237.0</ele><time>2026-04-06T10:02:26Z</time></trkpt><trkpt lat="33.1168143636129" lon="9.76784844504586"><ele>237.0</ele><time>2026-04-06T10:02:27Z</time></trkpt><trkpt lat="33.11654631427786" lon="9.767880586067408"><ele>237.0</ele><time>2026-04-06T10:02:28Z</time></trkpt><trkpt lat="33.11627048547783" lon="9.767912250162018"><ele>237.0</ele><time>2026-04-06T10:02:29Z</time></trkpt><trkpt lat="33.116002481437015" lon="9.767943940422322"><ele>237.0</ele><time>2026-04-06T10:02:30Z</time></trkpt><trkpt lat="33.11573581004999" lon="9.767973847559528"><ele>237.5</ele><time>2026-04-06T10:02:31Z</time></trkpt><trkpt lat="33.11547248116566" lon="9.768001041441638"><ele>238.0</ele><time>2026-04-06T10:02:32Z</time></trkpt><trkpt lat="33.1152100059445" lon="9.768026714045424"><ele>238.0</ele><time>2026-04-06T10:02:33Z</time></trkpt><trkpt lat="33.114948629445735" lon="9.76805113845041"><ele>238.0</ele><time>2026-04-06T10:02:34Z</time></trkpt><trkpt lat="33.1146863766392" lon="9.768075304331877"><ele>237.0</ele><time>2026-04-06T10:02:35Z</time></trkpt><trkpt lat="33.11443021692564" lon="9.76810473357831"><ele>236.0</ele><time>2026-04-06T10:02:36Z</time></trkpt><trkpt lat="33.114173899656834" lon="9.768138231921892"><ele>236.0</ele><time>2026-04-06T10:02:37Z</time></trkpt><trkpt lat="33.113918674465125" lon="9.768176688042947"><ele>236.0</ele><time>2026-04-06T10:02:38Z</time></trkpt><trkpt lat="33.11366359750328" lon="9.768221722155133"><ele>236.0</ele><time>2026-04-06T10:02:39Z</time></trkpt><trkpt lat="33.11340987864543" lon="9.768275476714084"><ele>236.0</ele><time>2026-04-06T10:02:40Z</time></trkpt><trkpt lat="33.1131611694916" lon="9.768335443258241"><ele>234.5</ele><time>2026-04-06T10:02:41Z</time></trkpt><trkpt lat="33.11290962838669" lon="9.768399968595011"><ele>233.0</ele><time>2026-04-06T10:02:42Z</time></trkpt><trkpt lat="33.11265962563558" lon="9.768466642171441"><ele>233.0</ele><time>2026-04-06T10:02:43Z</time></trkpt><trkpt lat="33.112411805441496" lon="9.768530402665586"><ele>233.0</ele><time>2026-04-06T10:02:44Z</time></trkpt><trkpt lat="33.11217080709019" lon="9.768594890200301"><ele>233.0</ele><time>2026-04-06T10:02:45Z</time></trkpt><trkpt lat="33.111931884789314" lon="9.768657939275602"><ele>233.0</ele><time>2026-04-06T10:02:46Z</time></trkpt><trkpt lat="33.11169185650888" lon="9.768719841952372"><ele>232.0</ele><time>2026-04-06T10:02:47Z</time></trkpt><trkpt lat="33.11145058492118" lon="9.768776764820837"><ele>231.0</ele><time>2026-04-06T10:02:48Z</time></trkpt><trkpt lat="33.11120766084495" lon="9.768827614328265"><ele>231.0</ele><time>2026-04-06T10:02:49Z</time></trkpt><trkpt lat="33.11096076666293" lon="9.768871511365104"><ele>231.0</ele><time>2026-04-06T10:02:50Z</time></trkpt><trkpt lat="33.110712824946674" lon="9.768910060810876"><ele>230.0</ele><time>2026-04-06T10:02:51Z</time></trkpt><trkpt lat="33.11047365638586" lon="9.768944534847938"><ele>229.0</ele><time>2026-04-06T10:02:52Z</time></trkpt><trkpt lat="33.1102421514983" lon="9.768986854476545"><ele>229.0</ele><time>2026-04-06T10:02:53Z</time></trkpt><trkpt lat="33.11000839697882" lon="9.769035679764627"><ele>229.0</ele><time>2026-04-06T10:02:54Z</time></trkpt><trkpt lat="33.109778365223015" lon="9.769079437513957"><ele>228.0</ele><time>2026-04-06T10:02:55Z</time></trkpt><trkpt lat="33.10956147935012" lon="9.769122912348413"><ele>227.0</ele><time>2026-04-06T10:02:56Z</time></trkpt><trkpt lat="33.1093416457949" lon="9.769174626858238"><ele>226.0</ele><time>2026-04-06T10:02:57Z</time></trkpt><trkpt lat="33.10912433496434" lon="9.76922310930817"><ele>226.33333333333331</ele><time>2026-04-06T10:02:58Z</time></trkpt><trkpt lat="33.10890941510403" lon="9.769270670260585"><ele>226.66666666666669</ele><time>2026-04-06T10:02:59Z</time></trkpt><trkpt lat="33.108695165295984" lon="9.769317892602361"><ele>227.0</ele><time>2026-04-06T10:03:00Z</time></trkpt><trkpt lat="33.108482573055156" lon="9.769364324231042"><ele>227.66666666666669</ele><time>2026-04-06T10:03:01Z</time></trkpt><trkpt lat="33.10827221629381" lon="9.769412513462894"><ele>228.33333333333331</ele><time>2026-04-06T10:03:02Z</time></trkpt><trkpt lat="33.10805587357887" lon="9.769465775928209"><ele>229.0</ele><time>2026-04-06T10:03:03Z</time></trkpt><trkpt lat="33.107839688465226" lon="9.76951378994631"><ele>229.0</ele><time>2026-04-06T10:03:04Z</time></trkpt><trkpt lat="33.10762385303954" lon="9.769558547646222"><ele>229.0</ele><time>2026-04-06T10:03:05Z</time></trkpt><trkpt lat="33.107403439036" lon="9.769605054129087"><ele>229.0</ele><time>2026-04-06T10:03:06Z</time></trkpt><trkpt lat="33.10718442393283" lon="9.76964661259095"><ele>229.33333333333331</ele><time>2026-04-06T10:03:07Z</time></trkpt><trkpt lat="33.10696996933881" lon="9.769685375439405"><ele>229.66666666666669</ele><time>2026-04-06T10:03:08Z</time></trkpt><trkpt lat="33.10674905507943" lon="9.76972110181314"><ele>230.0</ele><time>2026-04-06T10:03:09Z</time></trkpt><trkpt lat="33.10652099525511" lon="9.769745248051596"><ele>230.0</ele><time>2026-04-06T10:03:10Z</time></trkpt><trkpt lat="33.10628968690445" lon="9.769759166671752"><ele>230.0</ele><time>2026-04-06T10:03:11Z</time></trkpt><trkpt lat="33.10605616195114" lon="9.769757918080465"><ele>230.0</ele><time>2026-04-06T10:03:12Z</time></trkpt><trkpt lat="33.10582383977582" lon="9.769749167985331"><ele>230.0</ele><time>2026-04-06T10:03:13Z</time></trkpt><trkpt lat="33.105598267913784" lon="9.769727805650238"><ele>231.0</ele><time>2026-04-06T10:03:14Z</time></trkpt><trkpt lat="33.10536170972195" lon="9.769702757267293"><ele>232.0</ele><time>2026-04-06T10:03:15Z</time></trkpt><trkpt lat="33.105121834259506" lon="9.769688555578034"><ele>231.5</ele><time>2026-04-06T10:03:16Z</time></trkpt><trkpt lat="33.10488443269534" lon="9.769693318965187"><ele>231.0</ele><time>2026-04-06T10:03:17Z</time></trkpt><trkpt lat="33.10463968973706" lon="9.769698917951008"><ele>231.0</ele><time>2026-04-06T10:03:18Z</time></trkpt><trkpt lat="33.1043905571283" lon="9.769696722285978"><ele>231.0</ele><time>2026-04-06T10:03:19Z</time></trkpt><trkpt lat="33.10412971587618" lon="9.7696965553488"><ele>232.5</ele><time>2026-04-06T10:03:20Z</time></trkpt><trkpt lat="33.10385035983068" lon="9.769693753438665"><ele>234.0</ele><time>2026-04-06T10:03:21Z</time></trkpt><trkpt lat="33.103576142332244" lon="9.769687774727618"><ele>234.0</ele><time>2026-04-06T10:03:22Z</time></trkpt><trkpt lat="33.10330577312465" lon="9.769676018778604"><ele>234.0</ele><time>2026-04-06T10:03:23Z</time></trkpt><trkpt lat="33.10304325720231" lon="9.7696619793168"><ele>234.0</ele><time>2026-04-06T10:03:24Z</time></trkpt><trkpt lat="33.10278518464839" lon="9.769650454594013"><ele>234.0</ele><time>2026-04-06T10:03:25Z</time></trkpt><trkpt lat="33.102532475558746" lon="9.769641627640011"><ele>235.0</ele><time>2026-04-06T10:03:26Z</time></trkpt><trkpt lat="33.102281992123075" lon="9.76963584868692"><ele>236.0</ele><time>2026-04-06T10:03:27Z</time></trkpt><trkpt lat="33.10202904473967" lon="9.7696334405818"><ele>236.0</ele><time>2026-04-06T10:03:28Z</time></trkpt><trkpt lat="33.10176701434075" lon="9.769628833606099"><ele>236.0</ele><time>2026-04-06T10:03:29Z</time></trkpt><trkpt lat="33.1015008684384" lon="9.769626327232874"><ele>237.0</ele><time>2026-04-06T10:03:30Z</time></trkpt><trkpt lat="33.101236529707556" lon="9.769624549107808"><ele>238.0</ele><time>2026-04-06T10:03:31Z</time></trkpt><trkpt lat="33.10098363278135" lon="9.76962467915384"><ele>238.5</ele><time>2026-04-06T10:03:32Z</time></trkpt><trkpt lat="33.100736880269146" lon="9.769622214873435"><ele>239.0</ele><time>2026-04-06T10:03:33Z</time></trkpt><trkpt lat="33.10048448145993" lon="9.76961790721149"><ele>239.0</ele><time>2026-04-06T10:03:34Z</time></trkpt><trkpt lat="33.100226585051196" lon="9.76961709108608"><ele>239.0</ele><time>2026-04-06T10:03:35Z</time></trkpt><trkpt lat="33.099957582422036" lon="9.769615778046754"><ele>239.5</ele><time>2026-04-06T10:03:36Z</time></trkpt><trkpt lat="33.099698838108296" lon="9.769614233705836"><ele>240.0</ele><time>2026-04-06T10:03:37Z</time></trkpt><trkpt lat="33.09945358136915" lon="9.769613027691888"><ele>240.0</ele><time>2026-04-06T10:03:38Z</time></trkpt><trkpt lat="33.099221958178404" lon="9.769607384050806"><ele>240.0</ele><time>2026-04-06T10:03:39Z</time></trkpt><trkpt lat="33.09899846034552" lon="9.769604581730617"><ele>240.0</ele><time>2026-04-06T10:03:40Z</time></trkpt><trkpt lat="33.09877887295506" lon="9.769597895449886"><ele>240.0</ele><time>2026-04-06T10:03:41Z</time></trkpt><trkpt lat="33.098553081108186" lon="9.769596478599103"><ele>240.0</ele><time>2026-04-06T10:03:42Z</time></trkpt><trkpt lat="33.09832597593371" lon="9.769594003438748"><ele>241.33333333333331</ele><time>2026-04-06T10:03:43Z</time></trkpt><trkpt lat="33.09810224307792" lon="9.76960178200816"><ele>242.66666666666666</ele><time>2026-04-06T10:03:44Z</time></trkpt><trkpt lat="33.09787715374568" lon="9.769618673577408"><ele>244.0</ele><time>2026-04-06T10:03:45Z</time></trkpt><trkpt lat="33.09764957869847" lon="9.769650096052795"><ele>244.5</ele><time>2026-04-06T10:03:46Z</time></trkpt><trkpt lat="33.09741777870078" lon="9.769699853409644"><ele>245.0</ele><time>2026-04-06T10:03:47Z</time></trkpt><trkpt lat="33.09718311641477" lon="9.76976659458182"><ele>245.0</ele><time>2026-04-06T10:03:48Z</time></trkpt><trkpt lat="33.096949615171816" lon="9.76984591281602"><ele>245.0</ele><time>2026-04-06T10:03:49Z</time></trkpt><trkpt lat="33.09672017673302" lon="9.769925925529277"><ele>245.5</ele><time>2026-04-06T10:03:50Z</time></trkpt><trkpt lat="33.09649926289053" lon="9.7699992262778"><ele>246.0</ele><time>2026-04-06T10:03:51Z</time></trkpt><trkpt lat="33.096282820274546" lon="9.770079766282954"><ele>246.0</ele><time>2026-04-06T10:03:52Z</time></trkpt><trkpt lat="33.096070412697024" lon="9.770164630537996"><ele>246.0</ele><time>2026-04-06T10:03:53Z</time></trkpt><trkpt lat="33.095858537664476" lon="9.770249877975216"><ele>246.0</ele><time>2026-04-06T10:03:54Z</time></trkpt><trkpt lat="33.09564928888713" lon="9.770341174887497"><ele>246.66666666666669</ele><time>2026-04-06T10:03:55Z</time></trkpt><trkpt lat="33.095451212634664" lon="9.770434903690385"><ele>247.33333333333334</ele><time>2026-04-06T10:03:56Z</time></trkpt><trkpt lat="33.095265558799824" lon="9.770529859944064"><ele>248.0</ele><time>2026-04-06T10:03:57Z</time></trkpt><trkpt lat="33.095091768196724" lon="9.770619321659396"><ele>248.0</ele><time>2026-04-06T10:03:58Z</time></trkpt><trkpt lat="33.094928247784765" lon="9.770706927284015"><ele>248.0</ele><time>2026-04-06T10:03:59Z</time></trkpt><trkpt lat="33.094750989923654" lon="9.770803615322412"><ele>248.0</ele><time>2026-04-06T10:04:00Z</time></trkpt><trkpt lat="33.09457319649072" lon="9.770907683241937"><ele>248.33333333333334</ele><time>2026-04-06T10:04:01Z</time></trkpt><trkpt lat="33.09438616849693" lon="9.771019875480416"><ele>248.66666666666669</ele><time>2026-04-06T10:04:02Z</time></trkpt><trkpt lat="33.09419836089638" lon="9.771130292438102"><ele>249.0</ele><time>2026-04-06T10:04:03Z</time></trkpt><trkpt lat="33.09402056690427" lon="9.771238876778055"><ele>249.33333333333331</ele><time>2026-04-06T10:04:04Z</time></trkpt><trkpt lat="33.09383571564389" lon="9.771346912963997"><ele>249.66666666666666</ele><time>2026-04-06T10:04:05Z</time></trkpt><trkpt lat="33.09365967757006" lon="9.771455148731917"><ele>250.0</ele><time>2026-04-06T10:04:06Z</time></trkpt><trkpt lat="33.0934690726982" lon="9.771562580212226"><ele>250.0</ele><time>2026-04-06T10:04:07Z</time></trkpt><trkpt lat="33.09327738305533" lon="9.771659847799382"><ele>250.0</ele><time>2026-04-06T10:04:08Z</time></trkpt><trkpt lat="33.093088619389306" lon="9.771755566816523"><ele>250.0</ele><time>2026-04-06T10:04:09Z</time></trkpt><trkpt lat="33.09290512642538" lon="9.771849431187055"><ele>250.33333333333331</ele><time>2026-04-06T10:04:10Z</time></trkpt><trkpt lat="33.09271946394619" lon="9.771942389512025"><ele>250.66666666666669</ele><time>2026-04-06T10:04:11Z</time></trkpt><trkpt lat="33.09253101465167" lon="9.772029124244014"><ele>251.0</ele><time>2026-04-06T10:04:12Z</time></trkpt><trkpt lat="33.092338695388854" lon="9.772112013889187"><ele>251.66666666666669</ele><time>2026-04-06T10:04:13Z</time></trkpt><trkpt lat="33.09214436261575" lon="9.772193624433497"><ele>252.33333333333331</ele><time>2026-04-06T10:04:14Z</time></trkpt><trkpt lat="33.09195312641127" lon="9.772266018113987"><ele>253.0</ele><time>2026-04-06T10:04:15Z</time></trkpt><trkpt lat="33.09176301285838" lon="9.772330753970948"><ele>253.66666666666666</ele><time>2026-04-06T10:04:16Z</time></trkpt><trkpt lat="33.091574519008475" lon="9.772387231931402"><ele>254.33333333333331</ele><time>2026-04-06T10:04:17Z</time></trkpt><trkpt lat="33.09139372452773" lon="9.772432308253547"><ele>255.0</ele><time>2026-04-06T10:04:18Z</time></trkpt><trkpt lat="33.091198332223904" lon="9.77247192170075"><ele>255.0</ele><time>2026-04-06T10:04:19Z</time></trkpt><trkpt lat="33.090996210215486" lon="9.772506826387012"><ele>255.0</ele><time>2026-04-06T10:04:20Z</time></trkpt><trkpt lat="33.09078170918507" lon="9.772537860587935"><ele>255.0</ele><time>2026-04-06T10:04:21Z</time></trkpt><trkpt lat="33.09056206319851" lon="9.772566588782023"><ele>252.0</ele><time>2026-04-06T10:04:22Z</time></trkpt><trkpt lat="33.0903323227115" lon="9.772603620809733"><ele>249.0</ele><time>2026-04-06T10:04:23Z</time></trkpt><trkpt lat="33.090104013075766" lon="9.77264727048114"><ele>247.5</ele><time>2026-04-06T10:04:24Z</time></trkpt><trkpt lat="33.08986178209569" lon="9.772693098150398"><ele>246.0</ele><time>2026-04-06T10:04:25Z</time></trkpt><trkpt lat="33.08962213824902" lon="9.772747638294868"><ele>246.0</ele><time>2026-04-06T10:04:26Z</time></trkpt><trkpt lat="33.08938930659317" lon="9.772806246528514"><ele>246.0</ele><time>2026-04-06T10:04:27Z</time></trkpt><trkpt lat="33.08916694712575" lon="9.772864934596715"><ele>245.66666666666669</ele><time>2026-04-06T10:04:28Z</time></trkpt><trkpt lat="33.088956571267246" lon="9.772918027139909"><ele>245.33333333333334</ele><time>2026-04-06T10:04:29Z</time></trkpt><trkpt lat="33.08875010002614" lon="9.772972584838929"><ele>245.0</ele><time>2026-04-06T10:04:30Z</time></trkpt><trkpt lat="33.088550164345584" lon="9.77302599076053"><ele>245.0</ele><time>2026-04-06T10:04:31Z</time></trkpt><trkpt lat="33.08835655793596" lon="9.773074188908444"><ele>245.0</ele><time>2026-04-06T10:04:32Z</time></trkpt><trkpt lat="33.0881602896267" lon="9.773121079219631"><ele>245.0</ele><time>2026-04-06T10:04:33Z</time></trkpt><trkpt lat="33.08795148128324" lon="9.773173089169397"><ele>244.66666666666669</ele><time>2026-04-06T10:04:34Z</time></trkpt><trkpt lat="33.08774495009825" lon="9.77321646999461"><ele>244.33333333333331</ele><time>2026-04-06T10:04:35Z</time></trkpt><trkpt lat="33.08752719147836" lon="9.773270251069626"><ele>244.0</ele><time>2026-04-06T10:04:36Z</time></trkpt><trkpt lat="33.08730231256837" lon="9.773320464684277"><ele>244.0</ele><time>2026-04-06T10:04:37Z</time></trkpt><trkpt lat="33.087081403088646" lon="9.773369609122653"><ele>244.0</ele><time>2026-04-06T10:04:38Z</time></trkpt><trkpt lat="33.0868628383639" lon="9.773418431774768"><ele>244.0</ele><time>2026-04-06T10:04:39Z</time></trkpt><trkpt lat="33.0866462437701" lon="9.773468919278235"><ele>244.0</ele><time>2026-04-06T10:04:40Z</time></trkpt><trkpt lat="33.086442838196504" lon="9.773513886522728"><ele>244.0</ele><time>2026-04-06T10:04:41Z</time></trkpt><trkpt lat="33.08624309235617" lon="9.773558539142902"><ele>244.0</ele><time>2026-04-06T10:04:42Z</time></trkpt><trkpt lat="33.086032573795435" lon="9.773607277359112"><ele>244.33333333333331</ele><time>2026-04-06T10:04:43Z</time></trkpt><trkpt lat="33.08581538060316" lon="9.773658249655183"><ele>244.66666666666669</ele><time>2026-04-06T10:04:44Z</time></trkpt><trkpt lat="33.08559893796618" lon="9.77370951865434"><ele>245.0</ele><time>2026-04-06T10:04:45Z</time></trkpt><trkpt lat="33.085383356401415" lon="9.773758387002674"><ele>246.0</ele><time>2026-04-06T10:04:46Z</time></trkpt><trkpt lat="33.08515622458878" lon="9.7738092660022"><ele>247.0</ele><time>2026-04-06T10:04:47Z</time></trkpt><trkpt lat="33.08492608329428" lon="9.773859948491074"><ele>247.0</ele><time>2026-04-06T10:04:48Z</time></trkpt><trkpt lat="33.08469904046487" lon="9.77390816235332"><ele>247.0</ele><time>2026-04-06T10:04:49Z</time></trkpt><trkpt lat="33.084471267925146" lon="9.77396028645157"><ele>247.0</ele><time>2026-04-06T10:04:50Z</time></trkpt><trkpt lat="33.08425024668245" lon="9.774011638505092"><ele>247.0</ele><time>2026-04-06T10:04:51Z</time></trkpt><trkpt lat="33.084028630263084" lon="9.774063988473157"><ele>247.0</ele><time>2026-04-06T10:04:52Z</time></trkpt><trkpt lat="33.08380652901373" lon="9.77411093337162"><ele>247.0</ele><time>2026-04-06T10:04:53Z</time></trkpt><trkpt lat="33.08358104387788" lon="9.774164043739638"><ele>247.0</ele><time>2026-04-06T10:04:54Z</time></trkpt><trkpt lat="33.08336045727189" lon="9.774215389503564"><ele>247.0</ele><time>2026-04-06T10:04:55Z</time></trkpt><trkpt lat="33.0831487653147" lon="9.774261744092152"><ele>247.0</ele><time>2026-04-06T10:04:56Z</time></trkpt><trkpt lat="33.08293202966661" lon="9.774312091205008"><ele>247.33333333333331</ele><time>2026-04-06T10:04:57Z</time></trkpt><trkpt lat="33.08272132268402" lon="9.774359510453385"><ele>247.66666666666669</ele><time>2026-04-06T10:04:58Z</time></trkpt><trkpt lat="33.08251365001784" lon="9.774405150207512"><ele>248.0</ele><time>2026-04-06T10:04:59Z</time></trkpt><trkpt lat="33.082303471371894" lon="9.774452529278758"><ele>248.0</ele><time>2026-04-06T10:05:00Z</time></trkpt><trkpt lat="33.08208963683958" lon="9.774503745023454"><ele>248.0</ele><time>2026-04-06T10:05:01Z</time></trkpt><trkpt lat="33.081876127810744" lon="9.77455083204009"><ele>248.0</ele><time>2026-04-06T10:05:02Z</time></trkpt><trkpt lat="33.08165818998858" lon="9.774590259621322"><ele>247.0</ele><time>2026-04-06T10:05:03Z</time></trkpt><trkpt lat="33.08143536061845" lon="9.774633507000376"><ele>246.0</ele><time>2026-04-06T10:05:04Z</time></trkpt><trkpt lat="33.08120098922443" lon="9.774680747954097"><ele>246.0</ele><time>2026-04-06T10:05:05Z</time></trkpt><trkpt lat="33.080960000227655" lon="9.774731196502398"><ele>246.0</ele><time>2026-04-06T10:05:06Z</time></trkpt><trkpt lat="33.080728516613355" lon="9.774774737752038"><ele>246.0</ele><time>2026-04-06T10:05:07Z</time></trkpt><trkpt lat="33.08049818123421" lon="9.774818072661358"><ele>246.0</ele><time>2026-04-06T10:05:08Z</time></trkpt><trkpt lat="33.08026682692888" lon="9.774858786961692"><ele>246.0</ele><time>2026-04-06T10:05:09Z</time></trkpt><trkpt lat="33.08003718906465" lon="9.774896627516243"><ele>246.0</ele><time>2026-04-06T10:05:10Z</time></trkpt><trkpt lat="33.07980507255579" lon="9.774934411240729"><ele>246.5</ele><time>2026-04-06T10:05:11Z</time></trkpt><trkpt lat="33.07957608534783" lon="9.774974183895452"><ele>247.0</ele><time>2026-04-06T10:05:12Z</time></trkpt><trkpt lat="33.07934716149979" lon="9.775007422233696"><ele>247.0</ele><time>2026-04-06T10:05:13Z</time></trkpt><trkpt lat="33.07911781936552" lon="9.775043519364182"><ele>247.0</ele><time>2026-04-06T10:05:14Z</time></trkpt><trkpt lat="33.07888862898813" lon="9.775081387798176"><ele>247.0</ele><time>2026-04-06T10:05:15Z</time></trkpt><trkpt lat="33.07866109329234" lon="9.775112720986046"><ele>247.0</ele><time>2026-04-06T10:05:16Z</time></trkpt><trkpt lat="33.07842628890789" lon="9.775144748425015"><ele>246.5</ele><time>2026-04-06T10:05:17Z</time></trkpt><trkpt lat="33.07819958330089" lon="9.775176458473263"><ele>246.0</ele><time>2026-04-06T10:05:18Z</time></trkpt><trkpt lat="33.077971225783244" lon="9.775209858992621"><ele>246.0</ele><time>2026-04-06T10:05:19Z</time></trkpt><trkpt lat="33.07775350217836" lon="9.775246612364448"><ele>246.0</ele><time>2026-04-06T10:05:20Z</time></trkpt><trkpt lat="33.07753093743167" lon="9.77528243888013"><ele>246.0</ele><time>2026-04-06T10:05:21Z</time></trkpt><trkpt lat="33.07731979428493" lon="9.775325483311503"><ele>246.5</ele><time>2026-04-06T10:05:22Z</time></trkpt><trkpt lat="33.07711680757919" lon="9.775352231654606"><ele>247.0</ele><time>2026-04-06T10:05:23Z</time></trkpt><trkpt lat="33.076854424799286" lon="9.775379365747568"><ele>247.0</ele><time>2026-04-06T10:05:24Z</time></trkpt><trkpt lat="33.076609441152975" lon="9.775411078303646"><ele>247.0</ele><time>2026-04-06T10:05:25Z</time></trkpt><trkpt lat="33.076361060650555" lon="9.775435329602898"><ele>247.5</ele><time>2026-04-06T10:05:26Z</time></trkpt><trkpt lat="33.076122458217576" lon="9.775452022634806"><ele>248.0</ele><time>2026-04-06T10:05:27.001Z</time></trkpt><trkpt lat="33.07588482383919" lon="9.77547102085753"><ele>248.0</ele><time>2026-04-06T10:05:28.001Z</time></trkpt><trkpt lat="33.07564383778309" lon="9.77549037646263"><ele>248.0</ele><time>2026-04-06T10:05:29.001Z</time></trkpt><trkpt lat="33.075394690031196" lon="9.775502875726279"><ele>248.0</ele><time>2026-04-06T10:05:30.001Z</time></trkpt><trkpt lat="33.07514081054259" lon="9.775506919264124"><ele>248.0</ele><time>2026-04-06T10:05:31.001Z</time></trkpt><trkpt lat="33.07487810805271" lon="9.77551051403987"><ele>247.0</ele><time>2026-04-06T10:05:32Z</time></trkpt><trkpt lat="33.07461437079119" lon="9.775520993875736"><ele>246.0</ele><time>2026-04-06T10:05:33Z</time></trkpt><trkpt lat="33.07435252003892" lon="9.775531534253332"><ele>245.5</ele><time>2026-04-06T10:05:34Z</time></trkpt><trkpt lat="33.07409273895096" lon="9.775534933852652"><ele>245.0</ele><time>2026-04-06T10:05:35Z</time></trkpt><trkpt lat="33.07383542887547" lon="9.775536220314399"><ele>245.0</ele><time>2026-04-06T10:05:36Z</time></trkpt><trkpt lat="33.073582052226605" lon="9.775534285091958"><ele>245.0</ele><time>2026-04-06T10:05:37Z</time></trkpt><trkpt lat="33.073335302706724" lon="9.775528134064196"><ele>244.5</ele><time>2026-04-06T10:05:38Z</time></trkpt><trkpt lat="33.07309510313725" lon="9.775520501448211"><ele>244.0</ele><time>2026-04-06T10:05:39Z</time></trkpt><trkpt lat="33.0728591671847" lon="9.775517744261343"><ele>244.0</ele><time>2026-04-06T10:05:40Z</time></trkpt><trkpt lat="33.072629066397745" lon="9.775517105398652"><ele>244.0</ele><time>2026-04-06T10:05:41Z</time></trkpt><trkpt lat="33.07240222528557" lon="9.775515824279257"><ele>245.5</ele><time>2026-04-06T10:05:42Z</time></trkpt><trkpt lat="33.072169087609126" lon="9.77551348148538"><ele>247.0</ele><time>2026-04-06T10:05:43Z</time></trkpt><trkpt lat="33.071927863605005" lon="9.77551334588729"><ele>247.0</ele><time>2026-04-06T10:05:44Z</time></trkpt><trkpt lat="33.071679020012084" lon="9.775504637223097"><ele>247.0</ele><time>2026-04-06T10:05:45Z</time></trkpt><trkpt lat="33.0714297056438" lon="9.775490931091218"><ele>246.5</ele><time>2026-04-06T10:05:46Z</time></trkpt><trkpt lat="33.07117166358086" lon="9.775473863120085"><ele>246.0</ele><time>2026-04-06T10:05:47Z</time></trkpt><trkpt lat="33.070912499162155" lon="9.775452194404446"><ele>245.0</ele><time>2026-04-06T10:05:48Z</time></trkpt><trkpt lat="33.0706499794151" lon="9.775428128800804"><ele>244.0</ele><time>2026-04-06T10:05:49Z</time></trkpt><trkpt lat="33.070384550520664" lon="9.775399888920003"><ele>244.0</ele><time>2026-04-06T10:05:50Z</time></trkpt><trkpt lat="33.07011604622271" lon="9.775368030550293"><ele>244.0</ele><time>2026-04-06T10:05:51Z</time></trkpt><trkpt lat="33.069844713858785" lon="9.775337708789149"><ele>243.5</ele><time>2026-04-06T10:05:52Z</time></trkpt><trkpt lat="33.06956976575115" lon="9.77529719933078"><ele>243.0</ele><time>2026-04-06T10:05:53Z</time></trkpt><trkpt lat="33.06929237937836" lon="9.7752544869125"><ele>242.5</ele><time>2026-04-06T10:05:54Z</time></trkpt><trkpt lat="33.06901369546523" lon="9.77520561686027"><ele>242.0</ele><time>2026-04-06T10:05:55Z</time></trkpt><trkpt lat="33.068734191864316" lon="9.775163746057022"><ele>242.0</ele><time>2026-04-06T10:05:56Z</time></trkpt><trkpt lat="33.068456170978195" lon="9.775125081856727"><ele>242.0</ele><time>2026-04-06T10:05:57Z</time></trkpt><trkpt lat="33.06818228425185" lon="9.775093446422522"><ele>242.0</ele><time>2026-04-06T10:05:58Z</time></trkpt><trkpt lat="33.06791231678141" lon="9.775070697360416"><ele>242.0</ele><time>2026-04-06T10:05:59Z</time></trkpt><trkpt lat="33.06764365542152" lon="9.7750572340095"><ele>242.5</ele><time>2026-04-06T10:06:00Z</time></trkpt><trkpt lat="33.067378191566554" lon="9.77505277870722"><ele>243.0</ele><time>2026-04-06T10:06:01Z</time></trkpt><trkpt lat="33.06711216666364" lon="9.775051972006397"><ele>243.0</ele><time>2026-04-06T10:06:02Z</time></trkpt><trkpt lat="33.06685125107708" lon="9.775048065993598"><ele>243.0</ele><time>2026-04-06T10:06:03Z</time></trkpt><trkpt lat="33.0665830734391" lon="9.7750457664796"><ele>242.5</ele><time>2026-04-06T10:06:04Z</time></trkpt><trkpt lat="33.066316894548635" lon="9.775047194820415"><ele>242.0</ele><time>2026-04-06T10:06:05Z</time></trkpt><trkpt lat="33.06604621436875" lon="9.775042564600293"><ele>241.5</ele><time>2026-04-06T10:06:06Z</time></trkpt><trkpt lat="33.06577230289868" lon="9.775032603281737"><ele>241.0</ele><time>2026-04-06T10:06:07Z</time></trkpt><trkpt lat="33.065496610222674" lon="9.775030237737896"><ele>241.0</ele><time>2026-04-06T10:06:08Z</time></trkpt><trkpt lat="33.06521176433381" lon="9.775041164269739"><ele>241.0</ele><time>2026-04-06T10:06:09Z</time></trkpt><trkpt lat="33.06492402420714" lon="9.775059185404638"><ele>240.0</ele><time>2026-04-06T10:06:10Z</time></trkpt><trkpt lat="33.064635604455546" lon="9.77508754154959"><ele>239.0</ele><time>2026-04-06T10:06:11Z</time></trkpt><trkpt lat="33.06433937600223" lon="9.775123943035394"><ele>239.0</ele><time>2026-04-06T10:06:12Z</time></trkpt><trkpt lat="33.064048105290446" lon="9.775165984857273"><ele>239.0</ele><time>2026-04-06T10:06:13Z</time></trkpt><trkpt lat="33.06376717171457" lon="9.77520096403712"><ele>238.0</ele><time>2026-04-06T10:06:14Z</time></trkpt><trkpt lat="33.06347559774827" lon="9.775231668850225"><ele>237.0</ele><time>2026-04-06T10:06:15Z</time></trkpt><trkpt lat="33.0631954215112" lon="9.77525835163569"><ele>236.0</ele><time>2026-04-06T10:06:16Z</time></trkpt><trkpt lat="33.06292284245721" lon="9.77529136617671"><ele>235.0</ele><time>2026-04-06T10:06:17Z</time></trkpt><trkpt lat="33.06264387169563" lon="9.77531806168365"><ele>236.0</ele><time>2026-04-06T10:06:18Z</time></trkpt><trkpt lat="33.06236293612406" lon="9.775336260287487"><ele>237.0</ele><time>2026-04-06T10:06:19Z</time></trkpt><trkpt lat="33.062082708830474" lon="9.775354435684118"><ele>237.0</ele><time>2026-04-06T10:06:20Z</time></trkpt><trkpt lat="33.061801326367075" lon="9.775378769294809"><ele>237.0</ele><time>2026-04-06T10:06:21Z</time></trkpt><trkpt lat="33.06151433638346" lon="9.775405949216601"><ele>236.5</ele><time>2026-04-06T10:06:22Z</time></trkpt><trkpt lat="33.06123503634003" lon="9.775443192257814"><ele>236.0</ele><time>2026-04-06T10:06:23Z</time></trkpt><trkpt lat="33.06095912089622" lon="9.775488014663376"><ele>235.0</ele><time>2026-04-06T10:06:24Z</time></trkpt><trkpt lat="33.06069485364184" lon="9.775540272125204"><ele>234.0</ele><time>2026-04-06T10:06:25Z</time></trkpt><trkpt lat="33.060440089181526" lon="9.775586527333079"><ele>234.0</ele><time>2026-04-06T10:06:26Z</time></trkpt><trkpt lat="33.06019635331308" lon="9.7756355045231"><ele>234.0</ele><time>2026-04-06T10:06:27Z</time></trkpt><trkpt lat="33.05995759651798" lon="9.775679430258464"><ele>232.0</ele><time>2026-04-06T10:06:28Z</time></trkpt><trkpt lat="33.0597295682999" lon="9.775727310802813"><ele>230.0</ele><time>2026-04-06T10:06:29Z</time></trkpt><trkpt lat="33.05950113432578" lon="9.775770374039347"><ele>230.0</ele><time>2026-04-06T10:06:30Z</time></trkpt><trkpt lat="33.059295561593906" lon="9.775817672026665"><ele>230.0</ele><time>2026-04-06T10:06:31Z</time></trkpt><trkpt lat="33.05911858845735" lon="9.77585237514818"><ele>230.0</ele><time>2026-04-06T10:06:32Z</time></trkpt><trkpt lat="33.05894539301425" lon="9.775883402144546"><ele>229.66666666666669</ele><time>2026-04-06T10:06:33Z</time></trkpt><trkpt lat="33.05876731840513" lon="9.775913422569667"><ele>229.33333333333331</ele><time>2026-04-06T10:06:34Z</time></trkpt><trkpt lat="33.0585958167127" lon="9.77594376911548"><ele>229.0</ele><time>2026-04-06T10:06:35Z</time></trkpt><trkpt lat="33.05841959780102" lon="9.775976994885884"><ele>229.33333333333331</ele><time>2026-04-06T10:06:36Z</time></trkpt><trkpt lat="33.05825779475697" lon="9.776011060056868"><ele>229.66666666666669</ele><time>2026-04-06T10:06:37Z</time></trkpt><trkpt lat="33.05809102585921" lon="9.776040995659345"><ele>230.0</ele><time>2026-04-06T10:06:38Z</time></trkpt><trkpt lat="33.05791967296665" lon="9.776075861597649"><ele>230.0</ele><time>2026-04-06T10:06:39Z</time></trkpt><trkpt lat="33.057750748261725" lon="9.77611020153105"><ele>230.0</ele><time>2026-04-06T10:06:40Z</time></trkpt><trkpt lat="33.05757136198009" lon="9.776144698874099"><ele>230.0</ele><time>2026-04-06T10:06:41Z</time></trkpt><trkpt lat="33.05738754088732" lon="9.77617713981533"><ele>229.66666666666669</ele><time>2026-04-06T10:06:42Z</time></trkpt><trkpt lat="33.05719536829733" lon="9.776210804189468"><ele>229.33333333333331</ele><time>2026-04-06T10:06:43Z</time></trkpt><trkpt lat="33.05701399026499" lon="9.776245181428028"><ele>229.0</ele><time>2026-04-06T10:06:44Z</time></trkpt><trkpt lat="33.056823921132235" lon="9.776274175637116"><ele>229.0</ele><time>2026-04-06T10:06:45Z</time></trkpt><trkpt lat="33.05664254730768" lon="9.776302997639423"><ele>229.0</ele><time>2026-04-06T10:06:46Z</time></trkpt><trkpt lat="33.05646240469961" lon="9.776333923903392"><ele>229.0</ele><time>2026-04-06T10:06:47Z</time></trkpt><trkpt lat="33.05627803443429" lon="9.77636976514024"><ele>229.0</ele><time>2026-04-06T10:06:48Z</time></trkpt><trkpt lat="33.05609149292823" lon="9.776404602850986"><ele>229.0</ele><time>2026-04-06T10:06:49Z</time></trkpt><trkpt lat="33.055898325655036" lon="9.776433841443591"><ele>229.0</ele><time>2026-04-06T10:06:50Z</time></trkpt><trkpt lat="33.05569931705638" lon="9.776462117312878"><ele>228.66666666666666</ele><time>2026-04-06T10:06:51Z</time></trkpt><trkpt lat="33.05550359279634" lon="9.776484254663105"><ele>228.33333333333331</ele><time>2026-04-06T10:06:52Z</time></trkpt><trkpt lat="33.05530893490915" lon="9.776503901154548"><ele>228.0</ele><time>2026-04-06T10:06:53Z</time></trkpt><trkpt lat="33.05512675225356" lon="9.776525049027077"><ele>229.33333333333331</ele><time>2026-04-06T10:06:54Z</time></trkpt><trkpt lat="33.054951362390646" lon="9.776548773352285"><ele>230.66666666666666</ele><time>2026-04-06T10:06:55Z</time></trkpt><trkpt lat="33.05478378183147" lon="9.77656931777704"><ele>232.0</ele><time>2026-04-06T10:06:56Z</time></trkpt><trkpt lat="33.054609310635264" lon="9.776589858378872"><ele>232.0</ele><time>2026-04-06T10:06:57Z</time></trkpt><trkpt lat="33.054443805706605" lon="9.77661079135093"><ele>232.0</ele><time>2026-04-06T10:06:58Z</time></trkpt><trkpt lat="33.054277911663945" lon="9.776634945647443"><ele>232.0</ele><time>2026-04-06T10:06:59Z</time></trkpt><trkpt lat="33.05412044013415" lon="9.77665727155283"><ele>231.75</ele><time>2026-04-06T10:07:00Z</time></trkpt><trkpt lat="33.053974924494305" lon="9.77667386228036"><ele>231.5</ele><time>2026-04-06T10:07:01Z</time></trkpt><trkpt lat="33.05383055400097" lon="9.77669045259898"><ele>231.25</ele><time>2026-04-06T10:07:02Z</time></trkpt><trkpt lat="33.05368207783414" lon="9.77670752219496"><ele>231.0</ele><time>2026-04-06T10:07:03Z</time></trkpt><trkpt lat="33.05352510121934" lon="9.776727680303901"><ele>231.0</ele><time>2026-04-06T10:07:04Z</time></trkpt><trkpt lat="33.053360247087866" lon="9.776747246573283"><ele>231.0</ele><time>2026-04-06T10:07:05Z</time></trkpt><trkpt lat="33.05318745778122" lon="9.776763898284948"><ele>231.0</ele><time>2026-04-06T10:07:06Z</time></trkpt><trkpt lat="33.05300472624008" lon="9.776785205388613"><ele>231.33333333333331</ele><time>2026-04-06T10:07:07Z</time></trkpt><trkpt lat="33.05281886002062" lon="9.776805897728137"><ele>231.66666666666666</ele><time>2026-04-06T10:07:08Z</time></trkpt><trkpt lat="33.052622401287344" lon="9.776832735586188"><ele>232.0</ele><time>2026-04-06T10:07:09Z</time></trkpt><trkpt lat="33.05243016005946" lon="9.776859490198662"><ele>232.33333333333331</ele><time>2026-04-06T10:07:10Z</time></trkpt><trkpt lat="33.05222350740167" lon="9.776891312516241"><ele>232.66666666666669</ele><time>2026-04-06T10:07:11Z</time></trkpt><trkpt lat="33.052014028265255" lon="9.776921479244438"><ele>233.0</ele><time>2026-04-06T10:07:12Z</time></trkpt><trkpt lat="33.0518003813137" lon="9.776948695730729"><ele>233.0</ele><time>2026-04-06T10:07:13Z</time></trkpt><trkpt lat="33.05158018840525" lon="9.776979831512433"><ele>233.0</ele><time>2026-04-06T10:07:14Z</time></trkpt><trkpt lat="33.051361851848995" lon="9.777008052695882"><ele>233.0</ele><time>2026-04-06T10:07:15Z</time></trkpt><trkpt lat="33.05114859948337" lon="9.777033736488265"><ele>233.0</ele><time>2026-04-06T10:07:16Z</time></trkpt><trkpt lat="33.05093081749009" lon="9.77706379088133"><ele>233.0</ele><time>2026-04-06T10:07:17Z</time></trkpt><trkpt lat="33.05071646468689" lon="9.77709317645137"><ele>233.0</ele><time>2026-04-06T10:07:18Z</time></trkpt><trkpt lat="33.050500938016285" lon="9.777128967430292"><ele>232.33333333333334</ele><time>2026-04-06T10:07:19Z</time></trkpt><trkpt lat="33.050292798455665" lon="9.777158447089267"><ele>231.66666666666669</ele><time>2026-04-06T10:07:20Z</time></trkpt><trkpt lat="33.05009813321306" lon="9.77718553766816"><ele>231.0</ele><time>2026-04-06T10:07:21Z</time></trkpt><trkpt lat="33.0499075659683" lon="9.777213833427057"><ele>230.33333333333331</ele><time>2026-04-06T10:07:22Z</time></trkpt><trkpt lat="33.049722687800184" lon="9.777240128418116"><ele>229.66666666666666</ele><time>2026-04-06T10:07:23Z</time></trkpt><trkpt lat="33.04952969252349" lon="9.777271531874742"><ele>229.0</ele><time>2026-04-06T10:07:24Z</time></trkpt><trkpt lat="33.04934723713106" lon="9.777305608727097"><ele>229.0</ele><time>2026-04-06T10:07:25Z</time></trkpt><trkpt lat="33.04916200912243" lon="9.77733615403945"><ele>229.0</ele><time>2026-04-06T10:07:26Z</time></trkpt><trkpt lat="33.04898140184796" lon="9.777355257583018"><ele>229.0</ele><time>2026-04-06T10:07:27Z</time></trkpt><trkpt lat="33.04880406238274" lon="9.777375863537708"><ele>229.33333333333331</ele><time>2026-04-06T10:07:28Z</time></trkpt><trkpt lat="33.04863422143697" lon="9.777397151950552"><ele>229.66666666666669</ele><time>2026-04-06T10:07:29Z</time></trkpt><trkpt lat="33.048469952165284" lon="9.777417898005496"><ele>230.0</ele><time>2026-04-06T10:07:30Z</time></trkpt><trkpt lat="33.04831651526505" lon="9.777443414356416"><ele>230.33333333333334</ele><time>2026-04-06T10:07:31Z</time></trkpt><trkpt lat="33.04816152574081" lon="9.777465949314733"><ele>230.66666666666669</ele><time>2026-04-06T10:07:32Z</time></trkpt><trkpt lat="33.04801517483835" lon="9.777488996889511"><ele>231.0</ele><time>2026-04-06T10:07:33Z</time></trkpt><trkpt lat="33.04786585366169" lon="9.777508903616974"><ele>231.0</ele><time>2026-04-06T10:07:34Z</time></trkpt><trkpt lat="33.04771502547368" lon="9.777523195162994"><ele>231.0</ele><time>2026-04-06T10:07:35Z</time></trkpt><trkpt lat="33.04756597028573" lon="9.777534832289453"><ele>231.0</ele><time>2026-04-06T10:07:36Z</time></trkpt><trkpt lat="33.047413399514966" lon="9.777551486712602"><ele>231.25</ele><time>2026-04-06T10:07:37Z</time></trkpt><trkpt lat="33.047267290066934" lon="9.777565051213946"><ele>231.5</ele><time>2026-04-06T10:07:38Z</time></trkpt><trkpt lat="33.04712423248606" lon="9.777576118368264"><ele>231.75</ele><time>2026-04-06T10:07:39Z</time></trkpt><trkpt lat="33.0469823684769" lon="9.777584688280903"><ele>232.0</ele><time>2026-04-06T10:07:40Z</time></trkpt><trkpt lat="33.04685171563903" lon="9.777600288318167"><ele>232.0</ele><time>2026-04-06T10:07:41Z</time></trkpt><trkpt lat="33.04671293151172" lon="9.777613356064611"><ele>232.0</ele><time>2026-04-06T10:07:42Z</time></trkpt><trkpt lat="33.04657495249875" lon="9.777626813832581"><ele>232.0</ele><time>2026-04-06T10:07:43Z</time></trkpt><trkpt lat="33.04644199681947" lon="9.777642699854628"><ele>232.0</ele><time>2026-04-06T10:07:44Z</time></trkpt><trkpt lat="33.04631975849151" lon="9.777649369809282"><ele>232.0</ele><time>2026-04-06T10:07:45Z</time></trkpt><trkpt lat="33.04618223623826" lon="9.777658328969439"><ele>232.0</ele><time>2026-04-06T10:07:46Z</time></trkpt><trkpt lat="33.04604717263674" lon="9.777672518012237"><ele>232.0</ele><time>2026-04-06T10:07:47Z</time></trkpt><trkpt lat="33.045910318818216" lon="9.77768557836149"><ele>232.0</ele><time>2026-04-06T10:07:48Z</time></trkpt><trkpt lat="33.04576600399674" lon="9.777699773724827"><ele>233.0</ele><time>2026-04-06T10:07:49Z</time></trkpt><trkpt lat="33.045611238111825" lon="9.7777161029617"><ele>234.0</ele><time>2026-04-06T10:07:50Z</time></trkpt><trkpt lat="33.04544246188326" lon="9.777733599549185"><ele>235.0</ele><time>2026-04-06T10:07:51Z</time></trkpt><trkpt lat="33.045270758557784" lon="9.777748518279637"><ele>235.0</ele><time>2026-04-06T10:07:52Z</time></trkpt><trkpt lat="33.045091341094825" lon="9.77776406686297"><ele>235.0</ele><time>2026-04-06T10:07:53Z</time></trkpt><trkpt lat="33.04490901443843" lon="9.777781860323197"><ele>235.0</ele><time>2026-04-06T10:07:54Z</time></trkpt><trkpt lat="33.044724903634965" lon="9.77779888535043"><ele>236.0</ele><time>2026-04-06T10:07:55Z</time></trkpt><trkpt lat="33.04453975323641" lon="9.777813700342614"><ele>237.0</ele><time>2026-04-06T10:07:56Z</time></trkpt><trkpt lat="33.04435526445225" lon="9.777825425579534"><ele>238.0</ele><time>2026-04-06T10:07:57Z</time></trkpt><trkpt lat="33.04417131550284" lon="9.77783688788688"><ele>238.0</ele><time>2026-04-06T10:07:58Z</time></trkpt><trkpt lat="33.04398492038247" lon="9.777847440436902"><ele>238.0</ele><time>2026-04-06T10:07:59Z</time></trkpt><trkpt lat="33.04379925205267" lon="9.777857463408196"><ele>238.0</ele><time>2026-04-06T10:08:00Z</time></trkpt><trkpt lat="33.043611882730275" lon="9.777869241515457"><ele>238.0</ele><time>2026-04-06T10:08:01Z</time></trkpt><trkpt lat="33.04341964958684" lon="9.777881074607278"><ele>238.0</ele><time>2026-04-06T10:08:02Z</time></trkpt><trkpt lat="33.04323315960415" lon="9.777891194366417"><ele>238.0</ele><time>2026-04-06T10:08:03Z</time></trkpt><trkpt lat="33.04305627299775" lon="9.77789698818852"><ele>237.66666666666666</ele><time>2026-04-06T10:08:04Z</time></trkpt><trkpt lat="33.04288268541221" lon="9.777902611872413"><ele>237.33333333333331</ele><time>2026-04-06T10:08:05Z</time></trkpt><trkpt lat="33.04271705650028" lon="9.777909841940032"><ele>237.0</ele><time>2026-04-06T10:08:06Z</time></trkpt><trkpt lat="33.04256575463752" lon="9.777917218093709"><ele>237.75</ele><time>2026-04-06T10:08:07Z</time></trkpt><trkpt lat="33.04242068109954" lon="9.777923725000994"><ele>238.5</ele><time>2026-04-06T10:08:08Z</time></trkpt><trkpt lat="33.04229415553334" lon="9.777926626194397"><ele>239.25</ele><time>2026-04-06T10:08:09Z</time></trkpt><trkpt lat="33.04218261336583" lon="9.777931495165706"><ele>240.0</ele><time>2026-04-06T10:08:10Z</time></trkpt><trkpt lat="33.04208241277748" lon="9.777935921709737"><ele>240.0</ele><time>2026-04-06T10:08:11Z</time></trkpt><trkpt lat="33.04199607360952" lon="9.777942228572606"><ele>240.0</ele><time>2026-04-06T10:08:12Z</time></trkpt><trkpt lat="33.04191913612139" lon="9.777949397653204"><ele>240.0</ele><time>2026-04-06T10:08:13Z</time></trkpt><trkpt lat="33.04184518735616" lon="9.77795523638245"><ele>240.0</ele><time>2026-04-06T10:08:14Z</time></trkpt><trkpt lat="33.04178130615304" lon="9.777956503588074"><ele>240.0</ele><time>2026-04-06T10:08:15Z</time></trkpt><trkpt lat="33.0416729400675" lon="9.777905921675307"><ele>240.0</ele><time>2026-04-06T10:08:17Z</time></trkpt><trkpt lat="33.04162860491222" lon="9.777763598006654"><ele>240.0</ele><time>2026-04-06T10:08:19Z</time></trkpt><trkpt lat="33.041629766072695" lon="9.7776650430447"><ele>240.0</ele><time>2026-04-06T10:08:20Z</time></trkpt><trkpt lat="33.04164675243989" lon="9.777558933945476"><ele>240.0</ele><time>2026-04-06T10:08:21Z</time></trkpt><trkpt lat="33.04166909145387" lon="9.777458034235666"><ele>240.0</ele><time>2026-04-06T10:08:22Z</time></trkpt><trkpt lat="33.041679273581266" lon="9.777350289941214"><ele>240.0</ele><time>2026-04-06T10:08:23Z</time></trkpt><trkpt lat="33.04168336683387" lon="9.777228817077583"><ele>240.0</ele><time>2026-04-06T10:08:24Z</time></trkpt><trkpt lat="33.04169505523967" lon="9.777068117582393"><ele>240.0</ele><time>2026-04-06T10:08:25Z</time></trkpt><trkpt lat="33.04171044662567" lon="9.77691567180759"><ele>240.0</ele><time>2026-04-06T10:08:26Z</time></trkpt><trkpt lat="33.04172717727465" lon="9.77675683498138"><ele>240.0</ele><time>2026-04-06T10:08:27Z</time></trkpt><trkpt lat="33.04174011742081" lon="9.776604093365917"><ele>240.0</ele><time>2026-04-06T10:08:28Z</time></trkpt><trkpt lat="33.04175020849104" lon="9.776451913087346"><ele>240.0</ele><time>2026-04-06T10:08:29Z</time></trkpt><trkpt lat="33.0417625163924" lon="9.776299876056228"><ele>240.0</ele><time>2026-04-06T10:08:30Z</time></trkpt><trkpt lat="33.041774473050374" lon="9.776150803940727"><ele>240.0</ele><time>2026-04-06T10:08:31Z</time></trkpt><trkpt lat="33.04178756211029" lon="9.776002032016699"><ele>240.5</ele><time>2026-04-06T10:08:32Z</time></trkpt><trkpt lat="33.04180198725172" lon="9.775856805346312"><ele>241.0</ele><time>2026-04-06T10:08:33Z</time></trkpt><trkpt lat="33.04181339450647" lon="9.775715830956447"><ele>241.5</ele><time>2026-04-06T10:08:34Z</time></trkpt><trkpt lat="33.04182439168762" lon="9.775579988113789"><ele>242.0</ele><time>2026-04-06T10:08:35Z</time></trkpt><trkpt lat="33.04183996781693" lon="9.775439102452703"><ele>242.0</ele><time>2026-04-06T10:08:36Z</time></trkpt><trkpt lat="33.04185411981656" lon="9.77529662166888"><ele>242.0</ele><time>2026-04-06T10:08:37Z</time></trkpt><trkpt lat="33.041867941311246" lon="9.775151850909479"><ele>242.0</ele><time>2026-04-06T10:08:38Z</time></trkpt><trkpt lat="33.04188168908795" lon="9.775005841102116"><ele>242.0</ele><time>2026-04-06T10:08:39Z</time></trkpt><trkpt lat="33.0418944828256" lon="9.774855851986283"><ele>242.0</ele><time>2026-04-06T10:08:40Z</time></trkpt><trkpt lat="33.04190968007089" lon="9.774695491027348"><ele>242.0</ele><time>2026-04-06T10:08:41Z</time></trkpt><trkpt lat="33.041924546606985" lon="9.774528365935375"><ele>242.0</ele><time>2026-04-06T10:08:42Z</time></trkpt><trkpt lat="33.04193983285135" lon="9.774353676012595"><ele>242.0</ele><time>2026-04-06T10:08:43Z</time></trkpt><trkpt lat="33.04195554402486" lon="9.77416987843742"><ele>240.66666666666669</ele><time>2026-04-06T10:08:44Z</time></trkpt><trkpt lat="33.04197190094296" lon="9.773973017202742"><ele>239.33333333333331</ele><time>2026-04-06T10:08:45Z</time></trkpt><trkpt lat="33.041987694251205" lon="9.7737644354963"><ele>238.0</ele><time>2026-04-06T10:08:46Z</time></trkpt><trkpt lat="33.04200687262443" lon="9.773547009576616"><ele>238.0</ele><time>2026-04-06T10:08:47Z</time></trkpt><trkpt lat="33.04202737958426" lon="9.773320064933772"><ele>238.0</ele><time>2026-04-06T10:08:48Z</time></trkpt><trkpt lat="33.04205122000306" lon="9.773083226277118"><ele>238.0</ele><time>2026-04-06T10:08:49Z</time></trkpt><trkpt lat="33.042072153033445" lon="9.772842710628296"><ele>238.33333333333331</ele><time>2026-04-06T10:08:50Z</time></trkpt><trkpt lat="33.04209099370696" lon="9.772589669621912"><ele>238.66666666666669</ele><time>2026-04-06T10:08:51Z</time></trkpt><trkpt lat="33.04211115268618" lon="9.77233600866581"><ele>239.0</ele><time>2026-04-06T10:08:52Z</time></trkpt><trkpt lat="33.04213264465317" lon="9.7720845439769"><ele>238.0</ele><time>2026-04-06T10:08:53Z</time></trkpt><trkpt lat="33.04215527555683" lon="9.771832265058363"><ele>237.0</ele><time>2026-04-06T10:08:54Z</time></trkpt><trkpt lat="33.042178232839625" lon="9.771577987823616"><ele>236.0</ele><time>2026-04-06T10:08:55Z</time></trkpt><trkpt lat="33.04219678636656" lon="9.771336494540892"><ele>236.0</ele><time>2026-04-06T10:08:56Z</time></trkpt><trkpt lat="33.042217637704525" lon="9.771100461238449"><ele>236.0</ele><time>2026-04-06T10:08:57Z</time></trkpt><trkpt lat="33.04224124666373" lon="9.770859019260831"><ele>236.0</ele><time>2026-04-06T10:08:58Z</time></trkpt><trkpt lat="33.042264063721696" lon="9.77061803599408"><ele>236.33333333333334</ele><time>2026-04-06T10:08:59Z</time></trkpt><trkpt lat="33.04228794879265" lon="9.77037016746862"><ele>236.66666666666669</ele><time>2026-04-06T10:09:00Z</time></trkpt><trkpt lat="33.0423091362711" lon="9.770125776873963"><ele>237.0</ele><time>2026-04-06T10:09:01Z</time></trkpt><trkpt lat="33.04232982827287" lon="9.769878823522053"><ele>237.33333333333331</ele><time>2026-04-06T10:09:02Z</time></trkpt><trkpt lat="33.04234715634224" lon="9.76963397996828"><ele>237.66666666666666</ele><time>2026-04-06T10:09:03Z</time></trkpt><trkpt lat="33.04236178549353" lon="9.769386087976146"><ele>238.0</ele><time>2026-04-06T10:09:04Z</time></trkpt><trkpt lat="33.042377379933534" lon="9.769123581114512"><ele>238.0</ele><time>2026-04-06T10:09:05Z</time></trkpt><trkpt lat="33.04239381914432" lon="9.768859038812428"><ele>238.0</ele><time>2026-04-06T10:09:06Z</time></trkpt><trkpt lat="33.042410440509926" lon="9.76858106840932"><ele>237.5</ele><time>2026-04-06T10:09:07Z</time></trkpt><trkpt lat="33.0424185377436" lon="9.768296895278976"><ele>237.0</ele><time>2026-04-06T10:09:08Z</time></trkpt><trkpt lat="33.04242119040611" lon="9.768006791237717"><ele>237.0</ele><time>2026-04-06T10:09:09Z</time></trkpt><trkpt lat="33.04241768169393" lon="9.76771770207797"><ele>237.0</ele><time>2026-04-06T10:09:10Z</time></trkpt><trkpt lat="33.04240965319798" lon="9.767431801543237"><ele>236.5</ele><time>2026-04-06T10:09:11Z</time></trkpt><trkpt lat="33.04239373453664" lon="9.767152999023576"><ele>236.0</ele><time>2026-04-06T10:09:12Z</time></trkpt><trkpt lat="33.04237176530901" lon="9.76688027631142"><ele>236.0</ele><time>2026-04-06T10:09:13Z</time></trkpt><trkpt lat="33.042348400483576" lon="9.766616841886627"><ele>236.0</ele><time>2026-04-06T10:09:14Z</time></trkpt><trkpt lat="33.042322123543414" lon="9.766360064913265"><ele>236.0</ele><time>2026-04-06T10:09:15Z</time></trkpt><trkpt lat="33.04229422154486" lon="9.766100663528652"><ele>236.0</ele><time>2026-04-06T10:09:16Z</time></trkpt><trkpt lat="33.042261266030486" lon="9.765839656528774"><ele>236.0</ele><time>2026-04-06T10:09:17Z</time></trkpt><trkpt lat="33.04222327153945" lon="9.765580123714779"><ele>236.0</ele><time>2026-04-06T10:09:18Z</time></trkpt><trkpt lat="33.04218048740433" lon="9.765314441152205"><ele>235.66666666666669</ele><time>2026-04-06T10:09:19Z</time></trkpt><trkpt lat="33.04213411867328" lon="9.765071802309201"><ele>235.33333333333331</ele><time>2026-04-06T10:09:20Z</time></trkpt><trkpt lat="33.04208998010719" lon="9.764839004308016"><ele>235.0</ele><time>2026-04-06T10:09:21Z</time></trkpt><trkpt lat="33.042040730662556" lon="9.764618316698854"><ele>235.0</ele><time>2026-04-06T10:09:22Z</time></trkpt><trkpt lat="33.04199158015922" lon="9.764406693220026"><ele>235.0</ele><time>2026-04-06T10:09:23Z</time></trkpt><trkpt lat="33.041940609547886" lon="9.764193831118781"><ele>235.0</ele><time>2026-04-06T10:09:24Z</time></trkpt><trkpt lat="33.04189324069829" lon="9.763986270219645"><ele>234.66666666666666</ele><time>2026-04-06T10:09:25Z</time></trkpt><trkpt lat="33.04183922529768" lon="9.76377260844738"><ele>234.33333333333331</ele><time>2026-04-06T10:09:26Z</time></trkpt><trkpt lat="33.04177845630019" lon="9.763562490955263"><ele>234.0</ele><time>2026-04-06T10:09:27Z</time></trkpt><trkpt lat="33.0417179650155" lon="9.763365040048889"><ele>234.33333333333331</ele><time>2026-04-06T10:09:28Z</time></trkpt><trkpt lat="33.04166302579345" lon="9.763181163306754"><ele>234.66666666666666</ele><time>2026-04-06T10:09:29Z</time></trkpt><trkpt lat="33.04160844049726" lon="9.763006096786684"><ele>235.0</ele><time>2026-04-06T10:09:30Z</time></trkpt><trkpt lat="33.04155313736592" lon="9.762839319577875"><ele>235.0</ele><time>2026-04-06T10:09:31Z</time></trkpt><trkpt lat="33.04149840401695" lon="9.762686490326963"><ele>235.0</ele><time>2026-04-06T10:09:32Z</time></trkpt><trkpt lat="33.04144603593772" lon="9.762544797659915"><ele>235.0</ele><time>2026-04-06T10:09:33Z</time></trkpt><trkpt lat="33.04140150309161" lon="9.762419767601628"><ele>235.0</ele><time>2026-04-06T10:09:34Z</time></trkpt><trkpt lat="33.04136260413318" lon="9.762302667236709"><ele>235.0</ele><time>2026-04-06T10:09:35Z</time></trkpt><trkpt lat="33.04131757647791" lon="9.762184051717032"><ele>235.0</ele><time>2026-04-06T10:09:36Z</time></trkpt><trkpt lat="33.04126392621078" lon="9.762063034388023"><ele>235.0</ele><time>2026-04-06T10:09:37Z</time></trkpt><trkpt lat="33.04120448854878" lon="9.761929238594895"><ele>235.0</ele><time>2026-04-06T10:09:38Z</time></trkpt><trkpt lat="33.04114442115745" lon="9.7617925046131"><ele>235.0</ele><time>2026-04-06T10:09:39Z</time></trkpt><trkpt lat="33.041082109483945" lon="9.761645615441562"><ele>235.0</ele><time>2026-04-06T10:09:40Z</time></trkpt><trkpt lat="33.04101650009965" lon="9.761490599913893"><ele>235.0</ele><time>2026-04-06T10:09:41Z</time></trkpt><trkpt lat="33.040943393748" lon="9.761332100886976"><ele>235.0</ele><time>2026-04-06T10:09:42Z</time></trkpt><trkpt lat="33.040858186722865" lon="9.76115962476453"><ele>235.0</ele><time>2026-04-06T10:09:43Z</time></trkpt><trkpt lat="33.04077296477867" lon="9.760983608469095"><ele>235.0</ele><time>2026-04-06T10:09:44Z</time></trkpt><trkpt lat="33.0406766121794" lon="9.76079859023183"><ele>235.0</ele><time>2026-04-06T10:09:45Z</time></trkpt><trkpt lat="33.040574834251075" lon="9.760609230347985"><ele>235.0</ele><time>2026-04-06T10:09:46Z</time></trkpt><trkpt lat="33.040470797866604" lon="9.760421424520281"><ele>235.0</ele><time>2026-04-06T10:09:47Z</time></trkpt><trkpt lat="33.040358846305956" lon="9.76022660634575"><ele>235.0</ele><time>2026-04-06T10:09:48Z</time></trkpt><trkpt lat="33.04022904471163" lon="9.760022294285823"><ele>235.0</ele><time>2026-04-06T10:09:49Z</time></trkpt><trkpt lat="33.04008346343305" lon="9.759813477151862"><ele>235.0</ele><time>2026-04-06T10:09:50Z</time></trkpt><trkpt lat="33.03993249790262" lon="9.759602105080333"><ele>235.0</ele><time>2026-04-06T10:09:51Z</time></trkpt><trkpt lat="33.03978432174945" lon="9.75939365495122"><ele>235.0</ele><time>2026-04-06T10:09:52Z</time></trkpt><trkpt lat="33.03963310284286" lon="9.759183671638064"><ele>235.0</ele><time>2026-04-06T10:09:53Z</time></trkpt><trkpt lat="33.0394821874686" lon="9.758977151317755"><ele>235.0</ele><time>2026-04-06T10:09:54Z</time></trkpt><trkpt lat="33.039333100185054" lon="9.758766972796234"><ele>235.0</ele><time>2026-04-06T10:09:55Z</time></trkpt><trkpt lat="33.03918461122824" lon="9.758558827634008"><ele>235.0</ele><time>2026-04-06T10:09:56Z</time></trkpt><trkpt lat="33.03903727149362" lon="9.758355200106141"><ele>235.0</ele><time>2026-04-06T10:09:57Z</time></trkpt><trkpt lat="33.03888870015819" lon="9.758150947205012"><ele>235.0</ele><time>2026-04-06T10:09:58Z</time></trkpt><trkpt lat="33.03874310379869" lon="9.757947483778615"><ele>235.0</ele><time>2026-04-06T10:09:59Z</time></trkpt><trkpt lat="33.03859577658937" lon="9.757744040101693"><ele>235.0</ele><time>2026-04-06T10:10:00Z</time></trkpt><trkpt lat="33.03844864108155" lon="9.75753629459136"><ele>234.0</ele><time>2026-04-06T10:10:01Z</time></trkpt><trkpt lat="33.038300096497494" lon="9.757325401053727"><ele>233.0</ele><time>2026-04-06T10:10:02Z</time></trkpt><trkpt lat="33.03814720585647" lon="9.757120259231726"><ele>233.0</ele><time>2026-04-06T10:10:03Z</time></trkpt><trkpt lat="33.03799665616926" lon="9.756914963024862"><ele>233.0</ele><time>2026-04-06T10:10:04Z</time></trkpt><trkpt lat="33.03784147472388" lon="9.756702371769643"><ele>233.0</ele><time>2026-04-06T10:10:05Z</time></trkpt><trkpt lat="33.03769307036464" lon="9.756491253481846"><ele>233.0</ele><time>2026-04-06T10:10:06Z</time></trkpt><trkpt lat="33.03752958608436" lon="9.756271752714243"><ele>233.5</ele><time>2026-04-06T10:10:07Z</time></trkpt><trkpt lat="33.037363876405145" lon="9.756059317320336"><ele>234.0</ele><time>2026-04-06T10:10:08Z</time></trkpt><trkpt lat="33.03720080225594" lon="9.755836141320446"><ele>234.0</ele><time>2026-04-06T10:10:09Z</time></trkpt><trkpt lat="33.03704396078479" lon="9.755606846690386"><ele>234.0</ele><time>2026-04-06T10:10:10Z</time></trkpt><trkpt lat="33.03688465874262" lon="9.755378034643073"><ele>233.5</ele><time>2026-04-06T10:10:11Z</time></trkpt><trkpt lat="33.03671819188342" lon="9.755149251448957"><ele>233.0</ele><time>2026-04-06T10:10:12Z</time></trkpt><trkpt lat="33.036555569360345" lon="9.754928416811728"><ele>233.0</ele><time>2026-04-06T10:10:13Z</time></trkpt><trkpt lat="33.036389624959405" lon="9.7546994490634"><ele>233.0</ele><time>2026-04-06T10:10:14Z</time></trkpt><trkpt lat="33.03622514683416" lon="9.754466575971465"><ele>232.0</ele><time>2026-04-06T10:10:15Z</time></trkpt><trkpt lat="33.03606144422617" lon="9.754216621470583"><ele>231.0</ele><time>2026-04-06T10:10:16Z</time></trkpt><trkpt lat="33.03589246797247" lon="9.753948146075215"><ele>230.5</ele><time>2026-04-06T10:10:17Z</time></trkpt><trkpt lat="33.03573085369627" lon="9.753678506230958"><ele>230.0</ele><time>2026-04-06T10:10:18Z</time></trkpt><trkpt lat="33.03558182989013" lon="9.753428645115855"><ele>231.5</ele><time>2026-04-06T10:10:19Z</time></trkpt><trkpt lat="33.03543154980131" lon="9.753165198190702"><ele>233.0</ele><time>2026-04-06T10:10:20Z</time></trkpt><trkpt lat="33.03528215844685" lon="9.75289454026545"><ele>232.5</ele><time>2026-04-06T10:10:21Z</time></trkpt><trkpt lat="33.03514654012358" lon="9.752640109028897"><ele>232.0</ele><time>2026-04-06T10:10:22Z</time></trkpt><trkpt lat="33.035021207097095" lon="9.752399120531992"><ele>232.0</ele><time>2026-04-06T10:10:23Z</time></trkpt><trkpt lat="33.03489761148452" lon="9.75215520527386"><ele>232.0</ele><time>2026-04-06T10:10:24Z</time></trkpt><trkpt lat="33.03477987122565" lon="9.751901381480687"><ele>231.5</ele><time>2026-04-06T10:10:25Z</time></trkpt><trkpt lat="33.034670497917645" lon="9.751643134138353"><ele>231.0</ele><time>2026-04-06T10:10:26Z</time></trkpt><trkpt lat="33.03456800313956" lon="9.751391306059794"><ele>231.0</ele><time>2026-04-06T10:10:27Z</time></trkpt><trkpt lat="33.03446974341917" lon="9.751140648090475"><ele>231.0</ele><time>2026-04-06T10:10:28Z</time></trkpt><trkpt lat="33.03437851690041" lon="9.750897614590087"><ele>231.66666666666669</ele><time>2026-04-06T10:10:29Z</time></trkpt><trkpt lat="33.03428891609732" lon="9.750657930041386"><ele>232.33333333333334</ele><time>2026-04-06T10:10:30Z</time></trkpt><trkpt lat="33.03418892063353" lon="9.75041368582621"><ele>233.0</ele><time>2026-04-06T10:10:31Z</time></trkpt><trkpt lat="33.034091977917264" lon="9.750160434719056"><ele>231.0</ele><time>2026-04-06T10:10:32Z</time></trkpt><trkpt lat="33.03399953280956" lon="9.749902497625815"><ele>229.0</ele><time>2026-04-06T10:10:33Z</time></trkpt><trkpt lat="33.033909037845575" lon="9.749642322078659"><ele>229.0</ele><time>2026-04-06T10:10:34Z</time></trkpt><trkpt lat="33.03382146753108" lon="9.749381674458768"><ele>229.0</ele><time>2026-04-06T10:10:35Z</time></trkpt><trkpt lat="33.03373416576926" lon="9.74912293892641"><ele>229.0</ele><time>2026-04-06T10:10:36Z</time></trkpt><trkpt lat="33.033649790910964" lon="9.748877994931728"><ele>229.0</ele><time>2026-04-06T10:10:37Z</time></trkpt><trkpt lat="33.033569177176695" lon="9.748646457128498"><ele>229.0</ele><time>2026-04-06T10:10:38Z</time></trkpt><trkpt lat="33.033488848046744" lon="9.748422944157138"><ele>229.0</ele><time>2026-04-06T10:10:39Z</time></trkpt><trkpt lat="33.03340857981516" lon="9.74820047886848"><ele>229.0</ele><time>2026-04-06T10:10:40Z</time></trkpt><trkpt lat="33.0333311668215" lon="9.747973900085745"><ele>229.0</ele><time>2026-04-06T10:10:41Z</time></trkpt><trkpt lat="33.033253739424254" lon="9.74774628187462"><ele>229.0</ele><time>2026-04-06T10:10:42Z</time></trkpt><trkpt lat="33.03317575779533" lon="9.747514154418335"><ele>229.0</ele><time>2026-04-06T10:10:43Z</time></trkpt><trkpt lat="33.033096452707596" lon="9.747281230784349"><ele>229.0</ele><time>2026-04-06T10:10:44Z</time></trkpt><trkpt lat="33.033013017528575" lon="9.747043838526599"><ele>228.33333333333331</ele><time>2026-04-06T10:10:45Z</time></trkpt><trkpt lat="33.03292923730182" lon="9.746805495821974"><ele>227.66666666666669</ele><time>2026-04-06T10:10:46Z</time></trkpt><trkpt lat="33.03284777126216" lon="9.746568506945096"><ele>227.0</ele><time>2026-04-06T10:10:47Z</time></trkpt><trkpt lat="33.03276502401245" lon="9.746328807340618"><ele>227.0</ele><time>2026-04-06T10:10:48Z</time></trkpt><trkpt lat="33.03268150775809" lon="9.746088220701907"><ele>227.0</ele><time>2026-04-06T10:10:49Z</time></trkpt><trkpt lat="33.032593596712715" lon="9.745846622269074"><ele>227.0</ele><time>2026-04-06T10:10:50Z</time></trkpt><trkpt lat="33.03250884701306" lon="9.74560521906191"><ele>227.33333333333334</ele><time>2026-04-06T10:10:51Z</time></trkpt><trkpt lat="33.03242521526297" lon="9.745362281409408"><ele>227.66666666666669</ele><time>2026-04-06T10:10:52Z</time></trkpt><trkpt lat="33.032341210257904" lon="9.745117694165032"><ele>228.0</ele><time>2026-04-06T10:10:53Z</time></trkpt><trkpt lat="33.032257739795924" lon="9.74487237331589"><ele>227.66666666666669</ele><time>2026-04-06T10:10:54Z</time></trkpt><trkpt lat="33.03217328093702" lon="9.744631732789735"><ele>227.33333333333334</ele><time>2026-04-06T10:10:55Z</time></trkpt><trkpt lat="33.032086686067245" lon="9.744385142747392"><ele>227.0</ele><time>2026-04-06T10:10:56Z</time></trkpt><trkpt lat="33.032000997809504" lon="9.744134079385047"><ele>227.0</ele><time>2026-04-06T10:10:57Z</time></trkpt><trkpt lat="33.031912148755225" lon="9.743882196553326"><ele>227.0</ele><time>2026-04-06T10:10:58Z</time></trkpt><trkpt lat="33.031823281945" lon="9.743628247307226"><ele>226.5</ele><time>2026-04-06T10:10:59Z</time></trkpt><trkpt lat="33.03173508088243" lon="9.74337584222497"><ele>226.0</ele><time>2026-04-06T10:11:00Z</time></trkpt><trkpt lat="33.031643727138885" lon="9.743119778902265"><ele>226.5</ele><time>2026-04-06T10:11:01Z</time></trkpt><trkpt lat="33.03154960531873" lon="9.742855355418815"><ele>227.0</ele><time>2026-04-06T10:11:02Z</time></trkpt><trkpt lat="33.03145966662636" lon="9.742586923280578"><ele>226.0</ele><time>2026-04-06T10:11:03Z</time></trkpt><trkpt lat="33.031372174453296" lon="9.742323325334176"><ele>225.0</ele><time>2026-04-06T10:11:04Z</time></trkpt><trkpt lat="33.03128146421958" lon="9.742063489980705"><ele>225.5</ele><time>2026-04-06T10:11:05Z</time></trkpt><trkpt lat="33.03118903179723" lon="9.741796235172089"><ele>226.0</ele><time>2026-04-06T10:11:06Z</time></trkpt><trkpt lat="33.03109944351285" lon="9.74153819925701"><ele>226.0</ele><time>2026-04-06T10:11:07Z</time></trkpt><trkpt lat="33.03100858957293" lon="9.741285969399739"><ele>226.0</ele><time>2026-04-06T10:11:08Z</time></trkpt><trkpt lat="33.03092106312995" lon="9.741023538280434"><ele>226.0</ele><time>2026-04-06T10:11:09Z</time></trkpt><trkpt lat="33.03083204134449" lon="9.740761682245681"><ele>226.0</ele><time>2026-04-06T10:11:10Z</time></trkpt><trkpt lat="33.030746897461995" lon="9.74050641092364"><ele>225.66666666666666</ele><time>2026-04-06T10:11:11Z</time></trkpt><trkpt lat="33.03066331925621" lon="9.74027124256367"><ele>225.33333333333331</ele><time>2026-04-06T10:11:12Z</time></trkpt><trkpt lat="33.03057744780197" lon="9.740040507470278"><ele>225.0</ele><time>2026-04-06T10:11:13Z</time></trkpt><trkpt lat="33.03049500565262" lon="9.739807167596254"><ele>225.0</ele><time>2026-04-06T10:11:14Z</time></trkpt><trkpt lat="33.030412566340836" lon="9.739574591649115"><ele>225.0</ele><time>2026-04-06T10:11:15Z</time></trkpt><trkpt lat="33.03032915349896" lon="9.73934115050049"><ele>225.0</ele><time>2026-04-06T10:11:16Z</time></trkpt><trkpt lat="33.030246743730984" lon="9.739112791425752"><ele>225.66666666666669</ele><time>2026-04-06T10:11:17Z</time></trkpt><trkpt lat="33.03016754933951" lon="9.738883856679093"><ele>226.33333333333334</ele><time>2026-04-06T10:11:18Z</time></trkpt><trkpt lat="33.03008992071371" lon="9.738660399729822"><ele>227.0</ele><time>2026-04-06T10:11:19Z</time></trkpt><trkpt lat="33.03001565193334" lon="9.738435062911204"><ele>226.66666666666669</ele><time>2026-04-06T10:11:20Z</time></trkpt><trkpt lat="33.029942164953425" lon="9.738214955670472"><ele>226.33333333333331</ele><time>2026-04-06T10:11:21Z</time></trkpt><trkpt lat="33.029865867850994" lon="9.737983872013599"><ele>226.0</ele><time>2026-04-06T10:11:22Z</time></trkpt><trkpt lat="33.02978585046532" lon="9.737746660126387"><ele>226.33333333333331</ele><time>2026-04-06T10:11:23Z</time></trkpt><trkpt lat="33.02970438101254" lon="9.737511002674598"><ele>226.66666666666669</ele><time>2026-04-06T10:11:24Z</time></trkpt><trkpt lat="33.0296197092804" lon="9.73726526824209"><ele>227.0</ele><time>2026-04-06T10:11:25Z</time></trkpt><trkpt lat="33.02953275330292" lon="9.737013326261264"><ele>226.5</ele><time>2026-04-06T10:11:26Z</time></trkpt><trkpt lat="33.02944526962968" lon="9.736761628244498"><ele>226.0</ele><time>2026-04-06T10:11:26.999Z</time></trkpt><trkpt lat="33.029357829436336" lon="9.736501456832737"><ele>226.0</ele><time>2026-04-06T10:11:27.999Z</time></trkpt><trkpt lat="33.02926625137316" lon="9.736239164135574"><ele>226.0</ele><time>2026-04-06T10:11:28.999Z</time></trkpt><trkpt lat="33.02917023540567" lon="9.735975138449797"><ele>225.5</ele><time>2026-04-06T10:11:29.999Z</time></trkpt><trkpt lat="33.02906973497403" lon="9.735707387500268"><ele>225.0</ele><time>2026-04-06T10:11:30.999Z</time></trkpt><trkpt lat="33.02896865319169" lon="9.735437892170244"><ele>224.0</ele><time>2026-04-06T10:11:31.999Z</time></trkpt><trkpt lat="33.02886437799409" lon="9.735166070696406"><ele>223.0</ele><time>2026-04-06T10:11:32.999Z</time></trkpt><trkpt lat="33.028748043093145" lon="9.73488727699496"><ele>223.0</ele><time>2026-04-06T10:11:33.999Z</time></trkpt><trkpt lat="33.028625146202174" lon="9.734607208140602"><ele>223.0</ele><time>2026-04-06T10:11:34.999Z</time></trkpt><trkpt lat="33.02850442357017" lon="9.734340730521467"><ele>224.5</ele><time>2026-04-06T10:11:35.999Z</time></trkpt><trkpt lat="33.02838477892827" lon="9.734083631604946"><ele>226.0</ele><time>2026-04-06T10:11:36.999Z</time></trkpt><trkpt lat="33.02826401656995" lon="9.73383304141234"><ele>226.0</ele><time>2026-04-06T10:11:37.999Z</time></trkpt><trkpt lat="33.02814374075293" lon="9.733584006423865"><ele>226.0</ele><time>2026-04-06T10:11:38.999Z</time></trkpt><trkpt lat="33.02801880880838" lon="9.733335836432076"><ele>225.5</ele><time>2026-04-06T10:11:39.999Z</time></trkpt><trkpt lat="33.027877201548854" lon="9.733078771519367"><ele>225.0</ele><time>2026-04-06T10:11:40.999Z</time></trkpt><trkpt lat="33.02772540143243" lon="9.732831212853092"><ele>224.0</ele><time>2026-04-06T10:11:41.999Z</time></trkpt><trkpt lat="33.02757527830364" lon="9.732590189878438"><ele>223.0</ele><time>2026-04-06T10:11:42.999Z</time></trkpt><trkpt lat="33.02742977925275" lon="9.732361861722413"><ele>222.5</ele><time>2026-04-06T10:11:43.999Z</time></trkpt><trkpt lat="33.027287951192434" lon="9.732143618907553"><ele>222.0</ele><time>2026-04-06T10:11:45Z</time></trkpt><trkpt lat="33.02715336289986" lon="9.731937355004462"><ele>222.0</ele><time>2026-04-06T10:11:46Z</time></trkpt><trkpt lat="33.02701252522512" lon="9.731723371857592"><ele>222.0</ele><time>2026-04-06T10:11:47Z</time></trkpt><trkpt lat="33.02686835488299" lon="9.731513680158443"><ele>222.0</ele><time>2026-04-06T10:11:48Z</time></trkpt><trkpt lat="33.026720040680004" lon="9.731307090585974"><ele>222.0</ele><time>2026-04-06T10:11:49Z</time></trkpt><trkpt lat="33.02656293469223" lon="9.731091843258548"><ele>221.5</ele><time>2026-04-06T10:11:50Z</time></trkpt><trkpt lat="33.02639376416353" lon="9.730864144638433"><ele>221.0</ele><time>2026-04-06T10:11:51Z</time></trkpt><trkpt lat="33.02622182415466" lon="9.730626793517704"><ele>221.0</ele><time>2026-04-06T10:11:52Z</time></trkpt><trkpt lat="33.02604197016591" lon="9.730381070693747"><ele>221.0</ele><time>2026-04-06T10:11:53Z</time></trkpt><trkpt lat="33.025853532607684" lon="9.730131069992941"><ele>221.0</ele><time>2026-04-06T10:11:54Z</time></trkpt><trkpt lat="33.025658871660255" lon="9.729867000718265"><ele>221.0</ele><time>2026-04-06T10:11:55Z</time></trkpt><trkpt lat="33.0254644481844" lon="9.729597193498691"><ele>220.5</ele><time>2026-04-06T10:11:56Z</time></trkpt><trkpt lat="33.025269866922294" lon="9.729320754048974"><ele>220.0</ele><time>2026-04-06T10:11:57Z</time></trkpt><trkpt lat="33.02507274830546" lon="9.729041691640761"><ele>220.5</ele><time>2026-04-06T10:11:58Z</time></trkpt><trkpt lat="33.02486821716306" lon="9.728751460778609"><ele>221.0</ele><time>2026-04-06T10:11:59Z</time></trkpt><trkpt lat="33.02465306081257" lon="9.728448350285456"><ele>220.0</ele><time>2026-04-06T10:12:00Z</time></trkpt><trkpt lat="33.024443783605854" lon="9.72815332820884"><ele>219.0</ele><time>2026-04-06T10:12:01Z</time></trkpt><trkpt lat="33.024231901872966" lon="9.72785012838253"><ele>219.0</ele><time>2026-04-06T10:12:02Z</time></trkpt><trkpt lat="33.02401883976256" lon="9.727545402233021"><ele>219.0</ele><time>2026-04-06T10:12:03Z</time></trkpt><trkpt lat="33.02382830464029" lon="9.727267584760334"><ele>219.0</ele><time>2026-04-06T10:12:04Z</time></trkpt><trkpt lat="33.02366042674378" lon="9.727020527025168"><ele>219.0</ele><time>2026-04-06T10:12:05Z</time></trkpt><trkpt lat="33.02350456146236" lon="9.72680151620975"><ele>219.5</ele><time>2026-04-06T10:12:06Z</time></trkpt><trkpt lat="33.023356653024635" lon="9.726592025484726"><ele>220.0</ele><time>2026-04-06T10:12:07Z</time></trkpt><trkpt lat="33.023206408661586" lon="9.726384938441882"><ele>221.0</ele><time>2026-04-06T10:12:08Z</time></trkpt><trkpt lat="33.02305647039173" lon="9.726169833684647"><ele>222.0</ele><time>2026-04-06T10:12:09Z</time></trkpt><trkpt lat="33.02291203974216" lon="9.72595785631826"><ele>222.0</ele><time>2026-04-06T10:12:10Z</time></trkpt><trkpt lat="33.02276328051953" lon="9.725745930148278"><ele>222.0</ele><time>2026-04-06T10:12:11Z</time></trkpt><trkpt lat="33.02260932971304" lon="9.725531332548677"><ele>222.0</ele><time>2026-04-06T10:12:12Z</time></trkpt><trkpt lat="33.02245520389837" lon="9.725312891849212"><ele>222.0</ele><time>2026-04-06T10:12:13Z</time></trkpt><trkpt lat="33.02230211104758" lon="9.725100486127966"><ele>222.0</ele><time>2026-04-06T10:12:14Z</time></trkpt><trkpt lat="33.022149033491026" lon="9.724875910915706"><ele>222.0</ele><time>2026-04-06T10:12:15Z</time></trkpt><trkpt lat="33.02200035050358" lon="9.724664207730639"><ele>222.0</ele><time>2026-04-06T10:12:16Z</time></trkpt><trkpt lat="33.02185239715119" lon="9.724455220601312"><ele>222.0</ele><time>2026-04-06T10:12:17Z</time></trkpt><trkpt lat="33.021711324222174" lon="9.724249753975583"><ele>222.66666666666669</ele><time>2026-04-06T10:12:18Z</time></trkpt><trkpt lat="33.02157029427768" lon="9.724052955082394"><ele>223.33333333333334</ele><time>2026-04-06T10:12:19Z</time></trkpt><trkpt lat="33.02143416997761" lon="9.723858355541008"><ele>224.0</ele><time>2026-04-06T10:12:20Z</time></trkpt><trkpt lat="33.02130168311281" lon="9.72366816015369"><ele>223.33333333333334</ele><time>2026-04-06T10:12:21Z</time></trkpt><trkpt lat="33.02116501339885" lon="9.723472983398489"><ele>222.66666666666669</ele><time>2026-04-06T10:12:22Z</time></trkpt><trkpt lat="33.02102970288794" lon="9.723277227900637"><ele>222.0</ele><time>2026-04-06T10:12:23Z</time></trkpt><trkpt lat="33.02088661514563" lon="9.723077460484813"><ele>222.33333333333331</ele><time>2026-04-06T10:12:24Z</time></trkpt><trkpt lat="33.020745121177036" lon="9.722877822175015"><ele>222.66666666666666</ele><time>2026-04-06T10:12:25Z</time></trkpt><trkpt lat="33.02060206700926" lon="9.722677433164225"><ele>223.0</ele><time>2026-04-06T10:12:26Z</time></trkpt><trkpt lat="33.02046142132971" lon="9.722475690062899"><ele>223.0</ele><time>2026-04-06T10:12:27Z</time></trkpt><trkpt lat="33.02031614939377" lon="9.722272256157549"><ele>223.0</ele><time>2026-04-06T10:12:28Z</time></trkpt><trkpt lat="33.02016376233881" lon="9.722061601596018"><ele>222.5</ele><time>2026-04-06T10:12:29Z</time></trkpt><trkpt lat="33.02000779608644" lon="9.72184616119384"><ele>222.0</ele><time>2026-04-06T10:12:30Z</time></trkpt><trkpt lat="33.01984662523366" lon="9.721625394822606"><ele>223.0</ele><time>2026-04-06T10:12:31Z</time></trkpt><trkpt lat="33.019687235606185" lon="9.721399414610115"><ele>224.0</ele><time>2026-04-06T10:12:32Z</time></trkpt><trkpt lat="33.01952820118838" lon="9.721176934485582"><ele>224.0</ele><time>2026-04-06T10:12:33Z</time></trkpt><trkpt lat="33.01937496922446" lon="9.720955231124309"><ele>224.0</ele><time>2026-04-06T10:12:34Z</time></trkpt><trkpt lat="33.01921796377638" lon="9.720731140256783"><ele>224.5</ele><time>2026-04-06T10:12:35Z</time></trkpt><trkpt lat="33.01906308142349" lon="9.720508705702965"><ele>225.0</ele><time>2026-04-06T10:12:36Z</time></trkpt><trkpt lat="33.01890636818809" lon="9.720290088243974"><ele>225.0</ele><time>2026-04-06T10:12:37Z</time></trkpt><trkpt lat="33.01875490305973" lon="9.720077314322982"><ele>225.0</ele><time>2026-04-06T10:12:38Z</time></trkpt><trkpt lat="33.018602774881906" lon="9.719859691236287"><ele>225.0</ele><time>2026-04-06T10:12:39Z</time></trkpt><trkpt lat="33.018452240697926" lon="9.71964558914752"><ele>225.0</ele><time>2026-04-06T10:12:40Z</time></trkpt><trkpt lat="33.01830472823067" lon="9.7194335142155"><ele>225.5</ele><time>2026-04-06T10:12:41Z</time></trkpt><trkpt lat="33.018158429864684" lon="9.719225393659386"><ele>226.0</ele><time>2026-04-06T10:12:42Z</time></trkpt><trkpt lat="33.01800116524091" lon="9.71901129825944"><ele>226.0</ele><time>2026-04-06T10:12:43Z</time></trkpt><trkpt lat="33.017850834640875" lon="9.718797251263236"><ele>226.0</ele><time>2026-04-06T10:12:44Z</time></trkpt><trkpt lat="33.017696443071856" lon="9.71857341253041"><ele>226.0</ele><time>2026-04-06T10:12:45Z</time></trkpt><trkpt lat="33.01755328154031" lon="9.718363000345127"><ele>226.0</ele><time>2026-04-06T10:12:46Z</time></trkpt><trkpt lat="33.01741939071843" lon="9.718179448983758"><ele>226.0</ele><time>2026-04-06T10:12:47Z</time></trkpt><trkpt lat="33.01729483340615" lon="9.718000655626096"><ele>226.0</ele><time>2026-04-06T10:12:48Z</time></trkpt><trkpt lat="33.01718176362435" lon="9.717834347485505"><ele>226.0</ele><time>2026-04-06T10:12:49Z</time></trkpt><trkpt lat="33.01706047870945" lon="9.717661127702272"><ele>226.0</ele><time>2026-04-06T10:12:50Z</time></trkpt><trkpt lat="33.01693464462915" lon="9.717483023553552"><ele>226.33333333333331</ele><time>2026-04-06T10:12:51Z</time></trkpt><trkpt lat="33.01680003163087" lon="9.717297275395127"><ele>226.66666666666669</ele><time>2026-04-06T10:12:52Z</time></trkpt><trkpt lat="33.01665793229672" lon="9.717102588234638"><ele>227.0</ele><time>2026-04-06T10:12:53Z</time></trkpt><trkpt lat="33.016508801834824" lon="9.71689816736905"><ele>224.5</ele><time>2026-04-06T10:12:54Z</time></trkpt><trkpt lat="33.0163560007561" lon="9.716682466556978"><ele>222.0</ele><time>2026-04-06T10:12:55Z</time></trkpt><trkpt lat="33.016197189500375" lon="9.716450140273112"><ele>222.0</ele><time>2026-04-06T10:12:56Z</time></trkpt><trkpt lat="33.016037822641465" lon="9.716220389406587"><ele>222.0</ele><time>2026-04-06T10:12:57Z</time></trkpt><trkpt lat="33.01587045222406" lon="9.715989151952998"><ele>220.0</ele><time>2026-04-06T10:12:58Z</time></trkpt><trkpt lat="33.01570398699402" lon="9.715763022236464"><ele>218.0</ele><time>2026-04-06T10:12:59Z</time></trkpt><trkpt lat="33.015541283797454" lon="9.715535039243047"><ele>218.0</ele><time>2026-04-06T10:13:00Z</time></trkpt><trkpt lat="33.01538065712556" lon="9.715309261802714"><ele>218.0</ele><time>2026-04-06T10:13:01Z</time></trkpt><trkpt lat="33.01521896606597" lon="9.715084573515465"><ele>218.0</ele><time>2026-04-06T10:13:02Z</time></trkpt><trkpt lat="33.01506004115722" lon="9.714862737555942"><ele>218.0</ele><time>2026-04-06T10:13:03Z</time></trkpt><trkpt lat="33.01490601028429" lon="9.714643243523248"><ele>217.0</ele><time>2026-04-06T10:13:04Z</time></trkpt><trkpt lat="33.014755423491586" lon="9.714422411125819"><ele>216.0</ele><time>2026-04-06T10:13:05Z</time></trkpt><trkpt lat="33.01460448902283" lon="9.714203672322212"><ele>216.0</ele><time>2026-04-06T10:13:06Z</time></trkpt><trkpt lat="33.014456759424164" lon="9.713994636101148"><ele>216.0</ele><time>2026-04-06T10:13:07Z</time></trkpt><trkpt lat="33.01430937714579" lon="9.713791771781738"><ele>216.0</ele><time>2026-04-06T10:13:08Z</time></trkpt><trkpt lat="33.01415400002562" lon="9.713580462247185"><ele>216.0</ele><time>2026-04-06T10:13:09Z</time></trkpt><trkpt lat="33.01400088794906" lon="9.71336126440557"><ele>216.5</ele><time>2026-04-06T10:13:10Z</time></trkpt><trkpt lat="33.013843761574506" lon="9.713142445640132"><ele>217.0</ele><time>2026-04-06T10:13:11Z</time></trkpt><trkpt lat="33.01368340884471" lon="9.71291349573675"><ele>216.5</ele><time>2026-04-06T10:13:12Z</time></trkpt><trkpt lat="33.01352675539087" lon="9.712685167350534"><ele>216.0</ele><time>2026-04-06T10:13:13Z</time></trkpt><trkpt lat="33.01337072874536" lon="9.712459357152158"><ele>216.5</ele><time>2026-04-06T10:13:13.999Z</time></trkpt><trkpt lat="33.01321460162464" lon="9.712237474506145"><ele>217.0</ele><time>2026-04-06T10:13:14.999Z</time></trkpt><trkpt lat="33.013056640016025" lon="9.712018943090113"><ele>216.5</ele><time>2026-04-06T10:13:15.999Z</time></trkpt><trkpt lat="33.01290358325576" lon="9.71180035010388"><ele>216.0</ele><time>2026-04-06T10:13:16.999Z</time></trkpt><trkpt lat="33.01275048664994" lon="9.711586188856552"><ele>216.0</ele><time>2026-04-06T10:13:17.999Z</time></trkpt><trkpt lat="33.012600004103085" lon="9.71137345453505"><ele>216.0</ele><time>2026-04-06T10:13:18.999Z</time></trkpt><trkpt lat="33.012451216782" lon="9.711168473215166"><ele>216.5</ele><time>2026-04-06T10:13:19.999Z</time></trkpt><trkpt lat="33.01230320229483" lon="9.710957450709957"><ele>217.0</ele><time>2026-04-06T10:13:20.999Z</time></trkpt><trkpt lat="33.0121532793096" lon="9.71074337060635"><ele>217.0</ele><time>2026-04-06T10:13:21.999Z</time></trkpt><trkpt lat="33.01199948720975" lon="9.710519178649994"><ele>217.0</ele><time>2026-04-06T10:13:22.999Z</time></trkpt><trkpt lat="33.01183985316761" lon="9.710297180481925"><ele>217.5</ele><time>2026-04-06T10:13:23.999Z</time></trkpt><trkpt lat="33.011674769813986" lon="9.71006502855273"><ele>218.0</ele><time>2026-04-06T10:13:24.999Z</time></trkpt><trkpt lat="33.01150997282818" lon="9.709833005084157"><ele>218.0</ele><time>2026-04-06T10:13:25.999Z</time></trkpt><trkpt lat="33.01135067921204" lon="9.70960996860353"><ele>218.0</ele><time>2026-04-06T10:13:26.999Z</time></trkpt><trkpt lat="33.011194823701366" lon="9.709391926085003"><ele>217.0</ele><time>2026-04-06T10:13:27.999Z</time></trkpt><trkpt lat="33.01103698454031" lon="9.709170219368703"><ele>216.0</ele><time>2026-04-06T10:13:28.999Z</time></trkpt><trkpt lat="33.01087808548791" lon="9.708943899531047"><ele>215.5</ele><time>2026-04-06T10:13:29.999Z</time></trkpt><trkpt lat="33.01071565317072" lon="9.708712994584639"><ele>215.0</ele><time>2026-04-06T10:13:30.999Z</time></trkpt><trkpt lat="33.01055753889786" lon="9.708487597019436"><ele>214.0</ele><time>2026-04-06T10:13:31.999Z</time></trkpt><trkpt lat="33.01039968967799" lon="9.70826247830178"><ele>213.0</ele><time>2026-04-06T10:13:32.999Z</time></trkpt><trkpt lat="33.010236933044055" lon="9.708037672800828"><ele>213.0</ele><time>2026-04-06T10:13:33.999Z</time></trkpt><trkpt lat="33.0100744948675" lon="9.707813744947867"><ele>213.0</ele><time>2026-04-06T10:13:34.999Z</time></trkpt><trkpt lat="33.00991198253143" lon="9.707587621267136"><ele>213.0</ele><time>2026-04-06T10:13:35.999Z</time></trkpt><trkpt lat="33.00975237203348" lon="9.70735787835906"><ele>213.0</ele><time>2026-04-06T10:13:36.999Z</time></trkpt><trkpt lat="33.00959574151186" lon="9.707129860166276"><ele>213.5</ele><time>2026-04-06T10:13:37.999Z</time></trkpt><trkpt lat="33.00943152328149" lon="9.706894630503513"><ele>214.0</ele><time>2026-04-06T10:13:38.999Z</time></trkpt><trkpt lat="33.009265469965676" lon="9.706665200721543"><ele>214.0</ele><time>2026-04-06T10:13:39.999Z</time></trkpt><trkpt lat="33.00910179318699" lon="9.70643711542974"><ele>214.0</ele><time>2026-04-06T10:13:40.999Z</time></trkpt><trkpt lat="33.008936529529954" lon="9.706201564192108"><ele>214.0</ele><time>2026-04-06T10:13:41.999Z</time></trkpt><trkpt lat="33.00877276109303" lon="9.70596881935228"><ele>214.0</ele><time>2026-04-06T10:13:42.999Z</time></trkpt><trkpt lat="33.00861193287904" lon="9.705737740521004"><ele>214.0</ele><time>2026-04-06T10:13:43.999Z</time></trkpt><trkpt lat="33.00844963167892" lon="9.705506351785123"><ele>214.0</ele><time>2026-04-06T10:13:44.999Z</time></trkpt><trkpt lat="33.00829053718301" lon="9.705283202803619"><ele>213.5</ele><time>2026-04-06T10:13:45.999Z</time></trkpt><trkpt lat="33.008126550362206" lon="9.705053876889814"><ele>213.0</ele><time>2026-04-06T10:13:46.999Z</time></trkpt><trkpt lat="33.00796202155224" lon="9.704822705185771"><ele>213.0</ele><time>2026-04-06T10:13:47.999Z</time></trkpt><trkpt lat="33.007796807375655" lon="9.704593606693155"><ele>213.0</ele><time>2026-04-06T10:13:48.999Z</time></trkpt><trkpt lat="33.00763342702491" lon="9.704364082554957"><ele>213.0</ele><time>2026-04-06T10:13:50Z</time></trkpt><trkpt lat="33.0074745567226" lon="9.704135715928125"><ele>213.0</ele><time>2026-04-06T10:13:51Z</time></trkpt><trkpt lat="33.00731940867989" lon="9.703913393218588"><ele>213.0</ele><time>2026-04-06T10:13:52Z</time></trkpt><trkpt lat="33.007165012861456" lon="9.703692741309096"><ele>213.0</ele><time>2026-04-06T10:13:53Z</time></trkpt><trkpt lat="33.007014373249696" lon="9.703482759052473"><ele>214.5</ele><time>2026-04-06T10:13:54Z</time></trkpt><trkpt lat="33.00685610761171" lon="9.703259045086636"><ele>216.0</ele><time>2026-04-06T10:13:55Z</time></trkpt><trkpt lat="33.00669900849795" lon="9.703034700854612"><ele>215.5</ele><time>2026-04-06T10:13:56Z</time></trkpt><trkpt lat="33.006543931989796" lon="9.70281147061968"><ele>215.0</ele><time>2026-04-06T10:13:57Z</time></trkpt><trkpt lat="33.00638697579378" lon="9.70258686629386"><ele>214.5</ele><time>2026-04-06T10:13:58Z</time></trkpt><trkpt lat="33.00622718567412" lon="9.702368995795254"><ele>214.0</ele><time>2026-04-06T10:13:59Z</time></trkpt><trkpt lat="33.00606765854083" lon="9.702140974955851"><ele>213.5</ele><time>2026-04-06T10:14:00Z</time></trkpt><trkpt lat="33.005909564809954" lon="9.701909551206407"><ele>213.0</ele><time>2026-04-06T10:14:01Z</time></trkpt><trkpt lat="33.00575272745024" lon="9.701676671467146"><ele>213.0</ele><time>2026-04-06T10:14:02Z</time></trkpt><trkpt lat="33.00559431843937" lon="9.701449017764622"><ele>213.0</ele><time>2026-04-06T10:14:03Z</time></trkpt><trkpt lat="33.00543795599121" lon="9.701221136392899"><ele>213.5</ele><time>2026-04-06T10:14:04Z</time></trkpt><trkpt lat="33.005281084277776" lon="9.700999049959334"><ele>214.0</ele><time>2026-04-06T10:14:05Z</time></trkpt><trkpt lat="33.00512351980368" lon="9.700779265932367"><ele>214.0</ele><time>2026-04-06T10:14:06Z</time></trkpt><trkpt lat="33.00496575671092" lon="9.700550939947004"><ele>214.0</ele><time>2026-04-06T10:14:07Z</time></trkpt><trkpt lat="33.0048005310134" lon="9.700328589411962"><ele>214.5</ele><time>2026-04-06T10:14:08Z</time></trkpt><trkpt lat="33.00463651833178" lon="9.700109054563983"><ele>215.0</ele><time>2026-04-06T10:14:09Z</time></trkpt><trkpt lat="33.004472811624304" lon="9.699880539989632"><ele>215.0</ele><time>2026-04-06T10:14:10Z</time></trkpt><trkpt lat="33.004307058966475" lon="9.6996478220396"><ele>215.0</ele><time>2026-04-06T10:14:11Z</time></trkpt><trkpt lat="33.004140263560295" lon="9.699410219253892"><ele>215.0</ele><time>2026-04-06T10:14:12Z</time></trkpt><trkpt lat="33.003977458864355" lon="9.699177302643024"><ele>215.0</ele><time>2026-04-06T10:14:13Z</time></trkpt><trkpt lat="33.00380644026304" lon="9.698931061531313"><ele>215.0</ele><time>2026-04-06T10:14:14Z</time></trkpt><trkpt lat="33.003632744487696" lon="9.698688001334997"><ele>215.0</ele><time>2026-04-06T10:14:15Z</time></trkpt><trkpt lat="33.00345996980372" lon="9.698448236511098"><ele>214.0</ele><time>2026-04-06T10:14:16Z</time></trkpt><trkpt lat="33.00328875430458" lon="9.698209671858432"><ele>213.0</ele><time>2026-04-06T10:14:17Z</time></trkpt><trkpt lat="33.003121576378064" lon="9.697970959845396"><ele>214.0</ele><time>2026-04-06T10:14:18Z</time></trkpt><trkpt lat="33.00295649268576" lon="9.697729690934846"><ele>215.0</ele><time>2026-04-06T10:14:19Z</time></trkpt><trkpt lat="33.00279738550196" lon="9.697483099264566"><ele>215.0</ele><time>2026-04-06T10:14:20Z</time></trkpt><trkpt lat="33.00264873291536" lon="9.697237801242826"><ele>215.0</ele><time>2026-04-06T10:14:21Z</time></trkpt><trkpt lat="33.00250561589628" lon="9.6969901298146"><ele>217.5</ele><time>2026-04-06T10:14:22Z</time></trkpt><trkpt lat="33.00236915914201" lon="9.696748000436408"><ele>220.0</ele><time>2026-04-06T10:14:23Z</time></trkpt><trkpt lat="33.002238135011766" lon="9.69650503540877"><ele>220.0</ele><time>2026-04-06T10:14:24Z</time></trkpt><trkpt lat="33.00211655064158" lon="9.696266765243095"><ele>220.0</ele><time>2026-04-06T10:14:25Z</time></trkpt><trkpt lat="33.00199031726542" lon="9.696006188876689"><ele>221.0</ele><time>2026-04-06T10:14:26Z</time></trkpt><trkpt lat="33.0018700509748" lon="9.695748632081763"><ele>222.0</ele><time>2026-04-06T10:14:27Z</time></trkpt><trkpt lat="33.00175234479475" lon="9.695496787550848"><ele>222.0</ele><time>2026-04-06T10:14:28Z</time></trkpt><trkpt lat="33.00163688522431" lon="9.695242349301687"><ele>222.0</ele><time>2026-04-06T10:14:29Z</time></trkpt><trkpt lat="33.001527599315395" lon="9.69498186254922"><ele>222.0</ele><time>2026-04-06T10:14:30Z</time></trkpt><trkpt lat="33.00141888846644" lon="9.694719349518696"><ele>222.0</ele><time>2026-04-06T10:14:31Z</time></trkpt><trkpt lat="33.00130817890761" lon="9.69444182974738"><ele>222.0</ele><time>2026-04-06T10:14:32Z</time></trkpt><trkpt lat="33.00120327928561" lon="9.694158926537165"><ele>222.0</ele><time>2026-04-06T10:14:33Z</time></trkpt><trkpt lat="33.001101820468904" lon="9.693871980247168"><ele>222.0</ele><time>2026-04-06T10:14:34Z</time></trkpt><trkpt lat="33.00100422688993" lon="9.693574650327223"><ele>222.0</ele><time>2026-04-06T10:14:35Z</time></trkpt><trkpt lat="33.00091359954464" lon="9.693281666042468"><ele>222.5</ele><time>2026-04-06T10:14:36Z</time></trkpt><trkpt lat="33.000830421267246" lon="9.692979246814478"><ele>223.0</ele><time>2026-04-06T10:14:37Z</time></trkpt><trkpt lat="33.00075215187339" lon="9.692670975831305"><ele>223.5</ele><time>2026-04-06T10:14:38Z</time></trkpt><trkpt lat="33.00067634565319" lon="9.692363710960672"><ele>224.0</ele><time>2026-04-06T10:14:39Z</time></trkpt><trkpt lat="33.000600200489" lon="9.69205647424613"><ele>223.0</ele><time>2026-04-06T10:14:40Z</time></trkpt><trkpt lat="33.000531691392865" lon="9.691744232405489"><ele>222.0</ele><time>2026-04-06T10:14:41Z</time></trkpt><trkpt lat="33.000467993554615" lon="9.691428389042956"><ele>222.0</ele><time>2026-04-06T10:14:42Z</time></trkpt><trkpt lat="33.00040830534961" lon="9.691120650975758"><ele>222.0</ele><time>2026-04-06T10:14:43Z</time></trkpt><trkpt lat="33.0003484134059" lon="9.690816810625893"><ele>222.0</ele><time>2026-04-06T10:14:44Z</time></trkpt><trkpt lat="33.000288831589806" lon="9.690520236365398"><ele>222.0</ele><time>2026-04-06T10:14:45Z</time></trkpt><trkpt lat="33.00023663972743" lon="9.69023668150081"><ele>222.5</ele><time>2026-04-06T10:14:46Z</time></trkpt><trkpt lat="33.00017585917468" lon="9.689951837017434"><ele>223.0</ele><time>2026-04-06T10:14:47Z</time></trkpt><trkpt lat="33.00011699747498" lon="9.68966363035783"><ele>223.0</ele><time>2026-04-06T10:14:48Z</time></trkpt><trkpt lat="33.000056106039764" lon="9.689375419641008"><ele>223.0</ele><time>2026-04-06T10:14:49Z</time></trkpt><trkpt lat="32.999998072522985" lon="9.68908991903579"><ele>223.0</ele><time>2026-04-06T10:14:50Z</time></trkpt><trkpt lat="32.99993914519201" lon="9.688801328627447"><ele>223.0</ele><time>2026-04-06T10:14:51Z</time></trkpt><trkpt lat="32.999884976259395" lon="9.688515979599531"><ele>224.0</ele><time>2026-04-06T10:14:52Z</time></trkpt><trkpt lat="32.99983502832027" lon="9.68824545863363"><ele>225.0</ele><time>2026-04-06T10:14:53Z</time></trkpt><trkpt lat="32.99978365513072" lon="9.687991880105324"><ele>224.66666666666669</ele><time>2026-04-06T10:14:54Z</time></trkpt><trkpt lat="32.999732206711634" lon="9.68774297728294"><ele>224.33333333333334</ele><time>2026-04-06T10:14:55Z</time></trkpt><trkpt lat="32.999691532982546" lon="9.687501433633324"><ele>224.0</ele><time>2026-04-06T10:14:56Z</time></trkpt><trkpt lat="32.99963581833274" lon="9.687241073659319"><ele>224.0</ele><time>2026-04-06T10:14:57Z</time></trkpt><trkpt lat="32.9995776552322" lon="9.68697016064903"><ele>224.0</ele><time>2026-04-06T10:14:58Z</time></trkpt><trkpt lat="32.99952124440812" lon="9.686691770128535"><ele>223.0</ele><time>2026-04-06T10:14:59Z</time></trkpt><trkpt lat="32.99945993565975" lon="9.686406871306739"><ele>222.0</ele><time>2026-04-06T10:15:00Z</time></trkpt><trkpt lat="32.99940635891842" lon="9.68613407857484"><ele>222.5</ele><time>2026-04-06T10:15:01Z</time></trkpt><trkpt lat="32.99935613859712" lon="9.685868480984935"><ele>223.0</ele><time>2026-04-06T10:15:02Z</time></trkpt><trkpt lat="32.999305488276086" lon="9.685604960465923"><ele>223.0</ele><time>2026-04-06T10:15:02.999Z</time></trkpt><trkpt lat="32.99925362430891" lon="9.685335941802425"><ele>223.0</ele><time>2026-04-06T10:15:03.999Z</time></trkpt><trkpt lat="32.99919567700724" lon="9.685060610626712"><ele>223.0</ele><time>2026-04-06T10:15:04.999Z</time></trkpt><trkpt lat="32.99913767765452" lon="9.68478428539446"><ele>223.0</ele><time>2026-04-06T10:15:05.999Z</time></trkpt><trkpt lat="32.999082603001916" lon="9.684504674654425"><ele>223.0</ele><time>2026-04-06T10:15:06.999Z</time></trkpt><trkpt lat="32.99902351986632" lon="9.684219603041091"><ele>223.0</ele><time>2026-04-06T10:15:07.999Z</time></trkpt><trkpt lat="32.99896576609204" lon="9.68393485635104"><ele>223.0</ele><time>2026-04-06T10:15:08.999Z</time></trkpt><trkpt lat="32.99890879288885" lon="9.683646279696644"><ele>223.0</ele><time>2026-04-06T10:15:09.999Z</time></trkpt><trkpt lat="32.99885348411737" lon="9.683360812080481"><ele>223.5</ele><time>2026-04-06T10:15:10.999Z</time></trkpt><trkpt lat="32.998798227276126" lon="9.683082840567577"><ele>224.0</ele><time>2026-04-06T10:15:11.999Z</time></trkpt><trkpt lat="32.998739374371326" lon="9.682796896296841"><ele>223.5</ele><time>2026-04-06T10:15:12.999Z</time></trkpt><trkpt lat="32.99867700490036" lon="9.682505284470736"><ele>223.0</ele><time>2026-04-06T10:15:13.999Z</time></trkpt><trkpt lat="32.99861913318137" lon="9.682213911883085"><ele>222.5</ele><time>2026-04-06T10:15:14.999Z</time></trkpt><trkpt lat="32.99856571323664" lon="9.681926344521969"><ele>222.0</ele><time>2026-04-06T10:15:15.999Z</time></trkpt><trkpt lat="32.99850745364463" lon="9.681634908043975"><ele>222.0</ele><time>2026-04-06T10:15:16.999Z</time></trkpt><trkpt lat="32.998449236185785" lon="9.681344333453914"><ele>222.0</ele><time>2026-04-06T10:15:17.999Z</time></trkpt><trkpt lat="32.99839285552061" lon="9.681068839397627"><ele>222.0</ele><time>2026-04-06T10:15:18.999Z</time></trkpt><trkpt lat="32.99833538784108" lon="9.680796480119632"><ele>222.0</ele><time>2026-04-06T10:15:19.999Z</time></trkpt><trkpt lat="32.998275910695845" lon="9.680514074911027"><ele>222.0</ele><time>2026-04-06T10:15:20.999Z</time></trkpt><trkpt lat="32.99822314359887" lon="9.680243639116869"><ele>222.0</ele><time>2026-04-06T10:15:21.999Z</time></trkpt><trkpt lat="32.99816868282584" lon="9.679979551977304"><ele>222.0</ele><time>2026-04-06T10:15:22.999Z</time></trkpt><trkpt lat="32.99810833739481" lon="9.679713927784524"><ele>222.0</ele><time>2026-04-06T10:15:23.999Z</time></trkpt><trkpt lat="32.99804197302799" lon="9.679445427818075"><ele>221.5</ele><time>2026-04-06T10:15:24.999Z</time></trkpt><trkpt lat="32.99797647398344" lon="9.679190135624982"><ele>221.0</ele><time>2026-04-06T10:15:25.999Z</time></trkpt><trkpt lat="32.997904868130696" lon="9.678928577240177"><ele>221.0</ele><time>2026-04-06T10:15:26.999Z</time></trkpt><trkpt lat="32.997828086424796" lon="9.678667600305904"><ele>221.0</ele><time>2026-04-06T10:15:27.999Z</time></trkpt><trkpt lat="32.997751465840395" lon="9.678403849773323"><ele>221.0</ele><time>2026-04-06T10:15:28.999Z</time></trkpt><trkpt lat="32.997675363188556" lon="9.678142131849388"><ele>221.0</ele><time>2026-04-06T10:15:29.999Z</time></trkpt><trkpt lat="32.99760002860923" lon="9.677885533646455"><ele>221.0</ele><time>2026-04-06T10:15:30.999Z</time></trkpt><trkpt lat="32.997519262832" lon="9.677632798433741"><ele>221.0</ele><time>2026-04-06T10:15:31.999Z</time></trkpt><trkpt lat="32.99743474491035" lon="9.677387517924094"><ele>221.0</ele><time>2026-04-06T10:15:32.999Z</time></trkpt><trkpt lat="32.99734888370763" lon="9.677150308737358"><ele>221.0</ele><time>2026-04-06T10:15:33.999Z</time></trkpt><trkpt lat="32.997262788191314" lon="9.676917451141628"><ele>221.0</ele><time>2026-04-06T10:15:34.999Z</time></trkpt><trkpt lat="32.99717677834665" lon="9.676687522988248"><ele>221.0</ele><time>2026-04-06T10:15:35.999Z</time></trkpt><trkpt lat="32.99708679892267" lon="9.676449188016301"><ele>221.0</ele><time>2026-04-06T10:15:36.999Z</time></trkpt><trkpt lat="32.996995154303995" lon="9.676219700746026"><ele>221.0</ele><time>2026-04-06T10:15:37.999Z</time></trkpt><trkpt lat="32.99689646548625" lon="9.675981483719864"><ele>221.0</ele><time>2026-04-06T10:15:38.999Z</time></trkpt><trkpt lat="32.99679518835249" lon="9.675747990551335"><ele>217.0</ele><time>2026-04-06T10:15:39.999Z</time></trkpt><trkpt lat="32.99657893866921" lon="9.675265104563595"><ele>217.0</ele><time>2026-04-06T10:15:41.999Z</time></trkpt><trkpt lat="32.99646716211069" lon="9.675017221564252"><ele>217.0</ele><time>2026-04-06T10:15:42.999Z</time></trkpt><trkpt lat="32.996355827124304" lon="9.674769246971952"><ele>217.0</ele><time>2026-04-06T10:15:43.999Z</time></trkpt><trkpt lat="32.996240588996315" lon="9.67452285688725"><ele>217.0</ele><time>2026-04-06T10:15:44.999Z</time></trkpt><trkpt lat="32.99612482055824" lon="9.674281871095188"><ele>217.33333333333331</ele><time>2026-04-06T10:15:45.999Z</time></trkpt><trkpt lat="32.99601085912631" lon="9.674040158236332"><ele>217.66666666666669</ele><time>2026-04-06T10:15:46.999Z</time></trkpt><trkpt lat="32.99590816709428" lon="9.673822978158231"><ele>218.0</ele><time>2026-04-06T10:15:47.999Z</time></trkpt><trkpt lat="32.99580053401274" lon="9.67359975847506"><ele>218.0</ele><time>2026-04-06T10:15:48.999Z</time></trkpt><trkpt lat="32.99570071448957" lon="9.673389257287386"><ele>218.0</ele><time>2026-04-06T10:15:49.999Z</time></trkpt><trkpt lat="32.99559930707832" lon="9.673171999970494"><ele>218.0</ele><time>2026-04-06T10:15:50.999Z</time></trkpt><trkpt lat="32.99550045935126" lon="9.672954938293737"><ele>218.0</ele><time>2026-04-06T10:15:51.999Z</time></trkpt><trkpt lat="32.99540265580212" lon="9.672734134603527"><ele>218.0</ele><time>2026-04-06T10:15:52.999Z</time></trkpt><trkpt lat="32.99530225786292" lon="9.672511616050809"><ele>218.0</ele><time>2026-04-06T10:15:53.999Z</time></trkpt><trkpt lat="32.99520108670295" lon="9.672297810695706"><ele>218.0</ele><time>2026-04-06T10:15:55Z</time></trkpt><trkpt lat="32.99509277529744" lon="9.672070897594034"><ele>218.0</ele><time>2026-04-06T10:15:56Z</time></trkpt><trkpt lat="32.994987799211664" lon="9.671850624340951"><ele>218.0</ele><time>2026-04-06T10:15:57Z</time></trkpt><trkpt lat="32.99487156755025" lon="9.671612174236236"><ele>217.0</ele><time>2026-04-06T10:15:58Z</time></trkpt><trkpt lat="32.99475947826295" lon="9.671376769982945"><ele>216.0</ele><time>2026-04-06T10:15:59Z</time></trkpt><trkpt lat="32.99464749591535" lon="9.671136315993726"><ele>216.0</ele><time>2026-04-06T10:16:00Z</time></trkpt><trkpt lat="32.99453492213227" lon="9.670890022315104"><ele>216.0</ele><time>2026-04-06T10:16:01Z</time></trkpt><trkpt lat="32.99442043563566" lon="9.67064459284908"><ele>216.0</ele><time>2026-04-06T10:16:02Z</time></trkpt><trkpt lat="32.994310603200695" lon="9.670395038201715"><ele>216.0</ele><time>2026-04-06T10:16:03Z</time></trkpt><trkpt lat="32.99419811070952" lon="9.670154764375916"><ele>217.0</ele><time>2026-04-06T10:16:04Z</time></trkpt><trkpt lat="32.99408329766173" lon="9.669914768683029"><ele>218.0</ele><time>2026-04-06T10:16:05Z</time></trkpt><trkpt lat="32.99397355919707" lon="9.669683889070267"><ele>218.0</ele><time>2026-04-06T10:16:06Z</time></trkpt><trkpt lat="32.99385669881501" lon="9.669451973968595"><ele>218.0</ele><time>2026-04-06T10:16:07Z</time></trkpt><trkpt lat="32.99374470905117" lon="9.669224413971042"><ele>218.0</ele><time>2026-04-06T10:16:08Z</time></trkpt><trkpt lat="32.99363026377951" lon="9.668989318330299"><ele>217.66666666666669</ele><time>2026-04-06T10:16:09Z</time></trkpt><trkpt lat="32.993513104746434" lon="9.66876718790063"><ele>217.33333333333331</ele><time>2026-04-06T10:16:10Z</time></trkpt><trkpt lat="32.99338727187255" lon="9.668543081858559"><ele>217.0</ele><time>2026-04-06T10:16:11Z</time></trkpt><trkpt lat="32.993258956750836" lon="9.668325250639256"><ele>216.0</ele><time>2026-04-06T10:16:12Z</time></trkpt><trkpt lat="32.99312101258011" lon="9.66809415285729"><ele>215.0</ele><time>2026-04-06T10:16:13Z</time></trkpt><trkpt lat="32.99297868239538" lon="9.667875815856757"><ele>215.5</ele><time>2026-04-06T10:16:14Z</time></trkpt><trkpt lat="32.99282912719352" lon="9.667650972297343"><ele>216.0</ele><time>2026-04-06T10:16:15Z</time></trkpt><trkpt lat="32.992679348034194" lon="9.667433017477466"><ele>216.0</ele><time>2026-04-06T10:16:16Z</time></trkpt><trkpt lat="32.992529361593704" lon="9.667219778867223"><ele>216.0</ele><time>2026-04-06T10:16:17Z</time></trkpt><trkpt lat="32.99237892371346" lon="9.667000241238409"><ele>216.0</ele><time>2026-04-06T10:16:18Z</time></trkpt><trkpt lat="32.99222832814038" lon="9.66678720262306"><ele>216.0</ele><time>2026-04-06T10:16:19Z</time></trkpt><trkpt lat="32.992072735766506" lon="9.666579715836201"><ele>216.0</ele><time>2026-04-06T10:16:20Z</time></trkpt><trkpt lat="32.99191469388602" lon="9.666374375785267"><ele>216.0</ele><time>2026-04-06T10:16:21Z</time></trkpt><trkpt lat="32.991751015507255" lon="9.666168871259678"><ele>215.5</ele><time>2026-04-06T10:16:22Z</time></trkpt><trkpt lat="32.99159336113772" lon="9.665963674088045"><ele>215.0</ele><time>2026-04-06T10:16:23Z</time></trkpt><trkpt lat="32.99143825387208" lon="9.665756158275192"><ele>215.0</ele><time>2026-04-06T10:16:24Z</time></trkpt><trkpt lat="32.9912786202887" lon="9.665545741911242"><ele>215.0</ele><time>2026-04-06T10:16:25Z</time></trkpt><trkpt lat="32.99111816345825" lon="9.665340796627522"><ele>214.5</ele><time>2026-04-06T10:16:26Z</time></trkpt><trkpt lat="32.99096535968332" lon="9.665138795512545"><ele>214.0</ele><time>2026-04-06T10:16:27Z</time></trkpt><trkpt lat="32.99080739628565" lon="9.664936986748252"><ele>214.0</ele><time>2026-04-06T10:16:28Z</time></trkpt><trkpt lat="32.99065714877472" lon="9.664736892289703"><ele>214.0</ele><time>2026-04-06T10:16:29Z</time></trkpt><trkpt lat="32.99050224821317" lon="9.664536480249597"><ele>214.0</ele><time>2026-04-06T10:16:30Z</time></trkpt><trkpt lat="32.99035045885159" lon="9.664335036728913"><ele>214.0</ele><time>2026-04-06T10:16:31Z</time></trkpt><trkpt lat="32.99019871341965" lon="9.664135034551514"><ele>214.0</ele><time>2026-04-06T10:16:32Z</time></trkpt><trkpt lat="32.99005118347067" lon="9.663933713536245"><ele>214.0</ele><time>2026-04-06T10:16:33Z</time></trkpt><trkpt lat="32.98989954823909" lon="9.663737361235304"><ele>214.0</ele><time>2026-04-06T10:16:34Z</time></trkpt><trkpt lat="32.989753662483984" lon="9.663549799845"><ele>213.66666666666666</ele><time>2026-04-06T10:16:35Z</time></trkpt><trkpt lat="32.98960582528443" lon="9.663361320334527"><ele>213.33333333333331</ele><time>2026-04-06T10:16:36Z</time></trkpt><trkpt lat="32.98945453624758" lon="9.663162505402688"><ele>213.0</ele><time>2026-04-06T10:16:37Z</time></trkpt><trkpt lat="32.989302727954964" lon="9.662968741944008"><ele>212.33333333333331</ele><time>2026-04-06T10:16:38Z</time></trkpt><trkpt lat="32.989154316540834" lon="9.66277800669357"><ele>211.66666666666666</ele><time>2026-04-06T10:16:39Z</time></trkpt><trkpt lat="32.98900600507388" lon="9.662586809207362"><ele>211.0</ele><time>2026-04-06T10:16:40Z</time></trkpt><trkpt lat="32.98886393650665" lon="9.662396303766464"><ele>211.0</ele><time>2026-04-06T10:16:41Z</time></trkpt><trkpt lat="32.98871555516876" lon="9.662208071371746"><ele>211.0</ele><time>2026-04-06T10:16:42Z</time></trkpt><trkpt lat="32.98856333340519" lon="9.662008292029611"><ele>211.0</ele><time>2026-04-06T10:16:43Z</time></trkpt><trkpt lat="32.98840230453448" lon="9.661798612191673"><ele>211.5</ele><time>2026-04-06T10:16:44Z</time></trkpt><trkpt lat="32.98824152830523" lon="9.66159382931787"><ele>212.0</ele><time>2026-04-06T10:16:45Z</time></trkpt><trkpt lat="32.98807656956114" lon="9.661382385413951"><ele>212.0</ele><time>2026-04-06T10:16:46Z</time></trkpt><trkpt lat="32.987908891742734" lon="9.661166312946683"><ele>212.0</ele><time>2026-04-06T10:16:47Z</time></trkpt><trkpt lat="32.987741654427126" lon="9.660948842528002"><ele>212.0</ele><time>2026-04-06T10:16:48Z</time></trkpt><trkpt lat="32.9875733754283" lon="9.660729303883008"><ele>212.0</ele><time>2026-04-06T10:16:49Z</time></trkpt><trkpt lat="32.98740340876232" lon="9.660507443128159"><ele>211.5</ele><time>2026-04-06T10:16:50Z</time></trkpt><trkpt lat="32.98723510806911" lon="9.660287923513746"><ele>211.0</ele><time>2026-04-06T10:16:50.999Z</time></trkpt><trkpt lat="32.987069409839314" lon="9.66007138190166"><ele>210.5</ele><time>2026-04-06T10:16:51.999Z</time></trkpt><trkpt lat="32.9869084889781" lon="9.659857386031359"><ele>210.0</ele><time>2026-04-06T10:16:52.999Z</time></trkpt><trkpt lat="32.986748849766755" lon="9.659647102611956"><ele>210.0</ele><time>2026-04-06T10:16:53.999Z</time></trkpt><trkpt lat="32.98659470784332" lon="9.659437985614394"><ele>210.0</ele><time>2026-04-06T10:16:54.999Z</time></trkpt><trkpt lat="32.9864344082837" lon="9.659231301487951"><ele>210.0</ele><time>2026-04-06T10:16:55.999Z</time></trkpt><trkpt lat="32.98627756719367" lon="9.659026373845569"><ele>210.0</ele><time>2026-04-06T10:16:56.999Z</time></trkpt><trkpt lat="32.98612373192283" lon="9.658822494175547"><ele>210.33333333333331</ele><time>2026-04-06T10:16:57.999Z</time></trkpt><trkpt lat="32.985980157989445" lon="9.658616703006667"><ele>210.66666666666666</ele><time>2026-04-06T10:16:58.999Z</time></trkpt><trkpt lat="32.98584656108424" lon="9.658412320485038"><ele>211.0</ele><time>2026-04-06T10:16:59.999Z</time></trkpt><trkpt lat="32.98572801526609" lon="9.658218930257851"><ele>211.33333333333331</ele><time>2026-04-06T10:17:00.999Z</time></trkpt><trkpt lat="32.98561342773867" lon="9.658031661690702"><ele>211.66666666666669</ele><time>2026-04-06T10:17:01.999Z</time></trkpt><trkpt lat="32.98550429289219" lon="9.657846938967445"><ele>212.0</ele><time>2026-04-06T10:17:02.999Z</time></trkpt><trkpt lat="32.98539885104528" lon="9.657668340703719"><ele>212.0</ele><time>2026-04-06T10:17:03.999Z</time></trkpt><trkpt lat="32.98529584334427" lon="9.657479368882722"><ele>212.0</ele><time>2026-04-06T10:17:04.999Z</time></trkpt><trkpt lat="32.98519986133331" lon="9.657282920017762"><ele>212.0</ele><time>2026-04-06T10:17:05.999Z</time></trkpt><trkpt lat="32.98510834986636" lon="9.657086838234195"><ele>213.0</ele><time>2026-04-06T10:17:06.999Z</time></trkpt><trkpt lat="32.985002455188514" lon="9.656873936556059"><ele>214.0</ele><time>2026-04-06T10:17:07.999Z</time></trkpt><trkpt lat="32.984903838067936" lon="9.656665253205825"><ele>215.0</ele><time>2026-04-06T10:17:08.999Z</time></trkpt><trkpt lat="32.98480806176462" lon="9.656443243651788"><ele>215.0</ele><time>2026-04-06T10:17:09.999Z</time></trkpt><trkpt lat="32.984713503174625" lon="9.656209721892617"><ele>215.0</ele><time>2026-04-06T10:17:10.999Z</time></trkpt><trkpt lat="32.984613154406524" lon="9.655975846006227"><ele>215.0</ele><time>2026-04-06T10:17:11.999Z</time></trkpt><trkpt lat="32.98450935131284" lon="9.655732932013853"><ele>214.5</ele><time>2026-04-06T10:17:12.999Z</time></trkpt><trkpt lat="32.98441016428214" lon="9.655484523120446"><ele>214.0</ele><time>2026-04-06T10:17:13.999Z</time></trkpt><trkpt lat="32.98430791132594" lon="9.655230471789269"><ele>214.0</ele><time>2026-04-06T10:17:14.999Z</time></trkpt><trkpt lat="32.98420299247195" lon="9.65499035579452"><ele>214.0</ele><time>2026-04-06T10:17:15.999Z</time></trkpt><trkpt lat="32.98409504674141" lon="9.6547427493184"><ele>214.0</ele><time>2026-04-06T10:17:16.999Z</time></trkpt><trkpt lat="32.98399198804179" lon="9.654492645270334"><ele>214.0</ele><time>2026-04-06T10:17:17.999Z</time></trkpt><trkpt lat="32.983890347239104" lon="9.6542415920373"><ele>214.0</ele><time>2026-04-06T10:17:18.999Z</time></trkpt><trkpt lat="32.983791507577486" lon="9.653986850685865"><ele>214.0</ele><time>2026-04-06T10:17:19.999Z</time></trkpt><trkpt lat="32.98369396282457" lon="9.653736864862896"><ele>213.5</ele><time>2026-04-06T10:17:20.999Z</time></trkpt><trkpt lat="32.98358938333732" lon="9.653487861820313"><ele>213.0</ele><time>2026-04-06T10:17:21.999Z</time></trkpt><trkpt lat="32.983483831028465" lon="9.653243778073355"><ele>213.0</ele><time>2026-04-06T10:17:22.999Z</time></trkpt><trkpt lat="32.98337995210808" lon="9.653001047657797"><ele>213.0</ele><time>2026-04-06T10:17:23.999Z</time></trkpt><trkpt lat="32.98327935661175" lon="9.652760449664004"><ele>212.5</ele><time>2026-04-06T10:17:24.999Z</time></trkpt><trkpt lat="32.98317099219709" lon="9.652520883091663"><ele>212.0</ele><time>2026-04-06T10:17:25.999Z</time></trkpt><trkpt lat="32.98306367822641" lon="9.652289429001591"><ele>212.0</ele><time>2026-04-06T10:17:26.999Z</time></trkpt><trkpt lat="32.98294851308517" lon="9.652065690239771"><ele>212.0</ele><time>2026-04-06T10:17:27.999Z</time></trkpt><trkpt lat="32.982822524090466" lon="9.651839972079442"><ele>212.0</ele><time>2026-04-06T10:17:28.999Z</time></trkpt><trkpt lat="32.982693821557994" lon="9.651628708089284"><ele>212.33333333333334</ele><time>2026-04-06T10:17:29.999Z</time></trkpt><trkpt lat="32.98257034327541" lon="9.651429759312432"><ele>212.66666666666669</ele><time>2026-04-06T10:17:30.999Z</time></trkpt><trkpt lat="32.982447708098206" lon="9.651240199568754"><ele>213.0</ele><time>2026-04-06T10:17:31.999Z</time></trkpt><trkpt lat="32.98232298573664" lon="9.651051119641773"><ele>214.0</ele><time>2026-04-06T10:17:32.999Z</time></trkpt><trkpt lat="32.98219068936056" lon="9.650870335794988"><ele>215.0</ele><time>2026-04-06T10:17:33.999Z</time></trkpt><trkpt lat="32.982049044534534" lon="9.650704457974987"><ele>216.0</ele><time>2026-04-06T10:17:34.999Z</time></trkpt><trkpt lat="32.98189335518415" lon="9.650544664861675"><ele>216.0</ele><time>2026-04-06T10:17:35.999Z</time></trkpt><trkpt lat="32.981733100387366" lon="9.650384665986156"><ele>216.0</ele><time>2026-04-06T10:17:36.999Z</time></trkpt><trkpt lat="32.98157309753098" lon="9.650222269588628"><ele>216.0</ele><time>2026-04-06T10:17:37.999Z</time></trkpt><trkpt lat="32.98141362430797" lon="9.650050935960552"><ele>215.0</ele><time>2026-04-06T10:17:38.999Z</time></trkpt><trkpt lat="32.98125212373273" lon="9.649878784319789"><ele>214.0</ele><time>2026-04-06T10:17:39.999Z</time></trkpt><trkpt lat="32.981090273154685" lon="9.649707040029485"><ele>213.0</ele><time>2026-04-06T10:17:40.999Z</time></trkpt><trkpt lat="32.98092995866523" lon="9.649536057405486"><ele>213.0</ele><time>2026-04-06T10:17:41.999Z</time></trkpt><trkpt lat="32.9807704214881" lon="9.649364499793474"><ele>213.0</ele><time>2026-04-06T10:17:42.999Z</time></trkpt><trkpt lat="32.98061499928403" lon="9.649199536378052"><ele>213.0</ele><time>2026-04-06T10:17:43.999Z</time></trkpt><trkpt lat="32.980469742739245" lon="9.649050114605828"><ele>213.0</ele><time>2026-04-06T10:17:44.999Z</time></trkpt><trkpt lat="32.98032995097078" lon="9.648903337412682"><ele>213.0</ele><time>2026-04-06T10:17:45.999Z</time></trkpt><trkpt lat="32.980194808238394" lon="9.6487586580278"><ele>213.0</ele><time>2026-04-06T10:17:46.999Z</time></trkpt><trkpt lat="32.98006771323773" lon="9.64862370452896"><ele>212.66666666666669</ele><time>2026-04-06T10:17:47.999Z</time></trkpt><trkpt lat="32.97994518065554" lon="9.64849652653008"><ele>212.33333333333334</ele><time>2026-04-06T10:17:48.999Z</time></trkpt><trkpt lat="32.97982868981944" lon="9.64837433332989"><ele>212.0</ele><time>2026-04-06T10:17:49.999Z</time></trkpt><trkpt lat="32.97971739479173" lon="9.64825303703596"><ele>212.0</ele><time>2026-04-06T10:17:50.999Z</time></trkpt><trkpt lat="32.97960871987477" lon="9.648137141928196"><ele>212.0</ele><time>2026-04-06T10:17:51.999Z</time></trkpt><trkpt lat="32.97949702048532" lon="9.648017686235075"><ele>212.0</ele><time>2026-04-06T10:17:52.999Z</time></trkpt><trkpt lat="32.97938264906069" lon="9.647892784726361"><ele>212.0</ele><time>2026-04-06T10:17:53.999Z</time></trkpt><trkpt lat="32.979265669180144" lon="9.647767772302075"><ele>212.0</ele><time>2026-04-06T10:17:54.999Z</time></trkpt><trkpt lat="32.979147944059434" lon="9.64764352754719"><ele>212.0</ele><time>2026-04-06T10:17:55.999Z</time></trkpt><trkpt lat="32.97902512492323" lon="9.647517139998161"><ele>211.66666666666669</ele><time>2026-04-06T10:17:56.999Z</time></trkpt><trkpt lat="32.97890388455579" lon="9.647393799543744"><ele>211.33333333333331</ele><time>2026-04-06T10:17:57.999Z</time></trkpt><trkpt lat="32.97878236231344" lon="9.64726402646986"><ele>211.0</ele><time>2026-04-06T10:17:58.999Z</time></trkpt><trkpt lat="32.97866725255465" lon="9.647136290957318"><ele>211.0</ele><time>2026-04-06T10:17:59.999Z</time></trkpt><trkpt lat="32.97855292220237" lon="9.647015879544535"><ele>211.0</ele><time>2026-04-06T10:18:00.999Z</time></trkpt><trkpt lat="32.978446817284855" lon="9.646903775419219"><ele>211.0</ele><time>2026-04-06T10:18:01.999Z</time></trkpt><trkpt lat="32.97834890712488" lon="9.646796643834058"><ele>211.0</ele><time>2026-04-06T10:18:02.999Z</time></trkpt><trkpt lat="32.978253211592175" lon="9.646696993921044"><ele>210.8</ele><time>2026-04-06T10:18:03.999Z</time></trkpt><trkpt lat="32.97815374397984" lon="9.646598454721001"><ele>210.60000000000002</ele><time>2026-04-06T10:18:04.999Z</time></trkpt><trkpt lat="32.97806258828911" lon="9.646505738882272"><ele>210.4</ele><time>2026-04-06T10:18:05.999Z</time></trkpt><trkpt lat="32.97798295383578" lon="9.646417705161326"><ele>210.2</ele><time>2026-04-06T10:18:06.999Z</time></trkpt><trkpt lat="32.97791917493652" lon="9.646344517117347"><ele>210.0</ele><time>2026-04-06T10:18:07.999Z</time></trkpt><trkpt lat="32.9778728173796" lon="9.646289070494735"><ele>210.0</ele><time>2026-04-06T10:18:08.999Z</time></trkpt><trkpt lat="32.9778217604988" lon="9.64620052392051"><ele>210.0</ele><time>2026-04-06T10:18:10.999Z</time></trkpt><trkpt lat="32.9778236499568" lon="9.646085382974508"><ele>210.0</ele><time>2026-04-06T10:18:13.999Z</time></trkpt><trkpt lat="32.97786716153862" lon="9.64598004786827"><ele>210.0</ele><time>2026-04-06T10:18:16Z</time></trkpt><trkpt lat="32.977910822395295" lon="9.645881598134695"><ele>210.0</ele><time>2026-04-06T10:18:18Z</time></trkpt><trkpt lat="32.977962312856754" lon="9.645785600416078"><ele>210.0</ele><time>2026-04-06T10:18:20Z</time></trkpt><trkpt lat="32.97802026416567" lon="9.64565871889734"><ele>210.0</ele><time>2026-04-06T10:18:22Z</time></trkpt><trkpt lat="32.97804993275841" lon="9.64557816931155"><ele>210.0</ele><time>2026-04-06T10:18:23Z</time></trkpt><trkpt lat="32.97808744751523" lon="9.645496939030993"><ele>210.0</ele><time>2026-04-06T10:18:24Z</time></trkpt><trkpt lat="32.97813306665687" lon="9.645407857748063"><ele>210.0</ele><time>2026-04-06T10:18:25Z</time></trkpt><trkpt lat="32.9781765454409" lon="9.645312300158395"><ele>210.0</ele><time>2026-04-06T10:18:26Z</time></trkpt><trkpt lat="32.978228564564326" lon="9.645208453509378"><ele>210.0</ele><time>2026-04-06T10:18:27Z</time></trkpt><trkpt lat="32.97828680183367" lon="9.645101151673648"><ele>210.0</ele><time>2026-04-06T10:18:28Z</time></trkpt><trkpt lat="32.97834668290423" lon="9.644988786255938"><ele>210.0</ele><time>2026-04-06T10:18:29Z</time></trkpt><trkpt lat="32.978412650929855" lon="9.644872234592796"><ele>210.0</ele><time>2026-04-06T10:18:30Z</time></trkpt><trkpt lat="32.97848056712173" lon="9.644752849423867"><ele>210.0</ele><time>2026-04-06T10:18:31Z</time></trkpt><trkpt lat="32.978542871379304" lon="9.644630480914925"><ele>210.0</ele><time>2026-04-06T10:18:32Z</time></trkpt><trkpt lat="32.978607819132435" lon="9.644500727459986"><ele>210.0</ele><time>2026-04-06T10:18:33Z</time></trkpt><trkpt lat="32.97867377844978" lon="9.644371271099157"><ele>210.0</ele><time>2026-04-06T10:18:34Z</time></trkpt><trkpt lat="32.97874666499761" lon="9.644232529169058"><ele>210.0</ele><time>2026-04-06T10:18:34.999Z</time></trkpt><trkpt lat="32.978828613066405" lon="9.644081161020141"><ele>210.0</ele><time>2026-04-06T10:18:35.999Z</time></trkpt><trkpt lat="32.97891426742982" lon="9.643923125388751"><ele>210.0</ele><time>2026-04-06T10:18:36.999Z</time></trkpt><trkpt lat="32.97899793140195" lon="9.643756707031688"><ele>210.0</ele><time>2026-04-06T10:18:37.999Z</time></trkpt><trkpt lat="32.97906945947278" lon="9.64359571068469"><ele>210.0</ele><time>2026-04-06T10:18:38.999Z</time></trkpt><trkpt lat="32.97913062886494" lon="9.643439834433234"><ele>210.0</ele><time>2026-04-06T10:18:39.999Z</time></trkpt><trkpt lat="32.979188264867794" lon="9.643287150369678"><ele>210.0</ele><time>2026-04-06T10:18:40.999Z</time></trkpt><trkpt lat="32.97924133646491" lon="9.643149053251326"><ele>210.2</ele><time>2026-04-06T10:18:41.999Z</time></trkpt><trkpt lat="32.97928830571979" lon="9.643025752146215"><ele>210.4</ele><time>2026-04-06T10:18:42.999Z</time></trkpt><trkpt lat="32.97932798360184" lon="9.642919659380787"><ele>210.60000000000002</ele><time>2026-04-06T10:18:43.999Z</time></trkpt><trkpt lat="32.97937637171521" lon="9.64282870549008"><ele>210.8</ele><time>2026-04-06T10:18:44.999Z</time></trkpt><trkpt lat="32.97942948331101" lon="9.642743283044481"><ele>211.0</ele><time>2026-04-06T10:18:45.999Z</time></trkpt><trkpt lat="32.97948327906861" lon="9.642670937565164"><ele>210.20000000000002</ele><time>2026-04-06T10:18:46.999Z</time></trkpt><trkpt lat="32.9795403219902" lon="9.642603894838832"><ele>209.4</ele><time>2026-04-06T10:18:47.999Z</time></trkpt><trkpt lat="32.979605051372275" lon="9.642536201884527"><ele>208.6</ele><time>2026-04-06T10:18:48.999Z</time></trkpt><trkpt lat="32.97966724603032" lon="9.64245591223856"><ele>207.8</ele><time>2026-04-06T10:18:49.999Z</time></trkpt><trkpt lat="32.97974506561048" lon="9.642347534869748"><ele>207.0</ele><time>2026-04-06T10:18:50.999Z</time></trkpt><trkpt lat="32.97984078494251" lon="9.64222636314152"><ele>207.0</ele><time>2026-04-06T10:18:51.999Z</time></trkpt><trkpt lat="32.979974223079715" lon="9.642094485062657"><ele>207.0</ele><time>2026-04-06T10:18:52.999Z</time></trkpt><trkpt lat="32.98012960945409" lon="9.641954394086675"><ele>207.0</ele><time>2026-04-06T10:18:53.999Z</time></trkpt><trkpt lat="32.98029303468097" lon="9.641797567792928"><ele>208.66666666666669</ele><time>2026-04-06T10:18:54.999Z</time></trkpt><trkpt lat="32.98044573146841" lon="9.641644607875978"><ele>210.33333333333334</ele><time>2026-04-06T10:18:55.999Z</time></trkpt><trkpt lat="32.98058812763887" lon="9.64149656045538"><ele>212.0</ele><time>2026-04-06T10:18:56.999Z</time></trkpt><trkpt lat="32.98072601746665" lon="9.641341165127578"><ele>212.33333333333334</ele><time>2026-04-06T10:18:57.999Z</time></trkpt><trkpt lat="32.980859467956414" lon="9.64117152266031"><ele>212.66666666666669</ele><time>2026-04-06T10:18:58.999Z</time></trkpt><trkpt lat="32.98097501808921" lon="9.640994274348355"><ele>213.0</ele><time>2026-04-06T10:18:59.999Z</time></trkpt><trkpt lat="32.981079388688606" lon="9.64078707920789"><ele>213.0</ele><time>2026-04-06T10:19:00.999Z</time></trkpt><trkpt lat="32.98117905655565" lon="9.640555473316958"><ele>213.0</ele><time>2026-04-06T10:19:01.999Z</time></trkpt><trkpt lat="32.98128638185279" lon="9.640275368872661"><ele>212.5</ele><time>2026-04-06T10:19:02.999Z</time></trkpt><trkpt lat="32.981394843485816" lon="9.639987561377499"><ele>212.0</ele><time>2026-04-06T10:19:03.999Z</time></trkpt><trkpt lat="32.98151461262071" lon="9.639684098522348"><ele>212.0</ele><time>2026-04-06T10:19:04.999Z</time></trkpt><trkpt lat="32.9816336911491" lon="9.639391161872013"><ele>212.0</ele><time>2026-04-06T10:19:05.999Z</time></trkpt><trkpt lat="32.981744923872945" lon="9.63911572961319"><ele>212.0</ele><time>2026-04-06T10:19:06.999Z</time></trkpt><trkpt lat="32.98184788366543" lon="9.638858979468537"><ele>212.0</ele><time>2026-04-06T10:19:07.999Z</time></trkpt><trkpt lat="32.98194620824222" lon="9.638612661395392"><ele>211.33333333333334</ele><time>2026-04-06T10:19:08.999Z</time></trkpt><trkpt lat="32.98204117619174" lon="9.638377604988765"><ele>210.66666666666669</ele><time>2026-04-06T10:19:09.999Z</time></trkpt><trkpt lat="32.98213011540093" lon="9.63815404222591"><ele>210.0</ele><time>2026-04-06T10:19:10.999Z</time></trkpt><trkpt lat="32.9822158002604" lon="9.6379448701265"><ele>210.66666666666669</ele><time>2026-04-06T10:19:11.999Z</time></trkpt><trkpt lat="32.98229014587971" lon="9.637749282010288"><ele>211.33333333333334</ele><time>2026-04-06T10:19:12.999Z</time></trkpt><trkpt lat="32.98236255414262" lon="9.637572733960253"><ele>212.0</ele><time>2026-04-06T10:19:13.999Z</time></trkpt><trkpt lat="32.982428687589454" lon="9.637410842802483"><ele>212.0</ele><time>2026-04-06T10:19:14.999Z</time></trkpt><trkpt lat="32.98249215706222" lon="9.637257462188275"><ele>212.0</ele><time>2026-04-06T10:19:15.999Z</time></trkpt><trkpt lat="32.98255002843463" lon="9.637114030806561"><ele>212.0</ele><time>2026-04-06T10:19:16.999Z</time></trkpt><trkpt lat="32.98260436321711" lon="9.636980299583035"><ele>212.0</ele><time>2026-04-06T10:19:17.999Z</time></trkpt><trkpt lat="32.98265789251657" lon="9.636848978874246"><ele>212.16666666666669</ele><time>2026-04-06T10:19:18.999Z</time></trkpt><trkpt lat="32.98270571258192" lon="9.636728727238388"><ele>212.33333333333334</ele><time>2026-04-06T10:19:19.999Z</time></trkpt><trkpt lat="32.98275102280873" lon="9.636623978941516"><ele>212.5</ele><time>2026-04-06T10:19:20.999Z</time></trkpt><trkpt lat="32.982787820631884" lon="9.636534521798504"><ele>212.66666666666669</ele><time>2026-04-06T10:19:21.999Z</time></trkpt><trkpt lat="32.982823866805724" lon="9.636450530075978"><ele>212.83333333333334</ele><time>2026-04-06T10:19:22.999Z</time></trkpt><trkpt lat="32.982853558258746" lon="9.636366902487469"><ele>213.0</ele><time>2026-04-06T10:19:23.999Z</time></trkpt><trkpt lat="32.98287706268653" lon="9.636293755346454"><ele>213.0</ele><time>2026-04-06T10:19:24.999Z</time></trkpt><trkpt lat="32.98292664276036" lon="9.636186178552986"><ele>213.0</ele><time>2026-04-06T10:19:26.999Z</time></trkpt><trkpt lat="32.982964677138675" lon="9.636091546685124"><ele>213.0</ele><time>2026-04-06T10:19:28.999Z</time></trkpt><trkpt lat="32.98302865745248" lon="9.636016484573888"><ele>213.0</ele><time>2026-04-06T10:19:31.999Z</time></trkpt><trkpt lat="32.98312021325875" lon="9.636012177621094"><ele>213.0</ele><time>2026-04-06T10:19:33.999Z</time></trkpt><trkpt lat="32.98321254598815" lon="9.636060091869096"><ele>213.16666666666666</ele><time>2026-04-06T10:19:35.999Z</time></trkpt><trkpt lat="32.983278767870935" lon="9.636113683591825"><ele>213.33333333333331</ele><time>2026-04-06T10:19:37.999Z</time></trkpt><trkpt lat="32.9833499673553" lon="9.636152708317937"><ele>213.5</ele><time>2026-04-06T10:19:39.999Z</time></trkpt><trkpt lat="32.98343751899991" lon="9.636193313844462"><ele>213.66666666666666</ele><time>2026-04-06T10:19:41.999Z</time></trkpt><trkpt lat="32.98352483493528" lon="9.636255705140863"><ele>213.83333333333331</ele><time>2026-04-06T10:19:44.999Z</time></trkpt><trkpt lat="32.98361292292318" lon="9.636295304181003"><ele>214.0</ele><time>2026-04-06T10:19:46.999Z</time></trkpt><trkpt lat="32.98367650879909" lon="9.63632429924696"><ele>213.49999999999997</ele><time>2026-04-06T10:19:48.999Z</time></trkpt><trkpt lat="32.98373960551816" lon="9.636356232971883"><ele>213.0</ele><time>2026-04-06T10:19:51.999Z</time></trkpt><trkpt lat="32.98383132252642" lon="9.636394929730665"><ele>212.5</ele><time>2026-04-06T10:20:08.999Z</time></trkpt><trkpt lat="32.98393540373157" lon="9.636453476755744"><ele>212.0</ele><time>2026-04-06T10:20:10.999Z</time></trkpt><trkpt lat="32.98399376143255" lon="9.636485772927841"><ele>211.49999999999997</ele><time>2026-04-06T10:20:11.999Z</time></trkpt><trkpt lat="32.98406221233013" lon="9.636527857033991"><ele>211.0</ele><time>2026-04-06T10:20:12.999Z</time></trkpt><trkpt lat="32.98413393515392" lon="9.636573753300338"><ele>210.83333333333331</ele><time>2026-04-06T10:20:13.999Z</time></trkpt><trkpt lat="32.984205103886175" lon="9.636618091584145"><ele>210.66666666666666</ele><time>2026-04-06T10:20:14.999Z</time></trkpt><trkpt lat="32.9842748990185" lon="9.636660038441736"><ele>210.5</ele><time>2026-04-06T10:20:15.999Z</time></trkpt><trkpt lat="32.98434359698541" lon="9.636692905409385"><ele>210.33333333333331</ele><time>2026-04-06T10:20:16.999Z</time></trkpt><trkpt lat="32.984406555149214" lon="9.636724693371782"><ele>210.16666666666666</ele><time>2026-04-06T10:20:17.999Z</time></trkpt><trkpt lat="32.98451075869962" lon="9.636781434655772"><ele>210.0</ele><time>2026-04-06T10:20:19.999Z</time></trkpt><trkpt lat="32.98457025708398" lon="9.63680968168205"><ele>210.0</ele><time>2026-04-06T10:20:20.999Z</time></trkpt><trkpt lat="32.984633202970784" lon="9.636845975338822"><ele>210.0</ele><time>2026-04-06T10:20:21.999Z</time></trkpt><trkpt lat="32.984700966361856" lon="9.636884246595315"><ele>210.0</ele><time>2026-04-06T10:20:22.999Z</time></trkpt><trkpt lat="32.984763535658104" lon="9.63692152064563"><ele>210.0</ele><time>2026-04-06T10:20:23.999Z</time></trkpt><trkpt lat="32.984820991809926" lon="9.636956135024692"><ele>210.0</ele><time>2026-04-06T10:20:24.999Z</time></trkpt><trkpt lat="32.98488746741065" lon="9.636993516796501"><ele>210.0</ele><time>2026-04-06T10:20:25.999Z</time></trkpt><trkpt lat="32.984956246692924" lon="9.637030677294506"><ele>210.0</ele><time>2026-04-06T10:20:26.999Z</time></trkpt><trkpt lat="32.985019591420055" lon="9.637069080978486"><ele>210.66666666666666</ele><time>2026-04-06T10:20:27.999Z</time></trkpt><trkpt lat="32.985083898894906" lon="9.637106291772628"><ele>211.33333333333331</ele><time>2026-04-06T10:20:28.999Z</time></trkpt><trkpt lat="32.98514418040383" lon="9.637140376553264"><ele>212.0</ele><time>2026-04-06T10:20:29.999Z</time></trkpt><trkpt lat="32.985244599504206" lon="9.637194187033707"><ele>212.66666666666666</ele><time>2026-04-06T10:20:31.999Z</time></trkpt><trkpt lat="32.98532344323023" lon="9.637237078867726"><ele>213.33333333333331</ele><time>2026-04-06T10:20:33.999Z</time></trkpt><trkpt lat="32.98540668675008" lon="9.637297113993043"><ele>214.0</ele><time>2026-04-06T10:20:35.999Z</time></trkpt><trkpt lat="32.98550665836108" lon="9.63735468133675"><ele>214.0</ele><time>2026-04-06T10:20:37.999Z</time></trkpt><trkpt lat="32.98561052670547" lon="9.637414898366162"><ele>213.99999999999997</ele><time>2026-04-06T10:20:39.999Z</time></trkpt><trkpt lat="32.98571201973995" lon="9.6374735383736"><ele>213.99999999999997</ele><time>2026-04-06T10:20:41.999Z</time></trkpt><trkpt lat="32.98582768039962" lon="9.637534211486562"><ele>214.0</ele><time>2026-04-06T10:20:43.999Z</time></trkpt><trkpt lat="32.98588834874581" lon="9.637559515478552"><ele>214.0</ele><time>2026-04-06T10:20:44.999Z</time></trkpt><trkpt lat="32.9859969587668" lon="9.637619606614717"><ele>213.79999999999998</ele><time>2026-04-06T10:20:46.999Z</time></trkpt><trkpt lat="32.986054448155734" lon="9.637653504008984"><ele>213.59999999999997</ele><time>2026-04-06T10:20:47.999Z</time></trkpt><trkpt lat="32.98616357655103" lon="9.637711973323375"><ele>213.4</ele><time>2026-04-06T10:20:49.999Z</time></trkpt><trkpt lat="32.98625134609406" lon="9.63775456751772"><ele>213.2</ele><time>2026-04-06T10:20:51.999Z</time></trkpt><trkpt lat="32.98633666498824" lon="9.637805419463234"><ele>213.0</ele><time>2026-04-06T10:20:53.999Z</time></trkpt><trkpt lat="32.98643865922328" lon="9.637861754177134"><ele>213.0</ele><time>2026-04-06T10:20:55.999Z</time></trkpt><trkpt lat="32.98649719095038" lon="9.637891092633456"><ele>213.0</ele><time>2026-04-06T10:20:56.999Z</time></trkpt><trkpt lat="32.98659500678242" lon="9.63794440773567"><ele>213.0</ele><time>2026-04-06T10:20:58.999Z</time></trkpt><trkpt lat="32.986690946529826" lon="9.638002229126753"><ele>213.0</ele><time>2026-04-06T10:21:00.999Z</time></trkpt><trkpt lat="32.986794735761336" lon="9.638064496165851"><ele>213.0</ele><time>2026-04-06T10:21:02.999Z</time></trkpt><trkpt lat="32.98689348241693" lon="9.638117136634138"><ele>213.0</ele><time>2026-04-06T10:21:04.999Z</time></trkpt><trkpt lat="32.98696626474546" lon="9.63815936955681"><ele>213.0</ele><time>2026-04-06T10:21:06.999Z</time></trkpt><trkpt lat="32.98704023346841" lon="9.638201218774293"><ele>213.0</ele><time>2026-04-06T10:21:08.999Z</time></trkpt><trkpt lat="32.987109749624544" lon="9.638238482149223"><ele>213.0</ele><time>2026-04-06T10:21:10.999Z</time></trkpt><trkpt lat="32.98718008080082" lon="9.638269677456424"><ele>213.0</ele><time>2026-04-06T10:21:12.999Z</time></trkpt><trkpt lat="32.98725024110137" lon="9.638313472255922"><ele>213.0</ele><time>2026-04-06T10:21:14.999Z</time></trkpt><trkpt lat="32.98732672093544" lon="9.638349968458071"><ele>213.0</ele><time>2026-04-06T10:21:17.999Z</time></trkpt><trkpt lat="32.98738631071568" lon="9.638379161409228"><ele>213.0</ele><time>2026-04-06T10:21:20.999Z</time></trkpt><trkpt lat="32.98746775642001" lon="9.638425467086764"><ele>213.0</ele><time>2026-04-06T10:21:31.999Z</time></trkpt><trkpt lat="32.98752544070507" lon="9.638482675467673"><ele>213.0</ele><time>2026-04-06T10:21:34.999Z</time></trkpt><trkpt lat="32.98752023719413" lon="9.63858171273888"><ele>213.0</ele><time>2026-04-06T10:21:37.999Z</time></trkpt><trkpt lat="32.98748109010845" lon="9.638645540480564"><ele>213.0</ele><time>2026-04-06T10:21:40.999Z</time></trkpt><trkpt lat="32.987411259413456" lon="9.63867902536169"><ele>213.14285714285714</ele><time>2026-04-06T10:21:44.999Z</time></trkpt><trkpt lat="32.987360099769234" lon="9.638740761313919"><ele>213.28571428571428</ele><time>2026-04-06T10:21:55.999Z</time></trkpt><trkpt lat="32.98729591234277" lon="9.638743094213284"><ele>213.42857142857144</ele><time>2026-04-06T10:22:02.999Z</time></trkpt><trkpt lat="32.98731524561428" lon="9.638670313998812"><ele>213.57142857142856</ele><time>2026-04-06T10:24:38Z</time></trkpt><trkpt lat="32.987377392422594" lon="9.638695301832382"><ele>213.71428571428572</ele><time>2026-04-06T10:24:42Z</time></trkpt><trkpt lat="32.9873347724024" lon="9.638757412221993"><ele>213.85714285714286</ele><time>2026-04-06T10:24:44Z</time></trkpt><trkpt lat="32.987279053889246" lon="9.638806681119604"><ele>214.0</ele><time>2026-04-06T10:24:45Z</time></trkpt><trkpt lat="32.98720559305023" lon="9.638851412600761"><ele>214.0</ele><time>2026-04-06T10:24:47Z</time></trkpt><trkpt lat="32.987203209241116" lon="9.638930584117848"><ele>214.0</ele><time>2026-04-06T10:24:51Z</time></trkpt><trkpt lat="32.98725446714008" lon="9.638982993312204"><ele>214.0</ele><time>2026-04-06T10:25:33Z</time></trkpt><trkpt lat="32.98718570193517" lon="9.638993961950547"><ele>214.0</ele><time>2026-04-06T10:25:39Z</time></trkpt><trkpt lat="32.987244773735235" lon="9.638701530774929"><ele>213.99999999999997</ele><time>2026-04-06T10:30:34.011Z</time></trkpt><trkpt lat="32.98730514428509" lon="9.638769866601262"><ele>214.0</ele><time>2026-04-06T10:30:39.013Z</time></trkpt><trkpt lat="32.98739789355513" lon="9.638801797319955"><ele>214.0</ele><time>2026-04-06T10:30:42.015Z</time></trkpt><trkpt lat="32.987330916169384" lon="9.638800176451044"><ele>214.0</ele><time>2026-04-06T10:30:54Z</time></trkpt><trkpt lat="32.98725146734544" lon="9.638746066086737"><ele>213.99999999999997</ele><time>2026-04-06T10:30:58Z</time></trkpt><trkpt lat="32.987200829423365" lon="9.638791947627618"><ele>214.0</ele><time>2026-04-06T10:31:02Z</time></trkpt><trkpt lat="32.98721243602337" lon="9.638873289924758"><ele>213.99999999999997</ele><time>2026-04-06T10:32:13Z</time></trkpt><trkpt lat="32.98719142548645" lon="9.638954724671136"><ele>214.0</ele><time>2026-04-06T10:32:25Z</time></trkpt><trkpt lat="32.98712614794124" lon="9.638965614755644"><ele>214.0</ele><time>2026-04-06T10:32:32Z</time></trkpt><trkpt lat="32.987048826022246" lon="9.638894687581196"><ele>214.0</ele><time>2026-04-06T10:32:35Z</time></trkpt><trkpt lat="32.98710547177351" lon="9.638963035617024"><ele>213.99999999999997</ele><time>2026-04-06T10:32:43Z</time></trkpt><trkpt lat="32.98716439404813" lon="9.638997887362738"><ele>214.0</ele><time>2026-04-06T10:32:49Z</time></trkpt><trkpt lat="32.987167089242995" lon="9.638914865181876"><ele>214.00000000000003</ele><time>2026-04-06T10:33:16Z</time></trkpt><trkpt lat="32.98719386512831" lon="9.638842006408584"><ele>214.0</ele><time>2026-04-06T10:33:24Z</time></trkpt><trkpt lat="32.98716486126261" lon="9.638773067229483"><ele>214.0</ele><time>2026-04-06T10:33:45Z</time></trkpt><trkpt lat="32.98724256731439" lon="9.638813391637372"><ele>214.0</ele><time>2026-04-06T10:33:57Z</time></trkpt><trkpt lat="32.98728636847364" lon="9.638746548827562"><ele>214.0</ele><time>2026-04-06T10:34:04Z</time></trkpt><trkpt lat="32.98734478084088" lon="9.638693693983845"><ele>214.00000000000003</ele><time>2026-04-06T10:34:11Z</time></trkpt><trkpt lat="32.98741574464465" lon="9.638677032200254"><ele>214.0</ele><time>2026-04-06T10:34:17Z</time></trkpt><trkpt lat="32.987473347084105" lon="9.638714923699329"><ele>213.99999999999997</ele><time>2026-04-06T10:34:23Z</time></trkpt><trkpt lat="32.98740573437386" lon="9.638722996143194"><ele>214.0</ele><time>2026-04-06T10:36:26Z</time></trkpt><trkpt lat="32.98735192615223" lon="9.638766946107724"><ele>214.0</ele><time>2026-04-06T10:36:38Z</time></trkpt><trkpt lat="32.987349372402534" lon="9.638688134257519"><ele>214.0</ele><time>2026-04-06T10:38:51Z</time></trkpt><trkpt lat="32.98744388851845" lon="9.638591125597687"><ele>213.99999999999997</ele><time>2026-04-06T10:39:58Z</time></trkpt><trkpt lat="32.987511391249164" lon="9.63861259419114"><ele>214.0</ele><time>2026-04-06T10:41:09Z</time></trkpt><trkpt lat="32.98754775241613" lon="9.638511867885589"><ele>213.83333333333331</ele><time>2026-04-06T10:45:56Z</time></trkpt><trkpt lat="32.98757152549747" lon="9.63844002122496"><ele>213.66666666666666</ele><time>2026-04-06T10:45:59Z</time></trkpt><trkpt lat="32.987581454854244" lon="9.638362441630917"><ele>213.5</ele><time>2026-04-06T10:46:05Z</time></trkpt><trkpt lat="32.98759432924294" lon="9.638287892275311"><ele>213.33333333333331</ele><time>2026-04-06T10:46:12Z</time></trkpt><trkpt lat="32.9876294654202" lon="9.638213081731966"><ele>213.16666666666666</ele><time>2026-04-06T10:46:23Z</time></trkpt><trkpt lat="32.98770415693292" lon="9.638106832476378"><ele>213.0</ele><time>2026-04-06T10:50:06Z</time></trkpt><trkpt lat="32.98772137095593" lon="9.637997959929738"><ele>213.0</ele><time>2026-04-06T10:50:08Z</time></trkpt><trkpt lat="32.987765034807694" lon="9.63790299798551"><ele>213.0</ele><time>2026-04-06T10:50:10Z</time></trkpt><trkpt lat="32.98780021116351" lon="9.637811699063423"><ele>213.0</ele><time>2026-04-06T10:50:12Z</time></trkpt><trkpt lat="32.98783021931453" lon="9.637734781500432"><ele>213.0</ele><time>2026-04-06T10:50:14Z</time></trkpt><trkpt lat="32.98786201826932" lon="9.637663303664626"><ele>213.0</ele><time>2026-04-06T10:50:18Z</time></trkpt><trkpt lat="32.98790293142478" lon="9.637584768375007"><ele>213.0</ele><time>2026-04-06T10:50:40Z</time></trkpt><trkpt lat="32.987934818150066" lon="9.637497396380645"><ele>212.85714285714283</ele><time>2026-04-06T10:50:43Z</time></trkpt><trkpt lat="32.98796700873038" lon="9.63741654954581"><ele>212.71428571428572</ele><time>2026-04-06T10:50:46Z</time></trkpt><trkpt lat="32.98800608301083" lon="9.637314609259226"><ele>212.57142857142856</ele><time>2026-04-06T10:50:49Z</time></trkpt><trkpt lat="32.98803518460308" lon="9.63724746312871"><ele>212.42857142857142</ele><time>2026-04-06T10:50:51Z</time></trkpt><trkpt lat="32.98806242002323" lon="9.637177659341084"><ele>212.28571428571428</ele><time>2026-04-06T10:50:53Z</time></trkpt><trkpt lat="32.98809285722412" lon="9.637106692742162"><ele>212.14285714285714</ele><time>2026-04-06T10:50:55Z</time></trkpt><trkpt lat="32.988129019778164" lon="9.637015578208132"><ele>212.0</ele><time>2026-04-06T10:50:57Z</time></trkpt><trkpt lat="32.988167148324415" lon="9.636918685421213"><ele>212.00000000000003</ele><time>2026-04-06T10:50:59Z</time></trkpt><trkpt lat="32.98820153641891" lon="9.63682130101453"><ele>212.0</ele><time>2026-04-06T10:51:01Z</time></trkpt><trkpt lat="32.98824051600875" lon="9.636731105781257"><ele>212.0</ele><time>2026-04-06T10:51:03Z</time></trkpt><trkpt lat="32.98827579445145" lon="9.636643460843125"><ele>212.0</ele><time>2026-04-06T10:51:05Z</time></trkpt><trkpt lat="32.98830991802846" lon="9.636555519451685"><ele>212.00000000000003</ele><time>2026-04-06T10:51:07Z</time></trkpt><trkpt lat="32.988341405831896" lon="9.636473632320973"><ele>212.0</ele><time>2026-04-06T10:51:09Z</time></trkpt><trkpt lat="32.988374882379425" lon="9.636395424572274"><ele>212.00000000000003</ele><time>2026-04-06T10:51:11Z</time></trkpt><trkpt lat="32.988409209793275" lon="9.63632160524335"><ele>212.0</ele><time>2026-04-06T10:51:13Z</time></trkpt><trkpt lat="32.98844323133228" lon="9.63624560578194"><ele>212.0</ele><time>2026-04-06T10:51:15Z</time></trkpt><trkpt lat="32.98847060927259" lon="9.636170882570134"><ele>212.0</ele><time>2026-04-06T10:51:17Z</time></trkpt><trkpt lat="32.98850220780256" lon="9.636090558439482"><ele>212.00000000000003</ele><time>2026-04-06T10:51:19Z</time></trkpt><trkpt lat="32.98853584829256" lon="9.636001018571601"><ele>212.0</ele><time>2026-04-06T10:51:21Z</time></trkpt><trkpt lat="32.9885704621275" lon="9.635910113943304"><ele>212.00000000000003</ele><time>2026-04-06T10:51:24Z</time></trkpt><trkpt lat="32.98859978733246" lon="9.63582091202873"><ele>212.0</ele><time>2026-04-06T10:51:27Z</time></trkpt><trkpt lat="32.988637519434" lon="9.635733236182412"><ele>212.0</ele><time>2026-04-06T10:51:32Z</time></trkpt><trkpt lat="32.98868999291043" lon="9.635656039294938"><ele>212.0</ele><time>2026-04-06T10:51:36Z</time></trkpt><trkpt lat="32.98873743978224" lon="9.635576378258547"><ele>212.00000000000003</ele><time>2026-04-06T10:51:39Z</time></trkpt><trkpt lat="32.98876385197541" lon="9.635481620236781"><ele>212.0</ele><time>2026-04-06T10:51:42Z</time></trkpt><trkpt lat="32.988825388562624" lon="9.635396684916474"><ele>212.00000000000003</ele><time>2026-04-06T10:51:45Z</time></trkpt><trkpt lat="32.98889141082499" lon="9.635320603398265"><ele>212.0</ele><time>2026-04-06T10:51:48Z</time></trkpt><trkpt lat="32.98894295446304" lon="9.635237412048802"><ele>212.0</ele><time>2026-04-06T10:51:52Z</time></trkpt><trkpt lat="32.98896093797407" lon="9.635144713102056"><ele>212.0</ele><time>2026-04-06T10:51:55.001Z</time></trkpt><trkpt lat="32.988970960531255" lon="9.635043204690287"><ele>212.00000000000003</ele><time>2026-04-06T10:51:58.001Z</time></trkpt><trkpt lat="32.98896760607446" lon="9.634934907883808"><ele>212.0</ele><time>2026-04-06T10:52:01.001Z</time></trkpt><trkpt lat="32.988964597920514" lon="9.634840092230561"><ele>212.00000000000003</ele><time>2026-04-06T10:52:03.001Z</time></trkpt><trkpt lat="32.988966497455095" lon="9.634740607172409"><ele>212.0</ele><time>2026-04-06T10:52:05.001Z</time></trkpt><trkpt lat="32.98897007874178" lon="9.634644823477633"><ele>212.0</ele><time>2026-04-06T10:52:07.001Z</time></trkpt><trkpt lat="32.9889690366504" lon="9.634551907765827"><ele>212.0</ele><time>2026-04-06T10:52:09.001Z</time></trkpt><trkpt lat="32.98897580613186" lon="9.63445854928721"><ele>212.00000000000003</ele><time>2026-04-06T10:52:11.001Z</time></trkpt><trkpt lat="32.9889859678374" lon="9.634383991469605"><ele>212.0</ele><time>2026-04-06T10:52:13Z</time></trkpt><trkpt lat="32.98899820304901" lon="9.63429736494698"><ele>212.16666666666669</ele><time>2026-04-06T10:52:16Z</time></trkpt><trkpt lat="32.98901127549036" lon="9.634215790713878"><ele>212.33333333333334</ele><time>2026-04-06T10:52:20Z</time></trkpt><trkpt lat="32.9890228172477" lon="9.634096155270116"><ele>212.5</ele><time>2026-04-06T10:52:24Z</time></trkpt><trkpt lat="32.98901911333152" lon="9.633971950995686"><ele>212.66666666666669</ele><time>2026-04-06T10:52:26Z</time></trkpt><trkpt lat="32.98904066176381" lon="9.633857266347396"><ele>212.83333333333334</ele><time>2026-04-06T10:52:28Z</time></trkpt><trkpt lat="32.989052589638" lon="9.633782863897865"><ele>213.0</ele><time>2026-04-06T10:52:29Z</time></trkpt><trkpt lat="32.98911674649163" lon="9.633670878490646"><ele>212.16666666666666</ele><time>2026-04-06T10:52:31Z</time></trkpt><trkpt lat="32.989176063117974" lon="9.633572479355074"><ele>211.33333333333331</ele><time>2026-04-06T10:52:33Z</time></trkpt><trkpt lat="32.98921947643388" lon="9.633476893053293"><ele>210.5</ele><time>2026-04-06T10:52:35Z</time></trkpt><trkpt lat="32.989252592928466" lon="9.633389660164461"><ele>209.66666666666666</ele><time>2026-04-06T10:52:37Z</time></trkpt><trkpt lat="32.98928499608201" lon="9.633315058003268"><ele>208.83333333333331</ele><time>2026-04-06T10:52:39Z</time></trkpt><trkpt lat="32.98934099057505" lon="9.633215946187788"><ele>208.0</ele><time>2026-04-06T10:52:41Z</time></trkpt><trkpt lat="32.989374931151296" lon="9.633095374609619"><ele>207.99999999999997</ele><time>2026-04-06T10:52:43Z</time></trkpt><trkpt lat="32.98940640929665" lon="9.632976722497274"><ele>208.0</ele><time>2026-04-06T10:52:45Z</time></trkpt><trkpt lat="32.98942834374524" lon="9.632903999482316"><ele>208.0</ele><time>2026-04-06T10:52:47Z</time></trkpt><trkpt lat="32.98945493363413" lon="9.6328215381143"><ele>208.0</ele><time>2026-04-06T10:52:50Z</time></trkpt><trkpt lat="32.989479366958776" lon="9.632734297156714"><ele>207.99999999999997</ele><time>2026-04-06T10:52:55Z</time></trkpt><trkpt lat="32.98950990021795" lon="9.632645221044813"><ele>208.0</ele><time>2026-04-06T10:52:58Z</time></trkpt><trkpt lat="32.98952370050199" lon="9.632562946761006"><ele>208.14285714285714</ele><time>2026-04-06T10:53:01Z</time></trkpt><trkpt lat="32.9895399614734" lon="9.632486287911018"><ele>208.2857142857143</ele><time>2026-04-06T10:53:05Z</time></trkpt><trkpt lat="32.989560313033145" lon="9.632406323888992"><ele>208.42857142857144</ele><time>2026-04-06T10:53:08Z</time></trkpt><trkpt lat="32.989588405693176" lon="9.632295344529808"><ele>208.57142857142856</ele><time>2026-04-06T10:53:11Z</time></trkpt><trkpt lat="32.98961864720896" lon="9.632223851953658"><ele>208.71428571428572</ele><time>2026-04-06T10:53:13Z</time></trkpt><trkpt lat="32.98965439187321" lon="9.632151548155091"><ele>208.85714285714286</ele><time>2026-04-06T10:53:15Z</time></trkpt><trkpt lat="32.989695997268285" lon="9.63207755373565"><ele>209.0</ele><time>2026-04-06T10:53:18Z</time></trkpt><trkpt lat="32.98974397327503" lon="9.632007412464906"><ele>209.00000000000003</ele><time>2026-04-06T10:53:22Z</time></trkpt><trkpt lat="32.98979736941741" lon="9.63196283954585"><ele>209.0</ele><time>2026-04-06T10:53:25Z</time></trkpt><trkpt lat="32.98986230420773" lon="9.631961233094069"><ele>209.0</ele><time>2026-04-06T10:54:14.001Z</time></trkpt><trkpt lat="32.98993835757816" lon="9.631933159883243"><ele>209.0</ele><time>2026-04-06T10:54:17.001Z</time></trkpt><trkpt lat="32.990011116217964" lon="9.631900921105252"><ele>209.00000000000003</ele><time>2026-04-06T10:54:19Z</time></trkpt><trkpt lat="32.9900795736913" lon="9.631831044144176"><ele>209.0</ele><time>2026-04-06T10:54:21Z</time></trkpt><trkpt lat="32.99014448205581" lon="9.631769843313903"><ele>209.00000000000003</ele><time>2026-04-06T10:54:23Z</time></trkpt><trkpt lat="32.99022706631188" lon="9.631700783018848"><ele>209.0</ele><time>2026-04-06T10:54:25Z</time></trkpt><trkpt lat="32.99028241496618" lon="9.631661376729165"><ele>209.0</ele><time>2026-04-06T10:54:27Z</time></trkpt><trkpt lat="32.99033499200374" lon="9.631616553300004"><ele>209.0</ele><time>2026-04-06T10:54:30Z</time></trkpt><trkpt lat="32.990403374934026" lon="9.631576509962338"><ele>209.00000000000003</ele><time>2026-04-06T10:54:33Z</time></trkpt><trkpt lat="32.99046955791366" lon="9.63150580734013"><ele>209.0</ele><time>2026-04-06T10:54:36Z</time></trkpt><trkpt lat="32.9904840948276" lon="9.631408136105195"><ele>209.00000000000003</ele><time>2026-04-06T10:54:38Z</time></trkpt><trkpt lat="32.99052857572197" lon="9.631311806306572"><ele>209.0</ele><time>2026-04-06T10:54:40Z</time></trkpt><trkpt lat="32.99059394266014" lon="9.631224027916069"><ele>209.0</ele><time>2026-04-06T10:54:42Z</time></trkpt><trkpt lat="32.99064711198034" lon="9.631151297734068"><ele>209.0</ele><time>2026-04-06T10:54:44Z</time></trkpt><trkpt lat="32.99068451089273" lon="9.631076554258367"><ele>209.00000000000003</ele><time>2026-04-06T10:54:46Z</time></trkpt><trkpt lat="32.99073225920744" lon="9.630986968119968"><ele>209.0</ele><time>2026-04-06T10:54:48Z</time></trkpt><trkpt lat="32.99077711902658" lon="9.630892940319091"><ele>209.16666666666669</ele><time>2026-04-06T10:54:50Z</time></trkpt><trkpt lat="32.99082403242715" lon="9.630825550221955"><ele>209.33333333333334</ele><time>2026-04-06T10:54:52Z</time></trkpt><trkpt lat="32.990884081858084" lon="9.630762833579835"><ele>209.5</ele><time>2026-04-06T10:54:54Z</time></trkpt><trkpt lat="32.99095441407612" lon="9.630732730402606"><ele>209.66666666666669</ele><time>2026-04-06T10:54:56Z</time></trkpt><trkpt lat="32.99102381850393" lon="9.630686254566259"><ele>209.83333333333334</ele><time>2026-04-06T10:54:58Z</time></trkpt><trkpt lat="32.991104604460375" lon="9.630635672016718"><ele>210.0</ele><time>2026-04-06T10:55:01Z</time></trkpt><trkpt lat="32.991152877192256" lon="9.630586237800424"><ele>210.16666666666666</ele><time>2026-04-06T10:55:03Z</time></trkpt><trkpt lat="32.991186329542884" lon="9.630510218910493"><ele>210.33333333333331</ele><time>2026-04-06T10:55:05Z</time></trkpt><trkpt lat="32.9911992739855" lon="9.630420768858011"><ele>210.5</ele><time>2026-04-06T10:55:07Z</time></trkpt><trkpt lat="32.99123265504467" lon="9.630331271309847"><ele>210.66666666666666</ele><time>2026-04-06T10:55:09Z</time></trkpt><trkpt lat="32.99128171418205" lon="9.630238175724026"><ele>210.83333333333331</ele><time>2026-04-06T10:55:11Z</time></trkpt><trkpt lat="32.99132688459972" lon="9.63014622291762"><ele>211.0</ele><time>2026-04-06T10:55:13Z</time></trkpt><trkpt lat="32.99136069831269" lon="9.63006367299835"><ele>210.66666666666666</ele><time>2026-04-06T10:55:15Z</time></trkpt><trkpt lat="32.99139472101453" lon="9.629985334818116"><ele>210.33333333333331</ele><time>2026-04-06T10:55:17Z</time></trkpt><trkpt lat="32.99143310400951" lon="9.62989954194041"><ele>210.0</ele><time>2026-04-06T10:55:19Z</time></trkpt><trkpt lat="32.99146975286308" lon="9.629826437353584"><ele>209.66666666666669</ele><time>2026-04-06T10:55:21Z</time></trkpt><trkpt lat="32.99151625530634" lon="9.629747921324537"><ele>209.33333333333334</ele><time>2026-04-06T10:55:23Z</time></trkpt><trkpt lat="32.9915374180789" lon="9.629647641674927"><ele>209.0</ele><time>2026-04-06T10:55:25Z</time></trkpt><trkpt lat="32.99152049704492" lon="9.629532689747853"><ele>209.00000000000003</ele><time>2026-04-06T10:55:27Z</time></trkpt><trkpt lat="32.99154192597401" lon="9.62941887242872"><ele>209.0</ele><time>2026-04-06T10:55:29Z</time></trkpt><trkpt lat="32.99160634156209" lon="9.629346980731064"><ele>209.0</ele><time>2026-04-06T10:55:31Z</time></trkpt><trkpt lat="32.991684739802864" lon="9.62935489854904"><ele>209.0</ele><time>2026-04-06T10:55:40Z</time></trkpt><trkpt lat="32.99177557799369" lon="9.629350391756649"><ele>209.00000000000003</ele><time>2026-04-06T10:55:42Z</time></trkpt><trkpt lat="32.99185755339737" lon="9.629342056490957"><ele>209.0</ele><time>2026-04-06T10:55:44Z</time></trkpt><trkpt lat="32.9919608178657" lon="9.629338041779196"><ele>209.00000000000003</ele><time>2026-04-06T10:55:46Z</time></trkpt><trkpt lat="32.99207305609348" lon="9.629337507259844"><ele>209.0</ele><time>2026-04-06T10:55:48Z</time></trkpt><trkpt lat="32.99214170749224" lon="9.629320411443047"><ele>209.0</ele><time>2026-04-06T10:55:49Z</time></trkpt><trkpt lat="32.99221016125198" lon="9.62928592278838"><ele>209.0</ele><time>2026-04-06T10:55:50Z</time></trkpt><trkpt lat="32.99228314753935" lon="9.629241365691332"><ele>209.00000000000003</ele><time>2026-04-06T10:55:51Z</time></trkpt><trkpt lat="32.99235092876535" lon="9.62920768128179"><ele>209.0</ele><time>2026-04-06T10:55:52Z</time></trkpt><trkpt lat="32.99242883724254" lon="9.629193685631826"><ele>209.33333333333334</ele><time>2026-04-06T10:55:53Z</time></trkpt><trkpt lat="32.99250801283738" lon="9.629177338958781"><ele>209.66666666666669</ele><time>2026-04-06T10:55:54Z</time></trkpt><trkpt lat="32.992573821443" lon="9.629172763345485"><ele>210.0</ele><time>2026-04-06T10:55:55Z</time></trkpt><trkpt lat="32.99268648812895" lon="9.629153852529269"><ele>210.33333333333331</ele><time>2026-04-06T10:55:57Z</time></trkpt><trkpt lat="32.99275679136415" lon="9.629128144165644"><ele>210.66666666666666</ele><time>2026-04-06T10:55:59Z</time></trkpt><trkpt lat="32.99282621391501" lon="9.629090629763947"><ele>211.0</ele><time>2026-04-06T10:56:02Z</time></trkpt><trkpt lat="32.992900333281554" lon="9.629039410267282"><ele>211.0</ele><time>2026-04-06T10:56:04Z</time></trkpt><trkpt lat="32.992955285735675" lon="9.628989355276358"><ele>211.0</ele><time>2026-04-06T10:56:06.001Z</time></trkpt><trkpt lat="32.99301001829389" lon="9.628941430474796"><ele>211.0</ele><time>2026-04-06T10:56:07.001Z</time></trkpt><trkpt lat="32.99306875527696" lon="9.628883376642834"><ele>211.0</ele><time>2026-04-06T10:56:08.001Z</time></trkpt><trkpt lat="32.99312428122574" lon="9.628817707026652"><ele>211.0</ele><time>2026-04-06T10:56:11.001Z</time></trkpt><trkpt lat="32.99317082782476" lon="9.628743135390494"><ele>211.0</ele><time>2026-04-06T10:56:13.001Z</time></trkpt><trkpt lat="32.99320660982197" lon="9.62866534306054"><ele>211.0</ele><time>2026-04-06T10:56:15.001Z</time></trkpt><trkpt lat="32.99324553105399" lon="9.628592900163866"><ele>210.8</ele><time>2026-04-06T10:56:17.001Z</time></trkpt><trkpt lat="32.99330229613793" lon="9.628532160905557"><ele>210.60000000000002</ele><time>2026-04-06T10:56:19.001Z</time></trkpt><trkpt lat="32.99338333589957" lon="9.62847505060546"><ele>210.4</ele><time>2026-04-06T10:56:21Z</time></trkpt><trkpt lat="32.99345596156169" lon="9.62842560305858"><ele>210.2</ele><time>2026-04-06T10:56:23Z</time></trkpt><trkpt lat="32.993544059760254" lon="9.628373163811345"><ele>210.0</ele><time>2026-04-06T10:56:25Z</time></trkpt><trkpt lat="32.9936591688869" lon="9.62834677749605"><ele>209.8</ele><time>2026-04-06T10:56:27Z</time></trkpt><trkpt lat="32.99375470867406" lon="9.628263490223729"><ele>209.6</ele><time>2026-04-06T10:56:29Z</time></trkpt><trkpt lat="32.99382191812643" lon="9.628204404713555"><ele>209.39999999999998</ele><time>2026-04-06T10:56:31Z</time></trkpt><trkpt lat="32.993904199179546" lon="9.62815071329721"><ele>209.2</ele><time>2026-04-06T10:56:33Z</time></trkpt><trkpt lat="32.99398074857306" lon="9.628110653142645"><ele>209.0</ele><time>2026-04-06T10:56:35Z</time></trkpt><trkpt lat="32.994057721584134" lon="9.628055917963632"><ele>209.00000000000003</ele><time>2026-04-06T10:56:37Z</time></trkpt><trkpt lat="32.99415482772924" lon="9.627969291776678"><ele>209.0</ele><time>2026-04-06T10:56:39Z</time></trkpt><trkpt lat="32.99422858909841" lon="9.62789847165255"><ele>209.0</ele><time>2026-04-06T10:56:41Z</time></trkpt><trkpt lat="32.99427952800256" lon="9.627808884845356"><ele>209.0</ele><time>2026-04-06T10:56:44Z</time></trkpt><trkpt lat="32.99431925961887" lon="9.627736620596517"><ele>209.00000000000003</ele><time>2026-04-06T10:56:46Z</time></trkpt><trkpt lat="32.9943801528864" lon="9.627710169874995"><ele>209.0</ele><time>2026-04-06T10:56:49Z</time></trkpt><trkpt lat="32.994455443331134" lon="9.627647787653212"><ele>209.16666666666669</ele><time>2026-04-06T10:58:20Z</time></trkpt><trkpt lat="32.99449875124315" lon="9.627556890921674"><ele>209.33333333333334</ele><time>2026-04-06T10:58:22Z</time></trkpt><trkpt lat="32.994518904135944" lon="9.627449752275075"><ele>209.5</ele><time>2026-04-06T10:58:24Z</time></trkpt><trkpt lat="32.99450812384909" lon="9.627348148641548"><ele>209.66666666666669</ele><time>2026-04-06T10:58:26Z</time></trkpt><trkpt lat="32.994498281662835" lon="9.627261802086084"><ele>209.83333333333334</ele><time>2026-04-06T10:58:28Z</time></trkpt><trkpt lat="32.994540289322494" lon="9.627182328090852"><ele>210.0</ele><time>2026-04-06T10:58:30Z</time></trkpt><trkpt lat="32.99457176037075" lon="9.627094935676109"><ele>210.2</ele><time>2026-04-06T10:58:33Z</time></trkpt><trkpt lat="32.99459133383849" lon="9.6269660978719"><ele>210.4</ele><time>2026-04-06T10:58:40Z</time></trkpt><trkpt lat="32.99459712490512" lon="9.626851868589416"><ele>210.60000000000002</ele><time>2026-04-06T10:58:42Z</time></trkpt><trkpt lat="32.99460621116572" lon="9.626729398444617"><ele>210.8</ele><time>2026-04-06T10:58:44Z</time></trkpt><trkpt lat="32.99461274152569" lon="9.626637720708747"><ele>211.0</ele><time>2026-04-06T10:58:45Z</time></trkpt><trkpt lat="32.99461046398296" lon="9.626552791659075"><ele>211.0</ele><time>2026-04-06T10:58:46Z</time></trkpt><trkpt lat="32.99456679578444" lon="9.626394334564429"><ele>211.0</ele><time>2026-04-06T10:58:48Z</time></trkpt><trkpt lat="32.9945395379413" lon="9.62631422779568"><ele>211.0</ele><time>2026-04-06T10:58:49Z</time></trkpt><trkpt lat="32.994539061091686" lon="9.626185961657402"><ele>211.0</ele><time>2026-04-06T10:58:51Z</time></trkpt><trkpt lat="32.994542131441094" lon="9.6260736170506"><ele>211.0</ele><time>2026-04-06T10:58:53Z</time></trkpt><trkpt lat="32.99456269623262" lon="9.625992547389105"><ele>210.66666666666666</ele><time>2026-04-06T10:58:55Z</time></trkpt><trkpt lat="32.994572882407944" lon="9.625900548621185"><ele>210.33333333333331</ele><time>2026-04-06T10:59:03Z</time></trkpt><trkpt lat="32.994601440427665" lon="9.625790915740494"><ele>210.0</ele><time>2026-04-06T10:59:05Z</time></trkpt><trkpt lat="32.99461549296191" lon="9.625715509107831"><ele>209.66666666666669</ele><time>2026-04-06T10:59:06Z</time></trkpt><trkpt lat="32.99463199860444" lon="9.625641741754878"><ele>209.33333333333334</ele><time>2026-04-06T10:59:07Z</time></trkpt><trkpt lat="32.994650131557684" lon="9.625552170163587"><ele>209.0</ele><time>2026-04-06T10:59:08Z</time></trkpt><trkpt lat="32.99467075624406" lon="9.625467436110682"><ele>209.0</ele><time>2026-04-06T10:59:09Z</time></trkpt><trkpt lat="32.994700253702945" lon="9.62537660470959"><ele>209.0</ele><time>2026-04-06T10:59:10Z</time></trkpt><trkpt lat="32.99473774850968" lon="9.625296000088538"><ele>209.0</ele><time>2026-04-06T10:59:11Z</time></trkpt><trkpt lat="32.99475829313293" lon="9.625220933086515"><ele>209.0</ele><time>2026-04-06T10:59:12Z</time></trkpt><trkpt lat="32.99479338399246" lon="9.625094227197563"><ele>209.0</ele><time>2026-04-06T10:59:14Z</time></trkpt><trkpt lat="32.99484157660646" lon="9.624958248307676"><ele>209.2</ele><time>2026-04-06T10:59:16Z</time></trkpt><trkpt lat="32.9949026281925" lon="9.624840630549427"><ele>209.39999999999998</ele><time>2026-04-06T10:59:18Z</time></trkpt><trkpt lat="32.99494744359894" lon="9.624746840812909"><ele>209.6</ele><time>2026-04-06T10:59:20Z</time></trkpt><trkpt lat="32.994982643217725" lon="9.624673250659429"><ele>209.8</ele><time>2026-04-06T10:59:22Z</time></trkpt><trkpt lat="32.99501762657137" lon="9.62457547243767"><ele>210.0</ele><time>2026-04-06T10:59:24Z</time></trkpt><trkpt lat="32.99505413359513" lon="9.624435174133898"><ele>210.33333333333334</ele><time>2026-04-06T10:59:26Z</time></trkpt><trkpt lat="32.99506562271327" lon="9.624345419194059"><ele>210.66666666666669</ele><time>2026-04-06T10:59:27Z</time></trkpt><trkpt lat="32.99507973714943" lon="9.624267816990233"><ele>211.0</ele><time>2026-04-06T10:59:28Z</time></trkpt><trkpt lat="32.99510119840694" lon="9.62417853003025"><ele>211.33333333333334</ele><time>2026-04-06T10:59:30Z</time></trkpt><trkpt lat="32.99511456253342" lon="9.624071020170465"><ele>211.66666666666669</ele><time>2026-04-06T10:59:33Z</time></trkpt><trkpt lat="32.995131947008204" lon="9.623974546053171"><ele>212.0</ele><time>2026-04-06T10:59:36Z</time></trkpt><trkpt lat="32.99516810425987" lon="9.62389292435921"><ele>212.00000000000003</ele><time>2026-04-06T10:59:39Z</time></trkpt><trkpt lat="32.99521376163273" lon="9.623820070497501"><ele>212.0</ele><time>2026-04-06T10:59:43Z</time></trkpt><trkpt lat="32.99527709368676" lon="9.623728326826306"><ele>212.0</ele><time>2026-04-06T10:59:46Z</time></trkpt><trkpt lat="32.995340059341714" lon="9.62363186406163"><ele>212.0</ele><time>2026-04-06T10:59:48Z</time></trkpt><trkpt lat="32.99538435752858" lon="9.623569944380685"><ele>212.00000000000003</ele><time>2026-04-06T10:59:49Z</time></trkpt><trkpt lat="32.99542818671491" lon="9.62351558230721"><ele>212.0</ele><time>2026-04-06T10:59:50Z</time></trkpt><trkpt lat="32.995471935311535" lon="9.623456138586183"><ele>212.16666666666669</ele><time>2026-04-06T10:59:51Z</time></trkpt><trkpt lat="32.99552023725087" lon="9.623381590534262"><ele>212.33333333333334</ele><time>2026-04-06T10:59:52Z</time></trkpt><trkpt lat="32.995566809055724" lon="9.623318161011294"><ele>212.5</ele><time>2026-04-06T10:59:53Z</time></trkpt><trkpt lat="32.99561692519612" lon="9.623241499281567"><ele>212.66666666666669</ele><time>2026-04-06T10:59:54Z</time></trkpt><trkpt lat="32.99566073718872" lon="9.623162555519926"><ele>212.83333333333334</ele><time>2026-04-06T10:59:55Z</time></trkpt><trkpt lat="32.995705621367804" lon="9.623088836990771"><ele>213.0</ele><time>2026-04-06T10:59:56Z</time></trkpt><trkpt lat="32.995765124829866" lon="9.623024501956175"><ele>212.83333333333334</ele><time>2026-04-06T10:59:57Z</time></trkpt><trkpt lat="32.995837012681676" lon="9.622957748910958"><ele>212.66666666666669</ele><time>2026-04-06T10:59:58Z</time></trkpt><trkpt lat="32.99588421185781" lon="9.622879752886893"><ele>212.5</ele><time>2026-04-06T10:59:59Z</time></trkpt><trkpt lat="32.99589388197272" lon="9.62276185771265"><ele>212.33333333333334</ele><time>2026-04-06T11:00:01Z</time></trkpt><trkpt lat="32.99590614544402" lon="9.62268154060412"><ele>212.16666666666669</ele><time>2026-04-06T11:00:03Z</time></trkpt><trkpt lat="32.995940351571114" lon="9.622588388493824"><ele>212.0</ele><time>2026-04-06T11:00:05.999Z</time></trkpt><trkpt lat="32.995967513414406" lon="9.622474382261798"><ele>212.00000000000003</ele><time>2026-04-06T11:00:12.999Z</time></trkpt><trkpt lat="32.99599348142541" lon="9.622349953210625"><ele>212.0</ele><time>2026-04-06T11:00:14.999Z</time></trkpt><trkpt lat="32.99601468784306" lon="9.622275994420178"><ele>212.0</ele><time>2026-04-06T11:00:15.999Z</time></trkpt><trkpt lat="32.99606886292828" lon="9.62219834337412"><ele>212.0</ele><time>2026-04-06T11:00:17Z</time></trkpt><trkpt lat="32.996128630874146" lon="9.622127986446845"><ele>212.00000000000003</ele><time>2026-04-06T11:00:18Z</time></trkpt><trkpt lat="32.99616355461866" lon="9.622041272611156"><ele>212.0</ele><time>2026-04-06T11:00:20Z</time></trkpt><trkpt lat="32.99616476132757" lon="9.621959952439326"><ele>212.0</ele><time>2026-04-06T11:00:23Z</time></trkpt><trkpt lat="32.99617016449524" lon="9.621835916406464"><ele>212.0</ele><time>2026-04-06T11:00:25Z</time></trkpt><trkpt lat="32.99618401966408" lon="9.621709722389227"><ele>212.0</ele><time>2026-04-06T11:00:27Z</time></trkpt><trkpt lat="32.996207289989904" lon="9.621631677116449"><ele>212.0</ele><time>2026-04-06T11:00:29Z</time></trkpt><trkpt lat="32.99624771825016" lon="9.62153075362505"><ele>212.0</ele><time>2026-04-06T11:00:32Z</time></trkpt><trkpt lat="32.99631300521302" lon="9.62144904515533"><ele>212.00000000000003</ele><time>2026-04-06T11:00:36Z</time></trkpt><trkpt lat="32.99637813431562" lon="9.621374374120565"><ele>212.0</ele><time>2026-04-06T11:00:38Z</time></trkpt><trkpt lat="32.996420933129876" lon="9.62129105775475"><ele>212.0</ele><time>2026-04-06T11:00:40Z</time></trkpt><trkpt lat="32.99645805052484" lon="9.621207890694729"><ele>212.0</ele><time>2026-04-06T11:00:42Z</time></trkpt><trkpt lat="32.99651461953187" lon="9.621095944322972"><ele>212.00000000000003</ele><time>2026-04-06T11:00:44Z</time></trkpt><trkpt lat="32.996544058639174" lon="9.62102882687993"><ele>212.0</ele><time>2026-04-06T11:00:45Z</time></trkpt><trkpt lat="32.9966081415758" lon="9.620901177808925"><ele>212.33333333333334</ele><time>2026-04-06T11:00:47Z</time></trkpt><trkpt lat="32.996633089723" lon="9.620821358995725"><ele>212.66666666666669</ele><time>2026-04-06T11:00:48Z</time></trkpt><trkpt lat="32.996654366298436" lon="9.62073359952284"><ele>213.0</ele><time>2026-04-06T11:00:49Z</time></trkpt><trkpt lat="32.99669076752847" lon="9.620633312967376"><ele>213.33333333333331</ele><time>2026-04-06T11:00:50Z</time></trkpt><trkpt lat="32.99673231728344" lon="9.620534187085788"><ele>213.66666666666666</ele><time>2026-04-06T11:00:51Z</time></trkpt><trkpt lat="32.99676543974643" lon="9.62044099360113"><ele>214.0</ele><time>2026-04-06T11:00:52Z</time></trkpt><trkpt lat="32.99680555429334" lon="9.620328875665011"><ele>214.49999999999997</ele><time>2026-04-06T11:00:54Z</time></trkpt><trkpt lat="32.996873053834165" lon="9.62025679677695"><ele>215.0</ele><time>2026-04-06T11:00:57Z</time></trkpt><trkpt lat="32.996922674688435" lon="9.620195571126999"><ele>215.5</ele><time>2026-04-06T11:01:00Z</time></trkpt><trkpt lat="32.996970290901466" lon="9.620107476141182"><ele>216.0</ele><time>2026-04-06T11:01:03Z</time></trkpt><trkpt lat="32.996979169946414" lon="9.619998549583736"><ele>216.49999999999997</ele><time>2026-04-06T11:01:05Z</time></trkpt><trkpt lat="32.99702146452159" lon="9.619917039636684"><ele>217.0</ele><time>2026-04-06T11:01:07Z</time></trkpt><trkpt lat="32.99704912147515" lon="9.619841060582022"><ele>216.99999999999997</ele><time>2026-04-06T11:01:09Z</time></trkpt><trkpt lat="32.99708142914133" lon="9.61977466562007"><ele>217.0</ele><time>2026-04-06T11:01:11Z</time></trkpt><trkpt lat="32.99712718894957" lon="9.619670413387206"><ele>217.0</ele><time>2026-04-06T11:01:14Z</time></trkpt><trkpt lat="32.99718574970332" lon="9.619567919314616"><ele>217.0</ele><time>2026-04-06T11:01:16Z</time></trkpt><trkpt lat="32.99721611817503" lon="9.619495941895572"><ele>216.99999999999997</ele><time>2026-04-06T11:01:17Z</time></trkpt><trkpt lat="32.997249998896166" lon="9.619419885750602"><ele>217.0</ele><time>2026-04-06T11:01:18Z</time></trkpt><trkpt lat="32.99727735992255" lon="9.619336885775098"><ele>217.49999999999997</ele><time>2026-04-06T11:01:19Z</time></trkpt><trkpt lat="32.99731336598975" lon="9.619256956375292"><ele>218.0</ele><time>2026-04-06T11:01:20Z</time></trkpt><trkpt lat="32.9973553646045" lon="9.619175160371094"><ele>218.5</ele><time>2026-04-06T11:01:21Z</time></trkpt><trkpt lat="32.99740062590485" lon="9.619108304389073"><ele>219.0</ele><time>2026-04-06T11:01:22Z</time></trkpt><trkpt lat="32.997447146708794" lon="9.619037985578787"><ele>219.49999999999997</ele><time>2026-04-06T11:01:23Z</time></trkpt><trkpt lat="32.99746486705257" lon="9.618954104989704"><ele>220.0</ele><time>2026-04-06T11:01:24Z</time></trkpt><trkpt lat="32.997501585854515" lon="9.618873538816066"><ele>219.83333333333331</ele><time>2026-04-06T11:01:25Z</time></trkpt><trkpt lat="32.997550176695036" lon="9.618795195512314"><ele>219.66666666666666</ele><time>2026-04-06T11:01:26Z</time></trkpt><trkpt lat="32.99761603432808" lon="9.618734514574507"><ele>219.5</ele><time>2026-04-06T11:01:27Z</time></trkpt><trkpt lat="32.99767204270557" lon="9.618681513247308"><ele>219.33333333333331</ele><time>2026-04-06T11:01:28Z</time></trkpt><trkpt lat="32.99771476863685" lon="9.618617133483198"><ele>219.16666666666666</ele><time>2026-04-06T11:01:29Z</time></trkpt><trkpt lat="32.99775498356182" lon="9.618557135250171"><ele>219.0</ele><time>2026-04-06T11:01:30Z</time></trkpt><trkpt lat="32.997841674904286" lon="9.618461088072346"><ele>220.0</ele><time>2026-04-06T11:01:32Z</time></trkpt><trkpt lat="32.99792063604024" lon="9.618382989983798"><ele>220.99999999999997</ele><time>2026-04-06T11:01:34Z</time></trkpt><trkpt lat="32.99799674438797" lon="9.618319071399165"><ele>221.99999999999997</ele><time>2026-04-06T11:01:36Z</time></trkpt><trkpt lat="32.99806216114902" lon="9.618219552815708"><ele>223.0</ele><time>2026-04-06T11:01:38Z</time></trkpt><trkpt lat="32.998086155791164" lon="9.618077698293247"><ele>224.0</ele><time>2026-04-06T11:01:40Z</time></trkpt><trkpt lat="32.998083412703366" lon="9.61797447429625"><ele>224.0</ele><time>2026-04-06T11:01:42Z</time></trkpt><trkpt lat="32.99807531370413" lon="9.617877863186742"><ele>224.0</ele><time>2026-04-06T11:01:44Z</time></trkpt><trkpt lat="32.998069704298715" lon="9.617786807404034"><ele>224.0</ele><time>2026-04-06T11:01:46Z</time></trkpt><trkpt lat="32.998076043875024" lon="9.617707306468395"><ele>224.0</ele><time>2026-04-06T11:01:50Z</time></trkpt><trkpt lat="32.99801944852098" lon="9.61764421845612"><ele>224.0</ele><time>2026-04-06T11:02:05.999Z</time></trkpt><trkpt lat="32.99803353125741" lon="9.617569597641385"><ele>224.0</ele><time>2026-04-06T11:02:13.999Z</time></trkpt><trkpt lat="32.997996186137605" lon="9.617507389871394"><ele>224.0</ele><time>2026-04-06T11:04:36.999Z</time></trkpt><trkpt lat="32.99794749959665" lon="9.61743282489844"><ele>224.00000000000003</ele><time>2026-04-06T11:05:09Z</time></trkpt><trkpt lat="32.997888084636564" lon="9.617396742703917"><ele>224.0</ele><time>2026-04-06T11:05:15.999Z</time></trkpt><trkpt lat="32.99783765818256" lon="9.617345669937547"><ele>224.0</ele><time>2026-04-06T11:05:23.999Z</time></trkpt><trkpt lat="32.99778477863972" lon="9.617299104170481"><ele>224.0</ele><time>2026-04-06T11:05:35.999Z</time></trkpt><trkpt lat="32.99772619193583" lon="9.617263312905115"><ele>224.00000000000003</ele><time>2026-04-06T11:05:49.999Z</time></trkpt><trkpt lat="32.99764206885855" lon="9.617133629655722"><ele>224.0</ele><time>2026-04-06T11:19:37.001Z</time></trkpt><trkpt lat="32.99770079352105" lon="9.617099935008277"><ele>224.0</ele><time>2026-04-06T11:20:38.001Z</time></trkpt><trkpt lat="32.99774124098209" lon="9.617031936959592"><ele>224.0</ele><time>2026-04-06T11:20:46.001Z</time></trkpt><trkpt lat="32.99777401968249" lon="9.616961597055125"><ele>224.0</ele><time>2026-04-06T11:20:50.001Z</time></trkpt><trkpt lat="32.99779975323348" lon="9.616884004008469"><ele>224.0</ele><time>2026-04-06T11:20:55.001Z</time></trkpt><trkpt lat="32.99777054914233" lon="9.616971201015907"><ele>224.0</ele><time>2026-04-06T11:23:42Z</time></trkpt><trkpt lat="32.99779055145388" lon="9.617045346679054"><ele>224.0</ele><time>2026-04-06T11:24:43Z</time></trkpt><trkpt lat="32.99782637434139" lon="9.61711447132661"><ele>224.0</ele><time>2026-04-06T11:24:56Z</time></trkpt><trkpt lat="32.99784113271599" lon="9.61719259745832"><ele>224.0</ele><time>2026-04-06T11:25:04Z</time></trkpt><trkpt lat="32.9978646205112" lon="9.617272068811412"><ele>224.0</ele><time>2026-04-06T11:25:19Z</time></trkpt><trkpt lat="32.997897284253746" lon="9.617351553813041"><ele>224.0</ele><time>2026-04-06T11:25:26Z</time></trkpt><trkpt lat="32.99794060001056" lon="9.617421591849155"><ele>224.0</ele><time>2026-04-06T11:25:33Z</time></trkpt><trkpt lat="32.997974558810505" lon="9.617490867589813"><ele>224.0</ele><time>2026-04-06T11:25:40Z</time></trkpt><trkpt lat="32.998025389265685" lon="9.617540207847192"><ele>224.0</ele><time>2026-04-06T11:25:47Z</time></trkpt><trkpt lat="32.998086958163675" lon="9.617500564369857"><ele>224.0</ele><time>2026-04-06T11:28:50Z</time></trkpt><trkpt lat="32.99819605202288" lon="9.617480036323887"><ele>224.00000000000003</ele><time>2026-04-06T11:28:52Z</time></trkpt><trkpt lat="32.99829452891923" lon="9.617451708610314"><ele>224.0</ele><time>2026-04-06T11:28:54Z</time></trkpt><trkpt lat="32.99834667733515" lon="9.617398635801193"><ele>224.0</ele><time>2026-04-06T11:28:55Z</time></trkpt><trkpt lat="32.998402792923365" lon="9.61734815305164"><ele>224.0</ele><time>2026-04-06T11:28:57Z</time></trkpt><trkpt lat="32.998470527704114" lon="9.617327742741216"><ele>224.00000000000003</ele><time>2026-04-06T11:28:59Z</time></trkpt><trkpt lat="32.99850565607122" lon="9.617239840002824"><ele>224.0</ele><time>2026-04-06T11:29:01Z</time></trkpt><trkpt lat="32.99860309959711" lon="9.61720790431194"><ele>223.00000000000003</ele><time>2026-04-06T11:29:03Z</time></trkpt><trkpt lat="32.998696429832954" lon="9.617176744163379"><ele>222.0</ele><time>2026-04-06T11:29:05Z</time></trkpt><trkpt lat="32.998770059263926" lon="9.617152638374423"><ele>221.0</ele><time>2026-04-06T11:29:07Z</time></trkpt><trkpt lat="32.99883952135386" lon="9.617127839680558"><ele>220.0</ele><time>2026-04-06T11:29:09Z</time></trkpt><trkpt lat="32.99894544319157" lon="9.617119296781699"><ele>219.00000000000003</ele><time>2026-04-06T11:29:11Z</time></trkpt><trkpt lat="32.99902405974791" lon="9.617060230567855"><ele>218.0</ele><time>2026-04-06T11:29:13Z</time></trkpt><trkpt lat="32.99910144347082" lon="9.617059449097546"><ele>218.00000000000003</ele><time>2026-04-06T11:30:08Z</time></trkpt><trkpt lat="32.9991647233949" lon="9.617071363128021"><ele>218.0</ele><time>2026-04-06T11:30:15Z</time></trkpt><trkpt lat="32.99923154692028" lon="9.617121434725671"><ele>218.0</ele><time>2026-04-06T11:30:17Z</time></trkpt><trkpt lat="32.99929220038677" lon="9.617166862670816"><ele>218.0</ele><time>2026-04-06T11:30:19Z</time></trkpt><trkpt lat="32.99936950251516" lon="9.617195231529458"><ele>218.00000000000003</ele><time>2026-04-06T11:30:23Z</time></trkpt><trkpt lat="32.99946811942106" lon="9.617101936680363"><ele>218.0</ele><time>2026-04-06T11:30:48Z</time></trkpt><trkpt lat="32.99952318721953" lon="9.61704915463822"><ele>218.0</ele><time>2026-04-06T11:30:49Z</time></trkpt><trkpt lat="32.99958687310999" lon="9.617004500255378"><ele>218.0</ele><time>2026-04-06T11:30:50Z</time></trkpt><trkpt lat="32.99965884117749" lon="9.61696151344054"><ele>218.0</ele><time>2026-04-06T11:30:51Z</time></trkpt><trkpt lat="32.999739846145076" lon="9.616934724889896"><ele>218.0</ele><time>2026-04-06T11:30:52Z</time></trkpt><trkpt lat="32.99981215746527" lon="9.616907616957738"><ele>218.0</ele><time>2026-04-06T11:30:53Z</time></trkpt><trkpt lat="32.999856969861185" lon="9.616852832957585"><ele>218.0</ele><time>2026-04-06T11:30:55Z</time></trkpt><trkpt lat="32.99990840681093" lon="9.616807039444836"><ele>218.0</ele><time>2026-04-06T11:30:57Z</time></trkpt><trkpt lat="32.99997933350133" lon="9.616745981052825"><ele>218.33333333333334</ele><time>2026-04-06T11:30:59Z</time></trkpt><trkpt lat="33.0000650344408" lon="9.61669787078924"><ele>218.66666666666669</ele><time>2026-04-06T11:31:02Z</time></trkpt><trkpt lat="33.000144416941936" lon="9.616656922607033"><ele>219.0</ele><time>2026-04-06T11:31:05Z</time></trkpt><trkpt lat="33.00021933429103" lon="9.6166138692649"><ele>219.33333333333331</ele><time>2026-04-06T11:31:07Z</time></trkpt><trkpt lat="33.00030357441718" lon="9.616573447397371"><ele>219.66666666666666</ele><time>2026-04-06T11:31:09Z</time></trkpt><trkpt lat="33.00039009305199" lon="9.61653750787248"><ele>220.0</ele><time>2026-04-06T11:31:11Z</time></trkpt><trkpt lat="33.00047486945149" lon="9.616508913363983"><ele>220.0</ele><time>2026-04-06T11:31:13Z</time></trkpt><trkpt lat="33.00057018754337" lon="9.616451876173171"><ele>220.0</ele><time>2026-04-06T11:31:15Z</time></trkpt><trkpt lat="33.000660928887015" lon="9.616398886794343"><ele>220.0</ele><time>2026-04-06T11:31:17Z</time></trkpt><trkpt lat="33.00075883532322" lon="9.616333584784893"><ele>220.0</ele><time>2026-04-06T11:31:19Z</time></trkpt><trkpt lat="33.00085078489284" lon="9.61627492383686"><ele>220.0</ele><time>2026-04-06T11:31:21Z</time></trkpt><trkpt lat="33.00094099877288" lon="9.616211674769053"><ele>220.0</ele><time>2026-04-06T11:31:23Z</time></trkpt><trkpt lat="33.001030215036636" lon="9.616149333530949"><ele>220.0</ele><time>2026-04-06T11:31:25Z</time></trkpt><trkpt lat="33.001100293037496" lon="9.616116226698797"><ele>220.0</ele><time>2026-04-06T11:31:27Z</time></trkpt><trkpt lat="33.001184126026885" lon="9.616074994444064"><ele>220.0</ele><time>2026-04-06T11:31:29Z</time></trkpt><trkpt lat="33.00125830247991" lon="9.616010667068549"><ele>220.0</ele><time>2026-04-06T11:31:31Z</time></trkpt><trkpt lat="33.001347403266756" lon="9.615950766069062"><ele>219.99999999999997</ele><time>2026-04-06T11:31:33Z</time></trkpt><trkpt lat="33.0014161143922" lon="9.615925059933284"><ele>220.0</ele><time>2026-04-06T11:31:35Z</time></trkpt><trkpt lat="33.0014863934726" lon="9.61589476554274"><ele>220.0</ele><time>2026-04-06T11:31:37Z</time></trkpt><trkpt lat="33.001554053867174" lon="9.615824180617153"><ele>220.0</ele><time>2026-04-06T11:31:39Z</time></trkpt><trkpt lat="33.001623061496716" lon="9.61574743699108"><ele>219.99999999999997</ele><time>2026-04-06T11:31:41Z</time></trkpt><trkpt lat="33.001709804482466" lon="9.615664239800852"><ele>220.0</ele><time>2026-04-06T11:31:43Z</time></trkpt><trkpt lat="33.00176301314" lon="9.615620802168863"><ele>219.99999999999997</ele><time>2026-04-06T11:31:44Z</time></trkpt><trkpt lat="33.00183311381289" lon="9.615580623576879"><ele>220.0</ele><time>2026-04-06T11:31:45Z</time></trkpt><trkpt lat="33.00190398094388" lon="9.615540358628197"><ele>220.0</ele><time>2026-04-06T11:31:46Z</time></trkpt><trkpt lat="33.00196845756818" lon="9.615483040273515"><ele>220.0</ele><time>2026-04-06T11:31:47Z</time></trkpt><trkpt lat="33.00203165491107" lon="9.61542125048976"><ele>219.99999999999997</ele><time>2026-04-06T11:31:48Z</time></trkpt><trkpt lat="33.00207944624383" lon="9.61536120022112"><ele>220.0</ele><time>2026-04-06T11:31:49Z</time></trkpt><trkpt lat="33.00216653332763" lon="9.615306761112517"><ele>219.99999999999997</ele><time>2026-04-06T11:31:51Z</time></trkpt><trkpt lat="33.00222730513007" lon="9.615336408859285"><ele>220.0</ele><time>2026-04-06T11:31:53Z</time></trkpt><trkpt lat="33.00233717459605" lon="9.615362728202255"><ele>220.0</ele><time>2026-04-06T11:31:55Z</time></trkpt><trkpt lat="33.00239732290224" lon="9.615320835632573"><ele>220.0</ele><time>2026-04-06T11:31:56Z</time></trkpt><trkpt lat="33.002446015830614" lon="9.615245863866669"><ele>219.99999999999997</ele><time>2026-04-06T11:31:57Z</time></trkpt><trkpt lat="33.00252190711206" lon="9.615135841662529"><ele>220.0</ele><time>2026-04-06T11:31:59Z</time></trkpt><trkpt lat="33.00259585602815" lon="9.615060101708755"><ele>219.49999999999997</ele><time>2026-04-06T11:32:01Z</time></trkpt><trkpt lat="33.00266645224611" lon="9.615010072225084"><ele>219.0</ele><time>2026-04-06T11:32:03Z</time></trkpt><trkpt lat="33.00273456493556" lon="9.614971810543288"><ele>218.5</ele><time>2026-04-06T11:32:05Z</time></trkpt><trkpt lat="33.002801014290384" lon="9.614953055300218"><ele>218.0</ele><time>2026-04-06T11:32:07Z</time></trkpt><trkpt lat="33.0028845032964" lon="9.614940794652316"><ele>217.49999999999997</ele><time>2026-04-06T11:32:09Z</time></trkpt><trkpt lat="33.00298393740136" lon="9.614907564166552"><ele>217.0</ele><time>2026-04-06T11:32:11Z</time></trkpt><trkpt lat="33.00309079056523" lon="9.61481989216244"><ele>216.99999999999997</ele><time>2026-04-06T11:32:13Z</time></trkpt><trkpt lat="33.00314234634741" lon="9.614764040477441"><ele>217.0</ele><time>2026-04-06T11:32:14Z</time></trkpt><trkpt lat="33.00319200299993" lon="9.614704792175345"><ele>217.0</ele><time>2026-04-06T11:32:15Z</time></trkpt><trkpt lat="33.00324869955632" lon="9.614640062300708"><ele>217.0</ele><time>2026-04-06T11:32:16Z</time></trkpt><trkpt lat="33.00332001478283" lon="9.614544241011306"><ele>216.99999999999997</ele><time>2026-04-06T11:32:18Z</time></trkpt><trkpt lat="33.00337853722592" lon="9.614485687202585"><ele>217.0</ele><time>2026-04-06T11:32:21Z</time></trkpt><trkpt lat="33.0034475569104" lon="9.614432317702743"><ele>217.0</ele><time>2026-04-06T11:32:23Z</time></trkpt><trkpt lat="33.00354070047872" lon="9.614370703589588"><ele>217.0</ele><time>2026-04-06T11:32:25Z</time></trkpt><trkpt lat="33.00361747719541" lon="9.614301534032485"><ele>217.0</ele><time>2026-04-06T11:32:27Z</time></trkpt><trkpt lat="33.00370202873131" lon="9.614243582148715"><ele>217.0</ele><time>2026-04-06T11:32:29Z</time></trkpt><trkpt lat="33.003792692435574" lon="9.61420426852825"><ele>217.0</ele><time>2026-04-06T11:32:31Z</time></trkpt><trkpt lat="33.00388019467861" lon="9.61417407197742"><ele>216.99999999999997</ele><time>2026-04-06T11:32:33Z</time></trkpt><trkpt lat="33.00396184120786" lon="9.614171821497713"><ele>217.0</ele><time>2026-04-06T11:32:35Z</time></trkpt><trkpt lat="33.00405227345902" lon="9.614171593294849"><ele>217.0</ele><time>2026-04-06T11:32:38Z</time></trkpt><trkpt lat="33.00413481685936" lon="9.614164715792532"><ele>217.0</ele><time>2026-04-06T11:32:40Z</time></trkpt><trkpt lat="33.00422435519851" lon="9.614154390079642"><ele>216.99999999999997</ele><time>2026-04-06T11:32:42Z</time></trkpt><trkpt lat="33.00431716553545" lon="9.614122727857438"><ele>217.0</ele><time>2026-04-06T11:32:44Z</time></trkpt><trkpt lat="33.004440548408155" lon="9.614092068495482"><ele>216.6</ele><time>2026-04-06T11:32:46Z</time></trkpt><trkpt lat="33.00453351282144" lon="9.614034091791709"><ele>216.2</ele><time>2026-04-06T11:32:48Z</time></trkpt><trkpt lat="33.00462559549905" lon="9.614044104390178"><ele>215.8</ele><time>2026-04-06T11:32:50Z</time></trkpt><trkpt lat="33.00472618871526" lon="9.614069099389573"><ele>215.4</ele><time>2026-04-06T11:32:53Z</time></trkpt><trkpt lat="33.004830318038145" lon="9.614073219129901"><ele>215.0</ele><time>2026-04-06T11:32:55Z</time></trkpt><trkpt lat="33.0049273449841" lon="9.614111629199984"><ele>214.4</ele><time>2026-04-06T11:32:57Z</time></trkpt><trkpt lat="33.005023614375716" lon="9.614194472792402"><ele>213.8</ele><time>2026-04-06T11:32:59Z</time></trkpt><trkpt lat="33.00510488546566" lon="9.614282193635674"><ele>213.2</ele><time>2026-04-06T11:33:01Z</time></trkpt><trkpt lat="33.00519485279794" lon="9.614346123449035"><ele>212.6</ele><time>2026-04-06T11:33:03Z</time></trkpt><trkpt lat="33.005269684596534" lon="9.614418633507967"><ele>212.0</ele><time>2026-04-06T11:33:05Z</time></trkpt><trkpt lat="33.00534722749604" lon="9.61448448663148"><ele>211.39999999999998</ele><time>2026-04-06T11:33:07Z</time></trkpt><trkpt lat="33.00541207436534" lon="9.614565937957527"><ele>210.79999999999998</ele><time>2026-04-06T11:33:09Z</time></trkpt><trkpt lat="33.00548863264846" lon="9.614641005655914"><ele>210.2</ele><time>2026-04-06T11:33:11Z</time></trkpt><trkpt lat="33.005575067102875" lon="9.614707102423056"><ele>209.6</ele><time>2026-04-06T11:33:13Z</time></trkpt><trkpt lat="33.00566860464763" lon="9.614752562429489"><ele>209.0</ele><time>2026-04-06T11:33:15Z</time></trkpt><trkpt lat="33.005765682076515" lon="9.614806694719428"><ele>209.0</ele><time>2026-04-06T11:33:17Z</time></trkpt><trkpt lat="33.00587679995538" lon="9.614856860972962"><ele>209.0</ele><time>2026-04-06T11:33:19Z</time></trkpt><trkpt lat="33.005954572584656" lon="9.614888406952387"><ele>209.0</ele><time>2026-04-06T11:33:20Z</time></trkpt><trkpt lat="33.00603521286142" lon="9.614929142673002"><ele>209.0</ele><time>2026-04-06T11:33:21Z</time></trkpt><trkpt lat="33.00612098102693" lon="9.614966212429737"><ele>209.0</ele><time>2026-04-06T11:33:22Z</time></trkpt><trkpt lat="33.00620451959577" lon="9.615026255431927"><ele>209.00000000000003</ele><time>2026-04-06T11:33:23Z</time></trkpt><trkpt lat="33.006268908798425" lon="9.615108201514037"><ele>209.0</ele><time>2026-04-06T11:33:24Z</time></trkpt><trkpt lat="33.00633719320723" lon="9.615186578646686"><ele>209.0</ele><time>2026-04-06T11:33:25Z</time></trkpt><trkpt lat="33.006415558851366" lon="9.615251333926254"><ele>209.0</ele><time>2026-04-06T11:33:26Z</time></trkpt><trkpt lat="33.006473520729244" lon="9.615311472632982"><ele>209.00000000000003</ele><time>2026-04-06T11:33:27Z</time></trkpt><trkpt lat="33.00652633453186" lon="9.61537049986857"><ele>209.0</ele><time>2026-04-06T11:33:28Z</time></trkpt><trkpt lat="33.006577412465774" lon="9.61541616254279"><ele>208.79999999999998</ele><time>2026-04-06T11:33:29Z</time></trkpt><trkpt lat="33.0066664770065" lon="9.615474553479528"><ele>208.6</ele><time>2026-04-06T11:33:31Z</time></trkpt><trkpt lat="33.00673822586821" lon="9.615545975896381"><ele>208.4</ele><time>2026-04-06T11:33:33Z</time></trkpt><trkpt lat="33.006811373804844" lon="9.615615210650219"><ele>208.2</ele><time>2026-04-06T11:33:35Z</time></trkpt><trkpt lat="33.00688488022" lon="9.615665677495127"><ele>208.0</ele><time>2026-04-06T11:33:37Z</time></trkpt><trkpt lat="33.006963586066384" lon="9.615714533681238"><ele>207.99999999999997</ele><time>2026-04-06T11:33:39Z</time></trkpt><trkpt lat="33.00704541112026" lon="9.61577240165412"><ele>208.0</ele><time>2026-04-06T11:33:41Z</time></trkpt><trkpt lat="33.00711575730471" lon="9.615837626534173"><ele>208.0</ele><time>2026-04-06T11:33:43Z</time></trkpt><trkpt lat="33.00717507209183" lon="9.615894744681388"><ele>208.0</ele><time>2026-04-06T11:33:45Z</time></trkpt><trkpt lat="33.00722980335298" lon="9.615945411813573"><ele>207.99999999999997</ele><time>2026-04-06T11:33:47Z</time></trkpt><trkpt lat="33.00729133095733" lon="9.615999152226513"><ele>208.0</ele><time>2026-04-06T11:33:49Z</time></trkpt><trkpt lat="33.00735655716684" lon="9.616059262292989"><ele>207.99999999999997</ele><time>2026-04-06T11:33:51.001Z</time></trkpt><trkpt lat="33.00743078836608" lon="9.616099058663691"><ele>208.0</ele><time>2026-04-06T11:33:53.001Z</time></trkpt><trkpt lat="33.00749827638414" lon="9.616148308411885"><ele>208.0</ele><time>2026-04-06T11:33:55.001Z</time></trkpt><trkpt lat="33.00756643668486" lon="9.616215776693632"><ele>208.0</ele><time>2026-04-06T11:33:57.001Z</time></trkpt><trkpt lat="33.007632652976675" lon="9.61630060719987"><ele>207.99999999999997</ele><time>2026-04-06T11:33:59.001Z</time></trkpt><trkpt lat="33.00772001188251" lon="9.616332754832012"><ele>208.0</ele><time>2026-04-06T11:34:01.001Z</time></trkpt><trkpt lat="33.0077934870424" lon="9.616362472297396"><ele>208.49999999999997</ele><time>2026-04-06T11:34:03.001Z</time></trkpt><trkpt lat="33.007880843717466" lon="9.616371576928008"><ele>209.0</ele><time>2026-04-06T11:34:06.001Z</time></trkpt><trkpt lat="33.00795490189769" lon="9.616355549047169"><ele>209.5</ele><time>2026-04-06T11:34:08.001Z</time></trkpt><trkpt lat="33.00801769868478" lon="9.616315347186182"><ele>210.0</ele><time>2026-04-06T11:34:10.001Z</time></trkpt><trkpt lat="33.008080854362184" lon="9.616296722711576"><ele>210.49999999999997</ele><time>2026-04-06T11:34:12Z</time></trkpt><trkpt lat="33.00816825411935" lon="9.61629098949477"><ele>211.0</ele><time>2026-04-06T11:34:15Z</time></trkpt><trkpt lat="33.008218857661966" lon="9.616337913231687"><ele>211.0</ele><time>2026-04-06T11:34:18Z</time></trkpt><trkpt lat="33.00819132789539" lon="9.616408877972392"><ele>211.0</ele><time>2026-04-06T11:34:30Z</time></trkpt><trkpt lat="33.0082567752726" lon="9.616423776703868"><ele>211.0</ele><time>2026-04-06T11:36:31Z</time></trkpt><trkpt lat="33.00832227350799" lon="9.616429762287172"><ele>211.0</ele><time>2026-04-06T11:36:39Z</time></trkpt><trkpt lat="33.0083841502446" lon="9.616444910861695"><ele>211.0</ele><time>2026-04-06T11:37:01Z</time></trkpt><trkpt lat="33.00843995551882" lon="9.616488687007733"><ele>211.0</ele><time>2026-04-06T11:37:16Z</time></trkpt><trkpt lat="33.00850684382371" lon="9.616464711133245"><ele>211.0</ele><time>2026-04-06T11:37:29Z</time></trkpt><trkpt lat="33.00857439304923" lon="9.616456150269064"><ele>212.14285714285714</ele><time>2026-04-06T11:37:41Z</time></trkpt><trkpt lat="33.008633939514745" lon="9.616410337381886"><ele>213.28571428571428</ele><time>2026-04-06T11:37:53Z</time></trkpt><trkpt lat="33.00862576514907" lon="9.61633394247429"><ele>214.42857142857144</ele><time>2026-04-06T11:38:23Z</time></trkpt><trkpt lat="33.00862339079408" lon="9.61641222058972"><ele>215.57142857142856</ele><time>2026-04-06T11:55:00.997Z</time></trkpt><trkpt lat="33.00856253007351" lon="9.616463627199192"><ele>216.7142857142857</ele><time>2026-04-06T11:55:58.999Z</time></trkpt><trkpt lat="33.00849856696018" lon="9.616466406382054"><ele>217.85714285714286</ele><time>2026-04-06T11:56:14.999Z</time></trkpt><trkpt lat="33.00843076162607" lon="9.616476665977412"><ele>219.0</ele><time>2026-04-06T11:56:18.999Z</time></trkpt><trkpt lat="33.00837262791693" lon="9.61644100722688"><ele>217.66666666666666</ele><time>2026-04-06T11:56:22.999Z</time></trkpt><trkpt lat="33.008316094371125" lon="9.616404693874435"><ele>216.33333333333331</ele><time>2026-04-06T11:56:28.999Z</time></trkpt><trkpt lat="33.00825167521439" lon="9.616378921387312"><ele>215.0</ele><time>2026-04-06T11:56:36.999Z</time></trkpt><trkpt lat="33.00820003131877" lon="9.616425325552475"><ele>213.66666666666666</ele><time>2026-04-06T11:57:02.998Z</time></trkpt><trkpt lat="33.008140291386674" lon="9.616502489078277"><ele>212.33333333333331</ele><time>2026-04-06T12:00:46.001Z</time></trkpt><trkpt lat="33.008093191692424" lon="9.616555638485918"><ele>211.0</ele><time>2026-04-06T12:00:48.001Z</time></trkpt><trkpt lat="33.00798465371196" lon="9.616544181466804"><ele>210.99999999999997</ele><time>2026-04-06T12:00:50.001Z</time></trkpt><trkpt lat="33.00791930041487" lon="9.616490487202428"><ele>211.0</ele><time>2026-04-06T12:00:51.001Z</time></trkpt><trkpt lat="33.0078566916689" lon="9.616443334787737"><ele>211.0</ele><time>2026-04-06T12:00:52.001Z</time></trkpt><trkpt lat="33.00779470650055" lon="9.616414009173871"><ele>211.0</ele><time>2026-04-06T12:00:53.001Z</time></trkpt><trkpt lat="33.00769884844582" lon="9.61633963919191"><ele>210.99999999999997</ele><time>2026-04-06T12:00:55.001Z</time></trkpt><trkpt lat="33.0076203818752" lon="9.616297084020816"><ele>211.0</ele><time>2026-04-06T12:00:57.001Z</time></trkpt><trkpt lat="33.00755202298598" lon="9.616273332345488"><ele>210.8</ele><time>2026-04-06T12:01:00.001Z</time></trkpt><trkpt lat="33.00746915429858" lon="9.616235025601906"><ele>210.60000000000002</ele><time>2026-04-06T12:01:02.001Z</time></trkpt><trkpt lat="33.007375531654695" lon="9.616218151632685"><ele>210.4</ele><time>2026-04-06T12:01:04.001Z</time></trkpt><trkpt lat="33.007278766266246" lon="9.616166488978411"><ele>210.2</ele><time>2026-04-06T12:01:06.001Z</time></trkpt><trkpt lat="33.007180786493755" lon="9.61610248941032"><ele>210.0</ele><time>2026-04-06T12:01:08.001Z</time></trkpt><trkpt lat="33.00711883412555" lon="9.616057391435083"><ele>209.66666666666666</ele><time>2026-04-06T12:01:09.001Z</time></trkpt><trkpt lat="33.00705620158999" lon="9.616005344807935"><ele>209.33333333333331</ele><time>2026-04-06T12:01:10.001Z</time></trkpt><trkpt lat="33.006986283198664" lon="9.615938262064864"><ele>209.0</ele><time>2026-04-06T12:01:11.001Z</time></trkpt><trkpt lat="33.00690130875955" lon="9.615875832012199"><ele>208.66666666666666</ele><time>2026-04-06T12:01:12.001Z</time></trkpt><trkpt lat="33.00681926922656" lon="9.615805759781125"><ele>208.33333333333331</ele><time>2026-04-06T12:01:13.001Z</time></trkpt><trkpt lat="33.006761756712145" lon="9.615741555930356"><ele>208.0</ele><time>2026-04-06T12:01:14.001Z</time></trkpt><trkpt lat="33.0067234896901" lon="9.615679777673085"><ele>208.0</ele><time>2026-04-06T12:01:15.001Z</time></trkpt><trkpt lat="33.006665741226286" lon="9.615593079693012"><ele>208.0</ele><time>2026-04-06T12:01:17.001Z</time></trkpt><trkpt lat="33.00660424493472" lon="9.615526264447197"><ele>208.0</ele><time>2026-04-06T12:01:19.001Z</time></trkpt><trkpt lat="33.00655805628782" lon="9.615452438100636"><ele>208.0</ele><time>2026-04-06T12:01:21.001Z</time></trkpt><trkpt lat="33.006486812933545" lon="9.615369373386741"><ele>208.0</ele><time>2026-04-06T12:01:23.001Z</time></trkpt><trkpt lat="33.00640373988696" lon="9.615268122231083"><ele>208.2</ele><time>2026-04-06T12:01:25.001Z</time></trkpt><trkpt lat="33.006310227541626" lon="9.615185235790841"><ele>208.4</ele><time>2026-04-06T12:01:27.001Z</time></trkpt><trkpt lat="33.006237756321255" lon="9.615135427575057"><ele>208.6</ele><time>2026-04-06T12:01:29.001Z</time></trkpt><trkpt lat="33.006173284579106" lon="9.615059651140164"><ele>208.79999999999998</ele><time>2026-04-06T12:01:32.001Z</time></trkpt><trkpt lat="33.00609596013792" lon="9.614986267981653"><ele>209.0</ele><time>2026-04-06T12:01:34.001Z</time></trkpt><trkpt lat="33.006040562873835" lon="9.614942840357745"><ele>209.0</ele><time>2026-04-06T12:01:35.001Z</time></trkpt><trkpt lat="33.005936380176706" lon="9.614896048849088"><ele>209.0</ele><time>2026-04-06T12:01:37.001Z</time></trkpt><trkpt lat="33.00585216606618" lon="9.614859220432301"><ele>209.0</ele><time>2026-04-06T12:01:39.001Z</time></trkpt><trkpt lat="33.00577253537582" lon="9.614830982610467"><ele>209.0</ele><time>2026-04-06T12:01:41.001Z</time></trkpt><trkpt lat="33.005683961542246" lon="9.61479488070368"><ele>209.0</ele><time>2026-04-06T12:01:43.001Z</time></trkpt><trkpt lat="33.00561171810649" lon="9.614743154027794"><ele>209.0</ele><time>2026-04-06T12:01:45.001Z</time></trkpt><trkpt lat="33.005546481913115" lon="9.614693522253104"><ele>209.0</ele><time>2026-04-06T12:01:47.001Z</time></trkpt><trkpt lat="33.00546625948578" lon="9.614648496749576"><ele>209.0</ele><time>2026-04-06T12:01:50.001Z</time></trkpt><trkpt lat="33.00541445892409" lon="9.61460124146454"><ele>209.0</ele><time>2026-04-06T12:01:52.001Z</time></trkpt><trkpt lat="33.00535997068651" lon="9.614552449025183"><ele>209.0</ele><time>2026-04-06T12:01:54.001Z</time></trkpt><trkpt lat="33.00529214649594" lon="9.614495619629752"><ele>209.0</ele><time>2026-04-06T12:01:56.001Z</time></trkpt><trkpt lat="33.005238673416194" lon="9.614448800187237"><ele>209.0</ele><time>2026-04-06T12:01:58.001Z</time></trkpt><trkpt lat="33.00516166903846" lon="9.614371694995965"><ele>209.50000000000003</ele><time>2026-04-06T12:02:01.001Z</time></trkpt><trkpt lat="33.00508669233735" lon="9.614292710218729"><ele>210.0</ele><time>2026-04-06T12:02:03.001Z</time></trkpt><trkpt lat="33.0050193267316" lon="9.614232951542055"><ele>210.5</ele><time>2026-04-06T12:02:05.001Z</time></trkpt><trkpt lat="33.004954471540906" lon="9.614207093266046"><ele>211.0</ele><time>2026-04-06T12:02:07.001Z</time></trkpt><trkpt lat="33.00490113949344" lon="9.61414223523982"><ele>211.50000000000003</ele><time>2026-04-06T12:02:14.001Z</time></trkpt><trkpt lat="33.004824291427276" lon="9.614085401886332"><ele>212.0</ele><time>2026-04-06T12:02:17.001Z</time></trkpt><trkpt lat="33.004746644542834" lon="9.614066132241604"><ele>212.50000000000003</ele><time>2026-04-06T12:02:20.001Z</time></trkpt><trkpt lat="33.004674046696515" lon="9.614071175034685"><ele>213.0</ele><time>2026-04-06T12:02:22.001Z</time></trkpt><trkpt lat="33.00459463062385" lon="9.614076900810444"><ele>213.5</ele><time>2026-04-06T12:02:24.001Z</time></trkpt><trkpt lat="33.004507331776466" lon="9.61408367995118"><ele>214.0</ele><time>2026-04-06T12:02:26.001Z</time></trkpt><trkpt lat="33.00441384909061" lon="9.614104873241638"><ele>214.50000000000003</ele><time>2026-04-06T12:02:28.001Z</time></trkpt><trkpt lat="33.004329801903204" lon="9.614117767213823"><ele>215.0</ele><time>2026-04-06T12:02:30.001Z</time></trkpt><trkpt lat="33.00423098215736" lon="9.614142328499652"><ele>215.4</ele><time>2026-04-06T12:02:32.001Z</time></trkpt><trkpt lat="33.00413239661463" lon="9.614153737741075"><ele>215.8</ele><time>2026-04-06T12:02:34.001Z</time></trkpt><trkpt lat="33.0040634514803" lon="9.6141744278483"><ele>216.2</ele><time>2026-04-06T12:03:03.001Z</time></trkpt><trkpt lat="33.00397880610002" lon="9.614171528425166"><ele>216.6</ele><time>2026-04-06T12:03:05.001Z</time></trkpt><trkpt lat="33.00388939176842" lon="9.614176253904212"><ele>217.0</ele><time>2026-04-06T12:03:07.001Z</time></trkpt><trkpt lat="33.00377610002899" lon="9.614194892232112"><ele>217.0</ele><time>2026-04-06T12:03:09.001Z</time></trkpt><trkpt lat="33.00366709590738" lon="9.614241334519436"><ele>217.0</ele><time>2026-04-06T12:03:11.001Z</time></trkpt><trkpt lat="33.003581511675726" lon="9.61429590895197"><ele>217.0</ele><time>2026-04-06T12:03:13.001Z</time></trkpt><trkpt lat="33.00350841270893" lon="9.614359029677145"><ele>217.0</ele><time>2026-04-06T12:03:15.001Z</time></trkpt><trkpt lat="33.00343440172945" lon="9.614418413849988"><ele>217.0</ele><time>2026-04-06T12:03:17.001Z</time></trkpt><trkpt lat="33.00334375979559" lon="9.614500873302939"><ele>216.99999999999997</ele><time>2026-04-06T12:03:19.001Z</time></trkpt><trkpt lat="33.003267436717444" lon="9.614560096285558"><ele>217.0</ele><time>2026-04-06T12:03:21.001Z</time></trkpt><trkpt lat="33.00319332653316" lon="9.614646397649231"><ele>217.0</ele><time>2026-04-06T12:03:23.001Z</time></trkpt><trkpt lat="33.00313463905344" lon="9.614726975990324"><ele>217.0</ele><time>2026-04-06T12:03:25.001Z</time></trkpt><trkpt lat="33.00308345541705" lon="9.614786116699975"><ele>216.99999999999997</ele><time>2026-04-06T12:03:27.001Z</time></trkpt><trkpt lat="33.003009906602266" lon="9.614849504232213"><ele>217.0</ele><time>2026-04-06T12:03:29Z</time></trkpt><trkpt lat="33.00294590772023" lon="9.614898236583512"><ele>217.0</ele><time>2026-04-06T12:03:30Z</time></trkpt><trkpt lat="33.00288163623826" lon="9.61493272276602"><ele>217.0</ele><time>2026-04-06T12:03:31Z</time></trkpt><trkpt lat="33.00279088047803" lon="9.614938411797574"><ele>217.0</ele><time>2026-04-06T12:03:33Z</time></trkpt><trkpt lat="33.00269039347373" lon="9.614956114119849"><ele>217.0</ele><time>2026-04-06T12:03:35Z</time></trkpt><trkpt lat="33.002586021662935" lon="9.615022513842252"><ele>217.0</ele><time>2026-04-06T12:03:37Z</time></trkpt><trkpt lat="33.002497331481486" lon="9.615100712832957"><ele>217.6</ele><time>2026-04-06T12:03:39Z</time></trkpt><trkpt lat="33.002438097792336" lon="9.615189789998972"><ele>218.2</ele><time>2026-04-06T12:03:41Z</time></trkpt><trkpt lat="33.00239013574504" lon="9.615274644902515"><ele>218.8</ele><time>2026-04-06T12:03:43Z</time></trkpt><trkpt lat="33.00232900527398" lon="9.615333512923502"><ele>219.4</ele><time>2026-04-06T12:03:45Z</time></trkpt><trkpt lat="33.00223441011485" lon="9.615355143589932"><ele>220.0</ele><time>2026-04-06T12:03:47Z</time></trkpt><trkpt lat="33.002142888125285" lon="9.615329262931272"><ele>220.0</ele><time>2026-04-06T12:03:49Z</time></trkpt><trkpt lat="33.0020534078934" lon="9.615360640089566"><ele>220.0</ele><time>2026-04-06T12:03:51Z</time></trkpt><trkpt lat="33.00197344924982" lon="9.615452490713563"><ele>220.0</ele><time>2026-04-06T12:03:53Z</time></trkpt><trkpt lat="33.00191242939898" lon="9.615510465209143"><ele>220.0</ele><time>2026-04-06T12:03:55Z</time></trkpt><trkpt lat="33.00181693143994" lon="9.615570958110487"><ele>220.0</ele><time>2026-04-06T12:03:57Z</time></trkpt><trkpt lat="33.00171947380774" lon="9.615641846672373"><ele>220.0</ele><time>2026-04-06T12:03:59Z</time></trkpt><trkpt lat="33.00162611951524" lon="9.615721942405628"><ele>220.0</ele><time>2026-04-06T12:04:01Z</time></trkpt><trkpt lat="33.00155421935961" lon="9.615810440202784"><ele>220.0</ele><time>2026-04-06T12:04:03Z</time></trkpt><trkpt lat="33.001510782924974" lon="9.61586495447023"><ele>220.0</ele><time>2026-04-06T12:04:04Z</time></trkpt><trkpt lat="33.00145529222669" lon="9.615904677830192"><ele>220.0</ele><time>2026-04-06T12:04:05Z</time></trkpt><trkpt lat="33.00135469945609" lon="9.61594252107328"><ele>220.0</ele><time>2026-04-06T12:04:07Z</time></trkpt><trkpt lat="33.001290384838896" lon="9.615970928843574"><ele>220.0</ele><time>2026-04-06T12:04:10Z</time></trkpt><trkpt lat="33.0012131526479" lon="9.616062631536177"><ele>220.0</ele><time>2026-04-06T12:04:11Z</time></trkpt><trkpt lat="33.00111159530939" lon="9.616132937670132"><ele>220.0</ele><time>2026-04-06T12:04:13Z</time></trkpt><trkpt lat="33.001013890761755" lon="9.616189892810729"><ele>220.0</ele><time>2026-04-06T12:04:15Z</time></trkpt><trkpt lat="33.00090183074714" lon="9.616259420083185"><ele>220.0</ele><time>2026-04-06T12:04:17Z</time></trkpt><trkpt lat="33.00080898843331" lon="9.61632820618848"><ele>220.0</ele><time>2026-04-06T12:04:19Z</time></trkpt><trkpt lat="33.000717656687485" lon="9.616393562743315"><ele>220.0</ele><time>2026-04-06T12:04:21Z</time></trkpt><trkpt lat="33.00061826358082" lon="9.616449156569102"><ele>220.0</ele><time>2026-04-06T12:04:23Z</time></trkpt><trkpt lat="33.000511751776145" lon="9.616513686214423"><ele>220.0</ele><time>2026-04-06T12:04:25Z</time></trkpt><trkpt lat="33.00039422699479" lon="9.616565283455923"><ele>219.99999999999997</ele><time>2026-04-06T12:04:27Z</time></trkpt><trkpt lat="33.00032613512527" lon="9.616590802251238"><ele>220.0</ele><time>2026-04-06T12:04:28Z</time></trkpt><trkpt lat="33.00025755638707" lon="9.616611305519818"><ele>220.0</ele><time>2026-04-06T12:04:29Z</time></trkpt><trkpt lat="33.00019192552284" lon="9.616639950163135"><ele>220.0</ele><time>2026-04-06T12:04:30Z</time></trkpt><trkpt lat="33.000115526059965" lon="9.616639467875785"><ele>220.0</ele><time>2026-04-06T12:04:31Z</time></trkpt><trkpt lat="33.00005358232923" lon="9.616682195390899"><ele>219.99999999999997</ele><time>2026-04-06T12:04:32Z</time></trkpt><trkpt lat="32.999985972693935" lon="9.616729654826635"><ele>220.0</ele><time>2026-04-06T12:04:33Z</time></trkpt><trkpt lat="32.99991156972312" lon="9.616772292049546"><ele>219.99999999999997</ele><time>2026-04-06T12:04:34Z</time></trkpt><trkpt lat="32.99985441779089" lon="9.616820375537511"><ele>220.0</ele><time>2026-04-06T12:04:35Z</time></trkpt><trkpt lat="32.99975330319532" lon="9.616900244812642"><ele>220.0</ele><time>2026-04-06T12:04:37.001Z</time></trkpt><trkpt lat="32.99965106944182" lon="9.616951614408839"><ele>220.0</ele><time>2026-04-06T12:04:39.001Z</time></trkpt><trkpt lat="32.99958563902317" lon="9.616976008190115"><ele>219.99999999999997</ele><time>2026-04-06T12:04:40.001Z</time></trkpt><trkpt lat="32.99952699375846" lon="9.6170160927761"><ele>220.0</ele><time>2026-04-06T12:04:41.001Z</time></trkpt><trkpt lat="32.9994750793397" lon="9.617074108784516"><ele>219.66666666666666</ele><time>2026-04-06T12:04:42.001Z</time></trkpt><trkpt lat="32.9994312389149" lon="9.617143316912706"><ele>219.33333333333331</ele><time>2026-04-06T12:04:43.001Z</time></trkpt><trkpt lat="32.999405009199315" lon="9.617213978480745"><ele>219.0</ele><time>2026-04-06T12:04:44.001Z</time></trkpt><trkpt lat="32.99937088733861" lon="9.61731813488676"><ele>218.66666666666669</ele><time>2026-04-06T12:04:46.001Z</time></trkpt><trkpt lat="32.99929122522308" lon="9.617446827609712"><ele>218.33333333333334</ele><time>2026-04-06T12:04:49.001Z</time></trkpt><trkpt lat="32.999241068312564" lon="9.61751232307855"><ele>218.0</ele><time>2026-04-06T12:04:50.001Z</time></trkpt><trkpt lat="32.99915957639166" lon="9.617583795152052"><ele>218.0</ele><time>2026-04-06T12:04:52.001Z</time></trkpt><trkpt lat="32.99906416071807" lon="9.617665394838324"><ele>218.0</ele><time>2026-04-06T12:04:54.001Z</time></trkpt><trkpt lat="32.9989512455078" lon="9.617717392156313"><ele>218.0</ele><time>2026-04-06T12:04:56.001Z</time></trkpt><trkpt lat="32.99888411342737" lon="9.617739145777405"><ele>218.0</ele><time>2026-04-06T12:04:57.001Z</time></trkpt><trkpt lat="32.99882173067619" lon="9.617761823762997"><ele>218.0</ele><time>2026-04-06T12:04:58.001Z</time></trkpt><trkpt lat="32.998715835144075" lon="9.617805986889946"><ele>218.2</ele><time>2026-04-06T12:05:00.001Z</time></trkpt><trkpt lat="32.998611161435996" lon="9.617867127234524"><ele>218.4</ele><time>2026-04-06T12:05:02.001Z</time></trkpt><trkpt lat="32.99851754852402" lon="9.617932857748652"><ele>218.59999999999997</ele><time>2026-04-06T12:05:04.001Z</time></trkpt><trkpt lat="32.99840262193041" lon="9.617997216843058"><ele>218.79999999999998</ele><time>2026-04-06T12:05:06.001Z</time></trkpt><trkpt lat="32.99834286895602" lon="9.618031741733065"><ele>219.0</ele><time>2026-04-06T12:05:07.001Z</time></trkpt><trkpt lat="32.99824489391234" lon="9.618109663235604"><ele>220.0</ele><time>2026-04-06T12:05:09.001Z</time></trkpt><trkpt lat="32.998137775637375" lon="9.618193157996787"><ele>220.99999999999997</ele><time>2026-04-06T12:05:11.001Z</time></trkpt><trkpt lat="32.99808780600895" lon="9.61824669980748"><ele>221.99999999999997</ele><time>2026-04-06T12:05:12.001Z</time></trkpt><trkpt lat="32.99797913121317" lon="9.618309152664386"><ele>223.0</ele><time>2026-04-06T12:05:14.001Z</time></trkpt><trkpt lat="32.99787097990679" lon="9.61837891956981"><ele>224.0</ele><time>2026-04-06T12:05:16.001Z</time></trkpt><trkpt lat="32.99782560109102" lon="9.618433069483952"><ele>224.00000000000003</ele><time>2026-04-06T12:05:17.001Z</time></trkpt><trkpt lat="32.99777515737807" lon="9.61849873785621"><ele>224.0</ele><time>2026-04-06T12:05:18.001Z</time></trkpt><trkpt lat="32.99772325098644" lon="9.618553227636337"><ele>224.0</ele><time>2026-04-06T12:05:19.001Z</time></trkpt><trkpt lat="32.99765393131624" lon="9.618636952108478"><ele>224.0</ele><time>2026-04-06T12:05:21Z</time></trkpt><trkpt lat="32.9975947484285" lon="9.61871916747217"><ele>224.00000000000003</ele><time>2026-04-06T12:05:23Z</time></trkpt><trkpt lat="32.99753820778966" lon="9.618827558807007"><ele>224.0</ele><time>2026-04-06T12:05:25Z</time></trkpt><trkpt lat="32.99749230229822" lon="9.618950959347766"><ele>223.42857142857142</ele><time>2026-04-06T12:05:27Z</time></trkpt><trkpt lat="32.99746364338659" lon="9.61901983603019"><ele>222.85714285714286</ele><time>2026-04-06T12:05:28Z</time></trkpt><trkpt lat="32.99742670354524" lon="9.619089418408162"><ele>222.28571428571428</ele><time>2026-04-06T12:05:29Z</time></trkpt><trkpt lat="32.99739400139661" lon="9.619163257209406"><ele>221.71428571428572</ele><time>2026-04-06T12:05:30Z</time></trkpt><trkpt lat="32.99736228325905" lon="9.619237142866663"><ele>221.14285714285714</ele><time>2026-04-06T12:05:31Z</time></trkpt><trkpt lat="32.99732876208249" lon="9.619307939505424"><ele>220.57142857142856</ele><time>2026-04-06T12:05:32Z</time></trkpt><trkpt lat="32.99729735490471" lon="9.619385616546806"><ele>220.0</ele><time>2026-04-06T12:05:33Z</time></trkpt><trkpt lat="32.997267430060596" lon="9.619467116023484"><ele>219.49999999999997</ele><time>2026-04-06T12:05:34Z</time></trkpt><trkpt lat="32.997229230545656" lon="9.619549513387621"><ele>219.0</ele><time>2026-04-06T12:05:35Z</time></trkpt><trkpt lat="32.99718890746591" lon="9.619633322399372"><ele>218.5</ele><time>2026-04-06T12:05:36Z</time></trkpt><trkpt lat="32.99715338197325" lon="9.619720925955818"><ele>218.0</ele><time>2026-04-06T12:05:37Z</time></trkpt><trkpt lat="32.99711928639788" lon="9.619811155698251"><ele>217.49999999999997</ele><time>2026-04-06T12:05:38Z</time></trkpt><trkpt lat="32.99707430345636" lon="9.61988925079306"><ele>217.0</ele><time>2026-04-06T12:05:39Z</time></trkpt><trkpt lat="32.99702922248259" lon="9.619963872505451"><ele>217.0</ele><time>2026-04-06T12:05:40Z</time></trkpt><trkpt lat="32.99699107352897" lon="9.620028620370165"><ele>217.0</ele><time>2026-04-06T12:05:41Z</time></trkpt><trkpt lat="32.99692702890995" lon="9.620142439686848"><ele>217.0</ele><time>2026-04-06T12:05:43Z</time></trkpt><trkpt lat="32.99686366443991" lon="9.620251210624593"><ele>217.0</ele><time>2026-04-06T12:05:45Z</time></trkpt><trkpt lat="32.99680096125726" lon="9.62031193984023"><ele>217.0</ele><time>2026-04-06T12:05:46Z</time></trkpt><trkpt lat="32.996742509968485" lon="9.620379792346705"><ele>216.39999999999998</ele><time>2026-04-06T12:05:47Z</time></trkpt><trkpt lat="32.996702054888544" lon="9.620454078437874"><ele>215.79999999999998</ele><time>2026-04-06T12:05:48Z</time></trkpt><trkpt lat="32.996674144029086" lon="9.620525103818489"><ele>215.2</ele><time>2026-04-06T12:05:49Z</time></trkpt><trkpt lat="32.996637018571064" lon="9.620645614458619"><ele>214.6</ele><time>2026-04-06T12:05:51Z</time></trkpt><trkpt lat="32.99660045833836" lon="9.620771138306283"><ele>214.0</ele><time>2026-04-06T12:05:53Z</time></trkpt><trkpt lat="32.99657260243101" lon="9.62087600538205"><ele>213.99999999999997</ele><time>2026-04-06T12:05:55Z</time></trkpt><trkpt lat="32.9965364739135" lon="9.620967891133969"><ele>214.0</ele><time>2026-04-06T12:05:58Z</time></trkpt><trkpt lat="32.99648657057887" lon="9.621066997040359"><ele>214.0</ele><time>2026-04-06T12:06:01Z</time></trkpt><trkpt lat="32.9964332361179" lon="9.621161051974983"><ele>214.0</ele><time>2026-04-06T12:06:03Z</time></trkpt><trkpt lat="32.99640066813675" lon="9.621251468985859"><ele>213.99999999999997</ele><time>2026-04-06T12:06:05Z</time></trkpt><trkpt lat="32.99635004229995" lon="9.621338024206592"><ele>214.0</ele><time>2026-04-06T12:06:07Z</time></trkpt><trkpt lat="32.99629288806712" lon="9.621396315099334"><ele>213.66666666666666</ele><time>2026-04-06T12:06:09Z</time></trkpt><trkpt lat="32.99623992329168" lon="9.621460089218994"><ele>213.33333333333331</ele><time>2026-04-06T12:06:12Z</time></trkpt><trkpt lat="32.99621155141807" lon="9.62152956651002"><ele>213.0</ele><time>2026-04-06T12:06:14Z</time></trkpt><trkpt lat="32.996191993772115" lon="9.621608044123123"><ele>212.66666666666669</ele><time>2026-04-06T12:06:16Z</time></trkpt><trkpt lat="32.99616950654679" lon="9.621691860836357"><ele>212.33333333333334</ele><time>2026-04-06T12:06:18Z</time></trkpt><trkpt lat="32.99614224112594" lon="9.621763261421625"><ele>212.0</ele><time>2026-04-06T12:06:20Z</time></trkpt><trkpt lat="32.99613608986482" lon="9.621912868023195"><ele>211.8</ele><time>2026-04-06T12:06:22Z</time></trkpt><trkpt lat="32.996136305414296" lon="9.62201256007869"><ele>211.6</ele><time>2026-04-06T12:06:23Z</time></trkpt><trkpt lat="32.99610938949764" lon="9.622120763306743"><ele>211.4</ele><time>2026-04-06T12:06:25Z</time></trkpt><trkpt lat="32.996048513091424" lon="9.622213711709337"><ele>211.20000000000002</ele><time>2026-04-06T12:06:27Z</time></trkpt><trkpt lat="32.99600485201121" lon="9.622272619006761"><ele>211.0</ele><time>2026-04-06T12:06:28Z</time></trkpt><trkpt lat="32.99595003460596" lon="9.62238751404805"><ele>210.99999999999997</ele><time>2026-04-06T12:06:30Z</time></trkpt><trkpt lat="32.995936293366604" lon="9.62249520350496"><ele>211.0</ele><time>2026-04-06T12:06:32Z</time></trkpt><trkpt lat="32.99590625022346" lon="9.622611619089373"><ele>211.0</ele><time>2026-04-06T12:06:34Z</time></trkpt><trkpt lat="32.99587133767444" lon="9.622699798155075"><ele>211.0</ele><time>2026-04-06T12:06:36Z</time></trkpt><trkpt lat="32.995850474668536" lon="9.622794389370299"><ele>210.99999999999997</ele><time>2026-04-06T12:06:38Z</time></trkpt><trkpt lat="32.995834024602075" lon="9.622876892651776"><ele>211.0</ele><time>2026-04-06T12:06:40Z</time></trkpt><trkpt lat="32.995785464289256" lon="9.622973376580656"><ele>211.4</ele><time>2026-04-06T12:06:42Z</time></trkpt><trkpt lat="32.995697379889236" lon="9.623060246734292"><ele>211.8</ele><time>2026-04-06T12:06:44Z</time></trkpt><trkpt lat="32.99561177363111" lon="9.623163399983309"><ele>212.20000000000002</ele><time>2026-04-06T12:06:46Z</time></trkpt><trkpt lat="32.99555496174059" lon="9.623290283884808"><ele>212.60000000000002</ele><time>2026-04-06T12:06:48Z</time></trkpt><trkpt lat="32.99551535330104" lon="9.623362272852425"><ele>213.0</ele><time>2026-04-06T12:06:49Z</time></trkpt><trkpt lat="32.99546822640172" lon="9.623417271927877"><ele>213.0</ele><time>2026-04-06T12:06:50Z</time></trkpt><trkpt lat="32.99542387525236" lon="9.623477081003417"><ele>213.0</ele><time>2026-04-06T12:06:51Z</time></trkpt><trkpt lat="32.9953737923171" lon="9.623544760521805"><ele>213.0</ele><time>2026-04-06T12:06:52Z</time></trkpt><trkpt lat="32.99531328650388" lon="9.623618456600806"><ele>213.0</ele><time>2026-04-06T12:06:53Z</time></trkpt><trkpt lat="32.99526224006914" lon="9.623686423654732"><ele>213.0</ele><time>2026-04-06T12:06:54Z</time></trkpt><trkpt lat="32.99522440231101" lon="9.623749182195908"><ele>213.0</ele><time>2026-04-06T12:06:55Z</time></trkpt><trkpt lat="32.99516514378351" lon="9.623851543032735"><ele>212.83333333333334</ele><time>2026-04-06T12:06:57Z</time></trkpt><trkpt lat="32.9951260539396" lon="9.623932577379385"><ele>212.66666666666669</ele><time>2026-04-06T12:06:59Z</time></trkpt><trkpt lat="32.99509958314887" lon="9.62401075490408"><ele>212.5</ele><time>2026-04-06T12:07:01Z</time></trkpt><trkpt lat="32.99508236224105" lon="9.624110543214222"><ele>212.33333333333334</ele><time>2026-04-06T12:07:03Z</time></trkpt><trkpt lat="32.995060501764314" lon="9.62420408057175"><ele>212.16666666666669</ele><time>2026-04-06T12:07:05Z</time></trkpt><trkpt lat="32.9950448148451" lon="9.62432254688186"><ele>212.0</ele><time>2026-04-06T12:07:07Z</time></trkpt><trkpt lat="32.99501300240273" lon="9.62444991030791"><ele>211.71428571428572</ele><time>2026-04-06T12:07:09Z</time></trkpt><trkpt lat="32.9949951094536" lon="9.624529439039463"><ele>211.42857142857142</ele><time>2026-04-06T12:07:10Z</time></trkpt><trkpt lat="32.99497968310572" lon="9.624604863554156"><ele>211.14285714285714</ele><time>2026-04-06T12:07:11Z</time></trkpt><trkpt lat="32.99495325348346" lon="9.624691228333166"><ele>210.85714285714286</ele><time>2026-04-06T12:07:12Z</time></trkpt><trkpt lat="32.99491421059104" lon="9.624769158589846"><ele>210.57142857142856</ele><time>2026-04-06T12:07:13Z</time></trkpt><trkpt lat="32.99487107393082" lon="9.624829332595343"><ele>210.28571428571428</ele><time>2026-04-06T12:07:16Z</time></trkpt><trkpt lat="32.99483022903028" lon="9.624899104838015"><ele>210.0</ele><time>2026-04-06T12:07:37.001Z</time></trkpt><trkpt lat="32.99480086884542" lon="9.624972326703942"><ele>210.0</ele><time>2026-04-06T12:07:39.001Z</time></trkpt><trkpt lat="32.99476990142207" lon="9.625053764011115"><ele>210.0</ele><time>2026-04-06T12:07:41.001Z</time></trkpt><trkpt lat="32.99475285800086" lon="9.625133569055649"><ele>210.0</ele><time>2026-04-06T12:07:43.001Z</time></trkpt><trkpt lat="32.99472763287614" lon="9.625209367282029"><ele>210.0</ele><time>2026-04-06T12:07:45.001Z</time></trkpt><trkpt lat="32.99470591107918" lon="9.62528625582628"><ele>210.0</ele><time>2026-04-06T12:07:47.001Z</time></trkpt><trkpt lat="32.99465545742752" lon="9.625414721382791"><ele>210.0</ele><time>2026-04-06T12:07:49.001Z</time></trkpt><trkpt lat="32.99463492557289" lon="9.62550384466351"><ele>209.85714285714286</ele><time>2026-04-06T12:07:50.001Z</time></trkpt><trkpt lat="32.99461730094954" lon="9.625590242922293"><ele>209.71428571428572</ele><time>2026-04-06T12:07:51.001Z</time></trkpt><trkpt lat="32.99459923553215" lon="9.625684478488967"><ele>209.57142857142856</ele><time>2026-04-06T12:07:52.001Z</time></trkpt><trkpt lat="32.99457980264892" lon="9.625774139449604"><ele>209.42857142857144</ele><time>2026-04-06T12:07:53.001Z</time></trkpt><trkpt lat="32.994566137195896" lon="9.62585772287473"><ele>209.28571428571428</ele><time>2026-04-06T12:07:54.001Z</time></trkpt><trkpt lat="32.994552217120976" lon="9.625933089816762"><ele>209.14285714285714</ele><time>2026-04-06T12:07:55.001Z</time></trkpt><trkpt lat="32.99453961519569" lon="9.6260222135529"><ele>209.0</ele><time>2026-04-06T12:07:56.001Z</time></trkpt><trkpt lat="32.99452842975239" lon="9.62611211114148"><ele>209.39999999999998</ele><time>2026-04-06T12:07:57.001Z</time></trkpt><trkpt lat="32.994516720704254" lon="9.626189872184787"><ele>209.8</ele><time>2026-04-06T12:07:58.001Z</time></trkpt><trkpt lat="32.99451962610719" lon="9.626339319676259"><ele>210.2</ele><time>2026-04-06T12:08:00.001Z</time></trkpt><trkpt lat="32.99456396819459" lon="9.62647799745199"><ele>210.60000000000002</ele><time>2026-04-06T12:08:02.001Z</time></trkpt><trkpt lat="32.99457895468935" lon="9.62655381812695"><ele>211.0</ele><time>2026-04-06T12:08:03.001Z</time></trkpt><trkpt lat="32.994585254123656" lon="9.626637438993813"><ele>210.99999999999997</ele><time>2026-04-06T12:08:04.001Z</time></trkpt><trkpt lat="32.994576964892524" lon="9.626730413515086"><ele>211.0</ele><time>2026-04-06T12:08:05Z</time></trkpt><trkpt lat="32.994570433059785" lon="9.626807755105544"><ele>211.0</ele><time>2026-04-06T12:08:06Z</time></trkpt><trkpt lat="32.9945534630066" lon="9.626883007266573"><ele>211.0</ele><time>2026-04-06T12:08:08Z</time></trkpt><trkpt lat="32.99455484766027" lon="9.626985755379632"><ele>210.99999999999997</ele><time>2026-04-06T12:08:11Z</time></trkpt><trkpt lat="32.9945460838395" lon="9.627084412403375"><ele>211.0</ele><time>2026-04-06T12:08:14Z</time></trkpt><trkpt lat="32.994511161568546" lon="9.627178095711862"><ele>210.83333333333331</ele><time>2026-04-06T12:08:17Z</time></trkpt><trkpt lat="32.994473919392036" lon="9.62724041560846"><ele>210.66666666666666</ele><time>2026-04-06T12:08:19Z</time></trkpt><trkpt lat="32.99441156091069" lon="9.6273210753363"><ele>210.5</ele><time>2026-04-06T12:08:22Z</time></trkpt><trkpt lat="32.994370478211756" lon="9.627383844431316"><ele>210.33333333333331</ele><time>2026-04-06T12:08:24Z</time></trkpt><trkpt lat="32.994325521462265" lon="9.627458384697178"><ele>210.16666666666666</ele><time>2026-04-06T12:08:26Z</time></trkpt><trkpt lat="32.994272021602036" lon="9.627555843835367"><ele>210.0</ele><time>2026-04-06T12:08:28Z</time></trkpt><trkpt lat="32.99418735654308" lon="9.627629602482438"><ele>209.83333333333334</ele><time>2026-04-06T12:08:30Z</time></trkpt><trkpt lat="32.99412400308345" lon="9.627656266887898"><ele>209.66666666666669</ele><time>2026-04-06T12:08:31.001Z</time></trkpt><trkpt lat="32.994048070935946" lon="9.627687237769074"><ele>209.5</ele><time>2026-04-06T12:08:32.001Z</time></trkpt><trkpt lat="32.99397112526783" lon="9.62772127131586"><ele>209.33333333333334</ele><time>2026-04-06T12:08:33.001Z</time></trkpt><trkpt lat="32.993903313657874" lon="9.627771895508458"><ele>209.16666666666669</ele><time>2026-04-06T12:08:34.001Z</time></trkpt><trkpt lat="32.99384215497934" lon="9.62783861718604"><ele>209.0</ele><time>2026-04-06T12:08:35.001Z</time></trkpt><trkpt lat="32.99378989263023" lon="9.627899654497734"><ele>209.00000000000003</ele><time>2026-04-06T12:08:36.001Z</time></trkpt><trkpt lat="32.99373587617462" lon="9.627952608903815"><ele>209.0</ele><time>2026-04-06T12:08:37.001Z</time></trkpt><trkpt lat="32.99368944610052" lon="9.628007241736206"><ele>209.0</ele><time>2026-04-06T12:08:38.001Z</time></trkpt><trkpt lat="32.993640412124925" lon="9.62805704150241"><ele>209.0</ele><time>2026-04-06T12:08:39.001Z</time></trkpt><trkpt lat="32.99356052942359" lon="9.628158644047748"><ele>209.00000000000003</ele><time>2026-04-06T12:08:41.001Z</time></trkpt><trkpt lat="32.99351279903278" lon="9.628207914575905"><ele>209.0</ele><time>2026-04-06T12:08:42.001Z</time></trkpt><trkpt lat="32.993452096346836" lon="9.628292988925477"><ele>209.00000000000003</ele><time>2026-04-06T12:08:44.001Z</time></trkpt><trkpt lat="32.99342982184682" lon="9.628364928282531"><ele>209.0</ele><time>2026-04-06T12:08:46.001Z</time></trkpt><trkpt lat="32.99339614536908" lon="9.628439622947488"><ele>209.0</ele><time>2026-04-06T12:08:49.001Z</time></trkpt><trkpt lat="32.993319941603474" lon="9.628541739001351"><ele>209.0</ele><time>2026-04-06T12:08:50.001Z</time></trkpt><trkpt lat="32.993241967539014" lon="9.628595701923933"><ele>209.00000000000003</ele><time>2026-04-06T12:08:52.001Z</time></trkpt><trkpt lat="32.99319395234713" lon="9.628677291575853"><ele>209.0</ele><time>2026-04-06T12:08:54.001Z</time></trkpt><trkpt lat="32.9931530430101" lon="9.628771183223687"><ele>209.33333333333334</ele><time>2026-04-06T12:08:56.001Z</time></trkpt><trkpt lat="32.99309998038564" lon="9.628842175903358"><ele>209.66666666666669</ele><time>2026-04-06T12:08:58.001Z</time></trkpt><trkpt lat="32.99305136310352" lon="9.62891545454603"><ele>210.0</ele><time>2026-04-06T12:09:01.001Z</time></trkpt><trkpt lat="32.99296939611845" lon="9.628991302510842"><ele>210.33333333333331</ele><time>2026-04-06T12:09:03.001Z</time></trkpt><trkpt lat="32.992905703350395" lon="9.629041805893836"><ele>210.66666666666666</ele><time>2026-04-06T12:09:06.001Z</time></trkpt><trkpt lat="32.99284223782951" lon="9.629082697173809"><ele>211.0</ele><time>2026-04-06T12:09:09.001Z</time></trkpt><trkpt lat="32.99271704100126" lon="9.6291074592635"><ele>210.99999999999997</ele><time>2026-04-06T12:09:11.001Z</time></trkpt><trkpt lat="32.99261432109729" lon="9.629137340378003"><ele>211.0</ele><time>2026-04-06T12:09:13.001Z</time></trkpt><trkpt lat="32.99254864823417" lon="9.62914112641986"><ele>211.0</ele><time>2026-04-06T12:09:14.001Z</time></trkpt><trkpt lat="32.99248513577995" lon="9.6291520882394"><ele>211.0</ele><time>2026-04-06T12:09:15.001Z</time></trkpt><trkpt lat="32.99241726362718" lon="9.629167845482677"><ele>210.99999999999997</ele><time>2026-04-06T12:09:16.001Z</time></trkpt><trkpt lat="32.99230056249377" lon="9.629202314033051"><ele>211.0</ele><time>2026-04-06T12:09:18.001Z</time></trkpt><trkpt lat="32.9922007407348" lon="9.629253001624607"><ele>210.60000000000002</ele><time>2026-04-06T12:09:20.001Z</time></trkpt><trkpt lat="32.99212205026987" lon="9.629286162794173"><ele>210.2</ele><time>2026-04-06T12:09:22.001Z</time></trkpt><trkpt lat="32.992037554899156" lon="9.629300088729469"><ele>209.8</ele><time>2026-04-06T12:09:24.001Z</time></trkpt><trkpt lat="32.99192928373235" lon="9.629300425842413"><ele>209.39999999999998</ele><time>2026-04-06T12:09:26.001Z</time></trkpt><trkpt lat="32.99182219189908" lon="9.629316801174072"><ele>209.0</ele><time>2026-04-06T12:09:28.001Z</time></trkpt><trkpt lat="32.99170658065721" lon="9.629340235417367"><ele>209.00000000000003</ele><time>2026-04-06T12:09:30.001Z</time></trkpt><trkpt lat="32.991621155461445" lon="9.629316095102713"><ele>209.0</ele><time>2026-04-06T12:09:33.001Z</time></trkpt><trkpt lat="32.99153318674765" lon="9.629370996950179"><ele>209.0</ele><time>2026-04-06T12:09:36.001Z</time></trkpt><trkpt lat="32.9915124109487" lon="9.629485129463763"><ele>209.0</ele><time>2026-04-06T12:09:38.001Z</time></trkpt><trkpt lat="32.99150840254128" lon="9.629577330888806"><ele>209.00000000000003</ele><time>2026-04-06T12:09:40.001Z</time></trkpt><trkpt lat="32.99151469696572" lon="9.629653047651296"><ele>209.0</ele><time>2026-04-06T12:09:42.001Z</time></trkpt><trkpt lat="32.99148263414237" lon="9.629744934289002"><ele>209.00000000000003</ele><time>2026-04-06T12:09:45.001Z</time></trkpt><trkpt lat="32.991429946024574" lon="9.629845329193882"><ele>209.0</ele><time>2026-04-06T12:09:48.001Z</time></trkpt><trkpt lat="32.99139332691887" lon="9.629926179951719"><ele>209.0</ele><time>2026-04-06T12:09:50.001Z</time></trkpt><trkpt lat="32.991368510689576" lon="9.63000023044349"><ele>209.0</ele><time>2026-04-06T12:09:52.001Z</time></trkpt><trkpt lat="32.991328803967974" lon="9.63007799834852"><ele>209.00000000000003</ele><time>2026-04-06T12:09:54.001Z</time></trkpt><trkpt lat="32.991287020638154" lon="9.630165460346788"><ele>209.0</ele><time>2026-04-06T12:09:56.001Z</time></trkpt><trkpt lat="32.99125449270491" lon="9.630233582849552"><ele>209.39999999999998</ele><time>2026-04-06T12:09:58.001Z</time></trkpt><trkpt lat="32.991217912772406" lon="9.630311173003959"><ele>209.8</ele><time>2026-04-06T12:10:01.001Z</time></trkpt><trkpt lat="32.991177637824904" lon="9.63040111651935"><ele>210.2</ele><time>2026-04-06T12:10:03.001Z</time></trkpt><trkpt lat="32.9911480993721" lon="9.630507620410102"><ele>210.60000000000002</ele><time>2026-04-06T12:10:05.001Z</time></trkpt><trkpt lat="32.99109749326684" lon="9.630603765024098"><ele>211.0</ele><time>2026-04-06T12:10:07.001Z</time></trkpt><trkpt lat="32.99100219276769" lon="9.630671790427625"><ele>211.0</ele><time>2026-04-06T12:10:09.001Z</time></trkpt><trkpt lat="32.99090984678359" lon="9.630727053633077"><ele>211.0</ele><time>2026-04-06T12:10:11.001Z</time></trkpt><trkpt lat="32.990828010766684" lon="9.63076897001772"><ele>211.0</ele><time>2026-04-06T12:10:13.001Z</time></trkpt><trkpt lat="32.990759875839075" lon="9.630848037971012"><ele>211.0</ele><time>2026-04-06T12:10:15.001Z</time></trkpt><trkpt lat="32.99070660674236" lon="9.630956697693962"><ele>211.0</ele><time>2026-04-06T12:10:17.001Z</time></trkpt><trkpt lat="32.990656905150175" lon="9.631053968608738"><ele>210.8</ele><time>2026-04-06T12:10:19.001Z</time></trkpt><trkpt lat="32.99062231031442" lon="9.631137649802572"><ele>210.60000000000002</ele><time>2026-04-06T12:10:21.001Z</time></trkpt><trkpt lat="32.99056593198971" lon="9.63123693061544"><ele>210.4</ele><time>2026-04-06T12:10:23.001Z</time></trkpt><trkpt lat="32.99049402660925" lon="9.631339686572902"><ele>210.2</ele><time>2026-04-06T12:10:25.001Z</time></trkpt><trkpt lat="32.99045857878243" lon="9.63144722396481"><ele>210.0</ele><time>2026-04-06T12:10:27.001Z</time></trkpt><trkpt lat="32.99042525789753" lon="9.631530778989488"><ele>209.8</ele><time>2026-04-06T12:10:29.001Z</time></trkpt><trkpt lat="32.99033904239502" lon="9.63160811973021"><ele>209.6</ele><time>2026-04-06T12:10:31.001Z</time></trkpt><trkpt lat="32.99026152006716" lon="9.631662904431419"><ele>209.39999999999998</ele><time>2026-04-06T12:10:33.001Z</time></trkpt><trkpt lat="32.99018631920813" lon="9.631719725492795"><ele>209.2</ele><time>2026-04-06T12:10:35.001Z</time></trkpt><trkpt lat="32.99011824330305" lon="9.631780853596227"><ele>209.0</ele><time>2026-04-06T12:10:37.001Z</time></trkpt><trkpt lat="32.990039295175144" lon="9.631856294480796"><ele>209.0</ele><time>2026-04-06T12:10:39.001Z</time></trkpt><trkpt lat="32.98994460676401" lon="9.631927490770398"><ele>209.0</ele><time>2026-04-06T12:10:41.001Z</time></trkpt><trkpt lat="32.98983844057134" lon="9.631942491305875"><ele>209.0</ele><time>2026-04-06T12:10:43.001Z</time></trkpt><trkpt lat="32.989729746882915" lon="9.631978365948362"><ele>209.0</ele><time>2026-04-06T12:10:45.001Z</time></trkpt><trkpt lat="32.98967913569495" lon="9.632047961633996"><ele>209.0</ele><time>2026-04-06T12:10:46.001Z</time></trkpt><trkpt lat="32.98963380521552" lon="9.632126490547806"><ele>209.00000000000003</ele><time>2026-04-06T12:10:47.001Z</time></trkpt><trkpt lat="32.98960392492628" lon="9.632193158792344"><ele>209.0</ele><time>2026-04-06T12:10:48.001Z</time></trkpt><trkpt lat="32.98954632403476" lon="9.632324916929434"><ele>209.0</ele><time>2026-04-06T12:10:50.001Z</time></trkpt><trkpt lat="32.989526891112526" lon="9.632400293329784"><ele>209.0</ele><time>2026-04-06T12:10:51.001Z</time></trkpt><trkpt lat="32.98950843373493" lon="9.632472363260161"><ele>209.00000000000003</ele><time>2026-04-06T12:10:52.001Z</time></trkpt><trkpt lat="32.9894704657301" lon="9.632600095377578"><ele>209.0</ele><time>2026-04-06T12:10:54.001Z</time></trkpt><trkpt lat="32.98944539044102" lon="9.632736798663382"><ele>208.83333333333334</ele><time>2026-04-06T12:10:56.001Z</time></trkpt><trkpt lat="32.98940968016418" lon="9.632830739269693"><ele>208.66666666666669</ele><time>2026-04-06T12:10:58.001Z</time></trkpt><trkpt lat="32.98938466063749" lon="9.632910311042917"><ele>208.5</ele><time>2026-04-06T12:11:00.001Z</time></trkpt><trkpt lat="32.98935014011115" lon="9.633008276632625"><ele>208.33333333333331</ele><time>2026-04-06T12:11:02.001Z</time></trkpt><trkpt lat="32.98933095015165" lon="9.633082679136848"><ele>208.16666666666666</ele><time>2026-04-06T12:11:03Z</time></trkpt><trkpt lat="32.989308011369616" lon="9.633167341334177"><ele>208.0</ele><time>2026-04-06T12:11:04.001Z</time></trkpt><trkpt lat="32.9892754915953" lon="9.633256632377478"><ele>208.0</ele><time>2026-04-06T12:11:05.001Z</time></trkpt><trkpt lat="32.98923160018527" lon="9.633320695963597"><ele>208.0</ele><time>2026-04-06T12:11:06Z</time></trkpt><trkpt lat="32.98918168629163" lon="9.633443067427729"><ele>208.0</ele><time>2026-04-06T12:11:08Z</time></trkpt><trkpt lat="32.98915047842291" lon="9.633551042036318"><ele>208.0</ele><time>2026-04-06T12:11:10Z</time></trkpt><trkpt lat="32.989077771045515" lon="9.63364627908716"><ele>208.0</ele><time>2026-04-06T12:11:12Z</time></trkpt><trkpt lat="32.989036502685146" lon="9.633711393807026"><ele>208.83333333333331</ele><time>2026-04-06T12:11:13Z</time></trkpt><trkpt lat="32.989005662986834" lon="9.63377724103694"><ele>209.66666666666666</ele><time>2026-04-06T12:11:14Z</time></trkpt><trkpt lat="32.988987900701" lon="9.633886814743558"><ele>210.5</ele><time>2026-04-06T12:11:16Z</time></trkpt><trkpt lat="32.98899626448184" lon="9.633975621322891"><ele>211.33333333333331</ele><time>2026-04-06T12:11:18Z</time></trkpt><trkpt lat="32.98899298347411" lon="9.634107507350757"><ele>212.16666666666666</ele><time>2026-04-06T12:11:20Z</time></trkpt><trkpt lat="32.98898950796759" lon="9.634188847500722"><ele>213.0</ele><time>2026-04-06T12:11:21Z</time></trkpt><trkpt lat="32.988978190777864" lon="9.63427429319706"><ele>213.0</ele><time>2026-04-06T12:11:22Z</time></trkpt><trkpt lat="32.98896160511589" lon="9.634354089989744"><ele>213.0</ele><time>2026-04-06T12:11:23Z</time></trkpt><trkpt lat="32.98894335423341" lon="9.634481601526431"><ele>213.0</ele><time>2026-04-06T12:11:25Z</time></trkpt><trkpt lat="32.9889365296024" lon="9.63459461923767"><ele>213.0</ele><time>2026-04-06T12:11:27Z</time></trkpt><trkpt lat="32.98894538314255" lon="9.634697627547338"><ele>213.0</ele><time>2026-04-06T12:11:29Z</time></trkpt><trkpt lat="32.98895017275299" lon="9.634791434948323"><ele>213.0</ele><time>2026-04-06T12:11:31Z</time></trkpt><trkpt lat="32.98895088407828" lon="9.63490557104078"><ele>212.8</ele><time>2026-04-06T12:11:33Z</time></trkpt><trkpt lat="32.988971264490644" lon="9.635038149923542"><ele>212.60000000000002</ele><time>2026-04-06T12:11:35Z</time></trkpt><trkpt lat="32.98894809049019" lon="9.635170491200652"><ele>212.39999999999998</ele><time>2026-04-06T12:11:37Z</time></trkpt><trkpt lat="32.98893487678208" lon="9.635281479741334"><ele>212.2</ele><time>2026-04-06T12:11:39.001Z</time></trkpt><trkpt lat="32.98886669412325" lon="9.63537940601041"><ele>212.0</ele><time>2026-04-06T12:11:41.001Z</time></trkpt><trkpt lat="32.98878977442449" lon="9.635454389730933"><ele>212.0</ele><time>2026-04-06T12:11:43.001Z</time></trkpt><trkpt lat="32.98873427183685" lon="9.635562171919448"><ele>212.0</ele><time>2026-04-06T12:11:45.001Z</time></trkpt><trkpt lat="32.98869835199108" lon="9.635652083381162"><ele>212.0</ele><time>2026-04-06T12:11:47.001Z</time></trkpt><trkpt lat="32.988654068155796" lon="9.635756565674152"><ele>212.0</ele><time>2026-04-06T12:11:49.001Z</time></trkpt><trkpt lat="32.98860325485942" lon="9.635872407115318"><ele>212.0</ele><time>2026-04-06T12:11:51.001Z</time></trkpt><trkpt lat="32.988554771281834" lon="9.635972414057052"><ele>212.0</ele><time>2026-04-06T12:11:53.001Z</time></trkpt><trkpt lat="32.988525441674895" lon="9.63604146760501"><ele>212.0</ele><time>2026-04-06T12:11:54.001Z</time></trkpt><trkpt lat="32.98846851544302" lon="9.636158796561643"><ele>212.0</ele><time>2026-04-06T12:11:56.001Z</time></trkpt><trkpt lat="32.98842193762267" lon="9.636271502850725"><ele>212.0</ele><time>2026-04-06T12:11:58.001Z</time></trkpt><trkpt lat="32.98838174250295" lon="9.636374176835535"><ele>212.0</ele><time>2026-04-06T12:12:00.001Z</time></trkpt><trkpt lat="32.988330361935205" lon="9.63649173110042"><ele>212.0</ele><time>2026-04-06T12:12:02.001Z</time></trkpt><trkpt lat="32.98828001992452" lon="9.636610499283524"><ele>212.0</ele><time>2026-04-06T12:12:04.001Z</time></trkpt><trkpt lat="32.98822527964353" lon="9.636730457008477"><ele>212.0</ele><time>2026-04-06T12:12:06.001Z</time></trkpt><trkpt lat="32.988163662795905" lon="9.636848076943803"><ele>212.0</ele><time>2026-04-06T12:12:08.001Z</time></trkpt><trkpt lat="32.988113771728244" lon="9.63696532558435"><ele>212.0</ele><time>2026-04-06T12:12:10.001Z</time></trkpt><trkpt lat="32.9880704124446" lon="9.637084722377656"><ele>212.0</ele><time>2026-04-06T12:12:12.001Z</time></trkpt><trkpt lat="32.988025099041494" lon="9.637213831936876"><ele>212.0</ele><time>2026-04-06T12:12:14.001Z</time></trkpt><trkpt lat="32.987973448540224" lon="9.63733762567944"><ele>212.0</ele><time>2026-04-06T12:12:16Z</time></trkpt><trkpt lat="32.98792043396148" lon="9.637459978484168"><ele>212.0</ele><time>2026-04-06T12:12:18Z</time></trkpt><trkpt lat="32.987878280702795" lon="9.637573446035868"><ele>212.0</ele><time>2026-04-06T12:12:20Z</time></trkpt><trkpt lat="32.987817907953996" lon="9.637682273095475"><ele>212.0</ele><time>2026-04-06T12:12:22Z</time></trkpt><trkpt lat="32.98777129850898" lon="9.637802822642907"><ele>212.0</ele><time>2026-04-06T12:12:24Z</time></trkpt><trkpt lat="32.987717969530685" lon="9.637909723159098"><ele>212.0</ele><time>2026-04-06T12:12:26Z</time></trkpt><trkpt lat="32.98767510712419" lon="9.638013625832428"><ele>212.16666666666669</ele><time>2026-04-06T12:12:28Z</time></trkpt><trkpt lat="32.98763840010657" lon="9.638106298840578"><ele>212.33333333333334</ele><time>2026-04-06T12:12:30Z</time></trkpt><trkpt lat="32.98760417819093" lon="9.638184831889442"><ele>212.5</ele><time>2026-04-06T12:12:32Z</time></trkpt><trkpt lat="32.987571765967" lon="9.638254587990234"><ele>212.66666666666669</ele><time>2026-04-06T12:12:34Z</time></trkpt><trkpt lat="32.987525814495704" lon="9.638347955952765"><ele>212.83333333333334</ele><time>2026-04-06T12:12:37Z</time></trkpt><trkpt lat="32.98750976430755" lon="9.638438324940548"><ele>213.0</ele><time>2026-04-06T12:12:40Z</time></trkpt><trkpt lat="32.98746959637262" lon="9.638511014305127"><ele>212.99999999999997</ele><time>2026-04-06T12:12:42Z</time></trkpt><trkpt lat="32.98742561031915" lon="9.638575374558965"><ele>213.0</ele><time>2026-04-06T12:12:45Z</time></trkpt><trkpt lat="32.9874321690405" lon="9.638701902030412"><ele>213.0</ele><time>2026-04-06T12:14:40Z</time></trkpt><trkpt lat="32.98750078083662" lon="9.638686712562611"><ele>213.0</ele><time>2026-04-06T12:16:41Z</time></trkpt><trkpt lat="32.987540209974235" lon="9.6386182028113"><ele>213.0</ele><time>2026-04-06T12:16:49Z</time></trkpt><trkpt lat="32.987587716722686" lon="9.638563753398447"><ele>212.99999999999997</ele><time>2026-04-06T12:17:00Z</time></trkpt><trkpt lat="32.98764896625425" lon="9.638587179949743"><ele>213.0</ele><time>2026-04-06T12:17:07Z</time></trkpt><trkpt lat="32.98770552866201" lon="9.638634920414237"><ele>213.14285714285714</ele><time>2026-04-06T12:17:14Z</time></trkpt><trkpt lat="32.98777145681698" lon="9.638670048421737"><ele>213.28571428571428</ele><time>2026-04-06T12:17:22Z</time></trkpt><trkpt lat="32.98782456535524" lon="9.638716601818587"><ele>213.42857142857144</ele><time>2026-04-06T12:17:29Z</time></trkpt><trkpt lat="32.98789050537214" lon="9.638759946696906"><ele>213.57142857142856</ele><time>2026-04-06T12:17:37Z</time></trkpt><trkpt lat="32.9879281232717" lon="9.63882471716094"><ele>213.71428571428572</ele><time>2026-04-06T12:17:46Z</time></trkpt><trkpt lat="32.98797209782714" lon="9.638883425712397"><ele>213.85714285714286</ele><time>2026-04-06T12:18:06Z</time></trkpt><trkpt lat="32.988030506359166" lon="9.638926192203057"><ele>214.0</ele><time>2026-04-06T12:18:14Z</time></trkpt><trkpt lat="32.988070392108895" lon="9.638986255027211"><ele>214.00000000000003</ele><time>2026-04-06T12:18:25Z</time></trkpt><trkpt lat="32.98811655034345" lon="9.639042182782696"><ele>214.0</ele><time>2026-04-06T12:18:32Z</time></trkpt><trkpt lat="32.98817509551905" lon="9.639078567778007"><ele>214.0</ele><time>2026-04-06T12:18:39Z</time></trkpt><trkpt lat="32.9882103973452" lon="9.639140932956604"><ele>214.0</ele><time>2026-04-06T12:18:47Z</time></trkpt><trkpt lat="32.988228071528646" lon="9.63922080334654"><ele>214.0</ele><time>2026-04-06T12:18:53Z</time></trkpt><trkpt lat="32.988252454699065" lon="9.639297915462"><ele>214.00000000000003</ele><time>2026-04-06T12:19:00Z</time></trkpt><trkpt lat="32.98824964948193" lon="9.639378224567464"><ele>214.0</ele><time>2026-04-06T12:19:06Z</time></trkpt><trkpt lat="32.98825188340382" lon="9.639455453360968"><ele>214.2857142857143</ele><time>2026-04-06T12:19:12Z</time></trkpt><trkpt lat="32.98826188404711" lon="9.639532766921933"><ele>214.57142857142858</ele><time>2026-04-06T12:19:19Z</time></trkpt><trkpt lat="32.9882865531493" lon="9.639614350306001"><ele>214.85714285714286</ele><time>2026-04-06T12:19:26.999Z</time></trkpt><trkpt lat="32.988353117526295" lon="9.639676786780987"><ele>215.14285714285717</ele><time>2026-04-06T12:20:58Z</time></trkpt><trkpt lat="32.98839268772721" lon="9.639743786376266"><ele>215.42857142857142</ele><time>2026-04-06T12:21:07.999Z</time></trkpt><trkpt lat="32.98844210509757" lon="9.639803052545005"><ele>215.71428571428572</ele><time>2026-04-06T12:21:14.999Z</time></trkpt><trkpt lat="32.98847394261932" lon="9.639870918879952"><ele>216.0</ele><time>2026-04-06T12:21:21.999Z</time></trkpt><trkpt lat="32.98847643302924" lon="9.639948289916566"><ele>216.14285714285714</ele><time>2026-04-06T12:21:29.999Z</time></trkpt><trkpt lat="32.98854094106387" lon="9.63996756956387"><ele>216.28571428571428</ele><time>2026-04-06T12:21:44.999Z</time></trkpt><trkpt lat="32.988595769005045" lon="9.640008134362711"><ele>216.42857142857144</ele><time>2026-04-06T12:21:52.999Z</time></trkpt><trkpt lat="32.988658153555086" lon="9.64002486859549"><ele>216.57142857142856</ele><time>2026-04-06T12:31:36.999Z</time></trkpt><trkpt lat="32.988683737131566" lon="9.639949214411036"><ele>216.71428571428572</ele><time>2026-04-06T12:31:51.999Z</time></trkpt><trkpt lat="32.988717758883226" lon="9.639870311839854"><ele>216.85714285714286</ele><time>2026-04-06T12:32:41.029Z</time></trkpt><trkpt lat="32.98869790223897" lon="9.639796831215756"><ele>217.0</ele><time>2026-04-06T12:32:55Z</time></trkpt><trkpt lat="32.98864991733125" lon="9.639744862672494"><ele>217.0</ele><time>2026-04-06T12:33:02.034Z</time></trkpt><trkpt lat="32.98864291413099" lon="9.640027169377218"><ele>217.0</ele><time>2026-04-06T12:36:27.999Z</time></trkpt><trkpt lat="32.98859139752978" lon="9.639969837080478"><ele>217.0</ele><time>2026-04-06T13:45:19Z</time></trkpt><trkpt lat="32.9885603806359" lon="9.639895771654913"><ele>217.0</ele><time>2026-04-06T13:45:27Z</time></trkpt><trkpt lat="32.98858605585028" lon="9.639964619123965"><ele>217.0</ele><time>2026-04-06T13:49:55Z</time></trkpt><trkpt lat="32.98864789368715" lon="9.639987404163504"><ele>217.0</ele><time>2026-04-06T13:50:11Z</time></trkpt><trkpt lat="32.98865038069825" lon="9.640062502814972"><ele>217.0</ele><time>2026-04-06T13:58:20.001Z</time></trkpt><trkpt lat="32.98862034276989" lon="9.640135707409502"><ele>217.0</ele><time>2026-04-06T13:58:29.001Z</time></trkpt><trkpt lat="32.988607769125245" lon="9.640215051872065"><ele>217.0</ele><time>2026-04-06T13:58:38.001Z</time></trkpt><trkpt lat="32.98861134831449" lon="9.640292284530243"><ele>217.0</ele><time>2026-04-06T13:58:48.001Z</time></trkpt><trkpt lat="32.9886130733406" lon="9.640391852183884"><ele>217.0</ele><time>2026-04-06T13:59:03.001Z</time></trkpt><trkpt lat="32.98853269150674" lon="9.64041929348355"><ele>217.0</ele><time>2026-04-06T13:59:06.001Z</time></trkpt><trkpt lat="32.9885891439417" lon="9.640378315486927"><ele>217.0</ele><time>2026-04-06T14:00:27.001Z</time></trkpt><trkpt lat="32.988509918910275" lon="9.64035408583553"><ele>217.0</ele><time>2026-04-06T14:00:59.001Z</time></trkpt><trkpt lat="32.988517215121135" lon="9.640269860161975"><ele>217.0</ele><time>2026-04-06T14:01:05.001Z</time></trkpt><trkpt lat="32.98852866565078" lon="9.64018029010992"><ele>217.0</ele><time>2026-04-06T14:01:09.001Z</time></trkpt><trkpt lat="32.988554829029354" lon="9.64010581281215"><ele>217.0</ele><time>2026-04-06T14:01:12.001Z</time></trkpt><trkpt lat="32.988584159172284" lon="9.64003283777852"><ele>217.0</ele><time>2026-04-06T14:01:18.001Z</time></trkpt><trkpt lat="32.98864392884678" lon="9.6399958482161"><ele>217.0</ele><time>2026-04-06T14:02:08Z</time></trkpt><trkpt lat="32.98858486991389" lon="9.63996401958871"><ele>216.99999999999997</ele><time>2026-04-06T14:11:01.001Z</time></trkpt><trkpt lat="32.98854864750893" lon="9.639887736372515"><ele>217.0</ele><time>2026-04-06T14:11:10.001Z</time></trkpt><trkpt lat="32.98849203487169" lon="9.639841989571377"><ele>217.0</ele><time>2026-04-06T14:11:17Z</time></trkpt><trkpt lat="32.98845937489799" lon="9.639774636895938"><ele>217.0</ele><time>2026-04-06T14:11:27Z</time></trkpt><trkpt lat="32.988409172852485" lon="9.639717072743881"><ele>216.99999999999997</ele><time>2026-04-06T14:11:35Z</time></trkpt><trkpt lat="32.988393587930155" lon="9.63964011342545"><ele>217.0</ele><time>2026-04-06T14:11:42Z</time></trkpt><trkpt lat="32.98856563308448" lon="9.639702399962772"><ele>216.99999999999997</ele><time>2026-04-06T14:13:54.024Z</time></trkpt><trkpt lat="32.98854198806108" lon="9.63962102411158"><ele>217.0</ele><time>2026-04-06T14:15:12.014Z</time></trkpt><trkpt lat="32.988468533492785" lon="9.639597837974021"><ele>217.0</ele><time>2026-04-06T14:15:32.014Z</time></trkpt><trkpt lat="32.98857155992297" lon="9.639740984863089"><ele>217.0</ele><time>2026-04-06T14:19:37.012Z</time></trkpt><trkpt lat="32.98850890819739" lon="9.639711141785607"><ele>216.99999999999997</ele><time>2026-04-06T14:19:44.015Z</time></trkpt><trkpt lat="32.98846406020356" lon="9.639654653073235"><ele>217.0</ele><time>2026-04-06T14:19:57.015Z</time></trkpt><trkpt lat="32.98840586922499" lon="9.639609846598683"><ele>217.0</ele><time>2026-04-06T14:20:05.013Z</time></trkpt><trkpt lat="32.98840816517292" lon="9.639685752277039"><ele>217.0</ele><time>2026-04-06T14:20:54.019Z</time></trkpt><trkpt lat="32.98847058951421" lon="9.639668390715746"><ele>217.0</ele><time>2026-04-06T14:21:02.997Z</time></trkpt><trkpt lat="32.98840551069896" lon="9.63965069825033"><ele>217.0</ele><time>2026-04-06T14:21:25.017Z</time></trkpt><trkpt lat="32.988329650963955" lon="9.639618068868266"><ele>217.0</ele><time>2026-04-06T14:21:37.018Z</time></trkpt><trkpt lat="32.98839025495744" lon="9.639646758740499"><ele>217.0</ele><time>2026-04-06T14:21:49.014Z</time></trkpt><trkpt lat="32.98845560705512" lon="9.639703705972146"><ele>217.0</ele><time>2026-04-06T14:21:52.014Z</time></trkpt><trkpt lat="32.988403309025244" lon="9.639656401482803"><ele>216.85714285714286</ele><time>2026-04-06T14:22:25Z</time></trkpt><trkpt lat="32.98834057374892" lon="9.639639532130142"><ele>216.71428571428572</ele><time>2026-04-06T14:22:43Z</time></trkpt><trkpt lat="32.988293733264136" lon="9.639585048469147"><ele>216.57142857142856</ele><time>2026-04-06T14:22:59Z</time></trkpt><trkpt lat="32.988260366744626" lon="9.639518670273153"><ele>216.42857142857144</ele><time>2026-04-06T14:23:05Z</time></trkpt><trkpt lat="32.988262706114334" lon="9.639429929931174"><ele>216.28571428571428</ele><time>2026-04-06T14:23:12Z</time></trkpt><trkpt lat="32.98827217066775" lon="9.639341934916596"><ele>216.14285714285714</ele><time>2026-04-06T14:23:19Z</time></trkpt><trkpt lat="32.988254318517065" lon="9.639255698071358"><ele>216.0</ele><time>2026-04-06T14:23:27Z</time></trkpt><trkpt lat="32.9882172656722" lon="9.639187878356756"><ele>215.71428571428572</ele><time>2026-04-06T14:23:33Z</time></trkpt><trkpt lat="32.988186226398234" lon="9.63911181581163"><ele>215.42857142857142</ele><time>2026-04-06T14:23:39Z</time></trkpt><trkpt lat="32.9881357964071" lon="9.639059534536921"><ele>215.14285714285717</ele><time>2026-04-06T14:23:44Z</time></trkpt><trkpt lat="32.98807570809439" lon="9.639029779222497"><ele>214.85714285714286</ele><time>2026-04-06T14:23:49Z</time></trkpt><trkpt lat="32.98804707714694" lon="9.638954160109039"><ele>214.57142857142858</ele><time>2026-04-06T14:23:55.999Z</time></trkpt><trkpt lat="32.987994925924724" lon="9.63889511073602"><ele>214.2857142857143</ele><time>2026-04-06T14:24:01.999Z</time></trkpt><trkpt lat="32.987943313619475" lon="9.638831253561243"><ele>214.0</ele><time>2026-04-06T14:24:11Z</time></trkpt><trkpt lat="32.987900647925855" lon="9.63877567117022"><ele>214.00000000000003</ele><time>2026-04-06T14:24:36Z</time></trkpt><trkpt lat="32.98783910256806" lon="9.638727192918791"><ele>214.0</ele><time>2026-04-06T14:24:43Z</time></trkpt><trkpt lat="32.98778197985912" lon="9.638682672915326"><ele>214.0</ele><time>2026-04-06T14:24:50Z</time></trkpt><trkpt lat="32.987727281561504" lon="9.638632536443684"><ele>214.0</ele><time>2026-04-06T14:24:57Z</time></trkpt><trkpt lat="32.987661751331075" lon="9.6386364529328"><ele>214.0</ele><time>2026-04-06T14:25:05Z</time></trkpt><trkpt lat="32.98758902762046" lon="9.638645655194772"><ele>214.00000000000003</ele><time>2026-04-06T14:25:17Z</time></trkpt><trkpt lat="32.98765828419819" lon="9.638669026662901"><ele>214.0</ele><time>2026-04-06T14:25:35Z</time></trkpt><trkpt lat="32.98771808528616" lon="9.638622539527711"><ele>213.0</ele><time>2026-04-06T14:25:38Z</time></trkpt></trkseg><trkseg><trkpt lat="32.987188366186984" lon="9.63881319711831"><ele>214.00000000000003</ele><time>2026-04-06T14:41:09.254Z</time></trkpt><trkpt lat="32.98725091503629" lon="9.63882386822859"><ele>214.0</ele><time>2026-04-06T14:42:16.999Z</time></trkpt><trkpt lat="32.98731362421276" lon="9.638727113002247"><ele>214.0</ele><time>2026-04-06T14:42:52.999Z</time></trkpt><trkpt lat="32.98738521371753" lon="9.638689916964562"><ele>214.0</ele><time>2026-04-06T14:42:53.999Z</time></trkpt><trkpt lat="32.98744660822011" lon="9.638726950593776"><ele>214.0</ele><time>2026-04-06T14:42:58.999Z</time></trkpt><trkpt lat="32.98750236350713" lon="9.638676858328942"><ele>214.00000000000003</ele><time>2026-04-06T14:43:00.999Z</time></trkpt><trkpt lat="32.987541734220834" lon="9.638618141355614"><ele>214.0</ele><time>2026-04-06T14:43:04.999Z</time></trkpt><trkpt lat="32.98759226994344" lon="9.638559430910247"><ele>213.83333333333331</ele><time>2026-04-06T14:43:07.999Z</time></trkpt><trkpt lat="32.987589944368615" lon="9.63846679719467"><ele>213.66666666666666</ele><time>2026-04-06T14:43:27.998Z</time></trkpt><trkpt lat="32.98751137655455" lon="9.638407593545816"><ele>213.5</ele><time>2026-04-06T14:43:29.998Z</time></trkpt><trkpt lat="32.98743260331528" lon="9.638378898917335"><ele>213.33333333333331</ele><time>2026-04-06T14:43:30.998Z</time></trkpt><trkpt lat="32.987368984008995" lon="9.638349506873196"><ele>213.16666666666666</ele><time>2026-04-06T14:43:31.998Z</time></trkpt><trkpt lat="32.987276137260054" lon="9.63829338855704"><ele>213.0</ele><time>2026-04-06T14:43:33.998Z</time></trkpt><trkpt lat="32.98716362814033" lon="9.638238709507531"><ele>213.0</ele><time>2026-04-06T14:43:35.998Z</time></trkpt><trkpt lat="32.987063966092606" lon="9.638187137724353"><ele>213.0</ele><time>2026-04-06T14:43:37.998Z</time></trkpt><trkpt lat="32.986973494625715" lon="9.638136109820186"><ele>213.0</ele><time>2026-04-06T14:43:39.998Z</time></trkpt><trkpt lat="32.98688026463469" lon="9.638083790029276"><ele>213.0</ele><time>2026-04-06T14:43:41.998Z</time></trkpt><trkpt lat="32.98677079090927" lon="9.638018372216218"><ele>213.0</ele><time>2026-04-06T14:43:43.998Z</time></trkpt><trkpt lat="32.98670947116414" lon="9.637979905659295"><ele>213.0</ele><time>2026-04-06T14:43:44.998Z</time></trkpt><trkpt lat="32.986643645687" lon="9.63793987717037"><ele>213.0</ele><time>2026-04-06T14:43:45.998Z</time></trkpt><trkpt lat="32.986573571173864" lon="9.637900381661852"><ele>213.0</ele><time>2026-04-06T14:43:46.999Z</time></trkpt><trkpt lat="32.98650656131471" lon="9.637864712701592"><ele>213.0</ele><time>2026-04-06T14:43:47.999Z</time></trkpt><trkpt lat="32.98644282945036" lon="9.637829615054791"><ele>213.0</ele><time>2026-04-06T14:43:48.999Z</time></trkpt><trkpt lat="32.98632942402128" lon="9.637765173497208"><ele>213.0</ele><time>2026-04-06T14:43:50.999Z</time></trkpt><trkpt lat="32.98622406299889" lon="9.637710037238145"><ele>212.75</ele><time>2026-04-06T14:43:52.999Z</time></trkpt><trkpt lat="32.98610803575706" lon="9.637651685068409"><ele>212.5</ele><time>2026-04-06T14:43:54.999Z</time></trkpt><trkpt lat="32.985993902684164" lon="9.63759208751052"><ele>212.25</ele><time>2026-04-06T14:43:56.999Z</time></trkpt><trkpt lat="32.98588974886001" lon="9.637533725302683"><ele>212.0</ele><time>2026-04-06T14:43:58.999Z</time></trkpt><trkpt lat="32.98579858784865" lon="9.6374829538104"><ele>212.5</ele><time>2026-04-06T14:44:00.999Z</time></trkpt><trkpt lat="32.985710443921235" lon="9.637422574850248"><ele>213.0</ele><time>2026-04-06T14:44:02.999Z</time></trkpt><trkpt lat="32.985610595457146" lon="9.637376888074455"><ele>213.5</ele><time>2026-04-06T14:44:04.999Z</time></trkpt><trkpt lat="32.985502767625675" lon="9.637316517476942"><ele>214.0</ele><time>2026-04-06T14:44:06.999Z</time></trkpt><trkpt lat="32.9853906738859" lon="9.637245605698542"><ele>214.00000000000003</ele><time>2026-04-06T14:44:08.999Z</time></trkpt><trkpt lat="32.98532973022628" lon="9.637212722162928"><ele>214.0</ele><time>2026-04-06T14:44:09.999Z</time></trkpt><trkpt lat="32.9852687110395" lon="9.637183145350404"><ele>214.0</ele><time>2026-04-06T14:44:10.999Z</time></trkpt><trkpt lat="32.98520744776484" lon="9.637147648471638"><ele>214.0</ele><time>2026-04-06T14:44:11.999Z</time></trkpt><trkpt lat="32.9851452974479" lon="9.637107072151593"><ele>214.0</ele><time>2026-04-06T14:44:12.999Z</time></trkpt><trkpt lat="32.98508117711985" lon="9.637072130600364"><ele>214.00000000000003</ele><time>2026-04-06T14:44:13.999Z</time></trkpt><trkpt lat="32.98501847004979" lon="9.637035868226071"><ele>214.0</ele><time>2026-04-06T14:44:14.999Z</time></trkpt><trkpt lat="32.98495049600367" lon="9.63699911620879"><ele>213.33333333333331</ele><time>2026-04-06T14:44:15.999Z</time></trkpt><trkpt lat="32.98488079329615" lon="9.636957385691089"><ele>212.66666666666666</ele><time>2026-04-06T14:44:16.999Z</time></trkpt><trkpt lat="32.984813684022924" lon="9.636921951840707"><ele>212.0</ele><time>2026-04-06T14:44:17.999Z</time></trkpt><trkpt lat="32.984738236239025" lon="9.63688309696481"><ele>211.33333333333331</ele><time>2026-04-06T14:44:18.999Z</time></trkpt><trkpt lat="32.98466577655381" lon="9.636842016431498"><ele>210.66666666666666</ele><time>2026-04-06T14:44:19.999Z</time></trkpt><trkpt lat="32.984599731105575" lon="9.636804607478307"><ele>210.0</ele><time>2026-04-06T14:44:20.999Z</time></trkpt><trkpt lat="32.9845290018148" lon="9.636766201983683"><ele>210.0</ele><time>2026-04-06T14:44:21.999Z</time></trkpt><trkpt lat="32.984461495604386" lon="9.636725196135446"><ele>210.0</ele><time>2026-04-06T14:44:22.999Z</time></trkpt><trkpt lat="32.9843918967138" lon="9.636692530476092"><ele>210.0</ele><time>2026-04-06T14:44:23.999Z</time></trkpt><trkpt lat="32.984323035394944" lon="9.636655268794623"><ele>210.0</ele><time>2026-04-06T14:44:24.999Z</time></trkpt><trkpt lat="32.98424965763024" lon="9.636620457915983"><ele>210.0</ele><time>2026-04-06T14:44:25.999Z</time></trkpt><trkpt lat="32.98418130601687" lon="9.636580442300904"><ele>210.0</ele><time>2026-04-06T14:44:26.999Z</time></trkpt><trkpt lat="32.984116146755305" lon="9.636536674316746"><ele>210.14285714285714</ele><time>2026-04-06T14:44:27.999Z</time></trkpt><trkpt lat="32.98404992382008" lon="9.636495429467116"><ele>210.28571428571428</ele><time>2026-04-06T14:44:28.999Z</time></trkpt><trkpt lat="32.98398067106997" lon="9.636452905147339"><ele>210.42857142857144</ele><time>2026-04-06T14:44:29.999Z</time></trkpt><trkpt lat="32.983920219800574" lon="9.636419473799808"><ele>210.57142857142856</ele><time>2026-04-06T14:44:30.999Z</time></trkpt><trkpt lat="32.983853061210944" lon="9.636386641742103"><ele>210.71428571428572</ele><time>2026-04-06T14:44:31.999Z</time></trkpt><trkpt lat="32.98378251960343" lon="9.636354038417348"><ele>210.85714285714286</ele><time>2026-04-06T14:44:32.999Z</time></trkpt><trkpt lat="32.98371482234047" lon="9.636318453919856"><ele>211.0</ele><time>2026-04-06T14:44:33.999Z</time></trkpt><trkpt lat="32.98365175123641" lon="9.636284301579586"><ele>210.99999999999997</ele><time>2026-04-06T14:44:34.999Z</time></trkpt><trkpt lat="32.98359089794062" lon="9.636247334731543"><ele>211.0</ele><time>2026-04-06T14:44:35.999Z</time></trkpt><trkpt lat="32.98352939069209" lon="9.636207623155894"><ele>211.0</ele><time>2026-04-06T14:44:36.999Z</time></trkpt><trkpt lat="32.9834653686829" lon="9.636174583209852"><ele>211.0</ele><time>2026-04-06T14:44:37.999Z</time></trkpt><trkpt lat="32.98336549865608" lon="9.636122906004807"><ele>210.99999999999997</ele><time>2026-04-06T14:44:39.999Z</time></trkpt><trkpt lat="32.98325697296926" lon="9.63606777622911"><ele>211.0</ele><time>2026-04-06T14:44:41.999Z</time></trkpt><trkpt lat="32.98316205299098" lon="9.636017082873844"><ele>211.4</ele><time>2026-04-06T14:44:43.999Z</time></trkpt><trkpt lat="32.98306711203604" lon="9.636032912111292"><ele>211.8</ele><time>2026-04-06T14:44:45.999Z</time></trkpt><trkpt lat="32.98299718968366" lon="9.636103309902044"><ele>212.20000000000002</ele><time>2026-04-06T14:44:47.999Z</time></trkpt><trkpt lat="32.98296007602925" lon="9.63622407799273"><ele>212.60000000000002</ele><time>2026-04-06T14:44:49.999Z</time></trkpt><trkpt lat="32.98292579370786" lon="9.636347441758607"><ele>213.0</ele><time>2026-04-06T14:44:51.999Z</time></trkpt><trkpt lat="32.98288725560445" lon="9.63644499048428"><ele>213.0</ele><time>2026-04-06T14:44:53.999Z</time></trkpt><trkpt lat="32.98284493533841" lon="9.63654823337646"><ele>213.0</ele><time>2026-04-06T14:44:55.999Z</time></trkpt><trkpt lat="32.98279710892683" lon="9.636670477298123"><ele>213.0</ele><time>2026-04-06T14:44:57.999Z</time></trkpt><trkpt lat="32.982743712926464" lon="9.636803015256769"><ele>213.0</ele><time>2026-04-06T14:44:59.999Z</time></trkpt><trkpt lat="32.982714152527365" lon="9.63687242485783"><ele>213.0</ele><time>2026-04-06T14:45:00.999Z</time></trkpt><trkpt lat="32.98268509372708" lon="9.636940184209424"><ele>212.83333333333334</ele><time>2026-04-06T14:45:01.999Z</time></trkpt><trkpt lat="32.98265206783953" lon="9.637012859193169"><ele>212.66666666666669</ele><time>2026-04-06T14:45:02.999Z</time></trkpt><trkpt lat="32.98261951405223" lon="9.637082276871434"><ele>212.5</ele><time>2026-04-06T14:45:03.999Z</time></trkpt><trkpt lat="32.982588804574924" lon="9.63715368205241"><ele>212.33333333333334</ele><time>2026-04-06T14:45:04.999Z</time></trkpt><trkpt lat="32.982559595509265" lon="9.637224996393378"><ele>212.16666666666669</ele><time>2026-04-06T14:45:05.999Z</time></trkpt><trkpt lat="32.98253634043724" lon="9.637294774778931"><ele>212.0</ele><time>2026-04-06T14:45:06.999Z</time></trkpt><trkpt lat="32.98248592841545" lon="9.637426276666062"><ele>212.0</ele><time>2026-04-06T14:45:08.999Z</time></trkpt><trkpt lat="32.98245799127396" lon="9.637494140505385"><ele>212.0</ele><time>2026-04-06T14:45:09.999Z</time></trkpt><trkpt lat="32.98241125756999" lon="9.637613681700028"><ele>212.0</ele><time>2026-04-06T14:45:11.999Z</time></trkpt><trkpt lat="32.98236528638878" lon="9.637718814212434"><ele>212.0</ele><time>2026-04-06T14:45:13.999Z</time></trkpt><trkpt lat="32.98231894188178" lon="9.637831017711969"><ele>212.0</ele><time>2026-04-06T14:45:15.998Z</time></trkpt><trkpt lat="32.98227530794497" lon="9.637946768293734"><ele>211.66666666666669</ele><time>2026-04-06T14:45:17.998Z</time></trkpt><trkpt lat="32.982219446684766" lon="9.63807556451739"><ele>211.33333333333334</ele><time>2026-04-06T14:45:19.998Z</time></trkpt><trkpt lat="32.9821921516666" lon="9.63814446530581"><ele>211.0</ele><time>2026-04-06T14:45:20.998Z</time></trkpt><trkpt lat="32.98216463600735" lon="9.638214751021914"><ele>210.66666666666669</ele><time>2026-04-06T14:45:21.998Z</time></trkpt><trkpt lat="32.98213670842964" lon="9.638285715214444"><ele>210.33333333333334</ele><time>2026-04-06T14:45:22.998Z</time></trkpt><trkpt lat="32.98210536561235" lon="9.638358174517288"><ele>210.0</ele><time>2026-04-06T14:45:23.998Z</time></trkpt><trkpt lat="32.982073994364924" lon="9.638429935018749"><ele>210.0</ele><time>2026-04-06T14:45:24.998Z</time></trkpt><trkpt lat="32.982045078605935" lon="9.63849997333038"><ele>210.0</ele><time>2026-04-06T14:45:25.998Z</time></trkpt><trkpt lat="32.98201483307832" lon="9.638570775145478"><ele>210.0</ele><time>2026-04-06T14:45:26.998Z</time></trkpt><trkpt lat="32.98198824585661" lon="9.638647434649712"><ele>210.0</ele><time>2026-04-06T14:45:27.998Z</time></trkpt><trkpt lat="32.98195955795509" lon="9.638719046390957"><ele>210.0</ele><time>2026-04-06T14:45:28.998Z</time></trkpt><trkpt lat="32.98192855659917" lon="9.638795953890208"><ele>210.0</ele><time>2026-04-06T14:45:29.998Z</time></trkpt><trkpt lat="32.98189387355106" lon="9.638872928352363"><ele>210.0</ele><time>2026-04-06T14:45:30.998Z</time></trkpt><trkpt lat="32.9818636039971" lon="9.63895006049163"><ele>210.28571428571428</ele><time>2026-04-06T14:45:31.998Z</time></trkpt><trkpt lat="32.98183835566664" lon="9.639031354294639"><ele>210.57142857142856</ele><time>2026-04-06T14:45:32.998Z</time></trkpt><trkpt lat="32.98180826753661" lon="9.639108097850878"><ele>210.85714285714286</ele><time>2026-04-06T14:45:33.998Z</time></trkpt><trkpt lat="32.98177862971006" lon="9.639185492890643"><ele>211.14285714285714</ele><time>2026-04-06T14:45:34.998Z</time></trkpt><trkpt lat="32.98174854554622" lon="9.639258673971952"><ele>211.42857142857142</ele><time>2026-04-06T14:45:35.998Z</time></trkpt><trkpt lat="32.98171674581821" lon="9.639335635038712"><ele>211.71428571428572</ele><time>2026-04-06T14:45:36.998Z</time></trkpt><trkpt lat="32.98168754593053" lon="9.639409608013512"><ele>212.0</ele><time>2026-04-06T14:45:37.998Z</time></trkpt><trkpt lat="32.98163986039566" lon="9.639520877452973"><ele>212.0</ele><time>2026-04-06T14:45:39.998Z</time></trkpt><trkpt lat="32.98159573008835" lon="9.639630416620145"><ele>212.0</ele><time>2026-04-06T14:45:41.998Z</time></trkpt><trkpt lat="32.98155511317118" lon="9.639747426503575"><ele>212.0</ele><time>2026-04-06T14:45:43.998Z</time></trkpt><trkpt lat="32.98150446319412" lon="9.639860522776813"><ele>212.0</ele><time>2026-04-06T14:45:45.998Z</time></trkpt><trkpt lat="32.981458926915195" lon="9.639966647209691"><ele>212.0</ele><time>2026-04-06T14:45:47.999Z</time></trkpt><trkpt lat="32.981423467081875" lon="9.640070202675027"><ele>212.0</ele><time>2026-04-06T14:45:49.999Z</time></trkpt><trkpt lat="32.98138018923936" lon="9.640180145788582"><ele>212.0</ele><time>2026-04-06T14:45:51.999Z</time></trkpt><trkpt lat="32.98132751256343" lon="9.640291502580117"><ele>212.0</ele><time>2026-04-06T14:45:53.999Z</time></trkpt><trkpt lat="32.98128295506983" lon="9.640404554470882"><ele>212.0</ele><time>2026-04-06T14:45:55.999Z</time></trkpt><trkpt lat="32.981229352117715" lon="9.640532395059608"><ele>212.0</ele><time>2026-04-06T14:45:57.999Z</time></trkpt><trkpt lat="32.9811985149096" lon="9.640600610688661"><ele>212.14285714285714</ele><time>2026-04-06T14:45:58.999Z</time></trkpt><trkpt lat="32.981169654522056" lon="9.640671860604357"><ele>212.28571428571428</ele><time>2026-04-06T14:45:59.999Z</time></trkpt><trkpt lat="32.98113856505121" lon="9.640748288935164"><ele>212.42857142857142</ele><time>2026-04-06T14:46:00.999Z</time></trkpt><trkpt lat="32.98110817700323" lon="9.640824084315627"><ele>212.57142857142856</ele><time>2026-04-06T14:46:01.999Z</time></trkpt><trkpt lat="32.98107386376405" lon="9.640903404788187"><ele>212.71428571428572</ele><time>2026-04-06T14:46:02.999Z</time></trkpt><trkpt lat="32.981033059581826" lon="9.640971402591475"><ele>212.85714285714283</ele><time>2026-04-06T14:46:03.999Z</time></trkpt><trkpt lat="32.98098953851848" lon="9.641038633294958"><ele>213.0</ele><time>2026-04-06T14:46:04.999Z</time></trkpt><trkpt lat="32.98094443535273" lon="9.641109908655542"><ele>213.14285714285714</ele><time>2026-04-06T14:46:05.999Z</time></trkpt><trkpt lat="32.98089599339109" lon="9.641175908589119"><ele>213.28571428571428</ele><time>2026-04-06T14:46:06.999Z</time></trkpt><trkpt lat="32.98084544085789" lon="9.641242859270855"><ele>213.42857142857144</ele><time>2026-04-06T14:46:07.999Z</time></trkpt><trkpt lat="32.98079563025415" lon="9.641305717597044"><ele>213.57142857142856</ele><time>2026-04-06T14:46:08.999Z</time></trkpt><trkpt lat="32.98074384187841" lon="9.641362890917051"><ele>213.71428571428572</ele><time>2026-04-06T14:46:09.999Z</time></trkpt><trkpt lat="32.98068804982183" lon="9.64142470235769"><ele>213.85714285714286</ele><time>2026-04-06T14:46:10.999Z</time></trkpt><trkpt lat="32.98063410634228" lon="9.641490538149231"><ele>214.0</ele><time>2026-04-06T14:46:11.999Z</time></trkpt><trkpt lat="32.980577530376465" lon="9.64154820703954"><ele>213.66666666666666</ele><time>2026-04-06T14:46:12.999Z</time></trkpt><trkpt lat="32.980518494904594" lon="9.641603660936115"><ele>213.33333333333331</ele><time>2026-04-06T14:46:13.999Z</time></trkpt><trkpt lat="32.980457435028086" lon="9.64166216633155"><ele>213.0</ele><time>2026-04-06T14:46:14.999Z</time></trkpt><trkpt lat="32.98040341037281" lon="9.641718746096899"><ele>212.66666666666669</ele><time>2026-04-06T14:46:15.999Z</time></trkpt><trkpt lat="32.98035242526565" lon="9.641774775311326"><ele>212.33333333333334</ele><time>2026-04-06T14:46:16.999Z</time></trkpt><trkpt lat="32.98029287280788" lon="9.64183340847949"><ele>212.0</ele><time>2026-04-06T14:46:17.999Z</time></trkpt><trkpt lat="32.980230337095044" lon="9.641895820657094"><ele>212.00000000000003</ele><time>2026-04-06T14:46:18.999Z</time></trkpt><trkpt lat="32.98016695665425" lon="9.641964521880874"><ele>212.0</ele><time>2026-04-06T14:46:19.999Z</time></trkpt><trkpt lat="32.980104663788204" lon="9.642031072473543"><ele>212.0</ele><time>2026-04-06T14:46:20.999Z</time></trkpt><trkpt lat="32.98004334411036" lon="9.64209771123432"><ele>212.0</ele><time>2026-04-06T14:46:21.999Z</time></trkpt><trkpt lat="32.97997745000698" lon="9.642162008299282"><ele>212.00000000000003</ele><time>2026-04-06T14:46:22.999Z</time></trkpt><trkpt lat="32.979915868432926" lon="9.642223973200304"><ele>212.0</ele><time>2026-04-06T14:46:23.999Z</time></trkpt><trkpt lat="32.97985611463302" lon="9.64228837829368"><ele>211.16666666666669</ele><time>2026-04-06T14:46:24.999Z</time></trkpt><trkpt lat="32.979798408068746" lon="9.642352807404862"><ele>210.33333333333334</ele><time>2026-04-06T14:46:25.999Z</time></trkpt><trkpt lat="32.97973872578149" lon="9.642414769967548"><ele>209.5</ele><time>2026-04-06T14:46:26.999Z</time></trkpt><trkpt lat="32.97968134379536" lon="9.64247679157006"><ele>208.66666666666669</ele><time>2026-04-06T14:46:27.999Z</time></trkpt><trkpt lat="32.97962473114689" lon="9.642542832807054"><ele>207.83333333333334</ele><time>2026-04-06T14:46:28.999Z</time></trkpt><trkpt lat="32.97956930422082" lon="9.642612905508047"><ele>207.0</ele><time>2026-04-06T14:46:29.999Z</time></trkpt><trkpt lat="32.97951060668713" lon="9.642686673229845"><ele>207.0</ele><time>2026-04-06T14:46:30.999Z</time></trkpt><trkpt lat="32.97945398393284" lon="9.642768161629453"><ele>207.0</ele><time>2026-04-06T14:46:31.999Z</time></trkpt><trkpt lat="32.979403102796084" lon="9.642865410644"><ele>207.0</ele><time>2026-04-06T14:46:32.999Z</time></trkpt><trkpt lat="32.9793563728818" lon="9.642977755655252"><ele>207.0</ele><time>2026-04-06T14:46:33.999Z</time></trkpt><trkpt lat="32.97931320568378" lon="9.643098800776759"><ele>207.0</ele><time>2026-04-06T14:46:34.999Z</time></trkpt><trkpt lat="32.979264640764185" lon="9.64322175895565"><ele>207.6</ele><time>2026-04-06T14:46:35.999Z</time></trkpt><trkpt lat="32.979221219175535" lon="9.64333543880536"><ele>208.2</ele><time>2026-04-06T14:46:36.999Z</time></trkpt><trkpt lat="32.97917377557017" lon="9.643449675042637"><ele>208.8</ele><time>2026-04-06T14:46:37.999Z</time></trkpt><trkpt lat="32.97912407424878" lon="9.643561213766374"><ele>209.4</ele><time>2026-04-06T14:46:38.999Z</time></trkpt><trkpt lat="32.97907076001321" lon="9.643672016740181"><ele>210.0</ele><time>2026-04-06T14:46:39.999Z</time></trkpt><trkpt lat="32.97901787652191" lon="9.643779823146264"><ele>210.0</ele><time>2026-04-06T14:46:40.999Z</time></trkpt><trkpt lat="32.97896363513494" lon="9.643890504878176"><ele>210.0</ele><time>2026-04-06T14:46:41.999Z</time></trkpt><trkpt lat="32.97890707778983" lon="9.64399990037886"><ele>210.0</ele><time>2026-04-06T14:46:42.999Z</time></trkpt><trkpt lat="32.97885139282432" lon="9.644107746063995"><ele>210.0</ele><time>2026-04-06T14:46:43.999Z</time></trkpt><trkpt lat="32.97879113671694" lon="9.644217802356863"><ele>210.0</ele><time>2026-04-06T14:46:44.999Z</time></trkpt><trkpt lat="32.9787361995645" lon="9.644328242232785"><ele>210.0</ele><time>2026-04-06T14:46:45.999Z</time></trkpt><trkpt lat="32.97868315761369" lon="9.644437148713997"><ele>210.0</ele><time>2026-04-06T14:46:46.999Z</time></trkpt><trkpt lat="32.97862642715254" lon="9.64454227973602"><ele>210.0</ele><time>2026-04-06T14:46:47.999Z</time></trkpt><trkpt lat="32.97856654830921" lon="9.644648098075033"><ele>210.0</ele><time>2026-04-06T14:46:48.999Z</time></trkpt><trkpt lat="32.97850885352592" lon="9.644752381422023"><ele>210.0</ele><time>2026-04-06T14:46:49.999Z</time></trkpt><trkpt lat="32.97845585588152" lon="9.6448609498899"><ele>210.0</ele><time>2026-04-06T14:46:50.999Z</time></trkpt><trkpt lat="32.97840407115895" lon="9.644969257395637"><ele>210.0</ele><time>2026-04-06T14:46:51.999Z</time></trkpt><trkpt lat="32.97834812036742" lon="9.645078706786514"><ele>210.0</ele><time>2026-04-06T14:46:52.999Z</time></trkpt><trkpt lat="32.97829428953706" lon="9.645188290539215"><ele>210.0</ele><time>2026-04-06T14:46:53.999Z</time></trkpt><trkpt lat="32.97823858023833" lon="9.645295049462355"><ele>210.0</ele><time>2026-04-06T14:46:54.999Z</time></trkpt><trkpt lat="32.97818045341696" lon="9.645398833510537"><ele>210.0</ele><time>2026-04-06T14:46:55.999Z</time></trkpt><trkpt lat="32.97812606439048" lon="9.645502378990095"><ele>210.0</ele><time>2026-04-06T14:46:56.999Z</time></trkpt><trkpt lat="32.97808595892163" lon="9.645588276891232"><ele>210.0</ele><time>2026-04-06T14:46:57.999Z</time></trkpt><trkpt lat="32.97805017477354" lon="9.64566353832341"><ele>210.0</ele><time>2026-04-06T14:46:58.999Z</time></trkpt><trkpt lat="32.97801575450407" lon="9.645734138062862"><ele>210.0</ele><time>2026-04-06T14:46:59.999Z</time></trkpt><trkpt lat="32.977984683214856" lon="9.64580375931848"><ele>210.0</ele><time>2026-04-06T14:47:00.999Z</time></trkpt><trkpt lat="32.977950372078304" lon="9.645881469442882"><ele>210.0</ele><time>2026-04-06T14:47:01.999Z</time></trkpt><trkpt lat="32.97791674251942" lon="9.645950557978423"><ele>210.0</ele><time>2026-04-06T14:47:02.999Z</time></trkpt><trkpt lat="32.97786060556509" lon="9.646071855562383"><ele>210.0</ele><time>2026-04-06T14:47:04.999Z</time></trkpt><trkpt lat="32.9778663103304" lon="9.646211397475996"><ele>210.0</ele><time>2026-04-06T14:47:06.999Z</time></trkpt><trkpt lat="32.97789271319998" lon="9.64628523229825"><ele>210.0</ele><time>2026-04-06T14:47:07.999Z</time></trkpt><trkpt lat="32.9779436938765" lon="9.64636032749959"><ele>210.0</ele><time>2026-04-06T14:47:08.999Z</time></trkpt><trkpt lat="32.97801740909103" lon="9.646433444199221"><ele>210.0</ele><time>2026-04-06T14:47:09.999Z</time></trkpt><trkpt lat="32.978105635408575" lon="9.646514795028429"><ele>210.0</ele><time>2026-04-06T14:47:10.999Z</time></trkpt><trkpt lat="32.97819861982847" lon="9.646605109561389"><ele>210.0</ele><time>2026-04-06T14:47:11.999Z</time></trkpt><trkpt lat="32.97829014834363" lon="9.646699789908746"><ele>210.0</ele><time>2026-04-06T14:47:12.999Z</time></trkpt><trkpt lat="32.978384526044195" lon="9.64680090090776"><ele>209.75</ele><time>2026-04-06T14:47:13.999Z</time></trkpt><trkpt lat="32.978482184122754" lon="9.646905977455791"><ele>209.5</ele><time>2026-04-06T14:47:14.999Z</time></trkpt><trkpt lat="32.97858496454899" lon="9.647014771912671"><ele>209.25</ele><time>2026-04-06T14:47:15.999Z</time></trkpt><trkpt lat="32.97869356545888" lon="9.647124560945022"><ele>209.0</ele><time>2026-04-06T14:47:16.999Z</time></trkpt><trkpt lat="32.978804695903094" lon="9.647237351883277"><ele>209.66666666666669</ele><time>2026-04-06T14:47:17.999Z</time></trkpt><trkpt lat="32.97892036234861" lon="9.647360193000903"><ele>210.33333333333331</ele><time>2026-04-06T14:47:18.999Z</time></trkpt><trkpt lat="32.97903645398823" lon="9.64748780806319"><ele>211.0</ele><time>2026-04-06T14:47:19.999Z</time></trkpt><trkpt lat="32.97915477536655" lon="9.647623055403253"><ele>211.33333333333331</ele><time>2026-04-06T14:47:20.999Z</time></trkpt><trkpt lat="32.97928188615609" lon="9.647766869278566"><ele>211.66666666666669</ele><time>2026-04-06T14:47:21.999Z</time></trkpt><trkpt lat="32.97941230700989" lon="9.647906696477273"><ele>212.0</ele><time>2026-04-06T14:47:22.999Z</time></trkpt><trkpt lat="32.97954660579505" lon="9.648048671236506"><ele>212.0</ele><time>2026-04-06T14:47:23.998Z</time></trkpt><trkpt lat="32.97968612653668" lon="9.648191466568644"><ele>212.0</ele><time>2026-04-06T14:47:24.998Z</time></trkpt><trkpt lat="32.97983407384549" lon="9.648338718661996"><ele>212.0</ele><time>2026-04-06T14:47:25.998Z</time></trkpt><trkpt lat="32.97999195480999" lon="9.648497457661874"><ele>212.5</ele><time>2026-04-06T14:47:26.998Z</time></trkpt><trkpt lat="32.98015439488118" lon="9.648667661506858"><ele>213.0</ele><time>2026-04-06T14:47:27.998Z</time></trkpt><trkpt lat="32.98033417794396" lon="9.648864922730064"><ele>213.0</ele><time>2026-04-06T14:47:28.998Z</time></trkpt><trkpt lat="32.980523091948925" lon="9.64906701318574"><ele>213.0</ele><time>2026-04-06T14:47:29.998Z</time></trkpt><trkpt lat="32.98070128026972" lon="9.649253516660563"><ele>213.0</ele><time>2026-04-06T14:47:30.998Z</time></trkpt><trkpt lat="32.980861337742205" lon="9.649426934185687"><ele>213.0</ele><time>2026-04-06T14:47:31.998Z</time></trkpt><trkpt lat="32.98101167611325" lon="9.649587184872185"><ele>213.0</ele><time>2026-04-06T14:47:32.998Z</time></trkpt><trkpt lat="32.98115907700022" lon="9.649740350646168"><ele>213.0</ele><time>2026-04-06T14:47:33.998Z</time></trkpt><trkpt lat="32.98130392905417" lon="9.649890455973054"><ele>213.0</ele><time>2026-04-06T14:47:34.998Z</time></trkpt><trkpt lat="32.981435030945754" lon="9.650032011515389"><ele>213.0</ele><time>2026-04-06T14:47:35.998Z</time></trkpt><trkpt lat="32.98156008271823" lon="9.650163958959542"><ele>213.0</ele><time>2026-04-06T14:47:36.998Z</time></trkpt><trkpt lat="32.98167991283332" lon="9.650291218840145"><ele>213.0</ele><time>2026-04-06T14:47:37.998Z</time></trkpt><trkpt lat="32.98178940243178" lon="9.65041201915932"><ele>213.0</ele><time>2026-04-06T14:47:38.999Z</time></trkpt><trkpt lat="32.98189114064124" lon="9.650519595404058"><ele>213.0</ele><time>2026-04-06T14:47:39.999Z</time></trkpt><trkpt lat="32.98197945861745" lon="9.650610779324028"><ele>213.75</ele><time>2026-04-06T14:47:40.999Z</time></trkpt><trkpt lat="32.982065154260205" lon="9.65070601717124"><ele>214.5</ele><time>2026-04-06T14:47:41.999Z</time></trkpt><trkpt lat="32.98214849003758" lon="9.650794654593225"><ele>215.25</ele><time>2026-04-06T14:47:42.999Z</time></trkpt><trkpt lat="32.982233022795015" lon="9.650891247227586"><ele>216.0</ele><time>2026-04-06T14:47:43.999Z</time></trkpt><trkpt lat="32.98231550444822" lon="9.650999791820043"><ele>216.0</ele><time>2026-04-06T14:47:44.999Z</time></trkpt><trkpt lat="32.982398022179645" lon="9.651118649094993"><ele>216.0</ele><time>2026-04-06T14:47:45.999Z</time></trkpt><trkpt lat="32.98248542236384" lon="9.651244297680554"><ele>216.0</ele><time>2026-04-06T14:47:46.999Z</time></trkpt><trkpt lat="32.982572334612456" lon="9.651375729875483"><ele>216.0</ele><time>2026-04-06T14:47:47.999Z</time></trkpt><trkpt lat="32.982661878520574" lon="9.65151119763677"><ele>215.25</ele><time>2026-04-06T14:47:48.999Z</time></trkpt><trkpt lat="32.98274225648927" lon="9.651647561503463"><ele>214.5</ele><time>2026-04-06T14:47:49.999Z</time></trkpt><trkpt lat="32.982822710069826" lon="9.651789470013654"><ele>213.75</ele><time>2026-04-06T14:47:50.999Z</time></trkpt><trkpt lat="32.982905599062676" lon="9.65193749919196"><ele>213.0</ele><time>2026-04-06T14:47:51.999Z</time></trkpt><trkpt lat="32.98299044815338" lon="9.65209664894963"><ele>212.66666666666669</ele><time>2026-04-06T14:47:52.999Z</time></trkpt><trkpt lat="32.98307437568645" lon="9.652261545741203"><ele>212.33333333333334</ele><time>2026-04-06T14:47:53.999Z</time></trkpt><trkpt lat="32.98316589924408" lon="9.65243796258047"><ele>212.0</ele><time>2026-04-06T14:47:54.999Z</time></trkpt><trkpt lat="32.9832479682474" lon="9.652619587074234"><ele>212.33333333333334</ele><time>2026-04-06T14:47:55.999Z</time></trkpt><trkpt lat="32.983331915778386" lon="9.6528092717134"><ele>212.66666666666669</ele><time>2026-04-06T14:47:56.999Z</time></trkpt><trkpt lat="32.983412179827305" lon="9.653005620095984"><ele>213.0</ele><time>2026-04-06T14:47:57.999Z</time></trkpt><trkpt lat="32.98348821571669" lon="9.65319708236315"><ele>213.0</ele><time>2026-04-06T14:47:58.999Z</time></trkpt><trkpt lat="32.98356689703847" lon="9.653384802685611"><ele>213.0</ele><time>2026-04-06T14:47:59.999Z</time></trkpt><trkpt lat="32.98363825260689" lon="9.653556153249026"><ele>213.0</ele><time>2026-04-06T14:48:00.999Z</time></trkpt><trkpt lat="32.98370985279939" lon="9.653731924487976"><ele>213.33333333333331</ele><time>2026-04-06T14:48:01.999Z</time></trkpt><trkpt lat="32.9837851296838" lon="9.65391062420978"><ele>213.66666666666666</ele><time>2026-04-06T14:48:02.999Z</time></trkpt><trkpt lat="32.98385918482086" lon="9.65409811934077"><ele>214.0</ele><time>2026-04-06T14:48:03.999Z</time></trkpt><trkpt lat="32.983935767281565" lon="9.654289225264785"><ele>213.66666666666666</ele><time>2026-04-06T14:48:04.999Z</time></trkpt><trkpt lat="32.98401721685799" lon="9.654482947085794"><ele>213.33333333333331</ele><time>2026-04-06T14:48:05.999Z</time></trkpt><trkpt lat="32.98409991556968" lon="9.6546780670531"><ele>213.0</ele><time>2026-04-06T14:48:06.999Z</time></trkpt><trkpt lat="32.98417858346969" lon="9.65486986369358"><ele>213.33333333333331</ele><time>2026-04-06T14:48:07.999Z</time></trkpt><trkpt lat="32.98425585141639" lon="9.655057055000526"><ele>213.66666666666666</ele><time>2026-04-06T14:48:08.999Z</time></trkpt><trkpt lat="32.98433570174837" lon="9.655247338736578"><ele>214.0</ele><time>2026-04-06T14:48:09.999Z</time></trkpt><trkpt lat="32.98441726863778" lon="9.655441063798454"><ele>214.0</ele><time>2026-04-06T14:48:10.999Z</time></trkpt><trkpt lat="32.98449841227297" lon="9.65564068357037"><ele>214.0</ele><time>2026-04-06T14:48:11.999Z</time></trkpt><trkpt lat="32.98458312068723" lon="9.655845905880062"><ele>214.0</ele><time>2026-04-06T14:48:12.999Z</time></trkpt><trkpt lat="32.984669228663265" lon="9.656046334412858"><ele>214.33333333333331</ele><time>2026-04-06T14:48:13.999Z</time></trkpt><trkpt lat="32.9847551027416" lon="9.656250347331731"><ele>214.66666666666669</ele><time>2026-04-06T14:48:14.999Z</time></trkpt><trkpt lat="32.9848370624787" lon="9.656451509813877"><ele>215.0</ele><time>2026-04-06T14:48:15.999Z</time></trkpt><trkpt lat="32.984923177504555" lon="9.656657475904948"><ele>214.0</ele><time>2026-04-06T14:48:16.999Z</time></trkpt><trkpt lat="32.985016020846345" lon="9.656849830288309"><ele>213.0</ele><time>2026-04-06T14:48:17.999Z</time></trkpt><trkpt lat="32.985108704048066" lon="9.657044732902577"><ele>212.0</ele><time>2026-04-06T14:48:18.999Z</time></trkpt><trkpt lat="32.98519759953676" lon="9.657236176485853"><ele>212.0</ele><time>2026-04-06T14:48:19.999Z</time></trkpt><trkpt lat="32.9852922925086" lon="9.657423193740568"><ele>212.0</ele><time>2026-04-06T14:48:20.999Z</time></trkpt><trkpt lat="32.98539097983047" lon="9.657605652047165"><ele>212.0</ele><time>2026-04-06T14:48:21.999Z</time></trkpt><trkpt lat="32.98549236358934" lon="9.657790621831774"><ele>212.33333333333334</ele><time>2026-04-06T14:48:22.999Z</time></trkpt><trkpt lat="32.98559634372712" lon="9.65797307879046"><ele>212.66666666666669</ele><time>2026-04-06T14:48:23.999Z</time></trkpt><trkpt lat="32.98570688280837" lon="9.658159416254591"><ele>213.0</ele><time>2026-04-06T14:48:24.999Z</time></trkpt><trkpt lat="32.98582684000767" lon="9.658347647819156"><ele>212.33333333333331</ele><time>2026-04-06T14:48:25.999Z</time></trkpt><trkpt lat="32.985948440618564" lon="9.658534559058849"><ele>211.66666666666666</ele><time>2026-04-06T14:48:26.999Z</time></trkpt><trkpt lat="32.98607619907993" lon="9.658721420095487"><ele>211.0</ele><time>2026-04-06T14:48:27.999Z</time></trkpt><trkpt lat="32.98620929647837" lon="9.658909161416709"><ele>210.66666666666666</ele><time>2026-04-06T14:48:28.999Z</time></trkpt><trkpt lat="32.986347575304606" lon="9.659096759382843"><ele>210.33333333333331</ele><time>2026-04-06T14:48:29.999Z</time></trkpt><trkpt lat="32.986490303161936" lon="9.659283815222315"><ele>210.0</ele><time>2026-04-06T14:48:30.999Z</time></trkpt><trkpt lat="32.9866352713389" lon="9.659470754272682"><ele>210.0</ele><time>2026-04-06T14:48:31.999Z</time></trkpt><trkpt lat="32.98677923929566" lon="9.6596620944185"><ele>210.0</ele><time>2026-04-06T14:48:32.999Z</time></trkpt><trkpt lat="32.98692406157711" lon="9.659857923665898"><ele>210.0</ele><time>2026-04-06T14:48:33.999Z</time></trkpt><trkpt lat="32.98707522876714" lon="9.660058305669343"><ele>210.0</ele><time>2026-04-06T14:48:34.999Z</time></trkpt><trkpt lat="32.987225471578334" lon="9.66026099765713"><ele>210.0</ele><time>2026-04-06T14:48:35.999Z</time></trkpt><trkpt lat="32.987373465332254" lon="9.660461276578774"><ele>210.66666666666669</ele><time>2026-04-06T14:48:36.999Z</time></trkpt><trkpt lat="32.98752704534543" lon="9.660650079265043"><ele>211.33333333333334</ele><time>2026-04-06T14:48:37.999Z</time></trkpt><trkpt lat="32.98767268839048" lon="9.660831537792486"><ele>212.0</ele><time>2026-04-06T14:48:38.999Z</time></trkpt><trkpt lat="32.98780765187392" lon="9.661005143488"><ele>212.0</ele><time>2026-04-06T14:48:39.999Z</time></trkpt><trkpt lat="32.98793675020858" lon="9.66117514030321"><ele>212.0</ele><time>2026-04-06T14:48:40.999Z</time></trkpt><trkpt lat="32.98806865875783" lon="9.661351020999934"><ele>212.0</ele><time>2026-04-06T14:48:41.999Z</time></trkpt><trkpt lat="32.98819982201827" lon="9.661527339535866"><ele>212.0</ele><time>2026-04-06T14:48:42.999Z</time></trkpt><trkpt lat="32.98833329087084" lon="9.66170270016501"><ele>212.0</ele><time>2026-04-06T14:48:43.999Z</time></trkpt><trkpt lat="32.98846825469724" lon="9.661875347886966"><ele>212.0</ele><time>2026-04-06T14:48:44.999Z</time></trkpt><trkpt lat="32.98860492689144" lon="9.662055228121506"><ele>211.66666666666669</ele><time>2026-04-06T14:48:45.999Z</time></trkpt><trkpt lat="32.98874149860514" lon="9.66223382858921"><ele>211.33333333333331</ele><time>2026-04-06T14:48:46.999Z</time></trkpt><trkpt lat="32.988881570841095" lon="9.662420336929525"><ele>211.0</ele><time>2026-04-06T14:48:47.999Z</time></trkpt><trkpt lat="32.98902116349736" lon="9.662598981806527"><ele>211.0</ele><time>2026-04-06T14:48:48.999Z</time></trkpt><trkpt lat="32.98916535982825" lon="9.662782624689878"><ele>211.0</ele><time>2026-04-06T14:48:49.999Z</time></trkpt><trkpt lat="32.98931102221096" lon="9.66297338078459"><ele>211.0</ele><time>2026-04-06T14:48:50.999Z</time></trkpt><trkpt lat="32.989458327610954" lon="9.663165577348403"><ele>211.66666666666666</ele><time>2026-04-06T14:48:51.999Z</time></trkpt><trkpt lat="32.98960300493596" lon="9.663357639845882"><ele>212.33333333333331</ele><time>2026-04-06T14:48:52.999Z</time></trkpt><trkpt lat="32.9897448036912" lon="9.663545709473842"><ele>213.0</ele><time>2026-04-06T14:48:53.999Z</time></trkpt><trkpt lat="32.98988304852611" lon="9.663731526450745"><ele>213.33333333333331</ele><time>2026-04-06T14:48:54.999Z</time></trkpt><trkpt lat="32.990024186847954" lon="9.663910263989461"><ele>213.66666666666666</ele><time>2026-04-06T14:48:55.999Z</time></trkpt><trkpt lat="32.990169611126554" lon="9.6640919507311"><ele>214.0</ele><time>2026-04-06T14:48:56.999Z</time></trkpt><trkpt lat="32.99030590784927" lon="9.664273167161157"><ele>214.0</ele><time>2026-04-06T14:48:57.999Z</time></trkpt><trkpt lat="32.990444628709724" lon="9.664455894184883"><ele>214.0</ele><time>2026-04-06T14:48:58.999Z</time></trkpt><trkpt lat="32.990581656897916" lon="9.664635311354854"><ele>214.0</ele><time>2026-04-06T14:48:59.999Z</time></trkpt><trkpt lat="32.990719053168625" lon="9.664814793542988"><ele>214.0</ele><time>2026-04-06T14:49:00.999Z</time></trkpt><trkpt lat="32.9908484273883" lon="9.664995396329822"><ele>214.0</ele><time>2026-04-06T14:49:01.999Z</time></trkpt><trkpt lat="32.99098363273408" lon="9.665174293085446"><ele>214.0</ele><time>2026-04-06T14:49:02.999Z</time></trkpt><trkpt lat="32.991115548503444" lon="9.665351796341085"><ele>214.33333333333331</ele><time>2026-04-06T14:49:03.999Z</time></trkpt><trkpt lat="32.99125312612445" lon="9.665532662063494"><ele>214.66666666666669</ele><time>2026-04-06T14:49:04.999Z</time></trkpt><trkpt lat="32.99139486791863" lon="9.665716558507532"><ele>215.0</ele><time>2026-04-06T14:49:05.999Z</time></trkpt><trkpt lat="32.99153662559304" lon="9.665897986486549"><ele>215.33333333333334</ele><time>2026-04-06T14:49:06.999Z</time></trkpt><trkpt lat="32.99168254967793" lon="9.666081460276546"><ele>215.66666666666669</ele><time>2026-04-06T14:49:07.999Z</time></trkpt><trkpt lat="32.9918255611511" lon="9.666266364400313"><ele>216.0</ele><time>2026-04-06T14:49:08.999Z</time></trkpt><trkpt lat="32.991969925128714" lon="9.666457030973817"><ele>216.0</ele><time>2026-04-06T14:49:09.999Z</time></trkpt><trkpt lat="32.992106165661205" lon="9.66664053180555"><ele>216.0</ele><time>2026-04-06T14:49:10.999Z</time></trkpt><trkpt lat="32.992245383475776" lon="9.666822985199815"><ele>216.0</ele><time>2026-04-06T14:49:11.999Z</time></trkpt><trkpt lat="32.99238188751058" lon="9.667003583519994"><ele>216.0</ele><time>2026-04-06T14:49:12.999Z</time></trkpt><trkpt lat="32.99252035262632" lon="9.667190741594464"><ele>216.0</ele><time>2026-04-06T14:49:13.999Z</time></trkpt><trkpt lat="32.992651270593036" lon="9.667379651053377"><ele>216.0</ele><time>2026-04-06T14:49:14.999Z</time></trkpt><trkpt lat="32.992774676704734" lon="9.667564330027368"><ele>216.0</ele><time>2026-04-06T14:49:15.999Z</time></trkpt><trkpt lat="32.99289755811659" lon="9.66774428845087"><ele>216.0</ele><time>2026-04-06T14:49:16.999Z</time></trkpt><trkpt lat="32.99300761560864" lon="9.667921707319746"><ele>216.0</ele><time>2026-04-06T14:49:17.999Z</time></trkpt><trkpt lat="32.993120197967855" lon="9.668097329749028"><ele>216.0</ele><time>2026-04-06T14:49:18.999Z</time></trkpt><trkpt lat="32.99323020010927" lon="9.668273270571408"><ele>216.0</ele><time>2026-04-06T14:49:19.999Z</time></trkpt><trkpt lat="32.99334601647688" lon="9.66845504329077"><ele>216.0</ele><time>2026-04-06T14:49:20.999Z</time></trkpt><trkpt lat="32.99345185115275" lon="9.668636142701722"><ele>216.0</ele><time>2026-04-06T14:49:21.999Z</time></trkpt><trkpt lat="32.99355649818467" lon="9.668823793546599"><ele>216.0</ele><time>2026-04-06T14:49:22.999Z</time></trkpt><trkpt lat="32.99365808526429" lon="9.669017064150164"><ele>216.0</ele><time>2026-04-06T14:49:23.999Z</time></trkpt><trkpt lat="32.99375561348809" lon="9.669210978863164"><ele>216.0</ele><time>2026-04-06T14:49:24.999Z</time></trkpt><trkpt lat="32.99385665199063" lon="9.669407744722117"><ele>216.0</ele><time>2026-04-06T14:49:25.999Z</time></trkpt><trkpt lat="32.99395817855185" lon="9.6696103622245"><ele>216.0</ele><time>2026-04-06T14:49:26.999Z</time></trkpt><trkpt lat="32.99405549247204" lon="9.669812817051426"><ele>216.0</ele><time>2026-04-06T14:49:27.999Z</time></trkpt><trkpt lat="32.994156243081235" lon="9.670024836931576"><ele>216.0</ele><time>2026-04-06T14:49:28.999Z</time></trkpt><trkpt lat="32.99425674769286" lon="9.670244795478078"><ele>216.0</ele><time>2026-04-06T14:49:29.999Z</time></trkpt><trkpt lat="32.994357589873175" lon="9.67046456740374"><ele>216.0</ele><time>2026-04-06T14:49:30.999Z</time></trkpt><trkpt lat="32.994461341386135" lon="9.670687263915042"><ele>216.0</ele><time>2026-04-06T14:49:31.999Z</time></trkpt><trkpt lat="32.99456565540359" lon="9.670910509048836"><ele>216.0</ele><time>2026-04-06T14:49:32.999Z</time></trkpt><trkpt lat="32.99466880494312" lon="9.671141086319661"><ele>216.0</ele><time>2026-04-06T14:49:33.999Z</time></trkpt><trkpt lat="32.99477358400953" lon="9.671373034799982"><ele>216.0</ele><time>2026-04-06T14:49:34.999Z</time></trkpt><trkpt lat="32.99488294243201" lon="9.67160001838633"><ele>216.0</ele><time>2026-04-06T14:49:35.999Z</time></trkpt><trkpt lat="32.99498892509786" lon="9.671826432519634"><ele>216.66666666666669</ele><time>2026-04-06T14:49:36.999Z</time></trkpt><trkpt lat="32.995091172599196" lon="9.672051915794828"><ele>217.33333333333334</ele><time>2026-04-06T14:49:37.999Z</time></trkpt><trkpt lat="32.99518727038461" lon="9.672255849439413"><ele>218.0</ele><time>2026-04-06T14:49:38.999Z</time></trkpt><trkpt lat="32.995284920873104" lon="9.672459780455355"><ele>218.0</ele><time>2026-04-06T14:49:39.999Z</time></trkpt><trkpt lat="32.995376184768546" lon="9.67265558575317"><ele>218.0</ele><time>2026-04-06T14:49:40.999Z</time></trkpt><trkpt lat="32.995465121167996" lon="9.672844476396476"><ele>218.0</ele><time>2026-04-06T14:49:41.999Z</time></trkpt><trkpt lat="32.995556890625856" lon="9.673042502133983"><ele>218.0</ele><time>2026-04-06T14:49:42.999Z</time></trkpt><trkpt lat="32.995651243706504" lon="9.67323791180028"><ele>218.0</ele><time>2026-04-06T14:49:43.999Z</time></trkpt><trkpt lat="32.99574914886555" lon="9.67344846625329"><ele>218.0</ele><time>2026-04-06T14:49:44.999Z</time></trkpt><trkpt lat="32.99584187465059" lon="9.673661598734391"><ele>218.0</ele><time>2026-04-06T14:49:45.999Z</time></trkpt><trkpt lat="32.99594122448393" lon="9.673883033605108"><ele>218.0</ele><time>2026-04-06T14:49:46.999Z</time></trkpt><trkpt lat="32.996047040376446" lon="9.67410528277638"><ele>218.0</ele><time>2026-04-06T14:49:47.999Z</time></trkpt><trkpt lat="32.9961464531454" lon="9.674329073884051"><ele>217.66666666666669</ele><time>2026-04-06T14:49:48.999Z</time></trkpt><trkpt lat="32.996249980429276" lon="9.674550746298943"><ele>217.33333333333331</ele><time>2026-04-06T14:49:49.999Z</time></trkpt><trkpt lat="32.99635161992861" lon="9.674773476770126"><ele>217.0</ele><time>2026-04-06T14:49:50.999Z</time></trkpt><trkpt lat="32.99645216529006" lon="9.67499369418947"><ele>217.0</ele><time>2026-04-06T14:49:51.999Z</time></trkpt><trkpt lat="32.99655317861378" lon="9.675214153823081"><ele>217.0</ele><time>2026-04-06T14:49:52.999Z</time></trkpt><trkpt lat="32.996649601818284" lon="9.67543617699646"><ele>217.0</ele><time>2026-04-06T14:49:53.999Z</time></trkpt><trkpt lat="32.9967495012182" lon="9.675660058416133"><ele>218.33333333333331</ele><time>2026-04-06T14:49:54.999Z</time></trkpt><trkpt lat="32.996847263025714" lon="9.675883119767812"><ele>219.66666666666669</ele><time>2026-04-06T14:49:55.999Z</time></trkpt><trkpt lat="32.99694400618973" lon="9.676105531563616"><ele>221.0</ele><time>2026-04-06T14:49:56.999Z</time></trkpt><trkpt lat="32.99703897732731" lon="9.67632840118316"><ele>221.0</ele><time>2026-04-06T14:49:57.999Z</time></trkpt><trkpt lat="32.997130496519" lon="9.676554785641532"><ele>221.0</ele><time>2026-04-06T14:49:58.999Z</time></trkpt><trkpt lat="32.99721884192717" lon="9.676784142814228"><ele>221.0</ele><time>2026-04-06T14:49:59.999Z</time></trkpt><trkpt lat="32.99731074266505" lon="9.677016264583344"><ele>221.0</ele><time>2026-04-06T14:50:00.999Z</time></trkpt><trkpt lat="32.99739489912428" lon="9.67724833294786"><ele>221.0</ele><time>2026-04-06T14:50:01.999Z</time></trkpt><trkpt lat="32.997476636482595" lon="9.677482301942755"><ele>221.0</ele><time>2026-04-06T14:50:02.999Z</time></trkpt><trkpt lat="32.99755723175792" lon="9.677718614450807"><ele>221.0</ele><time>2026-04-06T14:50:03.999Z</time></trkpt><trkpt lat="32.997633597967855" lon="9.677954695634448"><ele>221.0</ele><time>2026-04-06T14:50:04.999Z</time></trkpt><trkpt lat="32.99771097924329" lon="9.678191278592324"><ele>221.0</ele><time>2026-04-06T14:50:05.999Z</time></trkpt><trkpt lat="32.997784344089354" lon="9.678426269465925"><ele>221.0</ele><time>2026-04-06T14:50:06.999Z</time></trkpt><trkpt lat="32.99785694286103" lon="9.678665665550973"><ele>221.0</ele><time>2026-04-06T14:50:07.999Z</time></trkpt><trkpt lat="32.9979196244436" lon="9.678906959885328"><ele>221.0</ele><time>2026-04-06T14:50:08.999Z</time></trkpt><trkpt lat="32.99798530065817" lon="9.679146813487511"><ele>221.0</ele><time>2026-04-06T14:50:09.999Z</time></trkpt><trkpt lat="32.99804353603125" lon="9.679390704692816"><ele>221.0</ele><time>2026-04-06T14:50:10.999Z</time></trkpt><trkpt lat="32.99810647698796" lon="9.67963524711379"><ele>221.0</ele><time>2026-04-06T14:50:11.999Z</time></trkpt><trkpt lat="32.998155256420176" lon="9.67988131083597"><ele>221.33333333333334</ele><time>2026-04-06T14:50:12.999Z</time></trkpt><trkpt lat="32.99820623808196" lon="9.680128303350887"><ele>221.66666666666669</ele><time>2026-04-06T14:50:13.999Z</time></trkpt><trkpt lat="32.99826268361987" lon="9.68037110468579"><ele>222.0</ele><time>2026-04-06T14:50:14.999Z</time></trkpt><trkpt lat="32.998314735185495" lon="9.680617558042877"><ele>222.0</ele><time>2026-04-06T14:50:15.999Z</time></trkpt><trkpt lat="32.99836582979139" lon="9.680863833409102"><ele>222.0</ele><time>2026-04-06T14:50:16.999Z</time></trkpt><trkpt lat="32.99841820739307" lon="9.681107776016882"><ele>222.0</ele><time>2026-04-06T14:50:17.999Z</time></trkpt><trkpt lat="32.99846685975562" lon="9.681354826353449"><ele>222.0</ele><time>2026-04-06T14:50:18.999Z</time></trkpt><trkpt lat="32.99851919106355" lon="9.681603047652489"><ele>222.0</ele><time>2026-04-06T14:50:19.999Z</time></trkpt><trkpt lat="32.99856899971257" lon="9.68184890286201"><ele>222.0</ele><time>2026-04-06T14:50:20.999Z</time></trkpt><trkpt lat="32.99862562200091" lon="9.682092248447058"><ele>222.33333333333331</ele><time>2026-04-06T14:50:21.999Z</time></trkpt><trkpt lat="32.99867540837082" lon="9.682335160315565"><ele>222.66666666666666</ele><time>2026-04-06T14:50:22.999Z</time></trkpt><trkpt lat="32.998723369365656" lon="9.68257658126612"><ele>223.0</ele><time>2026-04-06T14:50:23.999Z</time></trkpt><trkpt lat="32.99876912058744" lon="9.682819148392008"><ele>223.33333333333331</ele><time>2026-04-06T14:50:24.999Z</time></trkpt><trkpt lat="32.998816611114286" lon="9.683067073764878"><ele>223.66666666666669</ele><time>2026-04-06T14:50:25.999Z</time></trkpt><trkpt lat="32.99886593428076" lon="9.68331091058309"><ele>224.0</ele><time>2026-04-06T14:50:26.999Z</time></trkpt><trkpt lat="32.99891887467907" lon="9.683556447869714"><ele>223.66666666666669</ele><time>2026-04-06T14:50:27.999Z</time></trkpt><trkpt lat="32.998965769938074" lon="9.683803841704638"><ele>223.33333333333331</ele><time>2026-04-06T14:50:28.999Z</time></trkpt><trkpt lat="32.99901397989698" lon="9.684049961143769"><ele>223.0</ele><time>2026-04-06T14:50:29.999Z</time></trkpt><trkpt lat="32.9990673955847" lon="9.684298578971747"><ele>223.0</ele><time>2026-04-06T14:50:30.999Z</time></trkpt><trkpt lat="32.99911434427488" lon="9.684543210556223"><ele>223.0</ele><time>2026-04-06T14:50:31.999Z</time></trkpt><trkpt lat="32.99916662736623" lon="9.684789852026059"><ele>223.0</ele><time>2026-04-06T14:50:32.999Z</time></trkpt><trkpt lat="32.99921994199475" lon="9.685037916034588"><ele>223.0</ele><time>2026-04-06T14:50:33.999Z</time></trkpt><trkpt lat="32.99926944432751" lon="9.68528160484195"><ele>223.0</ele><time>2026-04-06T14:50:34.999Z</time></trkpt><trkpt lat="32.99931652778527" lon="9.685531013648756"><ele>223.0</ele><time>2026-04-06T14:50:35.999Z</time></trkpt><trkpt lat="32.9993642873022" lon="9.685776769095103"><ele>223.0</ele><time>2026-04-06T14:50:36.999Z</time></trkpt><trkpt lat="32.99941870805852" lon="9.686029188708778"><ele>223.0</ele><time>2026-04-06T14:50:37.999Z</time></trkpt><trkpt lat="32.99946927961989" lon="9.68629026817302"><ele>223.0</ele><time>2026-04-06T14:50:38.999Z</time></trkpt><trkpt lat="32.99951822218427" lon="9.686545279326488"><ele>222.66666666666666</ele><time>2026-04-06T14:50:39.999Z</time></trkpt><trkpt lat="32.99956593350657" lon="9.686800687904764"><ele>222.33333333333331</ele><time>2026-04-06T14:50:40.999Z</time></trkpt><trkpt lat="32.99962306437149" lon="9.687063359243712"><ele>222.0</ele><time>2026-04-06T14:50:41.999Z</time></trkpt><trkpt lat="32.9996712523513" lon="9.68732816688962"><ele>223.0</ele><time>2026-04-06T14:50:42.999Z</time></trkpt><trkpt lat="32.99972355471156" lon="9.687594221003454"><ele>224.0</ele><time>2026-04-06T14:50:43.999Z</time></trkpt><trkpt lat="32.999774866674194" lon="9.68785896199355"><ele>224.5</ele><time>2026-04-06T14:50:44.999Z</time></trkpt><trkpt lat="32.999829752638064" lon="9.6881217476484"><ele>225.0</ele><time>2026-04-06T14:50:45.999Z</time></trkpt><trkpt lat="32.99988029788097" lon="9.688389509957803"><ele>224.0</ele><time>2026-04-06T14:50:46.999Z</time></trkpt><trkpt lat="32.99993576442122" lon="9.688658415745806"><ele>223.0</ele><time>2026-04-06T14:50:47.999Z</time></trkpt><trkpt lat="32.99998697623001" lon="9.688921732103434"><ele>223.0</ele><time>2026-04-06T14:50:48.999Z</time></trkpt><trkpt lat="33.00003399905738" lon="9.689181713112283"><ele>223.0</ele><time>2026-04-06T14:50:49.999Z</time></trkpt><trkpt lat="33.00009030359891" lon="9.689438154432654"><ele>223.0</ele><time>2026-04-06T14:50:50.999Z</time></trkpt><trkpt lat="33.00014349615656" lon="9.689696157413849"><ele>223.0</ele><time>2026-04-06T14:50:51.999Z</time></trkpt><trkpt lat="33.00020141421579" lon="9.689959909088367"><ele>223.0</ele><time>2026-04-06T14:50:52.999Z</time></trkpt><trkpt lat="33.00026296289734" lon="9.69022891178574"><ele>222.5</ele><time>2026-04-06T14:50:54Z</time></trkpt><trkpt lat="33.000322105868925" lon="9.690501565718847"><ele>222.0</ele><time>2026-04-06T14:50:55Z</time></trkpt><trkpt lat="33.00037653296875" lon="9.690784914336694"><ele>222.0</ele><time>2026-04-06T14:50:56Z</time></trkpt><trkpt lat="33.000435979769556" lon="9.691074613208611"><ele>222.0</ele><time>2026-04-06T14:50:57Z</time></trkpt><trkpt lat="33.00049424333543" lon="9.691360457992955"><ele>222.0</ele><time>2026-04-06T14:50:58Z</time></trkpt><trkpt lat="33.000546058108746" lon="9.691643589430148"><ele>222.0</ele><time>2026-04-06T14:50:59Z</time></trkpt><trkpt lat="33.00060436883276" lon="9.691931766018216"><ele>223.0</ele><time>2026-04-06T14:51:00Z</time></trkpt><trkpt lat="33.00066848219883" lon="9.692211698463618"><ele>224.0</ele><time>2026-04-06T14:51:01Z</time></trkpt><trkpt lat="33.0007370548273" lon="9.692489683646418"><ele>223.5</ele><time>2026-04-06T14:51:02Z</time></trkpt><trkpt lat="33.000808751653906" lon="9.692772904727564"><ele>223.0</ele><time>2026-04-06T14:51:03Z</time></trkpt><trkpt lat="33.000885355172784" lon="9.693047348014646"><ele>222.5</ele><time>2026-04-06T14:51:04Z</time></trkpt><trkpt lat="33.00096664322229" lon="9.6933245538151"><ele>222.0</ele><time>2026-04-06T14:51:05Z</time></trkpt><trkpt lat="33.00104978984973" lon="9.693603744742239"><ele>222.0</ele><time>2026-04-06T14:51:06Z</time></trkpt><trkpt lat="33.00113711916304" lon="9.693878905366931"><ele>222.0</ele><time>2026-04-06T14:51:07Z</time></trkpt><trkpt lat="33.00122669420541" lon="9.69415130954459"><ele>222.0</ele><time>2026-04-06T14:51:08Z</time></trkpt><trkpt lat="33.001329850003366" lon="9.694428802617285"><ele>222.0</ele><time>2026-04-06T14:51:09Z</time></trkpt><trkpt lat="33.001431885832694" lon="9.694703104364944"><ele>222.0</ele><time>2026-04-06T14:51:10Z</time></trkpt><trkpt lat="33.001540810356836" lon="9.694973461035142"><ele>222.0</ele><time>2026-04-06T14:51:11Z</time></trkpt><trkpt lat="33.001656298569756" lon="9.695237567505337"><ele>222.0</ele><time>2026-04-06T14:51:12Z</time></trkpt><trkpt lat="33.00177493704952" lon="9.695497693392543"><ele>222.0</ele><time>2026-04-06T14:51:13Z</time></trkpt><trkpt lat="33.001895666735045" lon="9.695749453311922"><ele>222.0</ele><time>2026-04-06T14:51:14Z</time></trkpt><trkpt lat="33.0020161779794" lon="9.696004364111502"><ele>222.0</ele><time>2026-04-06T14:51:15Z</time></trkpt><trkpt lat="33.00213889315932" lon="9.696257764266806"><ele>221.0</ele><time>2026-04-06T14:51:16Z</time></trkpt><trkpt lat="33.0022670064859" lon="9.696508456057353"><ele>220.0</ele><time>2026-04-06T14:51:17Z</time></trkpt><trkpt lat="33.00239748718639" lon="9.696753867583142"><ele>217.5</ele><time>2026-04-06T14:51:18Z</time></trkpt><trkpt lat="33.00252672722397" lon="9.697000547574548"><ele>215.0</ele><time>2026-04-06T14:51:19Z</time></trkpt><trkpt lat="33.002673745862836" lon="9.697247244128038"><ele>215.0</ele><time>2026-04-06T14:51:20Z</time></trkpt><trkpt lat="33.00282276360932" lon="9.697486994741123"><ele>215.0</ele><time>2026-04-06T14:51:21Z</time></trkpt><trkpt lat="33.00297455376055" lon="9.697724558209783"><ele>214.0</ele><time>2026-04-06T14:51:22Z</time></trkpt><trkpt lat="33.00312229390421" lon="9.69795324867444"><ele>213.0</ele><time>2026-04-06T14:51:23Z</time></trkpt><trkpt lat="33.00327530736364" lon="9.698178178747321"><ele>213.5</ele><time>2026-04-06T14:51:24Z</time></trkpt><trkpt lat="33.00343077753306" lon="9.698394154523175"><ele>214.0</ele><time>2026-04-06T14:51:25Z</time></trkpt><trkpt lat="33.00358316711789" lon="9.69860432383448"><ele>214.5</ele><time>2026-04-06T14:51:26Z</time></trkpt><trkpt lat="33.00373414051327" lon="9.698810590121116"><ele>215.0</ele><time>2026-04-06T14:51:27Z</time></trkpt><trkpt lat="33.00387674667905" lon="9.699016143035381"><ele>215.0</ele><time>2026-04-06T14:51:28Z</time></trkpt><trkpt lat="33.004024227479846" lon="9.699219394829571"><ele>215.0</ele><time>2026-04-06T14:51:29Z</time></trkpt><trkpt lat="33.004165895422695" lon="9.699421365987535"><ele>215.0</ele><time>2026-04-06T14:51:30Z</time></trkpt><trkpt lat="33.00430828469114" lon="9.699628696336346"><ele>215.0</ele><time>2026-04-06T14:51:31Z</time></trkpt><trkpt lat="33.004446864064995" lon="9.69982112840802"><ele>215.0</ele><time>2026-04-06T14:51:32Z</time></trkpt><trkpt lat="33.00458563903204" lon="9.700024068044726"><ele>215.0</ele><time>2026-04-06T14:51:33Z</time></trkpt><trkpt lat="33.004729797878994" lon="9.7002279969729"><ele>214.5</ele><time>2026-04-06T14:51:34Z</time></trkpt><trkpt lat="33.00487631448281" lon="9.700429476645244"><ele>214.0</ele><time>2026-04-06T14:51:34.999Z</time></trkpt><trkpt lat="33.00502457000245" lon="9.700639737058669"><ele>214.0</ele><time>2026-04-06T14:51:35.999Z</time></trkpt><trkpt lat="33.00517402154943" lon="9.700850196350018"><ele>214.0</ele><time>2026-04-06T14:51:36.999Z</time></trkpt><trkpt lat="33.005327267981414" lon="9.701065658773384"><ele>213.5</ele><time>2026-04-06T14:51:37.999Z</time></trkpt><trkpt lat="33.005482220244964" lon="9.701285676483385"><ele>213.0</ele><time>2026-04-06T14:51:38.999Z</time></trkpt><trkpt lat="33.00563983077951" lon="9.701504235558573"><ele>213.0</ele><time>2026-04-06T14:51:39.999Z</time></trkpt><trkpt lat="33.00579945305749" lon="9.701727327906832"><ele>213.0</ele><time>2026-04-06T14:51:40.999Z</time></trkpt><trkpt lat="33.00595511045479" lon="9.701950259777798"><ele>213.5</ele><time>2026-04-06T14:51:41.999Z</time></trkpt><trkpt lat="33.00611504748242" lon="9.702177136940305"><ele>214.0</ele><time>2026-04-06T14:51:42.999Z</time></trkpt><trkpt lat="33.00627699442722" lon="9.702399970048862"><ele>214.0</ele><time>2026-04-06T14:51:43.999Z</time></trkpt><trkpt lat="33.006428349718476" lon="9.702619729596794"><ele>214.0</ele><time>2026-04-06T14:51:44.999Z</time></trkpt><trkpt lat="33.00658803872082" lon="9.702842915691642"><ele>215.0</ele><time>2026-04-06T14:51:45.999Z</time></trkpt><trkpt lat="33.006742523990965" lon="9.703061109368194"><ele>216.0</ele><time>2026-04-06T14:51:46.999Z</time></trkpt><trkpt lat="33.0069018522932" lon="9.70329004883505"><ele>216.0</ele><time>2026-04-06T14:51:47.999Z</time></trkpt><trkpt lat="33.00705620566298" lon="9.703507421733642"><ele>216.0</ele><time>2026-04-06T14:51:48.999Z</time></trkpt><trkpt lat="33.00720960598633" lon="9.703726543290259"><ele>215.0</ele><time>2026-04-06T14:51:49.999Z</time></trkpt><trkpt lat="33.00737140924123" lon="9.70395355327613"><ele>214.0</ele><time>2026-04-06T14:51:50.999Z</time></trkpt><trkpt lat="33.00753423493534" lon="9.704184218234948"><ele>214.0</ele><time>2026-04-06T14:51:51.999Z</time></trkpt><trkpt lat="33.00769458495519" lon="9.70441046375193"><ele>214.0</ele><time>2026-04-06T14:51:52.999Z</time></trkpt><trkpt lat="33.00785256809464" lon="9.704636565551043"><ele>213.5</ele><time>2026-04-06T14:51:53.999Z</time></trkpt><trkpt lat="33.00800911544651" lon="9.704858276314356"><ele>213.0</ele><time>2026-04-06T14:51:54.999Z</time></trkpt><trkpt lat="33.008170732942894" lon="9.705080401511578"><ele>213.5</ele><time>2026-04-06T14:51:55.999Z</time></trkpt><trkpt lat="33.008339962979065" lon="9.705311478755794"><ele>214.0</ele><time>2026-04-06T14:51:56.999Z</time></trkpt><trkpt lat="33.008512292163054" lon="9.705552999660684"><ele>214.0</ele><time>2026-04-06T14:51:57.999Z</time></trkpt><trkpt lat="33.00868645573377" lon="9.705798997256359"><ele>214.0</ele><time>2026-04-06T14:51:58.999Z</time></trkpt><trkpt lat="33.008859539251624" lon="9.706046604783094"><ele>214.0</ele><time>2026-04-06T14:51:59.999Z</time></trkpt><trkpt lat="33.00903589254837" lon="9.706298104120117"><ele>214.0</ele><time>2026-04-06T14:52:00.999Z</time></trkpt><trkpt lat="33.00921384015379" lon="9.706549193269604"><ele>214.0</ele><time>2026-04-06T14:52:01.999Z</time></trkpt><trkpt lat="33.00939031055186" lon="9.706796643373114"><ele>214.0</ele><time>2026-04-06T14:52:02.999Z</time></trkpt><trkpt lat="33.00956837091079" lon="9.707046395747607"><ele>213.5</ele><time>2026-04-06T14:52:03.999Z</time></trkpt><trkpt lat="33.00974361849873" lon="9.707293460426163"><ele>213.0</ele><time>2026-04-06T14:52:04.999Z</time></trkpt><trkpt lat="33.00991886096094" lon="9.707543144280327"><ele>213.0</ele><time>2026-04-06T14:52:05.999Z</time></trkpt><trkpt lat="33.01009392338415" lon="9.707793738742096"><ele>213.0</ele><time>2026-04-06T14:52:06.999Z</time></trkpt><trkpt lat="33.01026671939166" lon="9.708040455764738"><ele>213.0</ele><time>2026-04-06T14:52:08Z</time></trkpt><trkpt lat="33.01044605444283" lon="9.70829156776865"><ele>213.0</ele><time>2026-04-06T14:52:09Z</time></trkpt><trkpt lat="33.01061909243258" lon="9.708535166492167"><ele>214.0</ele><time>2026-04-06T14:52:10Z</time></trkpt><trkpt lat="33.01078685238551" lon="9.708771730662855"><ele>215.0</ele><time>2026-04-06T14:52:11Z</time></trkpt><trkpt lat="33.0109507209461" lon="9.709005198030846"><ele>215.5</ele><time>2026-04-06T14:52:12Z</time></trkpt><trkpt lat="33.01111191448228" lon="9.70923311820115"><ele>216.0</ele><time>2026-04-06T14:52:13Z</time></trkpt><trkpt lat="33.01126952659932" lon="9.709461035761334"><ele>217.0</ele><time>2026-04-06T14:52:14Z</time></trkpt><trkpt lat="33.0114282335707" lon="9.709689958435527"><ele>218.0</ele><time>2026-04-06T14:52:15Z</time></trkpt><trkpt lat="33.01159374483841" lon="9.709916679053988"><ele>217.5</ele><time>2026-04-06T14:52:16Z</time></trkpt><trkpt lat="33.01175311552315" lon="9.710139485756535"><ele>217.0</ele><time>2026-04-06T14:52:17Z</time></trkpt><trkpt lat="33.01191819002488" lon="9.710366269711129"><ele>217.0</ele><time>2026-04-06T14:52:18Z</time></trkpt><trkpt lat="33.01208693659332" lon="9.710597740305523"><ele>217.0</ele><time>2026-04-06T14:52:19Z</time></trkpt><trkpt lat="33.01225717803305" lon="9.71083787436352"><ele>216.5</ele><time>2026-04-06T14:52:20Z</time></trkpt><trkpt lat="33.01242733209312" lon="9.711089096285628"><ele>216.0</ele><time>2026-04-06T14:52:21Z</time></trkpt><trkpt lat="33.01260324504145" lon="9.711345423444806"><ele>216.0</ele><time>2026-04-06T14:52:22Z</time></trkpt><trkpt lat="33.01278661093587" lon="9.711606637190025"><ele>216.0</ele><time>2026-04-06T14:52:23Z</time></trkpt><trkpt lat="33.01297819420521" lon="9.71187214203024"><ele>216.0</ele><time>2026-04-06T14:52:24Z</time></trkpt><trkpt lat="33.01317324706495" lon="9.712143393141725"><ele>216.0</ele><time>2026-04-06T14:52:25Z</time></trkpt><trkpt lat="33.013369656619005" lon="9.712421009184265"><ele>216.0</ele><time>2026-04-06T14:52:26Z</time></trkpt><trkpt lat="33.01357228403302" lon="9.71271144899238"><ele>216.0</ele><time>2026-04-06T14:52:27Z</time></trkpt><trkpt lat="33.01377461009175" lon="9.713006433184026"><ele>216.0</ele><time>2026-04-06T14:52:28Z</time></trkpt><trkpt lat="33.01397735002318" lon="9.713290784601345"><ele>216.0</ele><time>2026-04-06T14:52:29Z</time></trkpt><trkpt lat="33.01417765924795" lon="9.713574943696116"><ele>216.0</ele><time>2026-04-06T14:52:30Z</time></trkpt><trkpt lat="33.01437164978999" lon="9.713852127852796"><ele>216.0</ele><time>2026-04-06T14:52:31Z</time></trkpt><trkpt lat="33.01456384270429" lon="9.714122992632273"><ele>216.0</ele><time>2026-04-06T14:52:32Z</time></trkpt><trkpt lat="33.014751046710764" lon="9.714388835552324"><ele>216.0</ele><time>2026-04-06T14:52:33Z</time></trkpt><trkpt lat="33.01493438867796" lon="9.714647685458798"><ele>217.0</ele><time>2026-04-06T14:52:34Z</time></trkpt><trkpt lat="33.01511186605581" lon="9.714899772662555"><ele>218.0</ele><time>2026-04-06T14:52:35Z</time></trkpt><trkpt lat="33.01528690970573" lon="9.715150011836306"><ele>218.0</ele><time>2026-04-06T14:52:36Z</time></trkpt><trkpt lat="33.01546070315839" lon="9.715393768997933"><ele>218.0</ele><time>2026-04-06T14:52:37Z</time></trkpt><trkpt lat="33.01563355840463" lon="9.715630453760639"><ele>218.0</ele><time>2026-04-06T14:52:38Z</time></trkpt><trkpt lat="33.015811475814786" lon="9.715877335493692"><ele>218.0</ele><time>2026-04-06T14:52:39Z</time></trkpt><trkpt lat="33.01598692049165" lon="9.716121089417921"><ele>220.0</ele><time>2026-04-06T14:52:40Z</time></trkpt><trkpt lat="33.01615461587515" lon="9.716368536081665"><ele>222.0</ele><time>2026-04-06T14:52:41Z</time></trkpt><trkpt lat="33.01631095704594" lon="9.716594925561868"><ele>222.0</ele><time>2026-04-06T14:52:42Z</time></trkpt><trkpt lat="33.01646587181153" lon="9.716812393554331"><ele>222.0</ele><time>2026-04-06T14:52:43Z</time></trkpt><trkpt lat="33.016613033132444" lon="9.717021585597442"><ele>223.66666666666669</ele><time>2026-04-06T14:52:44Z</time></trkpt><trkpt lat="33.016751920059995" lon="9.717217290447042"><ele>225.33333333333334</ele><time>2026-04-06T14:52:45Z</time></trkpt><trkpt lat="33.01688915233315" lon="9.717411671030703"><ele>227.0</ele><time>2026-04-06T14:52:46Z</time></trkpt><trkpt lat="33.0170231789866" lon="9.717604542471394"><ele>226.66666666666669</ele><time>2026-04-06T14:52:47Z</time></trkpt><trkpt lat="33.017157572858956" lon="9.71779354363966"><ele>226.33333333333331</ele><time>2026-04-06T14:52:48Z</time></trkpt><trkpt lat="33.01729051338511" lon="9.717976689411138"><ele>226.0</ele><time>2026-04-06T14:52:49Z</time></trkpt><trkpt lat="33.01741924165378" lon="9.718160170701383"><ele>226.0</ele><time>2026-04-06T14:52:50Z</time></trkpt><trkpt lat="33.01754780099254" lon="9.71833958778751"><ele>226.0</ele><time>2026-04-06T14:52:51Z</time></trkpt><trkpt lat="33.017676269221745" lon="9.718520607059856"><ele>226.0</ele><time>2026-04-06T14:52:52Z</time></trkpt><trkpt lat="33.01780915621337" lon="9.718708071867246"><ele>226.0</ele><time>2026-04-06T14:52:53Z</time></trkpt><trkpt lat="33.01794029975523" lon="9.718892407588102"><ele>226.0</ele><time>2026-04-06T14:52:54Z</time></trkpt><trkpt lat="33.01807183409228" lon="9.71908663631985"><ele>226.0</ele><time>2026-04-06T14:52:55Z</time></trkpt><trkpt lat="33.0182061954115" lon="9.719282422324214"><ele>225.66666666666666</ele><time>2026-04-06T14:52:56Z</time></trkpt><trkpt lat="33.018343186555605" lon="9.71947598879052"><ele>225.33333333333331</ele><time>2026-04-06T14:52:57Z</time></trkpt><trkpt lat="33.01848263243459" lon="9.719669940377141"><ele>225.0</ele><time>2026-04-06T14:52:58Z</time></trkpt><trkpt lat="33.01862960505511" lon="9.71987560881749"><ele>225.0</ele><time>2026-04-06T14:52:59Z</time></trkpt><trkpt lat="33.018776232442036" lon="9.720080323015695"><ele>225.0</ele><time>2026-04-06T14:53:00Z</time></trkpt><trkpt lat="33.018928710047334" lon="9.720296883019685"><ele>225.0</ele><time>2026-04-06T14:53:01Z</time></trkpt><trkpt lat="33.0190878952846" lon="9.720519935397895"><ele>225.0</ele><time>2026-04-06T14:53:02Z</time></trkpt><trkpt lat="33.01924620229514" lon="9.720747336392662"><ele>224.5</ele><time>2026-04-06T14:53:03Z</time></trkpt><trkpt lat="33.0194095217631" lon="9.720979282679247"><ele>224.0</ele><time>2026-04-06T14:53:04Z</time></trkpt><trkpt lat="33.01957602010738" lon="9.721210603769563"><ele>224.0</ele><time>2026-04-06T14:53:05Z</time></trkpt><trkpt lat="33.019739876092295" lon="9.72143921148984"><ele>224.0</ele><time>2026-04-06T14:53:06Z</time></trkpt><trkpt lat="33.019907626821876" lon="9.72167677217247"><ele>223.5</ele><time>2026-04-06T14:53:07Z</time></trkpt><trkpt lat="33.02007577495759" lon="9.721914446205025"><ele>223.0</ele><time>2026-04-06T14:53:08Z</time></trkpt><trkpt lat="33.020242185910654" lon="9.72215010399359"><ele>223.0</ele><time>2026-04-06T14:53:09Z</time></trkpt><trkpt lat="33.02041172832838" lon="9.722386159022909"><ele>223.0</ele><time>2026-04-06T14:53:10Z</time></trkpt><trkpt lat="33.02058159081972" lon="9.722623196185861"><ele>222.5</ele><time>2026-04-06T14:53:11Z</time></trkpt><trkpt lat="33.020756896008066" lon="9.722871826015265"><ele>222.0</ele><time>2026-04-06T14:53:12Z</time></trkpt><trkpt lat="33.02093032758898" lon="9.723126335529006"><ele>222.0</ele><time>2026-04-06T14:53:13Z</time></trkpt><trkpt lat="33.02110363086572" lon="9.723383265519008"><ele>222.0</ele><time>2026-04-06T14:53:14Z</time></trkpt><trkpt lat="33.02128731745089" lon="9.723640552535857"><ele>221.5</ele><time>2026-04-06T14:53:15Z</time></trkpt><trkpt lat="33.02147250981358" lon="9.723895722467699"><ele>221.0</ele><time>2026-04-06T14:53:16Z</time></trkpt><trkpt lat="33.021656907709556" lon="9.72415323279574"><ele>221.5</ele><time>2026-04-06T14:53:17Z</time></trkpt><trkpt lat="33.0218358922804" lon="9.72440822373883"><ele>222.0</ele><time>2026-04-06T14:53:18Z</time></trkpt><trkpt lat="33.02200707899777" lon="9.724650646557377"><ele>222.0</ele><time>2026-04-06T14:53:19Z</time></trkpt><trkpt lat="33.02217676751191" lon="9.724884834539967"><ele>222.0</ele><time>2026-04-06T14:53:20Z</time></trkpt><trkpt lat="33.02233337240941" lon="9.725102891064678"><ele>222.0</ele><time>2026-04-06T14:53:21Z</time></trkpt><trkpt lat="33.022482407042126" lon="9.725314476358"><ele>222.0</ele><time>2026-04-06T14:53:22Z</time></trkpt><trkpt lat="33.02262220059453" lon="9.725520961259795"><ele>222.0</ele><time>2026-04-06T14:53:23Z</time></trkpt><trkpt lat="33.022761700469815" lon="9.725721538771907"><ele>222.0</ele><time>2026-04-06T14:53:24Z</time></trkpt><trkpt lat="33.02290002393222" lon="9.725917891160623"><ele>222.0</ele><time>2026-04-06T14:53:25Z</time></trkpt><trkpt lat="33.02303368680368" lon="9.726110695380328"><ele>222.0</ele><time>2026-04-06T14:53:26Z</time></trkpt><trkpt lat="33.023171777486084" lon="9.726306403575473"><ele>222.0</ele><time>2026-04-06T14:53:27Z</time></trkpt><trkpt lat="33.02330627391373" lon="9.726501636532197"><ele>222.0</ele><time>2026-04-06T14:53:28Z</time></trkpt><trkpt lat="33.02345120981215" lon="9.72670383064851"><ele>220.5</ele><time>2026-04-06T14:53:29Z</time></trkpt><trkpt lat="33.023600902806734" lon="9.726912313277442"><ele>219.0</ele><time>2026-04-06T14:53:30Z</time></trkpt><trkpt lat="33.02376245054152" lon="9.727135615724064"><ele>219.0</ele><time>2026-04-06T14:53:31Z</time></trkpt><trkpt lat="33.02392341553084" lon="9.727352561554556"><ele>219.0</ele><time>2026-04-06T14:53:32Z</time></trkpt><trkpt lat="33.024080544294875" lon="9.727567728791845"><ele>219.0</ele><time>2026-04-06T14:53:33Z</time></trkpt><trkpt lat="33.02423392411024" lon="9.7277870278768"><ele>219.0</ele><time>2026-04-06T14:53:34Z</time></trkpt><trkpt lat="33.02439082760529" lon="9.728008967499289"><ele>219.0</ele><time>2026-04-06T14:53:35Z</time></trkpt><trkpt lat="33.02455032611369" lon="9.728235133779734"><ele>219.0</ele><time>2026-04-06T14:53:36Z</time></trkpt><trkpt lat="33.02470891005752" lon="9.728457160762881"><ele>219.5</ele><time>2026-04-06T14:53:37Z</time></trkpt><trkpt lat="33.02486732823768" lon="9.728685414578006"><ele>220.0</ele><time>2026-04-06T14:53:38Z</time></trkpt><trkpt lat="33.02502645118404" lon="9.728913708399029"><ele>220.0</ele><time>2026-04-06T14:53:39Z</time></trkpt><trkpt lat="33.02518708226755" lon="9.729145211308708"><ele>220.0</ele><time>2026-04-06T14:53:40Z</time></trkpt><trkpt lat="33.025348661568735" lon="9.729373645599177"><ele>220.5</ele><time>2026-04-06T14:53:41Z</time></trkpt><trkpt lat="33.025511919811464" lon="9.729601936214264"><ele>221.0</ele><time>2026-04-06T14:53:42Z</time></trkpt><trkpt lat="33.025675407320016" lon="9.729832382876124"><ele>221.0</ele><time>2026-04-06T14:53:43Z</time></trkpt><trkpt lat="33.02583713792267" lon="9.730058024224377"><ele>221.0</ele><time>2026-04-06T14:53:44Z</time></trkpt><trkpt lat="33.025995560131385" lon="9.730282786970362"><ele>221.0</ele><time>2026-04-06T14:53:45Z</time></trkpt><trkpt lat="33.02615946296684" lon="9.730509327407267"><ele>221.0</ele><time>2026-04-06T14:53:46Z</time></trkpt><trkpt lat="33.02632048016831" lon="9.730728224457925"><ele>221.0</ele><time>2026-04-06T14:53:47Z</time></trkpt><trkpt lat="33.02648063331141" lon="9.73094546874258"><ele>221.0</ele><time>2026-04-06T14:53:48Z</time></trkpt><trkpt lat="33.02662908493491" lon="9.731144920613572"><ele>221.33333333333334</ele><time>2026-04-06T14:53:49Z</time></trkpt><trkpt lat="33.026771444173804" lon="9.731338559658074"><ele>221.66666666666669</ele><time>2026-04-06T14:53:50Z</time></trkpt><trkpt lat="33.02690949498656" lon="9.731537975105047"><ele>222.0</ele><time>2026-04-06T14:53:51Z</time></trkpt><trkpt lat="33.02704789409767" lon="9.731739001273155"><ele>222.0</ele><time>2026-04-06T14:53:52Z</time></trkpt><trkpt lat="33.02718157854327" lon="9.731942069855455"><ele>222.0</ele><time>2026-04-06T14:53:53Z</time></trkpt><trkpt lat="33.02732208121926" lon="9.73215714792934"><ele>222.0</ele><time>2026-04-06T14:53:54Z</time></trkpt><trkpt lat="33.027461713304106" lon="9.732381082827683"><ele>222.5</ele><time>2026-04-06T14:53:55Z</time></trkpt><trkpt lat="33.02760007719755" lon="9.732610753960317"><ele>223.0</ele><time>2026-04-06T14:53:56Z</time></trkpt><trkpt lat="33.02773852365805" lon="9.732843689124449"><ele>224.0</ele><time>2026-04-06T14:53:57Z</time></trkpt><trkpt lat="33.0278757042633" lon="9.733080065580848"><ele>225.0</ele><time>2026-04-06T14:53:58Z</time></trkpt><trkpt lat="33.0280122641488" lon="9.733320466826456"><ele>225.5</ele><time>2026-04-06T14:53:59Z</time></trkpt><trkpt lat="33.028148594519784" lon="9.733560452528234"><ele>226.0</ele><time>2026-04-06T14:54:00Z</time></trkpt><trkpt lat="33.028277268179686" lon="9.733796754103285"><ele>226.0</ele><time>2026-04-06T14:54:01Z</time></trkpt><trkpt lat="33.02839448832909" lon="9.73402999227903"><ele>226.0</ele><time>2026-04-06T14:54:02Z</time></trkpt><trkpt lat="33.02850623891816" lon="9.734262254817814"><ele>225.0</ele><time>2026-04-06T14:54:03Z</time></trkpt><trkpt lat="33.02861132276614" lon="9.734499339593725"><ele>224.0</ele><time>2026-04-06T14:54:04Z</time></trkpt><trkpt lat="33.02871004498237" lon="9.734730879981635"><ele>223.0</ele><time>2026-04-06T14:54:05Z</time></trkpt><trkpt lat="33.02880471171411" lon="9.734966622124002"><ele>223.0</ele><time>2026-04-06T14:54:06Z</time></trkpt><trkpt lat="33.02890079217574" lon="9.735198168205166"><ele>223.0</ele><time>2026-04-06T14:54:07Z</time></trkpt><trkpt lat="33.02900038688139" lon="9.735439741219396"><ele>223.0</ele><time>2026-04-06T14:54:08Z</time></trkpt><trkpt lat="33.02909762418392" lon="9.735694539453634"><ele>224.0</ele><time>2026-04-06T14:54:09Z</time></trkpt><trkpt lat="33.029197212965784" lon="9.735955935827308"><ele>225.0</ele><time>2026-04-06T14:54:10Z</time></trkpt><trkpt lat="33.02928995036971" lon="9.736219915115282"><ele>225.5</ele><time>2026-04-06T14:54:11Z</time></trkpt><trkpt lat="33.029381790405004" lon="9.736482703190457"><ele>226.0</ele><time>2026-04-06T14:54:12Z</time></trkpt><trkpt lat="33.02946852241905" lon="9.736740050895076"><ele>226.5</ele><time>2026-04-06T14:54:13Z</time></trkpt><trkpt lat="33.02955308484776" lon="9.736995715448858"><ele>227.0</ele><time>2026-04-06T14:54:14Z</time></trkpt><trkpt lat="33.029639243305695" lon="9.737249043636634"><ele>227.0</ele><time>2026-04-06T14:54:15Z</time></trkpt><trkpt lat="33.02972754744064" lon="9.737507796868252"><ele>227.0</ele><time>2026-04-06T14:54:16Z</time></trkpt><trkpt lat="33.02982073529537" lon="9.737766539706431"><ele>227.0</ele><time>2026-04-06T14:54:17Z</time></trkpt><trkpt lat="33.0299121609605" lon="9.73802857877575"><ele>227.0</ele><time>2026-04-06T14:54:18Z</time></trkpt><trkpt lat="33.03000281541496" lon="9.738289754954875"><ele>227.5</ele><time>2026-04-06T14:54:19Z</time></trkpt><trkpt lat="33.03009031396421" lon="9.738557144910093"><ele>228.0</ele><time>2026-04-06T14:54:20Z</time></trkpt><trkpt lat="33.030182378585145" lon="9.738832861922265"><ele>228.0</ele><time>2026-04-06T14:54:21Z</time></trkpt><trkpt lat="33.03027877044785" lon="9.739109236111846"><ele>228.0</ele><time>2026-04-06T14:54:22Z</time></trkpt><trkpt lat="33.03037894652625" lon="9.739388695486873"><ele>226.5</ele><time>2026-04-06T14:54:23Z</time></trkpt><trkpt lat="33.030481469690415" lon="9.739669527730715"><ele>225.0</ele><time>2026-04-06T14:54:24Z</time></trkpt><trkpt lat="33.030585689792254" lon="9.739956247568452"><ele>224.0</ele><time>2026-04-06T14:54:25Z</time></trkpt><trkpt lat="33.03068955877016" lon="9.74024909998115"><ele>223.0</ele><time>2026-04-06T14:54:26Z</time></trkpt><trkpt lat="33.03078941313381" lon="9.740542290692767"><ele>224.5</ele><time>2026-04-06T14:54:27Z</time></trkpt><trkpt lat="33.03088741472723" lon="9.740828771355066"><ele>226.0</ele><time>2026-04-06T14:54:28Z</time></trkpt><trkpt lat="33.03098596115589" lon="9.741115953263735"><ele>226.0</ele><time>2026-04-06T14:54:29Z</time></trkpt><trkpt lat="33.031084014853135" lon="9.741402155887105"><ele>226.0</ele><time>2026-04-06T14:54:30Z</time></trkpt><trkpt lat="33.03118127713473" lon="9.741682989251704"><ele>225.5</ele><time>2026-04-06T14:54:31Z</time></trkpt><trkpt lat="33.03128081879351" lon="9.741965252394213"><ele>225.0</ele><time>2026-04-06T14:54:32Z</time></trkpt><trkpt lat="33.031378581708374" lon="9.742249211201313"><ele>225.0</ele><time>2026-04-06T14:54:33Z</time></trkpt><trkpt lat="33.03147379948569" lon="9.742530263811403"><ele>225.0</ele><time>2026-04-06T14:54:34Z</time></trkpt><trkpt lat="33.03156872638569" lon="9.74280889810177"><ele>225.5</ele><time>2026-04-06T14:54:35Z</time></trkpt><trkpt lat="33.03166604012746" lon="9.74309159117898"><ele>226.0</ele><time>2026-04-06T14:54:36Z</time></trkpt><trkpt lat="33.031761488569686" lon="9.743369794172525"><ele>226.5</ele><time>2026-04-06T14:54:37Z</time></trkpt><trkpt lat="33.0318609454569" lon="9.743651901601897"><ele>227.0</ele><time>2026-04-06T14:54:38Z</time></trkpt><trkpt lat="33.03196061623526" lon="9.74394025358135"><ele>227.0</ele><time>2026-04-06T14:54:39Z</time></trkpt><trkpt lat="33.03206472844249" lon="9.744232944370621"><ele>227.0</ele><time>2026-04-06T14:54:40Z</time></trkpt><trkpt lat="33.03216554160543" lon="9.744526715898074"><ele>226.5</ele><time>2026-04-06T14:54:41Z</time></trkpt><trkpt lat="33.032265405951435" lon="9.744820769609309"><ele>226.0</ele><time>2026-04-06T14:54:42Z</time></trkpt><trkpt lat="33.032365425413616" lon="9.745112177589736"><ele>226.5</ele><time>2026-04-06T14:54:43Z</time></trkpt><trkpt lat="33.03246740604474" lon="9.745406579618582"><ele>227.0</ele><time>2026-04-06T14:54:44Z</time></trkpt><trkpt lat="33.03257484862329" lon="9.745705543643567"><ele>227.0</ele><time>2026-04-06T14:54:45Z</time></trkpt><trkpt lat="33.03267859541057" lon="9.74599561215253"><ele>227.0</ele><time>2026-04-06T14:54:46Z</time></trkpt><trkpt lat="33.032782307916236" lon="9.74628987422338"><ele>227.0</ele><time>2026-04-06T14:54:47Z</time></trkpt><trkpt lat="33.03288276207661" lon="9.746587008178958"><ele>227.0</ele><time>2026-04-06T14:54:48Z</time></trkpt><trkpt lat="33.03298180679152" lon="9.746883224463684"><ele>228.0</ele><time>2026-04-06T14:54:49Z</time></trkpt><trkpt lat="33.03308297447553" lon="9.747174939665971"><ele>229.0</ele><time>2026-04-06T14:54:50Z</time></trkpt><trkpt lat="33.033181615567834" lon="9.747465862214952"><ele>229.0</ele><time>2026-04-06T14:54:51Z</time></trkpt><trkpt lat="33.033280028101565" lon="9.747759569966805"><ele>229.0</ele><time>2026-04-06T14:54:52Z</time></trkpt><trkpt lat="33.03338295528162" lon="9.748058043615691"><ele>229.0</ele><time>2026-04-06T14:54:53Z</time></trkpt><trkpt lat="33.03348816016199" lon="9.74835445627238"><ele>229.0</ele><time>2026-04-06T14:54:54Z</time></trkpt><trkpt lat="33.03359647206961" lon="9.748651905358784"><ele>230.0</ele><time>2026-04-06T14:54:55Z</time></trkpt><trkpt lat="33.03370005022047" lon="9.748943912313983"><ele>231.0</ele><time>2026-04-06T14:54:56Z</time></trkpt><trkpt lat="33.03380693649432" lon="9.749242011808976"><ele>230.0</ele><time>2026-04-06T14:54:57Z</time></trkpt><trkpt lat="33.0339069493913" lon="9.749538795841614"><ele>229.0</ele><time>2026-04-06T14:54:58Z</time></trkpt><trkpt lat="33.03400669360955" lon="9.749835904033374"><ele>229.0</ele><time>2026-04-06T14:54:59Z</time></trkpt><trkpt lat="33.03410419839016" lon="9.750134719519888"><ele>229.0</ele><time>2026-04-06T14:55:00Z</time></trkpt><trkpt lat="33.03420767692009" lon="9.750436972708412"><ele>231.0</ele><time>2026-04-06T14:55:01Z</time></trkpt><trkpt lat="33.03431623808006" lon="9.750734174513898"><ele>233.0</ele><time>2026-04-06T14:55:02Z</time></trkpt><trkpt lat="33.034431207482704" lon="9.751030947432792"><ele>232.0</ele><time>2026-04-06T14:55:03Z</time></trkpt><trkpt lat="33.03455284350195" lon="9.751321314482631"><ele>231.0</ele><time>2026-04-06T14:55:04Z</time></trkpt><trkpt lat="33.03468131030897" lon="9.751612586209218"><ele>231.5</ele><time>2026-04-06T14:55:05Z</time></trkpt><trkpt lat="33.03480901351752" lon="9.751905217135498"><ele>232.0</ele><time>2026-04-06T14:55:06Z</time></trkpt><trkpt lat="33.03494015810402" lon="9.752193521056862"><ele>232.0</ele><time>2026-04-06T14:55:07Z</time></trkpt><trkpt lat="33.035077893037325" lon="9.75248039949587"><ele>232.0</ele><time>2026-04-06T14:55:08Z</time></trkpt><trkpt lat="33.03522047015942" lon="9.752760621560624"><ele>232.5</ele><time>2026-04-06T14:55:09Z</time></trkpt><trkpt lat="33.03536773942511" lon="9.753031385537422"><ele>233.0</ele><time>2026-04-06T14:55:10Z</time></trkpt><trkpt lat="33.035515692707044" lon="9.75329631806235"><ele>232.0</ele><time>2026-04-06T14:55:11Z</time></trkpt><trkpt lat="33.03566471676454" lon="9.753558329337045"><ele>231.0</ele><time>2026-04-06T14:55:12Z</time></trkpt><trkpt lat="33.03581705083711" lon="9.753816052751164"><ele>231.0</ele><time>2026-04-06T14:55:13Z</time></trkpt><trkpt lat="33.03597456584375" lon="9.75407293178916"><ele>231.0</ele><time>2026-04-06T14:55:14Z</time></trkpt><trkpt lat="33.036140613995016" lon="9.754327382171985"><ele>232.0</ele><time>2026-04-06T14:55:15Z</time></trkpt><trkpt lat="33.0363147229909" lon="9.754582927385899"><ele>233.0</ele><time>2026-04-06T14:55:16Z</time></trkpt><trkpt lat="33.03649307220935" lon="9.754835986266887"><ele>232.5</ele><time>2026-04-06T14:55:17Z</time></trkpt><trkpt lat="33.036671891961" lon="9.755082751692182"><ele>232.0</ele><time>2026-04-06T14:55:18Z</time></trkpt><trkpt lat="33.03685326156683" lon="9.75533143285116"><ele>233.0</ele><time>2026-04-06T14:55:19Z</time></trkpt><trkpt lat="33.03703835356354" lon="9.755585604865724"><ele>234.0</ele><time>2026-04-06T14:55:20Z</time></trkpt><trkpt lat="33.03722111913846" lon="9.755840644786792"><ele>234.5</ele><time>2026-04-06T14:55:21Z</time></trkpt><trkpt lat="33.037398893711085" lon="9.75609354533527"><ele>235.0</ele><time>2026-04-06T14:55:22Z</time></trkpt><trkpt lat="33.03758062578091" lon="9.756350256158381"><ele>234.0</ele><time>2026-04-06T14:55:23Z</time></trkpt><trkpt lat="33.03776070987125" lon="9.756601332900527"><ele>233.0</ele><time>2026-04-06T14:55:24Z</time></trkpt><trkpt lat="33.037941824091746" lon="9.756853633947216"><ele>233.0</ele><time>2026-04-06T14:55:25Z</time></trkpt><trkpt lat="33.038124852901845" lon="9.75710188138229"><ele>233.0</ele><time>2026-04-06T14:55:26Z</time></trkpt><trkpt lat="33.03830693874257" lon="9.757348739439363"><ele>233.0</ele><time>2026-04-06T14:55:27Z</time></trkpt><trkpt lat="33.038491102350214" lon="9.757600127916085"><ele>233.0</ele><time>2026-04-06T14:55:28Z</time></trkpt><trkpt lat="33.03867392823248" lon="9.75785924514996"><ele>234.0</ele><time>2026-04-06T14:55:29Z</time></trkpt><trkpt lat="33.03885785507646" lon="9.758121444608648"><ele>235.0</ele><time>2026-04-06T14:55:30Z</time></trkpt><trkpt lat="33.03904597181812" lon="9.758383913250848"><ele>235.0</ele><time>2026-04-06T14:55:31Z</time></trkpt><trkpt lat="33.03923659730995" lon="9.758640968431802"><ele>235.0</ele><time>2026-04-06T14:55:32Z</time></trkpt><trkpt lat="33.0394154509291" lon="9.75888875759"><ele>235.0</ele><time>2026-04-06T14:55:33Z</time></trkpt><trkpt lat="33.0395811013309" lon="9.759125646085614"><ele>235.0</ele><time>2026-04-06T14:55:34Z</time></trkpt><trkpt lat="33.03974991419653" lon="9.759360546531168"><ele>235.0</ele><time>2026-04-06T14:55:35Z</time></trkpt><trkpt lat="33.039921246962976" lon="9.759600558339498"><ele>235.0</ele><time>2026-04-06T14:55:36Z</time></trkpt><trkpt lat="33.04009163167431" lon="9.759838120649933"><ele>235.0</ele><time>2026-04-06T14:55:37Z</time></trkpt><trkpt lat="33.04025901605975" lon="9.760075993196917"><ele>235.0</ele><time>2026-04-06T14:55:38Z</time></trkpt><trkpt lat="33.040420271369584" lon="9.760316751182614"><ele>235.0</ele><time>2026-04-06T14:55:39Z</time></trkpt><trkpt lat="33.04057357476006" lon="9.760569786140113"><ele>235.0</ele><time>2026-04-06T14:55:40Z</time></trkpt><trkpt lat="33.04071145728435" lon="9.760829140630278"><ele>235.0</ele><time>2026-04-06T14:55:41Z</time></trkpt><trkpt lat="33.040842525811364" lon="9.761101553370372"><ele>235.0</ele><time>2026-04-06T14:55:42Z</time></trkpt><trkpt lat="33.040970465689455" lon="9.761382164733272"><ele>235.0</ele><time>2026-04-06T14:55:43Z</time></trkpt><trkpt lat="33.04110025179445" lon="9.761663411709737"><ele>235.0</ele><time>2026-04-06T14:55:44Z</time></trkpt><trkpt lat="33.04122469031352" lon="9.761937774495538"><ele>235.0</ele><time>2026-04-06T14:55:45Z</time></trkpt><trkpt lat="33.04134407442165" lon="9.762221278382805"><ele>235.0</ele><time>2026-04-06T14:55:46Z</time></trkpt><trkpt lat="33.04145943657702" lon="9.762516783581766"><ele>235.0</ele><time>2026-04-06T14:55:47Z</time></trkpt><trkpt lat="33.04156629279316" lon="9.762812197892428"><ele>235.0</ele><time>2026-04-06T14:55:48Z</time></trkpt><trkpt lat="33.04167021744278" lon="9.763117691357506"><ele>235.5</ele><time>2026-04-06T14:55:49Z</time></trkpt><trkpt lat="33.04176979825312" lon="9.763419118642899"><ele>236.0</ele><time>2026-04-06T14:55:50Z</time></trkpt><trkpt lat="33.04185876374697" lon="9.763728092616796"><ele>235.0</ele><time>2026-04-06T14:55:51Z</time></trkpt><trkpt lat="33.04194119818329" lon="9.764028830507362"><ele>234.0</ele><time>2026-04-06T14:55:52Z</time></trkpt><trkpt lat="33.04201317081847" lon="9.764312330553624"><ele>234.5</ele><time>2026-04-06T14:55:53Z</time></trkpt><trkpt lat="33.04207941358622" lon="9.764588935562095"><ele>235.0</ele><time>2026-04-06T14:55:54Z</time></trkpt><trkpt lat="33.04213945781142" lon="9.764869137689889"><ele>235.0</ele><time>2026-04-06T14:55:55Z</time></trkpt><trkpt lat="33.04219402890165" lon="9.76516134505527"><ele>235.0</ele><time>2026-04-06T14:55:56Z</time></trkpt><trkpt lat="33.042244560589914" lon="9.765461781055823"><ele>235.5</ele><time>2026-04-06T14:55:57Z</time></trkpt><trkpt lat="33.042295331315124" lon="9.765764007659067"><ele>236.0</ele><time>2026-04-06T14:55:58Z</time></trkpt><trkpt lat="33.0423422656258" lon="9.766071589942214"><ele>236.0</ele><time>2026-04-06T14:55:59Z</time></trkpt><trkpt lat="33.042380312099255" lon="9.766389584882818"><ele>236.0</ele><time>2026-04-06T14:56:00Z</time></trkpt><trkpt lat="33.04241560008382" lon="9.766710718148198"><ele>236.0</ele><time>2026-04-06T14:56:01Z</time></trkpt><trkpt lat="33.04244168583267" lon="9.767037605328508"><ele>236.0</ele><time>2026-04-06T14:56:02Z</time></trkpt><trkpt lat="33.04246194236238" lon="9.767362113738061"><ele>236.0</ele><time>2026-04-06T14:56:03Z</time></trkpt><trkpt lat="33.042474129441" lon="9.76768776629747"><ele>236.0</ele><time>2026-04-06T14:56:04Z</time></trkpt><trkpt lat="33.042478183256705" lon="9.768011445330565"><ele>236.5</ele><time>2026-04-06T14:56:05Z</time></trkpt><trkpt lat="33.04247525506382" lon="9.768335755084479"><ele>237.0</ele><time>2026-04-06T14:56:06Z</time></trkpt><trkpt lat="33.04246953080799" lon="9.768643772904596"><ele>237.5</ele><time>2026-04-06T14:56:07Z</time></trkpt><trkpt lat="33.04245689234982" lon="9.768946625961538"><ele>238.0</ele><time>2026-04-06T14:56:08Z</time></trkpt><trkpt lat="33.04243810257518" lon="9.76925126650839"><ele>238.5</ele><time>2026-04-06T14:56:09Z</time></trkpt><trkpt lat="33.04241580396524" lon="9.769560604543658"><ele>239.0</ele><time>2026-04-06T14:56:10Z</time></trkpt><trkpt lat="33.04238925917104" lon="9.76986745377493"><ele>239.0</ele><time>2026-04-06T14:56:11Z</time></trkpt><trkpt lat="33.04236130040398" lon="9.770178745703317"><ele>239.0</ele><time>2026-04-06T14:56:12Z</time></trkpt><trkpt lat="33.04233199448834" lon="9.77048919303129"><ele>238.0</ele><time>2026-04-06T14:56:13Z</time></trkpt><trkpt lat="33.04230373788328" lon="9.770803573835893"><ele>237.0</ele><time>2026-04-06T14:56:14Z</time></trkpt><trkpt lat="33.04227561829719" lon="9.771113962450261"><ele>236.5</ele><time>2026-04-06T14:56:15Z</time></trkpt><trkpt lat="33.042249755824905" lon="9.77143075237283"><ele>236.0</ele><time>2026-04-06T14:56:16Z</time></trkpt><trkpt lat="33.04222212490058" lon="9.77174331772644"><ele>237.5</ele><time>2026-04-06T14:56:17Z</time></trkpt><trkpt lat="33.04219219825391" lon="9.772063228946966"><ele>239.0</ele><time>2026-04-06T14:56:18Z</time></trkpt><trkpt lat="33.04216378657705" lon="9.772379904567945"><ele>238.5</ele><time>2026-04-06T14:56:19Z</time></trkpt><trkpt lat="33.04213923272354" lon="9.772698569786487"><ele>238.0</ele><time>2026-04-06T14:56:20Z</time></trkpt><trkpt lat="33.04211152562119" lon="9.77301272788412"><ele>238.0</ele><time>2026-04-06T14:56:21Z</time></trkpt><trkpt lat="33.04208317294017" lon="9.773311310287061"><ele>238.0</ele><time>2026-04-06T14:56:22Z</time></trkpt><trkpt lat="33.042055394444304" lon="9.77361140730003"><ele>238.0</ele><time>2026-04-06T14:56:23Z</time></trkpt><trkpt lat="33.04203031810398" lon="9.773915022843259"><ele>238.0</ele><time>2026-04-06T14:56:24Z</time></trkpt><trkpt lat="33.04200716351308" lon="9.774213985784504"><ele>240.0</ele><time>2026-04-06T14:56:25Z</time></trkpt><trkpt lat="33.04198140802428" lon="9.77451388506484"><ele>242.0</ele><time>2026-04-06T14:56:26Z</time></trkpt><trkpt lat="33.04195449002333" lon="9.774814502585906"><ele>242.0</ele><time>2026-04-06T14:56:27Z</time></trkpt><trkpt lat="33.04192546135922" lon="9.775116156317498"><ele>242.0</ele><time>2026-04-06T14:56:28Z</time></trkpt><trkpt lat="33.041898419212316" lon="9.775402528736636"><ele>242.0</ele><time>2026-04-06T14:56:29Z</time></trkpt><trkpt lat="33.041875801873886" lon="9.775671353850852"><ele>242.0</ele><time>2026-04-06T14:56:30Z</time></trkpt><trkpt lat="33.041852967061324" lon="9.775933849929299"><ele>242.0</ele><time>2026-04-06T14:56:31Z</time></trkpt><trkpt lat="33.041829644520185" lon="9.776176405190565"><ele>241.33333333333334</ele><time>2026-04-06T14:56:32Z</time></trkpt><trkpt lat="33.04181113280558" lon="9.7764078855658"><ele>240.66666666666669</ele><time>2026-04-06T14:56:33Z</time></trkpt><trkpt lat="33.04179766211566" lon="9.776619506512812"><ele>240.0</ele><time>2026-04-06T14:56:34Z</time></trkpt><trkpt lat="33.041784844819844" lon="9.776812278987375"><ele>239.75</ele><time>2026-04-06T14:56:35Z</time></trkpt><trkpt lat="33.0417662368262" lon="9.77698431435491"><ele>239.5</ele><time>2026-04-06T14:56:36Z</time></trkpt><trkpt lat="33.041748124357845" lon="9.777141785062424"><ele>239.25</ele><time>2026-04-06T14:56:37Z</time></trkpt><trkpt lat="33.04173242955767" lon="9.777277649202476"><ele>239.0</ele><time>2026-04-06T14:56:38Z</time></trkpt><trkpt lat="33.04171683262449" lon="9.777401984786119"><ele>239.00000000000003</ele><time>2026-04-06T14:56:39Z</time></trkpt><trkpt lat="33.041705274118556" lon="9.777513831471763"><ele>239.0</ele><time>2026-04-06T14:56:40Z</time></trkpt><trkpt lat="33.04169543676415" lon="9.777613595231838"><ele>239.0</ele><time>2026-04-06T14:56:41Z</time></trkpt><trkpt lat="33.04168240869011" lon="9.777706089329675"><ele>239.0</ele><time>2026-04-06T14:56:42Z</time></trkpt><trkpt lat="33.041671589191374" lon="9.77778782561192"><ele>239.00000000000003</ele><time>2026-04-06T14:56:43Z</time></trkpt><trkpt lat="33.04167450436485" lon="9.777922376700447"><ele>239.0</ele><time>2026-04-06T14:56:45Z</time></trkpt><trkpt lat="33.04174332371575" lon="9.778013204195963"><ele>239.2</ele><time>2026-04-06T14:56:47Z</time></trkpt><trkpt lat="33.0418439516031" lon="9.778021300215983"><ele>239.39999999999998</ele><time>2026-04-06T14:56:49Z</time></trkpt><trkpt lat="33.04191122425724" lon="9.778013551517146"><ele>239.6</ele><time>2026-04-06T14:56:50Z</time></trkpt><trkpt lat="33.04199591001321" lon="9.778004733846617"><ele>239.8</ele><time>2026-04-06T14:56:51Z</time></trkpt><trkpt lat="33.042093717694286" lon="9.777997108408515"><ele>240.0</ele><time>2026-04-06T14:56:52Z</time></trkpt><trkpt lat="33.042201518277146" lon="9.777993120883163"><ele>240.0</ele><time>2026-04-06T14:56:53Z</time></trkpt><trkpt lat="33.04231829355234" lon="9.777988073930432"><ele>240.0</ele><time>2026-04-06T14:56:54Z</time></trkpt><trkpt lat="33.042443153530286" lon="9.777981273183531"><ele>240.0</ele><time>2026-04-06T14:56:55Z</time></trkpt><trkpt lat="33.04258318589981" lon="9.777980471529593"><ele>240.0</ele><time>2026-04-06T14:56:56Z</time></trkpt><trkpt lat="33.04272996276172" lon="9.777975117805202"><ele>239.0</ele><time>2026-04-06T14:56:57Z</time></trkpt><trkpt lat="33.04288848967746" lon="9.777964903951217"><ele>238.0</ele><time>2026-04-06T14:56:58Z</time></trkpt><trkpt lat="33.043054044891235" lon="9.7779594181377"><ele>237.0</ele><time>2026-04-06T14:56:59Z</time></trkpt><trkpt lat="33.0432245748011" lon="9.777953383247626"><ele>237.33333333333331</ele><time>2026-04-06T14:57:00Z</time></trkpt><trkpt lat="33.04340066917756" lon="9.777941138373986"><ele>237.66666666666666</ele><time>2026-04-06T14:57:01Z</time></trkpt><trkpt lat="33.04358380393567" lon="9.777930511632984"><ele>238.0</ele><time>2026-04-06T14:57:02Z</time></trkpt><trkpt lat="33.04377198054391" lon="9.777923685341452"><ele>238.0</ele><time>2026-04-06T14:57:03Z</time></trkpt><trkpt lat="33.04396364516008" lon="9.777916784396858"><ele>238.0</ele><time>2026-04-06T14:57:04Z</time></trkpt><trkpt lat="33.044146259185595" lon="9.777908411949728"><ele>238.0</ele><time>2026-04-06T14:57:05Z</time></trkpt><trkpt lat="33.044312851290854" lon="9.777900847849223"><ele>238.0</ele><time>2026-04-06T14:57:06Z</time></trkpt><trkpt lat="33.044471435308374" lon="9.777890611679005"><ele>238.0</ele><time>2026-04-06T14:57:07Z</time></trkpt><trkpt lat="33.044620736356805" lon="9.777877836240714"><ele>238.0</ele><time>2026-04-06T14:57:08Z</time></trkpt><trkpt lat="33.044764261243756" lon="9.777866872627673"><ele>238.0</ele><time>2026-04-06T14:57:09Z</time></trkpt><trkpt lat="33.04490237039875" lon="9.777853524936555"><ele>238.0</ele><time>2026-04-06T14:57:10Z</time></trkpt><trkpt lat="33.04503853293581" lon="9.777840907098426"><ele>238.0</ele><time>2026-04-06T14:57:11Z</time></trkpt><trkpt lat="33.04516932909538" lon="9.777827203723373"><ele>238.0</ele><time>2026-04-06T14:57:12Z</time></trkpt><trkpt lat="33.04530280809318" lon="9.77781110980447"><ele>237.25</ele><time>2026-04-06T14:57:13Z</time></trkpt><trkpt lat="33.04543962034446" lon="9.777792195084261"><ele>236.5</ele><time>2026-04-06T14:57:14Z</time></trkpt><trkpt lat="33.045571274701004" lon="9.777774898281052"><ele>235.75</ele><time>2026-04-06T14:57:15Z</time></trkpt><trkpt lat="33.0456958618524" lon="9.777759716716728"><ele>235.0</ele><time>2026-04-06T14:57:16Z</time></trkpt><trkpt lat="33.04581519482115" lon="9.777745082594713"><ele>234.4</ele><time>2026-04-06T14:57:17Z</time></trkpt><trkpt lat="33.04593195603021" lon="9.777730468154617"><ele>233.8</ele><time>2026-04-06T14:57:18Z</time></trkpt><trkpt lat="33.0460466686127" lon="9.777720003747353"><ele>233.2</ele><time>2026-04-06T14:57:19Z</time></trkpt><trkpt lat="33.04615584281582" lon="9.777712507857482"><ele>232.6</ele><time>2026-04-06T14:57:20Z</time></trkpt><trkpt lat="33.04626211343505" lon="9.777702648851289"><ele>232.0</ele><time>2026-04-06T14:57:21Z</time></trkpt><trkpt lat="33.04636681208253" lon="9.77769405451395"><ele>232.0</ele><time>2026-04-06T14:57:22Z</time></trkpt><trkpt lat="33.046474630594425" lon="9.777683949511319"><ele>232.0</ele><time>2026-04-06T14:57:23Z</time></trkpt><trkpt lat="33.0465803451843" lon="9.777672269488294"><ele>232.0</ele><time>2026-04-06T14:57:24Z</time></trkpt><trkpt lat="33.04669038957072" lon="9.7776593798651"><ele>232.0</ele><time>2026-04-06T14:57:25Z</time></trkpt><trkpt lat="33.04679836906363" lon="9.777648737150926"><ele>232.0</ele><time>2026-04-06T14:57:26Z</time></trkpt><trkpt lat="33.04690611586586" lon="9.77764667649678"><ele>232.0</ele><time>2026-04-06T14:57:27Z</time></trkpt><trkpt lat="33.047012978589116" lon="9.777639431189957"><ele>232.0</ele><time>2026-04-06T14:57:28Z</time></trkpt><trkpt lat="33.04712291339272" lon="9.777627781955456"><ele>232.0</ele><time>2026-04-06T14:57:29Z</time></trkpt><trkpt lat="33.047238341046516" lon="9.777616413052545"><ele>232.0</ele><time>2026-04-06T14:57:30Z</time></trkpt><trkpt lat="33.0473580211816" lon="9.77760472911063"><ele>231.75</ele><time>2026-04-06T14:57:31Z</time></trkpt><trkpt lat="33.047477500700424" lon="9.77759093135124"><ele>231.5</ele><time>2026-04-06T14:57:32Z</time></trkpt><trkpt lat="33.04759815999844" lon="9.777582942276505"><ele>231.25</ele><time>2026-04-06T14:57:33Z</time></trkpt><trkpt lat="33.04772338771756" lon="9.777572542064787"><ele>231.0</ele><time>2026-04-06T14:57:34Z</time></trkpt><trkpt lat="33.04785815569806" lon="9.777550741847403"><ele>231.0</ele><time>2026-04-06T14:57:35Z</time></trkpt><trkpt lat="33.0479881006529" lon="9.777534292423443"><ele>231.0</ele><time>2026-04-06T14:57:36Z</time></trkpt><trkpt lat="33.048114876060964" lon="9.777522279374393"><ele>231.0</ele><time>2026-04-06T14:57:37Z</time></trkpt><trkpt lat="33.0482543258766" lon="9.777499814045168"><ele>231.0</ele><time>2026-04-06T14:57:38Z</time></trkpt><trkpt lat="33.04840392286495" lon="9.777477025950747"><ele>230.66666666666669</ele><time>2026-04-06T14:57:39Z</time></trkpt><trkpt lat="33.04855640332261" lon="9.77745573440203"><ele>230.33333333333334</ele><time>2026-04-06T14:57:40Z</time></trkpt><trkpt lat="33.0487216545071" lon="9.777431372048376"><ele>230.0</ele><time>2026-04-06T14:57:41Z</time></trkpt><trkpt lat="33.04888730496675" lon="9.77741195310235"><ele>230.0</ele><time>2026-04-06T14:57:42Z</time></trkpt><trkpt lat="33.04906215823042" lon="9.777390636971852"><ele>230.0</ele><time>2026-04-06T14:57:43Z</time></trkpt><trkpt lat="33.04923445290037" lon="9.777366271390326"><ele>230.0</ele><time>2026-04-06T14:57:44Z</time></trkpt><trkpt lat="33.04941145950137" lon="9.777341775027123"><ele>229.66666666666669</ele><time>2026-04-06T14:57:45Z</time></trkpt><trkpt lat="33.049586090232495" lon="9.77731654170963"><ele>229.33333333333331</ele><time>2026-04-06T14:57:46Z</time></trkpt><trkpt lat="33.049756945819716" lon="9.777289370616838"><ele>229.0</ele><time>2026-04-06T14:57:47Z</time></trkpt><trkpt lat="33.049915309696146" lon="9.777265898884803"><ele>229.66666666666666</ele><time>2026-04-06T14:57:48Z</time></trkpt><trkpt lat="33.05007711308629" lon="9.777241665316433"><ele>230.33333333333331</ele><time>2026-04-06T14:57:49Z</time></trkpt><trkpt lat="33.05024440106923" lon="9.777218182257037"><ele>231.0</ele><time>2026-04-06T14:57:50Z</time></trkpt><trkpt lat="33.05041272734246" lon="9.777197558100369"><ele>231.0</ele><time>2026-04-06T14:57:51Z</time></trkpt><trkpt lat="33.050570735108096" lon="9.777174905098683"><ele>231.0</ele><time>2026-04-06T14:57:52Z</time></trkpt><trkpt lat="33.050736892753335" lon="9.777155541569911"><ele>231.0</ele><time>2026-04-06T14:57:53Z</time></trkpt><trkpt lat="33.05090696407825" lon="9.777127084962979"><ele>231.66666666666669</ele><time>2026-04-06T14:57:54Z</time></trkpt><trkpt lat="33.05108453796475" lon="9.777100447420283"><ele>232.33333333333334</ele><time>2026-04-06T14:57:55Z</time></trkpt><trkpt lat="33.05126887830322" lon="9.777075644222778"><ele>233.0</ele><time>2026-04-06T14:57:56Z</time></trkpt><trkpt lat="33.05145785119394" lon="9.77704741888849"><ele>233.0</ele><time>2026-04-06T14:57:57Z</time></trkpt><trkpt lat="33.0516546521169" lon="9.777021998093943"><ele>233.0</ele><time>2026-04-06T14:57:58Z</time></trkpt><trkpt lat="33.05186220027005" lon="9.776996442527453"><ele>233.0</ele><time>2026-04-06T14:57:59Z</time></trkpt><trkpt lat="33.05207298448938" lon="9.776965956128885"><ele>233.0</ele><time>2026-04-06T14:58:00Z</time></trkpt><trkpt lat="33.052286565426684" lon="9.776939895642698"><ele>233.0</ele><time>2026-04-06T14:58:01Z</time></trkpt><trkpt lat="33.052500627072234" lon="9.776917786094863"><ele>233.0</ele><time>2026-04-06T14:58:02Z</time></trkpt><trkpt lat="33.05272284900599" lon="9.776890444753176"><ele>232.5</ele><time>2026-04-06T14:58:03Z</time></trkpt><trkpt lat="33.05294694843996" lon="9.776860752888494"><ele>232.0</ele><time>2026-04-06T14:58:04Z</time></trkpt><trkpt lat="33.05317971127931" lon="9.7768325722472"><ele>231.5</ele><time>2026-04-06T14:58:05Z</time></trkpt><trkpt lat="33.05341973587048" lon="9.776804853184295"><ele>231.0</ele><time>2026-04-06T14:58:06Z</time></trkpt><trkpt lat="33.05365800483408" lon="9.776772251267339"><ele>231.0</ele><time>2026-04-06T14:58:07Z</time></trkpt><trkpt lat="33.05389551229868" lon="9.776743629777945"><ele>231.0</ele><time>2026-04-06T14:58:08Z</time></trkpt><trkpt lat="33.05411832762416" lon="9.77671967032396"><ele>231.33333333333331</ele><time>2026-04-06T14:58:09Z</time></trkpt><trkpt lat="33.05433076342733" lon="9.776694570345406"><ele>231.66666666666666</ele><time>2026-04-06T14:58:10Z</time></trkpt><trkpt lat="33.054539671198356" lon="9.776667918304952"><ele>232.0</ele><time>2026-04-06T14:58:11Z</time></trkpt><trkpt lat="33.05476249358298" lon="9.77663840687994"><ele>230.66666666666666</ele><time>2026-04-06T14:58:12Z</time></trkpt><trkpt lat="33.0549893417143" lon="9.776606721370527"><ele>229.33333333333331</ele><time>2026-04-06T14:58:13Z</time></trkpt><trkpt lat="33.05520370724363" lon="9.776577884781027"><ele>228.0</ele><time>2026-04-06T14:58:14Z</time></trkpt><trkpt lat="33.05541836471129" lon="9.776552559065887"><ele>228.0</ele><time>2026-04-06T14:58:15Z</time></trkpt><trkpt lat="33.05563174291789" lon="9.776527553334248"><ele>228.0</ele><time>2026-04-06T14:58:16Z</time></trkpt><trkpt lat="33.055849218486344" lon="9.77650179335023"><ele>228.0</ele><time>2026-04-06T14:58:17Z</time></trkpt><trkpt lat="33.05606947769508" lon="9.776467879855092"><ele>228.5</ele><time>2026-04-06T14:58:18Z</time></trkpt><trkpt lat="33.056292078708736" lon="9.776429357002808"><ele>229.0</ele><time>2026-04-06T14:58:19Z</time></trkpt><trkpt lat="33.05652209743454" lon="9.776387733296623"><ele>229.0</ele><time>2026-04-06T14:58:20Z</time></trkpt><trkpt lat="33.05675644006444" lon="9.77634357485309"><ele>229.0</ele><time>2026-04-06T14:58:21Z</time></trkpt><trkpt lat="33.05699224687103" lon="9.776298217151128"><ele>229.0</ele><time>2026-04-06T14:58:22Z</time></trkpt><trkpt lat="33.05723114496552" lon="9.776257743977364"><ele>229.0</ele><time>2026-04-06T14:58:23Z</time></trkpt><trkpt lat="33.057467312491966" lon="9.7762167058385"><ele>229.33333333333331</ele><time>2026-04-06T14:58:24Z</time></trkpt><trkpt lat="33.05768844157168" lon="9.77617182439594"><ele>229.66666666666669</ele><time>2026-04-06T14:58:25Z</time></trkpt><trkpt lat="33.05789841592292" lon="9.776130473348573"><ele>230.0</ele><time>2026-04-06T14:58:26Z</time></trkpt><trkpt lat="33.058099072398996" lon="9.776087910941746"><ele>230.0</ele><time>2026-04-06T14:58:27Z</time></trkpt><trkpt lat="33.058295875562486" lon="9.776048016648453"><ele>230.0</ele><time>2026-04-06T14:58:28Z</time></trkpt><trkpt lat="33.058493277284015" lon="9.776006635378948"><ele>230.0</ele><time>2026-04-06T14:58:29Z</time></trkpt><trkpt lat="33.05869939805005" lon="9.775969115206758"><ele>230.0</ele><time>2026-04-06T14:58:30Z</time></trkpt><trkpt lat="33.058882133672846" lon="9.775939495455061"><ele>230.0</ele><time>2026-04-06T14:58:31Z</time></trkpt><trkpt lat="33.05902909611733" lon="9.775918483930777"><ele>230.0</ele><time>2026-04-06T14:58:32Z</time></trkpt><trkpt lat="33.05915925782605" lon="9.775886656244797"><ele>230.0</ele><time>2026-04-06T14:58:33Z</time></trkpt><trkpt lat="33.059297953628146" lon="9.775858971839725"><ele>230.0</ele><time>2026-04-06T14:58:34Z</time></trkpt><trkpt lat="33.05944138631346" lon="9.775834338885234"><ele>230.0</ele><time>2026-04-06T14:58:35Z</time></trkpt><trkpt lat="33.059576682436344" lon="9.775809233683521"><ele>230.0</ele><time>2026-04-06T14:58:36Z</time></trkpt><trkpt lat="33.05970630714936" lon="9.775789007413382"><ele>230.0</ele><time>2026-04-06T14:58:37Z</time></trkpt><trkpt lat="33.059838037892575" lon="9.775766599892407"><ele>230.0</ele><time>2026-04-06T14:58:38Z</time></trkpt><trkpt lat="33.05998646377175" lon="9.775745242740436"><ele>230.0</ele><time>2026-04-06T14:58:39Z</time></trkpt><trkpt lat="33.06014673332583" lon="9.775711070197891"><ele>230.0</ele><time>2026-04-06T14:58:40Z</time></trkpt><trkpt lat="33.0603206587355" lon="9.775674868611123"><ele>231.33333333333334</ele><time>2026-04-06T14:58:41Z</time></trkpt><trkpt lat="33.060502654564495" lon="9.77563587052474"><ele>232.66666666666669</ele><time>2026-04-06T14:58:42Z</time></trkpt><trkpt lat="33.06067634714793" lon="9.77560162172695"><ele>234.0</ele><time>2026-04-06T14:58:43Z</time></trkpt><trkpt lat="33.060844187756466" lon="9.775570174563004"><ele>234.66666666666669</ele><time>2026-04-06T14:58:44Z</time></trkpt><trkpt lat="33.0610173676308" lon="9.7755371835208"><ele>235.33333333333334</ele><time>2026-04-06T14:58:45Z</time></trkpt><trkpt lat="33.06119436505515" lon="9.775504727236132"><ele>236.0</ele><time>2026-04-06T14:58:46Z</time></trkpt><trkpt lat="33.06137410618173" lon="9.775474617646804"><ele>236.0</ele><time>2026-04-06T14:58:47Z</time></trkpt><trkpt lat="33.061558033552394" lon="9.77545062323255"><ele>236.0</ele><time>2026-04-06T14:58:48Z</time></trkpt><trkpt lat="33.06175717683549" lon="9.775431019776724"><ele>236.0</ele><time>2026-04-06T14:58:49Z</time></trkpt><trkpt lat="33.061968651748494" lon="9.77541340298907"><ele>236.33333333333334</ele><time>2026-04-06T14:58:50Z</time></trkpt><trkpt lat="33.062186330201556" lon="9.775396772668612"><ele>236.66666666666669</ele><time>2026-04-06T14:58:51Z</time></trkpt><trkpt lat="33.06240559809253" lon="9.775382945363576"><ele>237.0</ele><time>2026-04-06T14:58:52Z</time></trkpt><trkpt lat="33.06262354470302" lon="9.775367546713824"><ele>236.33333333333331</ele><time>2026-04-06T14:58:53Z</time></trkpt><trkpt lat="33.062839591601104" lon="9.77534820036655"><ele>235.66666666666666</ele><time>2026-04-06T14:58:54Z</time></trkpt><trkpt lat="33.06305449085015" lon="9.775324198460117"><ele>235.0</ele><time>2026-04-06T14:58:55Z</time></trkpt><trkpt lat="33.063262740813364" lon="9.775306578573314"><ele>235.66666666666666</ele><time>2026-04-06T14:58:56Z</time></trkpt><trkpt lat="33.063472556972116" lon="9.775287955770128"><ele>236.33333333333331</ele><time>2026-04-06T14:58:57Z</time></trkpt><trkpt lat="33.06368248722983" lon="9.775266986769902"><ele>237.0</ele><time>2026-04-06T14:58:58Z</time></trkpt><trkpt lat="33.06389911473167" lon="9.775241857212436"><ele>236.66666666666669</ele><time>2026-04-06T14:58:59Z</time></trkpt><trkpt lat="33.064116961006675" lon="9.775215725376045"><ele>236.33333333333334</ele><time>2026-04-06T14:59:00Z</time></trkpt><trkpt lat="33.06434603117391" lon="9.775185450496345"><ele>236.0</ele><time>2026-04-06T14:59:01Z</time></trkpt><trkpt lat="33.06456995627637" lon="9.775161787467615"><ele>237.5</ele><time>2026-04-06T14:59:02Z</time></trkpt><trkpt lat="33.0647916286765" lon="9.775140767880568"><ele>239.0</ele><time>2026-04-06T14:59:03Z</time></trkpt><trkpt lat="33.0650196668158" lon="9.775114494652444"><ele>240.0</ele><time>2026-04-06T14:59:04Z</time></trkpt><trkpt lat="33.065243510146466" lon="9.775093430970536"><ele>241.0</ele><time>2026-04-06T14:59:05Z</time></trkpt><trkpt lat="33.065469977515484" lon="9.775078467699679"><ele>241.0</ele><time>2026-04-06T14:59:06Z</time></trkpt><trkpt lat="33.065689991498914" lon="9.775077297402497"><ele>241.0</ele><time>2026-04-06T14:59:07Z</time></trkpt><trkpt lat="33.06590764019692" lon="9.775083748549294"><ele>241.0</ele><time>2026-04-06T14:59:08Z</time></trkpt><trkpt lat="33.06612012650778" lon="9.775088979786231"><ele>241.33333333333331</ele><time>2026-04-06T14:59:09Z</time></trkpt><trkpt lat="33.06633777392308" lon="9.775094694838462"><ele>241.66666666666669</ele><time>2026-04-06T14:59:10Z</time></trkpt><trkpt lat="33.066549622035915" lon="9.775094118401686"><ele>242.0</ele><time>2026-04-06T14:59:11Z</time></trkpt><trkpt lat="33.06676762809308" lon="9.775092435569722"><ele>242.33333333333334</ele><time>2026-04-06T14:59:12Z</time></trkpt><trkpt lat="33.06698513205829" lon="9.775084309693312"><ele>242.66666666666669</ele><time>2026-04-06T14:59:13Z</time></trkpt><trkpt lat="33.06720150456269" lon="9.775083064176394"><ele>243.0</ele><time>2026-04-06T14:59:14Z</time></trkpt><trkpt lat="33.06742502765986" lon="9.775094607922648"><ele>242.5</ele><time>2026-04-06T14:59:15Z</time></trkpt><trkpt lat="33.067652188867854" lon="9.775101230361175"><ele>242.0</ele><time>2026-04-06T14:59:16Z</time></trkpt><trkpt lat="33.067879887639236" lon="9.775110435323523"><ele>242.0</ele><time>2026-04-06T14:59:17Z</time></trkpt><trkpt lat="33.06810962676515" lon="9.775131707180162"><ele>242.0</ele><time>2026-04-06T14:59:18Z</time></trkpt><trkpt lat="33.06833768923171" lon="9.775154058873015"><ele>242.0</ele><time>2026-04-06T14:59:19Z</time></trkpt><trkpt lat="33.068568250553604" lon="9.77518362824148"><ele>242.0</ele><time>2026-04-06T14:59:20Z</time></trkpt><trkpt lat="33.06879342433081" lon="9.775215430946618"><ele>242.33333333333334</ele><time>2026-04-06T14:59:21Z</time></trkpt><trkpt lat="33.069017327105584" lon="9.775253893688632"><ele>242.66666666666669</ele><time>2026-04-06T14:59:22Z</time></trkpt><trkpt lat="33.069235876817636" lon="9.77529015326618"><ele>243.0</ele><time>2026-04-06T14:59:23Z</time></trkpt><trkpt lat="33.06945473473927" lon="9.775325766034983"><ele>243.0</ele><time>2026-04-06T14:59:24Z</time></trkpt><trkpt lat="33.06967781623654" lon="9.775355435895612"><ele>243.0</ele><time>2026-04-06T14:59:25Z</time></trkpt><trkpt lat="33.069899450193034" lon="9.77538910624508"><ele>243.0</ele><time>2026-04-06T14:59:26Z</time></trkpt><trkpt lat="33.07012499097253" lon="9.775422399337378"><ele>243.5</ele><time>2026-04-06T14:59:27Z</time></trkpt><trkpt lat="33.07035752320054" lon="9.775452897195255"><ele>244.0</ele><time>2026-04-06T14:59:28Z</time></trkpt><trkpt lat="33.0705940211507" lon="9.775479026247993"><ele>245.0</ele><time>2026-04-06T14:59:29Z</time></trkpt><trkpt lat="33.07083547060084" lon="9.775499140835175"><ele>246.0</ele><time>2026-04-06T14:59:30Z</time></trkpt><trkpt lat="33.071071763936" lon="9.775514957359173"><ele>246.0</ele><time>2026-04-06T14:59:31Z</time></trkpt><trkpt lat="33.071303026762905" lon="9.775529573577096"><ele>246.0</ele><time>2026-04-06T14:59:32Z</time></trkpt><trkpt lat="33.07153155387979" lon="9.775539356438257"><ele>246.5</ele><time>2026-04-06T14:59:33Z</time></trkpt><trkpt lat="33.071759299268955" lon="9.775549012443951"><ele>247.0</ele><time>2026-04-06T14:59:34Z</time></trkpt><trkpt lat="33.07198220243289" lon="9.775556451095369"><ele>247.0</ele><time>2026-04-06T14:59:35Z</time></trkpt><trkpt lat="33.07220906455997" lon="9.775567180538753"><ele>247.0</ele><time>2026-04-06T14:59:36Z</time></trkpt><trkpt lat="33.072441117848946" lon="9.775573767385165"><ele>245.5</ele><time>2026-04-06T14:59:37Z</time></trkpt><trkpt lat="33.0726792613565" lon="9.775572004938414"><ele>244.0</ele><time>2026-04-06T14:59:38Z</time></trkpt><trkpt lat="33.07291197631184" lon="9.77557423112164"><ele>244.0</ele><time>2026-04-06T14:59:39Z</time></trkpt><trkpt lat="33.07314175040081" lon="9.7755743083776"><ele>244.0</ele><time>2026-04-06T14:59:40Z</time></trkpt><trkpt lat="33.073374176826825" lon="9.775579148437034"><ele>244.5</ele><time>2026-04-06T14:59:41Z</time></trkpt><trkpt lat="33.073604998631986" lon="9.775580380486844"><ele>245.0</ele><time>2026-04-06T14:59:42Z</time></trkpt><trkpt lat="33.073832721267145" lon="9.775582165326878"><ele>245.0</ele><time>2026-04-06T14:59:43Z</time></trkpt><trkpt lat="33.07406547236569" lon="9.775582677939541"><ele>245.0</ele><time>2026-04-06T14:59:44Z</time></trkpt><trkpt lat="33.07429734507012" lon="9.775577444394296"><ele>245.5</ele><time>2026-04-06T14:59:45Z</time></trkpt><trkpt lat="33.07452665988689" lon="9.775572335832555"><ele>246.0</ele><time>2026-04-06T14:59:46Z</time></trkpt><trkpt lat="33.07475506400352" lon="9.775565643864264"><ele>247.0</ele><time>2026-04-06T14:59:47Z</time></trkpt><trkpt lat="33.07498066795829" lon="9.775557873395613"><ele>248.0</ele><time>2026-04-06T14:59:48Z</time></trkpt><trkpt lat="33.075207585328236" lon="9.775547298182495"><ele>248.0</ele><time>2026-04-06T14:59:49Z</time></trkpt><trkpt lat="33.07544038266309" lon="9.77553929321908"><ele>248.0</ele><time>2026-04-06T14:59:50Z</time></trkpt><trkpt lat="33.075670469043395" lon="9.775532821867147"><ele>248.0</ele><time>2026-04-06T14:59:51Z</time></trkpt><trkpt lat="33.07590777390341" lon="9.77552323561488"><ele>248.0</ele><time>2026-04-06T14:59:52Z</time></trkpt><trkpt lat="33.07613940711954" lon="9.775504981061516"><ele>248.0</ele><time>2026-04-06T14:59:53Z</time></trkpt><trkpt lat="33.0763757834632" lon="9.775487748780103"><ele>248.0</ele><time>2026-04-06T14:59:54Z</time></trkpt><trkpt lat="33.0766127574072" lon="9.775460319851039"><ele>247.5</ele><time>2026-04-06T14:59:55Z</time></trkpt><trkpt lat="33.076846686627945" lon="9.775428405111981"><ele>247.0</ele><time>2026-04-06T14:59:56Z</time></trkpt><trkpt lat="33.077091727832446" lon="9.775394418188668"><ele>247.0</ele><time>2026-04-06T14:59:57Z</time></trkpt><trkpt lat="33.07733440143031" lon="9.775368135880099"><ele>247.0</ele><time>2026-04-06T14:59:58Z</time></trkpt><trkpt lat="33.077569649087295" lon="9.775341317560793"><ele>246.66666666666666</ele><time>2026-04-06T14:59:59Z</time></trkpt><trkpt lat="33.077798442143546" lon="9.775304115350643"><ele>246.33333333333331</ele><time>2026-04-06T15:00:00Z</time></trkpt><trkpt lat="33.07800934379373" lon="9.775273259699365"><ele>246.0</ele><time>2026-04-06T15:00:01Z</time></trkpt><trkpt lat="33.07821821809149" lon="9.775240206473569"><ele>246.33333333333331</ele><time>2026-04-06T15:00:02Z</time></trkpt><trkpt lat="33.07842723986165" lon="9.775206981280247"><ele>246.66666666666666</ele><time>2026-04-06T15:00:03Z</time></trkpt><trkpt lat="33.07864922581676" lon="9.775172888804143"><ele>247.0</ele><time>2026-04-06T15:00:04Z</time></trkpt><trkpt lat="33.07886737338344" lon="9.775138996535002"><ele>247.0</ele><time>2026-04-06T15:00:05Z</time></trkpt><trkpt lat="33.079095591231926" lon="9.77510553846027"><ele>247.0</ele><time>2026-04-06T15:00:06Z</time></trkpt><trkpt lat="33.079327001102065" lon="9.775072845286493"><ele>247.0</ele><time>2026-04-06T15:00:07Z</time></trkpt><trkpt lat="33.0795680780695" lon="9.775039668946754"><ele>247.0</ele><time>2026-04-06T15:00:08Z</time></trkpt><trkpt lat="33.07981205892543" lon="9.775001036067362"><ele>246.5</ele><time>2026-04-06T15:00:09Z</time></trkpt><trkpt lat="33.08005827141668" lon="9.774955008656715"><ele>246.0</ele><time>2026-04-06T15:00:10Z</time></trkpt><trkpt lat="33.08029755992451" lon="9.774909378468951"><ele>246.0</ele><time>2026-04-06T15:00:11Z</time></trkpt><trkpt lat="33.08053047378471" lon="9.774865248654917"><ele>246.0</ele><time>2026-04-06T15:00:12Z</time></trkpt><trkpt lat="33.0807520703462" lon="9.774827119211853"><ele>246.0</ele><time>2026-04-06T15:00:13Z</time></trkpt><trkpt lat="33.080957556297044" lon="9.774782865380141"><ele>246.0</ele><time>2026-04-06T15:00:14Z</time></trkpt><trkpt lat="33.08116575367503" lon="9.774742432011992"><ele>246.0</ele><time>2026-04-06T15:00:15Z</time></trkpt><trkpt lat="33.0813771350373" lon="9.774703782059595"><ele>246.0</ele><time>2026-04-06T15:00:16Z</time></trkpt><trkpt lat="33.08158897351398" lon="9.774663461921682"><ele>246.0</ele><time>2026-04-06T15:00:17Z</time></trkpt><trkpt lat="33.08180025831403" lon="9.774620123841483"><ele>246.0</ele><time>2026-04-06T15:00:18Z</time></trkpt><trkpt lat="33.082018226755565" lon="9.774576414382198"><ele>247.0</ele><time>2026-04-06T15:00:19Z</time></trkpt><trkpt lat="33.0822431835519" lon="9.77453112513563"><ele>248.0</ele><time>2026-04-06T15:00:20Z</time></trkpt><trkpt lat="33.08246865898451" lon="9.774479338756985"><ele>249.5</ele><time>2026-04-06T15:00:21Z</time></trkpt><trkpt lat="33.08270617136695" lon="9.77442126223696"><ele>251.0</ele><time>2026-04-06T15:00:22Z</time></trkpt><trkpt lat="33.082948937200186" lon="9.774363244741949"><ele>250.5</ele><time>2026-04-06T15:00:23Z</time></trkpt><trkpt lat="33.08320294238477" lon="9.774306834518853"><ele>250.0</ele><time>2026-04-06T15:00:24Z</time></trkpt><trkpt lat="33.083464261233374" lon="9.774250811221826"><ele>248.5</ele><time>2026-04-06T15:00:25Z</time></trkpt><trkpt lat="33.08372861165238" lon="9.774192662525776"><ele>247.0</ele><time>2026-04-06T15:00:26Z</time></trkpt><trkpt lat="33.083995877803126" lon="9.774129640331124"><ele>247.0</ele><time>2026-04-06T15:00:27Z</time></trkpt><trkpt lat="33.08426099259243" lon="9.774069189526177"><ele>247.0</ele><time>2026-04-06T15:00:28Z</time></trkpt><trkpt lat="33.08452290938064" lon="9.774011437054606"><ele>247.0</ele><time>2026-04-06T15:00:29Z</time></trkpt><trkpt lat="33.08478116288389" lon="9.773952399045319"><ele>247.0</ele><time>2026-04-06T15:00:30Z</time></trkpt><trkpt lat="33.08503876400711" lon="9.773895159931623"><ele>247.0</ele><time>2026-04-06T15:00:31Z</time></trkpt><trkpt lat="33.08529294262959" lon="9.773838554674112"><ele>247.0</ele><time>2026-04-06T15:00:32Z</time></trkpt><trkpt lat="33.085538354981885" lon="9.77378680917863"><ele>246.0</ele><time>2026-04-06T15:00:33Z</time></trkpt><trkpt lat="33.085786685871405" lon="9.773732018690874"><ele>245.0</ele><time>2026-04-06T15:00:34Z</time></trkpt><trkpt lat="33.08603288860948" lon="9.77367464492305"><ele>245.0</ele><time>2026-04-06T15:00:35Z</time></trkpt><trkpt lat="33.08627203795837" lon="9.773621066931256"><ele>245.0</ele><time>2026-04-06T15:00:36Z</time></trkpt><trkpt lat="33.08651216512223" lon="9.773565093762498"><ele>244.5</ele><time>2026-04-06T15:00:37Z</time></trkpt><trkpt lat="33.08674799500915" lon="9.773513535161324"><ele>244.0</ele><time>2026-04-06T15:00:38Z</time></trkpt><trkpt lat="33.08698212141015" lon="9.773465196256485"><ele>244.0</ele><time>2026-04-06T15:00:39Z</time></trkpt><trkpt lat="33.087213864095546" lon="9.773411449352153"><ele>244.0</ele><time>2026-04-06T15:00:40Z</time></trkpt><trkpt lat="33.087438571689" lon="9.773358107173621"><ele>243.5</ele><time>2026-04-06T15:00:41Z</time></trkpt><trkpt lat="33.08766234383174" lon="9.773302636587642"><ele>243.0</ele><time>2026-04-06T15:00:42Z</time></trkpt><trkpt lat="33.08789205757532" lon="9.773246252162052"><ele>243.0</ele><time>2026-04-06T15:00:43Z</time></trkpt><trkpt lat="33.0881265967694" lon="9.773188366353953"><ele>243.0</ele><time>2026-04-06T15:00:44Z</time></trkpt><trkpt lat="33.08835890925341" lon="9.773129883873487"><ele>244.0</ele><time>2026-04-06T15:00:45Z</time></trkpt><trkpt lat="33.088595161377974" lon="9.773068049433762"><ele>245.0</ele><time>2026-04-06T15:00:46Z</time></trkpt><trkpt lat="33.08883301245179" lon="9.773005271855089"><ele>245.0</ele><time>2026-04-06T15:00:47Z</time></trkpt><trkpt lat="33.08907155390946" lon="9.772943613095547"><ele>245.0</ele><time>2026-04-06T15:00:48Z</time></trkpt><trkpt lat="33.08930528607644" lon="9.772883574119021"><ele>245.5</ele><time>2026-04-06T15:00:49Z</time></trkpt><trkpt lat="33.08953884685908" lon="9.77282332775003"><ele>246.0</ele><time>2026-04-06T15:00:50Z</time></trkpt><trkpt lat="33.08977468668582" lon="9.772763262100007"><ele>247.0</ele><time>2026-04-06T15:00:51Z</time></trkpt><trkpt lat="33.090005830065934" lon="9.772713149703256"><ele>248.0</ele><time>2026-04-06T15:00:52Z</time></trkpt><trkpt lat="33.09023966414532" lon="9.772671836804687"><ele>248.5</ele><time>2026-04-06T15:00:53Z</time></trkpt><trkpt lat="33.09046973084921" lon="9.772633645128202"><ele>249.0</ele><time>2026-04-06T15:00:54Z</time></trkpt><trkpt lat="33.090692187464775" lon="9.772607435666037"><ele>251.0</ele><time>2026-04-06T15:00:55Z</time></trkpt><trkpt lat="33.09090070870393" lon="9.772581281591378"><ele>253.0</ele><time>2026-04-06T15:00:56Z</time></trkpt><trkpt lat="33.09109142814068" lon="9.77255264549616"><ele>255.0</ele><time>2026-04-06T15:00:57Z</time></trkpt><trkpt lat="33.09126139992126" lon="9.772524130083521"><ele>255.0</ele><time>2026-04-06T15:00:58Z</time></trkpt><trkpt lat="33.09142540048694" lon="9.772492331546248"><ele>255.0</ele><time>2026-04-06T15:00:59Z</time></trkpt><trkpt lat="33.09159585474518" lon="9.77244570100549"><ele>255.0</ele><time>2026-04-06T15:01:00Z</time></trkpt><trkpt lat="33.0917831932624" lon="9.772385893900992"><ele>254.33333333333331</ele><time>2026-04-06T15:01:01Z</time></trkpt><trkpt lat="33.09197332634072" lon="9.772321095102537"><ele>253.66666666666666</ele><time>2026-04-06T15:01:02Z</time></trkpt><trkpt lat="33.09216634198243" lon="9.772253418930049"><ele>253.0</ele><time>2026-04-06T15:01:03Z</time></trkpt><trkpt lat="33.09237048799355" lon="9.77217327996354"><ele>252.33333333333331</ele><time>2026-04-06T15:01:04Z</time></trkpt><trkpt lat="33.09257853491629" lon="9.772084751289768"><ele>251.66666666666669</ele><time>2026-04-06T15:01:05Z</time></trkpt><trkpt lat="33.09278294600442" lon="9.77198714377528"><ele>251.0</ele><time>2026-04-06T15:01:06Z</time></trkpt><trkpt lat="33.092992616630205" lon="9.771881890079671"><ele>251.33333333333334</ele><time>2026-04-06T15:01:07Z</time></trkpt><trkpt lat="33.093194587524664" lon="9.771777306289039"><ele>251.66666666666669</ele><time>2026-04-06T15:01:08Z</time></trkpt><trkpt lat="33.09339350329481" lon="9.77166929157454"><ele>252.0</ele><time>2026-04-06T15:01:09Z</time></trkpt><trkpt lat="33.09359653203412" lon="9.771555100621665"><ele>251.0</ele><time>2026-04-06T15:01:10Z</time></trkpt><trkpt lat="33.093802702141026" lon="9.77143874597656"><ele>250.0</ele><time>2026-04-06T15:01:11Z</time></trkpt><trkpt lat="33.094003774436715" lon="9.771326710355662"><ele>249.66666666666666</ele><time>2026-04-06T15:01:12Z</time></trkpt><trkpt lat="33.09419769264726" lon="9.771216199703629"><ele>249.33333333333331</ele><time>2026-04-06T15:01:13Z</time></trkpt><trkpt lat="33.094380068311715" lon="9.771106486564767"><ele>249.0</ele><time>2026-04-06T15:01:14Z</time></trkpt><trkpt lat="33.09456990491185" lon="9.770985924983899"><ele>249.0</ele><time>2026-04-06T15:01:15Z</time></trkpt><trkpt lat="33.09474924038844" lon="9.770876849923253"><ele>249.0</ele><time>2026-04-06T15:01:16Z</time></trkpt><trkpt lat="33.0949302478166" lon="9.770772016693849"><ele>249.0</ele><time>2026-04-06T15:01:17Z</time></trkpt><trkpt lat="33.09511381067064" lon="9.770671973317068"><ele>248.66666666666669</ele><time>2026-04-06T15:01:18Z</time></trkpt><trkpt lat="33.095307867974675" lon="9.770571086644683"><ele>248.33333333333334</ele><time>2026-04-06T15:01:19Z</time></trkpt><trkpt lat="33.09550753171337" lon="9.770472133911369"><ele>248.0</ele><time>2026-04-06T15:01:20Z</time></trkpt><trkpt lat="33.09571581463325" lon="9.770377073452492"><ele>248.0</ele><time>2026-04-06T15:01:21Z</time></trkpt><trkpt lat="33.0959306470454" lon="9.770289926412103"><ele>248.0</ele><time>2026-04-06T15:01:22Z</time></trkpt><trkpt lat="33.096143582461224" lon="9.77020881953501"><ele>247.0</ele><time>2026-04-06T15:01:23Z</time></trkpt><trkpt lat="33.096361236924714" lon="9.770125429082091"><ele>246.0</ele><time>2026-04-06T15:01:24Z</time></trkpt><trkpt lat="33.09658255849431" lon="9.770042908710977"><ele>245.5</ele><time>2026-04-06T15:01:25Z</time></trkpt><trkpt lat="33.096809619616884" lon="9.769958165474044"><ele>245.0</ele><time>2026-04-06T15:01:26Z</time></trkpt><trkpt lat="33.09703738107127" lon="9.769877439178371"><ele>245.0</ele><time>2026-04-06T15:01:27Z</time></trkpt><trkpt lat="33.09727129733043" lon="9.76979483257809"><ele>245.0</ele><time>2026-04-06T15:01:28Z</time></trkpt><trkpt lat="33.09750485746851" lon="9.769726292523593"><ele>244.5</ele><time>2026-04-06T15:01:29Z</time></trkpt><trkpt lat="33.09773595952603" lon="9.76967686950552"><ele>244.0</ele><time>2026-04-06T15:01:30Z</time></trkpt><trkpt lat="33.09796986590769" lon="9.769647054169775"><ele>244.0</ele><time>2026-04-06T15:01:31Z</time></trkpt><trkpt lat="33.098201411373324" lon="9.76964237444324"><ele>244.0</ele><time>2026-04-06T15:01:32Z</time></trkpt><trkpt lat="33.098432887393685" lon="9.769638858097464"><ele>242.0</ele><time>2026-04-06T15:01:33Z</time></trkpt><trkpt lat="33.098661860540275" lon="9.769641093604509"><ele>240.0</ele><time>2026-04-06T15:01:34Z</time></trkpt><trkpt lat="33.098897658219194" lon="9.769641944220753"><ele>240.0</ele><time>2026-04-06T15:01:35Z</time></trkpt><trkpt lat="33.09914299514054" lon="9.7696449012951"><ele>240.0</ele><time>2026-04-06T15:01:36Z</time></trkpt><trkpt lat="33.099395172929775" lon="9.7696470204371"><ele>240.0</ele><time>2026-04-06T15:01:37Z</time></trkpt><trkpt lat="33.09964427887972" lon="9.769649923647695"><ele>240.0</ele><time>2026-04-06T15:01:38Z</time></trkpt><trkpt lat="33.099881534508825" lon="9.769648947066809"><ele>239.5</ele><time>2026-04-06T15:01:39Z</time></trkpt><trkpt lat="33.10011416814984" lon="9.769647816446918"><ele>239.0</ele><time>2026-04-06T15:01:40Z</time></trkpt><trkpt lat="33.10034497584074" lon="9.769646976350414"><ele>239.0</ele><time>2026-04-06T15:01:41Z</time></trkpt><trkpt lat="33.10057331237869" lon="9.769645974108235"><ele>239.0</ele><time>2026-04-06T15:01:42Z</time></trkpt><trkpt lat="33.10080090527365" lon="9.769644485813982"><ele>238.5</ele><time>2026-04-06T15:01:43Z</time></trkpt><trkpt lat="33.101036897410154" lon="9.769648610096269"><ele>238.0</ele><time>2026-04-06T15:01:44Z</time></trkpt><trkpt lat="33.10126585622018" lon="9.76965218458183"><ele>238.0</ele><time>2026-04-06T15:01:45Z</time></trkpt><trkpt lat="33.101499423375046" lon="9.769655058415147"><ele>238.0</ele><time>2026-04-06T15:01:46Z</time></trkpt><trkpt lat="33.101733785131735" lon="9.769660081452336"><ele>237.0</ele><time>2026-04-06T15:01:47Z</time></trkpt><trkpt lat="33.10196333036567" lon="9.769665853839404"><ele>236.0</ele><time>2026-04-06T15:01:48Z</time></trkpt><trkpt lat="33.102198080635254" lon="9.769669148799276"><ele>235.0</ele><time>2026-04-06T15:01:49Z</time></trkpt><trkpt lat="33.10242836640445" lon="9.769675025059573"><ele>234.0</ele><time>2026-04-06T15:01:50Z</time></trkpt><trkpt lat="33.1026609761737" lon="9.769685830561407"><ele>234.0</ele><time>2026-04-06T15:01:51Z</time></trkpt><trkpt lat="33.10289103251188" lon="9.769697710583365"><ele>234.0</ele><time>2026-04-06T15:01:52Z</time></trkpt><trkpt lat="33.10312152703738" lon="9.76970714299485"><ele>234.0</ele><time>2026-04-06T15:01:53Z</time></trkpt><trkpt lat="33.10335230540789" lon="9.769710810185373"><ele>234.0</ele><time>2026-04-06T15:01:54Z</time></trkpt><trkpt lat="33.103581924815316" lon="9.769707965469568"><ele>234.0</ele><time>2026-04-06T15:01:55Z</time></trkpt><trkpt lat="33.10381065513303" lon="9.769709428055979"><ele>234.0</ele><time>2026-04-06T15:01:56Z</time></trkpt><trkpt lat="33.10404176633778" lon="9.769712119959896"><ele>232.5</ele><time>2026-04-06T15:01:57Z</time></trkpt><trkpt lat="33.10427749653088" lon="9.769716089770448"><ele>231.0</ele><time>2026-04-06T15:01:58Z</time></trkpt><trkpt lat="33.10450082962578" lon="9.769721163277323"><ele>231.0</ele><time>2026-04-06T15:01:59Z</time></trkpt><trkpt lat="33.10473087155491" lon="9.76972774858269"><ele>231.0</ele><time>2026-04-06T15:02:00Z</time></trkpt><trkpt lat="33.10495830166354" lon="9.769732347426087"><ele>231.5</ele><time>2026-04-06T15:02:01Z</time></trkpt><trkpt lat="33.10518855568925" lon="9.769736072881065"><ele>232.0</ele><time>2026-04-06T15:02:02Z</time></trkpt><trkpt lat="33.10542045938467" lon="9.769743026556435"><ele>232.0</ele><time>2026-04-06T15:02:03Z</time></trkpt><trkpt lat="33.10565214637707" lon="9.769756249001087"><ele>232.0</ele><time>2026-04-06T15:02:04.001Z</time></trkpt><trkpt lat="33.105879426697385" lon="9.769768445170756"><ele>231.0</ele><time>2026-04-06T15:02:05.001Z</time></trkpt><trkpt lat="33.10611169219125" lon="9.769783749092168"><ele>230.0</ele><time>2026-04-06T15:02:06.001Z</time></trkpt><trkpt lat="33.1063463611635" lon="9.769791861177074"><ele>230.0</ele><time>2026-04-06T15:02:07.001Z</time></trkpt><trkpt lat="33.10658125877581" lon="9.769789104411524"><ele>230.0</ele><time>2026-04-06T15:02:08.001Z</time></trkpt><trkpt lat="33.10681169829991" lon="9.76976587664023"><ele>230.0</ele><time>2026-04-06T15:02:09.001Z</time></trkpt><trkpt lat="33.10704212464091" lon="9.76972931527385"><ele>230.0</ele><time>2026-04-06T15:02:10.001Z</time></trkpt><trkpt lat="33.10728094042502" lon="9.769689697585894"><ele>229.5</ele><time>2026-04-06T15:02:11Z</time></trkpt><trkpt lat="33.107511523766675" lon="9.769640634812738"><ele>229.0</ele><time>2026-04-06T15:02:12Z</time></trkpt><trkpt lat="33.10774499418344" lon="9.769588618849154"><ele>229.0</ele><time>2026-04-06T15:02:13Z</time></trkpt><trkpt lat="33.10797052458124" lon="9.76954119840768"><ele>229.0</ele><time>2026-04-06T15:02:14Z</time></trkpt><trkpt lat="33.108182243325565" lon="9.769497865696259"><ele>229.0</ele><time>2026-04-06T15:02:15Z</time></trkpt><trkpt lat="33.10838430753338" lon="9.769452644610924"><ele>229.33333333333331</ele><time>2026-04-06T15:02:16Z</time></trkpt><trkpt lat="33.10857932934716" lon="9.769404344022767"><ele>229.66666666666669</ele><time>2026-04-06T15:02:17Z</time></trkpt><trkpt lat="33.10877389501499" lon="9.76936071922432"><ele>230.0</ele><time>2026-04-06T15:02:18Z</time></trkpt><trkpt lat="33.108974454866654" lon="9.769319089812788"><ele>228.66666666666669</ele><time>2026-04-06T15:02:19Z</time></trkpt><trkpt lat="33.10918165184737" lon="9.769275540444156"><ele>227.33333333333331</ele><time>2026-04-06T15:02:20Z</time></trkpt><trkpt lat="33.1093851178446" lon="9.76923138753626"><ele>226.0</ele><time>2026-04-06T15:02:21Z</time></trkpt><trkpt lat="33.10957933230627" lon="9.76918725601129"><ele>226.0</ele><time>2026-04-06T15:02:22Z</time></trkpt><trkpt lat="33.109777465407085" lon="9.769143984997934"><ele>226.0</ele><time>2026-04-06T15:02:23Z</time></trkpt><trkpt lat="33.1099766316596" lon="9.769096575248076"><ele>226.0</ele><time>2026-04-06T15:02:24Z</time></trkpt><trkpt lat="33.11017669971573" lon="9.76905403802393"><ele>227.0</ele><time>2026-04-06T15:02:25Z</time></trkpt><trkpt lat="33.11036092492447" lon="9.769019787326876"><ele>228.0</ele><time>2026-04-06T15:02:26Z</time></trkpt><trkpt lat="33.11052991250945" lon="9.768991712386205"><ele>229.0</ele><time>2026-04-06T15:02:27Z</time></trkpt><trkpt lat="33.110679667226776" lon="9.768966382828067"><ele>229.66666666666666</ele><time>2026-04-06T15:02:28Z</time></trkpt><trkpt lat="33.110830984171315" lon="9.768943783437159"><ele>230.33333333333331</ele><time>2026-04-06T15:02:29Z</time></trkpt><trkpt lat="33.11100221537621" lon="9.76891589153446"><ele>231.0</ele><time>2026-04-06T15:02:30Z</time></trkpt><trkpt lat="33.1111858253433" lon="9.76888550819188"><ele>231.0</ele><time>2026-04-06T15:02:31Z</time></trkpt><trkpt lat="33.11138092049427" lon="9.76884933207646"><ele>231.0</ele><time>2026-04-06T15:02:32Z</time></trkpt><trkpt lat="33.11158774338379" lon="9.7688067417756"><ele>231.0</ele><time>2026-04-06T15:02:33Z</time></trkpt><trkpt lat="33.111804372136035" lon="9.768754460027663"><ele>232.0</ele><time>2026-04-06T15:02:34Z</time></trkpt><trkpt lat="33.1120316197545" lon="9.768690632070097"><ele>233.0</ele><time>2026-04-06T15:02:35Z</time></trkpt><trkpt lat="33.11226130233424" lon="9.768621599794553"><ele>233.0</ele><time>2026-04-06T15:02:36Z</time></trkpt><trkpt lat="33.11249333492796" lon="9.76855459001897"><ele>233.0</ele><time>2026-04-06T15:02:37Z</time></trkpt><trkpt lat="33.1127245636706" lon="9.768491816055112"><ele>233.0</ele><time>2026-04-06T15:02:38Z</time></trkpt><trkpt lat="33.1129355316566" lon="9.768437158755429"><ele>233.0</ele><time>2026-04-06T15:02:39Z</time></trkpt><trkpt lat="33.11314726105281" lon="9.768385108679626"><ele>233.0</ele><time>2026-04-06T15:02:40Z</time></trkpt><trkpt lat="33.11336911905967" lon="9.768334776861296"><ele>234.5</ele><time>2026-04-06T15:02:41Z</time></trkpt><trkpt lat="33.11359389603335" lon="9.768287492246372"><ele>236.0</ele><time>2026-04-06T15:02:42Z</time></trkpt><trkpt lat="33.11382020047399" lon="9.76824728427672"><ele>236.0</ele><time>2026-04-06T15:02:43Z</time></trkpt><trkpt lat="33.114043619840494" lon="9.76821556927243"><ele>236.0</ele><time>2026-04-06T15:02:44Z</time></trkpt><trkpt lat="33.11426580345112" lon="9.768183063724626"><ele>236.0</ele><time>2026-04-06T15:02:45Z</time></trkpt><trkpt lat="33.11448881353316" lon="9.768151437007978"><ele>236.0</ele><time>2026-04-06T15:02:46Z</time></trkpt><trkpt lat="33.11470009178672" lon="9.768128032394422"><ele>236.0</ele><time>2026-04-06T15:02:47Z</time></trkpt><trkpt lat="33.11490526232216" lon="9.768107174766527"><ele>236.0</ele><time>2026-04-06T15:02:48Z</time></trkpt><trkpt lat="33.11511769914208" lon="9.768084488583854"><ele>236.33333333333334</ele><time>2026-04-06T15:02:49Z</time></trkpt><trkpt lat="33.11533021367548" lon="9.768063203237721"><ele>236.66666666666669</ele><time>2026-04-06T15:02:50Z</time></trkpt><trkpt lat="33.11555621339774" lon="9.768045686849819"><ele>237.0</ele><time>2026-04-06T15:02:51Z</time></trkpt><trkpt lat="33.11578723754301" lon="9.768023896549115"><ele>237.0</ele><time>2026-04-06T15:02:52Z</time></trkpt><trkpt lat="33.11601060856292" lon="9.767995799617156"><ele>237.0</ele><time>2026-04-06T15:02:53Z</time></trkpt><trkpt lat="33.116230730265094" lon="9.767968183101047"><ele>237.0</ele><time>2026-04-06T15:02:54Z</time></trkpt><trkpt lat="33.11645586365829" lon="9.767937665702549"><ele>237.0</ele><time>2026-04-06T15:02:55Z</time></trkpt><trkpt lat="33.1166885295968" lon="9.76790617716094"><ele>237.0</ele><time>2026-04-06T15:02:56Z</time></trkpt><trkpt lat="33.116930122721456" lon="9.76787076773897"><ele>237.0</ele><time>2026-04-06T15:02:57Z</time></trkpt><trkpt lat="33.117173164271954" lon="9.767833610152506"><ele>237.0</ele><time>2026-04-06T15:02:58Z</time></trkpt><trkpt lat="33.117421947440505" lon="9.767795652430866"><ele>238.5</ele><time>2026-04-06T15:02:59Z</time></trkpt><trkpt lat="33.11767017285759" lon="9.767754073155162"><ele>240.0</ele><time>2026-04-06T15:03:00Z</time></trkpt><trkpt lat="33.11791565169799" lon="9.767712658447115"><ele>239.0</ele><time>2026-04-06T15:03:01Z</time></trkpt><trkpt lat="33.11815075842418" lon="9.767670512668953"><ele>238.0</ele><time>2026-04-06T15:03:02Z</time></trkpt><trkpt lat="33.11838753999459" lon="9.767626478501725"><ele>238.0</ele><time>2026-04-06T15:03:03Z</time></trkpt><trkpt lat="33.11862997756578" lon="9.767580746113365"><ele>238.0</ele><time>2026-04-06T15:03:04Z</time></trkpt><trkpt lat="33.118877695683445" lon="9.767532006045252"><ele>237.5</ele><time>2026-04-06T15:03:05Z</time></trkpt><trkpt lat="33.11912718490767" lon="9.767480671423556"><ele>237.0</ele><time>2026-04-06T15:03:06Z</time></trkpt><trkpt lat="33.11938265609639" lon="9.767430018891325"><ele>237.0</ele><time>2026-04-06T15:03:07Z</time></trkpt><trkpt lat="33.119637694446205" lon="9.767378493017578"><ele>237.0</ele><time>2026-04-06T15:03:08Z</time></trkpt><trkpt lat="33.119892241467035" lon="9.767326843438878"><ele>236.5</ele><time>2026-04-06T15:03:09Z</time></trkpt><trkpt lat="33.12014567745746" lon="9.767273298169625"><ele>236.0</ele><time>2026-04-06T15:03:10Z</time></trkpt><trkpt lat="33.120392428118386" lon="9.76721372322679"><ele>236.0</ele><time>2026-04-06T15:03:11Z</time></trkpt><trkpt lat="33.120638901487034" lon="9.76715436308884"><ele>236.0</ele><time>2026-04-06T15:03:12Z</time></trkpt><trkpt lat="33.12088500682667" lon="9.767092288817015"><ele>236.5</ele><time>2026-04-06T15:03:13Z</time></trkpt><trkpt lat="33.12112587445186" lon="9.767027214449387"><ele>237.0</ele><time>2026-04-06T15:03:14Z</time></trkpt><trkpt lat="33.121366560617915" lon="9.766959554257559"><ele>236.0</ele><time>2026-04-06T15:03:15Z</time></trkpt><trkpt lat="33.121600338120146" lon="9.766890465817877"><ele>235.0</ele><time>2026-04-06T15:03:16Z</time></trkpt><trkpt lat="33.12184363963845" lon="9.766812738414634"><ele>235.0</ele><time>2026-04-06T15:03:17Z</time></trkpt><trkpt lat="33.12207826311588" lon="9.766717960905606"><ele>235.0</ele><time>2026-04-06T15:03:18Z</time></trkpt><trkpt lat="33.12232137810672" lon="9.766615780033003"><ele>235.5</ele><time>2026-04-06T15:03:19Z</time></trkpt><trkpt lat="33.122560590481015" lon="9.766505754602635"><ele>236.0</ele><time>2026-04-06T15:03:20Z</time></trkpt><trkpt lat="33.12279664488749" lon="9.766387393162505"><ele>236.0</ele><time>2026-04-06T15:03:21Z</time></trkpt><trkpt lat="33.12302442923386" lon="9.766272177566718"><ele>236.0</ele><time>2026-04-06T15:03:22Z</time></trkpt><trkpt lat="33.123253791902826" lon="9.766161614877078"><ele>236.0</ele><time>2026-04-06T15:03:23Z</time></trkpt><trkpt lat="33.12348578632854" lon="9.766052855815467"><ele>236.0</ele><time>2026-04-06T15:03:24Z</time></trkpt><trkpt lat="33.12371033091455" lon="9.765945856356142"><ele>236.0</ele><time>2026-04-06T15:03:25Z</time></trkpt><trkpt lat="33.12393224577492" lon="9.76584588018925"><ele>236.0</ele><time>2026-04-06T15:03:26Z</time></trkpt><trkpt lat="33.12415692992791" lon="9.765751100290274"><ele>236.5</ele><time>2026-04-06T15:03:27Z</time></trkpt><trkpt lat="33.124377278137416" lon="9.765658364886876"><ele>237.0</ele><time>2026-04-06T15:03:28Z</time></trkpt><trkpt lat="33.124596803752304" lon="9.765574620424418"><ele>237.0</ele><time>2026-04-06T15:03:29Z</time></trkpt><trkpt lat="33.12483136146901" lon="9.765488020327233"><ele>237.0</ele><time>2026-04-06T15:03:30Z</time></trkpt><trkpt lat="33.12506026950334" lon="9.76541003490535"><ele>237.5</ele><time>2026-04-06T15:03:31Z</time></trkpt><trkpt lat="33.12528131480506" lon="9.765347786505588"><ele>238.0</ele><time>2026-04-06T15:03:32Z</time></trkpt><trkpt lat="33.12550109798556" lon="9.765306037141976"><ele>237.5</ele><time>2026-04-06T15:03:33Z</time></trkpt><trkpt lat="33.125735036759565" lon="9.765288016651892"><ele>237.0</ele><time>2026-04-06T15:03:34Z</time></trkpt><trkpt lat="33.12596911607101" lon="9.765291449227446"><ele>237.0</ele><time>2026-04-06T15:03:35Z</time></trkpt><trkpt lat="33.12620995205645" lon="9.765309999999424"><ele>237.0</ele><time>2026-04-06T15:03:36Z</time></trkpt><trkpt lat="33.126449342405394" lon="9.765338912714894"><ele>237.5</ele><time>2026-04-06T15:03:37Z</time></trkpt><trkpt lat="33.126681641262586" lon="9.765373652468314"><ele>238.0</ele><time>2026-04-06T15:03:38Z</time></trkpt><trkpt lat="33.12690940553975" lon="9.765398531855277"><ele>238.0</ele><time>2026-04-06T15:03:39Z</time></trkpt><trkpt lat="33.127133984169014" lon="9.765406836704129"><ele>238.0</ele><time>2026-04-06T15:03:40Z</time></trkpt><trkpt lat="33.127356173478546" lon="9.765410181847603"><ele>238.0</ele><time>2026-04-06T15:03:41Z</time></trkpt><trkpt lat="33.1275649624356" lon="9.765410469101376"><ele>237.66666666666666</ele><time>2026-04-06T15:03:42Z</time></trkpt><trkpt lat="33.127763681478214" lon="9.765412349732998"><ele>237.33333333333331</ele><time>2026-04-06T15:03:43Z</time></trkpt><trkpt lat="33.12796095325153" lon="9.765411208893292"><ele>237.0</ele><time>2026-04-06T15:03:44Z</time></trkpt><trkpt lat="33.12816386270033" lon="9.765405225746377"><ele>237.0</ele><time>2026-04-06T15:03:45Z</time></trkpt><trkpt lat="33.128377744973335" lon="9.765390520916604"><ele>237.0</ele><time>2026-04-06T15:03:46Z</time></trkpt><trkpt lat="33.12859590343931" lon="9.76536062946492"><ele>237.0</ele><time>2026-04-06T15:03:47Z</time></trkpt><trkpt lat="33.12881309129998" lon="9.765311951898239"><ele>237.0</ele><time>2026-04-06T15:03:48Z</time></trkpt><trkpt lat="33.129026948883755" lon="9.765235858691094"><ele>237.0</ele><time>2026-04-06T15:03:49Z</time></trkpt><trkpt lat="33.129248819070455" lon="9.765138788253013"><ele>236.0</ele><time>2026-04-06T15:03:50Z</time></trkpt><trkpt lat="33.12947700869411" lon="9.76503408663645"><ele>235.0</ele><time>2026-04-06T15:03:51Z</time></trkpt><trkpt lat="33.12970793410259" lon="9.764936038045088"><ele>233.5</ele><time>2026-04-06T15:03:52Z</time></trkpt><trkpt lat="33.12994286828213" lon="9.764842269005301"><ele>232.0</ele><time>2026-04-06T15:03:53Z</time></trkpt><trkpt lat="33.13017732992912" lon="9.76474814394311"><ele>232.0</ele><time>2026-04-06T15:03:54Z</time></trkpt><trkpt lat="33.1304065296382" lon="9.764658727975272"><ele>232.0</ele><time>2026-04-06T15:03:55Z</time></trkpt><trkpt lat="33.13063261056773" lon="9.76457443041787"><ele>232.0</ele><time>2026-04-06T15:03:56Z</time></trkpt><trkpt lat="33.13085300990173" lon="9.76449476954083"><ele>232.0</ele><time>2026-04-06T15:03:57Z</time></trkpt><trkpt lat="33.131080542717015" lon="9.764417927045411"><ele>232.0</ele><time>2026-04-06T15:03:58Z</time></trkpt><trkpt lat="33.13128922454106" lon="9.76434412995882"><ele>232.0</ele><time>2026-04-06T15:03:59Z</time></trkpt><trkpt lat="33.13149150628539" lon="9.76426508450825"><ele>232.0</ele><time>2026-04-06T15:04:00Z</time></trkpt><trkpt lat="33.13169434409662" lon="9.764190321981072"><ele>231.33333333333331</ele><time>2026-04-06T15:04:01Z</time></trkpt><trkpt lat="33.13190690313416" lon="9.764124105451709"><ele>230.66666666666669</ele><time>2026-04-06T15:04:02Z</time></trkpt><trkpt lat="33.13212181709689" lon="9.764067691591638"><ele>230.0</ele><time>2026-04-06T15:04:03Z</time></trkpt><trkpt lat="33.13234060994447" lon="9.764009652398185"><ele>229.5</ele><time>2026-04-06T15:04:04Z</time></trkpt><trkpt lat="33.132564094220044" lon="9.763954086952207"><ele>229.0</ele><time>2026-04-06T15:04:05Z</time></trkpt><trkpt lat="33.132801062976554" lon="9.76390102039147"><ele>229.0</ele><time>2026-04-06T15:04:06Z</time></trkpt><trkpt lat="33.133041654886036" lon="9.763849975566794"><ele>229.0</ele><time>2026-04-06T15:04:07Z</time></trkpt><trkpt lat="33.13328500815182" lon="9.763802721888046"><ele>229.5</ele><time>2026-04-06T15:04:08Z</time></trkpt><trkpt lat="33.133533847109234" lon="9.763752876370104"><ele>230.0</ele><time>2026-04-06T15:04:09Z</time></trkpt><trkpt lat="33.13377280743743" lon="9.76371023493865"><ele>230.0</ele><time>2026-04-06T15:04:10.001Z</time></trkpt><trkpt lat="33.13401402484393" lon="9.763681537564207"><ele>230.0</ele><time>2026-04-06T15:04:11.001Z</time></trkpt><trkpt lat="33.1342537903033" lon="9.763663322551295"><ele>228.5</ele><time>2026-04-06T15:04:12.001Z</time></trkpt><trkpt lat="33.13449410785551" lon="9.763652243843117"><ele>227.0</ele><time>2026-04-06T15:04:13.001Z</time></trkpt><trkpt lat="33.134728412562914" lon="9.763646663556788"><ele>227.0</ele><time>2026-04-06T15:04:14.001Z</time></trkpt><trkpt lat="33.134951896934126" lon="9.763642237841392"><ele>227.0</ele><time>2026-04-06T15:04:15.001Z</time></trkpt><trkpt lat="33.135178557820474" lon="9.763634167128503"><ele>227.0</ele><time>2026-04-06T15:04:16.001Z</time></trkpt><trkpt lat="33.13541173727729" lon="9.763627746213743"><ele>227.0</ele><time>2026-04-06T15:04:17.001Z</time></trkpt><trkpt lat="33.13564916837094" lon="9.76362970606464"><ele>227.5</ele><time>2026-04-06T15:04:18.001Z</time></trkpt><trkpt lat="33.1358945861449" lon="9.763643711834648"><ele>228.0</ele><time>2026-04-06T15:04:19.001Z</time></trkpt><trkpt lat="33.136136724700904" lon="9.763655956428401"><ele>228.0</ele><time>2026-04-06T15:04:20.001Z</time></trkpt><trkpt lat="33.136378845112844" lon="9.76366445315063"><ele>228.0</ele><time>2026-04-06T15:04:21.001Z</time></trkpt><trkpt lat="33.13662599429093" lon="9.763663092925464"><ele>226.5</ele><time>2026-04-06T15:04:22Z</time></trkpt><trkpt lat="33.13687370602962" lon="9.763647611553491"><ele>225.0</ele><time>2026-04-06T15:04:23Z</time></trkpt><trkpt lat="33.137119733354126" lon="9.763613563973617"><ele>225.0</ele><time>2026-04-06T15:04:24Z</time></trkpt><trkpt lat="33.137378224763964" lon="9.763560769620236"><ele>225.0</ele><time>2026-04-06T15:04:25Z</time></trkpt><trkpt lat="33.13764387091484" lon="9.763489031058294"><ele>226.0</ele><time>2026-04-06T15:04:26Z</time></trkpt><trkpt lat="33.13789972815077" lon="9.76340269339712"><ele>227.0</ele><time>2026-04-06T15:04:27Z</time></trkpt><trkpt lat="33.1381471322593" lon="9.76331252640143"><ele>226.5</ele><time>2026-04-06T15:04:28Z</time></trkpt><trkpt lat="33.13838309536622" lon="9.763221375572332"><ele>226.0</ele><time>2026-04-06T15:04:29Z</time></trkpt><trkpt lat="33.13862087795825" lon="9.763141457110962"><ele>226.0</ele><time>2026-04-06T15:04:30Z</time></trkpt><trkpt lat="33.13886422418179" lon="9.763076688519616"><ele>226.0</ele><time>2026-04-06T15:04:31Z</time></trkpt><trkpt lat="33.13910371274085" lon="9.763026587183651"><ele>225.5</ele><time>2026-04-06T15:04:32Z</time></trkpt><trkpt lat="33.13935251496939" lon="9.762991191496429"><ele>225.0</ele><time>2026-04-06T15:04:33Z</time></trkpt><trkpt lat="33.13959923143458" lon="9.762970340242383"><ele>225.0</ele><time>2026-04-06T15:04:34Z</time></trkpt><trkpt lat="33.13984840482278" lon="9.762960018925645"><ele>225.0</ele><time>2026-04-06T15:04:35Z</time></trkpt><trkpt lat="33.14010012624494" lon="9.762958094846173"><ele>225.0</ele><time>2026-04-06T15:04:36Z</time></trkpt><trkpt lat="33.14035446250191" lon="9.762960072407049"><ele>225.0</ele><time>2026-04-06T15:04:37Z</time></trkpt><trkpt lat="33.14060569352777" lon="9.762956247518305"><ele>225.0</ele><time>2026-04-06T15:04:38Z</time></trkpt><trkpt lat="33.14085450762034" lon="9.762951448095492"><ele>225.0</ele><time>2026-04-06T15:04:39Z</time></trkpt><trkpt lat="33.141103101405875" lon="9.762941542514605"><ele>225.0</ele><time>2026-04-06T15:04:40Z</time></trkpt><trkpt lat="33.14135174633015" lon="9.7629287768407"><ele>225.0</ele><time>2026-04-06T15:04:41Z</time></trkpt><trkpt lat="33.14160344097587" lon="9.762912328287014"><ele>224.5</ele><time>2026-04-06T15:04:42Z</time></trkpt><trkpt lat="33.14186107111453" lon="9.762891211908462"><ele>224.0</ele><time>2026-04-06T15:04:43Z</time></trkpt><trkpt lat="33.14211965987234" lon="9.762869799333624"><ele>224.0</ele><time>2026-04-06T15:04:44Z</time></trkpt><trkpt lat="33.14237985538215" lon="9.762846035867858"><ele>224.0</ele><time>2026-04-06T15:04:45Z</time></trkpt><trkpt lat="33.1426402428899" lon="9.762821445675156"><ele>224.5</ele><time>2026-04-06T15:04:46Z</time></trkpt><trkpt lat="33.14289720902425" lon="9.762788669320795"><ele>225.0</ele><time>2026-04-06T15:04:47Z</time></trkpt><trkpt lat="33.14315110135921" lon="9.762753626309946"><ele>224.0</ele><time>2026-04-06T15:04:48Z</time></trkpt><trkpt lat="33.143413251222505" lon="9.762722427391925"><ele>223.0</ele><time>2026-04-06T15:04:49Z</time></trkpt><trkpt lat="33.143667536024374" lon="9.762694730482043"><ele>223.0</ele><time>2026-04-06T15:04:50Z</time></trkpt><trkpt lat="33.143911000551164" lon="9.762670124996891"><ele>223.0</ele><time>2026-04-06T15:04:51Z</time></trkpt><trkpt lat="33.14414076791091" lon="9.762643600007754"><ele>222.33333333333331</ele><time>2026-04-06T15:04:52Z</time></trkpt><trkpt lat="33.14436285383257" lon="9.762615672758471"><ele>221.66666666666669</ele><time>2026-04-06T15:04:53Z</time></trkpt><trkpt lat="33.14457293597168" lon="9.762590598900447"><ele>221.0</ele><time>2026-04-06T15:04:54Z</time></trkpt><trkpt lat="33.14477449562638" lon="9.762573234536204"><ele>221.0</ele><time>2026-04-06T15:04:55Z</time></trkpt><trkpt lat="33.14497111365824" lon="9.762561136392124"><ele>221.0</ele><time>2026-04-06T15:04:56Z</time></trkpt><trkpt lat="33.14516855953763" lon="9.762545184483729"><ele>221.0</ele><time>2026-04-06T15:04:57Z</time></trkpt><trkpt lat="33.14535888198992" lon="9.762525542997667"><ele>221.0</ele><time>2026-04-06T15:04:58Z</time></trkpt><trkpt lat="33.14553002190357" lon="9.76249530014058"><ele>221.0</ele><time>2026-04-06T15:04:59Z</time></trkpt><trkpt lat="33.14568476551681" lon="9.762458984098433"><ele>221.0</ele><time>2026-04-06T15:05:00Z</time></trkpt><trkpt lat="33.14583976485432" lon="9.762421362426643"><ele>222.33333333333334</ele><time>2026-04-06T15:05:01Z</time></trkpt><trkpt lat="33.14600525959916" lon="9.76237338583299"><ele>223.66666666666669</ele><time>2026-04-06T15:05:02Z</time></trkpt><trkpt lat="33.14617898226764" lon="9.76232139445104"><ele>225.0</ele><time>2026-04-06T15:05:03Z</time></trkpt><trkpt lat="33.1463647935818" lon="9.762262162939402"><ele>224.33333333333331</ele><time>2026-04-06T15:05:04Z</time></trkpt><trkpt lat="33.14655905665623" lon="9.762198998705431"><ele>223.66666666666666</ele><time>2026-04-06T15:05:05Z</time></trkpt><trkpt lat="33.146761933420656" lon="9.762131039541316"><ele>223.0</ele><time>2026-04-06T15:05:06Z</time></trkpt><trkpt lat="33.146974980295006" lon="9.762053359763375"><ele>223.0</ele><time>2026-04-06T15:05:07Z</time></trkpt><trkpt lat="33.14720122743454" lon="9.761965692369944"><ele>223.0</ele><time>2026-04-06T15:05:08Z</time></trkpt><trkpt lat="33.14743864373079" lon="9.761866961380402"><ele>223.5</ele><time>2026-04-06T15:05:09Z</time></trkpt><trkpt lat="33.14767649177077" lon="9.761768321039932"><ele>224.0</ele><time>2026-04-06T15:05:10Z</time></trkpt><trkpt lat="33.14790547766049" lon="9.761670027713299"><ele>224.0</ele><time>2026-04-06T15:05:11Z</time></trkpt><trkpt lat="33.14811917325511" lon="9.761579332946962"><ele>224.0</ele><time>2026-04-06T15:05:12Z</time></trkpt><trkpt lat="33.14831884130299" lon="9.761499833067942"><ele>224.0</ele><time>2026-04-06T15:05:13Z</time></trkpt><trkpt lat="33.14851277650405" lon="9.761414368826543"><ele>224.66666666666669</ele><time>2026-04-06T15:05:14Z</time></trkpt><trkpt lat="33.1487025143243" lon="9.761332237622245"><ele>225.33333333333331</ele><time>2026-04-06T15:05:15Z</time></trkpt><trkpt lat="33.14890896390934" lon="9.761239779639341"><ele>226.0</ele><time>2026-04-06T15:05:16Z</time></trkpt><trkpt lat="33.149115177054725" lon="9.761145589470754"><ele>226.0</ele><time>2026-04-06T15:05:17Z</time></trkpt><trkpt lat="33.14932382689971" lon="9.761053683817286"><ele>226.0</ele><time>2026-04-06T15:05:18Z</time></trkpt><trkpt lat="33.14953648091937" lon="9.760960407146849"><ele>226.0</ele><time>2026-04-06T15:05:19Z</time></trkpt><trkpt lat="33.14975513566201" lon="9.760874331141755"><ele>225.0</ele><time>2026-04-06T15:05:20Z</time></trkpt><trkpt lat="33.14997528764258" lon="9.760796822857097"><ele>224.0</ele><time>2026-04-06T15:05:21Z</time></trkpt><trkpt lat="33.15020088025221" lon="9.760732642912906"><ele>224.0</ele><time>2026-04-06T15:05:22Z</time></trkpt><trkpt lat="33.15043144296992" lon="9.760671920906152"><ele>224.0</ele><time>2026-04-06T15:05:23Z</time></trkpt><trkpt lat="33.15066741107318" lon="9.760613009342483"><ele>224.0</ele><time>2026-04-06T15:05:24Z</time></trkpt><trkpt lat="33.1509095269321" lon="9.760556009629147"><ele>224.0</ele><time>2026-04-06T15:05:25Z</time></trkpt><trkpt lat="33.151157200915186" lon="9.76049520258673"><ele>224.0</ele><time>2026-04-06T15:05:26Z</time></trkpt><trkpt lat="33.15141302886715" lon="9.760434791060446"><ele>224.0</ele><time>2026-04-06T15:05:27Z</time></trkpt><trkpt lat="33.1516690857364" lon="9.760379503419767"><ele>224.5</ele><time>2026-04-06T15:05:28Z</time></trkpt><trkpt lat="33.151924860051494" lon="9.760327185434202"><ele>225.0</ele><time>2026-04-06T15:05:29Z</time></trkpt><trkpt lat="33.152179792221915" lon="9.760274303198726"><ele>224.0</ele><time>2026-04-06T15:05:30Z</time></trkpt><trkpt lat="33.15242521862645" lon="9.760219243837037"><ele>223.0</ele><time>2026-04-06T15:05:31Z</time></trkpt><trkpt lat="33.15265728029846" lon="9.760159687225295"><ele>223.0</ele><time>2026-04-06T15:05:32Z</time></trkpt><trkpt lat="33.15286859287296" lon="9.760105137679233"><ele>223.0</ele><time>2026-04-06T15:05:33Z</time></trkpt><trkpt lat="33.15307021063127" lon="9.76006548120378"><ele>223.0</ele><time>2026-04-06T15:05:34Z</time></trkpt><trkpt lat="33.153255616192645" lon="9.760034327003808"><ele>223.0</ele><time>2026-04-06T15:05:35Z</time></trkpt><trkpt lat="33.153433086029324" lon="9.760016507491128"><ele>223.0</ele><time>2026-04-06T15:05:36Z</time></trkpt><trkpt lat="33.153622677711546" lon="9.760015525868011"><ele>223.0</ele><time>2026-04-06T15:05:37Z</time></trkpt><trkpt lat="33.15382876565248" lon="9.760032308538724"><ele>222.66666666666666</ele><time>2026-04-06T15:05:38Z</time></trkpt><trkpt lat="33.15403932463605" lon="9.760074163891295"><ele>222.33333333333331</ele><time>2026-04-06T15:05:39Z</time></trkpt><trkpt lat="33.15424712755075" lon="9.760134026923513"><ele>222.0</ele><time>2026-04-06T15:05:40Z</time></trkpt><trkpt lat="33.15445587269598" lon="9.760203984918812"><ele>222.0</ele><time>2026-04-06T15:05:41Z</time></trkpt><trkpt lat="33.15465980925841" lon="9.760263194171113"><ele>222.0</ele><time>2026-04-06T15:05:42Z</time></trkpt><trkpt lat="33.154873333190466" lon="9.760297009139835"><ele>222.0</ele><time>2026-04-06T15:05:43Z</time></trkpt><trkpt lat="33.155092070093986" lon="9.76030737157389"><ele>222.33333333333331</ele><time>2026-04-06T15:05:44Z</time></trkpt><trkpt lat="33.15531686635341" lon="9.760299377750362"><ele>222.66666666666666</ele><time>2026-04-06T15:05:45Z</time></trkpt><trkpt lat="33.1555387799765" lon="9.76027352241368"><ele>223.0</ele><time>2026-04-06T15:05:46Z</time></trkpt><trkpt lat="33.15576023721877" lon="9.760233343881373"><ele>223.0</ele><time>2026-04-06T15:05:47Z</time></trkpt><trkpt lat="33.15598889347788" lon="9.760190425710944"><ele>223.0</ele><time>2026-04-06T15:05:48Z</time></trkpt><trkpt lat="33.156218610939824" lon="9.760145947704222"><ele>223.0</ele><time>2026-04-06T15:05:49Z</time></trkpt><trkpt lat="33.15644406603216" lon="9.76010972651586"><ele>223.0</ele><time>2026-04-06T15:05:50Z</time></trkpt><trkpt lat="33.156664061780525" lon="9.760078374670218"><ele>223.0</ele><time>2026-04-06T15:05:51Z</time></trkpt><trkpt lat="33.156880930913545" lon="9.76005429408923"><ele>223.0</ele><time>2026-04-06T15:05:52Z</time></trkpt><trkpt lat="33.15710028441125" lon="9.760029918100663"><ele>223.0</ele><time>2026-04-06T15:05:53Z</time></trkpt><trkpt lat="33.15732060753663" lon="9.760006694390189"><ele>223.0</ele><time>2026-04-06T15:05:54Z</time></trkpt><trkpt lat="33.1575362313961" lon="9.75998204678041"><ele>223.0</ele><time>2026-04-06T15:05:55Z</time></trkpt><trkpt lat="33.157754527637124" lon="9.759958962066174"><ele>223.0</ele><time>2026-04-06T15:05:56Z</time></trkpt><trkpt lat="33.15797109783808" lon="9.759938532955251"><ele>223.0</ele><time>2026-04-06T15:05:57Z</time></trkpt><trkpt lat="33.15818592858579" lon="9.759914815738497"><ele>223.0</ele><time>2026-04-06T15:05:58Z</time></trkpt><trkpt lat="33.158397290481695" lon="9.759892428299013"><ele>223.0</ele><time>2026-04-06T15:05:59Z</time></trkpt><trkpt lat="33.15860964058411" lon="9.759881585489254"><ele>223.0</ele><time>2026-04-06T15:06:00Z</time></trkpt><trkpt lat="33.15882616977331" lon="9.759871150028147"><ele>223.66666666666666</ele><time>2026-04-06T15:06:01Z</time></trkpt><trkpt lat="33.15904366221367" lon="9.759849616110316"><ele>224.33333333333331</ele><time>2026-04-06T15:06:02Z</time></trkpt><trkpt lat="33.15926401720318" lon="9.759829884988832"><ele>225.0</ele><time>2026-04-06T15:06:03Z</time></trkpt><trkpt lat="33.159479451165595" lon="9.759811015645328"><ele>225.0</ele><time>2026-04-06T15:06:04Z</time></trkpt><trkpt lat="33.15970047064101" lon="9.759795190536153"><ele>225.0</ele><time>2026-04-06T15:06:05Z</time></trkpt><trkpt lat="33.159919492455195" lon="9.759780760200751"><ele>225.0</ele><time>2026-04-06T15:06:06Z</time></trkpt><trkpt lat="33.160138653798576" lon="9.759765702932077"><ele>225.33333333333331</ele><time>2026-04-06T15:06:07Z</time></trkpt><trkpt lat="33.160358116619015" lon="9.759744054813487"><ele>225.66666666666666</ele><time>2026-04-06T15:06:08Z</time></trkpt><trkpt lat="33.16057966485065" lon="9.759718310950769"><ele>226.0</ele><time>2026-04-06T15:06:09Z</time></trkpt><trkpt lat="33.16080614490871" lon="9.759691604740592"><ele>226.0</ele><time>2026-04-06T15:06:10Z</time></trkpt><trkpt lat="33.16103873497036" lon="9.759665062139359"><ele>226.0</ele><time>2026-04-06T15:06:11Z</time></trkpt><trkpt lat="33.161269111364284" lon="9.759629231742926"><ele>226.0</ele><time>2026-04-06T15:06:12Z</time></trkpt><trkpt lat="33.161501121679876" lon="9.759579862537686"><ele>226.0</ele><time>2026-04-06T15:06:13Z</time></trkpt><trkpt lat="33.16173200916812" lon="9.759528163347461"><ele>226.5</ele><time>2026-04-06T15:06:14Z</time></trkpt><trkpt lat="33.16196887040496" lon="9.759480837707116"><ele>227.0</ele><time>2026-04-06T15:06:15Z</time></trkpt><trkpt lat="33.162208821578815" lon="9.75943508889068"><ele>227.0</ele><time>2026-04-06T15:06:16.001Z</time></trkpt><trkpt lat="33.16244933540089" lon="9.759385614289423"><ele>227.0</ele><time>2026-04-06T15:06:17.001Z</time></trkpt><trkpt lat="33.162691250666136" lon="9.759331896438887"><ele>226.5</ele><time>2026-04-06T15:06:18.001Z</time></trkpt><trkpt lat="33.16292853892961" lon="9.759279736409473"><ele>226.0</ele><time>2026-04-06T15:06:19.001Z</time></trkpt><trkpt lat="33.163173143528354" lon="9.759227916723866"><ele>226.0</ele><time>2026-04-06T15:06:20.001Z</time></trkpt><trkpt lat="33.16341800435911" lon="9.759179721450215"><ele>226.0</ele><time>2026-04-06T15:06:21.001Z</time></trkpt><trkpt lat="33.163665335835105" lon="9.75913341939893"><ele>226.0</ele><time>2026-04-06T15:06:22.001Z</time></trkpt><trkpt lat="33.16391626273201" lon="9.759084030396174"><ele>226.0</ele><time>2026-04-06T15:06:23Z</time></trkpt><trkpt lat="33.16416608930557" lon="9.759040093938523"><ele>226.0</ele><time>2026-04-06T15:06:24Z</time></trkpt><trkpt lat="33.164420262515975" lon="9.75899570779617"><ele>226.0</ele><time>2026-04-06T15:06:25Z</time></trkpt><trkpt lat="33.16467405161272" lon="9.758941145436797"><ele>226.0</ele><time>2026-04-06T15:06:26Z</time></trkpt><trkpt lat="33.16492641074293" lon="9.758887412017252"><ele>226.0</ele><time>2026-04-06T15:06:27Z</time></trkpt><trkpt lat="33.16518208321918" lon="9.758837102388291"><ele>226.0</ele><time>2026-04-06T15:06:28Z</time></trkpt><trkpt lat="33.16544148230816" lon="9.758787475926452"><ele>226.0</ele><time>2026-04-06T15:06:29Z</time></trkpt><trkpt lat="33.16569928361847" lon="9.758744829249032"><ele>225.5</ele><time>2026-04-06T15:06:30Z</time></trkpt><trkpt lat="33.16595474347976" lon="9.758699639996701"><ele>225.0</ele><time>2026-04-06T15:06:31Z</time></trkpt><trkpt lat="33.1662022806745" lon="9.758650856198283"><ele>225.0</ele><time>2026-04-06T15:06:32Z</time></trkpt><trkpt lat="33.16644239221525" lon="9.758602412487516"><ele>225.0</ele><time>2026-04-06T15:06:33Z</time></trkpt><trkpt lat="33.16665605853381" lon="9.758562571581724"><ele>225.0</ele><time>2026-04-06T15:06:34Z</time></trkpt><trkpt lat="33.16685641864176" lon="9.758522930185478"><ele>225.0</ele><time>2026-04-06T15:06:35Z</time></trkpt><trkpt lat="33.167045928822155" lon="9.758484305974985"><ele>225.0</ele><time>2026-04-06T15:06:36Z</time></trkpt><trkpt lat="33.16722772642335" lon="9.758443805660857"><ele>226.0</ele><time>2026-04-06T15:06:37Z</time></trkpt><trkpt lat="33.16739634278815" lon="9.75840448718254"><ele>227.0</ele><time>2026-04-06T15:06:38Z</time></trkpt><trkpt lat="33.16755568728657" lon="9.758368276633405"><ele>228.0</ele><time>2026-04-06T15:06:39Z</time></trkpt><trkpt lat="33.16771411441471" lon="9.758329728881105"><ele>228.0</ele><time>2026-04-06T15:06:40Z</time></trkpt><trkpt lat="33.1678743748467" lon="9.758286807106149"><ele>228.0</ele><time>2026-04-06T15:06:41Z</time></trkpt><trkpt lat="33.168033571564926" lon="9.758232289219148"><ele>228.0</ele><time>2026-04-06T15:06:42Z</time></trkpt><trkpt lat="33.16818800522978" lon="9.758163549557416"><ele>228.0</ele><time>2026-04-06T15:06:43Z</time></trkpt><trkpt lat="33.16834116152631" lon="9.75807474066743"><ele>228.0</ele><time>2026-04-06T15:06:44Z</time></trkpt><trkpt lat="33.16849359437556" lon="9.757970601735018"><ele>228.0</ele><time>2026-04-06T15:06:45Z</time></trkpt><trkpt lat="33.16863735654654" lon="9.757855936989598"><ele>228.0</ele><time>2026-04-06T15:06:46Z</time></trkpt><trkpt lat="33.16877512663343" lon="9.757747136966978"><ele>228.0</ele><time>2026-04-06T15:06:47Z</time></trkpt><trkpt lat="33.168912220120156" lon="9.757641336232878"><ele>228.0</ele><time>2026-04-06T15:06:48Z</time></trkpt><trkpt lat="33.16905708602726" lon="9.75753443102364"><ele>226.66666666666669</ele><time>2026-04-06T15:06:49Z</time></trkpt><trkpt lat="33.169206199051374" lon="9.757433225854507"><ele>225.33333333333334</ele><time>2026-04-06T15:06:50Z</time></trkpt><trkpt lat="33.16936484103874" lon="9.757346332037672"><ele>224.0</ele><time>2026-04-06T15:06:51Z</time></trkpt><trkpt lat="33.169537089272254" lon="9.757273838540835"><ele>224.0</ele><time>2026-04-06T15:06:52Z</time></trkpt><trkpt lat="33.16972176444457" lon="9.757212702944933"><ele>224.0</ele><time>2026-04-06T15:06:53Z</time></trkpt><trkpt lat="33.169909685504145" lon="9.75716326548987"><ele>224.0</ele><time>2026-04-06T15:06:54Z</time></trkpt><trkpt lat="33.17009916769215" lon="9.757126244400355"><ele>223.33333333333334</ele><time>2026-04-06T15:06:55Z</time></trkpt><trkpt lat="33.17029739174386" lon="9.757096157858816"><ele>222.66666666666669</ele><time>2026-04-06T15:06:56Z</time></trkpt><trkpt lat="33.17049246679653" lon="9.757075808065718"><ele>222.0</ele><time>2026-04-06T15:06:57Z</time></trkpt><trkpt lat="33.17069460601695" lon="9.757058214047913"><ele>222.0</ele><time>2026-04-06T15:06:58Z</time></trkpt><trkpt lat="33.17090030182704" lon="9.757049441298232"><ele>222.0</ele><time>2026-04-06T15:06:59Z</time></trkpt><trkpt lat="33.171111885810035" lon="9.757046488136137"><ele>222.0</ele><time>2026-04-06T15:07:00Z</time></trkpt><trkpt lat="33.17131549572682" lon="9.757049874089756"><ele>222.0</ele><time>2026-04-06T15:07:01Z</time></trkpt><trkpt lat="33.171516451042145" lon="9.757038602721778"><ele>222.0</ele><time>2026-04-06T15:07:02Z</time></trkpt><trkpt lat="33.17172595421362" lon="9.757014914178294"><ele>222.0</ele><time>2026-04-06T15:07:03Z</time></trkpt><trkpt lat="33.17193332950009" lon="9.756979836816017"><ele>222.0</ele><time>2026-04-06T15:07:04Z</time></trkpt><trkpt lat="33.1721452650744" lon="9.756936969853339"><ele>222.0</ele><time>2026-04-06T15:07:05Z</time></trkpt><trkpt lat="33.172350783850455" lon="9.75688971910435"><ele>222.0</ele><time>2026-04-06T15:07:06Z</time></trkpt><trkpt lat="33.17255683716848" lon="9.756849533309236"><ele>221.33333333333331</ele><time>2026-04-06T15:07:07Z</time></trkpt><trkpt lat="33.17276957490549" lon="9.756813966433068"><ele>220.66666666666666</ele><time>2026-04-06T15:07:08Z</time></trkpt><trkpt lat="33.17297745916316" lon="9.756778927430084"><ele>220.0</ele><time>2026-04-06T15:07:09Z</time></trkpt><trkpt lat="33.17318676397092" lon="9.756745413107273"><ele>220.33333333333331</ele><time>2026-04-06T15:07:10Z</time></trkpt><trkpt lat="33.17339633116276" lon="9.756723781334333"><ele>220.66666666666669</ele><time>2026-04-06T15:07:11Z</time></trkpt><trkpt lat="33.17360844095422" lon="9.756715422829757"><ele>221.0</ele><time>2026-04-06T15:07:12Z</time></trkpt><trkpt lat="33.173819982219804" lon="9.756709201469224"><ele>221.66666666666669</ele><time>2026-04-06T15:07:13Z</time></trkpt><trkpt lat="33.1740362109041" lon="9.75670606205341"><ele>222.33333333333331</ele><time>2026-04-06T15:07:14Z</time></trkpt><trkpt lat="33.17426242117971" lon="9.756701718406509"><ele>223.0</ele><time>2026-04-06T15:07:15Z</time></trkpt><trkpt lat="33.17449461123779" lon="9.756704434150306"><ele>223.0</ele><time>2026-04-06T15:07:16Z</time></trkpt><trkpt lat="33.174720164639204" lon="9.756707493573082"><ele>223.0</ele><time>2026-04-06T15:07:17Z</time></trkpt><trkpt lat="33.174944764103984" lon="9.756706476087313"><ele>224.0</ele><time>2026-04-06T15:07:18Z</time></trkpt><trkpt lat="33.17515510141514" lon="9.756703209945657"><ele>225.0</ele><time>2026-04-06T15:07:19Z</time></trkpt><trkpt lat="33.17537070482245" lon="9.756693481009886"><ele>226.0</ele><time>2026-04-06T15:07:20Z</time></trkpt><trkpt lat="33.17558453529864" lon="9.75667445886342"><ele>226.33333333333331</ele><time>2026-04-06T15:07:21Z</time></trkpt><trkpt lat="33.17580351592687" lon="9.756650954353915"><ele>226.66666666666669</ele><time>2026-04-06T15:07:22Z</time></trkpt><trkpt lat="33.176025393014754" lon="9.756624986282544"><ele>227.0</ele><time>2026-04-06T15:07:23Z</time></trkpt><trkpt lat="33.17624367203618" lon="9.75659567912786"><ele>227.0</ele><time>2026-04-06T15:07:24Z</time></trkpt><trkpt lat="33.176461836217385" lon="9.756562607601088"><ele>227.0</ele><time>2026-04-06T15:07:25Z</time></trkpt><trkpt lat="33.17667826417378" lon="9.756523953553552"><ele>227.0</ele><time>2026-04-06T15:07:26Z</time></trkpt><trkpt lat="33.17690198517732" lon="9.756480427535825"><ele>227.5</ele><time>2026-04-06T15:07:27Z</time></trkpt><trkpt lat="33.177123760851124" lon="9.756439112091321"><ele>228.0</ele><time>2026-04-06T15:07:28Z</time></trkpt><trkpt lat="33.177347184008156" lon="9.75639034010445"><ele>228.0</ele><time>2026-04-06T15:07:29Z</time></trkpt><trkpt lat="33.17756589625348" lon="9.756341993762598"><ele>228.0</ele><time>2026-04-06T15:07:30Z</time></trkpt><trkpt lat="33.177782862975874" lon="9.756274744579633"><ele>228.0</ele><time>2026-04-06T15:07:31Z</time></trkpt><trkpt lat="33.17798893080916" lon="9.756200016470501"><ele>228.33333333333331</ele><time>2026-04-06T15:07:32Z</time></trkpt><trkpt lat="33.17819814687715" lon="9.756114867381891"><ele>228.66666666666666</ele><time>2026-04-06T15:07:33Z</time></trkpt><trkpt lat="33.178405068002725" lon="9.756031325062688"><ele>229.0</ele><time>2026-04-06T15:07:34Z</time></trkpt><trkpt lat="33.17861257374516" lon="9.755945732727481"><ele>229.0</ele><time>2026-04-06T15:07:35Z</time></trkpt><trkpt lat="33.17880626900781" lon="9.755864821320554"><ele>229.0</ele><time>2026-04-06T15:07:36Z</time></trkpt><trkpt lat="33.178985568738746" lon="9.755789850525785"><ele>229.0</ele><time>2026-04-06T15:07:37Z</time></trkpt><trkpt lat="33.179157272969746" lon="9.755721031237687"><ele>229.0</ele><time>2026-04-06T15:07:38Z</time></trkpt><trkpt lat="33.179323432933074" lon="9.75565966975575"><ele>229.0</ele><time>2026-04-06T15:07:39Z</time></trkpt><trkpt lat="33.179492641509505" lon="9.75560871542747"><ele>229.0</ele><time>2026-04-06T15:07:40Z</time></trkpt><trkpt lat="33.17966234124016" lon="9.755563601181176"><ele>229.0</ele><time>2026-04-06T15:07:41Z</time></trkpt><trkpt lat="33.17983707282374" lon="9.755524709682193"><ele>229.0</ele><time>2026-04-06T15:07:42Z</time></trkpt><trkpt lat="33.18000699094216" lon="9.75549053731592"><ele>229.0</ele><time>2026-04-06T15:07:43Z</time></trkpt><trkpt lat="33.180168682820444" lon="9.755459811171317"><ele>228.33333333333331</ele><time>2026-04-06T15:07:44Z</time></trkpt><trkpt lat="33.18032189244444" lon="9.755432529060199"><ele>227.66666666666669</ele><time>2026-04-06T15:07:45Z</time></trkpt><trkpt lat="33.180483183836856" lon="9.755403254995892"><ele>227.0</ele><time>2026-04-06T15:07:46Z</time></trkpt><trkpt lat="33.18065769263231" lon="9.755372957596995"><ele>227.0</ele><time>2026-04-06T15:07:47Z</time></trkpt><trkpt lat="33.18083326778493" lon="9.755342257447175"><ele>227.0</ele><time>2026-04-06T15:07:48Z</time></trkpt><trkpt lat="33.181021897597695" lon="9.755318152682255"><ele>227.0</ele><time>2026-04-06T15:07:49Z</time></trkpt><trkpt lat="33.18121578399394" lon="9.755309470092941"><ele>227.0</ele><time>2026-04-06T15:07:50Z</time></trkpt><trkpt lat="33.18142089434003" lon="9.75531615335852"><ele>227.0</ele><time>2026-04-06T15:07:51Z</time></trkpt><trkpt lat="33.18162392432721" lon="9.75533527123919"><ele>227.0</ele><time>2026-04-06T15:07:52Z</time></trkpt><trkpt lat="33.18183277235215" lon="9.755362201277253"><ele>227.0</ele><time>2026-04-06T15:07:53Z</time></trkpt><trkpt lat="33.18203991884871" lon="9.755388109767104"><ele>227.0</ele><time>2026-04-06T15:07:54Z</time></trkpt><trkpt lat="33.1822601059757" lon="9.755404575806951"><ele>227.0</ele><time>2026-04-06T15:07:55Z</time></trkpt><trkpt lat="33.18250084964794" lon="9.755404272833093"><ele>228.5</ele><time>2026-04-06T15:07:56Z</time></trkpt><trkpt lat="33.18276862342094" lon="9.75538441632321"><ele>230.0</ele><time>2026-04-06T15:07:57Z</time></trkpt><trkpt lat="33.183057020476056" lon="9.755347514971028"><ele>230.0</ele><time>2026-04-06T15:07:58Z</time></trkpt><trkpt lat="33.18335211215324" lon="9.755301124550664"><ele>230.0</ele><time>2026-04-06T15:07:59Z</time></trkpt><trkpt lat="33.18362700494236" lon="9.755257160303252"><ele>230.0</ele><time>2026-04-06T15:08:00Z</time></trkpt><trkpt lat="33.18388267447855" lon="9.755214857660414"><ele>230.0</ele><time>2026-04-06T15:08:01Z</time></trkpt><trkpt lat="33.184139345335275" lon="9.755165789494873"><ele>230.5</ele><time>2026-04-06T15:08:02Z</time></trkpt><trkpt lat="33.18440331512122" lon="9.755116890213593"><ele>231.0</ele><time>2026-04-06T15:08:03Z</time></trkpt><trkpt lat="33.184661785648295" lon="9.755065983306066"><ele>230.5</ele><time>2026-04-06T15:08:04Z</time></trkpt><trkpt lat="33.184914013568594" lon="9.755016748278209"><ele>230.0</ele><time>2026-04-06T15:08:05Z</time></trkpt><trkpt lat="33.18514920208931" lon="9.754972263183141"><ele>230.0</ele><time>2026-04-06T15:08:06Z</time></trkpt><trkpt lat="33.18537770655016" lon="9.754928268219857"><ele>230.0</ele><time>2026-04-06T15:08:07Z</time></trkpt><trkpt lat="33.18560208388583" lon="9.754888047748377"><ele>229.66666666666669</ele><time>2026-04-06T15:08:08Z</time></trkpt><trkpt lat="33.18581987611202" lon="9.754849038581872"><ele>229.33333333333331</ele><time>2026-04-06T15:08:09Z</time></trkpt><trkpt lat="33.186036794532626" lon="9.754810220218921"><ele>229.0</ele><time>2026-04-06T15:08:10Z</time></trkpt><trkpt lat="33.1862571966715" lon="9.754768228781982"><ele>229.0</ele><time>2026-04-06T15:08:11Z</time></trkpt><trkpt lat="33.18648686739066" lon="9.754721470925993"><ele>229.0</ele><time>2026-04-06T15:08:12Z</time></trkpt><trkpt lat="33.186716260556025" lon="9.75467570247881"><ele>229.0</ele><time>2026-04-06T15:08:13Z</time></trkpt><trkpt lat="33.18694107101971" lon="9.754631879080621"><ele>229.0</ele><time>2026-04-06T15:08:14Z</time></trkpt><trkpt lat="33.18716302898063" lon="9.75459092861594"><ele>228.66666666666666</ele><time>2026-04-06T15:08:15Z</time></trkpt><trkpt lat="33.187383922598926" lon="9.75454927915948"><ele>228.33333333333331</ele><time>2026-04-06T15:08:16Z</time></trkpt><trkpt lat="33.18760463047664" lon="9.754508622201392"><ele>228.0</ele><time>2026-04-06T15:08:17Z</time></trkpt><trkpt lat="33.18782791249305" lon="9.754467901229091"><ele>228.0</ele><time>2026-04-06T15:08:18Z</time></trkpt><trkpt lat="33.188053681079055" lon="9.75442805380912"><ele>228.0</ele><time>2026-04-06T15:08:19Z</time></trkpt><trkpt lat="33.18828095720161" lon="9.754386591476077"><ele>228.5</ele><time>2026-04-06T15:08:20Z</time></trkpt><trkpt lat="33.188511846566854" lon="9.75434302603289"><ele>229.0</ele><time>2026-04-06T15:08:21Z</time></trkpt><trkpt lat="33.188742076346585" lon="9.754299465340418"><ele>229.0</ele><time>2026-04-06T15:08:22Z</time></trkpt><trkpt lat="33.18897509322009" lon="9.754255020291492"><ele>229.0</ele><time>2026-04-06T15:08:23Z</time></trkpt><trkpt lat="33.189203214726724" lon="9.754212866669356"><ele>228.66666666666666</ele><time>2026-04-06T15:08:24Z</time></trkpt><trkpt lat="33.189420256904164" lon="9.754174392005233"><ele>228.33333333333331</ele><time>2026-04-06T15:08:25Z</time></trkpt><trkpt lat="33.189618781583356" lon="9.754140283665313"><ele>228.0</ele><time>2026-04-06T15:08:26Z</time></trkpt><trkpt lat="33.18981487256079" lon="9.75410302922949"><ele>227.66666666666669</ele><time>2026-04-06T15:08:27Z</time></trkpt><trkpt lat="33.190020191178135" lon="9.754061765577058"><ele>227.33333333333334</ele><time>2026-04-06T15:08:28Z</time></trkpt><trkpt lat="33.190233012408235" lon="9.754017205378078"><ele>227.0</ele><time>2026-04-06T15:08:29Z</time></trkpt><trkpt lat="33.19044051300486" lon="9.753975396285727"><ele>227.0</ele><time>2026-04-06T15:08:30Z</time></trkpt><trkpt lat="33.19065664062663" lon="9.753933667606265"><ele>227.0</ele><time>2026-04-06T15:08:31Z</time></trkpt><trkpt lat="33.19087679716516" lon="9.753893214310011"><ele>227.0</ele><time>2026-04-06T15:08:32Z</time></trkpt><trkpt lat="33.19110511060963" lon="9.753849932298243"><ele>228.0</ele><time>2026-04-06T15:08:33Z</time></trkpt><trkpt lat="33.191339329045135" lon="9.753806785299659"><ele>229.0</ele><time>2026-04-06T15:08:34Z</time></trkpt><trkpt lat="33.19157590317996" lon="9.753766165194163"><ele>230.0</ele><time>2026-04-06T15:08:35Z</time></trkpt><trkpt lat="33.191812741535266" lon="9.753724039594726"><ele>231.0</ele><time>2026-04-06T15:08:36Z</time></trkpt><trkpt lat="33.19203572432131" lon="9.753684761271302"><ele>231.0</ele><time>2026-04-06T15:08:37Z</time></trkpt><trkpt lat="33.192246407493926" lon="9.753647329099362"><ele>231.0</ele><time>2026-04-06T15:08:38Z</time></trkpt><trkpt lat="33.19244608314788" lon="9.753613084379126"><ele>231.0</ele><time>2026-04-06T15:08:39Z</time></trkpt><trkpt lat="33.19264030233978" lon="9.753578606096795"><ele>231.0</ele><time>2026-04-06T15:08:40Z</time></trkpt><trkpt lat="33.19283009464143" lon="9.753541972782564"><ele>231.0</ele><time>2026-04-06T15:08:41Z</time></trkpt><trkpt lat="33.193017052826505" lon="9.75350510436194"><ele>231.0</ele><time>2026-04-06T15:08:42Z</time></trkpt><trkpt lat="33.19320706175409" lon="9.753466567356334"><ele>230.66666666666669</ele><time>2026-04-06T15:08:43Z</time></trkpt><trkpt lat="33.193400413679" lon="9.75342502563389"><ele>230.33333333333334</ele><time>2026-04-06T15:08:44Z</time></trkpt><trkpt lat="33.193590199866144" lon="9.753385535466194"><ele>230.0</ele><time>2026-04-06T15:08:45Z</time></trkpt><trkpt lat="33.19378447347352" lon="9.753340759862184"><ele>230.0</ele><time>2026-04-06T15:08:46Z</time></trkpt><trkpt lat="33.193984163871974" lon="9.753297684987512"><ele>230.0</ele><time>2026-04-06T15:08:47Z</time></trkpt><trkpt lat="33.194182709416" lon="9.753259673148754"><ele>230.0</ele><time>2026-04-06T15:08:48Z</time></trkpt><trkpt lat="33.19438296621011" lon="9.753221959448576"><ele>230.0</ele><time>2026-04-06T15:08:49Z</time></trkpt><trkpt lat="33.19459191361947" lon="9.753181536237072"><ele>230.0</ele><time>2026-04-06T15:08:50Z</time></trkpt><trkpt lat="33.19479940629062" lon="9.75314187023278"><ele>230.0</ele><time>2026-04-06T15:08:51Z</time></trkpt><trkpt lat="33.19501298249218" lon="9.753104122762222"><ele>230.0</ele><time>2026-04-06T15:08:52Z</time></trkpt><trkpt lat="33.195218288101884" lon="9.753067750525549"><ele>230.0</ele><time>2026-04-06T15:08:53Z</time></trkpt><trkpt lat="33.19541994681942" lon="9.75302553067524"><ele>230.0</ele><time>2026-04-06T15:08:54Z</time></trkpt><trkpt lat="33.195626511069946" lon="9.752977529625795"><ele>230.0</ele><time>2026-04-06T15:08:55Z</time></trkpt><trkpt lat="33.19583235177557" lon="9.752925144238842"><ele>230.0</ele><time>2026-04-06T15:08:56Z</time></trkpt><trkpt lat="33.19604115156029" lon="9.75287357761681"><ele>230.0</ele><time>2026-04-06T15:08:57Z</time></trkpt><trkpt lat="33.19624496524485" lon="9.752826166718293"><ele>230.0</ele><time>2026-04-06T15:08:58Z</time></trkpt><trkpt lat="33.19645202175435" lon="9.752781722363562"><ele>230.0</ele><time>2026-04-06T15:08:59Z</time></trkpt><trkpt lat="33.19666078668353" lon="9.752746367468891"><ele>230.0</ele><time>2026-04-06T15:09:00Z</time></trkpt><trkpt lat="33.19686353377904" lon="9.752721961722456"><ele>230.0</ele><time>2026-04-06T15:09:01Z</time></trkpt><trkpt lat="33.19706922762678" lon="9.752693029378467"><ele>230.0</ele><time>2026-04-06T15:09:02Z</time></trkpt><trkpt lat="33.197270457165516" lon="9.75265882753834"><ele>230.0</ele><time>2026-04-06T15:09:03Z</time></trkpt><trkpt lat="33.197473788531326" lon="9.752617328881266"><ele>230.0</ele><time>2026-04-06T15:09:04Z</time></trkpt><trkpt lat="33.197678568336215" lon="9.752573541879967"><ele>230.0</ele><time>2026-04-06T15:09:05Z</time></trkpt><trkpt lat="33.19788392952714" lon="9.752533224511483"><ele>230.0</ele><time>2026-04-06T15:09:06Z</time></trkpt><trkpt lat="33.19809504083286" lon="9.75249163543381"><ele>230.33333333333334</ele><time>2026-04-06T15:09:07Z</time></trkpt><trkpt lat="33.19830119857432" lon="9.75245001680424"><ele>230.66666666666669</ele><time>2026-04-06T15:09:08Z</time></trkpt><trkpt lat="33.1984980284302" lon="9.75240779563234"><ele>231.0</ele><time>2026-04-06T15:09:09Z</time></trkpt><trkpt lat="33.19867809538024" lon="9.752370462983658"><ele>231.0</ele><time>2026-04-06T15:09:10Z</time></trkpt><trkpt lat="33.19884784229389" lon="9.75233675372275"><ele>231.0</ele><time>2026-04-06T15:09:11Z</time></trkpt><trkpt lat="33.199006288197126" lon="9.75230909781455"><ele>231.0</ele><time>2026-04-06T15:09:12Z</time></trkpt><trkpt lat="33.199157123078564" lon="9.752281961638463"><ele>231.0</ele><time>2026-04-06T15:09:13Z</time></trkpt><trkpt lat="33.199297471331505" lon="9.752254051959824"><ele>231.0</ele><time>2026-04-06T15:09:14Z</time></trkpt><trkpt lat="33.19943238211133" lon="9.752226129819979"><ele>231.0</ele><time>2026-04-06T15:09:15Z</time></trkpt><trkpt lat="33.19957252307715" lon="9.752198793569981"><ele>231.0</ele><time>2026-04-06T15:09:16Z</time></trkpt><trkpt lat="33.19971793686623" lon="9.75217395807766"><ele>231.0</ele><time>2026-04-06T15:09:17Z</time></trkpt><trkpt lat="33.199864716740485" lon="9.752148837144684"><ele>231.0</ele><time>2026-04-06T15:09:18Z</time></trkpt><trkpt lat="33.20001441020049" lon="9.752122102589345"><ele>231.0</ele><time>2026-04-06T15:09:19Z</time></trkpt><trkpt lat="33.20016139707672" lon="9.75209044392535"><ele>231.0</ele><time>2026-04-06T15:09:20Z</time></trkpt><trkpt lat="33.20031441687025" lon="9.752055231700801"><ele>231.0</ele><time>2026-04-06T15:09:21Z</time></trkpt><trkpt lat="33.200467863703416" lon="9.752015533489772"><ele>231.0</ele><time>2026-04-06T15:09:22Z</time></trkpt><trkpt lat="33.2006243447595" lon="9.751970289733507"><ele>231.0</ele><time>2026-04-06T15:09:23Z</time></trkpt><trkpt lat="33.20079016724581" lon="9.751914647612635"><ele>230.66666666666669</ele><time>2026-04-06T15:09:24Z</time></trkpt><trkpt lat="33.20095564069865" lon="9.751848025144483"><ele>230.33333333333334</ele><time>2026-04-06T15:09:25Z</time></trkpt><trkpt lat="33.20112708209355" lon="9.751763743547592"><ele>230.0</ele><time>2026-04-06T15:09:26Z</time></trkpt><trkpt lat="33.201302011320784" lon="9.751669700466103"><ele>230.0</ele><time>2026-04-06T15:09:27Z</time></trkpt><trkpt lat="33.20146778218153" lon="9.751569069090259"><ele>230.0</ele><time>2026-04-06T15:09:28Z</time></trkpt><trkpt lat="33.20164238546694" lon="9.751466075049812"><ele>230.0</ele><time>2026-04-06T15:09:29Z</time></trkpt><trkpt lat="33.2018284307244" lon="9.75135968371713"><ele>230.0</ele><time>2026-04-06T15:09:30Z</time></trkpt><trkpt lat="33.20202050182879" lon="9.751262816712545"><ele>230.0</ele><time>2026-04-06T15:09:31Z</time></trkpt><trkpt lat="33.202227542212626" lon="9.75117716647905"><ele>230.0</ele><time>2026-04-06T15:09:32Z</time></trkpt><trkpt lat="33.20243848373137" lon="9.751110735518289"><ele>230.0</ele><time>2026-04-06T15:09:33Z</time></trkpt><trkpt lat="33.20266194398251" lon="9.751071461801471"><ele>230.0</ele><time>2026-04-06T15:09:34Z</time></trkpt><trkpt lat="33.20288906228346" lon="9.751050362695617"><ele>230.0</ele><time>2026-04-06T15:09:35Z</time></trkpt><trkpt lat="33.20311864947968" lon="9.75104557318806"><ele>230.0</ele><time>2026-04-06T15:09:36Z</time></trkpt><trkpt lat="33.20334043436226" lon="9.751048881450474"><ele>230.33333333333334</ele><time>2026-04-06T15:09:37Z</time></trkpt><trkpt lat="33.20355270142771" lon="9.751058111789773"><ele>230.66666666666669</ele><time>2026-04-06T15:09:38Z</time></trkpt><trkpt lat="33.20376337820331" lon="9.751067182359318"><ele>231.0</ele><time>2026-04-06T15:09:39Z</time></trkpt><trkpt lat="33.203978411444155" lon="9.751065381941205"><ele>230.5</ele><time>2026-04-06T15:09:40Z</time></trkpt><trkpt lat="33.20420108799899" lon="9.75105265122426"><ele>230.0</ele><time>2026-04-06T15:09:41Z</time></trkpt><trkpt lat="33.20442997506645" lon="9.751030720418747"><ele>229.5</ele><time>2026-04-06T15:09:42Z</time></trkpt><trkpt lat="33.20466196433882" lon="9.7509930389815"><ele>229.0</ele><time>2026-04-06T15:09:43Z</time></trkpt><trkpt lat="33.20489131500366" lon="9.750955429804991"><ele>228.5</ele><time>2026-04-06T15:09:44Z</time></trkpt><trkpt lat="33.20512999344364" lon="9.750910135598089"><ele>228.0</ele><time>2026-04-06T15:09:45Z</time></trkpt><trkpt lat="33.20536564739366" lon="9.750869405359884"><ele>228.0</ele><time>2026-04-06T15:09:46Z</time></trkpt><trkpt lat="33.20558971693599" lon="9.750829705513878"><ele>228.0</ele><time>2026-04-06T15:09:47Z</time></trkpt><trkpt lat="33.20581535145064" lon="9.750795969305612"><ele>228.66666666666669</ele><time>2026-04-06T15:09:48Z</time></trkpt><trkpt lat="33.206031182385935" lon="9.750755557458659"><ele>229.33333333333334</ele><time>2026-04-06T15:09:49Z</time></trkpt><trkpt lat="33.20624636572822" lon="9.750712564578084"><ele>230.0</ele><time>2026-04-06T15:09:50Z</time></trkpt><trkpt lat="33.20646360225555" lon="9.75066612035358"><ele>230.0</ele><time>2026-04-06T15:09:51Z</time></trkpt><trkpt lat="33.20668483406256" lon="9.750618056651634"><ele>230.0</ele><time>2026-04-06T15:09:52Z</time></trkpt><trkpt lat="33.206903541673796" lon="9.750571422518497"><ele>230.0</ele><time>2026-04-06T15:09:53Z</time></trkpt><trkpt lat="33.20712351955901" lon="9.750524917569122"><ele>230.0</ele><time>2026-04-06T15:09:54Z</time></trkpt><trkpt lat="33.207342155591014" lon="9.750482887943795"><ele>230.0</ele><time>2026-04-06T15:09:55Z</time></trkpt><trkpt lat="33.207560286318746" lon="9.75044037303776"><ele>230.0</ele><time>2026-04-06T15:09:56Z</time></trkpt><trkpt lat="33.207779199799745" lon="9.750393901419029"><ele>230.0</ele><time>2026-04-06T15:09:57Z</time></trkpt><trkpt lat="33.20799473330543" lon="9.750345520315392"><ele>230.0</ele><time>2026-04-06T15:09:58Z</time></trkpt><trkpt lat="33.208216178156704" lon="9.750300596995459"><ele>230.0</ele><time>2026-04-06T15:09:59Z</time></trkpt><trkpt lat="33.208439685167626" lon="9.750252534727526"><ele>229.0</ele><time>2026-04-06T15:10:00Z</time></trkpt><trkpt lat="33.20866367217399" lon="9.75020706619631"><ele>228.0</ele><time>2026-04-06T15:10:01Z</time></trkpt><trkpt lat="33.208892342435654" lon="9.750163973548718"><ele>229.5</ele><time>2026-04-06T15:10:02Z</time></trkpt><trkpt lat="33.20912321286253" lon="9.750120030933054"><ele>231.0</ele><time>2026-04-06T15:10:03Z</time></trkpt><trkpt lat="33.20935648382409" lon="9.750066070434658"><ele>231.0</ele><time>2026-04-06T15:10:04Z</time></trkpt><trkpt lat="33.20959454184982" lon="9.750012856797923"><ele>231.0</ele><time>2026-04-06T15:10:05Z</time></trkpt><trkpt lat="33.20983259003893" lon="9.74996549107834"><ele>232.0</ele><time>2026-04-06T15:10:06Z</time></trkpt><trkpt lat="33.21006713774717" lon="9.749921653486284"><ele>233.0</ele><time>2026-04-06T15:10:07Z</time></trkpt><trkpt lat="33.21029106342896" lon="9.749880730583996"><ele>233.0</ele><time>2026-04-06T15:10:08Z</time></trkpt><trkpt lat="33.21050950735067" lon="9.749842049154015"><ele>233.0</ele><time>2026-04-06T15:10:09Z</time></trkpt><trkpt lat="33.21073442122203" lon="9.749799277276628"><ele>233.0</ele><time>2026-04-06T15:10:10Z</time></trkpt><trkpt lat="33.210966062320985" lon="9.749755308924385"><ele>231.5</ele><time>2026-04-06T15:10:11Z</time></trkpt><trkpt lat="33.211190846745254" lon="9.74971195397348"><ele>230.0</ele><time>2026-04-06T15:10:11.999Z</time></trkpt><trkpt lat="33.211420589653784" lon="9.749669668545298"><ele>230.5</ele><time>2026-04-06T15:10:12.999Z</time></trkpt><trkpt lat="33.211648775891945" lon="9.749632737182012"><ele>231.0</ele><time>2026-04-06T15:10:13.999Z</time></trkpt><trkpt lat="33.21187716575883" lon="9.749597320834303"><ele>231.0</ele><time>2026-04-06T15:10:14.999Z</time></trkpt><trkpt lat="33.21209966997786" lon="9.749556402237458"><ele>231.0</ele><time>2026-04-06T15:10:15.999Z</time></trkpt><trkpt lat="33.21231387674508" lon="9.749512213818143"><ele>231.0</ele><time>2026-04-06T15:10:16.999Z</time></trkpt><trkpt lat="33.21251609807898" lon="9.749472151493231"><ele>231.0</ele><time>2026-04-06T15:10:17.999Z</time></trkpt><trkpt lat="33.212709565847106" lon="9.74943572041746"><ele>231.0</ele><time>2026-04-06T15:10:18.999Z</time></trkpt><trkpt lat="33.21290358307178" lon="9.749400831856972"><ele>231.0</ele><time>2026-04-06T15:10:19.999Z</time></trkpt><trkpt lat="33.213103008694375" lon="9.749365349277966"><ele>231.0</ele><time>2026-04-06T15:10:20.999Z</time></trkpt><trkpt lat="33.213304449623955" lon="9.749327633433701"><ele>231.0</ele><time>2026-04-06T15:10:21.999Z</time></trkpt><trkpt lat="33.213509656119896" lon="9.749284818338184"><ele>231.0</ele><time>2026-04-06T15:10:22.999Z</time></trkpt><trkpt lat="33.21372563601504" lon="9.74924430083969"><ele>231.0</ele><time>2026-04-06T15:10:23.999Z</time></trkpt><trkpt lat="33.213942168858104" lon="9.749211117674294"><ele>231.0</ele><time>2026-04-06T15:10:24.999Z</time></trkpt><trkpt lat="33.21416126217162" lon="9.749176447054968"><ele>231.0</ele><time>2026-04-06T15:10:25.999Z</time></trkpt><trkpt lat="33.21438585437364" lon="9.749136484575368"><ele>231.0</ele><time>2026-04-06T15:10:26.999Z</time></trkpt><trkpt lat="33.21461792171274" lon="9.74908811797619"><ele>231.0</ele><time>2026-04-06T15:10:28Z</time></trkpt><trkpt lat="33.214862562698144" lon="9.749036770304812"><ele>231.5</ele><time>2026-04-06T15:10:29Z</time></trkpt><trkpt lat="33.21512285503963" lon="9.748986440488903"><ele>232.0</ele><time>2026-04-06T15:10:30Z</time></trkpt><trkpt lat="33.21539289588487" lon="9.74893581711568"><ele>231.0</ele><time>2026-04-06T15:10:31Z</time></trkpt><trkpt lat="33.21566332718733" lon="9.74888912015205"><ele>230.0</ele><time>2026-04-06T15:10:32Z</time></trkpt><trkpt lat="33.21593502731985" lon="9.748838250270145"><ele>230.0</ele><time>2026-04-06T15:10:33Z</time></trkpt><trkpt lat="33.2162021470657" lon="9.748786280459868"><ele>230.0</ele><time>2026-04-06T15:10:34Z</time></trkpt><trkpt lat="33.216473465932005" lon="9.74872719399381"><ele>229.5</ele><time>2026-04-06T15:10:35Z</time></trkpt><trkpt lat="33.21673802217897" lon="9.748668223274231"><ele>229.0</ele><time>2026-04-06T15:10:36Z</time></trkpt><trkpt lat="33.21700644544668" lon="9.748609095416894"><ele>229.0</ele><time>2026-04-06T15:10:37Z</time></trkpt><trkpt lat="33.21727062123367" lon="9.748555756070155"><ele>229.0</ele><time>2026-04-06T15:10:38Z</time></trkpt><trkpt lat="33.217534244143806" lon="9.748498913465097"><ele>229.5</ele><time>2026-04-06T15:10:39Z</time></trkpt><trkpt lat="33.21779719115084" lon="9.748436447282304"><ele>230.0</ele><time>2026-04-06T15:10:40Z</time></trkpt><trkpt lat="33.21805582778981" lon="9.748372954186191"><ele>229.5</ele><time>2026-04-06T15:10:41Z</time></trkpt><trkpt lat="33.218305320750126" lon="9.748307407948555"><ele>229.0</ele><time>2026-04-06T15:10:42Z</time></trkpt><trkpt lat="33.21855246575081" lon="9.748234305928438"><ele>229.0</ele><time>2026-04-06T15:10:43Z</time></trkpt><trkpt lat="33.218797654149974" lon="9.748160163187423"><ele>229.0</ele><time>2026-04-06T15:10:44Z</time></trkpt><trkpt lat="33.219034496922845" lon="9.74807933469562"><ele>229.0</ele><time>2026-04-06T15:10:45Z</time></trkpt><trkpt lat="33.21927036771187" lon="9.747998168277558"><ele>229.0</ele><time>2026-04-06T15:10:46Z</time></trkpt><trkpt lat="33.21950331728725" lon="9.747920173604028"><ele>229.0</ele><time>2026-04-06T15:10:47Z</time></trkpt><trkpt lat="33.21972807444361" lon="9.747852170093523"><ele>229.0</ele><time>2026-04-06T15:10:48Z</time></trkpt><trkpt lat="33.21994982414712" lon="9.747791694256838"><ele>228.33333333333331</ele><time>2026-04-06T15:10:49Z</time></trkpt><trkpt lat="33.22016105721945" lon="9.747738295681753"><ele>227.66666666666669</ele><time>2026-04-06T15:10:50Z</time></trkpt><trkpt lat="33.220377144704536" lon="9.747685651552633"><ele>227.0</ele><time>2026-04-06T15:10:51Z</time></trkpt><trkpt lat="33.22058588437246" lon="9.747637016754883"><ele>227.33333333333334</ele><time>2026-04-06T15:10:52Z</time></trkpt><trkpt lat="33.220798918903874" lon="9.747588974717598"><ele>227.66666666666669</ele><time>2026-04-06T15:10:52.999Z</time></trkpt><trkpt lat="33.22101185358245" lon="9.74753255065337"><ele>228.0</ele><time>2026-04-06T15:10:53.999Z</time></trkpt><trkpt lat="33.22123451156435" lon="9.747474493403574"><ele>228.0</ele><time>2026-04-06T15:10:54.999Z</time></trkpt><trkpt lat="33.221464825175374" lon="9.747414084125404"><ele>228.0</ele><time>2026-04-06T15:10:55.999Z</time></trkpt><trkpt lat="33.221698254803854" lon="9.747358797288744"><ele>228.5</ele><time>2026-04-06T15:10:56.999Z</time></trkpt><trkpt lat="33.22194030382499" lon="9.74730666605227"><ele>229.0</ele><time>2026-04-06T15:10:57.999Z</time></trkpt><trkpt lat="33.22218611542843" lon="9.74725498304208"><ele>229.0</ele><time>2026-04-06T15:10:58.999Z</time></trkpt><trkpt lat="33.2224355988252" lon="9.74720793011216"><ele>229.0</ele><time>2026-04-06T15:10:59.999Z</time></trkpt><trkpt lat="33.22268760231226" lon="9.747159317644535"><ele>229.0</ele><time>2026-04-06T15:11:00.999Z</time></trkpt><trkpt lat="33.22294624546206" lon="9.74711041763153"><ele>229.0</ele><time>2026-04-06T15:11:01.999Z</time></trkpt><trkpt lat="33.2232008622721" lon="9.747060485281732"><ele>229.0</ele><time>2026-04-06T15:11:02.999Z</time></trkpt><trkpt lat="33.22345937267131" lon="9.747016594789123"><ele>229.0</ele><time>2026-04-06T15:11:03.999Z</time></trkpt><trkpt lat="33.2237158251342" lon="9.746977187501109"><ele>229.0</ele><time>2026-04-06T15:11:04.999Z</time></trkpt><trkpt lat="33.22397282980195" lon="9.746937313806615"><ele>229.0</ele><time>2026-04-06T15:11:05.999Z</time></trkpt><trkpt lat="33.2242307389863" lon="9.746891841800737"><ele>228.5</ele><time>2026-04-06T15:11:06.999Z</time></trkpt><trkpt lat="33.22448834500032" lon="9.746843016804474"><ele>228.0</ele><time>2026-04-06T15:11:07.999Z</time></trkpt><trkpt lat="33.2247429036503" lon="9.746790665168074"><ele>228.0</ele><time>2026-04-06T15:11:08.999Z</time></trkpt><trkpt lat="33.22499755248735" lon="9.746740311890903"><ele>228.0</ele><time>2026-04-06T15:11:09.999Z</time></trkpt><trkpt lat="33.22525260107028" lon="9.746692711761694"><ele>228.0</ele><time>2026-04-06T15:11:10.999Z</time></trkpt><trkpt lat="33.22550942350753" lon="9.746644389498119"><ele>228.0</ele><time>2026-04-06T15:11:11.999Z</time></trkpt><trkpt lat="33.22576269931644" lon="9.74659818028056"><ele>227.0</ele><time>2026-04-06T15:11:12.999Z</time></trkpt><trkpt lat="33.22601355512812" lon="9.746555226497614"><ele>226.0</ele><time>2026-04-06T15:11:13.999Z</time></trkpt><trkpt lat="33.22626123738166" lon="9.74651094419006"><ele>227.0</ele><time>2026-04-06T15:11:14.999Z</time></trkpt><trkpt lat="33.226499256096794" lon="9.746466028332545"><ele>228.0</ele><time>2026-04-06T15:11:15.999Z</time></trkpt><trkpt lat="33.22673066749836" lon="9.746423903743437"><ele>228.0</ele><time>2026-04-06T15:11:16.999Z</time></trkpt><trkpt lat="33.22696066824151" lon="9.746386102552021"><ele>228.0</ele><time>2026-04-06T15:11:17.999Z</time></trkpt><trkpt lat="33.227200238932355" lon="9.746341682934482"><ele>227.33333333333331</ele><time>2026-04-06T15:11:18.999Z</time></trkpt><trkpt lat="33.22742237949297" lon="9.746303477245027"><ele>226.66666666666666</ele><time>2026-04-06T15:11:19.999Z</time></trkpt><trkpt lat="33.22763379086786" lon="9.746259351500251"><ele>226.0</ele><time>2026-04-06T15:11:20.999Z</time></trkpt><trkpt lat="33.22784627471119" lon="9.746222125319877"><ele>226.0</ele><time>2026-04-06T15:11:21.999Z</time></trkpt><trkpt lat="33.22804001381985" lon="9.746189406354805"><ele>226.0</ele><time>2026-04-06T15:11:22.999Z</time></trkpt><trkpt lat="33.22823243054051" lon="9.746158289893268"><ele>226.0</ele><time>2026-04-06T15:11:23.999Z</time></trkpt><trkpt lat="33.22842032049177" lon="9.746130852860562"><ele>225.66666666666666</ele><time>2026-04-06T15:11:24.999Z</time></trkpt><trkpt lat="33.228608845409966" lon="9.746099484317117"><ele>225.33333333333331</ele><time>2026-04-06T15:11:25.999Z</time></trkpt><trkpt lat="33.22881554630008" lon="9.74607216381753"><ele>225.0</ele><time>2026-04-06T15:11:26.999Z</time></trkpt><trkpt lat="33.22902832479568" lon="9.746041898339003"><ele>225.66666666666669</ele><time>2026-04-06T15:11:27.999Z</time></trkpt><trkpt lat="33.229251180727125" lon="9.74601027499151"><ele>226.33333333333334</ele><time>2026-04-06T15:11:28.999Z</time></trkpt><trkpt lat="33.2294672545644" lon="9.745975071052598"><ele>227.0</ele><time>2026-04-06T15:11:29.999Z</time></trkpt><trkpt lat="33.2296800793314" lon="9.745938676881105"><ele>226.66666666666669</ele><time>2026-04-06T15:11:30.999Z</time></trkpt><trkpt lat="33.22989669457769" lon="9.745902060074373"><ele>226.33333333333331</ele><time>2026-04-06T15:11:31.999Z</time></trkpt><trkpt lat="33.23012388557443" lon="9.745862634741181"><ele>226.0</ele><time>2026-04-06T15:11:32.999Z</time></trkpt><trkpt lat="33.23036729508168" lon="9.745818649487484"><ele>226.0</ele><time>2026-04-06T15:11:33.999Z</time></trkpt><trkpt lat="33.230604615698155" lon="9.74577196848092"><ele>226.0</ele><time>2026-04-06T15:11:34.999Z</time></trkpt><trkpt lat="33.23083326112203" lon="9.745723860006576"><ele>226.0</ele><time>2026-04-06T15:11:35.999Z</time></trkpt><trkpt lat="33.231065426571305" lon="9.745676263413346"><ele>226.0</ele><time>2026-04-06T15:11:36.999Z</time></trkpt><trkpt lat="33.231300793066545" lon="9.745626668225876"><ele>226.5</ele><time>2026-04-06T15:11:37.999Z</time></trkpt><trkpt lat="33.23154555693697" lon="9.745575848981327"><ele>227.0</ele><time>2026-04-06T15:11:38.999Z</time></trkpt><trkpt lat="33.23178495859307" lon="9.745523975813391"><ele>227.0</ele><time>2026-04-06T15:11:39.999Z</time></trkpt><trkpt lat="33.23202806145343" lon="9.7454727979336"><ele>227.0</ele><time>2026-04-06T15:11:40.999Z</time></trkpt><trkpt lat="33.23227489589531" lon="9.745423410702125"><ele>226.0</ele><time>2026-04-06T15:11:41.999Z</time></trkpt><trkpt lat="33.23252390192152" lon="9.745371987497798"><ele>225.0</ele><time>2026-04-06T15:11:42.999Z</time></trkpt><trkpt lat="33.23277247075268" lon="9.745321093924947"><ele>225.0</ele><time>2026-04-06T15:11:43.999Z</time></trkpt><trkpt lat="33.2330235477288" lon="9.745265329867205"><ele>225.0</ele><time>2026-04-06T15:11:44.999Z</time></trkpt><trkpt lat="33.23327141287507" lon="9.74521591810982"><ele>225.0</ele><time>2026-04-06T15:11:45.999Z</time></trkpt><trkpt lat="33.233520930606986" lon="9.745167552183908"><ele>225.0</ele><time>2026-04-06T15:11:46.999Z</time></trkpt><trkpt lat="33.233768884564405" lon="9.745123604873884"><ele>225.0</ele><time>2026-04-06T15:11:47.999Z</time></trkpt><trkpt lat="33.234016929612366" lon="9.745082079557037"><ele>225.0</ele><time>2026-04-06T15:11:48.999Z</time></trkpt><trkpt lat="33.234264438303256" lon="9.745037672023514"><ele>225.0</ele><time>2026-04-06T15:11:49.999Z</time></trkpt><trkpt lat="33.23451204287446" lon="9.744989567464577"><ele>225.0</ele><time>2026-04-06T15:11:50.999Z</time></trkpt><trkpt lat="33.23476268715466" lon="9.744940643171041"><ele>225.0</ele><time>2026-04-06T15:11:51.999Z</time></trkpt><trkpt lat="33.2350087156154" lon="9.744893614457588"><ele>225.0</ele><time>2026-04-06T15:11:52.999Z</time></trkpt><trkpt lat="33.23525681993452" lon="9.74484569175904"><ele>225.0</ele><time>2026-04-06T15:11:53.999Z</time></trkpt><trkpt lat="33.235502117458374" lon="9.744792222299758"><ele>225.0</ele><time>2026-04-06T15:11:54.999Z</time></trkpt><trkpt lat="33.23574778450115" lon="9.74474009911105"><ele>224.5</ele><time>2026-04-06T15:11:55.999Z</time></trkpt><trkpt lat="33.235992748832004" lon="9.744690086743743"><ele>224.0</ele><time>2026-04-06T15:11:56.999Z</time></trkpt><trkpt lat="33.23623806028509" lon="9.744639232406357"><ele>224.0</ele><time>2026-04-06T15:11:57.999Z</time></trkpt><trkpt lat="33.23648313615837" lon="9.744588011352535"><ele>224.0</ele><time>2026-04-06T15:11:58.999Z</time></trkpt><trkpt lat="33.23673150201874" lon="9.744536367589935"><ele>224.0</ele><time>2026-04-06T15:11:59.999Z</time></trkpt><trkpt lat="33.2369724157149" lon="9.744488239106811"><ele>224.0</ele><time>2026-04-06T15:12:00.999Z</time></trkpt><trkpt lat="33.23722250794105" lon="9.744437130935077"><ele>224.0</ele><time>2026-04-06T15:12:01.999Z</time></trkpt><trkpt lat="33.23747103441331" lon="9.744385826080952"><ele>224.0</ele><time>2026-04-06T15:12:02.999Z</time></trkpt><trkpt lat="33.23772078777703" lon="9.744337162422308"><ele>224.0</ele><time>2026-04-06T15:12:03.999Z</time></trkpt><trkpt lat="33.23796612813835" lon="9.74429754460323"><ele>224.0</ele><time>2026-04-06T15:12:04.999Z</time></trkpt><trkpt lat="33.23818969857438" lon="9.744278244429228"><ele>223.66666666666669</ele><time>2026-04-06T15:12:05.999Z</time></trkpt><trkpt lat="33.2383955892456" lon="9.744273887721832"><ele>223.33333333333331</ele><time>2026-04-06T15:12:06.999Z</time></trkpt><trkpt lat="33.23857297831058" lon="9.744286208912945"><ele>223.0</ele><time>2026-04-06T15:12:07.999Z</time></trkpt><trkpt lat="33.238761623261475" lon="9.744316598950773"><ele>223.0</ele><time>2026-04-06T15:12:08.999Z</time></trkpt><trkpt lat="33.23895454319816" lon="9.74436045509989"><ele>223.0</ele><time>2026-04-06T15:12:09.999Z</time></trkpt><trkpt lat="33.23912561279534" lon="9.744400411817143"><ele>223.0</ele><time>2026-04-06T15:12:10.999Z</time></trkpt><trkpt lat="33.23927334569008" lon="9.744425646600165"><ele>224.0</ele><time>2026-04-06T15:12:11.999Z</time></trkpt><trkpt lat="33.23942322994751" lon="9.74443719124439"><ele>225.0</ele><time>2026-04-06T15:12:12.999Z</time></trkpt><trkpt lat="33.239583259133795" lon="9.744441208853894"><ele>226.0</ele><time>2026-04-06T15:12:13.999Z</time></trkpt><trkpt lat="33.23975221584515" lon="9.744431661149685"><ele>225.33333333333331</ele><time>2026-04-06T15:12:14.999Z</time></trkpt><trkpt lat="33.23992645445893" lon="9.744407691853063"><ele>224.66666666666669</ele><time>2026-04-06T15:12:15.999Z</time></trkpt><trkpt lat="33.24010327283015" lon="9.744378010661944"><ele>224.0</ele><time>2026-04-06T15:12:16.999Z</time></trkpt><trkpt lat="33.2402841163312" lon="9.744340143390847"><ele>224.0</ele><time>2026-04-06T15:12:17.999Z</time></trkpt><trkpt lat="33.24046710814496" lon="9.74429967198921"><ele>224.0</ele><time>2026-04-06T15:12:18.999Z</time></trkpt><trkpt lat="33.24065469022021" lon="9.744245967385616"><ele>224.0</ele><time>2026-04-06T15:12:19.999Z</time></trkpt><trkpt lat="33.2408383308173" lon="9.744180207262652"><ele>224.33333333333334</ele><time>2026-04-06T15:12:20.999Z</time></trkpt><trkpt lat="33.2410167166471" lon="9.744098449409961"><ele>224.66666666666669</ele><time>2026-04-06T15:12:21.999Z</time></trkpt><trkpt lat="33.24119338110522" lon="9.743997775679393"><ele>225.0</ele><time>2026-04-06T15:12:22.999Z</time></trkpt><trkpt lat="33.24135612903996" lon="9.743894084652155"><ele>225.33333333333331</ele><time>2026-04-06T15:12:23.999Z</time></trkpt><trkpt lat="33.24151915774199" lon="9.743799572008866"><ele>225.66666666666666</ele><time>2026-04-06T15:12:24.999Z</time></trkpt><trkpt lat="33.24169454673142" lon="9.743710519391442"><ele>226.0</ele><time>2026-04-06T15:12:25.999Z</time></trkpt><trkpt lat="33.241881653548624" lon="9.743624740956461"><ele>226.0</ele><time>2026-04-06T15:12:26.999Z</time></trkpt><trkpt lat="33.24207518478276" lon="9.743546591971553"><ele>226.0</ele><time>2026-04-06T15:12:27.999Z</time></trkpt><trkpt lat="33.24227908294538" lon="9.743477329233844"><ele>226.0</ele><time>2026-04-06T15:12:28.999Z</time></trkpt><trkpt lat="33.24249199728659" lon="9.743412530294608"><ele>224.5</ele><time>2026-04-06T15:12:29.999Z</time></trkpt><trkpt lat="33.24271236533898" lon="9.743356126307049"><ele>223.0</ele><time>2026-04-06T15:12:30.999Z</time></trkpt><trkpt lat="33.24293454786461" lon="9.74329532286697"><ele>221.0</ele><time>2026-04-06T15:12:31.999Z</time></trkpt><trkpt lat="33.243157538160304" lon="9.743241217930773"><ele>219.0</ele><time>2026-04-06T15:12:32.999Z</time></trkpt><trkpt lat="33.24338663169946" lon="9.743190376104296"><ele>219.0</ele><time>2026-04-06T15:12:33.998Z</time></trkpt><trkpt lat="33.24361349442254" lon="9.743144917346472"><ele>219.0</ele><time>2026-04-06T15:12:34.998Z</time></trkpt><trkpt lat="33.243841333365964" lon="9.74310065226554"><ele>219.0</ele><time>2026-04-06T15:12:35.998Z</time></trkpt><trkpt lat="33.24407350981224" lon="9.743056603859381"><ele>219.0</ele><time>2026-04-06T15:12:36.998Z</time></trkpt><trkpt lat="33.244305375842785" lon="9.743011318568817"><ele>219.0</ele><time>2026-04-06T15:12:37.998Z</time></trkpt><trkpt lat="33.2445373566501" lon="9.742966866827988"><ele>219.0</ele><time>2026-04-06T15:12:38.998Z</time></trkpt><trkpt lat="33.24476786737045" lon="9.74292247939011"><ele>218.5</ele><time>2026-04-06T15:12:39.998Z</time></trkpt><trkpt lat="33.24499749232435" lon="9.742884957747062"><ele>218.0</ele><time>2026-04-06T15:12:40.998Z</time></trkpt><trkpt lat="33.245229727044716" lon="9.742845379197156"><ele>218.0</ele><time>2026-04-06T15:12:41.998Z</time></trkpt><trkpt lat="33.245462820468155" lon="9.742803358496309"><ele>218.0</ele><time>2026-04-06T15:12:42.998Z</time></trkpt><trkpt lat="33.24569088672669" lon="9.742763682881582"><ele>218.0</ele><time>2026-04-06T15:12:43.998Z</time></trkpt><trkpt lat="33.2459202584429" lon="9.742723527636038"><ele>218.0</ele><time>2026-04-06T15:12:44.998Z</time></trkpt><trkpt lat="33.246147154359804" lon="9.742686818799651"><ele>218.0</ele><time>2026-04-06T15:12:45.998Z</time></trkpt><trkpt lat="33.2463832560322" lon="9.742643462920062"><ele>218.0</ele><time>2026-04-06T15:12:46.998Z</time></trkpt><trkpt lat="33.24662253530448" lon="9.742596427807849"><ele>218.0</ele><time>2026-04-06T15:12:47.998Z</time></trkpt><trkpt lat="33.24686642457582" lon="9.742551406022185"><ele>218.0</ele><time>2026-04-06T15:12:48.998Z</time></trkpt><trkpt lat="33.24711008646689" lon="9.742513352620014"><ele>218.0</ele><time>2026-04-06T15:12:49.998Z</time></trkpt><trkpt lat="33.247360350752444" lon="9.742476804930988"><ele>218.0</ele><time>2026-04-06T15:12:50.998Z</time></trkpt><trkpt lat="33.24761202960013" lon="9.742440924099254"><ele>218.0</ele><time>2026-04-06T15:12:51.998Z</time></trkpt><trkpt lat="33.24786652054465" lon="9.74240573494859"><ele>218.0</ele><time>2026-04-06T15:12:52.998Z</time></trkpt><trkpt lat="33.248122149937494" lon="9.742367866370646"><ele>218.0</ele><time>2026-04-06T15:12:53.998Z</time></trkpt><trkpt lat="33.248386327666665" lon="9.742314992239846"><ele>218.0</ele><time>2026-04-06T15:12:54.998Z</time></trkpt><trkpt lat="33.24864533261746" lon="9.742270526257435"><ele>218.0</ele><time>2026-04-06T15:12:55.998Z</time></trkpt><trkpt lat="33.248904816333045" lon="9.742233673500765"><ele>218.0</ele><time>2026-04-06T15:12:56.998Z</time></trkpt><trkpt lat="33.2491656390208" lon="9.742201177200393"><ele>218.0</ele><time>2026-04-06T15:12:57.998Z</time></trkpt><trkpt lat="33.24942475161856" lon="9.742166586102648"><ele>218.0</ele><time>2026-04-06T15:12:58.998Z</time></trkpt><trkpt lat="33.24968600156573" lon="9.742137065631365"><ele>218.5</ele><time>2026-04-06T15:12:59.998Z</time></trkpt><trkpt lat="33.24994472560052" lon="9.742108494947685"><ele>219.0</ele><time>2026-04-06T15:13:00.998Z</time></trkpt><trkpt lat="33.25020241665696" lon="9.7420765507991"><ele>219.0</ele><time>2026-04-06T15:13:01.999Z</time></trkpt><trkpt lat="33.25045458806536" lon="9.742045573804742"><ele>219.0</ele><time>2026-04-06T15:13:02.999Z</time></trkpt><trkpt lat="33.250699328800195" lon="9.742012012695804"><ele>219.0</ele><time>2026-04-06T15:13:03.999Z</time></trkpt><trkpt lat="33.250931705821884" lon="9.741978292646014"><ele>219.0</ele><time>2026-04-06T15:13:04.999Z</time></trkpt><trkpt lat="33.25115229694877" lon="9.741943549298485"><ele>219.0</ele><time>2026-04-06T15:13:05.999Z</time></trkpt><trkpt lat="33.251375540311" lon="9.741906627293064"><ele>219.0</ele><time>2026-04-06T15:13:06.999Z</time></trkpt><trkpt lat="33.25158868895821" lon="9.741864553596063"><ele>219.0</ele><time>2026-04-06T15:13:07.999Z</time></trkpt><trkpt lat="33.25179929761768" lon="9.741834274686958"><ele>218.66666666666669</ele><time>2026-04-06T15:13:08.999Z</time></trkpt><trkpt lat="33.2520081616766" lon="9.741796769559832"><ele>218.33333333333334</ele><time>2026-04-06T15:13:09.999Z</time></trkpt><trkpt lat="33.2522081575073" lon="9.741758718882101"><ele>218.0</ele><time>2026-04-06T15:13:10.999Z</time></trkpt><trkpt lat="33.252396956467344" lon="9.741728933600509"><ele>219.0</ele><time>2026-04-06T15:13:11.999Z</time></trkpt><trkpt lat="33.25259360856153" lon="9.741707106773319"><ele>220.0</ele><time>2026-04-06T15:13:12.999Z</time></trkpt><trkpt lat="33.25278576986351" lon="9.741701327788878"><ele>221.0</ele><time>2026-04-06T15:13:13.999Z</time></trkpt><trkpt lat="33.252994983811384" lon="9.741704658026498"><ele>220.33333333333334</ele><time>2026-04-06T15:13:14.999Z</time></trkpt><trkpt lat="33.25319617412296" lon="9.741707752720233"><ele>219.66666666666669</ele><time>2026-04-06T15:13:15.999Z</time></trkpt><trkpt lat="33.25339282879327" lon="9.741706791089737"><ele>219.0</ele><time>2026-04-06T15:13:16.999Z</time></trkpt><trkpt lat="33.25360198367741" lon="9.741699221042303"><ele>219.0</ele><time>2026-04-06T15:13:17.999Z</time></trkpt><trkpt lat="33.25381837379082" lon="9.741683418480205"><ele>219.0</ele><time>2026-04-06T15:13:18.999Z</time></trkpt><trkpt lat="33.25403999242124" lon="9.741660489011917"><ele>219.0</ele><time>2026-04-06T15:13:19.999Z</time></trkpt><trkpt lat="33.25426961725253" lon="9.741629580648699"><ele>220.5</ele><time>2026-04-06T15:13:20.999Z</time></trkpt><trkpt lat="33.25450412443196" lon="9.741594034476083"><ele>222.0</ele><time>2026-04-06T15:13:21.999Z</time></trkpt><trkpt lat="33.25474250921188" lon="9.741551954437748"><ele>221.5</ele><time>2026-04-06T15:13:22.999Z</time></trkpt><trkpt lat="33.25498237217612" lon="9.741506455497635"><ele>221.0</ele><time>2026-04-06T15:13:23.999Z</time></trkpt><trkpt lat="33.25522827976151" lon="9.741456258007322"><ele>221.0</ele><time>2026-04-06T15:13:24.999Z</time></trkpt><trkpt lat="33.255477247824" lon="9.741404411061088"><ele>221.0</ele><time>2026-04-06T15:13:25.999Z</time></trkpt><trkpt lat="33.255728166720985" lon="9.741357501547462"><ele>221.5</ele><time>2026-04-06T15:13:26.999Z</time></trkpt><trkpt lat="33.25597953500495" lon="9.741314136360128"><ele>222.0</ele><time>2026-04-06T15:13:27.999Z</time></trkpt><trkpt lat="33.25623397667947" lon="9.741270589728913"><ele>221.5</ele><time>2026-04-06T15:13:28.999Z</time></trkpt><trkpt lat="33.256487078554024" lon="9.741223737911067"><ele>221.0</ele><time>2026-04-06T15:13:29.999Z</time></trkpt><trkpt lat="33.256738082388104" lon="9.741176560328427"><ele>221.0</ele><time>2026-04-06T15:13:30.999Z</time></trkpt><trkpt lat="33.25699376797006" lon="9.741128061509768"><ele>221.0</ele><time>2026-04-06T15:13:31.999Z</time></trkpt><trkpt lat="33.25724522291063" lon="9.741080919749283"><ele>220.5</ele><time>2026-04-06T15:13:32.999Z</time></trkpt><trkpt lat="33.25749422295106" lon="9.74102777841605"><ele>220.0</ele><time>2026-04-06T15:13:33.999Z</time></trkpt><trkpt lat="33.25774112275717" lon="9.74096909181253"><ele>220.0</ele><time>2026-04-06T15:13:34.999Z</time></trkpt><trkpt lat="33.25798934909063" lon="9.740915938889607"><ele>220.0</ele><time>2026-04-06T15:13:35.999Z</time></trkpt><trkpt lat="33.258240316430815" lon="9.740870908182455"><ele>221.0</ele><time>2026-04-06T15:13:36.999Z</time></trkpt><trkpt lat="33.25849678681714" lon="9.740826412809568"><ele>222.0</ele><time>2026-04-06T15:13:37.999Z</time></trkpt><trkpt lat="33.25875155176209" lon="9.740780971127673"><ele>222.0</ele><time>2026-04-06T15:13:38.999Z</time></trkpt><trkpt lat="33.25899863495587" lon="9.740736137031435"><ele>222.0</ele><time>2026-04-06T15:13:39.999Z</time></trkpt><trkpt lat="33.259253353598844" lon="9.740691286765372"><ele>222.0</ele><time>2026-04-06T15:13:40.999Z</time></trkpt><trkpt lat="33.259502876279214" lon="9.740651053615668"><ele>222.0</ele><time>2026-04-06T15:13:41.999Z</time></trkpt><trkpt lat="33.259752241280715" lon="9.740607461212651"><ele>222.5</ele><time>2026-04-06T15:13:42.999Z</time></trkpt><trkpt lat="33.26000380082464" lon="9.74055947496813"><ele>223.0</ele><time>2026-04-06T15:13:43.999Z</time></trkpt><trkpt lat="33.26025131804222" lon="9.740505324591188"><ele>223.0</ele><time>2026-04-06T15:13:44.999Z</time></trkpt><trkpt lat="33.26050161860995" lon="9.740452391825968"><ele>223.0</ele><time>2026-04-06T15:13:45.999Z</time></trkpt><trkpt lat="33.26074956224798" lon="9.740402352862862"><ele>222.0</ele><time>2026-04-06T15:13:46.999Z</time></trkpt><trkpt lat="33.261000639848156" lon="9.740356425100071"><ele>221.0</ele><time>2026-04-06T15:13:47.999Z</time></trkpt><trkpt lat="33.261248646729435" lon="9.740309938284245"><ele>221.0</ele><time>2026-04-06T15:13:48.999Z</time></trkpt><trkpt lat="33.26149604361168" lon="9.740265729618711"><ele>221.0</ele><time>2026-04-06T15:13:49.999Z</time></trkpt><trkpt lat="33.26174587842607" lon="9.740219010960532"><ele>221.5</ele><time>2026-04-06T15:13:50.999Z</time></trkpt><trkpt lat="33.26199513186968" lon="9.740172638424808"><ele>222.0</ele><time>2026-04-06T15:13:51.999Z</time></trkpt><trkpt lat="33.26224421690796" lon="9.740125500183932"><ele>222.5</ele><time>2026-04-06T15:13:52.999Z</time></trkpt><trkpt lat="33.26249492689568" lon="9.74007794476323"><ele>223.0</ele><time>2026-04-06T15:13:53.999Z</time></trkpt><trkpt lat="33.262742799391546" lon="9.740032953829255"><ele>223.0</ele><time>2026-04-06T15:13:54.999Z</time></trkpt><trkpt lat="33.2629917611181" lon="9.739989370119138"><ele>223.0</ele><time>2026-04-06T15:13:55.999Z</time></trkpt><trkpt lat="33.263244804228414" lon="9.739946048620698"><ele>222.5</ele><time>2026-04-06T15:13:56.999Z</time></trkpt><trkpt lat="33.2634907031287" lon="9.739892843914586"><ele>222.0</ele><time>2026-04-06T15:13:57.999Z</time></trkpt><trkpt lat="33.26373310116176" lon="9.739834413594444"><ele>220.5</ele><time>2026-04-06T15:13:58.999Z</time></trkpt><trkpt lat="33.263962367787364" lon="9.739784894436418"><ele>219.0</ele><time>2026-04-06T15:13:59.999Z</time></trkpt><trkpt lat="33.26417664614119" lon="9.739742282324155"><ele>219.0</ele><time>2026-04-06T15:14:00.999Z</time></trkpt><trkpt lat="33.26438618417367" lon="9.739699982849606"><ele>219.0</ele><time>2026-04-06T15:14:01.999Z</time></trkpt><trkpt lat="33.26458555862317" lon="9.739658172970143"><ele>219.0</ele><time>2026-04-06T15:14:02.999Z</time></trkpt><trkpt lat="33.264773618879" lon="9.739619984278002"><ele>219.0</ele><time>2026-04-06T15:14:03.999Z</time></trkpt><trkpt lat="33.264964316912554" lon="9.739582039511708"><ele>219.0</ele><time>2026-04-06T15:14:04.999Z</time></trkpt><trkpt lat="33.265158709914076" lon="9.739544745819288"><ele>219.0</ele><time>2026-04-06T15:14:05.999Z</time></trkpt><trkpt lat="33.26535307065589" lon="9.739509497584608"><ele>219.0</ele><time>2026-04-06T15:14:06.999Z</time></trkpt><trkpt lat="33.26554409022287" lon="9.739472518964767"><ele>219.0</ele><time>2026-04-06T15:14:07.999Z</time></trkpt><trkpt lat="33.2657360649719" lon="9.739437146914529"><ele>219.0</ele><time>2026-04-06T15:14:08.999Z</time></trkpt><trkpt lat="33.265922835946434" lon="9.739403872234755"><ele>219.33333333333331</ele><time>2026-04-06T15:14:09.999Z</time></trkpt><trkpt lat="33.26609664181506" lon="9.739375054498383"><ele>219.66666666666666</ele><time>2026-04-06T15:14:10.999Z</time></trkpt><trkpt lat="33.26625422968739" lon="9.739348111228127"><ele>220.0</ele><time>2026-04-06T15:14:11.999Z</time></trkpt><trkpt lat="33.266424330463934" lon="9.739316650602959"><ele>220.0</ele><time>2026-04-06T15:14:12.999Z</time></trkpt><trkpt lat="33.26662242013045" lon="9.73927859172236"><ele>220.0</ele><time>2026-04-06T15:14:13.999Z</time></trkpt><trkpt lat="33.26683298631079" lon="9.739240620025631"><ele>220.0</ele><time>2026-04-06T15:14:14.999Z</time></trkpt><trkpt lat="33.26702400302492" lon="9.73920551593545"><ele>220.0</ele><time>2026-04-06T15:14:15.999Z</time></trkpt><trkpt lat="33.267214181332044" lon="9.739169611992814"><ele>220.0</ele><time>2026-04-06T15:14:16.999Z</time></trkpt><trkpt lat="33.267406716097234" lon="9.739136253905329"><ele>220.0</ele><time>2026-04-06T15:14:17.999Z</time></trkpt><trkpt lat="33.267596058256174" lon="9.739099346661147"><ele>220.0</ele><time>2026-04-06T15:14:18.999Z</time></trkpt><trkpt lat="33.267779650020024" lon="9.739056398670446"><ele>220.0</ele><time>2026-04-06T15:14:19.999Z</time></trkpt><trkpt lat="33.26794604835782" lon="9.739022114681811"><ele>220.0</ele><time>2026-04-06T15:14:20.999Z</time></trkpt><trkpt lat="33.26810838359249" lon="9.73899080278807"><ele>220.0</ele><time>2026-04-06T15:14:21.999Z</time></trkpt><trkpt lat="33.26827715983135" lon="9.738961344658167"><ele>220.0</ele><time>2026-04-06T15:14:22.999Z</time></trkpt><trkpt lat="33.268455345198255" lon="9.738933695424834"><ele>220.0</ele><time>2026-04-06T15:14:23.999Z</time></trkpt><trkpt lat="33.268641352394106" lon="9.738900360779281"><ele>220.0</ele><time>2026-04-06T15:14:24.999Z</time></trkpt><trkpt lat="33.268840376075694" lon="9.738866194229203"><ele>220.0</ele><time>2026-04-06T15:14:25.999Z</time></trkpt><trkpt lat="33.269052328239425" lon="9.738825508242236"><ele>220.0</ele><time>2026-04-06T15:14:26.999Z</time></trkpt><trkpt lat="33.269263185133376" lon="9.738780299186757"><ele>220.0</ele><time>2026-04-06T15:14:27.999Z</time></trkpt><trkpt lat="33.26948104389338" lon="9.738735109740322"><ele>220.0</ele><time>2026-04-06T15:14:28.999Z</time></trkpt><trkpt lat="33.26968178771615" lon="9.738693927019888"><ele>220.0</ele><time>2026-04-06T15:14:29.999Z</time></trkpt><trkpt lat="33.26988138946916" lon="9.738656062806504"><ele>219.66666666666666</ele><time>2026-04-06T15:14:30.999Z</time></trkpt><trkpt lat="33.270079776937955" lon="9.738620447568412"><ele>219.33333333333331</ele><time>2026-04-06T15:14:31.999Z</time></trkpt><trkpt lat="33.270280537180675" lon="9.738583217834963"><ele>219.0</ele><time>2026-04-06T15:14:32.999Z</time></trkpt><trkpt lat="33.270483154568225" lon="9.738542563245419"><ele>218.0</ele><time>2026-04-06T15:14:33.999Z</time></trkpt><trkpt lat="33.27068556542441" lon="9.738500016670839"><ele>217.0</ele><time>2026-04-06T15:14:34.999Z</time></trkpt><trkpt lat="33.27089742017074" lon="9.738459121144682"><ele>216.0</ele><time>2026-04-06T15:14:35.998Z</time></trkpt><trkpt lat="33.27111446714195" lon="9.738416243964494"><ele>216.0</ele><time>2026-04-06T15:14:36.998Z</time></trkpt><trkpt lat="33.271332807745544" lon="9.73837259960802"><ele>216.0</ele><time>2026-04-06T15:14:37.998Z</time></trkpt><trkpt lat="33.27155650570865" lon="9.738327848719349"><ele>216.0</ele><time>2026-04-06T15:14:38.998Z</time></trkpt><trkpt lat="33.2717756791321" lon="9.738283750159255"><ele>216.0</ele><time>2026-04-06T15:14:39.998Z</time></trkpt><trkpt lat="33.27198693556972" lon="9.738240333663025"><ele>216.0</ele><time>2026-04-06T15:14:40.998Z</time></trkpt><trkpt lat="33.27219824622267" lon="9.73820347199673"><ele>216.0</ele><time>2026-04-06T15:14:41.998Z</time></trkpt><trkpt lat="33.272400959691765" lon="9.738168798184462"><ele>216.33333333333331</ele><time>2026-04-06T15:14:42.998Z</time></trkpt><trkpt lat="33.27260456210188" lon="9.738127183284687"><ele>216.66666666666666</ele><time>2026-04-06T15:14:43.998Z</time></trkpt><trkpt lat="33.27281154488744" lon="9.738083851650373"><ele>217.0</ele><time>2026-04-06T15:14:44.998Z</time></trkpt><trkpt lat="33.273025596082256" lon="9.73804054253444"><ele>217.0</ele><time>2026-04-06T15:14:45.998Z</time></trkpt><trkpt lat="33.27323874130698" lon="9.737998554203854"><ele>217.0</ele><time>2026-04-06T15:14:46.998Z</time></trkpt><trkpt lat="33.27345857759852" lon="9.737955540056914"><ele>217.0</ele><time>2026-04-06T15:14:47.998Z</time></trkpt><trkpt lat="33.27367331806371" lon="9.737912616386705"><ele>217.0</ele><time>2026-04-06T15:14:48.998Z</time></trkpt><trkpt lat="33.273889373149835" lon="9.73787145343488"><ele>217.0</ele><time>2026-04-06T15:14:49.998Z</time></trkpt><trkpt lat="33.27410535800107" lon="9.737833000905866"><ele>217.0</ele><time>2026-04-06T15:14:50.998Z</time></trkpt><trkpt lat="33.27432519371975" lon="9.737793400454635"><ele>216.5</ele><time>2026-04-06T15:14:51.998Z</time></trkpt><trkpt lat="33.2745492986458" lon="9.737755599334598"><ele>216.0</ele><time>2026-04-06T15:14:52.998Z</time></trkpt><trkpt lat="33.274781895744226" lon="9.737712063335874"><ele>215.5</ele><time>2026-04-06T15:14:53.998Z</time></trkpt><trkpt lat="33.2750193065294" lon="9.737660298001762"><ele>215.0</ele><time>2026-04-06T15:14:54.998Z</time></trkpt><trkpt lat="33.27526127213154" lon="9.737609515877182"><ele>215.0</ele><time>2026-04-06T15:14:55.998Z</time></trkpt><trkpt lat="33.27551475314498" lon="9.737559685691084"><ele>215.0</ele><time>2026-04-06T15:14:56.998Z</time></trkpt><trkpt lat="33.2757706000792" lon="9.737509490769447"><ele>214.0</ele><time>2026-04-06T15:14:57.998Z</time></trkpt><trkpt lat="33.276035226552814" lon="9.737459799918955"><ele>213.0</ele><time>2026-04-06T15:14:58.998Z</time></trkpt><trkpt lat="33.276304983787085" lon="9.73740378038444"><ele>213.5</ele><time>2026-04-06T15:14:59.998Z</time></trkpt><trkpt lat="33.276571615407654" lon="9.737351144965814"><ele>214.0</ele><time>2026-04-06T15:15:00.998Z</time></trkpt><trkpt lat="33.27684178300628" lon="9.73729897235549"><ele>214.0</ele><time>2026-04-06T15:15:01.998Z</time></trkpt><trkpt lat="33.27711259042517" lon="9.737243955006265"><ele>214.0</ele><time>2026-04-06T15:15:02.998Z</time></trkpt><trkpt lat="33.27737632199036" lon="9.73719094153718"><ele>214.0</ele><time>2026-04-06T15:15:03.998Z</time></trkpt><trkpt lat="33.277643441196346" lon="9.737138402245138"><ele>214.0</ele><time>2026-04-06T15:15:04.998Z</time></trkpt><trkpt lat="33.2779068056139" lon="9.73709072933799"><ele>214.5</ele><time>2026-04-06T15:15:05.998Z</time></trkpt><trkpt lat="33.278163388773876" lon="9.737048191665231"><ele>215.0</ele><time>2026-04-06T15:15:06.998Z</time></trkpt><trkpt lat="33.278417633393616" lon="9.737002008883566"><ele>215.0</ele><time>2026-04-06T15:15:07.999Z</time></trkpt><trkpt lat="33.278676091486346" lon="9.736952265504737"><ele>215.0</ele><time>2026-04-06T15:15:08.999Z</time></trkpt><trkpt lat="33.27894228401849" lon="9.73690298761427"><ele>215.5</ele><time>2026-04-06T15:15:09.999Z</time></trkpt><trkpt lat="33.279208514818905" lon="9.736854523318517"><ele>216.0</ele><time>2026-04-06T15:15:10.999Z</time></trkpt><trkpt lat="33.27947526692675" lon="9.736801186969428"><ele>216.0</ele><time>2026-04-06T15:15:11.999Z</time></trkpt><trkpt lat="33.279738724062376" lon="9.736748429256552"><ele>216.0</ele><time>2026-04-06T15:15:12.999Z</time></trkpt><trkpt lat="33.28000277874106" lon="9.736693951100237"><ele>215.5</ele><time>2026-04-06T15:15:13.999Z</time></trkpt><trkpt lat="33.280269417216736" lon="9.73663910029451"><ele>215.0</ele><time>2026-04-06T15:15:14.999Z</time></trkpt><trkpt lat="33.280535666255915" lon="9.736587262927237"><ele>214.0</ele><time>2026-04-06T15:15:15.999Z</time></trkpt><trkpt lat="33.28080187879997" lon="9.736535967101496"><ele>213.0</ele><time>2026-04-06T15:15:16.999Z</time></trkpt><trkpt lat="33.28106724596527" lon="9.736481545568697"><ele>213.0</ele><time>2026-04-06T15:15:17.999Z</time></trkpt><trkpt lat="33.28133153218675" lon="9.736425496346818"><ele>213.0</ele><time>2026-04-06T15:15:18.999Z</time></trkpt><trkpt lat="33.28159646531531" lon="9.736372278569375"><ele>213.5</ele><time>2026-04-06T15:15:19.999Z</time></trkpt><trkpt lat="33.28185346248676" lon="9.736321653893196"><ele>214.0</ele><time>2026-04-06T15:15:20.999Z</time></trkpt><trkpt lat="33.28211027422115" lon="9.736275210185275"><ele>214.5</ele><time>2026-04-06T15:15:21.999Z</time></trkpt><trkpt lat="33.28236591681741" lon="9.736230759349288"><ele>215.0</ele><time>2026-04-06T15:15:22.999Z</time></trkpt><trkpt lat="33.28261798193262" lon="9.736188205677102"><ele>215.0</ele><time>2026-04-06T15:15:23.999Z</time></trkpt><trkpt lat="33.282869948039156" lon="9.736144460680451"><ele>215.0</ele><time>2026-04-06T15:15:24.999Z</time></trkpt><trkpt lat="33.28311593912357" lon="9.736098317855072"><ele>214.0</ele><time>2026-04-06T15:15:25.999Z</time></trkpt><trkpt lat="33.283363081248844" lon="9.736049669384034"><ele>213.0</ele><time>2026-04-06T15:15:26.999Z</time></trkpt><trkpt lat="33.2836118282012" lon="9.735999097742136"><ele>213.0</ele><time>2026-04-06T15:15:27.999Z</time></trkpt><trkpt lat="33.283848185632216" lon="9.735951635377141"><ele>213.0</ele><time>2026-04-06T15:15:28.999Z</time></trkpt><trkpt lat="33.28407548763947" lon="9.735908025521587"><ele>212.0</ele><time>2026-04-06T15:15:29.999Z</time></trkpt><trkpt lat="33.28429592143963" lon="9.735864920321013"><ele>211.0</ele><time>2026-04-06T15:15:30.999Z</time></trkpt><trkpt lat="33.28451226021575" lon="9.735824126185658"><ele>210.0</ele><time>2026-04-06T15:15:31.999Z</time></trkpt><trkpt lat="33.28473296753822" lon="9.735783931007562"><ele>209.5</ele><time>2026-04-06T15:15:32.999Z</time></trkpt><trkpt lat="33.28495532401184" lon="9.735741848964034"><ele>209.0</ele><time>2026-04-06T15:15:33.999Z</time></trkpt><trkpt lat="33.28518308980026" lon="9.735696064453354"><ele>209.0</ele><time>2026-04-06T15:15:34.999Z</time></trkpt><trkpt lat="33.28540694216868" lon="9.735649649383985"><ele>209.0</ele><time>2026-04-06T15:15:35.999Z</time></trkpt><trkpt lat="33.28563253417139" lon="9.735600236469551"><ele>208.5</ele><time>2026-04-06T15:15:36.999Z</time></trkpt><trkpt lat="33.285853995360554" lon="9.735552503413777"><ele>208.0</ele><time>2026-04-06T15:15:37.999Z</time></trkpt><trkpt lat="33.28607900452334" lon="9.735500769810363"><ele>208.0</ele><time>2026-04-06T15:15:38.999Z</time></trkpt><trkpt lat="33.28630579134451" lon="9.735452902091845"><ele>208.0</ele><time>2026-04-06T15:15:39.999Z</time></trkpt><trkpt lat="33.286535949798456" lon="9.735406160070944"><ele>208.0</ele><time>2026-04-06T15:15:40.999Z</time></trkpt><trkpt lat="33.286759484897544" lon="9.735361847471937"><ele>208.0</ele><time>2026-04-06T15:15:41.999Z</time></trkpt><trkpt lat="33.28698018338227" lon="9.73531945573959"><ele>208.0</ele><time>2026-04-06T15:15:42.999Z</time></trkpt><trkpt lat="33.287207751352646" lon="9.735274010421026"><ele>208.0</ele><time>2026-04-06T15:15:43.999Z</time></trkpt><trkpt lat="33.287438758130975" lon="9.735231605912011"><ele>208.0</ele><time>2026-04-06T15:15:44.999Z</time></trkpt><trkpt lat="33.28767156394489" lon="9.7351890646906"><ele>208.0</ele><time>2026-04-06T15:15:45.999Z</time></trkpt><trkpt lat="33.28790727685846" lon="9.735141384260961"><ele>208.5</ele><time>2026-04-06T15:15:46.999Z</time></trkpt><trkpt lat="33.28813521122221" lon="9.735093437043533"><ele>209.0</ele><time>2026-04-06T15:15:47.999Z</time></trkpt><trkpt lat="33.28836248893938" lon="9.735050252687452"><ele>209.0</ele><time>2026-04-06T15:15:48.999Z</time></trkpt><trkpt lat="33.28858569739825" lon="9.735006216409634"><ele>209.0</ele><time>2026-04-06T15:15:49.999Z</time></trkpt><trkpt lat="33.28880169525673" lon="9.734963366477334"><ele>209.0</ele><time>2026-04-06T15:15:50.999Z</time></trkpt><trkpt lat="33.289018493865136" lon="9.73491978091334"><ele>209.0</ele><time>2026-04-06T15:15:51.999Z</time></trkpt><trkpt lat="33.28923117436596" lon="9.734875930166503"><ele>209.0</ele><time>2026-04-06T15:15:52.999Z</time></trkpt><trkpt lat="33.2894450371455" lon="9.734834722543226"><ele>209.0</ele><time>2026-04-06T15:15:53.999Z</time></trkpt><trkpt lat="33.289661843538255" lon="9.734797903252646"><ele>209.0</ele><time>2026-04-06T15:15:54.999Z</time></trkpt><trkpt lat="33.28988113238309" lon="9.734760325635614"><ele>209.0</ele><time>2026-04-06T15:15:55.999Z</time></trkpt><trkpt lat="33.29009401588878" lon="9.734718698657499"><ele>209.0</ele><time>2026-04-06T15:15:56.999Z</time></trkpt><trkpt lat="33.290316793695375" lon="9.734680281251046"><ele>209.0</ele><time>2026-04-06T15:15:57.999Z</time></trkpt><trkpt lat="33.2905372997591" lon="9.734639299932319"><ele>209.0</ele><time>2026-04-06T15:15:58.999Z</time></trkpt><trkpt lat="33.29077325898314" lon="9.734594086314457"><ele>209.0</ele><time>2026-04-06T15:15:59.999Z</time></trkpt><trkpt lat="33.29100911733001" lon="9.734550777090657"><ele>209.0</ele><time>2026-04-06T15:16:00.999Z</time></trkpt><trkpt lat="33.29124064159999" lon="9.734510012373596"><ele>210.5</ele><time>2026-04-06T15:16:01.999Z</time></trkpt><trkpt lat="33.291465937667084" lon="9.734470013812622"><ele>212.0</ele><time>2026-04-06T15:16:02.999Z</time></trkpt><trkpt lat="33.291690490188905" lon="9.734432784448046"><ele>212.0</ele><time>2026-04-06T15:16:03.999Z</time></trkpt><trkpt lat="33.29191258048502" lon="9.73439410255719"><ele>212.0</ele><time>2026-04-06T15:16:04.999Z</time></trkpt><trkpt lat="33.29213451837455" lon="9.734356355821687"><ele>212.0</ele><time>2026-04-06T15:16:05.999Z</time></trkpt><trkpt lat="33.29234935879287" lon="9.7343188637465"><ele>212.33333333333334</ele><time>2026-04-06T15:16:06.999Z</time></trkpt><trkpt lat="33.29256061940745" lon="9.734279782262485"><ele>212.66666666666669</ele><time>2026-04-06T15:16:07.999Z</time></trkpt><trkpt lat="33.29277488844356" lon="9.734235039993646"><ele>213.0</ele><time>2026-04-06T15:16:08.999Z</time></trkpt><trkpt lat="33.29298832289995" lon="9.73419229293997"><ele>213.0</ele><time>2026-04-06T15:16:09.999Z</time></trkpt><trkpt lat="33.29320479201071" lon="9.734151494141747"><ele>213.0</ele><time>2026-04-06T15:16:10.999Z</time></trkpt><trkpt lat="33.293418795966915" lon="9.734112405817749"><ele>213.0</ele><time>2026-04-06T15:16:11.999Z</time></trkpt><trkpt lat="33.29363585154072" lon="9.734072601184852"><ele>213.0</ele><time>2026-04-06T15:16:12.999Z</time></trkpt><trkpt lat="33.29385130556244" lon="9.734033514972266"><ele>213.0</ele><time>2026-04-06T15:16:13.999Z</time></trkpt><trkpt lat="33.29407707969242" lon="9.733988517171651"><ele>213.0</ele><time>2026-04-06T15:16:14.999Z</time></trkpt><trkpt lat="33.294306495065705" lon="9.73393785537054"><ele>213.5</ele><time>2026-04-06T15:16:15.999Z</time></trkpt><trkpt lat="33.294528580842275" lon="9.73388746455123"><ele>214.0</ele><time>2026-04-06T15:16:16.999Z</time></trkpt><trkpt lat="33.294751243987804" lon="9.733842078530108"><ele>213.33333333333331</ele><time>2026-04-06T15:16:17.999Z</time></trkpt><trkpt lat="33.29497224856614" lon="9.733800349215901"><ele>212.66666666666669</ele><time>2026-04-06T15:16:18.999Z</time></trkpt><trkpt lat="33.29519244582965" lon="9.733756775395019"><ele>212.0</ele><time>2026-04-06T15:16:19.999Z</time></trkpt><trkpt lat="33.2954068725976" lon="9.733716989664238"><ele>212.33333333333334</ele><time>2026-04-06T15:16:20.999Z</time></trkpt><trkpt lat="33.29562323040646" lon="9.733674388816056"><ele>212.66666666666669</ele><time>2026-04-06T15:16:21.999Z</time></trkpt><trkpt lat="33.29583805023159" lon="9.73363040359932"><ele>213.0</ele><time>2026-04-06T15:16:22.999Z</time></trkpt><trkpt lat="33.29605357442146" lon="9.733585328770086"><ele>212.66666666666669</ele><time>2026-04-06T15:16:23.999Z</time></trkpt><trkpt lat="33.29626837240805" lon="9.733546757055604"><ele>212.33333333333334</ele><time>2026-04-06T15:16:24.999Z</time></trkpt><trkpt lat="33.29648587533109" lon="9.733507831546628"><ele>212.0</ele><time>2026-04-06T15:16:25.999Z</time></trkpt><trkpt lat="33.296711513771406" lon="9.733472091091398"><ele>213.5</ele><time>2026-04-06T15:16:26.999Z</time></trkpt><trkpt lat="33.29694617411515" lon="9.733433243383022"><ele>215.0</ele><time>2026-04-06T15:16:27.999Z</time></trkpt><trkpt lat="33.29717604690862" lon="9.733391162499064"><ele>215.0</ele><time>2026-04-06T15:16:28.999Z</time></trkpt><trkpt lat="33.29740683595988" lon="9.7333490695595"><ele>215.0</ele><time>2026-04-06T15:16:29.999Z</time></trkpt><trkpt lat="33.297640058927726" lon="9.733304533404306"><ele>215.0</ele><time>2026-04-06T15:16:30.999Z</time></trkpt><trkpt lat="33.297869078652454" lon="9.733262081952857"><ele>215.0</ele><time>2026-04-06T15:16:31.999Z</time></trkpt><trkpt lat="33.2981046777156" lon="9.73321336218298"><ele>215.5</ele><time>2026-04-06T15:16:32.999Z</time></trkpt><trkpt lat="33.2983387321292" lon="9.7331647275638"><ele>216.0</ele><time>2026-04-06T15:16:33.999Z</time></trkpt><trkpt lat="33.29857696863679" lon="9.733111979750072"><ele>216.0</ele><time>2026-04-06T15:16:34.999Z</time></trkpt><trkpt lat="33.29881043888409" lon="9.733057904283392"><ele>216.0</ele><time>2026-04-06T15:16:35.999Z</time></trkpt><trkpt lat="33.29905401676784" lon="9.733009279631649"><ele>215.0</ele><time>2026-04-06T15:16:36.999Z</time></trkpt><trkpt lat="33.29928747947444" lon="9.732963004468008"><ele>214.0</ele><time>2026-04-06T15:16:37.999Z</time></trkpt><trkpt lat="33.29950724569737" lon="9.73292503186408"><ele>214.0</ele><time>2026-04-06T15:16:38.999Z</time></trkpt><trkpt lat="33.299720099318876" lon="9.732885840693204"><ele>214.0</ele><time>2026-04-06T15:16:39.999Z</time></trkpt><trkpt lat="33.29994007326155" lon="9.732843369056623"><ele>214.0</ele><time>2026-04-06T15:16:40.999Z</time></trkpt><trkpt lat="33.30017087247179" lon="9.732797989943771"><ele>214.0</ele><time>2026-04-06T15:16:41.999Z</time></trkpt><trkpt lat="33.30040903013893" lon="9.73274910342322"><ele>214.0</ele><time>2026-04-06T15:16:42.999Z</time></trkpt><trkpt lat="33.30064883185182" lon="9.73269602361781"><ele>214.0</ele><time>2026-04-06T15:16:43.999Z</time></trkpt><trkpt lat="33.30089263846438" lon="9.732643113469576"><ele>214.0</ele><time>2026-04-06T15:16:44.999Z</time></trkpt><trkpt lat="33.301132294266914" lon="9.732591987141825"><ele>214.0</ele><time>2026-04-06T15:16:45.999Z</time></trkpt><trkpt lat="33.30136672261037" lon="9.7325434303151"><ele>214.0</ele><time>2026-04-06T15:16:46.999Z</time></trkpt><trkpt lat="33.30160298402545" lon="9.732497160276607"><ele>214.0</ele><time>2026-04-06T15:16:47.999Z</time></trkpt><trkpt lat="33.30183828218701" lon="9.732451570793266"><ele>214.0</ele><time>2026-04-06T15:16:48.999Z</time></trkpt><trkpt lat="33.302076964919486" lon="9.732408704207321"><ele>213.0</ele><time>2026-04-06T15:16:49.999Z</time></trkpt><trkpt lat="33.30231294250292" lon="9.732360436158643"><ele>212.0</ele><time>2026-04-06T15:16:50.999Z</time></trkpt><trkpt lat="33.30254858549522" lon="9.732310056052343"><ele>212.0</ele><time>2026-04-06T15:16:51.999Z</time></trkpt><trkpt lat="33.302783063906034" lon="9.732256973322755"><ele>212.0</ele><time>2026-04-06T15:16:52.999Z</time></trkpt><trkpt lat="33.30302369177213" lon="9.732204215901819"><ele>211.5</ele><time>2026-04-06T15:16:53.999Z</time></trkpt><trkpt lat="33.303261055504365" lon="9.732157745437405"><ele>211.0</ele><time>2026-04-06T15:16:54.999Z</time></trkpt><trkpt lat="33.303496315625445" lon="9.732111935319907"><ele>211.0</ele><time>2026-04-06T15:16:55.999Z</time></trkpt><trkpt lat="33.30373395790978" lon="9.732070199399717"><ele>211.0</ele><time>2026-04-06T15:16:56.999Z</time></trkpt><trkpt lat="33.30397286086219" lon="9.732029901864255"><ele>211.5</ele><time>2026-04-06T15:16:57.999Z</time></trkpt><trkpt lat="33.30420709186174" lon="9.7319904174294"><ele>212.0</ele><time>2026-04-06T15:16:58.999Z</time></trkpt><trkpt lat="33.30444511830222" lon="9.731941614119796"><ele>212.0</ele><time>2026-04-06T15:16:59.999Z</time></trkpt><trkpt lat="33.304678666483866" lon="9.731887322334781"><ele>212.0</ele><time>2026-04-06T15:17:00.999Z</time></trkpt><trkpt lat="33.30491247983626" lon="9.731819384021549"><ele>211.5</ele><time>2026-04-06T15:17:01.999Z</time></trkpt><trkpt lat="33.30514402131904" lon="9.73174037613035"><ele>211.0</ele><time>2026-04-06T15:17:02.999Z</time></trkpt><trkpt lat="33.305375083316946" lon="9.731658369449274"><ele>211.0</ele><time>2026-04-06T15:17:03.999Z</time></trkpt><trkpt lat="33.305604130227174" lon="9.731572898780634"><ele>211.0</ele><time>2026-04-06T15:17:04.999Z</time></trkpt><trkpt lat="33.305831340611675" lon="9.731480344173795"><ele>211.0</ele><time>2026-04-06T15:17:05.999Z</time></trkpt><trkpt lat="33.306057400546244" lon="9.731382048315574"><ele>211.0</ele><time>2026-04-06T15:17:06.999Z</time></trkpt><trkpt lat="33.30628781160308" lon="9.731284373114258"><ele>210.5</ele><time>2026-04-06T15:17:07.999Z</time></trkpt><trkpt lat="33.306518724152454" lon="9.73119856110884"><ele>210.0</ele><time>2026-04-06T15:17:08.999Z</time></trkpt><trkpt lat="33.306752111230374" lon="9.731121781670236"><ele>209.0</ele><time>2026-04-06T15:17:09.999Z</time></trkpt><trkpt lat="33.306985816419825" lon="9.731053235250544"><ele>208.0</ele><time>2026-04-06T15:17:10.999Z</time></trkpt><trkpt lat="33.30721877514963" lon="9.730991161213232"><ele>207.5</ele><time>2026-04-06T15:17:11.999Z</time></trkpt><trkpt lat="33.30745247023907" lon="9.730933376530423"><ele>207.0</ele><time>2026-04-06T15:17:12.999Z</time></trkpt><trkpt lat="33.30768851368381" lon="9.730878909642108"><ele>207.0</ele><time>2026-04-06T15:17:13.999Z</time></trkpt><trkpt lat="33.30792036083319" lon="9.730836273910972"><ele>207.0</ele><time>2026-04-06T15:17:14.999Z</time></trkpt><trkpt lat="33.30814904100719" lon="9.730794890975718"><ele>207.0</ele><time>2026-04-06T15:17:15.999Z</time></trkpt><trkpt lat="33.30838256761562" lon="9.730751259454898"><ele>207.0</ele><time>2026-04-06T15:17:16.999Z</time></trkpt><trkpt lat="33.30861899420648" lon="9.73070674448417"><ele>207.0</ele><time>2026-04-06T15:17:17.999Z</time></trkpt><trkpt lat="33.308854730353836" lon="9.730661483828786"><ele>207.0</ele><time>2026-04-06T15:17:18.999Z</time></trkpt><trkpt lat="33.30909248250758" lon="9.730612288139966"><ele>206.5</ele><time>2026-04-06T15:17:19.999Z</time></trkpt><trkpt lat="33.30932687243416" lon="9.73056586241744"><ele>206.0</ele><time>2026-04-06T15:17:20.999Z</time></trkpt><trkpt lat="33.30956338702337" lon="9.730517403508044"><ele>206.5</ele><time>2026-04-06T15:17:21.999Z</time></trkpt><trkpt lat="33.30980018829261" lon="9.730471683356832"><ele>207.0</ele><time>2026-04-06T15:17:22.999Z</time></trkpt><trkpt lat="33.31003858825796" lon="9.73042888200576"><ele>207.0</ele><time>2026-04-06T15:17:23.999Z</time></trkpt><trkpt lat="33.31027732035391" lon="9.730389453712204"><ele>207.0</ele><time>2026-04-06T15:17:24.999Z</time></trkpt><trkpt lat="33.3105148366639" lon="9.730354700960245"><ele>207.5</ele><time>2026-04-06T15:17:25.999Z</time></trkpt><trkpt lat="33.310753068984425" lon="9.730316464957854"><ele>208.0</ele><time>2026-04-06T15:17:26.999Z</time></trkpt><trkpt lat="33.310988329017874" lon="9.730276636441323"><ele>208.0</ele><time>2026-04-06T15:17:27.999Z</time></trkpt><trkpt lat="33.311227691047165" lon="9.730237730953139"><ele>208.0</ele><time>2026-04-06T15:17:28.999Z</time></trkpt><trkpt lat="33.311466791386344" lon="9.730199883885799"><ele>208.0</ele><time>2026-04-06T15:17:29.999Z</time></trkpt><trkpt lat="33.31170331261362" lon="9.730160746090869"><ele>208.0</ele><time>2026-04-06T15:17:30.999Z</time></trkpt><trkpt lat="33.31194287849655" lon="9.730113386253514"><ele>208.0</ele><time>2026-04-06T15:17:31.999Z</time></trkpt><trkpt lat="33.312176409334114" lon="9.730058149541644"><ele>208.0</ele><time>2026-04-06T15:17:32.999Z</time></trkpt><trkpt lat="33.31240179586731" lon="9.730005002076988"><ele>209.0</ele><time>2026-04-06T15:17:33.999Z</time></trkpt><trkpt lat="33.31262860162898" lon="9.729955165091154"><ele>210.0</ele><time>2026-04-06T15:17:34.999Z</time></trkpt><trkpt lat="33.31286094878267" lon="9.729915634566991"><ele>211.0</ele><time>2026-04-06T15:17:35.999Z</time></trkpt><trkpt lat="33.31309952290459" lon="9.729874741232173"><ele>212.0</ele><time>2026-04-06T15:17:36.999Z</time></trkpt><trkpt lat="33.31333889127703" lon="9.729835478177792"><ele>212.0</ele><time>2026-04-06T15:17:37.999Z</time></trkpt><trkpt lat="33.31357938950646" lon="9.729801297821723"><ele>212.0</ele><time>2026-04-06T15:17:38.999Z</time></trkpt><trkpt lat="33.31382337980003" lon="9.729774252007978"><ele>212.0</ele><time>2026-04-06T15:17:39.999Z</time></trkpt><trkpt lat="33.314062856719985" lon="9.729750053794396"><ele>212.0</ele><time>2026-04-06T15:17:40.999Z</time></trkpt><trkpt lat="33.31430412626818" lon="9.729728380984248"><ele>212.0</ele><time>2026-04-06T15:17:41.999Z</time></trkpt><trkpt lat="33.31454200627891" lon="9.729698538505637"><ele>212.0</ele><time>2026-04-06T15:17:42.999Z</time></trkpt><trkpt lat="33.314780267032766" lon="9.729660101971458"><ele>212.0</ele><time>2026-04-06T15:17:43.999Z</time></trkpt><trkpt lat="33.31501854109344" lon="9.729619865828248"><ele>212.0</ele><time>2026-04-06T15:17:44.999Z</time></trkpt><trkpt lat="33.31525554729354" lon="9.729581915659322"><ele>212.0</ele><time>2026-04-06T15:17:45.999Z</time></trkpt><trkpt lat="33.31549462757969" lon="9.729539814225541"><ele>212.0</ele><time>2026-04-06T15:17:46.999Z</time></trkpt><trkpt lat="33.315732661811076" lon="9.729497666378172"><ele>212.0</ele><time>2026-04-06T15:17:47.999Z</time></trkpt><trkpt lat="33.31596933554721" lon="9.729451495536413"><ele>212.0</ele><time>2026-04-06T15:17:48.999Z</time></trkpt><trkpt lat="33.31620303860209" lon="9.729408624409816"><ele>213.0</ele><time>2026-04-06T15:17:49.999Z</time></trkpt><trkpt lat="33.31644348758542" lon="9.729361991758754"><ele>214.0</ele><time>2026-04-06T15:17:50.999Z</time></trkpt><trkpt lat="33.31668017773375" lon="9.729316896622647"><ele>214.0</ele><time>2026-04-06T15:17:51.999Z</time></trkpt><trkpt lat="33.31691541422843" lon="9.729271853730658"><ele>214.0</ele><time>2026-04-06T15:17:52.999Z</time></trkpt><trkpt lat="33.317153190347454" lon="9.729233682775902"><ele>213.0</ele><time>2026-04-06T15:17:53.999Z</time></trkpt><trkpt lat="33.31739167647841" lon="9.729194318655324"><ele>212.0</ele><time>2026-04-06T15:17:54.999Z</time></trkpt><trkpt lat="33.317627495997456" lon="9.72915323954989"><ele>212.0</ele><time>2026-04-06T15:17:55.999Z</time></trkpt><trkpt lat="33.317865534685055" lon="9.729104890102578"><ele>212.0</ele><time>2026-04-06T15:17:56.999Z</time></trkpt><trkpt lat="33.31810381003032" lon="9.729054909277258"><ele>212.5</ele><time>2026-04-06T15:17:57.999Z</time></trkpt><trkpt lat="33.31833846243537" lon="9.729007522041282"><ele>213.0</ele><time>2026-04-06T15:17:58.999Z</time></trkpt><trkpt lat="33.318575791691146" lon="9.728955464789413"><ele>213.0</ele><time>2026-04-06T15:17:59.999Z</time></trkpt><trkpt lat="33.318809315198116" lon="9.72889809372019"><ele>213.0</ele><time>2026-04-06T15:18:00.999Z</time></trkpt><trkpt lat="33.319041941922826" lon="9.728835585743147"><ele>213.5</ele><time>2026-04-06T15:18:01.999Z</time></trkpt><trkpt lat="33.31927499415319" lon="9.728764239521682"><ele>214.0</ele><time>2026-04-06T15:18:02.999Z</time></trkpt><trkpt lat="33.31950711475209" lon="9.728686264824585"><ele>214.0</ele><time>2026-04-06T15:18:03.999Z</time></trkpt><trkpt lat="33.31973751199152" lon="9.72860768918604"><ele>214.0</ele><time>2026-04-06T15:18:04.999Z</time></trkpt><trkpt lat="33.319970366550926" lon="9.728522747386663"><ele>214.0</ele><time>2026-04-06T15:18:05.999Z</time></trkpt><trkpt lat="33.32020143042544" lon="9.728436627009415"><ele>214.0</ele><time>2026-04-06T15:18:06.999Z</time></trkpt><trkpt lat="33.32043667972346" lon="9.728351381097118"><ele>214.5</ele><time>2026-04-06T15:18:07.999Z</time></trkpt><trkpt lat="33.3206771983808" lon="9.728271562558152"><ele>215.0</ele><time>2026-04-06T15:18:08.999Z</time></trkpt><trkpt lat="33.32091735444934" lon="9.728201933743799"><ele>215.0</ele><time>2026-04-06T15:18:09.999Z</time></trkpt><trkpt lat="33.321161177261125" lon="9.728152594027053"><ele>215.0</ele><time>2026-04-06T15:18:10.999Z</time></trkpt><trkpt lat="33.321403347927976" lon="9.728141096484238"><ele>215.5</ele><time>2026-04-06T15:18:11.999Z</time></trkpt><trkpt lat="33.321645631155704" lon="9.728157602657534"><ele>216.0</ele><time>2026-04-06T15:18:12.999Z</time></trkpt><trkpt lat="33.321892858552516" lon="9.728170698471343"><ele>216.0</ele><time>2026-04-06T15:18:13.999Z</time></trkpt><trkpt lat="33.32213871271952" lon="9.728167473003989"><ele>216.0</ele><time>2026-04-06T15:18:14.999Z</time></trkpt><trkpt lat="33.322384454431024" lon="9.728149409394137"><ele>215.0</ele><time>2026-04-06T15:18:15.999Z</time></trkpt><trkpt lat="33.32262760283539" lon="9.728112340077562"><ele>214.0</ele><time>2026-04-06T15:18:16.999Z</time></trkpt><trkpt lat="33.322872624268854" lon="9.728061967503"><ele>213.5</ele><time>2026-04-06T15:18:17.999Z</time></trkpt><trkpt lat="33.3231134868763" lon="9.728008920914684"><ele>213.0</ele><time>2026-04-06T15:18:18.999Z</time></trkpt><trkpt lat="33.323356073755605" lon="9.727959819586559"><ele>213.0</ele><time>2026-04-06T15:18:19.999Z</time></trkpt><trkpt lat="33.32359632495014" lon="9.727907893168611"><ele>213.0</ele><time>2026-04-06T15:18:20.999Z</time></trkpt><trkpt lat="33.32383860304579" lon="9.727855604087049"><ele>212.5</ele><time>2026-04-06T15:18:21.999Z</time></trkpt><trkpt lat="33.32408318327122" lon="9.727805402501666"><ele>212.0</ele><time>2026-04-06T15:18:22.999Z</time></trkpt><trkpt lat="33.324325625696495" lon="9.727756057690396"><ele>211.5</ele><time>2026-04-06T15:18:23.999Z</time></trkpt><trkpt lat="33.324563215692265" lon="9.727709206735941"><ele>211.0</ele><time>2026-04-06T15:18:24.999Z</time></trkpt><trkpt lat="33.32480325382565" lon="9.727663517430736"><ele>211.0</ele><time>2026-04-06T15:18:25.999Z</time></trkpt><trkpt lat="33.325043887296616" lon="9.727620291958644"><ele>211.0</ele><time>2026-04-06T15:18:26.999Z</time></trkpt><trkpt lat="33.325286030559184" lon="9.727574179825755"><ele>211.0</ele><time>2026-04-06T15:18:27.999Z</time></trkpt><trkpt lat="33.32553091685098" lon="9.727525798783097"><ele>211.0</ele><time>2026-04-06T15:18:28.999Z</time></trkpt><trkpt lat="33.3257715043469" lon="9.727477869449041"><ele>211.5</ele><time>2026-04-06T15:18:29.999Z</time></trkpt><trkpt lat="33.326015054164486" lon="9.727429689139516"><ele>212.0</ele><time>2026-04-06T15:18:30.999Z</time></trkpt><trkpt lat="33.32625503438549" lon="9.727381964005932"><ele>212.5</ele><time>2026-04-06T15:18:31.999Z</time></trkpt><trkpt lat="33.32649679562321" lon="9.727333342857449"><ele>213.0</ele><time>2026-04-06T15:18:32.999Z</time></trkpt><trkpt lat="33.326739162909625" lon="9.727281023936678"><ele>213.0</ele><time>2026-04-06T15:18:33.999Z</time></trkpt><trkpt lat="33.32697682058771" lon="9.727219073555483"><ele>213.0</ele><time>2026-04-06T15:18:34.999Z</time></trkpt><trkpt lat="33.32721229767245" lon="9.72714797406937"><ele>213.0</ele><time>2026-04-06T15:18:35.999Z</time></trkpt><trkpt lat="33.327449603031596" lon="9.72706787733524"><ele>213.0</ele><time>2026-04-06T15:18:36.999Z</time></trkpt><trkpt lat="33.327689476264815" lon="9.726988104693156"><ele>213.0</ele><time>2026-04-06T15:18:37.999Z</time></trkpt><trkpt lat="33.32792681392466" lon="9.726921682554615"><ele>213.0</ele><time>2026-04-06T15:18:38.999Z</time></trkpt><trkpt lat="33.3281703770563" lon="9.726864992087792"><ele>214.0</ele><time>2026-04-06T15:18:39.999Z</time></trkpt><trkpt lat="33.32841255627166" lon="9.726812505179213"><ele>215.0</ele><time>2026-04-06T15:18:40.999Z</time></trkpt><trkpt lat="33.328655300871844" lon="9.726758620879103"><ele>214.5</ele><time>2026-04-06T15:18:41.999Z</time></trkpt><trkpt lat="33.328896303090815" lon="9.726709112517097"><ele>214.0</ele><time>2026-04-06T15:18:42.999Z</time></trkpt><trkpt lat="33.32913448349448" lon="9.726664383854546"><ele>214.0</ele><time>2026-04-06T15:18:43.999Z</time></trkpt><trkpt lat="33.32937499120535" lon="9.726618367154558"><ele>214.0</ele><time>2026-04-06T15:18:44.999Z</time></trkpt><trkpt lat="33.329615688591154" lon="9.726575306239484"><ele>215.0</ele><time>2026-04-06T15:18:45.999Z</time></trkpt><trkpt lat="33.32985831200749" lon="9.726536402107627"><ele>216.0</ele><time>2026-04-06T15:18:46.999Z</time></trkpt><trkpt lat="33.3301050650506" lon="9.72649672870073"><ele>216.0</ele><time>2026-04-06T15:18:47.999Z</time></trkpt><trkpt lat="33.33034998887034" lon="9.726455806777345"><ele>216.0</ele><time>2026-04-06T15:18:48.999Z</time></trkpt><trkpt lat="33.330595917589754" lon="9.72641466082099"><ele>215.5</ele><time>2026-04-06T15:18:49.999Z</time></trkpt><trkpt lat="33.33083776705433" lon="9.726374407184327"><ele>215.0</ele><time>2026-04-06T15:18:50.999Z</time></trkpt><trkpt lat="33.331082781001136" lon="9.726333853900707"><ele>215.0</ele><time>2026-04-06T15:18:51.999Z</time></trkpt><trkpt lat="33.331324835092936" lon="9.726292678169854"><ele>215.0</ele><time>2026-04-06T15:18:52.999Z</time></trkpt><trkpt lat="33.33156737232946" lon="9.726248177346461"><ele>214.5</ele><time>2026-04-06T15:18:53.999Z</time></trkpt><trkpt lat="33.3318095942472" lon="9.726206935191216"><ele>214.0</ele><time>2026-04-06T15:18:54.999Z</time></trkpt><trkpt lat="33.33205205598111" lon="9.726168990301264"><ele>214.0</ele><time>2026-04-06T15:18:55.999Z</time></trkpt><trkpt lat="33.33229529809881" lon="9.7261341573474"><ele>214.0</ele><time>2026-04-06T15:18:56.999Z</time></trkpt><trkpt lat="33.332540635366335" lon="9.726096808773983"><ele>214.0</ele><time>2026-04-06T15:18:57.999Z</time></trkpt><trkpt lat="33.33278548668128" lon="9.726063751499714"><ele>214.0</ele><time>2026-04-06T15:18:58.999Z</time></trkpt><trkpt lat="33.33303249508331" lon="9.726031769405443"><ele>214.5</ele><time>2026-04-06T15:18:59.999Z</time></trkpt><trkpt lat="33.33328354384061" lon="9.726000131657031"><ele>215.0</ele><time>2026-04-06T15:19:00.999Z</time></trkpt><trkpt lat="33.333535306363345" lon="9.725968065683219"><ele>215.0</ele><time>2026-04-06T15:19:01.999Z</time></trkpt><trkpt lat="33.33378817514112" lon="9.725937740213547"><ele>215.0</ele><time>2026-04-06T15:19:02.999Z</time></trkpt><trkpt lat="33.33404147578655" lon="9.725900567494163"><ele>214.5</ele><time>2026-04-06T15:19:03.999Z</time></trkpt><trkpt lat="33.33429367204542" lon="9.725860126404932"><ele>214.0</ele><time>2026-04-06T15:19:04.999Z</time></trkpt><trkpt lat="33.334543782445614" lon="9.72581655964858"><ele>214.0</ele><time>2026-04-06T15:19:05.999Z</time></trkpt><trkpt lat="33.33479363978268" lon="9.725762814251741"><ele>214.0</ele><time>2026-04-06T15:19:06.999Z</time></trkpt><trkpt lat="33.335039636441756" lon="9.725697646291682"><ele>214.0</ele><time>2026-04-06T15:19:07.999Z</time></trkpt><trkpt lat="33.335283813183004" lon="9.725618748746632"><ele>214.0</ele><time>2026-04-06T15:19:08.999Z</time></trkpt><trkpt lat="33.33552417750252" lon="9.725520093667459"><ele>213.5</ele><time>2026-04-06T15:19:09.999Z</time></trkpt><trkpt lat="33.33575974838728" lon="9.725410961099143"><ele>213.0</ele><time>2026-04-06T15:19:10.999Z</time></trkpt><trkpt lat="33.33599139832157" lon="9.725290691915543"><ele>212.5</ele><time>2026-04-06T15:19:11.999Z</time></trkpt><trkpt lat="33.33622570099422" lon="9.725177124772495"><ele>212.0</ele><time>2026-04-06T15:19:12.999Z</time></trkpt><trkpt lat="33.336465851077044" lon="9.725083811105726"><ele>211.5</ele><time>2026-04-06T15:19:13.999Z</time></trkpt><trkpt lat="33.33671361192106" lon="9.725025567276996"><ele>211.0</ele><time>2026-04-06T15:19:14.999Z</time></trkpt><trkpt lat="33.336965169106044" lon="9.725000962909087"><ele>210.5</ele><time>2026-04-06T15:19:15.999Z</time></trkpt><trkpt lat="33.33721971915612" lon="9.725000260596035"><ele>210.0</ele><time>2026-04-06T15:19:16.999Z</time></trkpt><trkpt lat="33.33746785586684" lon="9.725024906407322"><ele>210.0</ele><time>2026-04-06T15:19:17.999Z</time></trkpt><trkpt lat="33.33771697057595" lon="9.725056316283128"><ele>210.0</ele><time>2026-04-06T15:19:18.999Z</time></trkpt><trkpt lat="33.3379686576232" lon="9.725067186820391"><ele>211.5</ele><time>2026-04-06T15:19:19.999Z</time></trkpt><trkpt lat="33.3382165135849" lon="9.725053383722928"><ele>213.0</ele><time>2026-04-06T15:19:20.999Z</time></trkpt><trkpt lat="33.338466217081354" lon="9.725028536783714"><ele>213.0</ele><time>2026-04-06T15:19:21.999Z</time></trkpt><trkpt lat="33.3387170879506" lon="9.724997952103529"><ele>213.0</ele><time>2026-04-06T15:19:22.999Z</time></trkpt><trkpt lat="33.33896754594662" lon="9.724963252618032"><ele>213.5</ele><time>2026-04-06T15:19:23.999Z</time></trkpt><trkpt lat="33.33921509666405" lon="9.72492563012686"><ele>214.0</ele><time>2026-04-06T15:19:24.999Z</time></trkpt><trkpt lat="33.33945907333478" lon="9.724886166289254"><ele>214.0</ele><time>2026-04-06T15:19:25.999Z</time></trkpt><trkpt lat="33.339699207161196" lon="9.72484558211766"><ele>214.0</ele><time>2026-04-06T15:19:26.999Z</time></trkpt><trkpt lat="33.33994181409913" lon="9.72479798121958"><ele>213.5</ele><time>2026-04-06T15:19:27.999Z</time></trkpt><trkpt lat="33.34018394034608" lon="9.724747247558204"><ele>213.0</ele><time>2026-04-06T15:19:28.999Z</time></trkpt><trkpt lat="33.340427589942344" lon="9.72469373558995"><ele>213.0</ele><time>2026-04-06T15:19:29.999Z</time></trkpt><trkpt lat="33.34067166526696" lon="9.724639855121088"><ele>213.0</ele><time>2026-04-06T15:19:30.999Z</time></trkpt><trkpt lat="33.34091689354005" lon="9.724584013919339"><ele>213.0</ele><time>2026-04-06T15:19:31.999Z</time></trkpt><trkpt lat="33.34115881592116" lon="9.724523901308192"><ele>213.0</ele><time>2026-04-06T15:19:32.999Z</time></trkpt><trkpt lat="33.34140159194516" lon="9.7244596852376"><ele>212.0</ele><time>2026-04-06T15:19:33.999Z</time></trkpt><trkpt lat="33.34164121952321" lon="9.724396415473022"><ele>211.0</ele><time>2026-04-06T15:19:34.999Z</time></trkpt><trkpt lat="33.341884515605315" lon="9.724337971744042"><ele>211.0</ele><time>2026-04-06T15:19:35.999Z</time></trkpt><trkpt lat="33.34212978684709" lon="9.724284501278069"><ele>211.0</ele><time>2026-04-06T15:19:36.999Z</time></trkpt><trkpt lat="33.34237282424264" lon="9.724234203644121"><ele>210.5</ele><time>2026-04-06T15:19:37.999Z</time></trkpt><trkpt lat="33.3426145793071" lon="9.724188329443557"><ele>210.0</ele><time>2026-04-06T15:19:38.999Z</time></trkpt><trkpt lat="33.34286338125398" lon="9.724141940816633"><ele>210.0</ele><time>2026-04-06T15:19:39.999Z</time></trkpt><trkpt lat="33.3431073443306" lon="9.724095641763428"><ele>210.0</ele><time>2026-04-06T15:19:40.999Z</time></trkpt><trkpt lat="33.343343662488856" lon="9.72404458865737"><ele>210.0</ele><time>2026-04-06T15:19:41.999Z</time></trkpt><trkpt lat="33.343563492403774" lon="9.723988683468832"><ele>210.0</ele><time>2026-04-06T15:19:42.999Z</time></trkpt><trkpt lat="33.34377339191867" lon="9.723933145119789"><ele>210.0</ele><time>2026-04-06T15:19:43.999Z</time></trkpt><trkpt lat="33.343979696271404" lon="9.723884925603183"><ele>209.66666666666669</ele><time>2026-04-06T15:19:44.999Z</time></trkpt><trkpt lat="33.344169620604696" lon="9.723844768838635"><ele>209.33333333333334</ele><time>2026-04-06T15:19:45.999Z</time></trkpt><trkpt lat="33.34435318454069" lon="9.723814671892217"><ele>209.0</ele><time>2026-04-06T15:19:46.999Z</time></trkpt><trkpt lat="33.34453767168764" lon="9.723789371605571"><ele>209.33333333333334</ele><time>2026-04-06T15:19:47.999Z</time></trkpt><trkpt lat="33.344730171927715" lon="9.72377066244074"><ele>209.66666666666669</ele><time>2026-04-06T15:19:48.999Z</time></trkpt><trkpt lat="33.34493886091364" lon="9.723761221599851"><ele>210.0</ele><time>2026-04-06T15:19:49.999Z</time></trkpt><trkpt lat="33.34514939215392" lon="9.723758891441959"><ele>210.0</ele><time>2026-04-06T15:19:50.999Z</time></trkpt><trkpt lat="33.34536803917495" lon="9.72377044100758"><ele>210.0</ele><time>2026-04-06T15:19:51.999Z</time></trkpt><trkpt lat="33.33771697057595" lon="9.725056316283128"><ele>210.0</ele><time>2026-04-06T15:19:18.999Z</time></trkpt><trkpt lat="33.3379686576232" lon="9.725067186820391"><ele>210.0</ele><time>2026-04-06T15:19:19.999Z</time></trkpt><trkpt lat="33.3382165135849" lon="9.725053383722928"><ele>211.5</ele><time>2026-04-06T15:19:20.999Z</time></trkpt><trkpt lat="33.338466217081354" lon="9.725028536783714"><ele>213.0</ele><time>2026-04-06T15:19:21.999Z</time></trkpt><trkpt lat="33.3387170879506" lon="9.724997952103529"><ele>213.5</ele><time>2026-04-06T15:19:22.999Z</time></trkpt><trkpt lat="33.33896754594662" lon="9.724963252618032"><ele>214.0</ele><time>2026-04-06T15:19:23.999Z</time></trkpt><trkpt lat="33.33921509666405" lon="9.72492563012686"><ele>214.0</ele><time>2026-04-06T15:19:24.999Z</time></trkpt><trkpt lat="33.33945907333478" lon="9.724886166289254"><ele>214.0</ele><time>2026-04-06T15:19:25.999Z</time></trkpt><trkpt lat="33.339699207161196" lon="9.72484558211766"><ele>213.5</ele><time>2026-04-06T15:19:26.999Z</time></trkpt><trkpt lat="33.33994181409913" lon="9.72479798121958"><ele>213.0</ele><time>2026-04-06T15:19:27.999Z</time></trkpt><trkpt lat="33.34018394034608" lon="9.724747247558204"><ele>213.0</ele><time>2026-04-06T15:19:28.999Z</time></trkpt><trkpt lat="33.340427589942344" lon="9.72469373558995"><ele>213.0</ele><time>2026-04-06T15:19:29.999Z</time></trkpt><trkpt lat="33.34067166526696" lon="9.724639855121088"><ele>213.0</ele><time>2026-04-06T15:19:30.999Z</time></trkpt><trkpt lat="33.34091689354005" lon="9.724584013919339"><ele>213.0</ele><time>2026-04-06T15:19:31.999Z</time></trkpt><trkpt lat="33.34115881592116" lon="9.724523901308192"><ele>211.5</ele><time>2026-04-06T15:19:32.999Z</time></trkpt><trkpt lat="33.34140159194516" lon="9.7244596852376"><ele>210.0</ele><time>2026-04-06T15:19:33.999Z</time></trkpt><trkpt lat="33.34164121952321" lon="9.724396415473022"><ele>210.5</ele><time>2026-04-06T15:19:34.999Z</time></trkpt><trkpt lat="33.341884515605315" lon="9.724337971744042"><ele>211.0</ele><time>2026-04-06T15:19:35.999Z</time></trkpt><trkpt lat="33.34212978684709" lon="9.724284501278069"><ele>210.5</ele><time>2026-04-06T15:19:36.999Z</time></trkpt><trkpt lat="33.34237282424264" lon="9.724234203644121"><ele>210.0</ele><time>2026-04-06T15:19:37.999Z</time></trkpt><trkpt lat="33.3426145793071" lon="9.724188329443557"><ele>210.0</ele><time>2026-04-06T15:19:38.999Z</time></trkpt><trkpt lat="33.34286338125398" lon="9.724141940816633"><ele>210.0</ele><time>2026-04-06T15:19:39.999Z</time></trkpt><trkpt lat="33.3431073443306" lon="9.724095641763428"><ele>210.0</ele><time>2026-04-06T15:19:40.999Z</time></trkpt><trkpt lat="33.343343662488856" lon="9.72404458865737"><ele>210.0</ele><time>2026-04-06T15:19:41.999Z</time></trkpt><trkpt lat="33.343563492403774" lon="9.723988683468832"><ele>210.0</ele><time>2026-04-06T15:19:42.999Z</time></trkpt><trkpt lat="33.34377339191867" lon="9.723933145119789"><ele>210.0</ele><time>2026-04-06T15:19:43.999Z</time></trkpt><trkpt lat="33.343979696271404" lon="9.723884925603183"><ele>210.0</ele><time>2026-04-06T15:19:44.999Z</time></trkpt><trkpt lat="33.344169620604696" lon="9.723844768838635"><ele>210.0</ele><time>2026-04-06T15:19:45.999Z</time></trkpt><trkpt lat="33.34435318454069" lon="9.723814671892217"><ele>210.0</ele><time>2026-04-06T15:19:46.999Z</time></trkpt><trkpt lat="33.34453767168764" lon="9.723789371605571"><ele>210.0</ele><time>2026-04-06T15:19:47.999Z</time></trkpt><trkpt lat="33.344730171927715" lon="9.72377066244074"><ele>210.0</ele><time>2026-04-06T15:19:48.999Z</time></trkpt><trkpt lat="33.34493886091364" lon="9.723761221599851"><ele>210.0</ele><time>2026-04-06T15:19:49.999Z</time></trkpt><trkpt lat="33.34514939215392" lon="9.723758891441959"><ele>210.0</ele><time>2026-04-06T15:19:50.999Z</time></trkpt><trkpt lat="33.34536803917495" lon="9.72377044100758"><ele>210.33333333333331</ele><time>2026-04-06T15:19:51.999Z</time></trkpt><trkpt lat="33.34558658313577" lon="9.72378817144525"><ele>210.66666666666666</ele><time>2026-04-06T15:19:52.999Z</time></trkpt><trkpt lat="33.3458065458249" lon="9.723807229606493"><ele>211.0</ele><time>2026-04-06T15:19:53.999Z</time></trkpt><trkpt lat="33.346030150426834" lon="9.723818446056233"><ele>211.0</ele><time>2026-04-06T15:19:54.999Z</time></trkpt><trkpt lat="33.34626294278033" lon="9.723816186647236"><ele>211.0</ele><time>2026-04-06T15:19:55.999Z</time></trkpt><trkpt lat="33.34650294171217" lon="9.723805977356154"><ele>210.0</ele><time>2026-04-06T15:19:56.999Z</time></trkpt><trkpt lat="33.3467487630855" lon="9.723781640850069"><ele>209.0</ele><time>2026-04-06T15:19:57.999Z</time></trkpt><trkpt lat="33.34700606592483" lon="9.723744201835146"><ele>209.0</ele><time>2026-04-06T15:19:58.999Z</time></trkpt><trkpt lat="33.34726262446821" lon="9.723697996823756"><ele>209.0</ele><time>2026-04-06T15:19:59.999Z</time></trkpt><trkpt lat="33.34752179457302" lon="9.72364549355741"><ele>209.0</ele><time>2026-04-06T15:20:00.999Z</time></trkpt><trkpt lat="33.3477823299264" lon="9.723589620231511"><ele>209.0</ele><time>2026-04-06T15:20:01.999Z</time></trkpt><trkpt lat="33.348043330782" lon="9.723534063334244"><ele>208.5</ele><time>2026-04-06T15:20:02.999Z</time></trkpt><trkpt lat="33.34830460052966" lon="9.723479032368116"><ele>208.0</ele><time>2026-04-06T15:20:03.999Z</time></trkpt><trkpt lat="33.34856420649032" lon="9.723422884478104"><ele>208.0</ele><time>2026-04-06T15:20:04.999Z</time></trkpt><trkpt lat="33.34882059410904" lon="9.723367987116019"><ele>208.0</ele><time>2026-04-06T15:20:05.999Z</time></trkpt><trkpt lat="33.34907622127914" lon="9.723315281523119"><ele>209.0</ele><time>2026-04-06T15:20:06.999Z</time></trkpt><trkpt lat="33.34933638247979" lon="9.723268451973889"><ele>210.0</ele><time>2026-04-06T15:20:07.999Z</time></trkpt><trkpt lat="33.349593919418204" lon="9.723229012541294"><ele>210.5</ele><time>2026-04-06T15:20:08.999Z</time></trkpt><trkpt lat="33.34984870414569" lon="9.723185312673296"><ele>211.0</ele><time>2026-04-06T15:20:09.999Z</time></trkpt><trkpt lat="33.3500895216897" lon="9.723129515893937"><ele>211.0</ele><time>2026-04-06T15:20:10.999Z</time></trkpt><trkpt lat="33.350328647731" lon="9.723084506090398"><ele>211.0</ele><time>2026-04-06T15:20:11.999Z</time></trkpt><trkpt lat="33.35057395925804" lon="9.723049865115986"><ele>211.0</ele><time>2026-04-06T15:20:12.999Z</time></trkpt><trkpt lat="33.350819593995574" lon="9.723001511813914"><ele>211.0</ele><time>2026-04-06T15:20:13.999Z</time></trkpt><trkpt lat="33.3510550289848" lon="9.722952829396293"><ele>211.0</ele><time>2026-04-06T15:20:14.999Z</time></trkpt><trkpt lat="33.351288777729785" lon="9.722915860949437"><ele>211.0</ele><time>2026-04-06T15:20:15.999Z</time></trkpt><trkpt lat="33.35152693345065" lon="9.722876070737223"><ele>212.0</ele><time>2026-04-06T15:20:17Z</time></trkpt><trkpt lat="33.35176441957331" lon="9.722831361582852"><ele>213.0</ele><time>2026-04-06T15:20:18Z</time></trkpt><trkpt lat="33.35200323704384" lon="9.722788863962611"><ele>213.0</ele><time>2026-04-06T15:20:19Z</time></trkpt><trkpt lat="33.35223930126034" lon="9.722746618257576"><ele>213.0</ele><time>2026-04-06T15:20:20Z</time></trkpt><trkpt lat="33.352477732300045" lon="9.722699773743738"><ele>213.5</ele><time>2026-04-06T15:20:21Z</time></trkpt><trkpt lat="33.352719502483815" lon="9.72265012098403"><ele>214.0</ele><time>2026-04-06T15:20:22Z</time></trkpt><trkpt lat="33.352957471475186" lon="9.722598294087241"><ele>213.5</ele><time>2026-04-06T15:20:23Z</time></trkpt><trkpt lat="33.35320014518667" lon="9.722542007368258"><ele>213.0</ele><time>2026-04-06T15:20:24Z</time></trkpt><trkpt lat="33.3534452453446" lon="9.722487263905519"><ele>213.0</ele><time>2026-04-06T15:20:25Z</time></trkpt><trkpt lat="33.353692849655886" lon="9.722435231036625"><ele>213.0</ele><time>2026-04-06T15:20:26Z</time></trkpt><trkpt lat="33.35394261749239" lon="9.722389691299481"><ele>213.0</ele><time>2026-04-06T15:20:27Z</time></trkpt><trkpt lat="33.35419359903722" lon="9.722343325591739"><ele>213.0</ele><time>2026-04-06T15:20:28Z</time></trkpt><trkpt lat="33.35444996507567" lon="9.722293552843368"><ele>212.5</ele><time>2026-04-06T15:20:29Z</time></trkpt><trkpt lat="33.35471033777785" lon="9.722245057794673"><ele>212.0</ele><time>2026-04-06T15:20:30Z</time></trkpt><trkpt lat="33.3549756469425" lon="9.72219789348081"><ele>212.0</ele><time>2026-04-06T15:20:31Z</time></trkpt><trkpt lat="33.35524511520942" lon="9.722147767821207"><ele>212.0</ele><time>2026-04-06T15:20:32Z</time></trkpt><trkpt lat="33.355518490806915" lon="9.722096753532613"><ele>212.0</ele><time>2026-04-06T15:20:33Z</time></trkpt><trkpt lat="33.355795132543356" lon="9.722043562630846"><ele>212.0</ele><time>2026-04-06T15:20:34Z</time></trkpt><trkpt lat="33.35607385649399" lon="9.72198623403102"><ele>212.0</ele><time>2026-04-06T15:20:35Z</time></trkpt><trkpt lat="33.35635915711637" lon="9.721926951563374"><ele>212.0</ele><time>2026-04-06T15:20:36Z</time></trkpt><trkpt lat="33.35664246110818" lon="9.72186669898484"><ele>211.0</ele><time>2026-04-06T15:20:37Z</time></trkpt><trkpt lat="33.35692102277897" lon="9.7218056620543"><ele>210.0</ele><time>2026-04-06T15:20:38Z</time></trkpt><trkpt lat="33.35719922533293" lon="9.721749690459959"><ele>209.5</ele><time>2026-04-06T15:20:39Z</time></trkpt><trkpt lat="33.3574763424559" lon="9.721696248642868"><ele>209.0</ele><time>2026-04-06T15:20:40Z</time></trkpt><trkpt lat="33.35774863481714" lon="9.721647309884377"><ele>209.0</ele><time>2026-04-06T15:20:41Z</time></trkpt><trkpt lat="33.35801880775882" lon="9.721598453365955"><ele>209.0</ele><time>2026-04-06T15:20:42Z</time></trkpt><trkpt lat="33.35828098840055" lon="9.721549773362591"><ele>209.0</ele><time>2026-04-06T15:20:43Z</time></trkpt><trkpt lat="33.35854253052242" lon="9.721497904072569"><ele>209.0</ele><time>2026-04-06T15:20:44Z</time></trkpt><trkpt lat="33.35880708291649" lon="9.72144274354146"><ele>209.0</ele><time>2026-04-06T15:20:45Z</time></trkpt><trkpt lat="33.35906772429052" lon="9.721390124052927"><ele>209.0</ele><time>2026-04-06T15:20:46Z</time></trkpt><trkpt lat="33.3593295110759" lon="9.721339182543653"><ele>209.0</ele><time>2026-04-06T15:20:47Z</time></trkpt><trkpt lat="33.35958276533429" lon="9.721292821374265"><ele>209.0</ele><time>2026-04-06T15:20:48Z</time></trkpt><trkpt lat="33.359836927430635" lon="9.721250204139233"><ele>209.0</ele><time>2026-04-06T15:20:49Z</time></trkpt><trkpt lat="33.36009865875539" lon="9.721204470140481"><ele>209.0</ele><time>2026-04-06T15:20:50Z</time></trkpt><trkpt lat="33.360364742351344" lon="9.721154724187295"><ele>209.5</ele><time>2026-04-06T15:20:51Z</time></trkpt><trkpt lat="33.36062822449729" lon="9.721100300598788"><ele>210.0</ele><time>2026-04-06T15:20:52Z</time></trkpt><trkpt lat="33.36089496370557" lon="9.721041152868574"><ele>210.5</ele><time>2026-04-06T15:20:53Z</time></trkpt><trkpt lat="33.36115783788623" lon="9.720983912820962"><ele>211.0</ele><time>2026-04-06T15:20:54Z</time></trkpt><trkpt lat="33.36142266587542" lon="9.720930361222074"><ele>212.0</ele><time>2026-04-06T15:20:55Z</time></trkpt><trkpt lat="33.361695099662114" lon="9.720880089199424"><ele>213.0</ele><time>2026-04-06T15:20:56Z</time></trkpt><trkpt lat="33.36198506870459" lon="9.72082656925212"><ele>211.5</ele><time>2026-04-06T15:20:57Z</time></trkpt><trkpt lat="33.36229304383092" lon="9.720768581156452"><ele>210.0</ele><time>2026-04-06T15:20:58Z</time></trkpt><trkpt lat="33.3626019219913" lon="9.720707615322993"><ele>210.0</ele><time>2026-04-06T15:20:59Z</time></trkpt><trkpt lat="33.36288910318121" lon="9.720650219947363"><ele>210.0</ele><time>2026-04-06T15:21:00Z</time></trkpt><trkpt lat="33.363154464279916" lon="9.720597946579634"><ele>210.5</ele><time>2026-04-06T15:21:01Z</time></trkpt><trkpt lat="33.36341475191562" lon="9.72055207359213"><ele>211.0</ele><time>2026-04-06T15:21:02Z</time></trkpt><trkpt lat="33.36368205677014" lon="9.72050988380973"><ele>211.5</ele><time>2026-04-06T15:21:03Z</time></trkpt><trkpt lat="33.363954368892024" lon="9.720461573801582"><ele>212.0</ele><time>2026-04-06T15:21:04Z</time></trkpt><trkpt lat="33.36423514122459" lon="9.720404291333258"><ele>212.0</ele><time>2026-04-06T15:21:05Z</time></trkpt><trkpt lat="33.36451928117323" lon="9.720343363610858"><ele>212.0</ele><time>2026-04-06T15:21:06Z</time></trkpt><trkpt lat="33.36479642315361" lon="9.720284799268022"><ele>211.0</ele><time>2026-04-06T15:21:07Z</time></trkpt><trkpt lat="33.36507392531038" lon="9.72022898361876"><ele>210.0</ele><time>2026-04-06T15:21:08Z</time></trkpt><trkpt lat="33.36535043885781" lon="9.720175372425583"><ele>210.5</ele><time>2026-04-06T15:21:09Z</time></trkpt><trkpt lat="33.36562764903336" lon="9.720124086615813"><ele>211.0</ele><time>2026-04-06T15:21:10Z</time></trkpt><trkpt lat="33.3659019487598" lon="9.720074335926597"><ele>211.0</ele><time>2026-04-06T15:21:11Z</time></trkpt><trkpt lat="33.36617346915833" lon="9.720023659589243"><ele>211.0</ele><time>2026-04-06T15:21:12Z</time></trkpt><trkpt lat="33.366444439505" lon="9.719971427979681"><ele>211.0</ele><time>2026-04-06T15:21:13Z</time></trkpt><trkpt lat="33.3667111951179" lon="9.719917894002611"><ele>211.0</ele><time>2026-04-06T15:21:14Z</time></trkpt><trkpt lat="33.366976689259054" lon="9.719862264740751"><ele>211.0</ele><time>2026-04-06T15:21:15Z</time></trkpt><trkpt lat="33.36724663961048" lon="9.719806563686667"><ele>211.0</ele><time>2026-04-06T15:21:16Z</time></trkpt><trkpt lat="33.36751683481473" lon="9.719748849334756"><ele>211.0</ele><time>2026-04-06T15:21:17Z</time></trkpt><trkpt lat="33.367793878689916" lon="9.719690822175213"><ele>211.0</ele><time>2026-04-06T15:21:18Z</time></trkpt><trkpt lat="33.36807360435066" lon="9.719632207606006"><ele>211.5</ele><time>2026-04-06T15:21:19Z</time></trkpt><trkpt lat="33.368353005757754" lon="9.719574197936977"><ele>212.0</ele><time>2026-04-06T15:21:20Z</time></trkpt><trkpt lat="33.36863471667571" lon="9.719515671231026"><ele>211.5</ele><time>2026-04-06T15:21:21Z</time></trkpt><trkpt lat="33.368915540475314" lon="9.719456350543062"><ele>211.0</ele><time>2026-04-06T15:21:22Z</time></trkpt><trkpt lat="33.369194138005916" lon="9.719395553477145"><ele>210.0</ele><time>2026-04-06T15:21:23Z</time></trkpt><trkpt lat="33.36947104489455" lon="9.719334523663077"><ele>209.0</ele><time>2026-04-06T15:21:24Z</time></trkpt><trkpt lat="33.36975116045986" lon="9.719275942674889"><ele>209.0</ele><time>2026-04-06T15:21:25Z</time></trkpt><trkpt lat="33.37002805211435" lon="9.719221890127855"><ele>209.0</ele><time>2026-04-06T15:21:26Z</time></trkpt><trkpt lat="33.37030336110885" lon="9.71916714956115"><ele>209.0</ele><time>2026-04-06T15:21:27Z</time></trkpt><trkpt lat="33.37057706642164" lon="9.719109534116683"><ele>209.0</ele><time>2026-04-06T15:21:28Z</time></trkpt><trkpt lat="33.370845959794174" lon="9.719049977928794"><ele>209.0</ele><time>2026-04-06T15:21:29Z</time></trkpt><trkpt lat="33.37111529458273" lon="9.718988250645477"><ele>209.0</ele><time>2026-04-06T15:21:30Z</time></trkpt><trkpt lat="33.371382424097106" lon="9.718926796369535"><ele>208.5</ele><time>2026-04-06T15:21:31Z</time></trkpt><trkpt lat="33.37164543751813" lon="9.718864417682994"><ele>208.0</ele><time>2026-04-06T15:21:32Z</time></trkpt><trkpt lat="33.37191194874022" lon="9.718797630032496"><ele>208.0</ele><time>2026-04-06T15:21:33Z</time></trkpt><trkpt lat="33.3721767357782" lon="9.718734730569937"><ele>208.0</ele><time>2026-04-06T15:21:34Z</time></trkpt><trkpt lat="33.37244294855189" lon="9.718674518149468"><ele>208.0</ele><time>2026-04-06T15:21:35Z</time></trkpt><trkpt lat="33.372711075512235" lon="9.718617230221076"><ele>208.0</ele><time>2026-04-06T15:21:36Z</time></trkpt><trkpt lat="33.37297983446304" lon="9.71856310051004"><ele>207.0</ele><time>2026-04-06T15:21:37Z</time></trkpt><trkpt lat="33.373251538472836" lon="9.718506361803474"><ele>206.0</ele><time>2026-04-06T15:21:38Z</time></trkpt><trkpt lat="33.37352166959817" lon="9.718453097210842"><ele>206.0</ele><time>2026-04-06T15:21:39Z</time></trkpt><trkpt lat="33.373798136162996" lon="9.71840145194811"><ele>206.0</ele><time>2026-04-06T15:21:40Z</time></trkpt><trkpt lat="33.374073311481084" lon="9.718354287406141"><ele>206.0</ele><time>2026-04-06T15:21:41Z</time></trkpt><trkpt lat="33.37435296658934" lon="9.718301986751973"><ele>206.0</ele><time>2026-04-06T15:21:42Z</time></trkpt><trkpt lat="33.37463381496118" lon="9.71824069730709"><ele>206.0</ele><time>2026-04-06T15:21:43Z</time></trkpt><trkpt lat="33.37491204934978" lon="9.718175588954292"><ele>206.0</ele><time>2026-04-06T15:21:44Z</time></trkpt><trkpt lat="33.37518673747817" lon="9.718107911146179"><ele>206.0</ele><time>2026-04-06T15:21:45Z</time></trkpt><trkpt lat="33.37545961183751" lon="9.718043606082142"><ele>206.0</ele><time>2026-04-06T15:21:46Z</time></trkpt><trkpt lat="33.37573646628401" lon="9.717977573031511"><ele>206.0</ele><time>2026-04-06T15:21:47Z</time></trkpt><trkpt lat="33.376009585848855" lon="9.717912763695036"><ele>206.0</ele><time>2026-04-06T15:21:48Z</time></trkpt><trkpt lat="33.37627673544583" lon="9.717850374403755"><ele>205.5</ele><time>2026-04-06T15:21:49Z</time></trkpt><trkpt lat="33.37654963659827" lon="9.717786027038878"><ele>205.0</ele><time>2026-04-06T15:21:50Z</time></trkpt><trkpt lat="33.37683190403305" lon="9.717722047771826"><ele>205.0</ele><time>2026-04-06T15:21:51Z</time></trkpt><trkpt lat="33.37711899823815" lon="9.717657659931529"><ele>205.0</ele><time>2026-04-06T15:21:52Z</time></trkpt><trkpt lat="33.37740549962297" lon="9.717599514988173"><ele>203.5</ele><time>2026-04-06T15:21:53Z</time></trkpt><trkpt lat="33.37770191069088" lon="9.717541705603756"><ele>202.0</ele><time>2026-04-06T15:21:54Z</time></trkpt><trkpt lat="33.377992251484436" lon="9.71748147774425"><ele>201.0</ele><time>2026-04-06T15:21:55Z</time></trkpt><trkpt lat="33.37827439812116" lon="9.717420340840436"><ele>200.0</ele><time>2026-04-06T15:21:56Z</time></trkpt><trkpt lat="33.37856206170847" lon="9.71735723279296"><ele>200.0</ele><time>2026-04-06T15:21:57Z</time></trkpt><trkpt lat="33.3788486796278" lon="9.71729451101569"><ele>200.0</ele><time>2026-04-06T15:21:58Z</time></trkpt><trkpt lat="33.37914115928234" lon="9.717228510073294"><ele>199.5</ele><time>2026-04-06T15:21:59Z</time></trkpt><trkpt lat="33.37942980092438" lon="9.717167973238615"><ele>199.0</ele><time>2026-04-06T15:22:00Z</time></trkpt><trkpt lat="33.37971620852133" lon="9.717110376208316"><ele>200.5</ele><time>2026-04-06T15:22:01Z</time></trkpt><trkpt lat="33.37999295955387" lon="9.717052256503079"><ele>202.0</ele><time>2026-04-06T15:22:02Z</time></trkpt><trkpt lat="33.380263262540915" lon="9.71699290661135"><ele>202.5</ele><time>2026-04-06T15:22:03Z</time></trkpt><trkpt lat="33.380530650220116" lon="9.716939778382562"><ele>203.0</ele><time>2026-04-06T15:22:04Z</time></trkpt><trkpt lat="33.380784358397584" lon="9.716894432185471"><ele>202.0</ele><time>2026-04-06T15:22:05Z</time></trkpt><trkpt lat="33.38102566936861" lon="9.716848893365421"><ele>201.0</ele><time>2026-04-06T15:22:06Z</time></trkpt><trkpt lat="33.38126901627309" lon="9.716799357721627"><ele>202.5</ele><time>2026-04-06T15:22:07Z</time></trkpt><trkpt lat="33.38151415436195" lon="9.716746725397329"><ele>204.0</ele><time>2026-04-06T15:22:08Z</time></trkpt><trkpt lat="33.381761444558606" lon="9.716687936048098"><ele>204.0</ele><time>2026-04-06T15:22:09Z</time></trkpt><trkpt lat="33.381996723340364" lon="9.716630521758304"><ele>204.0</ele><time>2026-04-06T15:22:10Z</time></trkpt><trkpt lat="33.38222406730911" lon="9.716574590383527"><ele>205.5</ele><time>2026-04-06T15:22:11Z</time></trkpt><trkpt lat="33.38244753362597" lon="9.716521738038677"><ele>207.0</ele><time>2026-04-06T15:22:12Z</time></trkpt><trkpt lat="33.382668423319586" lon="9.716465397754488"><ele>207.0</ele><time>2026-04-06T15:22:13Z</time></trkpt><trkpt lat="33.38289431652845" lon="9.71640715751637"><ele>207.0</ele><time>2026-04-06T15:22:14Z</time></trkpt><trkpt lat="33.38313013001544" lon="9.716351611456943"><ele>208.0</ele><time>2026-04-06T15:22:15Z</time></trkpt><trkpt lat="33.38336245356023" lon="9.716304655467406"><ele>209.0</ele><time>2026-04-06T15:22:16Z</time></trkpt><trkpt lat="33.383589944908856" lon="9.716258978045259"><ele>209.0</ele><time>2026-04-06T15:22:17Z</time></trkpt><trkpt lat="33.3838215281023" lon="9.716215863091213"><ele>209.0</ele><time>2026-04-06T15:22:18Z</time></trkpt><trkpt lat="33.38406267586905" lon="9.716169676603142"><ele>209.5</ele><time>2026-04-06T15:22:19Z</time></trkpt><trkpt lat="33.38430585309939" lon="9.716120188049745"><ele>210.0</ele><time>2026-04-06T15:22:20Z</time></trkpt><trkpt lat="33.38455839071919" lon="9.716057533801939"><ele>209.5</ele><time>2026-04-06T15:22:21Z</time></trkpt><trkpt lat="33.38481496019615" lon="9.715991241334185"><ele>209.0</ele><time>2026-04-06T15:22:22Z</time></trkpt><trkpt lat="33.385081926483686" lon="9.71592594515753"><ele>209.0</ele><time>2026-04-06T15:22:23Z</time></trkpt><trkpt lat="33.3853441860362" lon="9.715871718328867"><ele>209.0</ele><time>2026-04-06T15:22:24Z</time></trkpt><trkpt lat="33.38561289097555" lon="9.715820829228058"><ele>208.5</ele><time>2026-04-06T15:22:25Z</time></trkpt><trkpt lat="33.3858788345431" lon="9.71577111711943"><ele>208.0</ele><time>2026-04-06T15:22:26Z</time></trkpt><trkpt lat="33.386146769867345" lon="9.715718370000294"><ele>208.0</ele><time>2026-04-06T15:22:27Z</time></trkpt><trkpt lat="33.38641328192058" lon="9.715666261869096"><ele>208.0</ele><time>2026-04-06T15:22:28Z</time></trkpt><trkpt lat="33.386682919360666" lon="9.715615200804708"><ele>208.0</ele><time>2026-04-06T15:22:29Z</time></trkpt><trkpt lat="33.386949264605796" lon="9.715561700734733"><ele>208.0</ele><time>2026-04-06T15:22:30.001Z</time></trkpt><trkpt lat="33.3872176881995" lon="9.715504873783496"><ele>207.0</ele><time>2026-04-06T15:22:31.001Z</time></trkpt><trkpt lat="33.38748299057414" lon="9.715439182237873"><ele>206.0</ele><time>2026-04-06T15:22:32.001Z</time></trkpt><trkpt lat="33.38775043204142" lon="9.715373038819086"><ele>206.0</ele><time>2026-04-06T15:22:33.001Z</time></trkpt><trkpt lat="33.38801976386635" lon="9.7153070122805"><ele>206.0</ele><time>2026-04-06T15:22:34.001Z</time></trkpt><trkpt lat="33.388290568450934" lon="9.715243120691357"><ele>205.0</ele><time>2026-04-06T15:22:35.001Z</time></trkpt><trkpt lat="33.388556530475114" lon="9.715180211840249"><ele>204.0</ele><time>2026-04-06T15:22:36.001Z</time></trkpt><trkpt lat="33.388822706932395" lon="9.71512052882079"><ele>203.5</ele><time>2026-04-06T15:22:37.001Z</time></trkpt><trkpt lat="33.38908245111043" lon="9.715063402487676"><ele>203.0</ele><time>2026-04-06T15:22:38.001Z</time></trkpt><trkpt lat="33.38934118682592" lon="9.715009672758134"><ele>203.0</ele><time>2026-04-06T15:22:39.001Z</time></trkpt><trkpt lat="33.389594061716544" lon="9.714955199296202"><ele>203.0</ele><time>2026-04-06T15:22:40.001Z</time></trkpt><trkpt lat="33.38984269953641" lon="9.714902163867306"><ele>202.5</ele><time>2026-04-06T15:22:41.001Z</time></trkpt><trkpt lat="33.39008882101609" lon="9.714848602320192"><ele>202.0</ele><time>2026-04-06T15:22:42.001Z</time></trkpt><trkpt lat="33.39033621010507" lon="9.714795846898742"><ele>202.0</ele><time>2026-04-06T15:22:43.001Z</time></trkpt><trkpt lat="33.390582852951745" lon="9.714743363577307"><ele>202.0</ele><time>2026-04-06T15:22:44.001Z</time></trkpt><trkpt lat="33.39082800580007" lon="9.714691030268316"><ele>202.0</ele><time>2026-04-06T15:22:45.001Z</time></trkpt><trkpt lat="33.391069051312954" lon="9.71463949512022"><ele>202.0</ele><time>2026-04-06T15:22:46.001Z</time></trkpt><trkpt lat="33.39130166490175" lon="9.714592704000436"><ele>202.5</ele><time>2026-04-06T15:22:47.001Z</time></trkpt><trkpt lat="33.39153513164512" lon="9.714546842399722"><ele>203.0</ele><time>2026-04-06T15:22:48.001Z</time></trkpt><trkpt lat="33.391768184195286" lon="9.714497873594638"><ele>203.0</ele><time>2026-04-06T15:22:49.001Z</time></trkpt><trkpt lat="33.391997076697685" lon="9.714446088594475"><ele>203.0</ele><time>2026-04-06T15:22:50.001Z</time></trkpt><trkpt lat="33.392225701459694" lon="9.714395266184574"><ele>205.5</ele><time>2026-04-06T15:22:51.001Z</time></trkpt><trkpt lat="33.39245590675739" lon="9.714346391764362"><ele>208.0</ele><time>2026-04-06T15:22:52.001Z</time></trkpt><trkpt lat="33.39268553134314" lon="9.71429451543116"><ele>208.0</ele><time>2026-04-06T15:22:53.001Z</time></trkpt><trkpt lat="33.39291649188618" lon="9.714236425753285"><ele>208.0</ele><time>2026-04-06T15:22:54.001Z</time></trkpt><trkpt lat="33.393149909345034" lon="9.714177923647506"><ele>208.5</ele><time>2026-04-06T15:22:55.001Z</time></trkpt><trkpt lat="33.393382926551055" lon="9.714126517722846"><ele>209.0</ele><time>2026-04-06T15:22:56.001Z</time></trkpt><trkpt lat="33.39362009359707" lon="9.714078935191468"><ele>210.0</ele><time>2026-04-06T15:22:57.001Z</time></trkpt><trkpt lat="33.393861785474925" lon="9.714030178851718"><ele>211.0</ele><time>2026-04-06T15:22:58.001Z</time></trkpt><trkpt lat="33.394102270595674" lon="9.713980726031359"><ele>211.0</ele><time>2026-04-06T15:22:59.001Z</time></trkpt><trkpt lat="33.3943412778632" lon="9.713931929526202"><ele>211.0</ele><time>2026-04-06T15:23:00.001Z</time></trkpt><trkpt lat="33.39457911659349" lon="9.713879486674587"><ele>211.5</ele><time>2026-04-06T15:23:01.001Z</time></trkpt><trkpt lat="33.39482291632585" lon="9.713824207641002"><ele>212.0</ele><time>2026-04-06T15:23:02.001Z</time></trkpt><trkpt lat="33.3950715140963" lon="9.71377015025921"><ele>212.0</ele><time>2026-04-06T15:23:03.001Z</time></trkpt><trkpt lat="33.39532106939662" lon="9.713714523744962"><ele>212.0</ele><time>2026-04-06T15:23:04.001Z</time></trkpt><trkpt lat="33.395576665410374" lon="9.7136584987897"><ele>212.0</ele><time>2026-04-06T15:23:05.001Z</time></trkpt><trkpt lat="33.39583421265415" lon="9.713601167248168"><ele>212.0</ele><time>2026-04-06T15:23:06.001Z</time></trkpt><trkpt lat="33.3960943590576" lon="9.713541609765397"><ele>212.5</ele><time>2026-04-06T15:23:07.001Z</time></trkpt><trkpt lat="33.39635868818948" lon="9.713485407165603"><ele>213.0</ele><time>2026-04-06T15:23:08.001Z</time></trkpt><trkpt lat="33.39662195994685" lon="9.713431523759564"><ele>213.0</ele><time>2026-04-06T15:23:09.001Z</time></trkpt><trkpt lat="33.39688719994007" lon="9.713370245452229"><ele>213.0</ele><time>2026-04-06T15:23:10.001Z</time></trkpt><trkpt lat="33.39715378398996" lon="9.713305751914131"><ele>213.5</ele><time>2026-04-06T15:23:11.001Z</time></trkpt><trkpt lat="33.39742026157246" lon="9.713240270659277"><ele>214.0</ele><time>2026-04-06T15:23:12.001Z</time></trkpt><trkpt lat="33.39768834043945" lon="9.71317642332672"><ele>214.0</ele><time>2026-04-06T15:23:13.001Z</time></trkpt><trkpt lat="33.39795558639011" lon="9.71311950780249"><ele>214.0</ele><time>2026-04-06T15:23:14.001Z</time></trkpt><trkpt lat="33.39822564194645" lon="9.713064620962621"><ele>214.0</ele><time>2026-04-06T15:23:15.001Z</time></trkpt><trkpt lat="33.398493653749206" lon="9.713011400752706"><ele>214.0</ele><time>2026-04-06T15:23:16.001Z</time></trkpt><trkpt lat="33.39876101379109" lon="9.712957741780665"><ele>213.5</ele><time>2026-04-06T15:23:17.001Z</time></trkpt><trkpt lat="33.39902581201202" lon="9.712905618065225"><ele>213.0</ele><time>2026-04-06T15:23:18.001Z</time></trkpt><trkpt lat="33.39928698364472" lon="9.71285446853453"><ele>213.0</ele><time>2026-04-06T15:23:19.001Z</time></trkpt><trkpt lat="33.39954492762522" lon="9.712800874251986"><ele>213.0</ele><time>2026-04-06T15:23:20.001Z</time></trkpt><trkpt lat="33.399800655952944" lon="9.712743555710592"><ele>212.5</ele><time>2026-04-06T15:23:21.001Z</time></trkpt><trkpt lat="33.40005248765169" lon="9.712684352994973"><ele>212.0</ele><time>2026-04-06T15:23:22.001Z</time></trkpt><trkpt lat="33.40030582030085" lon="9.712622891265452"><ele>211.0</ele><time>2026-04-06T15:23:23.001Z</time></trkpt><trkpt lat="33.40055718913655" lon="9.712562564792766"><ele>210.0</ele><time>2026-04-06T15:23:24.001Z</time></trkpt><trkpt lat="33.4008082039861" lon="9.71250062246552"><ele>210.0</ele><time>2026-04-06T15:23:25.001Z</time></trkpt><trkpt lat="33.40105679633051" lon="9.712438378785622"><ele>210.0</ele><time>2026-04-06T15:23:26.001Z</time></trkpt><trkpt lat="33.40130127197509" lon="9.71237862125551"><ele>211.0</ele><time>2026-04-06T15:23:27.001Z</time></trkpt><trkpt lat="33.40154460925079" lon="9.712323912063741"><ele>212.0</ele><time>2026-04-06T15:23:28.001Z</time></trkpt><trkpt lat="33.40178983427381" lon="9.712274875054517"><ele>212.0</ele><time>2026-04-06T15:23:29.001Z</time></trkpt><trkpt lat="33.40203176357589" lon="9.712232004748516"><ele>212.0</ele><time>2026-04-06T15:23:30.001Z</time></trkpt><trkpt lat="33.402274553114445" lon="9.712183418677578"><ele>212.5</ele><time>2026-04-06T15:23:31.001Z</time></trkpt><trkpt lat="33.40251827946795" lon="9.712131709543382"><ele>213.0</ele><time>2026-04-06T15:23:32.001Z</time></trkpt><trkpt lat="33.402763714754286" lon="9.712076822822796"><ele>212.0</ele><time>2026-04-06T15:23:33.001Z</time></trkpt><trkpt lat="33.40301004050575" lon="9.712020983221457"><ele>211.0</ele><time>2026-04-06T15:23:34.001Z</time></trkpt><trkpt lat="33.403261367401555" lon="9.711963847467507"><ele>211.0</ele><time>2026-04-06T15:23:35.001Z</time></trkpt><trkpt lat="33.40351729497313" lon="9.711907177105878"><ele>211.0</ele><time>2026-04-06T15:23:36.001Z</time></trkpt><trkpt lat="33.403775669437586" lon="9.711851656821754"><ele>212.0</ele><time>2026-04-06T15:23:37.001Z</time></trkpt><trkpt lat="33.40403779346106" lon="9.71179548331384"><ele>213.0</ele><time>2026-04-06T15:23:38.001Z</time></trkpt><trkpt lat="33.404302676069285" lon="9.71173969826699"><ele>213.0</ele><time>2026-04-06T15:23:39.001Z</time></trkpt><trkpt lat="33.404569488747725" lon="9.711679340010004"><ele>213.0</ele><time>2026-04-06T15:23:40.001Z</time></trkpt><trkpt lat="33.404838227196414" lon="9.711613184240107"><ele>213.0</ele><time>2026-04-06T15:23:41.001Z</time></trkpt><trkpt lat="33.405107902735516" lon="9.711546127563398"><ele>213.0</ele><time>2026-04-06T15:23:42.001Z</time></trkpt><trkpt lat="33.405379958810755" lon="9.71148588685885"><ele>213.0</ele><time>2026-04-06T15:23:43.001Z</time></trkpt><trkpt lat="33.405651750939256" lon="9.711432182698035"><ele>213.0</ele><time>2026-04-06T15:23:44.001Z</time></trkpt><trkpt lat="33.405928493701005" lon="9.711380776648404"><ele>213.0</ele><time>2026-04-06T15:23:45.001Z</time></trkpt><trkpt lat="33.40620047199895" lon="9.71132951059829"><ele>213.0</ele><time>2026-04-06T15:23:46.001Z</time></trkpt><trkpt lat="33.40647608607595" lon="9.711272160840528"><ele>213.0</ele><time>2026-04-06T15:23:47.001Z</time></trkpt><trkpt lat="33.406747799245636" lon="9.711212776584365"><ele>213.0</ele><time>2026-04-06T15:23:48.001Z</time></trkpt><trkpt lat="33.40701825206901" lon="9.711150968795392"><ele>212.5</ele><time>2026-04-06T15:23:49.001Z</time></trkpt><trkpt lat="33.40728659717177" lon="9.711089941790624"><ele>212.0</ele><time>2026-04-06T15:23:50.001Z</time></trkpt><trkpt lat="33.40755637179821" lon="9.711030534903562"><ele>212.0</ele><time>2026-04-06T15:23:51.001Z</time></trkpt><trkpt lat="33.40783006188272" lon="9.710974779323259"><ele>212.0</ele><time>2026-04-06T15:23:52.001Z</time></trkpt><trkpt lat="33.408101203507655" lon="9.71091672710177"><ele>210.5</ele><time>2026-04-06T15:23:53.001Z</time></trkpt><trkpt lat="33.408369422454754" lon="9.71085609986204"><ele>209.0</ele><time>2026-04-06T15:23:54.001Z</time></trkpt><trkpt lat="33.40863972253746" lon="9.710791734104163"><ele>209.5</ele><time>2026-04-06T15:23:55.001Z</time></trkpt><trkpt lat="33.408907239350135" lon="9.71072657560708"><ele>210.0</ele><time>2026-04-06T15:23:56.001Z</time></trkpt><trkpt lat="33.40917308044007" lon="9.710660495955734"><ele>210.0</ele><time>2026-04-06T15:23:57.001Z</time></trkpt><trkpt lat="33.40944082581512" lon="9.710598893477046"><ele>210.0</ele><time>2026-04-06T15:23:58.001Z</time></trkpt><trkpt lat="33.409710534187674" lon="9.710540570463024"><ele>209.5</ele><time>2026-04-06T15:23:59.001Z</time></trkpt><trkpt lat="33.409982297465795" lon="9.710482805412889"><ele>209.0</ele><time>2026-04-06T15:24:00.001Z</time></trkpt><trkpt lat="33.410259297350116" lon="9.710428348186715"><ele>209.0</ele><time>2026-04-06T15:24:01.001Z</time></trkpt><trkpt lat="33.410537162203994" lon="9.710373607443108"><ele>209.0</ele><time>2026-04-06T15:24:02.001Z</time></trkpt><trkpt lat="33.41081622442813" lon="9.710318292260185"><ele>209.0</ele><time>2026-04-06T15:24:03.001Z</time></trkpt><trkpt lat="33.41109819240957" lon="9.710261310413172"><ele>209.0</ele><time>2026-04-06T15:24:04.001Z</time></trkpt><trkpt lat="33.41137705384782" lon="9.71020570223321"><ele>208.5</ele><time>2026-04-06T15:24:05.001Z</time></trkpt><trkpt lat="33.41165335014705" lon="9.710150975927217"><ele>208.0</ele><time>2026-04-06T15:24:06.001Z</time></trkpt><trkpt lat="33.411927684429145" lon="9.710093506717175"><ele>207.0</ele><time>2026-04-06T15:24:07.001Z</time></trkpt><trkpt lat="33.41220403285394" lon="9.710035527324429"><ele>206.0</ele><time>2026-04-06T15:24:08.001Z</time></trkpt><trkpt lat="33.41248590423965" lon="9.709978023906778"><ele>206.0</ele><time>2026-04-06T15:24:09.001Z</time></trkpt><trkpt lat="33.41276426542378" lon="9.709922359308175"><ele>206.0</ele><time>2026-04-06T15:24:10.001Z</time></trkpt><trkpt lat="33.413043110623185" lon="9.709869482805136"><ele>206.0</ele><time>2026-04-06T15:24:11.001Z</time></trkpt><trkpt lat="33.41332773451923" lon="9.709816076147968"><ele>206.0</ele><time>2026-04-06T15:24:12.001Z</time></trkpt><trkpt lat="33.41361321894522" lon="9.709763737640804"><ele>205.5</ele><time>2026-04-06T15:24:13.001Z</time></trkpt><trkpt lat="33.413898125639605" lon="9.709709443627096"><ele>205.0</ele><time>2026-04-06T15:24:14.001Z</time></trkpt><trkpt lat="33.41418548501809" lon="9.709654543849567"><ele>205.0</ele><time>2026-04-06T15:24:15.001Z</time></trkpt><trkpt lat="33.414472183582255" lon="9.709598726862037"><ele>205.0</ele><time>2026-04-06T15:24:16.001Z</time></trkpt><trkpt lat="33.414758911224475" lon="9.709543719576722"><ele>205.0</ele><time>2026-04-06T15:24:17.001Z</time></trkpt><trkpt lat="33.415034725809285" lon="9.709488236786953"><ele>205.0</ele><time>2026-04-06T15:24:18.001Z</time></trkpt><trkpt lat="33.41530280569508" lon="9.709438005341244"><ele>206.5</ele><time>2026-04-06T15:24:19.001Z</time></trkpt><trkpt lat="33.41558126653368" lon="9.709383081765429"><ele>208.0</ele><time>2026-04-06T15:24:20.001Z</time></trkpt><trkpt lat="33.41585927698518" lon="9.709328378226198"><ele>208.0</ele><time>2026-04-06T15:24:21.001Z</time></trkpt><trkpt lat="33.41613325075441" lon="9.709271674080126"><ele>208.0</ele><time>2026-04-06T15:24:22.001Z</time></trkpt><trkpt lat="33.41640448815513" lon="9.70921894833854"><ele>207.0</ele><time>2026-04-06T15:24:23.001Z</time></trkpt><trkpt lat="33.41667221883358" lon="9.709168309288433"><ele>206.0</ele><time>2026-04-06T15:24:24.001Z</time></trkpt><trkpt lat="33.416936097184546" lon="9.7091176728849"><ele>206.5</ele><time>2026-04-06T15:24:25.001Z</time></trkpt><trkpt lat="33.41719744881092" lon="9.709067087643492"><ele>207.0</ele><time>2026-04-06T15:24:26.001Z</time></trkpt><trkpt lat="33.41745760055538" lon="9.709015038194252"><ele>207.0</ele><time>2026-04-06T15:24:27.001Z</time></trkpt><trkpt lat="33.41771936828606" lon="9.708964021948477"><ele>207.0</ele><time>2026-04-06T15:24:28.001Z</time></trkpt><trkpt lat="33.417976576216056" lon="9.708911084210046"><ele>207.0</ele><time>2026-04-06T15:24:29.001Z</time></trkpt><trkpt lat="33.41823789692503" lon="9.708857759551616"><ele>207.0</ele><time>2026-04-06T15:24:30.001Z</time></trkpt><trkpt lat="33.41848990461371" lon="9.708808846649372"><ele>207.0</ele><time>2026-04-06T15:24:31.001Z</time></trkpt><trkpt lat="33.41874240432615" lon="9.708761509412488"><ele>207.0</ele><time>2026-04-06T15:24:32.001Z</time></trkpt><trkpt lat="33.41899583396171" lon="9.708714091384715"><ele>207.0</ele><time>2026-04-06T15:24:33.001Z</time></trkpt><trkpt lat="33.41925995287112" lon="9.70866178600938"><ele>207.0</ele><time>2026-04-06T15:24:34.001Z</time></trkpt><trkpt lat="33.419529803352034" lon="9.708607759149148"><ele>206.5</ele><time>2026-04-06T15:24:35.001Z</time></trkpt><trkpt lat="33.41980593661792" lon="9.708551791700192"><ele>206.0</ele><time>2026-04-06T15:24:36.001Z</time></trkpt><trkpt lat="33.42008730520243" lon="9.708493392112713"><ele>206.0</ele><time>2026-04-06T15:24:37.001Z</time></trkpt><trkpt lat="33.42035899321989" lon="9.708439212717423"><ele>206.0</ele><time>2026-04-06T15:24:38.001Z</time></trkpt><trkpt lat="33.42061383823084" lon="9.708393665391993"><ele>206.0</ele><time>2026-04-06T15:24:39.001Z</time></trkpt><trkpt lat="33.42086680823166" lon="9.708349597994506"><ele>206.0</ele><time>2026-04-06T15:24:40.001Z</time></trkpt><trkpt lat="33.42112094644434" lon="9.708298605424792"><ele>206.0</ele><time>2026-04-06T15:24:41.001Z</time></trkpt><trkpt lat="33.421378911194736" lon="9.708242457344959"><ele>206.0</ele><time>2026-04-06T15:24:42.001Z</time></trkpt><trkpt lat="33.42164308613806" lon="9.70818744597141"><ele>206.0</ele><time>2026-04-06T15:24:43.001Z</time></trkpt><trkpt lat="33.4219103514418" lon="9.708134908460863"><ele>206.0</ele><time>2026-04-06T15:24:44.001Z</time></trkpt><trkpt lat="33.422177317311785" lon="9.708080558853435"><ele>207.0</ele><time>2026-04-06T15:24:45.001Z</time></trkpt><trkpt lat="33.422437826031306" lon="9.708029244768133"><ele>208.0</ele><time>2026-04-06T15:24:46.001Z</time></trkpt><trkpt lat="33.42269938447269" lon="9.707977805758297"><ele>208.0</ele><time>2026-04-06T15:24:47.001Z</time></trkpt><trkpt lat="33.42296517020631" lon="9.707929086843528"><ele>208.0</ele><time>2026-04-06T15:24:48.001Z</time></trkpt><trkpt lat="33.42323289115069" lon="9.707879054644451"><ele>208.0</ele><time>2026-04-06T15:24:49.001Z</time></trkpt><trkpt lat="33.42349654241616" lon="9.707825896329963"><ele>208.0</ele><time>2026-04-06T15:24:50.001Z</time></trkpt><trkpt lat="33.42376177662864" lon="9.707770140725062"><ele>207.5</ele><time>2026-04-06T15:24:51.001Z</time></trkpt><trkpt lat="33.42402466045711" lon="9.707716823398242"><ele>207.0</ele><time>2026-04-06T15:24:52.001Z</time></trkpt><trkpt lat="33.42428552413867" lon="9.707665169940345"><ele>207.0</ele><time>2026-04-06T15:24:53.001Z</time></trkpt><trkpt lat="33.42454685315797" lon="9.707611514386773"><ele>207.0</ele><time>2026-04-06T15:24:54.001Z</time></trkpt><trkpt lat="33.424810474297814" lon="9.70755693781002"><ele>207.0</ele><time>2026-04-06T15:24:55.001Z</time></trkpt><trkpt lat="33.425076627175045" lon="9.707504135383603"><ele>207.0</ele><time>2026-04-06T15:24:56.001Z</time></trkpt><trkpt lat="33.42534236599511" lon="9.7074504519556"><ele>206.5</ele><time>2026-04-06T15:24:57.001Z</time></trkpt><trkpt lat="33.42560755146979" lon="9.70739304369471"><ele>206.0</ele><time>2026-04-06T15:24:58.001Z</time></trkpt><trkpt lat="33.42587535837652" lon="9.707334369700662"><ele>206.0</ele><time>2026-04-06T15:24:59.001Z</time></trkpt><trkpt lat="33.426143169384666" lon="9.707278138217054"><ele>206.0</ele><time>2026-04-06T15:25:00.001Z</time></trkpt><trkpt lat="33.42641036593754" lon="9.707224963619014"><ele>205.0</ele><time>2026-04-06T15:25:01.001Z</time></trkpt><trkpt lat="33.426679231401295" lon="9.707173928428722"><ele>204.0</ele><time>2026-04-06T15:25:02.001Z</time></trkpt><trkpt lat="33.426949895416215" lon="9.707123677188017"><ele>204.5</ele><time>2026-04-06T15:25:03.001Z</time></trkpt><trkpt lat="33.42722507855415" lon="9.707073367847707"><ele>205.0</ele><time>2026-04-06T15:25:04.001Z</time></trkpt><trkpt lat="33.427499630526285" lon="9.70702640103159"><ele>205.0</ele><time>2026-04-06T15:25:05.001Z</time></trkpt><trkpt lat="33.427779015396275" lon="9.70697765174007"><ele>205.0</ele><time>2026-04-06T15:25:06.001Z</time></trkpt><trkpt lat="33.42805533603425" lon="9.706924156219364"><ele>204.5</ele><time>2026-04-06T15:25:07.001Z</time></trkpt><trkpt lat="33.42834601900443" lon="9.706865195399228"><ele>204.0</ele><time>2026-04-06T15:25:08.001Z</time></trkpt><trkpt lat="33.42864739529012" lon="9.706804949134666"><ele>203.5</ele><time>2026-04-06T15:25:09.001Z</time></trkpt><trkpt lat="33.42895622449608" lon="9.706742259648376"><ele>203.0</ele><time>2026-04-06T15:25:10.001Z</time></trkpt><trkpt lat="33.42925278820944" lon="9.706683376695665"><ele>203.0</ele><time>2026-04-06T15:25:11.001Z</time></trkpt><trkpt lat="33.429535842155516" lon="9.706626840693621"><ele>203.0</ele><time>2026-04-06T15:25:12.001Z</time></trkpt><trkpt lat="33.4298164212565" lon="9.706570077633721"><ele>203.0</ele><time>2026-04-06T15:25:13.001Z</time></trkpt><trkpt lat="33.430104678024115" lon="9.706513362081948"><ele>203.0</ele><time>2026-04-06T15:25:14.001Z</time></trkpt><trkpt lat="33.43039137026488" lon="9.706456871734957"><ele>204.0</ele><time>2026-04-06T15:25:15.001Z</time></trkpt><trkpt lat="33.43067926403055" lon="9.706399797497982"><ele>205.0</ele><time>2026-04-06T15:25:16.001Z</time></trkpt><trkpt lat="33.43096021859148" lon="9.706339669192571"><ele>205.0</ele><time>2026-04-06T15:25:17.001Z</time></trkpt><trkpt lat="33.43123745218403" lon="9.706278206583576"><ele>205.0</ele><time>2026-04-06T15:25:18.001Z</time></trkpt><trkpt lat="33.43151443839734" lon="9.706223170823858"><ele>205.0</ele><time>2026-04-06T15:25:19.001Z</time></trkpt><trkpt lat="33.43179526215148" lon="9.7061785109046"><ele>205.0</ele><time>2026-04-06T15:25:20.001Z</time></trkpt><trkpt lat="33.432080030117184" lon="9.70614119252173"><ele>204.0</ele><time>2026-04-06T15:25:21.001Z</time></trkpt><trkpt lat="33.43236082817183" lon="9.706093878353217"><ele>203.0</ele><time>2026-04-06T15:25:22.001Z</time></trkpt><trkpt lat="33.43264211325831" lon="9.706028618506984"><ele>203.0</ele><time>2026-04-06T15:25:23.001Z</time></trkpt><trkpt lat="33.432920662616006" lon="9.705958602280472"><ele>203.0</ele><time>2026-04-06T15:25:24.001Z</time></trkpt><trkpt lat="33.433202002488784" lon="9.705901993556607"><ele>203.5</ele><time>2026-04-06T15:25:25.001Z</time></trkpt><trkpt lat="33.433486765119994" lon="9.705854386387651"><ele>204.0</ele><time>2026-04-06T15:25:26.001Z</time></trkpt><trkpt lat="33.43377152627122" lon="9.705801932200188"><ele>204.0</ele><time>2026-04-06T15:25:27.001Z</time></trkpt><trkpt lat="33.43405498408324" lon="9.705744863303638"><ele>204.0</ele><time>2026-04-06T15:25:28.001Z</time></trkpt><trkpt lat="33.43434105643096" lon="9.705689154021927"><ele>204.0</ele><time>2026-04-06T15:25:29.001Z</time></trkpt><trkpt lat="33.43463444497943" lon="9.705631200554492"><ele>204.0</ele><time>2026-04-06T15:25:30.001Z</time></trkpt><trkpt lat="33.434922317651115" lon="9.705570464785538"><ele>203.5</ele><time>2026-04-06T15:25:31.001Z</time></trkpt><trkpt lat="33.43521938341563" lon="9.70550757902125"><ele>203.0</ele><time>2026-04-06T15:25:32.001Z</time></trkpt><trkpt lat="33.435511857876335" lon="9.70544711126035"><ele>203.0</ele><time>2026-04-06T15:25:33.001Z</time></trkpt><trkpt lat="33.43580732378306" lon="9.705389582574734"><ele>203.0</ele><time>2026-04-06T15:25:34.001Z</time></trkpt><trkpt lat="33.43610541456657" lon="9.705335699991656"><ele>202.5</ele><time>2026-04-06T15:25:35.001Z</time></trkpt><trkpt lat="33.43640326633051" lon="9.705282847421037"><ele>202.0</ele><time>2026-04-06T15:25:36.001Z</time></trkpt><trkpt lat="33.43670265158681" lon="9.705230252350061"><ele>201.0</ele><time>2026-04-06T15:25:37.001Z</time></trkpt><trkpt lat="33.4369984584776" lon="9.705177793364381"><ele>200.0</ele><time>2026-04-06T15:25:38.001Z</time></trkpt><trkpt lat="33.43729709847332" lon="9.705122937926902"><ele>200.0</ele><time>2026-04-06T15:25:39.001Z</time></trkpt><trkpt lat="33.4375918063603" lon="9.705065184323185"><ele>200.0</ele><time>2026-04-06T15:25:40.001Z</time></trkpt><trkpt lat="33.437868734301155" lon="9.705006470910858"><ele>201.0</ele><time>2026-04-06T15:25:41.001Z</time></trkpt><trkpt lat="33.43812847679629" lon="9.704955374386621"><ele>202.0</ele><time>2026-04-06T15:25:42.001Z</time></trkpt><trkpt lat="33.43835894638063" lon="9.704909440042066"><ele>202.0</ele><time>2026-04-06T15:25:43.001Z</time></trkpt><trkpt lat="33.438572332270496" lon="9.704868682987561"><ele>202.0</ele><time>2026-04-06T15:25:44.001Z</time></trkpt><trkpt lat="33.43879719374927" lon="9.704827165539085"><ele>202.0</ele><time>2026-04-06T15:25:45.001Z</time></trkpt><trkpt lat="33.43904217813235" lon="9.70478209175069"><ele>202.0</ele><time>2026-04-06T15:25:46.001Z</time></trkpt><trkpt lat="33.439305906660564" lon="9.7047301523214"><ele>202.0</ele><time>2026-04-06T15:25:47.001Z</time></trkpt><trkpt lat="33.43957196766674" lon="9.704678352475906"><ele>201.5</ele><time>2026-04-06T15:25:48.001Z</time></trkpt><trkpt lat="33.43984601338179" lon="9.704629313912331"><ele>201.0</ele><time>2026-04-06T15:25:49.001Z</time></trkpt><trkpt lat="33.440123978301216" lon="9.70457733890959"><ele>201.0</ele><time>2026-04-06T15:25:50.001Z</time></trkpt><trkpt lat="33.44040785424536" lon="9.704522322414343"><ele>201.0</ele><time>2026-04-06T15:25:51.001Z</time></trkpt><trkpt lat="33.44068769735868" lon="9.704467510656286"><ele>201.0</ele><time>2026-04-06T15:25:52.001Z</time></trkpt><trkpt lat="33.440971848434046" lon="9.704416836233932"><ele>201.0</ele><time>2026-04-06T15:25:53.001Z</time></trkpt><trkpt lat="33.44125628353195" lon="9.704371098881952"><ele>200.5</ele><time>2026-04-06T15:25:54.001Z</time></trkpt><trkpt lat="33.44154005576822" lon="9.704328064903967"><ele>200.0</ele><time>2026-04-06T15:25:55.001Z</time></trkpt><trkpt lat="33.44182316349392" lon="9.704278772129362"><ele>200.0</ele><time>2026-04-06T15:25:56.001Z</time></trkpt><trkpt lat="33.44210050902397" lon="9.704225353323523"><ele>200.0</ele><time>2026-04-06T15:25:57.001Z</time></trkpt><trkpt lat="33.442372907625824" lon="9.704171956689503"><ele>199.0</ele><time>2026-04-06T15:25:58.001Z</time></trkpt><trkpt lat="33.442641965685254" lon="9.704116629407443"><ele>198.0</ele><time>2026-04-06T15:25:59.001Z</time></trkpt><trkpt lat="33.44290483343403" lon="9.70407019204799"><ele>199.0</ele><time>2026-04-06T15:26:00.001Z</time></trkpt><trkpt lat="33.44317002838787" lon="9.704027660817163"><ele>200.0</ele><time>2026-04-06T15:26:01.001Z</time></trkpt><trkpt lat="33.443437444294716" lon="9.7039791267579"><ele>200.0</ele><time>2026-04-06T15:26:02.001Z</time></trkpt><trkpt lat="33.443708565099875" lon="9.703929869467428"><ele>200.0</ele><time>2026-04-06T15:26:03.001Z</time></trkpt><trkpt lat="33.44398473592454" lon="9.70388082065131"><ele>200.5</ele><time>2026-04-06T15:26:04.001Z</time></trkpt><trkpt lat="33.4442612600363" lon="9.703831326777559"><ele>201.0</ele><time>2026-04-06T15:26:05.001Z</time></trkpt><trkpt lat="33.44454222929991" lon="9.703778753347084"><ele>201.0</ele><time>2026-04-06T15:26:06.001Z</time></trkpt><trkpt lat="33.44482238006085" lon="9.703725004101004"><ele>201.0</ele><time>2026-04-06T15:26:07.001Z</time></trkpt><trkpt lat="33.44510718546571" lon="9.703669421493947"><ele>201.0</ele><time>2026-04-06T15:26:08.001Z</time></trkpt><trkpt lat="33.44539347579251" lon="9.703617654607589"><ele>201.0</ele><time>2026-04-06T15:26:09.001Z</time></trkpt><trkpt lat="33.445686902388076" lon="9.703563095167086"><ele>200.0</ele><time>2026-04-06T15:26:10.001Z</time></trkpt><trkpt lat="33.445979372039865" lon="9.70351022662767"><ele>199.0</ele><time>2026-04-06T15:26:11.001Z</time></trkpt><trkpt lat="33.4462715855428" lon="9.703457353047412"><ele>199.0</ele><time>2026-04-06T15:26:12.001Z</time></trkpt><trkpt lat="33.446567431067976" lon="9.703400726982775"><ele>199.0</ele><time>2026-04-06T15:26:13.001Z</time></trkpt><trkpt lat="33.44686086888492" lon="9.703341085670953"><ele>198.0</ele><time>2026-04-06T15:26:14.001Z</time></trkpt><trkpt lat="33.447157208312916" lon="9.703274725726866"><ele>197.0</ele><time>2026-04-06T15:26:15.001Z</time></trkpt><trkpt lat="33.447454804019465" lon="9.70320890188151"><ele>197.0</ele><time>2026-04-06T15:26:16.001Z</time></trkpt><trkpt lat="33.44775112442498" lon="9.703148794378437"><ele>197.0</ele><time>2026-04-06T15:26:17.001Z</time></trkpt><trkpt lat="33.448047051613386" lon="9.703097515779655"><ele>196.0</ele><time>2026-04-06T15:26:18.001Z</time></trkpt><trkpt lat="33.44834063777933" lon="9.703051953936761"><ele>195.0</ele><time>2026-04-06T15:26:19.001Z</time></trkpt><trkpt lat="33.44863264017109" lon="9.703009565303176"><ele>195.0</ele><time>2026-04-06T15:26:20.001Z</time></trkpt><trkpt lat="33.4489220481537" lon="9.702963873475277"><ele>195.0</ele><time>2026-04-06T15:26:21.001Z</time></trkpt><trkpt lat="33.44920635676492" lon="9.702913560034396"><ele>195.0</ele><time>2026-04-06T15:26:22.001Z</time></trkpt><trkpt lat="33.449480005641725" lon="9.702860616221662"><ele>195.0</ele><time>2026-04-06T15:26:23.001Z</time></trkpt><trkpt lat="33.449745364275394" lon="9.702810698189774"><ele>195.5</ele><time>2026-04-06T15:26:24.001Z</time></trkpt><trkpt lat="33.450008425955254" lon="9.702762546179962"><ele>196.0</ele><time>2026-04-06T15:26:25.001Z</time></trkpt><trkpt lat="33.45027359798429" lon="9.70271621683695"><ele>195.5</ele><time>2026-04-06T15:26:26.001Z</time></trkpt><trkpt lat="33.45053871525824" lon="9.702669451579093"><ele>195.0</ele><time>2026-04-06T15:26:27.001Z</time></trkpt><trkpt lat="33.45081272394749" lon="9.70262305301174"><ele>195.0</ele><time>2026-04-06T15:26:28.001Z</time></trkpt><trkpt lat="33.45108749938114" lon="9.70257715006565"><ele>195.0</ele><time>2026-04-06T15:26:29.001Z</time></trkpt><trkpt lat="33.4513462880657" lon="9.702532734808319"><ele>195.0</ele><time>2026-04-06T15:26:30.001Z</time></trkpt><trkpt lat="33.451600495244264" lon="9.70248346733075"><ele>195.0</ele><time>2026-04-06T15:26:31.001Z</time></trkpt><trkpt lat="33.451861416218655" lon="9.702436971349373"><ele>194.5</ele><time>2026-04-06T15:26:32.001Z</time></trkpt><trkpt lat="33.452130327106694" lon="9.702389604996442"><ele>194.0</ele><time>2026-04-06T15:26:33.001Z</time></trkpt><trkpt lat="33.45240805979127" lon="9.702336110882866"><ele>194.0</ele><time>2026-04-06T15:26:34.001Z</time></trkpt><trkpt lat="33.4526945966954" lon="9.70227799752297"><ele>194.0</ele><time>2026-04-06T15:26:35.001Z</time></trkpt><trkpt lat="33.45298622802104" lon="9.702222941601201"><ele>195.0</ele><time>2026-04-06T15:26:36.001Z</time></trkpt><trkpt lat="33.45328517269433" lon="9.702173543210314"><ele>196.0</ele><time>2026-04-06T15:26:37.001Z</time></trkpt><trkpt lat="33.45357770523152" lon="9.702124347045215"><ele>196.5</ele><time>2026-04-06T15:26:38.001Z</time></trkpt><trkpt lat="33.45386377907777" lon="9.702075037815048"><ele>197.0</ele><time>2026-04-06T15:26:39.001Z</time></trkpt><trkpt lat="33.45413998574109" lon="9.70202374466506"><ele>197.0</ele><time>2026-04-06T15:26:40.001Z</time></trkpt><trkpt lat="33.45441312241545" lon="9.701971243319697"><ele>197.0</ele><time>2026-04-06T15:26:41.001Z</time></trkpt><trkpt lat="33.45468042129263" lon="9.701920258052882"><ele>197.5</ele><time>2026-04-06T15:26:42.001Z</time></trkpt><trkpt lat="33.45492816077316" lon="9.701870726761593"><ele>198.0</ele><time>2026-04-06T15:26:43.001Z</time></trkpt><trkpt lat="33.45516879053604" lon="9.701834314674475"><ele>198.0</ele><time>2026-04-06T15:26:44.001Z</time></trkpt><trkpt lat="33.455415004350115" lon="9.70179096679983"><ele>198.0</ele><time>2026-04-06T15:26:45.001Z</time></trkpt><trkpt lat="33.455672517219156" lon="9.701741533294584"><ele>197.5</ele><time>2026-04-06T15:26:46.001Z</time></trkpt><trkpt lat="33.45594018540965" lon="9.701684418945888"><ele>197.0</ele><time>2026-04-06T15:26:47.001Z</time></trkpt><trkpt lat="33.456216853635866" lon="9.701627299153397"><ele>196.5</ele><time>2026-04-06T15:26:48.001Z</time></trkpt><trkpt lat="33.45649949142276" lon="9.70157634647617"><ele>196.0</ele><time>2026-04-06T15:26:49.001Z</time></trkpt><trkpt lat="33.45678552068229" lon="9.701526585917506"><ele>196.0</ele><time>2026-04-06T15:26:50.001Z</time></trkpt><trkpt lat="33.45707349310352" lon="9.701476671202355"><ele>196.0</ele><time>2026-04-06T15:26:51.001Z</time></trkpt><trkpt lat="33.45736562590997" lon="9.701422528174175"><ele>196.5</ele><time>2026-04-06T15:26:52.001Z</time></trkpt><trkpt lat="33.45766027383504" lon="9.701369619632334"><ele>197.0</ele><time>2026-04-06T15:26:53.001Z</time></trkpt><trkpt lat="33.45796508831991" lon="9.701316492801206"><ele>197.0</ele><time>2026-04-06T15:26:54.001Z</time></trkpt><trkpt lat="33.45827615058187" lon="9.701263914189363"><ele>197.0</ele><time>2026-04-06T15:26:55.001Z</time></trkpt><trkpt lat="33.45858022895973" lon="9.701212809760813"><ele>197.5</ele><time>2026-04-06T15:26:56.001Z</time></trkpt><trkpt lat="33.45887701880146" lon="9.701161314473065"><ele>198.0</ele><time>2026-04-06T15:26:57.001Z</time></trkpt><trkpt lat="33.4591741116286" lon="9.701107300132387"><ele>198.0</ele><time>2026-04-06T15:26:58.001Z</time></trkpt><trkpt lat="33.45947134800199" lon="9.701050618713944"><ele>198.0</ele><time>2026-04-06T15:26:59.001Z</time></trkpt><trkpt lat="33.45977045426263" lon="9.700995105351453"><ele>198.0</ele><time>2026-04-06T15:27:00.001Z</time></trkpt><trkpt lat="33.46006434333526" lon="9.700942188544042"><ele>198.0</ele><time>2026-04-06T15:27:01.001Z</time></trkpt><trkpt lat="33.460354756239944" lon="9.70088825351832"><ele>198.0</ele><time>2026-04-06T15:27:02.001Z</time></trkpt><trkpt lat="33.46065003161511" lon="9.700835321829068"><ele>198.0</ele><time>2026-04-06T15:27:03.001Z</time></trkpt><trkpt lat="33.4609356875522" lon="9.700778601888013"><ele>198.0</ele><time>2026-04-06T15:27:04.001Z</time></trkpt><trkpt lat="33.461224468018926" lon="9.700717708346424"><ele>198.0</ele><time>2026-04-06T15:27:05.001Z</time></trkpt><trkpt lat="33.46151173097095" lon="9.700660822697824"><ele>197.5</ele><time>2026-04-06T15:27:06.001Z</time></trkpt><trkpt lat="33.461803979022854" lon="9.700605897993372"><ele>197.0</ele><time>2026-04-06T15:27:07.001Z</time></trkpt><trkpt lat="33.46209549297073" lon="9.70055487186126"><ele>197.5</ele><time>2026-04-06T15:27:08.001Z</time></trkpt><trkpt lat="33.46238855766977" lon="9.700503377032547"><ele>198.0</ele><time>2026-04-06T15:27:09.001Z</time></trkpt><trkpt lat="33.4626808730541" lon="9.700448000913928"><ele>198.5</ele><time>2026-04-06T15:27:10.001Z</time></trkpt><trkpt lat="33.46296724231112" lon="9.700396122012082"><ele>199.0</ele><time>2026-04-06T15:27:11.001Z</time></trkpt><trkpt lat="33.46324311749753" lon="9.700341348629543"><ele>199.0</ele><time>2026-04-06T15:27:12.001Z</time></trkpt><trkpt lat="33.46351727373483" lon="9.700279646943216"><ele>199.0</ele><time>2026-04-06T15:27:13.001Z</time></trkpt><trkpt lat="33.463800037780764" lon="9.700212941721897"><ele>199.0</ele><time>2026-04-06T15:27:14.001Z</time></trkpt><trkpt lat="33.4640876038235" lon="9.700143477933878"><ele>199.0</ele><time>2026-04-06T15:27:15.001Z</time></trkpt><trkpt lat="33.46438114855651" lon="9.700069334583235"><ele>198.0</ele><time>2026-04-06T15:27:16.001Z</time></trkpt><trkpt lat="33.46467534753244" lon="9.699996738996484"><ele>197.0</ele><time>2026-04-06T15:27:17.001Z</time></trkpt><trkpt lat="33.46497656061338" lon="9.699923447993436"><ele>197.0</ele><time>2026-04-06T15:27:18.001Z</time></trkpt><trkpt lat="33.46528351777431" lon="9.699850125135647"><ele>197.0</ele><time>2026-04-06T15:27:19.001Z</time></trkpt><trkpt lat="33.465588999817015" lon="9.699776103288254"><ele>197.5</ele><time>2026-04-06T15:27:20.001Z</time></trkpt><trkpt lat="33.465878681426716" lon="9.69969657258875"><ele>198.0</ele><time>2026-04-06T15:27:21.001Z</time></trkpt><trkpt lat="33.46615041897162" lon="9.699618902565877"><ele>197.5</ele><time>2026-04-06T15:27:22.001Z</time></trkpt><trkpt lat="33.46641941817244" lon="9.69954567609691"><ele>197.0</ele><time>2026-04-06T15:27:23.001Z</time></trkpt><trkpt lat="33.46668767019055" lon="9.699473013053844"><ele>197.0</ele><time>2026-04-06T15:27:24.001Z</time></trkpt><trkpt lat="33.466953998967774" lon="9.699400165217545"><ele>197.0</ele><time>2026-04-06T15:27:25.001Z</time></trkpt><trkpt lat="33.467219610379544" lon="9.699330078743898"><ele>197.5</ele><time>2026-04-06T15:27:26.001Z</time></trkpt><trkpt lat="33.46748290060513" lon="9.69926607056113"><ele>198.0</ele><time>2026-04-06T15:27:27.001Z</time></trkpt><trkpt lat="33.46775083448011" lon="9.699208348590208"><ele>199.0</ele><time>2026-04-06T15:27:28.001Z</time></trkpt><trkpt lat="33.4680205089686" lon="9.699155440621187"><ele>200.0</ele><time>2026-04-06T15:27:29.001Z</time></trkpt><trkpt lat="33.468296041835586" lon="9.699107811637072"><ele>200.0</ele><time>2026-04-06T15:27:30.001Z</time></trkpt><trkpt lat="33.468576070012" lon="9.699070991230561"><ele>200.0</ele><time>2026-04-06T15:27:31.001Z</time></trkpt><trkpt lat="33.46884572813064" lon="9.699048237683426"><ele>200.0</ele><time>2026-04-06T15:27:32.001Z</time></trkpt><trkpt lat="33.469113573472605" lon="9.6990351077305"><ele>200.0</ele><time>2026-04-06T15:27:33.001Z</time></trkpt><trkpt lat="33.469382478020414" lon="9.69902673376835"><ele>199.0</ele><time>2026-04-06T15:27:34.001Z</time></trkpt><trkpt lat="33.46965167252872" lon="9.699013564942584"><ele>198.0</ele><time>2026-04-06T15:27:35.001Z</time></trkpt><trkpt lat="33.46992054992092" lon="9.69899056835229"><ele>198.0</ele><time>2026-04-06T15:27:36.001Z</time></trkpt><trkpt lat="33.4701868928168" lon="9.698958834901145"><ele>198.0</ele><time>2026-04-06T15:27:37.001Z</time></trkpt><trkpt lat="33.47043961275206" lon="9.698930104729142"><ele>198.0</ele><time>2026-04-06T15:27:38.001Z</time></trkpt><trkpt lat="33.470684982105645" lon="9.69890249484771"><ele>198.0</ele><time>2026-04-06T15:27:39.001Z</time></trkpt><trkpt lat="33.47093941035729" lon="9.69887432222696"><ele>198.0</ele><time>2026-04-06T15:27:40.001Z</time></trkpt><trkpt lat="33.47119901338356" lon="9.698844262281824"><ele>198.0</ele><time>2026-04-06T15:27:41.001Z</time></trkpt><trkpt lat="33.471464978668486" lon="9.698804291364489"><ele>199.0</ele><time>2026-04-06T15:27:42.001Z</time></trkpt><trkpt lat="33.47173013347925" lon="9.698756105755832"><ele>200.0</ele><time>2026-04-06T15:27:43.001Z</time></trkpt><trkpt lat="33.47198577657359" lon="9.698707208610346"><ele>200.0</ele><time>2026-04-06T15:27:44.001Z</time></trkpt><trkpt lat="33.47223133801833" lon="9.698665292711462"><ele>200.0</ele><time>2026-04-06T15:27:45.001Z</time></trkpt><trkpt lat="33.47245371239218" lon="9.698628139236387"><ele>200.0</ele><time>2026-04-06T15:27:46.001Z</time></trkpt><trkpt lat="33.4726784059758" lon="9.698594052332144"><ele>200.0</ele><time>2026-04-06T15:27:47.001Z</time></trkpt><trkpt lat="33.47290640835728" lon="9.69855770587855"><ele>200.5</ele><time>2026-04-06T15:27:48.001Z</time></trkpt><trkpt lat="33.473144137141816" lon="9.698514809026397"><ele>201.0</ele><time>2026-04-06T15:27:49.001Z</time></trkpt><trkpt lat="33.47338615653899" lon="9.698472051677191"><ele>201.0</ele><time>2026-04-06T15:27:50.001Z</time></trkpt><trkpt lat="33.47363198339249" lon="9.69842845937758"><ele>201.0</ele><time>2026-04-06T15:27:51.001Z</time></trkpt><trkpt lat="33.473879180062774" lon="9.69838316999946"><ele>201.5</ele><time>2026-04-06T15:27:52.001Z</time></trkpt><trkpt lat="33.47412583386167" lon="9.698335412549847"><ele>202.0</ele><time>2026-04-06T15:27:53.001Z</time></trkpt><trkpt lat="33.4743770031465" lon="9.698287403298812"><ele>201.5</ele><time>2026-04-06T15:27:54.001Z</time></trkpt><trkpt lat="33.4746305776277" lon="9.698238750579335"><ele>201.0</ele><time>2026-04-06T15:27:55.001Z</time></trkpt><trkpt lat="33.47488622724901" lon="9.69819196437551"><ele>201.0</ele><time>2026-04-06T15:27:56.001Z</time></trkpt><trkpt lat="33.475145980289795" lon="9.698146469141482"><ele>201.0</ele><time>2026-04-06T15:27:57.001Z</time></trkpt><trkpt lat="33.47540343632879" lon="9.698101795823915"><ele>200.0</ele><time>2026-04-06T15:27:58.001Z</time></trkpt><trkpt lat="33.47566439712792" lon="9.698057582935743"><ele>199.0</ele><time>2026-04-06T15:27:59.001Z</time></trkpt><trkpt lat="33.47592314644013" lon="9.698011048067846"><ele>199.0</ele><time>2026-04-06T15:28:00.001Z</time></trkpt><trkpt lat="33.476184302706386" lon="9.697960263749264"><ele>199.0</ele><time>2026-04-06T15:28:01.001Z</time></trkpt><trkpt lat="33.476445424685686" lon="9.697906163045042"><ele>199.5</ele><time>2026-04-06T15:28:02.001Z</time></trkpt><trkpt lat="33.47670300212402" lon="9.697853827609732"><ele>200.0</ele><time>2026-04-06T15:28:03.001Z</time></trkpt><trkpt lat="33.47695500246594" lon="9.697803843424031"><ele>200.0</ele><time>2026-04-06T15:28:04.001Z</time></trkpt><trkpt lat="33.47720638761131" lon="9.697757738357152"><ele>200.0</ele><time>2026-04-06T15:28:05.001Z</time></trkpt><trkpt lat="33.477450538318344" lon="9.697715472238455"><ele>200.5</ele><time>2026-04-06T15:28:06.001Z</time></trkpt><trkpt lat="33.477697492393574" lon="9.69767021662574"><ele>201.0</ele><time>2026-04-06T15:28:07.001Z</time></trkpt><trkpt lat="33.47794509055726" lon="9.697623200434908"><ele>201.0</ele><time>2026-04-06T15:28:08.001Z</time></trkpt><trkpt lat="33.47819210676848" lon="9.697575670824422"><ele>201.0</ele><time>2026-04-06T15:28:09.001Z</time></trkpt><trkpt lat="33.47843439720372" lon="9.697531186664051"><ele>201.0</ele><time>2026-04-06T15:28:10.001Z</time></trkpt><trkpt lat="33.47868248387002" lon="9.697485302377313"><ele>201.0</ele><time>2026-04-06T15:28:11.001Z</time></trkpt><trkpt lat="33.478928673439455" lon="9.697438955399386"><ele>200.5</ele><time>2026-04-06T15:28:12.001Z</time></trkpt><trkpt lat="33.47918045710716" lon="9.697391718864047"><ele>200.0</ele><time>2026-04-06T15:28:13.001Z</time></trkpt><trkpt lat="33.47943727285545" lon="9.697346274360026"><ele>200.5</ele><time>2026-04-06T15:28:14.001Z</time></trkpt><trkpt lat="33.47969525738905" lon="9.69729992496797"><ele>201.0</ele><time>2026-04-06T15:28:15.001Z</time></trkpt><trkpt lat="33.47995691027095" lon="9.697252725718382"><ele>201.0</ele><time>2026-04-06T15:28:16.001Z</time></trkpt><trkpt lat="33.48021693725027" lon="9.697206057134059"><ele>201.0</ele><time>2026-04-06T15:28:17.001Z</time></trkpt><trkpt lat="33.48047399391993" lon="9.697159667668314"><ele>201.5</ele><time>2026-04-06T15:28:18.001Z</time></trkpt><trkpt lat="33.480731748312" lon="9.697110269266918"><ele>202.0</ele><time>2026-04-06T15:28:19.001Z</time></trkpt><trkpt lat="33.48099484671787" lon="9.697058424071974"><ele>202.0</ele><time>2026-04-06T15:28:20.001Z</time></trkpt><trkpt lat="33.481263376991365" lon="9.697007884431367"><ele>202.0</ele><time>2026-04-06T15:28:21.001Z</time></trkpt><trkpt lat="33.48153360778219" lon="9.696961616357541"><ele>201.5</ele><time>2026-04-06T15:28:22.001Z</time></trkpt><trkpt lat="33.48180561576549" lon="9.696915599183226"><ele>201.0</ele><time>2026-04-06T15:28:23.001Z</time></trkpt><trkpt lat="33.482082958157214" lon="9.69686648068053"><ele>201.0</ele><time>2026-04-06T15:28:24.001Z</time></trkpt><trkpt lat="33.48236137359062" lon="9.696818793910285"><ele>201.0</ele><time>2026-04-06T15:28:25.001Z</time></trkpt><trkpt lat="33.4826380449906" lon="9.696770629169839"><ele>201.0</ele><time>2026-04-06T15:28:26.001Z</time></trkpt><trkpt lat="33.482917411199104" lon="9.696719488352967"><ele>201.0</ele><time>2026-04-06T15:28:27.001Z</time></trkpt><trkpt lat="33.483202355618964" lon="9.696664669334917"><ele>200.0</ele><time>2026-04-06T15:28:28.001Z</time></trkpt><trkpt lat="33.48348904096883" lon="9.696609916231958"><ele>199.0</ele><time>2026-04-06T15:28:29.001Z</time></trkpt><trkpt lat="33.48377851161674" lon="9.69655191788363"><ele>199.0</ele><time>2026-04-06T15:28:30.001Z</time></trkpt><trkpt lat="33.48409180669754" lon="9.696491026052145"><ele>199.0</ele><time>2026-04-06T15:28:31.001Z</time></trkpt><trkpt lat="33.48442107480238" lon="9.696429432576444"><ele>199.0</ele><time>2026-04-06T15:28:32.001Z</time></trkpt><trkpt lat="33.48476387628861" lon="9.696368131970937"><ele>199.0</ele><time>2026-04-06T15:28:33.001Z</time></trkpt><trkpt lat="33.4851108577454" lon="9.69630269778867"><ele>199.5</ele><time>2026-04-06T15:28:34.001Z</time></trkpt><trkpt lat="33.48543970643315" lon="9.696245079235789"><ele>200.0</ele><time>2026-04-06T15:28:35.001Z</time></trkpt><trkpt lat="33.48574363621102" lon="9.69618740402511"><ele>200.0</ele><time>2026-04-06T15:28:36.001Z</time></trkpt><trkpt lat="33.486030521746365" lon="9.696139722577362"><ele>200.0</ele><time>2026-04-06T15:28:37.001Z</time></trkpt><trkpt lat="33.48631271345643" lon="9.696091355399956"><ele>201.0</ele><time>2026-04-06T15:28:38.001Z</time></trkpt><trkpt lat="33.48659425724805" lon="9.696040173576401"><ele>202.0</ele><time>2026-04-06T15:28:39.001Z</time></trkpt><trkpt lat="33.486877553025664" lon="9.69598827703636"><ele>203.0</ele><time>2026-04-06T15:28:40.001Z</time></trkpt><trkpt lat="33.487160838224845" lon="9.695938062197728"><ele>204.0</ele><time>2026-04-06T15:28:41.001Z</time></trkpt><trkpt lat="33.48744956896912" lon="9.695885642900278"><ele>204.0</ele><time>2026-04-06T15:28:42.001Z</time></trkpt><trkpt lat="33.48774079075951" lon="9.695828801276251"><ele>204.0</ele><time>2026-04-06T15:28:43.001Z</time></trkpt><trkpt lat="33.48804924780457" lon="9.695763199405805"><ele>203.5</ele><time>2026-04-06T15:28:44.001Z</time></trkpt><trkpt lat="33.488366462235476" lon="9.69569972565553"><ele>203.0</ele><time>2026-04-06T15:28:45.001Z</time></trkpt><trkpt lat="33.48869160737118" lon="9.695642748117733"><ele>205.0</ele><time>2026-04-06T15:28:46.001Z</time></trkpt><trkpt lat="33.489003168965716" lon="9.695594979079294"><ele>207.0</ele><time>2026-04-06T15:28:47.001Z</time></trkpt><trkpt lat="33.489299100297515" lon="9.695550594637842"><ele>207.0</ele><time>2026-04-06T15:28:48.001Z</time></trkpt><trkpt lat="33.48958941961437" lon="9.695504752067064"><ele>207.0</ele><time>2026-04-06T15:28:49.001Z</time></trkpt><trkpt lat="33.489873240970546" lon="9.695457287209422"><ele>208.0</ele><time>2026-04-06T15:28:50.001Z</time></trkpt><trkpt lat="33.49015442081973" lon="9.695407817785128"><ele>209.0</ele><time>2026-04-06T15:28:51.001Z</time></trkpt><trkpt lat="33.490440149178376" lon="9.695356332249185"><ele>208.5</ele><time>2026-04-06T15:28:52.001Z</time></trkpt><trkpt lat="33.4907273851823" lon="9.69530131195319"><ele>208.0</ele><time>2026-04-06T15:28:53.001Z</time></trkpt><trkpt lat="33.49101517105125" lon="9.695243433794634"><ele>208.0</ele><time>2026-04-06T15:28:54.001Z</time></trkpt><trkpt lat="33.49131585278386" lon="9.695183522093279"><ele>208.0</ele><time>2026-04-06T15:28:55.001Z</time></trkpt><trkpt lat="33.491616417909526" lon="9.695122784105662"><ele>208.0</ele><time>2026-04-06T15:28:56.001Z</time></trkpt><trkpt lat="33.491906907186866" lon="9.695065946161083"><ele>208.0</ele><time>2026-04-06T15:28:57.001Z</time></trkpt><trkpt lat="33.49220082096409" lon="9.695009336150957"><ele>208.0</ele><time>2026-04-06T15:28:58.001Z</time></trkpt><trkpt lat="33.492495885962875" lon="9.694951819449532"><ele>208.0</ele><time>2026-04-06T15:28:59.001Z</time></trkpt><trkpt lat="33.49279500204707" lon="9.694895694255333"><ele>206.5</ele><time>2026-04-06T15:29:00.001Z</time></trkpt><trkpt lat="33.49310076303914" lon="9.694846470646285"><ele>205.0</ele><time>2026-04-06T15:29:01.001Z</time></trkpt><trkpt lat="33.49340888330148" lon="9.694803494147623"><ele>205.0</ele><time>2026-04-06T15:29:02.001Z</time></trkpt><trkpt lat="33.493713863205635" lon="9.694748307839056"><ele>205.0</ele><time>2026-04-06T15:29:03.001Z</time></trkpt><trkpt lat="33.494016669557574" lon="9.694672902138203"><ele>204.5</ele><time>2026-04-06T15:29:04.001Z</time></trkpt><trkpt lat="33.494318547593004" lon="9.694609315659921"><ele>204.0</ele><time>2026-04-06T15:29:05.001Z</time></trkpt><trkpt lat="33.49461896561194" lon="9.694568039299835"><ele>204.0</ele><time>2026-04-06T15:29:06.001Z</time></trkpt><trkpt lat="33.49491528705609" lon="9.694517804505075"><ele>204.0</ele><time>2026-04-06T15:29:07.001Z</time></trkpt><trkpt lat="33.49520493543568" lon="9.694445784078024"><ele>202.0</ele><time>2026-04-06T15:29:08.001Z</time></trkpt><trkpt lat="33.49549835682829" lon="9.694385341338974"><ele>200.0</ele><time>2026-04-06T15:29:09.001Z</time></trkpt><trkpt lat="33.49579503600175" lon="9.69435121682409"><ele>200.0</ele><time>2026-04-06T15:29:10.001Z</time></trkpt><trkpt lat="33.49608941387588" lon="9.694303763144163"><ele>200.0</ele><time>2026-04-06T15:29:11.001Z</time></trkpt><trkpt lat="33.4963810867321" lon="9.694236465208895"><ele>200.0</ele><time>2026-04-06T15:29:12.001Z</time></trkpt><trkpt lat="33.49667658545034" lon="9.694179158516878"><ele>200.0</ele><time>2026-04-06T15:29:13.001Z</time></trkpt><trkpt lat="33.49697268528994" lon="9.69413176156927"><ele>200.5</ele><time>2026-04-06T15:29:14.001Z</time></trkpt><trkpt lat="33.49726122785723" lon="9.694081305848496"><ele>201.0</ele><time>2026-04-06T15:29:15.001Z</time></trkpt><trkpt lat="33.4975558887978" lon="9.69402336745603"><ele>201.0</ele><time>2026-04-06T15:29:16.001Z</time></trkpt><trkpt lat="33.49785046462573" lon="9.693965290039872"><ele>201.0</ele><time>2026-04-06T15:29:17.001Z</time></trkpt><trkpt lat="33.49814307914319" lon="9.693910440048526"><ele>202.0</ele><time>2026-04-06T15:29:18.001Z</time></trkpt><trkpt lat="33.4984403015519" lon="9.69386186597863"><ele>203.0</ele><time>2026-04-06T15:29:19.001Z</time></trkpt><trkpt lat="33.49874093822761" lon="9.69381580278088"><ele>203.0</ele><time>2026-04-06T15:29:20.001Z</time></trkpt><trkpt lat="33.49904302323218" lon="9.693758498854155"><ele>203.0</ele><time>2026-04-06T15:29:21.001Z</time></trkpt><trkpt lat="33.49934417673738" lon="9.6936857007174"><ele>202.0</ele><time>2026-04-06T15:29:22.001Z</time></trkpt><trkpt lat="33.49964437288554" lon="9.693618588732386"><ele>201.0</ele><time>2026-04-06T15:29:23.001Z</time></trkpt><trkpt lat="33.49994686776685" lon="9.693560082698932"><ele>200.5</ele><time>2026-04-06T15:29:24.001Z</time></trkpt><trkpt lat="33.50024515679496" lon="9.693479339543126"><ele>200.0</ele><time>2026-04-06T15:29:25.001Z</time></trkpt><trkpt lat="33.50054448851965" lon="9.693394950204116"><ele>200.0</ele><time>2026-04-06T15:29:26.001Z</time></trkpt><trkpt lat="33.50084770162204" lon="9.693331176494974"><ele>200.0</ele><time>2026-04-06T15:29:27.001Z</time></trkpt><trkpt lat="33.50114978014235" lon="9.693266940576546"><ele>199.5</ele><time>2026-04-06T15:29:28.001Z</time></trkpt><trkpt lat="33.50144670790336" lon="9.693195588125878"><ele>199.0</ele><time>2026-04-06T15:29:29.001Z</time></trkpt><trkpt lat="33.501739211572854" lon="9.693126801384064"><ele>199.0</ele><time>2026-04-06T15:29:30.001Z</time></trkpt><trkpt lat="33.50202310636391" lon="9.693063368100548"><ele>199.0</ele><time>2026-04-06T15:29:31.001Z</time></trkpt><trkpt lat="33.502307942429766" lon="9.693001311414923"><ele>200.5</ele><time>2026-04-06T15:29:32.001Z</time></trkpt><trkpt lat="33.502597007248696" lon="9.692939106839747"><ele>202.0</ele><time>2026-04-06T15:29:33.001Z</time></trkpt><trkpt lat="33.502891816150104" lon="9.69287458257076"><ele>202.5</ele><time>2026-04-06T15:29:34.001Z</time></trkpt><trkpt lat="33.50318549260182" lon="9.692804374292306"><ele>203.0</ele><time>2026-04-06T15:29:35.001Z</time></trkpt><trkpt lat="33.50347977148452" lon="9.692729859462414"><ele>203.5</ele><time>2026-04-06T15:29:36.001Z</time></trkpt><trkpt lat="33.503781636052466" lon="9.692652109521386"><ele>204.0</ele><time>2026-04-06T15:29:37.001Z</time></trkpt><trkpt lat="33.504084465846155" lon="9.692577308727065"><ele>204.0</ele><time>2026-04-06T15:29:38.001Z</time></trkpt><trkpt lat="33.50438526801534" lon="9.69250550296581"><ele>204.0</ele><time>2026-04-06T15:29:39.001Z</time></trkpt><trkpt lat="33.504686988571954" lon="9.692437805974977"><ele>203.0</ele><time>2026-04-06T15:29:40.001Z</time></trkpt><trkpt lat="33.504986263598305" lon="9.692368054037225"><ele>202.0</ele><time>2026-04-06T15:29:41.001Z</time></trkpt><trkpt lat="33.505287682744104" lon="9.692293323619024"><ele>202.5</ele><time>2026-04-06T15:29:42.001Z</time></trkpt><trkpt lat="33.50559024564902" lon="9.692215765464589"><ele>203.0</ele><time>2026-04-06T15:29:43.001Z</time></trkpt><trkpt lat="33.50589765821687" lon="9.692139120135861"><ele>203.0</ele><time>2026-04-06T15:29:44.001Z</time></trkpt><trkpt lat="33.50620565932172" lon="9.69206809176694"><ele>203.0</ele><time>2026-04-06T15:29:45.001Z</time></trkpt><trkpt lat="33.50651101074674" lon="9.691997603016548"><ele>203.0</ele><time>2026-04-06T15:29:46.001Z</time></trkpt><trkpt lat="33.506816375722345" lon="9.691927847002882"><ele>203.0</ele><time>2026-04-06T15:29:47.001Z</time></trkpt><trkpt lat="33.50712058614735" lon="9.691859058969857"><ele>203.0</ele><time>2026-04-06T15:29:48.001Z</time></trkpt><trkpt lat="33.50742272510748" lon="9.691792045372107"><ele>203.0</ele><time>2026-04-06T15:29:49.001Z</time></trkpt><trkpt lat="33.50771534379591" lon="9.69172936913429"><ele>205.0</ele><time>2026-04-06T15:29:50.001Z</time></trkpt><trkpt lat="33.50799906614951" lon="9.691669525889754"><ele>207.0</ele><time>2026-04-06T15:29:51.001Z</time></trkpt><trkpt lat="33.508274061936824" lon="9.691607494210206"><ele>207.0</ele><time>2026-04-06T15:29:52.001Z</time></trkpt><trkpt lat="33.508546489171664" lon="9.69153946667081"><ele>207.0</ele><time>2026-04-06T15:29:53.001Z</time></trkpt><trkpt lat="33.508810260805134" lon="9.69147516108588"><ele>208.5</ele><time>2026-04-06T15:29:54.001Z</time></trkpt><trkpt lat="33.509064619241535" lon="9.691412533032748"><ele>210.0</ele><time>2026-04-06T15:29:55.001Z</time></trkpt><trkpt lat="33.509307343891805" lon="9.69135259480677"><ele>210.0</ele><time>2026-04-06T15:29:56.001Z</time></trkpt><trkpt lat="33.509554958505966" lon="9.691290186626818"><ele>210.0</ele><time>2026-04-06T15:29:57.001Z</time></trkpt><trkpt lat="33.50980477685432" lon="9.691226679169997"><ele>209.0</ele><time>2026-04-06T15:29:58.001Z</time></trkpt><trkpt lat="33.51006059633488" lon="9.691164032702845"><ele>208.0</ele><time>2026-04-06T15:29:59.001Z</time></trkpt><trkpt lat="33.51032496354895" lon="9.691102562422845"><ele>209.5</ele><time>2026-04-06T15:30:00.001Z</time></trkpt><trkpt lat="33.510588192319254" lon="9.691038415217468"><ele>211.0</ele><time>2026-04-06T15:30:01.001Z</time></trkpt><trkpt lat="33.51084621739877" lon="9.690972258261793"><ele>211.0</ele><time>2026-04-06T15:30:02.001Z</time></trkpt><trkpt lat="33.51110357472368" lon="9.69091116528715"><ele>211.0</ele><time>2026-04-06T15:30:03.001Z</time></trkpt><trkpt lat="33.5113637857519" lon="9.690852900109542"><ele>210.0</ele><time>2026-04-06T15:30:04.001Z</time></trkpt><trkpt lat="33.511634346413786" lon="9.690793876318384"><ele>209.0</ele><time>2026-04-06T15:30:05.001Z</time></trkpt><trkpt lat="33.51190939079659" lon="9.690732903954087"><ele>207.5</ele><time>2026-04-06T15:30:06.001Z</time></trkpt><trkpt lat="33.51218723240909" lon="9.690669112850378"><ele>206.0</ele><time>2026-04-06T15:30:07.001Z</time></trkpt><trkpt lat="33.51246588770807" lon="9.69060424253178"><ele>206.0</ele><time>2026-04-06T15:30:08.001Z</time></trkpt><trkpt lat="33.51274240350009" lon="9.690538331853505"><ele>206.0</ele><time>2026-04-06T15:30:09.001Z</time></trkpt><trkpt lat="33.51301646395376" lon="9.690472612162285"><ele>204.5</ele><time>2026-04-06T15:30:10.001Z</time></trkpt><trkpt lat="33.51328871028135" lon="9.69040545178887"><ele>203.0</ele><time>2026-04-06T15:30:11.001Z</time></trkpt><trkpt lat="33.51356460858013" lon="9.69033353025428"><ele>204.0</ele><time>2026-04-06T15:30:12.001Z</time></trkpt><trkpt lat="33.51384196911489" lon="9.690263041742394"><ele>205.0</ele><time>2026-04-06T15:30:13.001Z</time></trkpt><trkpt lat="33.51411275196626" lon="9.690196197779231"><ele>205.5</ele><time>2026-04-06T15:30:14.001Z</time></trkpt><trkpt lat="33.514381773078455" lon="9.69013052408959"><ele>206.0</ele><time>2026-04-06T15:30:15.001Z</time></trkpt><trkpt lat="33.51464186704695" lon="9.690071669345853"><ele>206.0</ele><time>2026-04-06T15:30:16.001Z</time></trkpt><trkpt lat="33.51488975126819" lon="9.690024278564046"><ele>206.0</ele><time>2026-04-06T15:30:17.001Z</time></trkpt><trkpt lat="33.51512674622825" lon="9.689983434753197"><ele>206.0</ele><time>2026-04-06T15:30:18.001Z</time></trkpt><trkpt lat="33.51537193409402" lon="9.6899409121293"><ele>206.0</ele><time>2026-04-06T15:30:19.001Z</time></trkpt><trkpt lat="33.51562143759021" lon="9.689898094131804"><ele>205.0</ele><time>2026-04-06T15:30:20.001Z</time></trkpt><trkpt lat="33.515877962702724" lon="9.689859057929025"><ele>204.0</ele><time>2026-04-06T15:30:21.001Z</time></trkpt><trkpt lat="33.51613309960596" lon="9.689814220712359"><ele>203.0</ele><time>2026-04-06T15:30:22.001Z</time></trkpt><trkpt lat="33.5163907889063" lon="9.689762591618072"><ele>202.0</ele><time>2026-04-06T15:30:23.001Z</time></trkpt><trkpt lat="33.51664750069027" lon="9.689706114726938"><ele>202.0</ele><time>2026-04-06T15:30:24.001Z</time></trkpt><trkpt lat="33.516903464913604" lon="9.689649473362616"><ele>202.0</ele><time>2026-04-06T15:30:25.001Z</time></trkpt><trkpt lat="33.517156142274615" lon="9.68959370464573"><ele>200.5</ele><time>2026-04-06T15:30:26.001Z</time></trkpt><trkpt lat="33.51741453094176" lon="9.689535225940622"><ele>199.0</ele><time>2026-04-06T15:30:27.001Z</time></trkpt><trkpt lat="33.51767036177921" lon="9.68947859042789"><ele>197.5</ele><time>2026-04-06T15:30:28.001Z</time></trkpt><trkpt lat="33.51792506836946" lon="9.68942683217611"><ele>196.0</ele><time>2026-04-06T15:30:29.001Z</time></trkpt><trkpt lat="33.51818142065819" lon="9.68938055817368"><ele>196.0</ele><time>2026-04-06T15:30:30.001Z</time></trkpt><trkpt lat="33.518441497068956" lon="9.689336207224976"><ele>196.0</ele><time>2026-04-06T15:30:31.001Z</time></trkpt><trkpt lat="33.518703274211745" lon="9.689292849319454"><ele>195.5</ele><time>2026-04-06T15:30:32.001Z</time></trkpt><trkpt lat="33.51896556149315" lon="9.689249899953046"><ele>195.0</ele><time>2026-04-06T15:30:33.001Z</time></trkpt><trkpt lat="33.51922869639831" lon="9.68920517329672"><ele>195.0</ele><time>2026-04-06T15:30:34.001Z</time></trkpt><trkpt lat="33.5194924088458" lon="9.689157210078008"><ele>195.0</ele><time>2026-04-06T15:30:35.001Z</time></trkpt><trkpt lat="33.519752244709245" lon="9.68910769034827"><ele>194.5</ele><time>2026-04-06T15:30:36.001Z</time></trkpt><trkpt lat="33.520011861048545" lon="9.689060063097832"><ele>194.0</ele><time>2026-04-06T15:30:37.001Z</time></trkpt><trkpt lat="33.52026976809273" lon="9.689013500228558"><ele>193.5</ele><time>2026-04-06T15:30:38.001Z</time></trkpt><trkpt lat="33.520527261688834" lon="9.688963759014147"><ele>193.0</ele><time>2026-04-06T15:30:39.001Z</time></trkpt><trkpt lat="33.520789642630945" lon="9.688912036636523"><ele>193.0</ele><time>2026-04-06T15:30:40.001Z</time></trkpt><trkpt lat="33.52105406736229" lon="9.68886107716902"><ele>193.0</ele><time>2026-04-06T15:30:41.001Z</time></trkpt><trkpt lat="33.521321459465796" lon="9.68881045988616"><ele>192.5</ele><time>2026-04-06T15:30:42.001Z</time></trkpt><trkpt lat="33.52158963085647" lon="9.68875750202133"><ele>192.0</ele><time>2026-04-06T15:30:43.001Z</time></trkpt><trkpt lat="33.52185490184353" lon="9.688700726243798"><ele>191.0</ele><time>2026-04-06T15:30:44.001Z</time></trkpt><trkpt lat="33.52212493148386" lon="9.68864206812908"><ele>190.0</ele><time>2026-04-06T15:30:45.001Z</time></trkpt><trkpt lat="33.522397053445914" lon="9.688591592209944"><ele>189.5</ele><time>2026-04-06T15:30:46.001Z</time></trkpt><trkpt lat="33.52267268839832" lon="9.68853930579576"><ele>189.0</ele><time>2026-04-06T15:30:47.001Z</time></trkpt><trkpt lat="33.52294791850645" lon="9.688487023171792"><ele>187.5</ele><time>2026-04-06T15:30:48.001Z</time></trkpt><trkpt lat="33.523223132999476" lon="9.688435486978982"><ele>186.0</ele><time>2026-04-06T15:30:49.001Z</time></trkpt><trkpt lat="33.523500048071455" lon="9.688385921947031"><ele>186.0</ele><time>2026-04-06T15:30:50.001Z</time></trkpt><trkpt lat="33.52377696956372" lon="9.68833310374954"><ele>186.0</ele><time>2026-04-06T15:30:51.001Z</time></trkpt><trkpt lat="33.52405346611364" lon="9.688276610325994"><ele>186.0</ele><time>2026-04-06T15:30:52.001Z</time></trkpt><trkpt lat="33.52432978725716" lon="9.688223060758888"><ele>186.0</ele><time>2026-04-06T15:30:53.001Z</time></trkpt><trkpt lat="33.52460222673787" lon="9.68816972852129"><ele>186.0</ele><time>2026-04-06T15:30:54.001Z</time></trkpt><trkpt lat="33.52486878487988" lon="9.688121640020446"><ele>186.0</ele><time>2026-04-06T15:30:55.001Z</time></trkpt><trkpt lat="33.525127292825616" lon="9.688077472418428"><ele>186.0</ele><time>2026-04-06T15:30:56.001Z</time></trkpt><trkpt lat="33.525386027482206" lon="9.688029039016937"><ele>186.0</ele><time>2026-04-06T15:30:57.001Z</time></trkpt><trkpt lat="33.525629519501365" lon="9.68798603437292"><ele>187.0</ele><time>2026-04-06T15:30:58.001Z</time></trkpt><trkpt lat="33.525866481825254" lon="9.687942457659616"><ele>188.0</ele><time>2026-04-06T15:30:59.001Z</time></trkpt><trkpt lat="33.52609848450496" lon="9.687899550822335"><ele>188.0</ele><time>2026-04-06T15:31:00.001Z</time></trkpt><trkpt lat="33.52632837748409" lon="9.68785303993816"><ele>188.0</ele><time>2026-04-06T15:31:01.001Z</time></trkpt><trkpt lat="33.52654834303142" lon="9.687811759798121"><ele>188.0</ele><time>2026-04-06T15:31:02.001Z</time></trkpt><trkpt lat="33.5267665285657" lon="9.687767695834411"><ele>188.0</ele><time>2026-04-06T15:31:03.001Z</time></trkpt><trkpt lat="33.52697330030551" lon="9.687726865685413"><ele>188.0</ele><time>2026-04-06T15:31:04.001Z</time></trkpt><trkpt lat="33.52717405066845" lon="9.687687719140644"><ele>187.66666666666666</ele><time>2026-04-06T15:31:05.001Z</time></trkpt><trkpt lat="33.52737102328471" lon="9.687656342674568"><ele>187.33333333333334</ele><time>2026-04-06T15:31:06.001Z</time></trkpt><trkpt lat="33.52756326480043" lon="9.687627513643465"><ele>187.0</ele><time>2026-04-06T15:31:07Z</time></trkpt><trkpt lat="33.527748595985415" lon="9.68759877357885"><ele>187.75</ele><time>2026-04-06T15:31:08Z</time></trkpt><trkpt lat="33.52791285891916" lon="9.687575379765624"><ele>188.5</ele><time>2026-04-06T15:31:09Z</time></trkpt><trkpt lat="33.52805582883361" lon="9.687553904019904"><ele>189.25</ele><time>2026-04-06T15:31:10Z</time></trkpt><trkpt lat="33.5281718641374" lon="9.6875332334434"><ele>190.0</ele><time>2026-04-06T15:31:11Z</time></trkpt><trkpt lat="33.52826812977219" lon="9.687518516122124"><ele>190.0</ele><time>2026-04-06T15:31:12Z</time></trkpt><trkpt lat="33.528349556831955" lon="9.687504419813587"><ele>190.0</ele><time>2026-04-06T15:31:13Z</time></trkpt><trkpt lat="33.52842763893301" lon="9.687491237202122"><ele>190.0</ele><time>2026-04-06T15:31:14Z</time></trkpt><trkpt lat="33.52849524770017" lon="9.687482981570847"><ele>190.0</ele><time>2026-04-06T15:31:15Z</time></trkpt><trkpt lat="33.52855912162032" lon="9.6874718833521"><ele>190.0</ele><time>2026-04-06T15:31:16Z</time></trkpt><trkpt lat="33.52863226444985" lon="9.687455430847224"><ele>190.0</ele><time>2026-04-06T15:31:17Z</time></trkpt><trkpt lat="33.52870541207983" lon="9.687442239437582"><ele>190.0</ele><time>2026-04-06T15:31:18Z</time></trkpt><trkpt lat="33.52878205604877" lon="9.687425895656112"><ele>190.0</ele><time>2026-04-06T15:31:19Z</time></trkpt><trkpt lat="33.52886417480834" lon="9.687409067964108"><ele>190.0</ele><time>2026-04-06T15:31:20Z</time></trkpt><trkpt lat="33.52895380300083" lon="9.687390050922088"><ele>190.0</ele><time>2026-04-06T15:31:21Z</time></trkpt><trkpt lat="33.52903651070682" lon="9.687370586309742"><ele>190.0</ele><time>2026-04-06T15:31:22Z</time></trkpt><trkpt lat="33.52911992491954" lon="9.687356505290882"><ele>190.0</ele><time>2026-04-06T15:31:23Z</time></trkpt><trkpt lat="33.52918868194863" lon="9.687344276160129"><ele>190.0</ele><time>2026-04-06T15:31:24Z</time></trkpt><trkpt lat="33.52925223389084" lon="9.687330500538678"><ele>190.0</ele><time>2026-04-06T15:31:25Z</time></trkpt><trkpt lat="33.529319667652295" lon="9.687320028253366"><ele>190.0</ele><time>2026-04-06T15:31:26.001Z</time></trkpt><trkpt lat="33.529399631839894" lon="9.687320576744312"><ele>190.0</ele><time>2026-04-06T15:31:28.001Z</time></trkpt><trkpt lat="33.52948691934077" lon="9.687293399163222"><ele>190.0</ele><time>2026-04-06T15:32:17.001Z</time></trkpt><trkpt lat="33.52956930120892" lon="9.687281371318468"><ele>190.0</ele><time>2026-04-06T15:32:19.001Z</time></trkpt><trkpt lat="33.52967077067962" lon="9.687259409029425"><ele>190.0</ele><time>2026-04-06T15:32:21.001Z</time></trkpt><trkpt lat="33.52973780031813" lon="9.687246435867506"><ele>189.75</ele><time>2026-04-06T15:32:22.001Z</time></trkpt><trkpt lat="33.52982078429824" lon="9.68722832040414"><ele>189.5</ele><time>2026-04-06T15:32:23.001Z</time></trkpt><trkpt lat="33.52992207039634" lon="9.687201811286805"><ele>189.25</ele><time>2026-04-06T15:32:24.001Z</time></trkpt><trkpt lat="33.530053522152336" lon="9.687168299312033"><ele>189.0</ele><time>2026-04-06T15:32:25.001Z</time></trkpt><trkpt lat="33.53020606524683" lon="9.687136030370999"><ele>189.0</ele><time>2026-04-06T15:32:26.001Z</time></trkpt><trkpt lat="33.530376353209476" lon="9.687104364253248"><ele>189.0</ele><time>2026-04-06T15:32:27.001Z</time></trkpt><trkpt lat="33.53056359916184" lon="9.687063612460129"><ele>189.0</ele><time>2026-04-06T15:32:28.001Z</time></trkpt><trkpt lat="33.53076413203222" lon="9.687020936568462"><ele>190.0</ele><time>2026-04-06T15:32:29.001Z</time></trkpt><trkpt lat="33.53098261845143" lon="9.686975472952573"><ele>191.0</ele><time>2026-04-06T15:32:30.001Z</time></trkpt><trkpt lat="33.53120887621785" lon="9.68693112378346"><ele>190.0</ele><time>2026-04-06T15:32:31.001Z</time></trkpt><trkpt lat="33.531446336948456" lon="9.686885729861395"><ele>189.0</ele><time>2026-04-06T15:32:32.001Z</time></trkpt><trkpt lat="33.531691469078" lon="9.686842125900514"><ele>189.0</ele><time>2026-04-06T15:32:33.001Z</time></trkpt><trkpt lat="33.53194585561293" lon="9.686797291544496"><ele>189.0</ele><time>2026-04-06T15:32:34.001Z</time></trkpt><trkpt lat="33.53220732140147" lon="9.686748052045118"><ele>188.5</ele><time>2026-04-06T15:32:35.001Z</time></trkpt><trkpt lat="33.53247909531004" lon="9.686691722178116"><ele>188.0</ele><time>2026-04-06T15:32:36.001Z</time></trkpt><trkpt lat="33.53275157254759" lon="9.686638999475887"><ele>187.5</ele><time>2026-04-06T15:32:37.001Z</time></trkpt><trkpt lat="33.53303286524886" lon="9.68658312319353"><ele>187.0</ele><time>2026-04-06T15:32:38.001Z</time></trkpt><trkpt lat="33.53331602108655" lon="9.686525267965433"><ele>187.0</ele><time>2026-04-06T15:32:39.001Z</time></trkpt><trkpt lat="33.53360615294317" lon="9.686468817101025"><ele>187.0</ele><time>2026-04-06T15:32:40.001Z</time></trkpt><trkpt lat="33.53389275993529" lon="9.686417439677273"><ele>187.0</ele><time>2026-04-06T15:32:41.001Z</time></trkpt><trkpt lat="33.53418103020346" lon="9.686363321351187"><ele>187.0</ele><time>2026-04-06T15:32:42.001Z</time></trkpt><trkpt lat="33.534466667569724" lon="9.686306675778045"><ele>188.0</ele><time>2026-04-06T15:32:43.001Z</time></trkpt><trkpt lat="33.53475341675342" lon="9.686249668047562"><ele>189.0</ele><time>2026-04-06T15:32:44.001Z</time></trkpt><trkpt lat="33.53503490767779" lon="9.686192120097353"><ele>189.0</ele><time>2026-04-06T15:32:45.001Z</time></trkpt><trkpt lat="33.535315848158135" lon="9.68613599888168"><ele>189.0</ele><time>2026-04-06T15:32:46.001Z</time></trkpt><trkpt lat="33.5356031717604" lon="9.686079483180198"><ele>188.5</ele><time>2026-04-06T15:32:47.001Z</time></trkpt><trkpt lat="33.535896355334195" lon="9.686023832887665"><ele>188.0</ele><time>2026-04-06T15:32:48.001Z</time></trkpt><trkpt lat="33.53618740830057" lon="9.68597025123386"><ele>188.0</ele><time>2026-04-06T15:32:49Z</time></trkpt><trkpt lat="33.53648556682258" lon="9.68591578841034"><ele>188.0</ele><time>2026-04-06T15:32:50Z</time></trkpt><trkpt lat="33.536793359646325" lon="9.685858780892996"><ele>188.0</ele><time>2026-04-06T15:32:51Z</time></trkpt><trkpt lat="33.53710433920782" lon="9.685796679417791"><ele>188.0</ele><time>2026-04-06T15:32:52Z</time></trkpt><trkpt lat="33.53742351912622" lon="9.685733635072477"><ele>188.0</ele><time>2026-04-06T15:32:53Z</time></trkpt><trkpt lat="33.53774310352513" lon="9.685671304338197"><ele>188.0</ele><time>2026-04-06T15:32:54Z</time></trkpt><trkpt lat="33.538068440992966" lon="9.685608302591858"><ele>188.0</ele><time>2026-04-06T15:32:55Z</time></trkpt><trkpt lat="33.53839699329542" lon="9.685546318778222"><ele>188.0</ele><time>2026-04-06T15:32:56Z</time></trkpt><trkpt lat="33.538727767857054" lon="9.685486970646654"><ele>188.0</ele><time>2026-04-06T15:32:57Z</time></trkpt><trkpt lat="33.539062370037115" lon="9.685429236533187"><ele>188.0</ele><time>2026-04-06T15:32:58Z</time></trkpt><trkpt lat="33.53939706562726" lon="9.685367794892272"><ele>187.5</ele><time>2026-04-06T15:32:59Z</time></trkpt><trkpt lat="33.539735143279984" lon="9.685301714441191"><ele>187.0</ele><time>2026-04-06T15:33:00Z</time></trkpt><trkpt lat="33.54007710804548" lon="9.685235413319372"><ele>186.0</ele><time>2026-04-06T15:33:01Z</time></trkpt><trkpt lat="33.54042274369537" lon="9.685171614919192"><ele>185.0</ele><time>2026-04-06T15:33:02Z</time></trkpt><trkpt lat="33.54076930888072" lon="9.68510610279277"><ele>185.0</ele><time>2026-04-06T15:33:03Z</time></trkpt><trkpt lat="33.541123015484004" lon="9.685036488722519"><ele>185.0</ele><time>2026-04-06T15:33:04Z</time></trkpt><trkpt lat="33.54148533777634" lon="9.684963462668891"><ele>184.5</ele><time>2026-04-06T15:33:05Z</time></trkpt><trkpt lat="33.54185904129279" lon="9.684887620737989"><ele>184.0</ele><time>2026-04-06T15:33:06Z</time></trkpt><trkpt lat="33.542248280611325" lon="9.684809886184139"><ele>184.5</ele><time>2026-04-06T15:33:07Z</time></trkpt><trkpt lat="33.54264122901965" lon="9.684731922599868"><ele>185.0</ele><time>2026-04-06T15:33:08Z</time></trkpt><trkpt lat="33.54303392858756" lon="9.684655724708653"><ele>185.0</ele><time>2026-04-06T15:33:09Z</time></trkpt><trkpt lat="33.54342788871978" lon="9.684581031850506"><ele>185.0</ele><time>2026-04-06T15:33:10Z</time></trkpt><trkpt lat="33.54381621993141" lon="9.684505257569835"><ele>185.5</ele><time>2026-04-06T15:33:11Z</time></trkpt><trkpt lat="33.54420667686495" lon="9.684430590549509"><ele>186.0</ele><time>2026-04-06T15:33:12Z</time></trkpt><trkpt lat="33.54459877208597" lon="9.68435486913636"><ele>185.0</ele><time>2026-04-06T15:33:13Z</time></trkpt><trkpt lat="33.544985995355574" lon="9.684277415125889"><ele>184.0</ele><time>2026-04-06T15:33:14Z</time></trkpt><trkpt lat="33.545376698330514" lon="9.684200166905017"><ele>184.5</ele><time>2026-04-06T15:33:15Z</time></trkpt><trkpt lat="33.54576765240404" lon="9.684125892541807"><ele>185.0</ele><time>2026-04-06T15:33:16Z</time></trkpt><trkpt lat="33.54615844749746" lon="9.684053409592956"><ele>184.0</ele><time>2026-04-06T15:33:17Z</time></trkpt><trkpt lat="33.546550318065684" lon="9.683982127782702"><ele>183.0</ele><time>2026-04-06T15:33:18Z</time></trkpt><trkpt lat="33.54692344496939" lon="9.683912613273176"><ele>182.0</ele><time>2026-04-06T15:33:19Z</time></trkpt><trkpt lat="33.547273014253946" lon="9.683847210725334"><ele>181.0</ele><time>2026-04-06T15:33:20Z</time></trkpt><trkpt lat="33.54760087990408" lon="9.683782591555158"><ele>181.5</ele><time>2026-04-06T15:33:21Z</time></trkpt><trkpt lat="33.547903999513835" lon="9.683718784836595"><ele>182.0</ele><time>2026-04-06T15:33:22Z</time></trkpt><trkpt lat="33.548212475783785" lon="9.68365981380636"><ele>182.0</ele><time>2026-04-06T15:33:23Z</time></trkpt><trkpt lat="33.548540114304615" lon="9.683598778189518"><ele>182.0</ele><time>2026-04-06T15:33:24Z</time></trkpt><trkpt lat="33.548878322703715" lon="9.683537899721172"><ele>182.5</ele><time>2026-04-06T15:33:25Z</time></trkpt><trkpt lat="33.549222364567655" lon="9.683473977291186"><ele>183.0</ele><time>2026-04-06T15:33:26Z</time></trkpt><trkpt lat="33.54957496383035" lon="9.683408138168305"><ele>183.0</ele><time>2026-04-06T15:33:27Z</time></trkpt><trkpt lat="33.549918208785535" lon="9.683346176160304"><ele>183.0</ele><time>2026-04-06T15:33:28Z</time></trkpt><trkpt lat="33.55025373458954" lon="9.683282356708276"><ele>184.0</ele><time>2026-04-06T15:33:29Z</time></trkpt><trkpt lat="33.550599927852694" lon="9.683218210696094"><ele>185.0</ele><time>2026-04-06T15:33:30Z</time></trkpt><trkpt lat="33.55092788706181" lon="9.683156635987945"><ele>186.0</ele><time>2026-04-06T15:33:31Z</time></trkpt><trkpt lat="33.551229466753746" lon="9.683097986867551"><ele>187.0</ele><time>2026-04-06T15:33:32Z</time></trkpt><trkpt lat="33.55150831875257" lon="9.683041518725737"><ele>187.0</ele><time>2026-04-06T15:33:33Z</time></trkpt><trkpt lat="33.55176590758691" lon="9.682987298780025"><ele>187.0</ele><time>2026-04-06T15:33:34Z</time></trkpt><trkpt lat="33.552028797548274" lon="9.682932335999574"><ele>187.0</ele><time>2026-04-06T15:33:35Z</time></trkpt><trkpt lat="33.552323703757196" lon="9.682874208539657"><ele>187.0</ele><time>2026-04-06T15:33:36Z</time></trkpt><trkpt lat="33.552638832810764" lon="9.682814426060842"><ele>186.5</ele><time>2026-04-06T15:33:37Z</time></trkpt><trkpt lat="33.55296669443819" lon="9.682755169734198"><ele>186.0</ele><time>2026-04-06T15:33:38Z</time></trkpt><trkpt lat="33.55330775459976" lon="9.682695512526776"><ele>186.0</ele><time>2026-04-06T15:33:39Z</time></trkpt><trkpt lat="33.55365591065009" lon="9.682635067020263"><ele>186.0</ele><time>2026-04-06T15:33:40Z</time></trkpt><trkpt lat="33.55400561113028" lon="9.6825761525716"><ele>186.0</ele><time>2026-04-06T15:33:41Z</time></trkpt><trkpt lat="33.554351583765126" lon="9.682513884703885"><ele>186.0</ele><time>2026-04-06T15:33:42Z</time></trkpt><trkpt lat="33.55468333993236" lon="9.682454697329687"><ele>186.0</ele><time>2026-04-06T15:33:43Z</time></trkpt><trkpt lat="33.555014680109515" lon="9.682393858585044"><ele>186.0</ele><time>2026-04-06T15:33:44Z</time></trkpt><trkpt lat="33.55533973467239" lon="9.682332812920412"><ele>186.0</ele><time>2026-04-06T15:33:45Z</time></trkpt><trkpt lat="33.55565401279343" lon="9.682271355939598"><ele>186.0</ele><time>2026-04-06T15:33:46Z</time></trkpt><trkpt lat="33.55595469714969" lon="9.68221461653058"><ele>187.0</ele><time>2026-04-06T15:33:47Z</time></trkpt><trkpt lat="33.55623855984884" lon="9.682159625915851"><ele>188.0</ele><time>2026-04-06T15:33:48Z</time></trkpt><trkpt lat="33.556531848742296" lon="9.682103551493379"><ele>188.0</ele><time>2026-04-06T15:33:49Z</time></trkpt><trkpt lat="33.55685081308273" lon="9.682041960725114"><ele>188.0</ele><time>2026-04-06T15:33:50Z</time></trkpt><trkpt lat="33.55718423953479" lon="9.68197609124548"><ele>188.5</ele><time>2026-04-06T15:33:51Z</time></trkpt><trkpt lat="33.55753256928325" lon="9.681906952075819"><ele>189.0</ele><time>2026-04-06T15:33:52Z</time></trkpt><trkpt lat="33.557891158639165" lon="9.681836465516348"><ele>189.5</ele><time>2026-04-06T15:33:53Z</time></trkpt><trkpt lat="33.55826049319819" lon="9.681764873566378"><ele>190.0</ele><time>2026-04-06T15:33:54Z</time></trkpt><trkpt lat="33.55863302858586" lon="9.681691034522428"><ele>190.0</ele><time>2026-04-06T15:33:55Z</time></trkpt><trkpt lat="33.55901410080521" lon="9.681615438955768"><ele>190.0</ele><time>2026-04-06T15:33:56Z</time></trkpt><trkpt lat="33.55940482194324" lon="9.681541164547019"><ele>189.0</ele><time>2026-04-06T15:33:57Z</time></trkpt><trkpt lat="33.55980431451603" lon="9.681466520979221"><ele>188.0</ele><time>2026-04-06T15:33:58Z</time></trkpt><trkpt lat="33.560210647039966" lon="9.681389829155282"><ele>187.0</ele><time>2026-04-06T15:33:59Z</time></trkpt><trkpt lat="33.56062206309415" lon="9.681311395084979"><ele>186.0</ele><time>2026-04-06T15:34:00Z</time></trkpt><trkpt lat="33.56103877641174" lon="9.681229268587025"><ele>186.0</ele><time>2026-04-06T15:34:01Z</time></trkpt><trkpt lat="33.56145498512167" lon="9.68114807602221"><ele>186.0</ele><time>2026-04-06T15:34:02Z</time></trkpt><trkpt lat="33.5618730552475" lon="9.681068691956543"><ele>186.5</ele><time>2026-04-06T15:34:03Z</time></trkpt><trkpt lat="33.56228764954509" lon="9.680991990570318"><ele>187.0</ele><time>2026-04-06T15:34:04Z</time></trkpt><trkpt lat="33.56269655552636" lon="9.680915467285049"><ele>187.0</ele><time>2026-04-06T15:34:05Z</time></trkpt><trkpt lat="33.56309834887299" lon="9.680832392622042"><ele>187.0</ele><time>2026-04-06T15:34:06Z</time></trkpt><trkpt lat="33.56349523838615" lon="9.68074984438818"><ele>188.5</ele><time>2026-04-06T15:34:07Z</time></trkpt><trkpt lat="33.563890431777004" lon="9.68067621795244"><ele>190.0</ele><time>2026-04-06T15:34:08Z</time></trkpt><trkpt lat="33.56426888066565" lon="9.680606064412602"><ele>190.0</ele><time>2026-04-06T15:34:09Z</time></trkpt><trkpt lat="33.56462426656559" lon="9.680538852974856"><ele>190.0</ele><time>2026-04-06T15:34:10Z</time></trkpt><trkpt lat="33.5649581549803" lon="9.680476564591237"><ele>190.0</ele><time>2026-04-06T15:34:11Z</time></trkpt><trkpt lat="33.56528140216935" lon="9.680417084022144"><ele>190.0</ele><time>2026-04-06T15:34:12Z</time></trkpt><trkpt lat="33.5655938207216" lon="9.680360216123619"><ele>191.0</ele><time>2026-04-06T15:34:13Z</time></trkpt><trkpt lat="33.565883038338356" lon="9.680306445645659"><ele>192.0</ele><time>2026-04-06T15:34:14Z</time></trkpt><trkpt lat="33.56613287896349" lon="9.680260728050948"><ele>192.66666666666669</ele><time>2026-04-06T15:34:15Z</time></trkpt><trkpt lat="33.56635300222386" lon="9.680221022682105"><ele>193.33333333333334</ele><time>2026-04-06T15:34:16Z</time></trkpt><trkpt lat="33.56654123183209" lon="9.680190808085538"><ele>194.0</ele><time>2026-04-06T15:34:17Z</time></trkpt><trkpt lat="33.5667177196938" lon="9.680175171382123"><ele>194.0</ele><time>2026-04-06T15:34:18Z</time></trkpt><trkpt lat="33.56688257588431" lon="9.68018949506083"><ele>194.0</ele><time>2026-04-06T15:34:19Z</time></trkpt><trkpt lat="33.567043083921575" lon="9.68024235609078"><ele>194.0</ele><time>2026-04-06T15:34:20Z</time></trkpt><trkpt lat="33.56721093319937" lon="9.680333369753727"><ele>194.0</ele><time>2026-04-06T15:34:21Z</time></trkpt><trkpt lat="33.567394523326215" lon="9.680459316154646"><ele>194.0</ele><time>2026-04-06T15:34:22Z</time></trkpt><trkpt lat="33.56758782129683" lon="9.68060222357613"><ele>194.0</ele><time>2026-04-06T15:34:23Z</time></trkpt><trkpt lat="33.567796550415196" lon="9.680750026781482"><ele>193.0</ele><time>2026-04-06T15:34:24Z</time></trkpt><trkpt lat="33.56801912581967" lon="9.680897024977678"><ele>192.0</ele><time>2026-04-06T15:34:25Z</time></trkpt><trkpt lat="33.568259152540335" lon="9.681053587868291"><ele>192.5</ele><time>2026-04-06T15:34:26Z</time></trkpt><trkpt lat="33.56851117409783" lon="9.681214612981742"><ele>193.0</ele><time>2026-04-06T15:34:27Z</time></trkpt><trkpt lat="33.56876817245294" lon="9.681383860652328"><ele>193.0</ele><time>2026-04-06T15:34:28Z</time></trkpt><trkpt lat="33.56903837462668" lon="9.681561567098097"><ele>193.0</ele><time>2026-04-06T15:34:29Z</time></trkpt><trkpt lat="33.569312792277834" lon="9.681742941630086"><ele>192.5</ele><time>2026-04-06T15:34:30Z</time></trkpt><trkpt lat="33.56959537029348" lon="9.68193246929769"><ele>192.0</ele><time>2026-04-06T15:34:31Z</time></trkpt><trkpt lat="33.56988429699865" lon="9.682125190380999"><ele>192.0</ele><time>2026-04-06T15:34:32Z</time></trkpt><trkpt lat="33.57017455038036" lon="9.68231939169032"><ele>192.0</ele><time>2026-04-06T15:34:33Z</time></trkpt><trkpt lat="33.570459441643926" lon="9.682510959224755"><ele>189.0</ele><time>2026-04-06T15:34:34Z</time></trkpt><trkpt lat="33.57074357630924" lon="9.682704048010766"><ele>186.0</ele><time>2026-04-06T15:34:35Z</time></trkpt><trkpt lat="33.57102715396712" lon="9.682894036225939"><ele>186.0</ele><time>2026-04-06T15:34:36Z</time></trkpt><trkpt lat="33.57131197437264" lon="9.683080557735366"><ele>186.0</ele><time>2026-04-06T15:34:37Z</time></trkpt><trkpt lat="33.57159711708442" lon="9.68326977057592"><ele>186.0</ele><time>2026-04-06T15:34:38Z</time></trkpt><trkpt lat="33.57187463837131" lon="9.683461577015464"><ele>186.0</ele><time>2026-04-06T15:34:39Z</time></trkpt><trkpt lat="33.572147374376655" lon="9.683649680850621"><ele>187.0</ele><time>2026-04-06T15:34:40Z</time></trkpt><trkpt lat="33.572411304036564" lon="9.683829636407776"><ele>188.0</ele><time>2026-04-06T15:34:41Z</time></trkpt><trkpt lat="33.57266982078648" lon="9.68400710144484"><ele>189.0</ele><time>2026-04-06T15:34:42Z</time></trkpt><trkpt lat="33.57292627447534" lon="9.684183897044576"><ele>190.0</ele><time>2026-04-06T15:34:43Z</time></trkpt><trkpt lat="33.57318189477892" lon="9.68435366010441"><ele>191.0</ele><time>2026-04-06T15:34:44Z</time></trkpt><trkpt lat="33.57342358138119" lon="9.68450691755752"><ele>192.0</ele><time>2026-04-06T15:34:45Z</time></trkpt><trkpt lat="33.57364722083424" lon="9.684649707178714"><ele>192.0</ele><time>2026-04-06T15:34:46Z</time></trkpt><trkpt lat="33.57384352887809" lon="9.684778622091072"><ele>192.0</ele><time>2026-04-06T15:34:47Z</time></trkpt><trkpt lat="33.57401836683936" lon="9.684895075255568"><ele>192.0</ele><time>2026-04-06T15:34:48Z</time></trkpt><trkpt lat="33.57416737982891" lon="9.684994083113562"><ele>192.0</ele><time>2026-04-06T15:34:49Z</time></trkpt><trkpt lat="33.57429018773835" lon="9.685078139752042"><ele>192.0</ele><time>2026-04-06T15:34:50Z</time></trkpt><trkpt lat="33.574395816127804" lon="9.685151495612546"><ele>192.0</ele><time>2026-04-06T15:34:51Z</time></trkpt><trkpt lat="33.57448396247222" lon="9.685210985685321"><ele>192.0</ele><time>2026-04-06T15:34:52Z</time></trkpt><trkpt lat="33.57455283744053" lon="9.685258391482785"><ele>192.0</ele><time>2026-04-06T15:34:53Z</time></trkpt><trkpt lat="33.574654592050024" lon="9.68531558688085"><ele>191.85714285714283</ele><time>2026-04-06T15:34:55Z</time></trkpt><trkpt lat="33.5747244768473" lon="9.685328578760966"><ele>191.71428571428572</ele><time>2026-04-06T15:34:57Z</time></trkpt><trkpt lat="33.57479315452043" lon="9.685367506714893"><ele>191.57142857142856</ele><time>2026-04-06T15:35:11Z</time></trkpt><trkpt lat="33.57483738506844" lon="9.685310479070875"><ele>191.42857142857142</ele><time>2026-04-06T15:35:14Z</time></trkpt><trkpt lat="33.574798313863816" lon="9.685245028791478"><ele>191.28571428571428</ele><time>2026-04-06T15:35:16Z</time></trkpt><trkpt lat="33.57476461389316" lon="9.685174008308568"><ele>191.14285714285714</ele><time>2026-04-06T15:48:09Z</time></trkpt><trkpt lat="33.57476874397488" lon="9.685088172863573"><ele>191.0</ele><time>2026-04-06T15:48:15Z</time></trkpt><trkpt lat="33.57476784365672" lon="9.685175381816716"><ele>190.85714285714286</ele><time>2026-04-06T15:49:55.001Z</time></trkpt><trkpt lat="33.57477619908982" lon="9.685093320837828"><ele>190.7142857142857</ele><time>2026-04-06T15:50:12.001Z</time></trkpt><trkpt lat="33.57477769652464" lon="9.68517328333864"><ele>190.57142857142856</ele><time>2026-04-06T15:56:56.999Z</time></trkpt><trkpt lat="33.574780952822934" lon="9.685094943641802"><ele>190.42857142857144</ele><time>2026-04-06T15:58:10.001Z</time></trkpt><trkpt lat="33.57479165936985" lon="9.685179182990357"><ele>190.28571428571428</ele><time>2026-04-06T16:05:52.001Z</time></trkpt><trkpt lat="33.574796410339694" lon="9.685093894667798"><ele>190.14285714285714</ele><time>2026-04-06T16:09:21.002Z</time></trkpt><trkpt lat="33.57482172354969" lon="9.685023435077444"><ele>190.0</ele><time>2026-04-06T16:09:29.002Z</time></trkpt><trkpt lat="33.57475547122622" lon="9.685009728746111"><ele>190.0</ele><time>2026-04-06T16:11:25.001Z</time></trkpt><trkpt lat="33.57472421938077" lon="9.685088763506895"><ele>190.0</ele><time>2026-04-06T16:11:31.001Z</time></trkpt><trkpt lat="33.574748476330306" lon="9.685159470793105"><ele>190.0</ele><time>2026-04-06T16:11:36.001Z</time></trkpt><trkpt lat="33.574773912795784" lon="9.685246666205986"><ele>190.0</ele><time>2026-04-06T16:12:28.001Z</time></trkpt><trkpt lat="33.574709529272106" lon="9.685257945608987"><ele>190.0</ele><time>2026-04-06T16:14:03.001Z</time></trkpt><trkpt lat="33.57467777909414" lon="9.685348550727904"><ele>190.0</ele><time>2026-04-06T16:14:06.001Z</time></trkpt><trkpt lat="33.57475434786299" lon="9.685409393994187"><ele>190.0</ele><time>2026-04-06T16:14:08.001Z</time></trkpt><trkpt lat="33.5748380855863" lon="9.685459895317509"><ele>190.0</ele><time>2026-04-06T16:14:10.001Z</time></trkpt><trkpt lat="33.5749046728237" lon="9.685507949752733"><ele>190.0</ele><time>2026-04-06T16:14:12.001Z</time></trkpt><trkpt lat="33.57497093502518" lon="9.685485383348539"><ele>190.0</ele><time>2026-04-06T16:14:14.001Z</time></trkpt><trkpt lat="33.57501367772604" lon="9.685417229789623"><ele>190.0</ele><time>2026-04-06T16:14:15.001Z</time></trkpt><trkpt lat="33.575074457362646" lon="9.685291687312048"><ele>190.0</ele><time>2026-04-06T16:14:16.001Z</time></trkpt><trkpt lat="33.5751611516142" lon="9.685103107778378"><ele>190.0</ele><time>2026-04-06T16:14:17.001Z</time></trkpt><trkpt lat="33.57525419198847" lon="9.684856889190224"><ele>190.0</ele><time>2026-04-06T16:14:18.001Z</time></trkpt><trkpt lat="33.57534707761466" lon="9.68459318038461"><ele>189.0</ele><time>2026-04-06T16:14:19.001Z</time></trkpt><trkpt lat="33.57543344184735" lon="9.684352347415693"><ele>188.0</ele><time>2026-04-06T16:14:20.001Z</time></trkpt><trkpt lat="33.575517754691425" lon="9.684136669510195"><ele>187.0</ele><time>2026-04-06T16:14:21.001Z</time></trkpt><trkpt lat="33.575604420471024" lon="9.683923541773158"><ele>187.0</ele><time>2026-04-06T16:14:22.001Z</time></trkpt><trkpt lat="33.575688382096985" lon="9.683708770074801"><ele>187.0</ele><time>2026-04-06T16:14:23.001Z</time></trkpt><trkpt lat="33.57577314663319" lon="9.68348849964505"><ele>187.0</ele><time>2026-04-06T16:14:24.001Z</time></trkpt><trkpt lat="33.575859578219415" lon="9.683262954005974"><ele>186.66666666666669</ele><time>2026-04-06T16:14:25.001Z</time></trkpt><trkpt lat="33.57594502554792" lon="9.68303708385104"><ele>186.33333333333334</ele><time>2026-04-06T16:14:26.001Z</time></trkpt><trkpt lat="33.576031635410935" lon="9.682812834741757"><ele>186.0</ele><time>2026-04-06T16:14:27.001Z</time></trkpt><trkpt lat="33.57612040866609" lon="9.682585632109614"><ele>185.66666666666666</ele><time>2026-04-06T16:14:28.001Z</time></trkpt><trkpt lat="33.57620957354843" lon="9.682358854914542"><ele>185.33333333333331</ele><time>2026-04-06T16:14:29.001Z</time></trkpt><trkpt lat="33.576298727121944" lon="9.682137951336582"><ele>185.0</ele><time>2026-04-06T16:14:30.001Z</time></trkpt><trkpt lat="33.57647129977672" lon="9.681687916540985"><ele>184.66666666666666</ele><time>2026-04-06T16:14:32.001Z</time></trkpt><trkpt lat="33.57655389239064" lon="9.681461365342992"><ele>184.33333333333334</ele><time>2026-04-06T16:14:33.001Z</time></trkpt><trkpt lat="33.57664169347463" lon="9.681228540740655"><ele>184.0</ele><time>2026-04-06T16:14:34.001Z</time></trkpt><trkpt lat="33.57673402158657" lon="9.680997477774275"><ele>183.33333333333334</ele><time>2026-04-06T16:14:35.001Z</time></trkpt><trkpt lat="33.576825285345315" lon="9.680763320061425"><ele>182.66666666666666</ele><time>2026-04-06T16:14:36.001Z</time></trkpt><trkpt lat="33.576918780834504" lon="9.680524873744455"><ele>182.0</ele><time>2026-04-06T16:14:37.001Z</time></trkpt><trkpt lat="33.57700964766753" lon="9.680285988186583"><ele>183.0</ele><time>2026-04-06T16:14:38.001Z</time></trkpt><trkpt lat="33.577103243851084" lon="9.680035560380656"><ele>184.0</ele><time>2026-04-06T16:14:39.001Z</time></trkpt><trkpt lat="33.577199507507586" lon="9.679780782678073"><ele>184.0</ele><time>2026-04-06T16:14:40.001Z</time></trkpt><trkpt lat="33.57730266112292" lon="9.67951891389166"><ele>184.0</ele><time>2026-04-06T16:14:41.001Z</time></trkpt><trkpt lat="33.57740642910115" lon="9.679251882298118"><ele>184.0</ele><time>2026-04-06T16:14:42.001Z</time></trkpt><trkpt lat="33.5775089695192" lon="9.678981232287999"><ele>184.0</ele><time>2026-04-06T16:14:43.001Z</time></trkpt><trkpt lat="33.577616111647146" lon="9.678710016169212"><ele>183.5</ele><time>2026-04-06T16:14:44.001Z</time></trkpt><trkpt lat="33.577723759005146" lon="9.678433953583713"><ele>183.0</ele><time>2026-04-06T16:14:45.001Z</time></trkpt><trkpt lat="33.57782909472344" lon="9.678164795956112"><ele>184.0</ele><time>2026-04-06T16:14:46.001Z</time></trkpt><trkpt lat="33.57793275094707" lon="9.677897417197169"><ele>185.0</ele><time>2026-04-06T16:14:47.001Z</time></trkpt><trkpt lat="33.57803377726075" lon="9.677631532325528"><ele>185.5</ele><time>2026-04-06T16:14:48.001Z</time></trkpt><trkpt lat="33.57813420261895" lon="9.677362096560152"><ele>186.0</ele><time>2026-04-06T16:14:49.001Z</time></trkpt><trkpt lat="33.5782316133647" lon="9.677094187830875"><ele>185.5</ele><time>2026-04-06T16:14:50.001Z</time></trkpt><trkpt lat="33.57832934730358" lon="9.676816529881517"><ele>185.0</ele><time>2026-04-06T16:14:51.001Z</time></trkpt><trkpt lat="33.57842499218303" lon="9.676532692072502"><ele>185.0</ele><time>2026-04-06T16:14:52.001Z</time></trkpt><trkpt lat="33.57851456312353" lon="9.676236039062726"><ele>185.0</ele><time>2026-04-06T16:14:53.001Z</time></trkpt><trkpt lat="33.57859504895282" lon="9.675943731937062"><ele>185.5</ele><time>2026-04-06T16:14:54.001Z</time></trkpt><trkpt lat="33.57867099102856" lon="9.675647503346456"><ele>186.0</ele><time>2026-04-06T16:14:55.001Z</time></trkpt><trkpt lat="33.578746725404685" lon="9.675341423097235"><ele>184.0</ele><time>2026-04-06T16:14:56.001Z</time></trkpt><trkpt lat="33.57882240217227" lon="9.67502567966951"><ele>182.0</ele><time>2026-04-06T16:14:57.001Z</time></trkpt><trkpt lat="33.57889877580876" lon="9.674703912303828"><ele>181.0</ele><time>2026-04-06T16:14:58.001Z</time></trkpt><trkpt lat="33.57897801759435" lon="9.674377327596586"><ele>180.0</ele><time>2026-04-06T16:14:59.001Z</time></trkpt><trkpt lat="33.57905899497375" lon="9.674037848306856"><ele>180.0</ele><time>2026-04-06T16:15:00.001Z</time></trkpt><trkpt lat="33.579143172769655" lon="9.673687133254223"><ele>180.0</ele><time>2026-04-06T16:15:01.001Z</time></trkpt><trkpt lat="33.57922634079397" lon="9.67333801040018"><ele>178.5</ele><time>2026-04-06T16:15:02.001Z</time></trkpt><trkpt lat="33.579311796997885" lon="9.673003387098124"><ele>177.0</ele><time>2026-04-06T16:15:03.001Z</time></trkpt><trkpt lat="33.57939840479337" lon="9.672679998532598"><ele>177.0</ele><time>2026-04-06T16:15:04.001Z</time></trkpt><trkpt lat="33.579482293585954" lon="9.672364289188373"><ele>177.0</ele><time>2026-04-06T16:15:05.001Z</time></trkpt><trkpt lat="33.57956332887817" lon="9.672068037559304"><ele>176.0</ele><time>2026-04-06T16:15:06.001Z</time></trkpt><trkpt lat="33.57963621811097" lon="9.671787295063005"><ele>175.0</ele><time>2026-04-06T16:15:07.001Z</time></trkpt><trkpt lat="33.57970632428177" lon="9.671519082231296"><ele>175.0</ele><time>2026-04-06T16:15:08.001Z</time></trkpt><trkpt lat="33.57977520982614" lon="9.671248181000319"><ele>175.0</ele><time>2026-04-06T16:15:09.001Z</time></trkpt><trkpt lat="33.57984428196248" lon="9.670974767661978"><ele>175.5</ele><time>2026-04-06T16:15:10.001Z</time></trkpt><trkpt lat="33.579912227329935" lon="9.670706559722442"><ele>176.0</ele><time>2026-04-06T16:15:11.001Z</time></trkpt><trkpt lat="33.5799815737685" lon="9.670437856074566"><ele>175.0</ele><time>2026-04-06T16:15:12.001Z</time></trkpt><trkpt lat="33.58004999710818" lon="9.670162376491138"><ele>174.0</ele><time>2026-04-06T16:15:13.001Z</time></trkpt><trkpt lat="33.58011703733297" lon="9.669884186435883"><ele>174.0</ele><time>2026-04-06T16:15:14.001Z</time></trkpt><trkpt lat="33.58018504480154" lon="9.669604017409089"><ele>174.0</ele><time>2026-04-06T16:15:15.001Z</time></trkpt><trkpt lat="33.58025116523085" lon="9.669324903866505"><ele>174.5</ele><time>2026-04-06T16:15:16.001Z</time></trkpt><trkpt lat="33.58031635542932" lon="9.669045821232361"><ele>175.0</ele><time>2026-04-06T16:15:17.001Z</time></trkpt><trkpt lat="33.58037888288713" lon="9.668766713811493"><ele>175.5</ele><time>2026-04-06T16:15:18.001Z</time></trkpt><trkpt lat="33.58043410056527" lon="9.6684841176331"><ele>176.0</ele><time>2026-04-06T16:15:19.001Z</time></trkpt><trkpt lat="33.58048287869432" lon="9.668199076356297"><ele>176.0</ele><time>2026-04-06T16:15:20.001Z</time></trkpt><trkpt lat="33.580527940522295" lon="9.667916220473268"><ele>176.0</ele><time>2026-04-06T16:15:21.001Z</time></trkpt><trkpt lat="33.58057450811029" lon="9.667636522570742"><ele>176.0</ele><time>2026-04-06T16:15:22.001Z</time></trkpt><trkpt lat="33.580614567780415" lon="9.667362664860216"><ele>176.0</ele><time>2026-04-06T16:15:23.001Z</time></trkpt><trkpt lat="33.580648752421034" lon="9.667088673481924"><ele>176.5</ele><time>2026-04-06T16:15:24.001Z</time></trkpt><trkpt lat="33.580684555276626" lon="9.666823854816379"><ele>177.0</ele><time>2026-04-06T16:15:25.001Z</time></trkpt><trkpt lat="33.580716217721694" lon="9.666547257299994"><ele>177.0</ele><time>2026-04-06T16:15:26.001Z</time></trkpt><trkpt lat="33.580737754493995" lon="9.666267428816413"><ele>177.0</ele><time>2026-04-06T16:15:27.001Z</time></trkpt><trkpt lat="33.580748052160764" lon="9.665983525883405"><ele>177.0</ele><time>2026-04-06T16:15:28Z</time></trkpt><trkpt lat="33.58075314966903" lon="9.6656956662288"><ele>177.0</ele><time>2026-04-06T16:15:29Z</time></trkpt><trkpt lat="33.580752489748185" lon="9.665403573484815"><ele>177.0</ele><time>2026-04-06T16:15:30Z</time></trkpt><trkpt lat="33.58074394372585" lon="9.665115498729172"><ele>177.0</ele><time>2026-04-06T16:15:31Z</time></trkpt><trkpt lat="33.58073464846376" lon="9.664822828864448"><ele>177.0</ele><time>2026-04-06T16:15:32Z</time></trkpt><trkpt lat="33.58073234236912" lon="9.664530081511487"><ele>177.0</ele><time>2026-04-06T16:15:33Z</time></trkpt><trkpt lat="33.58072326454227" lon="9.664234396489753"><ele>177.5</ele><time>2026-04-06T16:15:34Z</time></trkpt><trkpt lat="33.58070149620858" lon="9.66393428129098"><ele>178.0</ele><time>2026-04-06T16:15:35Z</time></trkpt><trkpt lat="33.58067120548976" lon="9.663635101775304"><ele>179.0</ele><time>2026-04-06T16:15:36Z</time></trkpt><trkpt lat="33.58063701898435" lon="9.663324020311103"><ele>180.0</ele><time>2026-04-06T16:15:37Z</time></trkpt><trkpt lat="33.58059786072365" lon="9.663008078684484"><ele>181.0</ele><time>2026-04-06T16:15:38Z</time></trkpt><trkpt lat="33.580549896230295" lon="9.66267902665767"><ele>182.0</ele><time>2026-04-06T16:15:39Z</time></trkpt><trkpt lat="33.58049408336765" lon="9.6623300505149"><ele>182.0</ele><time>2026-04-06T16:15:40Z</time></trkpt><trkpt lat="33.58044134409656" lon="9.661958521969966"><ele>182.0</ele><time>2026-04-06T16:15:41Z</time></trkpt><trkpt lat="33.58039225788548" lon="9.661584858991183"><ele>179.0</ele><time>2026-04-06T16:15:42Z</time></trkpt><trkpt lat="33.580346221975034" lon="9.661220922882128"><ele>176.0</ele><time>2026-04-06T16:15:43Z</time></trkpt><trkpt lat="33.580302382570274" lon="9.660880092768792"><ele>176.0</ele><time>2026-04-06T16:15:44Z</time></trkpt><trkpt lat="33.580260980033096" lon="9.66056522308166"><ele>176.0</ele><time>2026-04-06T16:15:45Z</time></trkpt><trkpt lat="33.58022040801478" lon="9.660260903973672"><ele>177.0</ele><time>2026-04-06T16:15:46Z</time></trkpt><trkpt lat="33.5801817055534" lon="9.659957072576546"><ele>178.0</ele><time>2026-04-06T16:15:47Z</time></trkpt><trkpt lat="33.580145817438655" lon="9.659654748683451"><ele>179.0</ele><time>2026-04-06T16:15:48Z</time></trkpt><trkpt lat="33.580120049230324" lon="9.659357376037107"><ele>180.0</ele><time>2026-04-06T16:15:49Z</time></trkpt><trkpt lat="33.58010135012835" lon="9.659045512129444"><ele>180.0</ele><time>2026-04-06T16:15:50Z</time></trkpt><trkpt lat="33.58009628922204" lon="9.658726734527864"><ele>180.0</ele><time>2026-04-06T16:15:51Z</time></trkpt><trkpt lat="33.58011276389986" lon="9.658418206390804"><ele>180.0</ele><time>2026-04-06T16:15:52Z</time></trkpt><trkpt lat="33.580149717290055" lon="9.658107631084958"><ele>180.0</ele><time>2026-04-06T16:15:53Z</time></trkpt><trkpt lat="33.58019569961513" lon="9.657775404381825"><ele>178.0</ele><time>2026-04-06T16:15:54Z</time></trkpt><trkpt lat="33.58024338248557" lon="9.65742386075269"><ele>176.0</ele><time>2026-04-06T16:15:55Z</time></trkpt><trkpt lat="33.58029539648656" lon="9.657068756384051"><ele>174.5</ele><time>2026-04-06T16:15:56Z</time></trkpt><trkpt lat="33.580359922203684" lon="9.656709498306272"><ele>173.0</ele><time>2026-04-06T16:15:57Z</time></trkpt><trkpt lat="33.580437821912966" lon="9.656349918390038"><ele>172.5</ele><time>2026-04-06T16:15:58Z</time></trkpt><trkpt lat="33.580528235432524" lon="9.655992969289667"><ele>172.0</ele><time>2026-04-06T16:15:59Z</time></trkpt><trkpt lat="33.58063223772363" lon="9.655635449839973"><ele>172.0</ele><time>2026-04-06T16:16:00Z</time></trkpt><trkpt lat="33.58074210024319" lon="9.65528939333604"><ele>172.0</ele><time>2026-04-06T16:16:01Z</time></trkpt><trkpt lat="33.58085260553354" lon="9.654954258469344"><ele>171.5</ele><time>2026-04-06T16:16:02Z</time></trkpt><trkpt lat="33.58097536480445" lon="9.654634746225192"><ele>171.0</ele><time>2026-04-06T16:16:03Z</time></trkpt><trkpt lat="33.58111071644671" lon="9.654330102332432"><ele>172.0</ele><time>2026-04-06T16:16:04Z</time></trkpt><trkpt lat="33.58125083379553" lon="9.654037739683769"><ele>173.0</ele><time>2026-04-06T16:16:05Z</time></trkpt><trkpt lat="33.581399315766795" lon="9.653741720917607"><ele>174.0</ele><time>2026-04-06T16:16:06Z</time></trkpt><trkpt lat="33.581564388819" lon="9.653439401969429"><ele>175.0</ele><time>2026-04-06T16:16:07Z</time></trkpt><trkpt lat="33.581743777182325" lon="9.65313879533278"><ele>175.0</ele><time>2026-04-06T16:16:08Z</time></trkpt><trkpt lat="33.581935453768104" lon="9.652842354429145"><ele>175.0</ele><time>2026-04-06T16:16:09Z</time></trkpt><trkpt lat="33.58213735632246" lon="9.652557153220227"><ele>176.0</ele><time>2026-04-06T16:16:10Z</time></trkpt><trkpt lat="33.582350967411436" lon="9.652281916162488"><ele>177.0</ele><time>2026-04-06T16:16:11Z</time></trkpt><trkpt lat="33.58257714779205" lon="9.652004714606338"><ele>176.5</ele><time>2026-04-06T16:16:12Z</time></trkpt><trkpt lat="33.58281725835877" lon="9.651725173840788"><ele>176.0</ele><time>2026-04-06T16:16:13Z</time></trkpt><trkpt lat="33.58306927718163" lon="9.651446854958754"><ele>176.0</ele><time>2026-04-06T16:16:14Z</time></trkpt><trkpt lat="33.583333424538985" lon="9.651169430422398"><ele>176.0</ele><time>2026-04-06T16:16:15Z</time></trkpt><trkpt lat="33.58360389058598" lon="9.650891116700352"><ele>176.0</ele><time>2026-04-06T16:16:16Z</time></trkpt><trkpt lat="33.583876088159336" lon="9.65060507380396"><ele>176.0</ele><time>2026-04-06T16:16:17Z</time></trkpt><trkpt lat="33.5841509252369" lon="9.650317962671943"><ele>176.5</ele><time>2026-04-06T16:16:18Z</time></trkpt><trkpt lat="33.58442741596526" lon="9.650028348147327"><ele>177.0</ele><time>2026-04-06T16:16:19Z</time></trkpt><trkpt lat="33.58469792640485" lon="9.649740693589925"><ele>178.5</ele><time>2026-04-06T16:16:20Z</time></trkpt><trkpt lat="33.584956222970256" lon="9.649468259241562"><ele>180.0</ele><time>2026-04-06T16:16:21Z</time></trkpt><trkpt lat="33.58519481021624" lon="9.649207784688784"><ele>181.0</ele><time>2026-04-06T16:16:22Z</time></trkpt><trkpt lat="33.58543781632331" lon="9.6489534809332"><ele>182.0</ele><time>2026-04-06T16:16:23Z</time></trkpt><trkpt lat="33.585676660539626" lon="9.648683339563105"><ele>182.5</ele><time>2026-04-06T16:16:24Z</time></trkpt><trkpt lat="33.585904681963086" lon="9.648389600521272"><ele>183.0</ele><time>2026-04-06T16:16:25Z</time></trkpt><trkpt lat="33.586124627642704" lon="9.648071796084263"><ele>185.0</ele><time>2026-04-06T16:16:26Z</time></trkpt><trkpt lat="33.586341193329645" lon="9.647734920776257"><ele>187.0</ele><time>2026-04-06T16:16:27Z</time></trkpt><trkpt lat="33.58655095529778" lon="9.647385153517252"><ele>187.0</ele><time>2026-04-06T16:16:28Z</time></trkpt><trkpt lat="33.586756933347196" lon="9.647025805396959"><ele>187.0</ele><time>2026-04-06T16:16:29Z</time></trkpt><trkpt lat="33.586962639455194" lon="9.6466573567771"><ele>188.0</ele><time>2026-04-06T16:16:30Z</time></trkpt><trkpt lat="33.58715414427488" lon="9.646296457679577"><ele>189.0</ele><time>2026-04-06T16:16:31Z</time></trkpt><trkpt lat="33.587338102432476" lon="9.645943548114017"><ele>189.0</ele><time>2026-04-06T16:16:32Z</time></trkpt><trkpt lat="33.58751411902008" lon="9.64561321114711"><ele>189.0</ele><time>2026-04-06T16:16:33Z</time></trkpt><trkpt lat="33.58769614035545" lon="9.645269571850926"><ele>188.0</ele><time>2026-04-06T16:16:34Z</time></trkpt><trkpt lat="33.58788055652836" lon="9.644908843321108"><ele>187.0</ele><time>2026-04-06T16:16:35Z</time></trkpt><trkpt lat="33.58805939857111" lon="9.644537724433084"><ele>185.0</ele><time>2026-04-06T16:16:36Z</time></trkpt><trkpt lat="33.58823606883868" lon="9.644158005969683"><ele>183.0</ele><time>2026-04-06T16:16:37Z</time></trkpt><trkpt lat="33.58841090338867" lon="9.64376968030598"><ele>183.0</ele><time>2026-04-06T16:16:38Z</time></trkpt><trkpt lat="33.58857731978135" lon="9.64338341876516"><ele>183.0</ele><time>2026-04-06T16:16:39Z</time></trkpt><trkpt lat="33.58873642024824" lon="9.642996288321664"><ele>183.5</ele><time>2026-04-06T16:16:40Z</time></trkpt><trkpt lat="33.58888833979003" lon="9.64260164171624"><ele>184.0</ele><time>2026-04-06T16:16:41Z</time></trkpt><trkpt lat="33.58903323913091" lon="9.642199067772925"><ele>182.5</ele><time>2026-04-06T16:16:42Z</time></trkpt><trkpt lat="33.5891657766539" lon="9.641789704731552"><ele>181.0</ele><time>2026-04-06T16:16:43Z</time></trkpt><trkpt lat="33.58928473988306" lon="9.641377135893807"><ele>182.0</ele><time>2026-04-06T16:16:44Z</time></trkpt><trkpt lat="33.58939577208941" lon="9.640953120637453"><ele>183.0</ele><time>2026-04-06T16:16:45Z</time></trkpt><trkpt lat="33.58949905484549" lon="9.640525118107506"><ele>182.5</ele><time>2026-04-06T16:16:46Z</time></trkpt><trkpt lat="33.58959257983502" lon="9.640091726633976"><ele>182.0</ele><time>2026-04-06T16:16:47Z</time></trkpt><trkpt lat="33.589673373619895" lon="9.639658738280374"><ele>181.0</ele><time>2026-04-06T16:16:48Z</time></trkpt><trkpt lat="33.58973779604245" lon="9.639229799623193"><ele>180.0</ele><time>2026-04-06T16:16:49Z</time></trkpt><trkpt lat="33.58979408100137" lon="9.638789582080246"><ele>180.0</ele><time>2026-04-06T16:16:50Z</time></trkpt><trkpt lat="33.5898385620123" lon="9.638344266320138"><ele>180.0</ele><time>2026-04-06T16:16:51Z</time></trkpt><trkpt lat="33.589873297031026" lon="9.637890894022146"><ele>179.5</ele><time>2026-04-06T16:16:52Z</time></trkpt><trkpt lat="33.58989081767173" lon="9.637434481418902"><ele>179.0</ele><time>2026-04-06T16:16:53Z</time></trkpt><trkpt lat="33.58990179339363" lon="9.636976839943774"><ele>179.0</ele><time>2026-04-06T16:16:54Z</time></trkpt><trkpt lat="33.589915777573616" lon="9.636515048641838"><ele>179.0</ele><time>2026-04-06T16:16:55Z</time></trkpt><trkpt lat="33.58993115007257" lon="9.636055277791362"><ele>179.0</ele><time>2026-04-06T16:16:56Z</time></trkpt><trkpt lat="33.58994737969747" lon="9.635593419646074"><ele>179.0</ele><time>2026-04-06T16:16:57Z</time></trkpt><trkpt lat="33.58996909147389" lon="9.635128965174692"><ele>177.5</ele><time>2026-04-06T16:16:58Z</time></trkpt><trkpt lat="33.58999435433024" lon="9.634662427754117"><ele>176.0</ele><time>2026-04-06T16:16:59Z</time></trkpt><trkpt lat="33.59001655637055" lon="9.634194274729264"><ele>175.5</ele><time>2026-04-06T16:17:00Z</time></trkpt><trkpt lat="33.59004137247828" lon="9.633728558952198"><ele>175.0</ele><time>2026-04-06T16:17:01Z</time></trkpt><trkpt lat="33.59006688511294" lon="9.633264277188463"><ele>173.5</ele><time>2026-04-06T16:17:02Z</time></trkpt><trkpt lat="33.59010032699566" lon="9.632803066542987"><ele>172.0</ele><time>2026-04-06T16:17:03Z</time></trkpt><trkpt lat="33.59013588712857" lon="9.632334643032003"><ele>171.5</ele><time>2026-04-06T16:17:04Z</time></trkpt><trkpt lat="33.59017233124235" lon="9.631863843604831"><ele>171.0</ele><time>2026-04-06T16:17:05Z</time></trkpt><trkpt lat="33.590211063253946" lon="9.631394506029135"><ele>170.5</ele><time>2026-04-06T16:17:06Z</time></trkpt><trkpt lat="33.590249070264164" lon="9.630943841257201"><ele>170.0</ele><time>2026-04-06T16:17:07Z</time></trkpt><trkpt lat="33.5902821905816" lon="9.63050580924766"><ele>170.0</ele><time>2026-04-06T16:17:08Z</time></trkpt><trkpt lat="33.590312746086475" lon="9.63006877506699"><ele>170.0</ele><time>2026-04-06T16:17:09Z</time></trkpt><trkpt lat="33.590342972732955" lon="9.629647830156449"><ele>171.0</ele><time>2026-04-06T16:17:10Z</time></trkpt><trkpt lat="33.590370229589006" lon="9.629253441476317"><ele>172.0</ele><time>2026-04-06T16:17:11Z</time></trkpt><trkpt lat="33.59040085861037" lon="9.628863847725261"><ele>172.5</ele><time>2026-04-06T16:17:12Z</time></trkpt><trkpt lat="33.59043328264071" lon="9.628475439201"><ele>173.0</ele><time>2026-04-06T16:17:13Z</time></trkpt><trkpt lat="33.590463887994225" lon="9.628094774876558"><ele>172.5</ele><time>2026-04-06T16:17:14Z</time></trkpt><trkpt lat="33.590493137082305" lon="9.627718515314795"><ele>172.0</ele><time>2026-04-06T16:17:15Z</time></trkpt><trkpt lat="33.59052227929283" lon="9.627346721630666"><ele>172.0</ele><time>2026-04-06T16:17:16Z</time></trkpt><trkpt lat="33.590551999329705" lon="9.626983651725114"><ele>172.0</ele><time>2026-04-06T16:17:17Z</time></trkpt><trkpt lat="33.590582904534344" lon="9.626618859877167"><ele>170.5</ele><time>2026-04-06T16:17:18Z</time></trkpt><trkpt lat="33.59060985123292" lon="9.626252049973651"><ele>169.0</ele><time>2026-04-06T16:17:19Z</time></trkpt><trkpt lat="33.59063826536532" lon="9.625872714378469"><ele>169.0</ele><time>2026-04-06T16:17:20Z</time></trkpt><trkpt lat="33.590667923469965" lon="9.625484435401152"><ele>169.0</ele><time>2026-04-06T16:17:21Z</time></trkpt><trkpt lat="33.59069622143201" lon="9.62509668730545"><ele>168.5</ele><time>2026-04-06T16:17:22Z</time></trkpt><trkpt lat="33.590722278632335" lon="9.624705884212025"><ele>168.0</ele><time>2026-04-06T16:17:23Z</time></trkpt><trkpt lat="33.59075077353495" lon="9.624314090695798"><ele>168.0</ele><time>2026-04-06T16:17:24Z</time></trkpt><trkpt lat="33.59078421915597" lon="9.623928082853613"><ele>168.0</ele><time>2026-04-06T16:17:25Z</time></trkpt><trkpt lat="33.590821788139415" lon="9.623567896575928"><ele>167.5</ele><time>2026-04-06T16:17:26Z</time></trkpt><trkpt lat="33.59085799258141" lon="9.623228773111212"><ele>167.0</ele><time>2026-04-06T16:17:27Z</time></trkpt><trkpt lat="33.5908917765986" lon="9.622903776281847"><ele>167.5</ele><time>2026-04-06T16:17:28Z</time></trkpt><trkpt lat="33.5909203253235" lon="9.622588367754057"><ele>168.0</ele><time>2026-04-06T16:17:29Z</time></trkpt><trkpt lat="33.59093737264463" lon="9.622273600811944"><ele>168.0</ele><time>2026-04-06T16:17:30Z</time></trkpt><trkpt lat="33.59093242744326" lon="9.621944922806911"><ele>168.0</ele><time>2026-04-06T16:17:31Z</time></trkpt><trkpt lat="33.590902770623266" lon="9.621599678394869"><ele>168.0</ele><time>2026-04-06T16:17:32Z</time></trkpt><trkpt lat="33.59084844718888" lon="9.621233751044514"><ele>168.0</ele><time>2026-04-06T16:17:33Z</time></trkpt><trkpt lat="33.5907861105676" lon="9.62085471183335"><ele>167.5</ele><time>2026-04-06T16:17:34Z</time></trkpt><trkpt lat="33.590731021865146" lon="9.62047329510065"><ele>167.0</ele><time>2026-04-06T16:17:35Z</time></trkpt><trkpt lat="33.59068118832278" lon="9.620089739469844"><ele>166.0</ele><time>2026-04-06T16:17:36Z</time></trkpt><trkpt lat="33.59063641288966" lon="9.619707625079828"><ele>165.0</ele><time>2026-04-06T16:17:37Z</time></trkpt><trkpt lat="33.59059794629397" lon="9.619324990239393"><ele>164.0</ele><time>2026-04-06T16:17:38Z</time></trkpt><trkpt lat="33.59057030049088" lon="9.618942011682675"><ele>163.0</ele><time>2026-04-06T16:17:39Z</time></trkpt><trkpt lat="33.59055376878315" lon="9.618561952334632"><ele>162.5</ele><time>2026-04-06T16:17:40Z</time></trkpt><trkpt lat="33.590546042019994" lon="9.618190391552284"><ele>162.0</ele><time>2026-04-06T16:17:41Z</time></trkpt><trkpt lat="33.59054722543097" lon="9.617828918795809"><ele>161.5</ele><time>2026-04-06T16:17:42Z</time></trkpt><trkpt lat="33.590555390721796" lon="9.617473352192452"><ele>161.0</ele><time>2026-04-06T16:17:43Z</time></trkpt><trkpt lat="33.590568796241755" lon="9.617123908809392"><ele>161.0</ele><time>2026-04-06T16:17:44Z</time></trkpt><trkpt lat="33.59058973342944" lon="9.616777785854113"><ele>161.0</ele><time>2026-04-06T16:17:45Z</time></trkpt><trkpt lat="33.5906212451792" lon="9.616433716250016"><ele>160.5</ele><time>2026-04-06T16:17:46Z</time></trkpt><trkpt lat="33.59066550092009" lon="9.616094069550606"><ele>160.0</ele><time>2026-04-06T16:17:47Z</time></trkpt><trkpt lat="33.590718850281974" lon="9.615768026829125"><ele>160.0</ele><time>2026-04-06T16:17:48Z</time></trkpt><trkpt lat="33.59077560050204" lon="9.615442616560646"><ele>160.0</ele><time>2026-04-06T16:17:49Z</time></trkpt><trkpt lat="33.590836240604446" lon="9.615116158196686"><ele>159.5</ele><time>2026-04-06T16:17:50Z</time></trkpt><trkpt lat="33.590908413036786" lon="9.614794406758255"><ele>159.0</ele><time>2026-04-06T16:17:51Z</time></trkpt><trkpt lat="33.590986787981116" lon="9.614478729442009"><ele>159.0</ele><time>2026-04-06T16:17:52Z</time></trkpt><trkpt lat="33.591059463817565" lon="9.614164262822928"><ele>159.0</ele><time>2026-04-06T16:17:53Z</time></trkpt><trkpt lat="33.59112501940505" lon="9.613846203276205"><ele>160.0</ele><time>2026-04-06T16:17:54Z</time></trkpt><trkpt lat="33.59119735159096" lon="9.61352542276699"><ele>161.0</ele><time>2026-04-06T16:17:55Z</time></trkpt><trkpt lat="33.59127065849974" lon="9.613213968427527"><ele>161.0</ele><time>2026-04-06T16:17:56Z</time></trkpt><trkpt lat="33.591337591032335" lon="9.612897522524724"><ele>161.0</ele><time>2026-04-06T16:17:57Z</time></trkpt><trkpt lat="33.59140715704587" lon="9.612590537547648"><ele>160.5</ele><time>2026-04-06T16:17:58Z</time></trkpt><trkpt lat="33.59148117702372" lon="9.612279861573194"><ele>160.0</ele><time>2026-04-06T16:17:59Z</time></trkpt><trkpt lat="33.591552721101415" lon="9.61196698898105"><ele>159.5</ele><time>2026-04-06T16:18:00Z</time></trkpt><trkpt lat="33.59162229170918" lon="9.611651244598772"><ele>159.0</ele><time>2026-04-06T16:18:01Z</time></trkpt><trkpt lat="33.591686886283554" lon="9.611343425368263"><ele>158.0</ele><time>2026-04-06T16:18:02Z</time></trkpt><trkpt lat="33.59174764885031" lon="9.61103486140924"><ele>157.0</ele><time>2026-04-06T16:18:03Z</time></trkpt><trkpt lat="33.59180068749286" lon="9.61072419971083"><ele>157.0</ele><time>2026-04-06T16:18:04Z</time></trkpt><trkpt lat="33.591848680687306" lon="9.610405097896646"><ele>157.0</ele><time>2026-04-06T16:18:05Z</time></trkpt><trkpt lat="33.591895175323266" lon="9.610082430420269"><ele>157.0</ele><time>2026-04-06T16:18:06Z</time></trkpt><trkpt lat="33.59194114556776" lon="9.609757196139627"><ele>157.0</ele><time>2026-04-06T16:18:07Z</time></trkpt><trkpt lat="33.591977486104895" lon="9.609427987399021"><ele>157.0</ele><time>2026-04-06T16:18:08Z</time></trkpt><trkpt lat="33.59200305648018" lon="9.60909880227414"><ele>157.0</ele><time>2026-04-06T16:18:09Z</time></trkpt><trkpt lat="33.59202002391245" lon="9.60876679235404"><ele>158.0</ele><time>2026-04-06T16:18:10Z</time></trkpt><trkpt lat="33.592030794656296" lon="9.608432337685265"><ele>159.0</ele><time>2026-04-06T16:18:11Z</time></trkpt><trkpt lat="33.592033116839296" lon="9.608096042998746"><ele>159.0</ele><time>2026-04-06T16:18:12Z</time></trkpt><trkpt lat="33.59202943394748" lon="9.60775831816376"><ele>159.0</ele><time>2026-04-06T16:18:13Z</time></trkpt><trkpt lat="33.59202786220612" lon="9.607414582779922"><ele>159.0</ele><time>2026-04-06T16:18:14Z</time></trkpt><trkpt lat="33.592021543961906" lon="9.607070252079213"><ele>159.0</ele><time>2026-04-06T16:18:15Z</time></trkpt><trkpt lat="33.59200960219394" lon="9.606725653433625"><ele>157.5</ele><time>2026-04-06T16:18:16Z</time></trkpt><trkpt lat="33.59200056400933" lon="9.606378695397714"><ele>156.0</ele><time>2026-04-06T16:18:17Z</time></trkpt><trkpt lat="33.59199413834126" lon="9.606031347504622"><ele>156.0</ele><time>2026-04-06T16:18:18Z</time></trkpt><trkpt lat="33.591991746495985" lon="9.605680650870328"><ele>156.0</ele><time>2026-04-06T16:18:19Z</time></trkpt><trkpt lat="33.59198297536317" lon="9.60533121545615"><ele>155.5</ele><time>2026-04-06T16:18:20Z</time></trkpt><trkpt lat="33.59197110424171" lon="9.60498767825283"><ele>155.0</ele><time>2026-04-06T16:18:21Z</time></trkpt><trkpt lat="33.59196690352225" lon="9.604651072141099"><ele>155.0</ele><time>2026-04-06T16:18:22Z</time></trkpt><trkpt lat="33.5919651631474" lon="9.6043086513195"><ele>155.0</ele><time>2026-04-06T16:18:23Z</time></trkpt><trkpt lat="33.591957755787114" lon="9.603957497119755"><ele>156.0</ele><time>2026-04-06T16:18:24Z</time></trkpt><trkpt lat="33.59194952434201" lon="9.603603954162718"><ele>157.0</ele><time>2026-04-06T16:18:25Z</time></trkpt><trkpt lat="33.59194064478916" lon="9.603252532014672"><ele>157.0</ele><time>2026-04-06T16:18:26Z</time></trkpt><trkpt lat="33.59193352782271" lon="9.602908089879376"><ele>157.0</ele><time>2026-04-06T16:18:27Z</time></trkpt><trkpt lat="33.591929208601805" lon="9.602570248678674"><ele>156.0</ele><time>2026-04-06T16:18:28Z</time></trkpt><trkpt lat="33.59192580775031" lon="9.602229674638844"><ele>155.0</ele><time>2026-04-06T16:18:29Z</time></trkpt><trkpt lat="33.59192120504635" lon="9.60188325780606"><ele>154.0</ele><time>2026-04-06T16:18:30Z</time></trkpt><trkpt lat="33.59191403273654" lon="9.601515863414905"><ele>153.0</ele><time>2026-04-06T16:18:31Z</time></trkpt><trkpt lat="33.59190461161159" lon="9.601146000402396"><ele>153.0</ele><time>2026-04-06T16:18:32Z</time></trkpt><trkpt lat="33.59189450558627" lon="9.600773701100143"><ele>153.0</ele><time>2026-04-06T16:18:33Z</time></trkpt><trkpt lat="33.59188745505335" lon="9.600406039338482"><ele>153.0</ele><time>2026-04-06T16:18:34Z</time></trkpt><trkpt lat="33.591883146841816" lon="9.600044815570273"><ele>153.0</ele><time>2026-04-06T16:18:35Z</time></trkpt><trkpt lat="33.59187888006652" lon="9.599679767503451"><ele>152.5</ele><time>2026-04-06T16:18:36Z</time></trkpt><trkpt lat="33.591872230523045" lon="9.599318939856655"><ele>152.0</ele><time>2026-04-06T16:18:37Z</time></trkpt><trkpt lat="33.59186599467557" lon="9.5989564501015"><ele>152.5</ele><time>2026-04-06T16:18:38Z</time></trkpt><trkpt lat="33.59186106411804" lon="9.598592272911082"><ele>153.0</ele><time>2026-04-06T16:18:39Z</time></trkpt><trkpt lat="33.59185781855927" lon="9.598233322916617"><ele>153.0</ele><time>2026-04-06T16:18:40Z</time></trkpt><trkpt lat="33.59185345164999" lon="9.597887606965234"><ele>153.0</ele><time>2026-04-06T16:18:41Z</time></trkpt><trkpt lat="33.591849274742955" lon="9.597542142007056"><ele>152.5</ele><time>2026-04-06T16:18:42Z</time></trkpt><trkpt lat="33.59184421160597" lon="9.597190291909474"><ele>152.0</ele><time>2026-04-06T16:18:43Z</time></trkpt><trkpt lat="33.59183883939897" lon="9.59683575492131"><ele>152.0</ele><time>2026-04-06T16:18:44Z</time></trkpt><trkpt lat="33.5918342469904" lon="9.596485183994536"><ele>152.0</ele><time>2026-04-06T16:18:45Z</time></trkpt><trkpt lat="33.59182947932276" lon="9.596136362988567"><ele>152.5</ele><time>2026-04-06T16:18:46Z</time></trkpt><trkpt lat="33.59182362440094" lon="9.595791810578701"><ele>153.0</ele><time>2026-04-06T16:18:47Z</time></trkpt><trkpt lat="33.591818134946166" lon="9.595454367858412"><ele>152.5</ele><time>2026-04-06T16:18:48.001Z</time></trkpt><trkpt lat="33.59181468866721" lon="9.595130152055033"><ele>152.0</ele><time>2026-04-06T16:18:49.001Z</time></trkpt><trkpt lat="33.59181379935474" lon="9.594822825166547"><ele>152.0</ele><time>2026-04-06T16:18:50.001Z</time></trkpt><trkpt lat="33.59181568132014" lon="9.594528521034732"><ele>152.0</ele><time>2026-04-06T16:18:51.001Z</time></trkpt><trkpt lat="33.591819115885386" lon="9.59423229806387"><ele>151.5</ele><time>2026-04-06T16:18:52.001Z</time></trkpt><trkpt lat="33.59182786398376" lon="9.593933842321391"><ele>151.0</ele><time>2026-04-06T16:18:53.001Z</time></trkpt><trkpt lat="33.59184752745687" lon="9.59363141548679"><ele>150.5</ele><time>2026-04-06T16:18:54.001Z</time></trkpt><trkpt lat="33.591873868258155" lon="9.59332149988006"><ele>150.0</ele><time>2026-04-06T16:18:55.001Z</time></trkpt><trkpt lat="33.591902286622954" lon="9.592997852158287"><ele>150.5</ele><time>2026-04-06T16:18:56.001Z</time></trkpt><trkpt lat="33.59193964651225" lon="9.592664718919584"><ele>151.0</ele><time>2026-04-06T16:18:57.001Z</time></trkpt><trkpt lat="33.59198764288995" lon="9.592328046916354"><ele>151.5</ele><time>2026-04-06T16:18:58.001Z</time></trkpt><trkpt lat="33.592039231307375" lon="9.59198410432235"><ele>152.0</ele><time>2026-04-06T16:18:59.001Z</time></trkpt><trkpt lat="33.592101261552585" lon="9.591633122539248"><ele>152.0</ele><time>2026-04-06T16:19:00.001Z</time></trkpt><trkpt lat="33.59217053103225" lon="9.591282610699354"><ele>152.0</ele><time>2026-04-06T16:19:01.001Z</time></trkpt><trkpt lat="33.59224197477262" lon="9.59091951780768"><ele>151.5</ele><time>2026-04-06T16:19:02.001Z</time></trkpt><trkpt lat="33.592317569289044" lon="9.590550425897986"><ele>151.0</ele><time>2026-04-06T16:19:03.001Z</time></trkpt><trkpt lat="33.59240142063568" lon="9.590188192254649"><ele>151.0</ele><time>2026-04-06T16:19:04.001Z</time></trkpt><trkpt lat="33.59249123246847" lon="9.589823435822506"><ele>151.0</ele><time>2026-04-06T16:19:05.001Z</time></trkpt><trkpt lat="33.59257897478142" lon="9.589461537267036"><ele>150.0</ele><time>2026-04-06T16:19:06.001Z</time></trkpt><trkpt lat="33.59266015812561" lon="9.589095592396953"><ele>149.0</ele><time>2026-04-06T16:19:07.001Z</time></trkpt><trkpt lat="33.592735654645104" lon="9.588731999117229"><ele>149.0</ele><time>2026-04-06T16:19:08.001Z</time></trkpt><trkpt lat="33.5928106646447" lon="9.588379778200455"><ele>149.0</ele><time>2026-04-06T16:19:09.001Z</time></trkpt><trkpt lat="33.592889303414914" lon="9.588033652636753"><ele>149.5</ele><time>2026-04-06T16:19:10.001Z</time></trkpt><trkpt lat="33.59296851816428" lon="9.587700370186324"><ele>150.0</ele><time>2026-04-06T16:19:11.001Z</time></trkpt><trkpt lat="33.59304456955332" lon="9.58736296568684"><ele>150.0</ele><time>2026-04-06T16:19:12.001Z</time></trkpt><trkpt lat="33.59311891160824" lon="9.587031769586396"><ele>150.0</ele><time>2026-04-06T16:19:13.001Z</time></trkpt><trkpt lat="33.59319051512739" lon="9.586708553001941"><ele>150.5</ele><time>2026-04-06T16:19:14.001Z</time></trkpt><trkpt lat="33.59326174047058" lon="9.586393734672845"><ele>151.0</ele><time>2026-04-06T16:19:15.001Z</time></trkpt><trkpt lat="33.59332665803263" lon="9.586087440711578"><ele>151.0</ele><time>2026-04-06T16:19:16.001Z</time></trkpt><trkpt lat="33.593387502478585" lon="9.585782200311678"><ele>151.0</ele><time>2026-04-06T16:19:17.001Z</time></trkpt><trkpt lat="33.59344602189524" lon="9.585466889819932"><ele>152.0</ele><time>2026-04-06T16:19:18.001Z</time></trkpt><trkpt lat="33.59350206160428" lon="9.585147960931085"><ele>153.0</ele><time>2026-04-06T16:19:19.001Z</time></trkpt><trkpt lat="33.59355239772635" lon="9.584829079408669"><ele>153.5</ele><time>2026-04-06T16:19:20.001Z</time></trkpt><trkpt lat="33.59359589516822" lon="9.584503611662951"><ele>154.0</ele><time>2026-04-06T16:19:21.001Z</time></trkpt><trkpt lat="33.59363079319151" lon="9.584163851870752"><ele>154.0</ele><time>2026-04-06T16:19:22.001Z</time></trkpt><trkpt lat="33.59365420818047" lon="9.5838166756383"><ele>154.0</ele><time>2026-04-06T16:19:23.001Z</time></trkpt><trkpt lat="33.59366571998024" lon="9.58346214929332"><ele>153.5</ele><time>2026-04-06T16:19:24.001Z</time></trkpt><trkpt lat="33.59367171191617" lon="9.58310442601262"><ele>153.0</ele><time>2026-04-06T16:19:25.001Z</time></trkpt><trkpt lat="33.593674012385854" lon="9.58274236469504"><ele>152.5</ele><time>2026-04-06T16:19:26.001Z</time></trkpt><trkpt lat="33.59367001335988" lon="9.582381471419897"><ele>152.0</ele><time>2026-04-06T16:19:27.001Z</time></trkpt><trkpt lat="33.593659900497315" lon="9.582015790751429"><ele>151.0</ele><time>2026-04-06T16:19:28.001Z</time></trkpt><trkpt lat="33.593640781032704" lon="9.581645037086536"><ele>150.0</ele><time>2026-04-06T16:19:29.001Z</time></trkpt><trkpt lat="33.59361329057042" lon="9.581275078996024"><ele>150.5</ele><time>2026-04-06T16:19:30.001Z</time></trkpt><trkpt lat="33.59357885267972" lon="9.580904654066925"><ele>151.0</ele><time>2026-04-06T16:19:31.001Z</time></trkpt><trkpt lat="33.59353608493744" lon="9.580532452290337"><ele>151.0</ele><time>2026-04-06T16:19:32.001Z</time></trkpt><trkpt lat="33.59348631119685" lon="9.580180651286478"><ele>151.0</ele><time>2026-04-06T16:19:33.001Z</time></trkpt><trkpt lat="33.59343125269297" lon="9.579825512991254"><ele>150.5</ele><time>2026-04-06T16:19:34.001Z</time></trkpt><trkpt lat="33.59336988417822" lon="9.57948282337775"><ele>150.0</ele><time>2026-04-06T16:19:35.001Z</time></trkpt><trkpt lat="33.593296038281885" lon="9.579140052525569"><ele>150.0</ele><time>2026-04-06T16:19:36.001Z</time></trkpt><trkpt lat="33.59321363374809" lon="9.578797676129652"><ele>150.0</ele><time>2026-04-06T16:19:37.001Z</time></trkpt><trkpt lat="33.593126480837874" lon="9.578456628287295"><ele>150.5</ele><time>2026-04-06T16:19:38.001Z</time></trkpt><trkpt lat="33.59303122320254" lon="9.578116726217901"><ele>151.0</ele><time>2026-04-06T16:19:39.001Z</time></trkpt><trkpt lat="33.59292698431913" lon="9.577776031091586"><ele>150.5</ele><time>2026-04-06T16:19:40.001Z</time></trkpt><trkpt lat="33.59281906760241" lon="9.577440360509698"><ele>150.0</ele><time>2026-04-06T16:19:41.001Z</time></trkpt><trkpt lat="33.592703107693744" lon="9.577103665683385"><ele>150.5</ele><time>2026-04-06T16:19:42.001Z</time></trkpt><trkpt lat="33.592577681197945" lon="9.576776509474858"><ele>151.0</ele><time>2026-04-06T16:19:43.001Z</time></trkpt><trkpt lat="33.592445365048455" lon="9.576458214219612"><ele>150.5</ele><time>2026-04-06T16:19:44.001Z</time></trkpt><trkpt lat="33.592307099148776" lon="9.576138539908383"><ele>150.0</ele><time>2026-04-06T16:19:45.001Z</time></trkpt><trkpt lat="33.592166647063756" lon="9.575822770035819"><ele>150.0</ele><time>2026-04-06T16:19:46.001Z</time></trkpt><trkpt lat="33.59201673014938" lon="9.575511692018528"><ele>150.0</ele><time>2026-04-06T16:19:47.001Z</time></trkpt><trkpt lat="33.59186101960752" lon="9.575209822996602"><ele>150.5</ele><time>2026-04-06T16:19:48.001Z</time></trkpt><trkpt lat="33.5916942541505" lon="9.574913087039961"><ele>151.0</ele><time>2026-04-06T16:19:49.001Z</time></trkpt><trkpt lat="33.591517292715174" lon="9.574615538234134"><ele>151.0</ele><time>2026-04-06T16:19:50.001Z</time></trkpt><trkpt lat="33.59133885379442" lon="9.57432656368688"><ele>151.0</ele><time>2026-04-06T16:19:51.001Z</time></trkpt><trkpt lat="33.591154850163505" lon="9.574037830345166"><ele>151.5</ele><time>2026-04-06T16:19:52.001Z</time></trkpt><trkpt lat="33.59096947056143" lon="9.573756521264112"><ele>152.0</ele><time>2026-04-06T16:19:53.001Z</time></trkpt><trkpt lat="33.590779573617034" lon="9.57347874865474"><ele>152.5</ele><time>2026-04-06T16:19:54.001Z</time></trkpt><trkpt lat="33.590595631797285" lon="9.57320406353906"><ele>153.0</ele><time>2026-04-06T16:19:55.001Z</time></trkpt><trkpt lat="33.59041871923168" lon="9.57293142756098"><ele>152.5</ele><time>2026-04-06T16:19:56.001Z</time></trkpt><trkpt lat="33.59024658905117" lon="9.572664793534917"><ele>152.0</ele><time>2026-04-06T16:19:57.001Z</time></trkpt><trkpt lat="33.59007467364118" lon="9.57240290333997"><ele>152.0</ele><time>2026-04-06T16:19:58.001Z</time></trkpt><trkpt lat="33.589904565086826" lon="9.572145940138872"><ele>152.0</ele><time>2026-04-06T16:19:59.001Z</time></trkpt><trkpt lat="33.589735430846076" lon="9.5718961018003"><ele>151.5</ele><time>2026-04-06T16:20:00.001Z</time></trkpt><trkpt lat="33.589567387909604" lon="9.571647895711198"><ele>151.0</ele><time>2026-04-06T16:20:01.001Z</time></trkpt><trkpt lat="33.58940224442038" lon="9.571398844794338"><ele>150.0</ele><time>2026-04-06T16:20:02.001Z</time></trkpt><trkpt lat="33.58923450621377" lon="9.571144628320734"><ele>149.0</ele><time>2026-04-06T16:20:03.001Z</time></trkpt><trkpt lat="33.589066423769665" lon="9.570886723431338"><ele>149.0</ele><time>2026-04-06T16:20:04.001Z</time></trkpt><trkpt lat="33.58889597597767" lon="9.570624800579479"><ele>149.0</ele><time>2026-04-06T16:20:05.001Z</time></trkpt><trkpt lat="33.58871379065537" lon="9.570353568151734"><ele>150.5</ele><time>2026-04-06T16:20:06.001Z</time></trkpt><trkpt lat="33.58852170493449" lon="9.570075452899326"><ele>152.0</ele><time>2026-04-06T16:20:07.001Z</time></trkpt><trkpt lat="33.58833099009929" lon="9.569799477865432"><ele>152.0</ele><time>2026-04-06T16:20:08.001Z</time></trkpt><trkpt lat="33.58814728104665" lon="9.569530192498485"><ele>152.0</ele><time>2026-04-06T16:20:09.001Z</time></trkpt><trkpt lat="33.587965732197425" lon="9.569266069964367"><ele>153.5</ele><time>2026-04-06T16:20:10.001Z</time></trkpt><trkpt lat="33.58778529420968" lon="9.569007048330972"><ele>155.0</ele><time>2026-04-06T16:20:11.001Z</time></trkpt><trkpt lat="33.58761363379631" lon="9.568755603428553"><ele>154.0</ele><time>2026-04-06T16:20:12.001Z</time></trkpt><trkpt lat="33.587450690379576" lon="9.56851341221934"><ele>153.0</ele><time>2026-04-06T16:20:13.001Z</time></trkpt><trkpt lat="33.587291831121966" lon="9.568274578428483"><ele>153.0</ele><time>2026-04-06T16:20:14.001Z</time></trkpt><trkpt lat="33.58713360074369" lon="9.568037982273289"><ele>153.0</ele><time>2026-04-06T16:20:15.001Z</time></trkpt><trkpt lat="33.586975057969326" lon="9.567806085478217"><ele>154.5</ele><time>2026-04-06T16:20:16.001Z</time></trkpt><trkpt lat="33.586810695739025" lon="9.567569172886692"><ele>156.0</ele><time>2026-04-06T16:20:17.001Z</time></trkpt><trkpt lat="33.586648056535545" lon="9.567326246978432"><ele>156.0</ele><time>2026-04-06T16:20:18.001Z</time></trkpt><trkpt lat="33.5864829117319" lon="9.567070640694649"><ele>156.0</ele><time>2026-04-06T16:20:19.001Z</time></trkpt><trkpt lat="33.586319471814946" lon="9.566807455663367"><ele>157.5</ele><time>2026-04-06T16:20:20.001Z</time></trkpt><trkpt lat="33.586159893860255" lon="9.566543486961372"><ele>159.0</ele><time>2026-04-06T16:20:21.001Z</time></trkpt><trkpt lat="33.58600306947413" lon="9.566275712073613"><ele>158.0</ele><time>2026-04-06T16:20:22.001Z</time></trkpt><trkpt lat="33.58585016394984" lon="9.56601468464588"><ele>157.0</ele><time>2026-04-06T16:20:23.001Z</time></trkpt><trkpt lat="33.58569808366145" lon="9.56575625718853"><ele>157.0</ele><time>2026-04-06T16:20:24.001Z</time></trkpt><trkpt lat="33.58554822373246" lon="9.565502021736496"><ele>157.0</ele><time>2026-04-06T16:20:25.001Z</time></trkpt><trkpt lat="33.58539693821183" lon="9.565247864469372"><ele>157.5</ele><time>2026-04-06T16:20:26.001Z</time></trkpt><trkpt lat="33.58524478672401" lon="9.564998453955404"><ele>158.0</ele><time>2026-04-06T16:20:27.001Z</time></trkpt><trkpt lat="33.58509235543877" lon="9.56474952252133"><ele>159.0</ele><time>2026-04-06T16:20:28.001Z</time></trkpt><trkpt lat="33.58493989249431" lon="9.56449921662686"><ele>160.0</ele><time>2026-04-06T16:20:29.001Z</time></trkpt><trkpt lat="33.58478081890437" lon="9.564245444406545"><ele>160.0</ele><time>2026-04-06T16:20:30.001Z</time></trkpt><trkpt lat="33.58461402569175" lon="9.563986477605296"><ele>160.0</ele><time>2026-04-06T16:20:31.001Z</time></trkpt><trkpt lat="33.584440659203395" lon="9.563721609455468"><ele>159.5</ele><time>2026-04-06T16:20:32.001Z</time></trkpt><trkpt lat="33.584262328880335" lon="9.563450040913077"><ele>159.0</ele><time>2026-04-06T16:20:33.001Z</time></trkpt><trkpt lat="33.58408093758317" lon="9.563171196076615"><ele>159.0</ele><time>2026-04-06T16:20:34.001Z</time></trkpt><trkpt lat="33.58389747209219" lon="9.562888411902044"><ele>159.0</ele><time>2026-04-06T16:20:35.001Z</time></trkpt><trkpt lat="33.583710179230565" lon="9.562602355100875"><ele>157.0</ele><time>2026-04-06T16:20:36.001Z</time></trkpt><trkpt lat="33.58351935829707" lon="9.562315108651129"><ele>155.0</ele><time>2026-04-06T16:20:37.001Z</time></trkpt><trkpt lat="33.583327662628555" lon="9.56203062698796"><ele>154.5</ele><time>2026-04-06T16:20:38.001Z</time></trkpt><trkpt lat="33.58314230619564" lon="9.561750761975238"><ele>154.0</ele><time>2026-04-06T16:20:39.001Z</time></trkpt><trkpt lat="33.58295547739264" lon="9.561470651694199"><ele>153.0</ele><time>2026-04-06T16:20:40.001Z</time></trkpt><trkpt lat="33.58276558266605" lon="9.561188439350369"><ele>152.0</ele><time>2026-04-06T16:20:41.001Z</time></trkpt><trkpt lat="33.58257418656223" lon="9.560902583974945"><ele>152.0</ele><time>2026-04-06T16:20:42.001Z</time></trkpt><trkpt lat="33.58238412018076" lon="9.560616937292721"><ele>152.0</ele><time>2026-04-06T16:20:43.001Z</time></trkpt><trkpt lat="33.58219476174085" lon="9.560329129161792"><ele>152.0</ele><time>2026-04-06T16:20:44.001Z</time></trkpt><trkpt lat="33.58200727373208" lon="9.560041242249632"><ele>152.0</ele><time>2026-04-06T16:20:45.001Z</time></trkpt><trkpt lat="33.58182003902564" lon="9.559754859605583"><ele>151.5</ele><time>2026-04-06T16:20:46.001Z</time></trkpt><trkpt lat="33.58162919338553" lon="9.559468825587631"><ele>151.0</ele><time>2026-04-06T16:20:47.001Z</time></trkpt><trkpt lat="33.581439093967354" lon="9.559184954640912"><ele>151.0</ele><time>2026-04-06T16:20:48.001Z</time></trkpt><trkpt lat="33.581248332423904" lon="9.558900310357956"><ele>151.0</ele><time>2026-04-06T16:20:49.001Z</time></trkpt><trkpt lat="33.58105678451171" lon="9.558616780983856"><ele>151.0</ele><time>2026-04-06T16:20:50.001Z</time></trkpt><trkpt lat="33.58086968344374" lon="9.5583364181323"><ele>151.0</ele><time>2026-04-06T16:20:51.001Z</time></trkpt><trkpt lat="33.58068823412026" lon="9.558059203119344"><ele>150.5</ele><time>2026-04-06T16:20:52.001Z</time></trkpt><trkpt lat="33.58050432668847" lon="9.55778190555048"><ele>150.0</ele><time>2026-04-06T16:20:53.001Z</time></trkpt><trkpt lat="33.58032015741298" lon="9.557504511908096"><ele>150.0</ele><time>2026-04-06T16:20:54.001Z</time></trkpt><trkpt lat="33.58013917772365" lon="9.557228865361195"><ele>150.0</ele><time>2026-04-06T16:20:55.001Z</time></trkpt><trkpt lat="33.57995622472964" lon="9.556948182859346"><ele>150.0</ele><time>2026-04-06T16:20:56.001Z</time></trkpt><trkpt lat="33.579774835060284" lon="9.556668235134513"><ele>150.0</ele><time>2026-04-06T16:20:57.001Z</time></trkpt><trkpt lat="33.57959216456557" lon="9.556387742145628"><ele>149.5</ele><time>2026-04-06T16:20:58.001Z</time></trkpt><trkpt lat="33.57940909521303" lon="9.556108024355611"><ele>149.0</ele><time>2026-04-06T16:20:59.001Z</time></trkpt><trkpt lat="33.57922331813602" lon="9.555825819569604"><ele>149.0</ele><time>2026-04-06T16:21:00.001Z</time></trkpt><trkpt lat="33.579040426110936" lon="9.555546646845414"><ele>149.0</ele><time>2026-04-06T16:21:01.001Z</time></trkpt><trkpt lat="33.57885583263053" lon="9.555264542704133"><ele>149.5</ele><time>2026-04-06T16:21:02.001Z</time></trkpt><trkpt lat="33.57867388334175" lon="9.554986522406784"><ele>150.0</ele><time>2026-04-06T16:21:03.001Z</time></trkpt><trkpt lat="33.578489131295676" lon="9.554708081456198"><ele>149.0</ele><time>2026-04-06T16:21:04.001Z</time></trkpt><trkpt lat="33.5783010347724" lon="9.554432583485708"><ele>148.0</ele><time>2026-04-06T16:21:05.001Z</time></trkpt><trkpt lat="33.57811218000808" lon="9.55415732862568"><ele>148.0</ele><time>2026-04-06T16:21:06.001Z</time></trkpt><trkpt lat="33.57792722506558" lon="9.553881185174616"><ele>148.0</ele><time>2026-04-06T16:21:07.001Z</time></trkpt><trkpt lat="33.57774232941447" lon="9.55360317427072"><ele>150.0</ele><time>2026-04-06T16:21:08.001Z</time></trkpt><trkpt lat="33.577560457088616" lon="9.553324587148701"><ele>152.0</ele><time>2026-04-06T16:21:09.001Z</time></trkpt><trkpt lat="33.5773758113329" lon="9.55304533224105"><ele>152.5</ele><time>2026-04-06T16:21:10.001Z</time></trkpt><trkpt lat="33.577192979352134" lon="9.552768410485573"><ele>153.0</ele><time>2026-04-06T16:21:11.001Z</time></trkpt><trkpt lat="33.57701106659339" lon="9.552491258691944"><ele>153.0</ele><time>2026-04-06T16:21:12.001Z</time></trkpt><trkpt lat="33.57682997678812" lon="9.55221756287475"><ele>153.0</ele><time>2026-04-06T16:21:13.001Z</time></trkpt><trkpt lat="33.576648705931476" lon="9.551945313619997"><ele>153.0</ele><time>2026-04-06T16:21:14.001Z</time></trkpt><trkpt lat="33.57647024429392" lon="9.551679285429877"><ele>153.0</ele><time>2026-04-06T16:21:15.001Z</time></trkpt><trkpt lat="33.57629138838589" lon="9.551411619545574"><ele>153.5</ele><time>2026-04-06T16:21:16.001Z</time></trkpt><trkpt lat="33.57611501202385" lon="9.551142397501794"><ele>154.0</ele><time>2026-04-06T16:21:17.001Z</time></trkpt><trkpt lat="33.57594152847288" lon="9.550877340758543"><ele>154.0</ele><time>2026-04-06T16:21:18.001Z</time></trkpt><trkpt lat="33.57576563295398" lon="9.55061256935271"><ele>154.0</ele><time>2026-04-06T16:21:19.001Z</time></trkpt><trkpt lat="33.57558826801002" lon="9.55035050055226"><ele>154.0</ele><time>2026-04-06T16:21:20.001Z</time></trkpt><trkpt lat="33.575407450648584" lon="9.55008828747346"><ele>154.0</ele><time>2026-04-06T16:21:21.001Z</time></trkpt><trkpt lat="33.57522683349327" lon="9.54982542316623"><ele>154.0</ele><time>2026-04-06T16:21:22.001Z</time></trkpt><trkpt lat="33.575048745139235" lon="9.549561163107171"><ele>154.0</ele><time>2026-04-06T16:21:23.001Z</time></trkpt><trkpt lat="33.57487602717364" lon="9.549296337946476"><ele>154.0</ele><time>2026-04-06T16:21:24.001Z</time></trkpt><trkpt lat="33.57470805902396" lon="9.549037797252325"><ele>154.0</ele><time>2026-04-06T16:21:25.001Z</time></trkpt><trkpt lat="33.57454338345568" lon="9.548783979150015"><ele>153.5</ele><time>2026-04-06T16:21:26.001Z</time></trkpt><trkpt lat="33.574376837431565" lon="9.548531361316002"><ele>153.0</ele><time>2026-04-06T16:21:27.001Z</time></trkpt><trkpt lat="33.57420675913152" lon="9.548282990627609"><ele>153.0</ele><time>2026-04-06T16:21:28.001Z</time></trkpt><trkpt lat="33.57403246120954" lon="9.548035530051521"><ele>153.0</ele><time>2026-04-06T16:21:29.001Z</time></trkpt><trkpt lat="33.57386105900922" lon="9.547783595856062"><ele>151.5</ele><time>2026-04-06T16:21:30.001Z</time></trkpt><trkpt lat="33.573691675794805" lon="9.547524476713232"><ele>150.0</ele><time>2026-04-06T16:21:31.001Z</time></trkpt><trkpt lat="33.57352278201963" lon="9.54726339898284"><ele>148.5</ele><time>2026-04-06T16:21:32.001Z</time></trkpt><trkpt lat="33.573351425543116" lon="9.547004038199084"><ele>147.0</ele><time>2026-04-06T16:21:33.001Z</time></trkpt><trkpt lat="33.57317893998655" lon="9.54674316361016"><ele>147.0</ele><time>2026-04-06T16:21:34.001Z</time></trkpt><trkpt lat="33.57300823011306" lon="9.546485613049686"><ele>147.0</ele><time>2026-04-06T16:21:35.001Z</time></trkpt><trkpt lat="33.57283675404961" lon="9.546227667441576"><ele>147.0</ele><time>2026-04-06T16:21:36.001Z</time></trkpt><trkpt lat="33.57266469328305" lon="9.54597303140656"><ele>147.0</ele><time>2026-04-06T16:21:37.001Z</time></trkpt><trkpt lat="33.57249426796321" lon="9.545719372263477"><ele>147.0</ele><time>2026-04-06T16:21:38.001Z</time></trkpt><trkpt lat="33.57232355896778" lon="9.545458639854287"><ele>147.0</ele><time>2026-04-06T16:21:39.001Z</time></trkpt><trkpt lat="33.57215166355073" lon="9.545195693594954"><ele>147.0</ele><time>2026-04-06T16:21:40.001Z</time></trkpt><trkpt lat="33.571976989569116" lon="9.544933804469812"><ele>147.0</ele><time>2026-04-06T16:21:41.001Z</time></trkpt><trkpt lat="33.571802305757856" lon="9.544672483031563"><ele>146.5</ele><time>2026-04-06T16:21:42.001Z</time></trkpt><trkpt lat="33.57162560174152" lon="9.544408349117763"><ele>146.0</ele><time>2026-04-06T16:21:43.001Z</time></trkpt><trkpt lat="33.571442899551684" lon="9.5441433630151"><ele>146.0</ele><time>2026-04-06T16:21:44.001Z</time></trkpt><trkpt lat="33.57125416130005" lon="9.543883615487527"><ele>146.0</ele><time>2026-04-06T16:21:45.001Z</time></trkpt><trkpt lat="33.571055566604265" lon="9.543629150713404"><ele>144.0</ele><time>2026-04-06T16:21:46.001Z</time></trkpt><trkpt lat="33.570846798645434" lon="9.543379767282406"><ele>142.0</ele><time>2026-04-06T16:21:47.001Z</time></trkpt><trkpt lat="33.57063243215327" lon="9.543136794318595"><ele>142.0</ele><time>2026-04-06T16:21:48.001Z</time></trkpt><trkpt lat="33.570411324910935" lon="9.542895916006682"><ele>142.0</ele><time>2026-04-06T16:21:49.001Z</time></trkpt><trkpt lat="33.57019009671043" lon="9.542667060717017"><ele>141.5</ele><time>2026-04-06T16:21:50.001Z</time></trkpt><trkpt lat="33.56996337202796" lon="9.542443126076753"><ele>141.0</ele><time>2026-04-06T16:21:51.001Z</time></trkpt><trkpt lat="33.56973147587803" lon="9.542226989739895"><ele>141.0</ele><time>2026-04-06T16:21:52.001Z</time></trkpt><trkpt lat="33.56949438381544" lon="9.542022066757232"><ele>141.0</ele><time>2026-04-06T16:21:53.001Z</time></trkpt><trkpt lat="33.5692532333854" lon="9.541824003989642"><ele>141.0</ele><time>2026-04-06T16:21:54.001Z</time></trkpt><trkpt lat="33.56900528793243" lon="9.541630292269575"><ele>141.0</ele><time>2026-04-06T16:21:55.001Z</time></trkpt><trkpt lat="33.5687533942325" lon="9.541444835150656"><ele>141.5</ele><time>2026-04-06T16:21:56.001Z</time></trkpt><trkpt lat="33.568496524707896" lon="9.541273372350433"><ele>142.0</ele><time>2026-04-06T16:21:57.001Z</time></trkpt><trkpt lat="33.56823629263055" lon="9.541107528959675"><ele>142.0</ele><time>2026-04-06T16:21:58.001Z</time></trkpt><trkpt lat="33.56797040727464" lon="9.54094432849732"><ele>142.0</ele><time>2026-04-06T16:21:59.001Z</time></trkpt><trkpt lat="33.56770619980886" lon="9.540787130680151"><ele>142.0</ele><time>2026-04-06T16:22:00.001Z</time></trkpt><trkpt lat="33.56743601282472" lon="9.540640568549838"><ele>142.0</ele><time>2026-04-06T16:22:01.001Z</time></trkpt><trkpt lat="33.56716229567168" lon="9.540507290380907"><ele>142.5</ele><time>2026-04-06T16:22:02.001Z</time></trkpt><trkpt lat="33.5668832516295" lon="9.54038568381379"><ele>143.0</ele><time>2026-04-06T16:22:03.001Z</time></trkpt><trkpt lat="33.566602400048716" lon="9.540273263195932"><ele>143.0</ele><time>2026-04-06T16:22:04.001Z</time></trkpt><trkpt lat="33.56632131879315" lon="9.540158643994648"><ele>143.0</ele><time>2026-04-06T16:22:05.001Z</time></trkpt><trkpt lat="33.56604009192179" lon="9.54004693887513"><ele>142.0</ele><time>2026-04-06T16:22:06.001Z</time></trkpt><trkpt lat="33.565758732441964" lon="9.539940055412883"><ele>141.0</ele><time>2026-04-06T16:22:07.001Z</time></trkpt><trkpt lat="33.56547679599847" lon="9.539833730835142"><ele>140.0</ele><time>2026-04-06T16:22:08.001Z</time></trkpt><trkpt lat="33.5651980885377" lon="9.539722257659458"><ele>139.0</ele><time>2026-04-06T16:22:09.001Z</time></trkpt><trkpt lat="33.564917744006515" lon="9.539610337294535"><ele>139.0</ele><time>2026-04-06T16:22:10.001Z</time></trkpt><trkpt lat="33.56463892104321" lon="9.539497664118167"><ele>139.0</ele><time>2026-04-06T16:22:11.001Z</time></trkpt><trkpt lat="33.56435686303934" lon="9.539381252807038"><ele>139.5</ele><time>2026-04-06T16:22:12.001Z</time></trkpt><trkpt lat="33.56407939721804" lon="9.539256404852395"><ele>140.0</ele><time>2026-04-06T16:22:13.001Z</time></trkpt><trkpt lat="33.56380462184728" lon="9.539124328151635"><ele>141.0</ele><time>2026-04-06T16:22:14.001Z</time></trkpt><trkpt lat="33.563536623198125" lon="9.538979714492317"><ele>142.0</ele><time>2026-04-06T16:22:15.001Z</time></trkpt><trkpt lat="33.5632721448443" lon="9.538821906680777"><ele>141.5</ele><time>2026-04-06T16:22:16.001Z</time></trkpt><trkpt lat="33.563010477491645" lon="9.538663343710503"><ele>141.0</ele><time>2026-04-06T16:22:17.001Z</time></trkpt><trkpt lat="33.56274395161984" lon="9.538510786634903"><ele>141.0</ele><time>2026-04-06T16:22:18.001Z</time></trkpt><trkpt lat="33.56247614387454" lon="9.53836239877636"><ele>141.0</ele><time>2026-04-06T16:22:19.001Z</time></trkpt><trkpt lat="33.562207097260575" lon="9.538216564467843"><ele>140.5</ele><time>2026-04-06T16:22:20.001Z</time></trkpt><trkpt lat="33.561937622543084" lon="9.538075317051922"><ele>140.0</ele><time>2026-04-06T16:22:21.001Z</time></trkpt><trkpt lat="33.561663612080025" lon="9.537933488309262"><ele>140.5</ele><time>2026-04-06T16:22:22.001Z</time></trkpt><trkpt lat="33.56139279764742" lon="9.537799632926276"><ele>141.0</ele><time>2026-04-06T16:22:23.001Z</time></trkpt><trkpt lat="33.56111523546445" lon="9.537675663045292"><ele>141.0</ele><time>2026-04-06T16:22:24.001Z</time></trkpt><trkpt lat="33.560831747736344" lon="9.537568586018766"><ele>141.0</ele><time>2026-04-06T16:22:25.001Z</time></trkpt><trkpt lat="33.5605464173552" lon="9.537479859589995"><ele>141.0</ele><time>2026-04-06T16:22:26.001Z</time></trkpt><trkpt lat="33.56025894565639" lon="9.53739539688415"><ele>141.0</ele><time>2026-04-06T16:22:27.001Z</time></trkpt><trkpt lat="33.559970398326946" lon="9.537314970913105"><ele>141.0</ele><time>2026-04-06T16:22:28.001Z</time></trkpt><trkpt lat="33.559679501976774" lon="9.537246781492762"><ele>141.0</ele><time>2026-04-06T16:22:29.001Z</time></trkpt><trkpt lat="33.559385179417774" lon="9.537189550234705"><ele>141.0</ele><time>2026-04-06T16:22:30.001Z</time></trkpt><trkpt lat="33.55908614135097" lon="9.53713829255947"><ele>141.0</ele><time>2026-04-06T16:22:31.001Z</time></trkpt><trkpt lat="33.5587857530928" lon="9.537093174453137"><ele>141.0</ele><time>2026-04-06T16:22:32.001Z</time></trkpt><trkpt lat="33.558482007741645" lon="9.537061555659822"><ele>141.0</ele><time>2026-04-06T16:22:33.001Z</time></trkpt><trkpt lat="33.558180973292" lon="9.537043199325861"><ele>141.0</ele><time>2026-04-06T16:22:34.001Z</time></trkpt><trkpt lat="33.55787921220128" lon="9.53702978627377"><ele>141.0</ele><time>2026-04-06T16:22:35.001Z</time></trkpt><trkpt lat="33.55757643384342" lon="9.537017667671028"><ele>140.5</ele><time>2026-04-06T16:22:36.001Z</time></trkpt><trkpt lat="33.55728196469145" lon="9.537003749992067"><ele>140.0</ele><time>2026-04-06T16:22:37.001Z</time></trkpt><trkpt lat="33.55698926076037" lon="9.536988931367535"><ele>140.0</ele><time>2026-04-06T16:22:38.001Z</time></trkpt><trkpt lat="33.556698238264154" lon="9.536967877602734"><ele>140.0</ele><time>2026-04-06T16:22:39.001Z</time></trkpt><trkpt lat="33.556405337724485" lon="9.536938591399215"><ele>138.5</ele><time>2026-04-06T16:22:40.001Z</time></trkpt><trkpt lat="33.556113462961974" lon="9.536902470536692"><ele>137.0</ele><time>2026-04-06T16:22:41.001Z</time></trkpt><trkpt lat="33.55582307405472" lon="9.536854573667876"><ele>137.0</ele><time>2026-04-06T16:22:42.001Z</time></trkpt><trkpt lat="33.555533360780636" lon="9.536794190195527"><ele>137.0</ele><time>2026-04-06T16:22:43.001Z</time></trkpt><trkpt lat="33.55524488344115" lon="9.536725309054933"><ele>135.0</ele><time>2026-04-06T16:22:44.001Z</time></trkpt><trkpt lat="33.55495710988739" lon="9.536649571265977"><ele>133.0</ele><time>2026-04-06T16:22:45.001Z</time></trkpt><trkpt lat="33.5546702122909" lon="9.536569124754742"><ele>133.5</ele><time>2026-04-06T16:22:46.001Z</time></trkpt><trkpt lat="33.554381989219955" lon="9.536477173400337"><ele>134.0</ele><time>2026-04-06T16:22:47.001Z</time></trkpt><trkpt lat="33.55409284819923" lon="9.536375488303923"><ele>134.0</ele><time>2026-04-06T16:22:48.001Z</time></trkpt><trkpt lat="33.55380166356739" lon="9.536267250228168"><ele>134.0</ele><time>2026-04-06T16:22:49.001Z</time></trkpt><trkpt lat="33.55351313893765" lon="9.536159620978225"><ele>134.5</ele><time>2026-04-06T16:22:50.001Z</time></trkpt><trkpt lat="33.55322708669967" lon="9.536048272127362"><ele>135.0</ele><time>2026-04-06T16:22:51.001Z</time></trkpt><trkpt lat="33.55293997110787" lon="9.535941004894052"><ele>136.5</ele><time>2026-04-06T16:22:52.001Z</time></trkpt><trkpt lat="33.552649184465906" lon="9.535848114814403"><ele>138.0</ele><time>2026-04-06T16:22:53.001Z</time></trkpt><trkpt lat="33.55235397180774" lon="9.535780057970475"><ele>138.0</ele><time>2026-04-06T16:22:54.001Z</time></trkpt><trkpt lat="33.55205005567887" lon="9.53573602469309"><ele>138.0</ele><time>2026-04-06T16:22:55.001Z</time></trkpt><trkpt lat="33.55173896686381" lon="9.5357184139341"><ele>138.0</ele><time>2026-04-06T16:22:56.001Z</time></trkpt><trkpt lat="33.55142701889029" lon="9.535719410182736"><ele>138.0</ele><time>2026-04-06T16:22:57.001Z</time></trkpt><trkpt lat="33.55111406213372" lon="9.53571537013885"><ele>138.0</ele><time>2026-04-06T16:22:58.001Z</time></trkpt><trkpt lat="33.550803305073146" lon="9.535706293656581"><ele>138.0</ele><time>2026-04-06T16:22:59.001Z</time></trkpt><trkpt lat="33.55049333169239" lon="9.53569260835354"><ele>136.5</ele><time>2026-04-06T16:23:00.001Z</time></trkpt><trkpt lat="33.55017927785564" lon="9.535675661250426"><ele>135.0</ele><time>2026-04-06T16:23:01.001Z</time></trkpt><trkpt lat="33.54985989572272" lon="9.535657441773166"><ele>135.0</ele><time>2026-04-06T16:23:02.001Z</time></trkpt><trkpt lat="33.549540301013685" lon="9.53564274531013"><ele>135.0</ele><time>2026-04-06T16:23:03.001Z</time></trkpt><trkpt lat="33.54921780593807" lon="9.535630056967527"><ele>135.0</ele><time>2026-04-06T16:23:04.001Z</time></trkpt><trkpt lat="33.54889672742539" lon="9.535617015219682"><ele>135.0</ele><time>2026-04-06T16:23:05.001Z</time></trkpt><trkpt lat="33.548576664930955" lon="9.535594736862585"><ele>135.0</ele><time>2026-04-06T16:23:06.001Z</time></trkpt><trkpt lat="33.54825681938055" lon="9.535559022685309"><ele>135.0</ele><time>2026-04-06T16:23:07.001Z</time></trkpt><trkpt lat="33.5479334027885" lon="9.53551566398341"><ele>135.0</ele><time>2026-04-06T16:23:08.001Z</time></trkpt><trkpt lat="33.54761202713482" lon="9.535468426665496"><ele>135.0</ele><time>2026-04-06T16:23:09.001Z</time></trkpt><trkpt lat="33.54729202490817" lon="9.535411619881438"><ele>134.5</ele><time>2026-04-06T16:23:10.001Z</time></trkpt><trkpt lat="33.54697914962334" lon="9.535339396886377"><ele>134.0</ele><time>2026-04-06T16:23:11.001Z</time></trkpt><trkpt lat="33.546667763654185" lon="9.535259459603925"><ele>134.0</ele><time>2026-04-06T16:23:12.001Z</time></trkpt><trkpt lat="33.54635901362511" lon="9.535169926267029"><ele>134.0</ele><time>2026-04-06T16:23:13.001Z</time></trkpt><trkpt lat="33.54605745013569" lon="9.535071627112567"><ele>134.5</ele><time>2026-04-06T16:23:14.001Z</time></trkpt><trkpt lat="33.54576055101437" lon="9.534964517670932"><ele>135.0</ele><time>2026-04-06T16:23:15.001Z</time></trkpt><trkpt lat="33.54546849780001" lon="9.53485227469587"><ele>135.5</ele><time>2026-04-06T16:23:16.001Z</time></trkpt><trkpt lat="33.54517951016487" lon="9.534734921031891"><ele>136.0</ele><time>2026-04-06T16:23:17.001Z</time></trkpt><trkpt lat="33.544897488208136" lon="9.53460667033566"><ele>136.0</ele><time>2026-04-06T16:23:18.001Z</time></trkpt><trkpt lat="33.54462105457621" lon="9.534470307617935"><ele>136.0</ele><time>2026-04-06T16:23:19.001Z</time></trkpt><trkpt lat="33.54435331960946" lon="9.53432501649735"><ele>136.5</ele><time>2026-04-06T16:23:20.001Z</time></trkpt><trkpt lat="33.54410967328499" lon="9.534178393232455"><ele>137.0</ele><time>2026-04-06T16:23:21.001Z</time></trkpt><trkpt lat="33.54386171447759" lon="9.534022865175293"><ele>137.5</ele><time>2026-04-06T16:23:22.001Z</time></trkpt><trkpt lat="33.54361355614977" lon="9.533865452278631"><ele>138.0</ele><time>2026-04-06T16:23:23.001Z</time></trkpt><trkpt lat="33.543369051224154" lon="9.533697998170064"><ele>138.0</ele><time>2026-04-06T16:23:24.001Z</time></trkpt><trkpt lat="33.54312824082543" lon="9.533524484681397"><ele>138.0</ele><time>2026-04-06T16:23:25.001Z</time></trkpt><trkpt lat="33.542887648821285" lon="9.533341280326201"><ele>140.0</ele><time>2026-04-06T16:23:26.001Z</time></trkpt><trkpt lat="33.542648443154874" lon="9.53315285967431"><ele>142.0</ele><time>2026-04-06T16:23:27.001Z</time></trkpt><trkpt lat="33.54241383824051" lon="9.532953833536666"><ele>141.5</ele><time>2026-04-06T16:23:28.001Z</time></trkpt><trkpt lat="33.542183374373565" lon="9.532742799670775"><ele>141.0</ele><time>2026-04-06T16:23:29.001Z</time></trkpt><trkpt lat="33.541962921352585" lon="9.532527391908566"><ele>141.0</ele><time>2026-04-06T16:23:30.001Z</time></trkpt><trkpt lat="33.541746641808274" lon="9.53231460821376"><ele>141.0</ele><time>2026-04-06T16:23:31.001Z</time></trkpt><trkpt lat="33.54153216484719" lon="9.53209644528319"><ele>141.5</ele><time>2026-04-06T16:23:32.001Z</time></trkpt><trkpt lat="33.5413233421982" lon="9.531873011178586"><ele>142.0</ele><time>2026-04-06T16:23:33.001Z</time></trkpt><trkpt lat="33.54111729788315" lon="9.53163877171286"><ele>142.0</ele><time>2026-04-06T16:23:34.001Z</time></trkpt><trkpt lat="33.54091427990193" lon="9.531398183440754"><ele>142.0</ele><time>2026-04-06T16:23:35.001Z</time></trkpt><trkpt lat="33.54072009378317" lon="9.531156751411439"><ele>142.0</ele><time>2026-04-06T16:23:36.001Z</time></trkpt><trkpt lat="33.540527915730344" lon="9.530906313456976"><ele>142.0</ele><time>2026-04-06T16:23:37.001Z</time></trkpt><trkpt lat="33.54034517250765" lon="9.530653178842089"><ele>142.5</ele><time>2026-04-06T16:23:38.001Z</time></trkpt><trkpt lat="33.54016799243708" lon="9.530397703041002"><ele>143.0</ele><time>2026-04-06T16:23:39.001Z</time></trkpt><trkpt lat="33.539998640332776" lon="9.530146990820407"><ele>143.0</ele><time>2026-04-06T16:23:40.001Z</time></trkpt><trkpt lat="33.53983951470929" lon="9.529896811188065"><ele>143.0</ele><time>2026-04-06T16:23:41.001Z</time></trkpt><trkpt lat="33.53968937297564" lon="9.52964192931766"><ele>144.5</ele><time>2026-04-06T16:23:42.001Z</time></trkpt><trkpt lat="33.53954441256568" lon="9.529380045909857"><ele>146.0</ele><time>2026-04-06T16:23:43.001Z</time></trkpt><trkpt lat="33.539403525887856" lon="9.529110901849657"><ele>146.0</ele><time>2026-04-06T16:23:44.001Z</time></trkpt><trkpt lat="33.53926806751931" lon="9.528836706691072"><ele>146.0</ele><time>2026-04-06T16:23:45.001Z</time></trkpt><trkpt lat="33.53913394144211" lon="9.528561448803398"><ele>146.0</ele><time>2026-04-06T16:23:46.001Z</time></trkpt><trkpt lat="33.539002809055944" lon="9.528281898209935"><ele>146.0</ele><time>2026-04-06T16:23:47.001Z</time></trkpt><trkpt lat="33.53887659318468" lon="9.528002123108577"><ele>146.0</ele><time>2026-04-06T16:23:48.001Z</time></trkpt><trkpt lat="33.53875800856941" lon="9.527727394271949"><ele>146.0</ele><time>2026-04-06T16:23:49.001Z</time></trkpt><trkpt lat="33.538652771431074" lon="9.527475095767235"><ele>146.33333333333331</ele><time>2026-04-06T16:23:50.001Z</time></trkpt><trkpt lat="33.53855828839779" lon="9.52724378552371"><ele>146.66666666666666</ele><time>2026-04-06T16:23:51.001Z</time></trkpt><trkpt lat="33.53846377839819" lon="9.527014639488735"><ele>147.0</ele><time>2026-04-06T16:23:52.001Z</time></trkpt><trkpt lat="33.53836937255597" lon="9.526788311180706"><ele>147.33333333333334</ele><time>2026-04-06T16:23:53.001Z</time></trkpt><trkpt lat="33.53827243276768" lon="9.52655929895213"><ele>147.66666666666669</ele><time>2026-04-06T16:23:54.001Z</time></trkpt><trkpt lat="33.538176008251625" lon="9.526333656143132"><ele>148.0</ele><time>2026-04-06T16:23:55.001Z</time></trkpt><trkpt lat="33.53808349918789" lon="9.526111396047444"><ele>148.33333333333334</ele><time>2026-04-06T16:23:56.001Z</time></trkpt><trkpt lat="33.5379997660462" lon="9.525900585644788"><ele>148.66666666666666</ele><time>2026-04-06T16:23:57.001Z</time></trkpt><trkpt lat="33.537922479052824" lon="9.525702318288834"><ele>149.0</ele><time>2026-04-06T16:23:58.001Z</time></trkpt><trkpt lat="33.53785110713446" lon="9.525517178492974"><ele>149.33333333333331</ele><time>2026-04-06T16:23:59.001Z</time></trkpt><trkpt lat="33.53778001430922" lon="9.52533737157684"><ele>149.66666666666666</ele><time>2026-04-06T16:24:00.001Z</time></trkpt><trkpt lat="33.53770488451431" lon="9.525156504871028"><ele>150.0</ele><time>2026-04-06T16:24:01.001Z</time></trkpt><trkpt lat="33.537621443388" lon="9.524962585278697"><ele>150.0</ele><time>2026-04-06T16:24:02.001Z</time></trkpt><trkpt lat="33.53753598102703" lon="9.524762123174733"><ele>150.0</ele><time>2026-04-06T16:24:03.001Z</time></trkpt><trkpt lat="33.53744814643851" lon="9.524555159646436"><ele>150.0</ele><time>2026-04-06T16:24:04.001Z</time></trkpt><trkpt lat="33.53735895463137" lon="9.524342435559332"><ele>150.33333333333334</ele><time>2026-04-06T16:24:05.001Z</time></trkpt><trkpt lat="33.53726566078795" lon="9.52412405254877"><ele>150.66666666666669</ele><time>2026-04-06T16:24:06.001Z</time></trkpt><trkpt lat="33.53716872798583" lon="9.523900817641865"><ele>151.0</ele><time>2026-04-06T16:24:07.001Z</time></trkpt><trkpt lat="33.53707464676463" lon="9.523674888204685"><ele>150.0</ele><time>2026-04-06T16:24:08.001Z</time></trkpt><trkpt lat="33.53698059471653" lon="9.52344740253509"><ele>149.0</ele><time>2026-04-06T16:24:09.001Z</time></trkpt><trkpt lat="33.53688493681843" lon="9.523219162685885"><ele>148.0</ele><time>2026-04-06T16:24:10.001Z</time></trkpt><trkpt lat="33.53679324931206" lon="9.522995192292807"><ele>147.33333333333334</ele><time>2026-04-06T16:24:11.001Z</time></trkpt><trkpt lat="33.53670523596381" lon="9.522779171614731"><ele>146.66666666666666</ele><time>2026-04-06T16:24:12.001Z</time></trkpt><trkpt lat="33.53661811648881" lon="9.522571866443087"><ele>146.0</ele><time>2026-04-06T16:24:13.001Z</time></trkpt><trkpt lat="33.53652723750953" lon="9.522360887967148"><ele>146.0</ele><time>2026-04-06T16:24:14.001Z</time></trkpt><trkpt lat="33.536435878472794" lon="9.522146704039862"><ele>146.0</ele><time>2026-04-06T16:24:15.001Z</time></trkpt><trkpt lat="33.536350273298744" lon="9.521929881670047"><ele>146.0</ele><time>2026-04-06T16:24:16.001Z</time></trkpt><trkpt lat="33.53626352229779" lon="9.521709085176678"><ele>146.0</ele><time>2026-04-06T16:24:17.001Z</time></trkpt><trkpt lat="33.536175903027676" lon="9.521488877486206"><ele>146.0</ele><time>2026-04-06T16:24:18.001Z</time></trkpt><trkpt lat="33.53608357142575" lon="9.521264852820241"><ele>146.0</ele><time>2026-04-06T16:24:19.001Z</time></trkpt><trkpt lat="33.53598993960425" lon="9.521037108933507"><ele>146.0</ele><time>2026-04-06T16:24:20.001Z</time></trkpt><trkpt lat="33.53589139064082" lon="9.520799236336433"><ele>146.0</ele><time>2026-04-06T16:24:21.001Z</time></trkpt><trkpt lat="33.53578996810195" lon="9.520564231231619"><ele>146.0</ele><time>2026-04-06T16:24:22.001Z</time></trkpt><trkpt lat="33.53568773785189" lon="9.520323140820203"><ele>144.5</ele><time>2026-04-06T16:24:23.001Z</time></trkpt><trkpt lat="33.53558514400647" lon="9.520074537055713"><ele>143.0</ele><time>2026-04-06T16:24:24.001Z</time></trkpt><trkpt lat="33.53547959190321" lon="9.519820468055443"><ele>141.5</ele><time>2026-04-06T16:24:25.001Z</time></trkpt><trkpt lat="33.53536690915557" lon="9.51955163326077"><ele>140.0</ele><time>2026-04-06T16:24:26.001Z</time></trkpt><trkpt lat="33.53524840010967" lon="9.519275440172223"><ele>140.0</ele><time>2026-04-06T16:24:27.001Z</time></trkpt><trkpt lat="33.53512529086858" lon="9.5189870690568"><ele>140.0</ele><time>2026-04-06T16:24:28.001Z</time></trkpt><trkpt lat="33.53500089098068" lon="9.518690924778003"><ele>138.5</ele><time>2026-04-06T16:24:29.001Z</time></trkpt><trkpt lat="33.534871103887866" lon="9.518383964788413"><ele>137.0</ele><time>2026-04-06T16:24:30.001Z</time></trkpt><trkpt lat="33.534735188026914" lon="9.518066352012124"><ele>136.5</ele><time>2026-04-06T16:24:31.001Z</time></trkpt><trkpt lat="33.53459144267126" lon="9.517742589686884"><ele>136.0</ele><time>2026-04-06T16:24:32.001Z</time></trkpt><trkpt lat="33.53444780410261" lon="9.51741167274806"><ele>136.0</ele><time>2026-04-06T16:24:33.001Z</time></trkpt><trkpt lat="33.5343069747585" lon="9.517075597515218"><ele>136.0</ele><time>2026-04-06T16:24:34.001Z</time></trkpt><trkpt lat="33.53416572341104" lon="9.516731640139712"><ele>135.0</ele><time>2026-04-06T16:24:35.001Z</time></trkpt><trkpt lat="33.534025171495216" lon="9.516384272449747"><ele>134.0</ele><time>2026-04-06T16:24:36.001Z</time></trkpt><trkpt lat="33.53388248406702" lon="9.516035823713493"><ele>134.0</ele><time>2026-04-06T16:24:37.001Z</time></trkpt><trkpt lat="33.5337386141375" lon="9.515689384782501"><ele>134.0</ele><time>2026-04-06T16:24:38.001Z</time></trkpt><trkpt lat="33.53359375936386" lon="9.515350483941523"><ele>134.5</ele><time>2026-04-06T16:24:39.001Z</time></trkpt><trkpt lat="33.53345187511514" lon="9.515010991227676"><ele>135.0</ele><time>2026-04-06T16:24:40.001Z</time></trkpt><trkpt lat="33.533311839438994" lon="9.514669735307642"><ele>134.0</ele><time>2026-04-06T16:24:41.001Z</time></trkpt><trkpt lat="33.53317571573329" lon="9.514326601021144"><ele>133.0</ele><time>2026-04-06T16:24:42.001Z</time></trkpt><trkpt lat="33.53304380342675" lon="9.513984050844435"><ele>132.5</ele><time>2026-04-06T16:24:43.001Z</time></trkpt><trkpt lat="33.53290922852218" lon="9.513638964741217"><ele>132.0</ele><time>2026-04-06T16:24:44.001Z</time></trkpt><trkpt lat="33.53277110389896" lon="9.51330121054237"><ele>131.5</ele><time>2026-04-06T16:24:45.001Z</time></trkpt><trkpt lat="33.53263063672524" lon="9.51297049434268"><ele>131.0</ele><time>2026-04-06T16:24:46.001Z</time></trkpt><trkpt lat="33.53249188359722" lon="9.51264281870969"><ele>130.5</ele><time>2026-04-06T16:24:47.001Z</time></trkpt><trkpt lat="33.53235600283773" lon="9.51231554709719"><ele>130.0</ele><time>2026-04-06T16:24:48.001Z</time></trkpt><trkpt lat="33.53222706468621" lon="9.512005873220634"><ele>130.0</ele><time>2026-04-06T16:24:49.001Z</time></trkpt><trkpt lat="33.53210376240762" lon="9.511717007244753"><ele>130.0</ele><time>2026-04-06T16:24:50.001Z</time></trkpt><trkpt lat="33.53198834099931" lon="9.51144642787156"><ele>130.0</ele><time>2026-04-06T16:24:51.001Z</time></trkpt><trkpt lat="33.53188237501711" lon="9.511197631968349"><ele>130.0</ele><time>2026-04-06T16:24:52.001Z</time></trkpt><trkpt lat="33.531785512714805" lon="9.510968889018132"><ele>130.0</ele><time>2026-04-06T16:24:53.001Z</time></trkpt><trkpt lat="33.53169307979699" lon="9.510749224444488"><ele>130.0</ele><time>2026-04-06T16:24:54.001Z</time></trkpt><trkpt lat="33.53160476419344" lon="9.510535347900973"><ele>130.0</ele><time>2026-04-06T16:24:55.001Z</time></trkpt><trkpt lat="33.5315167637237" lon="9.510325537686835"><ele>130.0</ele><time>2026-04-06T16:24:56.001Z</time></trkpt><trkpt lat="33.531433045787615" lon="9.510122214109405"><ele>129.33333333333334</ele><time>2026-04-06T16:24:57.001Z</time></trkpt><trkpt lat="33.5313546062584" lon="9.509929330124647"><ele>128.66666666666666</ele><time>2026-04-06T16:24:58.001Z</time></trkpt><trkpt lat="33.53128001312576" lon="9.509744574915544"><ele>128.0</ele><time>2026-04-06T16:24:59.001Z</time></trkpt><trkpt lat="33.53120691329962" lon="9.509567889423092"><ele>128.0</ele><time>2026-04-06T16:25:00.001Z</time></trkpt><trkpt lat="33.5311323864927" lon="9.509394192204315"><ele>128.0</ele><time>2026-04-06T16:25:01.001Z</time></trkpt><trkpt lat="33.53105667718331" lon="9.509218342354012"><ele>128.0</ele><time>2026-04-06T16:25:02.001Z</time></trkpt><trkpt lat="33.53097819887622" lon="9.509037644782271"><ele>128.0</ele><time>2026-04-06T16:25:03.001Z</time></trkpt><trkpt lat="33.53089776984957" lon="9.508848756754208"><ele>128.0</ele><time>2026-04-06T16:25:04.001Z</time></trkpt><trkpt lat="33.53081734679231" lon="9.508651595130923"><ele>128.0</ele><time>2026-04-06T16:25:05.001Z</time></trkpt><trkpt lat="33.53073664319033" lon="9.508453291297345"><ele>127.66666666666666</ele><time>2026-04-06T16:25:06.001Z</time></trkpt><trkpt lat="33.53065539804542" lon="9.508258531024971"><ele>127.33333333333334</ele><time>2026-04-06T16:25:07.001Z</time></trkpt><trkpt lat="33.530573496409716" lon="9.508064090789173"><ele>127.0</ele><time>2026-04-06T16:25:08.001Z</time></trkpt><trkpt lat="33.53049512146821" lon="9.507870746162935"><ele>126.66666666666667</ele><time>2026-04-06T16:25:09.001Z</time></trkpt><trkpt lat="33.53041558636218" lon="9.507672742102821"><ele>126.33333333333334</ele><time>2026-04-06T16:25:10.001Z</time></trkpt><trkpt lat="33.53033467788996" lon="9.507477401942818"><ele>126.0</ele><time>2026-04-06T16:25:11.001Z</time></trkpt><trkpt lat="33.53025006959448" lon="9.507275464623628"><ele>125.33333333333334</ele><time>2026-04-06T16:25:12.001Z</time></trkpt><trkpt lat="33.530164163180594" lon="9.507067283332038"><ele>124.66666666666667</ele><time>2026-04-06T16:25:13.001Z</time></trkpt><trkpt lat="33.53007884574738" lon="9.506858638709057"><ele>124.0</ele><time>2026-04-06T16:25:14.001Z</time></trkpt><trkpt lat="33.529991878244886" lon="9.50665000710649"><ele>124.0</ele><time>2026-04-06T16:25:15.001Z</time></trkpt><trkpt lat="33.52990672830937" lon="9.506441776397292"><ele>124.0</ele><time>2026-04-06T16:25:16.001Z</time></trkpt><trkpt lat="33.52981940809255" lon="9.50623303509745"><ele>124.0</ele><time>2026-04-06T16:25:17.001Z</time></trkpt><trkpt lat="33.5297361942787" lon="9.506035837426909"><ele>124.0</ele><time>2026-04-06T16:25:18.001Z</time></trkpt><trkpt lat="33.529657943953715" lon="9.505849548741022"><ele>124.0</ele><time>2026-04-06T16:25:19.001Z</time></trkpt><trkpt lat="33.52958625374435" lon="9.505670771176217"><ele>124.0</ele><time>2026-04-06T16:25:20.001Z</time></trkpt><trkpt lat="33.529514724700135" lon="9.505497038572459"><ele>123.0</ele><time>2026-04-06T16:25:21.001Z</time></trkpt><trkpt lat="33.52944489699487" lon="9.50533054700582"><ele>122.0</ele><time>2026-04-06T16:25:22.001Z</time></trkpt><trkpt lat="33.52937153252192" lon="9.505159073725144"><ele>121.0</ele><time>2026-04-06T16:25:23.001Z</time></trkpt><trkpt lat="33.5292986863381" lon="9.50498492032844"><ele>121.0</ele><time>2026-04-06T16:25:24.001Z</time></trkpt><trkpt lat="33.529226887774705" lon="9.504807943277822"><ele>121.0</ele><time>2026-04-06T16:25:25.001Z</time></trkpt><trkpt lat="33.529155877435926" lon="9.50463268788169"><ele>121.0</ele><time>2026-04-06T16:25:26.001Z</time></trkpt><trkpt lat="33.52907946808475" lon="9.504450345739013"><ele>121.0</ele><time>2026-04-06T16:25:27.001Z</time></trkpt><trkpt lat="33.529002091482056" lon="9.504268183215427"><ele>121.0</ele><time>2026-04-06T16:25:28.001Z</time></trkpt><trkpt lat="33.52892022315267" lon="9.504069884970665"><ele>121.0</ele><time>2026-04-06T16:25:29.001Z</time></trkpt><trkpt lat="33.52883475719348" lon="9.503859576447807"><ele>121.0</ele><time>2026-04-06T16:25:30.001Z</time></trkpt><trkpt lat="33.52874678351406" lon="9.503643050916764"><ele>121.0</ele><time>2026-04-06T16:25:31Z</time></trkpt><trkpt lat="33.52865730287522" lon="9.503427884456878"><ele>121.0</ele><time>2026-04-06T16:25:32Z</time></trkpt><trkpt lat="33.52856346734026" lon="9.503208354317023"><ele>121.0</ele><time>2026-04-06T16:25:33Z</time></trkpt><trkpt lat="33.52846477233296" lon="9.50297953239725"><ele>121.0</ele><time>2026-04-06T16:25:34Z</time></trkpt><trkpt lat="33.52836934370973" lon="9.5027479309269"><ele>121.0</ele><time>2026-04-06T16:25:35Z</time></trkpt><trkpt lat="33.528271960898195" lon="9.502506897151385"><ele>121.5</ele><time>2026-04-06T16:25:36Z</time></trkpt><trkpt lat="33.528171449522816" lon="9.502261610349683"><ele>122.0</ele><time>2026-04-06T16:25:37Z</time></trkpt><trkpt lat="33.528067365641654" lon="9.502013855142001"><ele>122.0</ele><time>2026-04-06T16:25:38Z</time></trkpt><trkpt lat="33.527966367254734" lon="9.501776034797954"><ele>122.0</ele><time>2026-04-06T16:25:39Z</time></trkpt><trkpt lat="33.527873173248864" lon="9.501559498222377"><ele>122.0</ele><time>2026-04-06T16:25:40Z</time></trkpt><trkpt lat="33.52779194839106" lon="9.501369494401974"><ele>121.33333333333333</ele><time>2026-04-06T16:25:41Z</time></trkpt><trkpt lat="33.52771912908597" lon="9.501192794591077"><ele>120.66666666666666</ele><time>2026-04-06T16:25:42Z</time></trkpt><trkpt lat="33.5276494982495" lon="9.501026307443574"><ele>120.0</ele><time>2026-04-06T16:25:43Z</time></trkpt><trkpt lat="33.5275834828495" lon="9.500868769134037"><ele>120.0</ele><time>2026-04-06T16:25:44Z</time></trkpt><trkpt lat="33.527522925125936" lon="9.500718123283896"><ele>120.0</ele><time>2026-04-06T16:25:45Z</time></trkpt><trkpt lat="33.5274660487503" lon="9.500576020884855"><ele>120.0</ele><time>2026-04-06T16:25:46Z</time></trkpt><trkpt lat="33.52740886806912" lon="9.500434600283684"><ele>120.0</ele><time>2026-04-06T16:25:47Z</time></trkpt><trkpt lat="33.527350213089136" lon="9.500293924619093"><ele>120.0</ele><time>2026-04-06T16:25:48Z</time></trkpt><trkpt lat="33.52729107092917" lon="9.5001520128567"><ele>120.0</ele><time>2026-04-06T16:25:49Z</time></trkpt><trkpt lat="33.52723213712488" lon="9.500012447310665"><ele>120.0</ele><time>2026-04-06T16:25:50Z</time></trkpt><trkpt lat="33.52718379957866" lon="9.499895711165326"><ele>120.0</ele><time>2026-04-06T16:25:51Z</time></trkpt><trkpt lat="33.52714196287478" lon="9.49979500129071"><ele>120.0</ele><time>2026-04-06T16:25:52Z</time></trkpt><trkpt lat="33.52710500216968" lon="9.49969895756479"><ele>120.0</ele><time>2026-04-06T16:25:53Z</time></trkpt><trkpt lat="33.52707591449311" lon="9.499616189317134"><ele>120.0</ele><time>2026-04-06T16:25:54Z</time></trkpt><trkpt lat="33.5270499797176" lon="9.499546239736478"><ele>120.0</ele><time>2026-04-06T16:25:55Z</time></trkpt><trkpt lat="33.526993444944516" lon="9.499415240297724"><ele>120.0</ele><time>2026-04-06T16:25:57.001Z</time></trkpt><trkpt lat="33.526953882345936" lon="9.499331820938195"><ele>120.0</ele><time>2026-04-06T16:25:58.001Z</time></trkpt><trkpt lat="33.52690752248721" lon="9.499235340712747"><ele>120.4</ele><time>2026-04-06T16:25:59.001Z</time></trkpt><trkpt lat="33.52686231273112" lon="9.499135848050068"><ele>120.8</ele><time>2026-04-06T16:26:00.001Z</time></trkpt><trkpt lat="33.52681570650004" lon="9.499034580412316"><ele>121.19999999999999</ele><time>2026-04-06T16:26:01.001Z</time></trkpt><trkpt lat="33.52676843040384" lon="9.498929518465918"><ele>121.6</ele><time>2026-04-06T16:26:02.001Z</time></trkpt><trkpt lat="33.526720886338744" lon="9.498825056165037"><ele>122.0</ele><time>2026-04-06T16:26:03.001Z</time></trkpt><trkpt lat="33.52667071447865" lon="9.49872101088493"><ele>122.19999999999999</ele><time>2026-04-06T16:26:04.001Z</time></trkpt><trkpt lat="33.52661842269159" lon="9.49861722700761"><ele>122.39999999999999</ele><time>2026-04-06T16:26:05.001Z</time></trkpt><trkpt lat="33.52656635972206" lon="9.498509896540373"><ele>122.60000000000001</ele><time>2026-04-06T16:26:06.001Z</time></trkpt><trkpt lat="33.52651443410381" lon="9.498400310099443"><ele>122.80000000000001</ele><time>2026-04-06T16:26:07.001Z</time></trkpt><trkpt lat="33.526461429098596" lon="9.498288201718399"><ele>123.0</ele><time>2026-04-06T16:26:08.001Z</time></trkpt><trkpt lat="33.52640760605035" lon="9.498172624908019"><ele>123.0</ele><time>2026-04-06T16:26:09.001Z</time></trkpt><trkpt lat="33.52634945993449" lon="9.498056407363505"><ele>123.0</ele><time>2026-04-06T16:26:10.001Z</time></trkpt><trkpt lat="33.526281717848676" lon="9.49792654631701"><ele>123.0</ele><time>2026-04-06T16:26:11.001Z</time></trkpt><trkpt lat="33.52620304514794" lon="9.497776517112818"><ele>123.0</ele><time>2026-04-06T16:26:12.001Z</time></trkpt><trkpt lat="33.526115287032475" lon="9.497606484309054"><ele>122.66666666666666</ele><time>2026-04-06T16:26:13.001Z</time></trkpt><trkpt lat="33.52602207991377" lon="9.497431283616011"><ele>122.33333333333333</ele><time>2026-04-06T16:26:14.001Z</time></trkpt><trkpt lat="33.525924437685774" lon="9.497255399325534"><ele>122.0</ele><time>2026-04-06T16:26:15.001Z</time></trkpt><trkpt lat="33.52582491203626" lon="9.497079655267504"><ele>122.0</ele><time>2026-04-06T16:26:16.001Z</time></trkpt><trkpt lat="33.525719622974314" lon="9.496898323207493"><ele>122.0</ele><time>2026-04-06T16:26:17.001Z</time></trkpt><trkpt lat="33.525607557630636" lon="9.49671195038208"><ele>122.0</ele><time>2026-04-06T16:26:18.001Z</time></trkpt><trkpt lat="33.52549223212631" lon="9.496524344461559"><ele>122.0</ele><time>2026-04-06T16:26:19.001Z</time></trkpt><trkpt lat="33.5253809207039" lon="9.496344529759604"><ele>122.0</ele><time>2026-04-06T16:26:20.001Z</time></trkpt><trkpt lat="33.525268135625666" lon="9.49615739066439"><ele>122.0</ele><time>2026-04-06T16:26:21.001Z</time></trkpt><trkpt lat="33.52515924616226" lon="9.495973392256895"><ele>122.0</ele><time>2026-04-06T16:26:22.001Z</time></trkpt><trkpt lat="33.52504314691858" lon="9.495779956033997"><ele>122.0</ele><time>2026-04-06T16:26:23.001Z</time></trkpt><trkpt lat="33.524929880741446" lon="9.49559447816851"><ele>122.0</ele><time>2026-04-06T16:26:24.001Z</time></trkpt><trkpt lat="33.52481599643864" lon="9.495406255116059"><ele>122.0</ele><time>2026-04-06T16:26:25.001Z</time></trkpt><trkpt lat="33.5247008942109" lon="9.495224759196269"><ele>122.0</ele><time>2026-04-06T16:26:26.001Z</time></trkpt><trkpt lat="33.52458426780738" lon="9.495038632538144"><ele>122.0</ele><time>2026-04-06T16:26:27.001Z</time></trkpt><trkpt lat="33.52447247677752" lon="9.494855381440992"><ele>122.0</ele><time>2026-04-06T16:26:28.001Z</time></trkpt><trkpt lat="33.52436030816339" lon="9.494671240244932"><ele>122.0</ele><time>2026-04-06T16:26:29.001Z</time></trkpt><trkpt lat="33.52424993590851" lon="9.494489503869868"><ele>122.0</ele><time>2026-04-06T16:26:30.001Z</time></trkpt><trkpt lat="33.524132764007476" lon="9.494293658660723"><ele>123.0</ele><time>2026-04-06T16:26:31.001Z</time></trkpt><trkpt lat="33.52400870622801" lon="9.494093519140456"><ele>124.0</ele><time>2026-04-06T16:26:32.001Z</time></trkpt><trkpt lat="33.523887263007616" lon="9.493892289915506"><ele>125.0</ele><time>2026-04-06T16:26:33.001Z</time></trkpt><trkpt lat="33.523765378264855" lon="9.493691650859256"><ele>125.33333333333333</ele><time>2026-04-06T16:26:34.001Z</time></trkpt><trkpt lat="33.52364027233868" lon="9.493490004816415"><ele>125.66666666666666</ele><time>2026-04-06T16:26:35.001Z</time></trkpt><trkpt lat="33.523514672604726" lon="9.493284492338779"><ele>126.0</ele><time>2026-04-06T16:26:36.001Z</time></trkpt><trkpt lat="33.523388392372" lon="9.493073861130185"><ele>125.66666666666666</ele><time>2026-04-06T16:26:37.001Z</time></trkpt><trkpt lat="33.5232575954456" lon="9.492857004185412"><ele>125.33333333333333</ele><time>2026-04-06T16:26:38.001Z</time></trkpt><trkpt lat="33.52312573049261" lon="9.492637142900623"><ele>125.0</ele><time>2026-04-06T16:26:39.001Z</time></trkpt><trkpt lat="33.522995894634896" lon="9.492420458858888"><ele>124.0</ele><time>2026-04-06T16:26:40.001Z</time></trkpt><trkpt lat="33.52285729395341" lon="9.492199130271912"><ele>123.0</ele><time>2026-04-06T16:26:41.001Z</time></trkpt><trkpt lat="33.52271453285787" lon="9.49197283493022"><ele>125.0</ele><time>2026-04-06T16:26:42.001Z</time></trkpt><trkpt lat="33.522557682054554" lon="9.491721947914593"><ele>127.0</ele><time>2026-04-06T16:26:43.001Z</time></trkpt><trkpt lat="33.522398674765064" lon="9.49146410342551"><ele>126.5</ele><time>2026-04-06T16:26:44.001Z</time></trkpt><trkpt lat="33.522240675537866" lon="9.491204552196153"><ele>126.0</ele><time>2026-04-06T16:26:45.001Z</time></trkpt><trkpt lat="33.52208174320012" lon="9.490939992482652"><ele>125.0</ele><time>2026-04-06T16:26:46.001Z</time></trkpt><trkpt lat="33.521921884897935" lon="9.490669282494293"><ele>124.0</ele><time>2026-04-06T16:26:47.001Z</time></trkpt><trkpt lat="33.52175605400881" lon="9.490387327389952"><ele>124.0</ele><time>2026-04-06T16:26:48.001Z</time></trkpt><trkpt lat="33.52158333342812" lon="9.490097884969261"><ele>124.0</ele><time>2026-04-06T16:26:49.001Z</time></trkpt><trkpt lat="33.521407456416135" lon="9.489805196114744"><ele>124.0</ele><time>2026-04-06T16:26:50.001Z</time></trkpt><trkpt lat="33.52123279406191" lon="9.489517009715204"><ele>124.0</ele><time>2026-04-06T16:26:51.001Z</time></trkpt><trkpt lat="33.521064099398835" lon="9.489238871963451"><ele>124.0</ele><time>2026-04-06T16:26:52.001Z</time></trkpt><trkpt lat="33.52090648637562" lon="9.488982433220352"><ele>124.0</ele><time>2026-04-06T16:26:53.001Z</time></trkpt><trkpt lat="33.52074990537339" lon="9.48872868822613"><ele>124.0</ele><time>2026-04-06T16:26:54.001Z</time></trkpt><trkpt lat="33.52059486455845" lon="9.488477539163107"><ele>124.0</ele><time>2026-04-06T16:26:55.001Z</time></trkpt><trkpt lat="33.52044234011414" lon="9.488229727477199"><ele>124.0</ele><time>2026-04-06T16:26:56.001Z</time></trkpt><trkpt lat="33.52029066536668" lon="9.487984669998966"><ele>124.0</ele><time>2026-04-06T16:26:57.001Z</time></trkpt><trkpt lat="33.52013938131457" lon="9.487736496439577"><ele>124.0</ele><time>2026-04-06T16:26:58.001Z</time></trkpt><trkpt lat="33.51998569292693" lon="9.487485486302557"><ele>124.0</ele><time>2026-04-06T16:26:59.001Z</time></trkpt><trkpt lat="33.51983111095699" lon="9.487233384412912"><ele>124.0</ele><time>2026-04-06T16:27:00.001Z</time></trkpt><trkpt lat="33.51967880753567" lon="9.486984177619929"><ele>124.0</ele><time>2026-04-06T16:27:01.001Z</time></trkpt><trkpt lat="33.51952394919239" lon="9.486734653525355"><ele>124.0</ele><time>2026-04-06T16:27:02.001Z</time></trkpt><trkpt lat="33.51937236404898" lon="9.486485883169516"><ele>124.0</ele><time>2026-04-06T16:27:03.001Z</time></trkpt><trkpt lat="33.51922328910459" lon="9.486236715004996"><ele>123.0</ele><time>2026-04-06T16:27:04.001Z</time></trkpt><trkpt lat="33.51907273428473" lon="9.485986834098226"><ele>122.0</ele><time>2026-04-06T16:27:05.001Z</time></trkpt><trkpt lat="33.51892032578829" lon="9.48573979532876"><ele>122.0</ele><time>2026-04-06T16:27:06.001Z</time></trkpt><trkpt lat="33.51876777005302" lon="9.485497263545255"><ele>122.0</ele><time>2026-04-06T16:27:07.001Z</time></trkpt><trkpt lat="33.51861599391051" lon="9.485255321344066"><ele>122.5</ele><time>2026-04-06T16:27:08.001Z</time></trkpt><trkpt lat="33.518464706891955" lon="9.485004992665205"><ele>123.0</ele><time>2026-04-06T16:27:09.001Z</time></trkpt><trkpt lat="33.518310255309004" lon="9.484748870491158"><ele>123.5</ele><time>2026-04-06T16:27:10.001Z</time></trkpt><trkpt lat="33.51815439462401" lon="9.484492573601534"><ele>124.0</ele><time>2026-04-06T16:27:11.001Z</time></trkpt><trkpt lat="33.517994883873364" lon="9.484233345710434"><ele>123.5</ele><time>2026-04-06T16:27:12.001Z</time></trkpt><trkpt lat="33.517836547429134" lon="9.483974505407762"><ele>123.0</ele><time>2026-04-06T16:27:13.001Z</time></trkpt><trkpt lat="33.51767602569211" lon="9.483713303406686"><ele>123.0</ele><time>2026-04-06T16:27:14.001Z</time></trkpt><trkpt lat="33.517515167630776" lon="9.483449803432144"><ele>123.0</ele><time>2026-04-06T16:27:15.001Z</time></trkpt><trkpt lat="33.51735904329747" lon="9.483189810401269"><ele>123.0</ele><time>2026-04-06T16:27:16.001Z</time></trkpt><trkpt lat="33.51720470269557" lon="9.482931064213224"><ele>123.0</ele><time>2026-04-06T16:27:17.001Z</time></trkpt><trkpt lat="33.517046598333685" lon="9.482670500729377"><ele>123.5</ele><time>2026-04-06T16:27:18.001Z</time></trkpt><trkpt lat="33.516885861775386" lon="9.4824111950946"><ele>124.0</ele><time>2026-04-06T16:27:19.001Z</time></trkpt><trkpt lat="33.51672554979154" lon="9.482152211104594"><ele>125.5</ele><time>2026-04-06T16:27:20.001Z</time></trkpt><trkpt lat="33.51656542058577" lon="9.481890935415539"><ele>127.0</ele><time>2026-04-06T16:27:21.001Z</time></trkpt><trkpt lat="33.51640528341938" lon="9.481627640503651"><ele>127.0</ele><time>2026-04-06T16:27:22.001Z</time></trkpt><trkpt lat="33.516246356944" lon="9.481365885246417"><ele>127.0</ele><time>2026-04-06T16:27:23.001Z</time></trkpt><trkpt lat="33.51608946730005" lon="9.481108018002066"><ele>127.0</ele><time>2026-04-06T16:27:24.001Z</time></trkpt><trkpt lat="33.515935446747804" lon="9.480851431121803"><ele>127.0</ele><time>2026-04-06T16:27:25.001Z</time></trkpt><trkpt lat="33.515782692426036" lon="9.480596687143342"><ele>127.0</ele><time>2026-04-06T16:27:26.001Z</time></trkpt><trkpt lat="33.515626321073114" lon="9.480336211407623"><ele>127.0</ele><time>2026-04-06T16:27:27.001Z</time></trkpt><trkpt lat="33.51546560280742" lon="9.480074415330131"><ele>127.5</ele><time>2026-04-06T16:27:28.001Z</time></trkpt><trkpt lat="33.51530521429871" lon="9.479813443240621"><ele>128.0</ele><time>2026-04-06T16:27:29.001Z</time></trkpt><trkpt lat="33.51514170463632" lon="9.47954921354649"><ele>128.0</ele><time>2026-04-06T16:27:30.001Z</time></trkpt><trkpt lat="33.514979289667956" lon="9.47928468040922"><ele>128.0</ele><time>2026-04-06T16:27:31.001Z</time></trkpt><trkpt lat="33.51481828903981" lon="9.479017926538441"><ele>128.5</ele><time>2026-04-06T16:27:32.001Z</time></trkpt><trkpt lat="33.514663381802535" lon="9.478751427755851"><ele>129.0</ele><time>2026-04-06T16:27:33.001Z</time></trkpt><trkpt lat="33.5145108161099" lon="9.478477452065322"><ele>129.0</ele><time>2026-04-06T16:27:34.001Z</time></trkpt><trkpt lat="33.51436417333341" lon="9.478202879047554"><ele>129.0</ele><time>2026-04-06T16:27:35.001Z</time></trkpt><trkpt lat="33.51422130219302" lon="9.477925302795152"><ele>129.5</ele><time>2026-04-06T16:27:36.001Z</time></trkpt><trkpt lat="33.51408468742517" lon="9.47764859267249"><ele>130.0</ele><time>2026-04-06T16:27:37.001Z</time></trkpt><trkpt lat="33.513944698759694" lon="9.477375449187528"><ele>130.0</ele><time>2026-04-06T16:27:38.001Z</time></trkpt><trkpt lat="33.513801174306074" lon="9.4771043239117"><ele>130.0</ele><time>2026-04-06T16:27:39.001Z</time></trkpt><trkpt lat="33.51365562608062" lon="9.47683226233352"><ele>129.5</ele><time>2026-04-06T16:27:40.001Z</time></trkpt><trkpt lat="33.51350943806351" lon="9.476557012934757"><ele>129.0</ele><time>2026-04-06T16:27:41.001Z</time></trkpt><trkpt lat="33.513367156665595" lon="9.476285126200398"><ele>130.0</ele><time>2026-04-06T16:27:42.001Z</time></trkpt><trkpt lat="33.51323153130505" lon="9.476014277503229"><ele>131.0</ele><time>2026-04-06T16:27:43.001Z</time></trkpt><trkpt lat="33.5130954444891" lon="9.47573850779867"><ele>131.0</ele><time>2026-04-06T16:27:44.001Z</time></trkpt><trkpt lat="33.51295845048742" lon="9.475461602659967"><ele>131.0</ele><time>2026-04-06T16:27:45.001Z</time></trkpt><trkpt lat="33.51281972272335" lon="9.475186701119448"><ele>130.5</ele><time>2026-04-06T16:27:46.001Z</time></trkpt><trkpt lat="33.51267890966866" lon="9.474916179936656"><ele>130.0</ele><time>2026-04-06T16:27:47.001Z</time></trkpt><trkpt lat="33.51253847031662" lon="9.47464495393257"><ele>131.0</ele><time>2026-04-06T16:27:48.001Z</time></trkpt><trkpt lat="33.512399593259396" lon="9.474370723042696"><ele>132.0</ele><time>2026-04-06T16:27:49.001Z</time></trkpt><trkpt lat="33.51226257847709" lon="9.474094810713117"><ele>132.0</ele><time>2026-04-06T16:27:50.001Z</time></trkpt><trkpt lat="33.51212300193304" lon="9.473820050031382"><ele>132.0</ele><time>2026-04-06T16:27:51.001Z</time></trkpt><trkpt lat="33.51197847920958" lon="9.47354203253126"><ele>132.0</ele><time>2026-04-06T16:27:52.001Z</time></trkpt><trkpt lat="33.51183346818185" lon="9.47326493036778"><ele>132.0</ele><time>2026-04-06T16:27:53.001Z</time></trkpt><trkpt lat="33.51168465685344" lon="9.472979906475345"><ele>131.5</ele><time>2026-04-06T16:27:54Z</time></trkpt><trkpt lat="33.511536650434564" lon="9.47269306857161"><ele>131.0</ele><time>2026-04-06T16:27:55Z</time></trkpt><trkpt lat="33.51138713670993" lon="9.47239646401969"><ele>128.5</ele><time>2026-04-06T16:27:56Z</time></trkpt><trkpt lat="33.51123804664731" lon="9.472106218277542"><ele>126.0</ele><time>2026-04-06T16:27:57Z</time></trkpt><trkpt lat="33.51108830182306" lon="9.471819633110973"><ele>126.0</ele><time>2026-04-06T16:27:58Z</time></trkpt><trkpt lat="33.51093882992982" lon="9.47153041209546"><ele>126.0</ele><time>2026-04-06T16:27:59Z</time></trkpt><trkpt lat="33.51078996245289" lon="9.471241764967994"><ele>125.5</ele><time>2026-04-06T16:28:00Z</time></trkpt><trkpt lat="33.510642159107206" lon="9.470954145688024"><ele>125.0</ele><time>2026-04-06T16:28:01Z</time></trkpt><trkpt lat="33.51049245792625" lon="9.470661927180046"><ele>124.0</ele><time>2026-04-06T16:28:02.001Z</time></trkpt><trkpt lat="33.51034426983626" lon="9.470371914856473"><ele>123.0</ele><time>2026-04-06T16:28:03.001Z</time></trkpt><trkpt lat="33.51019446218183" lon="9.470081478504746"><ele>123.0</ele><time>2026-04-06T16:28:04.001Z</time></trkpt><trkpt lat="33.51004413114094" lon="9.469801036592829"><ele>123.0</ele><time>2026-04-06T16:28:05.001Z</time></trkpt><trkpt lat="33.50989935387735" lon="9.469530614083178"><ele>123.0</ele><time>2026-04-06T16:28:06.001Z</time></trkpt><trkpt lat="33.5097599969026" lon="9.469264575322688"><ele>123.0</ele><time>2026-04-06T16:28:07.001Z</time></trkpt><trkpt lat="33.50962282557363" lon="9.46899530176391"><ele>122.5</ele><time>2026-04-06T16:28:08.001Z</time></trkpt><trkpt lat="33.509487032355125" lon="9.468722745226136"><ele>122.0</ele><time>2026-04-06T16:28:09.001Z</time></trkpt><trkpt lat="33.509351605411084" lon="9.468450552281231"><ele>122.0</ele><time>2026-04-06T16:28:10.001Z</time></trkpt><trkpt lat="33.50921219107804" lon="9.468177708560535"><ele>122.0</ele><time>2026-04-06T16:28:11.001Z</time></trkpt><trkpt lat="33.50907476122932" lon="9.467907410742384"><ele>122.0</ele><time>2026-04-06T16:28:12.001Z</time></trkpt><trkpt lat="33.50893625489398" lon="9.467640628333209"><ele>122.0</ele><time>2026-04-06T16:28:13.001Z</time></trkpt><trkpt lat="33.508798463947606" lon="9.467373668638263"><ele>122.5</ele><time>2026-04-06T16:28:14.001Z</time></trkpt><trkpt lat="33.508661661548615" lon="9.46710501981529"><ele>123.0</ele><time>2026-04-06T16:28:15.001Z</time></trkpt><trkpt lat="33.50852412579619" lon="9.466840388641586"><ele>123.0</ele><time>2026-04-06T16:28:16.001Z</time></trkpt><trkpt lat="33.50838502458891" lon="9.466575001077215"><ele>123.0</ele><time>2026-04-06T16:28:17.001Z</time></trkpt><trkpt lat="33.50824386583955" lon="9.466304493828208"><ele>123.5</ele><time>2026-04-06T16:28:18.001Z</time></trkpt><trkpt lat="33.50810327606172" lon="9.46603167321233"><ele>124.0</ele><time>2026-04-06T16:28:19.001Z</time></trkpt><trkpt lat="33.507963385665484" lon="9.465753955291941"><ele>123.5</ele><time>2026-04-06T16:28:20.001Z</time></trkpt><trkpt lat="33.50782557795881" lon="9.465475343360433"><ele>123.0</ele><time>2026-04-06T16:28:21.001Z</time></trkpt><trkpt lat="33.50768694288716" lon="9.465192718881243"><ele>123.0</ele><time>2026-04-06T16:28:22.001Z</time></trkpt><trkpt lat="33.50754419994069" lon="9.4649076968824"><ele>123.0</ele><time>2026-04-06T16:28:23.001Z</time></trkpt><trkpt lat="33.50739949636383" lon="9.464624153660539"><ele>124.0</ele><time>2026-04-06T16:28:24.001Z</time></trkpt><trkpt lat="33.507254616407934" lon="9.464339501283202"><ele>125.0</ele><time>2026-04-06T16:28:25.001Z</time></trkpt><trkpt lat="33.50710765472321" lon="9.464054192907772"><ele>125.0</ele><time>2026-04-06T16:28:26.001Z</time></trkpt><trkpt lat="33.50695699487817" lon="9.463763796784013"><ele>125.0</ele><time>2026-04-06T16:28:27.001Z</time></trkpt><trkpt lat="33.50680947245765" lon="9.4634687306665"><ele>125.0</ele><time>2026-04-06T16:28:28.001Z</time></trkpt><trkpt lat="33.50666269435483" lon="9.463173319339068"><ele>125.0</ele><time>2026-04-06T16:28:29.001Z</time></trkpt><trkpt lat="33.5065148375796" lon="9.462882450067479"><ele>124.5</ele><time>2026-04-06T16:28:30.001Z</time></trkpt><trkpt lat="33.50636428953512" lon="9.462591758978606"><ele>124.0</ele><time>2026-04-06T16:28:31.001Z</time></trkpt><trkpt lat="33.5062093165123" lon="9.462295432512338"><ele>124.0</ele><time>2026-04-06T16:28:32.001Z</time></trkpt><trkpt lat="33.506056316247566" lon="9.46200204999867"><ele>124.0</ele><time>2026-04-06T16:28:33.001Z</time></trkpt><trkpt lat="33.50590008774332" lon="9.461704934620705"><ele>124.0</ele><time>2026-04-06T16:28:34.001Z</time></trkpt><trkpt lat="33.50574430299996" lon="9.46140489886573"><ele>124.0</ele><time>2026-04-06T16:28:35.001Z</time></trkpt><trkpt lat="33.505590031936556" lon="9.461105157487737"><ele>124.0</ele><time>2026-04-06T16:28:36.001Z</time></trkpt><trkpt lat="33.505436926556634" lon="9.46080466922033"><ele>124.0</ele><time>2026-04-06T16:28:37.001Z</time></trkpt><trkpt lat="33.505285937514365" lon="9.460505739281462"><ele>123.5</ele><time>2026-04-06T16:28:38.001Z</time></trkpt><trkpt lat="33.505137962117416" lon="9.46020613116387"><ele>123.0</ele><time>2026-04-06T16:28:39.001Z</time></trkpt><trkpt lat="33.50498899773423" lon="9.459908286531405"><ele>124.0</ele><time>2026-04-06T16:28:40.001Z</time></trkpt><trkpt lat="33.504839954706455" lon="9.459610472680808"><ele>125.0</ele><time>2026-04-06T16:28:41.001Z</time></trkpt><trkpt lat="33.50469176547771" lon="9.459311846311165"><ele>124.5</ele><time>2026-04-06T16:28:42.001Z</time></trkpt><trkpt lat="33.50454230059235" lon="9.459014382822684"><ele>124.0</ele><time>2026-04-06T16:28:43.001Z</time></trkpt><trkpt lat="33.50438967424316" lon="9.458713566373863"><ele>123.0</ele><time>2026-04-06T16:28:44.001Z</time></trkpt><trkpt lat="33.50423671876332" lon="9.458415726509944"><ele>122.0</ele><time>2026-04-06T16:28:45.001Z</time></trkpt><trkpt lat="33.50408259227697" lon="9.458114404355905"><ele>120.5</ele><time>2026-04-06T16:28:46.001Z</time></trkpt><trkpt lat="33.50392888750307" lon="9.457815779567053"><ele>119.0</ele><time>2026-04-06T16:28:47.001Z</time></trkpt><trkpt lat="33.503772720545975" lon="9.457513162020406"><ele>119.0</ele><time>2026-04-06T16:28:48.001Z</time></trkpt><trkpt lat="33.503617717232764" lon="9.457214258516935"><ele>119.0</ele><time>2026-04-06T16:28:49.001Z</time></trkpt><trkpt lat="33.50346295356919" lon="9.45691356090423"><ele>119.0</ele><time>2026-04-06T16:28:50.001Z</time></trkpt><trkpt lat="33.503310432882756" lon="9.456616420576163"><ele>119.0</ele><time>2026-04-06T16:28:51.001Z</time></trkpt><trkpt lat="33.5031578186475" lon="9.456318649827706"><ele>120.0</ele><time>2026-04-06T16:28:52.001Z</time></trkpt><trkpt lat="33.503004382353154" lon="9.45602158550514"><ele>121.0</ele><time>2026-04-06T16:28:53.001Z</time></trkpt><trkpt lat="33.502857206502476" lon="9.455726911865995"><ele>121.0</ele><time>2026-04-06T16:28:54.001Z</time></trkpt><trkpt lat="33.50270919621901" lon="9.455435204710747"><ele>121.0</ele><time>2026-04-06T16:28:55.001Z</time></trkpt><trkpt lat="33.50255797777887" lon="9.455142169520252"><ele>121.0</ele><time>2026-04-06T16:28:56.001Z</time></trkpt><trkpt lat="33.50240875671179" lon="9.454849934583393"><ele>121.0</ele><time>2026-04-06T16:28:57.001Z</time></trkpt><trkpt lat="33.502260682891354" lon="9.454562617318539"><ele>121.0</ele><time>2026-04-06T16:28:58.001Z</time></trkpt><trkpt lat="33.50211152834969" lon="9.454272820578971"><ele>121.0</ele><time>2026-04-06T16:28:59.001Z</time></trkpt><trkpt lat="33.501965016997936" lon="9.45398536424017"><ele>121.0</ele><time>2026-04-06T16:29:00.001Z</time></trkpt><trkpt lat="33.50181877751393" lon="9.453699554951744"><ele>121.0</ele><time>2026-04-06T16:29:01.001Z</time></trkpt><trkpt lat="33.50167165841798" lon="9.45341641170822"><ele>121.0</ele><time>2026-04-06T16:29:02.001Z</time></trkpt><trkpt lat="33.50152810961884" lon="9.4531373992963"><ele>121.0</ele><time>2026-04-06T16:29:03.001Z</time></trkpt><trkpt lat="33.501384012837654" lon="9.452856744975971"><ele>120.5</ele><time>2026-04-06T16:29:04.001Z</time></trkpt><trkpt lat="33.50124338852905" lon="9.452578788093643"><ele>120.0</ele><time>2026-04-06T16:29:05.001Z</time></trkpt><trkpt lat="33.50109915684091" lon="9.452299910638095"><ele>120.5</ele><time>2026-04-06T16:29:06.001Z</time></trkpt><trkpt lat="33.5009542683143" lon="9.452021566938473"><ele>121.0</ele><time>2026-04-06T16:29:07.001Z</time></trkpt><trkpt lat="33.50080976668259" lon="9.451736398473685"><ele>121.0</ele><time>2026-04-06T16:29:08.001Z</time></trkpt><trkpt lat="33.500667607964566" lon="9.451452961322962"><ele>121.0</ele><time>2026-04-06T16:29:09.001Z</time></trkpt><trkpt lat="33.500521279015516" lon="9.451167352776254"><ele>122.0</ele><time>2026-04-06T16:29:10.001Z</time></trkpt><trkpt lat="33.500371864643" lon="9.45088021969765"><ele>123.0</ele><time>2026-04-06T16:29:11.001Z</time></trkpt><trkpt lat="33.50022491257348" lon="9.450596657528944"><ele>123.5</ele><time>2026-04-06T16:29:12.001Z</time></trkpt><trkpt lat="33.50007606916321" lon="9.450305972741251"><ele>124.0</ele><time>2026-04-06T16:29:13.001Z</time></trkpt><trkpt lat="33.49992644460507" lon="9.450011999409373"><ele>124.0</ele><time>2026-04-06T16:29:14.001Z</time></trkpt><trkpt lat="33.499774330200864" lon="9.449719237784365"><ele>124.0</ele><time>2026-04-06T16:29:15.001Z</time></trkpt><trkpt lat="33.49962169313241" lon="9.44942598384524"><ele>123.5</ele><time>2026-04-06T16:29:16.001Z</time></trkpt><trkpt lat="33.49946801519374" lon="9.449130628145454"><ele>123.0</ele><time>2026-04-06T16:29:17.001Z</time></trkpt><trkpt lat="33.499315512870496" lon="9.448835697965135"><ele>123.0</ele><time>2026-04-06T16:29:18.001Z</time></trkpt><trkpt lat="33.49916270080319" lon="9.448539171074696"><ele>123.0</ele><time>2026-04-06T16:29:19.001Z</time></trkpt><trkpt lat="33.499010359746784" lon="9.448242919580354"><ele>123.0</ele><time>2026-04-06T16:29:20.001Z</time></trkpt><trkpt lat="33.498856596276276" lon="9.44794127627775"><ele>123.0</ele><time>2026-04-06T16:29:21.001Z</time></trkpt><trkpt lat="33.49870594232957" lon="9.447637461214104"><ele>122.0</ele><time>2026-04-06T16:29:22.001Z</time></trkpt><trkpt lat="33.49855059116765" lon="9.447331396409325"><ele>121.0</ele><time>2026-04-06T16:29:23.001Z</time></trkpt><trkpt lat="33.49839486531531" lon="9.447031691944812"><ele>120.5</ele><time>2026-04-06T16:29:24.001Z</time></trkpt><trkpt lat="33.498236605721274" lon="9.446733345638894"><ele>120.0</ele><time>2026-04-06T16:29:25.001Z</time></trkpt><trkpt lat="33.49808213027134" lon="9.446437189570645"><ele>119.0</ele><time>2026-04-06T16:29:26.001Z</time></trkpt><trkpt lat="33.49793324944739" lon="9.446143355589385"><ele>118.0</ele><time>2026-04-06T16:29:27.001Z</time></trkpt><trkpt lat="33.49778597212286" lon="9.445853162615201"><ele>117.5</ele><time>2026-04-06T16:29:28.001Z</time></trkpt><trkpt lat="33.497641322279165" lon="9.445569304594603"><ele>117.0</ele><time>2026-04-06T16:29:29Z</time></trkpt><trkpt lat="33.497493888319134" lon="9.445284278326891"><ele>116.5</ele><time>2026-04-06T16:29:30Z</time></trkpt><trkpt lat="33.497346975252995" lon="9.444998289685753"><ele>116.0</ele><time>2026-04-06T16:29:31Z</time></trkpt><trkpt lat="33.49720096572484" lon="9.444712203243132"><ele>115.0</ele><time>2026-04-06T16:29:32Z</time></trkpt><trkpt lat="33.49705739295141" lon="9.444425442111786"><ele>114.0</ele><time>2026-04-06T16:29:33Z</time></trkpt><trkpt lat="33.49690657824688" lon="9.444134272775736"><ele>114.0</ele><time>2026-04-06T16:29:34Z</time></trkpt><trkpt lat="33.49675375546774" lon="9.443844398288041"><ele>114.0</ele><time>2026-04-06T16:29:35Z</time></trkpt><trkpt lat="33.496600159333575" lon="9.443550679846696"><ele>113.5</ele><time>2026-04-06T16:29:36Z</time></trkpt><trkpt lat="33.49645484094753" lon="9.44325379285406"><ele>113.0</ele><time>2026-04-06T16:29:37Z</time></trkpt><trkpt lat="33.49630861242107" lon="9.442958317606932"><ele>113.0</ele><time>2026-04-06T16:29:38Z</time></trkpt><trkpt lat="33.496161810113264" lon="9.442662693596478"><ele>113.0</ele><time>2026-04-06T16:29:39Z</time></trkpt><trkpt lat="33.496023561805615" lon="9.442365606360553"><ele>113.0</ele><time>2026-04-06T16:29:40Z</time></trkpt><trkpt lat="33.495890457365675" lon="9.442067609693767"><ele>113.0</ele><time>2026-04-06T16:29:41Z</time></trkpt><trkpt lat="33.49576009377956" lon="9.441763987943093"><ele>113.0</ele><time>2026-04-06T16:29:42Z</time></trkpt><trkpt lat="33.49563549229799" lon="9.441454053003373"><ele>113.0</ele><time>2026-04-06T16:29:43Z</time></trkpt><trkpt lat="33.49551720107346" lon="9.441139476081771"><ele>112.0</ele><time>2026-04-06T16:29:44Z</time></trkpt><trkpt lat="33.49540353297293" lon="9.440818647566994"><ele>111.0</ele><time>2026-04-06T16:29:45Z</time></trkpt><trkpt lat="33.49529766769467" lon="9.440497265500365"><ele>111.5</ele><time>2026-04-06T16:29:46Z</time></trkpt><trkpt lat="33.495200287574896" lon="9.44017069338218"><ele>112.0</ele><time>2026-04-06T16:29:47Z</time></trkpt><trkpt lat="33.49510910244056" lon="9.43984188417191"><ele>112.0</ele><time>2026-04-06T16:29:48Z</time></trkpt><trkpt lat="33.4950237539401" lon="9.439509234259912"><ele>112.0</ele><time>2026-04-06T16:29:49Z</time></trkpt><trkpt lat="33.49494321397409" lon="9.4391765528041"><ele>112.0</ele><time>2026-04-06T16:29:50Z</time></trkpt><trkpt lat="33.49486756435736" lon="9.438841650708406"><ele>112.0</ele><time>2026-04-06T16:29:51Z</time></trkpt><trkpt lat="33.49479395033135" lon="9.438505404079311"><ele>111.5</ele><time>2026-04-06T16:29:52Z</time></trkpt><trkpt lat="33.49472641576786" lon="9.438173044344211"><ele>111.0</ele><time>2026-04-06T16:29:53Z</time></trkpt><trkpt lat="33.49466507569343" lon="9.43783882116334"><ele>111.0</ele><time>2026-04-06T16:29:54Z</time></trkpt><trkpt lat="33.49461118113407" lon="9.437503396409467"><ele>111.0</ele><time>2026-04-06T16:29:55Z</time></trkpt><trkpt lat="33.494564058499954" lon="9.437162083619768"><ele>112.0</ele><time>2026-04-06T16:29:56Z</time></trkpt><trkpt lat="33.494522168843915" lon="9.436821752495415"><ele>113.0</ele><time>2026-04-06T16:29:57Z</time></trkpt><trkpt lat="33.49448892698615" lon="9.436483395003222"><ele>112.5</ele><time>2026-04-06T16:29:58Z</time></trkpt><trkpt lat="33.49446142077803" lon="9.43614926209128"><ele>112.0</ele><time>2026-04-06T16:29:59Z</time></trkpt><trkpt lat="33.494439932347376" lon="9.435818429929457"><ele>112.0</ele><time>2026-04-06T16:30:00Z</time></trkpt><trkpt lat="33.49442489124542" lon="9.435490695162095"><ele>112.0</ele><time>2026-04-06T16:30:01Z</time></trkpt><trkpt lat="33.49441560222292" lon="9.4351575616179"><ele>112.0</ele><time>2026-04-06T16:30:02Z</time></trkpt><trkpt lat="33.49441243069614" lon="9.434825678364719"><ele>112.0</ele><time>2026-04-06T16:30:03Z</time></trkpt><trkpt lat="33.49441368987573" lon="9.434488684615447"><ele>112.5</ele><time>2026-04-06T16:30:04Z</time></trkpt><trkpt lat="33.494420153087965" lon="9.434152543061973"><ele>113.0</ele><time>2026-04-06T16:30:05Z</time></trkpt><trkpt lat="33.49443281884223" lon="9.433815494637942"><ele>113.5</ele><time>2026-04-06T16:30:06Z</time></trkpt><trkpt lat="33.494450595230894" lon="9.433477151896934"><ele>114.0</ele><time>2026-04-06T16:30:07Z</time></trkpt><trkpt lat="33.49447932338188" lon="9.433140669272051"><ele>114.5</ele><time>2026-04-06T16:30:08.001Z</time></trkpt><trkpt lat="33.49451612782728" lon="9.432802574489193"><ele>115.0</ele><time>2026-04-06T16:30:09.001Z</time></trkpt><trkpt lat="33.49455781602628" lon="9.43246039985512"><ele>115.5</ele><time>2026-04-06T16:30:10.001Z</time></trkpt><trkpt lat="33.49459994149882" lon="9.432117204502015"><ele>116.0</ele><time>2026-04-06T16:30:11.001Z</time></trkpt><trkpt lat="33.49464367206659" lon="9.43177406983204"><ele>116.0</ele><time>2026-04-06T16:30:12.001Z</time></trkpt><trkpt lat="33.49469863465515" lon="9.431434327734697"><ele>116.0</ele><time>2026-04-06T16:30:13.001Z</time></trkpt><trkpt lat="33.494765693063144" lon="9.431098502930443"><ele>116.0</ele><time>2026-04-06T16:30:14.001Z</time></trkpt><trkpt lat="33.49483784191761" lon="9.43076130066052"><ele>116.0</ele><time>2026-04-06T16:30:15.001Z</time></trkpt><trkpt lat="33.49491132381135" lon="9.43042858181777"><ele>115.5</ele><time>2026-04-06T16:30:16.001Z</time></trkpt><trkpt lat="33.49498594558074" lon="9.430097818447523"><ele>115.0</ele><time>2026-04-06T16:30:17.001Z</time></trkpt><trkpt lat="33.495061277638015" lon="9.429770406097278"><ele>114.5</ele><time>2026-04-06T16:30:18.001Z</time></trkpt><trkpt lat="33.4951380904048" lon="9.429443327423316"><ele>114.0</ele><time>2026-04-06T16:30:19.001Z</time></trkpt><trkpt lat="33.4952112608126" lon="9.429120074213516"><ele>114.5</ele><time>2026-04-06T16:30:20.001Z</time></trkpt><trkpt lat="33.49528320930538" lon="9.428797123191316"><ele>115.0</ele><time>2026-04-06T16:30:21.001Z</time></trkpt><trkpt lat="33.495354678842276" lon="9.428475636670997"><ele>114.5</ele><time>2026-04-06T16:30:22.001Z</time></trkpt><trkpt lat="33.49542652390264" lon="9.428154311842972"><ele>114.0</ele><time>2026-04-06T16:30:23.001Z</time></trkpt><trkpt lat="33.49549995468929" lon="9.427826269810682"><ele>115.0</ele><time>2026-04-06T16:30:24.001Z</time></trkpt><trkpt lat="33.495573908872956" lon="9.42750105276685"><ele>116.0</ele><time>2026-04-06T16:30:25.001Z</time></trkpt><trkpt lat="33.49564825197617" lon="9.427179416540307"><ele>115.5</ele><time>2026-04-06T16:30:26.001Z</time></trkpt><trkpt lat="33.49572343690271" lon="9.426855526060496"><ele>115.0</ele><time>2026-04-06T16:30:27.001Z</time></trkpt><trkpt lat="33.49579631186307" lon="9.426536138917816"><ele>114.0</ele><time>2026-04-06T16:30:28.001Z</time></trkpt><trkpt lat="33.495870171746915" lon="9.426215630867345"><ele>113.0</ele><time>2026-04-06T16:30:29.001Z</time></trkpt><trkpt lat="33.49594345945386" lon="9.425895286333034"><ele>113.0</ele><time>2026-04-06T16:30:30.001Z</time></trkpt><trkpt lat="33.49601726576259" lon="9.425574540502478"><ele>113.0</ele><time>2026-04-06T16:30:31.001Z</time></trkpt><trkpt lat="33.49609079700431" lon="9.425250130729786"><ele>113.0</ele><time>2026-04-06T16:30:32.001Z</time></trkpt><trkpt lat="33.496165073035066" lon="9.424929326872814"><ele>113.0</ele><time>2026-04-06T16:30:33.001Z</time></trkpt><trkpt lat="33.49623874209153" lon="9.42460401007913"><ele>112.5</ele><time>2026-04-06T16:30:34.001Z</time></trkpt><trkpt lat="33.49631131263027" lon="9.424288438573807"><ele>112.0</ele><time>2026-04-06T16:30:35.001Z</time></trkpt><trkpt lat="33.496385110434524" lon="9.423969897983723"><ele>112.0</ele><time>2026-04-06T16:30:36.001Z</time></trkpt><trkpt lat="33.49646224658423" lon="9.423649309966356"><ele>112.0</ele><time>2026-04-06T16:30:37.001Z</time></trkpt><trkpt lat="33.49654087619831" lon="9.423326030096913"><ele>112.0</ele><time>2026-04-06T16:30:38.001Z</time></trkpt><trkpt lat="33.496615778676905" lon="9.42300488679551"><ele>112.0</ele><time>2026-04-06T16:30:39.001Z</time></trkpt><trkpt lat="33.49668437651018" lon="9.422683442040562"><ele>112.5</ele><time>2026-04-06T16:30:40.001Z</time></trkpt><trkpt lat="33.49675220615778" lon="9.422368479302628"><ele>113.0</ele><time>2026-04-06T16:30:41.001Z</time></trkpt><trkpt lat="33.49682131744379" lon="9.422060897598408"><ele>113.0</ele><time>2026-04-06T16:30:42.001Z</time></trkpt><trkpt lat="33.49688884922276" lon="9.421768340346409"><ele>113.0</ele><time>2026-04-06T16:30:43.001Z</time></trkpt><trkpt lat="33.49695895148551" lon="9.421477658193567"><ele>112.0</ele><time>2026-04-06T16:30:44.001Z</time></trkpt><trkpt lat="33.49702910248933" lon="9.421183122078801"><ele>111.0</ele><time>2026-04-06T16:30:45.001Z</time></trkpt><trkpt lat="33.49709952627152" lon="9.420883925626654"><ele>111.0</ele><time>2026-04-06T16:30:46.001Z</time></trkpt><trkpt lat="33.49716960907255" lon="9.420573538414247"><ele>111.0</ele><time>2026-04-06T16:30:47.001Z</time></trkpt><trkpt lat="33.49723874613485" lon="9.420255694304101"><ele>111.0</ele><time>2026-04-06T16:30:48.001Z</time></trkpt><trkpt lat="33.4973084438856" lon="9.419933254482597"><ele>111.0</ele><time>2026-04-06T16:30:49.001Z</time></trkpt><trkpt lat="33.49737608343222" lon="9.41961241210283"><ele>111.0</ele><time>2026-04-06T16:30:50.001Z</time></trkpt><trkpt lat="33.49744513716768" lon="9.419296493918312"><ele>111.0</ele><time>2026-04-06T16:30:51.001Z</time></trkpt><trkpt lat="33.49751602179298" lon="9.418983225089049"><ele>112.0</ele><time>2026-04-06T16:30:52.001Z</time></trkpt><trkpt lat="33.49758900470016" lon="9.418673293811366"><ele>113.0</ele><time>2026-04-06T16:30:53.001Z</time></trkpt><trkpt lat="33.49766205846106" lon="9.418369886640747"><ele>113.0</ele><time>2026-04-06T16:30:54.001Z</time></trkpt><trkpt lat="33.49773490033029" lon="9.418062990017"><ele>113.0</ele><time>2026-04-06T16:30:55.001Z</time></trkpt><trkpt lat="33.49780806408908" lon="9.417757380277047"><ele>113.5</ele><time>2026-04-06T16:30:56.001Z</time></trkpt><trkpt lat="33.4978785149096" lon="9.417455241055599"><ele>114.0</ele><time>2026-04-06T16:30:57.001Z</time></trkpt><trkpt lat="33.49794762805196" lon="9.41715055661645"><ele>114.0</ele><time>2026-04-06T16:30:58.001Z</time></trkpt><trkpt lat="33.498016444847" lon="9.416845894742478"><ele>114.0</ele><time>2026-04-06T16:30:59.001Z</time></trkpt><trkpt lat="33.49808621574739" lon="9.416542520949458"><ele>112.5</ele><time>2026-04-06T16:31:00.001Z</time></trkpt><trkpt lat="33.49815538953236" lon="9.416234561616115"><ele>111.0</ele><time>2026-04-06T16:31:01Z</time></trkpt><trkpt lat="33.49822191472332" lon="9.415924724190681"><ele>111.0</ele><time>2026-04-06T16:31:02Z</time></trkpt><trkpt lat="33.498289796927224" lon="9.415610264062503"><ele>111.0</ele><time>2026-04-06T16:31:03Z</time></trkpt><trkpt lat="33.49835291880443" lon="9.415295049153633"><ele>110.5</ele><time>2026-04-06T16:31:04Z</time></trkpt><trkpt lat="33.49841079247" lon="9.414975960958127"><ele>110.0</ele><time>2026-04-06T16:31:05Z</time></trkpt><trkpt lat="33.498464813469674" lon="9.414655895521637"><ele>110.5</ele><time>2026-04-06T16:31:06Z</time></trkpt><trkpt lat="33.4985178571489" lon="9.414336227458039"><ele>111.0</ele><time>2026-04-06T16:31:07Z</time></trkpt><trkpt lat="33.49857058109144" lon="9.414018322268326"><ele>111.5</ele><time>2026-04-06T16:31:08Z</time></trkpt><trkpt lat="33.49861995909115" lon="9.41370150091205"><ele>112.0</ele><time>2026-04-06T16:31:09Z</time></trkpt><trkpt lat="33.49866221951573" lon="9.413386817009929"><ele>112.0</ele><time>2026-04-06T16:31:10Z</time></trkpt><trkpt lat="33.498696433901905" lon="9.41307733089256"><ele>112.0</ele><time>2026-04-06T16:31:11Z</time></trkpt><trkpt lat="33.49872286369902" lon="9.41278865098158"><ele>111.5</ele><time>2026-04-06T16:31:12Z</time></trkpt><trkpt lat="33.498743700049765" lon="9.412504001509642"><ele>111.0</ele><time>2026-04-06T16:31:13Z</time></trkpt><trkpt lat="33.49876256904814" lon="9.41222255292595"><ele>112.0</ele><time>2026-04-06T16:31:14Z</time></trkpt><trkpt lat="33.498781127648584" lon="9.411949905160094"><ele>113.0</ele><time>2026-04-06T16:31:15Z</time></trkpt><trkpt lat="33.498801235261055" lon="9.4116875813397"><ele>114.0</ele><time>2026-04-06T16:31:16Z</time></trkpt><trkpt lat="33.498819563639934" lon="9.4114305295581"><ele>113.66666666666666</ele><time>2026-04-06T16:31:17Z</time></trkpt><trkpt lat="33.498835043816456" lon="9.411178854434567"><ele>113.33333333333333</ele><time>2026-04-06T16:31:18Z</time></trkpt><trkpt lat="33.49884548705142" lon="9.410923747426152"><ele>113.0</ele><time>2026-04-06T16:31:19Z</time></trkpt><trkpt lat="33.498854353398094" lon="9.410660219585962"><ele>112.5</ele><time>2026-04-06T16:31:20Z</time></trkpt><trkpt lat="33.49885797317949" lon="9.410389974438136"><ele>112.0</ele><time>2026-04-06T16:31:21Z</time></trkpt><trkpt lat="33.49886037672794" lon="9.410114775621873"><ele>112.0</ele><time>2026-04-06T16:31:22Z</time></trkpt><trkpt lat="33.49885875287435" lon="9.409836124850434"><ele>112.0</ele><time>2026-04-06T16:31:23Z</time></trkpt><trkpt lat="33.49885869642427" lon="9.409558063370735"><ele>112.0</ele><time>2026-04-06T16:31:24Z</time></trkpt><trkpt lat="33.49885990143872" lon="9.409278601476114"><ele>112.0</ele><time>2026-04-06T16:31:25Z</time></trkpt><trkpt lat="33.49886058748879" lon="9.408996634227659"><ele>112.5</ele><time>2026-04-06T16:31:26Z</time></trkpt><trkpt lat="33.498861801065104" lon="9.40871199152182"><ele>113.0</ele><time>2026-04-06T16:31:27Z</time></trkpt><trkpt lat="33.49886163057886" lon="9.408423636605571"><ele>113.0</ele><time>2026-04-06T16:31:28Z</time></trkpt><trkpt lat="33.49886292298506" lon="9.40813332109907"><ele>113.0</ele><time>2026-04-06T16:31:29Z</time></trkpt><trkpt lat="33.49886579748022" lon="9.407845499767872"><ele>113.0</ele><time>2026-04-06T16:31:30Z</time></trkpt><trkpt lat="33.498867984030056" lon="9.40756067364192"><ele>113.0</ele><time>2026-04-06T16:31:31Z</time></trkpt><trkpt lat="33.49886793092119" lon="9.407276749976317"><ele>113.0</ele><time>2026-04-06T16:31:32Z</time></trkpt><trkpt lat="33.4988683428368" lon="9.40700308718687"><ele>113.0</ele><time>2026-04-06T16:31:33Z</time></trkpt><trkpt lat="33.498868517424874" lon="9.40672731339031"><ele>113.0</ele><time>2026-04-06T16:31:34Z</time></trkpt><trkpt lat="33.4988703929518" lon="9.406451753249842"><ele>113.0</ele><time>2026-04-06T16:31:35Z</time></trkpt><trkpt lat="33.49887208375636" lon="9.406170868891673"><ele>113.5</ele><time>2026-04-06T16:31:36Z</time></trkpt><trkpt lat="33.49887237464294" lon="9.40588696191778"><ele>114.0</ele><time>2026-04-06T16:31:37Z</time></trkpt><trkpt lat="33.4988723147714" lon="9.405597075698612"><ele>113.5</ele><time>2026-04-06T16:31:38Z</time></trkpt><trkpt lat="33.49887133955138" lon="9.405300709260036"><ele>113.0</ele><time>2026-04-06T16:31:39Z</time></trkpt><trkpt lat="33.4988692767731" lon="9.405000828616252"><ele>113.0</ele><time>2026-04-06T16:31:40Z</time></trkpt><trkpt lat="33.49886852615239" lon="9.404695076247897"><ele>113.0</ele><time>2026-04-06T16:31:41Z</time></trkpt><trkpt lat="33.49886916658922" lon="9.404391578639105"><ele>113.0</ele><time>2026-04-06T16:31:42Z</time></trkpt><trkpt lat="33.49887132058383" lon="9.404081003191488"><ele>113.0</ele><time>2026-04-06T16:31:43Z</time></trkpt><trkpt lat="33.49887567057757" lon="9.403770427416045"><ele>113.0</ele><time>2026-04-06T16:31:44Z</time></trkpt><trkpt lat="33.498878888051706" lon="9.403456831833232"><ele>113.0</ele><time>2026-04-06T16:31:45Z</time></trkpt><trkpt lat="33.49888223605992" lon="9.40313688388441"><ele>112.5</ele><time>2026-04-06T16:31:46Z</time></trkpt><trkpt lat="33.49888321180569" lon="9.402815968182155"><ele>112.0</ele><time>2026-04-06T16:31:47Z</time></trkpt><trkpt lat="33.49888559110341" lon="9.402494405387737"><ele>112.0</ele><time>2026-04-06T16:31:48Z</time></trkpt><trkpt lat="33.49888896429361" lon="9.402170251991231"><ele>112.0</ele><time>2026-04-06T16:31:49Z</time></trkpt><trkpt lat="33.49889003206219" lon="9.40184365566223"><ele>111.5</ele><time>2026-04-06T16:31:50Z</time></trkpt><trkpt lat="33.498889207503005" lon="9.401512996696278"><ele>111.0</ele><time>2026-04-06T16:31:51Z</time></trkpt><trkpt lat="33.4988881121996" lon="9.401180720267591"><ele>111.0</ele><time>2026-04-06T16:31:52Z</time></trkpt><trkpt lat="33.4988881506249" lon="9.400842533341526"><ele>111.0</ele><time>2026-04-06T16:31:53Z</time></trkpt><trkpt lat="33.498887722377965" lon="9.40049861740781"><ele>110.0</ele><time>2026-04-06T16:31:54Z</time></trkpt><trkpt lat="33.49888884611155" lon="9.400153182272044"><ele>109.0</ele><time>2026-04-06T16:31:55Z</time></trkpt><trkpt lat="33.49889233188871" lon="9.399799494629312"><ele>108.5</ele><time>2026-04-06T16:31:56Z</time></trkpt><trkpt lat="33.49889671274953" lon="9.39944593141134"><ele>108.0</ele><time>2026-04-06T16:31:57Z</time></trkpt><trkpt lat="33.49890002826005" lon="9.399084021115474"><ele>108.0</ele><time>2026-04-06T16:31:58Z</time></trkpt><trkpt lat="33.498904241973534" lon="9.39871835155151"><ele>108.0</ele><time>2026-04-06T16:31:59Z</time></trkpt><trkpt lat="33.498907202012916" lon="9.39834872596899"><ele>108.0</ele><time>2026-04-06T16:32:00Z</time></trkpt><trkpt lat="33.498909188803836" lon="9.397974304658062"><ele>108.0</ele><time>2026-04-06T16:32:01Z</time></trkpt><trkpt lat="33.49891023640846" lon="9.397606582679561"><ele>108.0</ele><time>2026-04-06T16:32:02Z</time></trkpt><trkpt lat="33.49891140158929" lon="9.397247298345981"><ele>108.0</ele><time>2026-04-06T16:32:03Z</time></trkpt><trkpt lat="33.49891321816915" lon="9.396895618918375"><ele>107.5</ele><time>2026-04-06T16:32:04Z</time></trkpt><trkpt lat="33.49891544054893" lon="9.39655307127411"><ele>107.0</ele><time>2026-04-06T16:32:05Z</time></trkpt><trkpt lat="33.498917449659466" lon="9.396219995759537"><ele>107.0</ele><time>2026-04-06T16:32:06Z</time></trkpt><trkpt lat="33.498919056652575" lon="9.395886978412436"><ele>107.0</ele><time>2026-04-06T16:32:07Z</time></trkpt><trkpt lat="33.498921058359805" lon="9.395560421638663"><ele>107.0</ele><time>2026-04-06T16:32:08Z</time></trkpt><trkpt lat="33.498921200711656" lon="9.395241338496792"><ele>107.0</ele><time>2026-04-06T16:32:09Z</time></trkpt><trkpt lat="33.49892243113719" lon="9.394927046247357"><ele>108.0</ele><time>2026-04-06T16:32:10Z</time></trkpt><trkpt lat="33.49892426982239" lon="9.394615679264373"><ele>109.0</ele><time>2026-04-06T16:32:11Z</time></trkpt><trkpt lat="33.49892509524228" lon="9.394303331887015"><ele>109.0</ele><time>2026-04-06T16:32:12Z</time></trkpt><trkpt lat="33.49892612516927" lon="9.393995176301724"><ele>109.0</ele><time>2026-04-06T16:32:13Z</time></trkpt><trkpt lat="33.49893218906278" lon="9.393681831171996"><ele>108.0</ele><time>2026-04-06T16:32:14.001Z</time></trkpt><trkpt lat="33.4989367418147" lon="9.393365649183911"><ele>107.0</ele><time>2026-04-06T16:32:15.001Z</time></trkpt><trkpt lat="33.49893660753452" lon="9.393043720991878"><ele>107.5</ele><time>2026-04-06T16:32:16.001Z</time></trkpt><trkpt lat="33.49893322587789" lon="9.392718948630375"><ele>108.0</ele><time>2026-04-06T16:32:17.001Z</time></trkpt><trkpt lat="33.49893232904723" lon="9.392387987338417"><ele>108.5</ele><time>2026-04-06T16:32:18.001Z</time></trkpt><trkpt lat="33.49893494541634" lon="9.392059090007054"><ele>109.0</ele><time>2026-04-06T16:32:19.001Z</time></trkpt><trkpt lat="33.49893917565681" lon="9.391724641277381"><ele>109.0</ele><time>2026-04-06T16:32:20.001Z</time></trkpt><trkpt lat="33.49894349060993" lon="9.391394284338372"><ele>109.0</ele><time>2026-04-06T16:32:21.001Z</time></trkpt><trkpt lat="33.49894597794588" lon="9.391060183799455"><ele>107.5</ele><time>2026-04-06T16:32:22.001Z</time></trkpt><trkpt lat="33.49894675373815" lon="9.39072597728231"><ele>106.0</ele><time>2026-04-06T16:32:23.001Z</time></trkpt><trkpt lat="33.49894817376507" lon="9.390393868286653"><ele>106.0</ele><time>2026-04-06T16:32:24.001Z</time></trkpt><trkpt lat="33.49894808712665" lon="9.390062742395953"><ele>106.0</ele><time>2026-04-06T16:32:25.001Z</time></trkpt><trkpt lat="33.49894388431799" lon="9.389727775062953"><ele>107.0</ele><time>2026-04-06T16:32:26.001Z</time></trkpt><trkpt lat="33.49893854710801" lon="9.389390417810748"><ele>108.0</ele><time>2026-04-06T16:32:27.001Z</time></trkpt><trkpt lat="33.498928808233366" lon="9.389050755615601"><ele>107.5</ele><time>2026-04-06T16:32:28.001Z</time></trkpt><trkpt lat="33.49891673264285" lon="9.388712093533005"><ele>107.0</ele><time>2026-04-06T16:32:29.001Z</time></trkpt><trkpt lat="33.498902678040885" lon="9.388369742527855"><ele>107.0</ele><time>2026-04-06T16:32:30.001Z</time></trkpt><trkpt lat="33.498883028434605" lon="9.388028534239215"><ele>107.0</ele><time>2026-04-06T16:32:31.001Z</time></trkpt><trkpt lat="33.498852940580896" lon="9.387688110553531"><ele>108.0</ele><time>2026-04-06T16:32:32.001Z</time></trkpt><trkpt lat="33.498812632375575" lon="9.387342726337737"><ele>109.0</ele><time>2026-04-06T16:32:33.001Z</time></trkpt><trkpt lat="33.49876520461553" lon="9.386998050473748"><ele>109.0</ele><time>2026-04-06T16:32:34.001Z</time></trkpt><trkpt lat="33.49871179310134" lon="9.386652195630749"><ele>109.0</ele><time>2026-04-06T16:32:35.001Z</time></trkpt><trkpt lat="33.4986532413626" lon="9.386304292082231"><ele>109.0</ele><time>2026-04-06T16:32:36.001Z</time></trkpt><trkpt lat="33.498587878006525" lon="9.385958589508801"><ele>109.0</ele><time>2026-04-06T16:32:37.001Z</time></trkpt><trkpt lat="33.49851539143375" lon="9.385612054116242"><ele>108.5</ele><time>2026-04-06T16:32:38.001Z</time></trkpt><trkpt lat="33.4984376035416" lon="9.385268285951971"><ele>108.0</ele><time>2026-04-06T16:32:39.001Z</time></trkpt><trkpt lat="33.49835305387558" lon="9.384924535352337"><ele>108.5</ele><time>2026-04-06T16:32:40.001Z</time></trkpt><trkpt lat="33.49826317164496" lon="9.384583778420364"><ele>109.0</ele><time>2026-04-06T16:32:41.001Z</time></trkpt><trkpt lat="33.49816478289875" lon="9.384245608746047"><ele>109.0</ele><time>2026-04-06T16:32:42.001Z</time></trkpt><trkpt lat="33.49805775103934" lon="9.383913140515865"><ele>109.0</ele><time>2026-04-06T16:32:43.001Z</time></trkpt><trkpt lat="33.49794452636067" lon="9.383581089711468"><ele>108.5</ele><time>2026-04-06T16:32:44.001Z</time></trkpt><trkpt lat="33.49782475262617" lon="9.383252942249767"><ele>108.0</ele><time>2026-04-06T16:32:45.001Z</time></trkpt><trkpt lat="33.49769977989072" lon="9.382926732250661"><ele>107.5</ele><time>2026-04-06T16:32:46.001Z</time></trkpt><trkpt lat="33.4975707682869" lon="9.38259995864192"><ele>107.0</ele><time>2026-04-06T16:32:47.001Z</time></trkpt><trkpt lat="33.49743747556678" lon="9.382275702631997"><ele>106.5</ele><time>2026-04-06T16:32:48Z</time></trkpt><trkpt lat="33.497298209658" lon="9.381957136637897"><ele>106.0</ele><time>2026-04-06T16:32:49Z</time></trkpt><trkpt lat="33.4971516571614" lon="9.381646668005587"><ele>105.5</ele><time>2026-04-06T16:32:50Z</time></trkpt><trkpt lat="33.496998868040436" lon="9.381347481948225"><ele>105.0</ele><time>2026-04-06T16:32:51Z</time></trkpt><trkpt lat="33.496846656625515" lon="9.38106157325667"><ele>105.0</ele><time>2026-04-06T16:32:52Z</time></trkpt><trkpt lat="33.49670466198526" lon="9.380791186204425"><ele>105.0</ele><time>2026-04-06T16:32:53Z</time></trkpt><trkpt lat="33.496572548720074" lon="9.380531862058657"><ele>105.5</ele><time>2026-04-06T16:32:54Z</time></trkpt><trkpt lat="33.49644794407037" lon="9.38028327734991"><ele>106.0</ele><time>2026-04-06T16:32:55Z</time></trkpt><trkpt lat="33.496324985840346" lon="9.380038555936107"><ele>106.0</ele><time>2026-04-06T16:32:56Z</time></trkpt><trkpt lat="33.49619978604067" lon="9.379792627937631"><ele>106.0</ele><time>2026-04-06T16:32:57Z</time></trkpt><trkpt lat="33.4960754370569" lon="9.37954900635456"><ele>106.5</ele><time>2026-04-06T16:32:58Z</time></trkpt><trkpt lat="33.49595156378879" lon="9.379301721465591"><ele>107.0</ele><time>2026-04-06T16:32:59Z</time></trkpt><trkpt lat="33.4958270856838" lon="9.379053567461256"><ele>105.5</ele><time>2026-04-06T16:33:00Z</time></trkpt><trkpt lat="33.49570270726002" lon="9.378807097386966"><ele>104.0</ele><time>2026-04-06T16:33:01Z</time></trkpt><trkpt lat="33.49557533462011" lon="9.378553196109442"><ele>104.0</ele><time>2026-04-06T16:33:02Z</time></trkpt><trkpt lat="33.49544787145741" lon="9.37830403670346"><ele>104.0</ele><time>2026-04-06T16:33:03Z</time></trkpt><trkpt lat="33.495317350487554" lon="9.378047712087662"><ele>103.5</ele><time>2026-04-06T16:33:04Z</time></trkpt><trkpt lat="33.4951871646765" lon="9.377788594603048"><ele>103.0</ele><time>2026-04-06T16:33:05Z</time></trkpt><trkpt lat="33.49505307747832" lon="9.37752511805343"><ele>103.0</ele><time>2026-04-06T16:33:06Z</time></trkpt><trkpt lat="33.494916818490694" lon="9.377263800042199"><ele>103.0</ele><time>2026-04-06T16:33:07Z</time></trkpt><trkpt lat="33.49478100423098" lon="9.377000454361074"><ele>103.5</ele><time>2026-04-06T16:33:08Z</time></trkpt><trkpt lat="33.494648750394155" lon="9.376736018591263"><ele>104.0</ele><time>2026-04-06T16:33:09Z</time></trkpt><trkpt lat="33.494517752753204" lon="9.376475154641824"><ele>103.5</ele><time>2026-04-06T16:33:10Z</time></trkpt><trkpt lat="33.49438536115392" lon="9.37621777243467"><ele>103.0</ele><time>2026-04-06T16:33:11Z</time></trkpt><trkpt lat="33.494249765829856" lon="9.375961744836655"><ele>103.0</ele><time>2026-04-06T16:33:12Z</time></trkpt><trkpt lat="33.49411507301684" lon="9.37570003674354"><ele>103.0</ele><time>2026-04-06T16:33:13Z</time></trkpt><trkpt lat="33.49398117634713" lon="9.375434877740336"><ele>103.5</ele><time>2026-04-06T16:33:14Z</time></trkpt><trkpt lat="33.49384681582792" lon="9.37516725016558"><ele>104.0</ele><time>2026-04-06T16:33:15Z</time></trkpt><trkpt lat="33.4937125362718" lon="9.37489488099181"><ele>104.0</ele><time>2026-04-06T16:33:16Z</time></trkpt><trkpt lat="33.493578512984776" lon="9.37462543361179"><ele>104.0</ele><time>2026-04-06T16:33:17Z</time></trkpt><trkpt lat="33.493444380846356" lon="9.374357762494963"><ele>104.0</ele><time>2026-04-06T16:33:18Z</time></trkpt><trkpt lat="33.49330617312397" lon="9.374088982033062"><ele>104.0</ele><time>2026-04-06T16:33:19Z</time></trkpt><trkpt lat="33.49316878485128" lon="9.373818114984509"><ele>104.0</ele><time>2026-04-06T16:33:20Z</time></trkpt><trkpt lat="33.49303227238184" lon="9.373545282935103"><ele>104.0</ele><time>2026-04-06T16:33:21Z</time></trkpt><trkpt lat="33.49289560755036" lon="9.373274438013182"><ele>105.0</ele><time>2026-04-06T16:33:22Z</time></trkpt><trkpt lat="33.49275738751907" lon="9.373004647182393"><ele>106.0</ele><time>2026-04-06T16:33:23Z</time></trkpt><trkpt lat="33.49262154447374" lon="9.372737280349508"><ele>106.0</ele><time>2026-04-06T16:33:24Z</time></trkpt><trkpt lat="33.49248665625665" lon="9.37247297411498"><ele>106.0</ele><time>2026-04-06T16:33:25Z</time></trkpt><trkpt lat="33.492352833982004" lon="9.372210028922614"><ele>105.5</ele><time>2026-04-06T16:33:26Z</time></trkpt><trkpt lat="33.49222069645574" lon="9.371943381624929"><ele>105.0</ele><time>2026-04-06T16:33:27Z</time></trkpt><trkpt lat="33.49208901720812" lon="9.371680291164644"><ele>105.0</ele><time>2026-04-06T16:33:28Z</time></trkpt><trkpt lat="33.49196674876946" lon="9.371438498946802"><ele>105.0</ele><time>2026-04-06T16:33:29Z</time></trkpt><trkpt lat="33.49184782459924" lon="9.371197846366444"><ele>105.5</ele><time>2026-04-06T16:33:30Z</time></trkpt><trkpt lat="33.49172705943601" lon="9.370948776445774"><ele>106.0</ele><time>2026-04-06T16:33:31Z</time></trkpt><trkpt lat="33.49159554007349" lon="9.370690100721255"><ele>106.0</ele><time>2026-04-06T16:33:32Z</time></trkpt><trkpt lat="33.49146065267293" lon="9.370436091282508"><ele>106.0</ele><time>2026-04-06T16:33:33Z</time></trkpt><trkpt lat="33.491323417507346" lon="9.37017930180011"><ele>105.5</ele><time>2026-04-06T16:33:34Z</time></trkpt><trkpt lat="33.49118781143363" lon="9.369917744913874"><ele>105.0</ele><time>2026-04-06T16:33:35Z</time></trkpt><trkpt lat="33.49104903591173" lon="9.369649879512888"><ele>105.0</ele><time>2026-04-06T16:33:36Z</time></trkpt><trkpt lat="33.49091162519481" lon="9.36937887945468"><ele>105.0</ele><time>2026-04-06T16:33:37Z</time></trkpt><trkpt lat="33.4907740607359" lon="9.36910994650194"><ele>105.0</ele><time>2026-04-06T16:33:38Z</time></trkpt><trkpt lat="33.4906330676778" lon="9.368831712992042"><ele>105.0</ele><time>2026-04-06T16:33:39Z</time></trkpt><trkpt lat="33.49049239698918" lon="9.36855559264537"><ele>105.5</ele><time>2026-04-06T16:33:40Z</time></trkpt><trkpt lat="33.49035021182273" lon="9.36827597456951"><ele>106.0</ele><time>2026-04-06T16:33:41Z</time></trkpt><trkpt lat="33.490214624505455" lon="9.368003766914343"><ele>106.0</ele><time>2026-04-06T16:33:42Z</time></trkpt><trkpt lat="33.49008291822036" lon="9.367738787423502"><ele>106.0</ele><time>2026-04-06T16:33:43Z</time></trkpt><trkpt lat="33.48995546064387" lon="9.367481385551367"><ele>106.0</ele><time>2026-04-06T16:33:44Z</time></trkpt><trkpt lat="33.48982590211226" lon="9.367225895241225"><ele>106.0</ele><time>2026-04-06T16:33:45Z</time></trkpt><trkpt lat="33.48969675342784" lon="9.366971240079371"><ele>105.5</ele><time>2026-04-06T16:33:46Z</time></trkpt><trkpt lat="33.48957553933885" lon="9.366731598610269"><ele>105.0</ele><time>2026-04-06T16:33:47Z</time></trkpt><trkpt lat="33.489462995145146" lon="9.366507431929437"><ele>105.0</ele><time>2026-04-06T16:33:48Z</time></trkpt><trkpt lat="33.489357721568474" lon="9.36629672540606"><ele>105.0</ele><time>2026-04-06T16:33:49Z</time></trkpt><trkpt lat="33.48925339149229" lon="9.366097506792054"><ele>105.0</ele><time>2026-04-06T16:33:50Z</time></trkpt><trkpt lat="33.489153227951554" lon="9.365902829033539"><ele>105.0</ele><time>2026-04-06T16:33:51Z</time></trkpt><trkpt lat="33.48905678825498" lon="9.36571292489665"><ele>105.0</ele><time>2026-04-06T16:33:52Z</time></trkpt><trkpt lat="33.488961993389545" lon="9.365528602053239"><ele>105.0</ele><time>2026-04-06T16:33:53Z</time></trkpt><trkpt lat="33.48887249123514" lon="9.365352477785978"><ele>105.33333333333334</ele><time>2026-04-06T16:33:54Z</time></trkpt><trkpt lat="33.48878490888816" lon="9.36518144626521"><ele>105.66666666666667</ele><time>2026-04-06T16:33:55Z</time></trkpt><trkpt lat="33.48869911590429" lon="9.365015419277618"><ele>106.0</ele><time>2026-04-06T16:33:56Z</time></trkpt><trkpt lat="33.48861736084094" lon="9.364857832492273"><ele>106.0</ele><time>2026-04-06T16:33:57Z</time></trkpt><trkpt lat="33.48853758692803" lon="9.36470641766976"><ele>106.0</ele><time>2026-04-06T16:33:58Z</time></trkpt><trkpt lat="33.488463857045566" lon="9.364563112692768"><ele>106.0</ele><time>2026-04-06T16:33:59Z</time></trkpt><trkpt lat="33.48839103509474" lon="9.364416598355263"><ele>106.0</ele><time>2026-04-06T16:34:00Z</time></trkpt><trkpt lat="33.48832163501816" lon="9.364274185168934"><ele>106.0</ele><time>2026-04-06T16:34:01Z</time></trkpt><trkpt lat="33.488252240319234" lon="9.364134258940298"><ele>106.0</ele><time>2026-04-06T16:34:02Z</time></trkpt><trkpt lat="33.48818472204285" lon="9.363999297580367"><ele>106.0</ele><time>2026-04-06T16:34:03Z</time></trkpt><trkpt lat="33.48811845431519" lon="9.363866984432157"><ele>106.0</ele><time>2026-04-06T16:34:04Z</time></trkpt><trkpt lat="33.48805542274511" lon="9.363741531560656"><ele>105.8</ele><time>2026-04-06T16:34:05Z</time></trkpt><trkpt lat="33.487995012424776" lon="9.363622187520265"><ele>105.6</ele><time>2026-04-06T16:34:06Z</time></trkpt><trkpt lat="33.48793323715325" lon="9.363512721295251"><ele>105.4</ele><time>2026-04-06T16:34:07Z</time></trkpt><trkpt lat="33.48787397742231" lon="9.363410141785783"><ele>105.2</ele><time>2026-04-06T16:34:08Z</time></trkpt><trkpt lat="33.487828512196856" lon="9.363317593864302"><ele>105.0</ele><time>2026-04-06T16:34:09Z</time></trkpt><trkpt lat="33.48779131709514" lon="9.363239196705749"><ele>105.33333333333333</ele><time>2026-04-06T16:34:10Z</time></trkpt><trkpt lat="33.487733930261385" lon="9.363104352131586"><ele>105.66666666666666</ele><time>2026-04-06T16:34:12Z</time></trkpt><trkpt lat="33.48769892211569" lon="9.363028752132497"><ele>106.0</ele><time>2026-04-06T16:34:13Z</time></trkpt><trkpt lat="33.48765629381829" lon="9.362956975625982"><ele>106.33333333333333</ele><time>2026-04-06T16:34:14Z</time></trkpt><trkpt lat="33.48761353091069" lon="9.362883686102565"><ele>106.66666666666666</ele><time>2026-04-06T16:34:15Z</time></trkpt><trkpt lat="33.48757686545767" lon="9.362818791123932"><ele>107.0</ele><time>2026-04-06T16:34:16Z</time></trkpt><trkpt lat="33.48752025363381" lon="9.36270213613971"><ele>106.99999999999999</ele><time>2026-04-06T16:34:18Z</time></trkpt><trkpt lat="33.48747049801869" lon="9.362600192982516"><ele>107.0</ele><time>2026-04-06T16:34:20.001Z</time></trkpt><trkpt lat="33.48740958260804" lon="9.362476539714308"><ele>107.0</ele><time>2026-04-06T16:34:22.001Z</time></trkpt><trkpt lat="33.48737123722351" lon="9.362406515701034"><ele>107.0</ele><time>2026-04-06T16:34:23.001Z</time></trkpt><trkpt lat="33.48732873774893" lon="9.362331240611006"><ele>106.99999999999999</ele><time>2026-04-06T16:34:24.001Z</time></trkpt><trkpt lat="33.48728674572308" lon="9.362250970968908"><ele>107.0</ele><time>2026-04-06T16:34:25.001Z</time></trkpt><trkpt lat="33.48724547496274" lon="9.362160872493437"><ele>107.16666666666666</ele><time>2026-04-06T16:34:26.001Z</time></trkpt><trkpt lat="33.48720407377475" lon="9.362073118785402"><ele>107.33333333333333</ele><time>2026-04-06T16:34:27.001Z</time></trkpt><trkpt lat="33.48715909683709" lon="9.361983198541168"><ele>107.5</ele><time>2026-04-06T16:34:28.001Z</time></trkpt><trkpt lat="33.48711294506483" lon="9.361889625200185"><ele>107.66666666666666</ele><time>2026-04-06T16:34:29.001Z</time></trkpt><trkpt lat="33.48706746294718" lon="9.361799183815975"><ele>107.83333333333333</ele><time>2026-04-06T16:34:30.001Z</time></trkpt><trkpt lat="33.48701942430578" lon="9.361705430726628"><ele>108.0</ele><time>2026-04-06T16:34:31.001Z</time></trkpt><trkpt lat="33.486972561093424" lon="9.361609072983793"><ele>107.80000000000001</ele><time>2026-04-06T16:34:32.001Z</time></trkpt><trkpt lat="33.4869248342992" lon="9.361512372650104"><ele>107.60000000000001</ele><time>2026-04-06T16:34:33.001Z</time></trkpt><trkpt lat="33.48687439605215" lon="9.361415230979967"><ele>107.39999999999999</ele><time>2026-04-06T16:34:34.001Z</time></trkpt><trkpt lat="33.486823974018066" lon="9.361312694478025"><ele>107.19999999999999</ele><time>2026-04-06T16:34:35.001Z</time></trkpt><trkpt lat="33.48677017254918" lon="9.361196246041903"><ele>107.0</ele><time>2026-04-06T16:34:36.001Z</time></trkpt><trkpt lat="33.486701620632395" lon="9.3610611576291"><ele>107.0</ele><time>2026-04-06T16:34:37Z</time></trkpt><trkpt lat="33.48662694755366" lon="9.360915930497953"><ele>107.0</ele><time>2026-04-06T16:34:38Z</time></trkpt><trkpt lat="33.48654675018935" lon="9.36075059667953"><ele>107.0</ele><time>2026-04-06T16:34:39Z</time></trkpt><trkpt lat="33.4864572326422" lon="9.36057623271233"><ele>106.66666666666666</ele><time>2026-04-06T16:34:40Z</time></trkpt><trkpt lat="33.48635905721077" lon="9.360395317929353"><ele>106.33333333333334</ele><time>2026-04-06T16:34:41Z</time></trkpt><trkpt lat="33.48625614688198" lon="9.360201645601176"><ele>106.0</ele><time>2026-04-06T16:34:42Z</time></trkpt><trkpt lat="33.48615591952457" lon="9.359995238185704"><ele>105.33333333333334</ele><time>2026-04-06T16:34:43Z</time></trkpt><trkpt lat="33.48605401861027" lon="9.359779826676883"><ele>104.66666666666666</ele><time>2026-04-06T16:34:44Z</time></trkpt><trkpt lat="33.485946922333426" lon="9.359562361077238"><ele>104.0</ele><time>2026-04-06T16:34:45Z</time></trkpt><trkpt lat="33.48583569706938" lon="9.359341503484972"><ele>103.66666666666666</ele><time>2026-04-06T16:34:46Z</time></trkpt><trkpt lat="33.485721787930345" lon="9.359118947379645"><ele>103.33333333333334</ele><time>2026-04-06T16:34:47Z</time></trkpt><trkpt lat="33.485604292360314" lon="9.358891348818794"><ele>103.0</ele><time>2026-04-06T16:34:48Z</time></trkpt><trkpt lat="33.48548934138145" lon="9.358664882283682"><ele>103.0</ele><time>2026-04-06T16:34:49Z</time></trkpt><trkpt lat="33.485374406682254" lon="9.358438964421437"><ele>103.0</ele><time>2026-04-06T16:34:50Z</time></trkpt><trkpt lat="33.48525784143443" lon="9.358206415731305"><ele>103.0</ele><time>2026-04-06T16:34:51Z</time></trkpt><trkpt lat="33.485138191806946" lon="9.3579694987267"><ele>103.0</ele><time>2026-04-06T16:34:52Z</time></trkpt><trkpt lat="33.485015006476395" lon="9.357735105008882"><ele>103.0</ele><time>2026-04-06T16:34:53Z</time></trkpt><trkpt lat="33.48488912811985" lon="9.357506590605118"><ele>103.0</ele><time>2026-04-06T16:34:54Z</time></trkpt><trkpt lat="33.4847601447366" lon="9.357278490315112"><ele>103.0</ele><time>2026-04-06T16:34:55Z</time></trkpt><trkpt lat="33.48462818729341" lon="9.357051453567356"><ele>104.5</ele><time>2026-04-06T16:34:56Z</time></trkpt><trkpt lat="33.48449310235152" lon="9.356827844835195"><ele>106.0</ele><time>2026-04-06T16:34:57Z</time></trkpt><trkpt lat="33.4843521602493" lon="9.356610446200765"><ele>106.0</ele><time>2026-04-06T16:34:58Z</time></trkpt><trkpt lat="33.48420894817737" lon="9.356395322383069"><ele>106.0</ele><time>2026-04-06T16:34:59Z</time></trkpt><trkpt lat="33.48406298938502" lon="9.356181548078695"><ele>106.0</ele><time>2026-04-06T16:35:00Z</time></trkpt><trkpt lat="33.4839121023187" lon="9.35596863638768"><ele>106.0</ele><time>2026-04-06T16:35:01Z</time></trkpt><trkpt lat="33.48375539868137" lon="9.355755337493418"><ele>106.0</ele><time>2026-04-06T16:35:02Z</time></trkpt><trkpt lat="33.48359422950107" lon="9.355545233858937"><ele>106.0</ele><time>2026-04-06T16:35:03Z</time></trkpt><trkpt lat="33.48342588446162" lon="9.355333232689205"><ele>106.0</ele><time>2026-04-06T16:35:04Z</time></trkpt><trkpt lat="33.48325324956269" lon="9.355122535785911"><ele>106.0</ele><time>2026-04-06T16:35:05Z</time></trkpt><trkpt lat="33.48307441046762" lon="9.354916651352235"><ele>106.0</ele><time>2026-04-06T16:35:06Z</time></trkpt><trkpt lat="33.48288705832247" lon="9.354715187879975"><ele>106.0</ele><time>2026-04-06T16:35:07Z</time></trkpt><trkpt lat="33.482690250451014" lon="9.354514833551773"><ele>106.0</ele><time>2026-04-06T16:35:08Z</time></trkpt><trkpt lat="33.48248591482241" lon="9.354314222411976"><ele>106.0</ele><time>2026-04-06T16:35:09Z</time></trkpt><trkpt lat="33.4822806357685" lon="9.354112618338425"><ele>106.0</ele><time>2026-04-06T16:35:10Z</time></trkpt><trkpt lat="33.48207254990523" lon="9.353909629367976"><ele>106.0</ele><time>2026-04-06T16:35:11Z</time></trkpt><trkpt lat="33.481863387038125" lon="9.353705841747269"><ele>106.0</ele><time>2026-04-06T16:35:12Z</time></trkpt><trkpt lat="33.48165145127546" lon="9.353502147176666"><ele>106.0</ele><time>2026-04-06T16:35:13Z</time></trkpt><trkpt lat="33.48143970176337" lon="9.353300361814926"><ele>104.5</ele><time>2026-04-06T16:35:14Z</time></trkpt><trkpt lat="33.4812252597212" lon="9.353096106994624"><ele>103.0</ele><time>2026-04-06T16:35:15Z</time></trkpt><trkpt lat="33.48101246724074" lon="9.352888632292583"><ele>102.0</ele><time>2026-04-06T16:35:16Z</time></trkpt><trkpt lat="33.48079314271235" lon="9.352679172686734"><ele>101.0</ele><time>2026-04-06T16:35:17Z</time></trkpt><trkpt lat="33.480569961435606" lon="9.352472586848073"><ele>102.5</ele><time>2026-04-06T16:35:18Z</time></trkpt><trkpt lat="33.48034927047384" lon="9.35226900687563"><ele>104.0</ele><time>2026-04-06T16:35:19Z</time></trkpt><trkpt lat="33.480137850509564" lon="9.352071111593677"><ele>104.0</ele><time>2026-04-06T16:35:20Z</time></trkpt><trkpt lat="33.479938536662566" lon="9.351878289810816"><ele>104.0</ele><time>2026-04-06T16:35:21Z</time></trkpt><trkpt lat="33.479743701458155" lon="9.351688848617957"><ele>104.5</ele><time>2026-04-06T16:35:22Z</time></trkpt><trkpt lat="33.47955576424312" lon="9.351505142981987"><ele>105.0</ele><time>2026-04-06T16:35:23Z</time></trkpt><trkpt lat="33.47937027826305" lon="9.35132278657903"><ele>105.0</ele><time>2026-04-06T16:35:24Z</time></trkpt><trkpt lat="33.479182170546025" lon="9.35114208652261"><ele>105.0</ele><time>2026-04-06T16:35:25Z</time></trkpt><trkpt lat="33.47899194337635" lon="9.350956716745799"><ele>105.0</ele><time>2026-04-06T16:35:26Z</time></trkpt><trkpt lat="33.478802303856895" lon="9.350767362723818"><ele>105.0</ele><time>2026-04-06T16:35:27Z</time></trkpt><trkpt lat="33.47860964773123" lon="9.35057664381704"><ele>105.5</ele><time>2026-04-06T16:35:28Z</time></trkpt><trkpt lat="33.478417495867305" lon="9.350392335903395"><ele>106.0</ele><time>2026-04-06T16:35:29Z</time></trkpt><trkpt lat="33.478226466603445" lon="9.350214491673519"><ele>106.0</ele><time>2026-04-06T16:35:30Z</time></trkpt><trkpt lat="33.47802963565451" lon="9.350033216271532"><ele>106.0</ele><time>2026-04-06T16:35:31Z</time></trkpt><trkpt lat="33.4778332114403" lon="9.34984670802417"><ele>104.0</ele><time>2026-04-06T16:35:32Z</time></trkpt><trkpt lat="33.47763333184543" lon="9.349656233948973"><ele>102.0</ele><time>2026-04-06T16:35:33Z</time></trkpt><trkpt lat="33.47742710399983" lon="9.34945961610925"><ele>102.0</ele><time>2026-04-06T16:35:34Z</time></trkpt><trkpt lat="33.47721660863436" lon="9.349261672625733"><ele>102.0</ele><time>2026-04-06T16:35:35Z</time></trkpt><trkpt lat="33.47700582155941" lon="9.34906158825702"><ele>102.0</ele><time>2026-04-06T16:35:36Z</time></trkpt><trkpt lat="33.47679590761534" lon="9.348863318962852"><ele>102.0</ele><time>2026-04-06T16:35:37Z</time></trkpt><trkpt lat="33.47658650837108" lon="9.348662470677121"><ele>102.0</ele><time>2026-04-06T16:35:38Z</time></trkpt><trkpt lat="33.47637607810852" lon="9.348459094749604"><ele>102.0</ele><time>2026-04-06T16:35:39Z</time></trkpt><trkpt lat="33.476164168416204" lon="9.348258021309757"><ele>103.0</ele><time>2026-04-06T16:35:40Z</time></trkpt><trkpt lat="33.475952074983006" lon="9.348056831064683"><ele>104.0</ele><time>2026-04-06T16:35:41Z</time></trkpt><trkpt lat="33.47573973257445" lon="9.347851315487233"><ele>104.0</ele><time>2026-04-06T16:35:42Z</time></trkpt><trkpt lat="33.47552930875941" lon="9.347640304993126"><ele>104.0</ele><time>2026-04-06T16:35:43Z</time></trkpt><trkpt lat="33.4753162181928" lon="9.347422839825224"><ele>104.0</ele><time>2026-04-06T16:35:44Z</time></trkpt><trkpt lat="33.47510307007104" lon="9.347203886355322"><ele>104.0</ele><time>2026-04-06T16:35:45Z</time></trkpt><trkpt lat="33.47489192696085" lon="9.346976714295371"><ele>104.0</ele><time>2026-04-06T16:35:46Z</time></trkpt><trkpt lat="33.47468049034235" lon="9.346745101063775"><ele>104.0</ele><time>2026-04-06T16:35:47Z</time></trkpt><trkpt lat="33.47447200164437" lon="9.346512656774749"><ele>103.5</ele><time>2026-04-06T16:35:48Z</time></trkpt><trkpt lat="33.47426205935426" lon="9.346278947653843"><ele>103.0</ele><time>2026-04-06T16:35:49Z</time></trkpt><trkpt lat="33.47405060288183" lon="9.346039972997522"><ele>103.0</ele><time>2026-04-06T16:35:50Z</time></trkpt><trkpt lat="33.47384137678225" lon="9.34579852961301"><ele>103.0</ele><time>2026-04-06T16:35:51Z</time></trkpt><trkpt lat="33.473631529681995" lon="9.345554760198427"><ele>102.0</ele><time>2026-04-06T16:35:52Z</time></trkpt><trkpt lat="33.473424724662436" lon="9.34530573912442"><ele>101.0</ele><time>2026-04-06T16:35:53Z</time></trkpt><trkpt lat="33.473223609966006" lon="9.345049219055147"><ele>101.0</ele><time>2026-04-06T16:35:54Z</time></trkpt><trkpt lat="33.47302207116775" lon="9.344786104614997"><ele>101.0</ele><time>2026-04-06T16:35:55Z</time></trkpt><trkpt lat="33.47282580152242" lon="9.344523505105014"><ele>101.0</ele><time>2026-04-06T16:35:56Z</time></trkpt><trkpt lat="33.47262695913593" lon="9.344257395870583"><ele>101.0</ele><time>2026-04-06T16:35:57Z</time></trkpt><trkpt lat="33.47243330824256" lon="9.343992382936383"><ele>101.0</ele><time>2026-04-06T16:35:58Z</time></trkpt><trkpt lat="33.47224545395833" lon="9.343723510156487"><ele>101.0</ele><time>2026-04-06T16:35:59Z</time></trkpt><trkpt lat="33.47205787143216" lon="9.343454815086812"><ele>101.5</ele><time>2026-04-06T16:36:00Z</time></trkpt><trkpt lat="33.47187408445215" lon="9.34318667300777"><ele>102.0</ele><time>2026-04-06T16:36:01Z</time></trkpt><trkpt lat="33.471693472367086" lon="9.342918038958652"><ele>102.0</ele><time>2026-04-06T16:36:02Z</time></trkpt><trkpt lat="33.47151621695638" lon="9.342642366741238"><ele>102.0</ele><time>2026-04-06T16:36:03Z</time></trkpt><trkpt lat="33.47133901147026" lon="9.34236203740513"><ele>102.5</ele><time>2026-04-06T16:36:04Z</time></trkpt><trkpt lat="33.471166422800124" lon="9.34207958208544"><ele>103.0</ele><time>2026-04-06T16:36:05Z</time></trkpt><trkpt lat="33.47099391418325" lon="9.341793859908577"><ele>103.0</ele><time>2026-04-06T16:36:06Z</time></trkpt><trkpt lat="33.47081866379631" lon="9.341502243028593"><ele>103.0</ele><time>2026-04-06T16:36:07Z</time></trkpt><trkpt lat="33.470646007661415" lon="9.341210227533075"><ele>102.5</ele><time>2026-04-06T16:36:08Z</time></trkpt><trkpt lat="33.47047753792631" lon="9.340919242509038"><ele>102.0</ele><time>2026-04-06T16:36:09Z</time></trkpt><trkpt lat="33.47031084530724" lon="9.340625192966373"><ele>101.0</ele><time>2026-04-06T16:36:10Z</time></trkpt><trkpt lat="33.47014516932686" lon="9.340322359116065"><ele>100.0</ele><time>2026-04-06T16:36:11Z</time></trkpt><trkpt lat="33.469989402296214" lon="9.340016832282961"><ele>99.0</ele><time>2026-04-06T16:36:12Z</time></trkpt><trkpt lat="33.46983643551387" lon="9.339707833776192"><ele>98.0</ele><time>2026-04-06T16:36:13Z</time></trkpt><trkpt lat="33.469685116236946" lon="9.339398268303299"><ele>98.5</ele><time>2026-04-06T16:36:14Z</time></trkpt><trkpt lat="33.46953739283463" lon="9.339090156058578"><ele>99.0</ele><time>2026-04-06T16:36:15Z</time></trkpt><trkpt lat="33.46939117048968" lon="9.338785096285854"><ele>99.0</ele><time>2026-04-06T16:36:16Z</time></trkpt><trkpt lat="33.46924911389969" lon="9.338479455266587"><ele>99.0</ele><time>2026-04-06T16:36:17Z</time></trkpt><trkpt lat="33.46911022287865" lon="9.338173474699841"><ele>99.0</ele><time>2026-04-06T16:36:18Z</time></trkpt><trkpt lat="33.46898053506503" lon="9.337881263864832"><ele>99.0</ele><time>2026-04-06T16:36:19Z</time></trkpt><trkpt lat="33.46885853961614" lon="9.337602250096873"><ele>99.0</ele><time>2026-04-06T16:36:20Z</time></trkpt><trkpt lat="33.46874431923887" lon="9.33732644046103"><ele>99.0</ele><time>2026-04-06T16:36:21Z</time></trkpt><trkpt lat="33.46863258274936" lon="9.337046056125288"><ele>99.5</ele><time>2026-04-06T16:36:22Z</time></trkpt><trkpt lat="33.468519474438786" lon="9.336760128521043"><ele>100.0</ele><time>2026-04-06T16:36:23Z</time></trkpt><trkpt lat="33.46840730754919" lon="9.336478674696936"><ele>100.5</ele><time>2026-04-06T16:36:24Z</time></trkpt><trkpt lat="33.46829703415657" lon="9.3362052990342"><ele>101.0</ele><time>2026-04-06T16:36:25Z</time></trkpt><trkpt lat="33.46819354365697" lon="9.335929815787132"><ele>101.0</ele><time>2026-04-06T16:36:26Z</time></trkpt><trkpt lat="33.468092622510305" lon="9.335648338581974"><ele>101.0</ele><time>2026-04-06T16:36:27Z</time></trkpt><trkpt lat="33.46799528723075" lon="9.335360818685576"><ele>101.0</ele><time>2026-04-06T16:36:28Z</time></trkpt><trkpt lat="33.46790104798842" lon="9.335072295936673"><ele>101.0</ele><time>2026-04-06T16:36:29Z</time></trkpt><trkpt lat="33.467808528974295" lon="9.334791296773751"><ele>100.5</ele><time>2026-04-06T16:36:30Z</time></trkpt><trkpt lat="33.4677099942447" lon="9.33450264005236"><ele>100.0</ele><time>2026-04-06T16:36:31Z</time></trkpt><trkpt lat="33.46761802152275" lon="9.33421629782085"><ele>100.0</ele><time>2026-04-06T16:36:32Z</time></trkpt><trkpt lat="33.46752655044422" lon="9.333925794802926"><ele>100.0</ele><time>2026-04-06T16:36:33Z</time></trkpt><trkpt lat="33.46744250816672" lon="9.333638487604171"><ele>99.5</ele><time>2026-04-06T16:36:34Z</time></trkpt><trkpt lat="33.46736266522958" lon="9.333351666703726"><ele>99.0</ele><time>2026-04-06T16:36:35Z</time></trkpt><trkpt lat="33.46728524534809" lon="9.333064621377643"><ele>98.5</ele><time>2026-04-06T16:36:36Z</time></trkpt><trkpt lat="33.46719295204492" lon="9.332781840680369"><ele>98.0</ele><time>2026-04-06T16:36:37Z</time></trkpt><trkpt lat="33.46709716147246" lon="9.33250022741757"><ele>99.5</ele><time>2026-04-06T16:36:38Z</time></trkpt><trkpt lat="33.46700592098145" lon="9.332214884522738"><ele>101.0</ele><time>2026-04-06T16:36:39Z</time></trkpt><trkpt lat="33.46691969691259" lon="9.331930903009011"><ele>101.0</ele><time>2026-04-06T16:36:40Z</time></trkpt><trkpt lat="33.46683375912605" lon="9.33164901887892"><ele>101.0</ele><time>2026-04-06T16:36:41Z</time></trkpt><trkpt lat="33.4667457979213" lon="9.331368963510311"><ele>100.5</ele><time>2026-04-06T16:36:42Z</time></trkpt><trkpt lat="33.46665715666335" lon="9.331087029839225"><ele>100.0</ele><time>2026-04-06T16:36:43Z</time></trkpt><trkpt lat="33.466571080791944" lon="9.330812477420865"><ele>99.0</ele><time>2026-04-06T16:36:44Z</time></trkpt><trkpt lat="33.46648750467413" lon="9.330532930510135"><ele>98.0</ele><time>2026-04-06T16:36:45Z</time></trkpt><trkpt lat="33.46640616371773" lon="9.330250993098975"><ele>98.0</ele><time>2026-04-06T16:36:46Z</time></trkpt><trkpt lat="33.46632298845871" lon="9.329966453936967"><ele>98.0</ele><time>2026-04-06T16:36:47Z</time></trkpt><trkpt lat="33.466236609064126" lon="9.329678468759537"><ele>99.0</ele><time>2026-04-06T16:36:48Z</time></trkpt><trkpt lat="33.46614607831755" lon="9.329385460142095"><ele>100.0</ele><time>2026-04-06T16:36:49Z</time></trkpt><trkpt lat="33.466053292226405" lon="9.329087135520084"><ele>100.0</ele><time>2026-04-06T16:36:50Z</time></trkpt><trkpt lat="33.465957455809544" lon="9.328782988964432"><ele>100.0</ele><time>2026-04-06T16:36:51Z</time></trkpt><trkpt lat="33.465862807479624" lon="9.328473261756617"><ele>100.0</ele><time>2026-04-06T16:36:52Z</time></trkpt><trkpt lat="33.46576786476988" lon="9.32815807309866"><ele>100.0</ele><time>2026-04-06T16:36:53Z</time></trkpt><trkpt lat="33.46567229710767" lon="9.327843915382545"><ele>99.0</ele><time>2026-04-06T16:36:54Z</time></trkpt><trkpt lat="33.46557224476615" lon="9.327523773925803"><ele>98.0</ele><time>2026-04-06T16:36:55Z</time></trkpt><trkpt lat="33.46547117533408" lon="9.32720486761724"><ele>98.5</ele><time>2026-04-06T16:36:56Z</time></trkpt><trkpt lat="33.46537548381845" lon="9.326885793170545"><ele>99.0</ele><time>2026-04-06T16:36:57Z</time></trkpt><trkpt lat="33.46527968472021" lon="9.326564915812646"><ele>99.0</ele><time>2026-04-06T16:36:58Z</time></trkpt><trkpt lat="33.46518021827272" lon="9.326240908390458"><ele>99.0</ele><time>2026-04-06T16:36:59Z</time></trkpt><trkpt lat="33.46508205615251" lon="9.325919362064514"><ele>99.0</ele><time>2026-04-06T16:37:00Z</time></trkpt><trkpt lat="33.46498136923839" lon="9.3255941336292"><ele>99.0</ele><time>2026-04-06T16:37:01Z</time></trkpt><trkpt lat="33.464880272627795" lon="9.325266593901699"><ele>99.0</ele><time>2026-04-06T16:37:02Z</time></trkpt><trkpt lat="33.464775699130406" lon="9.324939661022707"><ele>99.0</ele><time>2026-04-06T16:37:03Z</time></trkpt><trkpt lat="33.46466944465691" lon="9.324609980374886"><ele>100.0</ele><time>2026-04-06T16:37:04Z</time></trkpt><trkpt lat="33.46456572118282" lon="9.32427875400306"><ele>101.0</ele><time>2026-04-06T16:37:05Z</time></trkpt><trkpt lat="33.464464715900284" lon="9.323942583938521"><ele>101.5</ele><time>2026-04-06T16:37:06Z</time></trkpt><trkpt lat="33.464363480970725" lon="9.323602295293774"><ele>102.0</ele><time>2026-04-06T16:37:07Z</time></trkpt><trkpt lat="33.464259446156014" lon="9.323261854528909"><ele>101.5</ele><time>2026-04-06T16:37:08Z</time></trkpt><trkpt lat="33.46415438744495" lon="9.32291936604124"><ele>101.0</ele><time>2026-04-06T16:37:09Z</time></trkpt><trkpt lat="33.46404660202515" lon="9.322574195255738"><ele>101.0</ele><time>2026-04-06T16:37:10Z</time></trkpt><trkpt lat="33.463939167748016" lon="9.322231981666558"><ele>101.0</ele><time>2026-04-06T16:37:11Z</time></trkpt><trkpt lat="33.46383505150683" lon="9.321892840919226"><ele>100.0</ele><time>2026-04-06T16:37:12Z</time></trkpt><trkpt lat="33.46373628723877" lon="9.321561700296616"><ele>99.0</ele><time>2026-04-06T16:37:13Z</time></trkpt><trkpt lat="33.46364332896482" lon="9.321240016773118"><ele>99.0</ele><time>2026-04-06T16:37:14Z</time></trkpt><trkpt lat="33.46354980586052" lon="9.32092457102009"><ele>99.0</ele><time>2026-04-06T16:37:15Z</time></trkpt><trkpt lat="33.46345376886704" lon="9.320614724517714"><ele>99.5</ele><time>2026-04-06T16:37:16Z</time></trkpt><trkpt lat="33.46335547772397" lon="9.32030716355492"><ele>100.0</ele><time>2026-04-06T16:37:17Z</time></trkpt><trkpt lat="33.46325816531807" lon="9.319999689810096"><ele>100.5</ele><time>2026-04-06T16:37:18Z</time></trkpt><trkpt lat="33.463159920699105" lon="9.319683998450445"><ele>101.0</ele><time>2026-04-06T16:37:19Z</time></trkpt><trkpt lat="33.46306227760053" lon="9.319366697166881"><ele>101.0</ele><time>2026-04-06T16:37:20Z</time></trkpt><trkpt lat="33.46296427406167" lon="9.319045418510765"><ele>101.0</ele><time>2026-04-06T16:37:21Z</time></trkpt><trkpt lat="33.46286631207403" lon="9.318722532073302"><ele>100.5</ele><time>2026-04-06T16:37:22Z</time></trkpt><trkpt lat="33.462768187581176" lon="9.318396171995227"><ele>100.0</ele><time>2026-04-06T16:37:23Z</time></trkpt><trkpt lat="33.46266699229614" lon="9.31806716764626"><ele>100.0</ele><time>2026-04-06T16:37:24Z</time></trkpt><trkpt lat="33.46255991943521" lon="9.317735833734327"><ele>100.0</ele><time>2026-04-06T16:37:25Z</time></trkpt><trkpt lat="33.462453449955234" lon="9.317398692142985"><ele>102.0</ele><time>2026-04-06T16:37:26Z</time></trkpt><trkpt lat="33.46234943566994" lon="9.317060834290947"><ele>104.0</ele><time>2026-04-06T16:37:27Z</time></trkpt><trkpt lat="33.46224514748855" lon="9.31672087969074"><ele>103.5</ele><time>2026-04-06T16:37:28Z</time></trkpt><trkpt lat="33.46214494428807" lon="9.31638423168581"><ele>103.0</ele><time>2026-04-06T16:37:29Z</time></trkpt><trkpt lat="33.46204368003564" lon="9.316052284468817"><ele>103.0</ele><time>2026-04-06T16:37:30Z</time></trkpt><trkpt lat="33.46194206293747" lon="9.315730586427156"><ele>103.0</ele><time>2026-04-06T16:37:31Z</time></trkpt><trkpt lat="33.461839174418884" lon="9.315411783157543"><ele>102.0</ele><time>2026-04-06T16:37:32Z</time></trkpt><trkpt lat="33.46174013287074" lon="9.315099431259883"><ele>101.0</ele><time>2026-04-06T16:37:33Z</time></trkpt><trkpt lat="33.46164608792174" lon="9.314781286199409"><ele>100.5</ele><time>2026-04-06T16:37:34Z</time></trkpt><trkpt lat="33.46155295804687" lon="9.314458693045143"><ele>100.0</ele><time>2026-04-06T16:37:35Z</time></trkpt><trkpt lat="33.46145229550282" lon="9.31412657670972"><ele>100.0</ele><time>2026-04-06T16:37:36Z</time></trkpt><trkpt lat="33.4613385535002" lon="9.313781416866693"><ele>100.0</ele><time>2026-04-06T16:37:37Z</time></trkpt><trkpt lat="33.4612158959016" lon="9.313418433495153"><ele>99.0</ele><time>2026-04-06T16:37:38Z</time></trkpt><trkpt lat="33.46109036120856" lon="9.313035846495104"><ele>98.0</ele><time>2026-04-06T16:37:39Z</time></trkpt><trkpt lat="33.46096850992149" lon="9.312635012236273"><ele>98.5</ele><time>2026-04-06T16:37:40Z</time></trkpt><trkpt lat="33.46084762454285" lon="9.31222263970443"><ele>99.0</ele><time>2026-04-06T16:37:41Z</time></trkpt><trkpt lat="33.46072296926981" lon="9.31179953008054"><ele>99.0</ele><time>2026-04-06T16:37:42Z</time></trkpt><trkpt lat="33.460589198340244" lon="9.31136392847376"><ele>99.0</ele><time>2026-04-06T16:37:43Z</time></trkpt><trkpt lat="33.46045120221667" lon="9.310920289373858"><ele>99.0</ele><time>2026-04-06T16:37:44Z</time></trkpt><trkpt lat="33.460311647294624" lon="9.310466728958406"><ele>99.0</ele><time>2026-04-06T16:37:45Z</time></trkpt><trkpt lat="33.460176905183864" lon="9.310034519241773"><ele>99.5</ele><time>2026-04-06T16:37:46Z</time></trkpt><trkpt lat="33.460057130071775" lon="9.309633195162812"><ele>100.0</ele><time>2026-04-06T16:37:47Z</time></trkpt><trkpt lat="33.45993768147853" lon="9.309233404754758"><ele>100.0</ele><time>2026-04-06T16:37:48Z</time></trkpt><trkpt lat="33.4598162260798" lon="9.308837054998609"><ele>100.0</ele><time>2026-04-06T16:37:49Z</time></trkpt><trkpt lat="33.45968939708335" lon="9.308432809265314"><ele>99.5</ele><time>2026-04-06T16:37:50Z</time></trkpt><trkpt lat="33.459552725858664" lon="9.308005692858302"><ele>99.0</ele><time>2026-04-06T16:37:51Z</time></trkpt><trkpt lat="33.45941441981231" lon="9.307568954421486"><ele>99.0</ele><time>2026-04-06T16:37:52Z</time></trkpt><trkpt lat="33.45927317491811" lon="9.307122610700306"><ele>99.0</ele><time>2026-04-06T16:37:53Z</time></trkpt><trkpt lat="33.45913522010243" lon="9.306670923392659"><ele>99.5</ele><time>2026-04-06T16:37:54Z</time></trkpt><trkpt lat="33.45899956965852" lon="9.306221684857675"><ele>100.0</ele><time>2026-04-06T16:37:55Z</time></trkpt><trkpt lat="33.45886826808216" lon="9.30579375403438"><ele>101.5</ele><time>2026-04-06T16:37:56Z</time></trkpt><trkpt lat="33.458744983748076" lon="9.305388603590607"><ele>103.0</ele><time>2026-04-06T16:37:57Z</time></trkpt><trkpt lat="33.45863131761052" lon="9.305000985271255"><ele>102.0</ele><time>2026-04-06T16:37:58Z</time></trkpt><trkpt lat="33.45851719016516" lon="9.30462029763638"><ele>101.0</ele><time>2026-04-06T16:37:59Z</time></trkpt><trkpt lat="33.458403384041105" lon="9.304248639087168"><ele>101.5</ele><time>2026-04-06T16:38:00Z</time></trkpt><trkpt lat="33.45829612672723" lon="9.303904134680051"><ele>102.0</ele><time>2026-04-06T16:38:01Z</time></trkpt><trkpt lat="33.45818979238883" lon="9.303559347881123"><ele>102.0</ele><time>2026-04-06T16:38:02Z</time></trkpt><trkpt lat="33.45808551523765" lon="9.303216236060717"><ele>102.0</ele><time>2026-04-06T16:38:03Z</time></trkpt><trkpt lat="33.45798584104652" lon="9.302884937166356"><ele>102.0</ele><time>2026-04-06T16:38:04Z</time></trkpt><trkpt lat="33.457887330895865" lon="9.302560393702374"><ele>102.0</ele><time>2026-04-06T16:38:05Z</time></trkpt><trkpt lat="33.457791056577776" lon="9.30224297543017"><ele>102.0</ele><time>2026-04-06T16:38:06Z</time></trkpt><trkpt lat="33.45770140573684" lon="9.30193851367333"><ele>102.0</ele><time>2026-04-06T16:38:07Z</time></trkpt><trkpt lat="33.45761787836245" lon="9.301641466015191"><ele>101.5</ele><time>2026-04-06T16:38:08Z</time></trkpt><trkpt lat="33.457534894253705" lon="9.301337559383038"><ele>101.0</ele><time>2026-04-06T16:38:09Z</time></trkpt><trkpt lat="33.45745081059672" lon="9.301024649238173"><ele>101.0</ele><time>2026-04-06T16:38:10Z</time></trkpt><trkpt lat="33.45737163076203" lon="9.300707238442762"><ele>101.0</ele><time>2026-04-06T16:38:11Z</time></trkpt><trkpt lat="33.45729482740872" lon="9.300379653529545"><ele>101.5</ele><time>2026-04-06T16:38:12Z</time></trkpt><trkpt lat="33.457221510340865" lon="9.300045519099209"><ele>102.0</ele><time>2026-04-06T16:38:13Z</time></trkpt><trkpt lat="33.45714541770721" lon="9.299702856295784"><ele>103.0</ele><time>2026-04-06T16:38:14Z</time></trkpt><trkpt lat="33.4570743164802" lon="9.299365916922875"><ele>104.0</ele><time>2026-04-06T16:38:15Z</time></trkpt><trkpt lat="33.45700713955795" lon="9.299032391473757"><ele>103.0</ele><time>2026-04-06T16:38:16Z</time></trkpt><trkpt lat="33.456943095681154" lon="9.298693152620613"><ele>102.0</ele><time>2026-04-06T16:38:17Z</time></trkpt><trkpt lat="33.45688079667222" lon="9.298346778257274"><ele>103.0</ele><time>2026-04-06T16:38:18Z</time></trkpt><trkpt lat="33.456821845492804" lon="9.297993623099199"><ele>104.0</ele><time>2026-04-06T16:38:19Z</time></trkpt><trkpt lat="33.45676630296176" lon="9.297634382607557"><ele>104.0</ele><time>2026-04-06T16:38:20Z</time></trkpt><trkpt lat="33.45671264686944" lon="9.297271267764252"><ele>104.0</ele><time>2026-04-06T16:38:21Z</time></trkpt><trkpt lat="33.45666152200194" lon="9.296910871217603"><ele>105.0</ele><time>2026-04-06T16:38:22Z</time></trkpt><trkpt lat="33.456617106312216" lon="9.296553958417437"><ele>106.0</ele><time>2026-04-06T16:38:23Z</time></trkpt><trkpt lat="33.45657699095289" lon="9.296196312693258"><ele>107.5</ele><time>2026-04-06T16:38:24Z</time></trkpt><trkpt lat="33.45653917991753" lon="9.295840155798576"><ele>109.0</ele><time>2026-04-06T16:38:25Z</time></trkpt><trkpt lat="33.456502322475416" lon="9.295494654016677"><ele>109.5</ele><time>2026-04-06T16:38:26Z</time></trkpt><trkpt lat="33.45646873590871" lon="9.295156170368088"><ele>110.0</ele><time>2026-04-06T16:38:27Z</time></trkpt><trkpt lat="33.45643459008053" lon="9.29481789355406"><ele>110.5</ele><time>2026-04-06T16:38:28Z</time></trkpt><trkpt lat="33.45639819710831" lon="9.294480392534725"><ele>111.0</ele><time>2026-04-06T16:38:29Z</time></trkpt><trkpt lat="33.45636313733575" lon="9.294137070028086"><ele>111.5</ele><time>2026-04-06T16:38:30Z</time></trkpt><trkpt lat="33.456328449761244" lon="9.293790339408215"><ele>112.0</ele><time>2026-04-06T16:38:31Z</time></trkpt><trkpt lat="33.45629622692566" lon="9.293440251129061"><ele>113.5</ele><time>2026-04-06T16:38:32Z</time></trkpt><trkpt lat="33.456262891012194" lon="9.293089946891042"><ele>115.0</ele><time>2026-04-06T16:38:33Z</time></trkpt><trkpt lat="33.456228340634695" lon="9.29273887710274"><ele>115.0</ele><time>2026-04-06T16:38:34Z</time></trkpt><trkpt lat="33.45619185488239" lon="9.292401902067184"><ele>115.0</ele><time>2026-04-06T16:38:35Z</time></trkpt><trkpt lat="33.456155782929486" lon="9.292082202175536"><ele>115.0</ele><time>2026-04-06T16:38:36Z</time></trkpt><trkpt lat="33.456124889355344" lon="9.291774868618505"><ele>115.0</ele><time>2026-04-06T16:38:37Z</time></trkpt><trkpt lat="33.4560918227012" lon="9.291455158292216"><ele>114.5</ele><time>2026-04-06T16:38:38Z</time></trkpt><trkpt lat="33.45605554768659" lon="9.291122453044101"><ele>114.0</ele><time>2026-04-06T16:38:39Z</time></trkpt><trkpt lat="33.456019695243334" lon="9.290782541355199"><ele>115.0</ele><time>2026-04-06T16:38:40Z</time></trkpt><trkpt lat="33.45598664989612" lon="9.290438253870647"><ele>116.0</ele><time>2026-04-06T16:38:41Z</time></trkpt><trkpt lat="33.45595438210065" lon="9.29010051894043"><ele>116.0</ele><time>2026-04-06T16:38:42Z</time></trkpt><trkpt lat="33.45592411152815" lon="9.289783997832794"><ele>116.0</ele><time>2026-04-06T16:38:43Z</time></trkpt><trkpt lat="33.45589421469201" lon="9.289473036941494"><ele>115.5</ele><time>2026-04-06T16:38:44Z</time></trkpt><trkpt lat="33.4558625647597" lon="9.289159438844758"><ele>115.0</ele><time>2026-04-06T16:38:45Z</time></trkpt><trkpt lat="33.45582989903527" lon="9.288842785564617"><ele>113.5</ele><time>2026-04-06T16:38:46Z</time></trkpt><trkpt lat="33.45579629337585" lon="9.288519291951356"><ele>112.0</ele><time>2026-04-06T16:38:47Z</time></trkpt><trkpt lat="33.455762186507755" lon="9.2881921433163"><ele>111.5</ele><time>2026-04-06T16:38:48Z</time></trkpt><trkpt lat="33.455726933688126" lon="9.287867516086644"><ele>111.0</ele><time>2026-04-06T16:38:49Z</time></trkpt><trkpt lat="33.4556934139355" lon="9.287544096124027"><ele>112.5</ele><time>2026-04-06T16:38:50Z</time></trkpt><trkpt lat="33.45566211071657" lon="9.28722168463022"><ele>114.0</ele><time>2026-04-06T16:38:51Z</time></trkpt><trkpt lat="33.45563467307677" lon="9.28689727302911"><ele>114.0</ele><time>2026-04-06T16:38:52Z</time></trkpt><trkpt lat="33.45560556002978" lon="9.286574733363402"><ele>114.0</ele><time>2026-04-06T16:38:53Z</time></trkpt><trkpt lat="33.4555741787556" lon="9.286262656084103"><ele>113.5</ele><time>2026-04-06T16:38:54Z</time></trkpt><trkpt lat="33.455541967722695" lon="9.285957724532954"><ele>113.0</ele><time>2026-04-06T16:38:55Z</time></trkpt><trkpt lat="33.455511866639874" lon="9.285662704874126"><ele>112.5</ele><time>2026-04-06T16:38:56Z</time></trkpt><trkpt lat="33.455480384170144" lon="9.28537131024323"><ele>112.0</ele><time>2026-04-06T16:38:57Z</time></trkpt><trkpt lat="33.45544975692437" lon="9.28508335165287"><ele>111.5</ele><time>2026-04-06T16:38:58Z</time></trkpt><trkpt lat="33.45541888221836" lon="9.284799290163313"><ele>111.0</ele><time>2026-04-06T16:38:59Z</time></trkpt><trkpt lat="33.45539180273618" lon="9.284528656970176"><ele>111.0</ele><time>2026-04-06T16:39:00Z</time></trkpt><trkpt lat="33.455367003723474" lon="9.284267417350454"><ele>111.0</ele><time>2026-04-06T16:39:01Z</time></trkpt><trkpt lat="33.45534368522028" lon="9.284022007438887"><ele>111.0</ele><time>2026-04-06T16:39:02Z</time></trkpt><trkpt lat="33.455319603055706" lon="9.283772602268483"><ele>111.0</ele><time>2026-04-06T16:39:03Z</time></trkpt><trkpt lat="33.45529379489405" lon="9.28352004349391"><ele>111.0</ele><time>2026-04-06T16:39:04Z</time></trkpt><trkpt lat="33.45526980324145" lon="9.283261039037104"><ele>111.0</ele><time>2026-04-06T16:39:05Z</time></trkpt><trkpt lat="33.455243620672334" lon="9.283000531023516"><ele>111.0</ele><time>2026-04-06T16:39:06Z</time></trkpt><trkpt lat="33.45521712825105" lon="9.282736344537328"><ele>111.0</ele><time>2026-04-06T16:39:07Z</time></trkpt><trkpt lat="33.45519083080583" lon="9.282473807898638"><ele>111.0</ele><time>2026-04-06T16:39:08Z</time></trkpt><trkpt lat="33.45516817251391" lon="9.282211777135595"><ele>111.0</ele><time>2026-04-06T16:39:09Z</time></trkpt><trkpt lat="33.45514764265949" lon="9.281944338435396"><ele>111.0</ele><time>2026-04-06T16:39:10Z</time></trkpt><trkpt lat="33.45512952006239" lon="9.281665087592549"><ele>110.5</ele><time>2026-04-06T16:39:11Z</time></trkpt><trkpt lat="33.4551136162919" lon="9.281381493941959"><ele>110.0</ele><time>2026-04-06T16:39:12Z</time></trkpt><trkpt lat="33.45510088969992" lon="9.28109975846935"><ele>110.0</ele><time>2026-04-06T16:39:13Z</time></trkpt><trkpt lat="33.45509522704731" lon="9.280820472185795"><ele>110.0</ele><time>2026-04-06T16:39:14Z</time></trkpt><trkpt lat="33.45509045085314" lon="9.280544375757787"><ele>110.0</ele><time>2026-04-06T16:39:15Z</time></trkpt><trkpt lat="33.455083079718236" lon="9.280271488298245"><ele>110.0</ele><time>2026-04-06T16:39:16Z</time></trkpt><trkpt lat="33.45507948089958" lon="9.279999156227747"><ele>111.0</ele><time>2026-04-06T16:39:17Z</time></trkpt><trkpt lat="33.45508057331834" lon="9.2797250580129"><ele>112.0</ele><time>2026-04-06T16:39:18Z</time></trkpt><trkpt lat="33.455087233972534" lon="9.279456601041119"><ele>112.0</ele><time>2026-04-06T16:39:19Z</time></trkpt><trkpt lat="33.45509896385538" lon="9.27918912283573"><ele>112.0</ele><time>2026-04-06T16:39:20Z</time></trkpt><trkpt lat="33.45511338722492" lon="9.278923614893467"><ele>112.0</ele><time>2026-04-06T16:39:21Z</time></trkpt><trkpt lat="33.45512698135947" lon="9.278654903672047"><ele>111.33333333333334</ele><time>2026-04-06T16:39:22Z</time></trkpt><trkpt lat="33.45514130539535" lon="9.278391696248896"><ele>110.66666666666666</ele><time>2026-04-06T16:39:23Z</time></trkpt><trkpt lat="33.45515741148358" lon="9.278130391554004"><ele>110.0</ele><time>2026-04-06T16:39:24Z</time></trkpt><trkpt lat="33.45517457282423" lon="9.277864910135186"><ele>109.66666666666666</ele><time>2026-04-06T16:39:25Z</time></trkpt><trkpt lat="33.455191866935586" lon="9.27759867403341"><ele>109.33333333333334</ele><time>2026-04-06T16:39:26Z</time></trkpt><trkpt lat="33.455207262969466" lon="9.277331177301761"><ele>109.0</ele><time>2026-04-06T16:39:27Z</time></trkpt><trkpt lat="33.45522262341951" lon="9.277063871825222"><ele>108.5</ele><time>2026-04-06T16:39:28Z</time></trkpt><trkpt lat="33.455239817770014" lon="9.276792894816158"><ele>108.0</ele><time>2026-04-06T16:39:29Z</time></trkpt><trkpt lat="33.45525750840666" lon="9.276515089343592"><ele>107.0</ele><time>2026-04-06T16:39:30Z</time></trkpt><trkpt lat="33.455279840194244" lon="9.276235274704868"><ele>106.0</ele><time>2026-04-06T16:39:31Z</time></trkpt><trkpt lat="33.45530151657054" lon="9.27595364200214"><ele>106.0</ele><time>2026-04-06T16:39:32Z</time></trkpt><trkpt lat="33.45532564611626" lon="9.275670095906007"><ele>106.0</ele><time>2026-04-06T16:39:33Z</time></trkpt><trkpt lat="33.45534679426615" lon="9.275373180221235"><ele>106.0</ele><time>2026-04-06T16:39:34Z</time></trkpt><trkpt lat="33.455365640266855" lon="9.275071889266043"><ele>106.0</ele><time>2026-04-06T16:39:35Z</time></trkpt><trkpt lat="33.45538537881432" lon="9.274762333538368"><ele>107.0</ele><time>2026-04-06T16:39:36Z</time></trkpt><trkpt lat="33.45540506447804" lon="9.274451337257604"><ele>108.0</ele><time>2026-04-06T16:39:37Z</time></trkpt><trkpt lat="33.45542496032049" lon="9.274135489139729"><ele>108.0</ele><time>2026-04-06T16:39:38Z</time></trkpt><trkpt lat="33.45544581595662" lon="9.273819839660908"><ele>108.0</ele><time>2026-04-06T16:39:39Z</time></trkpt><trkpt lat="33.4554690218274" lon="9.273503444122596"><ele>108.5</ele><time>2026-04-06T16:39:40Z</time></trkpt><trkpt lat="33.45549060656616" lon="9.273184475412174"><ele>109.0</ele><time>2026-04-06T16:39:41Z</time></trkpt><trkpt lat="33.455510934568885" lon="9.272866664683844"><ele>109.0</ele><time>2026-04-06T16:39:42Z</time></trkpt><trkpt lat="33.45553141604553" lon="9.272547074975277"><ele>109.0</ele><time>2026-04-06T16:39:43Z</time></trkpt><trkpt lat="33.45555261808031" lon="9.27222834761933"><ele>109.0</ele><time>2026-04-06T16:39:44Z</time></trkpt><trkpt lat="33.455575462401676" lon="9.271911312258586"><ele>109.0</ele><time>2026-04-06T16:39:45Z</time></trkpt><trkpt lat="33.455596078795644" lon="9.271595907198714"><ele>108.0</ele><time>2026-04-06T16:39:46Z</time></trkpt><trkpt lat="33.455617767317186" lon="9.271283173303999"><ele>107.0</ele><time>2026-04-06T16:39:47Z</time></trkpt><trkpt lat="33.4556399851645" lon="9.2709685637053"><ele>107.0</ele><time>2026-04-06T16:39:48Z</time></trkpt><trkpt lat="33.45566244790952" lon="9.270655263717627"><ele>107.0</ele><time>2026-04-06T16:39:49Z</time></trkpt><trkpt lat="33.45568308795085" lon="9.27033694865809"><ele>106.5</ele><time>2026-04-06T16:39:50Z</time></trkpt><trkpt lat="33.45570316430259" lon="9.270017286816865"><ele>106.0</ele><time>2026-04-06T16:39:51Z</time></trkpt><trkpt lat="33.45572424912221" lon="9.269695553209193"><ele>106.0</ele><time>2026-04-06T16:39:52Z</time></trkpt><trkpt lat="33.45574319485723" lon="9.269371603035289"><ele>106.0</ele><time>2026-04-06T16:39:53Z</time></trkpt><trkpt lat="33.455762905504656" lon="9.26904319045594"><ele>106.0</ele><time>2026-04-06T16:39:54Z</time></trkpt><trkpt lat="33.45578424490562" lon="9.268714524762283"><ele>106.0</ele><time>2026-04-06T16:39:55Z</time></trkpt><trkpt lat="33.45580626364076" lon="9.268383394122955"><ele>105.0</ele><time>2026-04-06T16:39:56Z</time></trkpt><trkpt lat="33.45582990578257" lon="9.268054967143943"><ele>104.0</ele><time>2026-04-06T16:39:57Z</time></trkpt><trkpt lat="33.4558550868039" lon="9.267727565281247"><ele>104.0</ele><time>2026-04-06T16:39:58Z</time></trkpt><trkpt lat="33.45588099348946" lon="9.267398475775892"><ele>104.0</ele><time>2026-04-06T16:39:59Z</time></trkpt><trkpt lat="33.45590548280425" lon="9.267064050832136"><ele>103.0</ele><time>2026-04-06T16:40:00Z</time></trkpt><trkpt lat="33.4559289565293" lon="9.266729549932862"><ele>102.0</ele><time>2026-04-06T16:40:01Z</time></trkpt><trkpt lat="33.45595276453342" lon="9.266392272078098"><ele>101.5</ele><time>2026-04-06T16:40:02Z</time></trkpt><trkpt lat="33.45597686067928" lon="9.266054201547686"><ele>101.0</ele><time>2026-04-06T16:40:03Z</time></trkpt><trkpt lat="33.45600158993659" lon="9.265717114344637"><ele>101.0</ele><time>2026-04-06T16:40:04Z</time></trkpt><trkpt lat="33.45602812754342" lon="9.265382677890532"><ele>101.0</ele><time>2026-04-06T16:40:05Z</time></trkpt><trkpt lat="33.456050127601685" lon="9.265054700485514"><ele>101.0</ele><time>2026-04-06T16:40:06Z</time></trkpt><trkpt lat="33.45606996403902" lon="9.264726917814444"><ele>101.0</ele><time>2026-04-06T16:40:07Z</time></trkpt><trkpt lat="33.456091951436676" lon="9.264401220278128"><ele>101.0</ele><time>2026-04-06T16:40:08Z</time></trkpt><trkpt lat="33.45611337146278" lon="9.264072771417124"><ele>101.0</ele><time>2026-04-06T16:40:09Z</time></trkpt><trkpt lat="33.4561358595525" lon="9.263746163901008"><ele>100.0</ele><time>2026-04-06T16:40:10Z</time></trkpt><trkpt lat="33.45615669802397" lon="9.26342138245195"><ele>99.0</ele><time>2026-04-06T16:40:11Z</time></trkpt><trkpt lat="33.45617869427208" lon="9.263095510777525"><ele>99.0</ele><time>2026-04-06T16:40:12Z</time></trkpt><trkpt lat="33.456202872917196" lon="9.26278297496929"><ele>99.0</ele><time>2026-04-06T16:40:13Z</time></trkpt><trkpt lat="33.456227685319575" lon="9.262474872888912"><ele>98.5</ele><time>2026-04-06T16:40:14Z</time></trkpt><trkpt lat="33.4562522356857" lon="9.26215944013452"><ele>98.0</ele><time>2026-04-06T16:40:15Z</time></trkpt><trkpt lat="33.45627548914289" lon="9.261837716754231"><ele>98.0</ele><time>2026-04-06T16:40:16Z</time></trkpt><trkpt lat="33.4562932601531" lon="9.261513428918969"><ele>98.0</ele><time>2026-04-06T16:40:17Z</time></trkpt><trkpt lat="33.456307214723786" lon="9.26119106131778"><ele>97.0</ele><time>2026-04-06T16:40:18Z</time></trkpt><trkpt lat="33.45632601589341" lon="9.260870032481828"><ele>96.0</ele><time>2026-04-06T16:40:19Z</time></trkpt><trkpt lat="33.45634901747304" lon="9.26054913355036"><ele>96.0</ele><time>2026-04-06T16:40:20Z</time></trkpt><trkpt lat="33.45637168394047" lon="9.260235639964058"><ele>96.0</ele><time>2026-04-06T16:40:21Z</time></trkpt><trkpt lat="33.45639268903789" lon="9.25992198446632"><ele>96.0</ele><time>2026-04-06T16:40:22Z</time></trkpt><trkpt lat="33.45641436588032" lon="9.259608882071223"><ele>96.0</ele><time>2026-04-06T16:40:23Z</time></trkpt><trkpt lat="33.45643770215699" lon="9.259292945804573"><ele>96.0</ele><time>2026-04-06T16:40:24Z</time></trkpt><trkpt lat="33.45646133928623" lon="9.258977308464573"><ele>96.0</ele><time>2026-04-06T16:40:25Z</time></trkpt><trkpt lat="33.45648513992021" lon="9.258663166905817"><ele>95.0</ele><time>2026-04-06T16:40:26Z</time></trkpt><trkpt lat="33.4565082356323" lon="9.258347699352353"><ele>94.0</ele><time>2026-04-06T16:40:27Z</time></trkpt><trkpt lat="33.456531584696414" lon="9.258031597031296"><ele>94.0</ele><time>2026-04-06T16:40:28Z</time></trkpt><trkpt lat="33.45655373446412" lon="9.257715500187965"><ele>94.0</ele><time>2026-04-06T16:40:29Z</time></trkpt><trkpt lat="33.45657259372861" lon="9.257399204277167"><ele>93.5</ele><time>2026-04-06T16:40:30Z</time></trkpt><trkpt lat="33.456589508978766" lon="9.257083023940496"><ele>93.0</ele><time>2026-04-06T16:40:31Z</time></trkpt><trkpt lat="33.456607450158224" lon="9.256771640363995"><ele>93.0</ele><time>2026-04-06T16:40:32Z</time></trkpt><trkpt lat="33.45662790636658" lon="9.256453981754754"><ele>93.0</ele><time>2026-04-06T16:40:33Z</time></trkpt><trkpt lat="33.456649996078696" lon="9.256140765412194"><ele>93.0</ele><time>2026-04-06T16:40:34Z</time></trkpt><trkpt lat="33.456672864698575" lon="9.25582918304069"><ele>93.0</ele><time>2026-04-06T16:40:35Z</time></trkpt><trkpt lat="33.45669572415901" lon="9.255517451603854"><ele>93.0</ele><time>2026-04-06T16:40:36Z</time></trkpt><trkpt lat="33.456719115063365" lon="9.255203531320555"><ele>93.0</ele><time>2026-04-06T16:40:37Z</time></trkpt><trkpt lat="33.456740334065394" lon="9.254890291455983"><ele>93.0</ele><time>2026-04-06T16:40:38Z</time></trkpt><trkpt lat="33.45675877026175" lon="9.254580812208172"><ele>93.0</ele><time>2026-04-06T16:40:39Z</time></trkpt><trkpt lat="33.45677991783401" lon="9.25426549255678"><ele>92.5</ele><time>2026-04-06T16:40:40Z</time></trkpt><trkpt lat="33.45680128283704" lon="9.253952937383424"><ele>92.0</ele><time>2026-04-06T16:40:41Z</time></trkpt><trkpt lat="33.456823263209216" lon="9.253640830733536"><ele>92.0</ele><time>2026-04-06T16:40:42Z</time></trkpt><trkpt lat="33.456846638903194" lon="9.253326903205046"><ele>92.0</ele><time>2026-04-06T16:40:43Z</time></trkpt><trkpt lat="33.456868842271895" lon="9.253013870391527"><ele>91.5</ele><time>2026-04-06T16:40:44Z</time></trkpt><trkpt lat="33.456892042998824" lon="9.252699374666262"><ele>91.0</ele><time>2026-04-06T16:40:45Z</time></trkpt><trkpt lat="33.45691309629246" lon="9.252386552643"><ele>90.5</ele><time>2026-04-06T16:40:46Z</time></trkpt><trkpt lat="33.45693444266038" lon="9.252070229220001"><ele>90.0</ele><time>2026-04-06T16:40:47Z</time></trkpt><trkpt lat="33.456953464987436" lon="9.251750739592795"><ele>88.5</ele><time>2026-04-06T16:40:48Z</time></trkpt><trkpt lat="33.45697119479602" lon="9.251438099307995"><ele>87.0</ele><time>2026-04-06T16:40:49Z</time></trkpt><trkpt lat="33.45698956466781" lon="9.251119264649168"><ele>87.0</ele><time>2026-04-06T16:40:50Z</time></trkpt><trkpt lat="33.457008243148366" lon="9.250805153108383"><ele>87.0</ele><time>2026-04-06T16:40:51Z</time></trkpt><trkpt lat="33.457029437613286" lon="9.25048858740604"><ele>87.0</ele><time>2026-04-06T16:40:52Z</time></trkpt><trkpt lat="33.45704995941379" lon="9.250173344360244"><ele>87.0</ele><time>2026-04-06T16:40:53Z</time></trkpt><trkpt lat="33.457073776481884" lon="9.24985317358603"><ele>88.0</ele><time>2026-04-06T16:40:54Z</time></trkpt><trkpt lat="33.45709370530655" lon="9.24954232554347"><ele>89.0</ele><time>2026-04-06T16:40:55Z</time></trkpt><trkpt lat="33.45711459689441" lon="9.24922767059399"><ele>88.0</ele><time>2026-04-06T16:40:56Z</time></trkpt><trkpt lat="33.45713501564579" lon="9.248911471336545"><ele>87.0</ele><time>2026-04-06T16:40:57Z</time></trkpt><trkpt lat="33.45715650604145" lon="9.248596703752836"><ele>87.0</ele><time>2026-04-06T16:40:58Z</time></trkpt><trkpt lat="33.45717933860759" lon="9.248280046882261"><ele>87.0</ele><time>2026-04-06T16:40:59Z</time></trkpt><trkpt lat="33.45720152567834" lon="9.24796542829611"><ele>88.0</ele><time>2026-04-06T16:41:00Z</time></trkpt><trkpt lat="33.45722439348614" lon="9.247646420228946"><ele>89.0</ele><time>2026-04-06T16:41:01Z</time></trkpt><trkpt lat="33.45724655243905" lon="9.247328090261984"><ele>88.5</ele><time>2026-04-06T16:41:02Z</time></trkpt><trkpt lat="33.457272378754034" lon="9.247004473025678"><ele>88.0</ele><time>2026-04-06T16:41:03Z</time></trkpt><trkpt lat="33.45729742117498" lon="9.246678248407484"><ele>88.0</ele><time>2026-04-06T16:41:04Z</time></trkpt><trkpt lat="33.457321436841895" lon="9.246350342515907"><ele>88.0</ele><time>2026-04-06T16:41:05Z</time></trkpt><trkpt lat="33.45734385352491" lon="9.246025371883285"><ele>88.0</ele><time>2026-04-06T16:41:06Z</time></trkpt><trkpt lat="33.457368687033615" lon="9.245701696137766"><ele>88.0</ele><time>2026-04-06T16:41:07Z</time></trkpt><trkpt lat="33.45739365297375" lon="9.245376011702833"><ele>88.5</ele><time>2026-04-06T16:41:08Z</time></trkpt><trkpt lat="33.45741329041237" lon="9.245048633295879"><ele>89.0</ele><time>2026-04-06T16:41:09Z</time></trkpt><trkpt lat="33.457433122297125" lon="9.244717394211445"><ele>88.0</ele><time>2026-04-06T16:41:10Z</time></trkpt><trkpt lat="33.457454955532796" lon="9.244386350399513"><ele>87.0</ele><time>2026-04-06T16:41:11Z</time></trkpt><trkpt lat="33.457476960277695" lon="9.24405014959643"><ele>87.0</ele><time>2026-04-06T16:41:12Z</time></trkpt><trkpt lat="33.457500458415055" lon="9.243706817389175"><ele>87.0</ele><time>2026-04-06T16:41:13Z</time></trkpt><trkpt lat="33.45752437953957" lon="9.24335680675891"><ele>87.5</ele><time>2026-04-06T16:41:14Z</time></trkpt><trkpt lat="33.45754945850482" lon="9.243005645168852"><ele>88.0</ele><time>2026-04-06T16:41:15Z</time></trkpt><trkpt lat="33.457574237788585" lon="9.24265304482247"><ele>88.0</ele><time>2026-04-06T16:41:16Z</time></trkpt><trkpt lat="33.457598982613824" lon="9.242303369768926"><ele>88.0</ele><time>2026-04-06T16:41:17Z</time></trkpt><trkpt lat="33.45762375158243" lon="9.241953141820282"><ele>87.5</ele><time>2026-04-06T16:41:18Z</time></trkpt><trkpt lat="33.45764964121871" lon="9.241604885364895"><ele>87.0</ele><time>2026-04-06T16:41:19Z</time></trkpt><trkpt lat="33.45767389845175" lon="9.241255514366257"><ele>87.0</ele><time>2026-04-06T16:41:20Z</time></trkpt><trkpt lat="33.45769584832289" lon="9.240909141369693"><ele>87.0</ele><time>2026-04-06T16:41:21Z</time></trkpt><trkpt lat="33.45771830709236" lon="9.240561029453067"><ele>87.5</ele><time>2026-04-06T16:41:22Z</time></trkpt><trkpt lat="33.4577419297283" lon="9.240214210559222"><ele>88.0</ele><time>2026-04-06T16:41:23Z</time></trkpt><trkpt lat="33.45776555919071" lon="9.239863050379784"><ele>89.5</ele><time>2026-04-06T16:41:24Z</time></trkpt><trkpt lat="33.457789717753485" lon="9.239516465597218"><ele>91.0</ele><time>2026-04-06T16:41:25Z</time></trkpt><trkpt lat="33.4578121604552" lon="9.239165427966523"><ele>89.0</ele><time>2026-04-06T16:41:26Z</time></trkpt><trkpt lat="33.457837630520636" lon="9.238819345633537"><ele>87.0</ele><time>2026-04-06T16:41:27Z</time></trkpt><trkpt lat="33.45786180208999" lon="9.238472283553838"><ele>87.0</ele><time>2026-04-06T16:41:28Z</time></trkpt><trkpt lat="33.457884398337455" lon="9.238122811989825"><ele>87.0</ele><time>2026-04-06T16:41:29Z</time></trkpt><trkpt lat="33.45790520466667" lon="9.23777315357029"><ele>87.0</ele><time>2026-04-06T16:41:30Z</time></trkpt><trkpt lat="33.457926711682745" lon="9.237425048189817"><ele>87.0</ele><time>2026-04-06T16:41:31Z</time></trkpt><trkpt lat="33.457949960786344" lon="9.237077587934795"><ele>86.0</ele><time>2026-04-06T16:41:32Z</time></trkpt><trkpt lat="33.4579754476116" lon="9.23672998967654"><ele>85.0</ele><time>2026-04-06T16:41:33Z</time></trkpt><trkpt lat="33.45800225006987" lon="9.236383438459885"><ele>85.0</ele><time>2026-04-06T16:41:34Z</time></trkpt><trkpt lat="33.45802904495353" lon="9.23603618902086"><ele>85.0</ele><time>2026-04-06T16:41:35Z</time></trkpt><trkpt lat="33.45805385351186" lon="9.235689574136797"><ele>86.0</ele><time>2026-04-06T16:41:36Z</time></trkpt><trkpt lat="33.458079577006586" lon="9.23534701999239"><ele>87.0</ele><time>2026-04-06T16:41:37Z</time></trkpt><trkpt lat="33.45810537471037" lon="9.235005298862072"><ele>87.0</ele><time>2026-04-06T16:41:38Z</time></trkpt><trkpt lat="33.45812866747575" lon="9.23466234804451"><ele>87.0</ele><time>2026-04-06T16:41:39Z</time></trkpt><trkpt lat="33.458151946407206" lon="9.23431778751263"><ele>85.5</ele><time>2026-04-06T16:41:40Z</time></trkpt><trkpt lat="33.45817604294158" lon="9.23397057180383"><ele>84.0</ele><time>2026-04-06T16:41:41Z</time></trkpt><trkpt lat="33.45819768210339" lon="9.23361902997473"><ele>84.0</ele><time>2026-04-06T16:41:42Z</time></trkpt><trkpt lat="33.458216438743094" lon="9.233266087888596"><ele>84.0</ele><time>2026-04-06T16:41:43Z</time></trkpt><trkpt lat="33.45823778190432" lon="9.232914008365785"><ele>85.0</ele><time>2026-04-06T16:41:44Z</time></trkpt><trkpt lat="33.45825986724693" lon="9.232560634367768"><ele>86.0</ele><time>2026-04-06T16:41:45Z</time></trkpt><trkpt lat="33.45828261116918" lon="9.232209293751556"><ele>87.0</ele><time>2026-04-06T16:41:46Z</time></trkpt><trkpt lat="33.45830667593079" lon="9.231862507281711"><ele>88.0</ele><time>2026-04-06T16:41:47Z</time></trkpt><trkpt lat="33.45833117163662" lon="9.23151388863473"><ele>88.0</ele><time>2026-04-06T16:41:48Z</time></trkpt><trkpt lat="33.45835617299752" lon="9.23116691490221"><ele>88.0</ele><time>2026-04-06T16:41:49Z</time></trkpt><trkpt lat="33.45838154324259" lon="9.230820501103207"><ele>87.0</ele><time>2026-04-06T16:41:50Z</time></trkpt><trkpt lat="33.458405088227416" lon="9.230473796825752"><ele>86.0</ele><time>2026-04-06T16:41:51Z</time></trkpt><trkpt lat="33.45843029183421" lon="9.230126022613677"><ele>86.0</ele><time>2026-04-06T16:41:52Z</time></trkpt><trkpt lat="33.45845447573779" lon="9.229780467881298"><ele>86.0</ele><time>2026-04-06T16:41:53Z</time></trkpt><trkpt lat="33.458477793939224" lon="9.229433294513345"><ele>86.0</ele><time>2026-04-06T16:41:54Z</time></trkpt><trkpt lat="33.458500398623755" lon="9.229084095634649"><ele>86.0</ele><time>2026-04-06T16:41:55Z</time></trkpt><trkpt lat="33.45852167026579" lon="9.228741213321964"><ele>86.0</ele><time>2026-04-06T16:41:56Z</time></trkpt><trkpt lat="33.458546441305764" lon="9.22839242524047"><ele>86.0</ele><time>2026-04-06T16:41:57Z</time></trkpt><trkpt lat="33.45857051732436" lon="9.228044518147833"><ele>86.5</ele><time>2026-04-06T16:41:58Z</time></trkpt><trkpt lat="33.45859416685128" lon="9.227698443265677"><ele>87.0</ele><time>2026-04-06T16:41:59Z</time></trkpt><trkpt lat="33.45861837703353" lon="9.227350166677372"><ele>88.0</ele><time>2026-04-06T16:42:00Z</time></trkpt><trkpt lat="33.458640266872244" lon="9.22700076540827"><ele>89.0</ele><time>2026-04-06T16:42:01Z</time></trkpt><trkpt lat="33.458663207961955" lon="9.22665444184179"><ele>88.5</ele><time>2026-04-06T16:42:02Z</time></trkpt><trkpt lat="33.45868928833792" lon="9.22630499464812"><ele>88.0</ele><time>2026-04-06T16:42:03Z</time></trkpt><trkpt lat="33.458715140741845" lon="9.225959376550032"><ele>87.5</ele><time>2026-04-06T16:42:04Z</time></trkpt><trkpt lat="33.458742399694486" lon="9.225611645023028"><ele>87.0</ele><time>2026-04-06T16:42:05Z</time></trkpt><trkpt lat="33.458769554992024" lon="9.225262830023322"><ele>87.0</ele><time>2026-04-06T16:42:06Z</time></trkpt><trkpt lat="33.45879236069602" lon="9.224914228776193"><ele>87.0</ele><time>2026-04-06T16:42:07Z</time></trkpt><trkpt lat="33.458811646553634" lon="9.22456872233445"><ele>87.0</ele><time>2026-04-06T16:42:08Z</time></trkpt><trkpt lat="33.45883205682588" lon="9.224221965350859"><ele>87.0</ele><time>2026-04-06T16:42:09Z</time></trkpt><trkpt lat="33.45885384148754" lon="9.223873334682562"><ele>87.0</ele><time>2026-04-06T16:42:10Z</time></trkpt><trkpt lat="33.45887519109537" lon="9.22352928928792"><ele>87.0</ele><time>2026-04-06T16:42:11Z</time></trkpt><trkpt lat="33.45889814087262" lon="9.223177718634618"><ele>87.5</ele><time>2026-04-06T16:42:12Z</time></trkpt><trkpt lat="33.458920037744264" lon="9.222835024020766"><ele>88.0</ele><time>2026-04-06T16:42:13Z</time></trkpt><trkpt lat="33.45894607724392" lon="9.22248545349095"><ele>88.5</ele><time>2026-04-06T16:42:14Z</time></trkpt><trkpt lat="33.45897299211191" lon="9.222137583152186"><ele>89.0</ele><time>2026-04-06T16:42:15Z</time></trkpt><trkpt lat="33.45899891205868" lon="9.221793263526656"><ele>89.5</ele><time>2026-04-06T16:42:16Z</time></trkpt><trkpt lat="33.45902642683192" lon="9.221444140918146"><ele>90.0</ele><time>2026-04-06T16:42:17Z</time></trkpt><trkpt lat="33.45905239719969" lon="9.22109690015874"><ele>90.0</ele><time>2026-04-06T16:42:18Z</time></trkpt><trkpt lat="33.459074723746575" lon="9.220750861117466"><ele>90.0</ele><time>2026-04-06T16:42:19Z</time></trkpt><trkpt lat="33.459097441053856" lon="9.220403182626402"><ele>90.5</ele><time>2026-04-06T16:42:20Z</time></trkpt><trkpt lat="33.459120872623075" lon="9.2200542297283"><ele>91.0</ele><time>2026-04-06T16:42:21Z</time></trkpt><trkpt lat="33.459145383489066" lon="9.219709506609993"><ele>90.0</ele><time>2026-04-06T16:42:22Z</time></trkpt><trkpt lat="33.4591724322442" lon="9.219360215505004"><ele>89.0</ele><time>2026-04-06T16:42:23Z</time></trkpt><trkpt lat="33.45919983728544" lon="9.219014482238979"><ele>88.0</ele><time>2026-04-06T16:42:24Z</time></trkpt><trkpt lat="33.45922619312522" lon="9.218669102143817"><ele>87.0</ele><time>2026-04-06T16:42:25Z</time></trkpt><trkpt lat="33.45925059639319" lon="9.218322269237621"><ele>86.5</ele><time>2026-04-06T16:42:26Z</time></trkpt><trkpt lat="33.45927425965038" lon="9.217975146946804"><ele>86.0</ele><time>2026-04-06T16:42:27Z</time></trkpt><trkpt lat="33.45929705419679" lon="9.217627704415456"><ele>86.0</ele><time>2026-04-06T16:42:28Z</time></trkpt><trkpt lat="33.45931997019025" lon="9.217280801116388"><ele>86.0</ele><time>2026-04-06T16:42:29Z</time></trkpt><trkpt lat="33.45934271570425" lon="9.216932411584713"><ele>86.0</ele><time>2026-04-06T16:42:30Z</time></trkpt><trkpt lat="33.459365221740676" lon="9.216586624777497"><ele>86.0</ele><time>2026-04-06T16:42:31Z</time></trkpt><trkpt lat="33.45939062445023" lon="9.216238944587593"><ele>86.5</ele><time>2026-04-06T16:42:32Z</time></trkpt><trkpt lat="33.4594176587969" lon="9.215890315223868"><ele>87.0</ele><time>2026-04-06T16:42:33Z</time></trkpt><trkpt lat="33.459439609514625" lon="9.21554576409424"><ele>87.5</ele><time>2026-04-06T16:42:34Z</time></trkpt><trkpt lat="33.459460114252764" lon="9.215197588733417"><ele>88.0</ele><time>2026-04-06T16:42:35Z</time></trkpt><trkpt lat="33.45948018030429" lon="9.214848725922245"><ele>87.5</ele><time>2026-04-06T16:42:36Z</time></trkpt><trkpt lat="33.45950136976178" lon="9.21449837789267"><ele>87.0</ele><time>2026-04-06T16:42:37Z</time></trkpt><trkpt lat="33.459524374633425" lon="9.214149393183918"><ele>87.0</ele><time>2026-04-06T16:42:38Z</time></trkpt><trkpt lat="33.45954870373528" lon="9.21380118609592"><ele>87.0</ele><time>2026-04-06T16:42:39Z</time></trkpt><trkpt lat="33.459573028871155" lon="9.213455470256427"><ele>87.0</ele><time>2026-04-06T16:42:40Z</time></trkpt><trkpt lat="33.45959933942578" lon="9.213107244496086"><ele>87.0</ele><time>2026-04-06T16:42:41Z</time></trkpt><trkpt lat="33.45962875132362" lon="9.212758692036386"><ele>87.5</ele><time>2026-04-06T16:42:42Z</time></trkpt><trkpt lat="33.45965313970295" lon="9.212410221732283"><ele>88.0</ele><time>2026-04-06T16:42:43Z</time></trkpt><trkpt lat="33.45966891160115" lon="9.212062705569856"><ele>88.0</ele><time>2026-04-06T16:42:44Z</time></trkpt><trkpt lat="33.459684595697446" lon="9.211714570159963"><ele>88.0</ele><time>2026-04-06T16:42:45Z</time></trkpt><trkpt lat="33.45970483422098" lon="9.211365822387327"><ele>87.5</ele><time>2026-04-06T16:42:46Z</time></trkpt><trkpt lat="33.45972824918266" lon="9.211017431026674"><ele>87.0</ele><time>2026-04-06T16:42:47Z</time></trkpt><trkpt lat="33.45975116538279" lon="9.210669195595145"><ele>87.0</ele><time>2026-04-06T16:42:48Z</time></trkpt><trkpt lat="33.459774245351774" lon="9.210322926839115"><ele>87.0</ele><time>2026-04-06T16:42:49Z</time></trkpt><trkpt lat="33.459802244816494" lon="9.209974240550567"><ele>90.0</ele><time>2026-04-06T16:42:50Z</time></trkpt><trkpt lat="33.45982946935732" lon="9.209628766150646"><ele>93.0</ele><time>2026-04-06T16:42:51Z</time></trkpt><trkpt lat="33.459858629658164" lon="9.209280924100165"><ele>91.5</ele><time>2026-04-06T16:42:52Z</time></trkpt><trkpt lat="33.45988410419209" lon="9.208934719791966"><ele>90.0</ele><time>2026-04-06T16:42:53Z</time></trkpt><trkpt lat="33.45990683531477" lon="9.208585551776384"><ele>90.0</ele><time>2026-04-06T16:42:54Z</time></trkpt><trkpt lat="33.45992542214894" lon="9.208236907458533"><ele>90.0</ele><time>2026-04-06T16:42:55Z</time></trkpt><trkpt lat="33.45994501953497" lon="9.207887440626335"><ele>90.0</ele><time>2026-04-06T16:42:56Z</time></trkpt><trkpt lat="33.45997065925003" lon="9.207537403339991"><ele>90.0</ele><time>2026-04-06T16:42:57Z</time></trkpt><trkpt lat="33.45999607869266" lon="9.207191861114662"><ele>90.0</ele><time>2026-04-06T16:42:58Z</time></trkpt><trkpt lat="33.46002324498444" lon="9.206844234013483"><ele>90.0</ele><time>2026-04-06T16:42:59Z</time></trkpt><trkpt lat="33.460049735107894" lon="9.206495511412918"><ele>89.0</ele><time>2026-04-06T16:43:00Z</time></trkpt><trkpt lat="33.460075760357746" lon="9.206149310530995"><ele>88.0</ele><time>2026-04-06T16:43:01Z</time></trkpt><trkpt lat="33.460101294734635" lon="9.205804358421922"><ele>86.5</ele><time>2026-04-06T16:43:02Z</time></trkpt><trkpt lat="33.460127799195355" lon="9.205455790613978"><ele>85.0</ele><time>2026-04-06T16:43:03Z</time></trkpt><trkpt lat="33.46015052150646" lon="9.205107946953467"><ele>86.0</ele><time>2026-04-06T16:43:04Z</time></trkpt><trkpt lat="33.46016920962894" lon="9.20476118307631"><ele>87.0</ele><time>2026-04-06T16:43:05Z</time></trkpt><trkpt lat="33.46018992540466" lon="9.204413107406957"><ele>87.0</ele><time>2026-04-06T16:43:06Z</time></trkpt><trkpt lat="33.46021242480738" lon="9.204064531661261"><ele>87.0</ele><time>2026-04-06T16:43:07Z</time></trkpt><trkpt lat="33.460233896217574" lon="9.203712156209532"><ele>87.0</ele><time>2026-04-06T16:43:08Z</time></trkpt><trkpt lat="33.46025065304794" lon="9.203362375156686"><ele>87.0</ele><time>2026-04-06T16:43:09Z</time></trkpt><trkpt lat="33.460262721335994" lon="9.203014102475578"><ele>87.0</ele><time>2026-04-06T16:43:10Z</time></trkpt><trkpt lat="33.46027291658216" lon="9.202666062923278"><ele>87.0</ele><time>2026-04-06T16:43:11Z</time></trkpt><trkpt lat="33.46028029971664" lon="9.202318959057282"><ele>86.5</ele><time>2026-04-06T16:43:12Z</time></trkpt><trkpt lat="33.46028592880956" lon="9.201970616082319"><ele>86.0</ele><time>2026-04-06T16:43:13Z</time></trkpt><trkpt lat="33.46029141278349" lon="9.201621194434889"><ele>85.0</ele><time>2026-04-06T16:43:14Z</time></trkpt><trkpt lat="33.46029812205032" lon="9.201273311930327"><ele>84.0</ele><time>2026-04-06T16:43:15Z</time></trkpt><trkpt lat="33.460308984940035" lon="9.20092684001015"><ele>84.0</ele><time>2026-04-06T16:43:16Z</time></trkpt><trkpt lat="33.46032039007428" lon="9.200573565880426"><ele>84.0</ele><time>2026-04-06T16:43:17Z</time></trkpt><trkpt lat="33.46033024880422" lon="9.200224212016982"><ele>84.0</ele><time>2026-04-06T16:43:18Z</time></trkpt><trkpt lat="33.460337243975076" lon="9.199874239545384"><ele>84.0</ele><time>2026-04-06T16:43:19Z</time></trkpt><trkpt lat="33.460342506556565" lon="9.199525985973429"><ele>84.5</ele><time>2026-04-06T16:43:20Z</time></trkpt><trkpt lat="33.46034849225404" lon="9.199176462479207"><ele>85.0</ele><time>2026-04-06T16:43:21Z</time></trkpt><trkpt lat="33.460354216097066" lon="9.198828877439544"><ele>85.5</ele><time>2026-04-06T16:43:22Z</time></trkpt><trkpt lat="33.46036311303743" lon="9.198480285630348"><ele>86.0</ele><time>2026-04-06T16:43:23Z</time></trkpt><trkpt lat="33.46037526209113" lon="9.198132064381635"><ele>87.0</ele><time>2026-04-06T16:43:24Z</time></trkpt><trkpt lat="33.4603877435241" lon="9.1977819369821"><ele>88.0</ele><time>2026-04-06T16:43:25Z</time></trkpt><trkpt lat="33.460401407883445" lon="9.197432431381161"><ele>87.5</ele><time>2026-04-06T16:43:26Z</time></trkpt><trkpt lat="33.46041607405144" lon="9.197080116673034"><ele>87.0</ele><time>2026-04-06T16:43:27Z</time></trkpt><trkpt lat="33.460427346421504" lon="9.196732167299396"><ele>86.0</ele><time>2026-04-06T16:43:28Z</time></trkpt><trkpt lat="33.46043915103779" lon="9.196384082771763"><ele>85.0</ele><time>2026-04-06T16:43:29Z</time></trkpt><trkpt lat="33.46044990245019" lon="9.196033387002338"><ele>85.0</ele><time>2026-04-06T16:43:30Z</time></trkpt><trkpt lat="33.46045891216485" lon="9.19568838110399"><ele>85.0</ele><time>2026-04-06T16:43:31Z</time></trkpt><trkpt lat="33.46046691732309" lon="9.195340117989694"><ele>85.5</ele><time>2026-04-06T16:43:32Z</time></trkpt><trkpt lat="33.460474627610935" lon="9.194991418347533"><ele>86.0</ele><time>2026-04-06T16:43:33Z</time></trkpt><trkpt lat="33.46048321801061" lon="9.194643290466134"><ele>86.0</ele><time>2026-04-06T16:43:34Z</time></trkpt><trkpt lat="33.46049036518189" lon="9.194295368121054"><ele>86.0</ele><time>2026-04-06T16:43:35Z</time></trkpt><trkpt lat="33.46050042162945" lon="9.193945846511356"><ele>87.5</ele><time>2026-04-06T16:43:36Z</time></trkpt><trkpt lat="33.46050992798585" lon="9.193597940686029"><ele>89.0</ele><time>2026-04-06T16:43:37Z</time></trkpt><trkpt lat="33.460520214039036" lon="9.193248862823685"><ele>88.0</ele><time>2026-04-06T16:43:38Z</time></trkpt><trkpt lat="33.46052960714468" lon="9.192902922837224"><ele>87.0</ele><time>2026-04-06T16:43:39Z</time></trkpt><trkpt lat="33.46054200135087" lon="9.192549880497944"><ele>87.0</ele><time>2026-04-06T16:43:40Z</time></trkpt><trkpt lat="33.46055524070147" lon="9.192192752006402"><ele>87.0</ele><time>2026-04-06T16:43:41Z</time></trkpt><trkpt lat="33.46056937928011" lon="9.191835138056666"><ele>85.5</ele><time>2026-04-06T16:43:42Z</time></trkpt><trkpt lat="33.460581955012984" lon="9.191476431951246"><ele>84.0</ele><time>2026-04-06T16:43:43Z</time></trkpt><trkpt lat="33.460592362662155" lon="9.191118730081294"><ele>84.0</ele><time>2026-04-06T16:43:44Z</time></trkpt><trkpt lat="33.46060039732552" lon="9.190756895683506"><ele>84.0</ele><time>2026-04-06T16:43:45Z</time></trkpt><trkpt lat="33.460607125693556" lon="9.190388400027777"><ele>84.5</ele><time>2026-04-06T16:43:46Z</time></trkpt><trkpt lat="33.46061384020839" lon="9.190014626799321"><ele>85.0</ele><time>2026-04-06T16:43:47Z</time></trkpt><trkpt lat="33.46062089955746" lon="9.18963890624977"><ele>85.0</ele><time>2026-04-06T16:43:48Z</time></trkpt><trkpt lat="33.46062843767709" lon="9.189264053563047"><ele>85.0</ele><time>2026-04-06T16:43:49Z</time></trkpt><trkpt lat="33.460636948301975" lon="9.188889713383771"><ele>85.0</ele><time>2026-04-06T16:43:50Z</time></trkpt><trkpt lat="33.460646218696425" lon="9.18851136163299"><ele>85.0</ele><time>2026-04-06T16:43:51Z</time></trkpt><trkpt lat="33.46065677583618" lon="9.188134594582207"><ele>87.5</ele><time>2026-04-06T16:43:52Z</time></trkpt><trkpt lat="33.460668966332" lon="9.187757930466637"><ele>90.0</ele><time>2026-04-06T16:43:53Z</time></trkpt><trkpt lat="33.46068026542515" lon="9.187381532271523"><ele>89.0</ele><time>2026-04-06T16:43:54Z</time></trkpt><trkpt lat="33.46069169597313" lon="9.18700694647661"><ele>88.0</ele><time>2026-04-06T16:43:55Z</time></trkpt><trkpt lat="33.460700099405905" lon="9.186630939146694"><ele>87.5</ele><time>2026-04-06T16:43:56Z</time></trkpt><trkpt lat="33.46070936751442" lon="9.18625564612693"><ele>87.0</ele><time>2026-04-06T16:43:57Z</time></trkpt><trkpt lat="33.460720083165086" lon="9.185878227898371"><ele>87.0</ele><time>2026-04-06T16:43:58Z</time></trkpt><trkpt lat="33.46073286118783" lon="9.185504725355235"><ele>87.0</ele><time>2026-04-06T16:43:59Z</time></trkpt><trkpt lat="33.46074623273568" lon="9.185129144948899"><ele>87.0</ele><time>2026-04-06T16:44:00Z</time></trkpt><trkpt lat="33.46075968982969" lon="9.184756026927113"><ele>87.0</ele><time>2026-04-06T16:44:01Z</time></trkpt><trkpt lat="33.460774185887104" lon="9.184380904190016"><ele>87.0</ele><time>2026-04-06T16:44:02Z</time></trkpt><trkpt lat="33.46078784809977" lon="9.1840072574002"><ele>87.0</ele><time>2026-04-06T16:44:03Z</time></trkpt><trkpt lat="33.460799145249794" lon="9.183632436706336"><ele>87.0</ele><time>2026-04-06T16:44:04Z</time></trkpt><trkpt lat="33.460809594519034" lon="9.183259625126201"><ele>87.0</ele><time>2026-04-06T16:44:05Z</time></trkpt><trkpt lat="33.46082055681742" lon="9.182883237508042"><ele>88.0</ele><time>2026-04-06T16:44:06Z</time></trkpt><trkpt lat="33.46083072218308" lon="9.182508688456025"><ele>89.0</ele><time>2026-04-06T16:44:07Z</time></trkpt><trkpt lat="33.46084186500758" lon="9.182132711592699"><ele>89.0</ele><time>2026-04-06T16:44:08Z</time></trkpt><trkpt lat="33.46084951412108" lon="9.181759537282378"><ele>89.0</ele><time>2026-04-06T16:44:09Z</time></trkpt><trkpt lat="33.46085647572347" lon="9.181382904923423"><ele>88.0</ele><time>2026-04-06T16:44:10Z</time></trkpt><trkpt lat="33.46086539242223" lon="9.181005098207482"><ele>87.0</ele><time>2026-04-06T16:44:11Z</time></trkpt><trkpt lat="33.460876991939855" lon="9.180630662839791"><ele>89.0</ele><time>2026-04-06T16:44:12Z</time></trkpt><trkpt lat="33.46089196350424" lon="9.180255771669538"><ele>91.0</ele><time>2026-04-06T16:44:13Z</time></trkpt><trkpt lat="33.46090603430679" lon="9.179882085192181"><ele>91.0</ele><time>2026-04-06T16:44:14Z</time></trkpt><trkpt lat="33.46091822837085" lon="9.179506359141795"><ele>91.0</ele><time>2026-04-06T16:44:15Z</time></trkpt><trkpt lat="33.460929395799425" lon="9.179130094840211"><ele>89.5</ele><time>2026-04-06T16:44:16Z</time></trkpt><trkpt lat="33.46093980990424" lon="9.178755447896854"><ele>88.0</ele><time>2026-04-06T16:44:17Z</time></trkpt><trkpt lat="33.46094956242982" lon="9.178379263483526"><ele>87.5</ele><time>2026-04-06T16:44:18Z</time></trkpt><trkpt lat="33.460957727269566" lon="9.17800369108236"><ele>87.0</ele><time>2026-04-06T16:44:19Z</time></trkpt><trkpt lat="33.460966597099336" lon="9.177628391190156"><ele>89.0</ele><time>2026-04-06T16:44:20Z</time></trkpt><trkpt lat="33.46097711306646" lon="9.177252071709022"><ele>91.0</ele><time>2026-04-06T16:44:21Z</time></trkpt><trkpt lat="33.460987848195565" lon="9.176878049537203"><ele>90.5</ele><time>2026-04-06T16:44:22Z</time></trkpt><trkpt lat="33.46099950393026" lon="9.176501505697038"><ele>90.0</ele><time>2026-04-06T16:44:23Z</time></trkpt><trkpt lat="33.46100952669674" lon="9.176125456129423"><ele>90.0</ele><time>2026-04-06T16:44:24Z</time></trkpt><trkpt lat="33.46101900030194" lon="9.175749224292334"><ele>90.0</ele><time>2026-04-06T16:44:25Z</time></trkpt><trkpt lat="33.46102666640991" lon="9.175375542724545"><ele>90.5</ele><time>2026-04-06T16:44:26Z</time></trkpt><trkpt lat="33.46103545989529" lon="9.174997627469729"><ele>91.0</ele><time>2026-04-06T16:44:27Z</time></trkpt><trkpt lat="33.46104488116574" lon="9.174623180164446"><ele>89.5</ele><time>2026-04-06T16:44:28Z</time></trkpt><trkpt lat="33.461056802653204" lon="9.174266188091144"><ele>88.0</ele><time>2026-04-06T16:44:29Z</time></trkpt><trkpt lat="33.46106792656172" lon="9.173935214311093"><ele>87.0</ele><time>2026-04-06T16:44:30Z</time></trkpt><trkpt lat="33.46107860886939" lon="9.173605745583036"><ele>86.0</ele><time>2026-04-06T16:44:31Z</time></trkpt><trkpt lat="33.46108986694967" lon="9.173276624267515"><ele>85.5</ele><time>2026-04-06T16:44:32Z</time></trkpt><trkpt lat="33.46110018374213" lon="9.172943349203498"><ele>85.0</ele><time>2026-04-06T16:44:33Z</time></trkpt><trkpt lat="33.46110790697442" lon="9.172605886312946"><ele>84.5</ele><time>2026-04-06T16:44:34Z</time></trkpt><trkpt lat="33.46111599238321" lon="9.172269592048739"><ele>84.0</ele><time>2026-04-06T16:44:35Z</time></trkpt><trkpt lat="33.46112050780393" lon="9.171925181821559"><ele>84.0</ele><time>2026-04-06T16:44:36Z</time></trkpt><trkpt lat="33.461125552023645" lon="9.17157330660014"><ele>84.0</ele><time>2026-04-06T16:44:37Z</time></trkpt><trkpt lat="33.46112927074563" lon="9.171214339310106"><ele>84.5</ele><time>2026-04-06T16:44:38Z</time></trkpt><trkpt lat="33.46113253008283" lon="9.170850810109831"><ele>85.0</ele><time>2026-04-06T16:44:39Z</time></trkpt><trkpt lat="33.461140468417355" lon="9.170478943706966"><ele>85.0</ele><time>2026-04-06T16:44:40Z</time></trkpt><trkpt lat="33.46115151961484" lon="9.170099369237727"><ele>85.0</ele><time>2026-04-06T16:44:41Z</time></trkpt><trkpt lat="33.46116468780891" lon="9.169717573769539"><ele>85.0</ele><time>2026-04-06T16:44:42Z</time></trkpt><trkpt lat="33.461181522576204" lon="9.169332221423058"><ele>85.0</ele><time>2026-04-06T16:44:43Z</time></trkpt><trkpt lat="33.46120029082773" lon="9.168950666117967"><ele>85.0</ele><time>2026-04-06T16:44:44Z</time></trkpt><trkpt lat="33.461218992829764" lon="9.168574750152922"><ele>85.0</ele><time>2026-04-06T16:44:45Z</time></trkpt><trkpt lat="33.46123034185189" lon="9.168204203397517"><ele>84.5</ele><time>2026-04-06T16:44:46Z</time></trkpt><trkpt lat="33.461239631520364" lon="9.167829852768971"><ele>84.0</ele><time>2026-04-06T16:44:47Z</time></trkpt><trkpt lat="33.46124980400845" lon="9.167459360635013"><ele>86.5</ele><time>2026-04-06T16:44:48Z</time></trkpt><trkpt lat="33.46125897302332" lon="9.167092885026252"><ele>89.0</ele><time>2026-04-06T16:44:49Z</time></trkpt><trkpt lat="33.461269598264465" lon="9.16672628999624"><ele>86.0</ele><time>2026-04-06T16:44:50Z</time></trkpt><trkpt lat="33.461282473442594" lon="9.166363051112954"><ele>83.0</ele><time>2026-04-06T16:44:51Z</time></trkpt><trkpt lat="33.461293814508856" lon="9.166002450884333"><ele>84.5</ele><time>2026-04-06T16:44:52Z</time></trkpt><trkpt lat="33.46130509386078" lon="9.165646411374322"><ele>86.0</ele><time>2026-04-06T16:44:53Z</time></trkpt><trkpt lat="33.46131557268601" lon="9.165287910015717"><ele>86.0</ele><time>2026-04-06T16:44:54Z</time></trkpt><trkpt lat="33.46132518919427" lon="9.164931778749839"><ele>86.0</ele><time>2026-04-06T16:44:55Z</time></trkpt><trkpt lat="33.46133378809254" lon="9.164573947443685"><ele>87.0</ele><time>2026-04-06T16:44:56Z</time></trkpt><trkpt lat="33.46134292123951" lon="9.164213382095713"><ele>88.0</ele><time>2026-04-06T16:44:57Z</time></trkpt><trkpt lat="33.461352472197675" lon="9.163878966619965"><ele>88.0</ele><time>2026-04-06T16:44:58Z</time></trkpt><trkpt lat="33.461361775668436" lon="9.163561535065991"><ele>88.0</ele><time>2026-04-06T16:44:59Z</time></trkpt><trkpt lat="33.46137039013018" lon="9.163261697745218"><ele>86.0</ele><time>2026-04-06T16:45:00Z</time></trkpt><trkpt lat="33.46138264249574" lon="9.162963480752014"><ele>84.0</ele><time>2026-04-06T16:45:01Z</time></trkpt><trkpt lat="33.46139364470052" lon="9.162672722406011"><ele>84.0</ele><time>2026-04-06T16:45:02Z</time></trkpt><trkpt lat="33.461404832997594" lon="9.16237961491477"><ele>84.0</ele><time>2026-04-06T16:45:03Z</time></trkpt><trkpt lat="33.461411637537445" lon="9.162081022425618"><ele>83.0</ele><time>2026-04-06T16:45:04Z</time></trkpt><trkpt lat="33.461418334523636" lon="9.161781885963915"><ele>82.0</ele><time>2026-04-06T16:45:05Z</time></trkpt><trkpt lat="33.46142410662094" lon="9.161486556024336"><ele>84.5</ele><time>2026-04-06T16:45:06Z</time></trkpt><trkpt lat="33.4614326247472" lon="9.161195281493466"><ele>87.0</ele><time>2026-04-06T16:45:07Z</time></trkpt><trkpt lat="33.46144232113721" lon="9.160906407245553"><ele>89.5</ele><time>2026-04-06T16:45:08Z</time></trkpt><trkpt lat="33.46145120624811" lon="9.160619895413436"><ele>92.0</ele><time>2026-04-06T16:45:09Z</time></trkpt><trkpt lat="33.46145914316734" lon="9.160326144547474"><ele>92.0</ele><time>2026-04-06T16:45:10Z</time></trkpt><trkpt lat="33.46146652856775" lon="9.160029007065713"><ele>92.0</ele><time>2026-04-06T16:45:11Z</time></trkpt><trkpt lat="33.461471603424634" lon="9.159726649301321"><ele>90.5</ele><time>2026-04-06T16:45:12Z</time></trkpt><trkpt lat="33.46147881661595" lon="9.15941802209394"><ele>89.0</ele><time>2026-04-06T16:45:13Z</time></trkpt><trkpt lat="33.461489343353406" lon="9.15909726132179"><ele>88.5</ele><time>2026-04-06T16:45:14Z</time></trkpt><trkpt lat="33.46150031520702" lon="9.158769643160044"><ele>88.0</ele><time>2026-04-06T16:45:15Z</time></trkpt><trkpt lat="33.461511795303025" lon="9.15845011683095"><ele>88.5</ele><time>2026-04-06T16:45:16Z</time></trkpt><trkpt lat="33.461519757243394" lon="9.158130127536161"><ele>89.0</ele><time>2026-04-06T16:45:17Z</time></trkpt><trkpt lat="33.46152384901644" lon="9.157805538585343"><ele>89.0</ele><time>2026-04-06T16:45:18Z</time></trkpt><trkpt lat="33.461521782311635" lon="9.157475239651381"><ele>89.0</ele><time>2026-04-06T16:45:19Z</time></trkpt><trkpt lat="33.46152201840945" lon="9.157138736596192"><ele>89.0</ele><time>2026-04-06T16:45:20Z</time></trkpt><trkpt lat="33.46152618703701" lon="9.156802649350768"><ele>89.0</ele><time>2026-04-06T16:45:21Z</time></trkpt><trkpt lat="33.461535322816616" lon="9.156462474876717"><ele>88.0</ele><time>2026-04-06T16:45:22Z</time></trkpt><trkpt lat="33.46154552524456" lon="9.156116710322406"><ele>87.0</ele><time>2026-04-06T16:45:23Z</time></trkpt><trkpt lat="33.46155955428196" lon="9.155766452739629"><ele>87.5</ele><time>2026-04-06T16:45:24Z</time></trkpt><trkpt lat="33.46157723773954" lon="9.155415563900778"><ele>88.0</ele><time>2026-04-06T16:45:25Z</time></trkpt><trkpt lat="33.461597003645565" lon="9.155062591760977"><ele>88.0</ele><time>2026-04-06T16:45:26Z</time></trkpt><trkpt lat="33.46161355898038" lon="9.154708498904762"><ele>88.0</ele><time>2026-04-06T16:45:27Z</time></trkpt><trkpt lat="33.46162479724329" lon="9.154346815344656"><ele>89.0</ele><time>2026-04-06T16:45:28Z</time></trkpt><trkpt lat="33.46163121268062" lon="9.153987450236412"><ele>90.0</ele><time>2026-04-06T16:45:29Z</time></trkpt><trkpt lat="33.46163870530086" lon="9.153629696996553"><ele>90.0</ele><time>2026-04-06T16:45:30Z</time></trkpt><trkpt lat="33.46164821873368" lon="9.15328170390563"><ele>90.0</ele><time>2026-04-06T16:45:31Z</time></trkpt><trkpt lat="33.461656991166244" lon="9.152944492411713"><ele>88.5</ele><time>2026-04-06T16:45:32Z</time></trkpt><trkpt lat="33.461666446541855" lon="9.15261583060651"><ele>87.0</ele><time>2026-04-06T16:45:33Z</time></trkpt><trkpt lat="33.46167706268908" lon="9.152299132029286"><ele>87.0</ele><time>2026-04-06T16:45:34Z</time></trkpt><trkpt lat="33.46168844364824" lon="9.151998050163273"><ele>87.0</ele><time>2026-04-06T16:45:35Z</time></trkpt><trkpt lat="33.461698654434535" lon="9.151697968782083"><ele>87.0</ele><time>2026-04-06T16:45:36Z</time></trkpt><trkpt lat="33.461709281338415" lon="9.151393940642308"><ele>87.0</ele><time>2026-04-06T16:45:37Z</time></trkpt><trkpt lat="33.461717621328894" lon="9.151084233450481"><ele>87.0</ele><time>2026-04-06T16:45:38Z</time></trkpt><trkpt lat="33.46172666146027" lon="9.150777954531248"><ele>87.0</ele><time>2026-04-06T16:45:39Z</time></trkpt><trkpt lat="33.46173633422227" lon="9.150468360697776"><ele>88.0</ele><time>2026-04-06T16:45:40Z</time></trkpt><trkpt lat="33.4617455017238" lon="9.150152377542565"><ele>89.0</ele><time>2026-04-06T16:45:41Z</time></trkpt><trkpt lat="33.461755383066915" lon="9.149835365229556"><ele>89.5</ele><time>2026-04-06T16:45:42Z</time></trkpt><trkpt lat="33.461764929923625" lon="9.149512029280979"><ele>90.0</ele><time>2026-04-06T16:45:43Z</time></trkpt><trkpt lat="33.46177334836817" lon="9.149181492681489"><ele>89.5</ele><time>2026-04-06T16:45:44Z</time></trkpt><trkpt lat="33.4617805078918" lon="9.148849636642453"><ele>89.0</ele><time>2026-04-06T16:45:45Z</time></trkpt><trkpt lat="33.461788822380825" lon="9.148513873178349"><ele>87.5</ele><time>2026-04-06T16:45:46Z</time></trkpt><trkpt lat="33.46179745565043" lon="9.148182881250726"><ele>86.0</ele><time>2026-04-06T16:45:47Z</time></trkpt><trkpt lat="33.461806180283716" lon="9.14785094482769"><ele>86.0</ele><time>2026-04-06T16:45:48Z</time></trkpt><trkpt lat="33.46181416069799" lon="9.147523453941425"><ele>86.0</ele><time>2026-04-06T16:45:49Z</time></trkpt><trkpt lat="33.46182234951407" lon="9.147198025399156"><ele>87.0</ele><time>2026-04-06T16:45:50Z</time></trkpt><trkpt lat="33.46183234318254" lon="9.146869218005515"><ele>88.0</ele><time>2026-04-06T16:45:51Z</time></trkpt><trkpt lat="33.46184266154007" lon="9.146540005228339"><ele>89.5</ele><time>2026-04-06T16:45:52Z</time></trkpt><trkpt lat="33.46185450795888" lon="9.146212804787385"><ele>91.0</ele><time>2026-04-06T16:45:53Z</time></trkpt><trkpt lat="33.46186387959103" lon="9.145882447270253"><ele>90.5</ele><time>2026-04-06T16:45:54Z</time></trkpt><trkpt lat="33.46187292604718" lon="9.14555585393857"><ele>90.0</ele><time>2026-04-06T16:45:55Z</time></trkpt><trkpt lat="33.46188121506017" lon="9.145229596084775"><ele>90.0</ele><time>2026-04-06T16:45:56Z</time></trkpt><trkpt lat="33.46188842812885" lon="9.144902306539528"><ele>90.0</ele><time>2026-04-06T16:45:57Z</time></trkpt><trkpt lat="33.46189678188523" lon="9.144572148619975"><ele>89.5</ele><time>2026-04-06T16:45:58Z</time></trkpt><trkpt lat="33.46190923851727" lon="9.144235816084148"><ele>89.0</ele><time>2026-04-06T16:45:59Z</time></trkpt><trkpt lat="33.46192139750365" lon="9.143895827990818"><ele>88.5</ele><time>2026-04-06T16:46:00Z</time></trkpt><trkpt lat="33.46193235405628" lon="9.14355444711097"><ele>88.0</ele><time>2026-04-06T16:46:01Z</time></trkpt><trkpt lat="33.46194474755165" lon="9.143211484391156"><ele>87.5</ele><time>2026-04-06T16:46:02Z</time></trkpt><trkpt lat="33.461953389675124" lon="9.142863996623454"><ele>87.0</ele><time>2026-04-06T16:46:03Z</time></trkpt><trkpt lat="33.46196200969712" lon="9.142515758811067"><ele>87.0</ele><time>2026-04-06T16:46:04Z</time></trkpt><trkpt lat="33.46197281940371" lon="9.142163627201107"><ele>87.0</ele><time>2026-04-06T16:46:05Z</time></trkpt><trkpt lat="33.46198277859962" lon="9.141806012465084"><ele>86.0</ele><time>2026-04-06T16:46:06Z</time></trkpt><trkpt lat="33.46199198314417" lon="9.14145431352642"><ele>85.0</ele><time>2026-04-06T16:46:07Z</time></trkpt><trkpt lat="33.462000485272924" lon="9.14110054521546"><ele>85.0</ele><time>2026-04-06T16:46:08Z</time></trkpt><trkpt lat="33.46201027413657" lon="9.140746010810238"><ele>85.0</ele><time>2026-04-06T16:46:09Z</time></trkpt><trkpt lat="33.46202118026996" lon="9.14039421665724"><ele>85.5</ele><time>2026-04-06T16:46:10Z</time></trkpt><trkpt lat="33.4620303305736" lon="9.140051532357187"><ele>86.0</ele><time>2026-04-06T16:46:11Z</time></trkpt><trkpt lat="33.46203743349362" lon="9.139719301373587"><ele>87.5</ele><time>2026-04-06T16:46:12Z</time></trkpt><trkpt lat="33.46204465464317" lon="9.139385979379309"><ele>89.0</ele><time>2026-04-06T16:46:13Z</time></trkpt><trkpt lat="33.46205405784643" lon="9.139050411935266"><ele>90.5</ele><time>2026-04-06T16:46:14Z</time></trkpt><trkpt lat="33.462063235797906" lon="9.138711014517497"><ele>92.0</ele><time>2026-04-06T16:46:15Z</time></trkpt><trkpt lat="33.46206534625057" lon="9.138364379997915"><ele>90.5</ele><time>2026-04-06T16:46:16Z</time></trkpt><trkpt lat="33.46206119963661" lon="9.138015474605366"><ele>89.0</ele><time>2026-04-06T16:46:17Z</time></trkpt><trkpt lat="33.462050541026166" lon="9.137667713343644"><ele>89.5</ele><time>2026-04-06T16:46:18Z</time></trkpt><trkpt lat="33.462035633624104" lon="9.137322608273688"><ele>90.0</ele><time>2026-04-06T16:46:19Z</time></trkpt><trkpt lat="33.46202028717439" lon="9.136976802095075"><ele>90.0</ele><time>2026-04-06T16:46:20Z</time></trkpt><trkpt lat="33.46200396823267" lon="9.136632004385355"><ele>90.0</ele><time>2026-04-06T16:46:21Z</time></trkpt><trkpt lat="33.461983062311816" lon="9.13628589349759"><ele>90.0</ele><time>2026-04-06T16:46:22Z</time></trkpt><trkpt lat="33.46195788312617" lon="9.135943909237563"><ele>90.0</ele><time>2026-04-06T16:46:23Z</time></trkpt><trkpt lat="33.461928994466135" lon="9.13559943811269"><ele>90.0</ele><time>2026-04-06T16:46:24Z</time></trkpt><trkpt lat="33.461898111343196" lon="9.135256987299762"><ele>90.0</ele><time>2026-04-06T16:46:25Z</time></trkpt><trkpt lat="33.461866932965414" lon="9.134912862548582"><ele>89.0</ele><time>2026-04-06T16:46:26Z</time></trkpt><trkpt lat="33.46184006094049" lon="9.13456900698439"><ele>88.0</ele><time>2026-04-06T16:46:27Z</time></trkpt><trkpt lat="33.46181364312609" lon="9.13422317687133"><ele>89.5</ele><time>2026-04-06T16:46:28Z</time></trkpt><trkpt lat="33.46178703938535" lon="9.133878079355556"><ele>91.0</ele><time>2026-04-06T16:46:29Z</time></trkpt><trkpt lat="33.46175607040943" lon="9.133534248809076"><ele>91.5</ele><time>2026-04-06T16:46:30Z</time></trkpt><trkpt lat="33.461722889196864" lon="9.133191628312638"><ele>92.0</ele><time>2026-04-06T16:46:31Z</time></trkpt><trkpt lat="33.46169009659431" lon="9.132857937332954"><ele>92.0</ele><time>2026-04-06T16:46:32Z</time></trkpt><trkpt lat="33.461660844658404" lon="9.132535362735211"><ele>92.0</ele><time>2026-04-06T16:46:33Z</time></trkpt><trkpt lat="33.46163206501104" lon="9.13220922690128"><ele>92.0</ele><time>2026-04-06T16:46:34Z</time></trkpt><trkpt lat="33.46160351768495" lon="9.131881610615313"><ele>92.0</ele><time>2026-04-06T16:46:35Z</time></trkpt><trkpt lat="33.46157247452328" lon="9.13155114356803"><ele>93.0</ele><time>2026-04-06T16:46:36Z</time></trkpt><trkpt lat="33.46154304952804" lon="9.131219445359053"><ele>94.0</ele><time>2026-04-06T16:46:37Z</time></trkpt><trkpt lat="33.4615166512026" lon="9.130893897542528"><ele>93.5</ele><time>2026-04-06T16:46:38Z</time></trkpt><trkpt lat="33.46149097331293" lon="9.130588612408289"><ele>93.0</ele><time>2026-04-06T16:46:39Z</time></trkpt><trkpt lat="33.46146563435546" lon="9.130283487261726"><ele>93.0</ele><time>2026-04-06T16:46:40Z</time></trkpt><trkpt lat="33.46143818932487" lon="9.12997317384837"><ele>93.0</ele><time>2026-04-06T16:46:41Z</time></trkpt><trkpt lat="33.461408222025675" lon="9.129658027543739"><ele>93.0</ele><time>2026-04-06T16:46:42Z</time></trkpt><trkpt lat="33.46137745048244" lon="9.12933165258203"><ele>93.0</ele><time>2026-04-06T16:46:43Z</time></trkpt><trkpt lat="33.46134486849303" lon="9.128999151485845"><ele>91.5</ele><time>2026-04-06T16:46:44Z</time></trkpt><trkpt lat="33.461311565496366" lon="9.128659316492067"><ele>90.0</ele><time>2026-04-06T16:46:45Z</time></trkpt><trkpt lat="33.46127971728051" lon="9.128315492706934"><ele>88.5</ele><time>2026-04-06T16:46:46Z</time></trkpt><trkpt lat="33.46125087259817" lon="9.127971225163225"><ele>87.0</ele><time>2026-04-06T16:46:47Z</time></trkpt><trkpt lat="33.461220712699244" lon="9.127626922886257"><ele>88.5</ele><time>2026-04-06T16:46:48Z</time></trkpt><trkpt lat="33.46118887458517" lon="9.127280238565852"><ele>90.0</ele><time>2026-04-06T16:46:49Z</time></trkpt><trkpt lat="33.46115853664906" lon="9.12693676758081"><ele>90.0</ele><time>2026-04-06T16:46:50Z</time></trkpt><trkpt lat="33.46112840862445" lon="9.126588277045448"><ele>90.0</ele><time>2026-04-06T16:46:51Z</time></trkpt><trkpt lat="33.46109832247029" lon="9.126237888648987"><ele>90.5</ele><time>2026-04-06T16:46:52Z</time></trkpt><trkpt lat="33.46106838832062" lon="9.125887135954583"><ele>91.0</ele><time>2026-04-06T16:46:53Z</time></trkpt><trkpt lat="33.46103720341151" lon="9.12553802866214"><ele>90.5</ele><time>2026-04-06T16:46:54Z</time></trkpt><trkpt lat="33.46100735073542" lon="9.125189762754665"><ele>90.0</ele><time>2026-04-06T16:46:55Z</time></trkpt><trkpt lat="33.46098038482414" lon="9.124839879732804"><ele>90.0</ele><time>2026-04-06T16:46:56Z</time></trkpt><trkpt lat="33.46095579569219" lon="9.12449488664235"><ele>90.0</ele><time>2026-04-06T16:46:57Z</time></trkpt><trkpt lat="33.46093084868902" lon="9.124156579180621"><ele>89.5</ele><time>2026-04-06T16:46:58Z</time></trkpt><trkpt lat="33.460907028640854" lon="9.123822671014961"><ele>89.0</ele><time>2026-04-06T16:46:59Z</time></trkpt><trkpt lat="33.46087983090567" lon="9.123491120701493"><ele>89.0</ele><time>2026-04-06T16:47:00Z</time></trkpt><trkpt lat="33.46085096609279" lon="9.123158763137454"><ele>89.0</ele><time>2026-04-06T16:47:01Z</time></trkpt><trkpt lat="33.460821717497915" lon="9.122829020995653"><ele>89.0</ele><time>2026-04-06T16:47:02Z</time></trkpt><trkpt lat="33.46079293719613" lon="9.122499371136113"><ele>89.0</ele><time>2026-04-06T16:47:03Z</time></trkpt><trkpt lat="33.460764543415934" lon="9.122172937942915"><ele>89.0</ele><time>2026-04-06T16:47:04Z</time></trkpt><trkpt lat="33.46073572723043" lon="9.121844118444216"><ele>89.0</ele><time>2026-04-06T16:47:05Z</time></trkpt><trkpt lat="33.460706104305274" lon="9.121510997961638"><ele>89.0</ele><time>2026-04-06T16:47:06Z</time></trkpt><trkpt lat="33.46067789472438" lon="9.121174355617761"><ele>89.0</ele><time>2026-04-06T16:47:07Z</time></trkpt><trkpt lat="33.46065069891867" lon="9.120834844255063"><ele>89.5</ele><time>2026-04-06T16:47:08Z</time></trkpt><trkpt lat="33.46062201996798" lon="9.120491803107193"><ele>90.0</ele><time>2026-04-06T16:47:09Z</time></trkpt><trkpt lat="33.460592657775145" lon="9.120149888409207"><ele>90.0</ele><time>2026-04-06T16:47:10Z</time></trkpt><trkpt lat="33.460564896911706" lon="9.119809629941042"><ele>90.0</ele><time>2026-04-06T16:47:11Z</time></trkpt><trkpt lat="33.46053668956365" lon="9.119469138376298"><ele>90.0</ele><time>2026-04-06T16:47:12Z</time></trkpt><trkpt lat="33.46050833525487" lon="9.119127223160467"><ele>90.0</ele><time>2026-04-06T16:47:13Z</time></trkpt><trkpt lat="33.4604785795044" lon="9.118782770063019"><ele>89.5</ele><time>2026-04-06T16:47:14Z</time></trkpt><trkpt lat="33.46044851020624" lon="9.11843799850804"><ele>89.0</ele><time>2026-04-06T16:47:15Z</time></trkpt><trkpt lat="33.4604170347632" lon="9.118089502629125"><ele>89.0</ele><time>2026-04-06T16:47:16Z</time></trkpt><trkpt lat="33.46038443029292" lon="9.117741624493485"><ele>89.0</ele><time>2026-04-06T16:47:17Z</time></trkpt><trkpt lat="33.460350926197414" lon="9.117390610234102"><ele>88.0</ele><time>2026-04-06T16:47:18Z</time></trkpt><trkpt lat="33.4603154377133" lon="9.117035009971916"><ele>87.0</ele><time>2026-04-06T16:47:19Z</time></trkpt><trkpt lat="33.4602807914907" lon="9.116679697958995"><ele>87.5</ele><time>2026-04-06T16:47:20Z</time></trkpt><trkpt lat="33.460245840162855" lon="9.11631998062996"><ele>88.0</ele><time>2026-04-06T16:47:21Z</time></trkpt><trkpt lat="33.460214196680916" lon="9.115965898264951"><ele>87.5</ele><time>2026-04-06T16:47:22Z</time></trkpt><trkpt lat="33.460184917696914" lon="9.115613435199144"><ele>87.0</ele><time>2026-04-06T16:47:23Z</time></trkpt><trkpt lat="33.46015753235135" lon="9.115255153866263"><ele>88.0</ele><time>2026-04-06T16:47:24Z</time></trkpt><trkpt lat="33.460128708848465" lon="9.11490191877515"><ele>89.0</ele><time>2026-04-06T16:47:25Z</time></trkpt><trkpt lat="33.46009807248203" lon="9.114550632301642"><ele>89.0</ele><time>2026-04-06T16:47:26Z</time></trkpt><trkpt lat="33.460067120404965" lon="9.11419837995586"><ele>89.0</ele><time>2026-04-06T16:47:27Z</time></trkpt><trkpt lat="33.46003788092439" lon="9.113851006129963"><ele>87.5</ele><time>2026-04-06T16:47:28Z</time></trkpt><trkpt lat="33.46000708018409" lon="9.113501926604084"><ele>86.0</ele><time>2026-04-06T16:47:29Z</time></trkpt><trkpt lat="33.45997391193485" lon="9.113154322745899"><ele>86.0</ele><time>2026-04-06T16:47:30Z</time></trkpt><trkpt lat="33.45994112561026" lon="9.112803503795341"><ele>86.0</ele><time>2026-04-06T16:47:31Z</time></trkpt><trkpt lat="33.4599064147816" lon="9.11245212728726"><ele>88.0</ele><time>2026-04-06T16:47:32Z</time></trkpt><trkpt lat="33.45987224939696" lon="9.112100490157609"><ele>90.0</ele><time>2026-04-06T16:47:33Z</time></trkpt><trkpt lat="33.45984047702068" lon="9.111745680912996"><ele>89.5</ele><time>2026-04-06T16:47:34Z</time></trkpt><trkpt lat="33.45981404642636" lon="9.111387142455301"><ele>89.0</ele><time>2026-04-06T16:47:35Z</time></trkpt><trkpt lat="33.45979041723748" lon="9.111026632983933"><ele>91.0</ele><time>2026-04-06T16:47:36Z</time></trkpt><trkpt lat="33.45976537888112" lon="9.110663751144337"><ele>93.0</ele><time>2026-04-06T16:47:37Z</time></trkpt><trkpt lat="33.459736294157246" lon="9.110301408936316"><ele>93.0</ele><time>2026-04-06T16:47:38Z</time></trkpt><trkpt lat="33.459702672192115" lon="9.10994178639902"><ele>93.0</ele><time>2026-04-06T16:47:39Z</time></trkpt><trkpt lat="33.45966704408801" lon="9.109582535585162"><ele>92.0</ele><time>2026-04-06T16:47:40Z</time></trkpt><trkpt lat="33.459633390320576" lon="9.109223538019751"><ele>91.0</ele><time>2026-04-06T16:47:41Z</time></trkpt><trkpt lat="33.45960237003572" lon="9.108864766899496"><ele>91.0</ele><time>2026-04-06T16:47:42Z</time></trkpt><trkpt lat="33.4595707555818" lon="9.108507505446578"><ele>91.0</ele><time>2026-04-06T16:47:43Z</time></trkpt><trkpt lat="33.459538142307565" lon="9.108150143523435"><ele>91.0</ele><time>2026-04-06T16:47:44Z</time></trkpt><trkpt lat="33.45950550851185" lon="9.107794031796368"><ele>91.0</ele><time>2026-04-06T16:47:45Z</time></trkpt><trkpt lat="33.45947206259353" lon="9.107431767263856"><ele>89.5</ele><time>2026-04-06T16:47:46Z</time></trkpt><trkpt lat="33.459439557556244" lon="9.107059583253648"><ele>88.0</ele><time>2026-04-06T16:47:47Z</time></trkpt><trkpt lat="33.45940564906769" lon="9.106674756254113"><ele>88.0</ele><time>2026-04-06T16:47:48Z</time></trkpt><trkpt lat="33.45936953149737" lon="9.106279388538624"><ele>88.0</ele><time>2026-04-06T16:47:49Z</time></trkpt><trkpt lat="33.459331487771166" lon="9.105877489682985"><ele>89.0</ele><time>2026-04-06T16:47:50Z</time></trkpt><trkpt lat="33.45929439666889" lon="9.105471336852379"><ele>90.0</ele><time>2026-04-06T16:47:51Z</time></trkpt><trkpt lat="33.459259483362864" lon="9.105062633821808"><ele>89.0</ele><time>2026-04-06T16:47:52Z</time></trkpt><trkpt lat="33.45922460787403" lon="9.104650295324499"><ele>88.0</ele><time>2026-04-06T16:47:53Z</time></trkpt><trkpt lat="33.45918864000152" lon="9.104235463046027"><ele>87.5</ele><time>2026-04-06T16:47:54Z</time></trkpt><trkpt lat="33.459151630152306" lon="9.103822663759662"><ele>87.0</ele><time>2026-04-06T16:47:55Z</time></trkpt><trkpt lat="33.45911642034985" lon="9.103410610931038"><ele>87.0</ele><time>2026-04-06T16:47:56Z</time></trkpt><trkpt lat="33.45908156142652" lon="9.10299373004964"><ele>87.0</ele><time>2026-04-06T16:47:57Z</time></trkpt><trkpt lat="33.45904696674113" lon="9.102578590120938"><ele>87.5</ele><time>2026-04-06T16:47:58Z</time></trkpt><trkpt lat="33.4590092318628" lon="9.102159513717218"><ele>88.0</ele><time>2026-04-06T16:47:59Z</time></trkpt><trkpt lat="33.458972244406915" lon="9.101740061357217"><ele>89.0</ele><time>2026-04-06T16:48:00Z</time></trkpt><trkpt lat="33.45893732492769" lon="9.101328157385705"><ele>90.0</ele><time>2026-04-06T16:48:01Z</time></trkpt><trkpt lat="33.458903119971815" lon="9.100928578814004"><ele>91.0</ele><time>2026-04-06T16:48:02Z</time></trkpt><trkpt lat="33.45887063658506" lon="9.100537073449107"><ele>92.0</ele><time>2026-04-06T16:48:03Z</time></trkpt><trkpt lat="33.458840739399555" lon="9.100159512447703"><ele>92.0</ele><time>2026-04-06T16:48:04Z</time></trkpt><trkpt lat="33.45880926656666" lon="9.099795984400245"><ele>92.0</ele><time>2026-04-06T16:48:05Z</time></trkpt><trkpt lat="33.45878043930113" lon="9.09944174074691"><ele>92.0</ele><time>2026-04-06T16:48:06Z</time></trkpt><trkpt lat="33.45875311513797" lon="9.09908744609047"><ele>92.0</ele><time>2026-04-06T16:48:07Z</time></trkpt><trkpt lat="33.45872253533623" lon="9.098738571775716"><ele>92.0</ele><time>2026-04-06T16:48:08Z</time></trkpt><trkpt lat="33.45868966504304" lon="9.098390278738794"><ele>92.0</ele><time>2026-04-06T16:48:09Z</time></trkpt><trkpt lat="33.45865549085103" lon="9.098042202849939"><ele>92.0</ele><time>2026-04-06T16:48:10Z</time></trkpt><trkpt lat="33.45862244639262" lon="9.097692870590242"><ele>92.0</ele><time>2026-04-06T16:48:11Z</time></trkpt><trkpt lat="33.458590711408675" lon="9.097357644312897"><ele>91.5</ele><time>2026-04-06T16:48:12Z</time></trkpt><trkpt lat="33.45856349808075" lon="9.097025574910761"><ele>91.0</ele><time>2026-04-06T16:48:13Z</time></trkpt><trkpt lat="33.458540446759294" lon="9.09669162320696"><ele>92.0</ele><time>2026-04-06T16:48:14Z</time></trkpt><trkpt lat="33.458514652367185" lon="9.096351921845162"><ele>93.0</ele><time>2026-04-06T16:48:15Z</time></trkpt><trkpt lat="33.458489062772706" lon="9.096007529242977"><ele>92.5</ele><time>2026-04-06T16:48:16Z</time></trkpt><trkpt lat="33.45846503014193" lon="9.095659216012274"><ele>92.0</ele><time>2026-04-06T16:48:17Z</time></trkpt><trkpt lat="33.4584377867553" lon="9.09530766953868"><ele>92.0</ele><time>2026-04-06T16:48:18Z</time></trkpt><trkpt lat="33.458404271250224" lon="9.09495086964137"><ele>92.0</ele><time>2026-04-06T16:48:19Z</time></trkpt><trkpt lat="33.4583692332274" lon="9.094586055989259"><ele>93.0</ele><time>2026-04-06T16:48:20Z</time></trkpt><trkpt lat="33.4583368199512" lon="9.09422232220517"><ele>94.0</ele><time>2026-04-06T16:48:21Z</time></trkpt><trkpt lat="33.458304561789916" lon="9.093859396391709"><ele>91.5</ele><time>2026-04-06T16:48:22Z</time></trkpt><trkpt lat="33.45827539822524" lon="9.093503487666911"><ele>89.0</ele><time>2026-04-06T16:48:23Z</time></trkpt><trkpt lat="33.458246848234786" lon="9.09314945845138"><ele>88.0</ele><time>2026-04-06T16:48:24Z</time></trkpt><trkpt lat="33.45821830949183" lon="9.092798231259305"><ele>87.0</ele><time>2026-04-06T16:48:25Z</time></trkpt><trkpt lat="33.45818886700733" lon="9.092443797519959"><ele>85.5</ele><time>2026-04-06T16:48:26Z</time></trkpt><trkpt lat="33.45815872636198" lon="9.09209436779644"><ele>84.0</ele><time>2026-04-06T16:48:27Z</time></trkpt><trkpt lat="33.45812796193944" lon="9.091748062705916"><ele>85.0</ele><time>2026-04-06T16:48:28Z</time></trkpt><trkpt lat="33.45809798787954" lon="9.091404547117047"><ele>86.0</ele><time>2026-04-06T16:48:29Z</time></trkpt><trkpt lat="33.45806714020371" lon="9.091068151804702"><ele>88.0</ele><time>2026-04-06T16:48:30Z</time></trkpt><trkpt lat="33.45803700642535" lon="9.090741268115869"><ele>90.0</ele><time>2026-04-06T16:48:31Z</time></trkpt><trkpt lat="33.45801092969779" lon="9.09042835808604"><ele>90.0</ele><time>2026-04-06T16:48:32Z</time></trkpt><trkpt lat="33.457988363781475" lon="9.090120807853317"><ele>90.0</ele><time>2026-04-06T16:48:33Z</time></trkpt><trkpt lat="33.457962798840384" lon="9.089810296497626"><ele>90.0</ele><time>2026-04-06T16:48:34Z</time></trkpt><trkpt lat="33.457933273065485" lon="9.08949872768646"><ele>90.0</ele><time>2026-04-06T16:48:35Z</time></trkpt><trkpt lat="33.45790394785779" lon="9.08919770949775"><ele>90.5</ele><time>2026-04-06T16:48:36Z</time></trkpt><trkpt lat="33.457878608261346" lon="9.08890309562724"><ele>91.0</ele><time>2026-04-06T16:48:37Z</time></trkpt><trkpt lat="33.45785585354527" lon="9.088600773827306"><ele>91.0</ele><time>2026-04-06T16:48:38Z</time></trkpt><trkpt lat="33.45783069872659" lon="9.088288396317937"><ele>91.0</ele><time>2026-04-06T16:48:39Z</time></trkpt><trkpt lat="33.457802594031136" lon="9.087964145010929"><ele>90.5</ele><time>2026-04-06T16:48:40Z</time></trkpt><trkpt lat="33.457778295545516" lon="9.087637560646197"><ele>90.0</ele><time>2026-04-06T16:48:41Z</time></trkpt><trkpt lat="33.45775846206189" lon="9.087307407933007"><ele>90.0</ele><time>2026-04-06T16:48:42Z</time></trkpt><trkpt lat="33.457747199259956" lon="9.086964172943068"><ele>90.0</ele><time>2026-04-06T16:48:43Z</time></trkpt><trkpt lat="33.457743989774066" lon="9.086613529994558"><ele>89.0</ele><time>2026-04-06T16:48:44Z</time></trkpt><trkpt lat="33.45774424167826" lon="9.086267956177778"><ele>88.0</ele><time>2026-04-06T16:48:45Z</time></trkpt><trkpt lat="33.45774452253239" lon="9.085935803516708"><ele>90.0</ele><time>2026-04-06T16:48:46Z</time></trkpt><trkpt lat="33.45774739570526" lon="9.085613781311592"><ele>92.0</ele><time>2026-04-06T16:48:47Z</time></trkpt><trkpt lat="33.457748320214314" lon="9.085305726580515"><ele>92.0</ele><time>2026-04-06T16:48:48Z</time></trkpt><trkpt lat="33.45774510714369" lon="9.085009676811174"><ele>92.0</ele><time>2026-04-06T16:48:49Z</time></trkpt><trkpt lat="33.457744338292756" lon="9.084714056979472"><ele>91.5</ele><time>2026-04-06T16:48:50Z</time></trkpt><trkpt lat="33.45774780554074" lon="9.08441999634764"><ele>91.0</ele><time>2026-04-06T16:48:51Z</time></trkpt><trkpt lat="33.45775962744722" lon="9.084124128312594"><ele>92.0</ele><time>2026-04-06T16:48:52Z</time></trkpt><trkpt lat="33.457780502916904" lon="9.0838335393335"><ele>93.0</ele><time>2026-04-06T16:48:53Z</time></trkpt><trkpt lat="33.457799282989406" lon="9.083562958664112"><ele>93.0</ele><time>2026-04-06T16:48:54Z</time></trkpt><trkpt lat="33.45781579086369" lon="9.083303259318917"><ele>93.0</ele><time>2026-04-06T16:48:55Z</time></trkpt><trkpt lat="33.45783118540501" lon="9.083052804605119"><ele>93.0</ele><time>2026-04-06T16:48:56Z</time></trkpt><trkpt lat="33.457845416654074" lon="9.082801122127426"><ele>92.0</ele><time>2026-04-06T16:48:57Z</time></trkpt><trkpt lat="33.4578623531709" lon="9.082553493694194"><ele>91.0</ele><time>2026-04-06T16:48:58Z</time></trkpt><trkpt lat="33.457878403459986" lon="9.082303715066113"><ele>90.0</ele><time>2026-04-06T16:48:59Z</time></trkpt><trkpt lat="33.45788713056984" lon="9.082051854073189"><ele>89.66666666666667</ele><time>2026-04-06T16:49:00Z</time></trkpt><trkpt lat="33.45789543902849" lon="9.081799508778069"><ele>89.33333333333334</ele><time>2026-04-06T16:49:01Z</time></trkpt><trkpt lat="33.457908565349385" lon="9.081547938760774"><ele>89.0</ele><time>2026-04-06T16:49:02Z</time></trkpt><trkpt lat="33.457922203806234" lon="9.081298110252437"><ele>89.0</ele><time>2026-04-06T16:49:03Z</time></trkpt><trkpt lat="33.45793661658489" lon="9.081049266652771"><ele>89.0</ele><time>2026-04-06T16:49:04Z</time></trkpt><trkpt lat="33.45795194518401" lon="9.080796226545688"><ele>89.0</ele><time>2026-04-06T16:49:05Z</time></trkpt><trkpt lat="33.457967226306316" lon="9.080544052328966"><ele>89.33333333333334</ele><time>2026-04-06T16:49:06Z</time></trkpt><trkpt lat="33.457978901121365" lon="9.080298284504508"><ele>89.66666666666667</ele><time>2026-04-06T16:49:07Z</time></trkpt><trkpt lat="33.4579879799923" lon="9.080065257948734"><ele>90.0</ele><time>2026-04-06T16:49:08Z</time></trkpt><trkpt lat="33.45799872112485" lon="9.079842394987518"><ele>90.0</ele><time>2026-04-06T16:49:09Z</time></trkpt><trkpt lat="33.45801119756807" lon="9.079611550278035"><ele>90.0</ele><time>2026-04-06T16:49:10Z</time></trkpt><trkpt lat="33.45802364062506" lon="9.0793839274555"><ele>90.0</ele><time>2026-04-06T16:49:11Z</time></trkpt><trkpt lat="33.458034500466674" lon="9.079166880269762"><ele>89.0</ele><time>2026-04-06T16:49:12Z</time></trkpt><trkpt lat="33.45804531936065" lon="9.078962546974356"><ele>88.0</ele><time>2026-04-06T16:49:13Z</time></trkpt><trkpt lat="33.45805667168744" lon="9.078774818305007"><ele>87.0</ele><time>2026-04-06T16:49:14Z</time></trkpt><trkpt lat="33.45806857537595" lon="9.078605468829668"><ele>87.0</ele><time>2026-04-06T16:49:15Z</time></trkpt><trkpt lat="33.45808169479391" lon="9.07845066758403"><ele>87.0</ele><time>2026-04-06T16:49:16Z</time></trkpt><trkpt lat="33.458090425743535" lon="9.078301884815835"><ele>87.0</ele><time>2026-04-06T16:49:17Z</time></trkpt><trkpt lat="33.45809659233595" lon="9.078165085793039"><ele>87.0</ele><time>2026-04-06T16:49:18Z</time></trkpt><trkpt lat="33.458101774804504" lon="9.078039264451078"><ele>87.6</ele><time>2026-04-06T16:49:19Z</time></trkpt><trkpt lat="33.45810647379026" lon="9.07791822036802"><ele>88.19999999999999</ele><time>2026-04-06T16:49:20Z</time></trkpt><trkpt lat="33.45811378983601" lon="9.077799706427609"><ele>88.8</ele><time>2026-04-06T16:49:21Z</time></trkpt><trkpt lat="33.45811872285124" lon="9.077681170943201"><ele>89.4</ele><time>2026-04-06T16:49:22Z</time></trkpt><trkpt lat="33.45812205632351" lon="9.07756802816971"><ele>90.0</ele><time>2026-04-06T16:49:23Z</time></trkpt><trkpt lat="33.458126133822255" lon="9.077456932376379"><ele>89.4</ele><time>2026-04-06T16:49:24Z</time></trkpt><trkpt lat="33.458133109110754" lon="9.077338591460846"><ele>88.8</ele><time>2026-04-06T16:49:25Z</time></trkpt><trkpt lat="33.458140780736926" lon="9.077212559668684"><ele>88.19999999999999</ele><time>2026-04-06T16:49:26Z</time></trkpt><trkpt lat="33.45814492658854" lon="9.077079476586068"><ele>87.6</ele><time>2026-04-06T16:49:27Z</time></trkpt><trkpt lat="33.45815414374265" lon="9.07693149751424"><ele>87.0</ele><time>2026-04-06T16:49:28Z</time></trkpt><trkpt lat="33.45816533317663" lon="9.07676179885394"><ele>87.0</ele><time>2026-04-06T16:49:29Z</time></trkpt><trkpt lat="33.45817591016927" lon="9.07655972597307"><ele>87.0</ele><time>2026-04-06T16:49:30Z</time></trkpt><trkpt lat="33.45819029791898" lon="9.076333254612543"><ele>87.0</ele><time>2026-04-06T16:49:31Z</time></trkpt><trkpt lat="33.45820337659473" lon="9.076084301089736"><ele>87.0</ele><time>2026-04-06T16:49:32Z</time></trkpt><trkpt lat="33.45821343000579" lon="9.075820342142594"><ele>87.0</ele><time>2026-04-06T16:49:33Z</time></trkpt><trkpt lat="33.458224984733945" lon="9.07555143624634"><ele>87.0</ele><time>2026-04-06T16:49:34Z</time></trkpt><trkpt lat="33.45824005077224" lon="9.075288160308935"><ele>87.0</ele><time>2026-04-06T16:49:35Z</time></trkpt><trkpt lat="33.45825551069973" lon="9.075043237042651"><ele>87.0</ele><time>2026-04-06T16:49:36Z</time></trkpt><trkpt lat="33.45826884256731" lon="9.074811331280308"><ele>87.0</ele><time>2026-04-06T16:49:37Z</time></trkpt><trkpt lat="33.45828081678604" lon="9.074581514870712"><ele>87.0</ele><time>2026-04-06T16:49:38Z</time></trkpt><trkpt lat="33.45829427498622" lon="9.07435183237499"><ele>87.0</ele><time>2026-04-06T16:49:39Z</time></trkpt><trkpt lat="33.458305282435525" lon="9.074122641512709"><ele>87.0</ele><time>2026-04-06T16:49:40Z</time></trkpt><trkpt lat="33.45831433721552" lon="9.073895429084262"><ele>86.33333333333333</ele><time>2026-04-06T16:49:41Z</time></trkpt><trkpt lat="33.458325213198535" lon="9.073666568839677"><ele>85.66666666666666</ele><time>2026-04-06T16:49:42Z</time></trkpt><trkpt lat="33.45833749840521" lon="9.073439607146133"><ele>85.0</ele><time>2026-04-06T16:49:43Z</time></trkpt><trkpt lat="33.45835002161974" lon="9.073213900356315"><ele>84.33333333333333</ele><time>2026-04-06T16:49:44Z</time></trkpt><trkpt lat="33.458361582278954" lon="9.07299067014186"><ele>83.66666666666667</ele><time>2026-04-06T16:49:45Z</time></trkpt><trkpt lat="33.458374153778145" lon="9.072769284219046"><ele>83.0</ele><time>2026-04-06T16:49:46Z</time></trkpt><trkpt lat="33.45838748312581" lon="9.072549598879002"><ele>83.0</ele><time>2026-04-06T16:49:47Z</time></trkpt><trkpt lat="33.45839792031815" lon="9.072326125812298"><ele>83.0</ele><time>2026-04-06T16:49:48Z</time></trkpt><trkpt lat="33.45840831923598" lon="9.07210301169654"><ele>83.0</ele><time>2026-04-06T16:49:49Z</time></trkpt><trkpt lat="33.458418648251495" lon="9.071878961131755"><ele>83.0</ele><time>2026-04-06T16:49:50Z</time></trkpt><trkpt lat="33.45843087159139" lon="9.071652225145066"><ele>83.0</ele><time>2026-04-06T16:49:51Z</time></trkpt><trkpt lat="33.45844464037437" lon="9.07142441883038"><ele>83.0</ele><time>2026-04-06T16:49:52Z</time></trkpt><trkpt lat="33.45846164312162" lon="9.071196519368776"><ele>82.66666666666667</ele><time>2026-04-06T16:49:53Z</time></trkpt><trkpt lat="33.45847478081107" lon="9.070967014848163"><ele>82.33333333333333</ele><time>2026-04-06T16:49:54Z</time></trkpt><trkpt lat="33.45848398212514" lon="9.070736676797114"><ele>82.0</ele><time>2026-04-06T16:49:55Z</time></trkpt><trkpt lat="33.458495306176275" lon="9.070501740387558"><ele>82.0</ele><time>2026-04-06T16:49:56Z</time></trkpt><trkpt lat="33.45850804983791" lon="9.070260311650602"><ele>82.0</ele><time>2026-04-06T16:49:57Z</time></trkpt><trkpt lat="33.45852095837034" lon="9.070013026544958"><ele>82.0</ele><time>2026-04-06T16:49:58Z</time></trkpt><trkpt lat="33.45853373887178" lon="9.06975808094351"><ele>81.33333333333333</ele><time>2026-04-06T16:49:59Z</time></trkpt><trkpt lat="33.45854813712684" lon="9.069503161709394"><ele>80.66666666666667</ele><time>2026-04-06T16:50:00Z</time></trkpt><trkpt lat="33.45856277212513" lon="9.069249761880833"><ele>80.0</ele><time>2026-04-06T16:50:01Z</time></trkpt><trkpt lat="33.458577700759285" lon="9.068992791796497"><ele>79.66666666666667</ele><time>2026-04-06T16:50:02Z</time></trkpt><trkpt lat="33.45859109703568" lon="9.068737938965768"><ele>79.33333333333333</ele><time>2026-04-06T16:50:03Z</time></trkpt><trkpt lat="33.45860370838594" lon="9.068491587778306"><ele>79.0</ele><time>2026-04-06T16:50:04Z</time></trkpt><trkpt lat="33.45861451942451" lon="9.068253385275161"><ele>79.0</ele><time>2026-04-06T16:50:05Z</time></trkpt><trkpt lat="33.4586255087152" lon="9.068028038700522"><ele>79.0</ele><time>2026-04-06T16:50:06Z</time></trkpt><trkpt lat="33.45864174258439" lon="9.067812199529403"><ele>79.0</ele><time>2026-04-06T16:50:07Z</time></trkpt><trkpt lat="33.45866078596461" lon="9.067605158480449"><ele>78.66666666666666</ele><time>2026-04-06T16:50:08Z</time></trkpt><trkpt lat="33.45867417735142" lon="9.067395760259451"><ele>78.33333333333333</ele><time>2026-04-06T16:50:09Z</time></trkpt><trkpt lat="33.45868313372784" lon="9.067185346377492"><ele>78.0</ele><time>2026-04-06T16:50:10Z</time></trkpt><trkpt lat="33.45869309677682" lon="9.066971981564569"><ele>78.0</ele><time>2026-04-06T16:50:11Z</time></trkpt><trkpt lat="33.458704236831764" lon="9.0667542103814"><ele>78.0</ele><time>2026-04-06T16:50:12Z</time></trkpt><trkpt lat="33.45871487487102" lon="9.066534402715007"><ele>78.0</ele><time>2026-04-06T16:50:13Z</time></trkpt><trkpt lat="33.45872511190628" lon="9.066309620116638"><ele>77.66666666666667</ele><time>2026-04-06T16:50:14Z</time></trkpt><trkpt lat="33.458738341589495" lon="9.066081410492313"><ele>77.33333333333334</ele><time>2026-04-06T16:50:15Z</time></trkpt><trkpt lat="33.458752540055656" lon="9.065851504249169"><ele>77.0</ele><time>2026-04-06T16:50:16Z</time></trkpt><trkpt lat="33.45876467172513" lon="9.065620224986365"><ele>77.0</ele><time>2026-04-06T16:50:17Z</time></trkpt><trkpt lat="33.45877596780678" lon="9.06538608054615"><ele>77.0</ele><time>2026-04-06T16:50:18Z</time></trkpt><trkpt lat="33.458787901670256" lon="9.06514947834891"><ele>77.0</ele><time>2026-04-06T16:50:19Z</time></trkpt><trkpt lat="33.45880197479059" lon="9.064909617731148"><ele>76.0</ele><time>2026-04-06T16:50:20Z</time></trkpt><trkpt lat="33.458814484424366" lon="9.06466978953469"><ele>75.0</ele><time>2026-04-06T16:50:21Z</time></trkpt><trkpt lat="33.45882653057454" lon="9.06443155123911"><ele>74.0</ele><time>2026-04-06T16:50:22Z</time></trkpt><trkpt lat="33.45883892895744" lon="9.06418912354145"><ele>73.66666666666667</ele><time>2026-04-06T16:50:23Z</time></trkpt><trkpt lat="33.45885240255618" lon="9.06394616577759"><ele>73.33333333333333</ele><time>2026-04-06T16:50:24Z</time></trkpt><trkpt lat="33.458863539104705" lon="9.063702737066276"><ele>73.0</ele><time>2026-04-06T16:50:25Z</time></trkpt><trkpt lat="33.458875613547946" lon="9.063457015792228"><ele>73.0</ele><time>2026-04-06T16:50:26Z</time></trkpt><trkpt lat="33.45888877129641" lon="9.063212208033892"><ele>73.0</ele><time>2026-04-06T16:50:27Z</time></trkpt><trkpt lat="33.458905068521815" lon="9.062966028156326"><ele>73.0</ele><time>2026-04-06T16:50:28Z</time></trkpt><trkpt lat="33.45892282437521" lon="9.06271955724073"><ele>73.0</ele><time>2026-04-06T16:50:29Z</time></trkpt><trkpt lat="33.45893611624051" lon="9.062475414154983"><ele>73.0</ele><time>2026-04-06T16:50:30Z</time></trkpt><trkpt lat="33.45894772448958" lon="9.06222828203806"><ele>73.0</ele><time>2026-04-06T16:50:31Z</time></trkpt><trkpt lat="33.45895915821634" lon="9.061982228851315"><ele>72.66666666666666</ele><time>2026-04-06T16:50:32Z</time></trkpt><trkpt lat="33.458970961544374" lon="9.06173616096662"><ele>72.33333333333333</ele><time>2026-04-06T16:50:33Z</time></trkpt><trkpt lat="33.45898131515833" lon="9.061489039649144"><ele>72.0</ele><time>2026-04-06T16:50:34Z</time></trkpt><trkpt lat="33.45899326368963" lon="9.061242787891935"><ele>72.0</ele><time>2026-04-06T16:50:35Z</time></trkpt><trkpt lat="33.45900842074819" lon="9.060997851876621"><ele>72.0</ele><time>2026-04-06T16:50:36Z</time></trkpt><trkpt lat="33.459023261751724" lon="9.060759963067644"><ele>72.0</ele><time>2026-04-06T16:50:37Z</time></trkpt><trkpt lat="33.459036981542766" lon="9.060520519218157"><ele>72.0</ele><time>2026-04-06T16:50:38Z</time></trkpt><trkpt lat="33.45905242653772" lon="9.060282655101009"><ele>72.0</ele><time>2026-04-06T16:50:39Z</time></trkpt><trkpt lat="33.459068576685105" lon="9.060043716359658"><ele>72.0</ele><time>2026-04-06T16:50:40Z</time></trkpt><trkpt lat="33.459084408954276" lon="9.059805047806458"><ele>72.33333333333333</ele><time>2026-04-06T16:50:41Z</time></trkpt><trkpt lat="33.45909616234601" lon="9.059564669449347"><ele>72.66666666666666</ele><time>2026-04-06T16:50:42Z</time></trkpt><trkpt lat="33.45910650049051" lon="9.059320481666703"><ele>73.0</ele><time>2026-04-06T16:50:43Z</time></trkpt><trkpt lat="33.45912067729308" lon="9.059071606840558"><ele>73.33333333333333</ele><time>2026-04-06T16:50:44Z</time></trkpt><trkpt lat="33.45913392203724" lon="9.058820183923336"><ele>73.66666666666667</ele><time>2026-04-06T16:50:45Z</time></trkpt><trkpt lat="33.45914647005758" lon="9.05857105974666"><ele>74.0</ele><time>2026-04-06T16:50:46Z</time></trkpt><trkpt lat="33.459162499706196" lon="9.058318228938807"><ele>73.66666666666667</ele><time>2026-04-06T16:50:47Z</time></trkpt><trkpt lat="33.45918113751888" lon="9.058072152760545"><ele>73.33333333333333</ele><time>2026-04-06T16:50:48Z</time></trkpt><trkpt lat="33.45919813715247" lon="9.057817222839326"><ele>73.0</ele><time>2026-04-06T16:50:49Z</time></trkpt><trkpt lat="33.459209714767844" lon="9.057563744973148"><ele>71.66666666666666</ele><time>2026-04-06T16:50:50Z</time></trkpt><trkpt lat="33.459223136180704" lon="9.057313102380315"><ele>70.33333333333333</ele><time>2026-04-06T16:50:51Z</time></trkpt><trkpt lat="33.45923643718438" lon="9.057073981837734"><ele>69.0</ele><time>2026-04-06T16:50:52Z</time></trkpt><trkpt lat="33.459250167916814" lon="9.056831289990981"><ele>69.33333333333333</ele><time>2026-04-06T16:50:53Z</time></trkpt><trkpt lat="33.459263493232044" lon="9.056589729907923"><ele>69.66666666666666</ele><time>2026-04-06T16:50:54Z</time></trkpt><trkpt lat="33.45927718529676" lon="9.056342658213012"><ele>70.0</ele><time>2026-04-06T16:50:55Z</time></trkpt><trkpt lat="33.45929189088612" lon="9.056095974234875"><ele>70.0</ele><time>2026-04-06T16:50:56Z</time></trkpt><trkpt lat="33.459306692083416" lon="9.055845477502716"><ele>70.0</ele><time>2026-04-06T16:50:57Z</time></trkpt><trkpt lat="33.45932149140643" lon="9.055590273576257"><ele>70.0</ele><time>2026-04-06T16:50:58Z</time></trkpt><trkpt lat="33.4593340492336" lon="9.055335308696868"><ele>69.66666666666666</ele><time>2026-04-06T16:50:59Z</time></trkpt><trkpt lat="33.459347503666116" lon="9.055079403590467"><ele>69.33333333333333</ele><time>2026-04-06T16:51:00Z</time></trkpt><trkpt lat="33.459361144840145" lon="9.054822763735286"><ele>69.0</ele><time>2026-04-06T16:51:01Z</time></trkpt><trkpt lat="33.459371471709694" lon="9.054563742423728"><ele>69.0</ele><time>2026-04-06T16:51:02Z</time></trkpt><trkpt lat="33.45938278530591" lon="9.054308483916605"><ele>69.0</ele><time>2026-04-06T16:51:03Z</time></trkpt><trkpt lat="33.45939545226177" lon="9.054050249733262"><ele>69.0</ele><time>2026-04-06T16:51:04Z</time></trkpt><trkpt lat="33.459409803718714" lon="9.053794924374582"><ele>69.66666666666667</ele><time>2026-04-06T16:51:05Z</time></trkpt><trkpt lat="33.459423903546224" lon="9.05354440325904"><ele>70.33333333333334</ele><time>2026-04-06T16:51:06Z</time></trkpt><trkpt lat="33.459440513346365" lon="9.053288499893897"><ele>71.0</ele><time>2026-04-06T16:51:07Z</time></trkpt><trkpt lat="33.45945872544023" lon="9.053025426210958"><ele>71.5</ele><time>2026-04-06T16:51:08Z</time></trkpt><trkpt lat="33.4594730294908" lon="9.052754381677502"><ele>72.0</ele><time>2026-04-06T16:51:09Z</time></trkpt><trkpt lat="33.45947940426494" lon="9.052484263740299"><ele>72.0</ele><time>2026-04-06T16:51:10Z</time></trkpt><trkpt lat="33.4594862603471" lon="9.05221292373942"><ele>72.0</ele><time>2026-04-06T16:51:11Z</time></trkpt><trkpt lat="33.459500950501464" lon="9.051948844272598"><ele>72.0</ele><time>2026-04-06T16:51:12Z</time></trkpt><trkpt lat="33.45951728110408" lon="9.05169232490451"><ele>72.33333333333333</ele><time>2026-04-06T16:51:13Z</time></trkpt><trkpt lat="33.45953114962789" lon="9.051444000401327"><ele>72.66666666666666</ele><time>2026-04-06T16:51:14Z</time></trkpt><trkpt lat="33.45954688290373" lon="9.051192326532162"><ele>73.0</ele><time>2026-04-06T16:51:15Z</time></trkpt><trkpt lat="33.45956204666894" lon="9.050948961127284"><ele>73.33333333333333</ele><time>2026-04-06T16:51:16Z</time></trkpt><trkpt lat="33.45957413074831" lon="9.050708088655641"><ele>73.66666666666667</ele><time>2026-04-06T16:51:17Z</time></trkpt><trkpt lat="33.45958386615035" lon="9.050474687702025"><ele>74.0</ele><time>2026-04-06T16:51:18Z</time></trkpt><trkpt lat="33.45959378041825" lon="9.05024502267166"><ele>74.0</ele><time>2026-04-06T16:51:19Z</time></trkpt><trkpt lat="33.459605657490776" lon="9.05001942324432"><ele>74.0</ele><time>2026-04-06T16:51:20Z</time></trkpt><trkpt lat="33.45961470503116" lon="9.04980025723576"><ele>74.0</ele><time>2026-04-06T16:51:21Z</time></trkpt><trkpt lat="33.45962233465875" lon="9.049585690298546"><ele>72.33333333333334</ele><time>2026-04-06T16:51:22Z</time></trkpt><trkpt lat="33.45963389383742" lon="9.04937501127823"><ele>70.66666666666667</ele><time>2026-04-06T16:51:23Z</time></trkpt><trkpt lat="33.459644725162846" lon="9.049157883811226"><ele>69.0</ele><time>2026-04-06T16:51:24Z</time></trkpt><trkpt lat="33.459658160470575" lon="9.04893899984825"><ele>69.0</ele><time>2026-04-06T16:51:25Z</time></trkpt><trkpt lat="33.45967304363354" lon="9.048717233331809"><ele>69.0</ele><time>2026-04-06T16:51:26Z</time></trkpt><trkpt lat="33.45968809469884" lon="9.048496754907454"><ele>69.0</ele><time>2026-04-06T16:51:27Z</time></trkpt><trkpt lat="33.459704475972956" lon="9.04827517239963"><ele>69.0</ele><time>2026-04-06T16:51:28Z</time></trkpt><trkpt lat="33.459717946388494" lon="9.048053386419715"><ele>69.0</ele><time>2026-04-06T16:51:29Z</time></trkpt><trkpt lat="33.459727533839555" lon="9.047832586732913"><ele>69.0</ele><time>2026-04-06T16:51:30Z</time></trkpt><trkpt lat="33.45973490138119" lon="9.047607718680888"><ele>68.33333333333333</ele><time>2026-04-06T16:51:31Z</time></trkpt><trkpt lat="33.45974311956119" lon="9.047388973809353"><ele>67.66666666666666</ele><time>2026-04-06T16:51:32Z</time></trkpt><trkpt lat="33.4597561764825" lon="9.047161356366527"><ele>67.0</ele><time>2026-04-06T16:51:33Z</time></trkpt><trkpt lat="33.45976930170849" lon="9.046942825932424"><ele>67.0</ele><time>2026-04-06T16:51:34Z</time></trkpt><trkpt lat="33.45978199046225" lon="9.046746079592204"><ele>67.0</ele><time>2026-04-06T16:51:35Z</time></trkpt><trkpt lat="33.45979199864977" lon="9.04655514043322"><ele>67.0</ele><time>2026-04-06T16:51:36Z</time></trkpt><trkpt lat="33.459802563874575" lon="9.046375693054086"><ele>67.25</ele><time>2026-04-06T16:51:37Z</time></trkpt><trkpt lat="33.45980825899497" lon="9.046188499872834"><ele>67.5</ele><time>2026-04-06T16:51:38Z</time></trkpt><trkpt lat="33.45981214862856" lon="9.046014544391163"><ele>67.75</ele><time>2026-04-06T16:51:39Z</time></trkpt><trkpt lat="33.459821066474476" lon="9.04584763911429"><ele>68.0</ele><time>2026-04-06T16:51:40Z</time></trkpt><trkpt lat="33.459831311266406" lon="9.045689811453931"><ele>67.5</ele><time>2026-04-06T16:51:41Z</time></trkpt><trkpt lat="33.459837102015726" lon="9.045539802385624"><ele>67.0</ele><time>2026-04-06T16:51:42Z</time></trkpt><trkpt lat="33.4598444855641" lon="9.045395783521377"><ele>66.5</ele><time>2026-04-06T16:51:43Z</time></trkpt><trkpt lat="33.45985510278771" lon="9.045257980359825"><ele>66.0</ele><time>2026-04-06T16:51:44Z</time></trkpt><trkpt lat="33.45986447932028" lon="9.045125880022889"><ele>66.0</ele><time>2026-04-06T16:51:45Z</time></trkpt><trkpt lat="33.45987253716583" lon="9.044996030339146"><ele>66.0</ele><time>2026-04-06T16:51:46Z</time></trkpt><trkpt lat="33.459879755742826" lon="9.044876291293502"><ele>66.0</ele><time>2026-04-06T16:51:47Z</time></trkpt><trkpt lat="33.459886934063604" lon="9.044772231064623"><ele>66.0</ele><time>2026-04-06T16:51:48Z</time></trkpt><trkpt lat="33.459893500669196" lon="9.044687535429253"><ele>66.0</ele><time>2026-04-06T16:51:49Z</time></trkpt><trkpt lat="33.459899680543536" lon="9.044551428257261"><ele>66.0</ele><time>2026-04-06T16:51:51Z</time></trkpt><trkpt lat="33.459900493152794" lon="9.04441836312664"><ele>66.0</ele><time>2026-04-06T16:51:53Z</time></trkpt><trkpt lat="33.45988902453954" lon="9.044302060132521"><ele>66.0</ele><time>2026-04-06T16:51:55Z</time></trkpt><trkpt lat="33.45983733616431" lon="9.044207852098252"><ele>66.0</ele><time>2026-04-06T16:51:57Z</time></trkpt><trkpt lat="33.459780507967416" lon="9.044146767583834"><ele>66.0</ele><time>2026-04-06T16:51:59Z</time></trkpt><trkpt lat="33.45974106088699" lon="9.044070216438584"><ele>66.5</ele><time>2026-04-06T16:52:02Z</time></trkpt><trkpt lat="33.459672635920285" lon="9.044030213081959"><ele>67.0</ele><time>2026-04-06T16:56:56Z</time></trkpt><trkpt lat="33.4596690234074" lon="9.043940445131199"><ele>67.5</ele><time>2026-04-06T16:57:05Z</time></trkpt><trkpt lat="33.45973912280571" lon="9.04386700428499"><ele>68.0</ele><time>2026-04-06T17:09:53Z</time></trkpt><trkpt lat="33.45980825701959" lon="9.043864403418574"><ele>68.5</ele><time>2026-04-06T17:09:56Z</time></trkpt><trkpt lat="33.459879062131186" lon="9.04382752879045"><ele>69.0</ele><time>2026-04-06T17:10:00Z</time></trkpt><trkpt lat="33.45990908320234" lon="9.043728272448018"><ele>69.0</ele><time>2026-04-06T17:10:02Z</time></trkpt><trkpt lat="33.45990787514336" lon="9.043625562757375"><ele>69.0</ele><time>2026-04-06T17:10:04Z</time></trkpt><trkpt lat="33.45990940179451" lon="9.04353934036143"><ele>69.0</ele><time>2026-04-06T17:10:06Z</time></trkpt><trkpt lat="33.459918837001396" lon="9.043460066226613"><ele>69.0</ele><time>2026-04-06T17:10:08Z</time></trkpt><trkpt lat="33.45992369094237" lon="9.043348795585349"><ele>69.0</ele><time>2026-04-06T17:10:10Z</time></trkpt><trkpt lat="33.45993966196134" lon="9.043197980708138"><ele>69.0</ele><time>2026-04-06T17:10:12Z</time></trkpt><trkpt lat="33.45994514635119" lon="9.043115771923794"><ele>69.16666666666667</ele><time>2026-04-06T17:10:13Z</time></trkpt><trkpt lat="33.45995047656324" lon="9.043029722073973"><ele>69.33333333333333</ele><time>2026-04-06T17:10:14Z</time></trkpt><trkpt lat="33.459953951622126" lon="9.04294701707977"><ele>69.5</ele><time>2026-04-06T17:10:15Z</time></trkpt><trkpt lat="33.45995679188296" lon="9.042861143640916"><ele>69.66666666666666</ele><time>2026-04-06T17:10:16Z</time></trkpt><trkpt lat="33.45996626320791" lon="9.042770239370938"><ele>69.83333333333333</ele><time>2026-04-06T17:10:17Z</time></trkpt><trkpt lat="33.45997365357397" lon="9.042674303360462"><ele>70.0</ele><time>2026-04-06T17:10:18Z</time></trkpt><trkpt lat="33.45997585634213" lon="9.042567341946176"><ele>70.0</ele><time>2026-04-06T17:10:19Z</time></trkpt><trkpt lat="33.45997811986839" lon="9.042460853449702"><ele>70.0</ele><time>2026-04-06T17:10:20Z</time></trkpt><trkpt lat="33.45998472505371" lon="9.042351293661817"><ele>70.0</ele><time>2026-04-06T17:10:21Z</time></trkpt><trkpt lat="33.459992763076016" lon="9.042236107960017"><ele>70.0</ele><time>2026-04-06T17:10:22Z</time></trkpt><trkpt lat="33.459997119509616" lon="9.042120121495136"><ele>70.0</ele><time>2026-04-06T17:10:23Z</time></trkpt><trkpt lat="33.46000385619496" lon="9.042000140947335"><ele>70.0</ele><time>2026-04-06T17:10:24Z</time></trkpt><trkpt lat="33.460014194725225" lon="9.041877755579465"><ele>70.0</ele><time>2026-04-06T17:10:25Z</time></trkpt><trkpt lat="33.46002315761864" lon="9.041753686981897"><ele>70.0</ele><time>2026-04-06T17:10:26Z</time></trkpt><trkpt lat="33.46002937992044" lon="9.041625492014685"><ele>70.0</ele><time>2026-04-06T17:10:27Z</time></trkpt><trkpt lat="33.460037517351026" lon="9.041486299557626"><ele>70.0</ele><time>2026-04-06T17:10:28Z</time></trkpt><trkpt lat="33.46005183193937" lon="9.041348148784246"><ele>70.0</ele><time>2026-04-06T17:10:29Z</time></trkpt><trkpt lat="33.46006651281723" lon="9.041204618557703"><ele>70.0</ele><time>2026-04-06T17:10:30Z</time></trkpt><trkpt lat="33.460075484958615" lon="9.04106341824129"><ele>70.0</ele><time>2026-04-06T17:10:31Z</time></trkpt><trkpt lat="33.46007963611553" lon="9.040921394109391"><ele>70.0</ele><time>2026-04-06T17:10:32Z</time></trkpt><trkpt lat="33.46007762020742" lon="9.040789698726773"><ele>70.0</ele><time>2026-04-06T17:10:33Z</time></trkpt><trkpt lat="33.460078162385635" lon="9.040669801777584"><ele>70.0</ele><time>2026-04-06T17:10:34Z</time></trkpt><trkpt lat="33.460083196997466" lon="9.040554857512179"><ele>70.0</ele><time>2026-04-06T17:10:35Z</time></trkpt><trkpt lat="33.46008397735824" lon="9.04045032567869"><ele>70.0</ele><time>2026-04-06T17:10:36Z</time></trkpt><trkpt lat="33.4600826691625" lon="9.040348489717887"><ele>70.0</ele><time>2026-04-06T17:10:37Z</time></trkpt><trkpt lat="33.46008085133324" lon="9.040251365115806"><ele>70.0</ele><time>2026-04-06T17:10:38Z</time></trkpt><trkpt lat="33.46007793527745" lon="9.040144909142349"><ele>70.0</ele><time>2026-04-06T17:10:39Z</time></trkpt><trkpt lat="33.460074936105755" lon="9.040021468009597"><ele>70.0</ele><time>2026-04-06T17:10:40Z</time></trkpt><trkpt lat="33.460073897022966" lon="9.039901174172988"><ele>70.0</ele><time>2026-04-06T17:10:41Z</time></trkpt><trkpt lat="33.46006880297117" lon="9.039781539037932"><ele>70.0</ele><time>2026-04-06T17:10:42Z</time></trkpt><trkpt lat="33.46006680826273" lon="9.039654062178547"><ele>70.0</ele><time>2026-04-06T17:10:43Z</time></trkpt><trkpt lat="33.46006751476173" lon="9.039526594333443"><ele>69.0</ele><time>2026-04-06T17:10:44Z</time></trkpt><trkpt lat="33.46006578503619" lon="9.039398497626228"><ele>68.0</ele><time>2026-04-06T17:10:45Z</time></trkpt><trkpt lat="33.46005933090634" lon="9.039278813918019"><ele>67.0</ele><time>2026-04-06T17:10:46Z</time></trkpt><trkpt lat="33.46005177921409" lon="9.039169321396201"><ele>66.0</ele><time>2026-04-06T17:10:47Z</time></trkpt><trkpt lat="33.460043975920044" lon="9.039065073669125"><ele>65.0</ele><time>2026-04-06T17:10:48Z</time></trkpt><trkpt lat="33.46003701649695" lon="9.038955367682686"><ele>64.83333333333334</ele><time>2026-04-06T17:10:49Z</time></trkpt><trkpt lat="33.460029166083274" lon="9.03884498298274"><ele>64.66666666666667</ele><time>2026-04-06T17:10:50Z</time></trkpt><trkpt lat="33.460016747982905" lon="9.038743196344088"><ele>64.5</ele><time>2026-04-06T17:10:51Z</time></trkpt><trkpt lat="33.460006226533906" lon="9.03865078251396"><ele>64.33333333333333</ele><time>2026-04-06T17:10:52Z</time></trkpt><trkpt lat="33.45999963451316" lon="9.038560338085103"><ele>64.16666666666666</ele><time>2026-04-06T17:10:53Z</time></trkpt><trkpt lat="33.45999252251601" lon="9.038464973068873"><ele>64.0</ele><time>2026-04-06T17:10:54Z</time></trkpt><trkpt lat="33.45998400186775" lon="9.038365679586331"><ele>64.16666666666666</ele><time>2026-04-06T17:10:55Z</time></trkpt><trkpt lat="33.45997920158245" lon="9.038273629123578"><ele>64.33333333333333</ele><time>2026-04-06T17:10:56Z</time></trkpt><trkpt lat="33.45997726745735" lon="9.038191193426176"><ele>64.5</ele><time>2026-04-06T17:10:57Z</time></trkpt><trkpt lat="33.45997502635976" lon="9.038054084903154"><ele>64.66666666666667</ele><time>2026-04-06T17:10:59Z</time></trkpt><trkpt lat="33.459977631339534" lon="9.037949386865753"><ele>64.83333333333334</ele><time>2026-04-06T17:11:01Z</time></trkpt><trkpt lat="33.45996736148691" lon="9.037832440624548"><ele>65.0</ele><time>2026-04-06T17:11:03Z</time></trkpt><trkpt lat="33.45996229018209" lon="9.037699165072222"><ele>65.0</ele><time>2026-04-06T17:11:05Z</time></trkpt><trkpt lat="33.45995751189174" lon="9.037541348782561"><ele>65.0</ele><time>2026-04-06T17:11:07Z</time></trkpt><trkpt lat="33.45995281783361" lon="9.037453851347838"><ele>65.0</ele><time>2026-04-06T17:11:08Z</time></trkpt><trkpt lat="33.459953406641425" lon="9.037365351503922"><ele>65.0</ele><time>2026-04-06T17:11:09Z</time></trkpt><trkpt lat="33.45995227650618" lon="9.037278794816036"><ele>65.0</ele><time>2026-04-06T17:11:10Z</time></trkpt><trkpt lat="33.459952783975496" lon="9.037195442102078"><ele>65.0</ele><time>2026-04-06T17:11:11Z</time></trkpt><trkpt lat="33.459955102975016" lon="9.037112896628516"><ele>65.14285714285715</ele><time>2026-04-06T17:11:12Z</time></trkpt><trkpt lat="33.45995522514605" lon="9.037028835475603"><ele>65.28571428571429</ele><time>2026-04-06T17:11:13Z</time></trkpt><trkpt lat="33.45995484019683" lon="9.036943108756144"><ele>65.42857142857143</ele><time>2026-04-06T17:11:14Z</time></trkpt><trkpt lat="33.45995100594896" lon="9.036860925482435"><ele>65.57142857142858</ele><time>2026-04-06T17:11:15Z</time></trkpt><trkpt lat="33.459951950546625" lon="9.036770187787472"><ele>65.71428571428572</ele><time>2026-04-06T17:11:16Z</time></trkpt><trkpt lat="33.45995099598473" lon="9.036680513600894"><ele>65.85714285714286</ele><time>2026-04-06T17:11:17Z</time></trkpt><trkpt lat="33.459950823195314" lon="9.036585361909289"><ele>66.0</ele><time>2026-04-06T17:11:18Z</time></trkpt><trkpt lat="33.45994873403454" lon="9.036488880990902"><ele>66.16666666666667</ele><time>2026-04-06T17:11:19Z</time></trkpt><trkpt lat="33.45994956638916" lon="9.036399401471675"><ele>66.33333333333333</ele><time>2026-04-06T17:11:20Z</time></trkpt><trkpt lat="33.45994826059494" lon="9.036305231984887"><ele>66.5</ele><time>2026-04-06T17:11:21Z</time></trkpt><trkpt lat="33.459948771890225" lon="9.036212652440371"><ele>66.66666666666666</ele><time>2026-04-06T17:11:22Z</time></trkpt><trkpt lat="33.45995390293973" lon="9.0361182080921"><ele>66.83333333333333</ele><time>2026-04-06T17:11:23Z</time></trkpt><trkpt lat="33.45995968623732" lon="9.036024668881936"><ele>67.0</ele><time>2026-04-06T17:11:24Z</time></trkpt><trkpt lat="33.45996077737985" lon="9.035922120500349"><ele>67.0</ele><time>2026-04-06T17:11:25Z</time></trkpt><trkpt lat="33.45996632299261" lon="9.035821332914669"><ele>67.0</ele><time>2026-04-06T17:11:26Z</time></trkpt><trkpt lat="33.45996944685614" lon="9.03572082837401"><ele>67.0</ele><time>2026-04-06T17:11:27Z</time></trkpt><trkpt lat="33.45997239069897" lon="9.035611327657557"><ele>67.0</ele><time>2026-04-06T17:11:28Z</time></trkpt><trkpt lat="33.45998022495086" lon="9.035505002440052"><ele>67.0</ele><time>2026-04-06T17:11:29Z</time></trkpt><trkpt lat="33.45998844925744" lon="9.03539603418332"><ele>67.0</ele><time>2026-04-06T17:11:30Z</time></trkpt><trkpt lat="33.45999348606649" lon="9.03529010046457"><ele>67.28571428571429</ele><time>2026-04-06T17:11:31Z</time></trkpt><trkpt lat="33.459996605386394" lon="9.035200432425151"><ele>67.57142857142857</ele><time>2026-04-06T17:11:32Z</time></trkpt><trkpt lat="33.460001948355185" lon="9.035121004617972"><ele>67.85714285714286</ele><time>2026-04-06T17:11:33Z</time></trkpt><trkpt lat="33.46000690096374" lon="9.035043538638346"><ele>68.14285714285714</ele><time>2026-04-06T17:11:34Z</time></trkpt><trkpt lat="33.46001044551282" lon="9.034962488968432"><ele>68.42857142857143</ele><time>2026-04-06T17:11:35Z</time></trkpt><trkpt lat="33.46001790767466" lon="9.034876167904692"><ele>68.71428571428572</ele><time>2026-04-06T17:11:36Z</time></trkpt><trkpt lat="33.460025472118744" lon="9.034790505547537"><ele>69.0</ele><time>2026-04-06T17:11:37Z</time></trkpt><trkpt lat="33.46002989643083" lon="9.034704706456587"><ele>69.0</ele><time>2026-04-06T17:11:38Z</time></trkpt><trkpt lat="33.460031671964295" lon="9.03461717906156"><ele>69.0</ele><time>2026-04-06T17:11:39Z</time></trkpt><trkpt lat="33.46003398890114" lon="9.034523455219537"><ele>69.0</ele><time>2026-04-06T17:11:40Z</time></trkpt><trkpt lat="33.46003834592866" lon="9.034427536280296"><ele>69.0</ele><time>2026-04-06T17:11:41Z</time></trkpt><trkpt lat="33.460042412582176" lon="9.034324720521694"><ele>69.0</ele><time>2026-04-06T17:11:42Z</time></trkpt><trkpt lat="33.46004695880252" lon="9.034222882622863"><ele>69.0</ele><time>2026-04-06T17:11:43Z</time></trkpt><trkpt lat="33.46004933672308" lon="9.034119772207106"><ele>68.83333333333333</ele><time>2026-04-06T17:11:44Z</time></trkpt><trkpt lat="33.460051616129356" lon="9.034018096184807"><ele>68.66666666666667</ele><time>2026-04-06T17:11:45Z</time></trkpt><trkpt lat="33.46005427696468" lon="9.033926444199508"><ele>68.5</ele><time>2026-04-06T17:11:46Z</time></trkpt><trkpt lat="33.46005822107516" lon="9.033832714552732"><ele>68.33333333333334</ele><time>2026-04-06T17:11:47Z</time></trkpt><trkpt lat="33.46006143069527" lon="9.03373294995649"><ele>68.16666666666667</ele><time>2026-04-06T17:11:48Z</time></trkpt><trkpt lat="33.460062527118836" lon="9.033637769486422"><ele>68.0</ele><time>2026-04-06T17:11:49Z</time></trkpt><trkpt lat="33.460063339415726" lon="9.03355084219601"><ele>68.0</ele><time>2026-04-06T17:11:50Z</time></trkpt><trkpt lat="33.460064628095296" lon="9.033460736356897"><ele>68.0</ele><time>2026-04-06T17:11:51Z</time></trkpt><trkpt lat="33.46007081435882" lon="9.03338515019034"><ele>68.0</ele><time>2026-04-06T17:11:52Z</time></trkpt><trkpt lat="33.46008798424884" lon="9.033238758705059"><ele>68.0</ele><time>2026-04-06T17:11:54Z</time></trkpt><trkpt lat="33.46009605302289" lon="9.033094704058506"><ele>68.0</ele><time>2026-04-06T17:11:56Z</time></trkpt><trkpt lat="33.46009070014226" lon="9.033014012724676"><ele>68.16666666666667</ele><time>2026-04-06T17:11:57Z</time></trkpt><trkpt lat="33.46008955667456" lon="9.032934681646543"><ele>68.33333333333334</ele><time>2026-04-06T17:11:58Z</time></trkpt><trkpt lat="33.46009581948304" lon="9.032853677400555"><ele>68.5</ele><time>2026-04-06T17:11:59Z</time></trkpt><trkpt lat="33.46010273751833" lon="9.032770936409747"><ele>68.66666666666667</ele><time>2026-04-06T17:12:00Z</time></trkpt><trkpt lat="33.46010571586759" lon="9.032688547988394"><ele>68.83333333333333</ele><time>2026-04-06T17:12:01Z</time></trkpt><trkpt lat="33.460098745054275" lon="9.032535399639663"><ele>69.0</ele><time>2026-04-06T17:12:03Z</time></trkpt><trkpt lat="33.46010170407472" lon="9.032455515987705"><ele>69.33333333333333</ele><time>2026-04-06T17:12:04Z</time></trkpt><trkpt lat="33.460110241768334" lon="9.032369012650095"><ele>69.66666666666667</ele><time>2026-04-06T17:12:05Z</time></trkpt><trkpt lat="33.4601163155916" lon="9.032277057699746"><ele>70.0</ele><time>2026-04-06T17:12:06Z</time></trkpt><trkpt lat="33.460121295441475" lon="9.032184164173845"><ele>70.33333333333334</ele><time>2026-04-06T17:12:07Z</time></trkpt><trkpt lat="33.460126402603834" lon="9.032093268551169"><ele>70.66666666666667</ele><time>2026-04-06T17:12:08Z</time></trkpt><trkpt lat="33.460129488200536" lon="9.031994259759252"><ele>71.0</ele><time>2026-04-06T17:12:09Z</time></trkpt><trkpt lat="33.46013000014192" lon="9.031898799436219"><ele>71.0</ele><time>2026-04-06T17:12:10Z</time></trkpt><trkpt lat="33.46013342048775" lon="9.03180323592552"><ele>71.0</ele><time>2026-04-06T17:12:11Z</time></trkpt><trkpt lat="33.46013792794601" lon="9.03170523833673"><ele>71.0</ele><time>2026-04-06T17:12:12Z</time></trkpt><trkpt lat="33.46014218850411" lon="9.031614041675548"><ele>71.0</ele><time>2026-04-06T17:12:13Z</time></trkpt><trkpt lat="33.46014632728054" lon="9.031528169998865"><ele>71.0</ele><time>2026-04-06T17:12:14Z</time></trkpt><trkpt lat="33.46014828906641" lon="9.03144398985627"><ele>71.0</ele><time>2026-04-06T17:12:15Z</time></trkpt><trkpt lat="33.46014881471106" lon="9.03135916215227"><ele>70.83333333333334</ele><time>2026-04-06T17:12:16Z</time></trkpt><trkpt lat="33.46014770717605" lon="9.031273158143456"><ele>70.66666666666667</ele><time>2026-04-06T17:12:17Z</time></trkpt><trkpt lat="33.46014820896279" lon="9.031186268490352"><ele>70.5</ele><time>2026-04-06T17:12:18Z</time></trkpt><trkpt lat="33.46014468088077" lon="9.031103419665294"><ele>70.33333333333333</ele><time>2026-04-06T17:12:19Z</time></trkpt><trkpt lat="33.460137134152504" lon="9.031020665758875"><ele>70.16666666666666</ele><time>2026-04-06T17:12:20Z</time></trkpt><trkpt lat="33.46012747763789" lon="9.030943210587512"><ele>70.0</ele><time>2026-04-06T17:12:21Z</time></trkpt><trkpt lat="33.460106927482286" lon="9.030795417611568"><ele>70.0</ele><time>2026-04-06T17:12:23Z</time></trkpt><trkpt lat="33.460099799891125" lon="9.030718704057616"><ele>70.0</ele><time>2026-04-06T17:12:24Z</time></trkpt><trkpt lat="33.46009444263633" lon="9.030640658210459"><ele>70.0</ele><time>2026-04-06T17:12:25Z</time></trkpt><trkpt lat="33.460084514762144" lon="9.030564207942376"><ele>70.0</ele><time>2026-04-06T17:12:26Z</time></trkpt><trkpt lat="33.46007528882014" lon="9.030481949959958"><ele>70.0</ele><time>2026-04-06T17:12:27Z</time></trkpt><trkpt lat="33.46006890446809" lon="9.030400112011797"><ele>70.0</ele><time>2026-04-06T17:12:28Z</time></trkpt><trkpt lat="33.46005955858074" lon="9.030315577155116"><ele>70.0</ele><time>2026-04-06T17:12:29Z</time></trkpt><trkpt lat="33.4600464364017" lon="9.030233036059478"><ele>70.0</ele><time>2026-04-06T17:12:30Z</time></trkpt><trkpt lat="33.4600353482111" lon="9.030150085648343"><ele>70.0</ele><time>2026-04-06T17:12:31Z</time></trkpt><trkpt lat="33.46002770359647" lon="9.030063887191108"><ele>70.0</ele><time>2026-04-06T17:12:32Z</time></trkpt><trkpt lat="33.460020145212845" lon="9.02997896117787"><ele>70.0</ele><time>2026-04-06T17:12:33Z</time></trkpt><trkpt lat="33.46001483117475" lon="9.029897664585066"><ele>70.0</ele><time>2026-04-06T17:12:34Z</time></trkpt><trkpt lat="33.46000062631947" lon="9.029740251564212"><ele>70.0</ele><time>2026-04-06T17:12:36Z</time></trkpt><trkpt lat="33.459984488896815" lon="9.029632453491203"><ele>70.0</ele><time>2026-04-06T17:12:37Z</time></trkpt><trkpt lat="33.45997323159233" lon="9.029530213520298"><ele>70.0</ele><time>2026-04-06T17:12:38Z</time></trkpt><trkpt lat="33.459965463579856" lon="9.029430712139801"><ele>70.0</ele><time>2026-04-06T17:12:39Z</time></trkpt><trkpt lat="33.459952073720714" lon="9.029329867850574"><ele>70.0</ele><time>2026-04-06T17:12:40Z</time></trkpt><trkpt lat="33.45993708376716" lon="9.029228925745704"><ele>70.0</ele><time>2026-04-06T17:12:41Z</time></trkpt><trkpt lat="33.459926071204855" lon="9.02912867408218"><ele>70.0</ele><time>2026-04-06T17:12:42Z</time></trkpt><trkpt lat="33.45991044923591" lon="9.029024621664927"><ele>70.2</ele><time>2026-04-06T17:12:43Z</time></trkpt><trkpt lat="33.45988364228918" lon="9.028926518724194"><ele>70.4</ele><time>2026-04-06T17:12:44Z</time></trkpt><trkpt lat="33.45984877516808" lon="9.028828347756235"><ele>70.6</ele><time>2026-04-06T17:12:45Z</time></trkpt><trkpt lat="33.45981072265419" lon="9.028733477257653"><ele>70.8</ele><time>2026-04-06T17:12:46Z</time></trkpt><trkpt lat="33.45977017249797" lon="9.028631935844363"><ele>71.0</ele><time>2026-04-06T17:12:47Z</time></trkpt><trkpt lat="33.45972816702905" lon="9.028531238874113"><ele>71.0</ele><time>2026-04-06T17:12:48Z</time></trkpt><trkpt lat="33.45968340376761" lon="9.028432340028614"><ele>71.0</ele><time>2026-04-06T17:12:49Z</time></trkpt><trkpt lat="33.45963518868945" lon="9.028332245686666"><ele>71.0</ele><time>2026-04-06T17:12:50Z</time></trkpt><trkpt lat="33.45958809596753" lon="9.028232511093112"><ele>71.0</ele><time>2026-04-06T17:12:51Z</time></trkpt><trkpt lat="33.45953517332005" lon="9.02814111999322"><ele>71.0</ele><time>2026-04-06T17:12:52Z</time></trkpt><trkpt lat="33.4594821357117" lon="9.028056946200342"><ele>71.0</ele><time>2026-04-06T17:12:53Z</time></trkpt><trkpt lat="33.459440346441596" lon="9.027976792196306"><ele>71.0</ele><time>2026-04-06T17:12:54Z</time></trkpt><trkpt lat="33.459390763345304" lon="9.027909242686007"><ele>71.0</ele><time>2026-04-06T17:12:55Z</time></trkpt><trkpt lat="33.4593330247538" lon="9.027841440665256"><ele>71.0</ele><time>2026-04-06T17:12:56Z</time></trkpt><trkpt lat="33.45927878157366" lon="9.027768175604674"><ele>71.0</ele><time>2026-04-06T17:12:57Z</time></trkpt><trkpt lat="33.45922931066045" lon="9.027684350937038"><ele>71.0</ele><time>2026-04-06T17:12:58Z</time></trkpt><trkpt lat="33.45917533149698" lon="9.027602246967987"><ele>71.0</ele><time>2026-04-06T17:12:59Z</time></trkpt><trkpt lat="33.459108001773245" lon="9.027534203198844"><ele>71.0</ele><time>2026-04-06T17:13:00Z</time></trkpt><trkpt lat="33.4590439020861" lon="9.027461049411398"><ele>71.0</ele><time>2026-04-06T17:13:01Z</time></trkpt><trkpt lat="33.458983929821066" lon="9.027389420866085"><ele>71.0</ele><time>2026-04-06T17:13:02Z</time></trkpt><trkpt lat="33.45892031863959" lon="9.027328471860733"><ele>71.0</ele><time>2026-04-06T17:13:03Z</time></trkpt><trkpt lat="33.45886056353528" lon="9.027266843612686"><ele>71.0</ele><time>2026-04-06T17:13:04Z</time></trkpt><trkpt lat="33.45879954665868" lon="9.027205932815809"><ele>70.83333333333334</ele><time>2026-04-06T17:13:05Z</time></trkpt><trkpt lat="33.45873755936538" lon="9.027139134419974"><ele>70.66666666666667</ele><time>2026-04-06T17:13:06Z</time></trkpt><trkpt lat="33.458677803636256" lon="9.02707443266556"><ele>70.5</ele><time>2026-04-06T17:13:07Z</time></trkpt><trkpt lat="33.458614995473944" lon="9.027011045813623"><ele>70.33333333333333</ele><time>2026-04-06T17:13:08Z</time></trkpt><trkpt lat="33.4585506744869" lon="9.026950191577395"><ele>70.16666666666666</ele><time>2026-04-06T17:13:09Z</time></trkpt><trkpt lat="33.45848736166922" lon="9.026885875231068"><ele>70.0</ele><time>2026-04-06T17:13:10Z</time></trkpt><trkpt lat="33.45842306287534" lon="9.02682069304768"><ele>70.0</ele><time>2026-04-06T17:13:11Z</time></trkpt><trkpt lat="33.45836272667477" lon="9.026754919489255"><ele>70.0</ele><time>2026-04-06T17:13:12Z</time></trkpt><trkpt lat="33.45830052811403" lon="9.026693601075834"><ele>70.0</ele><time>2026-04-06T17:13:13Z</time></trkpt><trkpt lat="33.4582320885219" lon="9.026637900008978"><ele>70.0</ele><time>2026-04-06T17:13:14Z</time></trkpt><trkpt lat="33.45816275301302" lon="9.026592442465635"><ele>70.0</ele><time>2026-04-06T17:13:15Z</time></trkpt><trkpt lat="33.45809727055201" lon="9.02654224298507"><ele>70.0</ele><time>2026-04-06T17:13:16Z</time></trkpt><trkpt lat="33.45803390393356" lon="9.026484408698256"><ele>70.33333333333333</ele><time>2026-04-06T17:13:17Z</time></trkpt><trkpt lat="33.45797144168609" lon="9.026423603791732"><ele>70.66666666666666</ele><time>2026-04-06T17:13:18Z</time></trkpt><trkpt lat="33.45790942879746" lon="9.02636015328516"><ele>71.0</ele><time>2026-04-06T17:13:19Z</time></trkpt><trkpt lat="33.457842940120955" lon="9.02630664564351"><ele>71.33333333333333</ele><time>2026-04-06T17:13:20Z</time></trkpt><trkpt lat="33.45777343326635" lon="9.026257142467443"><ele>71.66666666666667</ele><time>2026-04-06T17:13:21Z</time></trkpt><trkpt lat="33.45770661093608" lon="9.026203324513581"><ele>72.0</ele><time>2026-04-06T17:13:22Z</time></trkpt><trkpt lat="33.45764869625526" lon="9.0261482223476"><ele>72.0</ele><time>2026-04-06T17:13:23Z</time></trkpt><trkpt lat="33.457591277048095" lon="9.026092992154032"><ele>72.0</ele><time>2026-04-06T17:13:24Z</time></trkpt><trkpt lat="33.457536986913915" lon="9.026034124506708"><ele>72.0</ele><time>2026-04-06T17:13:25Z</time></trkpt><trkpt lat="33.45748845499344" lon="9.025970101449564"><ele>72.0</ele><time>2026-04-06T17:13:26Z</time></trkpt><trkpt lat="33.45741763555148" lon="9.025874441214704"><ele>72.0</ele><time>2026-04-06T17:13:28Z</time></trkpt><trkpt lat="33.457339307814685" lon="9.02575616827609"><ele>71.83333333333333</ele><time>2026-04-06T17:13:30Z</time></trkpt><trkpt lat="33.45730885010583" lon="9.025681172895725"><ele>71.66666666666667</ele><time>2026-04-06T17:13:31Z</time></trkpt><trkpt lat="33.45728426983349" lon="9.025603903552025"><ele>71.5</ele><time>2026-04-06T17:13:32Z</time></trkpt><trkpt lat="33.45726377592445" lon="9.025484111321033"><ele>71.33333333333334</ele><time>2026-04-06T17:13:34Z</time></trkpt><trkpt lat="33.45723739771501" lon="9.02539460972002"><ele>71.16666666666667</ele><time>2026-04-06T17:13:36Z</time></trkpt><trkpt lat="33.45722475179036" lon="9.025310127070831"><ele>71.0</ele><time>2026-04-06T17:13:38Z</time></trkpt><trkpt lat="33.457217325501475" lon="9.025211710269627"><ele>71.0</ele><time>2026-04-06T17:13:40Z</time></trkpt><trkpt lat="33.45720696616117" lon="9.025088617135077"><ele>71.0</ele><time>2026-04-06T17:13:42Z</time></trkpt><trkpt lat="33.45717408704806" lon="9.02496211533214"><ele>71.0</ele><time>2026-04-06T17:13:44Z</time></trkpt><trkpt lat="33.45712882115658" lon="9.024870270140703"><ele>71.0</ele><time>2026-04-06T17:13:46Z</time></trkpt><trkpt lat="33.457093122150525" lon="9.024791856662223"><ele>71.0</ele><time>2026-04-06T17:13:48Z</time></trkpt><trkpt lat="33.457060669705605" lon="9.024714592123132"><ele>71.0</ele><time>2026-04-06T17:13:51Z</time></trkpt><trkpt lat="33.457020372931254" lon="9.024616742662609"><ele>70.66666666666667</ele><time>2026-04-06T17:13:54Z</time></trkpt><trkpt lat="33.456987184562415" lon="9.024540703480053"><ele>70.33333333333334</ele><time>2026-04-06T17:13:56Z</time></trkpt><trkpt lat="33.45695190353302" lon="9.024456308406016"><ele>70.0</ele><time>2026-04-06T17:13:58Z</time></trkpt><trkpt lat="33.45691792245515" lon="9.02435062527769"><ele>69.66666666666667</ele><time>2026-04-06T17:14:00Z</time></trkpt><trkpt lat="33.456887235804714" lon="9.024249065811683"><ele>69.33333333333333</ele><time>2026-04-06T17:14:02Z</time></trkpt><trkpt lat="33.456837117304545" lon="9.024156963116695"><ele>69.0</ele><time>2026-04-06T17:14:04Z</time></trkpt><trkpt lat="33.45679925422263" lon="9.02408356131526"><ele>68.8</ele><time>2026-04-06T17:14:06Z</time></trkpt><trkpt lat="33.456740779813394" lon="9.023993772169854"><ele>68.60000000000001</ele><time>2026-04-06T17:14:08Z</time></trkpt><trkpt lat="33.456670292021464" lon="9.023898960416034"><ele>68.4</ele><time>2026-04-06T17:14:10Z</time></trkpt><trkpt lat="33.45658374299795" lon="9.023793769439017"><ele>68.2</ele><time>2026-04-06T17:14:12Z</time></trkpt><trkpt lat="33.45648565022956" lon="9.023723993920834"><ele>68.0</ele><time>2026-04-06T17:14:14Z</time></trkpt><trkpt lat="33.45640459605998" lon="9.023689157223616"><ele>68.0</ele><time>2026-04-06T17:14:16Z</time></trkpt><trkpt lat="33.45632237908926" lon="9.023642482423588"><ele>68.0</ele><time>2026-04-06T17:14:18Z</time></trkpt><trkpt lat="33.45623944279765" lon="9.023608676705958"><ele>68.0</ele><time>2026-04-06T17:14:20Z</time></trkpt><trkpt lat="33.45616277686611" lon="9.023577215286185"><ele>68.0</ele><time>2026-04-06T17:14:22Z</time></trkpt><trkpt lat="33.456074295681084" lon="9.023541062304256"><ele>68.0</ele><time>2026-04-06T17:14:24Z</time></trkpt><trkpt lat="33.456001212182386" lon="9.023505225920957"><ele>68.0</ele><time>2026-04-06T17:14:26Z</time></trkpt><trkpt lat="33.45591702864451" lon="9.023473493508032"><ele>68.33333333333334</ele><time>2026-04-06T17:14:28Z</time></trkpt><trkpt lat="33.45581173061725" lon="9.023437707686059"><ele>68.66666666666667</ele><time>2026-04-06T17:14:30Z</time></trkpt><trkpt lat="33.45568370679833" lon="9.023407107340267"><ele>69.0</ele><time>2026-04-06T17:14:32Z</time></trkpt><trkpt lat="33.455620014478335" lon="9.023385255514304"><ele>69.33333333333333</ele><time>2026-04-06T17:14:33Z</time></trkpt><trkpt lat="33.45555445282267" lon="9.023359834353238"><ele>69.66666666666666</ele><time>2026-04-06T17:14:34Z</time></trkpt><trkpt lat="33.45548624814241" lon="9.023328750485337"><ele>70.0</ele><time>2026-04-06T17:14:35Z</time></trkpt><trkpt lat="33.45541210954175" lon="9.02330015465521"><ele>70.16666666666666</ele><time>2026-04-06T17:14:36Z</time></trkpt><trkpt lat="33.455339719255655" lon="9.023276554587056"><ele>70.33333333333333</ele><time>2026-04-06T17:14:37Z</time></trkpt><trkpt lat="33.455228526957335" lon="9.023231695728613"><ele>70.5</ele><time>2026-04-06T17:14:39Z</time></trkpt><trkpt lat="33.455168682835534" lon="9.023202269401319"><ele>70.66666666666667</ele><time>2026-04-06T17:14:40Z</time></trkpt><trkpt lat="33.4551028479614" lon="9.02316791218892"><ele>70.83333333333334</ele><time>2026-04-06T17:14:41Z</time></trkpt><trkpt lat="33.45503777772501" lon="9.023133151355564"><ele>71.0</ele><time>2026-04-06T17:14:42Z</time></trkpt><trkpt lat="33.45497363400925" lon="9.02309507388432"><ele>71.0</ele><time>2026-04-06T17:14:43Z</time></trkpt><trkpt lat="33.45487110149577" lon="9.023037988590607"><ele>71.0</ele><time>2026-04-06T17:14:45Z</time></trkpt><trkpt lat="33.454781194757594" lon="9.022984214891816"><ele>71.0</ele><time>2026-04-06T17:14:47Z</time></trkpt><trkpt lat="33.45472761440513" lon="9.022943132122396"><ele>71.0</ele><time>2026-04-06T17:14:48Z</time></trkpt><trkpt lat="33.454669505319906" lon="9.022910848609284"><ele>71.0</ele><time>2026-04-06T17:14:49Z</time></trkpt><trkpt lat="33.454598879708335" lon="9.022867829383266"><ele>71.0</ele><time>2026-04-06T17:14:50Z</time></trkpt><trkpt lat="33.454528386255795" lon="9.022823664669566"><ele>71.0</ele><time>2026-04-06T17:14:51Z</time></trkpt><trkpt lat="33.45443326436001" lon="9.02276559074253"><ele>71.0</ele><time>2026-04-06T17:14:52Z</time></trkpt><trkpt lat="33.454340052341806" lon="9.022695166249536"><ele>71.0</ele><time>2026-04-06T17:14:53Z</time></trkpt><trkpt lat="33.454262673940235" lon="9.02263863160262"><ele>71.0</ele><time>2026-04-06T17:14:54Z</time></trkpt><trkpt lat="33.45419432580126" lon="9.022582948131566"><ele>71.0</ele><time>2026-04-06T17:14:55Z</time></trkpt><trkpt lat="33.45413861178112" lon="9.022508118895292"><ele>71.0</ele><time>2026-04-06T17:14:56Z</time></trkpt><trkpt lat="33.45408812793544" lon="9.022434069799782"><ele>71.0</ele><time>2026-04-06T17:14:57Z</time></trkpt><trkpt lat="33.45403572678947" lon="9.02236979409745"><ele>71.0</ele><time>2026-04-06T17:14:58Z</time></trkpt><trkpt lat="33.45398445748693" lon="9.022288542715643"><ele>71.0</ele><time>2026-04-06T17:14:59Z</time></trkpt><trkpt lat="33.45393610639675" lon="9.022215800310795"><ele>71.0</ele><time>2026-04-06T17:15:00Z</time></trkpt><trkpt lat="33.45388762349957" lon="9.02214794672041"><ele>71.0</ele><time>2026-04-06T17:15:01Z</time></trkpt><trkpt lat="33.45383655417698" lon="9.022081894278067"><ele>71.0</ele><time>2026-04-06T17:15:02Z</time></trkpt><trkpt lat="33.4537888587797" lon="9.022013875344685"><ele>71.0</ele><time>2026-04-06T17:15:03Z</time></trkpt><trkpt lat="33.4537413889363" lon="9.021945912326697"><ele>71.0</ele><time>2026-04-06T17:15:04Z</time></trkpt><trkpt lat="33.45369624258764" lon="9.02188150671214"><ele>71.0</ele><time>2026-04-06T17:15:05Z</time></trkpt><trkpt lat="33.45364853057302" lon="9.021811314645507"><ele>71.0</ele><time>2026-04-06T17:15:06Z</time></trkpt><trkpt lat="33.45360596712239" lon="9.02175555720672"><ele>71.0</ele><time>2026-04-06T17:15:07Z</time></trkpt><trkpt lat="33.45352941013078" lon="9.021642771922128"><ele>71.6</ele><time>2026-04-06T17:15:09Z</time></trkpt><trkpt lat="33.45346731964507" lon="9.021547559882778"><ele>72.19999999999999</ele><time>2026-04-06T17:15:11Z</time></trkpt><trkpt lat="33.453413505216304" lon="9.021463383951836"><ele>72.80000000000001</ele><time>2026-04-06T17:15:13Z</time></trkpt><trkpt lat="33.45334571942834" lon="9.021347877991614"><ele>73.4</ele><time>2026-04-06T17:15:15Z</time></trkpt><trkpt lat="33.45330184244756" lon="9.021277410232285"><ele>74.0</ele><time>2026-04-06T17:15:16Z</time></trkpt><trkpt lat="33.453257757491386" lon="9.021195278668896"><ele>74.0</ele><time>2026-04-06T17:15:17Z</time></trkpt><trkpt lat="33.45321181410584" lon="9.021108216363487"><ele>74.0</ele><time>2026-04-06T17:15:18Z</time></trkpt><trkpt lat="33.45316926386955" lon="9.021022235337732"><ele>74.0</ele><time>2026-04-06T17:15:19Z</time></trkpt><trkpt lat="33.45312448736355" lon="9.02092569005111"><ele>74.0</ele><time>2026-04-06T17:15:20Z</time></trkpt><trkpt lat="33.45308107719068" lon="9.020839128307854"><ele>74.0</ele><time>2026-04-06T17:15:21Z</time></trkpt><trkpt lat="33.45304353726946" lon="9.020757607448754"><ele>74.0</ele><time>2026-04-06T17:15:22Z</time></trkpt><trkpt lat="33.45301020528362" lon="9.020684044139452"><ele>74.16666666666667</ele><time>2026-04-06T17:15:23Z</time></trkpt><trkpt lat="33.45298088657899" lon="9.020614661873372"><ele>74.33333333333334</ele><time>2026-04-06T17:15:24Z</time></trkpt><trkpt lat="33.4529278295694" lon="9.020482310532518"><ele>74.5</ele><time>2026-04-06T17:15:26Z</time></trkpt><trkpt lat="33.45289441746087" lon="9.020412850480072"><ele>74.66666666666667</ele><time>2026-04-06T17:15:27Z</time></trkpt><trkpt lat="33.45286277880542" lon="9.020343960131571"><ele>74.83333333333333</ele><time>2026-04-06T17:15:28Z</time></trkpt><trkpt lat="33.45283227968205" lon="9.020268398271156"><ele>75.0</ele><time>2026-04-06T17:15:29Z</time></trkpt><trkpt lat="33.452806412255406" lon="9.02018711144944"><ele>74.99999999999999</ele><time>2026-04-06T17:15:30Z</time></trkpt><trkpt lat="33.45278667319763" lon="9.020107650261998"><ele>75.0</ele><time>2026-04-06T17:15:31Z</time></trkpt><trkpt lat="33.4527661593911" lon="9.020028227491157"><ele>75.0</ele><time>2026-04-06T17:15:32Z</time></trkpt><trkpt lat="33.4527433350924" lon="9.019945149254452"><ele>75.0</ele><time>2026-04-06T17:15:33Z</time></trkpt><trkpt lat="33.45272143334394" lon="9.019870782548415"><ele>75.0</ele><time>2026-04-06T17:15:34Z</time></trkpt><trkpt lat="33.45269850862922" lon="9.019799269842295"><ele>74.99999999999999</ele><time>2026-04-06T17:15:35Z</time></trkpt><trkpt lat="33.45266911283303" lon="9.019729410158924"><ele>75.0</ele><time>2026-04-06T17:15:36Z</time></trkpt><trkpt lat="33.4526452401492" lon="9.019658767337924"><ele>74.57142857142857</ele><time>2026-04-06T17:15:37Z</time></trkpt><trkpt lat="33.452618531664804" lon="9.019576777532171"><ele>74.14285714285714</ele><time>2026-04-06T17:15:38Z</time></trkpt><trkpt lat="33.45259442468822" lon="9.019498267477049"><ele>73.71428571428572</ele><time>2026-04-06T17:15:39Z</time></trkpt><trkpt lat="33.45257356911569" lon="9.019416636502255"><ele>73.28571428571428</ele><time>2026-04-06T17:15:40Z</time></trkpt><trkpt lat="33.45255489228781" lon="9.019331275942262"><ele>72.85714285714286</ele><time>2026-04-06T17:15:41Z</time></trkpt><trkpt lat="33.45253858158181" lon="9.01924336822263"><ele>72.42857142857143</ele><time>2026-04-06T17:15:42Z</time></trkpt><trkpt lat="33.45251783055109" lon="9.019152519841864"><ele>72.0</ele><time>2026-04-06T17:15:43Z</time></trkpt><trkpt lat="33.45249919404708" lon="9.0190683970337"><ele>71.57142857142858</ele><time>2026-04-06T17:15:44Z</time></trkpt><trkpt lat="33.4524878088579" lon="9.018987110039639"><ele>71.14285714285714</ele><time>2026-04-06T17:15:45Z</time></trkpt><trkpt lat="33.45247684864339" lon="9.018902634814928"><ele>70.71428571428572</ele><time>2026-04-06T17:15:46Z</time></trkpt><trkpt lat="33.45247008171764" lon="9.018818962682458"><ele>70.28571428571429</ele><time>2026-04-06T17:15:47Z</time></trkpt><trkpt lat="33.45246596151592" lon="9.018727994208641"><ele>69.85714285714286</ele><time>2026-04-06T17:15:48Z</time></trkpt><trkpt lat="33.4524602887236" lon="9.018637356554878"><ele>69.42857142857143</ele><time>2026-04-06T17:15:49Z</time></trkpt><trkpt lat="33.452447922586444" lon="9.018537414357324"><ele>69.0</ele><time>2026-04-06T17:15:50Z</time></trkpt><trkpt lat="33.45243633153231" lon="9.018450026771879"><ele>69.0</ele><time>2026-04-06T17:15:51Z</time></trkpt><trkpt lat="33.45242609431724" lon="9.018321061745613"><ele>69.0</ele><time>2026-04-06T17:15:53Z</time></trkpt><trkpt lat="33.452417805485474" lon="9.01817794189324"><ele>69.0</ele><time>2026-04-06T17:15:55Z</time></trkpt><trkpt lat="33.452408271221266" lon="9.018094064365672"><ele>69.0</ele><time>2026-04-06T17:15:56Z</time></trkpt><trkpt lat="33.452399375008675" lon="9.018010841898846"><ele>69.0</ele><time>2026-04-06T17:15:57Z</time></trkpt><trkpt lat="33.45239098908177" lon="9.017927531301853"><ele>69.0</ele><time>2026-04-06T17:15:58Z</time></trkpt><trkpt lat="33.45238196991919" lon="9.017839897413033"><ele>68.57142857142857</ele><time>2026-04-06T17:15:59Z</time></trkpt><trkpt lat="33.452371251819024" lon="9.017745170012784"><ele>68.14285714285715</ele><time>2026-04-06T17:16:00Z</time></trkpt><trkpt lat="33.452360156279035" lon="9.017656153249476"><ele>67.71428571428572</ele><time>2026-04-06T17:16:01Z</time></trkpt><trkpt lat="33.45235027753205" lon="9.017569094705982"><ele>67.28571428571429</ele><time>2026-04-06T17:16:02Z</time></trkpt><trkpt lat="33.452338053579545" lon="9.017478050672024"><ele>66.85714285714286</ele><time>2026-04-06T17:16:03Z</time></trkpt><trkpt lat="33.452327080330825" lon="9.01739378428042"><ele>66.42857142857143</ele><time>2026-04-06T17:16:04Z</time></trkpt><trkpt lat="33.452317020575464" lon="9.017310271250896"><ele>66.0</ele><time>2026-04-06T17:16:05Z</time></trkpt><trkpt lat="33.45230363533549" lon="9.017229044277657"><ele>65.33333333333333</ele><time>2026-04-06T17:16:06Z</time></trkpt><trkpt lat="33.452291752047415" lon="9.017145033359787"><ele>64.66666666666667</ele><time>2026-04-06T17:16:07Z</time></trkpt><trkpt lat="33.45228329302046" lon="9.01705994691691"><ele>64.0</ele><time>2026-04-06T17:16:08Z</time></trkpt><trkpt lat="33.452277115497154" lon="9.016974242003533"><ele>63.333333333333336</ele><time>2026-04-06T17:16:09Z</time></trkpt><trkpt lat="33.452268376867266" lon="9.016895912947481"><ele>62.66666666666667</ele><time>2026-04-06T17:16:10Z</time></trkpt><trkpt lat="33.452259086465276" lon="9.016762286885342"><ele>62.0</ele><time>2026-04-06T17:16:12Z</time></trkpt><trkpt lat="33.45223621035305" lon="9.01663381998192"><ele>61.85714285714286</ele><time>2026-04-06T17:16:14Z</time></trkpt><trkpt lat="33.452226284848955" lon="9.016524694991322"><ele>61.71428571428572</ele><time>2026-04-06T17:16:16Z</time></trkpt><trkpt lat="33.452214799285066" lon="9.016444859714406"><ele>61.57142857142857</ele><time>2026-04-06T17:16:19Z</time></trkpt><trkpt lat="33.45219607366052" lon="9.0163509230059"><ele>61.42857142857143</ele><time>2026-04-06T17:16:25Z</time></trkpt><trkpt lat="33.452184584031286" lon="9.016275994222429"><ele>61.285714285714285</ele><time>2026-04-06T17:16:28Z</time></trkpt><trkpt lat="33.45217842837417" lon="9.016198874164738"><ele>61.14285714285714</ele><time>2026-04-06T17:16:32Z</time></trkpt><trkpt lat="33.452156502957386" lon="9.01611543732902"><ele>60.99999999999999</ele><time>2026-04-06T17:16:36Z</time></trkpt><trkpt lat="33.452069930664265" lon="9.016088172760975"><ele>60.5</ele><time>2026-04-06T17:16:38Z</time></trkpt><trkpt lat="33.45199373737158" lon="9.016107923910372"><ele>60.0</ele><time>2026-04-06T17:16:39Z</time></trkpt><trkpt lat="33.45187193338338" lon="9.016141012512817"><ele>59.5</ele><time>2026-04-06T17:16:40Z</time></trkpt><trkpt lat="33.45170897270702" lon="9.016183022849154"><ele>59.0</ele><time>2026-04-06T17:16:41Z</time></trkpt><trkpt lat="33.451531111924936" lon="9.016222833185493"><ele>59.0</ele><time>2026-04-06T17:16:42Z</time></trkpt><trkpt lat="33.45138230650037" lon="9.016236715603787"><ele>59.0</ele><time>2026-04-06T17:16:43Z</time></trkpt><trkpt lat="33.45127570582498" lon="9.016253688572148"><ele>59.0</ele><time>2026-04-06T17:16:44Z</time></trkpt><trkpt lat="33.45117576093298" lon="9.016268671497363"><ele>59.0</ele><time>2026-04-06T17:16:45Z</time></trkpt><trkpt lat="33.45108221046602" lon="9.016281545384983"><ele>58.800000000000004</ele><time>2026-04-06T17:16:46Z</time></trkpt><trkpt lat="33.45098752154859" lon="9.016298787605148"><ele>58.60000000000001</ele><time>2026-04-06T17:16:47Z</time></trkpt><trkpt lat="33.45088561748834" lon="9.016322016417552"><ele>58.4</ele><time>2026-04-06T17:16:48Z</time></trkpt><trkpt lat="33.450777593018344" lon="9.016348659206416"><ele>58.2</ele><time>2026-04-06T17:16:49Z</time></trkpt><trkpt lat="33.45067251744177" lon="9.016366990795705"><ele>58.0</ele><time>2026-04-06T17:16:50Z</time></trkpt><trkpt lat="33.450553636762194" lon="9.016389326512202"><ele>58.0</ele><time>2026-04-06T17:16:51Z</time></trkpt><trkpt lat="33.45042751921824" lon="9.016409655054014"><ele>58.0</ele><time>2026-04-06T17:16:52Z</time></trkpt><trkpt lat="33.450296036554285" lon="9.016431032464421"><ele>58.0</ele><time>2026-04-06T17:16:53Z</time></trkpt><trkpt lat="33.45016278658511" lon="9.016447223020691"><ele>58.0</ele><time>2026-04-06T17:16:54Z</time></trkpt><trkpt lat="33.450039176082974" lon="9.016456419952226"><ele>58.0</ele><time>2026-04-06T17:16:55Z</time></trkpt><trkpt lat="33.44991571999587" lon="9.016463864330726"><ele>58.0</ele><time>2026-04-06T17:16:56Z</time></trkpt><trkpt lat="33.44979169645319" lon="9.016471845660764"><ele>58.0</ele><time>2026-04-06T17:16:57Z</time></trkpt><trkpt lat="33.449669331084365" lon="9.016483422159387"><ele>58.0</ele><time>2026-04-06T17:16:58Z</time></trkpt><trkpt lat="33.44955528009345" lon="9.016488353680597"><ele>58.0</ele><time>2026-04-06T17:16:59Z</time></trkpt><trkpt lat="33.449448611262824" lon="9.01649268804533"><ele>58.0</ele><time>2026-04-06T17:17:00Z</time></trkpt><trkpt lat="33.44935124117352" lon="9.016499269521843"><ele>58.0</ele><time>2026-04-06T17:17:01Z</time></trkpt><trkpt lat="33.44925515919588" lon="9.016504768869632"><ele>58.0</ele><time>2026-04-06T17:17:02Z</time></trkpt><trkpt lat="33.44915793679922" lon="9.016508938758104"><ele>58.0</ele><time>2026-04-06T17:17:03Z</time></trkpt><trkpt lat="33.449065177788476" lon="9.016515475927145"><ele>57.99999999999999</ele><time>2026-04-06T17:17:04Z</time></trkpt><trkpt lat="33.448979425862404" lon="9.016523590902336"><ele>58.0</ele><time>2026-04-06T17:17:05Z</time></trkpt><trkpt lat="33.448895396282005" lon="9.016530841655415"><ele>58.0</ele><time>2026-04-06T17:17:06Z</time></trkpt><trkpt lat="33.44880701906949" lon="9.016539332365083"><ele>58.0</ele><time>2026-04-06T17:17:07Z</time></trkpt><trkpt lat="33.44871597956056" lon="9.016549883068688"><ele>57.99999999999999</ele><time>2026-04-06T17:17:08Z</time></trkpt><trkpt lat="33.448625907470905" lon="9.016558936066103"><ele>58.0</ele><time>2026-04-06T17:17:09Z</time></trkpt><trkpt lat="33.448546250860815" lon="9.016567863759192"><ele>57.83333333333333</ele><time>2026-04-06T17:17:10Z</time></trkpt><trkpt lat="33.448466374411495" lon="9.016576010466947"><ele>57.666666666666664</ele><time>2026-04-06T17:17:11Z</time></trkpt><trkpt lat="33.44839401736313" lon="9.016582467023357"><ele>57.5</ele><time>2026-04-06T17:17:12Z</time></trkpt><trkpt lat="33.44832233586389" lon="9.016588530563908"><ele>57.33333333333333</ele><time>2026-04-06T17:17:13Z</time></trkpt><trkpt lat="33.448245933554816" lon="9.016598966886564"><ele>57.166666666666664</ele><time>2026-04-06T17:17:14Z</time></trkpt><trkpt lat="33.44816490632368" lon="9.016608534994184"><ele>57.0</ele><time>2026-04-06T17:17:15Z</time></trkpt><trkpt lat="33.44808741707917" lon="9.016620586709827"><ele>57.0</ele><time>2026-04-06T17:17:16Z</time></trkpt><trkpt lat="33.44800647725537" lon="9.016628821457267"><ele>57.0</ele><time>2026-04-06T17:17:17Z</time></trkpt><trkpt lat="33.447924529950974" lon="9.016634593514654"><ele>57.0</ele><time>2026-04-06T17:17:18Z</time></trkpt><trkpt lat="33.44783881190142" lon="9.016640751704024"><ele>57.0</ele><time>2026-04-06T17:17:19Z</time></trkpt><trkpt lat="33.44775144041253" lon="9.016648844463148"><ele>57.0</ele><time>2026-04-06T17:17:20Z</time></trkpt><trkpt lat="33.447663860903816" lon="9.016653992073772"><ele>57.0</ele><time>2026-04-06T17:17:21Z</time></trkpt><trkpt lat="33.44757344823337" lon="9.01665497124946"><ele>57.0</ele><time>2026-04-06T17:17:22Z</time></trkpt><trkpt lat="33.44745736924614" lon="9.016656477781554"><ele>57.0</ele><time>2026-04-06T17:17:23Z</time></trkpt><trkpt lat="33.44729212703984" lon="9.016659932073894"><ele>57.0</ele><time>2026-04-06T17:17:24Z</time></trkpt><trkpt lat="33.44714875308276" lon="9.016657824070592"><ele>57.0</ele><time>2026-04-06T17:17:25Z</time></trkpt><trkpt lat="33.447033236226176" lon="9.016653099872254"><ele>56.8</ele><time>2026-04-06T17:17:26Z</time></trkpt><trkpt lat="33.44692596443304" lon="9.016650635809585"><ele>56.6</ele><time>2026-04-06T17:17:27Z</time></trkpt><trkpt lat="33.446821381467814" lon="9.01664703843823"><ele>56.39999999999999</ele><time>2026-04-06T17:17:28Z</time></trkpt><trkpt lat="33.446713696184396" lon="9.016640237887808"><ele>56.199999999999996</ele><time>2026-04-06T17:17:29Z</time></trkpt><trkpt lat="33.446601801441325" lon="9.016634868406971"><ele>56.0</ele><time>2026-04-06T17:17:30Z</time></trkpt><trkpt lat="33.44649259013667" lon="9.016628168282239"><ele>56.0</ele><time>2026-04-06T17:17:31Z</time></trkpt><trkpt lat="33.44638565196028" lon="9.016621385522912"><ele>55.99999999999999</ele><time>2026-04-06T17:17:32Z</time></trkpt><trkpt lat="33.44628183622226" lon="9.01661610453355"><ele>55.99999999999999</ele><time>2026-04-06T17:17:33Z</time></trkpt><trkpt lat="33.44618409908358" lon="9.016608300603686"><ele>56.0</ele><time>2026-04-06T17:17:34Z</time></trkpt><trkpt lat="33.446081721730955" lon="9.016599033005056"><ele>56.0</ele><time>2026-04-06T17:17:35Z</time></trkpt><trkpt lat="33.44598117356195" lon="9.01658914614477"><ele>55.8</ele><time>2026-04-06T17:17:36Z</time></trkpt><trkpt lat="33.445879910188786" lon="9.016582411076332"><ele>55.599999999999994</ele><time>2026-04-06T17:17:37Z</time></trkpt><trkpt lat="33.44577585350198" lon="9.016577887690675"><ele>55.4</ele><time>2026-04-06T17:17:38Z</time></trkpt><trkpt lat="33.44567059421294" lon="9.016569065164642"><ele>55.2</ele><time>2026-04-06T17:17:39Z</time></trkpt><trkpt lat="33.44556192850229" lon="9.016551566628179"><ele>55.0</ele><time>2026-04-06T17:17:40Z</time></trkpt><trkpt lat="33.445452458308715" lon="9.016525483932389"><ele>54.75</ele><time>2026-04-06T17:17:41Z</time></trkpt><trkpt lat="33.44533487290774" lon="9.016484236979368"><ele>54.5</ele><time>2026-04-06T17:17:42Z</time></trkpt><trkpt lat="33.44521845943275" lon="9.016437765636601"><ele>54.25</ele><time>2026-04-06T17:17:43Z</time></trkpt><trkpt lat="33.44509574336958" lon="9.01639091299877"><ele>54.0</ele><time>2026-04-06T17:17:44Z</time></trkpt><trkpt lat="33.44497436684391" lon="9.016342665334525"><ele>54.0</ele><time>2026-04-06T17:17:45Z</time></trkpt><trkpt lat="33.44485345349436" lon="9.016296818589593"><ele>54.0</ele><time>2026-04-06T17:17:46Z</time></trkpt><trkpt lat="33.44472633826403" lon="9.01625117883955"><ele>54.0</ele><time>2026-04-06T17:17:47Z</time></trkpt><trkpt lat="33.44459939992372" lon="9.016208633847851"><ele>54.0</ele><time>2026-04-06T17:17:48Z</time></trkpt><trkpt lat="33.444470818336924" lon="9.016164593343373"><ele>54.25</ele><time>2026-04-06T17:17:49Z</time></trkpt><trkpt lat="33.444344573580956" lon="9.016119795208471"><ele>54.5</ele><time>2026-04-06T17:17:50Z</time></trkpt><trkpt lat="33.44421934010008" lon="9.016078783944549"><ele>54.75</ele><time>2026-04-06T17:17:51Z</time></trkpt><trkpt lat="33.4440944610374" lon="9.016037264517243"><ele>55.0</ele><time>2026-04-06T17:17:52Z</time></trkpt><trkpt lat="33.443976796794445" lon="9.015999599151844"><ele>55.0</ele><time>2026-04-06T17:17:53Z</time></trkpt><trkpt lat="33.443862465349554" lon="9.01596239376317"><ele>55.0</ele><time>2026-04-06T17:17:54Z</time></trkpt><trkpt lat="33.44375351158561" lon="9.015925891164816"><ele>55.0</ele><time>2026-04-06T17:17:55Z</time></trkpt><trkpt lat="33.44365444937964" lon="9.015892323492336"><ele>55.0</ele><time>2026-04-06T17:17:56Z</time></trkpt><trkpt lat="33.443561876140095" lon="9.01586401401974"><ele>55.0</ele><time>2026-04-06T17:17:57Z</time></trkpt><trkpt lat="33.443474032780614" lon="9.015837633302702"><ele>54.8</ele><time>2026-04-06T17:17:58Z</time></trkpt><trkpt lat="33.44338164076003" lon="9.015814286953932"><ele>54.6</ele><time>2026-04-06T17:17:59Z</time></trkpt><trkpt lat="33.443285929636936" lon="9.015793308818997"><ele>54.400000000000006</ele><time>2026-04-06T17:18:00Z</time></trkpt><trkpt lat="33.44318924998577" lon="9.015771950082547"><ele>54.2</ele><time>2026-04-06T17:18:01Z</time></trkpt><trkpt lat="33.44309064531508" lon="9.015756440342647"><ele>54.0</ele><time>2026-04-06T17:18:02Z</time></trkpt><trkpt lat="33.442992854173454" lon="9.015737139894727"><ele>54.2</ele><time>2026-04-06T17:18:03Z</time></trkpt><trkpt lat="33.442890558465336" lon="9.015715366495721"><ele>54.400000000000006</ele><time>2026-04-06T17:18:04Z</time></trkpt><trkpt lat="33.44277936586685" lon="9.015692859392104"><ele>54.6</ele><time>2026-04-06T17:18:05Z</time></trkpt><trkpt lat="33.44266627963577" lon="9.015669409617695"><ele>54.8</ele><time>2026-04-06T17:18:06Z</time></trkpt><trkpt lat="33.44255124007263" lon="9.015644400153802"><ele>55.0</ele><time>2026-04-06T17:18:07Z</time></trkpt><trkpt lat="33.44243635824473" lon="9.015618146094186"><ele>55.0</ele><time>2026-04-06T17:18:08Z</time></trkpt><trkpt lat="33.44232508275078" lon="9.015592494680993"><ele>55.0</ele><time>2026-04-06T17:18:09Z</time></trkpt><trkpt lat="33.442215573621446" lon="9.015568523024497"><ele>55.0</ele><time>2026-04-06T17:18:10Z</time></trkpt><trkpt lat="33.442108334577426" lon="9.015541970893803"><ele>55.0</ele><time>2026-04-06T17:18:11Z</time></trkpt><trkpt lat="33.442003402432846" lon="9.015510887537776"><ele>55.0</ele><time>2026-04-06T17:18:12Z</time></trkpt><trkpt lat="33.441903623658526" lon="9.015484647243708"><ele>55.4</ele><time>2026-04-06T17:18:13Z</time></trkpt><trkpt lat="33.441812180790315" lon="9.015458212793718"><ele>55.8</ele><time>2026-04-06T17:18:14Z</time></trkpt><trkpt lat="33.44172484127807" lon="9.015430574604844"><ele>56.2</ele><time>2026-04-06T17:18:15Z</time></trkpt><trkpt lat="33.44163958983148" lon="9.015405635699397"><ele>56.6</ele><time>2026-04-06T17:18:16Z</time></trkpt><trkpt lat="33.44154808708541" lon="9.015382973992457"><ele>57.0</ele><time>2026-04-06T17:18:17Z</time></trkpt><trkpt lat="33.44145273736496" lon="9.015363217000859"><ele>57.0</ele><time>2026-04-06T17:18:18Z</time></trkpt><trkpt lat="33.441354143385134" lon="9.015347312251814"><ele>57.0</ele><time>2026-04-06T17:18:19Z</time></trkpt><trkpt lat="33.44125503240559" lon="9.01533493413612"><ele>57.0</ele><time>2026-04-06T17:18:20.001Z</time></trkpt><trkpt lat="33.44115547170576" lon="9.015324027414078"><ele>57.0</ele><time>2026-04-06T17:18:21.001Z</time></trkpt><trkpt lat="33.44105690275016" lon="9.015313022353485"><ele>57.0</ele><time>2026-04-06T17:18:22.001Z</time></trkpt><trkpt lat="33.44096556528981" lon="9.015302360560801"><ele>57.166666666666664</ele><time>2026-04-06T17:18:23.001Z</time></trkpt><trkpt lat="33.440878952883025" lon="9.015292415186332"><ele>57.33333333333333</ele><time>2026-04-06T17:18:24.001Z</time></trkpt><trkpt lat="33.440798100545145" lon="9.015282568564016"><ele>57.5</ele><time>2026-04-06T17:18:25.001Z</time></trkpt><trkpt lat="33.440719464843" lon="9.01527466189862"><ele>57.666666666666664</ele><time>2026-04-06T17:18:26.001Z</time></trkpt><trkpt lat="33.440646518869585" lon="9.01526509840192"><ele>57.83333333333333</ele><time>2026-04-06T17:18:27.001Z</time></trkpt><trkpt lat="33.440576743990775" lon="9.01525983524607"><ele>58.0</ele><time>2026-04-06T17:18:28.001Z</time></trkpt><trkpt lat="33.440509660650626" lon="9.01525711167829"><ele>57.666666666666664</ele><time>2026-04-06T17:18:29.001Z</time></trkpt><trkpt lat="33.4404461768814" lon="9.01525153181826"><ele>57.33333333333333</ele><time>2026-04-06T17:18:30.001Z</time></trkpt><trkpt lat="33.44032300242396" lon="9.015236904687708"><ele>57.0</ele><time>2026-04-06T17:18:32.001Z</time></trkpt><trkpt lat="33.440260025421736" lon="9.015230443940169"><ele>56.66666666666667</ele><time>2026-04-06T17:18:33.001Z</time></trkpt><trkpt lat="33.4401356425906" lon="9.015225719142798"><ele>56.333333333333336</ele><time>2026-04-06T17:18:35.001Z</time></trkpt><trkpt lat="33.44007253489334" lon="9.015220453879513"><ele>56.0</ele><time>2026-04-06T17:18:36.001Z</time></trkpt><trkpt lat="33.44000784873964" lon="9.015215153003055"><ele>56.00000000000001</ele><time>2026-04-06T17:18:37Z</time></trkpt><trkpt lat="33.43993818477069" lon="9.015206866869068"><ele>56.0</ele><time>2026-04-06T17:18:38Z</time></trkpt><trkpt lat="33.43986805383552" lon="9.015196579457125"><ele>56.0</ele><time>2026-04-06T17:18:39Z</time></trkpt><trkpt lat="33.4397954212082" lon="9.015191872092444"><ele>56.0</ele><time>2026-04-06T17:18:40Z</time></trkpt><trkpt lat="33.43972583255701" lon="9.015217573560834"><ele>56.00000000000001</ele><time>2026-04-06T17:18:41Z</time></trkpt><trkpt lat="33.43967762470836" lon="9.01528309767935"><ele>56.0</ele><time>2026-04-06T17:18:42Z</time></trkpt><trkpt lat="33.439625970015506" lon="9.015378207854997"><ele>55.75</ele><time>2026-04-06T17:18:43Z</time></trkpt><trkpt lat="33.439548751602985" lon="9.015452104263519"><ele>55.5</ele><time>2026-04-06T17:18:44Z</time></trkpt><trkpt lat="33.439444714875556" lon="9.015523062838279"><ele>55.25</ele><time>2026-04-06T17:18:45Z</time></trkpt><trkpt lat="33.43930818454726" lon="9.015603127288083"><ele>55.0</ele><time>2026-04-06T17:18:46Z</time></trkpt><trkpt lat="33.43918753526707" lon="9.015667034028082"><ele>55.0</ele><time>2026-04-06T17:18:47Z</time></trkpt><trkpt lat="33.43909501682298" lon="9.01571584186176"><ele>55.0</ele><time>2026-04-06T17:18:48Z</time></trkpt><trkpt lat="33.43900792407605" lon="9.015765738333494"><ele>55.0</ele><time>2026-04-06T17:18:49Z</time></trkpt><trkpt lat="33.43892112789767" lon="9.015812607745056"><ele>55.0</ele><time>2026-04-06T17:18:50Z</time></trkpt><trkpt lat="33.438831840137695" lon="9.015860785145401"><ele>55.0</ele><time>2026-04-06T17:18:51Z</time></trkpt><trkpt lat="33.43875261362301" lon="9.015904012628702"><ele>54.83333333333333</ele><time>2026-04-06T17:18:52Z</time></trkpt><trkpt lat="33.438682446550324" lon="9.015941757020679"><ele>54.666666666666664</ele><time>2026-04-06T17:18:53Z</time></trkpt><trkpt lat="33.4385694542043" lon="9.015997201627258"><ele>54.5</ele><time>2026-04-06T17:18:55Z</time></trkpt><trkpt lat="33.43850314172367" lon="9.01603181429554"><ele>54.33333333333333</ele><time>2026-04-06T17:18:56Z</time></trkpt><trkpt lat="33.438425335859456" lon="9.016071070732323"><ele>54.166666666666664</ele><time>2026-04-06T17:18:57Z</time></trkpt><trkpt lat="33.43834865669459" lon="9.01611075505514"><ele>54.0</ele><time>2026-04-06T17:18:58Z</time></trkpt><trkpt lat="33.43826830847698" lon="9.016154162668434"><ele>54.0</ele><time>2026-04-06T17:18:59Z</time></trkpt><trkpt lat="33.4381781864866" lon="9.016200545295463"><ele>54.00000000000001</ele><time>2026-04-06T17:19:00Z</time></trkpt><trkpt lat="33.43808206014527" lon="9.016251327083058"><ele>54.00000000000001</ele><time>2026-04-06T17:19:01Z</time></trkpt><trkpt lat="33.437978834674595" lon="9.016307335370184"><ele>54.0</ele><time>2026-04-06T17:19:02Z</time></trkpt><trkpt lat="33.43787182701264" lon="9.016364239805238"><ele>54.0</ele><time>2026-04-06T17:19:03Z</time></trkpt><trkpt lat="33.43775839561749" lon="9.016421666375784"><ele>54.400000000000006</ele><time>2026-04-06T17:19:04Z</time></trkpt><trkpt lat="33.437655800899385" lon="9.016477993833659"><ele>54.800000000000004</ele><time>2026-04-06T17:19:05Z</time></trkpt><trkpt lat="33.43756579984261" lon="9.016527780265536"><ele>55.199999999999996</ele><time>2026-04-06T17:19:06Z</time></trkpt><trkpt lat="33.43747912977016" lon="9.016572497692374"><ele>55.599999999999994</ele><time>2026-04-06T17:19:07Z</time></trkpt><trkpt lat="33.437398334970375" lon="9.016616922496503"><ele>56.0</ele><time>2026-04-06T17:19:08Z</time></trkpt><trkpt lat="33.43731934150667" lon="9.016658214704218"><ele>56.16666666666667</ele><time>2026-04-06T17:19:09Z</time></trkpt><trkpt lat="33.43723858474077" lon="9.016702614429278"><ele>56.333333333333336</ele><time>2026-04-06T17:19:10Z</time></trkpt><trkpt lat="33.43716058534174" lon="9.016743668774224"><ele>56.5</ele><time>2026-04-06T17:19:11Z</time></trkpt><trkpt lat="33.43708308716732" lon="9.016785860109598"><ele>56.66666666666667</ele><time>2026-04-06T17:19:12Z</time></trkpt><trkpt lat="33.43700216552433" lon="9.016827866136957"><ele>56.833333333333336</ele><time>2026-04-06T17:19:13Z</time></trkpt><trkpt lat="33.4369197035211" lon="9.016870993673072"><ele>57.0</ele><time>2026-04-06T17:19:14Z</time></trkpt><trkpt lat="33.436835726535435" lon="9.016916746305297"><ele>57.400000000000006</ele><time>2026-04-06T17:19:15Z</time></trkpt><trkpt lat="33.4367500390012" lon="9.016963549848983"><ele>57.800000000000004</ele><time>2026-04-06T17:19:16Z</time></trkpt><trkpt lat="33.43666405965066" lon="9.017008241306335"><ele>58.2</ele><time>2026-04-06T17:19:17Z</time></trkpt><trkpt lat="33.43658033769542" lon="9.017052846495078"><ele>58.6</ele><time>2026-04-06T17:19:18Z</time></trkpt><trkpt lat="33.43649624047917" lon="9.017097117122733"><ele>59.0</ele><time>2026-04-06T17:19:19Z</time></trkpt><trkpt lat="33.43641387258146" lon="9.017138565368066"><ele>59.00000000000001</ele><time>2026-04-06T17:19:20Z</time></trkpt><trkpt lat="33.43633094546873" lon="9.017181874645459"><ele>59.0</ele><time>2026-04-06T17:19:21Z</time></trkpt><trkpt lat="33.43624898072523" lon="9.017226200410121"><ele>59.0</ele><time>2026-04-06T17:19:22Z</time></trkpt><trkpt lat="33.43616831757087" lon="9.017268729305632"><ele>59.0</ele><time>2026-04-06T17:19:23Z</time></trkpt><trkpt lat="33.43608664291445" lon="9.017311760642691"><ele>59.00000000000001</ele><time>2026-04-06T17:19:24Z</time></trkpt><trkpt lat="33.43600457096959" lon="9.017354009695104"><ele>59.0</ele><time>2026-04-06T17:19:25Z</time></trkpt><trkpt lat="33.43592577405766" lon="9.017397098311136"><ele>59.00000000000001</ele><time>2026-04-06T17:19:26Z</time></trkpt><trkpt lat="33.435846293297686" lon="9.017440094770615"><ele>59.0</ele><time>2026-04-06T17:19:27Z</time></trkpt><trkpt lat="33.43577039742268" lon="9.017483969772785"><ele>59.0</ele><time>2026-04-06T17:19:28Z</time></trkpt><trkpt lat="33.43569916436605" lon="9.01752076097678"><ele>59.0</ele><time>2026-04-06T17:19:29Z</time></trkpt><trkpt lat="33.43563036582712" lon="9.017552976080795"><ele>59.00000000000001</ele><time>2026-04-06T17:19:30Z</time></trkpt><trkpt lat="33.435561557676266" lon="9.017586277544142"><ele>59.0</ele><time>2026-04-06T17:19:31Z</time></trkpt><trkpt lat="33.435490975196934" lon="9.017624791201731"><ele>59.00000000000001</ele><time>2026-04-06T17:19:32Z</time></trkpt><trkpt lat="33.43542436271251" lon="9.017658465653838"><ele>59.0</ele><time>2026-04-06T17:19:33Z</time></trkpt><trkpt lat="33.435366036100554" lon="9.017688876901081"><ele>59.0</ele><time>2026-04-06T17:19:34Z</time></trkpt><trkpt lat="33.435285689862766" lon="9.017739761270684"><ele>59.0</ele><time>2026-04-06T17:19:36Z</time></trkpt><trkpt lat="33.43520162941946" lon="9.017776970426418"><ele>59.00000000000001</ele><time>2026-04-06T17:19:39Z</time></trkpt><trkpt lat="33.43512772985274" lon="9.017817481507265"><ele>59.0</ele><time>2026-04-06T17:19:42Z</time></trkpt><trkpt lat="33.435064357700746" lon="9.017833960939882"><ele>59.00000000000001</ele><time>2026-04-06T17:19:45Z</time></trkpt><trkpt lat="33.43499627226227" lon="9.017825860929591"><ele>59.0</ele><time>2026-04-06T17:19:48Z</time></trkpt><trkpt lat="33.43495264381944" lon="9.017764897848052"><ele>59.0</ele><time>2026-04-06T17:20:03Z</time></trkpt><trkpt lat="33.43491482655407" lon="9.017655973805809"><ele>59.0</ele><time>2026-04-06T17:20:06Z</time></trkpt><trkpt lat="33.43486116986438" lon="9.017570421188287"><ele>59.00000000000001</ele><time>2026-04-06T17:20:08Z</time></trkpt><trkpt lat="33.43480383060508" lon="9.01745018479142"><ele>59.0</ele><time>2026-04-06T17:20:10Z</time></trkpt><trkpt lat="33.43476927998379" lon="9.017375910291634"><ele>59.50000000000001</ele><time>2026-04-06T17:20:11Z</time></trkpt><trkpt lat="33.434724643696384" lon="9.017294837007048"><ele>60.0</ele><time>2026-04-06T17:20:13Z</time></trkpt><trkpt lat="33.43467787300926" lon="9.01720432429053"><ele>60.5</ele><time>2026-04-06T17:20:15Z</time></trkpt><trkpt lat="33.43463456899163" lon="9.017124393273795"><ele>61.0</ele><time>2026-04-06T17:20:17Z</time></trkpt><trkpt lat="33.4345914949139" lon="9.017052662604046"><ele>61.50000000000001</ele><time>2026-04-06T17:20:20Z</time></trkpt><trkpt lat="33.43455657929185" lon="9.016974612765521"><ele>62.0</ele><time>2026-04-06T17:20:33.001Z</time></trkpt><trkpt lat="33.43452812916333" lon="9.016897862482734"><ele>62.50000000000001</ele><time>2026-04-06T17:20:38.001Z</time></trkpt><trkpt lat="33.434493694964296" lon="9.016815275932133"><ele>63.0</ele><time>2026-04-06T17:20:45.001Z</time></trkpt><trkpt lat="33.43452025571809" lon="9.016710468533516"><ele>63.5</ele><time>2026-04-06T17:20:47.001Z</time></trkpt><trkpt lat="33.43454304410826" lon="9.01660167318704"><ele>64.0</ele><time>2026-04-06T17:20:49Z</time></trkpt><trkpt lat="33.43451851576315" lon="9.016529608654425"><ele>64.5</ele><time>2026-04-06T17:20:51Z</time></trkpt><trkpt lat="33.43445823264722" lon="9.01648050917249"><ele>65.0</ele><time>2026-04-06T17:20:54Z</time></trkpt><trkpt lat="33.4343932298511" lon="9.016480809378676"><ele>65.14285714285715</ele><time>2026-04-06T17:20:57Z</time></trkpt><trkpt lat="33.43435601633342" lon="9.016545240670046"><ele>65.28571428571429</ele><time>2026-04-06T17:21:41Z</time></trkpt><trkpt lat="33.4343475491506" lon="9.016464778841929"><ele>65.42857142857143</ele><time>2026-04-06T17:25:54Z</time></trkpt><trkpt lat="33.43427056086029" lon="9.016474557451904"><ele>65.57142857142858</ele><time>2026-04-06T17:26:03Z</time></trkpt><trkpt lat="33.434186000053735" lon="9.016489573914205"><ele>65.71428571428572</ele><time>2026-04-06T17:26:19Z</time></trkpt><trkpt lat="33.43412894179952" lon="9.016450852543219"><ele>65.85714285714286</ele><time>2026-04-06T17:26:22Z</time></trkpt><trkpt lat="33.43406523576751" lon="9.016407764787498"><ele>66.0</ele><time>2026-04-06T17:26:27Z</time></trkpt><trkpt lat="33.43401592629315" lon="9.016306849172736"><ele>66.0</ele><time>2026-04-06T17:26:30.048Z</time></trkpt><trkpt lat="33.4339543680131" lon="9.01624712459234"><ele>66.0</ele><time>2026-04-06T17:26:34.042Z</time></trkpt><trkpt lat="33.433903359318194" lon="9.016193501210694"><ele>66.0</ele><time>2026-04-06T17:26:37.032Z</time></trkpt><trkpt lat="33.43410355585779" lon="9.016228312473444"><ele>66.0</ele><time>2026-04-06T17:27:08.428Z</time></trkpt><trkpt lat="33.43414664745166" lon="9.016323773732342"><ele>66.0</ele><time>2026-04-06T17:27:10.018Z</time></trkpt><trkpt lat="33.434063581195744" lon="9.016172466393689"><ele>66.0</ele><time>2026-04-06T17:29:08.41Z</time></trkpt><trkpt lat="33.43384599400695" lon="9.016188658646161"><ele>66.0</ele><time>2026-04-06T17:29:24.412Z</time></trkpt><trkpt lat="33.433867457882954" lon="9.016526768145457"><ele>66.0</ele><time>2026-04-06T17:29:42.445Z</time></trkpt><trkpt lat="33.43391224159271" lon="9.016587894268405"><ele>66.0</ele><time>2026-04-06T17:29:54.428Z</time></trkpt><trkpt lat="33.43379158912566" lon="9.01660251113196"><ele>66.0</ele><time>2026-04-06T17:30:48.563Z</time></trkpt><trkpt lat="33.43372551920823" lon="9.016638386551067"><ele>66.0</ele><time>2026-04-06T17:30:54.02Z</time></trkpt><trkpt lat="33.4337684666962" lon="9.016826900497845"><ele>66.0</ele><time>2026-04-06T17:31:08.03Z</time></trkpt><trkpt lat="33.433832253534256" lon="9.01662108117324"><ele>65.75</ele><time>2026-04-06T17:31:18.406Z</time></trkpt><trkpt lat="33.43390246858457" lon="9.01668379668356"><ele>65.5</ele><time>2026-04-06T17:40:32Z</time></trkpt><trkpt lat="33.433877992787934" lon="9.016765189218686"><ele>65.25</ele><time>2026-04-06T17:40:37Z</time></trkpt><trkpt lat="33.43377504920756" lon="9.016533961801048"><ele>65.0</ele><time>2026-04-06T17:40:43.061Z</time></trkpt><trkpt lat="33.43378382020242" lon="9.016654149065868"><ele>65.25</ele><time>2026-04-06T17:42:13.012Z</time></trkpt><trkpt lat="33.433877154460376" lon="9.016648274370866"><ele>65.5</ele><time>2026-04-06T17:45:49.997Z</time></trkpt><trkpt lat="33.43382981689939" lon="9.016567408345331"><ele>65.75</ele><time>2026-04-06T17:49:52.01Z</time></trkpt><trkpt lat="33.433687983719224" lon="9.01654511709631"><ele>66.0</ele><time>2026-04-06T17:54:40Z</time></trkpt><trkpt lat="33.433805385518994" lon="9.016643610357647"><ele>65.85714285714286</ele><time>2026-04-06T18:08:38Z</time></trkpt><trkpt lat="33.43378458116477" lon="9.01674306690095"><ele>65.71428571428572</ele><time>2026-04-06T18:13:43.999Z</time></trkpt><trkpt lat="33.43383417016585" lon="9.016797558854531"><ele>65.57142857142858</ele><time>2026-04-06T18:13:47.999Z</time></trkpt><trkpt lat="33.433868789150665" lon="9.016887360124073"><ele>65.42857142857143</ele><time>2026-04-06T18:13:49.999Z</time></trkpt><trkpt lat="33.43381895230589" lon="9.016834682726257"><ele>65.28571428571429</ele><time>2026-04-06T18:14:07.999Z</time></trkpt><trkpt lat="33.43380768982448" lon="9.016743892630515"><ele>65.14285714285715</ele><time>2026-04-06T18:14:16.999Z</time></trkpt><trkpt lat="33.433787585699896" lon="9.016662231307276"><ele>65.0</ele><time>2026-04-06T18:14:22.999Z</time></trkpt><trkpt lat="33.433799517558676" lon="9.016773786300426"><ele>65.16666666666667</ele><time>2026-04-06T18:50:26Z</time></trkpt><trkpt lat="33.433750930124674" lon="9.016614051444652"><ele>65.33333333333334</ele><time>2026-04-06T18:51:37Z</time></trkpt><trkpt lat="33.43377923981728" lon="9.016542834588368"><ele>65.5</ele><time>2026-04-06T18:53:55Z</time></trkpt><trkpt lat="33.433734517042076" lon="9.016472183181316"><ele>65.66666666666667</ele><time>2026-04-06T18:54:05Z</time></trkpt><trkpt lat="33.43377918104174" lon="9.016405911185199"><ele>65.83333333333333</ele><time>2026-04-06T18:54:11Z</time></trkpt><trkpt lat="33.43384635383004" lon="9.01636750346056"><ele>66.0</ele><time>2026-04-06T18:54:15Z</time></trkpt><trkpt lat="33.43390926592619" lon="9.01632038649207"><ele>66.0</ele><time>2026-04-06T18:54:22Z</time></trkpt><trkpt lat="33.43393494632324" lon="9.016247975520763"><ele>66.0</ele><time>2026-04-06T18:54:51Z</time></trkpt><trkpt lat="33.43415285742967" lon="9.016271031933005"><ele>66.0</ele><time>2026-04-06T18:54:58.068Z</time></trkpt><trkpt lat="33.43409849564924" lon="9.016232788800712"><ele>66.0</ele><time>2026-04-06T18:55:09.069Z</time></trkpt><trkpt lat="33.43403318630957" lon="9.016203369877562"><ele>66.0</ele><time>2026-04-06T18:55:14.066Z</time></trkpt><trkpt lat="33.4339198864461" lon="9.015831108999597"><ele>66.0</ele><time>2026-04-06T18:58:28.4Z</time></trkpt><trkpt lat="33.43418223518722" lon="9.016154899239142"><ele>66.0</ele><time>2026-04-06T18:58:50.012Z</time></trkpt><trkpt lat="33.43429723602336" lon="9.016196428067497"><ele>66.0</ele><time>2026-04-06T18:58:56.013Z</time></trkpt><trkpt lat="33.43435359947163" lon="9.016230917665109"><ele>66.0</ele><time>2026-04-06T18:59:00.012Z</time></trkpt><trkpt lat="33.43416708264807" lon="9.016260468802525"><ele>66.0</ele><time>2026-04-06T18:59:42.819Z</time></trkpt><trkpt lat="33.43410169717605" lon="9.0161444019552"><ele>66.0</ele><time>2026-04-06T19:00:00.552Z</time></trkpt><trkpt lat="33.43436936003462" lon="9.01600108776276"><ele>66.0</ele><time>2026-04-06T19:00:54.012Z</time></trkpt><trkpt lat="33.43445601227474" lon="9.015898221624761"><ele>66.0</ele><time>2026-04-06T19:01:05.013Z</time></trkpt><trkpt lat="33.43449270832214" lon="9.015822018573811"><ele>66.0</ele><time>2026-04-06T19:01:16.012Z</time></trkpt><trkpt lat="33.43441180785599" lon="9.016451505749824"><ele>66.0</ele><time>2026-04-06T19:03:31.348Z</time></trkpt><trkpt lat="33.43440095320232" lon="9.015925267185775"><ele>66.0</ele><time>2026-04-06T19:03:50.013Z</time></trkpt><trkpt lat="33.434447065463765" lon="9.015839646999575"><ele>66.0</ele><time>2026-04-06T19:03:53.014Z</time></trkpt><trkpt lat="33.43450539812806" lon="9.015919343159633"><ele>66.0</ele><time>2026-04-06T19:04:06Z</time></trkpt><trkpt lat="33.43450080505956" lon="9.015998850664957"><ele>66.0</ele><time>2026-04-06T19:05:00Z</time></trkpt><trkpt lat="33.43437844081715" lon="9.016014735306142"><ele>66.0</ele><time>2026-04-06T19:05:05Z</time></trkpt><trkpt lat="33.434273502093816" lon="9.016064703409826"><ele>66.0</ele><time>2026-04-06T19:05:15Z</time></trkpt><trkpt lat="33.43436402727942" lon="9.016024273316251"><ele>66.0</ele><time>2026-04-06T19:05:19Z</time></trkpt><trkpt lat="33.43450812782484" lon="9.016017497672998"><ele>66.0</ele><time>2026-04-06T19:05:22Z</time></trkpt><trkpt lat="33.434597185210606" lon="9.016068782195086"><ele>66.0</ele><time>2026-04-06T19:05:36Z</time></trkpt><trkpt lat="33.43469808438474" lon="9.01608417761899"><ele>66.0</ele><time>2026-04-06T19:05:52.057Z</time></trkpt><trkpt lat="33.43463112971416" lon="9.016109634460696"><ele>66.0</ele><time>2026-04-06T19:05:54.058Z</time></trkpt><trkpt lat="33.43472752033629" lon="9.016353754743632"><ele>66.0</ele><time>2026-04-06T19:06:00.061Z</time></trkpt><trkpt lat="33.43464670734272" lon="9.016313041234497"><ele>66.0</ele><time>2026-04-06T19:06:06Z</time></trkpt><trkpt lat="33.434580727475826" lon="9.0163266103109"><ele>66.0</ele><time>2026-04-06T19:06:15Z</time></trkpt><trkpt lat="33.43445273638978" lon="9.01636388712483"><ele>66.0</ele><time>2026-04-06T19:06:26Z</time></trkpt><trkpt lat="33.43420405456835" lon="9.016284623330204"><ele>66.0</ele><time>2026-04-06T19:07:10.797Z</time></trkpt><trkpt lat="33.43428197021555" lon="9.016355031371964"><ele>66.0</ele><time>2026-04-06T19:15:59.38Z</time></trkpt><trkpt lat="33.434072633154805" lon="9.016179473619308"><ele>66.0</ele><time>2026-04-06T19:22:43.526Z</time></trkpt><trkpt lat="33.43391666861689" lon="9.01603381272924"><ele>66.0</ele><time>2026-04-06T19:22:57.666Z</time></trkpt><trkpt lat="33.43393262199548" lon="9.015850064211275"><ele>66.0</ele><time>2026-04-06T19:23:03.802Z</time></trkpt><trkpt lat="33.434047217459" lon="9.016153816944797"><ele>66.0</ele><time>2026-04-06T19:24:15.552Z</time></trkpt><trkpt lat="33.43411179164359" lon="9.01621922556098"><ele>66.0</ele><time>2026-04-06T19:24:20.527Z</time></trkpt><trkpt lat="33.43432790933155" lon="9.016390079965143"><ele>66.0</ele><time>2026-04-06T19:28:08.099Z</time></trkpt><trkpt lat="33.434256554911066" lon="9.016322021002091"><ele>66.0</ele><time>2026-04-06T19:41:31.482Z</time></trkpt><trkpt lat="33.434159248968065" lon="9.016205491314965"><ele>66.0</ele><time>2026-04-06T19:42:23Z</time></trkpt><trkpt lat="33.434215492053326" lon="9.016277301343866"><ele>66.0</ele><time>2026-04-06T19:42:42.379Z</time></trkpt><trkpt lat="33.43392180568606" lon="9.01592423382768"><ele>66.0</ele><time>2026-04-06T19:45:37.354Z</time></trkpt><trkpt lat="33.434247231894275" lon="9.016279988153288"><ele>66.0</ele><time>2026-04-06T19:46:58.231Z</time></trkpt><trkpt lat="33.4339153295374" lon="9.01588771704422"><ele>66.0</ele><time>2026-04-06T19:47:16.408Z</time></trkpt><trkpt lat="33.4340950255262" lon="9.016178261611904"><ele>66.0</ele><time>2026-04-06T19:48:37.921Z</time></trkpt><trkpt lat="33.43402897234065" lon="9.016122333214525"><ele>66.0</ele><time>2026-04-06T19:49:27.311Z</time></trkpt><trkpt lat="33.434168652959585" lon="9.016272575452422"><ele>66.0</ele><time>2026-04-06T19:49:49.405Z</time></trkpt><trkpt lat="33.43391290432628" lon="9.015851933384837"><ele>66.0</ele><time>2026-04-06T19:50:07.407Z</time></trkpt><trkpt lat="33.43407076452579" lon="9.016170974287752"><ele>66.0</ele><time>2026-04-06T19:51:07.409Z</time></trkpt><trkpt lat="33.43391612761206" lon="9.01597264483784"><ele>66.0</ele><time>2026-04-06T19:57:29.698Z</time></trkpt><trkpt lat="33.43384580844454" lon="9.015916718093035"><ele>66.0</ele><time>2026-04-06T19:57:30.987Z</time></trkpt><trkpt lat="33.43379029983372" lon="9.015873156281641"><ele>66.0</ele><time>2026-04-06T19:57:31.987Z</time></trkpt><trkpt lat="33.43388235342128" lon="9.015883335136504"><ele>66.0</ele><time>2026-04-06T19:57:36Z</time></trkpt><trkpt lat="33.433822432089286" lon="9.015840119041242"><ele>66.0</ele><time>2026-04-06T19:57:37Z</time></trkpt><trkpt lat="33.43373875422419" lon="9.015754470523053"><ele>66.0</ele><time>2026-04-06T19:57:39Z</time></trkpt><trkpt lat="33.43366180251309" lon="9.015680040207329"><ele>66.0</ele><time>2026-04-06T19:57:49Z</time></trkpt><trkpt lat="33.43359776913013" lon="9.015718941551427"><ele>66.0</ele><time>2026-04-06T19:57:56Z</time></trkpt><trkpt lat="33.43367509007138" lon="9.015763662800117"><ele>66.0</ele><time>2026-04-06T19:58:20Z</time></trkpt><trkpt lat="33.43380334346288" lon="9.015832222858196"><ele>66.0</ele><time>2026-04-06T19:58:22Z</time></trkpt><trkpt lat="33.43387848752769" lon="9.015858425248345"><ele>66.0</ele><time>2026-04-06T19:58:52.999Z</time></trkpt><trkpt lat="33.43398095381894" lon="9.015965085480685"><ele>66.0</ele><time>2026-04-06T19:59:14.999Z</time></trkpt><trkpt lat="33.433927195638155" lon="9.015919855571433"><ele>66.0</ele><time>2026-04-06T19:59:42.998Z</time></trkpt><trkpt lat="33.43399488383257" lon="9.015928028706114"><ele>66.0</ele><time>2026-04-06T20:01:14.999Z</time></trkpt><trkpt lat="33.43405814164926" lon="9.015988607125871"><ele>66.0</ele><time>2026-04-06T20:01:29.999Z</time></trkpt><trkpt lat="33.434117190527104" lon="9.016025318665378"><ele>66.0</ele><time>2026-04-06T20:04:19.999Z</time></trkpt><trkpt lat="33.434157799136536" lon="9.01609044302976"><ele>66.0</ele><time>2026-04-06T20:04:31.999Z</time></trkpt><trkpt lat="33.43417504731006" lon="9.016015420084406"><ele>66.0</ele><time>2026-04-06T20:04:46.999Z</time></trkpt><trkpt lat="33.43410528331224" lon="9.015848472006104"><ele>66.0</ele><time>2026-04-06T20:04:56.999Z</time></trkpt><trkpt lat="33.43407904668527" lon="9.015744582464656"><ele>66.0</ele><time>2026-04-06T20:05:07Z</time></trkpt><trkpt lat="33.434077313482234" lon="9.01560094884321"><ele>65.5</ele><time>2026-04-06T20:05:13Z</time></trkpt><trkpt lat="33.434035531702364" lon="9.0155057921233"><ele>65.0</ele><time>2026-04-06T20:05:14Z</time></trkpt><trkpt lat="33.433982552091244" lon="9.015439872049281"><ele>64.5</ele><time>2026-04-06T20:05:15Z</time></trkpt><trkpt lat="33.43394429818247" lon="9.015357303097637"><ele>64.0</ele><time>2026-04-06T20:05:17Z</time></trkpt><trkpt lat="33.43389749760922" lon="9.015302355059912"><ele>63.5</ele><time>2026-04-06T20:05:18Z</time></trkpt><trkpt lat="33.433847900097334" lon="9.015215164476446"><ele>63.0</ele><time>2026-04-06T20:05:20Z</time></trkpt><trkpt lat="33.43380711490582" lon="9.015107816360093"><ele>63.0</ele><time>2026-04-06T20:05:22.062Z</time></trkpt><trkpt lat="33.43376125956407" lon="9.015012561236897"><ele>63.0</ele><time>2026-04-06T20:05:24.03Z</time></trkpt><trkpt lat="33.4340354084189" lon="9.016068739336164"><ele>63.0</ele><time>2026-04-06T20:05:40.416Z</time></trkpt><trkpt lat="33.43411551933532" lon="9.015989178957819"><ele>63.0</ele><time>2026-04-06T20:15:54.013Z</time></trkpt><trkpt lat="33.434073186126746" lon="9.016108844128476"><ele>63.0</ele><time>2026-04-06T20:16:13.575Z</time></trkpt><trkpt lat="33.43390697171209" lon="9.01581185423553"><ele>64.0</ele><time>2026-04-06T20:16:19.825Z</time></trkpt><trkpt lat="33.43413372548211" lon="9.015993601360007"><ele>65.0</ele><time>2026-04-06T20:16:25.013Z</time></trkpt><trkpt lat="33.434020746328756" lon="9.016053188736912"><ele>66.0</ele><time>2026-04-06T20:16:49.562Z</time></trkpt><trkpt lat="33.434101544415874" lon="9.016196653624561"><ele>66.0</ele><time>2026-04-06T20:18:00.559Z</time></trkpt><trkpt lat="33.43419646279293" lon="9.016288743254002"><ele>66.0</ele><time>2026-04-06T20:18:06.675Z</time></trkpt><trkpt lat="33.434104844302404" lon="9.01619988230737"><ele>66.0</ele><time>2026-04-06T20:18:18.568Z</time></trkpt><trkpt lat="33.434003990275336" lon="9.01602776741384"><ele>66.0</ele><time>2026-04-06T20:18:24.565Z</time></trkpt><trkpt lat="33.433910357939546" lon="9.016000738135045"><ele>66.0</ele><time>2026-04-06T20:18:30.565Z</time></trkpt><trkpt lat="33.434147630384075" lon="9.016247399965811"><ele>66.0</ele><time>2026-04-06T20:18:36.693Z</time></trkpt><trkpt lat="33.43419857557443" lon="9.016308225375521"><ele>66.0</ele><time>2026-04-06T20:18:41.019Z</time></trkpt><trkpt lat="33.43417685806139" lon="9.016381601014036"><ele>66.0</ele><time>2026-04-06T20:18:50.02Z</time></trkpt><trkpt lat="33.43411426633608" lon="9.016408362834378"><ele>66.0</ele><time>2026-04-06T20:18:56.023Z</time></trkpt><trkpt lat="33.434182820115154" lon="9.01643526355611"><ele>66.0</ele><time>2026-04-06T20:19:00.005Z</time></trkpt><trkpt lat="33.43428905423448" lon="9.016428687223252"><ele>66.0</ele><time>2026-04-06T20:19:02.005Z</time></trkpt><trkpt lat="33.43438394014621" lon="9.016427943731614"><ele>66.0</ele><time>2026-04-06T20:19:05.005Z</time></trkpt><trkpt lat="33.43445293237567" lon="9.016447637861472"><ele>66.0</ele><time>2026-04-06T20:19:12.003Z</time></trkpt><trkpt lat="33.43451719298635" lon="9.016465410169253"><ele>66.0</ele><time>2026-04-06T20:19:18.002Z</time></trkpt><trkpt lat="33.43458389339793" lon="9.016482038214006"><ele>66.0</ele><time>2026-04-06T20:19:25.001Z</time></trkpt><trkpt lat="33.43464096753831" lon="9.01644241302072"><ele>66.0</ele><time>2026-04-06T20:19:31.001Z</time></trkpt><trkpt lat="33.43471345311736" lon="9.016439122870674"><ele>66.0</ele><time>2026-04-06T20:19:37.001Z</time></trkpt><trkpt lat="33.43481406779854" lon="9.01635803931584"><ele>66.0</ele><time>2026-04-06T20:21:33Z</time></trkpt><trkpt lat="33.43487151371521" lon="9.016317564750867"><ele>66.0</ele><time>2026-04-06T20:21:35Z</time></trkpt><trkpt lat="33.43494457211105" lon="9.0162896152967"><ele>65.33333333333333</ele><time>2026-04-06T20:21:37Z</time></trkpt><trkpt lat="33.43501141372278" lon="9.01627106712914"><ele>64.66666666666667</ele><time>2026-04-06T20:21:39Z</time></trkpt><trkpt lat="33.43504274929322" lon="9.016180713780146"><ele>64.0</ele><time>2026-04-06T20:21:42Z</time></trkpt><trkpt lat="33.434982441383646" lon="9.016135290822577"><ele>63.333333333333336</ele><time>2026-04-06T20:21:46Z</time></trkpt><trkpt lat="33.434942569878594" lon="9.016213413485792"><ele>62.66666666666667</ele><time>2026-04-06T20:21:49Z</time></trkpt><trkpt lat="33.43487771933016" lon="9.016301060734792"><ele>62.0</ele><time>2026-04-06T20:21:52Z</time></trkpt><trkpt lat="33.434807803670274" lon="9.016350641761326"><ele>62.00000000000001</ele><time>2026-04-06T20:21:54Z</time></trkpt><trkpt lat="33.43473289934299" lon="9.016404428965702"><ele>62.0</ele><time>2026-04-06T20:21:56Z</time></trkpt><trkpt lat="33.43466477859759" lon="9.016454357541718"><ele>62.0</ele><time>2026-04-06T20:21:58Z</time></trkpt><trkpt lat="33.43460601723549" lon="9.016494973614874"><ele>62.0</ele><time>2026-04-06T20:22:00Z</time></trkpt><trkpt lat="33.43453941377122" lon="9.016549879730594"><ele>62.00000000000001</ele><time>2026-04-06T20:22:03Z</time></trkpt><trkpt lat="33.434510656789335" lon="9.016644425501923"><ele>62.0</ele><time>2026-04-06T20:22:05Z</time></trkpt><trkpt lat="33.43447393357929" lon="9.016768940270845"><ele>62.6</ele><time>2026-04-06T20:22:07Z</time></trkpt><trkpt lat="33.434460183475956" lon="9.016894984829289"><ele>63.2</ele><time>2026-04-06T20:22:09Z</time></trkpt><trkpt lat="33.43448580461059" lon="9.01701105785579"><ele>63.8</ele><time>2026-04-06T20:22:11Z</time></trkpt><trkpt lat="33.43454513408867" lon="9.017133249766605"><ele>64.4</ele><time>2026-04-06T20:22:13Z</time></trkpt><trkpt lat="33.43458474739074" lon="9.017200684770105"><ele>65.0</ele><time>2026-04-06T20:22:14Z</time></trkpt><trkpt lat="33.43462315847604" lon="9.01726718242807"><ele>64.5</ele><time>2026-04-06T20:22:15Z</time></trkpt><trkpt lat="33.43466018318925" lon="9.017330380969579"><ele>64.0</ele><time>2026-04-06T20:22:16Z</time></trkpt><trkpt lat="33.434720051254324" lon="9.017433183925267"><ele>63.5</ele><time>2026-04-06T20:22:18Z</time></trkpt><trkpt lat="33.43475457379358" lon="9.01750242737034"><ele>63.0</ele><time>2026-04-06T20:22:20Z</time></trkpt><trkpt lat="33.434807093272376" lon="9.017580890264835"><ele>62.50000000000001</ele><time>2026-04-06T20:22:24Z</time></trkpt><trkpt lat="33.43484337781663" lon="9.017661159403119"><ele>62.0</ele><time>2026-04-06T20:22:26Z</time></trkpt><trkpt lat="33.43488072334879" lon="9.017741777985767"><ele>61.400000000000006</ele><time>2026-04-06T20:22:28Z</time></trkpt><trkpt lat="33.434918400645046" lon="9.017818435132662"><ele>60.800000000000004</ele><time>2026-04-06T20:22:30Z</time></trkpt><trkpt lat="33.43499596109201" lon="9.017879316597252"><ele>60.2</ele><time>2026-04-06T20:22:33Z</time></trkpt><trkpt lat="33.43507406883855" lon="9.017879031949553"><ele>59.6</ele><time>2026-04-06T20:22:35Z</time></trkpt><trkpt lat="33.43520232099976" lon="9.017825702920703"><ele>59.0</ele><time>2026-04-06T20:22:37Z</time></trkpt><trkpt lat="33.43529252582057" lon="9.017780191937822"><ele>59.0</ele><time>2026-04-06T20:22:38Z</time></trkpt><trkpt lat="33.435373703739955" lon="9.01774017894394"><ele>59.00000000000001</ele><time>2026-04-06T20:22:39Z</time></trkpt><trkpt lat="33.435457213004824" lon="9.017695116469282"><ele>59.00000000000001</ele><time>2026-04-06T20:22:40Z</time></trkpt><trkpt lat="33.435547756682034" lon="9.017646155927117"><ele>59.0</ele><time>2026-04-06T20:22:41Z</time></trkpt><trkpt lat="33.435636916521865" lon="9.017598463808614"><ele>59.0</ele><time>2026-04-06T20:22:42Z</time></trkpt><trkpt lat="33.43573049416351" lon="9.017550348802956"><ele>59.0</ele><time>2026-04-06T20:22:43Z</time></trkpt><trkpt lat="33.43582902704771" lon="9.01749842621032"><ele>59.0</ele><time>2026-04-06T20:22:44Z</time></trkpt><trkpt lat="33.43593157098173" lon="9.017444268858343"><ele>59.0</ele><time>2026-04-06T20:22:45Z</time></trkpt><trkpt lat="33.43603827425654" lon="9.01738640436854"><ele>59.0</ele><time>2026-04-06T20:22:46Z</time></trkpt><trkpt lat="33.43614305362912" lon="9.017330271676085"><ele>59.0</ele><time>2026-04-06T20:22:47Z</time></trkpt><trkpt lat="33.436247747067746" lon="9.017274192164287"><ele>59.0</ele><time>2026-04-06T20:22:48Z</time></trkpt><trkpt lat="33.43634936439881" lon="9.017218480367866"><ele>59.0</ele><time>2026-04-06T20:22:49Z</time></trkpt><trkpt lat="33.43645401821705" lon="9.017162281424834"><ele>59.0</ele><time>2026-04-06T20:22:50Z</time></trkpt><trkpt lat="33.436557221756885" lon="9.017107477261744"><ele>59.0</ele><time>2026-04-06T20:22:51Z</time></trkpt><trkpt lat="33.43666167316134" lon="9.017050463481254"><ele>59.0</ele><time>2026-04-06T20:22:52Z</time></trkpt><trkpt lat="33.43676736690498" lon="9.016994356118532"><ele>59.0</ele><time>2026-04-06T20:22:53Z</time></trkpt><trkpt lat="33.4368733618377" lon="9.016937447259432"><ele>59.0</ele><time>2026-04-06T20:22:54Z</time></trkpt><trkpt lat="33.43697961048665" lon="9.016879737309626"><ele>59.0</ele><time>2026-04-06T20:22:55Z</time></trkpt><trkpt lat="33.43708711484562" lon="9.0168224517417"><ele>59.0</ele><time>2026-04-06T20:22:56Z</time></trkpt><trkpt lat="33.43719459892478" lon="9.016765244864686"><ele>59.0</ele><time>2026-04-06T20:22:57Z</time></trkpt><trkpt lat="33.43730339163477" lon="9.016706414210597"><ele>59.0</ele><time>2026-04-06T20:22:58Z</time></trkpt><trkpt lat="33.43741027025248" lon="9.016649041317649"><ele>58.25</ele><time>2026-04-06T20:22:59Z</time></trkpt><trkpt lat="33.437517295648846" lon="9.016590088023094"><ele>57.5</ele><time>2026-04-06T20:23:00Z</time></trkpt><trkpt lat="33.4376256052218" lon="9.016534014448364"><ele>56.75</ele><time>2026-04-06T20:23:01Z</time></trkpt><trkpt lat="33.43773497808365" lon="9.016478744585378"><ele>56.0</ele><time>2026-04-06T20:23:02Z</time></trkpt><trkpt lat="33.43784340692606" lon="9.016424977568958"><ele>56.0</ele><time>2026-04-06T20:23:03Z</time></trkpt><trkpt lat="33.437950757161374" lon="9.016369672087983"><ele>56.0</ele><time>2026-04-06T20:23:04Z</time></trkpt><trkpt lat="33.43805803851935" lon="9.016315285721937"><ele>56.0</ele><time>2026-04-06T20:23:05Z</time></trkpt><trkpt lat="33.438161331095195" lon="9.016261526648563"><ele>56.0</ele><time>2026-04-06T20:23:06Z</time></trkpt><trkpt lat="33.43826049826036" lon="9.01620769176868"><ele>55.599999999999994</ele><time>2026-04-06T20:23:07Z</time></trkpt><trkpt lat="33.438359556846834" lon="9.016156525375433"><ele>55.199999999999996</ele><time>2026-04-06T20:23:08Z</time></trkpt><trkpt lat="33.43845871303474" lon="9.01610338882342"><ele>54.800000000000004</ele><time>2026-04-06T20:23:09Z</time></trkpt><trkpt lat="33.4385602308976" lon="9.016047814632238"><ele>54.400000000000006</ele><time>2026-04-06T20:23:10Z</time></trkpt><trkpt lat="33.438662842991235" lon="9.015992008938765"><ele>54.0</ele><time>2026-04-06T20:23:11Z</time></trkpt><trkpt lat="33.438763911374984" lon="9.0159365834713"><ele>54.2</ele><time>2026-04-06T20:23:12Z</time></trkpt><trkpt lat="33.438863164050964" lon="9.015882953224022"><ele>54.400000000000006</ele><time>2026-04-06T20:23:13Z</time></trkpt><trkpt lat="33.4389638737979" lon="9.01583178177063"><ele>54.6</ele><time>2026-04-06T20:23:14Z</time></trkpt><trkpt lat="33.4390649536465" lon="9.015779815314167"><ele>54.8</ele><time>2026-04-06T20:23:15Z</time></trkpt><trkpt lat="33.43916670030686" lon="9.015727322687273"><ele>55.0</ele><time>2026-04-06T20:23:16Z</time></trkpt><trkpt lat="33.439266201301294" lon="9.015675908524202"><ele>55.0</ele><time>2026-04-06T20:23:17Z</time></trkpt><trkpt lat="33.43936301170146" lon="9.01562495394407"><ele>55.0</ele><time>2026-04-06T20:23:18Z</time></trkpt><trkpt lat="33.4394567820916" lon="9.015575748634308"><ele>55.0</ele><time>2026-04-06T20:23:19Z</time></trkpt><trkpt lat="33.43954384536119" lon="9.015530469240211"><ele>55.0</ele><time>2026-04-06T20:23:20Z</time></trkpt><trkpt lat="33.439625027963764" lon="9.0154863559521"><ele>55.0</ele><time>2026-04-06T20:23:21Z</time></trkpt><trkpt lat="33.43970026984232" lon="9.015445418417798"><ele>55.166666666666664</ele><time>2026-04-06T20:23:22Z</time></trkpt><trkpt lat="33.439774011618994" lon="9.015404966561157"><ele>55.33333333333333</ele><time>2026-04-06T20:23:23Z</time></trkpt><trkpt lat="33.43984602949045" lon="9.01536666022349"><ele>55.5</ele><time>2026-04-06T20:23:24Z</time></trkpt><trkpt lat="33.4399193678617" lon="9.015332981817597"><ele>55.66666666666667</ele><time>2026-04-06T20:23:25Z</time></trkpt><trkpt lat="33.4399940160721" lon="9.01530805370947"><ele>55.833333333333336</ele><time>2026-04-06T20:23:26Z</time></trkpt><trkpt lat="33.44007541181125" lon="9.015291848372344"><ele>56.0</ele><time>2026-04-06T20:23:27Z</time></trkpt><trkpt lat="33.440163006802614" lon="9.01528514795748"><ele>56.0</ele><time>2026-04-06T20:23:28Z</time></trkpt><trkpt lat="33.440253921228404" lon="9.015284003868498"><ele>55.99999999999999</ele><time>2026-04-06T20:23:29Z</time></trkpt><trkpt lat="33.44034672818935" lon="9.015288856439637"><ele>55.99999999999999</ele><time>2026-04-06T20:23:30Z</time></trkpt><trkpt lat="33.44044098211713" lon="9.015295284268461"><ele>56.0</ele><time>2026-04-06T20:23:31Z</time></trkpt><trkpt lat="33.44053568421509" lon="9.01530180433537"><ele>56.0</ele><time>2026-04-06T20:23:32Z</time></trkpt><trkpt lat="33.44063137399231" lon="9.015308438474648"><ele>56.4</ele><time>2026-04-06T20:23:33Z</time></trkpt><trkpt lat="33.44072742177559" lon="9.015315815831816"><ele>56.8</ele><time>2026-04-06T20:23:34Z</time></trkpt><trkpt lat="33.44082186887489" lon="9.015324990799293"><ele>57.199999999999996</ele><time>2026-04-06T20:23:35Z</time></trkpt><trkpt lat="33.44091655418383" lon="9.015333204047858"><ele>57.599999999999994</ele><time>2026-04-06T20:23:36Z</time></trkpt><trkpt lat="33.441012779961234" lon="9.015342906675862"><ele>58.0</ele><time>2026-04-06T20:23:37Z</time></trkpt><trkpt lat="33.44110859355495" lon="9.015352678544868"><ele>58.0</ele><time>2026-04-06T20:23:38Z</time></trkpt><trkpt lat="33.441202328820545" lon="9.015362956655553"><ele>58.0</ele><time>2026-04-06T20:23:39Z</time></trkpt><trkpt lat="33.441298094639166" lon="9.015375138238461"><ele>58.0</ele><time>2026-04-06T20:23:40Z</time></trkpt><trkpt lat="33.44139362560355" lon="9.015389983710085"><ele>58.0</ele><time>2026-04-06T20:23:41Z</time></trkpt><trkpt lat="33.44148959904431" lon="9.015410990379403"><ele>58.0</ele><time>2026-04-06T20:23:42Z</time></trkpt><trkpt lat="33.44158745085419" lon="9.015434298710877"><ele>57.8</ele><time>2026-04-06T20:23:43Z</time></trkpt><trkpt lat="33.44168545014768" lon="9.015458331699023"><ele>57.599999999999994</ele><time>2026-04-06T20:23:44Z</time></trkpt><trkpt lat="33.44178297291555" lon="9.015483294055986"><ele>57.400000000000006</ele><time>2026-04-06T20:23:45Z</time></trkpt><trkpt lat="33.44187827720784" lon="9.015508827633386"><ele>57.2</ele><time>2026-04-06T20:23:46Z</time></trkpt><trkpt lat="33.44197459960846" lon="9.015534120648203"><ele>57.0</ele><time>2026-04-06T20:23:47Z</time></trkpt><trkpt lat="33.4420741818396" lon="9.015559696525294"><ele>56.6</ele><time>2026-04-06T20:23:48Z</time></trkpt><trkpt lat="33.44217338468337" lon="9.015585134340762"><ele>56.2</ele><time>2026-04-06T20:23:49Z</time></trkpt><trkpt lat="33.4422743640807" lon="9.015609834871578"><ele>55.8</ele><time>2026-04-06T20:23:50Z</time></trkpt><trkpt lat="33.44237604909763" lon="9.015635452409887"><ele>55.4</ele><time>2026-04-06T20:23:51Z</time></trkpt><trkpt lat="33.4424779289437" lon="9.015660523325758"><ele>55.0</ele><time>2026-04-06T20:23:52Z</time></trkpt><trkpt lat="33.44257870453586" lon="9.015684192742045"><ele>55.0</ele><time>2026-04-06T20:23:53Z</time></trkpt><trkpt lat="33.44267792180623" lon="9.015706255871496"><ele>55.0</ele><time>2026-04-06T20:23:54Z</time></trkpt><trkpt lat="33.44277869555869" lon="9.015729233091099"><ele>55.0</ele><time>2026-04-06T20:23:55Z</time></trkpt><trkpt lat="33.44287963112974" lon="9.015751775527315"><ele>55.0</ele><time>2026-04-06T20:23:56Z</time></trkpt><trkpt lat="33.442979885734616" lon="9.015773075434236"><ele>55.0</ele><time>2026-04-06T20:23:57Z</time></trkpt><trkpt lat="33.44308170913121" lon="9.015793358579439"><ele>55.0</ele><time>2026-04-06T20:23:58Z</time></trkpt><trkpt lat="33.44318317995661" lon="9.015814968748892"><ele>55.0</ele><time>2026-04-06T20:23:59Z</time></trkpt><trkpt lat="33.44328263069449" lon="9.015834594855926"><ele>55.0</ele><time>2026-04-06T20:24:00Z</time></trkpt><trkpt lat="33.44338109942307" lon="9.015855206445272"><ele>55.0</ele><time>2026-04-06T20:24:01Z</time></trkpt><trkpt lat="33.4434789093372" lon="9.015879471301831"><ele>55.0</ele><time>2026-04-06T20:24:02Z</time></trkpt><trkpt lat="33.443578793460134" lon="9.01590887855359"><ele>55.0</ele><time>2026-04-06T20:24:03Z</time></trkpt><trkpt lat="33.44367625437085" lon="9.015937926999822"><ele>55.0</ele><time>2026-04-06T20:24:04Z</time></trkpt><trkpt lat="33.44377397785496" lon="9.015963173287549"><ele>55.0</ele><time>2026-04-06T20:24:05Z</time></trkpt><trkpt lat="33.44387370562492" lon="9.015996853803811"><ele>55.0</ele><time>2026-04-06T20:24:06Z</time></trkpt><trkpt lat="33.44397177101276" lon="9.016027297741147"><ele>55.0</ele><time>2026-04-06T20:24:07Z</time></trkpt><trkpt lat="33.44407442183208" lon="9.016058847774202"><ele>55.0</ele><time>2026-04-06T20:24:08Z</time></trkpt><trkpt lat="33.44417483419003" lon="9.016094822952796"><ele>55.0</ele><time>2026-04-06T20:24:09Z</time></trkpt><trkpt lat="33.444266699505505" lon="9.016128407223377"><ele>55.0</ele><time>2026-04-06T20:24:10Z</time></trkpt><trkpt lat="33.44436061565512" lon="9.016159756585058"><ele>55.0</ele><time>2026-04-06T20:24:11Z</time></trkpt><trkpt lat="33.444458361169836" lon="9.016189715396926"><ele>55.0</ele><time>2026-04-06T20:24:12Z</time></trkpt><trkpt lat="33.44455930162921" lon="9.01622085454873"><ele>54.8</ele><time>2026-04-06T20:24:13Z</time></trkpt><trkpt lat="33.44465612064191" lon="9.016251198602237"><ele>54.6</ele><time>2026-04-06T20:24:14Z</time></trkpt><trkpt lat="33.44475504683528" lon="9.016285024876822"><ele>54.400000000000006</ele><time>2026-04-06T20:24:15Z</time></trkpt><trkpt lat="33.44485704782897" lon="9.016318076174693"><ele>54.2</ele><time>2026-04-06T20:24:16Z</time></trkpt><trkpt lat="33.444954166548406" lon="9.016354345114483"><ele>54.0</ele><time>2026-04-06T20:24:17Z</time></trkpt><trkpt lat="33.44505167014622" lon="9.016394177012995"><ele>54.0</ele><time>2026-04-06T20:24:18Z</time></trkpt><trkpt lat="33.44515052253414" lon="9.016434200678292"><ele>54.00000000000001</ele><time>2026-04-06T20:24:19Z</time></trkpt><trkpt lat="33.44525045171761" lon="9.01647262806539"><ele>54.00000000000001</ele><time>2026-04-06T20:24:20Z</time></trkpt><trkpt lat="33.44534645748244" lon="9.016505679482291"><ele>54.0</ele><time>2026-04-06T20:24:21Z</time></trkpt><trkpt lat="33.44544447550465" lon="9.016536198457393"><ele>54.0</ele><time>2026-04-06T20:24:22Z</time></trkpt><trkpt lat="33.44554802119299" lon="9.016562842551414"><ele>54.2</ele><time>2026-04-06T20:24:23Z</time></trkpt><trkpt lat="33.445651528860004" lon="9.016582876368808"><ele>54.400000000000006</ele><time>2026-04-06T20:24:24Z</time></trkpt><trkpt lat="33.44575444763101" lon="9.016597890660748"><ele>54.6</ele><time>2026-04-06T20:24:25Z</time></trkpt><trkpt lat="33.44585882956482" lon="9.016610154406235"><ele>54.8</ele><time>2026-04-06T20:24:26Z</time></trkpt><trkpt lat="33.445964491632395" lon="9.016621019319777"><ele>55.0</ele><time>2026-04-06T20:24:27Z</time></trkpt><trkpt lat="33.44606898505111" lon="9.016627535720145"><ele>55.0</ele><time>2026-04-06T20:24:28Z</time></trkpt><trkpt lat="33.44617354030168" lon="9.01663266208615"><ele>55.0</ele><time>2026-04-06T20:24:29Z</time></trkpt><trkpt lat="33.446278789213196" lon="9.01663849002531"><ele>55.0</ele><time>2026-04-06T20:24:30Z</time></trkpt><trkpt lat="33.44638087244506" lon="9.016643769775438"><ele>55.0</ele><time>2026-04-06T20:24:31Z</time></trkpt><trkpt lat="33.446480170515" lon="9.01664920078257"><ele>55.0</ele><time>2026-04-06T20:24:32Z</time></trkpt><trkpt lat="33.44657865801089" lon="9.016656661288554"><ele>55.4</ele><time>2026-04-06T20:24:33Z</time></trkpt><trkpt lat="33.446677984185676" lon="9.016664490191538"><ele>55.8</ele><time>2026-04-06T20:24:34Z</time></trkpt><trkpt lat="33.44677950962658" lon="9.016669229211207"><ele>56.2</ele><time>2026-04-06T20:24:35Z</time></trkpt><trkpt lat="33.44688055085141" lon="9.016672321458575"><ele>56.6</ele><time>2026-04-06T20:24:36Z</time></trkpt><trkpt lat="33.44698278889733" lon="9.016674657147037"><ele>57.0</ele><time>2026-04-06T20:24:37Z</time></trkpt><trkpt lat="33.44708497391968" lon="9.01667486085827"><ele>57.0</ele><time>2026-04-06T20:24:38Z</time></trkpt><trkpt lat="33.447184761468634" lon="9.016676764613338"><ele>57.0</ele><time>2026-04-06T20:24:39Z</time></trkpt><trkpt lat="33.4472859861234" lon="9.01667831286925"><ele>57.0</ele><time>2026-04-06T20:24:40Z</time></trkpt><trkpt lat="33.44738555162479" lon="9.016679221461487"><ele>57.0</ele><time>2026-04-06T20:24:41Z</time></trkpt><trkpt lat="33.447486209179786" lon="9.016677750356267"><ele>57.0</ele><time>2026-04-06T20:24:42Z</time></trkpt><trkpt lat="33.447589837702985" lon="9.016674859470767"><ele>57.0</ele><time>2026-04-06T20:24:43Z</time></trkpt><trkpt lat="33.44769450751089" lon="9.016672986198575"><ele>57.0</ele><time>2026-04-06T20:24:44Z</time></trkpt><trkpt lat="33.447799317999085" lon="9.016667930715847"><ele>57.0</ele><time>2026-04-06T20:24:45Z</time></trkpt><trkpt lat="33.44790418396661" lon="9.016661577610153"><ele>57.0</ele><time>2026-04-06T20:24:46Z</time></trkpt><trkpt lat="33.448007495679285" lon="9.016652397640271"><ele>57.0</ele><time>2026-04-06T20:24:47Z</time></trkpt><trkpt lat="33.44811342596732" lon="9.016642338793575"><ele>57.0</ele><time>2026-04-06T20:24:48Z</time></trkpt><trkpt lat="33.448219433150264" lon="9.016632969975987"><ele>57.0</ele><time>2026-04-06T20:24:49Z</time></trkpt><trkpt lat="33.44832433688104" lon="9.016622696310808"><ele>57.0</ele><time>2026-04-06T20:24:50Z</time></trkpt><trkpt lat="33.44842611291903" lon="9.016608865518458"><ele>57.0</ele><time>2026-04-06T20:24:51Z</time></trkpt><trkpt lat="33.44852977044675" lon="9.016596671793172"><ele>57.0</ele><time>2026-04-06T20:24:52Z</time></trkpt><trkpt lat="33.448634630732805" lon="9.016585219142069"><ele>57.0</ele><time>2026-04-06T20:24:53Z</time></trkpt><trkpt lat="33.448739747755525" lon="9.016575299248013"><ele>57.0</ele><time>2026-04-06T20:24:54Z</time></trkpt><trkpt lat="33.448843854998444" lon="9.016566215934791"><ele>57.0</ele><time>2026-04-06T20:24:55Z</time></trkpt><trkpt lat="33.44894810086806" lon="9.016556735081407"><ele>57.0</ele><time>2026-04-06T20:24:56Z</time></trkpt><trkpt lat="33.44904958879388" lon="9.01654783897324"><ele>57.0</ele><time>2026-04-06T20:24:57Z</time></trkpt><trkpt lat="33.44915345327397" lon="9.016541469706171"><ele>57.2</ele><time>2026-04-06T20:24:58Z</time></trkpt><trkpt lat="33.44926084896379" lon="9.01653566671746"><ele>57.400000000000006</ele><time>2026-04-06T20:24:59Z</time></trkpt><trkpt lat="33.449367700667395" lon="9.016530224207116"><ele>57.599999999999994</ele><time>2026-04-06T20:25:00Z</time></trkpt><trkpt lat="33.44947425600702" lon="9.016523808600997"><ele>57.8</ele><time>2026-04-06T20:25:01Z</time></trkpt><trkpt lat="33.44958212714796" lon="9.016518198750235"><ele>58.0</ele><time>2026-04-06T20:25:02Z</time></trkpt><trkpt lat="33.44968976244718" lon="9.016512666201978"><ele>58.0</ele><time>2026-04-06T20:25:03Z</time></trkpt><trkpt lat="33.44979747115891" lon="9.016506467243287"><ele>58.0</ele><time>2026-04-06T20:25:04Z</time></trkpt><trkpt lat="33.449902732072246" lon="9.01650109139645"><ele>58.0</ele><time>2026-04-06T20:25:05Z</time></trkpt><trkpt lat="33.4500035383446" lon="9.016495741965283"><ele>58.0</ele><time>2026-04-06T20:25:06Z</time></trkpt><trkpt lat="33.450099712480295" lon="9.01648820814582"><ele>58.0</ele><time>2026-04-06T20:25:07Z</time></trkpt><trkpt lat="33.45019119216788" lon="9.016479101632354"><ele>58.0</ele><time>2026-04-06T20:25:08Z</time></trkpt><trkpt lat="33.450280501697065" lon="9.016469989502802"><ele>58.0</ele><time>2026-04-06T20:25:09Z</time></trkpt><trkpt lat="33.45037093565132" lon="9.016456062533601"><ele>58.0</ele><time>2026-04-06T20:25:10Z</time></trkpt><trkpt lat="33.450464514247265" lon="9.016442267529927"><ele>58.0</ele><time>2026-04-06T20:25:11Z</time></trkpt><trkpt lat="33.45055914501944" lon="9.016426632977657"><ele>58.0</ele><time>2026-04-06T20:25:12Z</time></trkpt><trkpt lat="33.45065343319421" lon="9.016409829459011"><ele>58.0</ele><time>2026-04-06T20:25:13Z</time></trkpt><trkpt lat="33.450747412429635" lon="9.016391329640703"><ele>58.0</ele><time>2026-04-06T20:25:14Z</time></trkpt><trkpt lat="33.45084274343293" lon="9.016371788319157"><ele>58.0</ele><time>2026-04-06T20:25:15Z</time></trkpt><trkpt lat="33.4509369719634" lon="9.016352833982676"><ele>58.0</ele><time>2026-04-06T20:25:16Z</time></trkpt><trkpt lat="33.45102910122539" lon="9.016334434948822"><ele>58.0</ele><time>2026-04-06T20:25:17Z</time></trkpt><trkpt lat="33.451124179153524" lon="9.016314874452583"><ele>58.0</ele><time>2026-04-06T20:25:18Z</time></trkpt><trkpt lat="33.45122109093947" lon="9.01629866369353"><ele>58.0</ele><time>2026-04-06T20:25:19Z</time></trkpt><trkpt lat="33.45131814872143" lon="9.0162820067896"><ele>58.0</ele><time>2026-04-06T20:25:20Z</time></trkpt><trkpt lat="33.451412579457454" lon="9.016265327461003"><ele>58.0</ele><time>2026-04-06T20:25:21Z</time></trkpt><trkpt lat="33.45150450785038" lon="9.016248045255876"><ele>58.0</ele><time>2026-04-06T20:25:22Z</time></trkpt><trkpt lat="33.451593143002356" lon="9.016231552163978"><ele>58.166666666666664</ele><time>2026-04-06T20:25:23Z</time></trkpt><trkpt lat="33.45167706986792" lon="9.016213044519478"><ele>58.33333333333333</ele><time>2026-04-06T20:25:24Z</time></trkpt><trkpt lat="33.451758374017736" lon="9.016195987525629"><ele>58.5</ele><time>2026-04-06T20:25:25Z</time></trkpt><trkpt lat="33.45183643244756" lon="9.016179061469698"><ele>58.66666666666667</ele><time>2026-04-06T20:25:26Z</time></trkpt><trkpt lat="33.45190706714541" lon="9.016162718685111"><ele>58.833333333333336</ele><time>2026-04-06T20:25:27Z</time></trkpt><trkpt lat="33.45197262626955" lon="9.016147272504487"><ele>59.0</ele><time>2026-04-06T20:25:28Z</time></trkpt><trkpt lat="33.45207633852339" lon="9.016127113956697"><ele>59.333333333333336</ele><time>2026-04-06T20:25:30Z</time></trkpt><trkpt lat="33.45214574655729" lon="9.016139202394728"><ele>59.66666666666667</ele><time>2026-04-06T20:25:32Z</time></trkpt><trkpt lat="33.45218936598168" lon="9.016196466973916"><ele>60.0</ele><time>2026-04-06T20:25:34Z</time></trkpt><trkpt lat="33.45219618712206" lon="9.016313504693205"><ele>60.33333333333333</ele><time>2026-04-06T20:25:36Z</time></trkpt><trkpt lat="33.452203515322054" lon="9.016464853956991"><ele>60.666666666666664</ele><time>2026-04-06T20:25:38Z</time></trkpt><trkpt lat="33.452208984513824" lon="9.016545011473394"><ele>61.0</ele><time>2026-04-06T20:25:39Z</time></trkpt><trkpt lat="33.452217168653064" lon="9.016623858792975"><ele>61.166666666666664</ele><time>2026-04-06T20:25:40Z</time></trkpt><trkpt lat="33.4522278025513" lon="9.016710907868886"><ele>61.33333333333333</ele><time>2026-04-06T20:25:41Z</time></trkpt><trkpt lat="33.452240538582046" lon="9.016803387150595"><ele>61.5</ele><time>2026-04-06T20:25:42Z</time></trkpt><trkpt lat="33.45225286922643" lon="9.016897094871627"><ele>61.66666666666667</ele><time>2026-04-06T20:25:43Z</time></trkpt><trkpt lat="33.45226517395059" lon="9.016990404670565"><ele>61.833333333333336</ele><time>2026-04-06T20:25:44Z</time></trkpt><trkpt lat="33.45227637490551" lon="9.017077513427102"><ele>62.0</ele><time>2026-04-06T20:25:45Z</time></trkpt><trkpt lat="33.452287020774655" lon="9.0171624425074"><ele>62.00000000000001</ele><time>2026-04-06T20:25:46Z</time></trkpt><trkpt lat="33.45229775860671" lon="9.017248748816124"><ele>62.0</ele><time>2026-04-06T20:25:47Z</time></trkpt><trkpt lat="33.45230759661568" lon="9.01733165861069"><ele>62.0</ele><time>2026-04-06T20:25:48Z</time></trkpt><trkpt lat="33.452316866769415" lon="9.017410200371634"><ele>62.0</ele><time>2026-04-06T20:25:49Z</time></trkpt><trkpt lat="33.45232563735463" lon="9.01748703573407"><ele>62.00000000000001</ele><time>2026-04-06T20:25:50Z</time></trkpt><trkpt lat="33.45234008782406" lon="9.017625109740681"><ele>62.0</ele><time>2026-04-06T20:25:52Z</time></trkpt><trkpt lat="33.45235218654463" lon="9.017751089763657"><ele>62.8</ele><time>2026-04-06T20:25:54Z</time></trkpt><trkpt lat="33.45236270465156" lon="9.017872579965827"><ele>63.6</ele><time>2026-04-06T20:25:56Z</time></trkpt><trkpt lat="33.452373155311605" lon="9.01799784241365"><ele>64.39999999999999</ele><time>2026-04-06T20:25:58Z</time></trkpt><trkpt lat="33.45238454333578" lon="9.01813982826432"><ele>65.2</ele><time>2026-04-06T20:26:00Z</time></trkpt><trkpt lat="33.45239400062924" lon="9.018214800747549"><ele>66.0</ele><time>2026-04-06T20:26:01Z</time></trkpt><trkpt lat="33.45240809964121" lon="9.018296956926237"><ele>66.6</ele><time>2026-04-06T20:26:02Z</time></trkpt><trkpt lat="33.45242280058943" lon="9.01838600064744"><ele>67.19999999999999</ele><time>2026-04-06T20:26:03Z</time></trkpt><trkpt lat="33.45243533639145" lon="9.018478584206129"><ele>67.80000000000001</ele><time>2026-04-06T20:26:04Z</time></trkpt><trkpt lat="33.45244278618741" lon="9.018565620895638"><ele>68.4</ele><time>2026-04-06T20:26:05Z</time></trkpt><trkpt lat="33.4524480773844" lon="9.0187037989785"><ele>69.0</ele><time>2026-04-06T20:26:07Z</time></trkpt><trkpt lat="33.452455022926564" lon="9.01884390264928"><ele>69.0</ele><time>2026-04-06T20:26:09Z</time></trkpt><trkpt lat="33.452460438685655" lon="9.01892529313312"><ele>69.0</ele><time>2026-04-06T20:26:10Z</time></trkpt><trkpt lat="33.452467726797316" lon="9.019011613473664"><ele>69.0</ele><time>2026-04-06T20:26:11Z</time></trkpt><trkpt lat="33.452477427757145" lon="9.019101052988004"><ele>69.0</ele><time>2026-04-06T20:26:12Z</time></trkpt><trkpt lat="33.45248931728265" lon="9.019187504951415"><ele>69.0</ele><time>2026-04-06T20:26:13Z</time></trkpt><trkpt lat="33.45251431829717" lon="9.019302547878121"><ele>69.0</ele><time>2026-04-06T20:26:15Z</time></trkpt><trkpt lat="33.452541877101204" lon="9.019415737059862"><ele>69.5</ele><time>2026-04-06T20:26:17Z</time></trkpt><trkpt lat="33.452559568648056" lon="9.019489488925652"><ele>70.0</ele><time>2026-04-06T20:26:18Z</time></trkpt><trkpt lat="33.45258204609023" lon="9.01956964920609"><ele>70.5</ele><time>2026-04-06T20:26:19Z</time></trkpt><trkpt lat="33.452603856566235" lon="9.019649211628275"><ele>71.0</ele><time>2026-04-06T20:26:20Z</time></trkpt><trkpt lat="33.452625393602936" lon="9.019724048287909"><ele>71.5</ele><time>2026-04-06T20:26:21Z</time></trkpt><trkpt lat="33.452666271014955" lon="9.01986331809029"><ele>72.0</ele><time>2026-04-06T20:26:23Z</time></trkpt><trkpt lat="33.45270062444955" lon="9.02000306079871"><ele>72.6</ele><time>2026-04-06T20:26:25Z</time></trkpt><trkpt lat="33.45273159094928" lon="9.020141932147437"><ele>73.2</ele><time>2026-04-06T20:26:27Z</time></trkpt><trkpt lat="33.452777129296344" lon="9.020282126840781"><ele>73.8</ele><time>2026-04-06T20:26:29Z</time></trkpt><trkpt lat="33.452835420689375" lon="9.020416737990905"><ele>74.4</ele><time>2026-04-06T20:26:31Z</time></trkpt><trkpt lat="33.45286621541266" lon="9.020485383070291"><ele>75.0</ele><time>2026-04-06T20:26:32Z</time></trkpt><trkpt lat="33.452896818497926" lon="9.020552413273117"><ele>75.0</ele><time>2026-04-06T20:26:33Z</time></trkpt><trkpt lat="33.452953912288315" lon="9.020676739982774"><ele>75.0</ele><time>2026-04-06T20:26:35Z</time></trkpt><trkpt lat="33.45299660462117" lon="9.020778674179432"><ele>75.0</ele><time>2026-04-06T20:26:37Z</time></trkpt><trkpt lat="33.453028068688376" lon="9.020854089810355"><ele>75.0</ele><time>2026-04-06T20:26:39Z</time></trkpt><trkpt lat="33.45306912431866" lon="9.020950478177287"><ele>75.0</ele><time>2026-04-06T20:26:41Z</time></trkpt><trkpt lat="33.4531178259243" lon="9.021063538872218"><ele>74.8</ele><time>2026-04-06T20:26:43Z</time></trkpt><trkpt lat="33.45316943475103" lon="9.021183834600143"><ele>74.6</ele><time>2026-04-06T20:26:45Z</time></trkpt><trkpt lat="33.45321965249116" lon="9.021320209738889"><ele>74.4</ele><time>2026-04-06T20:26:47Z</time></trkpt><trkpt lat="33.453289124973274" lon="9.021440696492848"><ele>74.2</ele><time>2026-04-06T20:26:49Z</time></trkpt><trkpt lat="33.453334342698405" lon="9.021496428449673"><ele>74.0</ele><time>2026-04-06T20:26:50Z</time></trkpt><trkpt lat="33.45338184957132" lon="9.021553583890652"><ele>74.0</ele><time>2026-04-06T20:26:51Z</time></trkpt><trkpt lat="33.45343152549927" lon="9.021613854678996"><ele>74.0</ele><time>2026-04-06T20:26:52Z</time></trkpt><trkpt lat="33.453479200145935" lon="9.02167587539715"><ele>74.0</ele><time>2026-04-06T20:26:53Z</time></trkpt><trkpt lat="33.45352598499906" lon="9.021738435179458"><ele>74.0</ele><time>2026-04-06T20:26:54Z</time></trkpt><trkpt lat="33.45357311602941" lon="9.021800993621937"><ele>74.0</ele><time>2026-04-06T20:26:55Z</time></trkpt><trkpt lat="33.453617496766505" lon="9.021863327102427"><ele>74.0</ele><time>2026-04-06T20:26:56Z</time></trkpt><trkpt lat="33.45365889227718" lon="9.021924549475603"><ele>74.0</ele><time>2026-04-06T20:26:57Z</time></trkpt><trkpt lat="33.453699586950684" lon="9.021985263465561"><ele>73.66666666666667</ele><time>2026-04-06T20:26:58Z</time></trkpt><trkpt lat="33.45374060485018" lon="9.022044810149085"><ele>73.33333333333334</ele><time>2026-04-06T20:26:59Z</time></trkpt><trkpt lat="33.45378221848045" lon="9.022105323443933"><ele>73.0</ele><time>2026-04-06T20:27:00Z</time></trkpt><trkpt lat="33.453825559330085" lon="9.02216484521198"><ele>72.66666666666667</ele><time>2026-04-06T20:27:01Z</time></trkpt><trkpt lat="33.453867799187734" lon="9.022222314593616"><ele>72.33333333333333</ele><time>2026-04-06T20:27:02Z</time></trkpt><trkpt lat="33.45394832199046" lon="9.022331616378652"><ele>72.0</ele><time>2026-04-06T20:27:04Z</time></trkpt><trkpt lat="33.454027282397696" lon="9.022438123359676"><ele>71.8</ele><time>2026-04-06T20:27:06Z</time></trkpt><trkpt lat="33.45410019440368" lon="9.022544363804464"><ele>71.6</ele><time>2026-04-06T20:27:08Z</time></trkpt><trkpt lat="33.45417013972616" lon="9.022643667677768"><ele>71.39999999999999</ele><time>2026-04-06T20:27:10Z</time></trkpt><trkpt lat="33.45423549489174" lon="9.022731959615635"><ele>71.2</ele><time>2026-04-06T20:27:12Z</time></trkpt><trkpt lat="33.45429872664795" lon="9.022811858696418"><ele>71.0</ele><time>2026-04-06T20:27:14Z</time></trkpt><trkpt lat="33.45436390788857" lon="9.02287954196969"><ele>71.0</ele><time>2026-04-06T20:27:16Z</time></trkpt><trkpt lat="33.454441195478545" lon="9.022917193713242"><ele>71.0</ele><time>2026-04-06T20:27:18Z</time></trkpt><trkpt lat="33.45451674949469" lon="9.022909100907519"><ele>71.0</ele><time>2026-04-06T20:27:20Z</time></trkpt><trkpt lat="33.454587605869165" lon="9.022875667624795"><ele>71.0</ele><time>2026-04-06T20:27:22Z</time></trkpt><trkpt lat="33.4546534586696" lon="9.022864833315307"><ele>71.0</ele><time>2026-04-06T20:27:24Z</time></trkpt><trkpt lat="33.45460670174469" lon="9.022806905517932"><ele>71.0</ele><time>2026-04-06T20:27:54Z</time></trkpt><trkpt lat="33.45457005923547" lon="9.022744618601752"><ele>71.0</ele><time>2026-04-06T20:28:01Z</time></trkpt><trkpt lat="33.45450895711911" lon="9.022696119461404"><ele>71.0</ele><time>2026-04-06T20:30:10Z</time></trkpt><trkpt lat="33.45452750529386" lon="9.02279621281179"><ele>71.0</ele><time>2026-04-06T20:31:05Z</time></trkpt><trkpt lat="33.45458396642333" lon="9.022841664009443"><ele>71.0</ele><time>2026-04-06T20:32:08Z</time></trkpt><trkpt lat="33.454652257707124" lon="9.022886618434237"><ele>71.0</ele><time>2026-04-06T20:32:14Z</time></trkpt><trkpt lat="33.45472517001579" lon="9.022914471489525"><ele>71.0</ele><time>2026-04-06T20:33:00Z</time></trkpt><trkpt lat="33.45478200913293" lon="9.02297495058689"><ele>71.0</ele><time>2026-04-06T20:33:03Z</time></trkpt><trkpt lat="33.454854401504925" lon="9.023036402318349"><ele>71.0</ele><time>2026-04-06T20:33:05Z</time></trkpt><trkpt lat="33.4549475268746" lon="9.023109405200879"><ele>71.0</ele><time>2026-04-06T20:33:07Z</time></trkpt><trkpt lat="33.45505145803536" lon="9.023175405825373"><ele>71.0</ele><time>2026-04-06T20:33:09Z</time></trkpt><trkpt lat="33.45515704004863" lon="9.023233004927333"><ele>71.0</ele><time>2026-04-06T20:33:11Z</time></trkpt><trkpt lat="33.455271672327626" lon="9.023288354812381"><ele>71.0</ele><time>2026-04-06T20:33:13Z</time></trkpt><trkpt lat="33.455390145482156" lon="9.023332803190579"><ele>71.0</ele><time>2026-04-06T20:33:15Z</time></trkpt><trkpt lat="33.455486433498194" lon="9.02336301436327"><ele>71.0</ele><time>2026-04-06T20:33:17Z</time></trkpt><trkpt lat="33.455565842857666" lon="9.023388184862421"><ele>71.0</ele><time>2026-04-06T20:33:19Z</time></trkpt><trkpt lat="33.45564665289109" lon="9.023419245441051"><ele>71.0</ele><time>2026-04-06T20:33:21Z</time></trkpt><trkpt lat="33.45574474131568" lon="9.023464299801402"><ele>70.83333333333334</ele><time>2026-04-06T20:33:23Z</time></trkpt><trkpt lat="33.45586641288386" lon="9.023503833025254"><ele>70.66666666666667</ele><time>2026-04-06T20:33:25Z</time></trkpt><trkpt lat="33.45593261876214" lon="9.023519490439297"><ele>70.5</ele><time>2026-04-06T20:33:26Z</time></trkpt><trkpt lat="33.45599922926988" lon="9.023537804406505"><ele>70.33333333333333</ele><time>2026-04-06T20:33:27Z</time></trkpt><trkpt lat="33.45606450736293" lon="9.023557895375392"><ele>70.16666666666666</ele><time>2026-04-06T20:33:28Z</time></trkpt><trkpt lat="33.45612568567241" lon="9.023581179132876"><ele>70.0</ele><time>2026-04-06T20:33:29Z</time></trkpt><trkpt lat="33.4562223525398" lon="9.023628665395902"><ele>69.66666666666666</ele><time>2026-04-06T20:33:31Z</time></trkpt><trkpt lat="33.45628664441522" lon="9.023668731728645"><ele>69.33333333333333</ele><time>2026-04-06T20:33:33Z</time></trkpt><trkpt lat="33.45635297267638" lon="9.023702312403428"><ele>69.0</ele><time>2026-04-06T20:33:37Z</time></trkpt><trkpt lat="33.45641830925106" lon="9.023711955118184"><ele>68.66666666666667</ele><time>2026-04-06T20:33:39Z</time></trkpt><trkpt lat="33.45649730783879" lon="9.023762927056861"><ele>68.33333333333334</ele><time>2026-04-06T20:33:41Z</time></trkpt><trkpt lat="33.4565893913599" lon="9.023838161108394"><ele>68.0</ele><time>2026-04-06T20:33:43Z</time></trkpt><trkpt lat="33.456680477826" lon="9.02393989965852"><ele>68.0</ele><time>2026-04-06T20:33:45Z</time></trkpt><trkpt lat="33.456723686238675" lon="9.023994987146855"><ele>68.0</ele><time>2026-04-06T20:33:46Z</time></trkpt><trkpt lat="33.456795264870216" lon="9.024104398454996"><ele>68.0</ele><time>2026-04-06T20:33:48Z</time></trkpt><trkpt lat="33.45685326511583" lon="9.024210589399207"><ele>68.0</ele><time>2026-04-06T20:33:50Z</time></trkpt><trkpt lat="33.45688949487261" lon="9.024307755447529"><ele>68.0</ele><time>2026-04-06T20:33:52Z</time></trkpt><trkpt lat="33.456911172347255" lon="9.024395436934006"><ele>68.2</ele><time>2026-04-06T20:33:54Z</time></trkpt><trkpt lat="33.456910769633254" lon="9.02448363722927"><ele>68.4</ele><time>2026-04-06T20:33:57Z</time></trkpt><trkpt lat="33.45684163409946" lon="9.024547108777005"><ele>68.60000000000001</ele><time>2026-04-06T20:34:01Z</time></trkpt><trkpt lat="33.45675579604566" lon="9.024567395052815"><ele>68.8</ele><time>2026-04-06T20:34:03Z</time></trkpt><trkpt lat="33.4566491773022" lon="9.024598095865453"><ele>69.0</ele><time>2026-04-06T20:34:05Z</time></trkpt><trkpt lat="33.456543396951425" lon="9.024628660477637"><ele>69.0</ele><time>2026-04-06T20:34:07Z</time></trkpt><trkpt lat="33.456442731672716" lon="9.024646921746152"><ele>69.0</ele><time>2026-04-06T20:34:09Z</time></trkpt><trkpt lat="33.4563402715593" lon="9.024663260463143"><ele>69.0</ele><time>2026-04-06T20:34:11Z</time></trkpt><trkpt lat="33.45623593638481" lon="9.024688402315716"><ele>69.0</ele><time>2026-04-06T20:34:13Z</time></trkpt><trkpt lat="33.456128541079686" lon="9.024711979693524"><ele>69.0</ele><time>2026-04-06T20:34:15Z</time></trkpt><trkpt lat="33.45602403123756" lon="9.02472663146801"><ele>69.16666666666667</ele><time>2026-04-06T20:34:17Z</time></trkpt><trkpt lat="33.455927294504434" lon="9.024737063502755"><ele>69.33333333333333</ele><time>2026-04-06T20:34:19Z</time></trkpt><trkpt lat="33.45583865265617" lon="9.02475201131254"><ele>69.5</ele><time>2026-04-06T20:34:21Z</time></trkpt><trkpt lat="33.45576817939041" lon="9.024768625260622"><ele>69.66666666666666</ele><time>2026-04-06T20:34:23Z</time></trkpt><trkpt lat="33.455703793304956" lon="9.024783271769998"><ele>69.83333333333333</ele><time>2026-04-06T20:34:25Z</time></trkpt><trkpt lat="33.45564073680722" lon="9.024798430669902"><ele>70.0</ele><time>2026-04-06T20:34:27Z</time></trkpt><trkpt lat="33.455557302564536" lon="9.02481721605638"><ele>70.0</ele><time>2026-04-06T20:34:30Z</time></trkpt><trkpt lat="33.45548053493881" lon="9.024819540611434"><ele>70.0</ele><time>2026-04-06T20:34:33Z</time></trkpt><trkpt lat="33.45540777311778" lon="9.024824839848039"><ele>70.0</ele><time>2026-04-06T20:34:36Z</time></trkpt><trkpt lat="33.45534577277478" lon="9.024860024429925"><ele>70.0</ele><time>2026-04-06T20:34:40Z</time></trkpt><trkpt lat="33.45531667186065" lon="9.024930661560854"><ele>70.0</ele><time>2026-04-06T20:35:17Z</time></trkpt><trkpt lat="33.45530712212105" lon="9.025007996700761"><ele>70.0</ele><time>2026-04-06T20:35:25Z</time></trkpt><trkpt lat="33.45526075736107" lon="9.025079203537175"><ele>70.0</ele><time>2026-04-06T20:35:37Z</time></trkpt><trkpt lat="33.45521822308105" lon="9.02514357570341"><ele>70.0</ele><time>2026-04-06T20:35:47Z</time></trkpt><trkpt lat="33.455164090918316" lon="9.025189596881889"><ele>70.0</ele><time>2026-04-06T20:36:07Z</time></trkpt><trkpt lat="33.455098022763835" lon="9.025180581805037"><ele>70.0</ele><time>2026-04-06T20:36:22Z</time></trkpt><trkpt lat="33.45515822256698" lon="9.025233958362163"><ele>70.0</ele><time>2026-04-06T20:36:58Z</time></trkpt><trkpt lat="33.45513867309715" lon="9.02530833386504"><ele>70.0</ele><time>2026-04-06T20:38:32Z</time></trkpt><trkpt lat="33.455107656671935" lon="9.025389446251605"><ele>70.0</ele><time>2026-04-06T20:46:45Z</time></trkpt><trkpt lat="33.45515924517358" lon="9.02534126626631"><ele>70.0</ele><time>2026-04-06T20:47:39Z</time></trkpt><trkpt lat="33.45517430197598" lon="9.025257007495439"><ele>70.0</ele><time>2026-04-06T20:47:59Z</time></trkpt><trkpt lat="33.45514452344679" lon="9.025326392914852"><ele>70.0</ele><time>2026-04-06T20:49:36Z</time></trkpt><trkpt lat="33.45506640690012" lon="9.025391436435505"><ele>70.0</ele><time>2026-04-06T20:52:48Z</time></trkpt><trkpt lat="33.45512999587612" lon="9.02535334316469"><ele>70.0</ele><time>2026-04-06T20:54:02.999Z</time></trkpt><trkpt lat="33.45519160079175" lon="9.025303766694194"><ele>70.0</ele><time>2026-04-06T20:54:23.999Z</time></trkpt><trkpt lat="33.45518176340354" lon="9.025226382337884"><ele>70.0</ele><time>2026-04-06T20:54:51Z</time></trkpt><trkpt lat="33.455137274641345" lon="9.025141848444944"><ele>70.0</ele><time>2026-04-06T20:55:56.999Z</time></trkpt><trkpt lat="33.45507078589957" lon="9.025142376240495"><ele>70.0</ele><time>2026-04-06T20:55:58.999Z</time></trkpt><trkpt lat="33.45515280976059" lon="9.025243153752468"><ele>70.0</ele><time>2026-04-06T20:56:05.999Z</time></trkpt><trkpt lat="33.45517442377614" lon="9.025170694951695"><ele>70.0</ele><time>2026-04-06T20:57:03Z</time></trkpt><trkpt lat="33.4552012749212" lon="9.02510062382694"><ele>70.0</ele><time>2026-04-06T20:57:11Z</time></trkpt><trkpt lat="33.45522949661981" lon="9.025023530615455"><ele>70.0</ele><time>2026-04-06T20:57:20Z</time></trkpt><trkpt lat="33.4552593654319" lon="9.024956015955045"><ele>70.0</ele><time>2026-04-06T20:57:28Z</time></trkpt><trkpt lat="33.45531011655303" lon="9.024895012184723"><ele>70.0</ele><time>2026-04-06T20:58:02.999Z</time></trkpt><trkpt lat="33.45537752164008" lon="9.024839024189879"><ele>70.0</ele><time>2026-04-06T20:58:39.999Z</time></trkpt><trkpt lat="33.45543900516949" lon="9.024880674571556"><ele>70.0</ele><time>2026-04-06T20:58:48.999Z</time></trkpt><trkpt lat="33.45552203369744" lon="9.024841131855105"><ele>70.0</ele><time>2026-04-06T20:58:52.999Z</time></trkpt><trkpt lat="33.455591347844056" lon="9.024817074791857"><ele>70.0</ele><time>2026-04-06T20:58:55.999Z</time></trkpt><trkpt lat="33.45566488222656" lon="9.02479102685476"><ele>70.0</ele><time>2026-04-06T20:58:59Z</time></trkpt><trkpt lat="33.455738368002976" lon="9.024766161477976"><ele>70.0</ele><time>2026-04-06T20:59:02Z</time></trkpt><trkpt lat="33.455811076239534" lon="9.024751073365316"><ele>70.0</ele><time>2026-04-06T20:59:05Z</time></trkpt><trkpt lat="33.45589700422441" lon="9.024727182705263"><ele>70.0</ele><time>2026-04-06T20:59:08Z</time></trkpt><trkpt lat="33.45597496668525" lon="9.024717188021118"><ele>70.0</ele><time>2026-04-06T20:59:10Z</time></trkpt><trkpt lat="33.456080638512866" lon="9.024703096916936"><ele>70.0</ele><time>2026-04-06T20:59:12Z</time></trkpt><trkpt lat="33.456209057856" lon="9.024685512642732"><ele>70.0</ele><time>2026-04-06T20:59:14Z</time></trkpt><trkpt lat="33.45627534736653" lon="9.024673602157097"><ele>70.0</ele><time>2026-04-06T20:59:15Z</time></trkpt><trkpt lat="33.45634069751581" lon="9.024660467009507"><ele>70.0</ele><time>2026-04-06T20:59:16Z</time></trkpt><trkpt lat="33.45640385689441" lon="9.024650597058285"><ele>70.0</ele><time>2026-04-06T20:59:17Z</time></trkpt><trkpt lat="33.45651921808864" lon="9.024633627865978"><ele>70.0</ele><time>2026-04-06T20:59:19Z</time></trkpt><trkpt lat="33.456622955085194" lon="9.024631907961497"><ele>70.0</ele><time>2026-04-06T20:59:21Z</time></trkpt><trkpt lat="33.45671407312054" lon="9.024658147035167"><ele>69.8</ele><time>2026-04-06T20:59:23Z</time></trkpt><trkpt lat="33.456807773187336" lon="9.024693981875632"><ele>69.6</ele><time>2026-04-06T20:59:25Z</time></trkpt><trkpt lat="33.456889780313325" lon="9.024722855066763"><ele>69.4</ele><time>2026-04-06T20:59:27Z</time></trkpt><trkpt lat="33.456967048800145" lon="9.024743938529909"><ele>69.2</ele><time>2026-04-06T20:59:32Z</time></trkpt><trkpt lat="33.457028148484895" lon="9.024855672376637"><ele>69.0</ele><time>2026-04-06T20:59:34Z</time></trkpt><trkpt lat="33.45705958339719" lon="9.024957329311405"><ele>69.0</ele><time>2026-04-06T20:59:36Z</time></trkpt><trkpt lat="33.457095689105614" lon="9.025045629437932"><ele>69.0</ele><time>2026-04-06T20:59:38Z</time></trkpt><trkpt lat="33.45716237835021" lon="9.025077782014083"><ele>69.0</ele><time>2026-04-06T20:59:39.999Z</time></trkpt><trkpt lat="33.457213903703654" lon="9.025002896096183"><ele>69.0</ele><time>2026-04-06T20:59:41.999Z</time></trkpt><trkpt lat="33.45718563616359" lon="9.024899264281297"><ele>69.0</ele><time>2026-04-06T20:59:43.999Z</time></trkpt><trkpt lat="33.4571217171513" lon="9.024799925593577"><ele>69.0</ele><time>2026-04-06T20:59:45.999Z</time></trkpt><trkpt lat="33.457062879467294" lon="9.02467083828228"><ele>69.0</ele><time>2026-04-06T20:59:47.999Z</time></trkpt><trkpt lat="33.45700902195847" lon="9.02453846996098"><ele>69.0</ele><time>2026-04-06T20:59:49.999Z</time></trkpt><trkpt lat="33.45698174596404" lon="9.024468890364368"><ele>69.0</ele><time>2026-04-06T20:59:50.999Z</time></trkpt><trkpt lat="33.45695377603554" lon="9.024398962746405"><ele>69.0</ele><time>2026-04-06T20:59:51.999Z</time></trkpt><trkpt lat="33.456926751274246" lon="9.024329389292083"><ele>69.0</ele><time>2026-04-06T20:59:52.999Z</time></trkpt><trkpt lat="33.45690103872466" lon="9.024254101430756"><ele>69.0</ele><time>2026-04-06T20:59:53.999Z</time></trkpt><trkpt lat="33.45686855226922" lon="9.024183884199122"><ele>68.83333333333333</ele><time>2026-04-06T20:59:54.999Z</time></trkpt><trkpt lat="33.45683388557886" lon="9.024113314598502"><ele>68.66666666666667</ele><time>2026-04-06T20:59:55.999Z</time></trkpt><trkpt lat="33.456798086127506" lon="9.024044567268255"><ele>68.5</ele><time>2026-04-06T20:59:56.999Z</time></trkpt><trkpt lat="33.45675778196104" lon="9.023977708975217"><ele>68.33333333333334</ele><time>2026-04-06T20:59:57.999Z</time></trkpt><trkpt lat="33.45671688072543" lon="9.023911456219222"><ele>68.16666666666667</ele><time>2026-04-06T20:59:58.999Z</time></trkpt><trkpt lat="33.45663275563252" lon="9.023805314449474"><ele>68.0</ele><time>2026-04-06T21:00:00.999Z</time></trkpt><trkpt lat="33.45653891103003" lon="9.02373333012014"><ele>68.0</ele><time>2026-04-06T21:00:02.999Z</time></trkpt><trkpt lat="33.456446670953824" lon="9.023681479461166"><ele>68.0</ele><time>2026-04-06T21:00:04.999Z</time></trkpt><trkpt lat="33.45634676090264" lon="9.023627529160386"><ele>68.0</ele><time>2026-04-06T21:00:06.999Z</time></trkpt><trkpt lat="33.456241807567594" lon="9.023586371981303"><ele>68.0</ele><time>2026-04-06T21:00:08.999Z</time></trkpt><trkpt lat="33.456130946305784" lon="9.023542322749538"><ele>68.0</ele><time>2026-04-06T21:00:10.999Z</time></trkpt><trkpt lat="33.45601880345667" lon="9.023506347988237"><ele>68.5</ele><time>2026-04-06T21:00:12.999Z</time></trkpt><trkpt lat="33.45590621427873" lon="9.023468624725787"><ele>69.0</ele><time>2026-04-06T21:00:14.999Z</time></trkpt><trkpt lat="33.455793473822446" lon="9.023428345484863"><ele>69.5</ele><time>2026-04-06T21:00:16.999Z</time></trkpt><trkpt lat="33.45568373515792" lon="9.023399885339217"><ele>70.0</ele><time>2026-04-06T21:00:18.999Z</time></trkpt><trkpt lat="33.45557716143159" lon="9.023349927651175"><ele>69.8</ele><time>2026-04-06T21:00:20.999Z</time></trkpt><trkpt lat="33.455466588638956" lon="9.023301787381904"><ele>69.6</ele><time>2026-04-06T21:00:22.999Z</time></trkpt><trkpt lat="33.45535512255372" lon="9.023270774515785"><ele>69.4</ele><time>2026-04-06T21:00:24.999Z</time></trkpt><trkpt lat="33.45525258808305" lon="9.023242964235983"><ele>69.2</ele><time>2026-04-06T21:00:26.999Z</time></trkpt><trkpt lat="33.455158655564446" lon="9.023199699125518"><ele>69.0</ele><time>2026-04-06T21:00:28.999Z</time></trkpt><trkpt lat="33.45505306054522" lon="9.023141681601947"><ele>69.5</ele><time>2026-04-06T21:00:30.999Z</time></trkpt><trkpt lat="33.45494253645327" lon="9.023073695387303"><ele>70.0</ele><time>2026-04-06T21:00:32.999Z</time></trkpt><trkpt lat="33.45483093963216" lon="9.023012882407675"><ele>70.5</ele><time>2026-04-06T21:00:34.999Z</time></trkpt><trkpt lat="33.45472684679641" lon="9.022954380259337"><ele>71.0</ele><time>2026-04-06T21:00:36.999Z</time></trkpt><trkpt lat="33.45461939908624" lon="9.02288403471574"><ele>71.0</ele><time>2026-04-06T21:00:38.999Z</time></trkpt><trkpt lat="33.454522563839575" lon="9.022805547270586"><ele>71.0</ele><time>2026-04-06T21:00:40.999Z</time></trkpt><trkpt lat="33.45441734470594" lon="9.022744591765765"><ele>71.0</ele><time>2026-04-06T21:00:42.999Z</time></trkpt><trkpt lat="33.45431588732776" lon="9.022683067817066"><ele>71.0</ele><time>2026-04-06T21:00:44.999Z</time></trkpt><trkpt lat="33.45422189396974" lon="9.022616951488251"><ele>71.0</ele><time>2026-04-06T21:00:46.999Z</time></trkpt><trkpt lat="33.4541498097911" lon="9.0225476358574"><ele>71.0</ele><time>2026-04-06T21:00:48.999Z</time></trkpt><trkpt lat="33.454088858032016" lon="9.022464356466918"><ele>71.0</ele><time>2026-04-06T21:00:50.999Z</time></trkpt><trkpt lat="33.45403989397477" lon="9.022388760805484"><ele>71.0</ele><time>2026-04-06T21:00:52.999Z</time></trkpt><trkpt lat="33.45399701462643" lon="9.022330943197021"><ele>71.0</ele><time>2026-04-06T21:00:54.999Z</time></trkpt><trkpt lat="33.45395538119729" lon="9.022268782087288"><ele>71.0</ele><time>2026-04-06T21:00:56.999Z</time></trkpt><trkpt lat="33.4538855454639" lon="9.02216949844839"><ele>71.0</ele><time>2026-04-06T21:00:58.999Z</time></trkpt><trkpt lat="33.453840740565994" lon="9.022106452991531"><ele>71.0</ele><time>2026-04-06T21:00:59.999Z</time></trkpt><trkpt lat="33.45379538286015" lon="9.022042883713064"><ele>71.0</ele><time>2026-04-06T21:01:00.999Z</time></trkpt><trkpt lat="33.45375069004477" lon="9.021977577122092"><ele>71.0</ele><time>2026-04-06T21:01:01.999Z</time></trkpt><trkpt lat="33.45370538949073" lon="9.021914054188596"><ele>71.0</ele><time>2026-04-06T21:01:02.999Z</time></trkpt><trkpt lat="33.453658050543034" lon="9.021847751163302"><ele>71.0</ele><time>2026-04-06T21:01:03.999Z</time></trkpt><trkpt lat="33.453612141100514" lon="9.02178850095706"><ele>71.0</ele><time>2026-04-06T21:01:04.999Z</time></trkpt><trkpt lat="33.453537142640556" lon="9.021683980383868"><ele>71.6</ele><time>2026-04-06T21:01:06.999Z</time></trkpt><trkpt lat="33.45348117309454" lon="9.02159697393304"><ele>72.19999999999999</ele><time>2026-04-06T21:01:08.999Z</time></trkpt><trkpt lat="33.45342485249051" lon="9.021514988289447"><ele>72.80000000000001</ele><time>2026-04-06T21:01:10.999Z</time></trkpt><trkpt lat="33.45336811879413" lon="9.021419003281348"><ele>73.4</ele><time>2026-04-06T21:01:12.999Z</time></trkpt><trkpt lat="33.45330100115593" lon="9.021292959284947"><ele>74.0</ele><time>2026-04-06T21:01:14.999Z</time></trkpt><trkpt lat="33.45326603628228" lon="9.021224650221406"><ele>74.0</ele><time>2026-04-06T21:01:15.999Z</time></trkpt><trkpt lat="33.45323195451827" lon="9.021156200038673"><ele>74.0</ele><time>2026-04-06T21:01:16.999Z</time></trkpt><trkpt lat="33.45319603484237" lon="9.021086606034652"><ele>74.0</ele><time>2026-04-06T21:01:17.999Z</time></trkpt><trkpt lat="33.453159825378414" lon="9.021016842849"><ele>74.0</ele><time>2026-04-06T21:01:18.999Z</time></trkpt><trkpt lat="33.45312434433425" lon="9.020945795759944"><ele>74.0</ele><time>2026-04-06T21:01:19.999Z</time></trkpt><trkpt lat="33.453089226207084" lon="9.02087360708533"><ele>74.0</ele><time>2026-04-06T21:01:20.999Z</time></trkpt><trkpt lat="33.453055894449186" lon="9.02080298372946"><ele>74.0</ele><time>2026-04-06T21:01:21.999Z</time></trkpt><trkpt lat="33.45302271411088" lon="9.020730303744505"><ele>74.16666666666667</ele><time>2026-04-06T21:01:22.999Z</time></trkpt><trkpt lat="33.45298921504922" lon="9.02065555686898"><ele>74.33333333333334</ele><time>2026-04-06T21:01:23.999Z</time></trkpt><trkpt lat="33.45296011895118" lon="9.020582466419805"><ele>74.5</ele><time>2026-04-06T21:01:24.999Z</time></trkpt><trkpt lat="33.45293250390964" lon="9.020513534098788"><ele>74.66666666666667</ele><time>2026-04-06T21:01:25.999Z</time></trkpt><trkpt lat="33.45287684828734" lon="9.020377149231312"><ele>74.83333333333333</ele><time>2026-04-06T21:01:27.999Z</time></trkpt><trkpt lat="33.4528493923492" lon="9.020308213627928"><ele>75.0</ele><time>2026-04-06T21:01:28.999Z</time></trkpt><trkpt lat="33.45282351621933" lon="9.020238367416669"><ele>74.99999999999999</ele><time>2026-04-06T21:01:29.999Z</time></trkpt><trkpt lat="33.45279977715263" lon="9.02016583574833"><ele>75.0</ele><time>2026-04-06T21:01:30.999Z</time></trkpt><trkpt lat="33.45277536081634" lon="9.020088907685356"><ele>75.0</ele><time>2026-04-06T21:01:31.999Z</time></trkpt><trkpt lat="33.452751436745295" lon="9.020011006621049"><ele>75.0</ele><time>2026-04-06T21:01:32.999Z</time></trkpt><trkpt lat="33.45272894080663" lon="9.01993061856851"><ele>75.0</ele><time>2026-04-06T21:01:33.999Z</time></trkpt><trkpt lat="33.452706209705795" lon="9.0198505044155"><ele>74.99999999999999</ele><time>2026-04-06T21:01:34.999Z</time></trkpt><trkpt lat="33.4526832535115" lon="9.019771548948729"><ele>75.0</ele><time>2026-04-06T21:01:35.999Z</time></trkpt><trkpt lat="33.452661757234196" lon="9.019695133420543"><ele>74.5</ele><time>2026-04-06T21:01:36.999Z</time></trkpt><trkpt lat="33.452640620404324" lon="9.019620964625068"><ele>74.0</ele><time>2026-04-06T21:01:37.999Z</time></trkpt><trkpt lat="33.4526210388986" lon="9.01954802243589"><ele>73.5</ele><time>2026-04-06T21:01:38.999Z</time></trkpt><trkpt lat="33.452598890895864" lon="9.019473964658424"><ele>73.0</ele><time>2026-04-06T21:01:39.999Z</time></trkpt><trkpt lat="33.45257905910746" lon="9.019400769226586"><ele>72.5</ele><time>2026-04-06T21:01:40.999Z</time></trkpt><trkpt lat="33.45255187675604" lon="9.019282333194793"><ele>72.0</ele><time>2026-04-06T21:01:42.999Z</time></trkpt><trkpt lat="33.452530006109136" lon="9.019172642567467"><ele>71.57142857142858</ele><time>2026-04-06T21:01:44.999Z</time></trkpt><trkpt lat="33.45251946605909" lon="9.019097053354582"><ele>71.14285714285714</ele><time>2026-04-06T21:01:45.999Z</time></trkpt><trkpt lat="33.45250902650099" lon="9.019012342347589"><ele>70.71428571428572</ele><time>2026-04-06T21:01:46.999Z</time></trkpt><trkpt lat="33.45249844670456" lon="9.018925151296306"><ele>70.28571428571429</ele><time>2026-04-06T21:01:47.999Z</time></trkpt><trkpt lat="33.452489327908324" lon="9.018843194222528"><ele>69.85714285714286</ele><time>2026-04-06T21:01:48.999Z</time></trkpt><trkpt lat="33.452481424982295" lon="9.018766166354311"><ele>69.42857142857143</ele><time>2026-04-06T21:01:49.999Z</time></trkpt><trkpt lat="33.45247300915883" lon="9.018649016131723"><ele>69.0</ele><time>2026-04-06T21:01:51.999Z</time></trkpt><trkpt lat="33.452464794739804" lon="9.018522974188203"><ele>69.0</ele><time>2026-04-06T21:01:53.999Z</time></trkpt><trkpt lat="33.452455857760974" lon="9.018427948700651"><ele>69.0</ele><time>2026-04-06T21:01:54.999Z</time></trkpt><trkpt lat="33.452446659607155" lon="9.018316407657743"><ele>69.0</ele><time>2026-04-06T21:01:55.999Z</time></trkpt><trkpt lat="33.45243654639925" lon="9.01820017493398"><ele>69.0</ele><time>2026-04-06T21:01:56.999Z</time></trkpt><trkpt lat="33.452427131940496" lon="9.018084796940373"><ele>69.0</ele><time>2026-04-06T21:01:57.999Z</time></trkpt><trkpt lat="33.45241831962732" lon="9.017974226967942"><ele>68.5</ele><time>2026-04-06T21:01:58.999Z</time></trkpt><trkpt lat="33.45240886035908" lon="9.017869935837425"><ele>68.0</ele><time>2026-04-06T21:01:59.999Z</time></trkpt><trkpt lat="33.45239828666983" lon="9.017770071080657"><ele>67.5</ele><time>2026-04-06T21:02:00.999Z</time></trkpt><trkpt lat="33.452387174026406" lon="9.017675877360034"><ele>67.0</ele><time>2026-04-06T21:02:01.999Z</time></trkpt><trkpt lat="33.452375319750644" lon="9.017588907821521"><ele>66.5</ele><time>2026-04-06T21:02:02.999Z</time></trkpt><trkpt lat="33.45235986710264" lon="9.017509846218447"><ele>66.0</ele><time>2026-04-06T21:02:03.999Z</time></trkpt><trkpt lat="33.452344671848365" lon="9.017428920429136"><ele>65.33333333333333</ele><time>2026-04-06T21:02:04.999Z</time></trkpt><trkpt lat="33.45232943972452" lon="9.017339174886912"><ele>64.66666666666667</ele><time>2026-04-06T21:02:05.999Z</time></trkpt><trkpt lat="33.45231828598723" lon="9.01723691188493"><ele>64.0</ele><time>2026-04-06T21:02:06.999Z</time></trkpt><trkpt lat="33.45230487215306" lon="9.01713163261059"><ele>63.333333333333336</ele><time>2026-04-06T21:02:07.999Z</time></trkpt><trkpt lat="33.452290284167255" lon="9.017029182126993"><ele>62.66666666666667</ele><time>2026-04-06T21:02:08.999Z</time></trkpt><trkpt lat="33.452275275567736" lon="9.016931456794644"><ele>62.0</ele><time>2026-04-06T21:02:09.999Z</time></trkpt><trkpt lat="33.45225914645875" lon="9.016840321611319"><ele>62.00000000000001</ele><time>2026-04-06T21:02:10.999Z</time></trkpt><trkpt lat="33.45224583251003" lon="9.016759761849233"><ele>62.0</ele><time>2026-04-06T21:02:11.999Z</time></trkpt><trkpt lat="33.452235638484865" lon="9.01668118134598"><ele>62.0</ele><time>2026-04-06T21:02:12.999Z</time></trkpt><trkpt lat="33.45222637795515" lon="9.016605924657844"><ele>62.0</ele><time>2026-04-06T21:02:13.999Z</time></trkpt><trkpt lat="33.452218704541" lon="9.016531009683105"><ele>62.00000000000001</ele><time>2026-04-06T21:02:14.999Z</time></trkpt><trkpt lat="33.45220228129048" lon="9.016387655316162"><ele>62.0</ele><time>2026-04-06T21:02:16.999Z</time></trkpt><trkpt lat="33.45218982203361" lon="9.016252429104108"><ele>61.8</ele><time>2026-04-06T21:02:18.999Z</time></trkpt><trkpt lat="33.45217748753059" lon="9.016158601743955"><ele>61.6</ele><time>2026-04-06T21:02:20.999Z</time></trkpt><trkpt lat="33.452111027259896" lon="9.016082626672157"><ele>61.39999999999999</ele><time>2026-04-06T21:02:25.999Z</time></trkpt><trkpt lat="33.452011212132845" lon="9.016087620945482"><ele>61.199999999999996</ele><time>2026-04-06T21:02:27.999Z</time></trkpt><trkpt lat="33.451875462129614" lon="9.01611893585507"><ele>61.0</ele><time>2026-04-06T21:02:29.999Z</time></trkpt><trkpt lat="33.451798891052235" lon="9.016132425686239"><ele>60.599999999999994</ele><time>2026-04-06T21:02:30.999Z</time></trkpt><trkpt lat="33.45171561384338" lon="9.016146241764458"><ele>60.199999999999996</ele><time>2026-04-06T21:02:31.999Z</time></trkpt><trkpt lat="33.451627309234894" lon="9.016158944435498"><ele>59.800000000000004</ele><time>2026-04-06T21:02:32.999Z</time></trkpt><trkpt lat="33.45153905286013" lon="9.01617304103272"><ele>59.400000000000006</ele><time>2026-04-06T21:02:33.999Z</time></trkpt><trkpt lat="33.4514442468496" lon="9.016203401129909"><ele>59.0</ele><time>2026-04-06T21:02:34.999Z</time></trkpt><trkpt lat="33.451348357705726" lon="9.016216015301051"><ele>58.800000000000004</ele><time>2026-04-06T21:02:35.999Z</time></trkpt><trkpt lat="33.451253704240514" lon="9.016235512572166"><ele>58.60000000000001</ele><time>2026-04-06T21:02:36.999Z</time></trkpt><trkpt lat="33.4511566129213" lon="9.016257233441259"><ele>58.4</ele><time>2026-04-06T21:02:37.999Z</time></trkpt><trkpt lat="33.451056021555324" lon="9.016274046627215"><ele>58.2</ele><time>2026-04-06T21:02:38.999Z</time></trkpt><trkpt lat="33.45095713747432" lon="9.016287137860896"><ele>58.0</ele><time>2026-04-06T21:02:39.999Z</time></trkpt><trkpt lat="33.4508558622105" lon="9.016303452122683"><ele>58.0</ele><time>2026-04-06T21:02:40.999Z</time></trkpt><trkpt lat="33.450751495657535" lon="9.016325817557421"><ele>58.0</ele><time>2026-04-06T21:02:41.999Z</time></trkpt><trkpt lat="33.45064874286672" lon="9.016349597008892"><ele>58.0</ele><time>2026-04-06T21:02:42.999Z</time></trkpt><trkpt lat="33.45054620079049" lon="9.016369485471547"><ele>58.0</ele><time>2026-04-06T21:02:43.999Z</time></trkpt><trkpt lat="33.450444783166766" lon="9.01638899619501"><ele>58.0</ele><time>2026-04-06T21:02:44.999Z</time></trkpt><trkpt lat="33.45033906296231" lon="9.016407238567867"><ele>58.0</ele><time>2026-04-06T21:02:45.999Z</time></trkpt><trkpt lat="33.450235536687885" lon="9.016422620910662"><ele>58.0</ele><time>2026-04-06T21:02:46.999Z</time></trkpt><trkpt lat="33.45013024543988" lon="9.016431608865036"><ele>58.0</ele><time>2026-04-06T21:02:47.999Z</time></trkpt><trkpt lat="33.45002736194347" lon="9.016440702809783"><ele>58.0</ele><time>2026-04-06T21:02:48.999Z</time></trkpt><trkpt lat="33.449925577805516" lon="9.01644984679483"><ele>58.0</ele><time>2026-04-06T21:02:49.999Z</time></trkpt><trkpt lat="33.44982399286205" lon="9.016457640201963"><ele>58.0</ele><time>2026-04-06T21:02:50.999Z</time></trkpt><trkpt lat="33.44972539868578" lon="9.016462797246211"><ele>58.0</ele><time>2026-04-06T21:02:51.999Z</time></trkpt><trkpt lat="33.449629368353825" lon="9.0164674669649"><ele>58.0</ele><time>2026-04-06T21:02:52.999Z</time></trkpt><trkpt lat="33.44953285095981" lon="9.016472245313139"><ele>58.0</ele><time>2026-04-06T21:02:53.999Z</time></trkpt><trkpt lat="33.44943545533283" lon="9.016476768692248"><ele>58.0</ele><time>2026-04-06T21:02:54.999Z</time></trkpt><trkpt lat="33.449337677228286" lon="9.016481158439046"><ele>58.0</ele><time>2026-04-06T21:02:55.999Z</time></trkpt><trkpt lat="33.449237321570266" lon="9.016484495349772"><ele>58.0</ele><time>2026-04-06T21:02:56.999Z</time></trkpt><trkpt lat="33.44913667658398" lon="9.016490829934416"><ele>58.0</ele><time>2026-04-06T21:02:57.999Z</time></trkpt><trkpt lat="33.44903298357927" lon="9.016499107283131"><ele>58.0</ele><time>2026-04-06T21:02:58.999Z</time></trkpt><trkpt lat="33.448925898710826" lon="9.016508734559777"><ele>58.0</ele><time>2026-04-06T21:02:59.999Z</time></trkpt><trkpt lat="33.44881967150332" lon="9.016519146369653"><ele>57.8</ele><time>2026-04-06T21:03:00.999Z</time></trkpt><trkpt lat="33.4487097184458" lon="9.016530694214257"><ele>57.599999999999994</ele><time>2026-04-06T21:03:01.999Z</time></trkpt><trkpt lat="33.4486010184592" lon="9.01654034438037"><ele>57.400000000000006</ele><time>2026-04-06T21:03:02.999Z</time></trkpt><trkpt lat="33.4484917586768" lon="9.016551841155284"><ele>57.2</ele><time>2026-04-06T21:03:03.999Z</time></trkpt><trkpt lat="33.44838327735531" lon="9.016563995540904"><ele>57.0</ele><time>2026-04-06T21:03:04.999Z</time></trkpt><trkpt lat="33.44827771171018" lon="9.016577179455497"><ele>57.0</ele><time>2026-04-06T21:03:05.999Z</time></trkpt><trkpt lat="33.448173746527374" lon="9.016589448433749"><ele>57.0</ele><time>2026-04-06T21:03:06.999Z</time></trkpt><trkpt lat="33.448069505948816" lon="9.01659998273776"><ele>57.0</ele><time>2026-04-06T21:03:07.999Z</time></trkpt><trkpt lat="33.447963775837934" lon="9.016608521683352"><ele>57.0</ele><time>2026-04-06T21:03:08.999Z</time></trkpt><trkpt lat="33.44785610721464" lon="9.016617546849012"><ele>57.0</ele><time>2026-04-06T21:03:09.999Z</time></trkpt><trkpt lat="33.44774886022595" lon="9.016624556501036"><ele>57.0</ele><time>2026-04-06T21:03:10.999Z</time></trkpt><trkpt lat="33.44763987422346" lon="9.016627691446795"><ele>57.0</ele><time>2026-04-06T21:03:11.999Z</time></trkpt><trkpt lat="33.447530087781786" lon="9.016629130766216"><ele>57.0</ele><time>2026-04-06T21:03:12.999Z</time></trkpt><trkpt lat="33.44742255850854" lon="9.016630840136578"><ele>57.0</ele><time>2026-04-06T21:03:13.999Z</time></trkpt><trkpt lat="33.44731631555726" lon="9.016631871351288"><ele>57.0</ele><time>2026-04-06T21:03:14.999Z</time></trkpt><trkpt lat="33.44720889010912" lon="9.016631407784843"><ele>56.8</ele><time>2026-04-06T21:03:15.999Z</time></trkpt><trkpt lat="33.44710127138891" lon="9.016632083184662"><ele>56.6</ele><time>2026-04-06T21:03:16.999Z</time></trkpt><trkpt lat="33.44699327473168" lon="9.01662989486519"><ele>56.39999999999999</ele><time>2026-04-06T21:03:17.999Z</time></trkpt><trkpt lat="33.446888071347175" lon="9.016629220603283"><ele>56.199999999999996</ele><time>2026-04-06T21:03:18.999Z</time></trkpt><trkpt lat="33.446784145611254" lon="9.016626134166511"><ele>56.0</ele><time>2026-04-06T21:03:19.999Z</time></trkpt><trkpt lat="33.44667814382347" lon="9.016621381607413"><ele>56.0</ele><time>2026-04-06T21:03:20.999Z</time></trkpt><trkpt lat="33.44657551234677" lon="9.016616781774761"><ele>55.99999999999999</ele><time>2026-04-06T21:03:21.999Z</time></trkpt><trkpt lat="33.446472749573275" lon="9.016611649049091"><ele>55.99999999999999</ele><time>2026-04-06T21:03:22.999Z</time></trkpt><trkpt lat="33.44636966766326" lon="9.016606144821118"><ele>56.0</ele><time>2026-04-06T21:03:23.999Z</time></trkpt><trkpt lat="33.44626474540155" lon="9.016596683060145"><ele>56.0</ele><time>2026-04-06T21:03:24.999Z</time></trkpt><trkpt lat="33.44616027438061" lon="9.016588416646501"><ele>55.8</ele><time>2026-04-06T21:03:25.999Z</time></trkpt><trkpt lat="33.44605833908333" lon="9.016581712917295"><ele>55.599999999999994</ele><time>2026-04-06T21:03:26.999Z</time></trkpt><trkpt lat="33.44595519547815" lon="9.01657458811063"><ele>55.4</ele><time>2026-04-06T21:03:27.999Z</time></trkpt><trkpt lat="33.44585194213571" lon="9.01656594579785"><ele>55.2</ele><time>2026-04-06T21:03:28.999Z</time></trkpt><trkpt lat="33.44574900582661" lon="9.01655452931256"><ele>55.0</ele><time>2026-04-06T21:03:29.999Z</time></trkpt><trkpt lat="33.44564611463672" lon="9.016539703766353"><ele>55.0</ele><time>2026-04-06T21:03:30.999Z</time></trkpt><trkpt lat="33.44554325061766" lon="9.016521663161924"><ele>55.0</ele><time>2026-04-06T21:03:31.999Z</time></trkpt><trkpt lat="33.44544203123699" lon="9.016495980739515"><ele>55.0</ele><time>2026-04-06T21:03:32.999Z</time></trkpt><trkpt lat="33.44534068323939" lon="9.016461170685364"><ele>55.0</ele><time>2026-04-06T21:03:33.999Z</time></trkpt><trkpt lat="33.44523825586203" lon="9.01642455621573"><ele>55.0</ele><time>2026-04-06T21:03:34.999Z</time></trkpt><trkpt lat="33.44513734046102" lon="9.01638683436705"><ele>54.8</ele><time>2026-04-06T21:03:35.999Z</time></trkpt><trkpt lat="33.445036667831836" lon="9.016349969744915"><ele>54.6</ele><time>2026-04-06T21:03:36.999Z</time></trkpt><trkpt lat="33.44493666920671" lon="9.016312897801443"><ele>54.400000000000006</ele><time>2026-04-06T21:03:37.999Z</time></trkpt><trkpt lat="33.44483655590397" lon="9.016274111940394"><ele>54.2</ele><time>2026-04-06T21:03:38.999Z</time></trkpt><trkpt lat="33.44473652870256" lon="9.016236603944128"><ele>54.0</ele><time>2026-04-06T21:03:39.999Z</time></trkpt><trkpt lat="33.44463742877639" lon="9.016203121379736"><ele>54.2</ele><time>2026-04-06T21:03:40.999Z</time></trkpt><trkpt lat="33.4445356964867" lon="9.016169785382553"><ele>54.400000000000006</ele><time>2026-04-06T21:03:41.999Z</time></trkpt><trkpt lat="33.44443101608487" lon="9.016134485883418"><ele>54.6</ele><time>2026-04-06T21:03:42.999Z</time></trkpt><trkpt lat="33.44432474120278" lon="9.016099358334378"><ele>54.8</ele><time>2026-04-06T21:03:43.999Z</time></trkpt><trkpt lat="33.44421902511141" lon="9.016063354691468"><ele>55.0</ele><time>2026-04-06T21:03:44.999Z</time></trkpt><trkpt lat="33.44411362833247" lon="9.016029227890053"><ele>55.0</ele><time>2026-04-06T21:03:45.999Z</time></trkpt><trkpt lat="33.444009641815455" lon="9.015994056125308"><ele>55.0</ele><time>2026-04-06T21:03:46.999Z</time></trkpt><trkpt lat="33.44390018989584" lon="9.015956222690981"><ele>55.0</ele><time>2026-04-06T21:03:47.999Z</time></trkpt><trkpt lat="33.44379229154081" lon="9.015920765207923"><ele>55.0</ele><time>2026-04-06T21:03:48.999Z</time></trkpt><trkpt lat="33.44368282979963" lon="9.01588676590927"><ele>55.0</ele><time>2026-04-06T21:03:49.999Z</time></trkpt><trkpt lat="33.44357748011689" lon="9.01585227237769"><ele>55.0</ele><time>2026-04-06T21:03:50.999Z</time></trkpt><trkpt lat="33.443470965653034" lon="9.0158262987612"><ele>55.0</ele><time>2026-04-06T21:03:51.999Z</time></trkpt><trkpt lat="33.44336552042584" lon="9.015801792444602"><ele>55.0</ele><time>2026-04-06T21:03:52.999Z</time></trkpt><trkpt lat="33.4432588117467" lon="9.01577903081441"><ele>55.0</ele><time>2026-04-06T21:03:53.999Z</time></trkpt><trkpt lat="33.44314805867087" lon="9.015756301527416"><ele>55.0</ele><time>2026-04-06T21:03:54.999Z</time></trkpt><trkpt lat="33.44303466415634" lon="9.015732209305622"><ele>55.0</ele><time>2026-04-06T21:03:55.999Z</time></trkpt><trkpt lat="33.442924238448654" lon="9.015711604069455"><ele>55.0</ele><time>2026-04-06T21:03:56.999Z</time></trkpt><trkpt lat="33.44281919520898" lon="9.015691228948759"><ele>55.0</ele><time>2026-04-06T21:03:57.999Z</time></trkpt><trkpt lat="33.44271866676426" lon="9.015670305063136"><ele>55.0</ele><time>2026-04-06T21:03:58.999Z</time></trkpt><trkpt lat="33.442620743726884" lon="9.015650039307832"><ele>55.0</ele><time>2026-04-06T21:03:59.999Z</time></trkpt><trkpt lat="33.44252685908868" lon="9.01563166922386"><ele>54.99999999999999</ele><time>2026-04-06T21:04:00.999Z</time></trkpt><trkpt lat="33.44243931639709" lon="9.015613524341731"><ele>55.0</ele><time>2026-04-06T21:04:01.999Z</time></trkpt><trkpt lat="33.44235818841324" lon="9.015595331157064"><ele>55.0</ele><time>2026-04-06T21:04:02.999Z</time></trkpt><trkpt lat="33.44228271907822" lon="9.015574727405998"><ele>55.0</ele><time>2026-04-06T21:04:03.999Z</time></trkpt><trkpt lat="33.442210102996995" lon="9.015554807595828"><ele>54.99999999999999</ele><time>2026-04-06T21:04:04.999Z</time></trkpt><trkpt lat="33.442133367333305" lon="9.015536025282948"><ele>55.0</ele><time>2026-04-06T21:04:05.999Z</time></trkpt><trkpt lat="33.44205334687169" lon="9.015516496595692"><ele>55.33333333333333</ele><time>2026-04-06T21:04:06.999Z</time></trkpt><trkpt lat="33.44196898444673" lon="9.015496456523547"><ele>55.666666666666664</ele><time>2026-04-06T21:04:07.999Z</time></trkpt><trkpt lat="33.4418790230945" lon="9.015475373888902"><ele>56.0</ele><time>2026-04-06T21:04:08.999Z</time></trkpt><trkpt lat="33.44178975638977" lon="9.01545327529881"><ele>56.33333333333333</ele><time>2026-04-06T21:04:09.999Z</time></trkpt><trkpt lat="33.44170056759376" lon="9.015440146957205"><ele>56.666666666666664</ele><time>2026-04-06T21:04:10.999Z</time></trkpt><trkpt lat="33.441611463426995" lon="9.015424157015254"><ele>57.0</ele><time>2026-04-06T21:04:11.999Z</time></trkpt><trkpt lat="33.44151184473296" lon="9.015409706710726"><ele>57.0</ele><time>2026-04-06T21:04:12.999Z</time></trkpt><trkpt lat="33.44140180589358" lon="9.015389859336388"><ele>57.0</ele><time>2026-04-06T21:04:13.999Z</time></trkpt><trkpt lat="33.44128394171664" lon="9.015367308966045"><ele>57.0</ele><time>2026-04-06T21:04:14.999Z</time></trkpt><trkpt lat="33.44115650937866" lon="9.01534362792921"><ele>57.0</ele><time>2026-04-06T21:04:15.999Z</time></trkpt><trkpt lat="33.441023160822404" lon="9.01532048117117"><ele>57.25</ele><time>2026-04-06T21:04:16.999Z</time></trkpt><trkpt lat="33.440890384475885" lon="9.015301328489016"><ele>57.5</ele><time>2026-04-06T21:04:17.999Z</time></trkpt><trkpt lat="33.44076311098403" lon="9.01528549112489"><ele>57.75</ele><time>2026-04-06T21:04:18.999Z</time></trkpt><trkpt lat="33.44064155811651" lon="9.015272557777493"><ele>58.0</ele><time>2026-04-06T21:04:19.999Z</time></trkpt><trkpt lat="33.440525025148304" lon="9.015261824798163"><ele>57.599999999999994</ele><time>2026-04-06T21:04:20.999Z</time></trkpt><trkpt lat="33.44041167927359" lon="9.01525213501404"><ele>57.199999999999996</ele><time>2026-04-06T21:04:21.999Z</time></trkpt><trkpt lat="33.44030496528895" lon="9.015243748084528"><ele>56.8</ele><time>2026-04-06T21:04:22.999Z</time></trkpt><trkpt lat="33.4402045063657" lon="9.015234394895351"><ele>56.4</ele><time>2026-04-06T21:04:23.999Z</time></trkpt><trkpt lat="33.440114328803205" lon="9.015226271698507"><ele>56.0</ele><time>2026-04-06T21:04:24.999Z</time></trkpt><trkpt lat="33.44003357606243" lon="9.015218394005094"><ele>56.0</ele><time>2026-04-06T21:04:25.999Z</time></trkpt><trkpt lat="33.439961200970046" lon="9.01521121972101"><ele>55.99999999999999</ele><time>2026-04-06T21:04:26.999Z</time></trkpt><trkpt lat="33.43989698671692" lon="9.015205059120627"><ele>55.99999999999999</ele><time>2026-04-06T21:04:27.999Z</time></trkpt><trkpt lat="33.439783683994655" lon="9.01519616383375"><ele>56.0</ele><time>2026-04-06T21:04:29.999Z</time></trkpt><trkpt lat="33.439694629456866" lon="9.015232781320105"><ele>56.0</ele><time>2026-04-06T21:04:31.999Z</time></trkpt><trkpt lat="33.439626290856" lon="9.01533744795813"><ele>55.833333333333336</ele><time>2026-04-06T21:04:33.999Z</time></trkpt><trkpt lat="33.439579654429814" lon="9.015403111634376"><ele>55.66666666666667</ele><time>2026-04-06T21:04:34.999Z</time></trkpt><trkpt lat="33.43951364089584" lon="9.015465179209473"><ele>55.5</ele><time>2026-04-06T21:04:35.999Z</time></trkpt><trkpt lat="33.43943260274165" lon="9.015521342800065"><ele>55.33333333333333</ele><time>2026-04-06T21:04:36.999Z</time></trkpt><trkpt lat="33.43935251373054" lon="9.015564752589036"><ele>55.166666666666664</ele><time>2026-04-06T21:04:37.999Z</time></trkpt><trkpt lat="33.439265801509364" lon="9.015607574332165"><ele>55.0</ele><time>2026-04-06T21:04:38.999Z</time></trkpt><trkpt lat="33.43917327063173" lon="9.01565571671034"><ele>55.0</ele><time>2026-04-06T21:04:39.999Z</time></trkpt><trkpt lat="33.439079703308956" lon="9.015704909090163"><ele>55.0</ele><time>2026-04-06T21:04:40.999Z</time></trkpt><trkpt lat="33.43898398333931" lon="9.01575738949352"><ele>55.0</ele><time>2026-04-06T21:04:41.999Z</time></trkpt><trkpt lat="33.438889478219274" lon="9.015809753974874"><ele>55.0</ele><time>2026-04-06T21:04:42.999Z</time></trkpt><trkpt lat="33.43879528697525" lon="9.015860636831547"><ele>55.0</ele><time>2026-04-06T21:04:43.999Z</time></trkpt><trkpt lat="33.43869846999513" lon="9.01591217365686"><ele>54.8</ele><time>2026-04-06T21:04:44.999Z</time></trkpt><trkpt lat="33.43859958186603" lon="9.015962946583638"><ele>54.6</ele><time>2026-04-06T21:04:45.999Z</time></trkpt><trkpt lat="33.43849897990306" lon="9.016015423357402"><ele>54.400000000000006</ele><time>2026-04-06T21:04:46.999Z</time></trkpt><trkpt lat="33.43840046722191" lon="9.016064871129775"><ele>54.2</ele><time>2026-04-06T21:04:47.999Z</time></trkpt><trkpt lat="33.438301658993936" lon="9.016113203072546"><ele>54.0</ele><time>2026-04-06T21:04:48.999Z</time></trkpt><trkpt lat="33.43820244797676" lon="9.016162715884885"><ele>54.0</ele><time>2026-04-06T21:04:49.999Z</time></trkpt><trkpt lat="33.438104503045764" lon="9.016210872352113"><ele>54.00000000000001</ele><time>2026-04-06T21:04:50.999Z</time></trkpt><trkpt lat="33.43800677933302" lon="9.016262283327837"><ele>54.00000000000001</ele><time>2026-04-06T21:04:51.999Z</time></trkpt><trkpt lat="33.43791311649979" lon="9.016313908554096"><ele>54.0</ele><time>2026-04-06T21:04:52.999Z</time></trkpt><trkpt lat="33.437820358572445" lon="9.016362438737959"><ele>54.0</ele><time>2026-04-06T21:04:53.999Z</time></trkpt><trkpt lat="33.437727672947155" lon="9.016410659626244"><ele>54.400000000000006</ele><time>2026-04-06T21:04:54.999Z</time></trkpt><trkpt lat="33.43763396146003" lon="9.016460112986046"><ele>54.800000000000004</ele><time>2026-04-06T21:04:55.999Z</time></trkpt><trkpt lat="33.437540586808645" lon="9.016507843834946"><ele>55.199999999999996</ele><time>2026-04-06T21:04:56.999Z</time></trkpt><trkpt lat="33.43744880794651" lon="9.016555536713385"><ele>55.599999999999994</ele><time>2026-04-06T21:04:57.999Z</time></trkpt><trkpt lat="33.43736083798327" lon="9.0166023454198"><ele>56.0</ele><time>2026-04-06T21:04:58.999Z</time></trkpt><trkpt lat="33.43727129470479" lon="9.016649431098127"><ele>56.199999999999996</ele><time>2026-04-06T21:04:59.999Z</time></trkpt><trkpt lat="33.43718157977973" lon="9.016696298776624"><ele>56.39999999999999</ele><time>2026-04-06T21:05:00.999Z</time></trkpt><trkpt lat="33.437094487375155" lon="9.016741788966046"><ele>56.6</ele><time>2026-04-06T21:05:01.999Z</time></trkpt><trkpt lat="33.43701038048578" lon="9.016786136076291"><ele>56.8</ele><time>2026-04-06T21:05:02.999Z</time></trkpt><trkpt lat="33.436932089419884" lon="9.016827621254908"><ele>57.0</ele><time>2026-04-06T21:05:03.999Z</time></trkpt><trkpt lat="33.43685815133106" lon="9.016867116834955"><ele>57.333333333333336</ele><time>2026-04-06T21:05:04.999Z</time></trkpt><trkpt lat="33.43678664925012" lon="9.016904612467632"><ele>57.66666666666667</ele><time>2026-04-06T21:05:05.999Z</time></trkpt><trkpt lat="33.43671951059688" lon="9.016941731396406"><ele>58.0</ele><time>2026-04-06T21:05:06.999Z</time></trkpt><trkpt lat="33.43665205168312" lon="9.01697803815722"><ele>58.333333333333336</ele><time>2026-04-06T21:05:07.999Z</time></trkpt><trkpt lat="33.43658669128604" lon="9.017013348446312"><ele>58.66666666666667</ele><time>2026-04-06T21:05:08.999Z</time></trkpt><trkpt lat="33.436515982982954" lon="9.017051730274655"><ele>59.0</ele><time>2026-04-06T21:05:09.999Z</time></trkpt><trkpt lat="33.436436271620714" lon="9.017093223586572"><ele>59.0</ele><time>2026-04-06T21:05:10.999Z</time></trkpt><trkpt lat="33.436351834462236" lon="9.017136349472626"><ele>59.00000000000001</ele><time>2026-04-06T21:05:11.999Z</time></trkpt><trkpt lat="33.43626508460764" lon="9.017179478077502"><ele>59.00000000000001</ele><time>2026-04-06T21:05:12.999Z</time></trkpt><trkpt lat="33.43617724371147" lon="9.017225169968741"><ele>59.0</ele><time>2026-04-06T21:05:13.999Z</time></trkpt><trkpt lat="33.436088034559965" lon="9.01727086094449"><ele>59.0</ele><time>2026-04-06T21:05:15Z</time></trkpt><trkpt lat="33.43599863957566" lon="9.017316977763695"><ele>59.00000000000001</ele><time>2026-04-06T21:05:16Z</time></trkpt><trkpt lat="33.435912831460506" lon="9.017361242778328"><ele>59.0</ele><time>2026-04-06T21:05:17Z</time></trkpt><trkpt lat="33.43582814751846" lon="9.017405813211099"><ele>59.0</ele><time>2026-04-06T21:05:18Z</time></trkpt><trkpt lat="33.43574618146343" lon="9.017449913537881"><ele>59.0</ele><time>2026-04-06T21:05:19Z</time></trkpt><trkpt lat="33.435671682181834" lon="9.017490634689253"><ele>59.00000000000001</ele><time>2026-04-06T21:05:20Z</time></trkpt><trkpt lat="33.43560100487854" lon="9.01752887426112"><ele>59.0</ele><time>2026-04-06T21:05:21Z</time></trkpt><trkpt lat="33.43553317349201" lon="9.017565280141453"><ele>59.00000000000001</ele><time>2026-04-06T21:05:22Z</time></trkpt><trkpt lat="33.43546462054612" lon="9.017600909633707"><ele>59.0</ele><time>2026-04-06T21:05:23Z</time></trkpt><trkpt lat="33.43539671137655" lon="9.01763630254417"><ele>59.0</ele><time>2026-04-06T21:05:24Z</time></trkpt><trkpt lat="33.43533236567524" lon="9.017669727829231"><ele>59.0</ele><time>2026-04-06T21:05:25Z</time></trkpt><trkpt lat="33.435271605878036" lon="9.017701369421989"><ele>59.00000000000001</ele><time>2026-04-06T21:05:26Z</time></trkpt><trkpt lat="33.43521361503779" lon="9.017732009909741"><ele>59.0</ele><time>2026-04-06T21:05:27Z</time></trkpt><trkpt lat="33.435107768660515" lon="9.017785264460603"><ele>59.00000000000001</ele><time>2026-04-06T21:05:29Z</time></trkpt><trkpt lat="33.43500994760517" lon="9.017795526954796"><ele>59.0</ele><time>2026-04-06T21:05:31Z</time></trkpt><trkpt lat="33.4349347377226" lon="9.017743805129957"><ele>59.0</ele><time>2026-04-06T21:05:33Z</time></trkpt><trkpt lat="33.43489329142809" lon="9.01766659929276"><ele>59.0</ele><time>2026-04-06T21:05:35Z</time></trkpt><trkpt lat="33.43485125302297" lon="9.01757588467037"><ele>59.00000000000001</ele><time>2026-04-06T21:05:45.999Z</time></trkpt><trkpt lat="33.434812151001886" lon="9.017498985257586"><ele>59.0</ele><time>2026-04-06T21:05:47.999Z</time></trkpt><trkpt lat="33.43476012998685" lon="9.017398391701656"><ele>59.6</ele><time>2026-04-06T21:05:49.999Z</time></trkpt><trkpt lat="33.43469616250762" lon="9.017276481026471"><ele>60.2</ele><time>2026-04-06T21:05:51.999Z</time></trkpt><trkpt lat="33.434629655328195" lon="9.0171478844956"><ele>60.800000000000004</ele><time>2026-04-06T21:05:53.999Z</time></trkpt><trkpt lat="33.434595937300735" lon="9.017084042240676"><ele>61.400000000000006</ele><time>2026-04-06T21:05:54.999Z</time></trkpt><trkpt lat="33.434533282164026" lon="9.016967593795183"><ele>62.0</ele><time>2026-04-06T21:05:56.999Z</time></trkpt><trkpt lat="33.434480064061326" lon="9.016864290890279"><ele>62.00000000000001</ele><time>2026-04-06T21:05:58.999Z</time></trkpt><trkpt lat="33.43447341578293" lon="9.016757023439775"><ele>62.0</ele><time>2026-04-06T21:06:00.999Z</time></trkpt><trkpt lat="33.43449789766633" lon="9.01665727311143"><ele>62.0</ele><time>2026-04-06T21:06:02.999Z</time></trkpt><trkpt lat="33.43452958044414" lon="9.016563113818838"><ele>62.0</ele><time>2026-04-06T21:06:04.999Z</time></trkpt><trkpt lat="33.43458341825443" lon="9.016494310144292"><ele>62.00000000000001</ele><time>2026-04-06T21:06:06.999Z</time></trkpt><trkpt lat="33.43465403932324" lon="9.016457390859824"><ele>62.0</ele><time>2026-04-06T21:06:09.999Z</time></trkpt><trkpt lat="33.434596710989375" lon="9.016493634154529"><ele>62.57142857142858</ele><time>2026-04-06T21:08:37.999Z</time></trkpt><trkpt lat="33.434532814012776" lon="9.016499004797502"><ele>63.14285714285715</ele><time>2026-04-06T21:08:45.999Z</time></trkpt><trkpt lat="33.434459807152265" lon="9.016481949800003"><ele>63.714285714285715</ele><time>2026-04-06T21:08:52.999Z</time></trkpt><trkpt lat="33.43438728616955" lon="9.01648185729267"><ele>64.28571428571429</ele><time>2026-04-06T21:08:59.999Z</time></trkpt><trkpt lat="33.4343284183295" lon="9.01651205634778"><ele>64.85714285714286</ele><time>2026-04-06T21:09:07.999Z</time></trkpt><trkpt lat="33.434275504624935" lon="9.01655735950925"><ele>65.42857142857143</ele><time>2026-04-06T21:09:14.999Z</time></trkpt><trkpt lat="33.43428317901493" lon="9.016477603009974"><ele>66.0</ele><time>2026-04-06T21:09:31Z</time></trkpt><trkpt lat="33.434247207656284" lon="9.016399738151273"><ele>66.0</ele><time>2026-04-06T21:10:02Z</time></trkpt><trkpt lat="33.43420472637153" lon="9.01632709172016"><ele>66.0</ele><time>2026-04-06T21:10:07Z</time></trkpt><trkpt lat="33.43415969791436" lon="9.016256683514786"><ele>66.0</ele><time>2026-04-06T21:10:27.999Z</time></trkpt><trkpt lat="33.43404167300574" lon="9.016312039269396"><ele>66.0</ele><time>2026-04-06T21:10:32.999Z</time></trkpt><trkpt lat="33.43411462397569" lon="9.016314851726463"><ele>66.0</ele><time>2026-04-06T21:11:41.03Z</time></trkpt><trkpt lat="33.43417477972433" lon="9.016368108498297"><ele>66.0</ele><time>2026-04-06T21:11:47.032Z</time></trkpt><trkpt lat="33.434142680467474" lon="9.016437128625055"><ele>66.0</ele><time>2026-04-06T21:11:55.029Z</time></trkpt><trkpt lat="33.43408360146586" lon="9.016297967863593"><ele>66.0</ele><time>2026-04-06T21:11:58.029Z</time></trkpt><trkpt lat="33.43411379470058" lon="9.016466833648353"><ele>66.0</ele><time>2026-04-06T21:12:19Z</time></trkpt><trkpt lat="33.43411560887645" lon="9.016353676524238"><ele>66.0</ele><time>2026-04-06T21:12:58.462Z</time></trkpt><trkpt lat="33.43411799779262" lon="9.016225763679437"><ele>66.0</ele><time>2026-04-06T21:14:24.398Z</time></trkpt><trkpt lat="33.43387894062356" lon="9.016298125349328"><ele>66.0</ele><time>2026-04-06T21:25:22.411Z</time></trkpt><trkpt lat="33.43383574787603" lon="9.016521406268286"><ele>66.0</ele><time>2026-04-06T21:25:28.417Z</time></trkpt><trkpt lat="33.43378452636413" lon="9.016401475921022"><ele>65.39999999999999</ele><time>2026-04-06T21:25:34.995Z</time></trkpt><trkpt lat="33.433751073733184" lon="9.016469465847473"><ele>64.8</ele><time>2026-04-06T21:25:39.995Z</time></trkpt><trkpt lat="33.433760979104754" lon="9.016339874388592"><ele>64.19999999999999</ele><time>2026-04-06T21:26:49Z</time></trkpt><trkpt lat="33.43371302620093" lon="9.016260693503382"><ele>63.599999999999994</ele><time>2026-04-06T21:26:54Z</time></trkpt><trkpt lat="33.43366842784585" lon="9.01617622119388"><ele>63.0</ele><time>2026-04-06T21:26:58Z</time></trkpt><trkpt lat="33.43367740230355" lon="9.016311936445373"><ele>63.0</ele><time>2026-04-06T21:26:59Z</time></trkpt><trkpt lat="33.43361201210408" lon="9.016375392327753"><ele>63.0</ele><time>2026-04-06T21:27:01Z</time></trkpt><trkpt lat="33.433646425363094" lon="9.016298983340162"><ele>63.0</ele><time>2026-04-06T21:27:05Z</time></trkpt><trkpt lat="33.433562844451004" lon="9.016215997426894"><ele>63.0</ele><time>2026-04-06T21:27:09Z</time></trkpt><trkpt lat="33.43350167710003" lon="9.016172544297053"><ele>63.0</ele><time>2026-04-06T21:27:10Z</time></trkpt><trkpt lat="33.43366271100332" lon="9.016291063909664"><ele>63.0</ele><time>2026-04-06T21:27:15Z</time></trkpt><trkpt lat="33.433731219514364" lon="9.016291199087224"><ele>63.0</ele><time>2026-04-06T21:27:16Z</time></trkpt><trkpt lat="33.433790506383986" lon="9.01633035876178"><ele>63.0</ele><time>2026-04-06T21:27:18Z</time></trkpt><trkpt lat="33.43374151246514" lon="9.01649230883362"><ele>63.0</ele><time>2026-04-06T21:27:23Z</time></trkpt><trkpt lat="33.43368759889802" lon="9.016572883918546"><ele>63.0</ele><time>2026-04-06T21:27:25Z</time></trkpt><trkpt lat="33.43366997015211" lon="9.016684598873805"><ele>63.0</ele><time>2026-04-06T21:27:27Z</time></trkpt><trkpt lat="33.43370803543486" lon="9.016544697507127"><ele>63.0</ele><time>2026-04-06T21:27:30Z</time></trkpt><trkpt lat="33.433767955090474" lon="9.016673162302155"><ele>63.0</ele><time>2026-04-06T21:40:44Z</time></trkpt><trkpt lat="33.433703950393905" lon="9.016642704548676"><ele>63.0</ele><time>2026-04-07T06:40:31Z</time></trkpt><trkpt lat="33.433776491820005" lon="9.016675394177831"><ele>63.0</ele><time>2026-04-07T06:58:20Z</time></trkpt><trkpt lat="33.433749403158295" lon="9.016752634901048"><ele>63.0</ele><time>2026-04-07T07:28:49.999Z</time></trkpt><trkpt lat="33.433769760891856" lon="9.016834707442428"><ele>63.0</ele><time>2026-04-07T07:28:50.999Z</time></trkpt><trkpt lat="33.43379753496148" lon="9.016917120171646"><ele>63.0</ele><time>2026-04-07T07:28:52.999Z</time></trkpt><trkpt lat="33.43381855457158" lon="9.017004992067783"><ele>63.0</ele><time>2026-04-07T07:28:54.999Z</time></trkpt><trkpt lat="33.43382374598876" lon="9.016872191965648"><ele>63.0</ele><time>2026-04-07T07:28:55.999Z</time></trkpt><trkpt lat="33.43385280968197" lon="9.016739559902332"><ele>63.0</ele><time>2026-04-07T07:29:19.07Z</time></trkpt><trkpt lat="33.43380496342785" lon="9.016622454885137"><ele>63.0</ele><time>2026-04-07T07:32:23.009Z</time></trkpt><trkpt lat="33.433796956931815" lon="9.016538556356307"><ele>63.0</ele><time>2026-04-07T07:32:27.012Z</time></trkpt><trkpt lat="33.43385288803805" lon="9.016491206300007"><ele>63.0</ele><time>2026-04-07T07:32:30.013Z</time></trkpt><trkpt lat="33.43391742352143" lon="9.016491226717378"><ele>63.0</ele><time>2026-04-07T07:32:35.014Z</time></trkpt><trkpt lat="33.43402744632324" lon="9.016447026172044"><ele>63.0</ele><time>2026-04-07T07:32:52.009Z</time></trkpt><trkpt lat="33.434008568376534" lon="9.01630164777905"><ele>63.0</ele><time>2026-04-07T07:32:55.917Z</time></trkpt><trkpt lat="33.43417523047003" lon="9.016327636067665"><ele>63.599999999999994</ele><time>2026-04-07T07:33:18.015Z</time></trkpt><trkpt lat="33.43428540196091" lon="9.016416404770428"><ele>64.19999999999999</ele><time>2026-04-07T07:33:19.997Z</time></trkpt><trkpt lat="33.43439951148689" lon="9.01646791017519"><ele>64.8</ele><time>2026-04-07T07:33:22.997Z</time></trkpt><trkpt lat="33.43446386265105" lon="9.016497355530415"><ele>65.39999999999999</ele><time>2026-04-07T07:33:27Z</time></trkpt><trkpt lat="33.43452749945322" lon="9.016495622904781"><ele>66.0</ele><time>2026-04-07T07:33:32Z</time></trkpt><trkpt lat="33.434593911317194" lon="9.016504674322485"><ele>66.0</ele><time>2026-04-07T07:33:42Z</time></trkpt><trkpt lat="33.434534745037226" lon="9.016539347821004"><ele>66.0</ele><time>2026-04-07T07:34:08Z</time></trkpt><trkpt lat="33.43446095231054" lon="9.016532252831377"><ele>66.0</ele><time>2026-04-07T07:34:12Z</time></trkpt><trkpt lat="33.434387452271295" lon="9.016501075042914"><ele>66.0</ele><time>2026-04-07T07:34:17Z</time></trkpt><trkpt lat="33.434314364024736" lon="9.0165251197718"><ele>66.0</ele><time>2026-04-07T07:34:32.999Z</time></trkpt><trkpt lat="33.43415109870732" lon="9.016238808369087"><ele>66.0</ele><time>2026-04-07T07:36:01.216Z</time></trkpt><trkpt lat="33.43398056131989" lon="9.016066594552289"><ele>66.0</ele><time>2026-04-07T07:36:49.851Z</time></trkpt><trkpt lat="33.43411099857388" lon="9.01618319187642"><ele>66.0</ele><time>2026-04-07T07:37:35.544Z</time></trkpt><trkpt lat="33.43420096486261" lon="9.016312909516524"><ele>66.0</ele><time>2026-04-07T07:39:33.006Z</time></trkpt><trkpt lat="33.43430586860192" lon="9.01641327616671"><ele>66.0</ele><time>2026-04-07T07:39:34.24Z</time></trkpt><trkpt lat="33.434133784095216" lon="9.016266434188264"><ele>66.0</ele><time>2026-04-07T07:39:58.007Z</time></trkpt><trkpt lat="33.433860499243984" lon="9.015997381225912"><ele>66.0</ele><time>2026-04-07T07:40:04.007Z</time></trkpt><trkpt lat="33.43394523519532" lon="9.016058269358783"><ele>66.0</ele><time>2026-04-07T07:40:10.006Z</time></trkpt><trkpt lat="33.43437359022928" lon="9.016462477722941"><ele>66.0</ele><time>2026-04-07T07:42:19.009Z</time></trkpt><trkpt lat="33.43394553542215" lon="9.016073301932392"><ele>66.0</ele><time>2026-04-07T07:44:18.009Z</time></trkpt><trkpt lat="33.43402180980603" lon="9.016090012519047"><ele>66.0</ele><time>2026-04-07T07:45:13.12Z</time></trkpt><trkpt lat="33.434076670483186" lon="9.01616359081904"><ele>66.0</ele><time>2026-04-07T07:45:19.009Z</time></trkpt><trkpt lat="33.434238218213856" lon="9.016286718792877"><ele>66.0</ele><time>2026-04-07T07:45:25.009Z</time></trkpt><trkpt lat="33.43411126018785" lon="9.016170923319319"><ele>66.0</ele><time>2026-04-07T07:45:52.218Z</time></trkpt><trkpt lat="33.43410883259116" lon="9.016327680439305"><ele>66.0</ele><time>2026-04-07T07:46:02.015Z</time></trkpt><trkpt lat="33.43404339201343" lon="9.016354340796665"><ele>66.0</ele><time>2026-04-07T07:46:06.015Z</time></trkpt><trkpt lat="33.43397997758493" lon="9.016402803655268"><ele>66.0</ele><time>2026-04-07T07:46:08.017Z</time></trkpt><trkpt lat="33.43390813112848" lon="9.016412320074684"><ele>66.0</ele><time>2026-04-07T07:46:10.02Z</time></trkpt><trkpt lat="33.433836170929716" lon="9.01640171960822"><ele>66.0</ele><time>2026-04-07T07:46:18Z</time></trkpt><trkpt lat="33.43376016286481" lon="9.016393998123279"><ele>66.0</ele><time>2026-04-07T07:46:23Z</time></trkpt><trkpt lat="33.433679494574456" lon="9.016420037145432"><ele>66.0</ele><time>2026-04-07T07:46:28Z</time></trkpt><trkpt lat="33.43369913377273" lon="9.016491773183034"><ele>66.0</ele><time>2026-04-07T07:46:35Z</time></trkpt><trkpt lat="33.43376164272475" lon="9.016481994477612"><ele>66.0</ele><time>2026-04-07T07:46:43Z</time></trkpt><trkpt lat="33.43383611918271" lon="9.016559057746223"><ele>66.0</ele><time>2026-04-07T07:46:52Z</time></trkpt><trkpt lat="33.4339161036362" lon="9.016556267479546"><ele>66.0</ele><time>2026-04-07T07:46:56Z</time></trkpt><trkpt lat="33.43398089664553" lon="9.016545808151026"><ele>66.0</ele><time>2026-04-07T07:46:59.999Z</time></trkpt><trkpt lat="33.43407372723401" lon="9.016501621081384"><ele>66.0</ele><time>2026-04-07T07:47:01.999Z</time></trkpt><trkpt lat="33.43408803360783" lon="9.016419630278847"><ele>66.0</ele><time>2026-04-07T07:47:07.999Z</time></trkpt><trkpt lat="33.43405852972236" lon="9.01630814407179"><ele>66.0</ele><time>2026-04-07T07:47:09.999Z</time></trkpt><trkpt lat="33.43399953273744" lon="9.016206810091699"><ele>66.0</ele><time>2026-04-07T07:47:10.999Z</time></trkpt><trkpt lat="33.433936990650686" lon="9.016126976271252"><ele>66.0</ele><time>2026-04-07T07:47:11.999Z</time></trkpt><trkpt lat="33.433918071418496" lon="9.01624861788651"><ele>66.0</ele><time>2026-04-07T07:47:15.066Z</time></trkpt><trkpt lat="33.43386679477956" lon="9.016325710375712"><ele>66.0</ele><time>2026-04-07T07:47:18.066Z</time></trkpt><trkpt lat="33.43377493866816" lon="9.0163664610468"><ele>66.0</ele><time>2026-04-07T07:47:19.071Z</time></trkpt><trkpt lat="33.433672403933734" lon="9.016405661871715"><ele>66.0</ele><time>2026-04-07T07:47:20.032Z</time></trkpt><trkpt lat="33.433561204539494" lon="9.016480113129358"><ele>65.39999999999999</ele><time>2026-04-07T07:47:21.019Z</time></trkpt><trkpt lat="33.43348107134734" lon="9.016477828889418"><ele>64.8</ele><time>2026-04-07T07:47:22.021Z</time></trkpt><trkpt lat="33.43337047770631" lon="9.016513009614357"><ele>64.19999999999999</ele><time>2026-04-07T07:47:24.018Z</time></trkpt><trkpt lat="33.43327206480078" lon="9.016562895270019"><ele>63.599999999999994</ele><time>2026-04-07T07:47:26.015Z</time></trkpt><trkpt lat="33.43318091696382" lon="9.016621160267434"><ele>63.0</ele><time>2026-04-07T07:47:28.017Z</time></trkpt><trkpt lat="33.43313544584351" lon="9.016682914866761"><ele>63.0</ele><time>2026-04-07T07:47:30.012Z</time></trkpt><trkpt lat="33.43356070572403" lon="9.016732994813411"><ele>63.0</ele><time>2026-04-07T07:47:42.016Z</time></trkpt><trkpt lat="33.433787098053784" lon="9.0166596644065"><ele>63.0</ele><time>2026-04-07T07:47:45.014Z</time></trkpt><trkpt lat="33.43343908435571" lon="9.016888421629526"><ele>63.0</ele><time>2026-04-07T07:54:38.011Z</time></trkpt><trkpt lat="33.433310801930986" lon="9.01697785734122"><ele>63.0</ele><time>2026-04-07T07:54:39.012Z</time></trkpt><trkpt lat="33.433373225829186" lon="9.016947763632857"><ele>63.0</ele><time>2026-04-07T07:54:40.011Z</time></trkpt><trkpt lat="33.433408579927196" lon="9.01686097063138"><ele>63.0</ele><time>2026-04-07T07:54:43.011Z</time></trkpt><trkpt lat="33.43346447569164" lon="9.016770531387715"><ele>63.0</ele><time>2026-04-07T07:54:46.011Z</time></trkpt><trkpt lat="33.433567117279" lon="9.016765848933938"><ele>63.0</ele><time>2026-04-07T07:54:51.011Z</time></trkpt><trkpt lat="33.43353619678456" lon="9.01669286187949"><ele>63.0</ele><time>2026-04-07T07:54:54.01Z</time></trkpt><trkpt lat="33.43354752008906" lon="9.016602177966346"><ele>63.0</ele><time>2026-04-07T07:54:57.012Z</time></trkpt><trkpt lat="33.43353285345766" lon="9.016510209017312"><ele>63.0</ele><time>2026-04-07T07:54:59.011Z</time></trkpt><trkpt lat="33.433686595934645" lon="9.016600064213804"><ele>63.0</ele><time>2026-04-07T07:55:07.013Z</time></trkpt><trkpt lat="33.43376173216951" lon="9.016606140741487"><ele>63.0</ele><time>2026-04-07T07:55:59Z</time></trkpt><trkpt lat="33.433861902141125" lon="9.016694103026069"><ele>63.0</ele><time>2026-04-07T07:56:05.999Z</time></trkpt><trkpt lat="33.43391892927932" lon="9.016610622092188"><ele>63.0</ele><time>2026-04-07T07:56:23.999Z</time></trkpt><trkpt lat="33.43385427024666" lon="9.016714928130668"><ele>63.0</ele><time>2026-04-07T07:56:34.999Z</time></trkpt><trkpt lat="33.43381308942916" lon="9.01663284421544"><ele>63.0</ele><time>2026-04-07T07:56:38.999Z</time></trkpt><trkpt lat="33.433794611238085" lon="9.016536241152512"><ele>63.0</ele><time>2026-04-07T07:56:40.999Z</time></trkpt><trkpt lat="33.433709555397954" lon="9.016578353355742"><ele>63.0</ele><time>2026-04-07T07:56:43.999Z</time></trkpt><trkpt lat="33.43381452845595" lon="9.016548921252255"><ele>64.0</ele><time>2026-04-07T07:57:20.073Z</time></trkpt><trkpt lat="33.43409691909293" lon="9.016357983131376"><ele>65.0</ele><time>2026-04-07T07:57:21.359Z</time></trkpt><trkpt lat="33.43403088234627" lon="9.016357902089567"><ele>66.0</ele><time>2026-04-07T07:57:33.035Z</time></trkpt><trkpt lat="33.4338830911338" lon="9.016485525790618"><ele>66.0</ele><time>2026-04-07T07:57:34.999Z</time></trkpt><trkpt lat="33.434102933583226" lon="9.016430620012164"><ele>66.0</ele><time>2026-04-07T07:57:37.999Z</time></trkpt><trkpt lat="33.434342046838076" lon="9.01652651445252"><ele>66.0</ele><time>2026-04-07T07:57:41Z</time></trkpt><trkpt lat="33.43426109970598" lon="9.016542825831689"><ele>66.0</ele><time>2026-04-07T08:06:34.999Z</time></trkpt><trkpt lat="33.43420638337823" lon="9.016583782762009"><ele>66.0</ele><time>2026-04-07T08:06:36.999Z</time></trkpt><trkpt lat="33.43414219922903" lon="9.016663566409495"><ele>66.0</ele><time>2026-04-07T08:06:37.999Z</time></trkpt><trkpt lat="33.43414492417992" lon="9.016781329175826"><ele>66.0</ele><time>2026-04-07T08:06:39.999Z</time></trkpt><trkpt lat="33.43423411715002" lon="9.016848285124361"><ele>66.0</ele><time>2026-04-07T08:06:41.999Z</time></trkpt><trkpt lat="33.43432221088354" lon="9.016870323300132"><ele>65.85714285714286</ele><time>2026-04-07T08:06:43.999Z</time></trkpt><trkpt lat="33.43439766780243" lon="9.016862278941874"><ele>65.71428571428572</ele><time>2026-04-07T08:06:45.999Z</time></trkpt><trkpt lat="33.43444015338765" lon="9.016932883198344"><ele>65.57142857142858</ele><time>2026-04-07T08:06:47.999Z</time></trkpt><trkpt lat="33.434472417090284" lon="9.017028183192544"><ele>65.42857142857143</ele><time>2026-04-07T08:06:50.999Z</time></trkpt><trkpt lat="33.43450999984146" lon="9.017091199457157"><ele>65.28571428571429</ele><time>2026-04-07T08:06:53.999Z</time></trkpt><trkpt lat="33.434544575880274" lon="9.017160767837824"><ele>65.14285714285715</ele><time>2026-04-07T08:06:57.999Z</time></trkpt><trkpt lat="33.434592177579" lon="9.017240629887047"><ele>65.0</ele><time>2026-04-07T08:07:01.999Z</time></trkpt><trkpt lat="33.43463480094173" lon="9.017335258729087"><ele>64.5</ele><time>2026-04-07T08:07:04.999Z</time></trkpt><trkpt lat="33.43467933780641" lon="9.01742360670065"><ele>64.0</ele><time>2026-04-07T08:07:07.999Z</time></trkpt><trkpt lat="33.43472008394794" lon="9.01751201687123"><ele>63.5</ele><time>2026-04-07T08:07:10.999Z</time></trkpt><trkpt lat="33.434762805318506" lon="9.017587208885216"><ele>63.0</ele><time>2026-04-07T08:07:13.999Z</time></trkpt><trkpt lat="33.434817738754816" lon="9.017664207700737"><ele>62.50000000000001</ele><time>2026-04-07T08:07:16.999Z</time></trkpt><trkpt lat="33.434849160974075" lon="9.01773112094893"><ele>62.0</ele><time>2026-04-07T08:07:18.999Z</time></trkpt><trkpt lat="33.43485524284503" lon="9.017823640004584"><ele>62.00000000000001</ele><time>2026-04-07T08:07:20.999Z</time></trkpt><trkpt lat="33.434813278862855" lon="9.017910675733557"><ele>62.0</ele><time>2026-04-07T08:07:22.999Z</time></trkpt><trkpt lat="33.43475852032687" lon="9.017967312752232"><ele>62.0</ele><time>2026-04-07T08:07:24.999Z</time></trkpt><trkpt lat="33.434687681099255" lon="9.018000158374754"><ele>62.0</ele><time>2026-04-07T08:07:26.999Z</time></trkpt><trkpt lat="33.43462470208956" lon="9.018018262068036"><ele>62.00000000000001</ele><time>2026-04-07T08:07:28.999Z</time></trkpt><trkpt lat="33.43456105137513" lon="9.018048107666203"><ele>62.0</ele><time>2026-04-07T08:07:30.999Z</time></trkpt><trkpt lat="33.434476763270304" lon="9.018083430505376"><ele>62.0</ele><time>2026-04-07T08:07:33.999Z</time></trkpt><trkpt lat="33.43439880629941" lon="9.018088731600736"><ele>62.0</ele><time>2026-04-07T08:07:35.999Z</time></trkpt><trkpt lat="33.434321534963665" lon="9.018116596686248"><ele>62.0</ele><time>2026-04-07T08:07:37.999Z</time></trkpt><trkpt lat="33.43426577888819" lon="9.018181981357026"><ele>62.0</ele><time>2026-04-07T08:07:39.999Z</time></trkpt><trkpt lat="33.43428094652231" lon="9.018296886930989"><ele>62.0</ele><time>2026-04-07T08:07:41.999Z</time></trkpt><trkpt lat="33.434339990378646" lon="9.018427543448226"><ele>62.0</ele><time>2026-04-07T08:07:43.999Z</time></trkpt><trkpt lat="33.43437094917566" lon="9.018498130106614"><ele>62.00000000000001</ele><time>2026-04-07T08:07:44.999Z</time></trkpt><trkpt lat="33.4343937505416" lon="9.018570970318095"><ele>62.0</ele><time>2026-04-07T08:07:45.999Z</time></trkpt><trkpt lat="33.43441265211309" lon="9.018648205906015"><ele>62.0</ele><time>2026-04-07T08:07:46.999Z</time></trkpt><trkpt lat="33.43442863949238" lon="9.018725432836245"><ele>62.00000000000001</ele><time>2026-04-07T08:07:47.999Z</time></trkpt><trkpt lat="33.43444662423622" lon="9.018803368821537"><ele>62.0</ele><time>2026-04-07T08:07:48.999Z</time></trkpt><trkpt lat="33.43446425316104" lon="9.018883230479897"><ele>62.0</ele><time>2026-04-07T08:07:49.999Z</time></trkpt><trkpt lat="33.434480494094984" lon="9.018961466043837"><ele>62.0</ele><time>2026-04-07T08:07:50.999Z</time></trkpt><trkpt lat="33.43449535429728" lon="9.019041647280757"><ele>62.00000000000001</ele><time>2026-04-07T08:07:51.999Z</time></trkpt><trkpt lat="33.43451184614783" lon="9.019121929978033"><ele>62.0</ele><time>2026-04-07T08:07:52.999Z</time></trkpt><trkpt lat="33.43452536880645" lon="9.019205526566"><ele>62.0</ele><time>2026-04-07T08:07:53.999Z</time></trkpt><trkpt lat="33.434534761691744" lon="9.019289407745337"><ele>62.00000000000001</ele><time>2026-04-07T08:07:54.999Z</time></trkpt><trkpt lat="33.43454393904431" lon="9.019378072563075"><ele>62.0</ele><time>2026-04-07T08:07:55.999Z</time></trkpt><trkpt lat="33.4345525125678" lon="9.01946483752985"><ele>62.0</ele><time>2026-04-07T08:07:56.999Z</time></trkpt><trkpt lat="33.43456357965926" lon="9.01955511867102"><ele>62.00000000000001</ele><time>2026-04-07T08:07:57.999Z</time></trkpt><trkpt lat="33.434573911306" lon="9.01964527265259"><ele>62.0</ele><time>2026-04-07T08:07:58.999Z</time></trkpt><trkpt lat="33.43458047333344" lon="9.019737442197412"><ele>62.0</ele><time>2026-04-07T08:07:59.999Z</time></trkpt><trkpt lat="33.434581243970186" lon="9.019830836853561"><ele>62.0</ele><time>2026-04-07T08:08:00.999Z</time></trkpt><trkpt lat="33.43458521376348" lon="9.019916670373808"><ele>62.00000000000001</ele><time>2026-04-07T08:08:01.999Z</time></trkpt><trkpt lat="33.434589185278135" lon="9.020005646678603"><ele>62.0</ele><time>2026-04-07T08:08:02.999Z</time></trkpt><trkpt lat="33.434590865057395" lon="9.020092566938184"><ele>62.0</ele><time>2026-04-07T08:08:03.999Z</time></trkpt><trkpt lat="33.434591087861676" lon="9.020186593507166"><ele>62.0</ele><time>2026-04-07T08:08:04.999Z</time></trkpt><trkpt lat="33.434590123634564" lon="9.02029448582489"><ele>62.0</ele><time>2026-04-07T08:08:05.999Z</time></trkpt><trkpt lat="33.434588159064525" lon="9.02042806754089"><ele>62.0</ele><time>2026-04-07T08:08:06.999Z</time></trkpt><trkpt lat="33.43457414406815" lon="9.020626567879301"><ele>62.0</ele><time>2026-04-07T08:08:07.999Z</time></trkpt><trkpt lat="33.43452827747083" lon="9.020886192700875"><ele>62.0</ele><time>2026-04-07T08:08:09Z</time></trkpt><trkpt lat="33.434459373283374" lon="9.02117096754055"><ele>62.0</ele><time>2026-04-07T08:08:10Z</time></trkpt><trkpt lat="33.43438134567081" lon="9.021423996266302"><ele>62.0</ele><time>2026-04-07T08:08:11Z</time></trkpt><trkpt lat="33.43431015459839" lon="9.021616086990134"><ele>62.0</ele><time>2026-04-07T08:08:12Z</time></trkpt><trkpt lat="33.43424091006306" lon="9.021787097057961"><ele>62.0</ele><time>2026-04-07T08:08:13Z</time></trkpt><trkpt lat="33.43416741316525" lon="9.021944425024907"><ele>62.0</ele><time>2026-04-07T08:08:14Z</time></trkpt><trkpt lat="33.43409261419173" lon="9.022081777246994"><ele>62.0</ele><time>2026-04-07T08:08:15Z</time></trkpt><trkpt lat="33.4340175938709" lon="9.0222051744721"><ele>62.0</ele><time>2026-04-07T08:08:16Z</time></trkpt><trkpt lat="33.43393778948024" lon="9.02231930041764"><ele>62.0</ele><time>2026-04-07T08:08:17Z</time></trkpt><trkpt lat="33.43385344877986" lon="9.022427288379085"><ele>62.25</ele><time>2026-04-07T08:08:18Z</time></trkpt><trkpt lat="33.43377039286138" lon="9.022530871750533"><ele>62.5</ele><time>2026-04-07T08:08:19Z</time></trkpt><trkpt lat="33.43368559256276" lon="9.022632273528446"><ele>62.75</ele><time>2026-04-07T08:08:20Z</time></trkpt><trkpt lat="33.43360127561465" lon="9.02272834308134"><ele>63.0</ele><time>2026-04-07T08:08:21Z</time></trkpt><trkpt lat="33.43351636840448" lon="9.02281924560547"><ele>63.0</ele><time>2026-04-07T08:08:22Z</time></trkpt><trkpt lat="33.43343068748522" lon="9.022905885836288"><ele>63.0</ele><time>2026-04-07T08:08:23Z</time></trkpt><trkpt lat="33.43335184762262" lon="9.022982045496546"><ele>63.0</ele><time>2026-04-07T08:08:24Z</time></trkpt><trkpt lat="33.433282219594595" lon="9.023047943621496"><ele>63.0</ele><time>2026-04-07T08:08:25Z</time></trkpt><trkpt lat="33.43322129967062" lon="9.023109544670762"><ele>63.0</ele><time>2026-04-07T08:08:26Z</time></trkpt><trkpt lat="33.4331623120431" lon="9.023162014657277"><ele>63.0</ele><time>2026-04-07T08:08:27Z</time></trkpt><trkpt lat="33.43310289681098" lon="9.023212745971888"><ele>63.0</ele><time>2026-04-07T08:08:28Z</time></trkpt><trkpt lat="33.43304049818527" lon="9.023267096160026"><ele>63.0</ele><time>2026-04-07T08:08:29Z</time></trkpt><trkpt lat="33.43298203520997" lon="9.023327694023191"><ele>63.0</ele><time>2026-04-07T08:08:30Z</time></trkpt><trkpt lat="33.43293397678652" lon="9.023400122766917"><ele>63.0</ele><time>2026-04-07T08:08:31Z</time></trkpt><trkpt lat="33.43289985107281" lon="9.023486676557964"><ele>63.0</ele><time>2026-04-07T08:08:31.999Z</time></trkpt><trkpt lat="33.43289082398902" lon="9.0235918362398"><ele>62.8</ele><time>2026-04-07T08:08:32.999Z</time></trkpt><trkpt lat="33.432897919088575" lon="9.023698702484344"><ele>62.599999999999994</ele><time>2026-04-07T08:08:33.999Z</time></trkpt><trkpt lat="33.43292979426189" lon="9.02381041781215"><ele>62.400000000000006</ele><time>2026-04-07T08:08:34.999Z</time></trkpt><trkpt lat="33.43296703973473" lon="9.023914583808013"><ele>62.2</ele><time>2026-04-07T08:08:35.999Z</time></trkpt><trkpt lat="33.43300626226184" lon="9.024030484859278"><ele>62.0</ele><time>2026-04-07T08:08:36.999Z</time></trkpt><trkpt lat="33.433041786218844" lon="9.024152441598321"><ele>62.0</ele><time>2026-04-07T08:08:37.999Z</time></trkpt><trkpt lat="33.43307605715386" lon="9.024282512028108"><ele>62.0</ele><time>2026-04-07T08:08:38.999Z</time></trkpt><trkpt lat="33.433112037528254" lon="9.024412264659698"><ele>62.0</ele><time>2026-04-07T08:08:39.999Z</time></trkpt><trkpt lat="33.4331506620416" lon="9.024545833579598"><ele>62.0</ele><time>2026-04-07T08:08:40.999Z</time></trkpt><trkpt lat="33.43319045885931" lon="9.024679051695731"><ele>62.0</ele><time>2026-04-07T08:08:41.999Z</time></trkpt><trkpt lat="33.433229830919785" lon="9.024813313004987"><ele>62.0</ele><time>2026-04-07T08:08:42.999Z</time></trkpt><trkpt lat="33.43326603620407" lon="9.024948457478429"><ele>62.0</ele><time>2026-04-07T08:08:43.999Z</time></trkpt><trkpt lat="33.433305084558135" lon="9.02507987776678"><ele>62.0</ele><time>2026-04-07T08:08:44.999Z</time></trkpt><trkpt lat="33.43334229249729" lon="9.025209059587302"><ele>62.5</ele><time>2026-04-07T08:08:45.999Z</time></trkpt><trkpt lat="33.43337895304706" lon="9.025340948344397"><ele>63.0</ele><time>2026-04-07T08:08:46.999Z</time></trkpt><trkpt lat="33.43341563242822" lon="9.025468934622747"><ele>63.5</ele><time>2026-04-07T08:08:47.999Z</time></trkpt><trkpt lat="33.4334556921463" lon="9.025593781024229"><ele>64.0</ele><time>2026-04-07T08:08:48.999Z</time></trkpt><trkpt lat="33.43349346868351" lon="9.02572445021513"><ele>64.5</ele><time>2026-04-07T08:08:49.999Z</time></trkpt><trkpt lat="33.43352990928036" lon="9.025858042135102"><ele>65.0</ele><time>2026-04-07T08:08:50.999Z</time></trkpt><trkpt lat="33.43356962798342" lon="9.026000494608082"><ele>65.5</ele><time>2026-04-07T08:08:51.999Z</time></trkpt><trkpt lat="33.433607815903734" lon="9.02614731046283"><ele>66.0</ele><time>2026-04-07T08:08:52.999Z</time></trkpt><trkpt lat="33.43365036127629" lon="9.026300302722754"><ele>66.0</ele><time>2026-04-07T08:08:53.999Z</time></trkpt><trkpt lat="33.43369814449914" lon="9.02646346328689"><ele>66.0</ele><time>2026-04-07T08:08:54.999Z</time></trkpt><trkpt lat="33.433747552248924" lon="9.026631921353951"><ele>66.0</ele><time>2026-04-07T08:08:55.999Z</time></trkpt><trkpt lat="33.43379432970874" lon="9.026802250417033"><ele>66.0</ele><time>2026-04-07T08:08:56.999Z</time></trkpt><trkpt lat="33.43384323304979" lon="9.026978591695025"><ele>66.0</ele><time>2026-04-07T08:08:57.999Z</time></trkpt><trkpt lat="33.433889039706635" lon="9.027155132712323"><ele>66.0</ele><time>2026-04-07T08:08:58.999Z</time></trkpt><trkpt lat="33.4339381184449" lon="9.027330718322176"><ele>66.0</ele><time>2026-04-07T08:08:59.999Z</time></trkpt><trkpt lat="33.433992332845634" lon="9.027502798337986"><ele>66.0</ele><time>2026-04-07T08:09:00.999Z</time></trkpt><trkpt lat="33.43404661816011" lon="9.027675099499948"><ele>66.0</ele><time>2026-04-07T08:09:01.999Z</time></trkpt><trkpt lat="33.434095649791885" lon="9.027846146217165"><ele>66.0</ele><time>2026-04-07T08:09:02.999Z</time></trkpt><trkpt lat="33.434143563655034" lon="9.028013427660314"><ele>66.0</ele><time>2026-04-07T08:09:03.999Z</time></trkpt><trkpt lat="33.434189734066386" lon="9.028179527492886"><ele>66.0</ele><time>2026-04-07T08:09:04.999Z</time></trkpt><trkpt lat="33.43423602450148" lon="9.028339972905826"><ele>66.0</ele><time>2026-04-07T08:09:05.999Z</time></trkpt><trkpt lat="33.43427991715417" lon="9.028498269018826"><ele>66.0</ele><time>2026-04-07T08:09:06.999Z</time></trkpt><trkpt lat="33.43432597003211" lon="9.028654603149947"><ele>66.25</ele><time>2026-04-07T08:09:07.999Z</time></trkpt><trkpt lat="33.43437148459622" lon="9.028807101540531"><ele>66.5</ele><time>2026-04-07T08:09:08.999Z</time></trkpt><trkpt lat="33.43441837932494" lon="9.0289633049874"><ele>66.75</ele><time>2026-04-07T08:09:09.999Z</time></trkpt><trkpt lat="33.43446157789423" lon="9.029116579257495"><ele>67.0</ele><time>2026-04-07T08:09:10.999Z</time></trkpt><trkpt lat="33.43450563688914" lon="9.029268778982614"><ele>67.25</ele><time>2026-04-07T08:09:11.999Z</time></trkpt><trkpt lat="33.43454991765076" lon="9.029418072295133"><ele>67.5</ele><time>2026-04-07T08:09:12.999Z</time></trkpt><trkpt lat="33.434594032328235" lon="9.029566688928305"><ele>67.75</ele><time>2026-04-07T08:09:13.999Z</time></trkpt><trkpt lat="33.4346375704861" lon="9.029713949623359"><ele>68.0</ele><time>2026-04-07T08:09:14.999Z</time></trkpt><trkpt lat="33.43468180565427" lon="9.029862376342574"><ele>68.0</ele><time>2026-04-07T08:09:15.999Z</time></trkpt><trkpt lat="33.434730477247506" lon="9.03001048528333"><ele>68.0</ele><time>2026-04-07T08:09:16.999Z</time></trkpt><trkpt lat="33.434785566993206" lon="9.03015751966971"><ele>68.0</ele><time>2026-04-07T08:09:17.999Z</time></trkpt><trkpt lat="33.43484511151213" lon="9.030302018109058"><ele>68.0</ele><time>2026-04-07T08:09:18.999Z</time></trkpt><trkpt lat="33.43489813926974" lon="9.030449085894801"><ele>68.0</ele><time>2026-04-07T08:09:19.999Z</time></trkpt><trkpt lat="33.43495411505435" lon="9.030594202134782"><ele>68.0</ele><time>2026-04-07T08:09:20.999Z</time></trkpt><trkpt lat="33.43501160414895" lon="9.03074047913348"><ele>68.0</ele><time>2026-04-07T08:09:21.999Z</time></trkpt><trkpt lat="33.43507010614537" lon="9.030887941910594"><ele>68.0</ele><time>2026-04-07T08:09:22.999Z</time></trkpt><trkpt lat="33.435128573164555" lon="9.031032717267964"><ele>67.75</ele><time>2026-04-07T08:09:23.999Z</time></trkpt><trkpt lat="33.43518906397689" lon="9.031178017134344"><ele>67.5</ele><time>2026-04-07T08:09:24.999Z</time></trkpt><trkpt lat="33.43525471752315" lon="9.031318557595474"><ele>67.25</ele><time>2026-04-07T08:09:25.999Z</time></trkpt><trkpt lat="33.43532465665626" lon="9.03145719074914"><ele>67.0</ele><time>2026-04-07T08:09:26.999Z</time></trkpt><trkpt lat="33.4353957738042" lon="9.031593936874332"><ele>67.75</ele><time>2026-04-07T08:09:27.999Z</time></trkpt><trkpt lat="33.43547135956685" lon="9.031729201613475"><ele>68.5</ele><time>2026-04-07T08:09:28.999Z</time></trkpt><trkpt lat="33.43554690192879" lon="9.031862515067067"><ele>69.25</ele><time>2026-04-07T08:09:29.999Z</time></trkpt><trkpt lat="33.43561987050723" lon="9.03199647784738"><ele>70.0</ele><time>2026-04-07T08:09:30.999Z</time></trkpt><trkpt lat="33.435692795633976" lon="9.032132038196552"><ele>70.0</ele><time>2026-04-07T08:09:31.999Z</time></trkpt><trkpt lat="33.43575717791605" lon="9.032256327671442"><ele>70.0</ele><time>2026-04-07T08:09:32.999Z</time></trkpt><trkpt lat="33.43582227202187" lon="9.032370792289997"><ele>70.0</ele><time>2026-04-07T08:09:33.999Z</time></trkpt><trkpt lat="33.435876590775884" lon="9.032471068782426"><ele>70.0</ele><time>2026-04-07T08:09:34.999Z</time></trkpt><trkpt lat="33.43592486462103" lon="9.032554538988942"><ele>70.0</ele><time>2026-04-07T08:09:35.999Z</time></trkpt><trkpt lat="33.435962039614836" lon="9.032630770121491"><ele>69.66666666666666</ele><time>2026-04-07T08:09:36.999Z</time></trkpt><trkpt lat="33.43599534682804" lon="9.032707140171588"><ele>69.33333333333333</ele><time>2026-04-07T08:09:37.999Z</time></trkpt><trkpt lat="33.43603074515021" lon="9.032779652557183"><ele>69.0</ele><time>2026-04-07T08:09:38.999Z</time></trkpt><trkpt lat="33.43608395969867" lon="9.032882746979272"><ele>68.66666666666667</ele><time>2026-04-07T08:09:40.999Z</time></trkpt><trkpt lat="33.43612327479867" lon="9.032979450319056"><ele>68.33333333333334</ele><time>2026-04-07T08:09:42.999Z</time></trkpt><trkpt lat="33.436165985669426" lon="9.033070992218716"><ele>68.0</ele><time>2026-04-07T08:09:44.999Z</time></trkpt><trkpt lat="33.436206744801694" lon="9.033142043419467"><ele>68.0</ele><time>2026-04-07T08:09:46.999Z</time></trkpt><trkpt lat="33.436192578940066" lon="9.033236431867765"><ele>68.0</ele><time>2026-04-07T08:09:54.999Z</time></trkpt><trkpt lat="33.43620783389231" lon="9.033332815672377"><ele>68.0</ele><time>2026-04-07T08:09:56.999Z</time></trkpt><trkpt lat="33.43620593269613" lon="9.033443765379955"><ele>68.0</ele><time>2026-04-07T08:09:59.999Z</time></trkpt><trkpt lat="33.43617347848594" lon="9.0335104400032"><ele>68.0</ele><time>2026-04-07T08:10:02.999Z</time></trkpt><trkpt lat="33.4360829899723" lon="9.033538908280532"><ele>68.0</ele><time>2026-04-07T08:10:05.999Z</time></trkpt><trkpt lat="33.43598876201123" lon="9.033572906367812"><ele>68.16666666666667</ele><time>2026-04-07T08:10:08.999Z</time></trkpt><trkpt lat="33.43589425359112" lon="9.03358817035949"><ele>68.33333333333334</ele><time>2026-04-07T08:10:10.999Z</time></trkpt><trkpt lat="33.43581993560747" lon="9.033624293590638"><ele>68.5</ele><time>2026-04-07T08:10:12.999Z</time></trkpt><trkpt lat="33.435809929663186" lon="9.033707942126348"><ele>68.66666666666667</ele><time>2026-04-07T08:10:14.999Z</time></trkpt><trkpt lat="33.43586319306132" lon="9.03376677602804"><ele>68.83333333333333</ele><time>2026-04-07T08:10:16.999Z</time></trkpt><trkpt lat="33.435940149419906" lon="9.033737081665143"><ele>69.0</ele><time>2026-04-07T08:10:18.999Z</time></trkpt><trkpt lat="33.435991630412964" lon="9.033612630325834"><ele>69.0</ele><time>2026-04-07T08:10:20.999Z</time></trkpt><trkpt lat="33.436068351399605" lon="9.033547266405956"><ele>69.0</ele><time>2026-04-07T08:10:22.999Z</time></trkpt><trkpt lat="33.43614865902323" lon="9.033503492494702"><ele>69.0</ele><time>2026-04-07T08:10:24.999Z</time></trkpt><trkpt lat="33.43621852278097" lon="9.033450848326249"><ele>69.0</ele><time>2026-04-07T08:10:29.999Z</time></trkpt><trkpt lat="33.43627988519921" lon="9.03341273734373"><ele>69.0</ele><time>2026-04-07T08:11:02.999Z</time></trkpt><trkpt lat="33.43625698584337" lon="9.033339916474771"><ele>69.0</ele><time>2026-04-07T08:11:06.999Z</time></trkpt><trkpt lat="33.43626560391472" lon="9.033261760874405"><ele>69.0</ele><time>2026-04-07T08:11:11.999Z</time></trkpt><trkpt lat="33.4361960134172" lon="9.033344339063712"><ele>69.0</ele><time>2026-04-07T08:14:12.999Z</time></trkpt><trkpt lat="33.43619498671292" lon="9.033445124413948"><ele>69.0</ele><time>2026-04-07T08:14:14.999Z</time></trkpt><trkpt lat="33.43626496851475" lon="9.033469401366233"><ele>69.0</ele><time>2026-04-07T08:15:07.999Z</time></trkpt><trkpt lat="33.4363238518606" lon="9.033426970174594"><ele>69.0</ele><time>2026-04-07T08:17:23.998Z</time></trkpt><trkpt lat="33.43638699145588" lon="9.033366617813757"><ele>69.0</ele><time>2026-04-07T08:17:25.998Z</time></trkpt><trkpt lat="33.43650019198402" lon="9.033318566075208"><ele>69.16666666666667</ele><time>2026-04-07T08:17:27.998Z</time></trkpt><trkpt lat="33.43657005893907" lon="9.033289869197569"><ele>69.33333333333333</ele><time>2026-04-07T08:17:28.998Z</time></trkpt><trkpt lat="33.43664007033696" lon="9.03325831835584"><ele>69.5</ele><time>2026-04-07T08:17:29.998Z</time></trkpt><trkpt lat="33.436715206537144" lon="9.033223777692227"><ele>69.66666666666666</ele><time>2026-04-07T08:17:30.998Z</time></trkpt><trkpt lat="33.43679214145828" lon="9.033191207989058"><ele>69.83333333333333</ele><time>2026-04-07T08:17:31.998Z</time></trkpt><trkpt lat="33.436870532547765" lon="9.033157233134931"><ele>70.0</ele><time>2026-04-07T08:17:32.998Z</time></trkpt><trkpt lat="33.4369514273435" lon="9.033119942190675"><ele>70.0</ele><time>2026-04-07T08:17:33.998Z</time></trkpt><trkpt lat="33.43703640764663" lon="9.033082000576591"><ele>70.0</ele><time>2026-04-07T08:17:34.998Z</time></trkpt><trkpt lat="33.437124060590136" lon="9.033042310184054"><ele>70.0</ele><time>2026-04-07T08:17:35.998Z</time></trkpt><trkpt lat="33.43720861155337" lon="9.033004786551121"><ele>70.0</ele><time>2026-04-07T08:17:36.998Z</time></trkpt><trkpt lat="33.43729215067901" lon="9.032967025792402"><ele>70.0</ele><time>2026-04-07T08:17:37.998Z</time></trkpt><trkpt lat="33.43737543140952" lon="9.032931788386543"><ele>70.0</ele><time>2026-04-07T08:17:38.998Z</time></trkpt><trkpt lat="33.43746113972213" lon="9.032897326909552"><ele>70.0</ele><time>2026-04-07T08:17:39.998Z</time></trkpt><trkpt lat="33.43754584465054" lon="9.032861279189554"><ele>70.0</ele><time>2026-04-07T08:17:40.998Z</time></trkpt><trkpt lat="33.4376264844628" lon="9.0328223256182"><ele>70.0</ele><time>2026-04-07T08:17:41.998Z</time></trkpt><trkpt lat="33.43770702371194" lon="9.032782277774093"><ele>70.0</ele><time>2026-04-07T08:17:42.998Z</time></trkpt><trkpt lat="33.4377888202493" lon="9.032742265215463"><ele>70.0</ele><time>2026-04-07T08:17:43.998Z</time></trkpt><trkpt lat="33.43787493371888" lon="9.03270161011217"><ele>70.0</ele><time>2026-04-07T08:17:44.998Z</time></trkpt><trkpt lat="33.437964100237444" lon="9.032665341792326"><ele>70.0</ele><time>2026-04-07T08:17:45.998Z</time></trkpt><trkpt lat="33.438051418123834" lon="9.032626863361006"><ele>70.0</ele><time>2026-04-07T08:17:46.998Z</time></trkpt><trkpt lat="33.43813710314485" lon="9.03258898471947"><ele>70.0</ele><time>2026-04-07T08:17:47.998Z</time></trkpt><trkpt lat="33.43822333349816" lon="9.032551997689136"><ele>70.0</ele><time>2026-04-07T08:17:48.998Z</time></trkpt><trkpt lat="33.43831035099738" lon="9.032514324192682"><ele>70.6</ele><time>2026-04-07T08:17:49.998Z</time></trkpt><trkpt lat="33.43839652638236" lon="9.032478849305814"><ele>71.2</ele><time>2026-04-07T08:17:50.998Z</time></trkpt><trkpt lat="33.43848471816762" lon="9.03244479164371"><ele>71.8</ele><time>2026-04-07T08:17:51.998Z</time></trkpt><trkpt lat="33.438572301387396" lon="9.032413535903423"><ele>72.4</ele><time>2026-04-07T08:17:52.998Z</time></trkpt><trkpt lat="33.438661286678695" lon="9.032381032202926"><ele>73.0</ele><time>2026-04-07T08:17:53.998Z</time></trkpt><trkpt lat="33.438749796276575" lon="9.032346052102186"><ele>72.8</ele><time>2026-04-07T08:17:54.998Z</time></trkpt><trkpt lat="33.43883773933523" lon="9.032313149743963"><ele>72.6</ele><time>2026-04-07T08:17:55.998Z</time></trkpt><trkpt lat="33.43892521669164" lon="9.03227810530181"><ele>72.4</ele><time>2026-04-07T08:17:56.998Z</time></trkpt><trkpt lat="33.43901171382019" lon="9.032235361456499"><ele>72.2</ele><time>2026-04-07T08:17:57.998Z</time></trkpt><trkpt lat="33.439093954703466" lon="9.032189335093515"><ele>72.0</ele><time>2026-04-07T08:17:58.998Z</time></trkpt><trkpt lat="33.43918063402915" lon="9.032138830326083"><ele>72.0</ele><time>2026-04-07T08:17:59.998Z</time></trkpt><trkpt lat="33.43926799838" lon="9.032090933336733"><ele>72.0</ele><time>2026-04-07T08:18:00.998Z</time></trkpt><trkpt lat="33.43935527293062" lon="9.032046914391543"><ele>72.0</ele><time>2026-04-07T08:18:01.998Z</time></trkpt><trkpt lat="33.43944036091764" lon="9.032001337239242"><ele>72.0</ele><time>2026-04-07T08:18:02.998Z</time></trkpt><trkpt lat="33.43951856063708" lon="9.03194637928705"><ele>72.0</ele><time>2026-04-07T08:18:03.998Z</time></trkpt><trkpt lat="33.43959573093993" lon="9.031894909742787"><ele>71.8</ele><time>2026-04-07T08:18:04.998Z</time></trkpt><trkpt lat="33.43966784870086" lon="9.031850562432725"><ele>71.6</ele><time>2026-04-07T08:18:05.998Z</time></trkpt><trkpt lat="33.43973672518891" lon="9.031809511067667"><ele>71.39999999999999</ele><time>2026-04-07T08:18:06.998Z</time></trkpt><trkpt lat="33.43981282980445" lon="9.031760254439698"><ele>71.2</ele><time>2026-04-07T08:18:07.998Z</time></trkpt><trkpt lat="33.43991215289554" lon="9.031692551571934"><ele>71.0</ele><time>2026-04-07T08:18:08.998Z</time></trkpt><trkpt lat="33.44003705181445" lon="9.03161605579985"><ele>70.75</ele><time>2026-04-07T08:18:09.998Z</time></trkpt><trkpt lat="33.44015775897358" lon="9.031552616518574"><ele>70.5</ele><time>2026-04-07T08:18:10.998Z</time></trkpt><trkpt lat="33.44026518600758" lon="9.031491858831211"><ele>70.25</ele><time>2026-04-07T08:18:11.998Z</time></trkpt><trkpt lat="33.44036716857062" lon="9.031429229119734"><ele>70.0</ele><time>2026-04-07T08:18:12.998Z</time></trkpt><trkpt lat="33.44046860790723" lon="9.03136898502229"><ele>69.8</ele><time>2026-04-07T08:18:13.998Z</time></trkpt><trkpt lat="33.44056352998274" lon="9.03131243268617"><ele>69.6</ele><time>2026-04-07T08:18:14.998Z</time></trkpt><trkpt lat="33.44065722147134" lon="9.031262212528498"><ele>69.4</ele><time>2026-04-07T08:18:15.998Z</time></trkpt><trkpt lat="33.440748972584736" lon="9.031205739463076"><ele>69.2</ele><time>2026-04-07T08:18:16.998Z</time></trkpt><trkpt lat="33.440836977848875" lon="9.031144452560937"><ele>69.0</ele><time>2026-04-07T08:18:17.998Z</time></trkpt><trkpt lat="33.440926023022925" lon="9.031085559632936"><ele>69.0</ele><time>2026-04-07T08:18:18.998Z</time></trkpt><trkpt lat="33.44101705794043" lon="9.031027443524009"><ele>69.0</ele><time>2026-04-07T08:18:19.998Z</time></trkpt><trkpt lat="33.4411081313558" lon="9.030972695936041"><ele>69.0</ele><time>2026-04-07T08:18:20.998Z</time></trkpt><trkpt lat="33.441197693959815" lon="9.030913186894054"><ele>69.0</ele><time>2026-04-07T08:18:21.998Z</time></trkpt><trkpt lat="33.44128937385216" lon="9.030854657983365"><ele>69.0</ele><time>2026-04-07T08:18:22.998Z</time></trkpt><trkpt lat="33.44138448463466" lon="9.030799521455654"><ele>68.8</ele><time>2026-04-07T08:18:23.998Z</time></trkpt><trkpt lat="33.44147884435703" lon="9.030745455252896"><ele>68.60000000000001</ele><time>2026-04-07T08:18:24.998Z</time></trkpt><trkpt lat="33.441574079428754" lon="9.030689091662575"><ele>68.4</ele><time>2026-04-07T08:18:25.998Z</time></trkpt><trkpt lat="33.44166659687226" lon="9.030628748496502"><ele>68.2</ele><time>2026-04-07T08:18:26.998Z</time></trkpt><trkpt lat="33.441758662535044" lon="9.030566666590486"><ele>68.0</ele><time>2026-04-07T08:18:27.998Z</time></trkpt><trkpt lat="33.44184991882138" lon="9.03050226554517"><ele>68.0</ele><time>2026-04-07T08:18:28.998Z</time></trkpt><trkpt lat="33.44194309618132" lon="9.030442198826245"><ele>68.0</ele><time>2026-04-07T08:18:29.998Z</time></trkpt><trkpt lat="33.442035633752546" lon="9.030379891133082"><ele>68.0</ele><time>2026-04-07T08:18:30.998Z</time></trkpt><trkpt lat="33.442130638538146" lon="9.03031651554345"><ele>68.0</ele><time>2026-04-07T08:18:31.998Z</time></trkpt><trkpt lat="33.442225214690666" lon="9.030256500887733"><ele>68.0</ele><time>2026-04-07T08:18:32.998Z</time></trkpt><trkpt lat="33.44231950088948" lon="9.030194810238202"><ele>67.8</ele><time>2026-04-07T08:18:33.998Z</time></trkpt><trkpt lat="33.442413138834176" lon="9.030132638425055"><ele>67.6</ele><time>2026-04-07T08:18:34.998Z</time></trkpt><trkpt lat="33.44250312223384" lon="9.030070819910232"><ele>67.4</ele><time>2026-04-07T08:18:35.998Z</time></trkpt><trkpt lat="33.44259319036465" lon="9.03001027552678"><ele>67.2</ele><time>2026-04-07T08:18:36.998Z</time></trkpt><trkpt lat="33.442681913068135" lon="9.029945623516163"><ele>67.0</ele><time>2026-04-07T08:18:37.998Z</time></trkpt><trkpt lat="33.44276672374078" lon="9.029875483514157"><ele>67.0</ele><time>2026-04-07T08:18:38.997Z</time></trkpt><trkpt lat="33.44283982542598" lon="9.029794191711403"><ele>67.0</ele><time>2026-04-07T08:18:39.997Z</time></trkpt><trkpt lat="33.442894787816776" lon="9.029694436850477"><ele>67.0</ele><time>2026-04-07T08:18:40.997Z</time></trkpt><trkpt lat="33.44293492202097" lon="9.029584606231763"><ele>67.0</ele><time>2026-04-07T08:18:41.997Z</time></trkpt><trkpt lat="33.44296866923334" lon="9.029472024902164"><ele>67.0</ele><time>2026-04-07T08:18:42.997Z</time></trkpt><trkpt lat="33.44300262355006" lon="9.029357097655804"><ele>67.0</ele><time>2026-04-07T08:18:43.997Z</time></trkpt><trkpt lat="33.44303562867377" lon="9.029241563740511"><ele>67.0</ele><time>2026-04-07T08:18:44.997Z</time></trkpt><trkpt lat="33.443066438065195" lon="9.029123367893279"><ele>67.0</ele><time>2026-04-07T08:18:45.997Z</time></trkpt><trkpt lat="33.44309279774909" lon="9.029006722825619"><ele>67.0</ele><time>2026-04-07T08:18:46.997Z</time></trkpt><trkpt lat="33.44311604948831" lon="9.02888984854918"><ele>67.0</ele><time>2026-04-07T08:18:47.997Z</time></trkpt><trkpt lat="33.44313866879668" lon="9.02877217272602"><ele>67.0</ele><time>2026-04-07T08:18:48.997Z</time></trkpt><trkpt lat="33.4431597776533" lon="9.028655435058946"><ele>67.0</ele><time>2026-04-07T08:18:49.997Z</time></trkpt><trkpt lat="33.44317935824719" lon="9.028546247177674"><ele>67.0</ele><time>2026-04-07T08:18:50.997Z</time></trkpt><trkpt lat="33.443195441591044" lon="9.028445959908694"><ele>67.0</ele><time>2026-04-07T08:18:51.997Z</time></trkpt><trkpt lat="33.443220129068855" lon="9.028347809060532"><ele>67.0</ele><time>2026-04-07T08:18:52.997Z</time></trkpt><trkpt lat="33.443263313043644" lon="9.028253116877996"><ele>67.0</ele><time>2026-04-07T08:18:53.998Z</time></trkpt><trkpt lat="33.44332020615359" lon="9.028172510849034"><ele>67.0</ele><time>2026-04-07T08:18:54.998Z</time></trkpt><trkpt lat="33.44338754486668" lon="9.028101716835362"><ele>67.0</ele><time>2026-04-07T08:18:55.998Z</time></trkpt><trkpt lat="33.44345625034326" lon="9.02803797142997"><ele>67.0</ele><time>2026-04-07T08:18:56.998Z</time></trkpt><trkpt lat="33.44352349165287" lon="9.027973843533054"><ele>67.0</ele><time>2026-04-07T08:18:57.998Z</time></trkpt><trkpt lat="33.44359747028524" lon="9.027907600393577"><ele>67.0</ele><time>2026-04-07T08:18:58.998Z</time></trkpt><trkpt lat="33.44367541496467" lon="9.027842340744728"><ele>67.0</ele><time>2026-04-07T08:18:59.998Z</time></trkpt><trkpt lat="33.44375011344116" lon="9.027775464520118"><ele>67.0</ele><time>2026-04-07T08:19:00.998Z</time></trkpt><trkpt lat="33.44382064891034" lon="9.02770311901361"><ele>67.0</ele><time>2026-04-07T08:19:01.998Z</time></trkpt><trkpt lat="33.44388763380275" lon="9.027633836321138"><ele>67.0</ele><time>2026-04-07T08:19:02.998Z</time></trkpt><trkpt lat="33.4439507308157" lon="9.027573406292046"><ele>67.0</ele><time>2026-04-07T08:19:03.998Z</time></trkpt><trkpt lat="33.44400859562015" lon="9.027520056656845"><ele>67.0</ele><time>2026-04-07T08:19:04.998Z</time></trkpt><trkpt lat="33.44406329140447" lon="9.027470252474398"><ele>67.0</ele><time>2026-04-07T08:19:05.998Z</time></trkpt><trkpt lat="33.44411835114377" lon="9.027413672820197"><ele>67.0</ele><time>2026-04-07T08:19:06.998Z</time></trkpt><trkpt lat="33.44417613191353" lon="9.027360802432396"><ele>67.0</ele><time>2026-04-07T08:19:07.998Z</time></trkpt><trkpt lat="33.44423835824086" lon="9.027304012894168"><ele>67.0</ele><time>2026-04-07T08:19:08.998Z</time></trkpt><trkpt lat="33.44430300366897" lon="9.027240629025087"><ele>67.0</ele><time>2026-04-07T08:19:09.998Z</time></trkpt><trkpt lat="33.44437044992485" lon="9.027174937126624"><ele>67.0</ele><time>2026-04-07T08:19:10.998Z</time></trkpt><trkpt lat="33.44443560748002" lon="9.027108936457076"><ele>67.0</ele><time>2026-04-07T08:19:11.998Z</time></trkpt><trkpt lat="33.444497298832424" lon="9.027047362950324"><ele>67.0</ele><time>2026-04-07T08:19:12.998Z</time></trkpt><trkpt lat="33.44456208115679" lon="9.026986851609609"><ele>67.0</ele><time>2026-04-07T08:19:13.998Z</time></trkpt><trkpt lat="33.444629179933244" lon="9.026925298988965"><ele>67.0</ele><time>2026-04-07T08:19:14.998Z</time></trkpt><trkpt lat="33.44469676374904" lon="9.026864368180664"><ele>67.0</ele><time>2026-04-07T08:19:15.998Z</time></trkpt><trkpt lat="33.444764078081356" lon="9.02680125858298"><ele>67.0</ele><time>2026-04-07T08:19:16.998Z</time></trkpt><trkpt lat="33.44483221326368" lon="9.026738689454676"><ele>67.0</ele><time>2026-04-07T08:19:17.998Z</time></trkpt><trkpt lat="33.44489855610678" lon="9.026676710935293"><ele>67.0</ele><time>2026-04-07T08:19:18.998Z</time></trkpt><trkpt lat="33.444966822781076" lon="9.026613624536349"><ele>67.0</ele><time>2026-04-07T08:19:19.998Z</time></trkpt><trkpt lat="33.44503041959214" lon="9.026554749072774"><ele>67.0</ele><time>2026-04-07T08:19:20.998Z</time></trkpt><trkpt lat="33.44509951303056" lon="9.026492706411652"><ele>67.0</ele><time>2026-04-07T08:19:21.998Z</time></trkpt><trkpt lat="33.44516527828113" lon="9.026433450882813"><ele>67.0</ele><time>2026-04-07T08:19:22.998Z</time></trkpt><trkpt lat="33.44522990491877" lon="9.026369001585412"><ele>67.0</ele><time>2026-04-07T08:19:23.998Z</time></trkpt><trkpt lat="33.445295180693456" lon="9.02630498708712"><ele>67.0</ele><time>2026-04-07T08:19:24.998Z</time></trkpt><trkpt lat="33.445360176894674" lon="9.026241703686859"><ele>67.0</ele><time>2026-04-07T08:19:25.998Z</time></trkpt><trkpt lat="33.44542376775601" lon="9.026174343543264"><ele>67.0</ele><time>2026-04-07T08:19:26.998Z</time></trkpt><trkpt lat="33.445480935588186" lon="9.0261165778223"><ele>67.0</ele><time>2026-04-07T08:19:27.998Z</time></trkpt><trkpt lat="33.44554106467107" lon="9.02606096808497"><ele>67.0</ele><time>2026-04-07T08:19:28.998Z</time></trkpt><trkpt lat="33.44560415201142" lon="9.026004467493006"><ele>66.83333333333333</ele><time>2026-04-07T08:19:29.998Z</time></trkpt><trkpt lat="33.44566645518868" lon="9.025948797669539"><ele>66.66666666666666</ele><time>2026-04-07T08:19:30.998Z</time></trkpt><trkpt lat="33.44573194544896" lon="9.02589105347693"><ele>66.5</ele><time>2026-04-07T08:19:31.998Z</time></trkpt><trkpt lat="33.4457971473585" lon="9.025833365356926"><ele>66.33333333333333</ele><time>2026-04-07T08:19:32.998Z</time></trkpt><trkpt lat="33.44585989974809" lon="9.025772315474322"><ele>66.16666666666667</ele><time>2026-04-07T08:19:33.998Z</time></trkpt><trkpt lat="33.44592538878066" lon="9.025707210818954"><ele>66.0</ele><time>2026-04-07T08:19:34.998Z</time></trkpt><trkpt lat="33.445991307182474" lon="9.025637607061386"><ele>65.83333333333333</ele><time>2026-04-07T08:19:35.998Z</time></trkpt><trkpt lat="33.44606004269535" lon="9.025572710006585"><ele>65.66666666666667</ele><time>2026-04-07T08:19:36.998Z</time></trkpt><trkpt lat="33.446129789250335" lon="9.025509930541055"><ele>65.5</ele><time>2026-04-07T08:19:37.998Z</time></trkpt><trkpt lat="33.44619592841575" lon="9.025446550189276"><ele>65.33333333333334</ele><time>2026-04-07T08:19:38.998Z</time></trkpt><trkpt lat="33.446263646609495" lon="9.02538305235537"><ele>65.16666666666667</ele><time>2026-04-07T08:19:39.998Z</time></trkpt><trkpt lat="33.44633086524955" lon="9.02532012998304"><ele>65.0</ele><time>2026-04-07T08:19:40.998Z</time></trkpt><trkpt lat="33.44639862871648" lon="9.025258515204017"><ele>64.4</ele><time>2026-04-07T08:19:41.998Z</time></trkpt><trkpt lat="33.446465873250915" lon="9.025195664161693"><ele>63.8</ele><time>2026-04-07T08:19:42.998Z</time></trkpt><trkpt lat="33.44653420079915" lon="9.02513050972653"><ele>63.2</ele><time>2026-04-07T08:19:43.998Z</time></trkpt><trkpt lat="33.44660428418585" lon="9.025065112418003"><ele>62.6</ele><time>2026-04-07T08:19:44.998Z</time></trkpt><trkpt lat="33.446683059926364" lon="9.024988738566654"><ele>62.0</ele><time>2026-04-07T08:19:45.998Z</time></trkpt><trkpt lat="33.44676459864177" lon="9.024912753425818"><ele>62.0</ele><time>2026-04-07T08:19:46.998Z</time></trkpt><trkpt lat="33.446846043149456" lon="9.024833116485544"><ele>62.0</ele><time>2026-04-07T08:19:47.998Z</time></trkpt><trkpt lat="33.446933481334796" lon="9.024753924682749"><ele>62.0</ele><time>2026-04-07T08:19:48.998Z</time></trkpt><trkpt lat="33.447021556995" lon="9.024668748658325"><ele>62.0</ele><time>2026-04-07T08:19:49.998Z</time></trkpt><trkpt lat="33.447105381489195" lon="9.024584739178058"><ele>62.0</ele><time>2026-04-07T08:19:50.998Z</time></trkpt><trkpt lat="33.447189215748566" lon="9.024502909152043"><ele>62.0</ele><time>2026-04-07T08:19:51.998Z</time></trkpt><trkpt lat="33.44727088882577" lon="9.024425148314181"><ele>62.0</ele><time>2026-04-07T08:19:52.998Z</time></trkpt><trkpt lat="33.44735501289853" lon="9.024346645303716"><ele>62.0</ele><time>2026-04-07T08:19:53.998Z</time></trkpt><trkpt lat="33.44743726883539" lon="9.02427004484214"><ele>62.0</ele><time>2026-04-07T08:19:54.998Z</time></trkpt><trkpt lat="33.44751956546717" lon="9.024193115936582"><ele>62.0</ele><time>2026-04-07T08:19:55.998Z</time></trkpt><trkpt lat="33.44760118668579" lon="9.024113731871285"><ele>62.0</ele><time>2026-04-07T08:19:56.998Z</time></trkpt><trkpt lat="33.44768505914893" lon="9.02403641666876"><ele>62.0</ele><time>2026-04-07T08:19:57.998Z</time></trkpt><trkpt lat="33.4477686169451" lon="9.023957815152919"><ele>62.0</ele><time>2026-04-07T08:19:58.998Z</time></trkpt><trkpt lat="33.44785235852713" lon="9.023877956829992"><ele>62.0</ele><time>2026-04-07T08:19:59.998Z</time></trkpt><trkpt lat="33.44793624092534" lon="9.023798045291493"><ele>62.0</ele><time>2026-04-07T08:20:00.998Z</time></trkpt><trkpt lat="33.448020775828695" lon="9.023720917674954"><ele>62.400000000000006</ele><time>2026-04-07T08:20:01.998Z</time></trkpt><trkpt lat="33.44810766834732" lon="9.023641837934246"><ele>62.800000000000004</ele><time>2026-04-07T08:20:02.998Z</time></trkpt><trkpt lat="33.44818704154381" lon="9.023568746063686"><ele>63.2</ele><time>2026-04-07T08:20:03.998Z</time></trkpt><trkpt lat="33.448262286993995" lon="9.023501915035556"><ele>63.6</ele><time>2026-04-07T08:20:04.998Z</time></trkpt><trkpt lat="33.44833200766014" lon="9.023437433553893"><ele>64.0</ele><time>2026-04-07T08:20:05.998Z</time></trkpt><trkpt lat="33.448397746183744" lon="9.023377590868238"><ele>63.99999999999999</ele><time>2026-04-07T08:20:06.998Z</time></trkpt><trkpt lat="33.44845844206043" lon="9.023320312245014"><ele>64.0</ele><time>2026-04-07T08:20:07.998Z</time></trkpt><trkpt lat="33.4485211219395" lon="9.023257431881511"><ele>64.0</ele><time>2026-04-07T08:20:08.998Z</time></trkpt><trkpt lat="33.44858907585879" lon="9.023191588815322"><ele>64.0</ele><time>2026-04-07T08:20:09.998Z</time></trkpt><trkpt lat="33.44865642850537" lon="9.02312505106147"><ele>63.99999999999999</ele><time>2026-04-07T08:20:10.998Z</time></trkpt><trkpt lat="33.44872501762302" lon="9.023060505346475"><ele>64.0</ele><time>2026-04-07T08:20:11.998Z</time></trkpt><trkpt lat="33.44879857032355" lon="9.022997895500684"><ele>64.0</ele><time>2026-04-07T08:20:12.998Z</time></trkpt><trkpt lat="33.448874254962156" lon="9.022930834633888"><ele>64.0</ele><time>2026-04-07T08:20:13.998Z</time></trkpt><trkpt lat="33.44895184747245" lon="9.02285558692319"><ele>64.0</ele><time>2026-04-07T08:20:14.998Z</time></trkpt><trkpt lat="33.44902854358434" lon="9.022780386720035"><ele>64.0</ele><time>2026-04-07T08:20:15.998Z</time></trkpt><trkpt lat="33.44910742219063" lon="9.02270129843014"><ele>64.0</ele><time>2026-04-07T08:20:16.998Z</time></trkpt><trkpt lat="33.449189251193715" lon="9.022622606942555"><ele>64.0</ele><time>2026-04-07T08:20:17.998Z</time></trkpt><trkpt lat="33.449273920402646" lon="9.022548238794938"><ele>64.0</ele><time>2026-04-07T08:20:18.998Z</time></trkpt><trkpt lat="33.449360155956775" lon="9.02247261894866"><ele>64.0</ele><time>2026-04-07T08:20:19.998Z</time></trkpt><trkpt lat="33.449443492084036" lon="9.022395839850263"><ele>64.0</ele><time>2026-04-07T08:20:20.998Z</time></trkpt><trkpt lat="33.44952582695434" lon="9.022319503367896"><ele>64.0</ele><time>2026-04-07T08:20:21.998Z</time></trkpt><trkpt lat="33.44960792570548" lon="9.022242815004336"><ele>64.4</ele><time>2026-04-07T08:20:22.998Z</time></trkpt><trkpt lat="33.44969013905543" lon="9.022168260691124"><ele>64.80000000000001</ele><time>2026-04-07T08:20:23.998Z</time></trkpt><trkpt lat="33.44977006239542" lon="9.022092905153036"><ele>65.19999999999999</ele><time>2026-04-07T08:20:24.998Z</time></trkpt><trkpt lat="33.44984803514384" lon="9.022015767875573"><ele>65.6</ele><time>2026-04-07T08:20:25.998Z</time></trkpt><trkpt lat="33.44992494280445" lon="9.021943792805985"><ele>66.0</ele><time>2026-04-07T08:20:26.998Z</time></trkpt><trkpt lat="33.4499987504823" lon="9.02187998848113"><ele>66.0</ele><time>2026-04-07T08:20:27.998Z</time></trkpt><trkpt lat="33.450067885418555" lon="9.021817746017316"><ele>66.0</ele><time>2026-04-07T08:20:28.998Z</time></trkpt><trkpt lat="33.450136373801" lon="9.021756175371621"><ele>66.0</ele><time>2026-04-07T08:20:29.998Z</time></trkpt><trkpt lat="33.450207107639336" lon="9.021692699800663"><ele>66.0</ele><time>2026-04-07T08:20:30.998Z</time></trkpt><trkpt lat="33.45027988177433" lon="9.0216312676575"><ele>66.0</ele><time>2026-04-07T08:20:31.998Z</time></trkpt><trkpt lat="33.450350920755874" lon="9.021563447911761"><ele>66.0</ele><time>2026-04-07T08:20:32.998Z</time></trkpt><trkpt lat="33.45042233138995" lon="9.02149055085742"><ele>66.8</ele><time>2026-04-07T08:20:33.998Z</time></trkpt><trkpt lat="33.45049639110947" lon="9.021424724072302"><ele>67.6</ele><time>2026-04-07T08:20:34.998Z</time></trkpt><trkpt lat="33.45057380796722" lon="9.021352347620866"><ele>68.4</ele><time>2026-04-07T08:20:35.998Z</time></trkpt><trkpt lat="33.45065278227852" lon="9.021280210225772"><ele>69.2</ele><time>2026-04-07T08:20:36.998Z</time></trkpt><trkpt lat="33.4507323885943" lon="9.02120706621531"><ele>70.0</ele><time>2026-04-07T08:20:37.998Z</time></trkpt><trkpt lat="33.4508155800365" lon="9.021135746806282"><ele>70.0</ele><time>2026-04-07T08:20:38.998Z</time></trkpt><trkpt lat="33.45089858434401" lon="9.021066134408423"><ele>70.0</ele><time>2026-04-07T08:20:39.998Z</time></trkpt><trkpt lat="33.45097692267185" lon="9.02100439330369"><ele>70.0</ele><time>2026-04-07T08:20:40.999Z</time></trkpt><trkpt lat="33.45105007161512" lon="9.020946413623706"><ele>70.0</ele><time>2026-04-07T08:20:41.999Z</time></trkpt><trkpt lat="33.45112264480327" lon="9.020892368227434"><ele>70.0</ele><time>2026-04-07T08:20:42.999Z</time></trkpt><trkpt lat="33.451199478241996" lon="9.020850199609699"><ele>70.0</ele><time>2026-04-07T08:20:43.999Z</time></trkpt><trkpt lat="33.45127898478373" lon="9.020817459839849"><ele>70.0</ele><time>2026-04-07T08:20:44.998Z</time></trkpt><trkpt lat="33.4513478590487" lon="9.020792289565298"><ele>70.0</ele><time>2026-04-07T08:20:45.998Z</time></trkpt><trkpt lat="33.451409837351186" lon="9.02076719747026"><ele>70.0</ele><time>2026-04-07T08:20:46.998Z</time></trkpt><trkpt lat="33.45147602563602" lon="9.020742800696194"><ele>70.0</ele><time>2026-04-07T08:20:47.998Z</time></trkpt><trkpt lat="33.451548105402715" lon="9.020716674127744"><ele>70.0</ele><time>2026-04-07T08:20:48.998Z</time></trkpt><trkpt lat="33.45162139057812" lon="9.02069083551722"><ele>70.0</ele><time>2026-04-07T08:20:49.998Z</time></trkpt><trkpt lat="33.45169755016159" lon="9.020656733418257"><ele>70.16666666666666</ele><time>2026-04-07T08:20:50.998Z</time></trkpt><trkpt lat="33.45177681013705" lon="9.02062328857357"><ele>70.33333333333333</ele><time>2026-04-07T08:20:51.998Z</time></trkpt><trkpt lat="33.451857893991175" lon="9.020589497563844"><ele>70.5</ele><time>2026-04-07T08:20:52.998Z</time></trkpt><trkpt lat="33.4519421460929" lon="9.020554908731983"><ele>70.66666666666667</ele><time>2026-04-07T08:20:53.998Z</time></trkpt><trkpt lat="33.45202595068279" lon="9.02051937317581"><ele>70.83333333333334</ele><time>2026-04-07T08:20:54.998Z</time></trkpt><trkpt lat="33.45210930526631" lon="9.020484959980072"><ele>71.0</ele><time>2026-04-07T08:20:55.998Z</time></trkpt><trkpt lat="33.45218499517991" lon="9.020454814961594"><ele>71.66666666666667</ele><time>2026-04-07T08:20:56.998Z</time></trkpt><trkpt lat="33.45225245277646" lon="9.020409628462964"><ele>72.33333333333334</ele><time>2026-04-07T08:20:57.999Z</time></trkpt><trkpt lat="33.45231442504152" lon="9.02037204628979"><ele>73.0</ele><time>2026-04-07T08:20:58.999Z</time></trkpt><trkpt lat="33.45237732759198" lon="9.020353025631229"><ele>73.66666666666667</ele><time>2026-04-07T08:20:59.999Z</time></trkpt><trkpt lat="33.45247844904522" lon="9.02033678855122"><ele>74.33333333333333</ele><time>2026-04-07T08:21:01.999Z</time></trkpt><trkpt lat="33.45255208554646" lon="9.020318420440772"><ele>75.0</ele><time>2026-04-07T08:21:04.999Z</time></trkpt><trkpt lat="33.45263078553373" lon="9.020283607959955"><ele>75.0</ele><time>2026-04-07T08:21:08.999Z</time></trkpt><trkpt lat="33.452696128668634" lon="9.020291311817392"><ele>75.0</ele><time>2026-04-07T08:21:10.999Z</time></trkpt><trkpt lat="33.45275194444275" lon="9.020353275668374"><ele>75.0</ele><time>2026-04-07T08:21:12.999Z</time></trkpt><trkpt lat="33.452804428319126" lon="9.020437892693622"><ele>75.0</ele><time>2026-04-07T08:21:14.999Z</time></trkpt><trkpt lat="33.45285323689338" lon="9.020555751574978"><ele>75.0</ele><time>2026-04-07T08:21:16.999Z</time></trkpt><trkpt lat="33.45289106979347" lon="9.020622360272391"><ele>75.0</ele><time>2026-04-07T08:21:17.999Z</time></trkpt><trkpt lat="33.45292427673178" lon="9.020697801496823"><ele>75.0</ele><time>2026-04-07T08:21:18.999Z</time></trkpt><trkpt lat="33.45295239508359" lon="9.02076695740737"><ele>75.0</ele><time>2026-04-07T08:21:19.999Z</time></trkpt><trkpt lat="33.4530048602048" lon="9.020892930581565"><ele>75.0</ele><time>2026-04-07T08:21:21.999Z</time></trkpt><trkpt lat="33.453038388266236" lon="9.02095943459256"><ele>75.0</ele><time>2026-04-07T08:21:22.999Z</time></trkpt><trkpt lat="33.45309083276252" lon="9.02108591025047"><ele>75.0</ele><time>2026-04-07T08:21:24.999Z</time></trkpt><trkpt lat="33.45314490741133" lon="9.021213688504801"><ele>74.8</ele><time>2026-04-07T08:21:26.999Z</time></trkpt><trkpt lat="33.453189186583955" lon="9.021314953887044"><ele>74.6</ele><time>2026-04-07T08:21:28.999Z</time></trkpt><trkpt lat="33.45324176893579" lon="9.021408469290662"><ele>74.4</ele><time>2026-04-07T08:21:30.999Z</time></trkpt><trkpt lat="33.45333203910382" lon="9.021499258363832"><ele>74.2</ele><time>2026-04-07T08:21:32.999Z</time></trkpt><trkpt lat="33.453414690681555" lon="9.021618595918913"><ele>74.0</ele><time>2026-04-07T08:21:34.999Z</time></trkpt><trkpt lat="33.4534605930131" lon="9.021684671373482"><ele>73.71428571428572</ele><time>2026-04-07T08:21:35.999Z</time></trkpt><trkpt lat="33.45350467238388" lon="9.021749742988803"><ele>73.42857142857143</ele><time>2026-04-07T08:21:36.999Z</time></trkpt><trkpt lat="33.453546540383186" lon="9.02180913083"><ele>73.14285714285714</ele><time>2026-04-07T08:21:37.999Z</time></trkpt><trkpt lat="33.453586784682244" lon="9.021867698716585"><ele>72.85714285714286</ele><time>2026-04-07T08:21:38.999Z</time></trkpt><trkpt lat="33.453630891619916" lon="9.021928006247693"><ele>72.57142857142857</ele><time>2026-04-07T08:21:39.999Z</time></trkpt><trkpt lat="33.45367517623036" lon="9.021992714886007"><ele>72.28571428571429</ele><time>2026-04-07T08:21:40.999Z</time></trkpt><trkpt lat="33.453721055320244" lon="9.022061331878735"><ele>72.0</ele><time>2026-04-07T08:21:41.999Z</time></trkpt><trkpt lat="33.45376539163302" lon="9.022130284134507"><ele>71.83333333333333</ele><time>2026-04-07T08:21:42.999Z</time></trkpt><trkpt lat="33.453807506097355" lon="9.022190557258522"><ele>71.66666666666667</ele><time>2026-04-07T08:21:43.999Z</time></trkpt><trkpt lat="33.45385070043768" lon="9.022250687446261"><ele>71.5</ele><time>2026-04-07T08:21:44.999Z</time></trkpt><trkpt lat="33.453893033696204" lon="9.022310308864913"><ele>71.33333333333334</ele><time>2026-04-07T08:21:45.999Z</time></trkpt><trkpt lat="33.45397922576564" lon="9.022424675833358"><ele>71.16666666666667</ele><time>2026-04-07T08:21:47.999Z</time></trkpt><trkpt lat="33.454019761656056" lon="9.022485059348893"><ele>71.0</ele><time>2026-04-07T08:21:48.999Z</time></trkpt><trkpt lat="33.45406234352971" lon="9.02254908047138"><ele>71.0</ele><time>2026-04-07T08:21:49.999Z</time></trkpt><trkpt lat="33.4541427077099" lon="9.022664587070954"><ele>71.0</ele><time>2026-04-07T08:21:51.999Z</time></trkpt><trkpt lat="33.45418477451067" lon="9.022723505881622"><ele>71.0</ele><time>2026-04-07T08:21:52.999Z</time></trkpt><trkpt lat="33.45422809972581" lon="9.022786004332815"><ele>71.0</ele><time>2026-04-07T08:21:53.999Z</time></trkpt><trkpt lat="33.454274472679266" lon="9.02284648012017"><ele>71.0</ele><time>2026-04-07T08:21:54.999Z</time></trkpt><trkpt lat="33.45432481103061" lon="9.022894394529846"><ele>71.0</ele><time>2026-04-07T08:21:55.999Z</time></trkpt><trkpt lat="33.45439151168272" lon="9.022919102334411"><ele>71.0</ele><time>2026-04-07T08:21:56.999Z</time></trkpt><trkpt lat="33.45446055486076" lon="9.022912823183482"><ele>71.0</ele><time>2026-04-07T08:21:57.999Z</time></trkpt><trkpt lat="33.45458511181695" lon="9.022899367103507"><ele>71.0</ele><time>2026-04-07T08:21:59.999Z</time></trkpt><trkpt lat="33.45469313391777" lon="9.022975012880948"><ele>71.0</ele><time>2026-04-07T08:22:01.999Z</time></trkpt><trkpt lat="33.45480462473013" lon="9.023036151276985"><ele>71.0</ele><time>2026-04-07T08:22:03.999Z</time></trkpt><trkpt lat="33.454887897953014" lon="9.023087675724321"><ele>71.0</ele><time>2026-04-07T08:22:05.999Z</time></trkpt><trkpt lat="33.45494503226357" lon="9.023123209190889"><ele>71.0</ele><time>2026-04-07T08:22:07.999Z</time></trkpt><trkpt lat="33.455021027427705" lon="9.023160153725534"><ele>71.0</ele><time>2026-04-07T08:22:11.999Z</time></trkpt><trkpt lat="33.455102028834496" lon="9.023200748038711"><ele>71.0</ele><time>2026-04-07T08:22:14.999Z</time></trkpt><trkpt lat="33.45519623724138" lon="9.023239274253395"><ele>71.0</ele><time>2026-04-07T08:22:17.999Z</time></trkpt><trkpt lat="33.45527946986882" lon="9.023277359648977"><ele>71.0</ele><time>2026-04-07T08:22:19.999Z</time></trkpt><trkpt lat="33.45537179862944" lon="9.023326045808995"><ele>70.8</ele><time>2026-04-07T08:22:21.999Z</time></trkpt><trkpt lat="33.45547861234088" lon="9.023366820671487"><ele>70.6</ele><time>2026-04-07T08:22:23.999Z</time></trkpt><trkpt lat="33.45559474309921" lon="9.023407612109855"><ele>70.4</ele><time>2026-04-07T08:22:25.999Z</time></trkpt><trkpt lat="33.455658200809715" lon="9.023427406025155"><ele>70.2</ele><time>2026-04-07T08:22:26.999Z</time></trkpt><trkpt lat="33.45571898277974" lon="9.023448770961318"><ele>70.0</ele><time>2026-04-07T08:22:27.999Z</time></trkpt><trkpt lat="33.45583570004778" lon="9.023480951711177"><ele>70.0</ele><time>2026-04-07T08:22:29.999Z</time></trkpt><trkpt lat="33.45592149333802" lon="9.0235124196712"><ele>70.0</ele><time>2026-04-07T08:22:31.999Z</time></trkpt><trkpt lat="33.45600828719681" lon="9.0235394117858"><ele>70.0</ele><time>2026-04-07T08:22:33.999Z</time></trkpt><trkpt lat="33.45610089695996" lon="9.023581735876263"><ele>70.0</ele><time>2026-04-07T08:22:35.999Z</time></trkpt><trkpt lat="33.45619143197997" lon="9.02361647663318"><ele>70.0</ele><time>2026-04-07T08:22:37.999Z</time></trkpt><trkpt lat="33.45628002177795" lon="9.023662382369242"><ele>69.6</ele><time>2026-04-07T08:22:39.999Z</time></trkpt><trkpt lat="33.456366547675856" lon="9.023698934600283"><ele>69.2</ele><time>2026-04-07T08:22:41.999Z</time></trkpt><trkpt lat="33.45644746511525" lon="9.023749809000972"><ele>68.8</ele><time>2026-04-07T08:22:43.999Z</time></trkpt><trkpt lat="33.456527996730664" lon="9.023819416281809"><ele>68.4</ele><time>2026-04-07T08:22:45.999Z</time></trkpt><trkpt lat="33.45662377223211" lon="9.023909262462798"><ele>68.0</ele><time>2026-04-07T08:22:47.999Z</time></trkpt><trkpt lat="33.4566690271982" lon="9.023962698260078"><ele>68.0</ele><time>2026-04-07T08:22:48.999Z</time></trkpt><trkpt lat="33.45673406489536" lon="9.024076519362788"><ele>68.0</ele><time>2026-04-07T08:22:50.999Z</time></trkpt><trkpt lat="33.45676948477612" lon="9.024142357642557"><ele>68.0</ele><time>2026-04-07T08:22:52.999Z</time></trkpt><trkpt lat="33.456819064877294" lon="9.024242595569659"><ele>68.0</ele><time>2026-04-07T08:22:54.999Z</time></trkpt><trkpt lat="33.456855676498456" lon="9.024345050589782"><ele>68.0</ele><time>2026-04-07T08:22:56.999Z</time></trkpt><trkpt lat="33.456874149982504" lon="9.024456827012177"><ele>68.2</ele><time>2026-04-07T08:22:58.999Z</time></trkpt><trkpt lat="33.45691233869421" lon="9.02458607719254"><ele>68.4</ele><time>2026-04-07T08:23:00.999Z</time></trkpt><trkpt lat="33.45694574448328" lon="9.024700242191804"><ele>68.60000000000001</ele><time>2026-04-07T08:23:02.999Z</time></trkpt><trkpt lat="33.45697026029431" lon="9.02480714824015"><ele>68.8</ele><time>2026-04-07T08:23:05Z</time></trkpt><trkpt lat="33.45699770177685" lon="9.0249302009704"><ele>69.0</ele><time>2026-04-07T08:23:07Z</time></trkpt><trkpt lat="33.45702771741009" lon="9.025036400033331"><ele>69.16666666666667</ele><time>2026-04-07T08:23:09Z</time></trkpt><trkpt lat="33.45708436995428" lon="9.02507572403965"><ele>69.33333333333333</ele><time>2026-04-07T08:23:11Z</time></trkpt><trkpt lat="33.45717431147395" lon="9.025067288724477"><ele>69.5</ele><time>2026-04-07T08:23:13Z</time></trkpt><trkpt lat="33.45726488378797" lon="9.025033106671744"><ele>69.66666666666666</ele><time>2026-04-07T08:23:15Z</time></trkpt><trkpt lat="33.457351981675906" lon="9.025009891131312"><ele>69.83333333333333</ele><time>2026-04-07T08:23:17Z</time></trkpt><trkpt lat="33.457431483371785" lon="9.024987601839923"><ele>70.0</ele><time>2026-04-07T08:23:19Z</time></trkpt><trkpt lat="33.457521416182836" lon="9.024970569558182"><ele>70.0</ele><time>2026-04-07T08:23:22Z</time></trkpt><trkpt lat="33.45759397249766" lon="9.024948239323754"><ele>70.0</ele><time>2026-04-07T08:23:24Z</time></trkpt><trkpt lat="33.45767561828951" lon="9.02492958791391"><ele>70.0</ele><time>2026-04-07T08:23:26Z</time></trkpt><trkpt lat="33.4577647486356" lon="9.024927319494893"><ele>70.0</ele><time>2026-04-07T08:23:28Z</time></trkpt><trkpt lat="33.45785652051044" lon="9.024908412279016"><ele>70.0</ele><time>2026-04-07T08:23:30Z</time></trkpt><trkpt lat="33.457952791858695" lon="9.024886654264638"><ele>70.0</ele><time>2026-04-07T08:23:32Z</time></trkpt><trkpt lat="33.45805154716659" lon="9.024871401656801"><ele>70.2</ele><time>2026-04-07T08:23:34Z</time></trkpt><trkpt lat="33.45814917389659" lon="9.024845284484172"><ele>70.4</ele><time>2026-04-07T08:23:36Z</time></trkpt><trkpt lat="33.45825506081762" lon="9.024818903510422"><ele>70.6</ele><time>2026-04-07T08:23:38Z</time></trkpt><trkpt lat="33.4583633116693" lon="9.02479935187632"><ele>70.8</ele><time>2026-04-07T08:23:40Z</time></trkpt><trkpt lat="33.45846933138541" lon="9.024773344888212"><ele>71.0</ele><time>2026-04-07T08:23:42Z</time></trkpt><trkpt lat="33.45857752237109" lon="9.024750916253536"><ele>71.0</ele><time>2026-04-07T08:23:44Z</time></trkpt><trkpt lat="33.45869408267813" lon="9.024731009768782"><ele>71.0</ele><time>2026-04-07T08:23:46Z</time></trkpt><trkpt lat="33.4588181111233" lon="9.0247033390673"><ele>71.0</ele><time>2026-04-07T08:23:48Z</time></trkpt><trkpt lat="33.45888764201958" lon="9.024693320502367"><ele>71.0</ele><time>2026-04-07T08:23:49Z</time></trkpt><trkpt lat="33.45895928980762" lon="9.02468158336492"><ele>71.0</ele><time>2026-04-07T08:23:50Z</time></trkpt><trkpt lat="33.4590318755949" lon="9.024667752773622"><ele>71.16666666666667</ele><time>2026-04-07T08:23:51Z</time></trkpt><trkpt lat="33.45910507558237" lon="9.024649240322235"><ele>71.33333333333334</ele><time>2026-04-07T08:23:52Z</time></trkpt><trkpt lat="33.45918183272098" lon="9.024630598173148"><ele>71.5</ele><time>2026-04-07T08:23:53Z</time></trkpt><trkpt lat="33.45926118433639" lon="9.024615219325987"><ele>71.66666666666667</ele><time>2026-04-07T08:23:54Z</time></trkpt><trkpt lat="33.459343806976555" lon="9.024602476894845"><ele>71.83333333333333</ele><time>2026-04-07T08:23:55Z</time></trkpt><trkpt lat="33.459423469420976" lon="9.024585476914071"><ele>72.0</ele><time>2026-04-07T08:23:56Z</time></trkpt><trkpt lat="33.459505244547415" lon="9.02456731548365"><ele>72.0</ele><time>2026-04-07T08:23:57Z</time></trkpt><trkpt lat="33.45958739831888" lon="9.024546484581268"><ele>72.0</ele><time>2026-04-07T08:23:58Z</time></trkpt><trkpt lat="33.459670881108394" lon="9.024523874853362"><ele>72.0</ele><time>2026-04-07T08:23:59Z</time></trkpt><trkpt lat="33.45975207995805" lon="9.024506210702675"><ele>72.0</ele><time>2026-04-07T08:24:00Z</time></trkpt><trkpt lat="33.45983723769976" lon="9.02449050824723"><ele>72.0</ele><time>2026-04-07T08:24:01Z</time></trkpt><trkpt lat="33.45992670104389" lon="9.024473045404422"><ele>72.0</ele><time>2026-04-07T08:24:02Z</time></trkpt><trkpt lat="33.46001183690105" lon="9.024458407059779"><ele>72.0</ele><time>2026-04-07T08:24:03Z</time></trkpt><trkpt lat="33.46009853129472" lon="9.02444034197546"><ele>72.0</ele><time>2026-04-07T08:24:04Z</time></trkpt><trkpt lat="33.460189508990446" lon="9.02442180236811"><ele>72.0</ele><time>2026-04-07T08:24:05Z</time></trkpt><trkpt lat="33.46029044502907" lon="9.024401461713872"><ele>72.0</ele><time>2026-04-07T08:24:06Z</time></trkpt><trkpt lat="33.460392851048645" lon="9.024377378194027"><ele>72.0</ele><time>2026-04-07T08:24:07Z</time></trkpt><trkpt lat="33.460495236644384" lon="9.024353382221214"><ele>72.0</ele><time>2026-04-07T08:24:08Z</time></trkpt><trkpt lat="33.4605931477817" lon="9.024330160728535"><ele>72.0</ele><time>2026-04-07T08:24:09Z</time></trkpt><trkpt lat="33.460684668692686" lon="9.024307020104239"><ele>72.0</ele><time>2026-04-07T08:24:10Z</time></trkpt><trkpt lat="33.460771359109316" lon="9.024280726119638"><ele>72.0</ele><time>2026-04-07T08:24:11Z</time></trkpt><trkpt lat="33.46085992990513" lon="9.024259023159882"><ele>72.0</ele><time>2026-04-07T08:24:12Z</time></trkpt><trkpt lat="33.4609515495271" lon="9.02423879053699"><ele>72.0</ele><time>2026-04-07T08:24:13Z</time></trkpt><trkpt lat="33.461044339979814" lon="9.024222271127218"><ele>72.0</ele><time>2026-04-07T08:24:14Z</time></trkpt><trkpt lat="33.461141124866366" lon="9.024202724711943"><ele>72.0</ele><time>2026-04-07T08:24:15Z</time></trkpt><trkpt lat="33.46123573345567" lon="9.024176823760806"><ele>72.0</ele><time>2026-04-07T08:24:16Z</time></trkpt><trkpt lat="33.4613304675758" lon="9.024153044542214"><ele>72.0</ele><time>2026-04-07T08:24:17Z</time></trkpt><trkpt lat="33.46141454359423" lon="9.024135781728225"><ele>71.5</ele><time>2026-04-07T08:24:18Z</time></trkpt><trkpt lat="33.461493169773476" lon="9.024117836715558"><ele>71.0</ele><time>2026-04-07T08:24:19Z</time></trkpt><trkpt lat="33.46157389065321" lon="9.024097920426588"><ele>70.5</ele><time>2026-04-07T08:24:20Z</time></trkpt><trkpt lat="33.461659788870925" lon="9.02407923765987"><ele>70.0</ele><time>2026-04-07T08:24:21Z</time></trkpt><trkpt lat="33.46174948277497" lon="9.024062349111995"><ele>69.5</ele><time>2026-04-07T08:24:22Z</time></trkpt><trkpt lat="33.46184121833036" lon="9.024045422245658"><ele>69.0</ele><time>2026-04-07T08:24:23Z</time></trkpt><trkpt lat="33.46193675309605" lon="9.024027744753713"><ele>69.0</ele><time>2026-04-07T08:24:24Z</time></trkpt><trkpt lat="33.462037158091626" lon="9.024009158278488"><ele>69.0</ele><time>2026-04-07T08:24:25Z</time></trkpt><trkpt lat="33.46214784628173" lon="9.02399085660235"><ele>69.0</ele><time>2026-04-07T08:24:26Z</time></trkpt><trkpt lat="33.46226113501373" lon="9.023970970874338"><ele>69.0</ele><time>2026-04-07T08:24:27Z</time></trkpt><trkpt lat="33.46237814354701" lon="9.023954404615607"><ele>69.0</ele><time>2026-04-07T08:24:28Z</time></trkpt><trkpt lat="33.46249362847888" lon="9.023937138936603"><ele>69.0</ele><time>2026-04-07T08:24:29Z</time></trkpt><trkpt lat="33.4626121539663" lon="9.02392225135707"><ele>69.0</ele><time>2026-04-07T08:24:30Z</time></trkpt><trkpt lat="33.46272928011951" lon="9.02390964667618"><ele>69.0</ele><time>2026-04-07T08:24:31Z</time></trkpt><trkpt lat="33.4628451093009" lon="9.02389672923126"><ele>69.0</ele><time>2026-04-07T08:24:32Z</time></trkpt><trkpt lat="33.4629608353946" lon="9.023884035080048"><ele>68.8</ele><time>2026-04-07T08:24:33Z</time></trkpt><trkpt lat="33.463077260614035" lon="9.023871113875533"><ele>68.60000000000001</ele><time>2026-04-07T08:24:34Z</time></trkpt><trkpt lat="33.463196332439665" lon="9.023864157839125"><ele>68.4</ele><time>2026-04-07T08:24:35Z</time></trkpt><trkpt lat="33.463307534884294" lon="9.02385642226622"><ele>68.2</ele><time>2026-04-07T08:24:36Z</time></trkpt><trkpt lat="33.463409105510166" lon="9.023851432877763"><ele>68.0</ele><time>2026-04-07T08:24:37Z</time></trkpt><trkpt lat="33.463504743228555" lon="9.02385134732459"><ele>68.0</ele><time>2026-04-07T08:24:38Z</time></trkpt><trkpt lat="33.463597847142985" lon="9.023848808709541"><ele>68.0</ele><time>2026-04-07T08:24:39Z</time></trkpt><trkpt lat="33.46369445843697" lon="9.023842797244983"><ele>68.0</ele><time>2026-04-07T08:24:40Z</time></trkpt><trkpt lat="33.463793543231105" lon="9.023837075546385"><ele>68.0</ele><time>2026-04-07T08:24:41Z</time></trkpt><trkpt lat="33.46388912541104" lon="9.023828642397065"><ele>68.0</ele><time>2026-04-07T08:24:42Z</time></trkpt><trkpt lat="33.46398670067603" lon="9.023822491377205"><ele>67.83333333333334</ele><time>2026-04-07T08:24:43Z</time></trkpt><trkpt lat="33.464082988686755" lon="9.02381233565864"><ele>67.66666666666667</ele><time>2026-04-07T08:24:44Z</time></trkpt><trkpt lat="33.464178453510364" lon="9.023813010828407"><ele>67.5</ele><time>2026-04-07T08:24:45Z</time></trkpt><trkpt lat="33.46426746648797" lon="9.02380376016818"><ele>67.33333333333333</ele><time>2026-04-07T08:24:46Z</time></trkpt><trkpt lat="33.464347543943894" lon="9.023795186143321"><ele>67.16666666666666</ele><time>2026-04-07T08:24:47Z</time></trkpt><trkpt lat="33.464423968545375" lon="9.023786585114774"><ele>67.0</ele><time>2026-04-07T08:24:48Z</time></trkpt><trkpt lat="33.46449996489685" lon="9.023780385042636"><ele>67.0</ele><time>2026-04-07T08:24:49Z</time></trkpt><trkpt lat="33.4645729093328" lon="9.023775176013874"><ele>67.0</ele><time>2026-04-07T08:24:50Z</time></trkpt><trkpt lat="33.464646211580536" lon="9.02377128537832"><ele>67.0</ele><time>2026-04-07T08:24:51Z</time></trkpt><trkpt lat="33.464725127674136" lon="9.023767024591606"><ele>67.0</ele><time>2026-04-07T08:24:52Z</time></trkpt><trkpt lat="33.464809765750715" lon="9.023766017797577"><ele>67.0</ele><time>2026-04-07T08:24:53Z</time></trkpt><trkpt lat="33.464899836473734" lon="9.023762727212763"><ele>67.0</ele><time>2026-04-07T08:24:54Z</time></trkpt><trkpt lat="33.46498948953685" lon="9.023756690027339"><ele>66.8</ele><time>2026-04-07T08:24:55Z</time></trkpt><trkpt lat="33.465081324972516" lon="9.023751847101467"><ele>66.6</ele><time>2026-04-07T08:24:56Z</time></trkpt><trkpt lat="33.46517430314953" lon="9.023746814600935"><ele>66.39999999999999</ele><time>2026-04-07T08:24:57Z</time></trkpt><trkpt lat="33.46526598503289" lon="9.023737193995537"><ele>66.2</ele><time>2026-04-07T08:24:58Z</time></trkpt><trkpt lat="33.46535831156558" lon="9.023726222866236"><ele>66.0</ele><time>2026-04-07T08:24:59Z</time></trkpt><trkpt lat="33.46545151212748" lon="9.023721344382212"><ele>65.66666666666667</ele><time>2026-04-07T08:25:00Z</time></trkpt><trkpt lat="33.46553868282025" lon="9.02371898064492"><ele>65.33333333333333</ele><time>2026-04-07T08:25:01Z</time></trkpt><trkpt lat="33.46562172961122" lon="9.023718020357881"><ele>65.0</ele><time>2026-04-07T08:25:02Z</time></trkpt><trkpt lat="33.465706385543655" lon="9.02371430472702"><ele>64.66666666666666</ele><time>2026-04-07T08:25:03Z</time></trkpt><trkpt lat="33.46578850834615" lon="9.02371316585131"><ele>64.33333333333333</ele><time>2026-04-07T08:25:04Z</time></trkpt><trkpt lat="33.465870575281144" lon="9.023713057870088"><ele>64.0</ele><time>2026-04-07T08:25:05Z</time></trkpt><trkpt lat="33.465950750726684" lon="9.023714709882594"><ele>63.99999999999999</ele><time>2026-04-07T08:25:06Z</time></trkpt><trkpt lat="33.46603028153653" lon="9.02371471859632"><ele>64.0</ele><time>2026-04-07T08:25:07Z</time></trkpt><trkpt lat="33.46611370752501" lon="9.023709793896026"><ele>64.0</ele><time>2026-04-07T08:25:08Z</time></trkpt><trkpt lat="33.46619528918749" lon="9.023705361500394"><ele>64.0</ele><time>2026-04-07T08:25:09Z</time></trkpt><trkpt lat="33.466277418991645" lon="9.02370329407554"><ele>63.99999999999999</ele><time>2026-04-07T08:25:10Z</time></trkpt><trkpt lat="33.4663603123252" lon="9.023701165090143"><ele>64.0</ele><time>2026-04-07T08:25:11Z</time></trkpt><trkpt lat="33.46644287882054" lon="9.023699139225913"><ele>64.2</ele><time>2026-04-07T08:25:12Z</time></trkpt><trkpt lat="33.46654083905581" lon="9.023694367962921"><ele>64.4</ele><time>2026-04-07T08:25:13Z</time></trkpt><trkpt lat="33.46664483611422" lon="9.023689179859222"><ele>64.6</ele><time>2026-04-07T08:25:14Z</time></trkpt><trkpt lat="33.4667540210508" lon="9.023682520939811"><ele>64.8</ele><time>2026-04-07T08:25:15Z</time></trkpt><trkpt lat="33.4668610954871" lon="9.023673826572914"><ele>65.0</ele><time>2026-04-07T08:25:16Z</time></trkpt><trkpt lat="33.46696793743864" lon="9.02366496852935"><ele>65.0</ele><time>2026-04-07T08:25:17Z</time></trkpt><trkpt lat="33.46707375041808" lon="9.023658237770302"><ele>65.0</ele><time>2026-04-07T08:25:18Z</time></trkpt><trkpt lat="33.467179592878004" lon="9.023651971593264"><ele>65.0</ele><time>2026-04-07T08:25:19Z</time></trkpt><trkpt lat="33.46728519880202" lon="9.02364291917373"><ele>65.0</ele><time>2026-04-07T08:25:20Z</time></trkpt><trkpt lat="33.467390334133796" lon="9.02363236615517"><ele>65.0</ele><time>2026-04-07T08:25:21Z</time></trkpt><trkpt lat="33.46749547709464" lon="9.023621823492824"><ele>65.0</ele><time>2026-04-07T08:25:22Z</time></trkpt><trkpt lat="33.46759857889036" lon="9.023612328463315"><ele>65.0</ele><time>2026-04-07T08:25:23Z</time></trkpt><trkpt lat="33.46770532145192" lon="9.023601365248112"><ele>65.0</ele><time>2026-04-07T08:25:24Z</time></trkpt><trkpt lat="33.46780969298169" lon="9.023588947954392"><ele>65.0</ele><time>2026-04-07T08:25:25Z</time></trkpt><trkpt lat="33.467915031830884" lon="9.023581031729917"><ele>65.0</ele><time>2026-04-07T08:25:26Z</time></trkpt><trkpt lat="33.46801966620342" lon="9.023569281764564"><ele>64.8</ele><time>2026-04-07T08:25:27Z</time></trkpt><trkpt lat="33.468123792423654" lon="9.023553173020776"><ele>64.6</ele><time>2026-04-07T08:25:28Z</time></trkpt><trkpt lat="33.468229039886545" lon="9.023541189324217"><ele>64.4</ele><time>2026-04-07T08:25:29Z</time></trkpt><trkpt lat="33.46833321163066" lon="9.023524140388668"><ele>64.2</ele><time>2026-04-07T08:25:30Z</time></trkpt><trkpt lat="33.46843785579468" lon="9.0235045396338"><ele>64.0</ele><time>2026-04-07T08:25:31Z</time></trkpt><trkpt lat="33.4685421864177" lon="9.023488171165516"><ele>64.0</ele><time>2026-04-07T08:25:32Z</time></trkpt><trkpt lat="33.46864727373231" lon="9.02347304637987"><ele>64.0</ele><time>2026-04-07T08:25:33Z</time></trkpt><trkpt lat="33.46875167485827" lon="9.023453317746547"><ele>64.0</ele><time>2026-04-07T08:25:34Z</time></trkpt><trkpt lat="33.46885609374216" lon="9.023436870856372"><ele>64.0</ele><time>2026-04-07T08:25:35Z</time></trkpt><trkpt lat="33.46896175457454" lon="9.023423236662634"><ele>64.0</ele><time>2026-04-07T08:25:36Z</time></trkpt><trkpt lat="33.46906585881428" lon="9.023405328919104"><ele>64.2</ele><time>2026-04-07T08:25:37Z</time></trkpt><trkpt lat="33.46917051074806" lon="9.023386546436187"><ele>64.4</ele><time>2026-04-07T08:25:38Z</time></trkpt><trkpt lat="33.4692753235027" lon="9.02337601245125"><ele>64.6</ele><time>2026-04-07T08:25:39Z</time></trkpt><trkpt lat="33.46938079177642" lon="9.023368354851966"><ele>64.8</ele><time>2026-04-07T08:25:40Z</time></trkpt><trkpt lat="33.46948465294828" lon="9.023358040086189"><ele>65.0</ele><time>2026-04-07T08:25:41Z</time></trkpt><trkpt lat="33.469588455904244" lon="9.023343663791088"><ele>65.2</ele><time>2026-04-07T08:25:42Z</time></trkpt><trkpt lat="33.4696918437842" lon="9.023327247369103"><ele>65.4</ele><time>2026-04-07T08:25:43Z</time></trkpt><trkpt lat="33.4697964864167" lon="9.02331122401417"><ele>65.6</ele><time>2026-04-07T08:25:44Z</time></trkpt><trkpt lat="33.46990206084344" lon="9.023292618174235"><ele>65.8</ele><time>2026-04-07T08:25:45Z</time></trkpt><trkpt lat="33.47000591807948" lon="9.02327297989931"><ele>66.0</ele><time>2026-04-07T08:25:46Z</time></trkpt><trkpt lat="33.47011093798136" lon="9.023256426523067"><ele>66.0</ele><time>2026-04-07T08:25:47Z</time></trkpt><trkpt lat="33.470214425240215" lon="9.023239014026345"><ele>66.0</ele><time>2026-04-07T08:25:48Z</time></trkpt><trkpt lat="33.4703174534027" lon="9.023220423311232"><ele>66.0</ele><time>2026-04-07T08:25:49Z</time></trkpt><trkpt lat="33.4704218227485" lon="9.023202266732975"><ele>66.0</ele><time>2026-04-07T08:25:50Z</time></trkpt><trkpt lat="33.470525004198755" lon="9.023190321192141"><ele>66.0</ele><time>2026-04-07T08:25:51Z</time></trkpt><trkpt lat="33.4706291186447" lon="9.023177057486594"><ele>65.8</ele><time>2026-04-07T08:25:52Z</time></trkpt><trkpt lat="33.470733326924304" lon="9.02316207749609"><ele>65.6</ele><time>2026-04-07T08:25:53Z</time></trkpt><trkpt lat="33.470838514087966" lon="9.02314982656873"><ele>65.4</ele><time>2026-04-07T08:25:54Z</time></trkpt><trkpt lat="33.470942483922656" lon="9.023136679570259"><ele>65.2</ele><time>2026-04-07T08:25:55Z</time></trkpt><trkpt lat="33.47104847576988" lon="9.023122084705944"><ele>65.0</ele><time>2026-04-07T08:25:56Z</time></trkpt><trkpt lat="33.47115373712511" lon="9.023106734358327"><ele>65.0</ele><time>2026-04-07T08:25:57Z</time></trkpt><trkpt lat="33.471257457755634" lon="9.023089629805229"><ele>65.0</ele><time>2026-04-07T08:25:58Z</time></trkpt><trkpt lat="33.47136179877544" lon="9.023071865877316"><ele>65.0</ele><time>2026-04-07T08:25:59Z</time></trkpt><trkpt lat="33.47146549124496" lon="9.023055767784623"><ele>65.0</ele><time>2026-04-07T08:26:00Z</time></trkpt><trkpt lat="33.47155733825681" lon="9.023044058237627"><ele>65.0</ele><time>2026-04-07T08:26:01Z</time></trkpt><trkpt lat="33.471634489059674" lon="9.023034407110162"><ele>65.0</ele><time>2026-04-07T08:26:02Z</time></trkpt><trkpt lat="33.47170508666625" lon="9.023023009960127"><ele>65.0</ele><time>2026-04-07T08:26:03Z</time></trkpt><trkpt lat="33.47177086202595" lon="9.023011336371056"><ele>65.0</ele><time>2026-04-07T08:26:04Z</time></trkpt><trkpt lat="33.4718889128104" lon="9.02299169737521"><ele>65.0</ele><time>2026-04-07T08:26:06Z</time></trkpt><trkpt lat="33.47200592085913" lon="9.02297761653904"><ele>65.0</ele><time>2026-04-07T08:26:08Z</time></trkpt><trkpt lat="33.47207481858235" lon="9.022968940700412"><ele>65.0</ele><time>2026-04-07T08:26:09Z</time></trkpt><trkpt lat="33.47214596654254" lon="9.022958402185058"><ele>65.0</ele><time>2026-04-07T08:26:10Z</time></trkpt><trkpt lat="33.472218081725664" lon="9.022944198447657"><ele>65.0</ele><time>2026-04-07T08:26:11Z</time></trkpt><trkpt lat="33.472291631144834" lon="9.02293135219028"><ele>65.0</ele><time>2026-04-07T08:26:12Z</time></trkpt><trkpt lat="33.472371005232375" lon="9.022921420737358"><ele>65.0</ele><time>2026-04-07T08:26:13Z</time></trkpt><trkpt lat="33.47245323494525" lon="9.022908699496202"><ele>65.0</ele><time>2026-04-07T08:26:14Z</time></trkpt><trkpt lat="33.47253768698481" lon="9.022896626689612"><ele>65.0</ele><time>2026-04-07T08:26:15Z</time></trkpt><trkpt lat="33.4726283792178" lon="9.022884648197065"><ele>65.0</ele><time>2026-04-07T08:26:16Z</time></trkpt><trkpt lat="33.472726881853866" lon="9.022872219783276"><ele>65.0</ele><time>2026-04-07T08:26:17Z</time></trkpt><trkpt lat="33.47282506930653" lon="9.02286067519763"><ele>65.0</ele><time>2026-04-07T08:26:18Z</time></trkpt><trkpt lat="33.47292393193573" lon="9.022846521480636"><ele>65.0</ele><time>2026-04-07T08:26:19Z</time></trkpt><trkpt lat="33.47302308344256" lon="9.022831764454079"><ele>65.0</ele><time>2026-04-07T08:26:20Z</time></trkpt><trkpt lat="33.47312417559959" lon="9.022818932721632"><ele>65.0</ele><time>2026-04-07T08:26:21Z</time></trkpt><trkpt lat="33.47323702005326" lon="9.022805707100302"><ele>65.0</ele><time>2026-04-07T08:26:22Z</time></trkpt><trkpt lat="33.473380012236795" lon="9.022787763796943"><ele>65.0</ele><time>2026-04-07T08:26:23Z</time></trkpt><trkpt lat="33.47351890524822" lon="9.022767121502905"><ele>65.0</ele><time>2026-04-07T08:26:24Z</time></trkpt><trkpt lat="33.47365364705056" lon="9.022749721439713"><ele>64.75</ele><time>2026-04-07T08:26:25Z</time></trkpt><trkpt lat="33.473784081129665" lon="9.022735298378825"><ele>64.5</ele><time>2026-04-07T08:26:26Z</time></trkpt><trkpt lat="33.47390882984145" lon="9.022712452078183"><ele>64.25</ele><time>2026-04-07T08:26:27Z</time></trkpt><trkpt lat="33.47402517691698" lon="9.02268884297243"><ele>64.0</ele><time>2026-04-07T08:26:28Z</time></trkpt><trkpt lat="33.47413514289911" lon="9.022674712585975"><ele>64.0</ele><time>2026-04-07T08:26:29Z</time></trkpt><trkpt lat="33.47425289131211" lon="9.022660712852066"><ele>64.0</ele><time>2026-04-07T08:26:30Z</time></trkpt><trkpt lat="33.47437643536781" lon="9.022645160626467"><ele>64.0</ele><time>2026-04-07T08:26:31Z</time></trkpt><trkpt lat="33.47450610609666" lon="9.022624996533292"><ele>64.0</ele><time>2026-04-07T08:26:32Z</time></trkpt><trkpt lat="33.47463988995226" lon="9.022604560753548"><ele>63.75</ele><time>2026-04-07T08:26:33Z</time></trkpt><trkpt lat="33.474777884789376" lon="9.022585155875102"><ele>63.5</ele><time>2026-04-07T08:26:34Z</time></trkpt><trkpt lat="33.4749196919971" lon="9.022563060238369"><ele>63.25</ele><time>2026-04-07T08:26:35Z</time></trkpt><trkpt lat="33.475063661300695" lon="9.022540413423865"><ele>63.0</ele><time>2026-04-07T08:26:36Z</time></trkpt><trkpt lat="33.47521090535732" lon="9.022519743117241"><ele>63.0</ele><time>2026-04-07T08:26:37Z</time></trkpt><trkpt lat="33.475361050008736" lon="9.022498839888303"><ele>63.0</ele><time>2026-04-07T08:26:38Z</time></trkpt><trkpt lat="33.47551172778906" lon="9.022475986311553"><ele>63.0</ele><time>2026-04-07T08:26:39Z</time></trkpt><trkpt lat="33.47566413695169" lon="9.022452793703332"><ele>63.0</ele><time>2026-04-07T08:26:40Z</time></trkpt><trkpt lat="33.475817665012165" lon="9.022432314321172"><ele>63.0</ele><time>2026-04-07T08:26:41Z</time></trkpt><trkpt lat="33.47595607244263" lon="9.022410665107497"><ele>63.0</ele><time>2026-04-07T08:26:42Z</time></trkpt><trkpt lat="33.476074062689655" lon="9.022391082001743"><ele>63.0</ele><time>2026-04-07T08:26:43Z</time></trkpt><trkpt lat="33.47618846218654" lon="9.022374819807235"><ele>64.25</ele><time>2026-04-07T08:26:44Z</time></trkpt><trkpt lat="33.47630463562045" lon="9.022358520463154"><ele>65.5</ele><time>2026-04-07T08:26:45Z</time></trkpt><trkpt lat="33.47641647509978" lon="9.022339873234698"><ele>66.75</ele><time>2026-04-07T08:26:46Z</time></trkpt><trkpt lat="33.47652653287829" lon="9.022328854721335"><ele>68.0</ele><time>2026-04-07T08:26:47Z</time></trkpt><trkpt lat="33.47663820069618" lon="9.02231912636599"><ele>68.0</ele><time>2026-04-07T08:26:48Z</time></trkpt><trkpt lat="33.476761950133216" lon="9.022306137855258"><ele>68.0</ele><time>2026-04-07T08:26:49Z</time></trkpt><trkpt lat="33.47689020493074" lon="9.022299330136498"><ele>68.0</ele><time>2026-04-07T08:26:50Z</time></trkpt><trkpt lat="33.477020005073946" lon="9.0222911815422"><ele>68.0</ele><time>2026-04-07T08:26:51Z</time></trkpt><trkpt lat="33.47715061214412" lon="9.022276053622821"><ele>68.25</ele><time>2026-04-07T08:26:52Z</time></trkpt><trkpt lat="33.477285978807046" lon="9.02226520510195"><ele>68.5</ele><time>2026-04-07T08:26:53Z</time></trkpt><trkpt lat="33.47742446678598" lon="9.022256099894197"><ele>68.75</ele><time>2026-04-07T08:26:54Z</time></trkpt><trkpt lat="33.477562543337875" lon="9.022250262849688"><ele>69.0</ele><time>2026-04-07T08:26:55Z</time></trkpt><trkpt lat="33.47770400679434" lon="9.022244878682251"><ele>69.0</ele><time>2026-04-07T08:26:56Z</time></trkpt><trkpt lat="33.47784958485756" lon="9.022248221524567"><ele>69.0</ele><time>2026-04-07T08:26:57Z</time></trkpt><trkpt lat="33.47799803555928" lon="9.022256804347677"><ele>69.0</ele><time>2026-04-07T08:26:58Z</time></trkpt><trkpt lat="33.478149716942276" lon="9.022268361416497"><ele>69.0</ele><time>2026-04-07T08:26:59Z</time></trkpt><trkpt lat="33.478298133001275" lon="9.022270812803859"><ele>69.0</ele><time>2026-04-07T08:27:00Z</time></trkpt><trkpt lat="33.47844543744324" lon="9.022273791378815"><ele>69.0</ele><time>2026-04-07T08:27:01Z</time></trkpt><trkpt lat="33.47859200695871" lon="9.022287004420102"><ele>69.0</ele><time>2026-04-07T08:27:02Z</time></trkpt><trkpt lat="33.478736245027235" lon="9.022288581165567"><ele>69.0</ele><time>2026-04-07T08:27:03Z</time></trkpt><trkpt lat="33.4788811261194" lon="9.022307274371453"><ele>68.66666666666667</ele><time>2026-04-07T08:27:04Z</time></trkpt><trkpt lat="33.47902896945844" lon="9.02232038876641"><ele>68.33333333333334</ele><time>2026-04-07T08:27:05Z</time></trkpt><trkpt lat="33.47918631456465" lon="9.022324693159673"><ele>68.0</ele><time>2026-04-07T08:27:06Z</time></trkpt><trkpt lat="33.479345063409426" lon="9.022338753165858"><ele>68.0</ele><time>2026-04-07T08:27:07Z</time></trkpt><trkpt lat="33.47950529373687" lon="9.022352462681704"><ele>68.0</ele><time>2026-04-07T08:27:08Z</time></trkpt><trkpt lat="33.47966790202821" lon="9.022363374518994"><ele>68.0</ele><time>2026-04-07T08:27:09Z</time></trkpt><trkpt lat="33.47982900418724" lon="9.022371183011524"><ele>67.33333333333334</ele><time>2026-04-07T08:27:10Z</time></trkpt><trkpt lat="33.479988446810324" lon="9.022378228251377"><ele>66.66666666666667</ele><time>2026-04-07T08:27:11Z</time></trkpt><trkpt lat="33.48015004322543" lon="9.022388554141626"><ele>66.0</ele><time>2026-04-07T08:27:12Z</time></trkpt><trkpt lat="33.48031086314926" lon="9.022399489005933"><ele>65.66666666666667</ele><time>2026-04-07T08:27:13Z</time></trkpt><trkpt lat="33.480469228812524" lon="9.022410507500554"><ele>65.33333333333334</ele><time>2026-04-07T08:27:14Z</time></trkpt><trkpt lat="33.48063054207008" lon="9.022420027270865"><ele>65.0</ele><time>2026-04-07T08:27:15Z</time></trkpt><trkpt lat="33.48078984447218" lon="9.022427642432879"><ele>65.0</ele><time>2026-04-07T08:27:16Z</time></trkpt><trkpt lat="33.48094992661187" lon="9.022435791297333"><ele>65.0</ele><time>2026-04-07T08:27:17Z</time></trkpt><trkpt lat="33.48111547501456" lon="9.022443494163431"><ele>65.0</ele><time>2026-04-07T08:27:18Z</time></trkpt><trkpt lat="33.48128689607667" lon="9.022456256709107"><ele>64.33333333333334</ele><time>2026-04-07T08:27:19Z</time></trkpt><trkpt lat="33.48146058955186" lon="9.022466194834733"><ele>63.66666666666667</ele><time>2026-04-07T08:27:20Z</time></trkpt><trkpt lat="33.481638883217066" lon="9.022475277090066"><ele>63.0</ele><time>2026-04-07T08:27:21Z</time></trkpt><trkpt lat="33.48181602160306" lon="9.022483644682039"><ele>62.66666666666667</ele><time>2026-04-07T08:27:22Z</time></trkpt><trkpt lat="33.48199450555371" lon="9.022491382275023"><ele>62.333333333333336</ele><time>2026-04-07T08:27:23Z</time></trkpt><trkpt lat="33.4821678394487" lon="9.022501827359337"><ele>62.0</ele><time>2026-04-07T08:27:24Z</time></trkpt><trkpt lat="33.482339974201004" lon="9.022513615846314"><ele>62.0</ele><time>2026-04-07T08:27:25Z</time></trkpt><trkpt lat="33.482513959782864" lon="9.02252619499521"><ele>62.0</ele><time>2026-04-07T08:27:26Z</time></trkpt><trkpt lat="33.48268538450515" lon="9.0225361135017"><ele>62.0</ele><time>2026-04-07T08:27:27Z</time></trkpt><trkpt lat="33.48285363952817" lon="9.022544068300263"><ele>61.66666666666667</ele><time>2026-04-07T08:27:28Z</time></trkpt><trkpt lat="33.483027715845175" lon="9.022553160778173"><ele>61.33333333333333</ele><time>2026-04-07T08:27:29Z</time></trkpt><trkpt lat="33.483196806001324" lon="9.022565501897649"><ele>61.0</ele><time>2026-04-07T08:27:30Z</time></trkpt><trkpt lat="33.483368438323" lon="9.02257638931461"><ele>61.0</ele><time>2026-04-07T08:27:31Z</time></trkpt><trkpt lat="33.48353862869086" lon="9.022590452824751"><ele>61.0</ele><time>2026-04-07T08:27:32Z</time></trkpt><trkpt lat="33.48371365156806" lon="9.022602120754307"><ele>61.0</ele><time>2026-04-07T08:27:33Z</time></trkpt><trkpt lat="33.48389028197708" lon="9.022613793200021"><ele>61.666666666666664</ele><time>2026-04-07T08:27:34Z</time></trkpt><trkpt lat="33.48406177208897" lon="9.022623796659046"><ele>62.33333333333333</ele><time>2026-04-07T08:27:35Z</time></trkpt><trkpt lat="33.48423718942717" lon="9.022633927629574"><ele>63.0</ele><time>2026-04-07T08:27:36Z</time></trkpt><trkpt lat="33.48441170541056" lon="9.022646349473375"><ele>63.0</ele><time>2026-04-07T08:27:37Z</time></trkpt><trkpt lat="33.48458406666123" lon="9.022655397628633"><ele>63.0</ele><time>2026-04-07T08:27:38Z</time></trkpt><trkpt lat="33.48475821590521" lon="9.022665747554036"><ele>63.0</ele><time>2026-04-07T08:27:39Z</time></trkpt><trkpt lat="33.48492886413407" lon="9.022677627210992"><ele>62.66666666666667</ele><time>2026-04-07T08:27:40Z</time></trkpt><trkpt lat="33.48510182932362" lon="9.022690555849103"><ele>62.333333333333336</ele><time>2026-04-07T08:27:41Z</time></trkpt><trkpt lat="33.48527481913639" lon="9.02270623578616"><ele>62.0</ele><time>2026-04-07T08:27:42Z</time></trkpt><trkpt lat="33.48544598712268" lon="9.022718532125737"><ele>61.333333333333336</ele><time>2026-04-07T08:27:43Z</time></trkpt><trkpt lat="33.485620298802154" lon="9.022727607380022"><ele>60.66666666666667</ele><time>2026-04-07T08:27:44Z</time></trkpt><trkpt lat="33.485792405789546" lon="9.022739743066964"><ele>60.0</ele><time>2026-04-07T08:27:45Z</time></trkpt><trkpt lat="33.48596557592863" lon="9.022759173484022"><ele>60.0</ele><time>2026-04-07T08:27:46Z</time></trkpt><trkpt lat="33.48613454237581" lon="9.022778373941305"><ele>60.0</ele><time>2026-04-07T08:27:47Z</time></trkpt><trkpt lat="33.486305835497696" lon="9.022799255525893"><ele>60.0</ele><time>2026-04-07T08:27:48Z</time></trkpt><trkpt lat="33.48647597174018" lon="9.02282086306609"><ele>60.0</ele><time>2026-04-07T08:27:49Z</time></trkpt><trkpt lat="33.486649098028956" lon="9.02284441192145"><ele>60.0</ele><time>2026-04-07T08:27:50Z</time></trkpt><trkpt lat="33.486822192780096" lon="9.02287306048012"><ele>60.0</ele><time>2026-04-07T08:27:51Z</time></trkpt><trkpt lat="33.48699393745678" lon="9.022908376167182"><ele>59.66666666666667</ele><time>2026-04-07T08:27:52Z</time></trkpt><trkpt lat="33.487163429666396" lon="9.022945784431277"><ele>59.333333333333336</ele><time>2026-04-07T08:27:53Z</time></trkpt><trkpt lat="33.48733210834242" lon="9.022993094381196"><ele>59.0</ele><time>2026-04-07T08:27:54Z</time></trkpt><trkpt lat="33.4874992113334" lon="9.023045860631049"><ele>59.0</ele><time>2026-04-07T08:27:55Z</time></trkpt><trkpt lat="33.487662388024056" lon="9.023108436378413"><ele>59.0</ele><time>2026-04-07T08:27:56Z</time></trkpt><trkpt lat="33.48782932088198" lon="9.023177351992748"><ele>59.0</ele><time>2026-04-07T08:27:57Z</time></trkpt><trkpt lat="33.48798775336215" lon="9.02324665998421"><ele>59.66666666666667</ele><time>2026-04-07T08:27:58Z</time></trkpt><trkpt lat="33.48813563290845" lon="9.023315813836927"><ele>60.33333333333333</ele><time>2026-04-07T08:27:59Z</time></trkpt><trkpt lat="33.488278766148504" lon="9.02337866335892"><ele>61.0</ele><time>2026-04-07T08:28:00Z</time></trkpt><trkpt lat="33.48841634284652" lon="9.023438098351992"><ele>61.0</ele><time>2026-04-07T08:28:01Z</time></trkpt><trkpt lat="33.488539565435914" lon="9.023495297481325"><ele>61.0</ele><time>2026-04-07T08:28:02Z</time></trkpt><trkpt lat="33.488645305966756" lon="9.023535778998664"><ele>61.0</ele><time>2026-04-07T08:28:03Z</time></trkpt><trkpt lat="33.48874508691336" lon="9.02357655746731"><ele>61.0</ele><time>2026-04-07T08:28:04Z</time></trkpt><trkpt lat="33.48884280167597" lon="9.023619142861595"><ele>60.5</ele><time>2026-04-07T08:28:05Z</time></trkpt><trkpt lat="33.488948894744425" lon="9.023663116160327"><ele>60.0</ele><time>2026-04-07T08:28:06Z</time></trkpt><trkpt lat="33.4890589689941" lon="9.023706144704441"><ele>59.5</ele><time>2026-04-07T08:28:07Z</time></trkpt><trkpt lat="33.48917615280138" lon="9.023754472611568"><ele>59.0</ele><time>2026-04-07T08:28:08Z</time></trkpt><trkpt lat="33.48929744233096" lon="9.023802163391005"><ele>59.0</ele><time>2026-04-07T08:28:09Z</time></trkpt><trkpt lat="33.4894240994398" lon="9.023855343156178"><ele>59.0</ele><time>2026-04-07T08:28:10Z</time></trkpt><trkpt lat="33.48955600022445" lon="9.023914862803059"><ele>59.0</ele><time>2026-04-07T08:28:11Z</time></trkpt><trkpt lat="33.48969271861785" lon="9.023971000042748"><ele>59.0</ele><time>2026-04-07T08:28:12Z</time></trkpt><trkpt lat="33.489833717811415" lon="9.02402614451835"><ele>58.66666666666667</ele><time>2026-04-07T08:28:13Z</time></trkpt><trkpt lat="33.48998246252603" lon="9.024089155260105"><ele>58.33333333333333</ele><time>2026-04-07T08:28:14Z</time></trkpt><trkpt lat="33.49016432016391" lon="9.02416516314462"><ele>58.0</ele><time>2026-04-07T08:28:15Z</time></trkpt><trkpt lat="33.490357657279766" lon="9.024260043612424"><ele>58.0</ele><time>2026-04-07T08:28:16Z</time></trkpt><trkpt lat="33.49053561002585" lon="9.024357605927051"><ele>58.0</ele><time>2026-04-07T08:28:17Z</time></trkpt><trkpt lat="33.49069976257712" lon="9.024442126256425"><ele>58.0</ele><time>2026-04-07T08:28:18Z</time></trkpt><trkpt lat="33.490862939113086" lon="9.024518582211499"><ele>58.0</ele><time>2026-04-07T08:28:19Z</time></trkpt><trkpt lat="33.49102320933166" lon="9.024594555393982"><ele>58.0</ele><time>2026-04-07T08:28:20Z</time></trkpt><trkpt lat="33.49117846287004" lon="9.02467361448676"><ele>58.0</ele><time>2026-04-07T08:28:21Z</time></trkpt><trkpt lat="33.49132978233218" lon="9.024748304609762"><ele>58.33333333333333</ele><time>2026-04-07T08:28:22Z</time></trkpt><trkpt lat="33.491483477426954" lon="9.024817034615905"><ele>58.66666666666667</ele><time>2026-04-07T08:28:23Z</time></trkpt><trkpt lat="33.491638401360206" lon="9.024887429517758"><ele>59.0</ele><time>2026-04-07T08:28:24Z</time></trkpt><trkpt lat="33.49180036026279" lon="9.024961535960832"><ele>59.66666666666667</ele><time>2026-04-07T08:28:25Z</time></trkpt><trkpt lat="33.49196261961354" lon="9.025041115061509"><ele>60.33333333333333</ele><time>2026-04-07T08:28:26Z</time></trkpt><trkpt lat="33.492129599120496" lon="9.025109861360038"><ele>61.0</ele><time>2026-04-07T08:28:27Z</time></trkpt><trkpt lat="33.49228747475766" lon="9.02519315451599"><ele>61.0</ele><time>2026-04-07T08:28:28Z</time></trkpt><trkpt lat="33.4924458331339" lon="9.025281116220519"><ele>61.0</ele><time>2026-04-07T08:28:29Z</time></trkpt><trkpt lat="33.49261051175057" lon="9.025342072369371"><ele>61.0</ele><time>2026-04-07T08:28:30Z</time></trkpt><trkpt lat="33.492768094652014" lon="9.025428181740486"><ele>61.0</ele><time>2026-04-07T08:28:31Z</time></trkpt><trkpt lat="33.49293209084942" lon="9.025506588487751"><ele>61.0</ele><time>2026-04-07T08:28:32Z</time></trkpt><trkpt lat="33.493094605387256" lon="9.025584386005386"><ele>61.0</ele><time>2026-04-07T08:28:33Z</time></trkpt><trkpt lat="33.49326107229591" lon="9.02565938114915"><ele>61.0</ele><time>2026-04-07T08:28:34Z</time></trkpt><trkpt lat="33.493428848967376" lon="9.025728787725923"><ele>61.0</ele><time>2026-04-07T08:28:35Z</time></trkpt><trkpt lat="33.49359002154362" lon="9.02581977031411"><ele>61.0</ele><time>2026-04-07T08:28:36Z</time></trkpt><trkpt lat="33.4937568804511" lon="9.025902644544471"><ele>61.666666666666664</ele><time>2026-04-07T08:28:37Z</time></trkpt><trkpt lat="33.49392620084758" lon="9.02597647939682"><ele>62.33333333333333</ele><time>2026-04-07T08:28:38Z</time></trkpt><trkpt lat="33.4940960038963" lon="9.026054156728941"><ele>63.0</ele><time>2026-04-07T08:28:39Z</time></trkpt><trkpt lat="33.494262097773934" lon="9.026141055457984"><ele>63.0</ele><time>2026-04-07T08:28:40Z</time></trkpt><trkpt lat="33.494426578482695" lon="9.02622493606491"><ele>63.0</ele><time>2026-04-07T08:28:41Z</time></trkpt><trkpt lat="33.49459336856753" lon="9.026296990271337"><ele>63.0</ele><time>2026-04-07T08:28:42Z</time></trkpt><trkpt lat="33.49476039750548" lon="9.026374525306732"><ele>62.66666666666667</ele><time>2026-04-07T08:28:43Z</time></trkpt><trkpt lat="33.494923558621494" lon="9.02646213139029"><ele>62.333333333333336</ele><time>2026-04-07T08:28:44Z</time></trkpt><trkpt lat="33.495089697031524" lon="9.0265406033212"><ele>62.0</ele><time>2026-04-07T08:28:45Z</time></trkpt><trkpt lat="33.49525550203398" lon="9.026614151647449"><ele>61.66666666666667</ele><time>2026-04-07T08:28:46Z</time></trkpt><trkpt lat="33.495420118514865" lon="9.026693770480314"><ele>61.33333333333333</ele><time>2026-04-07T08:28:47Z</time></trkpt><trkpt lat="33.49558888837341" lon="9.026772352675842"><ele>61.0</ele><time>2026-04-07T08:28:48Z</time></trkpt><trkpt lat="33.49575692157406" lon="9.026850546060135"><ele>60.666666666666664</ele><time>2026-04-07T08:28:49Z</time></trkpt><trkpt lat="33.49592366910476" lon="9.026935702897209"><ele>60.33333333333333</ele><time>2026-04-07T08:28:50Z</time></trkpt><trkpt lat="33.49609194109225" lon="9.02702036817409"><ele>60.0</ele><time>2026-04-07T08:28:51Z</time></trkpt><trkpt lat="33.49626672095123" lon="9.027103240701635"><ele>59.33333333333333</ele><time>2026-04-07T08:28:52Z</time></trkpt><trkpt lat="33.49644029796445" lon="9.027185716516788"><ele>58.666666666666664</ele><time>2026-04-07T08:28:53Z</time></trkpt><trkpt lat="33.4966174341212" lon="9.027273484973078"><ele>58.0</ele><time>2026-04-07T08:28:54Z</time></trkpt><trkpt lat="33.49679487455114" lon="9.027360755073731"><ele>58.0</ele><time>2026-04-07T08:28:55Z</time></trkpt><trkpt lat="33.49697533974244" lon="9.027446229603406"><ele>58.0</ele><time>2026-04-07T08:28:56Z</time></trkpt><trkpt lat="33.49715674057194" lon="9.027529860819216"><ele>58.0</ele><time>2026-04-07T08:28:57Z</time></trkpt><trkpt lat="33.4973401393649" lon="9.027617450173109"><ele>58.666666666666664</ele><time>2026-04-07T08:28:58Z</time></trkpt><trkpt lat="33.49751631570097" lon="9.027704119289226"><ele>59.33333333333333</ele><time>2026-04-07T08:28:59Z</time></trkpt><trkpt lat="33.49769966984432" lon="9.02778762174295"><ele>60.0</ele><time>2026-04-07T08:29:00Z</time></trkpt><trkpt lat="33.497884751421" lon="9.027869419631703"><ele>61.0</ele><time>2026-04-07T08:29:01Z</time></trkpt><trkpt lat="33.49806760663338" lon="9.027952750504616"><ele>62.0</ele><time>2026-04-07T08:29:02Z</time></trkpt><trkpt lat="33.498253904029006" lon="9.028028511160523"><ele>63.0</ele><time>2026-04-07T08:29:03Z</time></trkpt><trkpt lat="33.498447858529296" lon="9.0281000157253"><ele>63.0</ele><time>2026-04-07T08:29:04Z</time></trkpt><trkpt lat="33.498643968113846" lon="9.02816662367252"><ele>63.0</ele><time>2026-04-07T08:29:05Z</time></trkpt><trkpt lat="33.498837674390074" lon="9.02822864587555"><ele>63.0</ele><time>2026-04-07T08:29:06Z</time></trkpt><trkpt lat="33.49903777570137" lon="9.028287738415113"><ele>63.66666666666667</ele><time>2026-04-07T08:29:07Z</time></trkpt><trkpt lat="33.499242379900096" lon="9.028340030897803"><ele>64.33333333333334</ele><time>2026-04-07T08:29:08Z</time></trkpt><trkpt lat="33.49944590421034" lon="9.028389798156208"><ele>65.0</ele><time>2026-04-07T08:29:09.001Z</time></trkpt><trkpt lat="33.499655023669945" lon="9.028433303293813"><ele>63.0</ele><time>2026-04-07T08:29:10.001Z</time></trkpt><trkpt lat="33.49986772907681" lon="9.028470272688493"><ele>61.0</ele><time>2026-04-07T08:29:11.001Z</time></trkpt><trkpt lat="33.50008204795097" lon="9.028502072691298"><ele>59.0</ele><time>2026-04-07T08:29:12.001Z</time></trkpt><trkpt lat="33.50030143173444" lon="9.028531892812863"><ele>58.0</ele><time>2026-04-07T08:29:13.001Z</time></trkpt><trkpt lat="33.500522507268506" lon="9.028553473646163"><ele>57.0</ele><time>2026-04-07T08:29:14.001Z</time></trkpt><trkpt lat="33.500745718637816" lon="9.028567024016056"><ele>56.0</ele><time>2026-04-07T08:29:15.001Z</time></trkpt><trkpt lat="33.50096976013659" lon="9.028573333458386"><ele>56.0</ele><time>2026-04-07T08:29:16.001Z</time></trkpt><trkpt lat="33.50119297194225" lon="9.028567575375671"><ele>56.0</ele><time>2026-04-07T08:29:17.001Z</time></trkpt><trkpt lat="33.501419759647554" lon="9.028554173808134"><ele>55.5</ele><time>2026-04-07T08:29:18.001Z</time></trkpt><trkpt lat="33.50164843749169" lon="9.028537243318196"><ele>55.0</ele><time>2026-04-07T08:29:19.001Z</time></trkpt><trkpt lat="33.501905061118734" lon="9.02851687648896"><ele>55.5</ele><time>2026-04-07T08:29:20.001Z</time></trkpt><trkpt lat="33.50218560624536" lon="9.028479839754079"><ele>56.0</ele><time>2026-04-07T08:29:21.001Z</time></trkpt><trkpt lat="33.502487281482" lon="9.028426539337202"><ele>56.0</ele><time>2026-04-07T08:29:22.001Z</time></trkpt><trkpt lat="33.50280223226837" lon="9.028360234449147"><ele>56.0</ele><time>2026-04-07T08:29:23.001Z</time></trkpt><trkpt lat="33.50310476204149" lon="9.028285664261633"><ele>55.5</ele><time>2026-04-07T08:29:24.001Z</time></trkpt><trkpt lat="33.50338844649695" lon="9.028203742459164"><ele>55.0</ele><time>2026-04-07T08:29:25.001Z</time></trkpt><trkpt lat="33.50365276483826" lon="9.02811401348588"><ele>55.5</ele><time>2026-04-07T08:29:26Z</time></trkpt><trkpt lat="33.503900721452396" lon="9.028020595242804"><ele>56.0</ele><time>2026-04-07T08:29:27Z</time></trkpt><trkpt lat="33.50413706502245" lon="9.02792418000769"><ele>56.0</ele><time>2026-04-07T08:29:28Z</time></trkpt><trkpt lat="33.50436022160467" lon="9.027821708490858"><ele>56.0</ele><time>2026-04-07T08:29:29Z</time></trkpt><trkpt lat="33.504569549409595" lon="9.027720114436892"><ele>54.66666666666667</ele><time>2026-04-07T08:29:30Z</time></trkpt><trkpt lat="33.50477809684303" lon="9.027618000473693"><ele>53.33333333333333</ele><time>2026-04-07T08:29:31Z</time></trkpt><trkpt lat="33.50497368694185" lon="9.027521986935323"><ele>52.0</ele><time>2026-04-07T08:29:32Z</time></trkpt><trkpt lat="33.50516842063457" lon="9.027423553249994"><ele>52.0</ele><time>2026-04-07T08:29:33Z</time></trkpt><trkpt lat="33.50535066375816" lon="9.027328761456966"><ele>52.0</ele><time>2026-04-07T08:29:34Z</time></trkpt><trkpt lat="33.50552864984889" lon="9.027236857841118"><ele>52.0</ele><time>2026-04-07T08:29:35Z</time></trkpt><trkpt lat="33.50570532193468" lon="9.027143217600823"><ele>51.666666666666664</ele><time>2026-04-07T08:29:36Z</time></trkpt><trkpt lat="33.50588633383393" lon="9.027046505641078"><ele>51.33333333333333</ele><time>2026-04-07T08:29:37Z</time></trkpt><trkpt lat="33.50607127427639" lon="9.026948004693962"><ele>51.0</ele><time>2026-04-07T08:29:38Z</time></trkpt><trkpt lat="33.506259092806694" lon="9.026846727041603"><ele>51.0</ele><time>2026-04-07T08:29:39Z</time></trkpt><trkpt lat="33.50644610911016" lon="9.026740912016082"><ele>51.0</ele><time>2026-04-07T08:29:40Z</time></trkpt><trkpt lat="33.50663822273432" lon="9.026638045385031"><ele>51.0</ele><time>2026-04-07T08:29:41Z</time></trkpt><trkpt lat="33.50682914278639" lon="9.026542146759414"><ele>50.66666666666667</ele><time>2026-04-07T08:29:42Z</time></trkpt><trkpt lat="33.50701881499767" lon="9.026446802471343"><ele>50.333333333333336</ele><time>2026-04-07T08:29:43Z</time></trkpt><trkpt lat="33.50719902895533" lon="9.026355671983566"><ele>50.0</ele><time>2026-04-07T08:29:44Z</time></trkpt><trkpt lat="33.50737633872442" lon="9.026267486266601"><ele>50.0</ele><time>2026-04-07T08:29:45Z</time></trkpt><trkpt lat="33.507549884280664" lon="9.026181244939034"><ele>50.0</ele><time>2026-04-07T08:29:46Z</time></trkpt><trkpt lat="33.507723007948925" lon="9.026093508522772"><ele>50.0</ele><time>2026-04-07T08:29:47Z</time></trkpt><trkpt lat="33.50789457322599" lon="9.026003931721737"><ele>50.333333333333336</ele><time>2026-04-07T08:29:48Z</time></trkpt><trkpt lat="33.50806813632212" lon="9.025911852573497"><ele>50.66666666666667</ele><time>2026-04-07T08:29:49Z</time></trkpt><trkpt lat="33.50824149933053" lon="9.025822614270236"><ele>51.0</ele><time>2026-04-07T08:29:50Z</time></trkpt><trkpt lat="33.508415943642454" lon="9.025736741104874"><ele>51.33333333333333</ele><time>2026-04-07T08:29:51Z</time></trkpt><trkpt lat="33.50859334778" lon="9.025653197326848"><ele>51.666666666666664</ele><time>2026-04-07T08:29:52Z</time></trkpt><trkpt lat="33.50877264431259" lon="9.02557251405461"><ele>52.0</ele><time>2026-04-07T08:29:53Z</time></trkpt><trkpt lat="33.50895182083805" lon="9.025495161014689"><ele>52.33333333333333</ele><time>2026-04-07T08:29:54Z</time></trkpt><trkpt lat="33.50913354965805" lon="9.025421029585013"><ele>52.66666666666667</ele><time>2026-04-07T08:29:55Z</time></trkpt><trkpt lat="33.50931440429449" lon="9.025352805859105"><ele>53.0</ele><time>2026-04-07T08:29:56Z</time></trkpt><trkpt lat="33.50949995404632" lon="9.025287738675901"><ele>53.0</ele><time>2026-04-07T08:29:57Z</time></trkpt><trkpt lat="33.50968549172942" lon="9.025225040092915"><ele>53.0</ele><time>2026-04-07T08:29:58Z</time></trkpt><trkpt lat="33.509873645738466" lon="9.025165215629743"><ele>53.0</ele><time>2026-04-07T08:29:59Z</time></trkpt><trkpt lat="33.51006510434158" lon="9.025108067103742"><ele>53.0</ele><time>2026-04-07T08:30:00Z</time></trkpt><trkpt lat="33.51025610554241" lon="9.025052313442242"><ele>53.0</ele><time>2026-04-07T08:30:01Z</time></trkpt><trkpt lat="33.510448486809814" lon="9.024996420697455"><ele>53.0</ele><time>2026-04-07T08:30:02Z</time></trkpt><trkpt lat="33.51063982525836" lon="9.024938552165674"><ele>52.66666666666667</ele><time>2026-04-07T08:30:03Z</time></trkpt><trkpt lat="33.51083392476111" lon="9.024880777426182"><ele>52.33333333333333</ele><time>2026-04-07T08:30:04Z</time></trkpt><trkpt lat="33.511025650579796" lon="9.024822030045874"><ele>52.0</ele><time>2026-04-07T08:30:05Z</time></trkpt><trkpt lat="33.511219401147265" lon="9.024763786147407"><ele>51.666666666666664</ele><time>2026-04-07T08:30:06Z</time></trkpt><trkpt lat="33.511415965993145" lon="9.02470737326256"><ele>51.33333333333333</ele><time>2026-04-07T08:30:07Z</time></trkpt><trkpt lat="33.51160911862226" lon="9.024652977317658"><ele>51.0</ele><time>2026-04-07T08:30:08Z</time></trkpt><trkpt lat="33.51180217172202" lon="9.02460093118843"><ele>51.0</ele><time>2026-04-07T08:30:09Z</time></trkpt><trkpt lat="33.511992731015965" lon="9.024547697460605"><ele>51.0</ele><time>2026-04-07T08:30:10Z</time></trkpt><trkpt lat="33.512182778844135" lon="9.024490639121302"><ele>51.0</ele><time>2026-04-07T08:30:11Z</time></trkpt><trkpt lat="33.512375091010774" lon="9.024431699760651"><ele>51.33333333333333</ele><time>2026-04-07T08:30:12Z</time></trkpt><trkpt lat="33.51256357255804" lon="9.024375245182258"><ele>51.666666666666664</ele><time>2026-04-07T08:30:13Z</time></trkpt><trkpt lat="33.51275604537465" lon="9.024316240696907"><ele>52.0</ele><time>2026-04-07T08:30:14Z</time></trkpt><trkpt lat="33.5129430652353" lon="9.024261590210616"><ele>52.0</ele><time>2026-04-07T08:30:15Z</time></trkpt><trkpt lat="33.51313670723371" lon="9.024207101690857"><ele>52.0</ele><time>2026-04-07T08:30:16Z</time></trkpt><trkpt lat="33.51332742478481" lon="9.024153683263947"><ele>52.0</ele><time>2026-04-07T08:30:17Z</time></trkpt><trkpt lat="33.51352053973581" lon="9.024098355468393"><ele>51.666666666666664</ele><time>2026-04-07T08:30:18Z</time></trkpt><trkpt lat="33.513714243451524" lon="9.024039795200597"><ele>51.33333333333333</ele><time>2026-04-07T08:30:19Z</time></trkpt><trkpt lat="33.51390647160851" lon="9.023980781451966"><ele>51.0</ele><time>2026-04-07T08:30:20Z</time></trkpt><trkpt lat="33.51410115813355" lon="9.02392225137713"><ele>50.66666666666667</ele><time>2026-04-07T08:30:21Z</time></trkpt><trkpt lat="33.51429352403494" lon="9.023862910860368"><ele>50.333333333333336</ele><time>2026-04-07T08:30:22Z</time></trkpt><trkpt lat="33.51448644670094" lon="9.023805399117462"><ele>50.0</ele><time>2026-04-07T08:30:23Z</time></trkpt><trkpt lat="33.514680904327044" lon="9.023748719642457"><ele>50.0</ele><time>2026-04-07T08:30:24Z</time></trkpt><trkpt lat="33.514875423506496" lon="9.023693692550742"><ele>50.0</ele><time>2026-04-07T08:30:25Z</time></trkpt><trkpt lat="33.51506806987638" lon="9.023637138879439"><ele>50.0</ele><time>2026-04-07T08:30:26Z</time></trkpt><trkpt lat="33.51526429240034" lon="9.023580965591897"><ele>50.0</ele><time>2026-04-07T08:30:27Z</time></trkpt><trkpt lat="33.51545938775422" lon="9.023527290637364"><ele>50.0</ele><time>2026-04-07T08:30:28Z</time></trkpt><trkpt lat="33.51565223358056" lon="9.023470640419285"><ele>50.0</ele><time>2026-04-07T08:30:29Z</time></trkpt><trkpt lat="33.51584567636406" lon="9.023414306551837"><ele>50.0</ele><time>2026-04-07T08:30:30Z</time></trkpt><trkpt lat="33.516038108435666" lon="9.02335666809359"><ele>50.0</ele><time>2026-04-07T08:30:31Z</time></trkpt><trkpt lat="33.516239034031734" lon="9.023298721018834"><ele>50.0</ele><time>2026-04-07T08:30:32Z</time></trkpt><trkpt lat="33.51645070574892" lon="9.023234873207842"><ele>50.0</ele><time>2026-04-07T08:30:33Z</time></trkpt><trkpt lat="33.516675395392035" lon="9.02316910970284"><ele>50.0</ele><time>2026-04-07T08:30:34Z</time></trkpt><trkpt lat="33.51691272531346" lon="9.02309908685493"><ele>49.5</ele><time>2026-04-07T08:30:35Z</time></trkpt><trkpt lat="33.517156684653145" lon="9.023025638978034"><ele>49.0</ele><time>2026-04-07T08:30:36Z</time></trkpt><trkpt lat="33.51739468742942" lon="9.022951811116565"><ele>49.0</ele><time>2026-04-07T08:30:37Z</time></trkpt><trkpt lat="33.517630472826376" lon="9.022881744224446"><ele>49.0</ele><time>2026-04-07T08:30:38Z</time></trkpt><trkpt lat="33.51786501306232" lon="9.022809709026935"><ele>49.5</ele><time>2026-04-07T08:30:39Z</time></trkpt><trkpt lat="33.518099999200224" lon="9.022739534220747"><ele>50.0</ele><time>2026-04-07T08:30:40Z</time></trkpt><trkpt lat="33.51833759994553" lon="9.0226712163592"><ele>50.0</ele><time>2026-04-07T08:30:41Z</time></trkpt><trkpt lat="33.518577760822936" lon="9.022603768332162"><ele>50.0</ele><time>2026-04-07T08:30:42Z</time></trkpt><trkpt lat="33.518815483775306" lon="9.022534943356371"><ele>49.5</ele><time>2026-04-07T08:30:43Z</time></trkpt><trkpt lat="33.51904842939734" lon="9.022463060517738"><ele>49.0</ele><time>2026-04-07T08:30:44Z</time></trkpt><trkpt lat="33.51928545440658" lon="9.022391646822747"><ele>49.0</ele><time>2026-04-07T08:30:45Z</time></trkpt><trkpt lat="33.5195234438765" lon="9.022323475304047"><ele>49.0</ele><time>2026-04-07T08:30:46Z</time></trkpt><trkpt lat="33.51975829906866" lon="9.022255867503617"><ele>49.0</ele><time>2026-04-07T08:30:47Z</time></trkpt><trkpt lat="33.51999233640746" lon="9.022188885054495"><ele>49.0</ele><time>2026-04-07T08:30:48Z</time></trkpt><trkpt lat="33.520213857598726" lon="9.02212304285716"><ele>49.666666666666664</ele><time>2026-04-07T08:30:49Z</time></trkpt><trkpt lat="33.52042724576495" lon="9.022055459958601"><ele>50.33333333333333</ele><time>2026-04-07T08:30:50Z</time></trkpt><trkpt lat="33.52064332708747" lon="9.021989900059422"><ele>51.0</ele><time>2026-04-07T08:30:51Z</time></trkpt><trkpt lat="33.52085844726737" lon="9.021926909996761"><ele>51.0</ele><time>2026-04-07T08:30:52Z</time></trkpt><trkpt lat="33.52107333547389" lon="9.0218650047811"><ele>51.0</ele><time>2026-04-07T08:30:53Z</time></trkpt><trkpt lat="33.5212860255366" lon="9.021801394103472"><ele>51.0</ele><time>2026-04-07T08:30:54Z</time></trkpt><trkpt lat="33.52149834878267" lon="9.02174033235793"><ele>50.33333333333333</ele><time>2026-04-07T08:30:55Z</time></trkpt><trkpt lat="33.521703953345686" lon="9.02168170834603"><ele>49.666666666666664</ele><time>2026-04-07T08:30:56Z</time></trkpt><trkpt lat="33.521904154353976" lon="9.021622851259947"><ele>49.0</ele><time>2026-04-07T08:30:57Z</time></trkpt><trkpt lat="33.522102538215115" lon="9.021565400749656"><ele>48.666666666666664</ele><time>2026-04-07T08:30:58Z</time></trkpt><trkpt lat="33.52229941362465" lon="9.021508278222155"><ele>48.33333333333333</ele><time>2026-04-07T08:30:59Z</time></trkpt><trkpt lat="33.5225015319269" lon="9.021453023579223"><ele>48.0</ele><time>2026-04-07T08:31:00Z</time></trkpt><trkpt lat="33.52270698647741" lon="9.021394939818403"><ele>48.33333333333333</ele><time>2026-04-07T08:31:01Z</time></trkpt><trkpt lat="33.522908692471624" lon="9.021335617138432"><ele>48.666666666666664</ele><time>2026-04-07T08:31:02Z</time></trkpt><trkpt lat="33.523108285057155" lon="9.02127098950015"><ele>49.0</ele><time>2026-04-07T08:31:03Z</time></trkpt><trkpt lat="33.52330259658549" lon="9.021209257590197"><ele>49.0</ele><time>2026-04-07T08:31:04Z</time></trkpt><trkpt lat="33.52349395530328" lon="9.021150339984993"><ele>49.0</ele><time>2026-04-07T08:31:05Z</time></trkpt><trkpt lat="33.52369180647609" lon="9.021098161459928"><ele>49.0</ele><time>2026-04-07T08:31:06Z</time></trkpt><trkpt lat="33.52388765751216" lon="9.021043759386238"><ele>49.666666666666664</ele><time>2026-04-07T08:31:07Z</time></trkpt><trkpt lat="33.52408000338042" lon="9.020984703273573"><ele>50.33333333333333</ele><time>2026-04-07T08:31:08Z</time></trkpt><trkpt lat="33.52427580829108" lon="9.020923732615016"><ele>51.0</ele><time>2026-04-07T08:31:09Z</time></trkpt><trkpt lat="33.524469958872466" lon="9.020867996062538"><ele>49.666666666666664</ele><time>2026-04-07T08:31:10Z</time></trkpt><trkpt lat="33.524667516479106" lon="9.020811068725422"><ele>48.33333333333333</ele><time>2026-04-07T08:31:11Z</time></trkpt><trkpt lat="33.52486344339859" lon="9.020755889189992"><ele>47.0</ele><time>2026-04-07T08:31:12Z</time></trkpt><trkpt lat="33.525061745120354" lon="9.020699777480846"><ele>47.0</ele><time>2026-04-07T08:31:13Z</time></trkpt><trkpt lat="33.525261126251785" lon="9.020640182681172"><ele>47.0</ele><time>2026-04-07T08:31:14Z</time></trkpt><trkpt lat="33.52546193638422" lon="9.02058068720694"><ele>47.0</ele><time>2026-04-07T08:31:15.001Z</time></trkpt><trkpt lat="33.525667414618674" lon="9.020521081920654"><ele>47.0</ele><time>2026-04-07T08:31:16.001Z</time></trkpt><trkpt lat="33.525871897332834" lon="9.02046128030353"><ele>47.0</ele><time>2026-04-07T08:31:17.001Z</time></trkpt><trkpt lat="33.526079803837284" lon="9.020399674060975"><ele>47.0</ele><time>2026-04-07T08:31:18.001Z</time></trkpt><trkpt lat="33.52628676505425" lon="9.020336049672899"><ele>47.0</ele><time>2026-04-07T08:31:19.001Z</time></trkpt><trkpt lat="33.526496082213804" lon="9.020273825633502"><ele>47.0</ele><time>2026-04-07T08:31:20.001Z</time></trkpt><trkpt lat="33.52670649163045" lon="9.020212559478463"><ele>47.0</ele><time>2026-04-07T08:31:21.001Z</time></trkpt><trkpt lat="33.526916421052825" lon="9.020151803610661"><ele>46.33333333333333</ele><time>2026-04-07T08:31:22.001Z</time></trkpt><trkpt lat="33.52712742343801" lon="9.020089541985579"><ele>45.666666666666664</ele><time>2026-04-07T08:31:23.001Z</time></trkpt><trkpt lat="33.52733604914416" lon="9.020030584036059"><ele>45.0</ele><time>2026-04-07T08:31:24.001Z</time></trkpt><trkpt lat="33.527545801033845" lon="9.019972140901087"><ele>44.666666666666664</ele><time>2026-04-07T08:31:25.001Z</time></trkpt><trkpt lat="33.527755973173775" lon="9.019909853563048"><ele>44.33333333333333</ele><time>2026-04-07T08:31:26.001Z</time></trkpt><trkpt lat="33.52796518256911" lon="9.019842681298266"><ele>44.0</ele><time>2026-04-07T08:31:27.001Z</time></trkpt><trkpt lat="33.5281745716841" lon="9.019772842980794"><ele>43.666666666666664</ele><time>2026-04-07T08:31:28.001Z</time></trkpt><trkpt lat="33.52838706311982" lon="9.01970933663272"><ele>43.333333333333336</ele><time>2026-04-07T08:31:29.001Z</time></trkpt><trkpt lat="33.52859851687417" lon="9.019651293975981"><ele>43.0</ele><time>2026-04-07T08:31:30.001Z</time></trkpt><trkpt lat="33.52881017478418" lon="9.019591685756573"><ele>43.0</ele><time>2026-04-07T08:31:31.001Z</time></trkpt><trkpt lat="33.52902057706655" lon="9.019531745367189"><ele>43.0</ele><time>2026-04-07T08:31:32.001Z</time></trkpt><trkpt lat="33.529230350011574" lon="9.01947127399151"><ele>43.0</ele><time>2026-04-07T08:31:33.001Z</time></trkpt><trkpt lat="33.52943876320783" lon="9.019411036031824"><ele>43.0</ele><time>2026-04-07T08:31:34.001Z</time></trkpt><trkpt lat="33.52964731144313" lon="9.01935102557062"><ele>43.0</ele><time>2026-04-07T08:31:35.001Z</time></trkpt><trkpt lat="33.529857642400025" lon="9.019290093741574"><ele>43.0</ele><time>2026-04-07T08:31:36.001Z</time></trkpt><trkpt lat="33.530068377219955" lon="9.019228655686122"><ele>43.0</ele><time>2026-04-07T08:31:37.001Z</time></trkpt><trkpt lat="33.53027790467152" lon="9.019166170732886"><ele>43.0</ele><time>2026-04-07T08:31:38Z</time></trkpt><trkpt lat="33.530486676208746" lon="9.019101784939844"><ele>43.0</ele><time>2026-04-07T08:31:39Z</time></trkpt><trkpt lat="33.53069689580458" lon="9.019036666018534"><ele>42.333333333333336</ele><time>2026-04-07T08:31:40Z</time></trkpt><trkpt lat="33.530905514587886" lon="9.018971769222393"><ele>41.666666666666664</ele><time>2026-04-07T08:31:41Z</time></trkpt><trkpt lat="33.53111519648403" lon="9.018907188852518"><ele>41.0</ele><time>2026-04-07T08:31:42Z</time></trkpt><trkpt lat="33.5313239295413" lon="9.01884430757049"><ele>42.666666666666664</ele><time>2026-04-07T08:31:43Z</time></trkpt><trkpt lat="33.53153426425503" lon="9.018784591065703"><ele>44.333333333333336</ele><time>2026-04-07T08:31:44Z</time></trkpt><trkpt lat="33.53174374973552" lon="9.01872583283823"><ele>46.0</ele><time>2026-04-07T08:31:45Z</time></trkpt><trkpt lat="33.5319534088402" lon="9.018665140831786"><ele>45.66666666666667</ele><time>2026-04-07T08:31:46Z</time></trkpt><trkpt lat="33.53216123528233" lon="9.01860456007517"><ele>45.333333333333336</ele><time>2026-04-07T08:31:47Z</time></trkpt><trkpt lat="33.532371588856115" lon="9.018539479370636"><ele>45.0</ele><time>2026-04-07T08:31:48Z</time></trkpt><trkpt lat="33.532579289955216" lon="9.01847631921715"><ele>45.0</ele><time>2026-04-07T08:31:49Z</time></trkpt><trkpt lat="33.532786761703356" lon="9.018414596670349"><ele>45.0</ele><time>2026-04-07T08:31:50Z</time></trkpt><trkpt lat="33.53299768080365" lon="9.018354043159677"><ele>45.0</ele><time>2026-04-07T08:31:51Z</time></trkpt><trkpt lat="33.53320775121335" lon="9.018293824766769"><ele>45.0</ele><time>2026-04-07T08:31:52Z</time></trkpt><trkpt lat="33.53342022481124" lon="9.018234174426006"><ele>45.0</ele><time>2026-04-07T08:31:53Z</time></trkpt><trkpt lat="33.53363031255373" lon="9.018176614124208"><ele>45.0</ele><time>2026-04-07T08:31:54Z</time></trkpt><trkpt lat="33.53384152364271" lon="9.018115150478318"><ele>45.0</ele><time>2026-04-07T08:31:55Z</time></trkpt><trkpt lat="33.53405286813247" lon="9.018051269291782"><ele>45.0</ele><time>2026-04-07T08:31:56Z</time></trkpt><trkpt lat="33.53426340047499" lon="9.017988288089757"><ele>45.0</ele><time>2026-04-07T08:31:57Z</time></trkpt><trkpt lat="33.534475144969605" lon="9.01792259139831"><ele>44.666666666666664</ele><time>2026-04-07T08:31:58Z</time></trkpt><trkpt lat="33.53468433233463" lon="9.01786200063435"><ele>44.33333333333333</ele><time>2026-04-07T08:31:59Z</time></trkpt><trkpt lat="33.5348942081766" lon="9.01779850477549"><ele>44.0</ele><time>2026-04-07T08:32:00Z</time></trkpt><trkpt lat="33.53510444187307" lon="9.017737672357123"><ele>44.0</ele><time>2026-04-07T08:32:01Z</time></trkpt><trkpt lat="33.53531404796967" lon="9.017677232045447"><ele>44.0</ele><time>2026-04-07T08:32:02Z</time></trkpt><trkpt lat="33.53552392502704" lon="9.017613395764965"><ele>44.0</ele><time>2026-04-07T08:32:03Z</time></trkpt><trkpt lat="33.53573226627482" lon="9.017551105498631"><ele>44.33333333333333</ele><time>2026-04-07T08:32:04Z</time></trkpt><trkpt lat="33.53594077765282" lon="9.017489490750394"><ele>44.666666666666664</ele><time>2026-04-07T08:32:05Z</time></trkpt><trkpt lat="33.53614832583436" lon="9.017428954633692"><ele>45.0</ele><time>2026-04-07T08:32:06Z</time></trkpt><trkpt lat="33.53635887581815" lon="9.017368746703735"><ele>45.333333333333336</ele><time>2026-04-07T08:32:07Z</time></trkpt><trkpt lat="33.5365679586035" lon="9.017314314872927"><ele>45.66666666666667</ele><time>2026-04-07T08:32:08Z</time></trkpt><trkpt lat="33.53677994642966" lon="9.017261824498412"><ele>46.0</ele><time>2026-04-07T08:32:09Z</time></trkpt><trkpt lat="33.536994568234775" lon="9.017216308907141"><ele>46.333333333333336</ele><time>2026-04-07T08:32:10Z</time></trkpt><trkpt lat="33.53720923004032" lon="9.017174751406763"><ele>46.666666666666664</ele><time>2026-04-07T08:32:11Z</time></trkpt><trkpt lat="33.53742409217686" lon="9.017142719120788"><ele>47.0</ele><time>2026-04-07T08:32:12Z</time></trkpt><trkpt lat="33.53764156827633" lon="9.017117072402081"><ele>47.0</ele><time>2026-04-07T08:32:13Z</time></trkpt><trkpt lat="33.53785879968956" lon="9.01710206096871"><ele>47.0</ele><time>2026-04-07T08:32:14Z</time></trkpt><trkpt lat="33.538075518128714" lon="9.017087429397055"><ele>47.0</ele><time>2026-04-07T08:32:15Z</time></trkpt><trkpt lat="33.53829380612731" lon="9.017069938407735"><ele>48.0</ele><time>2026-04-07T08:32:16Z</time></trkpt><trkpt lat="33.53850879029455" lon="9.01705616200555"><ele>49.0</ele><time>2026-04-07T08:32:17Z</time></trkpt><trkpt lat="33.53872713335767" lon="9.017039215661203"><ele>50.0</ele><time>2026-04-07T08:32:18Z</time></trkpt><trkpt lat="33.538942678354864" lon="9.017020041278778"><ele>50.333333333333336</ele><time>2026-04-07T08:32:19Z</time></trkpt><trkpt lat="33.53915902031837" lon="9.016995616016688"><ele>50.66666666666667</ele><time>2026-04-07T08:32:20Z</time></trkpt><trkpt lat="33.539374055553345" lon="9.016970296215415"><ele>51.0</ele><time>2026-04-07T08:32:21Z</time></trkpt><trkpt lat="33.53958897050074" lon="9.016941219061781"><ele>51.0</ele><time>2026-04-07T08:32:22Z</time></trkpt><trkpt lat="33.53980232937026" lon="9.016906502446515"><ele>51.0</ele><time>2026-04-07T08:32:23Z</time></trkpt><trkpt lat="33.54001443983305" lon="9.016867081736248"><ele>51.0</ele><time>2026-04-07T08:32:24Z</time></trkpt><trkpt lat="33.540230183839384" lon="9.016819299203434"><ele>49.666666666666664</ele><time>2026-04-07T08:32:25Z</time></trkpt><trkpt lat="33.540443924748445" lon="9.016767740118695"><ele>48.33333333333333</ele><time>2026-04-07T08:32:26Z</time></trkpt><trkpt lat="33.540656717514196" lon="9.01671626217999"><ele>47.0</ele><time>2026-04-07T08:32:27Z</time></trkpt><trkpt lat="33.54086889222454" lon="9.016666427284365"><ele>47.0</ele><time>2026-04-07T08:32:28Z</time></trkpt><trkpt lat="33.5410808257075" lon="9.016616884398212"><ele>47.0</ele><time>2026-04-07T08:32:29Z</time></trkpt><trkpt lat="33.5412933742179" lon="9.016568225872025"><ele>47.0</ele><time>2026-04-07T08:32:30Z</time></trkpt><trkpt lat="33.54150367318383" lon="9.016518546830572"><ele>47.666666666666664</ele><time>2026-04-07T08:32:31Z</time></trkpt><trkpt lat="33.54171630471019" lon="9.016467708246838"><ele>48.33333333333333</ele><time>2026-04-07T08:32:32Z</time></trkpt><trkpt lat="33.541928234562725" lon="9.016416989395402"><ele>49.0</ele><time>2026-04-07T08:32:33Z</time></trkpt><trkpt lat="33.5421406545771" lon="9.016366126937385"><ele>49.33333333333333</ele><time>2026-04-07T08:32:34Z</time></trkpt><trkpt lat="33.54235280380669" lon="9.016316136354568"><ele>49.66666666666667</ele><time>2026-04-07T08:32:35Z</time></trkpt><trkpt lat="33.54256618180901" lon="9.01626404229204"><ele>50.0</ele><time>2026-04-07T08:32:36Z</time></trkpt><trkpt lat="33.542776385813816" lon="9.01621242514674"><ele>49.333333333333336</ele><time>2026-04-07T08:32:37Z</time></trkpt><trkpt lat="33.54299306778114" lon="9.016159952250714"><ele>48.66666666666667</ele><time>2026-04-07T08:32:38Z</time></trkpt><trkpt lat="33.54320511604195" lon="9.016109479023257"><ele>48.0</ele><time>2026-04-07T08:32:39Z</time></trkpt><trkpt lat="33.543418375564876" lon="9.016056281526096"><ele>48.0</ele><time>2026-04-07T08:32:40Z</time></trkpt><trkpt lat="33.543630940786116" lon="9.016004600014332"><ele>48.0</ele><time>2026-04-07T08:32:41Z</time></trkpt><trkpt lat="33.54384528621218" lon="9.015954587462586"><ele>48.0</ele><time>2026-04-07T08:32:42Z</time></trkpt><trkpt lat="33.54405630010449" lon="9.015906846148757"><ele>48.0</ele><time>2026-04-07T08:32:43Z</time></trkpt><trkpt lat="33.54427145404339" lon="9.01585810720363"><ele>48.0</ele><time>2026-04-07T08:32:44Z</time></trkpt><trkpt lat="33.54448520542797" lon="9.01581026182433"><ele>48.0</ele><time>2026-04-07T08:32:45Z</time></trkpt><trkpt lat="33.544702027714905" lon="9.015764664859999"><ele>48.0</ele><time>2026-04-07T08:32:46Z</time></trkpt><trkpt lat="33.54492152266791" lon="9.015720398044532"><ele>48.0</ele><time>2026-04-07T08:32:47Z</time></trkpt><trkpt lat="33.54513659832662" lon="9.01567978092318"><ele>48.0</ele><time>2026-04-07T08:32:48Z</time></trkpt><trkpt lat="33.54535477852743" lon="9.015639617456227"><ele>48.0</ele><time>2026-04-07T08:32:49Z</time></trkpt><trkpt lat="33.54557574424518" lon="9.015602337163623"><ele>48.0</ele><time>2026-04-07T08:32:50Z</time></trkpt><trkpt lat="33.5457920533218" lon="9.015555652306928"><ele>48.0</ele><time>2026-04-07T08:32:51Z</time></trkpt><trkpt lat="33.54600534468084" lon="9.01550447887246"><ele>48.0</ele><time>2026-04-07T08:32:52Z</time></trkpt><trkpt lat="33.54622461039015" lon="9.015451559079697"><ele>48.0</ele><time>2026-04-07T08:32:53Z</time></trkpt><trkpt lat="33.546439964053306" lon="9.015398044541373"><ele>48.0</ele><time>2026-04-07T08:32:54Z</time></trkpt><trkpt lat="33.546655036130865" lon="9.015345220905724"><ele>48.0</ele><time>2026-04-07T08:32:55Z</time></trkpt><trkpt lat="33.546870868980044" lon="9.015294735600602"><ele>48.0</ele><time>2026-04-07T08:32:56Z</time></trkpt><trkpt lat="33.54708754734169" lon="9.015245381668949"><ele>48.0</ele><time>2026-04-07T08:32:57Z</time></trkpt><trkpt lat="33.54730392826785" lon="9.015194751975779"><ele>48.0</ele><time>2026-04-07T08:32:58Z</time></trkpt><trkpt lat="33.54751941067829" lon="9.015142057235629"><ele>48.0</ele><time>2026-04-07T08:32:59Z</time></trkpt><trkpt lat="33.5477309314364" lon="9.015088885947073"><ele>48.0</ele><time>2026-04-07T08:33:00Z</time></trkpt><trkpt lat="33.54794648865839" lon="9.015039537430185"><ele>48.0</ele><time>2026-04-07T08:33:01Z</time></trkpt><trkpt lat="33.54816198550289" lon="9.014994853772418"><ele>48.0</ele><time>2026-04-07T08:33:02Z</time></trkpt><trkpt lat="33.548376566475575" lon="9.014948814769522"><ele>48.0</ele><time>2026-04-07T08:33:03Z</time></trkpt><trkpt lat="33.54859274995559" lon="9.014900178132452"><ele>49.0</ele><time>2026-04-07T08:33:04Z</time></trkpt><trkpt lat="33.548804786755916" lon="9.014848562574514"><ele>50.0</ele><time>2026-04-07T08:33:05Z</time></trkpt><trkpt lat="33.549020115484126" lon="9.014797155665535"><ele>51.0</ele><time>2026-04-07T08:33:06Z</time></trkpt><trkpt lat="33.54923479697866" lon="9.0147443257745"><ele>51.0</ele><time>2026-04-07T08:33:07Z</time></trkpt><trkpt lat="33.54945059969506" lon="9.014691933526375"><ele>51.0</ele><time>2026-04-07T08:33:08Z</time></trkpt><trkpt lat="33.54966304727208" lon="9.014639877637654"><ele>51.0</ele><time>2026-04-07T08:33:09Z</time></trkpt><trkpt lat="33.54987457059598" lon="9.01458459900226"><ele>50.0</ele><time>2026-04-07T08:33:10Z</time></trkpt><trkpt lat="33.5500876634047" lon="9.01452896698186"><ele>49.0</ele><time>2026-04-07T08:33:11Z</time></trkpt><trkpt lat="33.5503011259558" lon="9.014477719807806"><ele>48.0</ele><time>2026-04-07T08:33:12Z</time></trkpt><trkpt lat="33.5505167178751" lon="9.014431704027043"><ele>47.666666666666664</ele><time>2026-04-07T08:33:13Z</time></trkpt><trkpt lat="33.55072794237437" lon="9.014387383187655"><ele>47.33333333333333</ele><time>2026-04-07T08:33:14Z</time></trkpt><trkpt lat="33.55094303885695" lon="9.014341072328289"><ele>47.0</ele><time>2026-04-07T08:33:15Z</time></trkpt><trkpt lat="33.55115402158915" lon="9.014294763486113"><ele>45.666666666666664</ele><time>2026-04-07T08:33:16Z</time></trkpt><trkpt lat="33.55136934734588" lon="9.014248464848583"><ele>44.333333333333336</ele><time>2026-04-07T08:33:17Z</time></trkpt><trkpt lat="33.55158338931182" lon="9.014200327483893"><ele>43.0</ele><time>2026-04-07T08:33:18Z</time></trkpt><trkpt lat="33.55178320890188" lon="9.014158326883557"><ele>43.333333333333336</ele><time>2026-04-07T08:33:19Z</time></trkpt><trkpt lat="33.5519630394295" lon="9.014122782555988"><ele>43.666666666666664</ele><time>2026-04-07T08:33:20Z</time></trkpt><trkpt lat="33.55213943143358" lon="9.014093467515806"><ele>44.0</ele><time>2026-04-07T08:33:21.001Z</time></trkpt><trkpt lat="33.552308898250104" lon="9.014068361332079"><ele>44.0</ele><time>2026-04-07T08:33:22.001Z</time></trkpt><trkpt lat="33.55247267445343" lon="9.01404656618743"><ele>44.0</ele><time>2026-04-07T08:33:23.001Z</time></trkpt><trkpt lat="33.55263775584724" lon="9.014026389189418"><ele>44.0</ele><time>2026-04-07T08:33:24.001Z</time></trkpt><trkpt lat="33.55281117646945" lon="9.01401433170527"><ele>44.33333333333333</ele><time>2026-04-07T08:33:25.001Z</time></trkpt><trkpt lat="33.552987542479606" lon="9.014005953395467"><ele>44.666666666666664</ele><time>2026-04-07T08:33:26.001Z</time></trkpt><trkpt lat="33.553169047668526" lon="9.013997606330886"><ele>45.0</ele><time>2026-04-07T08:33:27.001Z</time></trkpt><trkpt lat="33.55335016759664" lon="9.013989382635986"><ele>45.0</ele><time>2026-04-07T08:33:28.001Z</time></trkpt><trkpt lat="33.55352818725006" lon="9.013984052557655"><ele>45.0</ele><time>2026-04-07T08:33:29.001Z</time></trkpt><trkpt lat="33.5537016158312" lon="9.01398827374126"><ele>45.0</ele><time>2026-04-07T08:33:30.001Z</time></trkpt><trkpt lat="33.553870873434704" lon="9.013999095490124"><ele>45.333333333333336</ele><time>2026-04-07T08:33:31.001Z</time></trkpt><trkpt lat="33.55403821359664" lon="9.014007287199428"><ele>45.66666666666667</ele><time>2026-04-07T08:33:32.001Z</time></trkpt><trkpt lat="33.554206828845075" lon="9.014021078571677"><ele>46.0</ele><time>2026-04-07T08:33:33.001Z</time></trkpt><trkpt lat="33.55437338235408" lon="9.01403591758573"><ele>46.0</ele><time>2026-04-07T08:33:34.001Z</time></trkpt><trkpt lat="33.55454154467381" lon="9.014047991628683"><ele>46.0</ele><time>2026-04-07T08:33:35.001Z</time></trkpt><trkpt lat="33.55470819458801" lon="9.01406233219039"><ele>46.0</ele><time>2026-04-07T08:33:36.001Z</time></trkpt><trkpt lat="33.554873810383505" lon="9.014077637335607"><ele>46.0</ele><time>2026-04-07T08:33:37.001Z</time></trkpt><trkpt lat="33.55504002644443" lon="9.014090510032966"><ele>46.0</ele><time>2026-04-07T08:33:38.001Z</time></trkpt><trkpt lat="33.55520406367681" lon="9.014102375635662"><ele>46.0</ele><time>2026-04-07T08:33:39Z</time></trkpt><trkpt lat="33.555368191722856" lon="9.014115038825707"><ele>45.333333333333336</ele><time>2026-04-07T08:33:40Z</time></trkpt><trkpt lat="33.5555365110611" lon="9.014127084660682"><ele>44.666666666666664</ele><time>2026-04-07T08:33:41Z</time></trkpt><trkpt lat="33.555705456021535" lon="9.014140436611717"><ele>44.0</ele><time>2026-04-07T08:33:42Z</time></trkpt><trkpt lat="33.5558780393526" lon="9.014152187565852"><ele>43.666666666666664</ele><time>2026-04-07T08:33:43Z</time></trkpt><trkpt lat="33.55605223495624" lon="9.014163722043675"><ele>43.333333333333336</ele><time>2026-04-07T08:33:44Z</time></trkpt><trkpt lat="33.55622764208127" lon="9.014178706468755"><ele>43.0</ele><time>2026-04-07T08:33:45Z</time></trkpt><trkpt lat="33.5564057460963" lon="9.01419297521074"><ele>42.66666666666667</ele><time>2026-04-07T08:33:46Z</time></trkpt><trkpt lat="33.5565847878157" lon="9.014204551414307"><ele>42.333333333333336</ele><time>2026-04-07T08:33:47Z</time></trkpt><trkpt lat="33.556762718020096" lon="9.014217023851755"><ele>42.0</ele><time>2026-04-07T08:33:48.001Z</time></trkpt><trkpt lat="33.556943157052096" lon="9.014228258739518"><ele>41.666666666666664</ele><time>2026-04-07T08:33:49.001Z</time></trkpt><trkpt lat="33.55712884472327" lon="9.014241510111576"><ele>41.33333333333333</ele><time>2026-04-07T08:33:50.001Z</time></trkpt><trkpt lat="33.55731369022178" lon="9.014251612449561"><ele>41.0</ele><time>2026-04-07T08:33:51.001Z</time></trkpt><trkpt lat="33.55749922542047" lon="9.014262804302216"><ele>41.0</ele><time>2026-04-07T08:33:52.001Z</time></trkpt><trkpt lat="33.55768415083346" lon="9.014277081077752"><ele>41.0</ele><time>2026-04-07T08:33:53.001Z</time></trkpt><trkpt lat="33.557868077772945" lon="9.014292047750736"><ele>41.0</ele><time>2026-04-07T08:33:54.001Z</time></trkpt><trkpt lat="33.55805121260618" lon="9.014307592447333"><ele>41.666666666666664</ele><time>2026-04-07T08:33:55.001Z</time></trkpt><trkpt lat="33.558232978667384" lon="9.014321150248033"><ele>42.333333333333336</ele><time>2026-04-07T08:33:56.001Z</time></trkpt><trkpt lat="33.558417242075635" lon="9.014334418931025"><ele>43.0</ele><time>2026-04-07T08:33:57.001Z</time></trkpt><trkpt lat="33.5585998007815" lon="9.014347612249278"><ele>42.333333333333336</ele><time>2026-04-07T08:33:58.001Z</time></trkpt><trkpt lat="33.55878363383383" lon="9.014361581740435"><ele>41.666666666666664</ele><time>2026-04-07T08:33:59.001Z</time></trkpt><trkpt lat="33.5589652428349" lon="9.01437723135002"><ele>41.0</ele><time>2026-04-07T08:34:00.001Z</time></trkpt><trkpt lat="33.5591459907452" lon="9.014393287808042"><ele>41.0</ele><time>2026-04-07T08:34:01.001Z</time></trkpt><trkpt lat="33.559327745907" lon="9.014408365295623"><ele>41.0</ele><time>2026-04-07T08:34:02.001Z</time></trkpt><trkpt lat="33.559511551266766" lon="9.014420810231249"><ele>41.0</ele><time>2026-04-07T08:34:03.001Z</time></trkpt><trkpt lat="33.55969368321741" lon="9.014429502113767"><ele>41.33333333333333</ele><time>2026-04-07T08:34:04.001Z</time></trkpt><trkpt lat="33.5598674832533" lon="9.014440131069016"><ele>41.666666666666664</ele><time>2026-04-07T08:34:05.001Z</time></trkpt><trkpt lat="33.56003878335701" lon="9.014452421770812"><ele>42.0</ele><time>2026-04-07T08:34:06.001Z</time></trkpt><trkpt lat="33.56020636471245" lon="9.014466070316836"><ele>42.0</ele><time>2026-04-07T08:34:07.001Z</time></trkpt><trkpt lat="33.56037456802196" lon="9.014477225234067"><ele>42.0</ele><time>2026-04-07T08:34:08.001Z</time></trkpt><trkpt lat="33.56054241544144" lon="9.014490106021288"><ele>42.0</ele><time>2026-04-07T08:34:09.001Z</time></trkpt><trkpt lat="33.56070965690312" lon="9.014505211464238"><ele>42.0</ele><time>2026-04-07T08:34:10.001Z</time></trkpt><trkpt lat="33.56087689295087" lon="9.014513847011072"><ele>42.0</ele><time>2026-04-07T08:34:11.001Z</time></trkpt><trkpt lat="33.56104579632938" lon="9.014512961590901"><ele>42.0</ele><time>2026-04-07T08:34:12.001Z</time></trkpt><trkpt lat="33.56121246387486" lon="9.014500562111206"><ele>42.666666666666664</ele><time>2026-04-07T08:34:13.001Z</time></trkpt><trkpt lat="33.56137858157928" lon="9.014485039272328"><ele>43.33333333333333</ele><time>2026-04-07T08:34:14.001Z</time></trkpt><trkpt lat="33.561543204548336" lon="9.014461415811043"><ele>44.0</ele><time>2026-04-07T08:34:15.001Z</time></trkpt><trkpt lat="33.56170878529645" lon="9.014427444216523"><ele>44.0</ele><time>2026-04-07T08:34:16.001Z</time></trkpt><trkpt lat="33.56186709738413" lon="9.014391058343792"><ele>44.0</ele><time>2026-04-07T08:34:17.001Z</time></trkpt><trkpt lat="33.562006068544505" lon="9.01435679607013"><ele>44.0</ele><time>2026-04-07T08:34:18.001Z</time></trkpt><trkpt lat="33.56212589152091" lon="9.014321999103196"><ele>44.0</ele><time>2026-04-07T08:34:19.001Z</time></trkpt><trkpt lat="33.56223989838747" lon="9.014286604301061"><ele>43.800000000000004</ele><time>2026-04-07T08:34:20.001Z</time></trkpt><trkpt lat="33.562353386514246" lon="9.014247877128836"><ele>43.6</ele><time>2026-04-07T08:34:21.001Z</time></trkpt><trkpt lat="33.56245739166159" lon="9.014204660576866"><ele>43.4</ele><time>2026-04-07T08:34:22.001Z</time></trkpt><trkpt lat="33.56254824950941" lon="9.0141666403247"><ele>43.2</ele><time>2026-04-07T08:34:23.001Z</time></trkpt><trkpt lat="33.56262934363851" lon="9.014129901339672"><ele>43.0</ele><time>2026-04-07T08:34:24.001Z</time></trkpt><trkpt lat="33.56270157687286" lon="9.014095421700123"><ele>43.00000000000001</ele><time>2026-04-07T08:34:25.001Z</time></trkpt><trkpt lat="33.56277699314049" lon="9.014066212441847"><ele>43.0</ele><time>2026-04-07T08:34:26.001Z</time></trkpt><trkpt lat="33.56285161545535" lon="9.014035298327656"><ele>43.0</ele><time>2026-04-07T08:34:27.001Z</time></trkpt><trkpt lat="33.562918262772826" lon="9.014003074564922"><ele>43.0</ele><time>2026-04-07T08:34:28.001Z</time></trkpt><trkpt lat="33.56298107247938" lon="9.013974196977422"><ele>43.0</ele><time>2026-04-07T08:34:29.001Z</time></trkpt><trkpt lat="33.56304044170741" lon="9.013947579828626"><ele>43.00000000000001</ele><time>2026-04-07T08:34:30.001Z</time></trkpt><trkpt lat="33.56309922501121" lon="9.013919774489377"><ele>43.0</ele><time>2026-04-07T08:34:31.001Z</time></trkpt><trkpt lat="33.56316101576843" lon="9.013890130809814"><ele>43.0</ele><time>2026-04-07T08:34:32.001Z</time></trkpt><trkpt lat="33.56322530630573" lon="9.013858244873655"><ele>43.0</ele><time>2026-04-07T08:34:33.001Z</time></trkpt><trkpt lat="33.56329539383836" lon="9.013822757240089"><ele>43.0</ele><time>2026-04-07T08:34:34.001Z</time></trkpt><trkpt lat="33.563367620684794" lon="9.013790338608873"><ele>43.0</ele><time>2026-04-07T08:34:35.001Z</time></trkpt><trkpt lat="33.56344457612537" lon="9.01375665315987"><ele>43.0</ele><time>2026-04-07T08:34:36.001Z</time></trkpt><trkpt lat="33.563524481855566" lon="9.01371990642523"><ele>43.0</ele><time>2026-04-07T08:34:37.001Z</time></trkpt><trkpt lat="33.563607971012715" lon="9.01368333434687"><ele>43.0</ele><time>2026-04-07T08:34:38.001Z</time></trkpt><trkpt lat="33.56369466074624" lon="9.013649329839305"><ele>43.0</ele><time>2026-04-07T08:34:39.001Z</time></trkpt><trkpt lat="33.563777194054104" lon="9.013612540619777"><ele>43.0</ele><time>2026-04-07T08:34:40.001Z</time></trkpt><trkpt lat="33.56386452432027" lon="9.01357179722852"><ele>43.0</ele><time>2026-04-07T08:34:41.001Z</time></trkpt><trkpt lat="33.56395338038451" lon="9.013534889291186"><ele>43.0</ele><time>2026-04-07T08:34:42.001Z</time></trkpt><trkpt lat="33.564042281929545" lon="9.013495825732969"><ele>43.4</ele><time>2026-04-07T08:34:43.001Z</time></trkpt><trkpt lat="33.56413156064893" lon="9.013450780214848"><ele>43.8</ele><time>2026-04-07T08:34:44.001Z</time></trkpt><trkpt lat="33.56422440086793" lon="9.013407258787394"><ele>44.2</ele><time>2026-04-07T08:34:45.001Z</time></trkpt><trkpt lat="33.56431607402509" lon="9.013364156679062"><ele>44.6</ele><time>2026-04-07T08:34:46.001Z</time></trkpt><trkpt lat="33.56440912056994" lon="9.013317575458235"><ele>45.0</ele><time>2026-04-07T08:34:47.001Z</time></trkpt><trkpt lat="33.5645034060611" lon="9.013273809754295"><ele>45.2</ele><time>2026-04-07T08:34:48.001Z</time></trkpt><trkpt lat="33.564591672695684" lon="9.013237592814813"><ele>45.4</ele><time>2026-04-07T08:34:49.001Z</time></trkpt><trkpt lat="33.56467963912068" lon="9.013201973709725"><ele>45.599999999999994</ele><time>2026-04-07T08:34:50.001Z</time></trkpt><trkpt lat="33.56476587227748" lon="9.013160160989758"><ele>45.8</ele><time>2026-04-07T08:34:51.001Z</time></trkpt><trkpt lat="33.564850901904634" lon="9.013116933564294"><ele>46.0</ele><time>2026-04-07T08:34:52.001Z</time></trkpt><trkpt lat="33.564945070637364" lon="9.013071250522838"><ele>46.0</ele><time>2026-04-07T08:34:53.001Z</time></trkpt><trkpt lat="33.56505576626913" lon="9.01301678107929"><ele>46.0</ele><time>2026-04-07T08:34:54.001Z</time></trkpt><trkpt lat="33.565149501887404" lon="9.012970432575745"><ele>46.0</ele><time>2026-04-07T08:34:55.001Z</time></trkpt><trkpt lat="33.56523986494358" lon="9.012929800829639"><ele>46.0</ele><time>2026-04-07T08:34:56.001Z</time></trkpt><trkpt lat="33.565334108275295" lon="9.012887658234394"><ele>46.0</ele><time>2026-04-07T08:34:57.001Z</time></trkpt><trkpt lat="33.565431894720106" lon="9.012844100357128"><ele>45.8</ele><time>2026-04-07T08:34:58.001Z</time></trkpt><trkpt lat="33.56552701862495" lon="9.01279747718404"><ele>45.599999999999994</ele><time>2026-04-07T08:34:59.001Z</time></trkpt><trkpt lat="33.56562221113915" lon="9.012750732125394"><ele>45.4</ele><time>2026-04-07T08:35:00.001Z</time></trkpt><trkpt lat="33.56571641053306" lon="9.012707617186381"><ele>45.2</ele><time>2026-04-07T08:35:01.001Z</time></trkpt><trkpt lat="33.56580633245849" lon="9.01266712040849"><ele>45.0</ele><time>2026-04-07T08:35:02.001Z</time></trkpt><trkpt lat="33.56589748603023" lon="9.012627960404663"><ele>45.0</ele><time>2026-04-07T08:35:03.001Z</time></trkpt><trkpt lat="33.56598631405028" lon="9.012590954695117"><ele>45.0</ele><time>2026-04-07T08:35:04.001Z</time></trkpt><trkpt lat="33.566079809983925" lon="9.012545751259257"><ele>45.0</ele><time>2026-04-07T08:35:05.001Z</time></trkpt><trkpt lat="33.56617703142019" lon="9.012496117270164"><ele>45.0</ele><time>2026-04-07T08:35:06.001Z</time></trkpt><trkpt lat="33.56627706344667" lon="9.01244985164743"><ele>45.0</ele><time>2026-04-07T08:35:07.001Z</time></trkpt><trkpt lat="33.566383230400916" lon="9.01240333926792"><ele>45.25</ele><time>2026-04-07T08:35:08.001Z</time></trkpt><trkpt lat="33.5664889750529" lon="9.01235215541948"><ele>45.5</ele><time>2026-04-07T08:35:09.001Z</time></trkpt><trkpt lat="33.56659772889655" lon="9.012299319681258"><ele>45.75</ele><time>2026-04-07T08:35:10.001Z</time></trkpt><trkpt lat="33.56670685575751" lon="9.012248110451335"><ele>46.0</ele><time>2026-04-07T08:35:11.001Z</time></trkpt><trkpt lat="33.566817046909314" lon="9.01219850806675"><ele>46.0</ele><time>2026-04-07T08:35:12.001Z</time></trkpt><trkpt lat="33.56692566935144" lon="9.012150011357733"><ele>46.0</ele><time>2026-04-07T08:35:13.001Z</time></trkpt><trkpt lat="33.56703335589071" lon="9.012096906375845"><ele>46.0</ele><time>2026-04-07T08:35:14.001Z</time></trkpt><trkpt lat="33.567131759527165" lon="9.012050111595514"><ele>46.0</ele><time>2026-04-07T08:35:15.001Z</time></trkpt><trkpt lat="33.567220183754436" lon="9.012008816877783"><ele>46.0</ele><time>2026-04-07T08:35:16.001Z</time></trkpt><trkpt lat="33.5673216865657" lon="9.011958423084685"><ele>45.75</ele><time>2026-04-07T08:35:17.001Z</time></trkpt><trkpt lat="33.56742949230055" lon="9.011908441176377"><ele>45.5</ele><time>2026-04-07T08:35:18.001Z</time></trkpt><trkpt lat="33.56752998539575" lon="9.011858556736419"><ele>45.25</ele><time>2026-04-07T08:35:19.001Z</time></trkpt><trkpt lat="33.56763301205741" lon="9.011807509724656"><ele>45.0</ele><time>2026-04-07T08:35:20.001Z</time></trkpt><trkpt lat="33.5677425180799" lon="9.011758931932548"><ele>45.0</ele><time>2026-04-07T08:35:21.001Z</time></trkpt><trkpt lat="33.56785629127906" lon="9.0117101338001"><ele>45.0</ele><time>2026-04-07T08:35:22.001Z</time></trkpt><trkpt lat="33.56797392191362" lon="9.011670800315223"><ele>45.0</ele><time>2026-04-07T08:35:23.001Z</time></trkpt><trkpt lat="33.56809504376701" lon="9.011648174772718"><ele>45.0</ele><time>2026-04-07T08:35:24.001Z</time></trkpt><trkpt lat="33.56821525254003" lon="9.01164157431701"><ele>45.4</ele><time>2026-04-07T08:35:25.001Z</time></trkpt><trkpt lat="33.56832400207199" lon="9.01164834827376"><ele>45.8</ele><time>2026-04-07T08:35:26.001Z</time></trkpt><trkpt lat="33.56842279563648" lon="9.011662658242013"><ele>46.2</ele><time>2026-04-07T08:35:27.001Z</time></trkpt><trkpt lat="33.56851492155132" lon="9.011687490200883"><ele>46.6</ele><time>2026-04-07T08:35:28.001Z</time></trkpt><trkpt lat="33.56860254889802" lon="9.011720658902199"><ele>47.0</ele><time>2026-04-07T08:35:29.001Z</time></trkpt><trkpt lat="33.56868623031179" lon="9.011762317525676"><ele>47.6</ele><time>2026-04-07T08:35:30.001Z</time></trkpt><trkpt lat="33.568772703882246" lon="9.011815165826162"><ele>48.2</ele><time>2026-04-07T08:35:31.001Z</time></trkpt><trkpt lat="33.56885745119785" lon="9.011875594523"><ele>48.8</ele><time>2026-04-07T08:35:32.001Z</time></trkpt><trkpt lat="33.56893730041866" lon="9.011946076650844"><ele>49.4</ele><time>2026-04-07T08:35:33.001Z</time></trkpt><trkpt lat="33.569013819303436" lon="9.01202349698152"><ele>50.0</ele><time>2026-04-07T08:35:34.001Z</time></trkpt><trkpt lat="33.56908534159103" lon="9.01210661119331"><ele>50.00000000000001</ele><time>2026-04-07T08:35:35.001Z</time></trkpt><trkpt lat="33.56914381007652" lon="9.01219185144196"><ele>50.0</ele><time>2026-04-07T08:35:36.001Z</time></trkpt><trkpt lat="33.56919397398633" lon="9.012271860185486"><ele>50.0</ele><time>2026-04-07T08:35:37.001Z</time></trkpt><trkpt lat="33.56923978089981" lon="9.012348688827954"><ele>50.0</ele><time>2026-04-07T08:35:38.001Z</time></trkpt><trkpt lat="33.569276979430356" lon="9.012423549808101"><ele>50.00000000000001</ele><time>2026-04-07T08:35:39.001Z</time></trkpt><trkpt lat="33.569314033727714" lon="9.01249672193157"><ele>50.0</ele><time>2026-04-07T08:35:40.001Z</time></trkpt><trkpt lat="33.5693509959178" lon="9.012575747655205"><ele>50.00000000000001</ele><time>2026-04-07T08:35:41.001Z</time></trkpt><trkpt lat="33.56938456828942" lon="9.01265886216556"><ele>50.0</ele><time>2026-04-07T08:35:42.001Z</time></trkpt><trkpt lat="33.56941902683051" lon="9.012739878282446"><ele>50.0</ele><time>2026-04-07T08:35:43.001Z</time></trkpt><trkpt lat="33.56945858212537" lon="9.01281933608554"><ele>50.0</ele><time>2026-04-07T08:35:44.001Z</time></trkpt><trkpt lat="33.569497229318586" lon="9.012898462737539"><ele>50.0</ele><time>2026-04-07T08:35:45.001Z</time></trkpt><trkpt lat="33.56953423247112" lon="9.01297593663965"><ele>50.00000000000001</ele><time>2026-04-07T08:35:46.001Z</time></trkpt><trkpt lat="33.56956592908987" lon="9.013045396351409"><ele>50.0</ele><time>2026-04-07T08:35:47.001Z</time></trkpt><trkpt lat="33.56961938319315" lon="9.013173412784875"><ele>50.0</ele><time>2026-04-07T08:35:49.001Z</time></trkpt><trkpt lat="33.56964814625887" lon="9.013245547496188"><ele>50.0</ele><time>2026-04-07T08:35:50.001Z</time></trkpt><trkpt lat="33.56967870633406" lon="9.013322232668678"><ele>50.0</ele><time>2026-04-07T08:35:51.001Z</time></trkpt><trkpt lat="33.569736962541725" lon="9.01344922441749"><ele>50.0</ele><time>2026-04-07T08:35:53.001Z</time></trkpt><trkpt lat="33.56979503135054" lon="9.013578903564003"><ele>50.0</ele><time>2026-04-07T08:35:55.001Z</time></trkpt><trkpt lat="33.56990388207797" lon="9.013656102919294"><ele>50.0</ele><time>2026-04-07T08:35:57.001Z</time></trkpt><trkpt lat="33.56998656190829" lon="9.013646634867975"><ele>50.0</ele><time>2026-04-07T08:35:58.001Z</time></trkpt><trkpt lat="33.570090600219416" lon="9.013620036367447"><ele>50.0</ele><time>2026-04-07T08:35:59.001Z</time></trkpt><trkpt lat="33.57019167918461" lon="9.013603820068697"><ele>50.0</ele><time>2026-04-07T08:36:00.001Z</time></trkpt><trkpt lat="33.57029229515131" lon="9.0135884189631"><ele>50.0</ele><time>2026-04-07T08:36:01.001Z</time></trkpt><trkpt lat="33.57039420839658" lon="9.013570272267595"><ele>50.0</ele><time>2026-04-07T08:36:02.001Z</time></trkpt><trkpt lat="33.57049878401504" lon="9.013549261492804"><ele>50.0</ele><time>2026-04-07T08:36:03.001Z</time></trkpt><trkpt lat="33.57060241673413" lon="9.013530262414735"><ele>50.0</ele><time>2026-04-07T08:36:04.001Z</time></trkpt><trkpt lat="33.57069708495868" lon="9.013511400629413"><ele>50.0</ele><time>2026-04-07T08:36:05.001Z</time></trkpt><trkpt lat="33.57078551279592" lon="9.013496683245485"><ele>50.0</ele><time>2026-04-07T08:36:06.001Z</time></trkpt><trkpt lat="33.57087599202629" lon="9.013482307729978"><ele>50.00000000000001</ele><time>2026-04-07T08:36:07.001Z</time></trkpt><trkpt lat="33.57096360321287" lon="9.01347158932437"><ele>50.0</ele><time>2026-04-07T08:36:08.001Z</time></trkpt><trkpt lat="33.571050034067596" lon="9.013456997698174"><ele>50.0</ele><time>2026-04-07T08:36:09.001Z</time></trkpt><trkpt lat="33.571135510593315" lon="9.013439199704814"><ele>50.0</ele><time>2026-04-07T08:36:10.001Z</time></trkpt><trkpt lat="33.57122671080895" lon="9.01342607007559"><ele>50.00000000000001</ele><time>2026-04-07T08:36:11.001Z</time></trkpt><trkpt lat="33.57132071013901" lon="9.01340906016972"><ele>50.0</ele><time>2026-04-07T08:36:12.001Z</time></trkpt><trkpt lat="33.57141970716549" lon="9.013392862227715"><ele>49.833333333333336</ele><time>2026-04-07T08:36:13.001Z</time></trkpt><trkpt lat="33.571516117866395" lon="9.013380603515683"><ele>49.66666666666667</ele><time>2026-04-07T08:36:14.001Z</time></trkpt><trkpt lat="33.57160580922635" lon="9.013363166674564"><ele>49.5</ele><time>2026-04-07T08:36:15.001Z</time></trkpt><trkpt lat="33.571684638048815" lon="9.013346676258335"><ele>49.33333333333333</ele><time>2026-04-07T08:36:16.001Z</time></trkpt><trkpt lat="33.571764655602735" lon="9.013332900700131"><ele>49.166666666666664</ele><time>2026-04-07T08:36:17.001Z</time></trkpt><trkpt lat="33.57184908534897" lon="9.013321993178982"><ele>49.0</ele><time>2026-04-07T08:36:18.001Z</time></trkpt><trkpt lat="33.57193899510777" lon="9.013308335262797"><ele>48.6</ele><time>2026-04-07T08:36:19.001Z</time></trkpt><trkpt lat="33.572033604454276" lon="9.013293201111527"><ele>48.2</ele><time>2026-04-07T08:36:20.001Z</time></trkpt><trkpt lat="33.57213099032553" lon="9.013279499461472"><ele>47.800000000000004</ele><time>2026-04-07T08:36:21.001Z</time></trkpt><trkpt lat="33.572233664880834" lon="9.013267022075127"><ele>47.400000000000006</ele><time>2026-04-07T08:36:22.001Z</time></trkpt><trkpt lat="33.5723400350895" lon="9.01325085716817"><ele>47.0</ele><time>2026-04-07T08:36:23.001Z</time></trkpt><trkpt lat="33.57244899625577" lon="9.01323132733626"><ele>47.0</ele><time>2026-04-07T08:36:24.001Z</time></trkpt><trkpt lat="33.57255941744423" lon="9.013212733255553"><ele>47.0</ele><time>2026-04-07T08:36:25.001Z</time></trkpt><trkpt lat="33.5726728426262" lon="9.01319646557676"><ele>47.0</ele><time>2026-04-07T08:36:26.001Z</time></trkpt><trkpt lat="33.57278964303391" lon="9.013178907299187"><ele>47.0</ele><time>2026-04-07T08:36:27.001Z</time></trkpt><trkpt lat="33.57290919784346" lon="9.013155882071048"><ele>46.75</ele><time>2026-04-07T08:36:28.001Z</time></trkpt><trkpt lat="33.573029248278125" lon="9.013128589455171"><ele>46.5</ele><time>2026-04-07T08:36:29.001Z</time></trkpt><trkpt lat="33.573153583215266" lon="9.013109748303417"><ele>46.25</ele><time>2026-04-07T08:36:30.001Z</time></trkpt><trkpt lat="33.573289057901285" lon="9.01309068590843"><ele>46.0</ele><time>2026-04-07T08:36:31.001Z</time></trkpt><trkpt lat="33.57343704416544" lon="9.013067369951814"><ele>46.0</ele><time>2026-04-07T08:36:32.001Z</time></trkpt><trkpt lat="33.57358957959921" lon="9.013037574342436"><ele>46.0</ele><time>2026-04-07T08:36:33.001Z</time></trkpt><trkpt lat="33.57375118005098" lon="9.013015046548118"><ele>46.0</ele><time>2026-04-07T08:36:34.001Z</time></trkpt><trkpt lat="33.573912220656865" lon="9.012991145636464"><ele>46.0</ele><time>2026-04-07T08:36:35.001Z</time></trkpt><trkpt lat="33.57407685375452" lon="9.012968154101472"><ele>46.0</ele><time>2026-04-07T08:36:36.001Z</time></trkpt><trkpt lat="33.57423135376574" lon="9.012942744373504"><ele>46.0</ele><time>2026-04-07T08:36:37.001Z</time></trkpt><trkpt lat="33.574378776397694" lon="9.01291610190108"><ele>46.25</ele><time>2026-04-07T08:36:38.001Z</time></trkpt><trkpt lat="33.57452283408367" lon="9.01289187845984"><ele>46.5</ele><time>2026-04-07T08:36:39.001Z</time></trkpt><trkpt lat="33.57466554361343" lon="9.01286901114237"><ele>46.75</ele><time>2026-04-07T08:36:40.001Z</time></trkpt><trkpt lat="33.574808899754366" lon="9.012845368661218"><ele>47.0</ele><time>2026-04-07T08:36:41.001Z</time></trkpt><trkpt lat="33.574951049004945" lon="9.012823154514606"><ele>47.0</ele><time>2026-04-07T08:36:42.001Z</time></trkpt><trkpt lat="33.575093334749376" lon="9.012803627905377"><ele>47.0</ele><time>2026-04-07T08:36:43.001Z</time></trkpt><trkpt lat="33.57522917014703" lon="9.012778596439661"><ele>47.0</ele><time>2026-04-07T08:36:44.001Z</time></trkpt><trkpt lat="33.5753523373728" lon="9.012752902200077"><ele>47.0</ele><time>2026-04-07T08:36:45.001Z</time></trkpt><trkpt lat="33.57547126603321" lon="9.012735271227644"><ele>46.5</ele><time>2026-04-07T08:36:46.001Z</time></trkpt><trkpt lat="33.57557778299559" lon="9.01271920844321"><ele>46.0</ele><time>2026-04-07T08:36:47.001Z</time></trkpt><trkpt lat="33.575697928681514" lon="9.01270261636179"><ele>45.5</ele><time>2026-04-07T08:36:48.001Z</time></trkpt><trkpt lat="33.57581896210372" lon="9.012689454106276"><ele>45.0</ele><time>2026-04-07T08:36:49.001Z</time></trkpt><trkpt lat="33.57593311717305" lon="9.012672511524318"><ele>45.0</ele><time>2026-04-07T08:36:50.001Z</time></trkpt><trkpt lat="33.57605210397125" lon="9.012651558292601"><ele>45.0</ele><time>2026-04-07T08:36:51.001Z</time></trkpt><trkpt lat="33.57617158973396" lon="9.012629165143267"><ele>45.0</ele><time>2026-04-07T08:36:52.001Z</time></trkpt><trkpt lat="33.57629473731139" lon="9.01260991383203"><ele>45.0</ele><time>2026-04-07T08:36:53.001Z</time></trkpt><trkpt lat="33.576417296028524" lon="9.012591581411124"><ele>45.0</ele><time>2026-04-07T08:36:54.001Z</time></trkpt><trkpt lat="33.576530779482475" lon="9.012573626604283"><ele>45.0</ele><time>2026-04-07T08:36:55.001Z</time></trkpt><trkpt lat="33.57662955925447" lon="9.012557064902651"><ele>45.0</ele><time>2026-04-07T08:36:56.001Z</time></trkpt><trkpt lat="33.576727987438254" lon="9.01253967417941"><ele>45.0</ele><time>2026-04-07T08:36:57.001Z</time></trkpt><trkpt lat="33.57683112788574" lon="9.0125209513963"><ele>45.0</ele><time>2026-04-07T08:36:58.001Z</time></trkpt><trkpt lat="33.57694164904976" lon="9.012501496692648"><ele>44.5</ele><time>2026-04-07T08:36:59Z</time></trkpt><trkpt lat="33.57705736447419" lon="9.01248208949509"><ele>44.0</ele><time>2026-04-07T08:37:00Z</time></trkpt><trkpt lat="33.57717436262239" lon="9.012465035126436"><ele>43.5</ele><time>2026-04-07T08:37:01Z</time></trkpt><trkpt lat="33.57729213600979" lon="9.012450318448613"><ele>43.0</ele><time>2026-04-07T08:37:02Z</time></trkpt><trkpt lat="33.577409126247105" lon="9.012434540194135"><ele>43.0</ele><time>2026-04-07T08:37:03Z</time></trkpt><trkpt lat="33.57752919591233" lon="9.012417058381416"><ele>43.0</ele><time>2026-04-07T08:37:04Z</time></trkpt><trkpt lat="33.577647782113196" lon="9.012400671612296"><ele>43.0</ele><time>2026-04-07T08:37:05Z</time></trkpt><trkpt lat="33.57776553195318" lon="9.012383192557653"><ele>43.0</ele><time>2026-04-07T08:37:06Z</time></trkpt><trkpt lat="33.57788456087925" lon="9.012361961697826"><ele>42.75</ele><time>2026-04-07T08:37:07Z</time></trkpt><trkpt lat="33.577998522620376" lon="9.012344633101987"><ele>42.5</ele><time>2026-04-07T08:37:08Z</time></trkpt><trkpt lat="33.578108858369326" lon="9.012329735766164"><ele>42.25</ele><time>2026-04-07T08:37:09Z</time></trkpt><trkpt lat="33.57821980946768" lon="9.012311844406273"><ele>42.0</ele><time>2026-04-07T08:37:10Z</time></trkpt><trkpt lat="33.578338324830824" lon="9.012288085687537"><ele>42.0</ele><time>2026-04-07T08:37:11Z</time></trkpt><trkpt lat="33.57846537512215" lon="9.012266261859509"><ele>42.0</ele><time>2026-04-07T08:37:12Z</time></trkpt><trkpt lat="33.57858320039298" lon="9.012246033547537"><ele>42.0</ele><time>2026-04-07T08:37:13Z</time></trkpt><trkpt lat="33.57868349367721" lon="9.012227974855769"><ele>42.0</ele><time>2026-04-07T08:37:14Z</time></trkpt><trkpt lat="33.578768306236974" lon="9.012214644242421"><ele>42.0</ele><time>2026-04-07T08:37:15Z</time></trkpt><trkpt lat="33.57884449681478" lon="9.012203388611116"><ele>42.0</ele><time>2026-04-07T08:37:16Z</time></trkpt><trkpt lat="33.578915872480664" lon="9.012191605726407"><ele>42.0</ele><time>2026-04-07T08:37:17Z</time></trkpt><trkpt lat="33.578992681537095" lon="9.01217891828944"><ele>42.0</ele><time>2026-04-07T08:37:18Z</time></trkpt><trkpt lat="33.579095396560696" lon="9.012160948648937"><ele>42.0</ele><time>2026-04-07T08:37:19Z</time></trkpt><trkpt lat="33.57918259023446" lon="9.012150271677928"><ele>42.0</ele><time>2026-04-07T08:37:20Z</time></trkpt><trkpt lat="33.579263871472236" lon="9.012137489451726"><ele>42.0</ele><time>2026-04-07T08:37:21Z</time></trkpt><trkpt lat="33.579347759359" lon="9.01212166085497"><ele>42.0</ele><time>2026-04-07T08:37:22Z</time></trkpt><trkpt lat="33.57943127982723" lon="9.012106684534936"><ele>42.0</ele><time>2026-04-07T08:37:23Z</time></trkpt><trkpt lat="33.57951080590701" lon="9.012092949386332"><ele>42.0</ele><time>2026-04-07T08:37:24Z</time></trkpt><trkpt lat="33.57958157363428" lon="9.012083578171923"><ele>42.0</ele><time>2026-04-07T08:37:25Z</time></trkpt><trkpt lat="33.57967675424691" lon="9.012067853219387"><ele>42.0</ele><time>2026-04-07T08:37:27Z</time></trkpt><trkpt lat="33.57977505887523" lon="9.012057103044402"><ele>42.0</ele><time>2026-04-07T08:37:31Z</time></trkpt><trkpt lat="33.57984794849119" lon="9.012049503033856"><ele>42.0</ele><time>2026-04-07T08:37:32Z</time></trkpt><trkpt lat="33.579938111738606" lon="9.012030445880265"><ele>42.0</ele><time>2026-04-07T08:37:33.001Z</time></trkpt><trkpt lat="33.580043411612664" lon="9.012013039204405"><ele>42.0</ele><time>2026-04-07T08:37:34.001Z</time></trkpt><trkpt lat="33.58016565560881" lon="9.011994309207093"><ele>42.0</ele><time>2026-04-07T08:37:35.001Z</time></trkpt><trkpt lat="33.5803031105688" lon="9.011971035459867"><ele>42.0</ele><time>2026-04-07T08:37:36.001Z</time></trkpt><trkpt lat="33.58043824017927" lon="9.011947162022933"><ele>42.0</ele><time>2026-04-07T08:37:37.001Z</time></trkpt><trkpt lat="33.580555176337135" lon="9.011927576172926"><ele>42.0</ele><time>2026-04-07T08:37:38.001Z</time></trkpt><trkpt lat="33.58066182526558" lon="9.011912900365756"><ele>42.0</ele><time>2026-04-07T08:37:39.001Z</time></trkpt><trkpt lat="33.58076097894207" lon="9.011897192704625"><ele>42.0</ele><time>2026-04-07T08:37:40.001Z</time></trkpt><trkpt lat="33.58085568679402" lon="9.011880611071346"><ele>42.0</ele><time>2026-04-07T08:37:41.001Z</time></trkpt><trkpt lat="33.58094832277515" lon="9.011864015303626"><ele>42.0</ele><time>2026-04-07T08:37:42.001Z</time></trkpt><trkpt lat="33.5810337671738" lon="9.011848361316652"><ele>42.0</ele><time>2026-04-07T08:37:43.001Z</time></trkpt><trkpt lat="33.581116214879074" lon="9.011835189902344"><ele>42.0</ele><time>2026-04-07T08:37:44.001Z</time></trkpt><trkpt lat="33.581202620543294" lon="9.011822945283079"><ele>42.0</ele><time>2026-04-07T08:37:45.001Z</time></trkpt><trkpt lat="33.581291734120086" lon="9.011809817377666"><ele>42.333333333333336</ele><time>2026-04-07T08:37:46.001Z</time></trkpt><trkpt lat="33.581382426927576" lon="9.011793696973601"><ele>42.666666666666664</ele><time>2026-04-07T08:37:47.001Z</time></trkpt><trkpt lat="33.58146987063702" lon="9.011775982119218"><ele>43.0</ele><time>2026-04-07T08:37:48.001Z</time></trkpt><trkpt lat="33.58155557261459" lon="9.011760066143438"><ele>43.33333333333333</ele><time>2026-04-07T08:37:49.001Z</time></trkpt><trkpt lat="33.581641675723105" lon="9.0117465230627"><ele>43.666666666666664</ele><time>2026-04-07T08:37:50.001Z</time></trkpt><trkpt lat="33.58172940380728" lon="9.011735700001271"><ele>44.0</ele><time>2026-04-07T08:37:51.001Z</time></trkpt><trkpt lat="33.581820916733754" lon="9.011724047318044"><ele>44.0</ele><time>2026-04-07T08:37:52.001Z</time></trkpt><trkpt lat="33.58191468077507" lon="9.011711756654341"><ele>44.0</ele><time>2026-04-07T08:37:53.001Z</time></trkpt><trkpt lat="33.5820089919869" lon="9.011695883556934"><ele>44.0</ele><time>2026-04-07T08:37:54.001Z</time></trkpt><trkpt lat="33.58209098081686" lon="9.01167863612653"><ele>44.0</ele><time>2026-04-07T08:37:55.001Z</time></trkpt><trkpt lat="33.582166216280484" lon="9.011665986270703"><ele>44.0</ele><time>2026-04-07T08:37:56.001Z</time></trkpt><trkpt lat="33.58224025159339" lon="9.011657018249952"><ele>44.0</ele><time>2026-04-07T08:37:57.001Z</time></trkpt><trkpt lat="33.5823123239124" lon="9.0116476665885"><ele>43.6</ele><time>2026-04-07T08:37:58.001Z</time></trkpt><trkpt lat="33.582408545789974" lon="9.01162815106143"><ele>43.2</ele><time>2026-04-07T08:37:59.001Z</time></trkpt><trkpt lat="33.582496262821515" lon="9.011609348270063"><ele>42.800000000000004</ele><time>2026-04-07T08:38:00.001Z</time></trkpt><trkpt lat="33.58258306226551" lon="9.01159493734116"><ele>42.400000000000006</ele><time>2026-04-07T08:38:01.001Z</time></trkpt><trkpt lat="33.58268507445461" lon="9.01157894517288"><ele>42.0</ele><time>2026-04-07T08:38:02.001Z</time></trkpt><trkpt lat="33.582786945352375" lon="9.011565919160345"><ele>41.8</ele><time>2026-04-07T08:38:03.001Z</time></trkpt><trkpt lat="33.58288896134363" lon="9.01155178922217"><ele>41.6</ele><time>2026-04-07T08:38:04.001Z</time></trkpt><trkpt lat="33.58299515183342" lon="9.01153539455287"><ele>41.4</ele><time>2026-04-07T08:38:05.001Z</time></trkpt><trkpt lat="33.58310390885613" lon="9.0115190718063"><ele>41.199999999999996</ele><time>2026-04-07T08:38:06.001Z</time></trkpt><trkpt lat="33.583212443637855" lon="9.011502888683479"><ele>41.0</ele><time>2026-04-07T08:38:07.001Z</time></trkpt><trkpt lat="33.58332271818164" lon="9.011482315847994"><ele>41.0</ele><time>2026-04-07T08:38:08.001Z</time></trkpt><trkpt lat="33.58344428421337" lon="9.01146281263886"><ele>41.0</ele><time>2026-04-07T08:38:09.001Z</time></trkpt><trkpt lat="33.58357677645247" lon="9.011445911645934"><ele>41.0</ele><time>2026-04-07T08:38:10.001Z</time></trkpt><trkpt lat="33.58371282289517" lon="9.011430764440387"><ele>41.0</ele><time>2026-04-07T08:38:11.001Z</time></trkpt><trkpt lat="33.58385628459318" lon="9.011416719352997"><ele>40.666666666666664</ele><time>2026-04-07T08:38:12.001Z</time></trkpt><trkpt lat="33.58400473837481" lon="9.011405209670107"><ele>40.333333333333336</ele><time>2026-04-07T08:38:13.001Z</time></trkpt><trkpt lat="33.58415892381974" lon="9.011397517064372"><ele>40.0</ele><time>2026-04-07T08:38:14.001Z</time></trkpt><trkpt lat="33.58430986691606" lon="9.011393853654537"><ele>40.0</ele><time>2026-04-07T08:38:15.001Z</time></trkpt><trkpt lat="33.584459655106414" lon="9.011387264188555"><ele>40.0</ele><time>2026-04-07T08:38:16.001Z</time></trkpt><trkpt lat="33.58460010390459" lon="9.011384854914459"><ele>40.0</ele><time>2026-04-07T08:38:17.001Z</time></trkpt><trkpt lat="33.584738375177785" lon="9.011382365654859"><ele>40.0</ele><time>2026-04-07T08:38:18.001Z</time></trkpt><trkpt lat="33.58488222026053" lon="9.011382051881439"><ele>40.5</ele><time>2026-04-07T08:38:19.001Z</time></trkpt><trkpt lat="33.585029022632305" lon="9.011386289775839"><ele>41.0</ele><time>2026-04-07T08:38:20.001Z</time></trkpt><trkpt lat="33.58517683212298" lon="9.011388078952287"><ele>41.5</ele><time>2026-04-07T08:38:21.001Z</time></trkpt><trkpt lat="33.585325184555444" lon="9.011389716785132"><ele>42.0</ele><time>2026-04-07T08:38:22.001Z</time></trkpt><trkpt lat="33.585466371237146" lon="9.011393657805172"><ele>42.25</ele><time>2026-04-07T08:38:23.001Z</time></trkpt><trkpt lat="33.58560387259013" lon="9.011391349735998"><ele>42.5</ele><time>2026-04-07T08:38:24.001Z</time></trkpt><trkpt lat="33.58574399531143" lon="9.011392735810128"><ele>42.75</ele><time>2026-04-07T08:38:25.001Z</time></trkpt><trkpt lat="33.585887859836944" lon="9.011396551890055"><ele>43.0</ele><time>2026-04-07T08:38:26.001Z</time></trkpt><trkpt lat="33.58603695993414" lon="9.011399249959103"><ele>41.66666666666667</ele><time>2026-04-07T08:38:27.001Z</time></trkpt><trkpt lat="33.586190040761316" lon="9.011402211106507"><ele>40.333333333333336</ele><time>2026-04-07T08:38:28.001Z</time></trkpt><trkpt lat="33.58634695141871" lon="9.011401810412606"><ele>39.0</ele><time>2026-04-07T08:38:29.001Z</time></trkpt><trkpt lat="33.58650673196489" lon="9.011404118788896"><ele>39.0</ele><time>2026-04-07T08:38:30.001Z</time></trkpt><trkpt lat="33.58666422337945" lon="9.011406350688974"><ele>39.0</ele><time>2026-04-07T08:38:31.001Z</time></trkpt><trkpt lat="33.586819403887866" lon="9.011408786010422"><ele>39.0</ele><time>2026-04-07T08:38:32Z</time></trkpt><trkpt lat="33.58697329937726" lon="9.011408586007374"><ele>38.666666666666664</ele><time>2026-04-07T08:38:33Z</time></trkpt><trkpt lat="33.58712993679729" lon="9.01140687543895"><ele>38.33333333333333</ele><time>2026-04-07T08:38:34Z</time></trkpt><trkpt lat="33.58728856423141" lon="9.01140620171275"><ele>38.0</ele><time>2026-04-07T08:38:35Z</time></trkpt><trkpt lat="33.58745354618813" lon="9.011407641897991"><ele>38.0</ele><time>2026-04-07T08:38:36Z</time></trkpt><trkpt lat="33.587619904667775" lon="9.011407413132686"><ele>38.0</ele><time>2026-04-07T08:38:37Z</time></trkpt><trkpt lat="33.587789877021464" lon="9.011404698955266"><ele>38.0</ele><time>2026-04-07T08:38:38Z</time></trkpt><trkpt lat="33.58796231402331" lon="9.0113992962125"><ele>38.666666666666664</ele><time>2026-04-07T08:38:39Z</time></trkpt><trkpt lat="33.588136614718096" lon="9.011385976228123"><ele>39.333333333333336</ele><time>2026-04-07T08:38:40Z</time></trkpt><trkpt lat="33.58831044000922" lon="9.011367898358051"><ele>40.0</ele><time>2026-04-07T08:38:41Z</time></trkpt><trkpt lat="33.58848086720283" lon="9.011344877553421"><ele>40.0</ele><time>2026-04-07T08:38:42Z</time></trkpt><trkpt lat="33.58864006559596" lon="9.011322531849675"><ele>40.0</ele><time>2026-04-07T08:38:43Z</time></trkpt><trkpt lat="33.588794494612934" lon="9.01130104753578"><ele>40.0</ele><time>2026-04-07T08:38:44Z</time></trkpt><trkpt lat="33.58894986794394" lon="9.011272033367153"><ele>40.66666666666667</ele><time>2026-04-07T08:38:45Z</time></trkpt><trkpt lat="33.589117281886935" lon="9.011238399338506"><ele>41.333333333333336</ele><time>2026-04-07T08:38:46Z</time></trkpt><trkpt lat="33.58929943410125" lon="9.011204133973399"><ele>42.0</ele><time>2026-04-07T08:38:47Z</time></trkpt><trkpt lat="33.58950930566758" lon="9.011147647213045"><ele>42.333333333333336</ele><time>2026-04-07T08:38:48Z</time></trkpt><trkpt lat="33.58972629448915" lon="9.011083801305217"><ele>42.66666666666667</ele><time>2026-04-07T08:38:49Z</time></trkpt><trkpt lat="33.58992374254209" lon="9.011035843286159"><ele>43.0</ele><time>2026-04-07T08:38:50Z</time></trkpt><trkpt lat="33.59011263307348" lon="9.010985425346133"><ele>43.0</ele><time>2026-04-07T08:38:51Z</time></trkpt><trkpt lat="33.59030472376931" lon="9.010924178511814"><ele>43.0</ele><time>2026-04-07T08:38:52Z</time></trkpt><trkpt lat="33.590503958772494" lon="9.010863340513485"><ele>43.0</ele><time>2026-04-07T08:38:53Z</time></trkpt><trkpt lat="33.59070974764036" lon="9.010806384523493"><ele>42.333333333333336</ele><time>2026-04-07T08:38:54Z</time></trkpt><trkpt lat="33.5909155547477" lon="9.010751128537919"><ele>41.666666666666664</ele><time>2026-04-07T08:38:55Z</time></trkpt><trkpt lat="33.59112301480636" lon="9.010695809127599"><ele>41.0</ele><time>2026-04-07T08:38:56Z</time></trkpt><trkpt lat="33.59132823924959" lon="9.010637651998938"><ele>40.666666666666664</ele><time>2026-04-07T08:38:57Z</time></trkpt><trkpt lat="33.591533210885096" lon="9.010577939971924"><ele>40.333333333333336</ele><time>2026-04-07T08:38:58Z</time></trkpt><trkpt lat="33.59173683289013" lon="9.010520151212802"><ele>40.0</ele><time>2026-04-07T08:38:59Z</time></trkpt><trkpt lat="33.59194028283505" lon="9.010464088726316"><ele>40.333333333333336</ele><time>2026-04-07T08:39:00Z</time></trkpt><trkpt lat="33.592143282348026" lon="9.01040754211989"><ele>40.666666666666664</ele><time>2026-04-07T08:39:01Z</time></trkpt><trkpt lat="33.592344755443335" lon="9.010351765574041"><ele>41.0</ele><time>2026-04-07T08:39:02Z</time></trkpt><trkpt lat="33.59254649672076" lon="9.01029697628686"><ele>41.0</ele><time>2026-04-07T08:39:03Z</time></trkpt><trkpt lat="33.59274996525134" lon="9.010242320178271"><ele>41.0</ele><time>2026-04-07T08:39:04Z</time></trkpt><trkpt lat="33.59295200766127" lon="9.010187517625027"><ele>41.0</ele><time>2026-04-07T08:39:05Z</time></trkpt><trkpt lat="33.59315396224344" lon="9.010130410881514"><ele>40.666666666666664</ele><time>2026-04-07T08:39:06Z</time></trkpt><trkpt lat="33.593358026274935" lon="9.010073279337316"><ele>40.333333333333336</ele><time>2026-04-07T08:39:07Z</time></trkpt><trkpt lat="33.59356292932586" lon="9.010015889425684"><ele>40.0</ele><time>2026-04-07T08:39:08Z</time></trkpt><trkpt lat="33.59376062768856" lon="9.009957213075946"><ele>39.66666666666667</ele><time>2026-04-07T08:39:09Z</time></trkpt><trkpt lat="33.593965229454824" lon="9.00989657892434"><ele>39.333333333333336</ele><time>2026-04-07T08:39:10Z</time></trkpt><trkpt lat="33.59416507243472" lon="9.00983926788789"><ele>39.0</ele><time>2026-04-07T08:39:11Z</time></trkpt><trkpt lat="33.59436723873152" lon="9.009779296738877"><ele>39.666666666666664</ele><time>2026-04-07T08:39:12Z</time></trkpt><trkpt lat="33.59456975638338" lon="9.0097190176895"><ele>40.33333333333333</ele><time>2026-04-07T08:39:13Z</time></trkpt><trkpt lat="33.59477520431453" lon="9.009660817505747"><ele>41.0</ele><time>2026-04-07T08:39:14Z</time></trkpt><trkpt lat="33.594976867712205" lon="9.009604817743766"><ele>41.0</ele><time>2026-04-07T08:39:15Z</time></trkpt><trkpt lat="33.59516440700295" lon="9.00955445028319"><ele>41.0</ele><time>2026-04-07T08:39:16Z</time></trkpt><trkpt lat="33.595342921653156" lon="9.009508173914815"><ele>41.0</ele><time>2026-04-07T08:39:17Z</time></trkpt><trkpt lat="33.59550942224763" lon="9.00946281459647"><ele>39.666666666666664</ele><time>2026-04-07T08:39:18Z</time></trkpt><trkpt lat="33.59567885732161" lon="9.009415477293738"><ele>38.333333333333336</ele><time>2026-04-07T08:39:19Z</time></trkpt><trkpt lat="33.59585632864932" lon="9.009363519788002"><ele>37.0</ele><time>2026-04-07T08:39:20Z</time></trkpt><trkpt lat="33.59603300913989" lon="9.009308668480372"><ele>38.333333333333336</ele><time>2026-04-07T08:39:21Z</time></trkpt><trkpt lat="33.5962089108889" lon="9.00925551435688"><ele>39.666666666666664</ele><time>2026-04-07T08:39:22Z</time></trkpt><trkpt lat="33.59638740943674" lon="9.00920516709163"><ele>41.0</ele><time>2026-04-07T08:39:23Z</time></trkpt><trkpt lat="33.59656838041377" lon="9.009154267108018"><ele>41.0</ele><time>2026-04-07T08:39:24Z</time></trkpt><trkpt lat="33.59674807039573" lon="9.009103369386628"><ele>41.0</ele><time>2026-04-07T08:39:25Z</time></trkpt><trkpt lat="33.59692807041009" lon="9.009050160654127"><ele>41.0</ele><time>2026-04-07T08:39:26Z</time></trkpt><trkpt lat="33.59710251968801" lon="9.008994693169507"><ele>40.666666666666664</ele><time>2026-04-07T08:39:27Z</time></trkpt><trkpt lat="33.59730285409496" lon="9.008936914682748"><ele>40.333333333333336</ele><time>2026-04-07T08:39:28Z</time></trkpt><trkpt lat="33.59751681301158" lon="9.00888291205889"><ele>40.0</ele><time>2026-04-07T08:39:29Z</time></trkpt><trkpt lat="33.59773067534328" lon="9.008827050783665"><ele>40.66666666666667</ele><time>2026-04-07T08:39:30Z</time></trkpt><trkpt lat="33.597939254567564" lon="9.008768113525408"><ele>41.333333333333336</ele><time>2026-04-07T08:39:31Z</time></trkpt><trkpt lat="33.59814598086901" lon="9.008710000341717"><ele>42.0</ele><time>2026-04-07T08:39:32Z</time></trkpt><trkpt lat="33.59835085085331" lon="9.008654538062576"><ele>42.0</ele><time>2026-04-07T08:39:33Z</time></trkpt><trkpt lat="33.598559370170854" lon="9.008597490220598"><ele>42.0</ele><time>2026-04-07T08:39:34Z</time></trkpt><trkpt lat="33.59876804395398" lon="9.008539829073877"><ele>42.0</ele><time>2026-04-07T08:39:35Z</time></trkpt><trkpt lat="33.59897425035602" lon="9.008484413518017"><ele>42.0</ele><time>2026-04-07T08:39:36Z</time></trkpt><trkpt lat="33.59918098881195" lon="9.00842955197617"><ele>42.0</ele><time>2026-04-07T08:39:37Z</time></trkpt><trkpt lat="33.59938467711437" lon="9.00837777772369"><ele>42.0</ele><time>2026-04-07T08:39:38Z</time></trkpt><trkpt lat="33.59959173030792" lon="9.008325126022644"><ele>42.0</ele><time>2026-04-07T08:39:39.001Z</time></trkpt><trkpt lat="33.59980005414097" lon="9.008276299792307"><ele>42.0</ele><time>2026-04-07T08:39:40.001Z</time></trkpt><trkpt lat="33.60000895307552" lon="9.008234048180338"><ele>42.0</ele><time>2026-04-07T08:39:41.001Z</time></trkpt><trkpt lat="33.600222756749595" lon="9.008200238109534"><ele>42.666666666666664</ele><time>2026-04-07T08:39:42.001Z</time></trkpt><trkpt lat="33.60043681102718" lon="9.008178225879556"><ele>43.33333333333333</ele><time>2026-04-07T08:39:43.001Z</time></trkpt><trkpt lat="33.60065031019981" lon="9.008158365715708"><ele>44.0</ele><time>2026-04-07T08:39:44.001Z</time></trkpt><trkpt lat="33.60086659702045" lon="9.008139992900443"><ele>44.0</ele><time>2026-04-07T08:39:45.001Z</time></trkpt><trkpt lat="33.60108253173016" lon="9.008123178757955"><ele>44.0</ele><time>2026-04-07T08:39:46.001Z</time></trkpt><trkpt lat="33.60129777561245" lon="9.008112275299982"><ele>44.0</ele><time>2026-04-07T08:39:47.001Z</time></trkpt><trkpt lat="33.60151190957238" lon="9.008104234011288"><ele>44.33333333333333</ele><time>2026-04-07T08:39:48.001Z</time></trkpt><trkpt lat="33.60172641707628" lon="9.008097600272382"><ele>44.666666666666664</ele><time>2026-04-07T08:39:49.001Z</time></trkpt><trkpt lat="33.60194125639625" lon="9.008094214987247"><ele>45.0</ele><time>2026-04-07T08:39:50.001Z</time></trkpt><trkpt lat="33.60215638812688" lon="9.008090446470284"><ele>45.0</ele><time>2026-04-07T08:39:51.001Z</time></trkpt><trkpt lat="33.60237332072082" lon="9.008084869785101"><ele>45.0</ele><time>2026-04-07T08:39:52.001Z</time></trkpt><trkpt lat="33.60258627726848" lon="9.008083794946813"><ele>45.0</ele><time>2026-04-07T08:39:53.001Z</time></trkpt><trkpt lat="33.6028011686725" lon="9.008081598800308"><ele>44.333333333333336</ele><time>2026-04-07T08:39:54.001Z</time></trkpt><trkpt lat="33.60301423154162" lon="9.008081406375831"><ele>43.66666666666667</ele><time>2026-04-07T08:39:55.001Z</time></trkpt><trkpt lat="33.60322804805921" lon="9.008080464873139"><ele>43.0</ele><time>2026-04-07T08:39:56.001Z</time></trkpt><trkpt lat="33.603441981607446" lon="9.008077886246074"><ele>43.0</ele><time>2026-04-07T08:39:57.001Z</time></trkpt><trkpt lat="33.603656292438245" lon="9.008075986586217"><ele>43.0</ele><time>2026-04-07T08:39:58.001Z</time></trkpt><trkpt lat="33.60387128447898" lon="9.008074584143294"><ele>43.0</ele><time>2026-04-07T08:39:59.001Z</time></trkpt><trkpt lat="33.60408349363641" lon="9.008076750905492"><ele>42.66666666666667</ele><time>2026-04-07T08:40:00.001Z</time></trkpt><trkpt lat="33.604297690496075" lon="9.008075927276813"><ele>42.333333333333336</ele><time>2026-04-07T08:40:01.001Z</time></trkpt><trkpt lat="33.604511873746645" lon="9.008076086821836"><ele>42.0</ele><time>2026-04-07T08:40:02.001Z</time></trkpt><trkpt lat="33.60472454034352" lon="9.008072751551785"><ele>42.0</ele><time>2026-04-07T08:40:03.001Z</time></trkpt><trkpt lat="33.60493603282966" lon="9.00806922075317"><ele>42.0</ele><time>2026-04-07T08:40:04.001Z</time></trkpt><trkpt lat="33.605149350980554" lon="9.008063260974891"><ele>42.0</ele><time>2026-04-07T08:40:05.001Z</time></trkpt><trkpt lat="33.60536511035422" lon="9.008058794465024"><ele>41.666666666666664</ele><time>2026-04-07T08:40:06.001Z</time></trkpt><trkpt lat="33.6055779877421" lon="9.008059278321765"><ele>41.33333333333333</ele><time>2026-04-07T08:40:07.001Z</time></trkpt><trkpt lat="33.60579079102536" lon="9.008061532528531"><ele>41.0</ele><time>2026-04-07T08:40:08.001Z</time></trkpt><trkpt lat="33.606005578171576" lon="9.008063079473732"><ele>40.666666666666664</ele><time>2026-04-07T08:40:09Z</time></trkpt><trkpt lat="33.606220681548656" lon="9.008061367161929"><ele>40.333333333333336</ele><time>2026-04-07T08:40:10Z</time></trkpt><trkpt lat="33.60643531511014" lon="9.00805868297528"><ele>40.0</ele><time>2026-04-07T08:40:11Z</time></trkpt><trkpt lat="33.60664872905573" lon="9.00805578639265"><ele>40.0</ele><time>2026-04-07T08:40:12Z</time></trkpt><trkpt lat="33.60686372439327" lon="9.008053068202866"><ele>40.0</ele><time>2026-04-07T08:40:13Z</time></trkpt><trkpt lat="33.607077279729886" lon="9.00804910298435"><ele>40.0</ele><time>2026-04-07T08:40:14Z</time></trkpt><trkpt lat="33.60728936352761" lon="9.008045401669971"><ele>40.333333333333336</ele><time>2026-04-07T08:40:15Z</time></trkpt><trkpt lat="33.60750512235817" lon="9.008036883603697"><ele>40.666666666666664</ele><time>2026-04-07T08:40:16Z</time></trkpt><trkpt lat="33.607716246444326" lon="9.00802999715339"><ele>41.0</ele><time>2026-04-07T08:40:17Z</time></trkpt><trkpt lat="33.607926483385" lon="9.008025772722826"><ele>40.0</ele><time>2026-04-07T08:40:18Z</time></trkpt><trkpt lat="33.608139998923996" lon="9.008020748872164"><ele>39.0</ele><time>2026-04-07T08:40:19Z</time></trkpt><trkpt lat="33.60835939635068" lon="9.008020042461515"><ele>38.0</ele><time>2026-04-07T08:40:20Z</time></trkpt><trkpt lat="33.60858026475905" lon="9.00801943313698"><ele>39.0</ele><time>2026-04-07T08:40:21Z</time></trkpt><trkpt lat="33.608807155879425" lon="9.008018658811716"><ele>40.0</ele><time>2026-04-07T08:40:22Z</time></trkpt><trkpt lat="33.609032492658244" lon="9.008015446210235"><ele>40.0</ele><time>2026-04-07T08:40:23Z</time></trkpt><trkpt lat="33.609259000450535" lon="9.00801190289782"><ele>40.0</ele><time>2026-04-07T08:40:24Z</time></trkpt><trkpt lat="33.60948314820569" lon="9.008008043645768"><ele>39.333333333333336</ele><time>2026-04-07T08:40:25Z</time></trkpt><trkpt lat="33.609708095011975" lon="9.008004007323258"><ele>38.666666666666664</ele><time>2026-04-07T08:40:26Z</time></trkpt><trkpt lat="33.60993135493624" lon="9.008001381680808"><ele>38.0</ele><time>2026-04-07T08:40:27Z</time></trkpt><trkpt lat="33.610153432016666" lon="9.00799945195524"><ele>38.0</ele><time>2026-04-07T08:40:28Z</time></trkpt><trkpt lat="33.61037631403461" lon="9.007994246986803"><ele>38.0</ele><time>2026-04-07T08:40:29Z</time></trkpt><trkpt lat="33.610598890263276" lon="9.007989064335327"><ele>38.0</ele><time>2026-04-07T08:40:30Z</time></trkpt><trkpt lat="33.61082231131062" lon="9.00798287222147"><ele>38.0</ele><time>2026-04-07T08:40:31Z</time></trkpt><trkpt lat="33.61104497821005" lon="9.007980407406226"><ele>38.0</ele><time>2026-04-07T08:40:32Z</time></trkpt><trkpt lat="33.61126819670233" lon="9.007976373336696"><ele>38.0</ele><time>2026-04-07T08:40:33Z</time></trkpt><trkpt lat="33.61149274245429" lon="9.007976144838835"><ele>38.0</ele><time>2026-04-07T08:40:34Z</time></trkpt><trkpt lat="33.61171685185321" lon="9.007973030706195"><ele>38.0</ele><time>2026-04-07T08:40:35Z</time></trkpt><trkpt lat="33.611941092686905" lon="9.007970130873131"><ele>38.0</ele><time>2026-04-07T08:40:36Z</time></trkpt><trkpt lat="33.61216197643057" lon="9.007968262654055"><ele>38.0</ele><time>2026-04-07T08:40:37Z</time></trkpt><trkpt lat="33.61238559680448" lon="9.00796439705623"><ele>38.0</ele><time>2026-04-07T08:40:38Z</time></trkpt><trkpt lat="33.61260848811937" lon="9.00795906311389"><ele>38.0</ele><time>2026-04-07T08:40:39Z</time></trkpt><trkpt lat="33.61282933816105" lon="9.007958899581972"><ele>38.33333333333333</ele><time>2026-04-07T08:40:40Z</time></trkpt><trkpt lat="33.6130533734979" lon="9.007960146786983"><ele>38.666666666666664</ele><time>2026-04-07T08:40:41Z</time></trkpt><trkpt lat="33.613274627254505" lon="9.007956513356369"><ele>39.0</ele><time>2026-04-07T08:40:42Z</time></trkpt><trkpt lat="33.61349921518847" lon="9.007951609423055"><ele>38.0</ele><time>2026-04-07T08:40:43Z</time></trkpt><trkpt lat="33.61371978395513" lon="9.007946004867987"><ele>37.0</ele><time>2026-04-07T08:40:44Z</time></trkpt><trkpt lat="33.61394217381169" lon="9.007939153764609"><ele>36.0</ele><time>2026-04-07T08:40:45Z</time></trkpt><trkpt lat="33.614163067911946" lon="9.007927834433518"><ele>36.0</ele><time>2026-04-07T08:40:46Z</time></trkpt><trkpt lat="33.61438645274024" lon="9.007911997952109"><ele>36.0</ele><time>2026-04-07T08:40:47Z</time></trkpt><trkpt lat="33.614606965517964" lon="9.00788754247977"><ele>36.0</ele><time>2026-04-07T08:40:48Z</time></trkpt><trkpt lat="33.61482947582482" lon="9.00785620841146"><ele>37.0</ele><time>2026-04-07T08:40:49Z</time></trkpt><trkpt lat="33.61504508161133" lon="9.007817486584194"><ele>38.0</ele><time>2026-04-07T08:40:50Z</time></trkpt><trkpt lat="33.61526617830867" lon="9.007767678769158"><ele>39.0</ele><time>2026-04-07T08:40:51Z</time></trkpt><trkpt lat="33.61548455155449" lon="9.007704869768638"><ele>39.0</ele><time>2026-04-07T08:40:52Z</time></trkpt><trkpt lat="33.61569683794785" lon="9.00763207326649"><ele>39.0</ele><time>2026-04-07T08:40:53Z</time></trkpt><trkpt lat="33.6159092325057" lon="9.007546695537119"><ele>39.0</ele><time>2026-04-07T08:40:54Z</time></trkpt><trkpt lat="33.61611858192028" lon="9.007450189932145"><ele>39.333333333333336</ele><time>2026-04-07T08:40:55Z</time></trkpt><trkpt lat="33.616324643280194" lon="9.00734433589813"><ele>39.66666666666667</ele><time>2026-04-07T08:40:56Z</time></trkpt><trkpt lat="33.61652621209427" lon="9.007232844263438"><ele>40.0</ele><time>2026-04-07T08:40:57Z</time></trkpt><trkpt lat="33.616728793755776" lon="9.007121917918496"><ele>40.0</ele><time>2026-04-07T08:40:58Z</time></trkpt><trkpt lat="33.61693183903661" lon="9.007007699328271"><ele>40.0</ele><time>2026-04-07T08:40:59Z</time></trkpt><trkpt lat="33.617133518099784" lon="9.006892812727179"><ele>40.0</ele><time>2026-04-07T08:41:00Z</time></trkpt><trkpt lat="33.61733312788286" lon="9.0067730551425"><ele>40.333333333333336</ele><time>2026-04-07T08:41:01Z</time></trkpt><trkpt lat="33.61753308770879" lon="9.006650022200422"><ele>40.666666666666664</ele><time>2026-04-07T08:41:02Z</time></trkpt><trkpt lat="33.61773218816135" lon="9.00652750672037"><ele>41.0</ele><time>2026-04-07T08:41:03Z</time></trkpt><trkpt lat="33.61793166747131" lon="9.00640806850895"><ele>42.0</ele><time>2026-04-07T08:41:04Z</time></trkpt><trkpt lat="33.61813018730569" lon="9.006288609744793"><ele>43.0</ele><time>2026-04-07T08:41:05Z</time></trkpt><trkpt lat="33.618330353682104" lon="9.006169221472772"><ele>44.0</ele><time>2026-04-07T08:41:06Z</time></trkpt><trkpt lat="33.61853144771272" lon="9.006051421076574"><ele>42.666666666666664</ele><time>2026-04-07T08:41:07Z</time></trkpt><trkpt lat="33.618730127330814" lon="9.005933450728044"><ele>41.333333333333336</ele><time>2026-04-07T08:41:08Z</time></trkpt><trkpt lat="33.61892902217872" lon="9.005812041133769"><ele>40.0</ele><time>2026-04-07T08:41:09Z</time></trkpt><trkpt lat="33.61912693875775" lon="9.00569223071638"><ele>40.0</ele><time>2026-04-07T08:41:10Z</time></trkpt><trkpt lat="33.61932645004606" lon="9.005573153249413"><ele>40.0</ele><time>2026-04-07T08:41:11Z</time></trkpt><trkpt lat="33.61952771931548" lon="9.005451495112839"><ele>40.0</ele><time>2026-04-07T08:41:12Z</time></trkpt><trkpt lat="33.61972711195287" lon="9.005330402059812"><ele>40.0</ele><time>2026-04-07T08:41:13Z</time></trkpt><trkpt lat="33.619925779155864" lon="9.005211797203671"><ele>40.0</ele><time>2026-04-07T08:41:14Z</time></trkpt><trkpt lat="33.62012421030546" lon="9.005093933904375"><ele>40.0</ele><time>2026-04-07T08:41:15Z</time></trkpt><trkpt lat="33.620324569397624" lon="9.004973322516632"><ele>40.0</ele><time>2026-04-07T08:41:16Z</time></trkpt><trkpt lat="33.620523390312535" lon="9.004854038758891"><ele>40.0</ele><time>2026-04-07T08:41:17Z</time></trkpt><trkpt lat="33.620723915743426" lon="9.004733678444882"><ele>40.0</ele><time>2026-04-07T08:41:18Z</time></trkpt><trkpt lat="33.62092222815725" lon="9.004616549539348"><ele>40.0</ele><time>2026-04-07T08:41:19Z</time></trkpt><trkpt lat="33.62112291484368" lon="9.004498208204284"><ele>40.0</ele><time>2026-04-07T08:41:20Z</time></trkpt><trkpt lat="33.62132307256196" lon="9.004382419838727"><ele>40.0</ele><time>2026-04-07T08:41:21Z</time></trkpt><trkpt lat="33.62152494594833" lon="9.004265392607518"><ele>39.0</ele><time>2026-04-07T08:41:22Z</time></trkpt><trkpt lat="33.621727102713486" lon="9.00414918610086"><ele>38.0</ele><time>2026-04-07T08:41:23Z</time></trkpt><trkpt lat="33.621927675226615" lon="9.004029754516084"><ele>37.0</ele><time>2026-04-07T08:41:24Z</time></trkpt><trkpt lat="33.62212760459673" lon="9.003905972358801"><ele>37.0</ele><time>2026-04-07T08:41:25Z</time></trkpt><trkpt lat="33.622325873238864" lon="9.003787369211585"><ele>37.0</ele><time>2026-04-07T08:41:26Z</time></trkpt><trkpt lat="33.622524016096406" lon="9.003671577608811"><ele>37.0</ele><time>2026-04-07T08:41:27Z</time></trkpt><trkpt lat="33.62272622693683" lon="9.00355703650582"><ele>37.0</ele><time>2026-04-07T08:41:28Z</time></trkpt><trkpt lat="33.62292346520701" lon="9.003443009279945"><ele>37.0</ele><time>2026-04-07T08:41:29Z</time></trkpt><trkpt lat="33.62312429478538" lon="9.00332581941574"><ele>37.0</ele><time>2026-04-07T08:41:30Z</time></trkpt><trkpt lat="33.62332730323646" lon="9.003207300239792"><ele>37.0</ele><time>2026-04-07T08:41:31Z</time></trkpt><trkpt lat="33.623528574588555" lon="9.003091808324033"><ele>37.0</ele><time>2026-04-07T08:41:32Z</time></trkpt><trkpt lat="33.62372935072812" lon="9.002977053058737"><ele>37.0</ele><time>2026-04-07T08:41:33Z</time></trkpt><trkpt lat="33.62393126884058" lon="9.002858302622354"><ele>37.0</ele><time>2026-04-07T08:41:34Z</time></trkpt><trkpt lat="33.624131165935104" lon="9.002737424412947"><ele>37.0</ele><time>2026-04-07T08:41:35Z</time></trkpt><trkpt lat="33.62432934215361" lon="9.002613103496124"><ele>37.0</ele><time>2026-04-07T08:41:36Z</time></trkpt><trkpt lat="33.62452825224948" lon="9.002491472022317"><ele>37.0</ele><time>2026-04-07T08:41:37Z</time></trkpt><trkpt lat="33.62472554218987" lon="9.002371725268109"><ele>37.0</ele><time>2026-04-07T08:41:38Z</time></trkpt><trkpt lat="33.62492510369782" lon="9.002252250832278"><ele>37.0</ele><time>2026-04-07T08:41:39Z</time></trkpt><trkpt lat="33.62512449629768" lon="9.002133473400987"><ele>36.333333333333336</ele><time>2026-04-07T08:41:40Z</time></trkpt><trkpt lat="33.62532284169617" lon="9.00201429834857"><ele>35.666666666666664</ele><time>2026-04-07T08:41:41Z</time></trkpt><trkpt lat="33.625521576603994" lon="9.001890757692701"><ele>35.0</ele><time>2026-04-07T08:41:42Z</time></trkpt><trkpt lat="33.625720506338105" lon="9.001766252676935"><ele>34.33333333333333</ele><time>2026-04-07T08:41:43Z</time></trkpt><trkpt lat="33.62591724446316" lon="9.00164517688749"><ele>33.666666666666664</ele><time>2026-04-07T08:41:44Z</time></trkpt><trkpt lat="33.62611900744429" lon="9.001523665097286"><ele>33.0</ele><time>2026-04-07T08:41:45Z</time></trkpt><trkpt lat="33.62631646044266" lon="9.001408326910925"><ele>34.333333333333336</ele><time>2026-04-07T08:41:46Z</time></trkpt><trkpt lat="33.626517630609605" lon="9.001288774430746"><ele>35.66666666666667</ele><time>2026-04-07T08:41:47Z</time></trkpt><trkpt lat="33.62671642366967" lon="9.001170787688116"><ele>37.0</ele><time>2026-04-07T08:41:48Z</time></trkpt><trkpt lat="33.626917092083865" lon="9.001054411617996"><ele>36.66666666666667</ele><time>2026-04-07T08:41:49Z</time></trkpt><trkpt lat="33.62711988191073" lon="9.00094142057421"><ele>36.333333333333336</ele><time>2026-04-07T08:41:50Z</time></trkpt><trkpt lat="33.62732247349461" lon="9.000833477805495"><ele>36.0</ele><time>2026-04-07T08:41:51Z</time></trkpt><trkpt lat="33.62753119505573" lon="9.000730108439635"><ele>35.666666666666664</ele><time>2026-04-07T08:41:52Z</time></trkpt><trkpt lat="33.62774015815284" lon="9.000638013344965"><ele>35.33333333333333</ele><time>2026-04-07T08:41:53Z</time></trkpt><trkpt lat="33.62795236125151" lon="9.000553336762973"><ele>35.0</ele><time>2026-04-07T08:41:54Z</time></trkpt><trkpt lat="33.62816620088636" lon="9.000473496287833"><ele>35.0</ele><time>2026-04-07T08:41:55Z</time></trkpt><trkpt lat="33.628380097902536" lon="9.000390001426071"><ele>35.0</ele><time>2026-04-07T08:41:56Z</time></trkpt><trkpt lat="33.62859022867745" lon="9.00030238539259"><ele>35.0</ele><time>2026-04-07T08:41:57Z</time></trkpt><trkpt lat="33.62882093566731" lon="9.000209461200807"><ele>34.5</ele><time>2026-04-07T08:41:58Z</time></trkpt><trkpt lat="33.62907460577174" lon="9.000110692505086"><ele>34.0</ele><time>2026-04-07T08:41:59Z</time></trkpt><trkpt lat="33.62934320290108" lon="9.000001690493784"><ele>34.0</ele><time>2026-04-07T08:42:00Z</time></trkpt><trkpt lat="33.62962606307386" lon="8.999893084485443"><ele>34.0</ele><time>2026-04-07T08:42:01Z</time></trkpt><trkpt lat="33.629926100297034" lon="8.999791268684818"><ele>34.0</ele><time>2026-04-07T08:42:02Z</time></trkpt><trkpt lat="33.63022046275838" lon="8.99969989717102"><ele>34.0</ele><time>2026-04-07T08:42:03Z</time></trkpt><trkpt lat="33.63048872964331" lon="8.999610281365166"><ele>34.0</ele><time>2026-04-07T08:42:04Z</time></trkpt><trkpt lat="33.63074202106432" lon="8.999518884015894"><ele>34.0</ele><time>2026-04-07T08:42:05Z</time></trkpt><trkpt lat="33.63098517794803" lon="8.999429883421355"><ele>34.5</ele><time>2026-04-07T08:42:06Z</time></trkpt><trkpt lat="33.631216779790385" lon="8.999346553958768"><ele>35.0</ele><time>2026-04-07T08:42:07Z</time></trkpt><trkpt lat="33.63143792772498" lon="8.999269324752325"><ele>35.0</ele><time>2026-04-07T08:42:08Z</time></trkpt><trkpt lat="33.6316572459796" lon="8.999193375592315"><ele>35.0</ele><time>2026-04-07T08:42:09Z</time></trkpt><trkpt lat="33.63187781701678" lon="8.99911139987534"><ele>34.5</ele><time>2026-04-07T08:42:10Z</time></trkpt><trkpt lat="33.632103065285825" lon="8.999030586445098"><ele>34.0</ele><time>2026-04-07T08:42:11Z</time></trkpt><trkpt lat="33.632319375297676" lon="8.998951259934865"><ele>34.0</ele><time>2026-04-07T08:42:12Z</time></trkpt><trkpt lat="33.632535701162475" lon="8.998870532455078"><ele>34.0</ele><time>2026-04-07T08:42:13Z</time></trkpt><trkpt lat="33.632749486494085" lon="8.99879149015947"><ele>33.66666666666667</ele><time>2026-04-07T08:42:14Z</time></trkpt><trkpt lat="33.632961834309995" lon="8.998718075582477"><ele>33.333333333333336</ele><time>2026-04-07T08:42:15Z</time></trkpt><trkpt lat="33.633172222570316" lon="8.998647395492918"><ele>33.0</ele><time>2026-04-07T08:42:16Z</time></trkpt><trkpt lat="33.63338607596023" lon="8.99857570703741"><ele>33.0</ele><time>2026-04-07T08:42:17Z</time></trkpt><trkpt lat="33.633599184377935" lon="8.998500342770921"><ele>33.0</ele><time>2026-04-07T08:42:18Z</time></trkpt><trkpt lat="33.633812227603556" lon="8.998423314442741"><ele>33.0</ele><time>2026-04-07T08:42:19Z</time></trkpt><trkpt lat="33.63402580922682" lon="8.998341581261279"><ele>33.0</ele><time>2026-04-07T08:42:20Z</time></trkpt><trkpt lat="33.63424217043869" lon="8.998264053334744"><ele>33.0</ele><time>2026-04-07T08:42:21Z</time></trkpt><trkpt lat="33.634462519553104" lon="8.998184807908892"><ele>35.0</ele><time>2026-04-07T08:42:22Z</time></trkpt><trkpt lat="33.63468259746852" lon="8.998106373225703"><ele>37.0</ele><time>2026-04-07T08:42:23Z</time></trkpt><trkpt lat="33.63491450773605" lon="8.998023190740943"><ele>37.0</ele><time>2026-04-07T08:42:24Z</time></trkpt><trkpt lat="33.63515084295505" lon="8.997937276763455"><ele>37.0</ele><time>2026-04-07T08:42:25Z</time></trkpt><trkpt lat="33.6353767191937" lon="8.997852708810294"><ele>37.333333333333336</ele><time>2026-04-07T08:42:26Z</time></trkpt><trkpt lat="33.635591726571704" lon="8.997773425157929"><ele>37.666666666666664</ele><time>2026-04-07T08:42:27Z</time></trkpt><trkpt lat="33.63580413757353" lon="8.997697003960939"><ele>38.0</ele><time>2026-04-07T08:42:28Z</time></trkpt><trkpt lat="33.6360154831914" lon="8.997620533947822"><ele>38.0</ele><time>2026-04-07T08:42:29Z</time></trkpt><trkpt lat="33.636226040866376" lon="8.997546673267088"><ele>38.0</ele><time>2026-04-07T08:42:30Z</time></trkpt><trkpt lat="33.63643652729996" lon="8.997472507092109"><ele>38.0</ele><time>2026-04-07T08:42:31Z</time></trkpt><trkpt lat="33.63664839529005" lon="8.997394290449561"><ele>38.0</ele><time>2026-04-07T08:42:32Z</time></trkpt><trkpt lat="33.6368586415311" lon="8.997312258151968"><ele>38.0</ele><time>2026-04-07T08:42:33Z</time></trkpt><trkpt lat="33.63707040802318" lon="8.997231040284214"><ele>38.0</ele><time>2026-04-07T08:42:34Z</time></trkpt><trkpt lat="33.63728404016808" lon="8.997153613847113"><ele>38.666666666666664</ele><time>2026-04-07T08:42:35Z</time></trkpt><trkpt lat="33.637498391925504" lon="8.997078957809245"><ele>39.333333333333336</ele><time>2026-04-07T08:42:36Z</time></trkpt><trkpt lat="33.63771246249297" lon="8.997006006274432"><ele>40.0</ele><time>2026-04-07T08:42:37Z</time></trkpt><trkpt lat="33.637912743463296" lon="8.996933898896462"><ele>41.0</ele><time>2026-04-07T08:42:38Z</time></trkpt><trkpt lat="33.638098242705745" lon="8.996867582583569"><ele>42.0</ele><time>2026-04-07T08:42:39Z</time></trkpt><trkpt lat="33.63826973202591" lon="8.996809439213669"><ele>43.0</ele><time>2026-04-07T08:42:40Z</time></trkpt><trkpt lat="33.638437982766675" lon="8.99674929401614"><ele>43.0</ele><time>2026-04-07T08:42:41Z</time></trkpt><trkpt lat="33.638598473372596" lon="8.996689143842913"><ele>43.0</ele><time>2026-04-07T08:42:42Z</time></trkpt><trkpt lat="33.638751316242015" lon="8.996632119312519"><ele>43.0</ele><time>2026-04-07T08:42:43Z</time></trkpt><trkpt lat="33.63889512597418" lon="8.996579222752219"><ele>42.5</ele><time>2026-04-07T08:42:44Z</time></trkpt><trkpt lat="33.639029939333646" lon="8.99652916919349"><ele>42.0</ele><time>2026-04-07T08:42:45Z</time></trkpt><trkpt lat="33.6391597186802" lon="8.996481803725246"><ele>41.5</ele><time>2026-04-07T08:42:46Z</time></trkpt><trkpt lat="33.63928425078232" lon="8.996439197309074"><ele>41.0</ele><time>2026-04-07T08:42:47Z</time></trkpt><trkpt lat="33.63940297946039" lon="8.996396842515788"><ele>40.8</ele><time>2026-04-07T08:42:48Z</time></trkpt><trkpt lat="33.639515462583724" lon="8.996356649126268"><ele>40.599999999999994</ele><time>2026-04-07T08:42:49Z</time></trkpt><trkpt lat="33.63962057816724" lon="8.996317369883634"><ele>40.4</ele><time>2026-04-07T08:42:50Z</time></trkpt><trkpt lat="33.6397198480205" lon="8.996276895997235"><ele>40.2</ele><time>2026-04-07T08:42:51Z</time></trkpt><trkpt lat="33.639818346768266" lon="8.996241978436888"><ele>40.0</ele><time>2026-04-07T08:42:52Z</time></trkpt><trkpt lat="33.639918170585254" lon="8.996212048404786"><ele>40.0</ele><time>2026-04-07T08:42:53Z</time></trkpt><trkpt lat="33.640018609847175" lon="8.996179976248268"><ele>40.0</ele><time>2026-04-07T08:42:54Z</time></trkpt><trkpt lat="33.640118207630806" lon="8.996145133812304"><ele>40.0</ele><time>2026-04-07T08:42:55Z</time></trkpt><trkpt lat="33.640215620158195" lon="8.996111177558175"><ele>40.0</ele><time>2026-04-07T08:42:56Z</time></trkpt><trkpt lat="33.64030977361064" lon="8.996081065759833"><ele>40.0</ele><time>2026-04-07T08:42:57Z</time></trkpt><trkpt lat="33.64039949338859" lon="8.996046553569663"><ele>40.4</ele><time>2026-04-07T08:42:58Z</time></trkpt><trkpt lat="33.64048637296867" lon="8.996012302175238"><ele>40.8</ele><time>2026-04-07T08:42:59Z</time></trkpt><trkpt lat="33.640574306616315" lon="8.995983151662328"><ele>41.2</ele><time>2026-04-07T08:43:00Z</time></trkpt><trkpt lat="33.64066074592095" lon="8.995955341388633"><ele>41.6</ele><time>2026-04-07T08:43:01Z</time></trkpt><trkpt lat="33.64074861124655" lon="8.995922732527546"><ele>42.0</ele><time>2026-04-07T08:43:02Z</time></trkpt><trkpt lat="33.64083391361722" lon="8.995888680169028"><ele>42.0</ele><time>2026-04-07T08:43:03Z</time></trkpt><trkpt lat="33.64091989565134" lon="8.995859762361379"><ele>42.0</ele><time>2026-04-07T08:43:04Z</time></trkpt><trkpt lat="33.641002184975164" lon="8.995833490378173"><ele>42.0</ele><time>2026-04-07T08:43:05Z</time></trkpt><trkpt lat="33.64108746183023" lon="8.995804318622223"><ele>42.0</ele><time>2026-04-07T08:43:06Z</time></trkpt><trkpt lat="33.64119597276592" lon="8.995766818255"><ele>42.0</ele><time>2026-04-07T08:43:07Z</time></trkpt><trkpt lat="33.64129502789805" lon="8.995728527637636"><ele>42.2</ele><time>2026-04-07T08:43:08Z</time></trkpt><trkpt lat="33.64138255406418" lon="8.995695879971969"><ele>42.400000000000006</ele><time>2026-04-07T08:43:09Z</time></trkpt><trkpt lat="33.64147362361757" lon="8.995666685717552"><ele>42.599999999999994</ele><time>2026-04-07T08:43:10Z</time></trkpt><trkpt lat="33.64156598364169" lon="8.995630721053221"><ele>42.8</ele><time>2026-04-07T08:43:11Z</time></trkpt><trkpt lat="33.6416606479543" lon="8.995593503030678"><ele>43.0</ele><time>2026-04-07T08:43:12Z</time></trkpt><trkpt lat="33.641764212610546" lon="8.995561357687418"><ele>43.0</ele><time>2026-04-07T08:43:13Z</time></trkpt><trkpt lat="33.641869431011536" lon="8.995529042642897"><ele>43.0</ele><time>2026-04-07T08:43:14Z</time></trkpt><trkpt lat="33.641977336222" lon="8.995489740112156"><ele>43.0</ele><time>2026-04-07T08:43:15Z</time></trkpt><trkpt lat="33.64208935789233" lon="8.99544549176968"><ele>43.0</ele><time>2026-04-07T08:43:16Z</time></trkpt><trkpt lat="33.642203638311415" lon="8.99540249212264"><ele>43.25</ele><time>2026-04-07T08:43:17Z</time></trkpt><trkpt lat="33.64232201245694" lon="8.995360526071277"><ele>43.5</ele><time>2026-04-07T08:43:18Z</time></trkpt><trkpt lat="33.64244022530401" lon="8.995317918223028"><ele>43.75</ele><time>2026-04-07T08:43:19Z</time></trkpt><trkpt lat="33.64256213646505" lon="8.995273512014641"><ele>44.0</ele><time>2026-04-07T08:43:20Z</time></trkpt><trkpt lat="33.64268304476884" lon="8.99522894703138"><ele>44.25</ele><time>2026-04-07T08:43:21Z</time></trkpt><trkpt lat="33.642805814649" lon="8.995184547486037"><ele>44.5</ele><time>2026-04-07T08:43:22Z</time></trkpt><trkpt lat="33.642923304537916" lon="8.995140860212823"><ele>44.75</ele><time>2026-04-07T08:43:23Z</time></trkpt><trkpt lat="33.64303100895758" lon="8.995101505835045"><ele>45.0</ele><time>2026-04-07T08:43:24Z</time></trkpt><trkpt lat="33.6431326281611" lon="8.995065809140375"><ele>45.0</ele><time>2026-04-07T08:43:25Z</time></trkpt><trkpt lat="33.64322769191295" lon="8.99503001663779"><ele>45.0</ele><time>2026-04-07T08:43:26Z</time></trkpt><trkpt lat="33.64331806450768" lon="8.994996046651938"><ele>45.0</ele><time>2026-04-07T08:43:27Z</time></trkpt><trkpt lat="33.64342197749535" lon="8.99495186323054"><ele>45.0</ele><time>2026-04-07T08:43:28Z</time></trkpt><trkpt lat="33.643524147420045" lon="8.994917714629658"><ele>45.0</ele><time>2026-04-07T08:43:29Z</time></trkpt><trkpt lat="33.643604309909115" lon="8.994887533328756"><ele>45.0</ele><time>2026-04-07T08:43:30Z</time></trkpt><trkpt lat="33.64367377858602" lon="8.99486290111713"><ele>45.0</ele><time>2026-04-07T08:43:31Z</time></trkpt><trkpt lat="33.64373902348392" lon="8.994840077223225"><ele>45.0</ele><time>2026-04-07T08:43:32Z</time></trkpt><trkpt lat="33.643804541868406" lon="8.994816371657794"><ele>45.0</ele><time>2026-04-07T08:43:33Z</time></trkpt><trkpt lat="33.64386944177917" lon="8.994792986126079"><ele>45.0</ele><time>2026-04-07T08:43:34Z</time></trkpt><trkpt lat="33.6439362737775" lon="8.994768844164254"><ele>45.0</ele><time>2026-04-07T08:43:35Z</time></trkpt><trkpt lat="33.644041706936456" lon="8.994738980804827"><ele>45.0</ele><time>2026-04-07T08:43:37Z</time></trkpt><trkpt lat="33.64415161823324" lon="8.994700968351998"><ele>45.0</ele><time>2026-04-07T08:43:39Z</time></trkpt><trkpt lat="33.644213350323774" lon="8.994671217098558"><ele>45.0</ele><time>2026-04-07T08:43:40Z</time></trkpt><trkpt lat="33.644277546257285" lon="8.99464636932258"><ele>45.0</ele><time>2026-04-07T08:43:41Z</time></trkpt><trkpt lat="33.64439087066672" lon="8.994617901203583"><ele>45.0</ele><time>2026-04-07T08:43:43Z</time></trkpt><trkpt lat="33.6445002492395" lon="8.994589972902736"><ele>45.8</ele><time>2026-04-07T08:43:45Z</time></trkpt><trkpt lat="33.64462311277009" lon="8.994541974325509"><ele>46.6</ele><time>2026-04-07T08:43:47Z</time></trkpt><trkpt lat="33.64470770508656" lon="8.994509617352854"><ele>47.400000000000006</ele><time>2026-04-07T08:43:48Z</time></trkpt><trkpt lat="33.64480182952414" lon="8.994478580841138"><ele>48.2</ele><time>2026-04-07T08:43:49Z</time></trkpt><trkpt lat="33.64490320512952" lon="8.994452627069109"><ele>49.0</ele><time>2026-04-07T08:43:50Z</time></trkpt><trkpt lat="33.64501608626197" lon="8.99443286891362"><ele>49.0</ele><time>2026-04-07T08:43:51Z</time></trkpt><trkpt lat="33.64513457625811" lon="8.994419361710836"><ele>49.0</ele><time>2026-04-07T08:43:52Z</time></trkpt><trkpt lat="33.64525720558722" lon="8.994409120159647"><ele>49.0</ele><time>2026-04-07T08:43:53Z</time></trkpt><trkpt lat="33.645386238950486" lon="8.994407521873558"><ele>49.0</ele><time>2026-04-07T08:43:54Z</time></trkpt><trkpt lat="33.64551613429775" lon="8.994414522505581"><ele>48.5</ele><time>2026-04-07T08:43:55Z</time></trkpt><trkpt lat="33.64565042070375" lon="8.99442983092101"><ele>48.0</ele><time>2026-04-07T08:43:56Z</time></trkpt><trkpt lat="33.645789091260376" lon="8.994450974590196"><ele>47.5</ele><time>2026-04-07T08:43:57Z</time></trkpt><trkpt lat="33.64593330884308" lon="8.994479312345714"><ele>47.0</ele><time>2026-04-07T08:43:58Z</time></trkpt><trkpt lat="33.64607976097281" lon="8.994509109305001"><ele>46.33333333333333</ele><time>2026-04-07T08:43:59Z</time></trkpt><trkpt lat="33.64623209738915" lon="8.994545297128845"><ele>45.666666666666664</ele><time>2026-04-07T08:44:00Z</time></trkpt><trkpt lat="33.6463834565378" lon="8.994588098995116"><ele>45.0</ele><time>2026-04-07T08:44:01Z</time></trkpt><trkpt lat="33.64653538230081" lon="8.994631446505023"><ele>45.0</ele><time>2026-04-07T08:44:02Z</time></trkpt><trkpt lat="33.64668550733884" lon="8.99466831677113"><ele>45.0</ele><time>2026-04-07T08:44:03Z</time></trkpt><trkpt lat="33.64683428706304" lon="8.994702715142564"><ele>45.0</ele><time>2026-04-07T08:44:04Z</time></trkpt><trkpt lat="33.646983354729315" lon="8.994739562731844"><ele>45.333333333333336</ele><time>2026-04-07T08:44:05Z</time></trkpt><trkpt lat="33.647131399353235" lon="8.994778929813517"><ele>45.66666666666667</ele><time>2026-04-07T08:44:06Z</time></trkpt><trkpt lat="33.647282241072354" lon="8.99481755843589"><ele>46.0</ele><time>2026-04-07T08:44:07Z</time></trkpt><trkpt lat="33.64743552112911" lon="8.99485440344266"><ele>46.0</ele><time>2026-04-07T08:44:08Z</time></trkpt><trkpt lat="33.64758663286739" lon="8.994894004669852"><ele>46.0</ele><time>2026-04-07T08:44:09Z</time></trkpt><trkpt lat="33.64773999179515" lon="8.99493353314955"><ele>46.0</ele><time>2026-04-07T08:44:10Z</time></trkpt><trkpt lat="33.647896397296385" lon="8.994964551349247"><ele>45.66666666666667</ele><time>2026-04-07T08:44:11Z</time></trkpt><trkpt lat="33.64805342451437" lon="8.994986280480491"><ele>45.333333333333336</ele><time>2026-04-07T08:44:12Z</time></trkpt><trkpt lat="33.648210446140816" lon="8.995003732365578"><ele>45.0</ele><time>2026-04-07T08:44:13Z</time></trkpt><trkpt lat="33.64837091949294" lon="8.995019689058497"><ele>45.0</ele><time>2026-04-07T08:44:14Z</time></trkpt><trkpt lat="33.64853188199175" lon="8.995031292800482"><ele>45.0</ele><time>2026-04-07T08:44:15Z</time></trkpt><trkpt lat="33.64869594816299" lon="8.995038129945566"><ele>45.0</ele><time>2026-04-07T08:44:16Z</time></trkpt><trkpt lat="33.64886821946065" lon="8.995032615935633"><ele>45.0</ele><time>2026-04-07T08:44:17Z</time></trkpt><trkpt lat="33.649044753608194" lon="8.995023520466466"><ele>45.0</ele><time>2026-04-07T08:44:18Z</time></trkpt><trkpt lat="33.649222684131416" lon="8.99500958339651"><ele>45.0</ele><time>2026-04-07T08:44:19Z</time></trkpt><trkpt lat="33.64940661667141" lon="8.994992587769936"><ele>44.333333333333336</ele><time>2026-04-07T08:44:20Z</time></trkpt><trkpt lat="33.649593112574195" lon="8.994972135873443"><ele>43.66666666666667</ele><time>2026-04-07T08:44:21Z</time></trkpt><trkpt lat="33.64978375801692" lon="8.994948017986333"><ele>43.0</ele><time>2026-04-07T08:44:22Z</time></trkpt><trkpt lat="33.64997369512355" lon="8.994921530840655"><ele>43.0</ele><time>2026-04-07T08:44:23Z</time></trkpt><trkpt lat="33.65016181109602" lon="8.994892049325799"><ele>43.0</ele><time>2026-04-07T08:44:24Z</time></trkpt><trkpt lat="33.65035304950457" lon="8.994862889560352"><ele>43.0</ele><time>2026-04-07T08:44:25Z</time></trkpt><trkpt lat="33.650542143580786" lon="8.994837875258598"><ele>42.66666666666667</ele><time>2026-04-07T08:44:26Z</time></trkpt><trkpt lat="33.65072158437802" lon="8.994814837098032"><ele>42.333333333333336</ele><time>2026-04-07T08:44:27Z</time></trkpt><trkpt lat="33.65089009294843" lon="8.994791573618286"><ele>42.0</ele><time>2026-04-07T08:44:28Z</time></trkpt><trkpt lat="33.65105445885475" lon="8.994767532443984"><ele>41.666666666666664</ele><time>2026-04-07T08:44:29Z</time></trkpt><trkpt lat="33.65121296065092" lon="8.994744371964314"><ele>41.33333333333333</ele><time>2026-04-07T08:44:30Z</time></trkpt><trkpt lat="33.651370264178354" lon="8.994723883410789"><ele>41.0</ele><time>2026-04-07T08:44:31Z</time></trkpt><trkpt lat="33.65152879865072" lon="8.994703640772327"><ele>41.0</ele><time>2026-04-07T08:44:32Z</time></trkpt><trkpt lat="33.6516849621977" lon="8.994680807679542"><ele>41.0</ele><time>2026-04-07T08:44:33Z</time></trkpt><trkpt lat="33.65184318742604" lon="8.99465576799993"><ele>41.0</ele><time>2026-04-07T08:44:34Z</time></trkpt><trkpt lat="33.65199776875508" lon="8.994636531303302"><ele>42.0</ele><time>2026-04-07T08:44:35Z</time></trkpt><trkpt lat="33.652149290331224" lon="8.994617075153247"><ele>43.0</ele><time>2026-04-07T08:44:36Z</time></trkpt><trkpt lat="33.65230629700764" lon="8.994594381003484"><ele>44.0</ele><time>2026-04-07T08:44:37Z</time></trkpt><trkpt lat="33.652462396289835" lon="8.994572825820901"><ele>44.0</ele><time>2026-04-07T08:44:38Z</time></trkpt><trkpt lat="33.652622953119554" lon="8.994552275282155"><ele>44.0</ele><time>2026-04-07T08:44:39Z</time></trkpt><trkpt lat="33.65278157163137" lon="8.99452953332394"><ele>44.0</ele><time>2026-04-07T08:44:40Z</time></trkpt><trkpt lat="33.652933716010246" lon="8.994507399597595"><ele>44.0</ele><time>2026-04-07T08:44:41Z</time></trkpt><trkpt lat="33.65307837848744" lon="8.994488240645252"><ele>44.0</ele><time>2026-04-07T08:44:42Z</time></trkpt><trkpt lat="33.65321919192681" lon="8.994471750917379"><ele>44.0</ele><time>2026-04-07T08:44:43Z</time></trkpt><trkpt lat="33.65335254583396" lon="8.994455269788387"><ele>44.0</ele><time>2026-04-07T08:44:44Z</time></trkpt><trkpt lat="33.653487103412765" lon="8.994440818526277"><ele>44.0</ele><time>2026-04-07T08:44:45Z</time></trkpt><trkpt lat="33.65361910116549" lon="8.99442314618649"><ele>44.0</ele><time>2026-04-07T08:44:46Z</time></trkpt><trkpt lat="33.653754110392605" lon="8.994402717089615"><ele>44.0</ele><time>2026-04-07T08:44:47Z</time></trkpt><trkpt lat="33.653894569564216" lon="8.9943834688653"><ele>44.0</ele><time>2026-04-07T08:44:48Z</time></trkpt><trkpt lat="33.65403517545829" lon="8.99436487807165"><ele>42.5</ele><time>2026-04-07T08:44:49Z</time></trkpt><trkpt lat="33.654177946933466" lon="8.99434428285555"><ele>41.0</ele><time>2026-04-07T08:44:50Z</time></trkpt><trkpt lat="33.65432197637809" lon="8.994322635186139"><ele>39.5</ele><time>2026-04-07T08:44:51Z</time></trkpt><trkpt lat="33.654463556629196" lon="8.994302245615659"><ele>38.0</ele><time>2026-04-07T08:44:52Z</time></trkpt><trkpt lat="33.65460511790736" lon="8.99428398331951"><ele>37.5</ele><time>2026-04-07T08:44:53Z</time></trkpt><trkpt lat="33.654744656116776" lon="8.994265932744662"><ele>37.0</ele><time>2026-04-07T08:44:54Z</time></trkpt><trkpt lat="33.65488383160198" lon="8.994251056510924"><ele>36.5</ele><time>2026-04-07T08:44:55Z</time></trkpt><trkpt lat="33.655022779648654" lon="8.994236056502768"><ele>36.0</ele><time>2026-04-07T08:44:56Z</time></trkpt><trkpt lat="33.655164351164565" lon="8.994216110584443"><ele>36.25</ele><time>2026-04-07T08:44:57Z</time></trkpt><trkpt lat="33.65531192549805" lon="8.994194346584912"><ele>36.5</ele><time>2026-04-07T08:44:58Z</time></trkpt><trkpt lat="33.65545885343344" lon="8.99417516526441"><ele>36.75</ele><time>2026-04-07T08:44:59Z</time></trkpt><trkpt lat="33.655610324223716" lon="8.994160236746014"><ele>37.0</ele><time>2026-04-07T08:45:00Z</time></trkpt><trkpt lat="33.65575960593502" lon="8.994143371001998"><ele>37.0</ele><time>2026-04-07T08:45:01Z</time></trkpt><trkpt lat="33.6559084486295" lon="8.994122844964904"><ele>37.0</ele><time>2026-04-07T08:45:02Z</time></trkpt><trkpt lat="33.656057177274484" lon="8.99410286881597"><ele>37.0</ele><time>2026-04-07T08:45:03Z</time></trkpt><trkpt lat="33.656204907229075" lon="8.994084207014426"><ele>37.0</ele><time>2026-04-07T08:45:04Z</time></trkpt><trkpt lat="33.6563533667107" lon="8.994067130921882"><ele>36.25</ele><time>2026-04-07T08:45:05Z</time></trkpt><trkpt lat="33.6564994289573" lon="8.994046557096441"><ele>35.5</ele><time>2026-04-07T08:45:06Z</time></trkpt><trkpt lat="33.656646399273285" lon="8.994026739097933"><ele>34.75</ele><time>2026-04-07T08:45:07Z</time></trkpt><trkpt lat="33.65679422690435" lon="8.994008189229149"><ele>34.0</ele><time>2026-04-07T08:45:08Z</time></trkpt><trkpt lat="33.656941657169945" lon="8.993986497072376"><ele>33.5</ele><time>2026-04-07T08:45:09Z</time></trkpt><trkpt lat="33.65708820619992" lon="8.993965638145601"><ele>33.0</ele><time>2026-04-07T08:45:10Z</time></trkpt><trkpt lat="33.657235455779535" lon="8.993946170547549"><ele>32.5</ele><time>2026-04-07T08:45:11Z</time></trkpt><trkpt lat="33.65738283966927" lon="8.99393043371667"><ele>32.0</ele><time>2026-04-07T08:45:12Z</time></trkpt><trkpt lat="33.657530663381316" lon="8.993916413436105"><ele>32.0</ele><time>2026-04-07T08:45:13Z</time></trkpt><trkpt lat="33.65767571045978" lon="8.993899489239357"><ele>32.0</ele><time>2026-04-07T08:45:14Z</time></trkpt><trkpt lat="33.6578224076346" lon="8.993878365065568"><ele>32.0</ele><time>2026-04-07T08:45:15Z</time></trkpt><trkpt lat="33.657974489642235" lon="8.993855679432261"><ele>32.0</ele><time>2026-04-07T08:45:16Z</time></trkpt><trkpt lat="33.65813574951193" lon="8.993833686335135"><ele>32.0</ele><time>2026-04-07T08:45:17Z</time></trkpt><trkpt lat="33.658301166062394" lon="8.993811960718528"><ele>32.0</ele><time>2026-04-07T08:45:18Z</time></trkpt><trkpt lat="33.65847095242888" lon="8.993786656192789"><ele>32.0</ele><time>2026-04-07T08:45:19Z</time></trkpt><trkpt lat="33.658643239120295" lon="8.99375741581454"><ele>32.0</ele><time>2026-04-07T08:45:20Z</time></trkpt><trkpt lat="33.658818825674274" lon="8.993733165515783"><ele>32.0</ele><time>2026-04-07T08:45:21Z</time></trkpt><trkpt lat="33.65899443876755" lon="8.993709968292556"><ele>32.0</ele><time>2026-04-07T08:45:22Z</time></trkpt><trkpt lat="33.65916874289623" lon="8.993686052151576"><ele>32.0</ele><time>2026-04-07T08:45:23Z</time></trkpt><trkpt lat="33.65934693395287" lon="8.993662627226534"><ele>32.0</ele><time>2026-04-07T08:45:24Z</time></trkpt><trkpt lat="33.65952936526523" lon="8.99363822320954"><ele>32.0</ele><time>2026-04-07T08:45:25Z</time></trkpt><trkpt lat="33.659710728375224" lon="8.993609636820723"><ele>33.0</ele><time>2026-04-07T08:45:26Z</time></trkpt><trkpt lat="33.65989855942634" lon="8.993582189727011"><ele>34.0</ele><time>2026-04-07T08:45:27Z</time></trkpt><trkpt lat="33.66008040065895" lon="8.993553001092733"><ele>35.0</ele><time>2026-04-07T08:45:28Z</time></trkpt><trkpt lat="33.66026410992333" lon="8.993528592595116"><ele>35.33333333333333</ele><time>2026-04-07T08:45:29Z</time></trkpt><trkpt lat="33.66044951486141" lon="8.993504971417218"><ele>35.666666666666664</ele><time>2026-04-07T08:45:30Z</time></trkpt><trkpt lat="33.66063152191245" lon="8.99348594153538"><ele>36.0</ele><time>2026-04-07T08:45:31Z</time></trkpt><trkpt lat="33.66081458632623" lon="8.9934659307566"><ele>36.0</ele><time>2026-04-07T08:45:32Z</time></trkpt><trkpt lat="33.660997320900975" lon="8.993445631176268"><ele>36.0</ele><time>2026-04-07T08:45:33Z</time></trkpt><trkpt lat="33.661179489119135" lon="8.993422322571265"><ele>36.0</ele><time>2026-04-07T08:45:34Z</time></trkpt><trkpt lat="33.66135955887877" lon="8.993398643476024"><ele>35.0</ele><time>2026-04-07T08:45:35Z</time></trkpt><trkpt lat="33.661541109411154" lon="8.993373802042942"><ele>34.0</ele><time>2026-04-07T08:45:36Z</time></trkpt><trkpt lat="33.66172336649837" lon="8.993348727729115"><ele>33.0</ele><time>2026-04-07T08:45:37Z</time></trkpt><trkpt lat="33.66190589121583" lon="8.993322814119953"><ele>32.666666666666664</ele><time>2026-04-07T08:45:38Z</time></trkpt><trkpt lat="33.66208651447753" lon="8.993296960143557"><ele>32.33333333333333</ele><time>2026-04-07T08:45:39Z</time></trkpt><trkpt lat="33.66226776523132" lon="8.993271299653482"><ele>32.0</ele><time>2026-04-07T08:45:40Z</time></trkpt><trkpt lat="33.66244809208128" lon="8.993245032454483"><ele>32.0</ele><time>2026-04-07T08:45:41Z</time></trkpt><trkpt lat="33.66263060121742" lon="8.993218203698104"><ele>32.0</ele><time>2026-04-07T08:45:42Z</time></trkpt><trkpt lat="33.66281058896373" lon="8.993191867960444"><ele>32.0</ele><time>2026-04-07T08:45:43Z</time></trkpt><trkpt lat="33.66299219168384" lon="8.993167617117365"><ele>33.0</ele><time>2026-04-07T08:45:44Z</time></trkpt><trkpt lat="33.66317425263317" lon="8.993145648868712"><ele>34.0</ele><time>2026-04-07T08:45:45Z</time></trkpt><trkpt lat="33.66335548865148" lon="8.993125446941395"><ele>35.0</ele><time>2026-04-07T08:45:46Z</time></trkpt><trkpt lat="33.6635370278892" lon="8.993102509255566"><ele>34.33333333333333</ele><time>2026-04-07T08:45:47Z</time></trkpt><trkpt lat="33.663720500124825" lon="8.99307953331588"><ele>33.666666666666664</ele><time>2026-04-07T08:45:48Z</time></trkpt><trkpt lat="33.663902601983104" lon="8.993056110536715"><ele>33.0</ele><time>2026-04-07T08:45:49Z</time></trkpt><trkpt lat="33.66408349319436" lon="8.993032686644387"><ele>33.0</ele><time>2026-04-07T08:45:50Z</time></trkpt><trkpt lat="33.664264127412835" lon="8.99300811117273"><ele>33.0</ele><time>2026-04-07T08:45:51Z</time></trkpt><trkpt lat="33.664446326613266" lon="8.992980865993744"><ele>33.0</ele><time>2026-04-07T08:45:52Z</time></trkpt><trkpt lat="33.6646271832513" lon="8.992954719603645"><ele>32.333333333333336</ele><time>2026-04-07T08:45:53Z</time></trkpt><trkpt lat="33.664808785426175" lon="8.992930433122513"><ele>31.666666666666668</ele><time>2026-04-07T08:45:54Z</time></trkpt><trkpt lat="33.66498972584254" lon="8.992901989912966"><ele>31.0</ele><time>2026-04-07T08:45:55Z</time></trkpt><trkpt lat="33.66517147410932" lon="8.992874857443812"><ele>31.0</ele><time>2026-04-07T08:45:56Z</time></trkpt><trkpt lat="33.665352337395895" lon="8.992845287808713"><ele>31.0</ele><time>2026-04-07T08:45:57Z</time></trkpt><trkpt lat="33.66553450803557" lon="8.992817696969906"><ele>31.0</ele><time>2026-04-07T08:45:58Z</time></trkpt><trkpt lat="33.66571599851724" lon="8.992795362204754"><ele>31.0</ele><time>2026-04-07T08:45:59Z</time></trkpt><trkpt lat="33.66589898366095" lon="8.992774020130911"><ele>31.0</ele><time>2026-04-07T08:46:00Z</time></trkpt><trkpt lat="33.66608295052878" lon="8.99275065611344"><ele>31.0</ele><time>2026-04-07T08:46:01Z</time></trkpt><trkpt lat="33.66626653638235" lon="8.992729772175762"><ele>31.333333333333336</ele><time>2026-04-07T08:46:02Z</time></trkpt><trkpt lat="33.66644911087009" lon="8.99271026928409"><ele>31.666666666666664</ele><time>2026-04-07T08:46:03Z</time></trkpt><trkpt lat="33.666630736944654" lon="8.992690288626722"><ele>32.0</ele><time>2026-04-07T08:46:04Z</time></trkpt><trkpt lat="33.666813424434935" lon="8.992665611372937"><ele>32.33333333333333</ele><time>2026-04-07T08:46:05Z</time></trkpt><trkpt lat="33.66699567142863" lon="8.992641254615801"><ele>32.666666666666664</ele><time>2026-04-07T08:46:06Z</time></trkpt><trkpt lat="33.667178078730466" lon="8.99261757716905"><ele>33.0</ele><time>2026-04-07T08:46:07Z</time></trkpt><trkpt lat="33.66735977515854" lon="8.992594244225264"><ele>33.0</ele><time>2026-04-07T08:46:08Z</time></trkpt><trkpt lat="33.66754118955624" lon="8.992569994897304"><ele>33.0</ele><time>2026-04-07T08:46:09Z</time></trkpt><trkpt lat="33.667723134802095" lon="8.992545358060672"><ele>33.0</ele><time>2026-04-07T08:46:10Z</time></trkpt><trkpt lat="33.667905757959836" lon="8.99251997777988"><ele>32.0</ele><time>2026-04-07T08:46:11Z</time></trkpt><trkpt lat="33.66808823702534" lon="8.992490738698448"><ele>31.0</ele><time>2026-04-07T08:46:12Z</time></trkpt><trkpt lat="33.66827102003682" lon="8.992463887378106"><ele>30.0</ele><time>2026-04-07T08:46:13Z</time></trkpt><trkpt lat="33.668451475035496" lon="8.992435979744222"><ele>29.666666666666664</ele><time>2026-04-07T08:46:14Z</time></trkpt><trkpt lat="33.668635068279464" lon="8.992415943140537"><ele>29.333333333333332</ele><time>2026-04-07T08:46:15Z</time></trkpt><trkpt lat="33.66881620639554" lon="8.992392865969492"><ele>29.0</ele><time>2026-04-07T08:46:16Z</time></trkpt><trkpt lat="33.668997309906146" lon="8.992375079492797"><ele>29.0</ele><time>2026-04-07T08:46:17Z</time></trkpt><trkpt lat="33.669178388896675" lon="8.992359223264593"><ele>29.0</ele><time>2026-04-07T08:46:18Z</time></trkpt><trkpt lat="33.66936131447425" lon="8.99234617905664"><ele>29.0</ele><time>2026-04-07T08:46:19Z</time></trkpt><trkpt lat="33.66954531926724" lon="8.992335300451915"><ele>30.0</ele><time>2026-04-07T08:46:20Z</time></trkpt><trkpt lat="33.66972980884157" lon="8.992326401662668"><ele>31.0</ele><time>2026-04-07T08:46:21Z</time></trkpt><trkpt lat="33.669917489728434" lon="8.992324287020228"><ele>32.0</ele><time>2026-04-07T08:46:22Z</time></trkpt><trkpt lat="33.6701076928357" lon="8.992326292965434"><ele>31.666666666666664</ele><time>2026-04-07T08:46:23Z</time></trkpt><trkpt lat="33.67029927248431" lon="8.992337789121093"><ele>31.333333333333336</ele><time>2026-04-07T08:46:24Z</time></trkpt><trkpt lat="33.670492417373254" lon="8.992354011988944"><ele>31.0</ele><time>2026-04-07T08:46:25Z</time></trkpt><trkpt lat="33.67068249104575" lon="8.992371174827635"><ele>31.0</ele><time>2026-04-07T08:46:26Z</time></trkpt><trkpt lat="33.670877022781184" lon="8.992382020768575"><ele>31.0</ele><time>2026-04-07T08:46:27Z</time></trkpt><trkpt lat="33.67106820492573" lon="8.992395551611978"><ele>31.0</ele><time>2026-04-07T08:46:28Z</time></trkpt><trkpt lat="33.67125845932549" lon="8.992412234641185"><ele>31.333333333333336</ele><time>2026-04-07T08:46:29Z</time></trkpt><trkpt lat="33.67144756722182" lon="8.992428248147949"><ele>31.666666666666664</ele><time>2026-04-07T08:46:30Z</time></trkpt><trkpt lat="33.67164005465962" lon="8.99244843916748"><ele>32.0</ele><time>2026-04-07T08:46:31Z</time></trkpt><trkpt lat="33.67182959431785" lon="8.99246457836148"><ele>32.33333333333333</ele><time>2026-04-07T08:46:32Z</time></trkpt><trkpt lat="33.6720211849528" lon="8.992481923645766"><ele>32.666666666666664</ele><time>2026-04-07T08:46:33Z</time></trkpt><trkpt lat="33.67221102438301" lon="8.992493635367662"><ele>33.0</ele><time>2026-04-07T08:46:34Z</time></trkpt><trkpt lat="33.672404207237605" lon="8.992500529330004"><ele>33.0</ele><time>2026-04-07T08:46:35Z</time></trkpt><trkpt lat="33.67259153384705" lon="8.992496695753692"><ele>33.0</ele><time>2026-04-07T08:46:36Z</time></trkpt><trkpt lat="33.67277057001025" lon="8.992484626415242"><ele>33.0</ele><time>2026-04-07T08:46:37Z</time></trkpt><trkpt lat="33.67294740674985" lon="8.992475267075283"><ele>33.666666666666664</ele><time>2026-04-07T08:46:38Z</time></trkpt><trkpt lat="33.673120396076335" lon="8.992459143356024"><ele>34.33333333333333</ele><time>2026-04-07T08:46:39Z</time></trkpt><trkpt lat="33.67328875009116" lon="8.992441101502418"><ele>35.0</ele><time>2026-04-07T08:46:40Z</time></trkpt><trkpt lat="33.673449529388506" lon="8.992414046923345"><ele>34.33333333333333</ele><time>2026-04-07T08:46:41Z</time></trkpt><trkpt lat="33.67361320574525" lon="8.992384497315289"><ele>33.666666666666664</ele><time>2026-04-07T08:46:42Z</time></trkpt><trkpt lat="33.67376833691595" lon="8.992349783600199"><ele>33.0</ele><time>2026-04-07T08:46:43Z</time></trkpt><trkpt lat="33.673909900389056" lon="8.992317287684887"><ele>33.0</ele><time>2026-04-07T08:46:44Z</time></trkpt><trkpt lat="33.67405040109356" lon="8.99228358373364"><ele>33.0</ele><time>2026-04-07T08:46:45Z</time></trkpt><trkpt lat="33.67420461368138" lon="8.992245019445297"><ele>33.0</ele><time>2026-04-07T08:46:46Z</time></trkpt><trkpt lat="33.674360125737294" lon="8.992200200464287"><ele>32.666666666666664</ele><time>2026-04-07T08:46:47Z</time></trkpt><trkpt lat="33.674511663871655" lon="8.992158560352697"><ele>32.33333333333333</ele><time>2026-04-07T08:46:48Z</time></trkpt><trkpt lat="33.67466003230339" lon="8.99211506997249"><ele>32.0</ele><time>2026-04-07T08:46:49Z</time></trkpt><trkpt lat="33.6748112922034" lon="8.992067709016808"><ele>32.0</ele><time>2026-04-07T08:46:50Z</time></trkpt><trkpt lat="33.674963616139046" lon="8.992022875656946"><ele>32.0</ele><time>2026-04-07T08:46:51Z</time></trkpt><trkpt lat="33.675117333635676" lon="8.991980207999884"><ele>32.0</ele><time>2026-04-07T08:46:52Z</time></trkpt><trkpt lat="33.675269568509435" lon="8.991938767772446"><ele>31.333333333333332</ele><time>2026-04-07T08:46:53Z</time></trkpt><trkpt lat="33.675423768577794" lon="8.991894991845438"><ele>30.666666666666664</ele><time>2026-04-07T08:46:54Z</time></trkpt><trkpt lat="33.675579654856854" lon="8.99184739662959"><ele>30.0</ele><time>2026-04-07T08:46:55Z</time></trkpt><trkpt lat="33.67573602961739" lon="8.99179777115968"><ele>30.0</ele><time>2026-04-07T08:46:56Z</time></trkpt><trkpt lat="33.67589335791555" lon="8.991750914433887"><ele>30.0</ele><time>2026-04-07T08:46:57Z</time></trkpt><trkpt lat="33.67605426191591" lon="8.99170762685614"><ele>30.0</ele><time>2026-04-07T08:46:58Z</time></trkpt><trkpt lat="33.676215994704584" lon="8.991656787324926"><ele>29.333333333333336</ele><time>2026-04-07T08:46:59Z</time></trkpt><trkpt lat="33.67638018325501" lon="8.991610753300245"><ele>28.666666666666668</ele><time>2026-04-07T08:47:00Z</time></trkpt><trkpt lat="33.67654594753558" lon="8.991563091108489"><ele>28.0</ele><time>2026-04-07T08:47:01Z</time></trkpt><trkpt lat="33.67671573002204" lon="8.991513269561938"><ele>28.0</ele><time>2026-04-07T08:47:02Z</time></trkpt><trkpt lat="33.676885134215844" lon="8.991459585628261"><ele>28.0</ele><time>2026-04-07T08:47:03Z</time></trkpt><trkpt lat="33.67705298172894" lon="8.991410395828478"><ele>28.0</ele><time>2026-04-07T08:47:04Z</time></trkpt><trkpt lat="33.6772213898831" lon="8.991363033668618"><ele>28.333333333333336</ele><time>2026-04-07T08:47:05Z</time></trkpt><trkpt lat="33.6773787966385" lon="8.991313842238512"><ele>28.666666666666664</ele><time>2026-04-07T08:47:06Z</time></trkpt><trkpt lat="33.677530033132456" lon="8.991265278120629"><ele>29.0</ele><time>2026-04-07T08:47:07Z</time></trkpt><trkpt lat="33.67768073381675" lon="8.991223246814517"><ele>29.333333333333332</ele><time>2026-04-07T08:47:08Z</time></trkpt><trkpt lat="33.677828655156496" lon="8.991181811284157"><ele>29.666666666666664</ele><time>2026-04-07T08:47:09Z</time></trkpt><trkpt lat="33.67797509924274" lon="8.991135825530446"><ele>30.0</ele><time>2026-04-07T08:47:10Z</time></trkpt><trkpt lat="33.67811977795013" lon="8.991093956498368"><ele>30.0</ele><time>2026-04-07T08:47:11Z</time></trkpt><trkpt lat="33.678264097404934" lon="8.991051847567004"><ele>30.0</ele><time>2026-04-07T08:47:12Z</time></trkpt><trkpt lat="33.67839951606374" lon="8.9910141671578"><ele>30.0</ele><time>2026-04-07T08:47:13Z</time></trkpt><trkpt lat="33.67852637878366" lon="8.990976201478789"><ele>30.0</ele><time>2026-04-07T08:47:14Z</time></trkpt><trkpt lat="33.67864139214055" lon="8.99094207176351"><ele>30.0</ele><time>2026-04-07T08:47:15Z</time></trkpt><trkpt lat="33.67873873755077" lon="8.99091287760267"><ele>30.0</ele><time>2026-04-07T08:47:16Z</time></trkpt><trkpt lat="33.67882535620251" lon="8.990887516718933"><ele>30.0</ele><time>2026-04-07T08:47:17Z</time></trkpt><trkpt lat="33.67890445278256" lon="8.99086510669693"><ele>30.0</ele><time>2026-04-07T08:47:18Z</time></trkpt><trkpt lat="33.67897773353413" lon="8.990841413897737"><ele>30.0</ele><time>2026-04-07T08:47:19Z</time></trkpt><trkpt lat="33.67904410411571" lon="8.990819025650492"><ele>30.0</ele><time>2026-04-07T08:47:20Z</time></trkpt><trkpt lat="33.679108646356184" lon="8.990804739623263"><ele>30.0</ele><time>2026-04-07T08:47:21Z</time></trkpt><trkpt lat="33.67921663204914" lon="8.990779774028777"><ele>30.0</ele><time>2026-04-07T08:47:23Z</time></trkpt><trkpt lat="33.679298199512466" lon="8.990746905892612"><ele>30.0</ele><time>2026-04-07T08:47:25Z</time></trkpt><trkpt lat="33.67936691580702" lon="8.990731466945576"><ele>30.0</ele><time>2026-04-07T08:47:27Z</time></trkpt><trkpt lat="33.67943815818683" lon="8.990706026141426"><ele>30.0</ele><time>2026-04-07T08:47:29Z</time></trkpt><trkpt lat="33.67951950311597" lon="8.990686292489423"><ele>30.0</ele><time>2026-04-07T08:47:31Z</time></trkpt><trkpt lat="33.679589655299424" lon="8.990666819571969"><ele>30.333333333333332</ele><time>2026-04-07T08:47:33Z</time></trkpt><trkpt lat="33.67966498642674" lon="8.990652569555957"><ele>30.666666666666664</ele><time>2026-04-07T08:47:35Z</time></trkpt><trkpt lat="33.67975124794636" lon="8.990654439067894"><ele>31.0</ele><time>2026-04-07T08:47:38Z</time></trkpt><trkpt lat="33.67983490109368" lon="8.990662699587103"><ele>31.333333333333332</ele><time>2026-04-07T08:47:40Z</time></trkpt><trkpt lat="33.679936229372764" lon="8.99070068928986"><ele>31.666666666666664</ele><time>2026-04-07T08:47:42Z</time></trkpt><trkpt lat="33.680003425246866" lon="8.990735079966168"><ele>32.0</ele><time>2026-04-07T08:47:43Z</time></trkpt><trkpt lat="33.68008232292338" lon="8.990780267473324"><ele>31.75</ele><time>2026-04-07T08:47:44Z</time></trkpt><trkpt lat="33.68016570866339" lon="8.990854939285645"><ele>31.5</ele><time>2026-04-07T08:47:45Z</time></trkpt><trkpt lat="33.68025788404312" lon="8.990965917513401"><ele>31.25</ele><time>2026-04-07T08:47:46Z</time></trkpt><trkpt lat="33.68036079240128" lon="8.991119827566402"><ele>31.0</ele><time>2026-04-07T08:47:47Z</time></trkpt><trkpt lat="33.6804791655821" lon="8.991307145404358"><ele>31.0</ele><time>2026-04-07T08:47:48Z</time></trkpt><trkpt lat="33.68060822418514" lon="8.991518066331805"><ele>31.0</ele><time>2026-04-07T08:47:49Z</time></trkpt><trkpt lat="33.68072156921187" lon="8.991703830241777"><ele>31.0</ele><time>2026-04-07T08:47:50Z</time></trkpt><trkpt lat="33.68082294989914" lon="8.991867160417867"><ele>31.25</ele><time>2026-04-07T08:47:51Z</time></trkpt><trkpt lat="33.68091852161384" lon="8.99201443436361"><ele>31.5</ele><time>2026-04-07T08:47:52Z</time></trkpt><trkpt lat="33.68100542735163" lon="8.992152978109234"><ele>31.75</ele><time>2026-04-07T08:47:53Z</time></trkpt><trkpt lat="33.68108629459948" lon="8.992284340902746"><ele>32.0</ele><time>2026-04-07T08:47:54Z</time></trkpt><trkpt lat="33.68116541113105" lon="8.992411658214357"><ele>30.5</ele><time>2026-04-07T08:47:55Z</time></trkpt><trkpt lat="33.68124534118666" lon="8.992540146137998"><ele>29.0</ele><time>2026-04-07T08:47:56Z</time></trkpt><trkpt lat="33.68132695966634" lon="8.992672437154786"><ele>27.5</ele><time>2026-04-07T08:47:57Z</time></trkpt><trkpt lat="33.68140920587818" lon="8.992804744696071"><ele>26.0</ele><time>2026-04-07T08:47:58Z</time></trkpt><trkpt lat="33.681491674356934" lon="8.992934640095973"><ele>26.0</ele><time>2026-04-07T08:47:59Z</time></trkpt><trkpt lat="33.681571824809076" lon="8.993061033184452"><ele>26.0</ele><time>2026-04-07T08:48:00Z</time></trkpt><trkpt lat="33.68165118740113" lon="8.993190194506871"><ele>26.0</ele><time>2026-04-07T08:48:01Z</time></trkpt><trkpt lat="33.68172345691305" lon="8.993306989293574"><ele>26.0</ele><time>2026-04-07T08:48:02Z</time></trkpt><trkpt lat="33.681795825383176" lon="8.99342500807596"><ele>26.25</ele><time>2026-04-07T08:48:03Z</time></trkpt><trkpt lat="33.68186990717049" lon="8.993542254929576"><ele>26.5</ele><time>2026-04-07T08:48:04Z</time></trkpt><trkpt lat="33.681946435618954" lon="8.993661494104018"><ele>26.75</ele><time>2026-04-07T08:48:05Z</time></trkpt><trkpt lat="33.68202804702325" lon="8.993789037307499"><ele>27.0</ele><time>2026-04-07T08:48:06Z</time></trkpt><trkpt lat="33.682114397856274" lon="8.993920015332526"><ele>28.0</ele><time>2026-04-07T08:48:07Z</time></trkpt><trkpt lat="33.68220425254152" lon="8.99405592137408"><ele>29.0</ele><time>2026-04-07T08:48:08Z</time></trkpt><trkpt lat="33.68229352878594" lon="8.994204922534301"><ele>30.0</ele><time>2026-04-07T08:48:09Z</time></trkpt><trkpt lat="33.68238664515243" lon="8.99435440495204"><ele>30.333333333333336</ele><time>2026-04-07T08:48:10Z</time></trkpt><trkpt lat="33.68248278056641" lon="8.994506437912678"><ele>30.666666666666668</ele><time>2026-04-07T08:48:11Z</time></trkpt><trkpt lat="33.682578033934156" lon="8.994656772197672"><ele>31.0</ele><time>2026-04-07T08:48:12Z</time></trkpt><trkpt lat="33.68267331626907" lon="8.994808872730584"><ele>31.0</ele><time>2026-04-07T08:48:13Z</time></trkpt><trkpt lat="33.682768176456044" lon="8.99496318963357"><ele>31.0</ele><time>2026-04-07T08:48:14Z</time></trkpt><trkpt lat="33.68286415465915" lon="8.995119935160293"><ele>31.0</ele><time>2026-04-07T08:48:15Z</time></trkpt><trkpt lat="33.68296111654733" lon="8.995276366094833"><ele>32.66666666666667</ele><time>2026-04-07T08:48:16Z</time></trkpt><trkpt lat="33.68305971335924" lon="8.995434138632435"><ele>34.333333333333336</ele><time>2026-04-07T08:48:17Z</time></trkpt><trkpt lat="33.68315975716678" lon="8.995593560855806"><ele>36.0</ele><time>2026-04-07T08:48:18Z</time></trkpt><trkpt lat="33.6832582051042" lon="8.995751023124727"><ele>36.666666666666664</ele><time>2026-04-07T08:48:19Z</time></trkpt><trkpt lat="33.683356973603" lon="8.995911626493621"><ele>37.33333333333333</ele><time>2026-04-07T08:48:20Z</time></trkpt><trkpt lat="33.683456462505" lon="8.996071935761888"><ele>38.0</ele><time>2026-04-07T08:48:21Z</time></trkpt><trkpt lat="33.68356143237226" lon="8.99623617230124"><ele>38.0</ele><time>2026-04-07T08:48:22Z</time></trkpt><trkpt lat="33.683666964216904" lon="8.996402721157835"><ele>38.0</ele><time>2026-04-07T08:48:23Z</time></trkpt><trkpt lat="33.683772983857935" lon="8.99657083981694"><ele>38.0</ele><time>2026-04-07T08:48:24Z</time></trkpt><trkpt lat="33.68388036236984" lon="8.996738345790142"><ele>38.0</ele><time>2026-04-07T08:48:25Z</time></trkpt><trkpt lat="33.68398611073385" lon="8.996905683821739"><ele>38.0</ele><time>2026-04-07T08:48:26Z</time></trkpt><trkpt lat="33.68409325976347" lon="8.997074537577552"><ele>38.0</ele><time>2026-04-07T08:48:27Z</time></trkpt><trkpt lat="33.68419943859528" lon="8.997243246353868"><ele>38.0</ele><time>2026-04-07T08:48:28Z</time></trkpt><trkpt lat="33.684308713244064" lon="8.997414166191302"><ele>38.0</ele><time>2026-04-07T08:48:29Z</time></trkpt><trkpt lat="33.684423809693754" lon="8.997586350126028"><ele>38.0</ele><time>2026-04-07T08:48:30Z</time></trkpt><trkpt lat="33.68454506083763" lon="8.997757368976258"><ele>39.33333333333333</ele><time>2026-04-07T08:48:31Z</time></trkpt><trkpt lat="33.684666045702755" lon="8.997927569101204"><ele>40.666666666666664</ele><time>2026-04-07T08:48:32Z</time></trkpt><trkpt lat="33.684790918395855" lon="8.99809831903009"><ele>42.0</ele><time>2026-04-07T08:48:33Z</time></trkpt><trkpt lat="33.68492088732097" lon="8.998267832303286"><ele>43.0</ele><time>2026-04-07T08:48:34Z</time></trkpt><trkpt lat="33.68505898828104" lon="8.998444746457224"><ele>44.0</ele><time>2026-04-07T08:48:35Z</time></trkpt><trkpt lat="33.685205219169234" lon="8.998622788860818"><ele>45.0</ele><time>2026-04-07T08:48:36Z</time></trkpt><trkpt lat="33.68535630257833" lon="8.998801001271081"><ele>45.0</ele><time>2026-04-07T08:48:37Z</time></trkpt><trkpt lat="33.68551623810053" lon="8.998982861821155"><ele>45.0</ele><time>2026-04-07T08:48:38Z</time></trkpt><trkpt lat="33.68567900809926" lon="8.999166655930837"><ele>45.0</ele><time>2026-04-07T08:48:39Z</time></trkpt><trkpt lat="33.685851012353254" lon="8.999352041341693"><ele>45.0</ele><time>2026-04-07T08:48:40Z</time></trkpt><trkpt lat="33.68602496638605" lon="8.999537329379809"><ele>45.0</ele><time>2026-04-07T08:48:41Z</time></trkpt><trkpt lat="33.68620384647986" lon="8.99972362758134"><ele>45.0</ele><time>2026-04-07T08:48:42Z</time></trkpt><trkpt lat="33.68639087912345" lon="8.999912970720157"><ele>45.0</ele><time>2026-04-07T08:48:43Z</time></trkpt><trkpt lat="33.68657973835519" lon="9.000102836658238"><ele>45.0</ele><time>2026-04-07T08:48:44Z</time></trkpt><trkpt lat="33.68677022342284" lon="9.000288928637692"><ele>45.0</ele><time>2026-04-07T08:48:45Z</time></trkpt><trkpt lat="33.68696603729241" lon="9.000473320435837"><ele>45.5</ele><time>2026-04-07T08:48:46Z</time></trkpt><trkpt lat="33.68716413400356" lon="9.000649869330031"><ele>46.0</ele><time>2026-04-07T08:48:47Z</time></trkpt><trkpt lat="33.68736014720151" lon="9.00082336803563"><ele>47.0</ele><time>2026-04-07T08:48:48Z</time></trkpt><trkpt lat="33.68755341761778" lon="9.000983948747187"><ele>48.0</ele><time>2026-04-07T08:48:49Z</time></trkpt><trkpt lat="33.68773851093745" lon="9.001128885992118"><ele>48.33333333333333</ele><time>2026-04-07T08:48:50Z</time></trkpt><trkpt lat="33.68791763525188" lon="9.001263707472518"><ele>48.666666666666664</ele><time>2026-04-07T08:48:51Z</time></trkpt><trkpt lat="33.688089585265814" lon="9.001380674471118"><ele>49.0</ele><time>2026-04-07T08:48:52Z</time></trkpt><trkpt lat="33.68825700911586" lon="9.00149266755795"><ele>49.0</ele><time>2026-04-07T08:48:53Z</time></trkpt><trkpt lat="33.6884220312535" lon="9.001608407249789"><ele>49.0</ele><time>2026-04-07T08:48:54Z</time></trkpt><trkpt lat="33.688588543165295" lon="9.001718379360202"><ele>49.0</ele><time>2026-04-07T08:48:55Z</time></trkpt><trkpt lat="33.68875497944698" lon="9.001819486084766"><ele>49.666666666666664</ele><time>2026-04-07T08:48:56Z</time></trkpt><trkpt lat="33.68891490808078" lon="9.001914175946638"><ele>50.33333333333333</ele><time>2026-04-07T08:48:57Z</time></trkpt><trkpt lat="33.6890722062126" lon="9.002005834780428"><ele>51.0</ele><time>2026-04-07T08:48:58Z</time></trkpt><trkpt lat="33.68923168601761" lon="9.002097533066516"><ele>51.0</ele><time>2026-04-07T08:48:59Z</time></trkpt><trkpt lat="33.689391663872925" lon="9.002192863671675"><ele>51.0</ele><time>2026-04-07T08:49:00Z</time></trkpt><trkpt lat="33.68955135542646" lon="9.00228517754246"><ele>51.0</ele><time>2026-04-07T08:49:01Z</time></trkpt><trkpt lat="33.68971462882303" lon="9.002375158575386"><ele>50.66666666666667</ele><time>2026-04-07T08:49:02Z</time></trkpt><trkpt lat="33.689898313961905" lon="9.002462218463036"><ele>50.333333333333336</ele><time>2026-04-07T08:49:03Z</time></trkpt><trkpt lat="33.69011692933462" lon="9.002545714425999"><ele>50.0</ele><time>2026-04-07T08:49:04Z</time></trkpt><trkpt lat="33.69035486235038" lon="9.00264824005514"><ele>51.0</ele><time>2026-04-07T08:49:05Z</time></trkpt><trkpt lat="33.690614578429184" lon="9.002768080087614"><ele>52.0</ele><time>2026-04-07T08:49:06Z</time></trkpt><trkpt lat="33.69089236241499" lon="9.002886966826848"><ele>51.5</ele><time>2026-04-07T08:49:07Z</time></trkpt><trkpt lat="33.69119170313746" lon="9.003008660473004"><ele>51.0</ele><time>2026-04-07T08:49:08Z</time></trkpt><trkpt lat="33.691506107029" lon="9.003130903665236"><ele>51.0</ele><time>2026-04-07T08:49:09Z</time></trkpt><trkpt lat="33.69183142310753" lon="9.003250321750611"><ele>51.0</ele><time>2026-04-07T08:49:10Z</time></trkpt><trkpt lat="33.692171076531785" lon="9.003365601525648"><ele>52.5</ele><time>2026-04-07T08:49:11Z</time></trkpt><trkpt lat="33.692526710534985" lon="9.00346735174214"><ele>54.0</ele><time>2026-04-07T08:49:12Z</time></trkpt><trkpt lat="33.69288470702161" lon="9.003556215294482"><ele>54.5</ele><time>2026-04-07T08:49:13Z</time></trkpt><trkpt lat="33.69321857567106" lon="9.00362278256877"><ele>55.0</ele><time>2026-04-07T08:49:14Z</time></trkpt><trkpt lat="33.69353331629287" lon="9.003674180415773"><ele>56.0</ele><time>2026-04-07T08:49:15Z</time></trkpt><trkpt lat="33.69384326763109" lon="9.003719734780042"><ele>57.0</ele><time>2026-04-07T08:49:16Z</time></trkpt><trkpt lat="33.69416457627079" lon="9.003764553209441"><ele>56.5</ele><time>2026-04-07T08:49:17Z</time></trkpt><trkpt lat="33.69447219033662" lon="9.00379576082101"><ele>56.0</ele><time>2026-04-07T08:49:18Z</time></trkpt><trkpt lat="33.694767921845994" lon="9.003819201649293"><ele>56.0</ele><time>2026-04-07T08:49:19Z</time></trkpt><trkpt lat="33.695047004165275" lon="9.00383254064764"><ele>56.0</ele><time>2026-04-07T08:49:20Z</time></trkpt><trkpt lat="33.69531668561645" lon="9.003842988906444"><ele>56.5</ele><time>2026-04-07T08:49:21Z</time></trkpt><trkpt lat="33.695569680018714" lon="9.003848831722648"><ele>57.0</ele><time>2026-04-07T08:49:22Z</time></trkpt><trkpt lat="33.69581346970495" lon="9.003848547133867"><ele>57.0</ele><time>2026-04-07T08:49:23Z</time></trkpt><trkpt lat="33.69604875788803" lon="9.003846521897813"><ele>57.0</ele><time>2026-04-07T08:49:24Z</time></trkpt><trkpt lat="33.69628172784739" lon="9.003842904331847"><ele>55.5</ele><time>2026-04-07T08:49:25Z</time></trkpt><trkpt lat="33.696521021195345" lon="9.003842964234021"><ele>54.0</ele><time>2026-04-07T08:49:26Z</time></trkpt><trkpt lat="33.69676663955501" lon="9.003838389788642"><ele>55.0</ele><time>2026-04-07T08:49:27Z</time></trkpt><trkpt lat="33.69702401548657" lon="9.00382756381599"><ele>56.0</ele><time>2026-04-07T08:49:28Z</time></trkpt><trkpt lat="33.69728795062868" lon="9.00381556172092"><ele>56.0</ele><time>2026-04-07T08:49:29Z</time></trkpt><trkpt lat="33.69754975331178" lon="9.003807748677994"><ele>56.0</ele><time>2026-04-07T08:49:30Z</time></trkpt><trkpt lat="33.69780203572127" lon="9.003805037239138"><ele>55.5</ele><time>2026-04-07T08:49:31Z</time></trkpt><trkpt lat="33.69804599413062" lon="9.003806092723561"><ele>55.0</ele><time>2026-04-07T08:49:32Z</time></trkpt><trkpt lat="33.69830010341966" lon="9.003804325362276"><ele>55.0</ele><time>2026-04-07T08:49:33Z</time></trkpt><trkpt lat="33.69855765853467" lon="9.003800130438313"><ele>55.0</ele><time>2026-04-07T08:49:34Z</time></trkpt><trkpt lat="33.69881734336344" lon="9.003800212411887"><ele>53.5</ele><time>2026-04-07T08:49:35Z</time></trkpt><trkpt lat="33.69907698325382" lon="9.003800208731684"><ele>52.0</ele><time>2026-04-07T08:49:36Z</time></trkpt><trkpt lat="33.69933741836547" lon="9.003797715580356"><ele>51.5</ele><time>2026-04-07T08:49:37Z</time></trkpt><trkpt lat="33.69959859109371" lon="9.003794455499229"><ele>51.0</ele><time>2026-04-07T08:49:38Z</time></trkpt><trkpt lat="33.69985543772654" lon="9.00379332720407"><ele>51.0</ele><time>2026-04-07T08:49:39Z</time></trkpt><trkpt lat="33.70011344615592" lon="9.003792769320157"><ele>51.0</ele><time>2026-04-07T08:49:40Z</time></trkpt><trkpt lat="33.700371344892986" lon="9.003791684970599"><ele>51.0</ele><time>2026-04-07T08:49:41Z</time></trkpt><trkpt lat="33.70063026626953" lon="9.00378901332852"><ele>51.0</ele><time>2026-04-07T08:49:42Z</time></trkpt><trkpt lat="33.70089099044055" lon="9.00378632121854"><ele>50.5</ele><time>2026-04-07T08:49:43Z</time></trkpt><trkpt lat="33.70114769595231" lon="9.003785525168544"><ele>50.0</ele><time>2026-04-07T08:49:44Z</time></trkpt><trkpt lat="33.701405966800024" lon="9.003784508365479"><ele>50.0</ele><time>2026-04-07T08:49:45Z</time></trkpt><trkpt lat="33.70166496490005" lon="9.003783665831628"><ele>50.0</ele><time>2026-04-07T08:49:46Z</time></trkpt><trkpt lat="33.701924411338666" lon="9.003779765358797"><ele>49.0</ele><time>2026-04-07T08:49:47Z</time></trkpt><trkpt lat="33.70218010866956" lon="9.003777404993196"><ele>48.0</ele><time>2026-04-07T08:49:48Z</time></trkpt><trkpt lat="33.70242925157562" lon="9.003771448022963"><ele>48.0</ele><time>2026-04-07T08:49:49Z</time></trkpt><trkpt lat="33.70267316054495" lon="9.003770047817303"><ele>48.0</ele><time>2026-04-07T08:49:50Z</time></trkpt><trkpt lat="33.70291819351652" lon="9.003769968105807"><ele>47.0</ele><time>2026-04-07T08:49:51Z</time></trkpt><trkpt lat="33.703163807487016" lon="9.003766813644528"><ele>46.0</ele><time>2026-04-07T08:49:52Z</time></trkpt><trkpt lat="33.703410563604365" lon="9.00376449655404"><ele>46.5</ele><time>2026-04-07T08:49:53Z</time></trkpt><trkpt lat="33.70365131662711" lon="9.003762799424694"><ele>47.0</ele><time>2026-04-07T08:49:54Z</time></trkpt><trkpt lat="33.70389055356663" lon="9.003761096025706"><ele>47.0</ele><time>2026-04-07T08:49:55Z</time></trkpt><trkpt lat="33.70412809036801" lon="9.00376049492662"><ele>47.0</ele><time>2026-04-07T08:49:56Z</time></trkpt><trkpt lat="33.704368195315084" lon="9.003756976906406"><ele>47.0</ele><time>2026-04-07T08:49:57Z</time></trkpt><trkpt lat="33.70460576301826" lon="9.003749938858984"><ele>47.0</ele><time>2026-04-07T08:49:58Z</time></trkpt><trkpt lat="33.70484355338415" lon="9.003740294127795"><ele>47.0</ele><time>2026-04-07T08:49:59Z</time></trkpt><trkpt lat="33.70508523658125" lon="9.003736764023293"><ele>47.0</ele><time>2026-04-07T08:50:00Z</time></trkpt><trkpt lat="33.705323679187806" lon="9.003736091531447"><ele>46.5</ele><time>2026-04-07T08:50:01Z</time></trkpt><trkpt lat="33.705563450161804" lon="9.003734780050724"><ele>46.0</ele><time>2026-04-07T08:50:02Z</time></trkpt><trkpt lat="33.705803965897026" lon="9.00373455059798"><ele>46.0</ele><time>2026-04-07T08:50:03Z</time></trkpt><trkpt lat="33.70604338510251" lon="9.003733683832522"><ele>46.0</ele><time>2026-04-07T08:50:04Z</time></trkpt><trkpt lat="33.70628560479723" lon="9.003734709250162"><ele>47.5</ele><time>2026-04-07T08:50:05Z</time></trkpt><trkpt lat="33.70652594592182" lon="9.003737576467683"><ele>49.0</ele><time>2026-04-07T08:50:06Z</time></trkpt><trkpt lat="33.70676607147548" lon="9.003738479635729"><ele>49.0</ele><time>2026-04-07T08:50:07Z</time></trkpt><trkpt lat="33.70700815832843" lon="9.003734939910435"><ele>49.0</ele><time>2026-04-07T08:50:08Z</time></trkpt><trkpt lat="33.70724945217903" lon="9.003730325574647"><ele>49.0</ele><time>2026-04-07T08:50:09.001Z</time></trkpt><trkpt lat="33.707488601293136" lon="9.003726989153002"><ele>49.0</ele><time>2026-04-07T08:50:10Z</time></trkpt><trkpt lat="33.70772870273358" lon="9.003724502729012"><ele>48.5</ele><time>2026-04-07T08:50:11Z</time></trkpt><trkpt lat="33.7079716859821" lon="9.003721464029185"><ele>48.0</ele><time>2026-04-07T08:50:12.001Z</time></trkpt><trkpt lat="33.70821194371096" lon="9.003717666676437"><ele>48.0</ele><time>2026-04-07T08:50:13Z</time></trkpt><trkpt lat="33.708452491820225" lon="9.003711246937259"><ele>48.0</ele><time>2026-04-07T08:50:14Z</time></trkpt><trkpt lat="33.70869153459629" lon="9.003707579238153"><ele>48.0</ele><time>2026-04-07T08:50:15Z</time></trkpt><trkpt lat="33.70893036562395" lon="9.003708778346247"><ele>48.0</ele><time>2026-04-07T08:50:16Z</time></trkpt><trkpt lat="33.709171155320625" lon="9.003712367533748"><ele>47.5</ele><time>2026-04-07T08:50:17Z</time></trkpt><trkpt lat="33.70941231615764" lon="9.003717459699217"><ele>47.0</ele><time>2026-04-07T08:50:18Z</time></trkpt><trkpt lat="33.709653449555994" lon="9.003723338872218"><ele>47.0</ele><time>2026-04-07T08:50:19Z</time></trkpt><trkpt lat="33.70989384252647" lon="9.003722174520222"><ele>47.0</ele><time>2026-04-07T08:50:20Z</time></trkpt><trkpt lat="33.71013345486193" lon="9.003717332111963"><ele>46.5</ele><time>2026-04-07T08:50:21Z</time></trkpt><trkpt lat="33.71036600111294" lon="9.003712117240115"><ele>46.0</ele><time>2026-04-07T08:50:22Z</time></trkpt><trkpt lat="33.71061024465835" lon="9.003710237381956"><ele>46.0</ele><time>2026-04-07T08:50:23Z</time></trkpt><trkpt lat="33.710851595777896" lon="9.003706760141844"><ele>46.0</ele><time>2026-04-07T08:50:24Z</time></trkpt><trkpt lat="33.711089694153806" lon="9.003704441621053"><ele>45.5</ele><time>2026-04-07T08:50:25Z</time></trkpt><trkpt lat="33.71133164350216" lon="9.003703969680792"><ele>45.0</ele><time>2026-04-07T08:50:26Z</time></trkpt><trkpt lat="33.71157270687693" lon="9.003702872637238"><ele>45.0</ele><time>2026-04-07T08:50:27Z</time></trkpt><trkpt lat="33.71181145831181" lon="9.003701600975356"><ele>45.0</ele><time>2026-04-07T08:50:28Z</time></trkpt><trkpt lat="33.71205148966076" lon="9.003697882291634"><ele>45.5</ele><time>2026-04-07T08:50:29Z</time></trkpt><trkpt lat="33.71229210171916" lon="9.003694443624315"><ele>46.0</ele><time>2026-04-07T08:50:30Z</time></trkpt><trkpt lat="33.71253220840019" lon="9.00369286542843"><ele>45.5</ele><time>2026-04-07T08:50:31Z</time></trkpt><trkpt lat="33.712772990673415" lon="9.003689601320305"><ele>45.0</ele><time>2026-04-07T08:50:32Z</time></trkpt><trkpt lat="33.71301441842638" lon="9.00368595410344"><ele>45.0</ele><time>2026-04-07T08:50:33Z</time></trkpt><trkpt lat="33.7132556757796" lon="9.003682081459171"><ele>45.0</ele><time>2026-04-07T08:50:34Z</time></trkpt><trkpt lat="33.713495095670126" lon="9.003676338314486"><ele>46.5</ele><time>2026-04-07T08:50:35Z</time></trkpt><trkpt lat="33.71373486833627" lon="9.003671208353175"><ele>48.0</ele><time>2026-04-07T08:50:36Z</time></trkpt><trkpt lat="33.71397536933931" lon="9.003663257310832"><ele>48.0</ele><time>2026-04-07T08:50:37Z</time></trkpt><trkpt lat="33.7142150075402" lon="9.003650484337006"><ele>48.0</ele><time>2026-04-07T08:50:38Z</time></trkpt><trkpt lat="33.71445509198141" lon="9.003632637660303"><ele>47.5</ele><time>2026-04-07T08:50:39Z</time></trkpt><trkpt lat="33.71469235114652" lon="9.003607254870543"><ele>47.0</ele><time>2026-04-07T08:50:40Z</time></trkpt><trkpt lat="33.71492865519961" lon="9.003571191719432"><ele>47.0</ele><time>2026-04-07T08:50:41Z</time></trkpt><trkpt lat="33.715164163373586" lon="9.003530462811629"><ele>47.0</ele><time>2026-04-07T08:50:42Z</time></trkpt><trkpt lat="33.71540175032061" lon="9.003486174547163"><ele>47.5</ele><time>2026-04-07T08:50:43Z</time></trkpt><trkpt lat="33.71563807364221" lon="9.00343601251938"><ele>48.0</ele><time>2026-04-07T08:50:44Z</time></trkpt><trkpt lat="33.71587103901002" lon="9.00337931404147"><ele>49.0</ele><time>2026-04-07T08:50:45Z</time></trkpt><trkpt lat="33.716107700046955" lon="9.003316817213092"><ele>50.0</ele><time>2026-04-07T08:50:46Z</time></trkpt><trkpt lat="33.71633961900675" lon="9.003246610459982"><ele>50.0</ele><time>2026-04-07T08:50:47Z</time></trkpt><trkpt lat="33.71657108772039" lon="9.0031717458254"><ele>50.0</ele><time>2026-04-07T08:50:48Z</time></trkpt><trkpt lat="33.71680146532446" lon="9.003093198226358"><ele>49.5</ele><time>2026-04-07T08:50:49Z</time></trkpt><trkpt lat="33.71703250503012" lon="9.003005369163272"><ele>49.0</ele><time>2026-04-07T08:50:50Z</time></trkpt><trkpt lat="33.717257707978796" lon="9.00290587594778"><ele>49.0</ele><time>2026-04-07T08:50:51Z</time></trkpt><trkpt lat="33.7174823068787" lon="9.002796774156128"><ele>49.0</ele><time>2026-04-07T08:50:52Z</time></trkpt><trkpt lat="33.717704452150926" lon="9.00268625162572"><ele>49.0</ele><time>2026-04-07T08:50:53Z</time></trkpt><trkpt lat="33.71792256140056" lon="9.002569168917605"><ele>49.0</ele><time>2026-04-07T08:50:54Z</time></trkpt><trkpt lat="33.71814102457144" lon="9.002446565043131"><ele>49.0</ele><time>2026-04-07T08:50:55Z</time></trkpt><trkpt lat="33.71835704209202" lon="9.002319061611963"><ele>49.0</ele><time>2026-04-07T08:50:56Z</time></trkpt><trkpt lat="33.71857159472378" lon="9.002186153044004"><ele>49.0</ele><time>2026-04-07T08:50:57Z</time></trkpt><trkpt lat="33.71878787229723" lon="9.002053742891265"><ele>49.0</ele><time>2026-04-07T08:50:58Z</time></trkpt><trkpt lat="33.71900006019118" lon="9.001919522628961"><ele>49.0</ele><time>2026-04-07T08:50:59Z</time></trkpt><trkpt lat="33.71921472793786" lon="9.00178608838499"><ele>49.0</ele><time>2026-04-07T08:51:00Z</time></trkpt><trkpt lat="33.719429282872284" lon="9.001654863663772"><ele>50.0</ele><time>2026-04-07T08:51:01Z</time></trkpt><trkpt lat="33.71964399353258" lon="9.001524327532398"><ele>51.0</ele><time>2026-04-07T08:51:02Z</time></trkpt><trkpt lat="33.71985567864384" lon="9.00139359577319"><ele>51.0</ele><time>2026-04-07T08:51:03Z</time></trkpt><trkpt lat="33.7200677840951" lon="9.001260567158974"><ele>51.0</ele><time>2026-04-07T08:51:04Z</time></trkpt><trkpt lat="33.72027901050786" lon="9.001126871466054"><ele>51.5</ele><time>2026-04-07T08:51:05Z</time></trkpt><trkpt lat="33.72048999628525" lon="9.000993661618148"><ele>52.0</ele><time>2026-04-07T08:51:06Z</time></trkpt><trkpt lat="33.72070326558095" lon="9.000861671628886"><ele>52.0</ele><time>2026-04-07T08:51:07Z</time></trkpt><trkpt lat="33.72091525208169" lon="9.000731972024205"><ele>52.0</ele><time>2026-04-07T08:51:08Z</time></trkpt><trkpt lat="33.7211314493046" lon="9.000601455238392"><ele>52.5</ele><time>2026-04-07T08:51:09Z</time></trkpt><trkpt lat="33.72134470207553" lon="9.000467863355691"><ele>53.0</ele><time>2026-04-07T08:51:10Z</time></trkpt><trkpt lat="33.7215564908313" lon="9.00033389773339"><ele>53.0</ele><time>2026-04-07T08:51:11Z</time></trkpt><trkpt lat="33.72176881533025" lon="9.000197665953142"><ele>53.0</ele><time>2026-04-07T08:51:12Z</time></trkpt><trkpt lat="33.72198182902771" lon="9.000061348900735"><ele>54.0</ele><time>2026-04-07T08:51:13Z</time></trkpt><trkpt lat="33.72219581074547" lon="8.99992531625011"><ele>55.0</ele><time>2026-04-07T08:51:14Z</time></trkpt><trkpt lat="33.72241165510561" lon="8.999792408198283"><ele>55.0</ele><time>2026-04-07T08:51:15Z</time></trkpt><trkpt lat="33.72262787733139" lon="8.99966295702079"><ele>55.0</ele><time>2026-04-07T08:51:16Z</time></trkpt><trkpt lat="33.72284173428191" lon="8.999534551139968"><ele>55.5</ele><time>2026-04-07T08:51:17Z</time></trkpt><trkpt lat="33.72305461340064" lon="8.999402884724116"><ele>56.0</ele><time>2026-04-07T08:51:18Z</time></trkpt><trkpt lat="33.72326498933138" lon="8.999270425367598"><ele>55.5</ele><time>2026-04-07T08:51:19Z</time></trkpt><trkpt lat="33.72347821029021" lon="8.99913345491787"><ele>55.0</ele><time>2026-04-07T08:51:20Z</time></trkpt><trkpt lat="33.72368888088523" lon="8.998997072777016"><ele>55.0</ele><time>2026-04-07T08:51:21Z</time></trkpt><trkpt lat="33.72389867850872" lon="8.99885780346147"><ele>55.0</ele><time>2026-04-07T08:51:22Z</time></trkpt><trkpt lat="33.72411110671083" lon="8.998719493321238"><ele>55.0</ele><time>2026-04-07T08:51:23Z</time></trkpt><trkpt lat="33.72432386078246" lon="8.998582816851824"><ele>55.0</ele><time>2026-04-07T08:51:24Z</time></trkpt><trkpt lat="33.72453631426832" lon="8.998448113600817"><ele>54.5</ele><time>2026-04-07T08:51:25Z</time></trkpt><trkpt lat="33.72474965555286" lon="8.998314948543825"><ele>54.0</ele><time>2026-04-07T08:51:26Z</time></trkpt><trkpt lat="33.72496456126771" lon="8.998182786818013"><ele>54.0</ele><time>2026-04-07T08:51:27Z</time></trkpt><trkpt lat="33.72517979735314" lon="8.998051332775827"><ele>54.0</ele><time>2026-04-07T08:51:28Z</time></trkpt><trkpt lat="33.725396324766145" lon="8.997919903612544"><ele>54.5</ele><time>2026-04-07T08:51:29Z</time></trkpt><trkpt lat="33.72561184566085" lon="8.99779154092163"><ele>55.0</ele><time>2026-04-07T08:51:30Z</time></trkpt><trkpt lat="33.72582634534872" lon="8.997662742912988"><ele>55.0</ele><time>2026-04-07T08:51:31Z</time></trkpt><trkpt lat="33.726043070685286" lon="8.997531872266057"><ele>55.0</ele><time>2026-04-07T08:51:32Z</time></trkpt><trkpt lat="33.72625737087685" lon="8.997401246753995"><ele>56.5</ele><time>2026-04-07T08:51:33Z</time></trkpt><trkpt lat="33.72647324462164" lon="8.997269921376873"><ele>58.0</ele><time>2026-04-07T08:51:34Z</time></trkpt><trkpt lat="33.726686524034854" lon="8.997138765099907"><ele>57.5</ele><time>2026-04-07T08:51:35Z</time></trkpt><trkpt lat="33.7269009515878" lon="8.997005537617458"><ele>57.0</ele><time>2026-04-07T08:51:36Z</time></trkpt><trkpt lat="33.72711339137421" lon="8.996872969114936"><ele>57.0</ele><time>2026-04-07T08:51:37Z</time></trkpt><trkpt lat="33.727326925314856" lon="8.996738001302882"><ele>57.0</ele><time>2026-04-07T08:51:38Z</time></trkpt><trkpt lat="33.72753546522742" lon="8.996603217048955"><ele>56.0</ele><time>2026-04-07T08:51:39Z</time></trkpt><trkpt lat="33.727747572871976" lon="8.996466110968575"><ele>55.0</ele><time>2026-04-07T08:51:40Z</time></trkpt><trkpt lat="33.72795968053827" lon="8.996327800269132"><ele>55.0</ele><time>2026-04-07T08:51:41Z</time></trkpt><trkpt lat="33.72817106469763" lon="8.996193033877523"><ele>55.0</ele><time>2026-04-07T08:51:42Z</time></trkpt><trkpt lat="33.72838179059605" lon="8.996061262492512"><ele>56.0</ele><time>2026-04-07T08:51:43Z</time></trkpt><trkpt lat="33.72859446550503" lon="8.995928617582079"><ele>57.0</ele><time>2026-04-07T08:51:44Z</time></trkpt><trkpt lat="33.72880689771633" lon="8.995798903553808"><ele>57.0</ele><time>2026-04-07T08:51:45Z</time></trkpt><trkpt lat="33.72902105769538" lon="8.995667610428605"><ele>57.0</ele><time>2026-04-07T08:51:46Z</time></trkpt><trkpt lat="33.72923383667168" lon="8.99553689524576"><ele>58.0</ele><time>2026-04-07T08:51:47Z</time></trkpt><trkpt lat="33.72944762825046" lon="8.995402599709196"><ele>59.0</ele><time>2026-04-07T08:51:48Z</time></trkpt><trkpt lat="33.72965689308622" lon="8.995269265950887"><ele>59.0</ele><time>2026-04-07T08:51:49Z</time></trkpt><trkpt lat="33.729862119081076" lon="8.995138616336755"><ele>59.0</ele><time>2026-04-07T08:51:50Z</time></trkpt><trkpt lat="33.73005817224359" lon="8.995014967331477"><ele>59.5</ele><time>2026-04-07T08:51:51Z</time></trkpt><trkpt lat="33.73025958309097" lon="8.994893565518352"><ele>60.0</ele><time>2026-04-07T08:51:52Z</time></trkpt><trkpt lat="33.73046808600137" lon="8.994767974412095"><ele>60.0</ele><time>2026-04-07T08:51:53Z</time></trkpt><trkpt lat="33.730676828379416" lon="8.994640839231781"><ele>60.0</ele><time>2026-04-07T08:51:54Z</time></trkpt><trkpt lat="33.73088212929846" lon="8.994510745568462"><ele>62.0</ele><time>2026-04-07T08:51:55Z</time></trkpt><trkpt lat="33.731085782145534" lon="8.994382454917318"><ele>64.0</ele><time>2026-04-07T08:51:56Z</time></trkpt><trkpt lat="33.73128773402822" lon="8.994255641405578"><ele>62.666666666666664</ele><time>2026-04-07T08:51:57Z</time></trkpt><trkpt lat="33.73147996367138" lon="8.994134460413319"><ele>61.33333333333333</ele><time>2026-04-07T08:51:58Z</time></trkpt><trkpt lat="33.73166138752425" lon="8.99402087013526"><ele>60.0</ele><time>2026-04-07T08:51:59Z</time></trkpt><trkpt lat="33.73184443852843" lon="8.993906573358043"><ele>61.66666666666667</ele><time>2026-04-07T08:52:00Z</time></trkpt><trkpt lat="33.73202710164538" lon="8.993790056252577"><ele>63.333333333333336</ele><time>2026-04-07T08:52:01Z</time></trkpt><trkpt lat="33.73220646102461" lon="8.993667977310922"><ele>65.0</ele><time>2026-04-07T08:52:02Z</time></trkpt><trkpt lat="33.73238023500942" lon="8.993535766656732"><ele>65.0</ele><time>2026-04-07T08:52:03Z</time></trkpt><trkpt lat="33.732552352684216" lon="8.993389572518959"><ele>65.0</ele><time>2026-04-07T08:52:04Z</time></trkpt><trkpt lat="33.73271507350455" lon="8.993231311519796"><ele>65.0</ele><time>2026-04-07T08:52:05Z</time></trkpt><trkpt lat="33.732876711570455" lon="8.99305259434612"><ele>64.66666666666667</ele><time>2026-04-07T08:52:06Z</time></trkpt><trkpt lat="33.73302365343943" lon="8.99287985242873"><ele>64.33333333333333</ele><time>2026-04-07T08:52:07Z</time></trkpt><trkpt lat="33.73316317009475" lon="8.992719813022811"><ele>64.0</ele><time>2026-04-07T08:52:08Z</time></trkpt><trkpt lat="33.73330203255486" lon="8.992556068530519"><ele>63.33333333333333</ele><time>2026-04-07T08:52:09Z</time></trkpt><trkpt lat="33.73343564903758" lon="8.992381543749094"><ele>62.66666666666667</ele><time>2026-04-07T08:52:10Z</time></trkpt><trkpt lat="33.73356323501463" lon="8.99219712585274"><ele>62.0</ele><time>2026-04-07T08:52:11Z</time></trkpt><trkpt lat="33.73368590469212" lon="8.992001376761804"><ele>62.66666666666667</ele><time>2026-04-07T08:52:12Z</time></trkpt><trkpt lat="33.73380303497826" lon="8.99179660331853"><ele>63.33333333333333</ele><time>2026-04-07T08:52:13Z</time></trkpt><trkpt lat="33.73391200435086" lon="8.99158482499034"><ele>64.0</ele><time>2026-04-07T08:52:14.001Z</time></trkpt><trkpt lat="33.73401651793864" lon="8.99136335511278"><ele>64.0</ele><time>2026-04-07T08:52:15.001Z</time></trkpt><trkpt lat="33.73411607860475" lon="8.991142013513162"><ele>64.0</ele><time>2026-04-07T08:52:16.001Z</time></trkpt><trkpt lat="33.73420785940526" lon="8.990910517915031"><ele>64.0</ele><time>2026-04-07T08:52:17.001Z</time></trkpt><trkpt lat="33.73429377100297" lon="8.99067295103509"><ele>64.33333333333333</ele><time>2026-04-07T08:52:18.001Z</time></trkpt><trkpt lat="33.734373590730534" lon="8.990429519599283"><ele>64.66666666666667</ele><time>2026-04-07T08:52:19.001Z</time></trkpt><trkpt lat="33.73444823332173" lon="8.990188282881325"><ele>65.0</ele><time>2026-04-07T08:52:20.001Z</time></trkpt><trkpt lat="33.73451105729217" lon="8.98994720837533"><ele>64.0</ele><time>2026-04-07T08:52:21.001Z</time></trkpt><trkpt lat="33.734562104051754" lon="8.98970571064764"><ele>63.0</ele><time>2026-04-07T08:52:22.001Z</time></trkpt><trkpt lat="33.73460112481237" lon="8.989463300774796"><ele>62.0</ele><time>2026-04-07T08:52:23.001Z</time></trkpt><trkpt lat="33.734632988528894" lon="8.989228402486626"><ele>61.66666666666667</ele><time>2026-04-07T08:52:24.001Z</time></trkpt><trkpt lat="33.73465807120872" lon="8.989000919104253"><ele>61.33333333333333</ele><time>2026-04-07T08:52:25.001Z</time></trkpt><trkpt lat="33.73468148001926" lon="8.988781607343729"><ele>61.0</ele><time>2026-04-07T08:52:26.001Z</time></trkpt><trkpt lat="33.734712943202496" lon="8.988573479300957"><ele>61.0</ele><time>2026-04-07T08:52:27.001Z</time></trkpt><trkpt lat="33.734741811960134" lon="8.988374505589727"><ele>61.0</ele><time>2026-04-07T08:52:28.001Z</time></trkpt><trkpt lat="33.73476543565679" lon="8.988177313448336"><ele>61.0</ele><time>2026-04-07T08:52:29.001Z</time></trkpt><trkpt lat="33.734787254975096" lon="8.987989979513147"><ele>60.5</ele><time>2026-04-07T08:52:30Z</time></trkpt><trkpt lat="33.73481076030442" lon="8.987807759377855"><ele>60.0</ele><time>2026-04-07T08:52:31Z</time></trkpt><trkpt lat="33.734832040725266" lon="8.987636911881003"><ele>59.5</ele><time>2026-04-07T08:52:32Z</time></trkpt><trkpt lat="33.73485120857729" lon="8.98748138303398"><ele>59.0</ele><time>2026-04-07T08:52:33Z</time></trkpt><trkpt lat="33.7348674973207" lon="8.987339257330179"><ele>58.800000000000004</ele><time>2026-04-07T08:52:34Z</time></trkpt><trkpt lat="33.73488225383157" lon="8.987207318023613"><ele>58.60000000000001</ele><time>2026-04-07T08:52:35Z</time></trkpt><trkpt lat="33.73489826380546" lon="8.987088661623382"><ele>58.4</ele><time>2026-04-07T08:52:36Z</time></trkpt><trkpt lat="33.73491271543973" lon="8.986984222768113"><ele>58.2</ele><time>2026-04-07T08:52:37Z</time></trkpt><trkpt lat="33.734925106685765" lon="8.986887798006189"><ele>58.0</ele><time>2026-04-07T08:52:38Z</time></trkpt><trkpt lat="33.73493603137537" lon="8.98679668841637"><ele>58.0</ele><time>2026-04-07T08:52:39Z</time></trkpt><trkpt lat="33.734948600744296" lon="8.986711351618679"><ele>58.0</ele><time>2026-04-07T08:52:40Z</time></trkpt><trkpt lat="33.734961687950495" lon="8.986630411612332"><ele>58.0</ele><time>2026-04-07T08:52:41Z</time></trkpt><trkpt lat="33.73497944821586" lon="8.986486832138446"><ele>58.0</ele><time>2026-04-07T08:52:43Z</time></trkpt><trkpt lat="33.735021520205265" lon="8.98636427938758"><ele>58.0</ele><time>2026-04-07T08:52:45Z</time></trkpt><trkpt lat="33.735099084267404" lon="8.986282414216015"><ele>58.0</ele><time>2026-04-07T08:52:47Z</time></trkpt><trkpt lat="33.735223337638864" lon="8.986245461566059"><ele>58.0</ele><time>2026-04-07T08:52:49Z</time></trkpt><trkpt lat="33.73530296602804" lon="8.986241113598357"><ele>58.0</ele><time>2026-04-07T08:52:50Z</time></trkpt><trkpt lat="33.7353906168226" lon="8.98624453708583"><ele>58.0</ele><time>2026-04-07T08:52:51Z</time></trkpt><trkpt lat="33.735496246757315" lon="8.98626602584143"><ele>58.0</ele><time>2026-04-07T08:52:52Z</time></trkpt><trkpt lat="33.735612282689004" lon="8.986292291164915"><ele>58.0</ele><time>2026-04-07T08:52:53Z</time></trkpt><trkpt lat="33.73574011353591" lon="8.986314908729808"><ele>58.0</ele><time>2026-04-07T08:52:54Z</time></trkpt><trkpt lat="33.735883508073236" lon="8.986332166818226"><ele>58.0</ele><time>2026-04-07T08:52:55Z</time></trkpt><trkpt lat="33.73603634914728" lon="8.986344921903632"><ele>58.0</ele><time>2026-04-07T08:52:56Z</time></trkpt><trkpt lat="33.73619882234826" lon="8.98635760386957"><ele>57.666666666666664</ele><time>2026-04-07T08:52:57Z</time></trkpt><trkpt lat="33.736361631170254" lon="8.986370009205306"><ele>57.33333333333333</ele><time>2026-04-07T08:52:58Z</time></trkpt><trkpt lat="33.73652120753587" lon="8.986380865865394"><ele>57.0</ele><time>2026-04-07T08:52:59Z</time></trkpt><trkpt lat="33.736669274676316" lon="8.98639227951568"><ele>57.0</ele><time>2026-04-07T08:53:00Z</time></trkpt><trkpt lat="33.73681172004047" lon="8.986407626492216"><ele>57.0</ele><time>2026-04-07T08:53:01Z</time></trkpt><trkpt lat="33.73696180470369" lon="8.986424917249574"><ele>57.0</ele><time>2026-04-07T08:53:02Z</time></trkpt><trkpt lat="33.73711521401532" lon="8.986441490659704"><ele>57.0</ele><time>2026-04-07T08:53:03Z</time></trkpt><trkpt lat="33.737264858093894" lon="8.986454295521076"><ele>56.66666666666667</ele><time>2026-04-07T08:53:04Z</time></trkpt><trkpt lat="33.73741864467761" lon="8.986471557537799"><ele>56.333333333333336</ele><time>2026-04-07T08:53:05Z</time></trkpt><trkpt lat="33.73757573161157" lon="8.986499654921898"><ele>56.0</ele><time>2026-04-07T08:53:06Z</time></trkpt><trkpt lat="33.73773588612295" lon="8.986535034942106"><ele>56.66666666666667</ele><time>2026-04-07T08:53:07Z</time></trkpt><trkpt lat="33.737907757684965" lon="8.98657561791243"><ele>57.33333333333333</ele><time>2026-04-07T08:53:08Z</time></trkpt><trkpt lat="33.73808559457564" lon="8.986622704696064"><ele>58.0</ele><time>2026-04-07T08:53:09Z</time></trkpt><trkpt lat="33.738271292531785" lon="8.986688291867205"><ele>60.33333333333333</ele><time>2026-04-07T08:53:10Z</time></trkpt><trkpt lat="33.738459989925865" lon="8.986764362049941"><ele>62.66666666666667</ele><time>2026-04-07T08:53:11Z</time></trkpt><trkpt lat="33.7386586758235" lon="8.986854826042274"><ele>65.0</ele><time>2026-04-07T08:53:12Z</time></trkpt><trkpt lat="33.73886455062699" lon="8.986961478358198"><ele>66.0</ele><time>2026-04-07T08:53:13Z</time></trkpt><trkpt lat="33.73907146823701" lon="8.987081873866389"><ele>67.0</ele><time>2026-04-07T08:53:14Z</time></trkpt><trkpt lat="33.7392817708404" lon="8.987220492882036"><ele>67.0</ele><time>2026-04-07T08:53:15Z</time></trkpt><trkpt lat="33.73948393457087" lon="8.987367607854766"><ele>67.0</ele><time>2026-04-07T08:53:16Z</time></trkpt><trkpt lat="33.73967294314528" lon="8.987529249177994"><ele>67.0</ele><time>2026-04-07T08:53:17Z</time></trkpt><trkpt lat="33.739846771069026" lon="8.987694856394471"><ele>67.0</ele><time>2026-04-07T08:53:18Z</time></trkpt><trkpt lat="33.74000030443244" lon="8.987864275012472"><ele>67.0</ele><time>2026-04-07T08:53:19Z</time></trkpt><trkpt lat="33.740143532124485" lon="8.988030437451197"><ele>65.0</ele><time>2026-04-07T08:53:20Z</time></trkpt><trkpt lat="33.740286644843536" lon="8.988201394975224"><ele>63.0</ele><time>2026-04-07T08:53:21Z</time></trkpt><trkpt lat="33.74042855272624" lon="8.988376696075495"><ele>61.0</ele><time>2026-04-07T08:53:22Z</time></trkpt><trkpt lat="33.74057322587666" lon="8.988564854191944"><ele>61.0</ele><time>2026-04-07T08:53:23Z</time></trkpt><trkpt lat="33.74072733714163" lon="8.988756117852946"><ele>61.0</ele><time>2026-04-07T08:53:24Z</time></trkpt><trkpt lat="33.74088629844729" lon="8.98895207514633"><ele>61.0</ele><time>2026-04-07T08:53:25Z</time></trkpt><trkpt lat="33.74103959353343" lon="8.989146589963669"><ele>61.33333333333333</ele><time>2026-04-07T08:53:26Z</time></trkpt><trkpt lat="33.74119011760615" lon="8.989343187580063"><ele>61.66666666666667</ele><time>2026-04-07T08:53:27Z</time></trkpt><trkpt lat="33.74134101896976" lon="8.989539031396891"><ele>62.0</ele><time>2026-04-07T08:53:28Z</time></trkpt><trkpt lat="33.74148139107149" lon="8.989722461182476"><ele>62.0</ele><time>2026-04-07T08:53:29Z</time></trkpt><trkpt lat="33.741615821546986" lon="8.989896852202648"><ele>62.0</ele><time>2026-04-07T08:53:30Z</time></trkpt><trkpt lat="33.74175410846727" lon="8.99007664476341"><ele>62.0</ele><time>2026-04-07T08:53:31Z</time></trkpt><trkpt lat="33.741909834992704" lon="8.990267870653573"><ele>62.5</ele><time>2026-04-07T08:53:32Z</time></trkpt><trkpt lat="33.74208393812545" lon="8.990486926504076"><ele>63.0</ele><time>2026-04-07T08:53:33Z</time></trkpt><trkpt lat="33.74225512895686" lon="8.990733235053579"><ele>64.0</ele><time>2026-04-07T08:53:34Z</time></trkpt><trkpt lat="33.74241581369346" lon="8.990995997251405"><ele>65.0</ele><time>2026-04-07T08:53:35Z</time></trkpt><trkpt lat="33.74256865722464" lon="8.991252392106013"><ele>65.0</ele><time>2026-04-07T08:53:36Z</time></trkpt><trkpt lat="33.7427139299837" lon="8.991494819179897"><ele>65.0</ele><time>2026-04-07T08:53:37Z</time></trkpt><trkpt lat="33.7428533515876" lon="8.991720461789615"><ele>65.0</ele><time>2026-04-07T08:53:38Z</time></trkpt><trkpt lat="33.7429943709044" lon="8.991947556118436"><ele>65.0</ele><time>2026-04-07T08:53:39Z</time></trkpt><trkpt lat="33.743136659118925" lon="8.992173551643612"><ele>65.0</ele><time>2026-04-07T08:53:40Z</time></trkpt><trkpt lat="33.743279381443735" lon="8.99240514887382"><ele>65.0</ele><time>2026-04-07T08:53:41Z</time></trkpt><trkpt lat="33.74342192717042" lon="8.992638758053616"><ele>65.0</ele><time>2026-04-07T08:53:42Z</time></trkpt><trkpt lat="33.74356284338456" lon="8.992872074830155"><ele>65.0</ele><time>2026-04-07T08:53:43Z</time></trkpt><trkpt lat="33.743701067521364" lon="8.993102301162889"><ele>65.0</ele><time>2026-04-07T08:53:44Z</time></trkpt><trkpt lat="33.74384189490451" lon="8.993329716072493"><ele>65.0</ele><time>2026-04-07T08:53:45Z</time></trkpt><trkpt lat="33.743988527548645" lon="8.993562855355442"><ele>66.0</ele><time>2026-04-07T08:53:46Z</time></trkpt><trkpt lat="33.744131345614086" lon="8.993803642926217"><ele>67.0</ele><time>2026-04-07T08:53:47Z</time></trkpt><trkpt lat="33.744266238759835" lon="8.994051453319445"><ele>66.5</ele><time>2026-04-07T08:53:48Z</time></trkpt><trkpt lat="33.74439494182442" lon="8.994307298793768"><ele>66.0</ele><time>2026-04-07T08:53:49Z</time></trkpt><trkpt lat="33.74450671275084" lon="8.99455202371347"><ele>66.0</ele><time>2026-04-07T08:53:50Z</time></trkpt><trkpt lat="33.744602127204594" lon="8.994776726631317"><ele>66.0</ele><time>2026-04-07T08:53:51Z</time></trkpt><trkpt lat="33.74468974660145" lon="8.994981635288145"><ele>66.0</ele><time>2026-04-07T08:53:52Z</time></trkpt><trkpt lat="33.744770204404894" lon="8.995177443050327"><ele>67.0</ele><time>2026-04-07T08:53:53Z</time></trkpt><trkpt lat="33.74485405291499" lon="8.995371449912502"><ele>68.0</ele><time>2026-04-07T08:53:54Z</time></trkpt><trkpt lat="33.74494972502834" lon="8.995581646493747"><ele>69.0</ele><time>2026-04-07T08:53:55Z</time></trkpt><trkpt lat="33.745050872507754" lon="8.995796575778579"><ele>69.0</ele><time>2026-04-07T08:53:56Z</time></trkpt><trkpt lat="33.74515164860851" lon="8.996014377014085"><ele>69.0</ele><time>2026-04-07T08:53:57Z</time></trkpt><trkpt lat="33.74525569004597" lon="8.996235598170005"><ele>69.0</ele><time>2026-04-07T08:53:58Z</time></trkpt><trkpt lat="33.74536530286798" lon="8.996473141938965"><ele>69.5</ele><time>2026-04-07T08:53:59Z</time></trkpt><trkpt lat="33.74548597626145" lon="8.996732147020747"><ele>70.0</ele><time>2026-04-07T08:54:00Z</time></trkpt><trkpt lat="33.745604996573846" lon="8.996999490520604"><ele>70.0</ele><time>2026-04-07T08:54:01Z</time></trkpt><trkpt lat="33.74572177465" lon="8.997277631415976"><ele>70.0</ele><time>2026-04-07T08:54:02Z</time></trkpt><trkpt lat="33.74583908342806" lon="8.997561462335415"><ele>70.0</ele><time>2026-04-07T08:54:03Z</time></trkpt><trkpt lat="33.74595817648964" lon="8.997849711842937"><ele>70.0</ele><time>2026-04-07T08:54:04Z</time></trkpt><trkpt lat="33.74607550520222" lon="8.998135594791679"><ele>70.5</ele><time>2026-04-07T08:54:05Z</time></trkpt><trkpt lat="33.746189205695266" lon="8.998407508571729"><ele>71.0</ele><time>2026-04-07T08:54:06Z</time></trkpt><trkpt lat="33.7463041545721" lon="8.99866582158527"><ele>71.0</ele><time>2026-04-07T08:54:07Z</time></trkpt><trkpt lat="33.74642019691462" lon="8.998921295076494"><ele>71.0</ele><time>2026-04-07T08:54:08Z</time></trkpt><trkpt lat="33.74653389092663" lon="8.99917164444079"><ele>70.5</ele><time>2026-04-07T08:54:09Z</time></trkpt><trkpt lat="33.74664708584727" lon="8.99943007749524"><ele>70.0</ele><time>2026-04-07T08:54:10Z</time></trkpt><trkpt lat="33.74676192231293" lon="8.999685636300068"><ele>68.0</ele><time>2026-04-07T08:54:11Z</time></trkpt><trkpt lat="33.746878352764" lon="8.999944483513069"><ele>66.0</ele><time>2026-04-07T08:54:12Z</time></trkpt><trkpt lat="33.74699338048251" lon="9.000208273550813"><ele>66.0</ele><time>2026-04-07T08:54:13Z</time></trkpt><trkpt lat="33.747103523695905" lon="9.00046733117335"><ele>66.0</ele><time>2026-04-07T08:54:14Z</time></trkpt><trkpt lat="33.747216287612744" lon="9.000728551759908"><ele>66.5</ele><time>2026-04-07T08:54:15Z</time></trkpt><trkpt lat="33.747332514770015" lon="9.000987059243684"><ele>67.0</ele><time>2026-04-07T08:54:16Z</time></trkpt><trkpt lat="33.747446140846655" lon="9.001244553820463"><ele>67.0</ele><time>2026-04-07T08:54:17Z</time></trkpt><trkpt lat="33.74755948195051" lon="9.001501613350452"><ele>67.0</ele><time>2026-04-07T08:54:18Z</time></trkpt><trkpt lat="33.74767570398967" lon="9.001760847360655"><ele>68.5</ele><time>2026-04-07T08:54:19Z</time></trkpt><trkpt lat="33.74779360564574" lon="9.00201511146655"><ele>70.0</ele><time>2026-04-07T08:54:20Z</time></trkpt><trkpt lat="33.7479170666889" lon="9.002268113553177"><ele>71.0</ele><time>2026-04-07T08:54:21Z</time></trkpt><trkpt lat="33.74804666653176" lon="9.0025184793936"><ele>72.0</ele><time>2026-04-07T08:54:22Z</time></trkpt><trkpt lat="33.74818585178817" lon="9.002765928294508"><ele>72.0</ele><time>2026-04-07T08:54:23Z</time></trkpt><trkpt lat="33.74833079512484" lon="9.003008807992119"><ele>72.0</ele><time>2026-04-07T08:54:24Z</time></trkpt><trkpt lat="33.74847937928456" lon="9.00324961537104"><ele>73.0</ele><time>2026-04-07T08:54:25Z</time></trkpt><trkpt lat="33.748634967884364" lon="9.003488325905964"><ele>74.0</ele><time>2026-04-07T08:54:26Z</time></trkpt><trkpt lat="33.74879023112408" lon="9.003726897298264"><ele>74.0</ele><time>2026-04-07T08:54:27Z</time></trkpt><trkpt lat="33.74894691875622" lon="9.00396815638462"><ele>74.0</ele><time>2026-04-07T08:54:28Z</time></trkpt><trkpt lat="33.74910469861126" lon="9.004212859534581"><ele>74.0</ele><time>2026-04-07T08:54:29Z</time></trkpt><trkpt lat="33.74926586142849" lon="9.004457097249206"><ele>74.0</ele><time>2026-04-07T08:54:30Z</time></trkpt><trkpt lat="33.74942793162098" lon="9.004701076969162"><ele>74.0</ele><time>2026-04-07T08:54:31Z</time></trkpt><trkpt lat="33.749591321860485" lon="9.00494467518067"><ele>74.0</ele><time>2026-04-07T08:54:32Z</time></trkpt><trkpt lat="33.74975418886236" lon="9.005190233068998"><ele>74.5</ele><time>2026-04-07T08:54:33Z</time></trkpt><trkpt lat="33.74992288911671" lon="9.005443847257146"><ele>75.0</ele><time>2026-04-07T08:54:34Z</time></trkpt><trkpt lat="33.75008781990311" lon="9.00569695515677"><ele>76.5</ele><time>2026-04-07T08:54:35Z</time></trkpt><trkpt lat="33.75025797461129" lon="9.005956515345217"><ele>78.0</ele><time>2026-04-07T08:54:36Z</time></trkpt><trkpt lat="33.75043018026023" lon="9.00622234099611"><ele>78.0</ele><time>2026-04-07T08:54:37Z</time></trkpt><trkpt lat="33.750600628692474" lon="9.006492275720115"><ele>78.0</ele><time>2026-04-07T08:54:38Z</time></trkpt><trkpt lat="33.7507701977974" lon="9.006772071337267"><ele>78.5</ele><time>2026-04-07T08:54:39Z</time></trkpt><trkpt lat="33.75094075087621" lon="9.007068664308745"><ele>79.0</ele><time>2026-04-07T08:54:40Z</time></trkpt><trkpt lat="33.751118353751295" lon="9.007387907716804"><ele>81.5</ele><time>2026-04-07T08:54:41Z</time></trkpt><trkpt lat="33.75129012017355" lon="9.007704935599365"><ele>84.0</ele><time>2026-04-07T08:54:42Z</time></trkpt><trkpt lat="33.751442089583506" lon="9.007999538004"><ele>84.0</ele><time>2026-04-07T08:54:43Z</time></trkpt><trkpt lat="33.75158308890015" lon="9.008284504309042"><ele>84.0</ele><time>2026-04-07T08:54:44Z</time></trkpt><trkpt lat="33.75170794045016" lon="9.008552265707833"><ele>83.5</ele><time>2026-04-07T08:54:45Z</time></trkpt><trkpt lat="33.75182460564957" lon="9.00880987052204"><ele>83.0</ele><time>2026-04-07T08:54:46Z</time></trkpt><trkpt lat="33.75193708861388" lon="9.009065365332756"><ele>87.0</ele><time>2026-04-07T08:54:47Z</time></trkpt><trkpt lat="33.752045752600424" lon="9.009314799846758"><ele>91.0</ele><time>2026-04-07T08:54:48Z</time></trkpt><trkpt lat="33.75215576785765" lon="9.009554466238864"><ele>91.0</ele><time>2026-04-07T08:54:49Z</time></trkpt><trkpt lat="33.75227598996529" lon="9.009788177893014"><ele>91.0</ele><time>2026-04-07T08:54:50Z</time></trkpt><trkpt lat="33.75240664163932" lon="9.01000948146135"><ele>92.0</ele><time>2026-04-07T08:54:51Z</time></trkpt><trkpt lat="33.75254110799841" lon="9.01022515576317"><ele>93.0</ele><time>2026-04-07T08:54:52Z</time></trkpt><trkpt lat="33.75267828452329" lon="9.010436287969814"><ele>94.0</ele><time>2026-04-07T08:54:53Z</time></trkpt><trkpt lat="33.75282059543692" lon="9.010639613894403"><ele>95.0</ele><time>2026-04-07T08:54:54Z</time></trkpt><trkpt lat="33.7529713889856" lon="9.01083801134557"><ele>96.0</ele><time>2026-04-07T08:54:55Z</time></trkpt><trkpt lat="33.75313071609457" lon="9.011031608662575"><ele>96.0</ele><time>2026-04-07T08:54:56Z</time></trkpt><trkpt lat="33.75329648726244" lon="9.011224495693602"><ele>96.0</ele><time>2026-04-07T08:54:57Z</time></trkpt><trkpt lat="33.753460617340046" lon="9.011417730793537"><ele>95.33333333333333</ele><time>2026-04-07T08:54:58Z</time></trkpt><trkpt lat="33.75362032916109" lon="9.011603839457747"><ele>94.66666666666666</ele><time>2026-04-07T08:54:59Z</time></trkpt><trkpt lat="33.75377214133282" lon="9.011780699812537"><ele>94.0</ele><time>2026-04-07T08:55:00Z</time></trkpt><trkpt lat="33.753919305642135" lon="9.011950528577685"><ele>94.0</ele><time>2026-04-07T08:55:01Z</time></trkpt><trkpt lat="33.754068253336015" lon="9.012123878945111"><ele>94.0</ele><time>2026-04-07T08:55:02Z</time></trkpt><trkpt lat="33.75421725993314" lon="9.01229698386895"><ele>94.0</ele><time>2026-04-07T08:55:03Z</time></trkpt><trkpt lat="33.75437112011186" lon="9.012477862622069"><ele>94.0</ele><time>2026-04-07T08:55:04Z</time></trkpt><trkpt lat="33.75452718136699" lon="9.012663837515277"><ele>94.0</ele><time>2026-04-07T08:55:05Z</time></trkpt><trkpt lat="33.75468818726423" lon="9.012850349090982"><ele>94.0</ele><time>2026-04-07T08:55:06Z</time></trkpt><trkpt lat="33.75485680980096" lon="9.013044992742715"><ele>94.0</ele><time>2026-04-07T08:55:07Z</time></trkpt><trkpt lat="33.75502176986244" lon="9.013244160059138"><ele>94.0</ele><time>2026-04-07T08:55:08Z</time></trkpt><trkpt lat="33.75518021582177" lon="9.013444396813863"><ele>93.5</ele><time>2026-04-07T08:55:09Z</time></trkpt><trkpt lat="33.7553337449053" lon="9.013648686914678"><ele>93.0</ele><time>2026-04-07T08:55:10Z</time></trkpt><trkpt lat="33.75547929774944" lon="9.013856128528309"><ele>93.0</ele><time>2026-04-07T08:55:11Z</time></trkpt><trkpt lat="33.75561660471841" lon="9.014078026695525"><ele>93.0</ele><time>2026-04-07T08:55:12Z</time></trkpt><trkpt lat="33.75573585036704" lon="9.014307288788201"><ele>92.5</ele><time>2026-04-07T08:55:13Z</time></trkpt><trkpt lat="33.75584947334505" lon="9.014547933625757"><ele>92.0</ele><time>2026-04-07T08:55:14Z</time></trkpt><trkpt lat="33.755955518162104" lon="9.01479198715728"><ele>91.0</ele><time>2026-04-07T08:55:15Z</time></trkpt><trkpt lat="33.756055238937826" lon="9.01504411678035"><ele>90.0</ele><time>2026-04-07T08:55:16Z</time></trkpt><trkpt lat="33.756142730985765" lon="9.015297195115515"><ele>90.0</ele><time>2026-04-07T08:55:17Z</time></trkpt><trkpt lat="33.75622209047007" lon="9.015555224552102"><ele>90.0</ele><time>2026-04-07T08:55:18Z</time></trkpt><trkpt lat="33.756291075543174" lon="9.01581299865116"><ele>90.33333333333333</ele><time>2026-04-07T08:55:19Z</time></trkpt><trkpt lat="33.75635722841503" lon="9.016070991042962"><ele>90.66666666666666</ele><time>2026-04-07T08:55:20Z</time></trkpt><trkpt lat="33.7564253935882" lon="9.016325992479143"><ele>91.0</ele><time>2026-04-07T08:55:21Z</time></trkpt><trkpt lat="33.756495002651505" lon="9.016581304765788"><ele>91.0</ele><time>2026-04-07T08:55:22Z</time></trkpt><trkpt lat="33.756565635796086" lon="9.016834341722864"><ele>91.0</ele><time>2026-04-07T08:55:23Z</time></trkpt><trkpt lat="33.756632781153606" lon="9.017076010152632"><ele>91.0</ele><time>2026-04-07T08:55:24Z</time></trkpt><trkpt lat="33.756698223235695" lon="9.017315447416204"><ele>91.0</ele><time>2026-04-07T08:55:25Z</time></trkpt><trkpt lat="33.756760578354125" lon="9.017551073473749"><ele>91.0</ele><time>2026-04-07T08:55:26Z</time></trkpt><trkpt lat="33.75682402121221" lon="9.017791493519102"><ele>91.0</ele><time>2026-04-07T08:55:27Z</time></trkpt><trkpt lat="33.75688883276863" lon="9.018026044084484"><ele>89.33333333333333</ele><time>2026-04-07T08:55:28Z</time></trkpt><trkpt lat="33.756953187100756" lon="9.018259373180582"><ele>87.66666666666667</ele><time>2026-04-07T08:55:29Z</time></trkpt><trkpt lat="33.75701705704673" lon="9.018489577303631"><ele>86.0</ele><time>2026-04-07T08:55:30Z</time></trkpt><trkpt lat="33.75707868223902" lon="9.018703871971237"><ele>86.0</ele><time>2026-04-07T08:55:31Z</time></trkpt><trkpt lat="33.75713643854577" lon="9.018910925134838"><ele>86.0</ele><time>2026-04-07T08:55:32Z</time></trkpt><trkpt lat="33.757189286578644" lon="9.019114370776096"><ele>86.0</ele><time>2026-04-07T08:55:33Z</time></trkpt><trkpt lat="33.75724061873028" lon="9.019309587182459"><ele>86.33333333333334</ele><time>2026-04-07T08:55:34Z</time></trkpt><trkpt lat="33.757291377531175" lon="9.019494468376614"><ele>86.66666666666667</ele><time>2026-04-07T08:55:35Z</time></trkpt><trkpt lat="33.757339256686315" lon="9.019668422065315"><ele>87.0</ele><time>2026-04-07T08:55:36Z</time></trkpt><trkpt lat="33.75738371273883" lon="9.01982984510065"><ele>87.0</ele><time>2026-04-07T08:55:37Z</time></trkpt><trkpt lat="33.75742585396812" lon="9.019990065592356"><ele>87.0</ele><time>2026-04-07T08:55:38Z</time></trkpt><trkpt lat="33.75746403106141" lon="9.020142891065557"><ele>87.0</ele><time>2026-04-07T08:55:39Z</time></trkpt><trkpt lat="33.757504091370045" lon="9.02029483076569"><ele>87.0</ele><time>2026-04-07T08:55:40Z</time></trkpt><trkpt lat="33.757546933798174" lon="9.020447592795918"><ele>87.0</ele><time>2026-04-07T08:55:41Z</time></trkpt><trkpt lat="33.7575887791915" lon="9.020594875114595"><ele>87.0</ele><time>2026-04-07T08:55:42Z</time></trkpt><trkpt lat="33.75762825456039" lon="9.020736260650189"><ele>87.0</ele><time>2026-04-07T08:55:43Z</time></trkpt><trkpt lat="33.75766213791563" lon="9.02086982476557"><ele>87.0</ele><time>2026-04-07T08:55:44Z</time></trkpt><trkpt lat="33.757693877411796" lon="9.021005306572098"><ele>86.0</ele><time>2026-04-07T08:55:45Z</time></trkpt><trkpt lat="33.75772824171227" lon="9.021141654220296"><ele>85.0</ele><time>2026-04-07T08:55:46Z</time></trkpt><trkpt lat="33.75776318680083" lon="9.02127917794744"><ele>84.0</ele><time>2026-04-07T08:55:47Z</time></trkpt><trkpt lat="33.7577955941412" lon="9.021418598719048"><ele>83.0</ele><time>2026-04-07T08:55:48Z</time></trkpt><trkpt lat="33.757829105399516" lon="9.02155786987775"><ele>83.25</ele><time>2026-04-07T08:55:49Z</time></trkpt><trkpt lat="33.75786040378481" lon="9.021701216900803"><ele>83.5</ele><time>2026-04-07T08:55:50Z</time></trkpt><trkpt lat="33.7578893701614" lon="9.02184855569409"><ele>83.75</ele><time>2026-04-07T08:55:51Z</time></trkpt><trkpt lat="33.75791220257505" lon="9.021998206327185"><ele>84.0</ele><time>2026-04-07T08:55:52Z</time></trkpt><trkpt lat="33.757930975978724" lon="9.02214181642746"><ele>84.0</ele><time>2026-04-07T08:55:53Z</time></trkpt><trkpt lat="33.7579393196864" lon="9.022282599533893"><ele>84.0</ele><time>2026-04-07T08:55:54Z</time></trkpt><trkpt lat="33.7579446670667" lon="9.02242554270656"><ele>84.0</ele><time>2026-04-07T08:55:55Z</time></trkpt><trkpt lat="33.757948708250645" lon="9.022566278968045"><ele>84.0</ele><time>2026-04-07T08:55:56Z</time></trkpt><trkpt lat="33.75795412182826" lon="9.022707292798398"><ele>84.0</ele><time>2026-04-07T08:55:57Z</time></trkpt><trkpt lat="33.75795591670468" lon="9.022838603069792"><ele>84.0</ele><time>2026-04-07T08:55:58Z</time></trkpt><trkpt lat="33.757954955245175" lon="9.022957320556515"><ele>84.0</ele><time>2026-04-07T08:55:59Z</time></trkpt><trkpt lat="33.75795477156971" lon="9.023071762327733"><ele>84.0</ele><time>2026-04-07T08:56:00Z</time></trkpt><trkpt lat="33.75796223925684" lon="9.023177892869665"><ele>84.0</ele><time>2026-04-07T08:56:01Z</time></trkpt><trkpt lat="33.757979149084576" lon="9.023262376318593"><ele>84.0</ele><time>2026-04-07T08:56:02Z</time></trkpt><trkpt lat="33.75802069242972" lon="9.023366900120903"><ele>84.0</ele><time>2026-04-07T08:56:04Z</time></trkpt><trkpt lat="33.75809548219897" lon="9.02342286797589"><ele>84.0</ele><time>2026-04-07T08:56:07Z</time></trkpt><trkpt lat="33.75816447969426" lon="9.023438390276555"><ele>84.0</ele><time>2026-04-07T08:56:10Z</time></trkpt><trkpt lat="33.7582313436774" lon="9.023438660110111"><ele>84.0</ele><time>2026-04-07T08:56:38Z</time></trkpt><trkpt lat="33.75831438805859" lon="9.023427325175236"><ele>84.0</ele><time>2026-04-07T08:56:42Z</time></trkpt><trkpt lat="33.7584136834874" lon="9.023383876939526"><ele>84.0</ele><time>2026-04-07T08:57:02Z</time></trkpt><trkpt lat="33.7585166259675" lon="9.023317351726286"><ele>84.0</ele><time>2026-04-07T08:57:03Z</time></trkpt><trkpt lat="33.758650023542636" lon="9.023218211522611"><ele>84.0</ele><time>2026-04-07T08:57:04Z</time></trkpt><trkpt lat="33.75881446753672" lon="9.023086463781716"><ele>82.0</ele><time>2026-04-07T08:57:05Z</time></trkpt><trkpt lat="33.75900610285986" lon="9.022916523087998"><ele>80.0</ele><time>2026-04-07T08:57:06Z</time></trkpt><trkpt lat="33.75922267379909" lon="9.022715908497497"><ele>79.0</ele><time>2026-04-07T08:57:07Z</time></trkpt><trkpt lat="33.75947227439264" lon="9.022498073497141"><ele>78.0</ele><time>2026-04-07T08:57:08Z</time></trkpt><trkpt lat="33.759744657746396" lon="9.022276037752947"><ele>78.0</ele><time>2026-04-07T08:57:09Z</time></trkpt><trkpt lat="33.760023092832846" lon="9.022032875530435"><ele>78.0</ele><time>2026-04-07T08:57:10Z</time></trkpt><trkpt lat="33.76031288228425" lon="9.021773568443496"><ele>78.5</ele><time>2026-04-07T08:57:11Z</time></trkpt><trkpt lat="33.760616633287164" lon="9.021503314050943"><ele>79.0</ele><time>2026-04-07T08:57:12Z</time></trkpt><trkpt lat="33.76091790812782" lon="9.021237477908752"><ele>78.5</ele><time>2026-04-07T08:57:13Z</time></trkpt><trkpt lat="33.76118649796382" lon="9.021005190483317"><ele>78.0</ele><time>2026-04-07T08:57:14Z</time></trkpt><trkpt lat="33.761409162085435" lon="9.020809840698519"><ele>78.0</ele><time>2026-04-07T08:57:15Z</time></trkpt><trkpt lat="33.76160179688623" lon="9.020637853135712"><ele>78.0</ele><time>2026-04-07T08:57:16Z</time></trkpt><trkpt lat="33.76178493303889" lon="9.020474581901672"><ele>77.0</ele><time>2026-04-07T08:57:17Z</time></trkpt><trkpt lat="33.761970772129224" lon="9.020318479094282"><ele>76.0</ele><time>2026-04-07T08:57:18Z</time></trkpt><trkpt lat="33.76216110967324" lon="9.020160874291268"><ele>76.0</ele><time>2026-04-07T08:57:19Z</time></trkpt><trkpt lat="33.76235105225986" lon="9.020004792954113"><ele>76.0</ele><time>2026-04-07T08:57:20Z</time></trkpt><trkpt lat="33.762534970296564" lon="9.01984471084004"><ele>75.5</ele><time>2026-04-07T08:57:21Z</time></trkpt><trkpt lat="33.76271545906097" lon="9.019681932307094"><ele>75.0</ele><time>2026-04-07T08:57:22Z</time></trkpt><trkpt lat="33.762896527678635" lon="9.019521589423004"><ele>75.0</ele><time>2026-04-07T08:57:23Z</time></trkpt><trkpt lat="33.76308109790415" lon="9.019361972583061"><ele>75.0</ele><time>2026-04-07T08:57:24Z</time></trkpt><trkpt lat="33.763266228199335" lon="9.019203314264157"><ele>74.5</ele><time>2026-04-07T08:57:25Z</time></trkpt><trkpt lat="33.763453231903846" lon="9.019045299260592"><ele>74.0</ele><time>2026-04-07T08:57:26Z</time></trkpt><trkpt lat="33.763644510802884" lon="9.018882973542592"><ele>74.0</ele><time>2026-04-07T08:57:27Z</time></trkpt><trkpt lat="33.76385118562715" lon="9.018702374704771"><ele>74.0</ele><time>2026-04-07T08:57:28Z</time></trkpt><trkpt lat="33.764068945407026" lon="9.01850410089147"><ele>74.0</ele><time>2026-04-07T08:57:29Z</time></trkpt><trkpt lat="33.76429050553542" lon="9.01830494987992"><ele>74.0</ele><time>2026-04-07T08:57:30Z</time></trkpt><trkpt lat="33.76451250899482" lon="9.018110975210135"><ele>73.5</ele><time>2026-04-07T08:57:31Z</time></trkpt><trkpt lat="33.764732936275465" lon="9.017921042744701"><ele>73.0</ele><time>2026-04-07T08:57:32Z</time></trkpt><trkpt lat="33.76495037728198" lon="9.017737513594154"><ele>73.0</ele><time>2026-04-07T08:57:33Z</time></trkpt><trkpt lat="33.76516170826894" lon="9.017560122986064"><ele>73.0</ele><time>2026-04-07T08:57:34Z</time></trkpt><trkpt lat="33.765362637970526" lon="9.017389940541753"><ele>73.0</ele><time>2026-04-07T08:57:35Z</time></trkpt><trkpt lat="33.765557017830766" lon="9.017228569911833"><ele>73.0</ele><time>2026-04-07T08:57:36Z</time></trkpt><trkpt lat="33.76574625318247" lon="9.017070643286505"><ele>73.0</ele><time>2026-04-07T08:57:37Z</time></trkpt><trkpt lat="33.76593837281167" lon="9.01690939106175"><ele>73.0</ele><time>2026-04-07T08:57:38Z</time></trkpt><trkpt lat="33.766132457289494" lon="9.016745237064502"><ele>72.0</ele><time>2026-04-07T08:57:39Z</time></trkpt><trkpt lat="33.76632881668711" lon="9.016576552278705"><ele>71.0</ele><time>2026-04-07T08:57:40Z</time></trkpt><trkpt lat="33.76652733781554" lon="9.016403502719095"><ele>71.0</ele><time>2026-04-07T08:57:41Z</time></trkpt><trkpt lat="33.766725013803715" lon="9.016228626619915"><ele>71.0</ele><time>2026-04-07T08:57:42Z</time></trkpt><trkpt lat="33.766927367777114" lon="9.016054578416618"><ele>70.5</ele><time>2026-04-07T08:57:43Z</time></trkpt><trkpt lat="33.767135460811126" lon="9.015881751892405"><ele>70.0</ele><time>2026-04-07T08:57:44Z</time></trkpt><trkpt lat="33.767344586215884" lon="9.015711030276856"><ele>69.5</ele><time>2026-04-07T08:57:45Z</time></trkpt><trkpt lat="33.76755019480522" lon="9.01554903470886"><ele>69.0</ele><time>2026-04-07T08:57:46Z</time></trkpt><trkpt lat="33.76775662858926" lon="9.015390529266762"><ele>69.0</ele><time>2026-04-07T08:57:47Z</time></trkpt><trkpt lat="33.767959765353645" lon="9.015231804207719"><ele>69.0</ele><time>2026-04-07T08:57:48Z</time></trkpt><trkpt lat="33.768161825610605" lon="9.01507205414531"><ele>69.0</ele><time>2026-04-07T08:57:49Z</time></trkpt><trkpt lat="33.76836394651194" lon="9.01491497223658"><ele>69.0</ele><time>2026-04-07T08:57:50Z</time></trkpt><trkpt lat="33.76857152375986" lon="9.014756129009248"><ele>69.0</ele><time>2026-04-07T08:57:51Z</time></trkpt><trkpt lat="33.76877941754657" lon="9.014593752536204"><ele>69.0</ele><time>2026-04-07T08:57:52Z</time></trkpt><trkpt lat="33.768986834705814" lon="9.01442990976293"><ele>69.0</ele><time>2026-04-07T08:57:53Z</time></trkpt><trkpt lat="33.76919501756095" lon="9.014266078633726"><ele>69.0</ele><time>2026-04-07T08:57:54Z</time></trkpt><trkpt lat="33.76940430960782" lon="9.014105857274071"><ele>66.5</ele><time>2026-04-07T08:57:55Z</time></trkpt><trkpt lat="33.76961323867146" lon="9.013944633436475"><ele>64.0</ele><time>2026-04-07T08:57:56Z</time></trkpt><trkpt lat="33.769823328270846" lon="9.01378232868336"><ele>64.0</ele><time>2026-04-07T08:57:57Z</time></trkpt><trkpt lat="33.770032618548065" lon="9.013619095261594"><ele>64.0</ele><time>2026-04-07T08:57:58Z</time></trkpt><trkpt lat="33.770240546395506" lon="9.01345257017051"><ele>64.5</ele><time>2026-04-07T08:57:59Z</time></trkpt><trkpt lat="33.77044714503363" lon="9.013288000812308"><ele>65.0</ele><time>2026-04-07T08:58:00Z</time></trkpt><trkpt lat="33.77065567796399" lon="9.013125839104177"><ele>65.0</ele><time>2026-04-07T08:58:01Z</time></trkpt><trkpt lat="33.770863833234216" lon="9.012963541320225"><ele>65.0</ele><time>2026-04-07T08:58:02Z</time></trkpt><trkpt lat="33.77107258546386" lon="9.012797264877"><ele>64.5</ele><time>2026-04-07T08:58:03Z</time></trkpt><trkpt lat="33.77128034888984" lon="9.012633778478737"><ele>64.0</ele><time>2026-04-07T08:58:04Z</time></trkpt><trkpt lat="33.771488372564605" lon="9.01246968328391"><ele>64.0</ele><time>2026-04-07T08:58:05Z</time></trkpt><trkpt lat="33.7716962999178" lon="9.012308990510572"><ele>64.0</ele><time>2026-04-07T08:58:06Z</time></trkpt><trkpt lat="33.771905692894315" lon="9.012145002978555"><ele>64.0</ele><time>2026-04-07T08:58:07Z</time></trkpt><trkpt lat="33.772114099321705" lon="9.011979870663405"><ele>64.0</ele><time>2026-04-07T08:58:08Z</time></trkpt><trkpt lat="33.772321436187035" lon="9.011816571887923"><ele>64.0</ele><time>2026-04-07T08:58:09Z</time></trkpt><trkpt lat="33.77253174627045" lon="9.011653997326327"><ele>64.0</ele><time>2026-04-07T08:58:10Z</time></trkpt><trkpt lat="33.77274377597165" lon="9.011492355216658"><ele>64.5</ele><time>2026-04-07T08:58:11Z</time></trkpt><trkpt lat="33.77295447276709" lon="9.0113321275842"><ele>65.0</ele><time>2026-04-07T08:58:12Z</time></trkpt><trkpt lat="33.7731633074619" lon="9.01116979927463"><ele>65.0</ele><time>2026-04-07T08:58:13Z</time></trkpt><trkpt lat="33.77337047511749" lon="9.011001883945198"><ele>65.0</ele><time>2026-04-07T08:58:14Z</time></trkpt><trkpt lat="33.77357625496873" lon="9.010833602432685"><ele>63.0</ele><time>2026-04-07T08:58:15Z</time></trkpt><trkpt lat="33.77378400504206" lon="9.010665009424295"><ele>61.0</ele><time>2026-04-07T08:58:16Z</time></trkpt><trkpt lat="33.77399094855117" lon="9.010495352121758"><ele>61.0</ele><time>2026-04-07T08:58:17Z</time></trkpt><trkpt lat="33.77419724760127" lon="9.010328837698134"><ele>61.0</ele><time>2026-04-07T08:58:18Z</time></trkpt><trkpt lat="33.77440757922663" lon="9.01016236255584"><ele>61.0</ele><time>2026-04-07T08:58:19Z</time></trkpt><trkpt lat="33.774616517315025" lon="9.009998401773215"><ele>61.0</ele><time>2026-04-07T08:58:20Z</time></trkpt><trkpt lat="33.774825039319516" lon="9.009834153510326"><ele>61.0</ele><time>2026-04-07T08:58:21Z</time></trkpt><trkpt lat="33.77503355409195" lon="9.0096696242036"><ele>61.0</ele><time>2026-04-07T08:58:22Z</time></trkpt><trkpt lat="33.77524498229969" lon="9.009508149406942"><ele>61.5</ele><time>2026-04-07T08:58:23Z</time></trkpt><trkpt lat="33.77545592306127" lon="9.009349045304246"><ele>62.0</ele><time>2026-04-07T08:58:24Z</time></trkpt><trkpt lat="33.77566606433346" lon="9.009188551451798"><ele>62.0</ele><time>2026-04-07T08:58:25Z</time></trkpt><trkpt lat="33.77587776929574" lon="9.009031226629498"><ele>62.0</ele><time>2026-04-07T08:58:26Z</time></trkpt><trkpt lat="33.77609254807352" lon="9.008875839456637"><ele>61.0</ele><time>2026-04-07T08:58:27Z</time></trkpt><trkpt lat="33.77630810256506" lon="9.008723914327218"><ele>60.0</ele><time>2026-04-07T08:58:28Z</time></trkpt><trkpt lat="33.776523385893995" lon="9.00857234062964"><ele>60.0</ele><time>2026-04-07T08:58:29Z</time></trkpt><trkpt lat="33.77674038382366" lon="9.00841909153155"><ele>60.0</ele><time>2026-04-07T08:58:30Z</time></trkpt><trkpt lat="33.7769537971573" lon="9.008266241566183"><ele>58.5</ele><time>2026-04-07T08:58:31Z</time></trkpt><trkpt lat="33.77715601295415" lon="9.008118908849285"><ele>57.0</ele><time>2026-04-07T08:58:32Z</time></trkpt><trkpt lat="33.77735608844698" lon="9.00797769796046"><ele>57.0</ele><time>2026-04-07T08:58:33Z</time></trkpt><trkpt lat="33.77755369917409" lon="9.007839881020884"><ele>57.0</ele><time>2026-04-07T08:58:34Z</time></trkpt><trkpt lat="33.77774834936536" lon="9.007703697370365"><ele>57.33333333333333</ele><time>2026-04-07T08:58:35Z</time></trkpt><trkpt lat="33.777937855299825" lon="9.007572587594545"><ele>57.666666666666664</ele><time>2026-04-07T08:58:36Z</time></trkpt><trkpt lat="33.778119857134314" lon="9.007444758011715"><ele>58.0</ele><time>2026-04-07T08:58:37Z</time></trkpt><trkpt lat="33.778290052764326" lon="9.007325068836447"><ele>58.0</ele><time>2026-04-07T08:58:38Z</time></trkpt><trkpt lat="33.778440051826" lon="9.00722042923514"><ele>58.0</ele><time>2026-04-07T08:58:39Z</time></trkpt><trkpt lat="33.77856963147038" lon="9.007134765557193"><ele>58.0</ele><time>2026-04-07T08:58:40Z</time></trkpt><trkpt lat="33.77868469615012" lon="9.007056528953798"><ele>57.75</ele><time>2026-04-07T08:58:41Z</time></trkpt><trkpt lat="33.77880178656956" lon="9.006979733545206"><ele>57.5</ele><time>2026-04-07T08:58:42Z</time></trkpt><trkpt lat="33.77891867031826" lon="9.006903971543286"><ele>57.25</ele><time>2026-04-07T08:58:43Z</time></trkpt><trkpt lat="33.77902900978936" lon="9.006831747063966"><ele>57.0</ele><time>2026-04-07T08:58:44Z</time></trkpt><trkpt lat="33.77913445983758" lon="9.006761327369523"><ele>57.0</ele><time>2026-04-07T08:58:45Z</time></trkpt><trkpt lat="33.77923337132573" lon="9.00669189239323"><ele>57.0</ele><time>2026-04-07T08:58:46Z</time></trkpt><trkpt lat="33.77932764898965" lon="9.00662755074081"><ele>57.0</ele><time>2026-04-07T08:58:47Z</time></trkpt><trkpt lat="33.77941975122319" lon="9.006571555021122"><ele>57.0</ele><time>2026-04-07T08:58:48Z</time></trkpt><trkpt lat="33.7795102330862" lon="9.006527132207275"><ele>57.0</ele><time>2026-04-07T08:58:49Z</time></trkpt><trkpt lat="33.77959973753782" lon="9.006499760682974"><ele>57.0</ele><time>2026-04-07T08:58:50Z</time></trkpt><trkpt lat="33.77968730556183" lon="9.006484539164445"><ele>57.0</ele><time>2026-04-07T08:58:51Z</time></trkpt><trkpt lat="33.779775025493144" lon="9.006470991576263"><ele>57.0</ele><time>2026-04-07T08:58:52Z</time></trkpt><trkpt lat="33.77986622374936" lon="9.006456713601903"><ele>57.0</ele><time>2026-04-07T08:58:53Z</time></trkpt><trkpt lat="33.77996010060122" lon="9.006444014912214"><ele>57.0</ele><time>2026-04-07T08:58:54Z</time></trkpt><trkpt lat="33.780055554250715" lon="9.006428461986639"><ele>57.0</ele><time>2026-04-07T08:58:55Z</time></trkpt><trkpt lat="33.78015066484409" lon="9.00641180928062"><ele>57.0</ele><time>2026-04-07T08:58:56Z</time></trkpt><trkpt lat="33.78024453249608" lon="9.00639765225696"><ele>57.0</ele><time>2026-04-07T08:58:57Z</time></trkpt><trkpt lat="33.78032992935595" lon="9.006382147582093"><ele>57.0</ele><time>2026-04-07T08:58:58Z</time></trkpt><trkpt lat="33.780407848257056" lon="9.006362631816781"><ele>57.0</ele><time>2026-04-07T08:58:59Z</time></trkpt><trkpt lat="33.78047611914165" lon="9.006338153114038"><ele>57.0</ele><time>2026-04-07T08:59:00Z</time></trkpt><trkpt lat="33.78056814905847" lon="9.006261549703877"><ele>56.857142857142854</ele><time>2026-04-07T08:59:02Z</time></trkpt><trkpt lat="33.78060686400296" lon="9.006192748486724"><ele>56.71428571428571</ele><time>2026-04-07T08:59:04Z</time></trkpt><trkpt lat="33.780634417528574" lon="9.006117270153062"><ele>56.57142857142857</ele><time>2026-04-07T08:59:15Z</time></trkpt><trkpt lat="33.78065723376753" lon="9.006038970588959"><ele>56.42857142857143</ele><time>2026-04-07T08:59:17Z</time></trkpt><trkpt lat="33.78068488945542" lon="9.005959844727863"><ele>56.285714285714285</ele><time>2026-04-07T08:59:19Z</time></trkpt><trkpt lat="33.78070868491802" lon="9.005888027650151"><ele>56.14285714285714</ele><time>2026-04-07T08:59:20Z</time></trkpt><trkpt lat="33.780736132751386" lon="9.005782334692253"><ele>56.0</ele><time>2026-04-07T08:59:21Z</time></trkpt><trkpt lat="33.78077673649229" lon="9.005634824402451"><ele>56.0</ele><time>2026-04-07T08:59:22Z</time></trkpt><trkpt lat="33.78082504683668" lon="9.00547871637694"><ele>56.0</ele><time>2026-04-07T08:59:23Z</time></trkpt><trkpt lat="33.780873329508765" lon="9.005329543208985"><ele>56.0</ele><time>2026-04-07T08:59:24Z</time></trkpt><trkpt lat="33.78092147558844" lon="9.005169778607637"><ele>56.0</ele><time>2026-04-07T08:59:25Z</time></trkpt><trkpt lat="33.78097100615189" lon="9.004999164982438"><ele>55.66666666666667</ele><time>2026-04-07T08:59:26Z</time></trkpt><trkpt lat="33.78101695204352" lon="9.004823918431752"><ele>55.33333333333333</ele><time>2026-04-07T08:59:27Z</time></trkpt><trkpt lat="33.781063696965454" lon="9.004652893412475"><ele>55.0</ele><time>2026-04-07T08:59:28Z</time></trkpt><trkpt lat="33.78110917829258" lon="9.004481473624118"><ele>55.0</ele><time>2026-04-07T08:59:29Z</time></trkpt><trkpt lat="33.78115351906295" lon="9.004308785899223"><ele>55.0</ele><time>2026-04-07T08:59:30Z</time></trkpt><trkpt lat="33.7811983447044" lon="9.004139738315283"><ele>55.0</ele><time>2026-04-07T08:59:31Z</time></trkpt><trkpt lat="33.781249288143506" lon="9.003975974872573"><ele>55.0</ele><time>2026-04-07T08:59:32Z</time></trkpt><trkpt lat="33.781301309299465" lon="9.003814736038994"><ele>55.0</ele><time>2026-04-07T08:59:33Z</time></trkpt><trkpt lat="33.781355982669545" lon="9.003654697307919"><ele>55.0</ele><time>2026-04-07T08:59:34Z</time></trkpt><trkpt lat="33.78141089171349" lon="9.003488470262662"><ele>55.0</ele><time>2026-04-07T08:59:35Z</time></trkpt><trkpt lat="33.78146868123607" lon="9.003317747109053"><ele>55.0</ele><time>2026-04-07T08:59:36Z</time></trkpt><trkpt lat="33.78152312264552" lon="9.003147655788053"><ele>55.0</ele><time>2026-04-07T08:59:37Z</time></trkpt><trkpt lat="33.78157677071481" lon="9.002975670118177"><ele>55.0</ele><time>2026-04-07T08:59:38Z</time></trkpt><trkpt lat="33.78162930746913" lon="9.002792125046591"><ele>55.0</ele><time>2026-04-07T08:59:39Z</time></trkpt><trkpt lat="33.78167908239393" lon="9.002617123670191"><ele>55.666666666666664</ele><time>2026-04-07T08:59:40Z</time></trkpt><trkpt lat="33.7817318995771" lon="9.002439399582947"><ele>56.33333333333333</ele><time>2026-04-07T08:59:41Z</time></trkpt><trkpt lat="33.78178543939331" lon="9.002263622918417"><ele>57.0</ele><time>2026-04-07T08:59:42Z</time></trkpt><trkpt lat="33.78184032441336" lon="9.002080838589237"><ele>55.66666666666667</ele><time>2026-04-07T08:59:43Z</time></trkpt><trkpt lat="33.781895015302936" lon="9.001894710579666"><ele>54.333333333333336</ele><time>2026-04-07T08:59:44Z</time></trkpt><trkpt lat="33.78195399624675" lon="9.001705548409472"><ele>53.0</ele><time>2026-04-07T08:59:45Z</time></trkpt><trkpt lat="33.78207561209423" lon="9.001316273794524"><ele>53.0</ele><time>2026-04-07T08:59:47Z</time></trkpt><trkpt lat="33.78213793377882" lon="9.001110794501479"><ele>53.0</ele><time>2026-04-07T08:59:48Z</time></trkpt><trkpt lat="33.782200686521065" lon="9.000892659015747"><ele>53.0</ele><time>2026-04-07T08:59:49Z</time></trkpt><trkpt lat="33.78226546828" lon="9.000670559079683"><ele>53.66666666666667</ele><time>2026-04-07T08:59:50Z</time></trkpt><trkpt lat="33.78233514495978" lon="9.000451157747587"><ele>54.33333333333333</ele><time>2026-04-07T08:59:51Z</time></trkpt><trkpt lat="33.78240096589739" lon="9.00023034533754"><ele>55.0</ele><time>2026-04-07T08:59:52Z</time></trkpt><trkpt lat="33.78246958070362" lon="9.000000995760011"><ele>55.0</ele><time>2026-04-07T08:59:53Z</time></trkpt><trkpt lat="33.78253818127711" lon="8.999774710593954"><ele>55.0</ele><time>2026-04-07T08:59:54Z</time></trkpt><trkpt lat="33.7826023067021" lon="8.99954641040052"><ele>55.0</ele><time>2026-04-07T08:59:55Z</time></trkpt><trkpt lat="33.78267278728824" lon="8.999317514607945"><ele>55.33333333333333</ele><time>2026-04-07T08:59:56Z</time></trkpt><trkpt lat="33.7827481328497" lon="8.99909070780932"><ele>55.66666666666667</ele><time>2026-04-07T08:59:57Z</time></trkpt><trkpt lat="33.78282699318964" lon="8.99886008129728"><ele>56.0</ele><time>2026-04-07T08:59:58Z</time></trkpt><trkpt lat="33.78290765469745" lon="8.998636234710235"><ele>56.0</ele><time>2026-04-07T08:59:59Z</time></trkpt><trkpt lat="33.782998679518805" lon="8.99841366942252"><ele>56.0</ele><time>2026-04-07T09:00:00Z</time></trkpt><trkpt lat="33.783094471071664" lon="8.9981987680396"><ele>56.0</ele><time>2026-04-07T09:00:01Z</time></trkpt><trkpt lat="33.78318484078022" lon="8.997987151789731"><ele>55.333333333333336</ele><time>2026-04-07T09:00:02Z</time></trkpt><trkpt lat="33.78327333671975" lon="8.997770182267853"><ele>54.66666666666667</ele><time>2026-04-07T09:00:03Z</time></trkpt><trkpt lat="33.78336373498579" lon="8.997559290084572"><ele>54.0</ele><time>2026-04-07T09:00:04Z</time></trkpt><trkpt lat="33.78345847886146" lon="8.997347926648114"><ele>54.33333333333333</ele><time>2026-04-07T09:00:05Z</time></trkpt><trkpt lat="33.78355220830776" lon="8.997129033065024"><ele>54.666666666666664</ele><time>2026-04-07T09:00:06Z</time></trkpt><trkpt lat="33.78364605922617" lon="8.996910553725321"><ele>55.0</ele><time>2026-04-07T09:00:07Z</time></trkpt><trkpt lat="33.7837430726397" lon="8.996685203646502"><ele>55.33333333333333</ele><time>2026-04-07T09:00:08Z</time></trkpt><trkpt lat="33.783837630695345" lon="8.996461712202395"><ele>55.66666666666667</ele><time>2026-04-07T09:00:09Z</time></trkpt><trkpt lat="33.78393481733021" lon="8.996235975255098"><ele>56.0</ele><time>2026-04-07T09:00:10Z</time></trkpt><trkpt lat="33.784033933811735" lon="8.99601252373683"><ele>56.0</ele><time>2026-04-07T09:00:11Z</time></trkpt><trkpt lat="33.78413413505604" lon="8.995784229465198"><ele>56.0</ele><time>2026-04-07T09:00:12Z</time></trkpt><trkpt lat="33.7842376712809" lon="8.995557262469271"><ele>56.0</ele><time>2026-04-07T09:00:13Z</time></trkpt><trkpt lat="33.78434054536821" lon="8.995323197505817"><ele>55.0</ele><time>2026-04-07T09:00:14Z</time></trkpt><trkpt lat="33.784442840048264" lon="8.99508911767448"><ele>54.0</ele><time>2026-04-07T09:00:15Z</time></trkpt><trkpt lat="33.784540422623444" lon="8.994855979556066"><ele>53.0</ele><time>2026-04-07T09:00:16Z</time></trkpt><trkpt lat="33.78464235937052" lon="8.994617622904107"><ele>53.0</ele><time>2026-04-07T09:00:17Z</time></trkpt><trkpt lat="33.78473694667157" lon="8.994382885168537"><ele>53.0</ele><time>2026-04-07T09:00:18Z</time></trkpt><trkpt lat="33.78482649438177" lon="8.994139628798287"><ele>53.0</ele><time>2026-04-07T09:00:19Z</time></trkpt><trkpt lat="33.784902180002604" lon="8.993896325235935"><ele>52.66666666666667</ele><time>2026-04-07T09:00:20Z</time></trkpt><trkpt lat="33.78496857888077" lon="8.993643002395245"><ele>52.33333333333333</ele><time>2026-04-07T09:00:21Z</time></trkpt><trkpt lat="33.78502127376166" lon="8.993379324812707"><ele>52.0</ele><time>2026-04-07T09:00:22Z</time></trkpt><trkpt lat="33.785058810069884" lon="8.99310514637533"><ele>51.5</ele><time>2026-04-07T09:00:23Z</time></trkpt><trkpt lat="33.785085941410166" lon="8.99282127212741"><ele>51.0</ele><time>2026-04-07T09:00:24Z</time></trkpt><trkpt lat="33.78511209928081" lon="8.992533357189465"><ele>52.0</ele><time>2026-04-07T09:00:25Z</time></trkpt><trkpt lat="33.78513672067803" lon="8.99224847566988"><ele>53.0</ele><time>2026-04-07T09:00:26Z</time></trkpt><trkpt lat="33.785160062553544" lon="8.991958747557957"><ele>53.5</ele><time>2026-04-07T09:00:27Z</time></trkpt><trkpt lat="33.785185732090504" lon="8.991669679016454"><ele>54.0</ele><time>2026-04-07T09:00:28Z</time></trkpt><trkpt lat="33.785208699766045" lon="8.991378926415763"><ele>54.0</ele><time>2026-04-07T09:00:29Z</time></trkpt><trkpt lat="33.78522549724998" lon="8.991085077906456"><ele>54.0</ele><time>2026-04-07T09:00:30Z</time></trkpt><trkpt lat="33.785239314629855" lon="8.990797425092808"><ele>53.0</ele><time>2026-04-07T09:00:31Z</time></trkpt><trkpt lat="33.785251615226784" lon="8.990508409668944"><ele>52.0</ele><time>2026-04-07T09:00:32Z</time></trkpt><trkpt lat="33.78526530750964" lon="8.990214263951765"><ele>50.0</ele><time>2026-04-07T09:00:33Z</time></trkpt><trkpt lat="33.785282356784194" lon="8.989929122213097"><ele>48.0</ele><time>2026-04-07T09:00:34Z</time></trkpt><trkpt lat="33.78529788281259" lon="8.989637894502845"><ele>48.0</ele><time>2026-04-07T09:00:35Z</time></trkpt><trkpt lat="33.78531140997006" lon="8.989343403196983"><ele>48.0</ele><time>2026-04-07T09:00:36Z</time></trkpt><trkpt lat="33.78532558458561" lon="8.989051291293089"><ele>49.0</ele><time>2026-04-07T09:00:37Z</time></trkpt><trkpt lat="33.78534411896553" lon="8.98875813017136"><ele>50.0</ele><time>2026-04-07T09:00:38Z</time></trkpt><trkpt lat="33.785363270925416" lon="8.988465274571693"><ele>51.0</ele><time>2026-04-07T09:00:39Z</time></trkpt><trkpt lat="33.78538003107841" lon="8.98817435307615"><ele>52.0</ele><time>2026-04-07T09:00:40Z</time></trkpt><trkpt lat="33.78539711432195" lon="8.987880223861628"><ele>52.0</ele><time>2026-04-07T09:00:41Z</time></trkpt><trkpt lat="33.785413117397326" lon="8.987589004071975"><ele>52.0</ele><time>2026-04-07T09:00:42Z</time></trkpt><trkpt lat="33.785433947610116" lon="8.987299275520977"><ele>52.0</ele><time>2026-04-07T09:00:43Z</time></trkpt><trkpt lat="33.7854484201614" lon="8.987008004609724"><ele>52.0</ele><time>2026-04-07T09:00:44Z</time></trkpt><trkpt lat="33.785464132230324" lon="8.986712979881174"><ele>52.5</ele><time>2026-04-07T09:00:45Z</time></trkpt><trkpt lat="33.785478080835766" lon="8.986422802126317"><ele>53.0</ele><time>2026-04-07T09:00:46Z</time></trkpt><trkpt lat="33.78548801808436" lon="8.986130839048755"><ele>52.5</ele><time>2026-04-07T09:00:47Z</time></trkpt><trkpt lat="33.785495492217095" lon="8.98583721536135"><ele>52.0</ele><time>2026-04-07T09:00:48Z</time></trkpt><trkpt lat="33.785506625965375" lon="8.98554187114232"><ele>52.0</ele><time>2026-04-07T09:00:49Z</time></trkpt><trkpt lat="33.78551804363047" lon="8.98524951660859"><ele>52.0</ele><time>2026-04-07T09:00:50Z</time></trkpt><trkpt lat="33.78553016842869" lon="8.984954477891998"><ele>52.5</ele><time>2026-04-07T09:00:51Z</time></trkpt><trkpt lat="33.785537595274796" lon="8.984661450242003"><ele>53.0</ele><time>2026-04-07T09:00:52Z</time></trkpt><trkpt lat="33.785545372973296" lon="8.984369852886463"><ele>53.0</ele><time>2026-04-07T09:00:53Z</time></trkpt><trkpt lat="33.78555588237885" lon="8.984076167006618"><ele>53.0</ele><time>2026-04-07T09:00:54Z</time></trkpt><trkpt lat="33.78556703946431" lon="8.983783516774423"><ele>53.0</ele><time>2026-04-07T09:00:55Z</time></trkpt><trkpt lat="33.78557552622071" lon="8.983488603646395"><ele>53.0</ele><time>2026-04-07T09:00:56Z</time></trkpt><trkpt lat="33.78558099180311" lon="8.983195873538994"><ele>52.0</ele><time>2026-04-07T09:00:57Z</time></trkpt><trkpt lat="33.78559194651274" lon="8.98290276188837"><ele>51.0</ele><time>2026-04-07T09:00:58Z</time></trkpt><trkpt lat="33.78560574977983" lon="8.982609722996624"><ele>52.0</ele><time>2026-04-07T09:00:59Z</time></trkpt><trkpt lat="33.78562956228471" lon="8.982318522675985"><ele>53.0</ele><time>2026-04-07T09:01:00Z</time></trkpt><trkpt lat="33.78566733932647" lon="8.98203027317004"><ele>53.0</ele><time>2026-04-07T09:01:01Z</time></trkpt><trkpt lat="33.785714786559055" lon="8.981740934350906"><ele>53.0</ele><time>2026-04-07T09:01:02Z</time></trkpt><trkpt lat="33.78576921112889" lon="8.981452302635788"><ele>52.0</ele><time>2026-04-07T09:01:03Z</time></trkpt><trkpt lat="33.78583331189293" lon="8.981169043949947"><ele>51.0</ele><time>2026-04-07T09:01:04Z</time></trkpt><trkpt lat="33.78589645233951" lon="8.980885233988898"><ele>51.0</ele><time>2026-04-07T09:01:05Z</time></trkpt><trkpt lat="33.78595404479407" lon="8.980598686330254"><ele>51.0</ele><time>2026-04-07T09:01:06Z</time></trkpt><trkpt lat="33.786007329160036" lon="8.980311454231966"><ele>50.5</ele><time>2026-04-07T09:01:07Z</time></trkpt><trkpt lat="33.786062965788624" lon="8.98002786848023"><ele>50.0</ele><time>2026-04-07T09:01:08Z</time></trkpt><trkpt lat="33.78611613470309" lon="8.97974562356797"><ele>49.0</ele><time>2026-04-07T09:01:09Z</time></trkpt><trkpt lat="33.78616635855624" lon="8.979459545751341"><ele>48.0</ele><time>2026-04-07T09:01:10Z</time></trkpt><trkpt lat="33.786215375628764" lon="8.979174084052135"><ele>48.0</ele><time>2026-04-07T09:01:11Z</time></trkpt><trkpt lat="33.78625758901786" lon="8.978883778503457"><ele>48.0</ele><time>2026-04-07T09:01:12Z</time></trkpt><trkpt lat="33.78629479559132" lon="8.978594101138379"><ele>50.0</ele><time>2026-04-07T09:01:13Z</time></trkpt><trkpt lat="33.78632870327822" lon="8.978307141993316"><ele>52.0</ele><time>2026-04-07T09:01:14Z</time></trkpt><trkpt lat="33.78635990285725" lon="8.978015676424013"><ele>52.0</ele><time>2026-04-07T09:01:15Z</time></trkpt><trkpt lat="33.78639250784083" lon="8.977728226622974"><ele>52.0</ele><time>2026-04-07T09:01:16Z</time></trkpt><trkpt lat="33.78642280005154" lon="8.977440815666318"><ele>52.5</ele><time>2026-04-07T09:01:17Z</time></trkpt><trkpt lat="33.786454823188905" lon="8.977147963005711"><ele>53.0</ele><time>2026-04-07T09:01:18Z</time></trkpt><trkpt lat="33.78648357800253" lon="8.976855702748962"><ele>52.0</ele><time>2026-04-07T09:01:19Z</time></trkpt><trkpt lat="33.7865132865231" lon="8.976564903081888"><ele>51.0</ele><time>2026-04-07T09:01:20Z</time></trkpt><trkpt lat="33.786545040110475" lon="8.976277475633458"><ele>51.0</ele><time>2026-04-07T09:01:21Z</time></trkpt><trkpt lat="33.78658144164919" lon="8.975983556239845"><ele>51.0</ele><time>2026-04-07T09:01:22Z</time></trkpt><trkpt lat="33.78660980983874" lon="8.975696656462441"><ele>50.0</ele><time>2026-04-07T09:01:23Z</time></trkpt><trkpt lat="33.78664519111306" lon="8.975401909423624"><ele>49.0</ele><time>2026-04-07T09:01:24Z</time></trkpt><trkpt lat="33.786680009032466" lon="8.9751106244487"><ele>49.5</ele><time>2026-04-07T09:01:25Z</time></trkpt><trkpt lat="33.786713373819154" lon="8.97482201023133"><ele>50.0</ele><time>2026-04-07T09:01:26Z</time></trkpt><trkpt lat="33.7867443554073" lon="8.974532610862306"><ele>50.0</ele><time>2026-04-07T09:01:27Z</time></trkpt><trkpt lat="33.78677492983571" lon="8.974239198254622"><ele>50.0</ele><time>2026-04-07T09:01:28Z</time></trkpt><trkpt lat="33.786804104246656" lon="8.97394621399973"><ele>50.0</ele><time>2026-04-07T09:01:29Z</time></trkpt><trkpt lat="33.7868369798698" lon="8.973656612647051"><ele>50.0</ele><time>2026-04-07T09:01:30Z</time></trkpt><trkpt lat="33.786877210879275" lon="8.97336733018578"><ele>50.5</ele><time>2026-04-07T09:01:31Z</time></trkpt><trkpt lat="33.786917902566266" lon="8.97307782491257"><ele>51.0</ele><time>2026-04-07T09:01:32Z</time></trkpt><trkpt lat="33.78695833615185" lon="8.972788285653577"><ele>51.0</ele><time>2026-04-07T09:01:33Z</time></trkpt><trkpt lat="33.78700075091707" lon="8.972502343794977"><ele>51.0</ele><time>2026-04-07T09:01:34Z</time></trkpt><trkpt lat="33.78704342966743" lon="8.972210510724603"><ele>51.0</ele><time>2026-04-07T09:01:35Z</time></trkpt><trkpt lat="33.787091287563634" lon="8.97192442674622"><ele>51.0</ele><time>2026-04-07T09:01:36Z</time></trkpt><trkpt lat="33.78715137781757" lon="8.971636689381821"><ele>50.0</ele><time>2026-04-07T09:01:37Z</time></trkpt><trkpt lat="33.78721303961682" lon="8.971355424450614"><ele>49.0</ele><time>2026-04-07T09:01:38Z</time></trkpt><trkpt lat="33.78728292254652" lon="8.971069770722686"><ele>48.5</ele><time>2026-04-07T09:01:39Z</time></trkpt><trkpt lat="33.787347956074285" lon="8.970787704834258"><ele>48.0</ele><time>2026-04-07T09:01:40Z</time></trkpt><trkpt lat="33.78741457207733" lon="8.970505496728205"><ele>48.0</ele><time>2026-04-07T09:01:41Z</time></trkpt><trkpt lat="33.787480741199545" lon="8.970228632126709"><ele>48.0</ele><time>2026-04-07T09:01:42Z</time></trkpt><trkpt lat="33.7875395170398" lon="8.96994998938568"><ele>49.0</ele><time>2026-04-07T09:01:43Z</time></trkpt><trkpt lat="33.78760729932389" lon="8.969670162013085"><ele>50.0</ele><time>2026-04-07T09:01:44Z</time></trkpt><trkpt lat="33.787666028874774" lon="8.969388202268934"><ele>48.5</ele><time>2026-04-07T09:01:45Z</time></trkpt><trkpt lat="33.78773398221252" lon="8.969104766238315"><ele>47.0</ele><time>2026-04-07T09:01:46Z</time></trkpt><trkpt lat="33.78781138864554" lon="8.96882318647052"><ele>47.0</ele><time>2026-04-07T09:01:47Z</time></trkpt><trkpt lat="33.78787815330779" lon="8.968543068289877"><ele>47.0</ele><time>2026-04-07T09:01:48Z</time></trkpt><trkpt lat="33.78795034592058" lon="8.968263944044146"><ele>48.5</ele><time>2026-04-07T09:01:49Z</time></trkpt><trkpt lat="33.78802778061618" lon="8.967982997510246"><ele>50.0</ele><time>2026-04-07T09:01:50Z</time></trkpt><trkpt lat="33.78810680086124" lon="8.967702768072671"><ele>49.0</ele><time>2026-04-07T09:01:51Z</time></trkpt><trkpt lat="33.78819434145073" lon="8.967425929979424"><ele>48.0</ele><time>2026-04-07T09:01:52Z</time></trkpt><trkpt lat="33.78829796608707" lon="8.967160577868674"><ele>48.0</ele><time>2026-04-07T09:01:53Z</time></trkpt><trkpt lat="33.78841476880649" lon="8.966898746030187"><ele>48.0</ele><time>2026-04-07T09:01:54Z</time></trkpt><trkpt lat="33.78854077810648" lon="8.966650238858424"><ele>48.5</ele><time>2026-04-07T09:01:55Z</time></trkpt><trkpt lat="33.78867732380504" lon="8.966409860177505"><ele>49.0</ele><time>2026-04-07T09:01:56Z</time></trkpt><trkpt lat="33.78881172907596" lon="8.966163876906641"><ele>49.0</ele><time>2026-04-07T09:01:57Z</time></trkpt><trkpt lat="33.788946698043574" lon="8.965917836462475"><ele>49.0</ele><time>2026-04-07T09:01:58Z</time></trkpt><trkpt lat="33.789086290972946" lon="8.965674989171239"><ele>49.0</ele><time>2026-04-07T09:01:59Z</time></trkpt><trkpt lat="33.78922370047994" lon="8.965426507267722"><ele>49.0</ele><time>2026-04-07T09:02:00Z</time></trkpt><trkpt lat="33.78936058881379" lon="8.965187092127554"><ele>49.5</ele><time>2026-04-07T09:02:01Z</time></trkpt><trkpt lat="33.78950602614559" lon="8.964945325927006"><ele>50.0</ele><time>2026-04-07T09:02:02Z</time></trkpt><trkpt lat="33.78965462601114" lon="8.964712343973366"><ele>50.0</ele><time>2026-04-07T09:02:03Z</time></trkpt><trkpt lat="33.78980711444807" lon="8.964486727601047"><ele>50.0</ele><time>2026-04-07T09:02:04Z</time></trkpt><trkpt lat="33.789968649669824" lon="8.964263721754307"><ele>49.5</ele><time>2026-04-07T09:02:05Z</time></trkpt><trkpt lat="33.790130891735366" lon="8.964043155773277"><ele>49.0</ele><time>2026-04-07T09:02:06Z</time></trkpt><trkpt lat="33.790293319313136" lon="8.96381941703838"><ele>47.5</ele><time>2026-04-07T09:02:07Z</time></trkpt><trkpt lat="33.79044725807724" lon="8.963594653827526"><ele>46.0</ele><time>2026-04-07T09:02:08Z</time></trkpt><trkpt lat="33.79060998674189" lon="8.963371972778132"><ele>47.0</ele><time>2026-04-07T09:02:09Z</time></trkpt><trkpt lat="33.790770453902475" lon="8.963147795462325"><ele>48.0</ele><time>2026-04-07T09:02:10Z</time></trkpt><trkpt lat="33.79092626110849" lon="8.962923757943116"><ele>47.0</ele><time>2026-04-07T09:02:11Z</time></trkpt><trkpt lat="33.79108016102876" lon="8.962693020601177"><ele>46.0</ele><time>2026-04-07T09:02:12Z</time></trkpt><trkpt lat="33.7912375064092" lon="8.96246150729562"><ele>45.0</ele><time>2026-04-07T09:02:13Z</time></trkpt><trkpt lat="33.791393575096215" lon="8.962231503549583"><ele>44.0</ele><time>2026-04-07T09:02:14Z</time></trkpt><trkpt lat="33.791531709509655" lon="8.961992877147956"><ele>44.0</ele><time>2026-04-07T09:02:15Z</time></trkpt><trkpt lat="33.791678625218964" lon="8.961762651969527"><ele>44.0</ele><time>2026-04-07T09:02:16Z</time></trkpt><trkpt lat="33.79180962285774" lon="8.961513276488413"><ele>43.5</ele><time>2026-04-07T09:02:17Z</time></trkpt><trkpt lat="33.79193761796102" lon="8.961270515072654"><ele>43.0</ele><time>2026-04-07T09:02:18Z</time></trkpt><trkpt lat="33.79207602673938" lon="8.961027203556837"><ele>43.5</ele><time>2026-04-07T09:02:19Z</time></trkpt><trkpt lat="33.79220876448189" lon="8.960780903068686"><ele>44.0</ele><time>2026-04-07T09:02:20Z</time></trkpt><trkpt lat="33.792346354528064" lon="8.96054190807415"><ele>44.0</ele><time>2026-04-07T09:02:21Z</time></trkpt><trkpt lat="33.79248493924864" lon="8.960295534988578"><ele>44.0</ele><time>2026-04-07T09:02:22Z</time></trkpt><trkpt lat="33.79262156708338" lon="8.960052884574422"><ele>44.0</ele><time>2026-04-07T09:02:23Z</time></trkpt><trkpt lat="33.79275723144468" lon="8.959806258195936"><ele>44.0</ele><time>2026-04-07T09:02:24Z</time></trkpt><trkpt lat="33.79289288471545" lon="8.95956171117121"><ele>44.0</ele><time>2026-04-07T09:02:25Z</time></trkpt><trkpt lat="33.79302765887903" lon="8.959320910893204"><ele>44.0</ele><time>2026-04-07T09:02:26Z</time></trkpt><trkpt lat="33.793158486837605" lon="8.959071386959803"><ele>45.5</ele><time>2026-04-07T09:02:27Z</time></trkpt><trkpt lat="33.79328957281063" lon="8.958825158738179"><ele>47.0</ele><time>2026-04-07T09:02:28Z</time></trkpt><trkpt lat="33.79341247115869" lon="8.958580478447391"><ele>46.0</ele><time>2026-04-07T09:02:29Z</time></trkpt><trkpt lat="33.79354261621455" lon="8.958337798340647"><ele>45.0</ele><time>2026-04-07T09:02:30Z</time></trkpt><trkpt lat="33.7936637659211" lon="8.958100908488886"><ele>45.0</ele><time>2026-04-07T09:02:31Z</time></trkpt><trkpt lat="33.7937882498784" lon="8.957866076129768"><ele>45.0</ele><time>2026-04-07T09:02:32Z</time></trkpt><trkpt lat="33.79390697034863" lon="8.957629881334928"><ele>43.5</ele><time>2026-04-07T09:02:33Z</time></trkpt><trkpt lat="33.79403027756073" lon="8.957396007200133"><ele>42.0</ele><time>2026-04-07T09:02:34Z</time></trkpt><trkpt lat="33.79414920564619" lon="8.95715926481852"><ele>42.0</ele><time>2026-04-07T09:02:35Z</time></trkpt><trkpt lat="33.79426633844988" lon="8.956925993115451"><ele>42.0</ele><time>2026-04-07T09:02:36Z</time></trkpt><trkpt lat="33.79438607042588" lon="8.956690879442592"><ele>43.0</ele><time>2026-04-07T09:02:37Z</time></trkpt><trkpt lat="33.79450634958282" lon="8.956454912291154"><ele>44.0</ele><time>2026-04-07T09:02:38Z</time></trkpt><trkpt lat="33.79463166364118" lon="8.956220645965034"><ele>44.0</ele><time>2026-04-07T09:02:39Z</time></trkpt><trkpt lat="33.79475043481325" lon="8.955979808839489"><ele>44.0</ele><time>2026-04-07T09:02:40Z</time></trkpt><trkpt lat="33.7948772126443" lon="8.955741051370275"><ele>43.5</ele><time>2026-04-07T09:02:41Z</time></trkpt><trkpt lat="33.795002216190035" lon="8.955490791610972"><ele>43.0</ele><time>2026-04-07T09:02:42Z</time></trkpt><trkpt lat="33.79513330509246" lon="8.955250362741804"><ele>42.0</ele><time>2026-04-07T09:02:43Z</time></trkpt><trkpt lat="33.79526200962975" lon="8.955003295971366"><ele>41.0</ele><time>2026-04-07T09:02:44Z</time></trkpt><trkpt lat="33.79538666657033" lon="8.954749826208527"><ele>41.0</ele><time>2026-04-07T09:02:45Z</time></trkpt><trkpt lat="33.79551613751811" lon="8.954498007126423"><ele>41.0</ele><time>2026-04-07T09:02:46Z</time></trkpt><trkpt lat="33.79564879682136" lon="8.954250423965421"><ele>41.5</ele><time>2026-04-07T09:02:47Z</time></trkpt><trkpt lat="33.7957796476188" lon="8.954002399610184"><ele>42.0</ele><time>2026-04-07T09:02:48Z</time></trkpt><trkpt lat="33.79591185233093" lon="8.953755481318192"><ele>40.5</ele><time>2026-04-07T09:02:49Z</time></trkpt><trkpt lat="33.796041312733706" lon="8.953505666608436"><ele>39.0</ele><time>2026-04-07T09:02:50Z</time></trkpt><trkpt lat="33.796168284569845" lon="8.95324756947777"><ele>39.0</ele><time>2026-04-07T09:02:51Z</time></trkpt><trkpt lat="33.79630143398052" lon="8.95299620766776"><ele>39.0</ele><time>2026-04-07T09:02:52Z</time></trkpt><trkpt lat="33.79644484664964" lon="8.952754977280396"><ele>39.0</ele><time>2026-04-07T09:02:53Z</time></trkpt><trkpt lat="33.796593113305455" lon="8.952523076797945"><ele>39.0</ele><time>2026-04-07T09:02:54Z</time></trkpt><trkpt lat="33.79674962919865" lon="8.952297068340581"><ele>37.5</ele><time>2026-04-07T09:02:55Z</time></trkpt><trkpt lat="33.796907176537786" lon="8.952074536502472"><ele>36.0</ele><time>2026-04-07T09:02:56Z</time></trkpt><trkpt lat="33.7970620027158" lon="8.951845512530289"><ele>38.0</ele><time>2026-04-07T09:02:57Z</time></trkpt><trkpt lat="33.79721779497678" lon="8.951613580711246"><ele>40.0</ele><time>2026-04-07T09:02:58Z</time></trkpt><trkpt lat="33.7973746829077" lon="8.951383480146745"><ele>40.0</ele><time>2026-04-07T09:02:59Z</time></trkpt><trkpt lat="33.797537304221294" lon="8.951167768601648"><ele>40.0</ele><time>2026-04-07T09:03:00Z</time></trkpt><trkpt lat="33.797696310250274" lon="8.950941926026724"><ele>38.5</ele><time>2026-04-07T09:03:01Z</time></trkpt><trkpt lat="33.797850298830845" lon="8.950707228140615"><ele>37.0</ele><time>2026-04-07T09:03:02Z</time></trkpt><trkpt lat="33.79800060324996" lon="8.950477474821676"><ele>37.0</ele><time>2026-04-07T09:03:03Z</time></trkpt><trkpt lat="33.79815463121851" lon="8.950250439707139"><ele>37.0</ele><time>2026-04-07T09:03:04Z</time></trkpt><trkpt lat="33.79831655106387" lon="8.950032743685943"><ele>37.5</ele><time>2026-04-07T09:03:05Z</time></trkpt><trkpt lat="33.79847391315024" lon="8.949808603451313"><ele>38.0</ele><time>2026-04-07T09:03:06Z</time></trkpt><trkpt lat="33.79862993612388" lon="8.949586450886711"><ele>37.0</ele><time>2026-04-07T09:03:07Z</time></trkpt><trkpt lat="33.79878819224378" lon="8.94936456240693"><ele>36.0</ele><time>2026-04-07T09:03:08Z</time></trkpt><trkpt lat="33.798940765381104" lon="8.949147305443564"><ele>36.0</ele><time>2026-04-07T09:03:09Z</time></trkpt><trkpt lat="33.7990925656403" lon="8.948926546386335"><ele>36.0</ele><time>2026-04-07T09:03:10Z</time></trkpt><trkpt lat="33.79923851809557" lon="8.948708505272556"><ele>36.0</ele><time>2026-04-07T09:03:11Z</time></trkpt><trkpt lat="33.799378171130684" lon="8.948492200194877"><ele>36.0</ele><time>2026-04-07T09:03:12Z</time></trkpt><trkpt lat="33.799514947920535" lon="8.948280807643165"><ele>36.0</ele><time>2026-04-07T09:03:13Z</time></trkpt><trkpt lat="33.79963994958367" lon="8.94807185996816"><ele>36.0</ele><time>2026-04-07T09:03:14Z</time></trkpt><trkpt lat="33.79974057165588" lon="8.947864941289321"><ele>36.0</ele><time>2026-04-07T09:03:15Z</time></trkpt><trkpt lat="33.79980948485364" lon="8.947675884801304"><ele>36.0</ele><time>2026-04-07T09:03:16Z</time></trkpt><trkpt lat="33.799855840951984" lon="8.947491122896809"><ele>36.0</ele><time>2026-04-07T09:03:17Z</time></trkpt><trkpt lat="33.79989201158958" lon="8.947295735433253"><ele>36.0</ele><time>2026-04-07T09:03:18Z</time></trkpt><trkpt lat="33.79991215614022" lon="8.94707980119835"><ele>36.0</ele><time>2026-04-07T09:03:19Z</time></trkpt><trkpt lat="33.799927702021776" lon="8.946852345141894"><ele>36.0</ele><time>2026-04-07T09:03:20Z</time></trkpt><trkpt lat="33.7999301599632" lon="8.946615976657245"><ele>36.0</ele><time>2026-04-07T09:03:21Z</time></trkpt><trkpt lat="33.79993072586382" lon="8.946372849042353"><ele>36.666666666666664</ele><time>2026-04-07T09:03:22Z</time></trkpt><trkpt lat="33.79992905707137" lon="8.946132523885888"><ele>37.33333333333333</ele><time>2026-04-07T09:03:23Z</time></trkpt><trkpt lat="33.799928303473685" lon="8.945897889801385"><ele>38.0</ele><time>2026-04-07T09:03:24Z</time></trkpt><trkpt lat="33.799928580831086" lon="8.945666651117383"><ele>38.0</ele><time>2026-04-07T09:03:25Z</time></trkpt><trkpt lat="33.799924953765554" lon="8.945427563748499"><ele>38.0</ele><time>2026-04-07T09:03:26Z</time></trkpt><trkpt lat="33.79992867624915" lon="8.94518253788845"><ele>38.0</ele><time>2026-04-07T09:03:27Z</time></trkpt><trkpt lat="33.79993225572955" lon="8.944933005382985"><ele>38.0</ele><time>2026-04-07T09:03:28Z</time></trkpt><trkpt lat="33.79993683476322" lon="8.944677310853294"><ele>38.0</ele><time>2026-04-07T09:03:29Z</time></trkpt><trkpt lat="33.799937872053746" lon="8.944412748243002"><ele>38.0</ele><time>2026-04-07T09:03:30Z</time></trkpt><trkpt lat="33.7999373406197" lon="8.944155437719008"><ele>38.0</ele><time>2026-04-07T09:03:31Z</time></trkpt><trkpt lat="33.799937084113715" lon="8.943890663893006"><ele>38.0</ele><time>2026-04-07T09:03:32Z</time></trkpt><trkpt lat="33.7999390473" lon="8.943629095223162"><ele>38.0</ele><time>2026-04-07T09:03:33Z</time></trkpt><trkpt lat="33.79994025452345" lon="8.943363236374593"><ele>38.0</ele><time>2026-04-07T09:03:34Z</time></trkpt><trkpt lat="33.79994165498815" lon="8.943096350370043"><ele>38.0</ele><time>2026-04-07T09:03:35Z</time></trkpt><trkpt lat="33.79994431336775" lon="8.942828254227114"><ele>38.0</ele><time>2026-04-07T09:03:36Z</time></trkpt><trkpt lat="33.79994453603201" lon="8.942559463494412"><ele>38.0</ele><time>2026-04-07T09:03:37Z</time></trkpt><trkpt lat="33.799944308199564" lon="8.94228629239832"><ele>38.0</ele><time>2026-04-07T09:03:38Z</time></trkpt><trkpt lat="33.79994357801969" lon="8.942012860310872"><ele>38.0</ele><time>2026-04-07T09:03:39Z</time></trkpt><trkpt lat="33.79994337514067" lon="8.941736780652057"><ele>38.0</ele><time>2026-04-07T09:03:40Z</time></trkpt><trkpt lat="33.79994911207129" lon="8.941467114923185"><ele>38.0</ele><time>2026-04-07T09:03:41Z</time></trkpt><trkpt lat="33.79995262556227" lon="8.941195117285119"><ele>38.0</ele><time>2026-04-07T09:03:42Z</time></trkpt><trkpt lat="33.7999570135731" lon="8.940921479058304"><ele>37.0</ele><time>2026-04-07T09:03:43Z</time></trkpt><trkpt lat="33.79995701680956" lon="8.940647374312125"><ele>36.0</ele><time>2026-04-07T09:03:44Z</time></trkpt><trkpt lat="33.79996082728031" lon="8.9403769410128"><ele>36.0</ele><time>2026-04-07T09:03:45Z</time></trkpt><trkpt lat="33.79996603946555" lon="8.940108204284078"><ele>36.0</ele><time>2026-04-07T09:03:46Z</time></trkpt><trkpt lat="33.799975355974205" lon="8.939834807029245"><ele>36.0</ele><time>2026-04-07T09:03:47Z</time></trkpt><trkpt lat="33.79999247736399" lon="8.939565045361155"><ele>36.0</ele><time>2026-04-07T09:03:48Z</time></trkpt><trkpt lat="33.8000114801626" lon="8.939292666107072"><ele>36.5</ele><time>2026-04-07T09:03:49Z</time></trkpt><trkpt lat="33.80003050063335" lon="8.93901909450005"><ele>37.0</ele><time>2026-04-07T09:03:50Z</time></trkpt><trkpt lat="33.80004780185693" lon="8.938740372464915"><ele>37.0</ele><time>2026-04-07T09:03:51Z</time></trkpt><trkpt lat="33.80006789084713" lon="8.938459901747693"><ele>37.0</ele><time>2026-04-07T09:03:52Z</time></trkpt><trkpt lat="33.800088583418855" lon="8.938178548502878"><ele>38.5</ele><time>2026-04-07T09:03:53Z</time></trkpt><trkpt lat="33.80011084735569" lon="8.93790055246754"><ele>40.0</ele><time>2026-04-07T09:03:54Z</time></trkpt><trkpt lat="33.80013273366081" lon="8.937621330035967"><ele>40.0</ele><time>2026-04-07T09:03:55Z</time></trkpt><trkpt lat="33.80015112341712" lon="8.937342160644267"><ele>40.0</ele><time>2026-04-07T09:03:56Z</time></trkpt><trkpt lat="33.80017620508135" lon="8.937066007528388"><ele>39.0</ele><time>2026-04-07T09:03:57Z</time></trkpt><trkpt lat="33.80019843560595" lon="8.936785915850297"><ele>38.0</ele><time>2026-04-07T09:03:58Z</time></trkpt><trkpt lat="33.80021056663081" lon="8.93650183847896"><ele>36.5</ele><time>2026-04-07T09:03:59Z</time></trkpt><trkpt lat="33.800223214419155" lon="8.9362197917131"><ele>35.0</ele><time>2026-04-07T09:04:00Z</time></trkpt><trkpt lat="33.80023381552668" lon="8.935940626576826"><ele>37.0</ele><time>2026-04-07T09:04:01Z</time></trkpt><trkpt lat="33.80023718034736" lon="8.935653479989499"><ele>39.0</ele><time>2026-04-07T09:04:02Z</time></trkpt><trkpt lat="33.80024480251172" lon="8.93537037563187"><ele>39.0</ele><time>2026-04-07T09:04:03Z</time></trkpt><trkpt lat="33.80024523992778" lon="8.935087108068714"><ele>39.0</ele><time>2026-04-07T09:04:04Z</time></trkpt><trkpt lat="33.800248672149955" lon="8.934798515270924"><ele>38.5</ele><time>2026-04-07T09:04:05Z</time></trkpt><trkpt lat="33.80025457303462" lon="8.934509680862828"><ele>38.0</ele><time>2026-04-07T09:04:06Z</time></trkpt><trkpt lat="33.80026157376826" lon="8.934219178258182"><ele>37.5</ele><time>2026-04-07T09:04:07Z</time></trkpt><trkpt lat="33.80027010648324" lon="8.93392356577395"><ele>37.0</ele><time>2026-04-07T09:04:08Z</time></trkpt><trkpt lat="33.80027650258295" lon="8.933623797158262"><ele>37.5</ele><time>2026-04-07T09:04:09Z</time></trkpt><trkpt lat="33.80028471757143" lon="8.933331544442895"><ele>38.0</ele><time>2026-04-07T09:04:10Z</time></trkpt><trkpt lat="33.800288362747224" lon="8.933042248462176"><ele>38.0</ele><time>2026-04-07T09:04:11Z</time></trkpt><trkpt lat="33.80029585004754" lon="8.932753919699797"><ele>38.0</ele><time>2026-04-07T09:04:12Z</time></trkpt><trkpt lat="33.800301322722596" lon="8.93247179030587"><ele>39.0</ele><time>2026-04-07T09:04:13Z</time></trkpt><trkpt lat="33.80030742063312" lon="8.932189287498998"><ele>40.0</ele><time>2026-04-07T09:04:13.999Z</time></trkpt><trkpt lat="33.80031022335571" lon="8.931903239782669"><ele>38.5</ele><time>2026-04-07T09:04:14.999Z</time></trkpt><trkpt lat="33.800316324758015" lon="8.931626153239472"><ele>37.0</ele><time>2026-04-07T09:04:15.999Z</time></trkpt><trkpt lat="33.80030811685773" lon="8.931344048671091"><ele>37.0</ele><time>2026-04-07T09:04:16.999Z</time></trkpt><trkpt lat="33.800298598997216" lon="8.931060896388848"><ele>37.0</ele><time>2026-04-07T09:04:17.999Z</time></trkpt><trkpt lat="33.800296153655296" lon="8.930772928916364"><ele>38.5</ele><time>2026-04-07T09:04:18.999Z</time></trkpt><trkpt lat="33.80029461225917" lon="8.93047853958266"><ele>40.0</ele><time>2026-04-07T09:04:19.999Z</time></trkpt><trkpt lat="33.800300442507876" lon="8.930181209956139"><ele>40.0</ele><time>2026-04-07T09:04:20.999Z</time></trkpt><trkpt lat="33.80029766438622" lon="8.929884751825378"><ele>40.0</ele><time>2026-04-07T09:04:21.999Z</time></trkpt><trkpt lat="33.80029174416283" lon="8.929585850980047"><ele>40.0</ele><time>2026-04-07T09:04:22.999Z</time></trkpt><trkpt lat="33.800288805553954" lon="8.929290096116285"><ele>40.0</ele><time>2026-04-07T09:04:23.999Z</time></trkpt><trkpt lat="33.80028857047107" lon="8.928996827281281"><ele>40.0</ele><time>2026-04-07T09:04:24.999Z</time></trkpt><trkpt lat="33.80028526763294" lon="8.928710073466322"><ele>40.0</ele><time>2026-04-07T09:04:25.999Z</time></trkpt><trkpt lat="33.800286701480935" lon="8.928418292284599"><ele>40.0</ele><time>2026-04-07T09:04:26.999Z</time></trkpt><trkpt lat="33.80028567712959" lon="8.928125365541263"><ele>40.0</ele><time>2026-04-07T09:04:27.999Z</time></trkpt><trkpt lat="33.80027973535933" lon="8.927848585325048"><ele>40.0</ele><time>2026-04-07T09:04:28.999Z</time></trkpt><trkpt lat="33.80027472224825" lon="8.927581045126685"><ele>40.0</ele><time>2026-04-07T09:04:29.999Z</time></trkpt><trkpt lat="33.80027799735622" lon="8.927297014179448"><ele>39.5</ele><time>2026-04-07T09:04:30.999Z</time></trkpt><trkpt lat="33.800277884542425" lon="8.927007823482331"><ele>39.0</ele><time>2026-04-07T09:04:31.999Z</time></trkpt><trkpt lat="33.80027896626667" lon="8.926719239163566"><ele>39.0</ele><time>2026-04-07T09:04:32.999Z</time></trkpt><trkpt lat="33.80027693656702" lon="8.92643021574468"><ele>39.0</ele><time>2026-04-07T09:04:33.999Z</time></trkpt><trkpt lat="33.80027691931884" lon="8.926141625439785"><ele>39.0</ele><time>2026-04-07T09:04:34.999Z</time></trkpt><trkpt lat="33.80027981920992" lon="8.925851093962418"><ele>39.0</ele><time>2026-04-07T09:04:35.999Z</time></trkpt><trkpt lat="33.800284541981384" lon="8.925565916248852"><ele>39.0</ele><time>2026-04-07T09:04:36.999Z</time></trkpt><trkpt lat="33.80028809926544" lon="8.92527340033164"><ele>39.0</ele><time>2026-04-07T09:04:37.999Z</time></trkpt><trkpt lat="33.800291704046096" lon="8.924983814826414"><ele>39.5</ele><time>2026-04-07T09:04:38.999Z</time></trkpt><trkpt lat="33.80029509373667" lon="8.924694529220483"><ele>40.0</ele><time>2026-04-07T09:04:39.999Z</time></trkpt><trkpt lat="33.800291253803394" lon="8.92440379003568"><ele>39.5</ele><time>2026-04-07T09:04:40.999Z</time></trkpt><trkpt lat="33.80028470917669" lon="8.924110363269635"><ele>39.0</ele><time>2026-04-07T09:04:41.999Z</time></trkpt><trkpt lat="33.80027924603207" lon="8.923813523028958"><ele>39.0</ele><time>2026-04-07T09:04:42.999Z</time></trkpt><trkpt lat="33.80027924966146" lon="8.923514929721721"><ele>39.0</ele><time>2026-04-07T09:04:43.999Z</time></trkpt><trkpt lat="33.80027459511797" lon="8.923216582564441"><ele>39.5</ele><time>2026-04-07T09:04:44.999Z</time></trkpt><trkpt lat="33.80026724184679" lon="8.922906200967443"><ele>40.0</ele><time>2026-04-07T09:04:45.999Z</time></trkpt><trkpt lat="33.80025787088343" lon="8.92259636490292"><ele>40.5</ele><time>2026-04-07T09:04:46.999Z</time></trkpt><trkpt lat="33.800242344744305" lon="8.922285149054725"><ele>41.0</ele><time>2026-04-07T09:04:47.999Z</time></trkpt><trkpt lat="33.80021977630514" lon="8.921973988441284"><ele>41.0</ele><time>2026-04-07T09:04:49Z</time></trkpt><trkpt lat="33.800194560823286" lon="8.921660151468947"><ele>41.0</ele><time>2026-04-07T09:04:50Z</time></trkpt><trkpt lat="33.800168603429874" lon="8.921349108514226"><ele>41.5</ele><time>2026-04-07T09:04:51Z</time></trkpt><trkpt lat="33.80014232091303" lon="8.921034998745716"><ele>42.0</ele><time>2026-04-07T09:04:52Z</time></trkpt><trkpt lat="33.80010856964633" lon="8.920721702029377"><ele>42.0</ele><time>2026-04-07T09:04:53Z</time></trkpt><trkpt lat="33.80007897881022" lon="8.920407949697546"><ele>42.0</ele><time>2026-04-07T09:04:54Z</time></trkpt><trkpt lat="33.80004854034631" lon="8.920092980109654"><ele>42.0</ele><time>2026-04-07T09:04:55Z</time></trkpt><trkpt lat="33.800022506470995" lon="8.919779563827172"><ele>42.0</ele><time>2026-04-07T09:04:56Z</time></trkpt><trkpt lat="33.80000003321268" lon="8.919469131278756"><ele>40.5</ele><time>2026-04-07T09:04:57Z</time></trkpt><trkpt lat="33.799970405609734" lon="8.919151521094987"><ele>39.0</ele><time>2026-04-07T09:04:58Z</time></trkpt><trkpt lat="33.79994158035388" lon="8.918835910589296"><ele>39.0</ele><time>2026-04-07T09:04:59Z</time></trkpt><trkpt lat="33.79991860216549" lon="8.918522478040364"><ele>39.0</ele><time>2026-04-07T09:05:00Z</time></trkpt><trkpt lat="33.799890298558324" lon="8.918209317862777"><ele>39.5</ele><time>2026-04-07T09:05:01Z</time></trkpt><trkpt lat="33.799859938410094" lon="8.91789084238024"><ele>40.0</ele><time>2026-04-07T09:05:02Z</time></trkpt><trkpt lat="33.79983486595189" lon="8.917571253575247"><ele>40.5</ele><time>2026-04-07T09:05:03Z</time></trkpt><trkpt lat="33.79980969577988" lon="8.917246542312427"><ele>41.0</ele><time>2026-04-07T09:05:04Z</time></trkpt><trkpt lat="33.79978079120936" lon="8.916920498456275"><ele>41.5</ele><time>2026-04-07T09:05:05Z</time></trkpt><trkpt lat="33.79975764252593" lon="8.916596314231892"><ele>42.0</ele><time>2026-04-07T09:05:06Z</time></trkpt><trkpt lat="33.79973764249177" lon="8.916271243574863"><ele>42.0</ele><time>2026-04-07T09:05:07Z</time></trkpt><trkpt lat="33.79970800880422" lon="8.915945500020449"><ele>42.0</ele><time>2026-04-07T09:05:08Z</time></trkpt><trkpt lat="33.799675740327366" lon="8.915622554544955"><ele>42.0</ele><time>2026-04-07T09:05:09Z</time></trkpt><trkpt lat="33.79965558429498" lon="8.91531036982276"><ele>42.0</ele><time>2026-04-07T09:05:10Z</time></trkpt><trkpt lat="33.799631442210206" lon="8.914993316476604"><ele>41.5</ele><time>2026-04-07T09:05:11Z</time></trkpt><trkpt lat="33.799605167857706" lon="8.91467118247586"><ele>41.0</ele><time>2026-04-07T09:05:12Z</time></trkpt><trkpt lat="33.799576005313114" lon="8.914350720773179"><ele>40.5</ele><time>2026-04-07T09:05:13Z</time></trkpt><trkpt lat="33.7995446455223" lon="8.914033259974303"><ele>40.0</ele><time>2026-04-07T09:05:14Z</time></trkpt><trkpt lat="33.79951333229885" lon="8.913711404091291"><ele>39.0</ele><time>2026-04-07T09:05:15Z</time></trkpt><trkpt lat="33.799481238123974" lon="8.913394044897657"><ele>38.0</ele><time>2026-04-07T09:05:16Z</time></trkpt><trkpt lat="33.799445544517106" lon="8.913074495211342"><ele>38.0</ele><time>2026-04-07T09:05:17Z</time></trkpt><trkpt lat="33.79940352565326" lon="8.91275395898168"><ele>38.0</ele><time>2026-04-07T09:05:18Z</time></trkpt><trkpt lat="33.79935435046804" lon="8.912436382980706"><ele>39.0</ele><time>2026-04-07T09:05:19Z</time></trkpt><trkpt lat="33.79929801807012" lon="8.912116972946018"><ele>40.0</ele><time>2026-04-07T09:05:20Z</time></trkpt><trkpt lat="33.79923750863379" lon="8.911799364882105"><ele>40.0</ele><time>2026-04-07T09:05:21Z</time></trkpt><trkpt lat="33.79917788760145" lon="8.911484244218776"><ele>40.0</ele><time>2026-04-07T09:05:22Z</time></trkpt><trkpt lat="33.79911356027263" lon="8.911168035933619"><ele>40.5</ele><time>2026-04-07T09:05:23Z</time></trkpt><trkpt lat="33.79905112034562" lon="8.91084786424278"><ele>41.0</ele><time>2026-04-07T09:05:24Z</time></trkpt><trkpt lat="33.79899544103561" lon="8.910522015750288"><ele>41.0</ele><time>2026-04-07T09:05:25Z</time></trkpt><trkpt lat="33.798939527097005" lon="8.91019053104581"><ele>41.0</ele><time>2026-04-07T09:05:26Z</time></trkpt><trkpt lat="33.79887877933341" lon="8.909855643518796"><ele>41.0</ele><time>2026-04-07T09:05:27Z</time></trkpt><trkpt lat="33.798817880200986" lon="8.909523236065994"><ele>41.0</ele><time>2026-04-07T09:05:28Z</time></trkpt><trkpt lat="33.7987563432995" lon="8.909199180071091"><ele>41.5</ele><time>2026-04-07T09:05:29Z</time></trkpt><trkpt lat="33.798696747565565" lon="8.908871985068254"><ele>42.0</ele><time>2026-04-07T09:05:30Z</time></trkpt><trkpt lat="33.798643716091306" lon="8.908542394854795"><ele>41.5</ele><time>2026-04-07T09:05:31Z</time></trkpt><trkpt lat="33.798588526537635" lon="8.90822350431365"><ele>41.0</ele><time>2026-04-07T09:05:32Z</time></trkpt><trkpt lat="33.79853152669922" lon="8.90790719874683"><ele>41.5</ele><time>2026-04-07T09:05:33Z</time></trkpt><trkpt lat="33.79846986390939" lon="8.90758516275179"><ele>42.0</ele><time>2026-04-07T09:05:34Z</time></trkpt><trkpt lat="33.79840932800518" lon="8.907257078803026"><ele>42.0</ele><time>2026-04-07T09:05:35Z</time></trkpt><trkpt lat="33.79834995613229" lon="8.90692176980872"><ele>42.0</ele><time>2026-04-07T09:05:36Z</time></trkpt><trkpt lat="33.79829087881747" lon="8.906586661927646"><ele>42.0</ele><time>2026-04-07T09:05:37Z</time></trkpt><trkpt lat="33.79823190145169" lon="8.906255766995478"><ele>42.0</ele><time>2026-04-07T09:05:38Z</time></trkpt><trkpt lat="33.79817517696738" lon="8.905939718210039"><ele>41.5</ele><time>2026-04-07T09:05:39Z</time></trkpt><trkpt lat="33.79812342226812" lon="8.905632524489631"><ele>41.0</ele><time>2026-04-07T09:05:40Z</time></trkpt><trkpt lat="33.79807165622843" lon="8.905334260491827"><ele>41.0</ele><time>2026-04-07T09:05:41Z</time></trkpt><trkpt lat="33.798018826087784" lon="8.905044145230887"><ele>41.0</ele><time>2026-04-07T09:05:42Z</time></trkpt><trkpt lat="33.79796556789051" lon="8.90475626739507"><ele>41.0</ele><time>2026-04-07T09:05:43Z</time></trkpt><trkpt lat="33.79791160410313" lon="8.904469001052776"><ele>41.0</ele><time>2026-04-07T09:05:44Z</time></trkpt><trkpt lat="33.79785635064216" lon="8.904173750601302"><ele>41.5</ele><time>2026-04-07T09:05:45Z</time></trkpt><trkpt lat="33.79779247556675" lon="8.90388270814626"><ele>42.0</ele><time>2026-04-07T09:05:46Z</time></trkpt><trkpt lat="33.797721629924766" lon="8.903585964890752"><ele>43.5</ele><time>2026-04-07T09:05:47Z</time></trkpt><trkpt lat="33.7976515659912" lon="8.903294767177968"><ele>45.0</ele><time>2026-04-07T09:05:48Z</time></trkpt><trkpt lat="33.79757979071766" lon="8.903000173507854"><ele>45.0</ele><time>2026-04-07T09:05:49Z</time></trkpt><trkpt lat="33.7975052296223" lon="8.90270961889938"><ele>45.0</ele><time>2026-04-07T09:05:50Z</time></trkpt><trkpt lat="33.79742650742248" lon="8.902418108330526"><ele>46.0</ele><time>2026-04-07T09:05:51Z</time></trkpt><trkpt lat="33.79735147735914" lon="8.9021371530924"><ele>47.0</ele><time>2026-04-07T09:05:52Z</time></trkpt><trkpt lat="33.7972755409445" lon="8.901872206768177"><ele>46.33333333333333</ele><time>2026-04-07T09:05:53Z</time></trkpt><trkpt lat="33.79720305683087" lon="8.901615263367937"><ele>45.666666666666664</ele><time>2026-04-07T09:05:54Z</time></trkpt><trkpt lat="33.79713508330086" lon="8.901362635382839"><ele>45.0</ele><time>2026-04-07T09:05:55Z</time></trkpt><trkpt lat="33.79706773896057" lon="8.90110622343887"><ele>44.666666666666664</ele><time>2026-04-07T09:05:56Z</time></trkpt><trkpt lat="33.79700055922905" lon="8.900849532421098"><ele>44.33333333333333</ele><time>2026-04-07T09:05:57Z</time></trkpt><trkpt lat="33.79693415782733" lon="8.900591030665472"><ele>44.0</ele><time>2026-04-07T09:05:58Z</time></trkpt><trkpt lat="33.79686610809807" lon="8.900331258502877"><ele>45.33333333333333</ele><time>2026-04-07T09:05:59Z</time></trkpt><trkpt lat="33.796794493551104" lon="8.900077578800303"><ele>46.666666666666664</ele><time>2026-04-07T09:06:00Z</time></trkpt><trkpt lat="33.796725082572486" lon="8.89981910430606"><ele>48.0</ele><time>2026-04-07T09:06:01Z</time></trkpt><trkpt lat="33.79665369511605" lon="8.89955964479462"><ele>48.0</ele><time>2026-04-07T09:06:02Z</time></trkpt><trkpt lat="33.7965824857209" lon="8.899300068057576"><ele>48.0</ele><time>2026-04-07T09:06:03Z</time></trkpt><trkpt lat="33.79651292159144" lon="8.899040889915206"><ele>47.5</ele><time>2026-04-07T09:06:04Z</time></trkpt><trkpt lat="33.79644047784118" lon="8.898775816124466"><ele>47.0</ele><time>2026-04-07T09:06:05Z</time></trkpt><trkpt lat="33.79636613632969" lon="8.898510016302321"><ele>47.0</ele><time>2026-04-07T09:06:06Z</time></trkpt><trkpt lat="33.79629423973132" lon="8.898234019284173"><ele>47.0</ele><time>2026-04-07T09:06:07Z</time></trkpt><trkpt lat="33.79622171729888" lon="8.897961195257196"><ele>47.0</ele><time>2026-04-07T09:06:08Z</time></trkpt><trkpt lat="33.796149322297055" lon="8.897679711313543"><ele>47.0</ele><time>2026-04-07T09:06:09Z</time></trkpt><trkpt lat="33.796083428960124" lon="8.897406003622416"><ele>47.33333333333333</ele><time>2026-04-07T09:06:10Z</time></trkpt><trkpt lat="33.79601870623867" lon="8.89715100493269"><ele>47.666666666666664</ele><time>2026-04-07T09:06:11Z</time></trkpt><trkpt lat="33.795949017575246" lon="8.896909007257555"><ele>48.0</ele><time>2026-04-07T09:06:12Z</time></trkpt><trkpt lat="33.79587923271182" lon="8.896694883259599"><ele>48.0</ele><time>2026-04-07T09:06:13Z</time></trkpt><trkpt lat="33.7958020110873" lon="8.896498846664967"><ele>48.0</ele><time>2026-04-07T09:06:14Z</time></trkpt><trkpt lat="33.79570454641934" lon="8.896312125494044"><ele>48.0</ele><time>2026-04-07T09:06:15Z</time></trkpt><trkpt lat="33.79557594768112" lon="8.896135428211199"><ele>48.0</ele><time>2026-04-07T09:06:16Z</time></trkpt><trkpt lat="33.79541990488758" lon="8.895969059609884"><ele>48.0</ele><time>2026-04-07T09:06:17Z</time></trkpt><trkpt lat="33.795247214144645" lon="8.895801049402193"><ele>48.0</ele><time>2026-04-07T09:06:18Z</time></trkpt><trkpt lat="33.795068778241706" lon="8.895633439954027"><ele>48.0</ele><time>2026-04-07T09:06:19Z</time></trkpt><trkpt lat="33.79489025584718" lon="8.895470201733295"><ele>48.0</ele><time>2026-04-07T09:06:20Z</time></trkpt><trkpt lat="33.79470763988436" lon="8.89530507271742"><ele>48.0</ele><time>2026-04-07T09:06:21Z</time></trkpt><trkpt lat="33.794523915509544" lon="8.89513652954159"><ele>48.0</ele><time>2026-04-07T09:06:22Z</time></trkpt><trkpt lat="33.79433941638743" lon="8.894967231366921"><ele>47.0</ele><time>2026-04-07T09:06:23Z</time></trkpt><trkpt lat="33.79415680918931" lon="8.89479878270151"><ele>46.0</ele><time>2026-04-07T09:06:24Z</time></trkpt><trkpt lat="33.79397627371939" lon="8.894631215268554"><ele>46.0</ele><time>2026-04-07T09:06:25Z</time></trkpt><trkpt lat="33.793800616503766" lon="8.894467847858158"><ele>46.0</ele><time>2026-04-07T09:06:26Z</time></trkpt><trkpt lat="33.79362950940059" lon="8.894313122503398"><ele>46.0</ele><time>2026-04-07T09:06:27Z</time></trkpt><trkpt lat="33.793453512414715" lon="8.894155915282665"><ele>46.66666666666667</ele><time>2026-04-07T09:06:28Z</time></trkpt><trkpt lat="33.79327933480929" lon="8.894000160368451"><ele>47.333333333333336</ele><time>2026-04-07T09:06:29Z</time></trkpt><trkpt lat="33.793109212540514" lon="8.893832606193014"><ele>48.0</ele><time>2026-04-07T09:06:30Z</time></trkpt><trkpt lat="33.792949638103835" lon="8.893654071590763"><ele>48.0</ele><time>2026-04-07T09:06:31Z</time></trkpt><trkpt lat="33.79279805890338" lon="8.893467297547852"><ele>48.0</ele><time>2026-04-07T09:06:32Z</time></trkpt><trkpt lat="33.792658996301675" lon="8.893287794095237"><ele>48.0</ele><time>2026-04-07T09:06:33Z</time></trkpt><trkpt lat="33.79252963231683" lon="8.893106250924683"><ele>48.66666666666667</ele><time>2026-04-07T09:06:34Z</time></trkpt><trkpt lat="33.792398630371075" lon="8.892915365229152"><ele>49.333333333333336</ele><time>2026-04-07T09:06:35Z</time></trkpt><trkpt lat="33.79227218994136" lon="8.892734389199797"><ele>50.0</ele><time>2026-04-07T09:06:36Z</time></trkpt><trkpt lat="33.792155557130265" lon="8.892555654707827"><ele>50.66666666666667</ele><time>2026-04-07T09:06:37Z</time></trkpt><trkpt lat="33.79205339702991" lon="8.892383987015139"><ele>51.33333333333333</ele><time>2026-04-07T09:06:38Z</time></trkpt><trkpt lat="33.79194542800996" lon="8.892217309351404"><ele>52.0</ele><time>2026-04-07T09:06:39Z</time></trkpt><trkpt lat="33.79183405534449" lon="8.892068948398562"><ele>50.33333333333333</ele><time>2026-04-07T09:06:40Z</time></trkpt><trkpt lat="33.79172935219701" lon="8.891929379086164"><ele>48.666666666666664</ele><time>2026-04-07T09:06:41Z</time></trkpt><trkpt lat="33.79162901765988" lon="8.891791927095705"><ele>47.0</ele><time>2026-04-07T09:06:42Z</time></trkpt><trkpt lat="33.7915306678047" lon="8.8916531495511"><ele>47.0</ele><time>2026-04-07T09:06:43Z</time></trkpt><trkpt lat="33.791434340940306" lon="8.891518258551393"><ele>47.0</ele><time>2026-04-07T09:06:44Z</time></trkpt><trkpt lat="33.7913383132754" lon="8.891390765337247"><ele>47.0</ele><time>2026-04-07T09:06:45Z</time></trkpt><trkpt lat="33.79124926642386" lon="8.891269447459955"><ele>47.0</ele><time>2026-04-07T09:06:46Z</time></trkpt><trkpt lat="33.79116243878344" lon="8.89115222008323"><ele>47.0</ele><time>2026-04-07T09:06:47Z</time></trkpt><trkpt lat="33.79107783311034" lon="8.891034493355239"><ele>47.0</ele><time>2026-04-07T09:06:48Z</time></trkpt><trkpt lat="33.79099540724393" lon="8.890918437102155"><ele>47.0</ele><time>2026-04-07T09:06:49Z</time></trkpt><trkpt lat="33.79091950507013" lon="8.89080905992947"><ele>47.0</ele><time>2026-04-07T09:06:50Z</time></trkpt><trkpt lat="33.79084380246034" lon="8.89070435986936"><ele>46.400000000000006</ele><time>2026-04-07T09:06:51Z</time></trkpt><trkpt lat="33.79077166832274" lon="8.890602670021611"><ele>45.800000000000004</ele><time>2026-04-07T09:06:52Z</time></trkpt><trkpt lat="33.790699939588414" lon="8.890504133104152"><ele>45.2</ele><time>2026-04-07T09:06:53Z</time></trkpt><trkpt lat="33.79063342562413" lon="8.89041158777114"><ele>44.6</ele><time>2026-04-07T09:06:54Z</time></trkpt><trkpt lat="33.79056739634769" lon="8.890332038380539"><ele>44.0</ele><time>2026-04-07T09:06:55.001Z</time></trkpt><trkpt lat="33.79050423933204" lon="8.89025832716578"><ele>44.0</ele><time>2026-04-07T09:06:56.001Z</time></trkpt><trkpt lat="33.79044907988779" lon="8.890187364129249"><ele>44.0</ele><time>2026-04-07T09:06:57.001Z</time></trkpt><trkpt lat="33.79040274089287" lon="8.89012284055763"><ele>44.0</ele><time>2026-04-07T09:06:58.001Z</time></trkpt><trkpt lat="33.79035760874761" lon="8.890062729616169"><ele>44.0</ele><time>2026-04-07T09:06:59.001Z</time></trkpt><trkpt lat="33.79031353366724" lon="8.89000371030584"><ele>44.0</ele><time>2026-04-07T09:07:00.001Z</time></trkpt><trkpt lat="33.79023513409642" lon="8.889891298410433"><ele>44.0</ele><time>2026-04-07T09:07:02.001Z</time></trkpt><trkpt lat="33.79015143173789" lon="8.889783178572365"><ele>44.0</ele><time>2026-04-07T09:07:04.001Z</time></trkpt><trkpt lat="33.79011162724928" lon="8.889724238398056"><ele>44.0</ele><time>2026-04-07T09:07:05.001Z</time></trkpt><trkpt lat="33.79007058996317" lon="8.88966083570305"><ele>44.0</ele><time>2026-04-07T09:07:06.001Z</time></trkpt><trkpt lat="33.79002685828542" lon="8.889592583797834"><ele>44.0</ele><time>2026-04-07T09:07:07.001Z</time></trkpt><trkpt lat="33.78998590742413" lon="8.889516797784024"><ele>44.0</ele><time>2026-04-07T09:07:08.001Z</time></trkpt><trkpt lat="33.789951868511075" lon="8.889433050315741"><ele>44.0</ele><time>2026-04-07T09:07:09.001Z</time></trkpt><trkpt lat="33.78992432066717" lon="8.88933770667296"><ele>44.0</ele><time>2026-04-07T09:07:10.001Z</time></trkpt><trkpt lat="33.78990956005451" lon="8.889238523926204"><ele>43.6</ele><time>2026-04-07T09:07:11.001Z</time></trkpt><trkpt lat="33.78991446203796" lon="8.889134954936646"><ele>43.2</ele><time>2026-04-07T09:07:12.001Z</time></trkpt><trkpt lat="33.78993605369745" lon="8.889027574220382"><ele>42.800000000000004</ele><time>2026-04-07T09:07:13.001Z</time></trkpt><trkpt lat="33.78996974403344" lon="8.88893159503478"><ele>42.400000000000006</ele><time>2026-04-07T09:07:14.001Z</time></trkpt><trkpt lat="33.79000671745264" lon="8.888832603614851"><ele>42.0</ele><time>2026-04-07T09:07:15.001Z</time></trkpt><trkpt lat="33.7900452013914" lon="8.888723451353979"><ele>42.0</ele><time>2026-04-07T09:07:16.001Z</time></trkpt><trkpt lat="33.790083441256655" lon="8.888604365009408"><ele>42.0</ele><time>2026-04-07T09:07:17.001Z</time></trkpt><trkpt lat="33.790126149687985" lon="8.888464017819983"><ele>42.0</ele><time>2026-04-07T09:07:18.001Z</time></trkpt><trkpt lat="33.790173357550465" lon="8.888304681913993"><ele>42.0</ele><time>2026-04-07T09:07:19.001Z</time></trkpt><trkpt lat="33.79022644844684" lon="8.888131836918156"><ele>43.0</ele><time>2026-04-07T09:07:20.001Z</time></trkpt><trkpt lat="33.79028852017894" lon="8.88794949323155"><ele>44.0</ele><time>2026-04-07T09:07:21.001Z</time></trkpt><trkpt lat="33.79035425943984" lon="8.887756022969592"><ele>45.0</ele><time>2026-04-07T09:07:22.001Z</time></trkpt><trkpt lat="33.790422853908915" lon="8.8875431431779"><ele>45.0</ele><time>2026-04-07T09:07:23.001Z</time></trkpt><trkpt lat="33.790497334195194" lon="8.88731113773201"><ele>45.0</ele><time>2026-04-07T09:07:24Z</time></trkpt><trkpt lat="33.79057786990388" lon="8.887056383652398"><ele>45.0</ele><time>2026-04-07T09:07:25Z</time></trkpt><trkpt lat="33.79066352561309" lon="8.886786430371702"><ele>43.5</ele><time>2026-04-07T09:07:26Z</time></trkpt><trkpt lat="33.790750218690135" lon="8.886516150365711"><ele>42.0</ele><time>2026-04-07T09:07:27Z</time></trkpt><trkpt lat="33.790831973442124" lon="8.886269467102025"><ele>42.0</ele><time>2026-04-07T09:07:28Z</time></trkpt><trkpt lat="33.79090713927179" lon="8.88604217149848"><ele>42.0</ele><time>2026-04-07T09:07:29Z</time></trkpt><trkpt lat="33.79097795970618" lon="8.885823272909292"><ele>42.0</ele><time>2026-04-07T09:07:30Z</time></trkpt><trkpt lat="33.791050427360155" lon="8.885608162188387"><ele>41.666666666666664</ele><time>2026-04-07T09:07:31Z</time></trkpt><trkpt lat="33.79112478702243" lon="8.885387731164288"><ele>41.33333333333333</ele><time>2026-04-07T09:07:32Z</time></trkpt><trkpt lat="33.79119697352537" lon="8.885166560119636"><ele>41.0</ele><time>2026-04-07T09:07:33Z</time></trkpt><trkpt lat="33.79127082056162" lon="8.884940526894502"><ele>41.0</ele><time>2026-04-07T09:07:34Z</time></trkpt><trkpt lat="33.791350223334526" lon="8.884697280037017"><ele>41.0</ele><time>2026-04-07T09:07:35Z</time></trkpt><trkpt lat="33.791427687127005" lon="8.884460777446215"><ele>41.0</ele><time>2026-04-07T09:07:36Z</time></trkpt><trkpt lat="33.791506419340664" lon="8.884221811296696"><ele>41.33333333333333</ele><time>2026-04-07T09:07:37Z</time></trkpt><trkpt lat="33.791587045168285" lon="8.883978697674214"><ele>41.666666666666664</ele><time>2026-04-07T09:07:38Z</time></trkpt><trkpt lat="33.791662408045966" lon="8.88374054174066"><ele>42.0</ele><time>2026-04-07T09:07:39Z</time></trkpt><trkpt lat="33.79172909290412" lon="8.883523997740252"><ele>41.0</ele><time>2026-04-07T09:07:40Z</time></trkpt><trkpt lat="33.7917941139006" lon="8.883322859289207"><ele>40.0</ele><time>2026-04-07T09:07:41Z</time></trkpt><trkpt lat="33.79186175150307" lon="8.883122545507899"><ele>39.0</ele><time>2026-04-07T09:07:42Z</time></trkpt><trkpt lat="33.79192555798304" lon="8.88293044912189"><ele>39.0</ele><time>2026-04-07T09:07:43Z</time></trkpt><trkpt lat="33.791988672980025" lon="8.882735865497763"><ele>39.0</ele><time>2026-04-07T09:07:44Z</time></trkpt><trkpt lat="33.792053591150484" lon="8.88254057213704"><ele>39.0</ele><time>2026-04-07T09:07:45Z</time></trkpt><trkpt lat="33.79211871083554" lon="8.88234582976688"><ele>39.666666666666664</ele><time>2026-04-07T09:07:46Z</time></trkpt><trkpt lat="33.7921805082607" lon="8.882150980490005"><ele>40.33333333333333</ele><time>2026-04-07T09:07:47Z</time></trkpt><trkpt lat="33.7922453185943" lon="8.881959232320172"><ele>41.0</ele><time>2026-04-07T09:07:48Z</time></trkpt><trkpt lat="33.79230818636445" lon="8.881769610395715"><ele>41.0</ele><time>2026-04-07T09:07:49Z</time></trkpt><trkpt lat="33.79237292415295" lon="8.881574998798625"><ele>41.0</ele><time>2026-04-07T09:07:50Z</time></trkpt><trkpt lat="33.79243716141865" lon="8.881385633601187"><ele>41.0</ele><time>2026-04-07T09:07:51Z</time></trkpt><trkpt lat="33.79250218801682" lon="8.881197717463593"><ele>41.0</ele><time>2026-04-07T09:07:52Z</time></trkpt><trkpt lat="33.79256605069325" lon="8.881002605033935"><ele>41.0</ele><time>2026-04-07T09:07:53Z</time></trkpt><trkpt lat="33.79262645626523" lon="8.880805303703317"><ele>41.0</ele><time>2026-04-07T09:07:54Z</time></trkpt><trkpt lat="33.79268550867992" lon="8.880610985904173"><ele>41.33333333333333</ele><time>2026-04-07T09:07:55Z</time></trkpt><trkpt lat="33.792746114520256" lon="8.880417914879674"><ele>41.666666666666664</ele><time>2026-04-07T09:07:56Z</time></trkpt><trkpt lat="33.792807773830184" lon="8.880227461501004"><ele>42.0</ele><time>2026-04-07T09:07:57Z</time></trkpt><trkpt lat="33.79286928018152" lon="8.880035165080901"><ele>42.333333333333336</ele><time>2026-04-07T09:07:58Z</time></trkpt><trkpt lat="33.79293039612471" lon="8.879845438002977"><ele>42.66666666666667</ele><time>2026-04-07T09:07:59Z</time></trkpt><trkpt lat="33.79299205294808" lon="8.879656274157684"><ele>43.0</ele><time>2026-04-07T09:08:00Z</time></trkpt><trkpt lat="33.79305626359258" lon="8.879460150860956"><ele>42.333333333333336</ele><time>2026-04-07T09:08:01Z</time></trkpt><trkpt lat="33.79312302216527" lon="8.879262274188816"><ele>41.666666666666664</ele><time>2026-04-07T09:08:02Z</time></trkpt><trkpt lat="33.79319008335825" lon="8.879058912048452"><ele>41.0</ele><time>2026-04-07T09:08:03Z</time></trkpt><trkpt lat="33.7932557013644" lon="8.878855483960336"><ele>41.0</ele><time>2026-04-07T09:08:04Z</time></trkpt><trkpt lat="33.79332357645854" lon="8.878646695200448"><ele>41.0</ele><time>2026-04-07T09:08:05Z</time></trkpt><trkpt lat="33.793397235603486" lon="8.878436326758875"><ele>41.0</ele><time>2026-04-07T09:08:06Z</time></trkpt><trkpt lat="33.79346825616702" lon="8.878225296898405"><ele>40.666666666666664</ele><time>2026-04-07T09:08:07Z</time></trkpt><trkpt lat="33.793540653472576" lon="8.878013887407844"><ele>40.333333333333336</ele><time>2026-04-07T09:08:08Z</time></trkpt><trkpt lat="33.79361266709003" lon="8.877804577112165"><ele>40.0</ele><time>2026-04-07T09:08:09Z</time></trkpt><trkpt lat="33.79368574048172" lon="8.877593986398916"><ele>40.0</ele><time>2026-04-07T09:08:10Z</time></trkpt><trkpt lat="33.793759014689854" lon="8.877382353468251"><ele>40.0</ele><time>2026-04-07T09:08:11Z</time></trkpt><trkpt lat="33.793831965985426" lon="8.877171394552333"><ele>40.0</ele><time>2026-04-07T09:08:12Z</time></trkpt><trkpt lat="33.79390817811454" lon="8.876958371039358"><ele>40.0</ele><time>2026-04-07T09:08:13Z</time></trkpt><trkpt lat="33.79398401612266" lon="8.87675434574933"><ele>40.0</ele><time>2026-04-07T09:08:14Z</time></trkpt><trkpt lat="33.794063616349135" lon="8.876545169706317"><ele>40.0</ele><time>2026-04-07T09:08:15Z</time></trkpt><trkpt lat="33.7941415969014" lon="8.876335827658371"><ele>40.0</ele><time>2026-04-07T09:08:16Z</time></trkpt><trkpt lat="33.794218519046005" lon="8.876126686037315"><ele>40.0</ele><time>2026-04-07T09:08:17Z</time></trkpt><trkpt lat="33.79429769381601" lon="8.875909401287675"><ele>40.0</ele><time>2026-04-07T09:08:18Z</time></trkpt><trkpt lat="33.79437960066729" lon="8.875694280466947"><ele>39.333333333333336</ele><time>2026-04-07T09:08:19Z</time></trkpt><trkpt lat="33.794462760960016" lon="8.875467035824588"><ele>38.666666666666664</ele><time>2026-04-07T09:08:20Z</time></trkpt><trkpt lat="33.794548919472625" lon="8.8752316912138"><ele>38.0</ele><time>2026-04-07T09:08:21Z</time></trkpt><trkpt lat="33.79463673318452" lon="8.874996824783336"><ele>38.0</ele><time>2026-04-07T09:08:22Z</time></trkpt><trkpt lat="33.794722716769044" lon="8.87474916355758"><ele>38.0</ele><time>2026-04-07T09:08:23Z</time></trkpt><trkpt lat="33.79481018079958" lon="8.874501647723585"><ele>38.0</ele><time>2026-04-07T09:08:24Z</time></trkpt><trkpt lat="33.79490079093415" lon="8.87424690757787"><ele>38.0</ele><time>2026-04-07T09:08:25Z</time></trkpt><trkpt lat="33.794989718340055" lon="8.873992099854947"><ele>38.0</ele><time>2026-04-07T09:08:26Z</time></trkpt><trkpt lat="33.795083125354616" lon="8.873737785949324"><ele>38.0</ele><time>2026-04-07T09:08:27Z</time></trkpt><trkpt lat="33.79517364248602" lon="8.873493992732497"><ele>38.0</ele><time>2026-04-07T09:08:28Z</time></trkpt><trkpt lat="33.79525864567962" lon="8.873253154952556"><ele>38.0</ele><time>2026-04-07T09:08:29Z</time></trkpt><trkpt lat="33.795331931624524" lon="8.873017603104934"><ele>38.0</ele><time>2026-04-07T09:08:30Z</time></trkpt><trkpt lat="33.79538284852882" lon="8.872783925218373"><ele>38.0</ele><time>2026-04-07T09:08:31Z</time></trkpt><trkpt lat="33.79541187589267" lon="8.872555757481313"><ele>38.0</ele><time>2026-04-07T09:08:32Z</time></trkpt><trkpt lat="33.7954337780912" lon="8.872320390886905"><ele>37.0</ele><time>2026-04-07T09:08:33Z</time></trkpt><trkpt lat="33.7954510803379" lon="8.87207337769054"><ele>36.0</ele><time>2026-04-07T09:08:34Z</time></trkpt><trkpt lat="33.79546654421889" lon="8.871827880114013"><ele>35.0</ele><time>2026-04-07T09:08:35Z</time></trkpt><trkpt lat="33.795478261818545" lon="8.87159984359585"><ele>35.0</ele><time>2026-04-07T09:08:36Z</time></trkpt><trkpt lat="33.795490272264544" lon="8.871390742183063"><ele>35.0</ele><time>2026-04-07T09:08:37Z</time></trkpt><trkpt lat="33.79550125635574" lon="8.871186768721211"><ele>35.0</ele><time>2026-04-07T09:08:38Z</time></trkpt><trkpt lat="33.79551017062028" lon="8.870993445069306"><ele>35.25</ele><time>2026-04-07T09:08:39Z</time></trkpt><trkpt lat="33.79552113006767" lon="8.870809248094995"><ele>35.5</ele><time>2026-04-07T09:08:40Z</time></trkpt><trkpt lat="33.79553174993513" lon="8.87063054285923"><ele>35.75</ele><time>2026-04-07T09:08:41Z</time></trkpt><trkpt lat="33.79554393043053" lon="8.870458232378784"><ele>36.0</ele><time>2026-04-07T09:08:42Z</time></trkpt><trkpt lat="33.79555757571313" lon="8.870281176705747"><ele>36.0</ele><time>2026-04-07T09:08:43Z</time></trkpt><trkpt lat="33.79557900928304" lon="8.870093309599714"><ele>36.0</ele><time>2026-04-07T09:08:44Z</time></trkpt><trkpt lat="33.795612971689835" lon="8.869892076065554"><ele>36.0</ele><time>2026-04-07T09:08:45Z</time></trkpt><trkpt lat="33.795655274746125" lon="8.869687909698484"><ele>36.0</ele><time>2026-04-07T09:08:46Z</time></trkpt><trkpt lat="33.79570868781889" lon="8.869480631153262"><ele>36.0</ele><time>2026-04-07T09:08:47Z</time></trkpt><trkpt lat="33.79576591319315" lon="8.869264443118764"><ele>36.0</ele><time>2026-04-07T09:08:48Z</time></trkpt><trkpt lat="33.79581745848518" lon="8.86904684465098"><ele>35.333333333333336</ele><time>2026-04-07T09:08:49Z</time></trkpt><trkpt lat="33.79586992103971" lon="8.868825954109788"><ele>34.66666666666667</ele><time>2026-04-07T09:08:50Z</time></trkpt><trkpt lat="33.79592593491153" lon="8.868604927767953"><ele>34.0</ele><time>2026-04-07T09:08:51Z</time></trkpt><trkpt lat="33.7959812443641" lon="8.868382855896407"><ele>35.333333333333336</ele><time>2026-04-07T09:08:52Z</time></trkpt><trkpt lat="33.79603726753987" lon="8.868158154758998"><ele>36.666666666666664</ele><time>2026-04-07T09:08:53Z</time></trkpt><trkpt lat="33.796092283311175" lon="8.867931856427278"><ele>38.0</ele><time>2026-04-07T09:08:54Z</time></trkpt><trkpt lat="33.79614256364161" lon="8.867704965256445"><ele>37.33333333333333</ele><time>2026-04-07T09:08:55Z</time></trkpt><trkpt lat="33.796200289488574" lon="8.86747329325077"><ele>36.666666666666664</ele><time>2026-04-07T09:08:56Z</time></trkpt><trkpt lat="33.79625667225119" lon="8.86723986978478"><ele>36.0</ele><time>2026-04-07T09:08:57Z</time></trkpt><trkpt lat="33.796309260177914" lon="8.86699754443287"><ele>35.333333333333336</ele><time>2026-04-07T09:08:58Z</time></trkpt><trkpt lat="33.7963626779127" lon="8.866755305227832"><ele>34.66666666666667</ele><time>2026-04-07T09:08:59Z</time></trkpt><trkpt lat="33.796418568797655" lon="8.866507900478938"><ele>34.0</ele><time>2026-04-07T09:09:00Z</time></trkpt><trkpt lat="33.79647651739666" lon="8.866258777672764"><ele>34.0</ele><time>2026-04-07T09:09:01.001Z</time></trkpt><trkpt lat="33.796534090047835" lon="8.86600955254875"><ele>34.0</ele><time>2026-04-07T09:09:02.001Z</time></trkpt><trkpt lat="33.79659485957835" lon="8.865762489990262"><ele>34.0</ele><time>2026-04-07T09:09:03.001Z</time></trkpt><trkpt lat="33.79665430807486" lon="8.865514231913824"><ele>33.66666666666667</ele><time>2026-04-07T09:09:04.001Z</time></trkpt><trkpt lat="33.796712602072965" lon="8.865263649022447"><ele>33.333333333333336</ele><time>2026-04-07T09:09:05.001Z</time></trkpt><trkpt lat="33.796770348625145" lon="8.86501362063376"><ele>33.0</ele><time>2026-04-07T09:09:06.001Z</time></trkpt><trkpt lat="33.79682505251539" lon="8.86476854985537"><ele>33.666666666666664</ele><time>2026-04-07T09:09:07.001Z</time></trkpt><trkpt lat="33.79687956349566" lon="8.864522124770216"><ele>34.33333333333333</ele><time>2026-04-07T09:09:08.001Z</time></trkpt><trkpt lat="33.79693685393641" lon="8.864273113184453"><ele>35.0</ele><time>2026-04-07T09:09:09.001Z</time></trkpt><trkpt lat="33.79699912785219" lon="8.864019218462984"><ele>35.0</ele><time>2026-04-07T09:09:10.001Z</time></trkpt><trkpt lat="33.79706593662161" lon="8.863767911421338"><ele>35.0</ele><time>2026-04-07T09:09:11.001Z</time></trkpt><trkpt lat="33.79714401879354" lon="8.863518934563473"><ele>35.0</ele><time>2026-04-07T09:09:12.001Z</time></trkpt><trkpt lat="33.79723849164705" lon="8.863273435316591"><ele>34.0</ele><time>2026-04-07T09:09:13.001Z</time></trkpt><trkpt lat="33.79734566558765" lon="8.863038923937605"><ele>33.0</ele><time>2026-04-07T09:09:14.001Z</time></trkpt><trkpt lat="33.797451531242395" lon="8.862815224776188"><ele>32.0</ele><time>2026-04-07T09:09:15.001Z</time></trkpt><trkpt lat="33.79754732500955" lon="8.862586437023829"><ele>32.0</ele><time>2026-04-07T09:09:16.001Z</time></trkpt><trkpt lat="33.797631148460255" lon="8.86235101942267"><ele>32.0</ele><time>2026-04-07T09:09:17.001Z</time></trkpt><trkpt lat="33.797703507876996" lon="8.862098456304583"><ele>32.0</ele><time>2026-04-07T09:09:18.001Z</time></trkpt><trkpt lat="33.79776542984019" lon="8.861838704168754"><ele>33.5</ele><time>2026-04-07T09:09:19Z</time></trkpt><trkpt lat="33.79781306618331" lon="8.861575292210224"><ele>35.0</ele><time>2026-04-07T09:09:20Z</time></trkpt><trkpt lat="33.797857383669175" lon="8.86130434466106"><ele>35.0</ele><time>2026-04-07T09:09:21Z</time></trkpt><trkpt lat="33.797901527701015" lon="8.861036767355687"><ele>35.0</ele><time>2026-04-07T09:09:22Z</time></trkpt><trkpt lat="33.79795041103355" lon="8.860770175889378"><ele>34.666666666666664</ele><time>2026-04-07T09:09:23Z</time></trkpt><trkpt lat="33.79799569917994" lon="8.860507805022719"><ele>34.333333333333336</ele><time>2026-04-07T09:09:24Z</time></trkpt><trkpt lat="33.79803993545948" lon="8.860245602223227"><ele>34.0</ele><time>2026-04-07T09:09:25Z</time></trkpt><trkpt lat="33.79808462735391" lon="8.859990240957286"><ele>34.0</ele><time>2026-04-07T09:09:26Z</time></trkpt><trkpt lat="33.79813248371871" lon="8.859738745096672"><ele>34.0</ele><time>2026-04-07T09:09:27Z</time></trkpt><trkpt lat="33.79817918976276" lon="8.85949124413832"><ele>34.0</ele><time>2026-04-07T09:09:28Z</time></trkpt><trkpt lat="33.79822808545852" lon="8.859244975348084"><ele>34.66666666666667</ele><time>2026-04-07T09:09:29Z</time></trkpt><trkpt lat="33.798272216424074" lon="8.859004193908707"><ele>35.333333333333336</ele><time>2026-04-07T09:09:30Z</time></trkpt><trkpt lat="33.79831012015597" lon="8.858777974308287"><ele>36.0</ele><time>2026-04-07T09:09:31Z</time></trkpt><trkpt lat="33.79834959310678" lon="8.858555411905623"><ele>36.0</ele><time>2026-04-07T09:09:32Z</time></trkpt><trkpt lat="33.79839154213588" lon="8.858324457632184"><ele>36.0</ele><time>2026-04-07T09:09:33Z</time></trkpt><trkpt lat="33.7984336961303" lon="8.858097011125421"><ele>36.0</ele><time>2026-04-07T09:09:34Z</time></trkpt><trkpt lat="33.79847948084558" lon="8.857869567319664"><ele>36.333333333333336</ele><time>2026-04-07T09:09:35Z</time></trkpt><trkpt lat="33.79852928682789" lon="8.8576437035336"><ele>36.66666666666667</ele><time>2026-04-07T09:09:36Z</time></trkpt><trkpt lat="33.798579245373546" lon="8.857418903420003"><ele>37.0</ele><time>2026-04-07T09:09:37Z</time></trkpt><trkpt lat="33.79863107165366" lon="8.85718939209892"><ele>36.333333333333336</ele><time>2026-04-07T09:09:38Z</time></trkpt><trkpt lat="33.798681979318225" lon="8.85696668506399"><ele>35.666666666666664</ele><time>2026-04-07T09:09:39Z</time></trkpt><trkpt lat="33.79873185105668" lon="8.856752877239924"><ele>35.0</ele><time>2026-04-07T09:09:40Z</time></trkpt><trkpt lat="33.79878082626633" lon="8.856551654574089"><ele>34.666666666666664</ele><time>2026-04-07T09:09:41Z</time></trkpt><trkpt lat="33.79882594062368" lon="8.856362887924272"><ele>34.333333333333336</ele><time>2026-04-07T09:09:42Z</time></trkpt><trkpt lat="33.798870056761096" lon="8.856185634850133"><ele>34.0</ele><time>2026-04-07T09:09:43Z</time></trkpt><trkpt lat="33.798912303421815" lon="8.85601862281231"><ele>33.75</ele><time>2026-04-07T09:09:44Z</time></trkpt><trkpt lat="33.79895276006552" lon="8.855858253743104"><ele>33.5</ele><time>2026-04-07T09:09:45Z</time></trkpt><trkpt lat="33.79898800877948" lon="8.855709324031073"><ele>33.25</ele><time>2026-04-07T09:09:46Z</time></trkpt><trkpt lat="33.7990230724557" lon="8.855573545797654"><ele>33.0</ele><time>2026-04-07T09:09:47Z</time></trkpt><trkpt lat="33.79905954420117" lon="8.85545326260121"><ele>33.0</ele><time>2026-04-07T09:09:48Z</time></trkpt><trkpt lat="33.79910210200286" lon="8.855343437587276"><ele>33.0</ele><time>2026-04-07T09:09:49Z</time></trkpt><trkpt lat="33.799151087786555" lon="8.855241489552371"><ele>33.0</ele><time>2026-04-07T09:09:50Z</time></trkpt><trkpt lat="33.79920267641689" lon="8.85514681847432"><ele>33.0</ele><time>2026-04-07T09:09:51Z</time></trkpt><trkpt lat="33.79924265405087" lon="8.855046224811895"><ele>33.0</ele><time>2026-04-07T09:09:52Z</time></trkpt><trkpt lat="33.799257603241976" lon="8.854928809901669"><ele>32.75</ele><time>2026-04-07T09:09:53Z</time></trkpt><trkpt lat="33.799255750790884" lon="8.85480485321288"><ele>32.5</ele><time>2026-04-07T09:09:54Z</time></trkpt><trkpt lat="33.79926383841604" lon="8.85466520306706"><ele>32.25</ele><time>2026-04-07T09:09:55Z</time></trkpt><trkpt lat="33.79929144935004" lon="8.854520361065758"><ele>32.0</ele><time>2026-04-07T09:09:56Z</time></trkpt><trkpt lat="33.79933198083586" lon="8.85436388508884"><ele>31.666666666666664</ele><time>2026-04-07T09:09:57Z</time></trkpt><trkpt lat="33.7993798812802" lon="8.854179235126173"><ele>31.333333333333336</ele><time>2026-04-07T09:09:58Z</time></trkpt><trkpt lat="33.79943123282854" lon="8.853964638323532"><ele>31.0</ele><time>2026-04-07T09:09:59Z</time></trkpt><trkpt lat="33.79948795930733" lon="8.853738737535096"><ele>31.0</ele><time>2026-04-07T09:10:00Z</time></trkpt><trkpt lat="33.79954672182814" lon="8.853507907570645"><ele>31.0</ele><time>2026-04-07T09:10:01Z</time></trkpt><trkpt lat="33.79960378308158" lon="8.853280423505149"><ele>31.0</ele><time>2026-04-07T09:10:02Z</time></trkpt><trkpt lat="33.79965612025173" lon="8.853062044073846"><ele>31.0</ele><time>2026-04-07T09:10:03Z</time></trkpt><trkpt lat="33.79970707727536" lon="8.852849636755085"><ele>31.0</ele><time>2026-04-07T09:10:04Z</time></trkpt><trkpt lat="33.799760790975455" lon="8.8526317565848"><ele>31.0</ele><time>2026-04-07T09:10:05Z</time></trkpt><trkpt lat="33.79981586245922" lon="8.85241318755236"><ele>31.0</ele><time>2026-04-07T09:10:06Z</time></trkpt><trkpt lat="33.799869592372886" lon="8.852199191301365"><ele>31.0</ele><time>2026-04-07T09:10:07Z</time></trkpt><trkpt lat="33.799924120034476" lon="8.851981994855999"><ele>31.0</ele><time>2026-04-07T09:10:08Z</time></trkpt><trkpt lat="33.799977077746085" lon="8.85176383374756"><ele>30.666666666666668</ele><time>2026-04-07T09:10:09Z</time></trkpt><trkpt lat="33.80002981037667" lon="8.851540728751653"><ele>30.333333333333336</ele><time>2026-04-07T09:10:10Z</time></trkpt><trkpt lat="33.80008129067601" lon="8.851320207387634"><ele>30.0</ele><time>2026-04-07T09:10:11Z</time></trkpt><trkpt lat="33.80013338069975" lon="8.851100403059593"><ele>32.0</ele><time>2026-04-07T09:10:12Z</time></trkpt><trkpt lat="33.80018632707982" lon="8.850879383277128"><ele>34.0</ele><time>2026-04-07T09:10:13Z</time></trkpt><trkpt lat="33.80024188654728" lon="8.850657895431413"><ele>36.0</ele><time>2026-04-07T09:10:14Z</time></trkpt><trkpt lat="33.80029788682721" lon="8.850436179261134"><ele>36.0</ele><time>2026-04-07T09:10:15Z</time></trkpt><trkpt lat="33.80035639875339" lon="8.850215048200049"><ele>36.0</ele><time>2026-04-07T09:10:16Z</time></trkpt><trkpt lat="33.80041509833835" lon="8.849995617488705"><ele>36.0</ele><time>2026-04-07T09:10:17Z</time></trkpt><trkpt lat="33.800479668704895" lon="8.849775819499698"><ele>35.333333333333336</ele><time>2026-04-07T09:10:18Z</time></trkpt><trkpt lat="33.80054818604857" lon="8.84955630240373"><ele>34.66666666666667</ele><time>2026-04-07T09:10:19Z</time></trkpt><trkpt lat="33.80061498189492" lon="8.849341793242559"><ele>34.0</ele><time>2026-04-07T09:10:20Z</time></trkpt><trkpt lat="33.800681717038415" lon="8.849120318444664"><ele>33.333333333333336</ele><time>2026-04-07T09:10:21Z</time></trkpt><trkpt lat="33.800747686403184" lon="8.848898937102634"><ele>32.666666666666664</ele><time>2026-04-07T09:10:22Z</time></trkpt><trkpt lat="33.800812767368406" lon="8.84867806184904"><ele>32.0</ele><time>2026-04-07T09:10:23Z</time></trkpt><trkpt lat="33.80088232911453" lon="8.848451733939175"><ele>32.0</ele><time>2026-04-07T09:10:24Z</time></trkpt><trkpt lat="33.80095594318733" lon="8.84823043610008"><ele>32.0</ele><time>2026-04-07T09:10:25Z</time></trkpt><trkpt lat="33.80103267572747" lon="8.848005092868688"><ele>32.0</ele><time>2026-04-07T09:10:26Z</time></trkpt><trkpt lat="33.801118117509446" lon="8.847788895793707"><ele>31.666666666666664</ele><time>2026-04-07T09:10:27Z</time></trkpt><trkpt lat="33.80120472700248" lon="8.847572035979017"><ele>31.333333333333336</ele><time>2026-04-07T09:10:28Z</time></trkpt><trkpt lat="33.801300925826965" lon="8.847357380517845"><ele>31.0</ele><time>2026-04-07T09:10:29Z</time></trkpt><trkpt lat="33.80141035216729" lon="8.847146684885717"><ele>31.0</ele><time>2026-04-07T09:10:30Z</time></trkpt><trkpt lat="33.80153405360082" lon="8.846948777543863"><ele>31.0</ele><time>2026-04-07T09:10:31Z</time></trkpt><trkpt lat="33.80166904917555" lon="8.846761662242784"><ele>31.0</ele><time>2026-04-07T09:10:32Z</time></trkpt><trkpt lat="33.80181551194784" lon="8.846580337979324"><ele>30.666666666666668</ele><time>2026-04-07T09:10:33Z</time></trkpt><trkpt lat="33.801971889211714" lon="8.846412083758402"><ele>30.333333333333336</ele><time>2026-04-07T09:10:34Z</time></trkpt><trkpt lat="33.802130834504084" lon="8.846237541760308"><ele>30.0</ele><time>2026-04-07T09:10:35Z</time></trkpt><trkpt lat="33.80228978327556" lon="8.846062570125609"><ele>30.333333333333336</ele><time>2026-04-07T09:10:36Z</time></trkpt><trkpt lat="33.80244564309018" lon="8.845887019995944"><ele>30.666666666666668</ele><time>2026-04-07T09:10:37Z</time></trkpt><trkpt lat="33.80260130321179" lon="8.845710049903806"><ele>31.0</ele><time>2026-04-07T09:10:38Z</time></trkpt><trkpt lat="33.802759769610695" lon="8.84554345256943"><ele>31.0</ele><time>2026-04-07T09:10:39Z</time></trkpt><trkpt lat="33.8029183071851" lon="8.845379100602964"><ele>31.0</ele><time>2026-04-07T09:10:40Z</time></trkpt><trkpt lat="33.80307558613745" lon="8.845214835772463"><ele>31.0</ele><time>2026-04-07T09:10:41Z</time></trkpt><trkpt lat="33.80323421991676" lon="8.845044527974919"><ele>31.0</ele><time>2026-04-07T09:10:42Z</time></trkpt><trkpt lat="33.803397896279236" lon="8.844877872977706"><ele>31.0</ele><time>2026-04-07T09:10:43Z</time></trkpt><trkpt lat="33.803563417590446" lon="8.844705510013226"><ele>31.0</ele><time>2026-04-07T09:10:44Z</time></trkpt><trkpt lat="33.80373489912844" lon="8.844527646193718"><ele>30.5</ele><time>2026-04-07T09:10:45Z</time></trkpt><trkpt lat="33.803906512027105" lon="8.844338118259321"><ele>30.0</ele><time>2026-04-07T09:10:46Z</time></trkpt><trkpt lat="33.804073833039276" lon="8.84413840548552"><ele>31.0</ele><time>2026-04-07T09:10:47Z</time></trkpt><trkpt lat="33.804244530212685" lon="8.843939879754771"><ele>32.0</ele><time>2026-04-07T09:10:48Z</time></trkpt><trkpt lat="33.80442180776178" lon="8.843746600446782"><ele>32.0</ele><time>2026-04-07T09:10:49Z</time></trkpt><trkpt lat="33.80460582122815" lon="8.843562340397451"><ele>32.0</ele><time>2026-04-07T09:10:50Z</time></trkpt><trkpt lat="33.804791749521534" lon="8.84339029853264"><ele>30.5</ele><time>2026-04-07T09:10:51Z</time></trkpt><trkpt lat="33.80498266224114" lon="8.843226478477739"><ele>29.0</ele><time>2026-04-07T09:10:52Z</time></trkpt><trkpt lat="33.805171397967484" lon="8.843067381772856"><ele>29.0</ele><time>2026-04-07T09:10:53Z</time></trkpt><trkpt lat="33.80535205099069" lon="8.842920502594417"><ele>29.0</ele><time>2026-04-07T09:10:54Z</time></trkpt><trkpt lat="33.8055238216991" lon="8.842782108012052"><ele>29.0</ele><time>2026-04-07T09:10:55Z</time></trkpt><trkpt lat="33.80568905536458" lon="8.842648399900655"><ele>28.666666666666664</ele><time>2026-04-07T09:10:56Z</time></trkpt><trkpt lat="33.80584640854591" lon="8.842508418622257"><ele>28.333333333333336</ele><time>2026-04-07T09:10:57Z</time></trkpt><trkpt lat="33.806004022411564" lon="8.842353075650095"><ele>28.0</ele><time>2026-04-07T09:10:58Z</time></trkpt><trkpt lat="33.806151749964975" lon="8.8421818769954"><ele>27.333333333333336</ele><time>2026-04-07T09:10:59Z</time></trkpt><trkpt lat="33.80629274425417" lon="8.842003674982392"><ele>26.666666666666664</ele><time>2026-04-07T09:11:00Z</time></trkpt><trkpt lat="33.80643189738072" lon="8.841817381344486"><ele>26.0</ele><time>2026-04-07T09:11:01Z</time></trkpt><trkpt lat="33.806577845452146" lon="8.841636976276922"><ele>26.0</ele><time>2026-04-07T09:11:02Z</time></trkpt><trkpt lat="33.80672766368964" lon="8.841473248501844"><ele>26.0</ele><time>2026-04-07T09:11:03Z</time></trkpt><trkpt lat="33.80688668499947" lon="8.841315632694538"><ele>26.0</ele><time>2026-04-07T09:11:04Z</time></trkpt><trkpt lat="33.80704778639962" lon="8.841169335563318"><ele>26.333333333333332</ele><time>2026-04-07T09:11:05Z</time></trkpt><trkpt lat="33.807209275874484" lon="8.841041478085508"><ele>26.666666666666664</ele><time>2026-04-07T09:11:06Z</time></trkpt><trkpt lat="33.80736811550868" lon="8.840925713922"><ele>27.0</ele><time>2026-04-07T09:11:07.001Z</time></trkpt><trkpt lat="33.80752776163561" lon="8.840815864644833"><ele>27.666666666666664</ele><time>2026-04-07T09:11:08.001Z</time></trkpt><trkpt lat="33.80769063546567" lon="8.840711028982435"><ele>28.333333333333332</ele><time>2026-04-07T09:11:09.001Z</time></trkpt><trkpt lat="33.807856108914095" lon="8.840608775574076"><ele>29.0</ele><time>2026-04-07T09:11:10.001Z</time></trkpt><trkpt lat="33.80802375641701" lon="8.840506744192574"><ele>29.0</ele><time>2026-04-07T09:11:11.001Z</time></trkpt><trkpt lat="33.80818759376321" lon="8.840408175794632"><ele>29.0</ele><time>2026-04-07T09:11:12.001Z</time></trkpt><trkpt lat="33.808340365510496" lon="8.840312510661862"><ele>29.0</ele><time>2026-04-07T09:11:13.001Z</time></trkpt><trkpt lat="33.80849205871405" lon="8.840219940628767"><ele>28.666666666666664</ele><time>2026-04-07T09:11:14.001Z</time></trkpt><trkpt lat="33.80864474339144" lon="8.840132897086654"><ele>28.333333333333336</ele><time>2026-04-07T09:11:15.001Z</time></trkpt><trkpt lat="33.80879857916405" lon="8.840041012682558"><ele>28.0</ele><time>2026-04-07T09:11:16.001Z</time></trkpt><trkpt lat="33.808946925912686" lon="8.83994984099902"><ele>28.0</ele><time>2026-04-07T09:11:17.001Z</time></trkpt><trkpt lat="33.809089529640026" lon="8.839858893247337"><ele>28.0</ele><time>2026-04-07T09:11:18.001Z</time></trkpt><trkpt lat="33.809221957902054" lon="8.839768673701661"><ele>28.0</ele><time>2026-04-07T09:11:19.001Z</time></trkpt><trkpt lat="33.80935297469222" lon="8.839677733779382"><ele>27.5</ele><time>2026-04-07T09:11:20.001Z</time></trkpt><trkpt lat="33.80947441024583" lon="8.839584476772105"><ele>27.0</ele><time>2026-04-07T09:11:21Z</time></trkpt><trkpt lat="33.809588818954666" lon="8.839477186975273"><ele>26.5</ele><time>2026-04-07T09:11:22Z</time></trkpt><trkpt lat="33.809697185141616" lon="8.839356478547513"><ele>26.0</ele><time>2026-04-07T09:11:23Z</time></trkpt><trkpt lat="33.809790588701865" lon="8.839211267042296"><ele>26.0</ele><time>2026-04-07T09:11:24Z</time></trkpt><trkpt lat="33.8098670113926" lon="8.839051316920656"><ele>26.0</ele><time>2026-04-07T09:11:25Z</time></trkpt><trkpt lat="33.809934224403435" lon="8.838876129294617"><ele>26.0</ele><time>2026-04-07T09:11:26Z</time></trkpt><trkpt lat="33.80999165108539" lon="8.838684386436851"><ele>26.0</ele><time>2026-04-07T09:11:27Z</time></trkpt><trkpt lat="33.81004832974135" lon="8.838480714734006"><ele>26.0</ele><time>2026-04-07T09:11:28Z</time></trkpt><trkpt lat="33.81010790478055" lon="8.838265290584813"><ele>26.0</ele><time>2026-04-07T09:11:29Z</time></trkpt><trkpt lat="33.810165626501636" lon="8.838052502649049"><ele>26.0</ele><time>2026-04-07T09:11:30Z</time></trkpt><trkpt lat="33.8102225104898" lon="8.837846856882189"><ele>26.0</ele><time>2026-04-07T09:11:31Z</time></trkpt><trkpt lat="33.81027798704412" lon="8.83764972727802"><ele>26.0</ele><time>2026-04-07T09:11:32Z</time></trkpt><trkpt lat="33.81033520980123" lon="8.837452435513871"><ele>25.666666666666664</ele><time>2026-04-07T09:11:33Z</time></trkpt><trkpt lat="33.81038239384515" lon="8.837253407780727"><ele>25.333333333333336</ele><time>2026-04-07T09:11:34Z</time></trkpt><trkpt lat="33.81041228769256" lon="8.837058683574984"><ele>25.0</ele><time>2026-04-07T09:11:35Z</time></trkpt><trkpt lat="33.8104197279674" lon="8.836868536059715"><ele>25.666666666666668</ele><time>2026-04-07T09:11:36Z</time></trkpt><trkpt lat="33.81040947170819" lon="8.836673807182184"><ele>26.333333333333336</ele><time>2026-04-07T09:11:37Z</time></trkpt><trkpt lat="33.810381107105705" lon="8.836477930623328"><ele>27.0</ele><time>2026-04-07T09:11:38Z</time></trkpt><trkpt lat="33.81034208519731" lon="8.836266692811291"><ele>27.0</ele><time>2026-04-07T09:11:39Z</time></trkpt><trkpt lat="33.81029882083178" lon="8.836051512707717"><ele>27.0</ele><time>2026-04-07T09:11:40Z</time></trkpt><trkpt lat="33.81025673508351" lon="8.835828620441873"><ele>27.0</ele><time>2026-04-07T09:11:41Z</time></trkpt><trkpt lat="33.81020903423406" lon="8.835601165324197"><ele>27.0</ele><time>2026-04-07T09:11:42Z</time></trkpt><trkpt lat="33.81016280350308" lon="8.83537523871325"><ele>27.0</ele><time>2026-04-07T09:11:43Z</time></trkpt><trkpt lat="33.81011863324345" lon="8.835141882342867"><ele>27.0</ele><time>2026-04-07T09:11:44Z</time></trkpt><trkpt lat="33.810079030298255" lon="8.834924460349063"><ele>27.0</ele><time>2026-04-07T09:11:45Z</time></trkpt><trkpt lat="33.810042063066334" lon="8.834720749111822"><ele>27.0</ele><time>2026-04-07T09:11:46Z</time></trkpt><trkpt lat="33.810006841624585" lon="8.834525707398"><ele>27.0</ele><time>2026-04-07T09:11:47Z</time></trkpt><trkpt lat="33.80997271469612" lon="8.83433621443385"><ele>27.666666666666664</ele><time>2026-04-07T09:11:48Z</time></trkpt><trkpt lat="33.80993628078384" lon="8.83414240463664"><ele>28.333333333333332</ele><time>2026-04-07T09:11:49Z</time></trkpt><trkpt lat="33.809898315242336" lon="8.833950811038102"><ele>29.0</ele><time>2026-04-07T09:11:50Z</time></trkpt><trkpt lat="33.80986032033055" lon="8.83375665157064"><ele>29.0</ele><time>2026-04-07T09:11:51Z</time></trkpt><trkpt lat="33.80982408000519" lon="8.833560955233988"><ele>29.0</ele><time>2026-04-07T09:11:52Z</time></trkpt><trkpt lat="33.80979030643793" lon="8.833361747439147"><ele>29.0</ele><time>2026-04-07T09:11:53Z</time></trkpt><trkpt lat="33.80976144293823" lon="8.833153806543468"><ele>28.666666666666664</ele><time>2026-04-07T09:11:54Z</time></trkpt><trkpt lat="33.8097379041043" lon="8.832943069405987"><ele>28.333333333333336</ele><time>2026-04-07T09:11:55Z</time></trkpt><trkpt lat="33.80972068478847" lon="8.832727427682533"><ele>28.0</ele><time>2026-04-07T09:11:56Z</time></trkpt><trkpt lat="33.809708388718285" lon="8.832505611596131"><ele>27.666666666666668</ele><time>2026-04-07T09:11:57Z</time></trkpt><trkpt lat="33.8096999773931" lon="8.832282795271814"><ele>27.333333333333336</ele><time>2026-04-07T09:11:58Z</time></trkpt><trkpt lat="33.809693902904606" lon="8.832060914984798"><ele>27.0</ele><time>2026-04-07T09:11:59Z</time></trkpt><trkpt lat="33.809689767726105" lon="8.83183588056131"><ele>26.666666666666664</ele><time>2026-04-07T09:12:00Z</time></trkpt><trkpt lat="33.809686767044205" lon="8.831608978557172"><ele>26.333333333333332</ele><time>2026-04-07T09:12:01Z</time></trkpt><trkpt lat="33.80968109962916" lon="8.83138088404793"><ele>26.0</ele><time>2026-04-07T09:12:02Z</time></trkpt><trkpt lat="33.80967325099103" lon="8.83115020700729"><ele>26.0</ele><time>2026-04-07T09:12:03Z</time></trkpt><trkpt lat="33.809665768887015" lon="8.83092626410498"><ele>26.0</ele><time>2026-04-07T09:12:04Z</time></trkpt><trkpt lat="33.8096578724245" lon="8.830703367381897"><ele>26.0</ele><time>2026-04-07T09:12:05Z</time></trkpt><trkpt lat="33.809650115711015" lon="8.83048182949184"><ele>26.0</ele><time>2026-04-07T09:12:06Z</time></trkpt><trkpt lat="33.80964277420238" lon="8.830250350543416"><ele>26.0</ele><time>2026-04-07T09:12:07Z</time></trkpt><trkpt lat="33.809636205283454" lon="8.830022820940474"><ele>26.0</ele><time>2026-04-07T09:12:08Z</time></trkpt><trkpt lat="33.80962957945459" lon="8.829792927165299"><ele>26.0</ele><time>2026-04-07T09:12:09Z</time></trkpt><trkpt lat="33.809623076901104" lon="8.82955240868315"><ele>26.0</ele><time>2026-04-07T09:12:10Z</time></trkpt><trkpt lat="33.809614887478965" lon="8.829311887912905"><ele>26.0</ele><time>2026-04-07T09:12:11Z</time></trkpt><trkpt lat="33.80960838352715" lon="8.829071072066979"><ele>26.0</ele><time>2026-04-07T09:12:12Z</time></trkpt><trkpt lat="33.80960499207477" lon="8.82882286654101"><ele>26.0</ele><time>2026-04-07T09:12:13Z</time></trkpt><trkpt lat="33.80960170191613" lon="8.828579213411729"><ele>26.0</ele><time>2026-04-07T09:12:14Z</time></trkpt><trkpt lat="33.809595774502434" lon="8.828334245256178"><ele>26.0</ele><time>2026-04-07T09:12:15Z</time></trkpt><trkpt lat="33.80958800061183" lon="8.828079461085245"><ele>26.0</ele><time>2026-04-07T09:12:16Z</time></trkpt><trkpt lat="33.809579852176974" lon="8.827825549226555"><ele>26.0</ele><time>2026-04-07T09:12:17Z</time></trkpt><trkpt lat="33.80957608208362" lon="8.827574012187075"><ele>26.0</ele><time>2026-04-07T09:12:18Z</time></trkpt><trkpt lat="33.80957505082183" lon="8.827313345853273"><ele>26.0</ele><time>2026-04-07T09:12:19Z</time></trkpt><trkpt lat="33.80957808962997" lon="8.82706071696761"><ele>26.0</ele><time>2026-04-07T09:12:20Z</time></trkpt><trkpt lat="33.80958580004774" lon="8.826802817466588"><ele>26.0</ele><time>2026-04-07T09:12:21Z</time></trkpt><trkpt lat="33.80959792221477" lon="8.826547865030356"><ele>26.0</ele><time>2026-04-07T09:12:22Z</time></trkpt><trkpt lat="33.80960912319357" lon="8.826293658878116"><ele>26.0</ele><time>2026-04-07T09:12:23Z</time></trkpt><trkpt lat="33.809613790401286" lon="8.826041449300114"><ele>25.666666666666664</ele><time>2026-04-07T09:12:24Z</time></trkpt><trkpt lat="33.8096082233359" lon="8.825779903536693"><ele>25.333333333333336</ele><time>2026-04-07T09:12:25Z</time></trkpt><trkpt lat="33.80959526167375" lon="8.82552180067741"><ele>25.0</ele><time>2026-04-07T09:12:26Z</time></trkpt><trkpt lat="33.809568692815965" lon="8.82525882671831"><ele>25.333333333333336</ele><time>2026-04-07T09:12:27Z</time></trkpt><trkpt lat="33.8095315691616" lon="8.824992344736488"><ele>25.666666666666664</ele><time>2026-04-07T09:12:28Z</time></trkpt><trkpt lat="33.80949056110976" lon="8.824727544949276"><ele>26.0</ele><time>2026-04-07T09:12:29Z</time></trkpt><trkpt lat="33.809453292762626" lon="8.82445485985479"><ele>26.0</ele><time>2026-04-07T09:12:30Z</time></trkpt><trkpt lat="33.80941759225827" lon="8.824180543032513"><ele>26.0</ele><time>2026-04-07T09:12:31Z</time></trkpt><trkpt lat="33.8093859075336" lon="8.82390268024821"><ele>26.0</ele><time>2026-04-07T09:12:32Z</time></trkpt><trkpt lat="33.80935953765849" lon="8.82361860791523"><ele>26.0</ele><time>2026-04-07T09:12:33Z</time></trkpt><trkpt lat="33.80933898588562" lon="8.82333023696946"><ele>26.0</ele><time>2026-04-07T09:12:34Z</time></trkpt><trkpt lat="33.809325900752434" lon="8.823034557761899"><ele>26.0</ele><time>2026-04-07T09:12:35Z</time></trkpt><trkpt lat="33.80932062050708" lon="8.82273796943199"><ele>26.0</ele><time>2026-04-07T09:12:36Z</time></trkpt><trkpt lat="33.80931562427399" lon="8.822445111090687"><ele>26.0</ele><time>2026-04-07T09:12:37Z</time></trkpt><trkpt lat="33.80930878392199" lon="8.822147143025562"><ele>26.0</ele><time>2026-04-07T09:12:38Z</time></trkpt><trkpt lat="33.809297545788354" lon="8.821849921530296"><ele>26.0</ele><time>2026-04-07T09:12:39Z</time></trkpt><trkpt lat="33.80928127266859" lon="8.821570479183318"><ele>25.666666666666664</ele><time>2026-04-07T09:12:40Z</time></trkpt><trkpt lat="33.80926149294271" lon="8.821298631230112"><ele>25.333333333333336</ele><time>2026-04-07T09:12:41Z</time></trkpt><trkpt lat="33.8092386504339" lon="8.821032887609709"><ele>25.0</ele><time>2026-04-07T09:12:42Z</time></trkpt><trkpt lat="33.80921163068636" lon="8.820761876360072"><ele>26.0</ele><time>2026-04-07T09:12:43Z</time></trkpt><trkpt lat="33.809182435756576" lon="8.820485021996275"><ele>27.0</ele><time>2026-04-07T09:12:44Z</time></trkpt><trkpt lat="33.809145879897784" lon="8.820207065772502"><ele>27.0</ele><time>2026-04-07T09:12:45Z</time></trkpt><trkpt lat="33.8091027553083" lon="8.819927794186375"><ele>27.0</ele><time>2026-04-07T09:12:46Z</time></trkpt><trkpt lat="33.80905315920725" lon="8.819652555447442"><ele>27.0</ele><time>2026-04-07T09:12:47Z</time></trkpt><trkpt lat="33.809001474284976" lon="8.819373900500597"><ele>27.0</ele><time>2026-04-07T09:12:48Z</time></trkpt><trkpt lat="33.808957118740835" lon="8.81908768315876"><ele>27.0</ele><time>2026-04-07T09:12:49Z</time></trkpt><trkpt lat="33.80892553899208" lon="8.81877729376498"><ele>27.0</ele><time>2026-04-07T09:12:50Z</time></trkpt><trkpt lat="33.808896195572274" lon="8.81846139126299"><ele>27.0</ele><time>2026-04-07T09:12:51Z</time></trkpt><trkpt lat="33.808868063014074" lon="8.818136993230265"><ele>27.0</ele><time>2026-04-07T09:12:52Z</time></trkpt><trkpt lat="33.80883932736016" lon="8.817818622645728"><ele>26.0</ele><time>2026-04-07T09:12:53Z</time></trkpt><trkpt lat="33.80881536617605" lon="8.81750782183783"><ele>25.0</ele><time>2026-04-07T09:12:54Z</time></trkpt><trkpt lat="33.808798988073455" lon="8.817212441142374"><ele>25.0</ele><time>2026-04-07T09:12:55Z</time></trkpt><trkpt lat="33.80878084702323" lon="8.816922328344116"><ele>25.0</ele><time>2026-04-07T09:12:56Z</time></trkpt><trkpt lat="33.808757463121424" lon="8.816641117266572"><ele>26.5</ele><time>2026-04-07T09:12:57Z</time></trkpt><trkpt lat="33.8087291543036" lon="8.816361211682658"><ele>28.0</ele><time>2026-04-07T09:12:58Z</time></trkpt><trkpt lat="33.80869438650888" lon="8.816077051539372"><ele>28.666666666666668</ele><time>2026-04-07T09:12:59Z</time></trkpt><trkpt lat="33.80865662603413" lon="8.8158090657332"><ele>29.333333333333336</ele><time>2026-04-07T09:13:00Z</time></trkpt><trkpt lat="33.80861865640063" lon="8.815547025217027"><ele>30.0</ele><time>2026-04-07T09:13:01Z</time></trkpt><trkpt lat="33.80857848777506" lon="8.815285143088653"><ele>29.333333333333336</ele><time>2026-04-07T09:13:02Z</time></trkpt><trkpt lat="33.80853403518184" lon="8.815017683533375"><ele>28.666666666666668</ele><time>2026-04-07T09:13:03Z</time></trkpt><trkpt lat="33.8084870550641" lon="8.814757528408132"><ele>28.0</ele><time>2026-04-07T09:13:04Z</time></trkpt><trkpt lat="33.80844154380772" lon="8.814491121574186"><ele>27.666666666666668</ele><time>2026-04-07T09:13:05Z</time></trkpt><trkpt lat="33.80839926833134" lon="8.814235848609949"><ele>27.333333333333336</ele><time>2026-04-07T09:13:06Z</time></trkpt><trkpt lat="33.808359913306994" lon="8.813974602783018"><ele>27.0</ele><time>2026-04-07T09:13:07Z</time></trkpt><trkpt lat="33.80831984438441" lon="8.81372158840189"><ele>26.666666666666664</ele><time>2026-04-07T09:13:08Z</time></trkpt><trkpt lat="33.80828016588385" lon="8.813473265266294"><ele>26.333333333333332</ele><time>2026-04-07T09:13:09Z</time></trkpt><trkpt lat="33.80823893612459" lon="8.813215992945427"><ele>26.0</ele><time>2026-04-07T09:13:10Z</time></trkpt><trkpt lat="33.808196530496424" lon="8.812947453801184"><ele>26.0</ele><time>2026-04-07T09:13:11Z</time></trkpt><trkpt lat="33.80815641928093" lon="8.812680932193661"><ele>26.0</ele><time>2026-04-07T09:13:12Z</time></trkpt><trkpt lat="33.80811874255" lon="8.812419032687451"><ele>26.0</ele><time>2026-04-07T09:13:13Z</time></trkpt><trkpt lat="33.808079762826225" lon="8.812147817730656"><ele>25.5</ele><time>2026-04-07T09:13:14Z</time></trkpt><trkpt lat="33.808039705895276" lon="8.811874611492811"><ele>25.0</ele><time>2026-04-07T09:13:15Z</time></trkpt><trkpt lat="33.80800015067746" lon="8.811596214193713"><ele>25.0</ele><time>2026-04-07T09:13:16Z</time></trkpt><trkpt lat="33.80796531383603" lon="8.811326400253794"><ele>25.0</ele><time>2026-04-07T09:13:17Z</time></trkpt><trkpt lat="33.80793014667335" lon="8.811058431050848"><ele>25.0</ele><time>2026-04-07T09:13:18Z</time></trkpt><trkpt lat="33.80789574827607" lon="8.810795727264992"><ele>25.0</ele><time>2026-04-07T09:13:19Z</time></trkpt><trkpt lat="33.80786055195297" lon="8.81053872361078"><ele>25.0</ele><time>2026-04-07T09:13:20Z</time></trkpt><trkpt lat="33.807824166178484" lon="8.810278804951396"><ele>26.333333333333336</ele><time>2026-04-07T09:13:21Z</time></trkpt><trkpt lat="33.80778886819217" lon="8.810025763858192"><ele>27.666666666666664</ele><time>2026-04-07T09:13:22Z</time></trkpt><trkpt lat="33.807753740684475" lon="8.809775252575132"><ele>29.0</ele><time>2026-04-07T09:13:23Z</time></trkpt><trkpt lat="33.80771980012905" lon="8.80952367620654"><ele>28.333333333333332</ele><time>2026-04-07T09:13:24Z</time></trkpt><trkpt lat="33.80768473117316" lon="8.80927427548755"><ele>27.666666666666664</ele><time>2026-04-07T09:13:25Z</time></trkpt><trkpt lat="33.80764390767252" lon="8.809019090853138"><ele>27.0</ele><time>2026-04-07T09:13:26Z</time></trkpt><trkpt lat="33.807604359464364" lon="8.808764765881563"><ele>27.0</ele><time>2026-04-07T09:13:27Z</time></trkpt><trkpt lat="33.807563571506215" lon="8.808508006165388"><ele>27.0</ele><time>2026-04-07T09:13:28Z</time></trkpt><trkpt lat="33.80752930017117" lon="8.808250266969775"><ele>27.0</ele><time>2026-04-07T09:13:29Z</time></trkpt><trkpt lat="33.80749143947575" lon="8.807992124616495"><ele>26.666666666666664</ele><time>2026-04-07T09:13:30Z</time></trkpt><trkpt lat="33.80745464044104" lon="8.807731229301343"><ele>26.333333333333332</ele><time>2026-04-07T09:13:31Z</time></trkpt><trkpt lat="33.80741984947999" lon="8.807474262215047"><ele>26.0</ele><time>2026-04-07T09:13:32Z</time></trkpt><trkpt lat="33.80738494384622" lon="8.80721842214044"><ele>26.333333333333332</ele><time>2026-04-07T09:13:33Z</time></trkpt><trkpt lat="33.80734952540678" lon="8.806964867930454"><ele>26.666666666666664</ele><time>2026-04-07T09:13:34Z</time></trkpt><trkpt lat="33.807313337211774" lon="8.806714533501628"><ele>27.0</ele><time>2026-04-07T09:13:35Z</time></trkpt><trkpt lat="33.80727973677224" lon="8.806464120464723"><ele>27.0</ele><time>2026-04-07T09:13:36Z</time></trkpt><trkpt lat="33.80724532501631" lon="8.806216936949259"><ele>27.0</ele><time>2026-04-07T09:13:37Z</time></trkpt><trkpt lat="33.80721617423396" lon="8.805973517698845"><ele>27.0</ele><time>2026-04-07T09:13:38Z</time></trkpt><trkpt lat="33.80718633529776" lon="8.80572595774449"><ele>26.666666666666664</ele><time>2026-04-07T09:13:39Z</time></trkpt><trkpt lat="33.807152487132015" lon="8.805483732558722"><ele>26.333333333333332</ele><time>2026-04-07T09:13:40Z</time></trkpt><trkpt lat="33.80712009698971" lon="8.805244062425608"><ele>26.0</ele><time>2026-04-07T09:13:41Z</time></trkpt><trkpt lat="33.80708076404447" lon="8.805005252665213"><ele>26.0</ele><time>2026-04-07T09:13:42Z</time></trkpt><trkpt lat="33.8070339203123" lon="8.804765140181303"><ele>26.0</ele><time>2026-04-07T09:13:43Z</time></trkpt><trkpt lat="33.8069823235434" lon="8.804527664124926"><ele>26.0</ele><time>2026-04-07T09:13:44Z</time></trkpt><trkpt lat="33.806926110722976" lon="8.804286083701859"><ele>26.0</ele><time>2026-04-07T09:13:45Z</time></trkpt><trkpt lat="33.80686692171198" lon="8.804044787684687"><ele>26.0</ele><time>2026-04-07T09:13:46Z</time></trkpt><trkpt lat="33.806807882084094" lon="8.80380663137696"><ele>26.0</ele><time>2026-04-07T09:13:47Z</time></trkpt><trkpt lat="33.80674691571681" lon="8.803564622645201"><ele>26.0</ele><time>2026-04-07T09:13:48Z</time></trkpt><trkpt lat="33.806683338802756" lon="8.803322208804886"><ele>26.0</ele><time>2026-04-07T09:13:49Z</time></trkpt><trkpt lat="33.806621849835786" lon="8.803084220048468"><ele>26.0</ele><time>2026-04-07T09:13:50Z</time></trkpt><trkpt lat="33.80656090086505" lon="8.802839600796212"><ele>25.666666666666664</ele><time>2026-04-07T09:13:51Z</time></trkpt><trkpt lat="33.80650536950983" lon="8.802596914530683"><ele>25.333333333333336</ele><time>2026-04-07T09:13:52Z</time></trkpt><trkpt lat="33.80644786204509" lon="8.802346745748245"><ele>25.0</ele><time>2026-04-07T09:13:53Z</time></trkpt><trkpt lat="33.806389819570555" lon="8.802093095608914"><ele>25.5</ele><time>2026-04-07T09:13:54Z</time></trkpt><trkpt lat="33.806332893348426" lon="8.801830906562486"><ele>26.0</ele><time>2026-04-07T09:13:55Z</time></trkpt><trkpt lat="33.80627100243226" lon="8.801561497695907"><ele>26.0</ele><time>2026-04-07T09:13:56Z</time></trkpt><trkpt lat="33.806213614504834" lon="8.80129086767614"><ele>26.0</ele><time>2026-04-07T09:13:57Z</time></trkpt><trkpt lat="33.80614884027766" lon="8.80101094553156"><ele>26.5</ele><time>2026-04-07T09:13:58Z</time></trkpt><trkpt lat="33.80608229321734" lon="8.800731282411197"><ele>27.0</ele><time>2026-04-07T09:13:59Z</time></trkpt><trkpt lat="33.80600967608567" lon="8.800447800150499"><ele>25.0</ele><time>2026-04-07T09:14:00Z</time></trkpt><trkpt lat="33.8059351445266" lon="8.800166588021249"><ele>23.0</ele><time>2026-04-07T09:14:01Z</time></trkpt><trkpt lat="33.80585015574555" lon="8.799886788369264"><ele>23.0</ele><time>2026-04-07T09:14:02Z</time></trkpt><trkpt lat="33.80575485817236" lon="8.799606377789717"><ele>23.0</ele><time>2026-04-07T09:14:03Z</time></trkpt><trkpt lat="33.80565859389822" lon="8.799329122432457"><ele>22.5</ele><time>2026-04-07T09:14:04Z</time></trkpt><trkpt lat="33.80556195799364" lon="8.799062553187106"><ele>22.0</ele><time>2026-04-07T09:14:05Z</time></trkpt><trkpt lat="33.80546520916004" lon="8.798802227377443"><ele>22.0</ele><time>2026-04-07T09:14:06Z</time></trkpt><trkpt lat="33.80537674131324" lon="8.798541087909651"><ele>22.0</ele><time>2026-04-07T09:14:07Z</time></trkpt><trkpt lat="33.80529945261863" lon="8.798281188382647"><ele>22.0</ele><time>2026-04-07T09:14:08Z</time></trkpt><trkpt lat="33.80522721760733" lon="8.79801251012278"><ele>22.0</ele><time>2026-04-07T09:14:09Z</time></trkpt><trkpt lat="33.80516859054191" lon="8.797741075910883"><ele>23.0</ele><time>2026-04-07T09:14:10Z</time></trkpt><trkpt lat="33.805116943950026" lon="8.797462658039537"><ele>24.0</ele><time>2026-04-07T09:14:11Z</time></trkpt><trkpt lat="33.80507282708523" lon="8.797183131825841"><ele>24.0</ele><time>2026-04-07T09:14:12Z</time></trkpt><trkpt lat="33.80503487719599" lon="8.796904000023886"><ele>24.0</ele><time>2026-04-07T09:14:13Z</time></trkpt><trkpt lat="33.80499484677157" lon="8.796623686901585"><ele>24.5</ele><time>2026-04-07T09:14:14Z</time></trkpt><trkpt lat="33.80494938562383" lon="8.796338028771443"><ele>25.0</ele><time>2026-04-07T09:14:15Z</time></trkpt><trkpt lat="33.80490327229606" lon="8.796056621374913"><ele>24.5</ele><time>2026-04-07T09:14:16Z</time></trkpt><trkpt lat="33.804859502436166" lon="8.79576830536906"><ele>24.0</ele><time>2026-04-07T09:14:17Z</time></trkpt><trkpt lat="33.804812863992574" lon="8.795481699263592"><ele>24.0</ele><time>2026-04-07T09:14:18Z</time></trkpt><trkpt lat="33.80476479483852" lon="8.795199939486286"><ele>24.0</ele><time>2026-04-07T09:14:19Z</time></trkpt><trkpt lat="33.80471889295751" lon="8.794923402159117"><ele>24.0</ele><time>2026-04-07T09:14:20Z</time></trkpt><trkpt lat="33.80467281718717" lon="8.794641119957301"><ele>24.0</ele><time>2026-04-07T09:14:21Z</time></trkpt><trkpt lat="33.80462500540383" lon="8.794365658134408"><ele>25.0</ele><time>2026-04-07T09:14:22Z</time></trkpt><trkpt lat="33.804577771677856" lon="8.794091997046273"><ele>26.0</ele><time>2026-04-07T09:14:23Z</time></trkpt><trkpt lat="33.8045304029959" lon="8.79381675885163"><ele>26.0</ele><time>2026-04-07T09:14:24Z</time></trkpt><trkpt lat="33.80448413361102" lon="8.793542684657035"><ele>26.0</ele><time>2026-04-07T09:14:25Z</time></trkpt><trkpt lat="33.80443860996077" lon="8.7932779946415"><ele>26.333333333333332</ele><time>2026-04-07T09:14:26Z</time></trkpt><trkpt lat="33.804395918533594" lon="8.79302387912526"><ele>26.666666666666664</ele><time>2026-04-07T09:14:27Z</time></trkpt><trkpt lat="33.80435720335727" lon="8.79277026603578"><ele>27.0</ele><time>2026-04-07T09:14:28Z</time></trkpt><trkpt lat="33.80431675639937" lon="8.792531370048273"><ele>26.333333333333336</ele><time>2026-04-07T09:14:29Z</time></trkpt><trkpt lat="33.80427547353747" lon="8.79228853605614"><ele>25.666666666666668</ele><time>2026-04-07T09:14:30Z</time></trkpt><trkpt lat="33.804236590744566" lon="8.79205029565718"><ele>25.0</ele><time>2026-04-07T09:14:31Z</time></trkpt><trkpt lat="33.804197942262945" lon="8.791815262610298"><ele>25.0</ele><time>2026-04-07T09:14:32Z</time></trkpt><trkpt lat="33.804157557530175" lon="8.791580257520526"><ele>25.0</ele><time>2026-04-07T09:14:33Z</time></trkpt><trkpt lat="33.804117303984185" lon="8.791344418353779"><ele>25.0</ele><time>2026-04-07T09:14:34Z</time></trkpt><trkpt lat="33.804075895866525" lon="8.791110577357824"><ele>25.0</ele><time>2026-04-07T09:14:35Z</time></trkpt><trkpt lat="33.804034944027585" lon="8.79088380523465"><ele>25.0</ele><time>2026-04-07T09:14:36Z</time></trkpt><trkpt lat="33.80399693412507" lon="8.790656773906381"><ele>25.0</ele><time>2026-04-07T09:14:37Z</time></trkpt><trkpt lat="33.8039610667125" lon="8.790433553269864"><ele>25.0</ele><time>2026-04-07T09:14:38Z</time></trkpt><trkpt lat="33.803925941936896" lon="8.790223239425806"><ele>25.0</ele><time>2026-04-07T09:14:39Z</time></trkpt><trkpt lat="33.80389357026748" lon="8.79002007772124"><ele>25.0</ele><time>2026-04-07T09:14:40Z</time></trkpt><trkpt lat="33.80386029377669" lon="8.789819262510985"><ele>24.666666666666668</ele><time>2026-04-07T09:14:41Z</time></trkpt><trkpt lat="33.80382522308428" lon="8.789620017768526"><ele>24.333333333333336</ele><time>2026-04-07T09:14:42Z</time></trkpt><trkpt lat="33.80379293078908" lon="8.789436404652177"><ele>24.0</ele><time>2026-04-07T09:14:43Z</time></trkpt><trkpt lat="33.80376401160647" lon="8.789260053692255"><ele>24.0</ele><time>2026-04-07T09:14:44Z</time></trkpt><trkpt lat="33.80373857163419" lon="8.789097150233557"><ele>24.0</ele><time>2026-04-07T09:14:45Z</time></trkpt><trkpt lat="33.80371578049154" lon="8.788954819961551"><ele>24.0</ele><time>2026-04-07T09:14:46Z</time></trkpt><trkpt lat="33.803692744368774" lon="8.788827394546166"><ele>24.0</ele><time>2026-04-07T09:14:47Z</time></trkpt><trkpt lat="33.803669620131735" lon="8.788710452112692"><ele>24.0</ele><time>2026-04-07T09:14:48Z</time></trkpt><trkpt lat="33.803646522181246" lon="8.788601160794506"><ele>24.0</ele><time>2026-04-07T09:14:49Z</time></trkpt><trkpt lat="33.80362490836117" lon="8.78849770811549"><ele>24.0</ele><time>2026-04-07T09:14:50Z</time></trkpt><trkpt lat="33.80360463102935" lon="8.788397100287751"><ele>24.0</ele><time>2026-04-07T09:14:51Z</time></trkpt><trkpt lat="33.80358739207037" lon="8.78830052820124"><ele>24.0</ele><time>2026-04-07T09:14:52Z</time></trkpt><trkpt lat="33.80357666724253" lon="8.78821842365329"><ele>24.0</ele><time>2026-04-07T09:14:53Z</time></trkpt><trkpt lat="33.80357518771263" lon="8.788075888437556"><ele>23.799999999999997</ele><time>2026-04-07T09:14:55Z</time></trkpt><trkpt lat="33.803599143103554" lon="8.788003644688914"><ele>23.599999999999998</ele><time>2026-04-07T09:14:56Z</time></trkpt><trkpt lat="33.80364579652936" lon="8.787926193922928"><ele>23.4</ele><time>2026-04-07T09:14:57Z</time></trkpt><trkpt lat="33.80371201305757" lon="8.787839314063348"><ele>23.2</ele><time>2026-04-07T09:14:58Z</time></trkpt><trkpt lat="33.80379758128758" lon="8.78774655313177"><ele>23.0</ele><time>2026-04-07T09:14:59Z</time></trkpt><trkpt lat="33.80389262765623" lon="8.787648115556204"><ele>23.0</ele><time>2026-04-07T09:15:00Z</time></trkpt><trkpt lat="33.803996504057736" lon="8.787535943283471"><ele>23.0</ele><time>2026-04-07T09:15:01Z</time></trkpt><trkpt lat="33.80410326813389" lon="8.787414189187182"><ele>23.0</ele><time>2026-04-07T09:15:02Z</time></trkpt><trkpt lat="33.80420736976616" lon="8.787289634833758"><ele>23.0</ele><time>2026-04-07T09:15:03Z</time></trkpt><trkpt lat="33.80431105547913" lon="8.787154773597104"><ele>23.666666666666668</ele><time>2026-04-07T09:15:04Z</time></trkpt><trkpt lat="33.80441432555691" lon="8.78701198880794"><ele>24.333333333333336</ele><time>2026-04-07T09:15:05Z</time></trkpt><trkpt lat="33.804514276910595" lon="8.78685937239319"><ele>25.0</ele><time>2026-04-07T09:15:06Z</time></trkpt><trkpt lat="33.80460863603604" lon="8.786700981949965"><ele>25.0</ele><time>2026-04-07T09:15:07Z</time></trkpt><trkpt lat="33.80469448813345" lon="8.786548157200272"><ele>25.0</ele><time>2026-04-07T09:15:08Z</time></trkpt><trkpt lat="33.80477857081485" lon="8.78638951654934"><ele>25.0</ele><time>2026-04-07T09:15:09Z</time></trkpt><trkpt lat="33.804862202673945" lon="8.786222481598411"><ele>25.0</ele><time>2026-04-07T09:15:10Z</time></trkpt><trkpt lat="33.80494358364193" lon="8.786042679566709"><ele>25.0</ele><time>2026-04-07T09:15:11Z</time></trkpt><trkpt lat="33.80501824612831" lon="8.785849393279495"><ele>25.0</ele><time>2026-04-07T09:15:12Z</time></trkpt><trkpt lat="33.805085505154324" lon="8.785647118354056"><ele>24.666666666666668</ele><time>2026-04-07T09:15:13Z</time></trkpt><trkpt lat="33.80514757073373" lon="8.785436292568088"><ele>24.333333333333336</ele><time>2026-04-07T09:15:14Z</time></trkpt><trkpt lat="33.805203089748" lon="8.785221237543578"><ele>24.0</ele><time>2026-04-07T09:15:15Z</time></trkpt><trkpt lat="33.80525321598347" lon="8.785001031153195"><ele>24.0</ele><time>2026-04-07T09:15:16Z</time></trkpt><trkpt lat="33.80530160359849" lon="8.78477241042621"><ele>24.0</ele><time>2026-04-07T09:15:17Z</time></trkpt><trkpt lat="33.80535399102894" lon="8.78453781849612"><ele>24.0</ele><time>2026-04-07T09:15:18Z</time></trkpt><trkpt lat="33.8054112832031" lon="8.784301445514144"><ele>24.0</ele><time>2026-04-07T09:15:19Z</time></trkpt><trkpt lat="33.80546897423241" lon="8.784060171847361"><ele>24.0</ele><time>2026-04-07T09:15:20Z</time></trkpt><trkpt lat="33.805527256411594" lon="8.783814708975175"><ele>24.0</ele><time>2026-04-07T09:15:21Z</time></trkpt><trkpt lat="33.80558314435319" lon="8.783563251876904"><ele>24.333333333333336</ele><time>2026-04-07T09:15:22Z</time></trkpt><trkpt lat="33.80563954848972" lon="8.783307764035424"><ele>24.666666666666668</ele><time>2026-04-07T09:15:23Z</time></trkpt><trkpt lat="33.805695847174526" lon="8.783048271637298"><ele>25.0</ele><time>2026-04-07T09:15:24Z</time></trkpt><trkpt lat="33.80575306418847" lon="8.782783072556484"><ele>23.5</ele><time>2026-04-07T09:15:25Z</time></trkpt><trkpt lat="33.80581317894512" lon="8.7825122667497"><ele>22.0</ele><time>2026-04-07T09:15:26Z</time></trkpt><trkpt lat="33.80587595523266" lon="8.782241020908318"><ele>22.0</ele><time>2026-04-07T09:15:27Z</time></trkpt><trkpt lat="33.80594111442809" lon="8.78196850728462"><ele>22.0</ele><time>2026-04-07T09:15:28Z</time></trkpt><trkpt lat="33.806006729660034" lon="8.78169442299704"><ele>24.0</ele><time>2026-04-07T09:15:29Z</time></trkpt><trkpt lat="33.806069078509694" lon="8.781416487659982"><ele>26.0</ele><time>2026-04-07T09:15:30Z</time></trkpt><trkpt lat="33.806130737902855" lon="8.781134134345006"><ele>25.5</ele><time>2026-04-07T09:15:31Z</time></trkpt><trkpt lat="33.80619241951023" lon="8.780850259207076"><ele>25.0</ele><time>2026-04-07T09:15:32Z</time></trkpt><trkpt lat="33.80625778825693" lon="8.780565293993984"><ele>25.0</ele><time>2026-04-07T09:15:33Z</time></trkpt><trkpt lat="33.80632258318885" lon="8.780284417998468"><ele>25.0</ele><time>2026-04-07T09:15:34Z</time></trkpt><trkpt lat="33.80638590220694" lon="8.780005440169175"><ele>25.0</ele><time>2026-04-07T09:15:35Z</time></trkpt><trkpt lat="33.80644989774517" lon="8.779738476609495"><ele>25.0</ele><time>2026-04-07T09:15:36Z</time></trkpt><trkpt lat="33.80651032460092" lon="8.779478416493347"><ele>24.5</ele><time>2026-04-07T09:15:37Z</time></trkpt><trkpt lat="33.806572120081285" lon="8.779213948434114"><ele>24.0</ele><time>2026-04-07T09:15:38Z</time></trkpt><trkpt lat="33.80663189920811" lon="8.778948855127117"><ele>24.0</ele><time>2026-04-07T09:15:39Z</time></trkpt><trkpt lat="33.80669078163357" lon="8.7786842860988"><ele>24.0</ele><time>2026-04-07T09:15:40Z</time></trkpt><trkpt lat="33.80674832278802" lon="8.77841697830559"><ele>24.0</ele><time>2026-04-07T09:15:41Z</time></trkpt><trkpt lat="33.80680729560622" lon="8.778151785383528"><ele>24.0</ele><time>2026-04-07T09:15:42Z</time></trkpt><trkpt lat="33.806869863690174" lon="8.77788477623691"><ele>23.0</ele><time>2026-04-07T09:15:43Z</time></trkpt><trkpt lat="33.80693538661588" lon="8.777616910865852"><ele>22.0</ele><time>2026-04-07T09:15:44Z</time></trkpt><trkpt lat="33.80700057405499" lon="8.77735428107445"><ele>22.0</ele><time>2026-04-07T09:15:45Z</time></trkpt><trkpt lat="33.80706310241458" lon="8.777089056187295"><ele>22.0</ele><time>2026-04-07T09:15:46Z</time></trkpt><trkpt lat="33.807125030878865" lon="8.776824993775783"><ele>23.5</ele><time>2026-04-07T09:15:47Z</time></trkpt><trkpt lat="33.807184179214715" lon="8.77655815122424"><ele>25.0</ele><time>2026-04-07T09:15:48Z</time></trkpt><trkpt lat="33.807241823995795" lon="8.776291486186054"><ele>25.0</ele><time>2026-04-07T09:15:49Z</time></trkpt><trkpt lat="33.80729988488703" lon="8.77602338548063"><ele>25.0</ele><time>2026-04-07T09:15:50Z</time></trkpt><trkpt lat="33.80736083642188" lon="8.775754534000272"><ele>25.0</ele><time>2026-04-07T09:15:51Z</time></trkpt><trkpt lat="33.80742324290578" lon="8.775483555104376"><ele>25.0</ele><time>2026-04-07T09:15:52Z</time></trkpt><trkpt lat="33.80748532655323" lon="8.77520959204005"><ele>24.5</ele><time>2026-04-07T09:15:53Z</time></trkpt><trkpt lat="33.807547428792695" lon="8.774936450416112"><ele>24.0</ele><time>2026-04-07T09:15:54Z</time></trkpt><trkpt lat="33.807610226797514" lon="8.774660994451787"><ele>24.5</ele><time>2026-04-07T09:15:55Z</time></trkpt><trkpt lat="33.80767220560572" lon="8.774388970914186"><ele>25.0</ele><time>2026-04-07T09:15:56Z</time></trkpt><trkpt lat="33.80773598661469" lon="8.774116196857188"><ele>24.0</ele><time>2026-04-07T09:15:57Z</time></trkpt><trkpt lat="33.80779816368056" lon="8.77384615160847"><ele>23.0</ele><time>2026-04-07T09:15:58Z</time></trkpt><trkpt lat="33.807861704507296" lon="8.773572372849378"><ele>23.0</ele><time>2026-04-07T09:15:59Z</time></trkpt><trkpt lat="33.80792532487218" lon="8.773299704218989"><ele>23.0</ele><time>2026-04-07T09:16:00Z</time></trkpt><trkpt lat="33.807988823943795" lon="8.773028314296958"><ele>23.0</ele><time>2026-04-07T09:16:01Z</time></trkpt><trkpt lat="33.80805145453992" lon="8.772756093125626"><ele>23.0</ele><time>2026-04-07T09:16:02Z</time></trkpt><trkpt lat="33.808113843781435" lon="8.772482105559424"><ele>23.0</ele><time>2026-04-07T09:16:03Z</time></trkpt><trkpt lat="33.808173596835495" lon="8.772205828086989"><ele>23.0</ele><time>2026-04-07T09:16:04Z</time></trkpt><trkpt lat="33.808232951634174" lon="8.771931202201337"><ele>23.0</ele><time>2026-04-07T09:16:05Z</time></trkpt><trkpt lat="33.80829502807358" lon="8.771646944829298"><ele>23.0</ele><time>2026-04-07T09:16:06Z</time></trkpt><trkpt lat="33.80836020698734" lon="8.771365048860586"><ele>23.0</ele><time>2026-04-07T09:16:07Z</time></trkpt><trkpt lat="33.80842512733005" lon="8.771078750101466"><ele>23.0</ele><time>2026-04-07T09:16:08Z</time></trkpt><trkpt lat="33.808488965012785" lon="8.770793577988387"><ele>22.5</ele><time>2026-04-07T09:16:09Z</time></trkpt><trkpt lat="33.808552676518104" lon="8.770509467206516"><ele>22.0</ele><time>2026-04-07T09:16:10Z</time></trkpt><trkpt lat="33.80861674356607" lon="8.77022434762903"><ele>22.0</ele><time>2026-04-07T09:16:11Z</time></trkpt><trkpt lat="33.80868032667123" lon="8.769938328786857"><ele>22.0</ele><time>2026-04-07T09:16:12Z</time></trkpt><trkpt lat="33.80874184698616" lon="8.769654660357528"><ele>22.0</ele><time>2026-04-07T09:16:13Z</time></trkpt><trkpt lat="33.80880586323766" lon="8.769369518400968"><ele>22.0</ele><time>2026-04-07T09:16:14Z</time></trkpt><trkpt lat="33.80887216804865" lon="8.76908708068884"><ele>22.0</ele><time>2026-04-07T09:16:15Z</time></trkpt><trkpt lat="33.8089379200681" lon="8.76880448162501"><ele>22.0</ele><time>2026-04-07T09:16:16Z</time></trkpt><trkpt lat="33.80900179470956" lon="8.768521130640083"><ele>23.0</ele><time>2026-04-07T09:16:17Z</time></trkpt><trkpt lat="33.80906288830783" lon="8.76823718605818"><ele>24.0</ele><time>2026-04-07T09:16:18Z</time></trkpt><trkpt lat="33.80911986169337" lon="8.767951433953655"><ele>23.0</ele><time>2026-04-07T09:16:19Z</time></trkpt><trkpt lat="33.80917248150559" lon="8.767665252045731"><ele>22.0</ele><time>2026-04-07T09:16:20Z</time></trkpt><trkpt lat="33.80922198538998" lon="8.76737876158091"><ele>22.0</ele><time>2026-04-07T09:16:21Z</time></trkpt><trkpt lat="33.80927084049714" lon="8.76708885297177"><ele>22.0</ele><time>2026-04-07T09:16:22Z</time></trkpt><trkpt lat="33.80931674605576" lon="8.766801293785063"><ele>22.0</ele><time>2026-04-07T09:16:23Z</time></trkpt><trkpt lat="33.80936241212551" lon="8.76650968787785"><ele>22.0</ele><time>2026-04-07T09:16:24Z</time></trkpt><trkpt lat="33.80940686539753" lon="8.766221360282834"><ele>22.5</ele><time>2026-04-07T09:16:25Z</time></trkpt><trkpt lat="33.809450221256355" lon="8.765931590548274"><ele>23.0</ele><time>2026-04-07T09:16:26Z</time></trkpt><trkpt lat="33.8094936860214" lon="8.765640186128936"><ele>23.0</ele><time>2026-04-07T09:16:27Z</time></trkpt><trkpt lat="33.80953833969096" lon="8.765344134597768"><ele>23.0</ele><time>2026-04-07T09:16:28Z</time></trkpt><trkpt lat="33.80958153891588" lon="8.765043298753648"><ele>22.5</ele><time>2026-04-07T09:16:29Z</time></trkpt><trkpt lat="33.809624163682194" lon="8.764742335618493"><ele>22.0</ele><time>2026-04-07T09:16:30Z</time></trkpt><trkpt lat="33.809670964399665" lon="8.764442968048728"><ele>22.5</ele><time>2026-04-07T09:16:31Z</time></trkpt><trkpt lat="33.80972152700467" lon="8.764143822012803"><ele>23.0</ele><time>2026-04-07T09:16:32Z</time></trkpt><trkpt lat="33.80977261008859" lon="8.76384436829036"><ele>23.0</ele><time>2026-04-07T09:16:33Z</time></trkpt><trkpt lat="33.809823378434736" lon="8.763543982385928"><ele>23.0</ele><time>2026-04-07T09:16:34Z</time></trkpt><trkpt lat="33.809873086068215" lon="8.763243109550384"><ele>22.5</ele><time>2026-04-07T09:16:35Z</time></trkpt><trkpt lat="33.8099198330915" lon="8.762941281205075"><ele>22.0</ele><time>2026-04-07T09:16:36Z</time></trkpt><trkpt lat="33.809964565828764" lon="8.762641136960307"><ele>22.0</ele><time>2026-04-07T09:16:37Z</time></trkpt><trkpt lat="33.81001055195203" lon="8.762341129839283"><ele>22.0</ele><time>2026-04-07T09:16:38Z</time></trkpt><trkpt lat="33.81005977125737" lon="8.76204127068814"><ele>22.0</ele><time>2026-04-07T09:16:39Z</time></trkpt><trkpt lat="33.81010911898409" lon="8.76174118663188"><ele>22.0</ele><time>2026-04-07T09:16:40Z</time></trkpt><trkpt lat="33.81015619260428" lon="8.761442207012227"><ele>23.5</ele><time>2026-04-07T09:16:41Z</time></trkpt><trkpt lat="33.810201502386725" lon="8.761140230445383"><ele>25.0</ele><time>2026-04-07T09:16:42Z</time></trkpt><trkpt lat="33.81024737816016" lon="8.760839912238959"><ele>25.0</ele><time>2026-04-07T09:16:43Z</time></trkpt><trkpt lat="33.810295038025224" lon="8.760540216192743"><ele>25.0</ele><time>2026-04-07T09:16:44Z</time></trkpt><trkpt lat="33.810343799227844" lon="8.760240707759596"><ele>25.0</ele><time>2026-04-07T09:16:45Z</time></trkpt><trkpt lat="33.810394158126584" lon="8.759941375226017"><ele>25.0</ele><time>2026-04-07T09:16:46Z</time></trkpt><trkpt lat="33.810444013294216" lon="8.75964016267975"><ele>23.5</ele><time>2026-04-07T09:16:47Z</time></trkpt><trkpt lat="33.810492045000814" lon="8.75934069756776"><ele>22.0</ele><time>2026-04-07T09:16:48Z</time></trkpt><trkpt lat="33.81053892095577" lon="8.759040073394946"><ele>22.0</ele><time>2026-04-07T09:16:49Z</time></trkpt><trkpt lat="33.810584204359664" lon="8.758737954286753"><ele>22.0</ele><time>2026-04-07T09:16:50Z</time></trkpt><trkpt lat="33.81062951659735" lon="8.758438532708366"><ele>22.0</ele><time>2026-04-07T09:16:51Z</time></trkpt><trkpt lat="33.81067604751195" lon="8.758134961992692"><ele>22.0</ele><time>2026-04-07T09:16:52Z</time></trkpt><trkpt lat="33.81072332044781" lon="8.757829572806886"><ele>23.0</ele><time>2026-04-07T09:16:53Z</time></trkpt><trkpt lat="33.810770053341756" lon="8.757522687217657"><ele>24.0</ele><time>2026-04-07T09:16:54Z</time></trkpt><trkpt lat="33.81081799951278" lon="8.757213242358976"><ele>24.0</ele><time>2026-04-07T09:16:55Z</time></trkpt><trkpt lat="33.810865721981386" lon="8.756903628399533"><ele>24.0</ele><time>2026-04-07T09:16:56Z</time></trkpt><trkpt lat="33.81091278315697" lon="8.756593027175027"><ele>23.5</ele><time>2026-04-07T09:16:57Z</time></trkpt><trkpt lat="33.81096114203947" lon="8.756281518214761"><ele>23.0</ele><time>2026-04-07T09:16:58Z</time></trkpt><trkpt lat="33.81101026227871" lon="8.755969890794464"><ele>22.5</ele><time>2026-04-07T09:16:59Z</time></trkpt><trkpt lat="33.81105926935757" lon="8.755657128640193"><ele>22.0</ele><time>2026-04-07T09:17:00Z</time></trkpt><trkpt lat="33.81110836683483" lon="8.755343907904246"><ele>23.0</ele><time>2026-04-07T09:17:01Z</time></trkpt><trkpt lat="33.81115779410571" lon="8.755034351790371"><ele>24.0</ele><time>2026-04-07T09:17:02Z</time></trkpt><trkpt lat="33.811207890079636" lon="8.754722034106223"><ele>24.0</ele><time>2026-04-07T09:17:03Z</time></trkpt><trkpt lat="33.81125877336658" lon="8.754409845478028"><ele>24.0</ele><time>2026-04-07T09:17:04Z</time></trkpt><trkpt lat="33.81131172596382" lon="8.75410052898892"><ele>24.0</ele><time>2026-04-07T09:17:05Z</time></trkpt><trkpt lat="33.81136062394245" lon="8.753783356652175"><ele>24.0</ele><time>2026-04-07T09:17:06Z</time></trkpt><trkpt lat="33.81140680828197" lon="8.753469029082538"><ele>23.5</ele><time>2026-04-07T09:17:07Z</time></trkpt><trkpt lat="33.81145155201861" lon="8.753157451929097"><ele>23.0</ele><time>2026-04-07T09:17:08Z</time></trkpt><trkpt lat="33.81150004431513" lon="8.752844225437126"><ele>23.5</ele><time>2026-04-07T09:17:09Z</time></trkpt><trkpt lat="33.811549442873215" lon="8.752532426724356"><ele>24.0</ele><time>2026-04-07T09:17:10Z</time></trkpt><trkpt lat="33.8115984054737" lon="8.752221994769394"><ele>24.0</ele><time>2026-04-07T09:17:11Z</time></trkpt><trkpt lat="33.81164681087469" lon="8.75190969145612"><ele>24.0</ele><time>2026-04-07T09:17:12Z</time></trkpt><trkpt lat="33.81169354068083" lon="8.751597115577686"><ele>24.5</ele><time>2026-04-07T09:17:13Z</time></trkpt><trkpt lat="33.8117363635769" lon="8.75128311781835"><ele>25.0</ele><time>2026-04-07T09:17:14Z</time></trkpt><trkpt lat="33.811778986833936" lon="8.75097149224935"><ele>25.0</ele><time>2026-04-07T09:17:15Z</time></trkpt><trkpt lat="33.811821856313976" lon="8.750657711769007"><ele>25.0</ele><time>2026-04-07T09:17:16Z</time></trkpt><trkpt lat="33.81186394135253" lon="8.750344970897688"><ele>24.0</ele><time>2026-04-07T09:17:17Z</time></trkpt><trkpt lat="33.811905956745264" lon="8.750031016901234"><ele>23.0</ele><time>2026-04-07T09:17:18Z</time></trkpt><trkpt lat="33.811948152178395" lon="8.749715204523971"><ele>23.0</ele><time>2026-04-07T09:17:19Z</time></trkpt><trkpt lat="33.81199285319654" lon="8.749401177453716"><ele>23.0</ele><time>2026-04-07T09:17:20Z</time></trkpt><trkpt lat="33.81203609040867" lon="8.749087623025058"><ele>21.5</ele><time>2026-04-07T09:17:21Z</time></trkpt><trkpt lat="33.812078630904956" lon="8.74877359927001"><ele>20.0</ele><time>2026-04-07T09:17:22Z</time></trkpt><trkpt lat="33.81212029955446" lon="8.748461289509764"><ele>19.0</ele><time>2026-04-07T09:17:23Z</time></trkpt><trkpt lat="33.81216557424614" lon="8.748146239237515"><ele>18.0</ele><time>2026-04-07T09:17:24Z</time></trkpt><trkpt lat="33.81220876791651" lon="8.747829878369645"><ele>20.0</ele><time>2026-04-07T09:17:25Z</time></trkpt><trkpt lat="33.81225002489333" lon="8.747516358608886"><ele>22.0</ele><time>2026-04-07T09:17:26Z</time></trkpt><trkpt lat="33.81229349973938" lon="8.747200704356926"><ele>22.0</ele><time>2026-04-07T09:17:27Z</time></trkpt><trkpt lat="33.81233798125213" lon="8.74688988175405"><ele>22.0</ele><time>2026-04-07T09:17:28Z</time></trkpt><trkpt lat="33.812384088698956" lon="8.746578008382514"><ele>22.5</ele><time>2026-04-07T09:17:29Z</time></trkpt><trkpt lat="33.812425990186476" lon="8.746264524392695"><ele>23.0</ele><time>2026-04-07T09:17:30Z</time></trkpt><trkpt lat="33.81246558265772" lon="8.74594951264971"><ele>21.5</ele><time>2026-04-07T09:17:31Z</time></trkpt><trkpt lat="33.81250405389632" lon="8.745635063726821"><ele>20.0</ele><time>2026-04-07T09:17:32Z</time></trkpt><trkpt lat="33.81254700400015" lon="8.745324899861844"><ele>21.5</ele><time>2026-04-07T09:17:33Z</time></trkpt><trkpt lat="33.81258988479942" lon="8.745011825774498"><ele>23.0</ele><time>2026-04-07T09:17:34Z</time></trkpt><trkpt lat="33.812631261801485" lon="8.744699097608404"><ele>23.0</ele><time>2026-04-07T09:17:35Z</time></trkpt><trkpt lat="33.81267016219521" lon="8.744384480554082"><ele>23.0</ele><time>2026-04-07T09:17:36Z</time></trkpt><trkpt lat="33.812710693785284" lon="8.74406721834794"><ele>23.0</ele><time>2026-04-07T09:17:37Z</time></trkpt><trkpt lat="33.81275247433066" lon="8.74374674300944"><ele>23.0</ele><time>2026-04-07T09:17:38Z</time></trkpt><trkpt lat="33.81279603393536" lon="8.743426713913388"><ele>21.5</ele><time>2026-04-07T09:17:39Z</time></trkpt><trkpt lat="33.81283825809378" lon="8.743105614497036"><ele>20.0</ele><time>2026-04-07T09:17:40Z</time></trkpt><trkpt lat="33.812882932690464" lon="8.742780612159395"><ele>20.0</ele><time>2026-04-07T09:17:41Z</time></trkpt><trkpt lat="33.81292857710858" lon="8.742452746244359"><ele>20.0</ele><time>2026-04-07T09:17:42Z</time></trkpt><trkpt lat="33.81297517845351" lon="8.74212173261113"><ele>20.5</ele><time>2026-04-07T09:17:43Z</time></trkpt><trkpt lat="33.81302210084986" lon="8.741792384565432"><ele>21.0</ele><time>2026-04-07T09:17:44Z</time></trkpt><trkpt lat="33.8130663982255" lon="8.741463433989844"><ele>21.0</ele><time>2026-04-07T09:17:45Z</time></trkpt><trkpt lat="33.813112277886795" lon="8.741134965097409"><ele>21.0</ele><time>2026-04-07T09:17:46Z</time></trkpt><trkpt lat="33.8131585192016" lon="8.740806034337155"><ele>21.0</ele><time>2026-04-07T09:17:47Z</time></trkpt><trkpt lat="33.81320200880914" lon="8.740476246032765"><ele>21.0</ele><time>2026-04-07T09:17:48Z</time></trkpt><trkpt lat="33.81324608486332" lon="8.74014912893602"><ele>21.5</ele><time>2026-04-07T09:17:49Z</time></trkpt><trkpt lat="33.81328754382975" lon="8.739821060840644"><ele>22.0</ele><time>2026-04-07T09:17:50Z</time></trkpt><trkpt lat="33.81332839233127" lon="8.739491374743832"><ele>21.5</ele><time>2026-04-07T09:17:51Z</time></trkpt><trkpt lat="33.81336780110913" lon="8.739161600667313"><ele>21.0</ele><time>2026-04-07T09:17:52Z</time></trkpt><trkpt lat="33.81341128120219" lon="8.738834638435078"><ele>21.0</ele><time>2026-04-07T09:17:53Z</time></trkpt><trkpt lat="33.813458482725984" lon="8.738506368176958"><ele>21.0</ele><time>2026-04-07T09:17:54Z</time></trkpt><trkpt lat="33.813503876251254" lon="8.738179116496184"><ele>21.0</ele><time>2026-04-07T09:17:55Z</time></trkpt><trkpt lat="33.81354917099105" lon="8.737852972960951"><ele>21.0</ele><time>2026-04-07T09:17:56Z</time></trkpt><trkpt lat="33.81359304283487" lon="8.737526311113179"><ele>21.5</ele><time>2026-04-07T09:17:57Z</time></trkpt><trkpt lat="33.81363731850788" lon="8.737197128687837"><ele>22.0</ele><time>2026-04-07T09:17:58Z</time></trkpt><trkpt lat="33.813680538194355" lon="8.736870709832425"><ele>22.0</ele><time>2026-04-07T09:17:59Z</time></trkpt><trkpt lat="33.81372349832135" lon="8.736540645670667"><ele>22.0</ele><time>2026-04-07T09:18:00Z</time></trkpt><trkpt lat="33.8137672515292" lon="8.736211409167884"><ele>21.5</ele><time>2026-04-07T09:18:01Z</time></trkpt><trkpt lat="33.81381143544466" lon="8.735883943466998"><ele>21.0</ele><time>2026-04-07T09:18:02Z</time></trkpt><trkpt lat="33.81384968944498" lon="8.735552897984599"><ele>21.0</ele><time>2026-04-07T09:18:03Z</time></trkpt><trkpt lat="33.8138814197379" lon="8.735222281626944"><ele>21.0</ele><time>2026-04-07T09:18:04Z</time></trkpt><trkpt lat="33.81391091564847" lon="8.734896791277132"><ele>21.0</ele><time>2026-04-07T09:18:05Z</time></trkpt><trkpt lat="33.813937575846886" lon="8.734564970710416"><ele>21.0</ele><time>2026-04-07T09:18:06Z</time></trkpt><trkpt lat="33.81396219445309" lon="8.734235748430523"><ele>21.0</ele><time>2026-04-07T09:18:07Z</time></trkpt><trkpt lat="33.81398822549986" lon="8.733904747168777"><ele>21.0</ele><time>2026-04-07T09:18:08Z</time></trkpt><trkpt lat="33.814018509368445" lon="8.733573964379385"><ele>20.5</ele><time>2026-04-07T09:18:09Z</time></trkpt><trkpt lat="33.81404798892548" lon="8.733241731229581"><ele>20.0</ele><time>2026-04-07T09:18:10Z</time></trkpt><trkpt lat="33.81407736591481" lon="8.732909928846396"><ele>21.0</ele><time>2026-04-07T09:18:11Z</time></trkpt><trkpt lat="33.81410805666426" lon="8.73258157112971"><ele>22.0</ele><time>2026-04-07T09:18:12Z</time></trkpt><trkpt lat="33.814138013623484" lon="8.73225038668127"><ele>22.0</ele><time>2026-04-07T09:18:13Z</time></trkpt><trkpt lat="33.81416688228267" lon="8.731919402941266"><ele>22.0</ele><time>2026-04-07T09:18:14Z</time></trkpt><trkpt lat="33.81419384518181" lon="8.731588911095086"><ele>22.0</ele><time>2026-04-07T09:18:15Z</time></trkpt><trkpt lat="33.8142193668395" lon="8.73125648935864"><ele>22.0</ele><time>2026-04-07T09:18:16Z</time></trkpt><trkpt lat="33.81424520551327" lon="8.73092564247073"><ele>21.0</ele><time>2026-04-07T09:18:17Z</time></trkpt><trkpt lat="33.81427008808819" lon="8.730594406447826"><ele>20.0</ele><time>2026-04-07T09:18:18Z</time></trkpt><trkpt lat="33.81429381620129" lon="8.730261907207849"><ele>20.0</ele><time>2026-04-07T09:18:19Z</time></trkpt><trkpt lat="33.81431409966857" lon="8.729933009559932"><ele>20.0</ele><time>2026-04-07T09:18:20Z</time></trkpt><trkpt lat="33.81432694136149" lon="8.729601136367892"><ele>20.0</ele><time>2026-04-07T09:18:21Z</time></trkpt><trkpt lat="33.81433237450197" lon="8.729267597385071"><ele>20.0</ele><time>2026-04-07T09:18:22Z</time></trkpt><trkpt lat="33.814330675727625" lon="8.728933937525094"><ele>20.0</ele><time>2026-04-07T09:18:23Z</time></trkpt><trkpt lat="33.81432908463631" lon="8.728599787228775"><ele>20.0</ele><time>2026-04-07T09:18:24Z</time></trkpt><trkpt lat="33.81433029402028" lon="8.72826777779351"><ele>20.0</ele><time>2026-04-07T09:18:25Z</time></trkpt><trkpt lat="33.81434046112685" lon="8.72793578812715"><ele>20.0</ele><time>2026-04-07T09:18:26Z</time></trkpt><trkpt lat="33.81435674413383" lon="8.72760532934213"><ele>21.0</ele><time>2026-04-07T09:18:27Z</time></trkpt><trkpt lat="33.81438372978577" lon="8.727270803621453"><ele>22.0</ele><time>2026-04-07T09:18:28Z</time></trkpt><trkpt lat="33.814421520702844" lon="8.726942911749694"><ele>21.5</ele><time>2026-04-07T09:18:29Z</time></trkpt><trkpt lat="33.81447044394293" lon="8.726615606374013"><ele>21.0</ele><time>2026-04-07T09:18:30Z</time></trkpt><trkpt lat="33.814527679111244" lon="8.726289406083392"><ele>21.5</ele><time>2026-04-07T09:18:31Z</time></trkpt><trkpt lat="33.81459290537966" lon="8.725965112162763"><ele>22.0</ele><time>2026-04-07T09:18:32Z</time></trkpt><trkpt lat="33.81466883519786" lon="8.725645164063545"><ele>22.0</ele><time>2026-04-07T09:18:33Z</time></trkpt><trkpt lat="33.81475932521292" lon="8.725332265103273"><ele>22.0</ele><time>2026-04-07T09:18:34Z</time></trkpt><trkpt lat="33.81485606398804" lon="8.725019066814598"><ele>22.0</ele><time>2026-04-07T09:18:35Z</time></trkpt><trkpt lat="33.81495543274231" lon="8.72471032721565"><ele>22.0</ele><time>2026-04-07T09:18:36Z</time></trkpt><trkpt lat="33.815061265263445" lon="8.724401985574602"><ele>21.0</ele><time>2026-04-07T09:18:37Z</time></trkpt><trkpt lat="33.81517109069624" lon="8.724097684817378"><ele>20.0</ele><time>2026-04-07T09:18:38Z</time></trkpt><trkpt lat="33.815288126885896" lon="8.723796448650566"><ele>21.0</ele><time>2026-04-07T09:18:39Z</time></trkpt><trkpt lat="33.815407088753346" lon="8.723498803220787"><ele>22.0</ele><time>2026-04-07T09:18:40Z</time></trkpt><trkpt lat="33.815533822173975" lon="8.723204210061322"><ele>22.0</ele><time>2026-04-07T09:18:41Z</time></trkpt><trkpt lat="33.81566167309" lon="8.722907831391804"><ele>22.0</ele><time>2026-04-07T09:18:42Z</time></trkpt><trkpt lat="33.81578520170324" lon="8.722608017289"><ele>22.5</ele><time>2026-04-07T09:18:43Z</time></trkpt><trkpt lat="33.81590523152779" lon="8.722307106655567"><ele>23.0</ele><time>2026-04-07T09:18:44Z</time></trkpt><trkpt lat="33.81602160207231" lon="8.722004480665634"><ele>22.0</ele><time>2026-04-07T09:18:45Z</time></trkpt><trkpt lat="33.81613690299769" lon="8.721701543178964"><ele>21.0</ele><time>2026-04-07T09:18:46Z</time></trkpt><trkpt lat="33.816250890112165" lon="8.721398377355596"><ele>21.0</ele><time>2026-04-07T09:18:47Z</time></trkpt><trkpt lat="33.81636497550277" lon="8.72109616997466"><ele>21.0</ele><time>2026-04-07T09:18:48Z</time></trkpt><trkpt lat="33.81647985439928" lon="8.720795549471841"><ele>21.0</ele><time>2026-04-07T09:18:49Z</time></trkpt><trkpt lat="33.81659445520483" lon="8.72049324739644"><ele>21.0</ele><time>2026-04-07T09:18:50Z</time></trkpt><trkpt lat="33.816708353280625" lon="8.720191973846836"><ele>20.0</ele><time>2026-04-07T09:18:51Z</time></trkpt><trkpt lat="33.81682227220221" lon="8.719889765824835"><ele>19.0</ele><time>2026-04-07T09:18:52Z</time></trkpt><trkpt lat="33.81693722853523" lon="8.719587221752253"><ele>19.5</ele><time>2026-04-07T09:18:53Z</time></trkpt><trkpt lat="33.81705202393894" lon="8.7192889248072"><ele>20.0</ele><time>2026-04-07T09:18:54Z</time></trkpt><trkpt lat="33.817165207008124" lon="8.718994088350643"><ele>20.0</ele><time>2026-04-07T09:18:55Z</time></trkpt><trkpt lat="33.81728029554872" lon="8.71869887588287"><ele>20.0</ele><time>2026-04-07T09:18:56Z</time></trkpt><trkpt lat="33.81739496437021" lon="8.71840872049756"><ele>20.0</ele><time>2026-04-07T09:18:57Z</time></trkpt><trkpt lat="33.81750046061045" lon="8.718132452840186"><ele>20.0</ele><time>2026-04-07T09:18:58Z</time></trkpt><trkpt lat="33.817595722542954" lon="8.71788327519161"><ele>20.0</ele><time>2026-04-07T09:18:59Z</time></trkpt><trkpt lat="33.817682776564354" lon="8.71765541750807"><ele>20.0</ele><time>2026-04-07T09:19:00Z</time></trkpt><trkpt lat="33.81775917113102" lon="8.717456682961526"><ele>20.0</ele><time>2026-04-07T09:19:01Z</time></trkpt><trkpt lat="33.81782556497794" lon="8.717285533157039"><ele>20.0</ele><time>2026-04-07T09:19:02Z</time></trkpt><trkpt lat="33.81788019378531" lon="8.71714687488663"><ele>20.0</ele><time>2026-04-07T09:19:03Z</time></trkpt><trkpt lat="33.81792287400908" lon="8.71703992530381"><ele>20.0</ele><time>2026-04-07T09:19:04Z</time></trkpt><trkpt lat="33.81796062228387" lon="8.716947483508758"><ele>20.0</ele><time>2026-04-07T09:19:05Z</time></trkpt><trkpt lat="33.817997144101966" lon="8.71685888939342"><ele>20.0</ele><time>2026-04-07T09:19:06Z</time></trkpt><trkpt lat="33.81803051394633" lon="8.716774928937433"><ele>20.166666666666668</ele><time>2026-04-07T09:19:07Z</time></trkpt><trkpt lat="33.81806103328313" lon="8.716693667239866"><ele>20.333333333333336</ele><time>2026-04-07T09:19:08Z</time></trkpt><trkpt lat="33.81809434790798" lon="8.716609477457608"><ele>20.5</ele><time>2026-04-07T09:19:09Z</time></trkpt><trkpt lat="33.81812721990332" lon="8.716525490080196"><ele>20.666666666666668</ele><time>2026-04-07T09:19:10Z</time></trkpt><trkpt lat="33.81816104988476" lon="8.71644068103488"><ele>20.833333333333332</ele><time>2026-04-07T09:19:11Z</time></trkpt><trkpt lat="33.81819389318275" lon="8.716354175563403"><ele>21.0</ele><time>2026-04-07T09:19:12Z</time></trkpt><trkpt lat="33.81822671326811" lon="8.716269211186793"><ele>21.0</ele><time>2026-04-07T09:19:13Z</time></trkpt><trkpt lat="33.8182624029254" lon="8.716184288514757"><ele>21.0</ele><time>2026-04-07T09:19:14Z</time></trkpt><trkpt lat="33.81830175311667" lon="8.71609329966773"><ele>21.0</ele><time>2026-04-07T09:19:15Z</time></trkpt><trkpt lat="33.81834092105776" lon="8.715994639040003"><ele>21.0</ele><time>2026-04-07T09:19:16Z</time></trkpt><trkpt lat="33.81838242956005" lon="8.715890579100758"><ele>21.0</ele><time>2026-04-07T09:19:17Z</time></trkpt><trkpt lat="33.81843011781725" lon="8.715773220404104"><ele>21.0</ele><time>2026-04-07T09:19:18Z</time></trkpt><trkpt lat="33.818482146748565" lon="8.715645574927196"><ele>21.0</ele><time>2026-04-07T09:19:19Z</time></trkpt><trkpt lat="33.81853626293409" lon="8.715509256381967"><ele>21.0</ele><time>2026-04-07T09:19:20Z</time></trkpt><trkpt lat="33.818593770075736" lon="8.71536205266353"><ele>21.0</ele><time>2026-04-07T09:19:21Z</time></trkpt><trkpt lat="33.81866025733405" lon="8.715200808597698"><ele>20.333333333333332</ele><time>2026-04-07T09:19:22Z</time></trkpt><trkpt lat="33.81873230199204" lon="8.71502784820114"><ele>19.666666666666664</ele><time>2026-04-07T09:19:23Z</time></trkpt><trkpt lat="33.818806796316174" lon="8.7148411474659"><ele>19.0</ele><time>2026-04-07T09:19:24Z</time></trkpt><trkpt lat="33.818887016031944" lon="8.714636705940304"><ele>19.0</ele><time>2026-04-07T09:19:25Z</time></trkpt><trkpt lat="33.81896803619594" lon="8.714425776469799"><ele>19.0</ele><time>2026-04-07T09:19:26Z</time></trkpt><trkpt lat="33.819050866825684" lon="8.714205772061263"><ele>19.0</ele><time>2026-04-07T09:19:27Z</time></trkpt><trkpt lat="33.8191362171428" lon="8.713980642564199"><ele>19.333333333333332</ele><time>2026-04-07T09:19:28Z</time></trkpt><trkpt lat="33.81922933526966" lon="8.71374580525288"><ele>19.666666666666668</ele><time>2026-04-07T09:19:29Z</time></trkpt><trkpt lat="33.819326787012955" lon="8.713509202017269"><ele>20.0</ele><time>2026-04-07T09:19:30Z</time></trkpt><trkpt lat="33.81942527570354" lon="8.713268917003642"><ele>20.0</ele><time>2026-04-07T09:19:31Z</time></trkpt><trkpt lat="33.81952690324907" lon="8.713019454383252"><ele>20.0</ele><time>2026-04-07T09:19:32Z</time></trkpt><trkpt lat="33.81963023926746" lon="8.712765276648655"><ele>19.5</ele><time>2026-04-07T09:19:33Z</time></trkpt><trkpt lat="33.8197372624992" lon="8.712509303823314"><ele>19.0</ele><time>2026-04-07T09:19:34Z</time></trkpt><trkpt lat="33.81984967740697" lon="8.71225335295348"><ele>19.0</ele><time>2026-04-07T09:19:35Z</time></trkpt><trkpt lat="33.81996259312791" lon="8.711992051682962"><ele>19.0</ele><time>2026-04-07T09:19:36Z</time></trkpt><trkpt lat="33.82007359662906" lon="8.711727945823233"><ele>19.5</ele><time>2026-04-07T09:19:37Z</time></trkpt><trkpt lat="33.8201854856071" lon="8.711457890335906"><ele>20.0</ele><time>2026-04-07T09:19:38Z</time></trkpt><trkpt lat="33.82029636736122" lon="8.711185733381296"><ele>19.0</ele><time>2026-04-07T09:19:39Z</time></trkpt><trkpt lat="33.82041011762942" lon="8.710912187303954"><ele>18.0</ele><time>2026-04-07T09:19:40Z</time></trkpt><trkpt lat="33.82052672169926" lon="8.710636854275487"><ele>18.0</ele><time>2026-04-07T09:19:41Z</time></trkpt><trkpt lat="33.82064385718749" lon="8.710357812093333"><ele>18.0</ele><time>2026-04-07T09:19:42Z</time></trkpt><trkpt lat="33.82076444685915" lon="8.710078193561504"><ele>17.5</ele><time>2026-04-07T09:19:43Z</time></trkpt><trkpt lat="33.82088106923389" lon="8.709797216019187"><ele>17.0</ele><time>2026-04-07T09:19:44Z</time></trkpt><trkpt lat="33.82099664711649" lon="8.709509790362697"><ele>17.5</ele><time>2026-04-07T09:19:45Z</time></trkpt><trkpt lat="33.821115298280084" lon="8.70922362490885"><ele>18.0</ele><time>2026-04-07T09:19:46Z</time></trkpt><trkpt lat="33.82123586719369" lon="8.708935549674118"><ele>18.0</ele><time>2026-04-07T09:19:47Z</time></trkpt><trkpt lat="33.82135710045244" lon="8.708646086974133"><ele>18.0</ele><time>2026-04-07T09:19:48Z</time></trkpt><trkpt lat="33.821478856609154" lon="8.708354746029428"><ele>18.5</ele><time>2026-04-07T09:19:49Z</time></trkpt><trkpt lat="33.82160208141278" lon="8.708060309414716"><ele>19.0</ele><time>2026-04-07T09:19:50Z</time></trkpt><trkpt lat="33.821724639936065" lon="8.70776585264414"><ele>19.0</ele><time>2026-04-07T09:19:51Z</time></trkpt><trkpt lat="33.82185109751724" lon="8.70747120449483"><ele>19.0</ele><time>2026-04-07T09:19:52Z</time></trkpt><trkpt lat="33.82198019315946" lon="8.707172640400545"><ele>19.5</ele><time>2026-04-07T09:19:53Z</time></trkpt><trkpt lat="33.82210778653625" lon="8.706874759431146"><ele>20.0</ele><time>2026-04-07T09:19:54Z</time></trkpt><trkpt lat="33.82223163333266" lon="8.706576733078059"><ele>20.0</ele><time>2026-04-07T09:19:55Z</time></trkpt><trkpt lat="33.82235341572308" lon="8.706279390807032"><ele>20.0</ele><time>2026-04-07T09:19:56Z</time></trkpt><trkpt lat="33.82247741349569" lon="8.705983885417673"><ele>19.5</ele><time>2026-04-07T09:19:57Z</time></trkpt><trkpt lat="33.82260345277786" lon="8.705690759772237"><ele>19.0</ele><time>2026-04-07T09:19:58Z</time></trkpt><trkpt lat="33.82273141512704" lon="8.705397975041699"><ele>18.5</ele><time>2026-04-07T09:19:59Z</time></trkpt><trkpt lat="33.822856291691366" lon="8.705102644001755"><ele>18.0</ele><time>2026-04-07T09:20:00Z</time></trkpt><trkpt lat="33.82297901876656" lon="8.70480881872442"><ele>18.0</ele><time>2026-04-07T09:20:01Z</time></trkpt><trkpt lat="33.823100549954326" lon="8.704514974690223"><ele>18.0</ele><time>2026-04-07T09:20:02Z</time></trkpt><trkpt lat="33.82322385470739" lon="8.70421813383253"><ele>18.0</ele><time>2026-04-07T09:20:03Z</time></trkpt><trkpt lat="33.82334750925759" lon="8.70391332375549"><ele>18.0</ele><time>2026-04-07T09:20:04Z</time></trkpt><trkpt lat="33.82347382866261" lon="8.703606993773908"><ele>19.0</ele><time>2026-04-07T09:20:05Z</time></trkpt><trkpt lat="33.82360371672167" lon="8.703297573408372"><ele>20.0</ele><time>2026-04-07T09:20:06Z</time></trkpt><trkpt lat="33.82373562843919" lon="8.702985722273194"><ele>19.5</ele><time>2026-04-07T09:20:07Z</time></trkpt><trkpt lat="33.82386786177985" lon="8.702673406513648"><ele>19.0</ele><time>2026-04-07T09:20:08Z</time></trkpt><trkpt lat="33.82399921546533" lon="8.702361897379966"><ele>19.0</ele><time>2026-04-07T09:20:09Z</time></trkpt><trkpt lat="33.82412863452635" lon="8.702051398417412"><ele>19.0</ele><time>2026-04-07T09:20:10Z</time></trkpt><trkpt lat="33.824255739758634" lon="8.701745657123045"><ele>19.0</ele><time>2026-04-07T09:20:11Z</time></trkpt><trkpt lat="33.82438137211722" lon="8.701443652481712"><ele>19.0</ele><time>2026-04-07T09:20:12Z</time></trkpt><trkpt lat="33.82450850190603" lon="8.701143666128196"><ele>18.5</ele><time>2026-04-07T09:20:13Z</time></trkpt><trkpt lat="33.82463346241405" lon="8.700850802286816"><ele>18.0</ele><time>2026-04-07T09:20:14Z</time></trkpt><trkpt lat="33.82475641531453" lon="8.700563123546392"><ele>18.0</ele><time>2026-04-07T09:20:15Z</time></trkpt><trkpt lat="33.82487943335303" lon="8.700277866388848"><ele>18.0</ele><time>2026-04-07T09:20:16Z</time></trkpt><trkpt lat="33.825001714243776" lon="8.699990942861518"><ele>18.0</ele><time>2026-04-07T09:20:17Z</time></trkpt><trkpt lat="33.82512540361194" lon="8.699701587454005"><ele>18.0</ele><time>2026-04-07T09:20:18Z</time></trkpt><trkpt lat="33.825251037111684" lon="8.699408761468447"><ele>18.0</ele><time>2026-04-07T09:20:19Z</time></trkpt><trkpt lat="33.82537606095141" lon="8.699110601739548"><ele>18.0</ele><time>2026-04-07T09:20:20Z</time></trkpt><trkpt lat="33.825497628234146" lon="8.698804860494395"><ele>18.5</ele><time>2026-04-07T09:20:21Z</time></trkpt><trkpt lat="33.82561937313259" lon="8.698489032547968"><ele>19.0</ele><time>2026-04-07T09:20:22Z</time></trkpt><trkpt lat="33.82574567260383" lon="8.698172958336878"><ele>19.0</ele><time>2026-04-07T09:20:23Z</time></trkpt><trkpt lat="33.82587874740811" lon="8.697859260096493"><ele>19.0</ele><time>2026-04-07T09:20:24Z</time></trkpt><trkpt lat="33.82601154159172" lon="8.69754707937556"><ele>18.0</ele><time>2026-04-07T09:20:25Z</time></trkpt><trkpt lat="33.826143286065005" lon="8.697237131104508"><ele>17.0</ele><time>2026-04-07T09:20:26Z</time></trkpt><trkpt lat="33.82627094494999" lon="8.696931984495603"><ele>17.0</ele><time>2026-04-07T09:20:27Z</time></trkpt><trkpt lat="33.826398153798785" lon="8.69662756888315"><ele>17.0</ele><time>2026-04-07T09:20:28Z</time></trkpt><trkpt lat="33.826524936271475" lon="8.696323192362167"><ele>17.0</ele><time>2026-04-07T09:20:29Z</time></trkpt><trkpt lat="33.82665337352761" lon="8.69601531503644"><ele>17.0</ele><time>2026-04-07T09:20:30Z</time></trkpt><trkpt lat="33.82678131068027" lon="8.695709682412655"><ele>17.0</ele><time>2026-04-07T09:20:31Z</time></trkpt><trkpt lat="33.82690776159501" lon="8.695406281251456"><ele>17.0</ele><time>2026-04-07T09:20:32Z</time></trkpt><trkpt lat="33.82703607441954" lon="8.69509917766585"><ele>17.0</ele><time>2026-04-07T09:20:33Z</time></trkpt><trkpt lat="33.82716423865031" lon="8.69479339675529"><ele>17.0</ele><time>2026-04-07T09:20:34Z</time></trkpt><trkpt lat="33.82729466517671" lon="8.694485020630806"><ele>18.5</ele><time>2026-04-07T09:20:35Z</time></trkpt><trkpt lat="33.82742688394901" lon="8.6941739116982"><ele>20.0</ele><time>2026-04-07T09:20:36Z</time></trkpt><trkpt lat="33.82756089311228" lon="8.69386746403744"><ele>18.5</ele><time>2026-04-07T09:20:37Z</time></trkpt><trkpt lat="33.827697416513956" lon="8.693561289267794"><ele>17.0</ele><time>2026-04-07T09:20:38Z</time></trkpt><trkpt lat="33.82783565117909" lon="8.693254591627072"><ele>17.0</ele><time>2026-04-07T09:20:39Z</time></trkpt><trkpt lat="33.827975715205035" lon="8.692947607241388"><ele>17.0</ele><time>2026-04-07T09:20:40Z</time></trkpt><trkpt lat="33.82811520259977" lon="8.692639520447454"><ele>17.5</ele><time>2026-04-07T09:20:41Z</time></trkpt><trkpt lat="33.82825481994941" lon="8.692330081068933"><ele>18.0</ele><time>2026-04-07T09:20:42Z</time></trkpt><trkpt lat="33.82839487146094" lon="8.69202091865172"><ele>20.0</ele><time>2026-04-07T09:20:43Z</time></trkpt><trkpt lat="33.828536601551086" lon="8.691709638335842"><ele>22.0</ele><time>2026-04-07T09:20:44Z</time></trkpt><trkpt lat="33.82867586970013" lon="8.691400177347377"><ele>22.0</ele><time>2026-04-07T09:20:45Z</time></trkpt><trkpt lat="33.82881190750393" lon="8.691096371564436"><ele>22.0</ele><time>2026-04-07T09:20:46Z</time></trkpt><trkpt lat="33.828945554330275" lon="8.690795870486038"><ele>19.5</ele><time>2026-04-07T09:20:47Z</time></trkpt><trkpt lat="33.829072338536506" lon="8.690513721087958"><ele>17.0</ele><time>2026-04-07T09:20:48Z</time></trkpt><trkpt lat="33.82919315446378" lon="8.69024617415434"><ele>16.5</ele><time>2026-04-07T09:20:49Z</time></trkpt><trkpt lat="33.8293128358938" lon="8.6899805411772"><ele>16.0</ele><time>2026-04-07T09:20:50Z</time></trkpt><trkpt lat="33.829436086305044" lon="8.689706341239724"><ele>16.0</ele><time>2026-04-07T09:20:51Z</time></trkpt><trkpt lat="33.829561794691095" lon="8.68942726274355"><ele>16.0</ele><time>2026-04-07T09:20:52Z</time></trkpt><trkpt lat="33.82968651329471" lon="8.689142698498019"><ele>17.0</ele><time>2026-04-07T09:20:53Z</time></trkpt><trkpt lat="33.82981235525881" lon="8.688859461319117"><ele>18.0</ele><time>2026-04-07T09:20:54Z</time></trkpt><trkpt lat="33.82994251866194" lon="8.68857200351505"><ele>18.0</ele><time>2026-04-07T09:20:55Z</time></trkpt><trkpt lat="33.830073965129294" lon="8.688280349532995"><ele>18.0</ele><time>2026-04-07T09:20:56Z</time></trkpt><trkpt lat="33.830205318431844" lon="8.687988087876242"><ele>18.5</ele><time>2026-04-07T09:20:57Z</time></trkpt><trkpt lat="33.830337572326066" lon="8.687697951259345"><ele>19.0</ele><time>2026-04-07T09:20:58Z</time></trkpt><trkpt lat="33.83047192374585" lon="8.687409125983033"><ele>19.0</ele><time>2026-04-07T09:20:59Z</time></trkpt><trkpt lat="33.830605443021014" lon="8.687113617297785"><ele>19.0</ele><time>2026-04-07T09:21:00Z</time></trkpt><trkpt lat="33.83074088943867" lon="8.68681492677384"><ele>18.0</ele><time>2026-04-07T09:21:01Z</time></trkpt><trkpt lat="33.83087485555926" lon="8.686515343332667"><ele>17.0</ele><time>2026-04-07T09:21:02Z</time></trkpt><trkpt lat="33.831010075824985" lon="8.686204769386356"><ele>18.0</ele><time>2026-04-07T09:21:03Z</time></trkpt><trkpt lat="33.83114618807493" lon="8.68588079849917"><ele>19.0</ele><time>2026-04-07T09:21:04Z</time></trkpt><trkpt lat="33.83128859958795" lon="8.68554343635788"><ele>19.0</ele><time>2026-04-07T09:21:05Z</time></trkpt><trkpt lat="33.831442659517506" lon="8.685193551383538"><ele>19.0</ele><time>2026-04-07T09:21:06Z</time></trkpt><trkpt lat="33.83160520929796" lon="8.684838466978805"><ele>19.0</ele><time>2026-04-07T09:21:07Z</time></trkpt><trkpt lat="33.831768458669835" lon="8.684489969105423"><ele>19.0</ele><time>2026-04-07T09:21:08Z</time></trkpt><trkpt lat="33.83193052096083" lon="8.684148543394437"><ele>18.0</ele><time>2026-04-07T09:21:09Z</time></trkpt><trkpt lat="33.832091052611574" lon="8.683808323443658"><ele>17.0</ele><time>2026-04-07T09:21:10Z</time></trkpt><trkpt lat="33.83224946553465" lon="8.683463419158217"><ele>17.0</ele><time>2026-04-07T09:21:11Z</time></trkpt><trkpt lat="33.83240568580143" lon="8.683116876274376"><ele>17.0</ele><time>2026-04-07T09:21:12Z</time></trkpt><trkpt lat="33.83256047770504" lon="8.682763970983917"><ele>17.0</ele><time>2026-04-07T09:21:13Z</time></trkpt><trkpt lat="33.83271311844032" lon="8.682413583164"><ele>17.0</ele><time>2026-04-07T09:21:14Z</time></trkpt><trkpt lat="33.83286635137359" lon="8.682064549962929"><ele>18.0</ele><time>2026-04-07T09:21:15Z</time></trkpt><trkpt lat="33.83302162584174" lon="8.681717804187823"><ele>19.0</ele><time>2026-04-07T09:21:16Z</time></trkpt><trkpt lat="33.833178326496075" lon="8.68137073383508"><ele>18.5</ele><time>2026-04-07T09:21:17Z</time></trkpt><trkpt lat="33.83333431636204" lon="8.681026557914347"><ele>18.0</ele><time>2026-04-07T09:21:18Z</time></trkpt><trkpt lat="33.83349260902148" lon="8.680678047922342"><ele>17.5</ele><time>2026-04-07T09:21:19Z</time></trkpt><trkpt lat="33.83365199033867" lon="8.680327665252452"><ele>17.0</ele><time>2026-04-07T09:21:20Z</time></trkpt><trkpt lat="33.83380961905373" lon="8.67997966615043"><ele>16.5</ele><time>2026-04-07T09:21:21Z</time></trkpt><trkpt lat="33.83396735022177" lon="8.679632583126285"><ele>16.0</ele><time>2026-04-07T09:21:22Z</time></trkpt><trkpt lat="33.83412241108258" lon="8.679280478570865"><ele>17.0</ele><time>2026-04-07T09:21:23Z</time></trkpt><trkpt lat="33.834274251426045" lon="8.678932691462549"><ele>18.0</ele><time>2026-04-07T09:21:24Z</time></trkpt><trkpt lat="33.83442690502061" lon="8.678582600181539"><ele>19.0</ele><time>2026-04-07T09:21:25Z</time></trkpt><trkpt lat="33.834582157727915" lon="8.678234793450743"><ele>20.0</ele><time>2026-04-07T09:21:26Z</time></trkpt><trkpt lat="33.8347388103947" lon="8.677891119286999"><ele>20.0</ele><time>2026-04-07T09:21:27Z</time></trkpt><trkpt lat="33.834893038787975" lon="8.677548999852196"><ele>20.0</ele><time>2026-04-07T09:21:28Z</time></trkpt><trkpt lat="33.83504483566079" lon="8.677210941500874"><ele>19.0</ele><time>2026-04-07T09:21:29Z</time></trkpt><trkpt lat="33.835193047003" lon="8.676882482889285"><ele>18.0</ele><time>2026-04-07T09:21:30Z</time></trkpt><trkpt lat="33.83533370616903" lon="8.676567336124531"><ele>18.0</ele><time>2026-04-07T09:21:31Z</time></trkpt><trkpt lat="33.83547239507602" lon="8.676259385829525"><ele>18.0</ele><time>2026-04-07T09:21:32Z</time></trkpt><trkpt lat="33.83561048016072" lon="8.675953810852699"><ele>18.0</ele><time>2026-04-07T09:21:33Z</time></trkpt><trkpt lat="33.83574733228791" lon="8.675648944947747"><ele>18.0</ele><time>2026-04-07T09:21:34Z</time></trkpt><trkpt lat="33.835884143489125" lon="8.675347580757268"><ele>19.5</ele><time>2026-04-07T09:21:35Z</time></trkpt><trkpt lat="33.83601716637732" lon="8.67505078082228"><ele>21.0</ele><time>2026-04-07T09:21:36Z</time></trkpt><trkpt lat="33.836149006144986" lon="8.674754575121597"><ele>21.0</ele><time>2026-04-07T09:21:37Z</time></trkpt><trkpt lat="33.83627710262251" lon="8.67446203648144"><ele>21.0</ele><time>2026-04-07T09:21:38Z</time></trkpt><trkpt lat="33.83640885467505" lon="8.67416848114309"><ele>20.5</ele><time>2026-04-07T09:21:39Z</time></trkpt><trkpt lat="33.836538730131124" lon="8.673875399971891"><ele>20.0</ele><time>2026-04-07T09:21:40Z</time></trkpt><trkpt lat="33.83667349741892" lon="8.67357830216872"><ele>20.0</ele><time>2026-04-07T09:21:41Z</time></trkpt><trkpt lat="33.836808632700425" lon="8.673282527367943"><ele>20.0</ele><time>2026-04-07T09:21:42Z</time></trkpt><trkpt lat="33.83694229319796" lon="8.672990950903896"><ele>19.0</ele><time>2026-04-07T09:21:43Z</time></trkpt><trkpt lat="33.83707119831846" lon="8.67270049400575"><ele>18.0</ele><time>2026-04-07T09:21:44Z</time></trkpt><trkpt lat="33.837195679413114" lon="8.672408557465642"><ele>18.0</ele><time>2026-04-07T09:21:45Z</time></trkpt><trkpt lat="33.83731888683825" lon="8.672120313287285"><ele>18.0</ele><time>2026-04-07T09:21:46Z</time></trkpt><trkpt lat="33.83744484619654" lon="8.671835054633545"><ele>17.0</ele><time>2026-04-07T09:21:47Z</time></trkpt><trkpt lat="33.837569573288086" lon="8.671559004501288"><ele>16.0</ele><time>2026-04-07T09:21:48Z</time></trkpt><trkpt lat="33.83769494201193" lon="8.67128325918912"><ele>16.0</ele><time>2026-04-07T09:21:49Z</time></trkpt><trkpt lat="33.83782157015187" lon="8.671004860379451"><ele>16.0</ele><time>2026-04-07T09:21:50Z</time></trkpt><trkpt lat="33.837946711576514" lon="8.670729598184831"><ele>16.0</ele><time>2026-04-07T09:21:51Z</time></trkpt><trkpt lat="33.83807080803577" lon="8.670450884600957"><ele>16.0</ele><time>2026-04-07T09:21:52Z</time></trkpt><trkpt lat="33.83819527340087" lon="8.67017598660186"><ele>16.0</ele><time>2026-04-07T09:21:53Z</time></trkpt><trkpt lat="33.83832028966521" lon="8.669902868611999"><ele>16.0</ele><time>2026-04-07T09:21:54Z</time></trkpt><trkpt lat="33.83844254287682" lon="8.669632943002211"><ele>16.5</ele><time>2026-04-07T09:21:55Z</time></trkpt><trkpt lat="33.838561902650596" lon="8.669361562933624"><ele>17.0</ele><time>2026-04-07T09:21:56Z</time></trkpt><trkpt lat="33.838682978297655" lon="8.669085607882792"><ele>17.0</ele><time>2026-04-07T09:21:57Z</time></trkpt><trkpt lat="33.83881285589307" lon="8.668797238447597"><ele>17.0</ele><time>2026-04-07T09:21:58Z</time></trkpt><trkpt lat="33.83895160495979" lon="8.668498476788086"><ele>18.5</ele><time>2026-04-07T09:21:59Z</time></trkpt><trkpt lat="33.839086410373525" lon="8.668201786031513"><ele>20.0</ele><time>2026-04-07T09:22:00Z</time></trkpt><trkpt lat="33.83920988843493" lon="8.667914289420583"><ele>19.5</ele><time>2026-04-07T09:22:01Z</time></trkpt><trkpt lat="33.83932894683841" lon="8.667636950840494"><ele>19.0</ele><time>2026-04-07T09:22:02Z</time></trkpt><trkpt lat="33.839447462520205" lon="8.667365924956496"><ele>19.0</ele><time>2026-04-07T09:22:03Z</time></trkpt><trkpt lat="33.839567069548394" lon="8.667095788284502"><ele>19.0</ele><time>2026-04-07T09:22:04Z</time></trkpt><trkpt lat="33.83969173975706" lon="8.66682539517717"><ele>20.5</ele><time>2026-04-07T09:22:05Z</time></trkpt><trkpt lat="33.83981512010718" lon="8.666558772043752"><ele>22.0</ele><time>2026-04-07T09:22:06Z</time></trkpt><trkpt lat="33.83993694489325" lon="8.666292722879101"><ele>20.5</ele><time>2026-04-07T09:22:07Z</time></trkpt><trkpt lat="33.840058211675284" lon="8.666031757800114"><ele>19.0</ele><time>2026-04-07T09:22:08Z</time></trkpt><trkpt lat="33.840177942499786" lon="8.665768240144414"><ele>19.0</ele><time>2026-04-07T09:22:09Z</time></trkpt><trkpt lat="33.840296657694715" lon="8.665499191659425"><ele>19.0</ele><time>2026-04-07T09:22:10Z</time></trkpt><trkpt lat="33.84041730203552" lon="8.665229362761638"><ele>18.0</ele><time>2026-04-07T09:22:11Z</time></trkpt><trkpt lat="33.84054051781557" lon="8.664961218309802"><ele>17.0</ele><time>2026-04-07T09:22:12Z</time></trkpt><trkpt lat="33.840665893826" lon="8.664693744575189"><ele>17.0</ele><time>2026-04-07T09:22:13Z</time></trkpt><trkpt lat="33.84079312991058" lon="8.66443007351427"><ele>17.0</ele><time>2026-04-07T09:22:14Z</time></trkpt><trkpt lat="33.84091952291618" lon="8.664168418771466"><ele>16.5</ele><time>2026-04-07T09:22:15Z</time></trkpt><trkpt lat="33.8410453489948" lon="8.663908208380674"><ele>16.0</ele><time>2026-04-07T09:22:16Z</time></trkpt><trkpt lat="33.84117216204638" lon="8.663643297860231"><ele>18.0</ele><time>2026-04-07T09:22:17Z</time></trkpt><trkpt lat="33.84129686035839" lon="8.663379357235186"><ele>20.0</ele><time>2026-04-07T09:22:18Z</time></trkpt><trkpt lat="33.8414218066947" lon="8.663115626485782"><ele>20.0</ele><time>2026-04-07T09:22:19Z</time></trkpt><trkpt lat="33.84154656306843" lon="8.662851844030158"><ele>20.0</ele><time>2026-04-07T09:22:20Z</time></trkpt><trkpt lat="33.84167315282647" lon="8.662589526266043"><ele>19.0</ele><time>2026-04-07T09:22:21Z</time></trkpt><trkpt lat="33.841799978626305" lon="8.66232995912151"><ele>18.0</ele><time>2026-04-07T09:22:22Z</time></trkpt><trkpt lat="33.841928539473464" lon="8.662064123926426"><ele>19.0</ele><time>2026-04-07T09:22:23Z</time></trkpt><trkpt lat="33.842055636444535" lon="8.661799624377366"><ele>20.0</ele><time>2026-04-07T09:22:24Z</time></trkpt><trkpt lat="33.842185256765866" lon="8.661530201701753"><ele>20.0</ele><time>2026-04-07T09:22:25Z</time></trkpt><trkpt lat="33.842314431539286" lon="8.661260790454046"><ele>20.0</ele><time>2026-04-07T09:22:26Z</time></trkpt><trkpt lat="33.84244487428263" lon="8.660987527092354"><ele>19.5</ele><time>2026-04-07T09:22:27Z</time></trkpt><trkpt lat="33.84257717933396" lon="8.660711799625414"><ele>19.0</ele><time>2026-04-07T09:22:28Z</time></trkpt><trkpt lat="33.842710667517444" lon="8.660434484285943"><ele>18.5</ele><time>2026-04-07T09:22:29Z</time></trkpt><trkpt lat="33.8428435939403" lon="8.660157586662956"><ele>18.0</ele><time>2026-04-07T09:22:30Z</time></trkpt><trkpt lat="33.84297574778378" lon="8.659880027799067"><ele>18.0</ele><time>2026-04-07T09:22:31Z</time></trkpt><trkpt lat="33.84310821761915" lon="8.659600526775343"><ele>18.0</ele><time>2026-04-07T09:22:32Z</time></trkpt><trkpt lat="33.84323565948783" lon="8.659325369177063"><ele>17.5</ele><time>2026-04-07T09:22:33Z</time></trkpt><trkpt lat="33.84336613232937" lon="8.659049768516237"><ele>17.0</ele><time>2026-04-07T09:22:34Z</time></trkpt><trkpt lat="33.84349956641863" lon="8.658773757675206"><ele>17.0</ele><time>2026-04-07T09:22:35Z</time></trkpt><trkpt lat="33.84363390375442" lon="8.658497622966786"><ele>17.0</ele><time>2026-04-07T09:22:36Z</time></trkpt><trkpt lat="33.84376543793763" lon="8.658223668393157"><ele>17.0</ele><time>2026-04-07T09:22:37Z</time></trkpt><trkpt lat="33.84389839249547" lon="8.657947101292924"><ele>17.0</ele><time>2026-04-07T09:22:38Z</time></trkpt><trkpt lat="33.844030887687424" lon="8.657673413616152"><ele>17.0</ele><time>2026-04-07T09:22:39Z</time></trkpt><trkpt lat="33.84416627519278" lon="8.657396429116567"><ele>17.0</ele><time>2026-04-07T09:22:40Z</time></trkpt><trkpt lat="33.844301430785706" lon="8.657118778893452"><ele>18.5</ele><time>2026-04-07T09:22:41Z</time></trkpt><trkpt lat="33.84443607926248" lon="8.656842248286932"><ele>20.0</ele><time>2026-04-07T09:22:42Z</time></trkpt><trkpt lat="33.844573372051606" lon="8.656565892261058"><ele>20.0</ele><time>2026-04-07T09:22:43Z</time></trkpt><trkpt lat="33.84470678189329" lon="8.656290957727414"><ele>20.0</ele><time>2026-04-07T09:22:44Z</time></trkpt><trkpt lat="33.84484069963244" lon="8.656013012254043"><ele>19.5</ele><time>2026-04-07T09:22:45Z</time></trkpt><trkpt lat="33.84497084749598" lon="8.655736021900136"><ele>19.0</ele><time>2026-04-07T09:22:46Z</time></trkpt><trkpt lat="33.84510266882611" lon="8.65546254164565"><ele>17.0</ele><time>2026-04-07T09:22:47Z</time></trkpt><trkpt lat="33.845234478714694" lon="8.655194518162777"><ele>15.0</ele><time>2026-04-07T09:22:48Z</time></trkpt><trkpt lat="33.84536458352351" lon="8.654925482382238"><ele>15.0</ele><time>2026-04-07T09:22:49Z</time></trkpt><trkpt lat="33.84549557792032" lon="8.654654199220042"><ele>15.0</ele><time>2026-04-07T09:22:50Z</time></trkpt><trkpt lat="33.84562553722858" lon="8.654385904344027"><ele>17.5</ele><time>2026-04-07T09:22:51Z</time></trkpt><trkpt lat="33.84575558023468" lon="8.65411686576145"><ele>20.0</ele><time>2026-04-07T09:22:52Z</time></trkpt><trkpt lat="33.84588711562817" lon="8.653842139322656"><ele>19.0</ele><time>2026-04-07T09:22:53Z</time></trkpt><trkpt lat="33.84601790709728" lon="8.653567455875415"><ele>18.0</ele><time>2026-04-07T09:22:54Z</time></trkpt><trkpt lat="33.84615146907926" lon="8.653291984035826"><ele>18.0</ele><time>2026-04-07T09:22:55Z</time></trkpt><trkpt lat="33.846284809232806" lon="8.653014735364852"><ele>18.0</ele><time>2026-04-07T09:22:56Z</time></trkpt><trkpt lat="33.846417448402946" lon="8.652739902144337"><ele>17.0</ele><time>2026-04-07T09:22:57Z</time></trkpt><trkpt lat="33.84654921961987" lon="8.652462603018174"><ele>16.0</ele><time>2026-04-07T09:22:58Z</time></trkpt><trkpt lat="33.84667768521542" lon="8.652185061485312"><ele>16.5</ele><time>2026-04-07T09:22:59Z</time></trkpt><trkpt lat="33.84680744593566" lon="8.651906915291995"><ele>17.0</ele><time>2026-04-07T09:23:00Z</time></trkpt><trkpt lat="33.84693987592327" lon="8.651629681197953"><ele>17.0</ele><time>2026-04-07T09:23:01Z</time></trkpt><trkpt lat="33.847075536589706" lon="8.65135537126353"><ele>17.0</ele><time>2026-04-07T09:23:02Z</time></trkpt><trkpt lat="33.84720963877103" lon="8.651080991871229"><ele>16.5</ele><time>2026-04-07T09:23:03Z</time></trkpt><trkpt lat="33.84734067464528" lon="8.65081043953836"><ele>16.0</ele><time>2026-04-07T09:23:04Z</time></trkpt><trkpt lat="33.8474658219597" lon="8.650546980866201"><ele>18.0</ele><time>2026-04-07T09:23:05Z</time></trkpt><trkpt lat="33.84758957788147" lon="8.650285940161025"><ele>20.0</ele><time>2026-04-07T09:23:06Z</time></trkpt><trkpt lat="33.84771345585852" lon="8.650026682253298"><ele>20.0</ele><time>2026-04-07T09:23:07Z</time></trkpt><trkpt lat="33.84783641522917" lon="8.64977374735623"><ele>20.0</ele><time>2026-04-07T09:23:08Z</time></trkpt><trkpt lat="33.84795973852369" lon="8.649521444596653"><ele>19.5</ele><time>2026-04-07T09:23:09Z</time></trkpt><trkpt lat="33.8480829180064" lon="8.649265289197794"><ele>19.0</ele><time>2026-04-07T09:23:10Z</time></trkpt><trkpt lat="33.84820700652289" lon="8.649010816626758"><ele>19.0</ele><time>2026-04-07T09:23:11Z</time></trkpt><trkpt lat="33.84833064622617" lon="8.648754788731688"><ele>19.0</ele><time>2026-04-07T09:23:12Z</time></trkpt><trkpt lat="33.848452214968916" lon="8.648500376909992"><ele>18.5</ele><time>2026-04-07T09:23:13Z</time></trkpt><trkpt lat="33.84857096207221" lon="8.648249836006563"><ele>18.0</ele><time>2026-04-07T09:23:14Z</time></trkpt><trkpt lat="33.84869276766761" lon="8.64800091799567"><ele>18.5</ele><time>2026-04-07T09:23:15Z</time></trkpt><trkpt lat="33.84881208549135" lon="8.647756560944805"><ele>19.0</ele><time>2026-04-07T09:23:16Z</time></trkpt><trkpt lat="33.84893146055938" lon="8.647508786770219"><ele>19.0</ele><time>2026-04-07T09:23:17Z</time></trkpt><trkpt lat="33.84905092018363" lon="8.647258888304705"><ele>19.0</ele><time>2026-04-07T09:23:18Z</time></trkpt><trkpt lat="33.84917011378192" lon="8.647010570795285"><ele>19.0</ele><time>2026-04-07T09:23:19Z</time></trkpt><trkpt lat="33.84928929220797" lon="8.646759975196506"><ele>19.0</ele><time>2026-04-07T09:23:20Z</time></trkpt><trkpt lat="33.84940893576872" lon="8.646507806840988"><ele>19.5</ele><time>2026-04-07T09:23:21Z</time></trkpt><trkpt lat="33.849527727497225" lon="8.646256479040604"><ele>20.0</ele><time>2026-04-07T09:23:22Z</time></trkpt><trkpt lat="33.84964673582453" lon="8.646004115579768"><ele>20.5</ele><time>2026-04-07T09:23:23Z</time></trkpt><trkpt lat="33.849766753152736" lon="8.645752986168429"><ele>21.0</ele><time>2026-04-07T09:23:24Z</time></trkpt><trkpt lat="33.849885249230695" lon="8.645502077944267"><ele>19.5</ele><time>2026-04-07T09:23:25Z</time></trkpt><trkpt lat="33.85000260189856" lon="8.645253327159967"><ele>18.0</ele><time>2026-04-07T09:23:26Z</time></trkpt><trkpt lat="33.85011820166079" lon="8.645007581095536"><ele>18.5</ele><time>2026-04-07T09:23:27Z</time></trkpt><trkpt lat="33.85023424675562" lon="8.644767071329815"><ele>19.0</ele><time>2026-04-07T09:23:28Z</time></trkpt><trkpt lat="33.850350428030175" lon="8.644520914839944"><ele>19.5</ele><time>2026-04-07T09:23:29Z</time></trkpt><trkpt lat="33.850467355586005" lon="8.644278474008551"><ele>20.0</ele><time>2026-04-07T09:23:30Z</time></trkpt><trkpt lat="33.85058422168644" lon="8.644035702836252"><ele>20.0</ele><time>2026-04-07T09:23:31Z</time></trkpt><trkpt lat="33.85069975257225" lon="8.64378911642298"><ele>20.0</ele><time>2026-04-07T09:23:32Z</time></trkpt><trkpt lat="33.85081137408678" lon="8.643545369194301"><ele>19.0</ele><time>2026-04-07T09:23:33Z</time></trkpt><trkpt lat="33.85092778794126" lon="8.643306227216547"><ele>18.0</ele><time>2026-04-07T09:23:34Z</time></trkpt><trkpt lat="33.85104795345018" lon="8.643062252706237"><ele>18.0</ele><time>2026-04-07T09:23:35Z</time></trkpt><trkpt lat="33.85116632636566" lon="8.642816390897298"><ele>18.0</ele><time>2026-04-07T09:23:36Z</time></trkpt><trkpt lat="33.85128301198204" lon="8.64256807641321"><ele>17.5</ele><time>2026-04-07T09:23:37Z</time></trkpt><trkpt lat="33.851397848276086" lon="8.642322806234134"><ele>17.0</ele><time>2026-04-07T09:23:38Z</time></trkpt><trkpt lat="33.85151303631346" lon="8.642078499710552"><ele>18.0</ele><time>2026-04-07T09:23:39Z</time></trkpt><trkpt lat="33.851626407543804" lon="8.641832024158553"><ele>19.0</ele><time>2026-04-07T09:23:40Z</time></trkpt><trkpt lat="33.85174206037578" lon="8.641582542334499"><ele>19.0</ele><time>2026-04-07T09:23:41Z</time></trkpt><trkpt lat="33.85186061666817" lon="8.641340263972873"><ele>19.0</ele><time>2026-04-07T09:23:42Z</time></trkpt><trkpt lat="33.85198040514064" lon="8.6410975308269"><ele>18.5</ele><time>2026-04-07T09:23:43Z</time></trkpt><trkpt lat="33.85210011374834" lon="8.640854416103648"><ele>18.0</ele><time>2026-04-07T09:23:44Z</time></trkpt><trkpt lat="33.85221837441649" lon="8.640609996006141"><ele>18.0</ele><time>2026-04-07T09:23:45Z</time></trkpt><trkpt lat="33.852335040393385" lon="8.640362514914688"><ele>18.0</ele><time>2026-04-07T09:23:46Z</time></trkpt><trkpt lat="33.8524491535706" lon="8.640114003686117"><ele>17.5</ele><time>2026-04-07T09:23:47Z</time></trkpt><trkpt lat="33.85256360925295" lon="8.639866031486182"><ele>17.0</ele><time>2026-04-07T09:23:48Z</time></trkpt><trkpt lat="33.85267762392197" lon="8.639618035945187"><ele>18.0</ele><time>2026-04-07T09:23:49Z</time></trkpt><trkpt lat="33.85279281804879" lon="8.639371026468652"><ele>19.0</ele><time>2026-04-07T09:23:50Z</time></trkpt><trkpt lat="33.85290817379219" lon="8.639126317281484"><ele>19.0</ele><time>2026-04-07T09:23:51Z</time></trkpt><trkpt lat="33.8530233641169" lon="8.638879690411335"><ele>19.0</ele><time>2026-04-07T09:23:52Z</time></trkpt><trkpt lat="33.85314100857853" lon="8.638635347871896"><ele>18.0</ele><time>2026-04-07T09:23:53Z</time></trkpt><trkpt lat="33.853257972784746" lon="8.638391378740545"><ele>17.0</ele><time>2026-04-07T09:23:54Z</time></trkpt><trkpt lat="33.853374476415446" lon="8.638147230789508"><ele>16.5</ele><time>2026-04-07T09:23:55Z</time></trkpt><trkpt lat="33.85348990020793" lon="8.637900157260509"><ele>16.0</ele><time>2026-04-07T09:23:56Z</time></trkpt><trkpt lat="33.8536028055928" lon="8.63765216010981"><ele>17.0</ele><time>2026-04-07T09:23:57Z</time></trkpt><trkpt lat="33.85371786160123" lon="8.637405280159337"><ele>18.0</ele><time>2026-04-07T09:23:58Z</time></trkpt><trkpt lat="33.8538327675883" lon="8.637158263328"><ele>18.0</ele><time>2026-04-07T09:23:59Z</time></trkpt><trkpt lat="33.85394485582255" lon="8.63690823313297"><ele>18.0</ele><time>2026-04-07T09:24:00Z</time></trkpt><trkpt lat="33.85405614045875" lon="8.636659987840995"><ele>18.0</ele><time>2026-04-07T09:24:01Z</time></trkpt><trkpt lat="33.854167540859045" lon="8.636413361681868"><ele>18.0</ele><time>2026-04-07T09:24:02Z</time></trkpt><trkpt lat="33.8542798811736" lon="8.636164735805655"><ele>18.5</ele><time>2026-04-07T09:24:03Z</time></trkpt><trkpt lat="33.854392137946554" lon="8.635918288267586"><ele>19.0</ele><time>2026-04-07T09:24:04Z</time></trkpt><trkpt lat="33.85450677404085" lon="8.635671257342445"><ele>19.0</ele><time>2026-04-07T09:24:05Z</time></trkpt><trkpt lat="33.85462192884901" lon="8.635426744640561"><ele>19.0</ele><time>2026-04-07T09:24:06Z</time></trkpt><trkpt lat="33.854735849337956" lon="8.635183072942015"><ele>19.0</ele><time>2026-04-07T09:24:07Z</time></trkpt><trkpt lat="33.854850276433076" lon="8.634936233649961"><ele>19.0</ele><time>2026-04-07T09:24:08Z</time></trkpt><trkpt lat="33.85496431688277" lon="8.634687794401763"><ele>19.5</ele><time>2026-04-07T09:24:09Z</time></trkpt><trkpt lat="33.85507507858077" lon="8.63443860203127"><ele>20.0</ele><time>2026-04-07T09:24:10Z</time></trkpt><trkpt lat="33.85518794700666" lon="8.634186758708939"><ele>19.0</ele><time>2026-04-07T09:24:11Z</time></trkpt><trkpt lat="33.85529931147791" lon="8.633941468874102"><ele>18.0</ele><time>2026-04-07T09:24:12Z</time></trkpt><trkpt lat="33.85541122187928" lon="8.633691744708136"><ele>18.5</ele><time>2026-04-07T09:24:13Z</time></trkpt><trkpt lat="33.855522330960795" lon="8.633442638491783"><ele>19.0</ele><time>2026-04-07T09:24:14Z</time></trkpt><trkpt lat="33.8556344353758" lon="8.633193759962984"><ele>19.0</ele><time>2026-04-07T09:24:15Z</time></trkpt><trkpt lat="33.85574663553216" lon="8.632946165672326"><ele>19.0</ele><time>2026-04-07T09:24:16Z</time></trkpt><trkpt lat="33.855860933929534" lon="8.632696140558004"><ele>19.0</ele><time>2026-04-07T09:24:17Z</time></trkpt><trkpt lat="33.85597419987677" lon="8.632449788267134"><ele>19.0</ele><time>2026-04-07T09:24:18Z</time></trkpt><trkpt lat="33.85608933248408" lon="8.632202386205716"><ele>17.5</ele><time>2026-04-07T09:24:19Z</time></trkpt><trkpt lat="33.85620408788654" lon="8.63195518028981"><ele>16.0</ele><time>2026-04-07T09:24:20Z</time></trkpt><trkpt lat="33.85631819929142" lon="8.63171039435088"><ele>16.0</ele><time>2026-04-07T09:24:21Z</time></trkpt><trkpt lat="33.856432064780265" lon="8.63146476009192"><ele>16.0</ele><time>2026-04-07T09:24:22Z</time></trkpt><trkpt lat="33.85654414771846" lon="8.631216942642244"><ele>17.0</ele><time>2026-04-07T09:24:23Z</time></trkpt><trkpt lat="33.85665380705863" lon="8.630970149119957"><ele>18.0</ele><time>2026-04-07T09:24:24Z</time></trkpt><trkpt lat="33.85676199948125" lon="8.630720207770157"><ele>17.5</ele><time>2026-04-07T09:24:25Z</time></trkpt><trkpt lat="33.85687170311473" lon="8.630470908344627"><ele>17.0</ele><time>2026-04-07T09:24:26Z</time></trkpt><trkpt lat="33.85698418955994" lon="8.630220692468"><ele>16.0</ele><time>2026-04-07T09:24:27Z</time></trkpt><trkpt lat="33.85709771646232" lon="8.629973222880063"><ele>15.0</ele><time>2026-04-07T09:24:28Z</time></trkpt><trkpt lat="33.85721001544896" lon="8.629726824586497"><ele>15.0</ele><time>2026-04-07T09:24:29Z</time></trkpt><trkpt lat="33.857322657640125" lon="8.629477209659049"><ele>15.0</ele><time>2026-04-07T09:24:30Z</time></trkpt><trkpt lat="33.857437176126545" lon="8.629229949946904"><ele>15.0</ele><time>2026-04-07T09:24:31Z</time></trkpt><trkpt lat="33.857554282212355" lon="8.628985947001128"><ele>15.0</ele><time>2026-04-07T09:24:32Z</time></trkpt><trkpt lat="33.85767184477848" lon="8.628738955281333"><ele>15.5</ele><time>2026-04-07T09:24:33Z</time></trkpt><trkpt lat="33.857788704057434" lon="8.628493937391536"><ele>16.0</ele><time>2026-04-07T09:24:34Z</time></trkpt><trkpt lat="33.85790295033137" lon="8.628246410893677"><ele>16.0</ele><time>2026-04-07T09:24:35Z</time></trkpt><trkpt lat="33.85801268599899" lon="8.62799560103109"><ele>16.0</ele><time>2026-04-07T09:24:36Z</time></trkpt><trkpt lat="33.85812368858751" lon="8.627744320325684"><ele>17.5</ele><time>2026-04-07T09:24:37Z</time></trkpt><trkpt lat="33.85823578525128" lon="8.627496819051512"><ele>19.0</ele><time>2026-04-07T09:24:38Z</time></trkpt><trkpt lat="33.85834992791072" lon="8.627247743296598"><ele>18.5</ele><time>2026-04-07T09:24:39Z</time></trkpt><trkpt lat="33.858463214082754" lon="8.62700046496704"><ele>18.0</ele><time>2026-04-07T09:24:40Z</time></trkpt><trkpt lat="33.85857502443299" lon="8.626751450589687"><ele>19.5</ele><time>2026-04-07T09:24:41Z</time></trkpt><trkpt lat="33.858685354448696" lon="8.626504303354238"><ele>21.0</ele><time>2026-04-07T09:24:42Z</time></trkpt><trkpt lat="33.85879622786551" lon="8.626257241312025"><ele>19.0</ele><time>2026-04-07T09:24:43Z</time></trkpt><trkpt lat="33.858908074323665" lon="8.62600881776583"><ele>17.0</ele><time>2026-04-07T09:24:44Z</time></trkpt><trkpt lat="33.859017506759294" lon="8.625761554623363"><ele>17.0</ele><time>2026-04-07T09:24:45Z</time></trkpt><trkpt lat="33.859127176667386" lon="8.625514178856458"><ele>17.0</ele><time>2026-04-07T09:24:46Z</time></trkpt><trkpt lat="33.85924047018509" lon="8.625268076750945"><ele>16.0</ele><time>2026-04-07T09:24:47Z</time></trkpt><trkpt lat="33.85935661889345" lon="8.625023656718666"><ele>15.0</ele><time>2026-04-07T09:24:48Z</time></trkpt><trkpt lat="33.85947281905731" lon="8.62477651792682"><ele>15.0</ele><time>2026-04-07T09:24:49Z</time></trkpt><trkpt lat="33.859586923562205" lon="8.624528913814736"><ele>15.0</ele><time>2026-04-07T09:24:50Z</time></trkpt><trkpt lat="33.85969780279354" lon="8.624278287913434"><ele>14.5</ele><time>2026-04-07T09:24:51Z</time></trkpt><trkpt lat="33.85981093861324" lon="8.624027372107587"><ele>14.0</ele><time>2026-04-07T09:24:52Z</time></trkpt><trkpt lat="33.85992576077012" lon="8.623783647423895"><ele>15.0</ele><time>2026-04-07T09:24:53Z</time></trkpt><trkpt lat="33.86003922606188" lon="8.623533390360466"><ele>16.0</ele><time>2026-04-07T09:24:54Z</time></trkpt><trkpt lat="33.86015014442308" lon="8.623283379968301"><ele>17.0</ele><time>2026-04-07T09:24:55Z</time></trkpt><trkpt lat="33.8602609173181" lon="8.62303344363288"><ele>18.0</ele><time>2026-04-07T09:24:56Z</time></trkpt><trkpt lat="33.86037404870369" lon="8.622786810482028"><ele>18.0</ele><time>2026-04-07T09:24:57Z</time></trkpt><trkpt lat="33.860493637866426" lon="8.622541888205935"><ele>18.0</ele><time>2026-04-07T09:24:58Z</time></trkpt><trkpt lat="33.860614933602925" lon="8.62229796099958"><ele>18.0</ele><time>2026-04-07T09:24:59Z</time></trkpt><trkpt lat="33.860739090399505" lon="8.622056032859632"><ele>18.0</ele><time>2026-04-07T09:25:00Z</time></trkpt><trkpt lat="33.860863923042054" lon="8.621816207239734"><ele>18.0</ele><time>2026-04-07T09:25:01Z</time></trkpt><trkpt lat="33.86099036831606" lon="8.621576268747058"><ele>18.0</ele><time>2026-04-07T09:25:02Z</time></trkpt><trkpt lat="33.861114746135655" lon="8.621335737998809"><ele>18.5</ele><time>2026-04-07T09:25:03Z</time></trkpt><trkpt lat="33.86123796727224" lon="8.621100168065514"><ele>19.0</ele><time>2026-04-07T09:25:04Z</time></trkpt><trkpt lat="33.86136246754881" lon="8.620860405815478"><ele>19.0</ele><time>2026-04-07T09:25:05Z</time></trkpt><trkpt lat="33.86148845433875" lon="8.620620369638903"><ele>19.0</ele><time>2026-04-07T09:25:06Z</time></trkpt><trkpt lat="33.86161182828589" lon="8.620384569338977"><ele>19.5</ele><time>2026-04-07T09:25:07Z</time></trkpt><trkpt lat="33.861735034499375" lon="8.620144907641633"><ele>20.0</ele><time>2026-04-07T09:25:08Z</time></trkpt><trkpt lat="33.86186076196082" lon="8.619904547951668"><ele>18.5</ele><time>2026-04-07T09:25:09Z</time></trkpt><trkpt lat="33.86198494314241" lon="8.619665039975628"><ele>17.0</ele><time>2026-04-07T09:25:10Z</time></trkpt><trkpt lat="33.86210862042146" lon="8.619425730814827"><ele>17.0</ele><time>2026-04-07T09:25:11Z</time></trkpt><trkpt lat="33.86223183192309" lon="8.619187006978187"><ele>17.0</ele><time>2026-04-07T09:25:12Z</time></trkpt><trkpt lat="33.86235802166999" lon="8.61894708809884"><ele>17.0</ele><time>2026-04-07T09:25:13Z</time></trkpt><trkpt lat="33.862484497527035" lon="8.618707227197088"><ele>17.0</ele><time>2026-04-07T09:25:14Z</time></trkpt><trkpt lat="33.86260943512953" lon="8.618467757536663"><ele>18.0</ele><time>2026-04-07T09:25:15Z</time></trkpt><trkpt lat="33.86273459204789" lon="8.618226764737976"><ele>19.0</ele><time>2026-04-07T09:25:16Z</time></trkpt><trkpt lat="33.86285656628277" lon="8.61798553102525"><ele>18.0</ele><time>2026-04-07T09:25:17Z</time></trkpt><trkpt lat="33.86297880235129" lon="8.617744738218807"><ele>17.0</ele><time>2026-04-07T09:25:18Z</time></trkpt><trkpt lat="33.863103367242864" lon="8.617505055575226"><ele>17.0</ele><time>2026-04-07T09:25:19Z</time></trkpt><trkpt lat="33.86322792052525" lon="8.617265370935794"><ele>17.0</ele><time>2026-04-07T09:25:20Z</time></trkpt><trkpt lat="33.86335352521072" lon="8.617026086854302"><ele>15.5</ele><time>2026-04-07T09:25:21Z</time></trkpt><trkpt lat="33.86348059412594" lon="8.61678817487282"><ele>14.0</ele><time>2026-04-07T09:25:22Z</time></trkpt><trkpt lat="33.86360755629711" lon="8.616548157927994"><ele>14.0</ele><time>2026-04-07T09:25:23Z</time></trkpt><trkpt lat="33.86373236895503" lon="8.61630905813183"><ele>14.0</ele><time>2026-04-07T09:25:24Z</time></trkpt><trkpt lat="33.86385616508456" lon="8.61606780917198"><ele>16.0</ele><time>2026-04-07T09:25:25Z</time></trkpt><trkpt lat="33.863977969316345" lon="8.615826328288323"><ele>18.0</ele><time>2026-04-07T09:25:26Z</time></trkpt><trkpt lat="33.86410228452864" lon="8.615584148471978"><ele>18.0</ele><time>2026-04-07T09:25:27Z</time></trkpt><trkpt lat="33.86422557646934" lon="8.615344139708302"><ele>18.0</ele><time>2026-04-07T09:25:28Z</time></trkpt><trkpt lat="33.864350515412276" lon="8.61510513787737"><ele>18.0</ele><time>2026-04-07T09:25:29Z</time></trkpt><trkpt lat="33.86447600964076" lon="8.614865749456898"><ele>18.0</ele><time>2026-04-07T09:25:30Z</time></trkpt><trkpt lat="33.86460002338434" lon="8.614628456260109"><ele>17.5</ele><time>2026-04-07T09:25:31Z</time></trkpt><trkpt lat="33.86472540247794" lon="8.614389113960415"><ele>17.0</ele><time>2026-04-07T09:25:32Z</time></trkpt><trkpt lat="33.8648474773325" lon="8.614150934563543"><ele>17.0</ele><time>2026-04-07T09:25:33Z</time></trkpt><trkpt lat="33.864969723919444" lon="8.613910225703467"><ele>17.0</ele><time>2026-04-07T09:25:34Z</time></trkpt><trkpt lat="33.86509106052349" lon="8.613669637868384"><ele>17.5</ele><time>2026-04-07T09:25:35Z</time></trkpt><trkpt lat="33.8652149593911" lon="8.613427041069224"><ele>18.0</ele><time>2026-04-07T09:25:36Z</time></trkpt><trkpt lat="33.865339407655455" lon="8.613186329377381"><ele>18.0</ele><time>2026-04-07T09:25:37Z</time></trkpt><trkpt lat="33.86546812657116" lon="8.612945115522917"><ele>18.0</ele><time>2026-04-07T09:25:38Z</time></trkpt><trkpt lat="33.86559107754459" lon="8.612707176168758"><ele>17.5</ele><time>2026-04-07T09:25:39Z</time></trkpt><trkpt lat="33.86571420449136" lon="8.612468921269949"><ele>17.0</ele><time>2026-04-07T09:25:40Z</time></trkpt><trkpt lat="33.86584020438667" lon="8.612228595261971"><ele>16.5</ele><time>2026-04-07T09:25:41Z</time></trkpt><trkpt lat="33.86596551353498" lon="8.611989482683827"><ele>16.0</ele><time>2026-04-07T09:25:42Z</time></trkpt><trkpt lat="33.866089343528074" lon="8.611749842638758"><ele>16.0</ele><time>2026-04-07T09:25:43Z</time></trkpt><trkpt lat="33.866212404958446" lon="8.611509558941009"><ele>16.0</ele><time>2026-04-07T09:25:44Z</time></trkpt><trkpt lat="33.866335094952525" lon="8.611270076122315"><ele>17.0</ele><time>2026-04-07T09:25:45Z</time></trkpt><trkpt lat="33.86645733605558" lon="8.611028396995017"><ele>18.0</ele><time>2026-04-07T09:25:46Z</time></trkpt><trkpt lat="33.866578703033554" lon="8.610787231332939"><ele>18.0</ele><time>2026-04-07T09:25:47Z</time></trkpt><trkpt lat="33.866703125949535" lon="8.61054545807396"><ele>18.0</ele><time>2026-04-07T09:25:48Z</time></trkpt><trkpt lat="33.8668251493799" lon="8.610308470857309"><ele>18.5</ele><time>2026-04-07T09:25:49Z</time></trkpt><trkpt lat="33.86695017150323" lon="8.610067170822617"><ele>19.0</ele><time>2026-04-07T09:25:50Z</time></trkpt><trkpt lat="33.86707588997863" lon="8.609829577495416"><ele>19.0</ele><time>2026-04-07T09:25:51Z</time></trkpt><trkpt lat="33.867202563207094" lon="8.609590752512558"><ele>19.0</ele><time>2026-04-07T09:25:52Z</time></trkpt><trkpt lat="33.8673284139232" lon="8.609351419676237"><ele>18.0</ele><time>2026-04-07T09:25:53Z</time></trkpt><trkpt lat="33.86745431972353" lon="8.609111849350302"><ele>17.0</ele><time>2026-04-07T09:25:54Z</time></trkpt><trkpt lat="33.867578537604786" lon="8.608871737358962"><ele>16.5</ele><time>2026-04-07T09:25:55Z</time></trkpt><trkpt lat="33.867703476227604" lon="8.608632716324122"><ele>16.0</ele><time>2026-04-07T09:25:56Z</time></trkpt><trkpt lat="33.86783005154973" lon="8.608392171047766"><ele>16.0</ele><time>2026-04-07T09:25:57Z</time></trkpt><trkpt lat="33.867956030815044" lon="8.608151105575228"><ele>16.0</ele><time>2026-04-07T09:25:58Z</time></trkpt><trkpt lat="33.86807913283667" lon="8.607911602826876"><ele>16.0</ele><time>2026-04-07T09:25:59Z</time></trkpt><trkpt lat="33.86820369068562" lon="8.607671229593366"><ele>16.0</ele><time>2026-04-07T09:26:00Z</time></trkpt><trkpt lat="33.86832727479256" lon="8.607428530590639"><ele>16.5</ele><time>2026-04-07T09:26:01Z</time></trkpt><trkpt lat="33.86845173258879" lon="8.607191469617238"><ele>17.0</ele><time>2026-04-07T09:26:02Z</time></trkpt><trkpt lat="33.86857827552412" lon="8.606951936074003"><ele>17.0</ele><time>2026-04-07T09:26:03Z</time></trkpt><trkpt lat="33.86870190509325" lon="8.606714116631386"><ele>17.0</ele><time>2026-04-07T09:26:04Z</time></trkpt><trkpt lat="33.86882366830072" lon="8.60647240515123"><ele>17.0</ele><time>2026-04-07T09:26:05Z</time></trkpt><trkpt lat="33.868945788898266" lon="8.60623261553228"><ele>17.0</ele><time>2026-04-07T09:26:06Z</time></trkpt><trkpt lat="33.869069878462604" lon="8.605991840185254"><ele>17.0</ele><time>2026-04-07T09:26:07Z</time></trkpt><trkpt lat="33.869192674414506" lon="8.605751758349607"><ele>17.0</ele><time>2026-04-07T09:26:08Z</time></trkpt><trkpt lat="33.86931670333039" lon="8.605507461371147"><ele>17.0</ele><time>2026-04-07T09:26:09Z</time></trkpt><trkpt lat="33.869438881708774" lon="8.605268600245198"><ele>17.0</ele><time>2026-04-07T09:26:10Z</time></trkpt><trkpt lat="33.869562210283505" lon="8.605028625050188"><ele>17.0</ele><time>2026-04-07T09:26:11Z</time></trkpt><trkpt lat="33.869686039343144" lon="8.604789809165814"><ele>17.0</ele><time>2026-04-07T09:26:12Z</time></trkpt><trkpt lat="33.869810581595885" lon="8.604548502044128"><ele>17.0</ele><time>2026-04-07T09:26:13Z</time></trkpt><trkpt lat="33.86993444284492" lon="8.60430871605501"><ele>17.0</ele><time>2026-04-07T09:26:14Z</time></trkpt><trkpt lat="33.870056165828984" lon="8.604069281454457"><ele>17.5</ele><time>2026-04-07T09:26:15Z</time></trkpt><trkpt lat="33.87017842215028" lon="8.603829937443772"><ele>18.0</ele><time>2026-04-07T09:26:16Z</time></trkpt><trkpt lat="33.87030277509452" lon="8.603592173578622"><ele>18.0</ele><time>2026-04-07T09:26:17Z</time></trkpt><trkpt lat="33.87042875514698" lon="8.603351017330075"><ele>18.0</ele><time>2026-04-07T09:26:18Z</time></trkpt><trkpt lat="33.870554677466416" lon="8.603113638783048"><ele>18.0</ele><time>2026-04-07T09:26:19Z</time></trkpt><trkpt lat="33.870679339064985" lon="8.602874435785694"><ele>18.0</ele><time>2026-04-07T09:26:20Z</time></trkpt><trkpt lat="33.870803633070956" lon="8.60263219184319"><ele>16.5</ele><time>2026-04-07T09:26:21Z</time></trkpt><trkpt lat="33.870927315944385" lon="8.602391664967097"><ele>15.0</ele><time>2026-04-07T09:26:22Z</time></trkpt><trkpt lat="33.8710513523018" lon="8.602152838053428"><ele>15.5</ele><time>2026-04-07T09:26:23Z</time></trkpt><trkpt lat="33.8711769084072" lon="8.601911880601923"><ele>16.0</ele><time>2026-04-07T09:26:24Z</time></trkpt><trkpt lat="33.87130140112397" lon="8.601671665725764"><ele>16.0</ele><time>2026-04-07T09:26:25Z</time></trkpt><trkpt lat="33.87142513188882" lon="8.601431492154335"><ele>16.0</ele><time>2026-04-07T09:26:26Z</time></trkpt><trkpt lat="33.87155192415632" lon="8.601192850331552"><ele>16.0</ele><time>2026-04-07T09:26:27Z</time></trkpt><trkpt lat="33.87167735163901" lon="8.600954948260377"><ele>16.0</ele><time>2026-04-07T09:26:28Z</time></trkpt><trkpt lat="33.87180118118095" lon="8.60071411633201"><ele>16.0</ele><time>2026-04-07T09:26:29Z</time></trkpt><trkpt lat="33.871922933195385" lon="8.600471421627946"><ele>16.0</ele><time>2026-04-07T09:26:30Z</time></trkpt><trkpt lat="33.872045127867494" lon="8.600231674589052"><ele>16.5</ele><time>2026-04-07T09:26:31Z</time></trkpt><trkpt lat="33.872168691728504" lon="8.599997607941084"><ele>17.0</ele><time>2026-04-07T09:26:32Z</time></trkpt><trkpt lat="33.872291351935324" lon="8.599762038204988"><ele>17.0</ele><time>2026-04-07T09:26:33Z</time></trkpt><trkpt lat="33.872413545986674" lon="8.599522863776325"><ele>17.0</ele><time>2026-04-07T09:26:34Z</time></trkpt><trkpt lat="33.872537688443835" lon="8.59928384737487"><ele>15.5</ele><time>2026-04-07T09:26:35Z</time></trkpt><trkpt lat="33.87266378698424" lon="8.599044048421845"><ele>14.0</ele><time>2026-04-07T09:26:36Z</time></trkpt><trkpt lat="33.872789427722104" lon="8.59880337387334"><ele>14.0</ele><time>2026-04-07T09:26:37Z</time></trkpt><trkpt lat="33.872913494025454" lon="8.598561463247279"><ele>14.0</ele><time>2026-04-07T09:26:38Z</time></trkpt><trkpt lat="33.873034993881504" lon="8.598317640009945"><ele>14.0</ele><time>2026-04-07T09:26:39Z</time></trkpt><trkpt lat="33.873155004184355" lon="8.598073851180482"><ele>14.0</ele><time>2026-04-07T09:26:40Z</time></trkpt><trkpt lat="33.87327649845744" lon="8.597831456538223"><ele>15.0</ele><time>2026-04-07T09:26:41Z</time></trkpt><trkpt lat="33.87339775363008" lon="8.597589390809135"><ele>16.0</ele><time>2026-04-07T09:26:42Z</time></trkpt><trkpt lat="33.87352106499261" lon="8.597348908814064"><ele>16.0</ele><time>2026-04-07T09:26:43Z</time></trkpt><trkpt lat="33.87364502101388" lon="8.597109986934791"><ele>16.0</ele><time>2026-04-07T09:26:44Z</time></trkpt><trkpt lat="33.87376754472287" lon="8.5968694217268"><ele>16.0</ele><time>2026-04-07T09:26:45Z</time></trkpt><trkpt lat="33.87388885322896" lon="8.59662874930332"><ele>16.0</ele><time>2026-04-07T09:26:46Z</time></trkpt><trkpt lat="33.87401018686661" lon="8.596387425780058"><ele>16.0</ele><time>2026-04-07T09:26:47Z</time></trkpt><trkpt lat="33.874134321538364" lon="8.596147027627165"><ele>16.0</ele><time>2026-04-07T09:26:48Z</time></trkpt><trkpt lat="33.874260735426866" lon="8.59590858424053"><ele>16.5</ele><time>2026-04-07T09:26:49Z</time></trkpt><trkpt lat="33.87438618908187" lon="8.595669585322876"><ele>17.0</ele><time>2026-04-07T09:26:50Z</time></trkpt><trkpt lat="33.8745100827156" lon="8.595430664110655"><ele>16.5</ele><time>2026-04-07T09:26:51Z</time></trkpt><trkpt lat="33.8746288742452" lon="8.595194479162636"><ele>16.0</ele><time>2026-04-07T09:26:52Z</time></trkpt><trkpt lat="33.87475171823988" lon="8.594953245079761"><ele>16.0</ele><time>2026-04-07T09:26:53Z</time></trkpt><trkpt lat="33.874877337316875" lon="8.594713071655853"><ele>16.0</ele><time>2026-04-07T09:26:54Z</time></trkpt><trkpt lat="33.875001452702925" lon="8.594472249443124"><ele>16.5</ele><time>2026-04-07T09:26:55Z</time></trkpt><trkpt lat="33.87512637156604" lon="8.594232843948992"><ele>17.0</ele><time>2026-04-07T09:26:56Z</time></trkpt><trkpt lat="33.875249579314975" lon="8.593991091391011"><ele>17.0</ele><time>2026-04-07T09:26:57Z</time></trkpt><trkpt lat="33.87537314248098" lon="8.593750204798233"><ele>17.0</ele><time>2026-04-07T09:26:58Z</time></trkpt><trkpt lat="33.87549602983779" lon="8.59351047557777"><ele>17.5</ele><time>2026-04-07T09:26:59Z</time></trkpt><trkpt lat="33.87561979568585" lon="8.593265980525961"><ele>18.0</ele><time>2026-04-07T09:27:00Z</time></trkpt><trkpt lat="33.87574116704842" lon="8.593023252791085"><ele>18.0</ele><time>2026-04-07T09:27:01Z</time></trkpt><trkpt lat="33.875865204673474" lon="8.5927839720268"><ele>18.0</ele><time>2026-04-07T09:27:02Z</time></trkpt><trkpt lat="33.875986915927214" lon="8.592541836413703"><ele>18.0</ele><time>2026-04-07T09:27:03Z</time></trkpt><trkpt lat="33.87610963890667" lon="8.592298949088587"><ele>18.0</ele><time>2026-04-07T09:27:04Z</time></trkpt><trkpt lat="33.876232660462435" lon="8.592056072052719"><ele>18.0</ele><time>2026-04-07T09:27:05Z</time></trkpt><trkpt lat="33.87635608659486" lon="8.591815219379997"><ele>18.0</ele><time>2026-04-07T09:27:06Z</time></trkpt><trkpt lat="33.87647971664551" lon="8.591574078571911"><ele>18.0</ele><time>2026-04-07T09:27:07Z</time></trkpt><trkpt lat="33.87660368677859" lon="8.591332534849181"><ele>18.0</ele><time>2026-04-07T09:27:08Z</time></trkpt><trkpt lat="33.87672514146507" lon="8.591090560035076"><ele>17.0</ele><time>2026-04-07T09:27:09Z</time></trkpt><trkpt lat="33.8768457782902" lon="8.590847404291337"><ele>16.0</ele><time>2026-04-07T09:27:10Z</time></trkpt><trkpt lat="33.87696641753087" lon="8.59060400719178"><ele>16.0</ele><time>2026-04-07T09:27:11Z</time></trkpt><trkpt lat="33.87708930810148" lon="8.590361374418237"><ele>16.0</ele><time>2026-04-07T09:27:12Z</time></trkpt><trkpt lat="33.8772105891074" lon="8.590122593499554"><ele>16.5</ele><time>2026-04-07T09:27:13Z</time></trkpt><trkpt lat="33.87733436493004" lon="8.589882756618156"><ele>17.0</ele><time>2026-04-07T09:27:14Z</time></trkpt><trkpt lat="33.87745645048849" lon="8.589644746065593"><ele>17.0</ele><time>2026-04-07T09:27:15Z</time></trkpt><trkpt lat="33.87757989851461" lon="8.589402971002595"><ele>17.0</ele><time>2026-04-07T09:27:16Z</time></trkpt><trkpt lat="33.87770315248254" lon="8.589161487616472"><ele>17.0</ele><time>2026-04-07T09:27:17Z</time></trkpt><trkpt lat="33.877824103724556" lon="8.588920848321214"><ele>17.0</ele><time>2026-04-07T09:27:18Z</time></trkpt><trkpt lat="33.877946058649385" lon="8.58867968012477"><ele>16.0</ele><time>2026-04-07T09:27:19Z</time></trkpt><trkpt lat="33.87806884889087" lon="8.588442292683137"><ele>15.0</ele><time>2026-04-07T09:27:20Z</time></trkpt><trkpt lat="33.87819133329186" lon="8.588204072976588"><ele>15.0</ele><time>2026-04-07T09:27:21Z</time></trkpt><trkpt lat="33.87831484489082" lon="8.587965597042498"><ele>15.0</ele><time>2026-04-07T09:27:22Z</time></trkpt><trkpt lat="33.87843811824105" lon="8.587724737819794"><ele>16.0</ele><time>2026-04-07T09:27:23Z</time></trkpt><trkpt lat="33.878559288254515" lon="8.587481578890555"><ele>17.0</ele><time>2026-04-07T09:27:24Z</time></trkpt><trkpt lat="33.87868017031624" lon="8.587237895001593"><ele>18.0</ele><time>2026-04-07T09:27:25Z</time></trkpt><trkpt lat="33.87880155725874" lon="8.586995794206116"><ele>19.0</ele><time>2026-04-07T09:27:26Z</time></trkpt><trkpt lat="33.878924467790355" lon="8.58675429568235"><ele>19.0</ele><time>2026-04-07T09:27:27Z</time></trkpt><trkpt lat="33.879047320836584" lon="8.58651325426848"><ele>19.0</ele><time>2026-04-07T09:27:28Z</time></trkpt><trkpt lat="33.87917005070552" lon="8.5862717122737"><ele>19.0</ele><time>2026-04-07T09:27:29Z</time></trkpt><trkpt lat="33.87929109195403" lon="8.58603198726342"><ele>19.0</ele><time>2026-04-07T09:27:30Z</time></trkpt><trkpt lat="33.87941183034586" lon="8.585790606529182"><ele>19.0</ele><time>2026-04-07T09:27:31Z</time></trkpt><trkpt lat="33.879532085880584" lon="8.585547665430315"><ele>19.0</ele><time>2026-04-07T09:27:32Z</time></trkpt><trkpt lat="33.879654638039554" lon="8.585301882829748"><ele>18.0</ele><time>2026-04-07T09:27:33Z</time></trkpt><trkpt lat="33.879777069437665" lon="8.585064702662697"><ele>17.0</ele><time>2026-04-07T09:27:34Z</time></trkpt><trkpt lat="33.879899453784006" lon="8.584823525759134"><ele>17.0</ele><time>2026-04-07T09:27:35Z</time></trkpt><trkpt lat="33.880023345052166" lon="8.584578960857279"><ele>17.0</ele><time>2026-04-07T09:27:36Z</time></trkpt><trkpt lat="33.88014761584975" lon="8.584336915330818"><ele>17.0</ele><time>2026-04-07T09:27:37Z</time></trkpt><trkpt lat="33.88026951362335" lon="8.584094005384914"><ele>17.0</ele><time>2026-04-07T09:27:38Z</time></trkpt><trkpt lat="33.88039187553769" lon="8.583853214629038"><ele>16.5</ele><time>2026-04-07T09:27:39Z</time></trkpt><trkpt lat="33.88051525200828" lon="8.58361229797203"><ele>16.0</ele><time>2026-04-07T09:27:40Z</time></trkpt><trkpt lat="33.88063785019149" lon="8.583372332643624"><ele>16.0</ele><time>2026-04-07T09:27:41Z</time></trkpt><trkpt lat="33.88076294545501" lon="8.583130677355742"><ele>16.0</ele><time>2026-04-07T09:27:42Z</time></trkpt><trkpt lat="33.8808861032752" lon="8.582890419648477"><ele>15.5</ele><time>2026-04-07T09:27:43Z</time></trkpt><trkpt lat="33.88100791439537" lon="8.582648680745848"><ele>15.0</ele><time>2026-04-07T09:27:44Z</time></trkpt><trkpt lat="33.88112961469118" lon="8.582406143243348"><ele>15.0</ele><time>2026-04-07T09:27:45Z</time></trkpt><trkpt lat="33.88125045002212" lon="8.582163358628971"><ele>15.0</ele><time>2026-04-07T09:27:46Z</time></trkpt><trkpt lat="33.881374419733035" lon="8.581922910728007"><ele>16.0</ele><time>2026-04-07T09:27:47Z</time></trkpt><trkpt lat="33.88149912329731" lon="8.581680611493532"><ele>17.0</ele><time>2026-04-07T09:27:48Z</time></trkpt><trkpt lat="33.88162412896509" lon="8.581442208661928"><ele>17.0</ele><time>2026-04-07T09:27:49Z</time></trkpt><trkpt lat="33.88174885824908" lon="8.581203139010373"><ele>17.0</ele><time>2026-04-07T09:27:50Z</time></trkpt><trkpt lat="33.88187153642281" lon="8.580966928393421"><ele>17.0</ele><time>2026-04-07T09:27:51Z</time></trkpt><trkpt lat="33.881991202858465" lon="8.580726671308351"><ele>17.0</ele><time>2026-04-07T09:27:52Z</time></trkpt><trkpt lat="33.88211097240068" lon="8.580482052513263"><ele>16.5</ele><time>2026-04-07T09:27:53Z</time></trkpt><trkpt lat="33.882230906695376" lon="8.580237917468846"><ele>16.0</ele><time>2026-04-07T09:27:54Z</time></trkpt><trkpt lat="33.882352722376424" lon="8.579997542898429"><ele>16.0</ele><time>2026-04-07T09:27:55Z</time></trkpt><trkpt lat="33.882478363481425" lon="8.57975803019337"><ele>16.0</ele><time>2026-04-07T09:27:56Z</time></trkpt><trkpt lat="33.88260266255233" lon="8.57951776212333"><ele>16.5</ele><time>2026-04-07T09:27:57Z</time></trkpt><trkpt lat="33.882720675077245" lon="8.579278650053714"><ele>17.0</ele><time>2026-04-07T09:27:58Z</time></trkpt><trkpt lat="33.88284289871346" lon="8.579034578921362"><ele>17.0</ele><time>2026-04-07T09:27:59Z</time></trkpt><trkpt lat="33.88296602217959" lon="8.578796030142652"><ele>17.0</ele><time>2026-04-07T09:28:00Z</time></trkpt><trkpt lat="33.88308947680315" lon="8.578553852114595"><ele>17.0</ele><time>2026-04-07T09:28:01Z</time></trkpt><trkpt lat="33.883213866777496" lon="8.578311911732786"><ele>17.0</ele><time>2026-04-07T09:28:02Z</time></trkpt><trkpt lat="33.8833377911138" lon="8.578070015291301"><ele>17.5</ele><time>2026-04-07T09:28:03Z</time></trkpt><trkpt lat="33.883461420858325" lon="8.577830729897217"><ele>18.0</ele><time>2026-04-07T09:28:04Z</time></trkpt><trkpt lat="33.88358641258289" lon="8.57759263612059"><ele>18.0</ele><time>2026-04-07T09:28:05Z</time></trkpt><trkpt lat="33.88371366228522" lon="8.57735336556889"><ele>18.0</ele><time>2026-04-07T09:28:06Z</time></trkpt><trkpt lat="33.88383397874453" lon="8.57711195519305"><ele>17.5</ele><time>2026-04-07T09:28:07Z</time></trkpt><trkpt lat="33.88395313923695" lon="8.576869059776097"><ele>17.0</ele><time>2026-04-07T09:28:08Z</time></trkpt><trkpt lat="33.88407202147742" lon="8.576626566823736"><ele>17.0</ele><time>2026-04-07T09:28:09Z</time></trkpt><trkpt lat="33.88419314459155" lon="8.576383150477572"><ele>17.0</ele><time>2026-04-07T09:28:10Z</time></trkpt><trkpt lat="33.88431482607767" lon="8.576143197137126"><ele>17.5</ele><time>2026-04-07T09:28:11Z</time></trkpt><trkpt lat="33.88443905597263" lon="8.57590421684504"><ele>18.0</ele><time>2026-04-07T09:28:12Z</time></trkpt><trkpt lat="33.88456212834915" lon="8.575663296167342"><ele>18.0</ele><time>2026-04-07T09:28:13Z</time></trkpt><trkpt lat="33.884682888111165" lon="8.575422329062354"><ele>18.0</ele><time>2026-04-07T09:28:14Z</time></trkpt><trkpt lat="33.88480660787404" lon="8.575179960790082"><ele>17.0</ele><time>2026-04-07T09:28:15Z</time></trkpt><trkpt lat="33.88492879322872" lon="8.574939485040764"><ele>16.0</ele><time>2026-04-07T09:28:16Z</time></trkpt><trkpt lat="33.88505079568801" lon="8.574699544300328"><ele>16.5</ele><time>2026-04-07T09:28:17Z</time></trkpt><trkpt lat="33.88517368332854" lon="8.574455943160679"><ele>17.0</ele><time>2026-04-07T09:28:18Z</time></trkpt><trkpt lat="33.88529533900205" lon="8.574215469004715"><ele>17.0</ele><time>2026-04-07T09:28:19Z</time></trkpt><trkpt lat="33.8854188797374" lon="8.57397172109107"><ele>17.0</ele><time>2026-04-07T09:28:20Z</time></trkpt><trkpt lat="33.885540378335286" lon="8.573734839352952"><ele>17.5</ele><time>2026-04-07T09:28:21Z</time></trkpt><trkpt lat="33.88566505593329" lon="8.573493391826217"><ele>18.0</ele><time>2026-04-07T09:28:22Z</time></trkpt><trkpt lat="33.88578862767537" lon="8.573255301975008"><ele>18.0</ele><time>2026-04-07T09:28:23Z</time></trkpt><trkpt lat="33.88591377308344" lon="8.573014097956946"><ele>18.0</ele><time>2026-04-07T09:28:24Z</time></trkpt><trkpt lat="33.886038976108736" lon="8.572772189575977"><ele>17.5</ele><time>2026-04-07T09:28:25Z</time></trkpt><trkpt lat="33.886160577184846" lon="8.572532846805883"><ele>17.0</ele><time>2026-04-07T09:28:26Z</time></trkpt><trkpt lat="33.88628161009148" lon="8.572290451223557"><ele>17.0</ele><time>2026-04-07T09:28:27Z</time></trkpt><trkpt lat="33.886401354825715" lon="8.57204625225751"><ele>17.0</ele><time>2026-04-07T09:28:28Z</time></trkpt><trkpt lat="33.88652069905865" lon="8.571805735733342"><ele>18.0</ele><time>2026-04-07T09:28:29Z</time></trkpt><trkpt lat="33.88664045661259" lon="8.571565621272683"><ele>19.0</ele><time>2026-04-07T09:28:30Z</time></trkpt><trkpt lat="33.88676148094852" lon="8.571327355278472"><ele>18.5</ele><time>2026-04-07T09:28:31Z</time></trkpt><trkpt lat="33.886886036083965" lon="8.571086969558865"><ele>18.0</ele><time>2026-04-07T09:28:32Z</time></trkpt><trkpt lat="33.887007649071315" lon="8.570842060555986"><ele>18.0</ele><time>2026-04-07T09:28:33Z</time></trkpt><trkpt lat="33.88712949277822" lon="8.570597903791358"><ele>18.0</ele><time>2026-04-07T09:28:34Z</time></trkpt><trkpt lat="33.887251553646344" lon="8.570355458810653"><ele>18.0</ele><time>2026-04-07T09:28:35Z</time></trkpt><trkpt lat="33.88737608359212" lon="8.570111779335774"><ele>18.0</ele><time>2026-04-07T09:28:36Z</time></trkpt><trkpt lat="33.88749825598946" lon="8.569871527471815"><ele>19.0</ele><time>2026-04-07T09:28:37Z</time></trkpt><trkpt lat="33.887620632100365" lon="8.569631646497328"><ele>20.0</ele><time>2026-04-07T09:28:38Z</time></trkpt><trkpt lat="33.88774327284413" lon="8.569389931822483"><ele>20.0</ele><time>2026-04-07T09:28:39Z</time></trkpt><trkpt lat="33.88786613373785" lon="8.569147507301652"><ele>20.0</ele><time>2026-04-07T09:28:40Z</time></trkpt><trkpt lat="33.887992391887046" lon="8.568910234131417"><ele>17.5</ele><time>2026-04-07T09:28:41Z</time></trkpt><trkpt lat="33.88812103046075" lon="8.568671823545593"><ele>15.0</ele><time>2026-04-07T09:28:42Z</time></trkpt><trkpt lat="33.88824384888814" lon="8.568432818388084"><ele>15.0</ele><time>2026-04-07T09:28:43Z</time></trkpt><trkpt lat="33.888365338959126" lon="8.568196606500779"><ele>15.0</ele><time>2026-04-07T09:28:44Z</time></trkpt><trkpt lat="33.88848693092554" lon="8.567953778499536"><ele>14.5</ele><time>2026-04-07T09:28:45Z</time></trkpt><trkpt lat="33.88861191532303" lon="8.567713298006103"><ele>14.0</ele><time>2026-04-07T09:28:46Z</time></trkpt><trkpt lat="33.88873727707519" lon="8.567473501655371"><ele>14.0</ele><time>2026-04-07T09:28:47Z</time></trkpt><trkpt lat="33.88886230353713" lon="8.5672320295826"><ele>14.0</ele><time>2026-04-07T09:28:48Z</time></trkpt><trkpt lat="33.888987495240606" lon="8.566993626511135"><ele>15.5</ele><time>2026-04-07T09:28:49Z</time></trkpt><trkpt lat="33.88911395423079" lon="8.566753386050772"><ele>17.0</ele><time>2026-04-07T09:28:50Z</time></trkpt><trkpt lat="33.88923691942422" lon="8.566513872535303"><ele>16.5</ele><time>2026-04-07T09:28:51Z</time></trkpt><trkpt lat="33.88935684018258" lon="8.566270853066163"><ele>16.0</ele><time>2026-04-07T09:28:52Z</time></trkpt><trkpt lat="33.88947967168004" lon="8.566029079363663"><ele>13.0</ele><time>2026-04-07T09:28:53Z</time></trkpt><trkpt lat="33.889600507950995" lon="8.565787627513496"><ele>10.0</ele><time>2026-04-07T09:28:54Z</time></trkpt><trkpt lat="33.8897231198873" lon="8.565546594364914"><ele>13.0</ele><time>2026-04-07T09:28:55Z</time></trkpt><trkpt lat="33.889845591920675" lon="8.565305143836964"><ele>16.0</ele><time>2026-04-07T09:28:56Z</time></trkpt><trkpt lat="33.889966598281944" lon="8.565063846461035"><ele>16.0</ele><time>2026-04-07T09:28:57Z</time></trkpt><trkpt lat="33.890088251230765" lon="8.564819831131123"><ele>16.0</ele><time>2026-04-07T09:28:58Z</time></trkpt><trkpt lat="33.89021407208854" lon="8.564565441766206"><ele>17.0</ele><time>2026-04-07T09:28:59Z</time></trkpt><trkpt lat="33.89035264118674" lon="8.564286692820327"><ele>18.0</ele><time>2026-04-07T09:29:00Z</time></trkpt><trkpt lat="33.890496038430015" lon="8.563987263626785"><ele>17.0</ele><time>2026-04-07T09:29:01Z</time></trkpt><trkpt lat="33.89064738851921" lon="8.563676061078608"><ele>16.0</ele><time>2026-04-07T09:29:02Z</time></trkpt><trkpt lat="33.89080944574804" lon="8.563382346362925"><ele>15.5</ele><time>2026-04-07T09:29:03Z</time></trkpt><trkpt lat="33.89095951069805" lon="8.563105068562603"><ele>15.0</ele><time>2026-04-07T09:29:04Z</time></trkpt><trkpt lat="33.89109579743703" lon="8.56283912235403"><ele>15.0</ele><time>2026-04-07T09:29:05Z</time></trkpt><trkpt lat="33.891224369007965" lon="8.562586237333832"><ele>15.0</ele><time>2026-04-07T09:29:06Z</time></trkpt><trkpt lat="33.89134658706402" lon="8.562344061926293"><ele>15.0</ele><time>2026-04-07T09:29:07Z</time></trkpt><trkpt lat="33.8914662129576" lon="8.562102694220403"><ele>15.0</ele><time>2026-04-07T09:29:08Z</time></trkpt><trkpt lat="33.891587090470736" lon="8.561859223680177"><ele>16.5</ele><time>2026-04-07T09:29:09Z</time></trkpt><trkpt lat="33.89171221009497" lon="8.561611899004427"><ele>18.0</ele><time>2026-04-07T09:29:10Z</time></trkpt><trkpt lat="33.89184057654199" lon="8.561358416925401"><ele>14.5</ele><time>2026-04-07T09:29:11Z</time></trkpt><trkpt lat="33.891968804212325" lon="8.561101546046617"><ele>11.0</ele><time>2026-04-07T09:29:12Z</time></trkpt><trkpt lat="33.89209670305695" lon="8.56084369400703"><ele>11.0</ele><time>2026-04-07T09:29:13Z</time></trkpt><trkpt lat="33.892225885115806" lon="8.560580293432638"><ele>11.0</ele><time>2026-04-07T09:29:14Z</time></trkpt><trkpt lat="33.89235457480036" lon="8.560318196404852"><ele>12.0</ele><time>2026-04-07T09:29:15Z</time></trkpt><trkpt lat="33.89248431170144" lon="8.560057192732701"><ele>13.0</ele><time>2026-04-07T09:29:16Z</time></trkpt><trkpt lat="33.89261603280919" lon="8.55979569423847"><ele>13.0</ele><time>2026-04-07T09:29:16.999Z</time></trkpt><trkpt lat="33.89274424920736" lon="8.559534480775524"><ele>13.0</ele><time>2026-04-07T09:29:17.999Z</time></trkpt><trkpt lat="33.89287769237051" lon="8.55927528236978"><ele>13.5</ele><time>2026-04-07T09:29:18.999Z</time></trkpt><trkpt lat="33.89301150193536" lon="8.55901911026382"><ele>14.0</ele><time>2026-04-07T09:29:19.999Z</time></trkpt><trkpt lat="33.89314652458756" lon="8.55876243776915"><ele>16.5</ele><time>2026-04-07T09:29:20.999Z</time></trkpt><trkpt lat="33.89328473966846" lon="8.558502777715317"><ele>19.0</ele><time>2026-04-07T09:29:21.999Z</time></trkpt><trkpt lat="33.89341963512329" lon="8.5582392298339"><ele>16.0</ele><time>2026-04-07T09:29:22.999Z</time></trkpt><trkpt lat="33.89355633910582" lon="8.55798112952792"><ele>13.0</ele><time>2026-04-07T09:29:23.999Z</time></trkpt><trkpt lat="33.89368760989699" lon="8.557727849287602"><ele>13.0</ele><time>2026-04-07T09:29:24.999Z</time></trkpt><trkpt lat="33.89381785938617" lon="8.557469845336025"><ele>13.0</ele><time>2026-04-07T09:29:25.999Z</time></trkpt><trkpt lat="33.89394923405954" lon="8.557209005533219"><ele>14.0</ele><time>2026-04-07T09:29:26.999Z</time></trkpt><trkpt lat="33.89408439183764" lon="8.556950363210175"><ele>15.0</ele><time>2026-04-07T09:29:27.999Z</time></trkpt><trkpt lat="33.894215440262606" lon="8.556692475729982"><ele>14.5</ele><time>2026-04-07T09:29:28.999Z</time></trkpt><trkpt lat="33.89434774975986" lon="8.556434525289209"><ele>14.0</ele><time>2026-04-07T09:29:29.999Z</time></trkpt><trkpt lat="33.89447966082085" lon="8.556175300513699"><ele>13.5</ele><time>2026-04-07T09:29:30.999Z</time></trkpt><trkpt lat="33.89461304911332" lon="8.555916966930914"><ele>13.0</ele><time>2026-04-07T09:29:31.999Z</time></trkpt><trkpt lat="33.89474501633185" lon="8.55565929608133"><ele>13.0</ele><time>2026-04-07T09:29:32.999Z</time></trkpt><trkpt lat="33.89487798706936" lon="8.555402090953145"><ele>13.0</ele><time>2026-04-07T09:29:33.999Z</time></trkpt><trkpt lat="33.895008790841324" lon="8.555143454117289"><ele>15.5</ele><time>2026-04-07T09:29:34.999Z</time></trkpt><trkpt lat="33.89514045760009" lon="8.554885848560547"><ele>18.0</ele><time>2026-04-07T09:29:35.999Z</time></trkpt><trkpt lat="33.89527129083406" lon="8.554627684245476"><ele>16.5</ele><time>2026-04-07T09:29:36.999Z</time></trkpt><trkpt lat="33.8954009678506" lon="8.554371523975872"><ele>15.0</ele><time>2026-04-07T09:29:37.999Z</time></trkpt><trkpt lat="33.89552800058729" lon="8.554109506277427"><ele>15.0</ele><time>2026-04-07T09:29:38.999Z</time></trkpt><trkpt lat="33.895657150561775" lon="8.553846433512673"><ele>15.0</ele><time>2026-04-07T09:29:39.999Z</time></trkpt><trkpt lat="33.89578921262861" lon="8.553586981803145"><ele>16.5</ele><time>2026-04-07T09:29:40.999Z</time></trkpt><trkpt lat="33.8959203257254" lon="8.553327659457931"><ele>18.0</ele><time>2026-04-07T09:29:41.999Z</time></trkpt><trkpt lat="33.89605368147773" lon="8.553069444961297"><ele>17.0</ele><time>2026-04-07T09:29:42.999Z</time></trkpt><trkpt lat="33.89618378967963" lon="8.55281025208996"><ele>16.0</ele><time>2026-04-07T09:29:43.998Z</time></trkpt><trkpt lat="33.89631412706896" lon="8.552550728123963"><ele>16.0</ele><time>2026-04-07T09:29:44.998Z</time></trkpt><trkpt lat="33.89644580448599" lon="8.552291773244727"><ele>16.0</ele><time>2026-04-07T09:29:45.998Z</time></trkpt><trkpt lat="33.89657964874834" lon="8.55203244364865"><ele>16.5</ele><time>2026-04-07T09:29:46.998Z</time></trkpt><trkpt lat="33.89671296057483" lon="8.551775759603775"><ele>17.0</ele><time>2026-04-07T09:29:47.998Z</time></trkpt><trkpt lat="33.896843794830275" lon="8.551516357935773"><ele>18.0</ele><time>2026-04-07T09:29:48.998Z</time></trkpt><trkpt lat="33.896971510525844" lon="8.551255581926432"><ele>19.0</ele><time>2026-04-07T09:29:49.998Z</time></trkpt><trkpt lat="33.897100266654256" lon="8.550995565830123"><ele>16.5</ele><time>2026-04-07T09:29:50.998Z</time></trkpt><trkpt lat="33.897231263405246" lon="8.550733469612277"><ele>14.0</ele><time>2026-04-07T09:29:51.998Z</time></trkpt><trkpt lat="33.89736412089705" lon="8.550472330669102"><ele>14.0</ele><time>2026-04-07T09:29:52.998Z</time></trkpt><trkpt lat="33.89749726988986" lon="8.550212775769486"><ele>14.0</ele><time>2026-04-07T09:29:53.998Z</time></trkpt><trkpt lat="33.897630431223725" lon="8.549953807043241"><ele>14.0</ele><time>2026-04-07T09:29:54.998Z</time></trkpt><trkpt lat="33.89776222786073" lon="8.549694609194063"><ele>14.0</ele><time>2026-04-07T09:29:55.998Z</time></trkpt><trkpt lat="33.89789332910368" lon="8.549436911493373"><ele>15.0</ele><time>2026-04-07T09:29:56.998Z</time></trkpt><trkpt lat="33.89802367378078" lon="8.549178207978454"><ele>16.0</ele><time>2026-04-07T09:29:57.998Z</time></trkpt><trkpt lat="33.898156304386625" lon="8.548919294296192"><ele>15.0</ele><time>2026-04-07T09:29:58.998Z</time></trkpt><trkpt lat="33.898288056878464" lon="8.548658166939838"><ele>14.0</ele><time>2026-04-07T09:29:59.998Z</time></trkpt><trkpt lat="33.898419951575534" lon="8.548398572118101"><ele>13.0</ele><time>2026-04-07T09:30:00.998Z</time></trkpt><trkpt lat="33.89854924372344" lon="8.548138700963564"><ele>12.0</ele><time>2026-04-07T09:30:01.998Z</time></trkpt><trkpt lat="33.898677937478176" lon="8.547882973473785"><ele>13.5</ele><time>2026-04-07T09:30:02.998Z</time></trkpt><trkpt lat="33.89881013877721" lon="8.547625070511476"><ele>15.0</ele><time>2026-04-07T09:30:03.998Z</time></trkpt><trkpt lat="33.898943200666835" lon="8.54736637060223"><ele>15.0</ele><time>2026-04-07T09:30:04.998Z</time></trkpt><trkpt lat="33.899073442297635" lon="8.547106837895885"><ele>15.0</ele><time>2026-04-07T09:30:05.998Z</time></trkpt><trkpt lat="33.89920431444175" lon="8.546847049622395"><ele>15.0</ele><time>2026-04-07T09:30:06.998Z</time></trkpt><trkpt lat="33.899336160002974" lon="8.546587923609085"><ele>15.0</ele><time>2026-04-07T09:30:07.999Z</time></trkpt><trkpt lat="33.8994676134447" lon="8.54632979875547"><ele>16.5</ele><time>2026-04-07T09:30:08.999Z</time></trkpt><trkpt lat="33.89959932435613" lon="8.546071271829582"><ele>18.0</ele><time>2026-04-07T09:30:09.999Z</time></trkpt><trkpt lat="33.8997295051005" lon="8.545812786608085"><ele>18.0</ele><time>2026-04-07T09:30:10.999Z</time></trkpt><trkpt lat="33.89986042615161" lon="8.545553409829976"><ele>18.0</ele><time>2026-04-07T09:30:11.999Z</time></trkpt><trkpt lat="33.89999189292243" lon="8.545293825730568"><ele>15.5</ele><time>2026-04-07T09:30:12.999Z</time></trkpt><trkpt lat="33.90012499354822" lon="8.545037124306335"><ele>13.0</ele><time>2026-04-07T09:30:13.999Z</time></trkpt><trkpt lat="33.900258707847634" lon="8.544780023741819"><ele>14.0</ele><time>2026-04-07T09:30:14.999Z</time></trkpt><trkpt lat="33.90039129642061" lon="8.544524598348099"><ele>15.0</ele><time>2026-04-07T09:30:15.999Z</time></trkpt><trkpt lat="33.90052408170152" lon="8.544264652340024"><ele>15.0</ele><time>2026-04-07T09:30:16.999Z</time></trkpt><trkpt lat="33.900657929223584" lon="8.54400580493924"><ele>15.0</ele><time>2026-04-07T09:30:17.999Z</time></trkpt><trkpt lat="33.90078762296051" lon="8.54374952005583"><ele>15.5</ele><time>2026-04-07T09:30:18.999Z</time></trkpt><trkpt lat="33.90091978146" lon="8.543490383893298"><ele>16.0</ele><time>2026-04-07T09:30:19.999Z</time></trkpt><trkpt lat="33.901050101766835" lon="8.543229731690193"><ele>16.0</ele><time>2026-04-07T09:30:20.999Z</time></trkpt><trkpt lat="33.90118170968756" lon="8.542971150296605"><ele>16.0</ele><time>2026-04-07T09:30:21.999Z</time></trkpt><trkpt lat="33.90131238048629" lon="8.542711283334237"><ele>17.0</ele><time>2026-04-07T09:30:22.999Z</time></trkpt><trkpt lat="33.901441540218244" lon="8.542453304892195"><ele>18.0</ele><time>2026-04-07T09:30:23.999Z</time></trkpt><trkpt lat="33.90156885475223" lon="8.54219728655799"><ele>18.5</ele><time>2026-04-07T09:30:24.999Z</time></trkpt><trkpt lat="33.90169902108486" lon="8.541938518311929"><ele>19.0</ele><time>2026-04-07T09:30:25.999Z</time></trkpt><trkpt lat="33.90182916423711" lon="8.541677498658995"><ele>17.5</ele><time>2026-04-07T09:30:26.999Z</time></trkpt><trkpt lat="33.90195891972119" lon="8.54141863261373"><ele>16.0</ele><time>2026-04-07T09:30:27.999Z</time></trkpt><trkpt lat="33.90208942062743" lon="8.541159171715513"><ele>15.0</ele><time>2026-04-07T09:30:28.999Z</time></trkpt><trkpt lat="33.902221587390414" lon="8.540899828435718"><ele>14.0</ele><time>2026-04-07T09:30:29.999Z</time></trkpt><trkpt lat="33.902354326817516" lon="8.540639804071642"><ele>14.5</ele><time>2026-04-07T09:30:30.999Z</time></trkpt><trkpt lat="33.90248884405287" lon="8.540381174966198"><ele>15.0</ele><time>2026-04-07T09:30:31.999Z</time></trkpt><trkpt lat="33.90262203869531" lon="8.54012409411451"><ele>15.0</ele><time>2026-04-07T09:30:32.999Z</time></trkpt><trkpt lat="33.90275520359572" lon="8.539867723832447"><ele>15.0</ele><time>2026-04-07T09:30:33.999Z</time></trkpt><trkpt lat="33.90289054628616" lon="8.53961286762091"><ele>16.5</ele><time>2026-04-07T09:30:34.999Z</time></trkpt><trkpt lat="33.90302694093832" lon="8.539358039817726"><ele>18.0</ele><time>2026-04-07T09:30:35.999Z</time></trkpt><trkpt lat="33.90315838085899" lon="8.53909817630231"><ele>18.0</ele><time>2026-04-07T09:30:36.999Z</time></trkpt><trkpt lat="33.90328881621111" lon="8.538838007372302"><ele>18.0</ele><time>2026-04-07T09:30:37.999Z</time></trkpt><trkpt lat="33.90342030993456" lon="8.53857981948996"><ele>16.5</ele><time>2026-04-07T09:30:38.999Z</time></trkpt><trkpt lat="33.90355370727609" lon="8.538319254104696"><ele>15.0</ele><time>2026-04-07T09:30:39.999Z</time></trkpt><trkpt lat="33.90368497346046" lon="8.538059314408235"><ele>15.0</ele><time>2026-04-07T09:30:41Z</time></trkpt><trkpt lat="33.90381633922721" lon="8.537800347356681"><ele>15.0</ele><time>2026-04-07T09:30:42Z</time></trkpt><trkpt lat="33.90394651426403" lon="8.537540793935921"><ele>15.0</ele><time>2026-04-07T09:30:43Z</time></trkpt><trkpt lat="33.90407705734271" lon="8.537281162433883"><ele>15.0</ele><time>2026-04-07T09:30:44Z</time></trkpt><trkpt lat="33.90420901872509" lon="8.53702234275166"><ele>15.0</ele><time>2026-04-07T09:30:45Z</time></trkpt><trkpt lat="33.90434172126524" lon="8.53676491661972"><ele>15.0</ele><time>2026-04-07T09:30:46Z</time></trkpt><trkpt lat="33.904474018685185" lon="8.536508299593992"><ele>15.0</ele><time>2026-04-07T09:30:47Z</time></trkpt><trkpt lat="33.904604532903214" lon="8.536245592674147"><ele>15.0</ele><time>2026-04-07T09:30:48Z</time></trkpt><trkpt lat="33.904734109239286" lon="8.535985328779132"><ele>15.5</ele><time>2026-04-07T09:30:49Z</time></trkpt><trkpt lat="33.90486526335769" lon="8.535724081040279"><ele>16.0</ele><time>2026-04-07T09:30:50Z</time></trkpt><trkpt lat="33.90499592159333" lon="8.535464417742599"><ele>15.5</ele><time>2026-04-07T09:30:51Z</time></trkpt><trkpt lat="33.90512738360373" lon="8.535206388135068"><ele>15.0</ele><time>2026-04-07T09:30:52Z</time></trkpt><trkpt lat="33.90526216528388" lon="8.534949370888791"><ele>15.0</ele><time>2026-04-07T09:30:53Z</time></trkpt><trkpt lat="33.90539751435882" lon="8.534683125539848"><ele>15.0</ele><time>2026-04-07T09:30:54Z</time></trkpt><trkpt lat="33.90553198023187" lon="8.534429832322202"><ele>16.0</ele><time>2026-04-07T09:30:55Z</time></trkpt><trkpt lat="33.9056672948751" lon="8.534168064066886"><ele>17.0</ele><time>2026-04-07T09:30:56Z</time></trkpt><trkpt lat="33.90579621054633" lon="8.533912313807088"><ele>16.5</ele><time>2026-04-07T09:30:57Z</time></trkpt><trkpt lat="33.90592823561075" lon="8.533652531074516"><ele>16.0</ele><time>2026-04-07T09:30:58Z</time></trkpt><trkpt lat="33.90606193366341" lon="8.533394259957147"><ele>16.0</ele><time>2026-04-07T09:30:59Z</time></trkpt><trkpt lat="33.90619272001116" lon="8.533135113465383"><ele>16.0</ele><time>2026-04-07T09:31:00Z</time></trkpt><trkpt lat="33.906322243169114" lon="8.532873295496495"><ele>15.5</ele><time>2026-04-07T09:31:01Z</time></trkpt><trkpt lat="33.906445785682386" lon="8.5326072110593"><ele>15.0</ele><time>2026-04-07T09:31:02Z</time></trkpt><trkpt lat="33.90656397231292" lon="8.532339966041986"><ele>15.0</ele><time>2026-04-07T09:31:03Z</time></trkpt><trkpt lat="33.90667860713068" lon="8.532071711938672"><ele>15.0</ele><time>2026-04-07T09:31:04Z</time></trkpt><trkpt lat="33.906795230246395" lon="8.531800030770363"><ele>16.0</ele><time>2026-04-07T09:31:05Z</time></trkpt><trkpt lat="33.906909349379724" lon="8.531531252177283"><ele>17.0</ele><time>2026-04-07T09:31:06Z</time></trkpt><trkpt lat="33.90702588977182" lon="8.531260033689405"><ele>17.0</ele><time>2026-04-07T09:31:07Z</time></trkpt><trkpt lat="33.90714095407754" lon="8.530988309760373"><ele>17.0</ele><time>2026-04-07T09:31:08Z</time></trkpt><trkpt lat="33.90725277602252" lon="8.530717580417502"><ele>17.0</ele><time>2026-04-07T09:31:09Z</time></trkpt><trkpt lat="33.90736441806565" lon="8.530446627815904"><ele>17.0</ele><time>2026-04-07T09:31:10Z</time></trkpt><trkpt lat="33.90747521260347" lon="8.530181175200227"><ele>16.5</ele><time>2026-04-07T09:31:11Z</time></trkpt><trkpt lat="33.907585456323616" lon="8.529921541612213"><ele>16.0</ele><time>2026-04-07T09:31:12Z</time></trkpt><trkpt lat="33.90769385316664" lon="8.52966515708662"><ele>15.5</ele><time>2026-04-07T09:31:13Z</time></trkpt><trkpt lat="33.907801354860204" lon="8.529408154515265"><ele>15.0</ele><time>2026-04-07T09:31:14Z</time></trkpt><trkpt lat="33.907909086369095" lon="8.529150026755703"><ele>15.0</ele><time>2026-04-07T09:31:15Z</time></trkpt><trkpt lat="33.9080196172433" lon="8.528892174780086"><ele>15.0</ele><time>2026-04-07T09:31:16Z</time></trkpt><trkpt lat="33.90812909748212" lon="8.528633483641912"><ele>15.5</ele><time>2026-04-07T09:31:17Z</time></trkpt><trkpt lat="33.90823690039019" lon="8.528372790372968"><ele>16.0</ele><time>2026-04-07T09:31:18Z</time></trkpt><trkpt lat="33.90834365614436" lon="8.528112997992706"><ele>15.5</ele><time>2026-04-07T09:31:19Z</time></trkpt><trkpt lat="33.908449110527876" lon="8.527861283928715"><ele>15.0</ele><time>2026-04-07T09:31:20Z</time></trkpt><trkpt lat="33.90855600292097" lon="8.527606824617008"><ele>15.0</ele><time>2026-04-07T09:31:21Z</time></trkpt><trkpt lat="33.90866209576168" lon="8.52735585754126"><ele>15.0</ele><time>2026-04-07T09:31:22Z</time></trkpt><trkpt lat="33.90876691074706" lon="8.527104067613305"><ele>15.0</ele><time>2026-04-07T09:31:23Z</time></trkpt><trkpt lat="33.90886659997345" lon="8.526859279573152"><ele>15.0</ele><time>2026-04-07T09:31:24Z</time></trkpt><trkpt lat="33.90896767614169" lon="8.526613977321812"><ele>15.0</ele><time>2026-04-07T09:31:25Z</time></trkpt><trkpt lat="33.909066275023015" lon="8.526375535709958"><ele>15.0</ele><time>2026-04-07T09:31:26Z</time></trkpt><trkpt lat="33.90916753759933" lon="8.52613605810777"><ele>15.0</ele><time>2026-04-07T09:31:27Z</time></trkpt><trkpt lat="33.909269175596506" lon="8.525897356165219"><ele>15.0</ele><time>2026-04-07T09:31:28Z</time></trkpt><trkpt lat="33.90937035151759" lon="8.525659294969422"><ele>15.0</ele><time>2026-04-07T09:31:29Z</time></trkpt><trkpt lat="33.90947251312781" lon="8.52541908891452"><ele>15.0</ele><time>2026-04-07T09:31:30Z</time></trkpt><trkpt lat="33.9095729814271" lon="8.525178466384878"><ele>14.666666666666668</ele><time>2026-04-07T09:31:31Z</time></trkpt><trkpt lat="33.90967243780526" lon="8.52493600056314"><ele>14.333333333333334</ele><time>2026-04-07T09:31:32Z</time></trkpt><trkpt lat="33.909770777462505" lon="8.524697358540724"><ele>14.0</ele><time>2026-04-07T09:31:32.999Z</time></trkpt><trkpt lat="33.90987260863103" lon="8.524451787744429"><ele>14.0</ele><time>2026-04-07T09:31:33.999Z</time></trkpt><trkpt lat="33.90997237993062" lon="8.524208689029066"><ele>14.0</ele><time>2026-04-07T09:31:34.999Z</time></trkpt><trkpt lat="33.91007138448058" lon="8.523967018377641"><ele>14.0</ele><time>2026-04-07T09:31:35.999Z</time></trkpt><trkpt lat="33.91017340939581" lon="8.523728588676006"><ele>14.0</ele><time>2026-04-07T09:31:36.999Z</time></trkpt><trkpt lat="33.91027778515982" lon="8.523493386179783"><ele>14.0</ele><time>2026-04-07T09:31:37.999Z</time></trkpt><trkpt lat="33.910383847744775" lon="8.5232588674957"><ele>14.0</ele><time>2026-04-07T09:31:38.999Z</time></trkpt><trkpt lat="33.9104861377795" lon="8.523024358645834"><ele>14.0</ele><time>2026-04-07T09:31:39.999Z</time></trkpt><trkpt lat="33.9105858667986" lon="8.522785093549558"><ele>14.0</ele><time>2026-04-07T09:31:40.999Z</time></trkpt><trkpt lat="33.910685011963274" lon="8.522546598955723"><ele>14.0</ele><time>2026-04-07T09:31:41.999Z</time></trkpt><trkpt lat="33.910785221945645" lon="8.522309336775525"><ele>14.0</ele><time>2026-04-07T09:31:42.999Z</time></trkpt><trkpt lat="33.91088329744448" lon="8.5220691946893"><ele>14.0</ele><time>2026-04-07T09:31:43.999Z</time></trkpt><trkpt lat="33.91097989655473" lon="8.521829409968909"><ele>14.0</ele><time>2026-04-07T09:31:44.999Z</time></trkpt><trkpt lat="33.9110801392972" lon="8.521591091200445"><ele>14.0</ele><time>2026-04-07T09:31:45.999Z</time></trkpt><trkpt lat="33.91118267800621" lon="8.521352795798338"><ele>14.0</ele><time>2026-04-07T09:31:46.999Z</time></trkpt><trkpt lat="33.91128608540658" lon="8.521117675791727"><ele>14.0</ele><time>2026-04-07T09:31:47.999Z</time></trkpt><trkpt lat="33.911389683878205" lon="8.52088155449737"><ele>14.0</ele><time>2026-04-07T09:31:48.999Z</time></trkpt><trkpt lat="33.911490746117764" lon="8.520642705034088"><ele>14.0</ele><time>2026-04-07T09:31:49.999Z</time></trkpt><trkpt lat="33.91159055571552" lon="8.520403884382212"><ele>14.0</ele><time>2026-04-07T09:31:50.999Z</time></trkpt><trkpt lat="33.91169102847367" lon="8.520163810860419"><ele>15.333333333333334</ele><time>2026-04-07T09:31:51.999Z</time></trkpt><trkpt lat="33.91179070440852" lon="8.51992483852432"><ele>16.666666666666668</ele><time>2026-04-07T09:31:52.999Z</time></trkpt><trkpt lat="33.91189140015254" lon="8.519686138971139"><ele>18.0</ele><time>2026-04-07T09:31:53.999Z</time></trkpt><trkpt lat="33.911992289371014" lon="8.519444375779575"><ele>18.333333333333332</ele><time>2026-04-07T09:31:54.999Z</time></trkpt><trkpt lat="33.91209306530995" lon="8.519205982784793"><ele>18.666666666666664</ele><time>2026-04-07T09:31:55.999Z</time></trkpt><trkpt lat="33.912195738632214" lon="8.518965212725922"><ele>19.0</ele><time>2026-04-07T09:31:56.999Z</time></trkpt><trkpt lat="33.912295196381486" lon="8.518731641900299"><ele>18.333333333333332</ele><time>2026-04-07T09:31:57.999Z</time></trkpt><trkpt lat="33.912389872793355" lon="8.518527325404872"><ele>17.666666666666668</ele><time>2026-04-07T09:31:58.999Z</time></trkpt><trkpt lat="33.912471446940394" lon="8.518355462376471"><ele>17.0</ele><time>2026-04-07T09:31:59.999Z</time></trkpt><trkpt lat="33.9125401988849" lon="8.51820987892483"><ele>16.75</ele><time>2026-04-07T09:32:00.999Z</time></trkpt><trkpt lat="33.91259868750538" lon="8.51807880838822"><ele>16.5</ele><time>2026-04-07T09:32:01.999Z</time></trkpt><trkpt lat="33.91265888219939" lon="8.51793187871152"><ele>16.25</ele><time>2026-04-07T09:32:02.999Z</time></trkpt><trkpt lat="33.91272598892355" lon="8.517767664405719"><ele>16.0</ele><time>2026-04-07T09:32:03.999Z</time></trkpt><trkpt lat="33.91279570014503" lon="8.51759510279589"><ele>15.666666666666666</ele><time>2026-04-07T09:32:04.999Z</time></trkpt><trkpt lat="33.91286781701391" lon="8.517414896486052"><ele>15.333333333333332</ele><time>2026-04-07T09:32:05.999Z</time></trkpt><trkpt lat="33.912941828099605" lon="8.517229697400639"><ele>15.0</ele><time>2026-04-07T09:32:06.999Z</time></trkpt><trkpt lat="33.91302026087198" lon="8.517036283876385"><ele>14.666666666666668</ele><time>2026-04-07T09:32:07.999Z</time></trkpt><trkpt lat="33.91310218985651" lon="8.516838020654571"><ele>14.333333333333334</ele><time>2026-04-07T09:32:08.999Z</time></trkpt><trkpt lat="33.9131892662666" lon="8.516635651606197"><ele>14.0</ele><time>2026-04-07T09:32:09.999Z</time></trkpt><trkpt lat="33.91327854306554" lon="8.516425707235776"><ele>14.0</ele><time>2026-04-07T09:32:10.999Z</time></trkpt><trkpt lat="33.91336736301056" lon="8.516211550039964"><ele>14.0</ele><time>2026-04-07T09:32:11.999Z</time></trkpt><trkpt lat="33.91345751833304" lon="8.515993926694337"><ele>14.0</ele><time>2026-04-07T09:32:12.999Z</time></trkpt><trkpt lat="33.91354973444966" lon="8.515767891235367"><ele>14.666666666666668</ele><time>2026-04-07T09:32:13.999Z</time></trkpt><trkpt lat="33.91364214431007" lon="8.51554282989698"><ele>15.333333333333332</ele><time>2026-04-07T09:32:14.999Z</time></trkpt><trkpt lat="33.91373616037367" lon="8.515316293745435"><ele>16.0</ele><time>2026-04-07T09:32:15.999Z</time></trkpt><trkpt lat="33.91383601697104" lon="8.51508613918849"><ele>16.0</ele><time>2026-04-07T09:32:16.999Z</time></trkpt><trkpt lat="33.91393624917479" lon="8.514859075271083"><ele>16.0</ele><time>2026-04-07T09:32:17.999Z</time></trkpt><trkpt lat="33.91403454733731" lon="8.51463448565786"><ele>16.0</ele><time>2026-04-07T09:32:18.999Z</time></trkpt><trkpt lat="33.91413271090898" lon="8.514411251885033"><ele>16.0</ele><time>2026-04-07T09:32:19.999Z</time></trkpt><trkpt lat="33.91423425739264" lon="8.514188221299596"><ele>16.0</ele><time>2026-04-07T09:32:20.999Z</time></trkpt><trkpt lat="33.914339347866004" lon="8.513966220313096"><ele>16.0</ele><time>2026-04-07T09:32:21.999Z</time></trkpt><trkpt lat="33.91445020436908" lon="8.51374898990045"><ele>16.0</ele><time>2026-04-07T09:32:22.999Z</time></trkpt><trkpt lat="33.91456490755317" lon="8.513532027941556"><ele>16.0</ele><time>2026-04-07T09:32:23.999Z</time></trkpt><trkpt lat="33.91468218019352" lon="8.51331925757947"><ele>16.0</ele><time>2026-04-07T09:32:24.999Z</time></trkpt><trkpt lat="33.91480035169029" lon="8.513104359666203"><ele>15.666666666666666</ele><time>2026-04-07T09:32:25.999Z</time></trkpt><trkpt lat="33.91491778704416" lon="8.512891762726625"><ele>15.333333333333332</ele><time>2026-04-07T09:32:26.999Z</time></trkpt><trkpt lat="33.91503316330647" lon="8.512675586980919"><ele>15.0</ele><time>2026-04-07T09:32:27.999Z</time></trkpt><trkpt lat="33.91514839859778" lon="8.512458301050366"><ele>15.0</ele><time>2026-04-07T09:32:28.999Z</time></trkpt><trkpt lat="33.915262487783295" lon="8.51224197937061"><ele>15.0</ele><time>2026-04-07T09:32:29.999Z</time></trkpt><trkpt lat="33.915376648866705" lon="8.512028391040579"><ele>15.0</ele><time>2026-04-07T09:32:30.999Z</time></trkpt><trkpt lat="33.91549196921206" lon="8.511814198992939"><ele>15.0</ele><time>2026-04-07T09:32:31.999Z</time></trkpt><trkpt lat="33.915607716231335" lon="8.5115983240003"><ele>15.0</ele><time>2026-04-07T09:32:32.999Z</time></trkpt><trkpt lat="33.91572279555647" lon="8.511383057574516"><ele>15.0</ele><time>2026-04-07T09:32:34Z</time></trkpt><trkpt lat="33.91583531161177" lon="8.511166540804705"><ele>14.666666666666668</ele><time>2026-04-07T09:32:35Z</time></trkpt><trkpt lat="33.91594674246099" lon="8.510948316340967"><ele>14.333333333333334</ele><time>2026-04-07T09:32:36Z</time></trkpt><trkpt lat="33.91605633514496" lon="8.510728050666993"><ele>14.0</ele><time>2026-04-07T09:32:37Z</time></trkpt><trkpt lat="33.91616246523874" lon="8.51050563702052"><ele>14.0</ele><time>2026-04-07T09:32:38Z</time></trkpt><trkpt lat="33.916264871518564" lon="8.510280154256916"><ele>14.0</ele><time>2026-04-07T09:32:39Z</time></trkpt><trkpt lat="33.91636088254713" lon="8.510048526475504"><ele>14.0</ele><time>2026-04-07T09:32:40Z</time></trkpt><trkpt lat="33.916454975844026" lon="8.50981926982055"><ele>14.0</ele><time>2026-04-07T09:32:41Z</time></trkpt><trkpt lat="33.916549746889466" lon="8.509588751289106"><ele>14.0</ele><time>2026-04-07T09:32:42Z</time></trkpt><trkpt lat="33.91664448179136" lon="8.509360278298534"><ele>14.0</ele><time>2026-04-07T09:32:43Z</time></trkpt><trkpt lat="33.916738892249626" lon="8.50913227454436"><ele>14.666666666666668</ele><time>2026-04-07T09:32:44Z</time></trkpt><trkpt lat="33.91683452219984" lon="8.508902266667342"><ele>15.333333333333332</ele><time>2026-04-07T09:32:45Z</time></trkpt><trkpt lat="33.91692935299019" lon="8.50867358328446"><ele>16.0</ele><time>2026-04-07T09:32:46Z</time></trkpt><trkpt lat="33.91702442363028" lon="8.508443395342692"><ele>16.0</ele><time>2026-04-07T09:32:47Z</time></trkpt><trkpt lat="33.91711854989832" lon="8.508215165523493"><ele>16.0</ele><time>2026-04-07T09:32:48Z</time></trkpt><trkpt lat="33.91721144398409" lon="8.50798700410447"><ele>16.0</ele><time>2026-04-07T09:32:49Z</time></trkpt><trkpt lat="33.91730157039959" lon="8.507755340413562"><ele>16.0</ele><time>2026-04-07T09:32:50Z</time></trkpt><trkpt lat="33.91739102653659" lon="8.507526072415791"><ele>16.0</ele><time>2026-04-07T09:32:51Z</time></trkpt><trkpt lat="33.91747798803854" lon="8.50728817753642"><ele>16.0</ele><time>2026-04-07T09:32:52Z</time></trkpt><trkpt lat="33.917564917470045" lon="8.507043193961314"><ele>15.5</ele><time>2026-04-07T09:32:53Z</time></trkpt><trkpt lat="33.91765097612465" lon="8.5067813770146"><ele>15.0</ele><time>2026-04-07T09:32:54Z</time></trkpt><trkpt lat="33.91773706797205" lon="8.506502805674707"><ele>14.0</ele><time>2026-04-07T09:32:55Z</time></trkpt><trkpt lat="33.91781949216283" lon="8.506228342924695"><ele>13.0</ele><time>2026-04-07T09:32:56Z</time></trkpt><trkpt lat="33.917905739843164" lon="8.50595245846761"><ele>13.0</ele><time>2026-04-07T09:32:57Z</time></trkpt><trkpt lat="33.917993119599274" lon="8.505677966881676"><ele>13.0</ele><time>2026-04-07T09:32:58Z</time></trkpt><trkpt lat="33.91808228797764" lon="8.505396191281507"><ele>14.0</ele><time>2026-04-07T09:32:59Z</time></trkpt><trkpt lat="33.91817027078085" lon="8.505109676589708"><ele>15.0</ele><time>2026-04-07T09:33:00Z</time></trkpt><trkpt lat="33.91826015847104" lon="8.504818556491609"><ele>15.0</ele><time>2026-04-07T09:33:01Z</time></trkpt><trkpt lat="33.91835603820451" lon="8.504526598159345"><ele>15.0</ele><time>2026-04-07T09:33:02Z</time></trkpt><trkpt lat="33.91845241851851" lon="8.504231922998859"><ele>15.0</ele><time>2026-04-07T09:33:03Z</time></trkpt><trkpt lat="33.91854900974414" lon="8.503935433912028"><ele>15.0</ele><time>2026-04-07T09:33:04Z</time></trkpt><trkpt lat="33.91865208641524" lon="8.50363600471117"><ele>14.5</ele><time>2026-04-07T09:33:05Z</time></trkpt><trkpt lat="33.91876326828844" lon="8.503339204897891"><ele>14.0</ele><time>2026-04-07T09:33:06Z</time></trkpt><trkpt lat="33.918880690278975" lon="8.503047465568383"><ele>15.0</ele><time>2026-04-07T09:33:07Z</time></trkpt><trkpt lat="33.91900332717694" lon="8.502758668881635"><ele>16.0</ele><time>2026-04-07T09:33:08Z</time></trkpt><trkpt lat="33.91912805072371" lon="8.50247430093775"><ele>15.5</ele><time>2026-04-07T09:33:09Z</time></trkpt><trkpt lat="33.91925344914272" lon="8.502190228215786"><ele>15.0</ele><time>2026-04-07T09:33:10Z</time></trkpt><trkpt lat="33.91937488398351" lon="8.501903316576733"><ele>14.5</ele><time>2026-04-07T09:33:11Z</time></trkpt><trkpt lat="33.91949237688407" lon="8.50161442815951"><ele>14.0</ele><time>2026-04-07T09:33:12Z</time></trkpt><trkpt lat="33.91960966868547" lon="8.501328920930096"><ele>14.0</ele><time>2026-04-07T09:33:13Z</time></trkpt><trkpt lat="33.91973014861916" lon="8.501039433540095"><ele>14.0</ele><time>2026-04-07T09:33:14Z</time></trkpt><trkpt lat="33.91984834177398" lon="8.500756009958334"><ele>14.0</ele><time>2026-04-07T09:33:15Z</time></trkpt><trkpt lat="33.91996616056001" lon="8.500465728657131"><ele>14.0</ele><time>2026-04-07T09:33:16Z</time></trkpt><trkpt lat="33.920081973418924" lon="8.500177977040337"><ele>13.5</ele><time>2026-04-07T09:33:17Z</time></trkpt><trkpt lat="33.92019950234819" lon="8.499888043876311"><ele>13.0</ele><time>2026-04-07T09:33:18Z</time></trkpt><trkpt lat="33.92031862944571" lon="8.499599378559308"><ele>14.0</ele><time>2026-04-07T09:33:19Z</time></trkpt><trkpt lat="33.92043841798601" lon="8.499311132185245"><ele>15.0</ele><time>2026-04-07T09:33:20Z</time></trkpt><trkpt lat="33.920558750714015" lon="8.49902253155305"><ele>14.0</ele><time>2026-04-07T09:33:21Z</time></trkpt><trkpt lat="33.92067832937697" lon="8.498734141123025"><ele>13.0</ele><time>2026-04-07T09:33:22Z</time></trkpt><trkpt lat="33.92079875279019" lon="8.498443459660207"><ele>13.0</ele><time>2026-04-07T09:33:23Z</time></trkpt><trkpt lat="33.920918219521766" lon="8.49815766880268"><ele>13.0</ele><time>2026-04-07T09:33:24Z</time></trkpt><trkpt lat="33.92103959158897" lon="8.497868515278206"><ele>14.0</ele><time>2026-04-07T09:33:25Z</time></trkpt><trkpt lat="33.92116208440861" lon="8.497584543491564"><ele>15.0</ele><time>2026-04-07T09:33:26Z</time></trkpt><trkpt lat="33.92128393751639" lon="8.497298191130119"><ele>15.5</ele><time>2026-04-07T09:33:27Z</time></trkpt><trkpt lat="33.921402247438444" lon="8.497013227717026"><ele>16.0</ele><time>2026-04-07T09:33:28Z</time></trkpt><trkpt lat="33.92151856407496" lon="8.496724290271889"><ele>16.0</ele><time>2026-04-07T09:33:29Z</time></trkpt><trkpt lat="33.92163133154867" lon="8.496433122846055"><ele>16.0</ele><time>2026-04-07T09:33:30Z</time></trkpt><trkpt lat="33.92174637581005" lon="8.496139325671916"><ele>16.0</ele><time>2026-04-07T09:33:31Z</time></trkpt><trkpt lat="33.921865972463266" lon="8.495851988777853"><ele>16.0</ele><time>2026-04-07T09:33:32Z</time></trkpt><trkpt lat="33.92198724463589" lon="8.495571344790923"><ele>15.5</ele><time>2026-04-07T09:33:33Z</time></trkpt><trkpt lat="33.92210817334727" lon="8.495286463916045"><ele>15.0</ele><time>2026-04-07T09:33:34Z</time></trkpt><trkpt lat="33.92222992964879" lon="8.494999092705578"><ele>15.0</ele><time>2026-04-07T09:33:35Z</time></trkpt><trkpt lat="33.92235033466865" lon="8.494717306310397"><ele>15.0</ele><time>2026-04-07T09:33:36Z</time></trkpt><trkpt lat="33.92247263484185" lon="8.494431873622833"><ele>14.5</ele><time>2026-04-07T09:33:37Z</time></trkpt><trkpt lat="33.92259471569048" lon="8.494144283747804"><ele>14.0</ele><time>2026-04-07T09:33:38Z</time></trkpt><trkpt lat="33.92271611610761" lon="8.493858854372302"><ele>13.5</ele><time>2026-04-07T09:33:39Z</time></trkpt><trkpt lat="33.92283628195758" lon="8.493571110352246"><ele>13.0</ele><time>2026-04-07T09:33:40Z</time></trkpt><trkpt lat="33.92295480243549" lon="8.493285847719392"><ele>13.0</ele><time>2026-04-07T09:33:41Z</time></trkpt><trkpt lat="33.923074001214744" lon="8.492998353242507"><ele>13.0</ele><time>2026-04-07T09:33:42Z</time></trkpt><trkpt lat="33.92319574823217" lon="8.492708221167948"><ele>14.0</ele><time>2026-04-07T09:33:43Z</time></trkpt><trkpt lat="33.92331703361398" lon="8.492422035170026"><ele>15.0</ele><time>2026-04-07T09:33:44Z</time></trkpt><trkpt lat="33.92343502903702" lon="8.492134918381408"><ele>15.0</ele><time>2026-04-07T09:33:45Z</time></trkpt><trkpt lat="33.92355636366082" lon="8.491848610319023"><ele>15.0</ele><time>2026-04-07T09:33:46Z</time></trkpt><trkpt lat="33.923677694657826" lon="8.4915616650832"><ele>15.0</ele><time>2026-04-07T09:33:47Z</time></trkpt><trkpt lat="33.923799285063104" lon="8.491276117625972"><ele>15.0</ele><time>2026-04-07T09:33:48Z</time></trkpt><trkpt lat="33.923921968591365" lon="8.490990307173169"><ele>15.0</ele><time>2026-04-07T09:33:49Z</time></trkpt><trkpt lat="33.92404376644405" lon="8.490706454219048"><ele>15.0</ele><time>2026-04-07T09:33:50Z</time></trkpt><trkpt lat="33.924164390505396" lon="8.490418156909701"><ele>16.0</ele><time>2026-04-07T09:33:51Z</time></trkpt><trkpt lat="33.92428311965152" lon="8.490128041604724"><ele>17.0</ele><time>2026-04-07T09:33:52Z</time></trkpt><trkpt lat="33.92440237345789" lon="8.489842554245406"><ele>16.5</ele><time>2026-04-07T09:33:53Z</time></trkpt><trkpt lat="33.924523299965855" lon="8.489554072399843"><ele>16.0</ele><time>2026-04-07T09:33:54Z</time></trkpt><trkpt lat="33.924644817099946" lon="8.489270868559203"><ele>16.0</ele><time>2026-04-07T09:33:55Z</time></trkpt><trkpt lat="33.924764015466785" lon="8.488986273095016"><ele>16.0</ele><time>2026-04-07T09:33:56Z</time></trkpt><trkpt lat="33.92488158096538" lon="8.488698506129241"><ele>16.0</ele><time>2026-04-07T09:33:57Z</time></trkpt><trkpt lat="33.92500183055751" lon="8.488415367279597"><ele>16.0</ele><time>2026-04-07T09:33:58Z</time></trkpt><trkpt lat="33.92512191625487" lon="8.488126019962719"><ele>16.0</ele><time>2026-04-07T09:33:59Z</time></trkpt><trkpt lat="33.92523970992652" lon="8.487841782406534"><ele>16.0</ele><time>2026-04-07T09:34:00Z</time></trkpt><trkpt lat="33.925359180709854" lon="8.487555473045774"><ele>16.0</ele><time>2026-04-07T09:34:01Z</time></trkpt><trkpt lat="33.92548103421035" lon="8.487266578973951"><ele>16.0</ele><time>2026-04-07T09:34:02Z</time></trkpt><trkpt lat="33.925604817358376" lon="8.486981656301301"><ele>15.0</ele><time>2026-04-07T09:34:03Z</time></trkpt><trkpt lat="33.92572850181111" lon="8.486695451816791"><ele>14.0</ele><time>2026-04-07T09:34:04Z</time></trkpt><trkpt lat="33.92585235077875" lon="8.486405971568797"><ele>14.5</ele><time>2026-04-07T09:34:05Z</time></trkpt><trkpt lat="33.92597186957352" lon="8.486122663041268"><ele>15.0</ele><time>2026-04-07T09:34:06Z</time></trkpt><trkpt lat="33.92609283389703" lon="8.485830953433812"><ele>15.0</ele><time>2026-04-07T09:34:07Z</time></trkpt><trkpt lat="33.926215493870856" lon="8.48554549264763"><ele>15.0</ele><time>2026-04-07T09:34:08Z</time></trkpt><trkpt lat="33.926338910692124" lon="8.485260221780493"><ele>15.5</ele><time>2026-04-07T09:34:09Z</time></trkpt><trkpt lat="33.926462784144704" lon="8.48497243350721"><ele>16.0</ele><time>2026-04-07T09:34:10Z</time></trkpt><trkpt lat="33.92658697311034" lon="8.484687406435063"><ele>16.0</ele><time>2026-04-07T09:34:11Z</time></trkpt><trkpt lat="33.92670901470059" lon="8.484400899070874"><ele>16.0</ele><time>2026-04-07T09:34:12Z</time></trkpt><trkpt lat="33.92683042620687" lon="8.484115508575218"><ele>15.0</ele><time>2026-04-07T09:34:12.999Z</time></trkpt><trkpt lat="33.92695357324973" lon="8.483827779658643"><ele>14.0</ele><time>2026-04-07T09:34:13.999Z</time></trkpt><trkpt lat="33.927080745286005" lon="8.483535629182592"><ele>14.0</ele><time>2026-04-07T09:34:14.999Z</time></trkpt><trkpt lat="33.92720962749706" lon="8.483239717382805"><ele>14.0</ele><time>2026-04-07T09:34:15.999Z</time></trkpt><trkpt lat="33.927339086209216" lon="8.482939694066495"><ele>14.0</ele><time>2026-04-07T09:34:16.999Z</time></trkpt><trkpt lat="33.927469475973666" lon="8.482639662827303"><ele>14.0</ele><time>2026-04-07T09:34:17.999Z</time></trkpt><trkpt lat="33.927599056996016" lon="8.482340301926158"><ele>14.5</ele><time>2026-04-07T09:34:18.999Z</time></trkpt><trkpt lat="33.927725221268815" lon="8.482037465269213"><ele>15.0</ele><time>2026-04-07T09:34:19.999Z</time></trkpt><trkpt lat="33.92784977772931" lon="8.481736789912329"><ele>15.0</ele><time>2026-04-07T09:34:20.999Z</time></trkpt><trkpt lat="33.927972499174146" lon="8.481433333212948"><ele>15.0</ele><time>2026-04-07T09:34:21.999Z</time></trkpt><trkpt lat="33.92809603569899" lon="8.481131631058176"><ele>15.0</ele><time>2026-04-07T09:34:22.999Z</time></trkpt><trkpt lat="33.92822056919512" lon="8.480832319012462"><ele>15.0</ele><time>2026-04-07T09:34:23.999Z</time></trkpt><trkpt lat="33.92834467715808" lon="8.480530761196464"><ele>14.0</ele><time>2026-04-07T09:34:24.999Z</time></trkpt><trkpt lat="33.9284701588317" lon="8.480230626507641"><ele>13.0</ele><time>2026-04-07T09:34:25.999Z</time></trkpt><trkpt lat="33.92859764915808" lon="8.479932560191635"><ele>13.0</ele><time>2026-04-07T09:34:26.999Z</time></trkpt><trkpt lat="33.92872359322538" lon="8.479630527829379"><ele>13.0</ele><time>2026-04-07T09:34:27.999Z</time></trkpt><trkpt lat="33.92884801137597" lon="8.479329599387903"><ele>13.0</ele><time>2026-04-07T09:34:28.999Z</time></trkpt><trkpt lat="33.92897232146857" lon="8.479027025505557"><ele>13.0</ele><time>2026-04-07T09:34:29.999Z</time></trkpt><trkpt lat="33.929097278487546" lon="8.478726599993378"><ele>13.5</ele><time>2026-04-07T09:34:30.999Z</time></trkpt><trkpt lat="33.929224016666275" lon="8.478427401549071"><ele>14.0</ele><time>2026-04-07T09:34:31.999Z</time></trkpt><trkpt lat="33.929350481830106" lon="8.478126669254111"><ele>15.0</ele><time>2026-04-07T09:34:32.999Z</time></trkpt><trkpt lat="33.9294763998632" lon="8.47782539552919"><ele>16.0</ele><time>2026-04-07T09:34:34Z</time></trkpt><trkpt lat="33.929601940488595" lon="8.477527380382648"><ele>16.0</ele><time>2026-04-07T09:34:35Z</time></trkpt><trkpt lat="33.92972772830898" lon="8.477231069790019"><ele>16.0</ele><time>2026-04-07T09:34:36Z</time></trkpt><trkpt lat="33.92985177184439" lon="8.476934715463347"><ele>15.5</ele><time>2026-04-07T09:34:37Z</time></trkpt><trkpt lat="33.92997827210276" lon="8.476636569823185"><ele>15.0</ele><time>2026-04-07T09:34:38Z</time></trkpt><trkpt lat="33.93010969644556" lon="8.476336397714917"><ele>14.5</ele><time>2026-04-07T09:34:39Z</time></trkpt><trkpt lat="33.930237018969585" lon="8.476037759533018"><ele>14.0</ele><time>2026-04-07T09:34:40Z</time></trkpt><trkpt lat="33.93036546762173" lon="8.475738471001282"><ele>14.0</ele><time>2026-04-07T09:34:41Z</time></trkpt><trkpt lat="33.93049520344694" lon="8.475442614949586"><ele>14.0</ele><time>2026-04-07T09:34:42Z</time></trkpt><trkpt lat="33.930621348310055" lon="8.475141642004331"><ele>14.5</ele><time>2026-04-07T09:34:43Z</time></trkpt><trkpt lat="33.930742923294275" lon="8.474843284739357"><ele>15.0</ele><time>2026-04-07T09:34:44Z</time></trkpt><trkpt lat="33.93086881659617" lon="8.474540151925911"><ele>15.5</ele><time>2026-04-07T09:34:45Z</time></trkpt><trkpt lat="33.930995807554055" lon="8.474239016825635"><ele>16.0</ele><time>2026-04-07T09:34:46Z</time></trkpt><trkpt lat="33.931123199940345" lon="8.47394093095513"><ele>15.5</ele><time>2026-04-07T09:34:47Z</time></trkpt><trkpt lat="33.93125234286868" lon="8.473641425484562"><ele>15.0</ele><time>2026-04-07T09:34:48Z</time></trkpt><trkpt lat="33.931380104302356" lon="8.473342818493174"><ele>15.0</ele><time>2026-04-07T09:34:49Z</time></trkpt><trkpt lat="33.93150590145968" lon="8.473044064490239"><ele>15.0</ele><time>2026-04-07T09:34:50Z</time></trkpt><trkpt lat="33.931631336412714" lon="8.472743561209654"><ele>14.5</ele><time>2026-04-07T09:34:51Z</time></trkpt><trkpt lat="33.93175889763937" lon="8.472444732246469"><ele>14.0</ele><time>2026-04-07T09:34:52Z</time></trkpt><trkpt lat="33.93188533032367" lon="8.472145136125363"><ele>14.0</ele><time>2026-04-07T09:34:53Z</time></trkpt><trkpt lat="33.93201141432348" lon="8.471843230280275"><ele>14.0</ele><time>2026-04-07T09:34:54Z</time></trkpt><trkpt lat="33.93213529665632" lon="8.471542620459314"><ele>14.0</ele><time>2026-04-07T09:34:55Z</time></trkpt><trkpt lat="33.93226026758981" lon="8.471241539267808"><ele>14.0</ele><time>2026-04-07T09:34:56Z</time></trkpt><trkpt lat="33.932387474604084" lon="8.4709425336698"><ele>14.0</ele><time>2026-04-07T09:34:57Z</time></trkpt><trkpt lat="33.932513371816974" lon="8.47064295471929"><ele>14.0</ele><time>2026-04-07T09:34:58Z</time></trkpt><trkpt lat="33.93263839544476" lon="8.470343058090478"><ele>14.5</ele><time>2026-04-07T09:34:59Z</time></trkpt><trkpt lat="33.93276657237383" lon="8.470044026638869"><ele>15.0</ele><time>2026-04-07T09:35:00Z</time></trkpt><trkpt lat="33.93289130643094" lon="8.469745319795564"><ele>15.5</ele><time>2026-04-07T09:35:01Z</time></trkpt><trkpt lat="33.93301708854152" lon="8.469443794117248"><ele>16.0</ele><time>2026-04-07T09:35:02Z</time></trkpt><trkpt lat="33.93314357114466" lon="8.469145494309133"><ele>16.0</ele><time>2026-04-07T09:35:03Z</time></trkpt><trkpt lat="33.933269059410506" lon="8.468843700689963"><ele>16.0</ele><time>2026-04-07T09:35:04Z</time></trkpt><trkpt lat="33.93339489986108" lon="8.46854302845314"><ele>15.0</ele><time>2026-04-07T09:35:05Z</time></trkpt><trkpt lat="33.93352292223584" lon="8.46824359653747"><ele>14.0</ele><time>2026-04-07T09:35:06Z</time></trkpt><trkpt lat="33.933646875338844" lon="8.46794196295958"><ele>13.5</ele><time>2026-04-07T09:35:07Z</time></trkpt><trkpt lat="33.933771034299205" lon="8.467639126505123"><ele>13.0</ele><time>2026-04-07T09:35:08Z</time></trkpt><trkpt lat="33.93389362572319" lon="8.467339455738601"><ele>14.0</ele><time>2026-04-07T09:35:09Z</time></trkpt><trkpt lat="33.93402343512273" lon="8.467042037729401"><ele>15.0</ele><time>2026-04-07T09:35:10Z</time></trkpt><trkpt lat="33.934151933405346" lon="8.466742646430271"><ele>14.5</ele><time>2026-04-07T09:35:11Z</time></trkpt><trkpt lat="33.93427826105075" lon="8.466441523599208"><ele>14.0</ele><time>2026-04-07T09:35:12Z</time></trkpt><trkpt lat="33.934402452804456" lon="8.466142197559142"><ele>14.0</ele><time>2026-04-07T09:35:13Z</time></trkpt><trkpt lat="33.9345269117705" lon="8.465840663450921"><ele>14.0</ele><time>2026-04-07T09:35:14Z</time></trkpt><trkpt lat="33.93464812642283" lon="8.465539498506185"><ele>13.5</ele><time>2026-04-07T09:35:15Z</time></trkpt><trkpt lat="33.93476843047195" lon="8.465237567996558"><ele>13.0</ele><time>2026-04-07T09:35:16Z</time></trkpt><trkpt lat="33.93488777982036" lon="8.464933477006952"><ele>13.0</ele><time>2026-04-07T09:35:17Z</time></trkpt><trkpt lat="33.93500436632658" lon="8.464622558053339"><ele>13.0</ele><time>2026-04-07T09:35:18Z</time></trkpt><trkpt lat="33.93512220312329" lon="8.464319754979043"><ele>13.0</ele><time>2026-04-07T09:35:19Z</time></trkpt><trkpt lat="33.93523791854212" lon="8.464012101390814"><ele>13.0</ele><time>2026-04-07T09:35:20Z</time></trkpt><trkpt lat="33.93534674824542" lon="8.463701156738745"><ele>13.5</ele><time>2026-04-07T09:35:21Z</time></trkpt><trkpt lat="33.93545199090101" lon="8.463390735195427"><ele>14.0</ele><time>2026-04-07T09:35:22Z</time></trkpt><trkpt lat="33.935558459123975" lon="8.46308132053831"><ele>14.0</ele><time>2026-04-07T09:35:23Z</time></trkpt><trkpt lat="33.93566157664719" lon="8.462770148757436"><ele>14.0</ele><time>2026-04-07T09:35:24Z</time></trkpt><trkpt lat="33.93576117682271" lon="8.46245598748699"><ele>14.0</ele><time>2026-04-07T09:35:25Z</time></trkpt><trkpt lat="33.93586366293137" lon="8.462143114212399"><ele>14.0</ele><time>2026-04-07T09:35:26Z</time></trkpt><trkpt lat="33.935969826501534" lon="8.461832219584357"><ele>14.0</ele><time>2026-04-07T09:35:27Z</time></trkpt><trkpt lat="33.93607594359749" lon="8.461520256282162"><ele>14.0</ele><time>2026-04-07T09:35:28Z</time></trkpt><trkpt lat="33.936184221636466" lon="8.461210662281145"><ele>14.0</ele><time>2026-04-07T09:35:29Z</time></trkpt><trkpt lat="33.93629106446662" lon="8.460901782744024"><ele>14.0</ele><time>2026-04-07T09:35:30Z</time></trkpt><trkpt lat="33.93639662545672" lon="8.460590154685756"><ele>14.5</ele><time>2026-04-07T09:35:31Z</time></trkpt><trkpt lat="33.93650128195033" lon="8.460278885336475"><ele>15.0</ele><time>2026-04-07T09:35:32Z</time></trkpt><trkpt lat="33.93660604077441" lon="8.45996741666585"><ele>15.0</ele><time>2026-04-07T09:35:33Z</time></trkpt><trkpt lat="33.93671329292888" lon="8.45965531670111"><ele>15.0</ele><time>2026-04-07T09:35:34Z</time></trkpt><trkpt lat="33.936821041268686" lon="8.459346104341977"><ele>14.5</ele><time>2026-04-07T09:35:35Z</time></trkpt><trkpt lat="33.936926078606426" lon="8.459035801167268"><ele>14.0</ele><time>2026-04-07T09:35:36Z</time></trkpt><trkpt lat="33.93703093573439" lon="8.45872535813432"><ele>14.0</ele><time>2026-04-07T09:35:37Z</time></trkpt><trkpt lat="33.93713750719183" lon="8.4584141842981"><ele>14.0</ele><time>2026-04-07T09:35:38Z</time></trkpt><trkpt lat="33.937242333595506" lon="8.458101609733813"><ele>14.0</ele><time>2026-04-07T09:35:39Z</time></trkpt><trkpt lat="33.93734686117584" lon="8.457789683126029"><ele>14.0</ele><time>2026-04-07T09:35:40Z</time></trkpt><trkpt lat="33.93745144662095" lon="8.457479038463774"><ele>14.0</ele><time>2026-04-07T09:35:41Z</time></trkpt><trkpt lat="33.93755723672859" lon="8.457171742716868"><ele>14.0</ele><time>2026-04-07T09:35:42Z</time></trkpt><trkpt lat="33.9376643962061" lon="8.456859855472791"><ele>14.0</ele><time>2026-04-07T09:35:43Z</time></trkpt><trkpt lat="33.937769044401186" lon="8.456548518554024"><ele>14.0</ele><time>2026-04-07T09:35:44Z</time></trkpt><trkpt lat="33.93787239769588" lon="8.456237799536629"><ele>14.5</ele><time>2026-04-07T09:35:45Z</time></trkpt><trkpt lat="33.937976024572365" lon="8.455927564380058"><ele>15.0</ele><time>2026-04-07T09:35:46Z</time></trkpt><trkpt lat="33.93808187768309" lon="8.455616655487672"><ele>15.0</ele><time>2026-04-07T09:35:47Z</time></trkpt><trkpt lat="33.938188615884144" lon="8.455306041936248"><ele>15.0</ele><time>2026-04-07T09:35:48Z</time></trkpt><trkpt lat="33.93829601376506" lon="8.454995665917034"><ele>15.0</ele><time>2026-04-07T09:35:49Z</time></trkpt><trkpt lat="33.93840171082995" lon="8.454683952496922"><ele>15.0</ele><time>2026-04-07T09:35:50Z</time></trkpt><trkpt lat="33.9385083635223" lon="8.454372487416272"><ele>14.5</ele><time>2026-04-07T09:35:51Z</time></trkpt><trkpt lat="33.93861208164132" lon="8.454061253435052"><ele>14.0</ele><time>2026-04-07T09:35:52Z</time></trkpt><trkpt lat="33.93871863495614" lon="8.453749336816971"><ele>15.0</ele><time>2026-04-07T09:35:53Z</time></trkpt><trkpt lat="33.93882513131874" lon="8.45343913517652"><ele>16.0</ele><time>2026-04-07T09:35:54Z</time></trkpt><trkpt lat="33.938930707677066" lon="8.453128467894672"><ele>15.5</ele><time>2026-04-07T09:35:55Z</time></trkpt><trkpt lat="33.93903810726093" lon="8.452818357097453"><ele>15.0</ele><time>2026-04-07T09:35:56Z</time></trkpt><trkpt lat="33.939146675237374" lon="8.45250767663903"><ele>16.0</ele><time>2026-04-07T09:35:57Z</time></trkpt><trkpt lat="33.93925797244764" lon="8.452195350502818"><ele>17.0</ele><time>2026-04-07T09:35:58Z</time></trkpt><trkpt lat="33.93936873255761" lon="8.45187825787582"><ele>17.5</ele><time>2026-04-07T09:35:59Z</time></trkpt><trkpt lat="33.93947829168519" lon="8.451558109458272"><ele>18.0</ele><time>2026-04-07T09:36:00Z</time></trkpt><trkpt lat="33.93958573021957" lon="8.451237619820894"><ele>18.0</ele><time>2026-04-07T09:36:01Z</time></trkpt><trkpt lat="33.93969477405773" lon="8.450915703275543"><ele>18.0</ele><time>2026-04-07T09:36:02Z</time></trkpt><trkpt lat="33.93980207780493" lon="8.450595092971046"><ele>18.0</ele><time>2026-04-07T09:36:03Z</time></trkpt><trkpt lat="33.939909684853866" lon="8.450272921630097"><ele>18.0</ele><time>2026-04-07T09:36:04Z</time></trkpt><trkpt lat="33.94001657550399" lon="8.449951691189126"><ele>17.0</ele><time>2026-04-07T09:36:05Z</time></trkpt><trkpt lat="33.940125803404534" lon="8.449632719491147"><ele>16.0</ele><time>2026-04-07T09:36:06Z</time></trkpt><trkpt lat="33.940236071262646" lon="8.449313476349914"><ele>15.5</ele><time>2026-04-07T09:36:07Z</time></trkpt><trkpt lat="33.940345498034844" lon="8.448994040270511"><ele>15.0</ele><time>2026-04-07T09:36:08Z</time></trkpt><trkpt lat="33.94044975986018" lon="8.448672202439527"><ele>15.0</ele><time>2026-04-07T09:36:09Z</time></trkpt><trkpt lat="33.94054938883211" lon="8.448349213794437"><ele>15.0</ele><time>2026-04-07T09:36:10Z</time></trkpt><trkpt lat="33.94065037200837" lon="8.448025664949936"><ele>14.0</ele><time>2026-04-07T09:36:11Z</time></trkpt><trkpt lat="33.94075342843314" lon="8.447706718060715"><ele>13.0</ele><time>2026-04-07T09:36:12Z</time></trkpt><trkpt lat="33.94085443246312" lon="8.447398175195781"><ele>13.0</ele><time>2026-04-07T09:36:13Z</time></trkpt><trkpt lat="33.940961047880705" lon="8.447079337322073"><ele>13.0</ele><time>2026-04-07T09:36:14Z</time></trkpt><trkpt lat="33.941072617988674" lon="8.446753146002973"><ele>13.0</ele><time>2026-04-07T09:36:15Z</time></trkpt><trkpt lat="33.9411896062105" lon="8.446437671050537"><ele>13.0</ele><time>2026-04-07T09:36:16Z</time></trkpt><trkpt lat="33.941303092670545" lon="8.446133457260583"><ele>14.5</ele><time>2026-04-07T09:36:17Z</time></trkpt><trkpt lat="33.94140394716173" lon="8.445844400356886"><ele>16.0</ele><time>2026-04-07T09:36:18Z</time></trkpt><trkpt lat="33.94150250608919" lon="8.445565281416425"><ele>16.0</ele><time>2026-04-07T09:36:19Z</time></trkpt><trkpt lat="33.94160073870944" lon="8.445291800431157"><ele>16.0</ele><time>2026-04-07T09:36:20Z</time></trkpt><trkpt lat="33.941693784876804" lon="8.445031294723398"><ele>15.5</ele><time>2026-04-07T09:36:21Z</time></trkpt><trkpt lat="33.94178107586064" lon="8.444776614076268"><ele>15.0</ele><time>2026-04-07T09:36:22Z</time></trkpt><trkpt lat="33.94186450835943" lon="8.444526963088066"><ele>15.0</ele><time>2026-04-07T09:36:23Z</time></trkpt><trkpt lat="33.94194945403063" lon="8.444268522898337"><ele>15.0</ele><time>2026-04-07T09:36:24Z</time></trkpt><trkpt lat="33.94204406162985" lon="8.443993845204776"><ele>14.5</ele><time>2026-04-07T09:36:25Z</time></trkpt><trkpt lat="33.94214332777364" lon="8.44370883885067"><ele>14.0</ele><time>2026-04-07T09:36:26Z</time></trkpt><trkpt lat="33.94223817302881" lon="8.443431999602707"><ele>14.0</ele><time>2026-04-07T09:36:27Z</time></trkpt><trkpt lat="33.94233345025782" lon="8.443145262795191"><ele>14.0</ele><time>2026-04-07T09:36:28Z</time></trkpt><trkpt lat="33.942428401097104" lon="8.44287209380944"><ele>15.0</ele><time>2026-04-07T09:36:29Z</time></trkpt><trkpt lat="33.94252235284494" lon="8.442592671099495"><ele>16.0</ele><time>2026-04-07T09:36:30Z</time></trkpt><trkpt lat="33.94261537341137" lon="8.44231080418343"><ele>15.0</ele><time>2026-04-07T09:36:31Z</time></trkpt><trkpt lat="33.942712427994174" lon="8.442028577041894"><ele>14.0</ele><time>2026-04-07T09:36:32Z</time></trkpt><trkpt lat="33.9428108321151" lon="8.441744819284057"><ele>14.0</ele><time>2026-04-07T09:36:33Z</time></trkpt><trkpt lat="33.942906786803746" lon="8.441458753296947"><ele>14.0</ele><time>2026-04-07T09:36:34Z</time></trkpt><trkpt lat="33.94300282132202" lon="8.441169230684748"><ele>14.5</ele><time>2026-04-07T09:36:35Z</time></trkpt><trkpt lat="33.943100843776286" lon="8.440878577347279"><ele>15.0</ele><time>2026-04-07T09:36:36Z</time></trkpt><trkpt lat="33.94320063332555" lon="8.440584408913825"><ele>15.0</ele><time>2026-04-07T09:36:37Z</time></trkpt><trkpt lat="33.94329940067924" lon="8.440290345900525"><ele>15.0</ele><time>2026-04-07T09:36:38Z</time></trkpt><trkpt lat="33.943399362613675" lon="8.43999696557589"><ele>15.0</ele><time>2026-04-07T09:36:39Z</time></trkpt><trkpt lat="33.943499458203966" lon="8.439704931542428"><ele>15.0</ele><time>2026-04-07T09:36:40Z</time></trkpt><trkpt lat="33.94360013345729" lon="8.439414069760948"><ele>14.5</ele><time>2026-04-07T09:36:41Z</time></trkpt><trkpt lat="33.94369937646144" lon="8.439122734130356"><ele>14.0</ele><time>2026-04-07T09:36:42Z</time></trkpt><trkpt lat="33.94379950905652" lon="8.438830340101882"><ele>14.0</ele><time>2026-04-07T09:36:43Z</time></trkpt><trkpt lat="33.94389923852174" lon="8.438538149082067"><ele>14.0</ele><time>2026-04-07T09:36:44Z</time></trkpt><trkpt lat="33.943998825718054" lon="8.438246257977822"><ele>14.0</ele><time>2026-04-07T09:36:45Z</time></trkpt><trkpt lat="33.944099962701436" lon="8.43795206574656"><ele>14.0</ele><time>2026-04-07T09:36:46Z</time></trkpt><trkpt lat="33.944197433170665" lon="8.437658761192484"><ele>14.0</ele><time>2026-04-07T09:36:47Z</time></trkpt><trkpt lat="33.944295637092814" lon="8.437364403194827"><ele>14.0</ele><time>2026-04-07T09:36:48Z</time></trkpt><trkpt lat="33.94439448629426" lon="8.43707233078873"><ele>14.0</ele><time>2026-04-07T09:36:49Z</time></trkpt><trkpt lat="33.9444946959475" lon="8.436778241672602"><ele>14.0</ele><time>2026-04-07T09:36:50Z</time></trkpt><trkpt lat="33.944593870175076" lon="8.436486801438765"><ele>14.0</ele><time>2026-04-07T09:36:51Z</time></trkpt><trkpt lat="33.94469585468247" lon="8.436190715158562"><ele>14.0</ele><time>2026-04-07T09:36:52Z</time></trkpt><trkpt lat="33.94479765246955" lon="8.435889017777427"><ele>14.0</ele><time>2026-04-07T09:36:53Z</time></trkpt><trkpt lat="33.94490359963046" lon="8.435580261456817"><ele>14.0</ele><time>2026-04-07T09:36:54Z</time></trkpt><trkpt lat="33.94501100318235" lon="8.435267573726591"><ele>14.0</ele><time>2026-04-07T09:36:55Z</time></trkpt><trkpt lat="33.94511895610655" lon="8.434950283960536"><ele>14.0</ele><time>2026-04-07T09:36:56Z</time></trkpt><trkpt lat="33.94522513740823" lon="8.434629319042092"><ele>13.5</ele><time>2026-04-07T09:36:57Z</time></trkpt><trkpt lat="33.94533349025569" lon="8.434305875569125"><ele>13.0</ele><time>2026-04-07T09:36:58Z</time></trkpt><trkpt lat="33.945444505220834" lon="8.433984666518768"><ele>14.0</ele><time>2026-04-07T09:36:59Z</time></trkpt><trkpt lat="33.94555586203591" lon="8.43366284644525"><ele>15.0</ele><time>2026-04-07T09:37:00Z</time></trkpt><trkpt lat="33.945664921530344" lon="8.433340895188884"><ele>15.0</ele><time>2026-04-07T09:37:01Z</time></trkpt><trkpt lat="33.945771729987996" lon="8.433020180408976"><ele>15.0</ele><time>2026-04-07T09:37:02Z</time></trkpt><trkpt lat="33.945877847512264" lon="8.432705126507939"><ele>15.0</ele><time>2026-04-07T09:37:03Z</time></trkpt><trkpt lat="33.94598579788657" lon="8.4323928727417"><ele>15.0</ele><time>2026-04-07T09:37:04Z</time></trkpt><trkpt lat="33.94609196759829" lon="8.432078997667999"><ele>15.0</ele><time>2026-04-07T09:37:05Z</time></trkpt><trkpt lat="33.94619694508351" lon="8.43176569879423"><ele>15.0</ele><time>2026-04-07T09:37:06Z</time></trkpt><trkpt lat="33.946303708901965" lon="8.431453215137209"><ele>15.0</ele><time>2026-04-07T09:37:07Z</time></trkpt><trkpt lat="33.94641290485116" lon="8.431138107897972"><ele>15.0</ele><time>2026-04-07T09:37:08Z</time></trkpt><trkpt lat="33.94652010027103" lon="8.430823597772672"><ele>15.0</ele><time>2026-04-07T09:37:09Z</time></trkpt><trkpt lat="33.94662715944891" lon="8.430504967105737"><ele>15.0</ele><time>2026-04-07T09:37:10Z</time></trkpt><trkpt lat="33.94673344003432" lon="8.430184319948928"><ele>15.0</ele><time>2026-04-07T09:37:11Z</time></trkpt><trkpt lat="33.946842200199356" lon="8.429859041067056"><ele>15.0</ele><time>2026-04-07T09:37:12Z</time></trkpt><trkpt lat="33.94695141191258" lon="8.429530971190276"><ele>14.5</ele><time>2026-04-07T09:37:13Z</time></trkpt><trkpt lat="33.94706357718238" lon="8.429202597552669"><ele>14.0</ele><time>2026-04-07T09:37:14Z</time></trkpt><trkpt lat="33.94717699616423" lon="8.42887540450493"><ele>14.0</ele><time>2026-04-07T09:37:15Z</time></trkpt><trkpt lat="33.94729151884084" lon="8.42854851393761"><ele>14.0</ele><time>2026-04-07T09:37:16Z</time></trkpt><trkpt lat="33.94740403318332" lon="8.428224759434837"><ele>14.5</ele><time>2026-04-07T09:37:17Z</time></trkpt><trkpt lat="33.947514830121214" lon="8.427899853294608"><ele>15.0</ele><time>2026-04-07T09:37:18Z</time></trkpt><trkpt lat="33.94762506566494" lon="8.427572235062991"><ele>15.0</ele><time>2026-04-07T09:37:19Z</time></trkpt><trkpt lat="33.94773453500787" lon="8.427244726558394"><ele>15.0</ele><time>2026-04-07T09:37:20Z</time></trkpt><trkpt lat="33.94784156643739" lon="8.426917864384126"><ele>14.0</ele><time>2026-04-07T09:37:21Z</time></trkpt><trkpt lat="33.94794696963735" lon="8.426590693300678"><ele>13.0</ele><time>2026-04-07T09:37:22Z</time></trkpt><trkpt lat="33.94805535670423" lon="8.426264765121196"><ele>12.5</ele><time>2026-04-07T09:37:23Z</time></trkpt><trkpt lat="33.94816751375976" lon="8.425938589802467"><ele>12.0</ele><time>2026-04-07T09:37:24Z</time></trkpt><trkpt lat="33.94827909506255" lon="8.425613455570367"><ele>11.0</ele><time>2026-04-07T09:37:25Z</time></trkpt><trkpt lat="33.948391258393514" lon="8.425285981289194"><ele>10.0</ele><time>2026-04-07T09:37:26Z</time></trkpt><trkpt lat="33.94850223703976" lon="8.42495891864854"><ele>11.5</ele><time>2026-04-07T09:37:27Z</time></trkpt><trkpt lat="33.94861369570495" lon="8.424632574600098"><ele>13.0</ele><time>2026-04-07T09:37:28Z</time></trkpt><trkpt lat="33.94872580338405" lon="8.42430560077062"><ele>13.0</ele><time>2026-04-07T09:37:29Z</time></trkpt><trkpt lat="33.94883606137719" lon="8.423977160030224"><ele>13.0</ele><time>2026-04-07T09:37:30Z</time></trkpt><trkpt lat="33.94894595800622" lon="8.423648389277457"><ele>13.0</ele><time>2026-04-07T09:37:31Z</time></trkpt><trkpt lat="33.94905607832955" lon="8.423321085183261"><ele>13.0</ele><time>2026-04-07T09:37:32Z</time></trkpt><trkpt lat="33.94916824629451" lon="8.422991768919088"><ele>13.0</ele><time>2026-04-07T09:37:33Z</time></trkpt><trkpt lat="33.94928146245859" lon="8.422663273542197"><ele>13.0</ele><time>2026-04-07T09:37:34Z</time></trkpt><trkpt lat="33.94939272562181" lon="8.422342311540422"><ele>14.0</ele><time>2026-04-07T09:37:35Z</time></trkpt><trkpt lat="33.949497293947026" lon="8.422045308618918"><ele>15.0</ele><time>2026-04-07T09:37:36Z</time></trkpt><trkpt lat="33.94959384383507" lon="8.421762871180603"><ele>15.0</ele><time>2026-04-07T09:37:37Z</time></trkpt><trkpt lat="33.94968314600491" lon="8.421495926011628"><ele>15.0</ele><time>2026-04-07T09:37:38Z</time></trkpt><trkpt lat="33.949771048522614" lon="8.421237964082744"><ele>15.333333333333332</ele><time>2026-04-07T09:37:39Z</time></trkpt><trkpt lat="33.949856053681955" lon="8.420997327433074"><ele>15.666666666666666</ele><time>2026-04-07T09:37:40Z</time></trkpt><trkpt lat="33.94993817825716" lon="8.420766125300501"><ele>16.0</ele><time>2026-04-07T09:37:41Z</time></trkpt><trkpt lat="33.950015220479415" lon="8.420540793605003"><ele>15.666666666666666</ele><time>2026-04-07T09:37:42Z</time></trkpt><trkpt lat="33.950083597465" lon="8.420329097949546"><ele>15.333333333333332</ele><time>2026-04-07T09:37:43Z</time></trkpt><trkpt lat="33.95015035314104" lon="8.42012475332015"><ele>15.0</ele><time>2026-04-07T09:37:44Z</time></trkpt><trkpt lat="33.9502173012262" lon="8.419925591008827"><ele>15.0</ele><time>2026-04-07T09:37:45Z</time></trkpt><trkpt lat="33.95028541717792" lon="8.419731116216457"><ele>15.0</ele><time>2026-04-07T09:37:46Z</time></trkpt><trkpt lat="33.95035336205131" lon="8.419542662744073"><ele>15.0</ele><time>2026-04-07T09:37:47Z</time></trkpt><trkpt lat="33.95041950164953" lon="8.419359953611483"><ele>15.0</ele><time>2026-04-07T09:37:48Z</time></trkpt><trkpt lat="33.95048467251005" lon="8.419177228758022"><ele>15.0</ele><time>2026-04-07T09:37:49Z</time></trkpt><trkpt lat="33.95054513781965" lon="8.418995205999387"><ele>15.0</ele><time>2026-04-07T09:37:50Z</time></trkpt><trkpt lat="33.950601908755495" lon="8.418816941432869"><ele>15.0</ele><time>2026-04-07T09:37:51Z</time></trkpt><trkpt lat="33.95066089663657" lon="8.41864039996181"><ele>15.0</ele><time>2026-04-07T09:37:52Z</time></trkpt><trkpt lat="33.950721489862964" lon="8.418467284640776"><ele>15.0</ele><time>2026-04-07T09:37:53Z</time></trkpt><trkpt lat="33.95078129557386" lon="8.4182969650488"><ele>15.0</ele><time>2026-04-07T09:37:54Z</time></trkpt><trkpt lat="33.95083926632101" lon="8.418127881291772"><ele>15.0</ele><time>2026-04-07T09:37:55Z</time></trkpt><trkpt lat="33.95089423521676" lon="8.417962858209945"><ele>15.0</ele><time>2026-04-07T09:37:56Z</time></trkpt><trkpt lat="33.95094598659252" lon="8.417799104145802"><ele>15.0</ele><time>2026-04-07T09:37:57Z</time></trkpt><trkpt lat="33.95099504916414" lon="8.417643811944869"><ele>15.0</ele><time>2026-04-07T09:37:58Z</time></trkpt><trkpt lat="33.95104485997091" lon="8.417499948435948"><ele>15.0</ele><time>2026-04-07T09:37:59Z</time></trkpt><trkpt lat="33.95109365499993" lon="8.417365502025476"><ele>15.0</ele><time>2026-04-07T09:38:00Z</time></trkpt><trkpt lat="33.95113848120652" lon="8.417236636669589"><ele>15.0</ele><time>2026-04-07T09:38:01Z</time></trkpt><trkpt lat="33.95117658913814" lon="8.41711579973164"><ele>14.833333333333334</ele><time>2026-04-07T09:38:02Z</time></trkpt><trkpt lat="33.951212234533614" lon="8.417005094734487"><ele>14.666666666666668</ele><time>2026-04-07T09:38:03Z</time></trkpt><trkpt lat="33.95124465255787" lon="8.416911744897975"><ele>14.5</ele><time>2026-04-07T09:38:04Z</time></trkpt><trkpt lat="33.95126921204573" lon="8.41683595731292"><ele>14.333333333333334</ele><time>2026-04-07T09:38:05Z</time></trkpt><trkpt lat="33.95128286570898" lon="8.416726633371534"><ele>14.166666666666668</ele><time>2026-04-07T09:38:07Z</time></trkpt><trkpt lat="33.951213201942664" lon="8.416679306840324"><ele>14.0</ele><time>2026-04-07T09:38:10Z</time></trkpt><trkpt lat="33.95112661663566" lon="8.416707949477178"><ele>14.0</ele><time>2026-04-07T09:38:13Z</time></trkpt><trkpt lat="33.95104842333621" lon="8.416740251409047"><ele>13.999999999999998</ele><time>2026-04-07T09:38:15Z</time></trkpt><trkpt lat="33.95094265364215" lon="8.416785446163168"><ele>13.999999999999998</ele><time>2026-04-07T09:38:17Z</time></trkpt><trkpt lat="33.950880432917984" lon="8.416799283886649"><ele>14.0</ele><time>2026-04-07T09:38:18Z</time></trkpt><trkpt lat="33.950753936301815" lon="8.416794358227452"><ele>14.0</ele><time>2026-04-07T09:38:20Z</time></trkpt><trkpt lat="33.95068636287422" lon="8.41678348860258"><ele>14.142857142857142</ele><time>2026-04-07T09:38:21Z</time></trkpt><trkpt lat="33.95061990117113" lon="8.416773222496138"><ele>14.285714285714285</ele><time>2026-04-07T09:38:22Z</time></trkpt><trkpt lat="33.950550206735066" lon="8.41676135941493"><ele>14.428571428571429</ele><time>2026-04-07T09:38:23Z</time></trkpt><trkpt lat="33.95048460648849" lon="8.416747965095183"><ele>14.571428571428571</ele><time>2026-04-07T09:38:24.001Z</time></trkpt><trkpt lat="33.95041707088093" lon="8.416731787267643"><ele>14.714285714285714</ele><time>2026-04-07T09:38:25.001Z</time></trkpt><trkpt lat="33.95034925997968" lon="8.416717242547211"><ele>14.857142857142858</ele><time>2026-04-07T09:38:26.001Z</time></trkpt><trkpt lat="33.950281779469606" lon="8.416707151264967"><ele>15.0</ele><time>2026-04-07T09:38:27.001Z</time></trkpt><trkpt lat="33.9502119239611" lon="8.416707459206162"><ele>15.0</ele><time>2026-04-07T09:38:28.001Z</time></trkpt><trkpt lat="33.95014556916107" lon="8.416721723291065"><ele>15.0</ele><time>2026-04-07T09:38:29.001Z</time></trkpt><trkpt lat="33.95007981712453" lon="8.416746247813736"><ele>15.0</ele><time>2026-04-07T09:38:30.001Z</time></trkpt><trkpt lat="33.95001879960106" lon="8.416769591950347"><ele>15.0</ele><time>2026-04-07T09:38:31.001Z</time></trkpt><trkpt lat="33.949898148402326" lon="8.416805609190755"><ele>15.0</ele><time>2026-04-07T09:38:33.001Z</time></trkpt><trkpt lat="33.94983558491993" lon="8.416823483937943"><ele>15.0</ele><time>2026-04-07T09:38:34.001Z</time></trkpt><trkpt lat="33.94977074307017" lon="8.416845723179609"><ele>14.857142857142858</ele><time>2026-04-07T09:38:35.001Z</time></trkpt><trkpt lat="33.94970507230148" lon="8.416869414099144"><ele>14.714285714285714</ele><time>2026-04-07T09:38:36.001Z</time></trkpt><trkpt lat="33.94963769262256" lon="8.416888822504037"><ele>14.571428571428571</ele><time>2026-04-07T09:38:37.001Z</time></trkpt><trkpt lat="33.94956770988355" lon="8.416909699812336"><ele>14.428571428571429</ele><time>2026-04-07T09:38:38.001Z</time></trkpt><trkpt lat="33.949496710194936" lon="8.416933254390878"><ele>14.285714285714285</ele><time>2026-04-07T09:38:39.001Z</time></trkpt><trkpt lat="33.949424292939554" lon="8.416955532395724"><ele>14.142857142857142</ele><time>2026-04-07T09:38:40.001Z</time></trkpt><trkpt lat="33.94934949159646" lon="8.416978255610642"><ele>14.0</ele><time>2026-04-07T09:38:41.001Z</time></trkpt><trkpt lat="33.94927612054356" lon="8.417000919441282"><ele>14.0</ele><time>2026-04-07T09:38:42.001Z</time></trkpt><trkpt lat="33.94920093593502" lon="8.417025156885407"><ele>14.0</ele><time>2026-04-07T09:38:43.001Z</time></trkpt><trkpt lat="33.949127883994976" lon="8.417049412042656"><ele>14.0</ele><time>2026-04-07T09:38:44.001Z</time></trkpt><trkpt lat="33.94905472827338" lon="8.417069614545971"><ele>14.0</ele><time>2026-04-07T09:38:45.001Z</time></trkpt><trkpt lat="33.94898341325362" lon="8.417093172602636"><ele>14.0</ele><time>2026-04-07T09:38:46.001Z</time></trkpt><trkpt lat="33.94891372840004" lon="8.417115022824143"><ele>14.0</ele><time>2026-04-07T09:38:47.001Z</time></trkpt><trkpt lat="33.94884325475138" lon="8.417134092935202"><ele>14.0</ele><time>2026-04-07T09:38:48.001Z</time></trkpt><trkpt lat="33.94877717052483" lon="8.41715694390507"><ele>14.0</ele><time>2026-04-07T09:38:49.001Z</time></trkpt><trkpt lat="33.948713450457085" lon="8.41718148640155"><ele>14.0</ele><time>2026-04-07T09:38:50.001Z</time></trkpt><trkpt lat="33.94864907775518" lon="8.417203437356868"><ele>14.0</ele><time>2026-04-07T09:38:51.001Z</time></trkpt><trkpt lat="33.94858243936048" lon="8.417219746693833"><ele>14.0</ele><time>2026-04-07T09:38:52.001Z</time></trkpt><trkpt lat="33.94851468112852" lon="8.417233904780357"><ele>14.0</ele><time>2026-04-07T09:38:53.001Z</time></trkpt><trkpt lat="33.94844553273849" lon="8.41725841463386"><ele>14.0</ele><time>2026-04-07T09:38:54.001Z</time></trkpt><trkpt lat="33.94837503423909" lon="8.417283190031961"><ele>14.0</ele><time>2026-04-07T09:38:55.001Z</time></trkpt><trkpt lat="33.9483022383686" lon="8.417305695459167"><ele>14.000000000000002</ele><time>2026-04-07T09:38:56.001Z</time></trkpt><trkpt lat="33.948227674588225" lon="8.417326520367624"><ele>14.0</ele><time>2026-04-07T09:38:57.001Z</time></trkpt><trkpt lat="33.94815071744064" lon="8.417348069368352"><ele>14.0</ele><time>2026-04-07T09:38:58.001Z</time></trkpt><trkpt lat="33.94807035029929" lon="8.417374234209952"><ele>14.0</ele><time>2026-04-07T09:38:59.001Z</time></trkpt><trkpt lat="33.9479910597689" lon="8.41740159844144"><ele>14.000000000000002</ele><time>2026-04-07T09:39:00.001Z</time></trkpt><trkpt lat="33.947910151205875" lon="8.417428974954227"><ele>14.0</ele><time>2026-04-07T09:39:01.001Z</time></trkpt><trkpt lat="33.94782845073483" lon="8.417454177461419"><ele>14.000000000000002</ele><time>2026-04-07T09:39:02.001Z</time></trkpt><trkpt lat="33.94774449035015" lon="8.41747780968107"><ele>14.0</ele><time>2026-04-07T09:39:03.001Z</time></trkpt><trkpt lat="33.947658958363284" lon="8.417500642353781"><ele>14.0</ele><time>2026-04-07T09:39:04.001Z</time></trkpt><trkpt lat="33.94757548848055" lon="8.417525014497004"><ele>14.0</ele><time>2026-04-07T09:39:05.001Z</time></trkpt><trkpt lat="33.94749305691" lon="8.417551385834653"><ele>14.000000000000002</ele><time>2026-04-07T09:39:06.001Z</time></trkpt><trkpt lat="33.94741024004362" lon="8.417578037912063"><ele>14.0</ele><time>2026-04-07T09:39:07.001Z</time></trkpt><trkpt lat="33.94732438941121" lon="8.417604953031097"><ele>14.166666666666668</ele><time>2026-04-07T09:39:08.001Z</time></trkpt><trkpt lat="33.94723825695182" lon="8.417630967953102"><ele>14.333333333333334</ele><time>2026-04-07T09:39:09.001Z</time></trkpt><trkpt lat="33.94715136273503" lon="8.417657029151654"><ele>14.5</ele><time>2026-04-07T09:39:10.001Z</time></trkpt><trkpt lat="33.94706557803278" lon="8.417681581009836"><ele>14.666666666666668</ele><time>2026-04-07T09:39:11.001Z</time></trkpt><trkpt lat="33.94698173660692" lon="8.417707304183459"><ele>14.833333333333334</ele><time>2026-04-07T09:39:12.001Z</time></trkpt><trkpt lat="33.9469012301937" lon="8.417731142456855"><ele>15.0</ele><time>2026-04-07T09:39:13.001Z</time></trkpt><trkpt lat="33.94681855966548" lon="8.417755029389443"><ele>15.0</ele><time>2026-04-07T09:39:14.001Z</time></trkpt><trkpt lat="33.946734558743444" lon="8.417777223628724"><ele>15.0</ele><time>2026-04-07T09:39:15.001Z</time></trkpt><trkpt lat="33.94665149579621" lon="8.417801211541667"><ele>15.0</ele><time>2026-04-07T09:39:16.001Z</time></trkpt><trkpt lat="33.94656809927971" lon="8.417826085229047"><ele>15.0</ele><time>2026-04-07T09:39:17.001Z</time></trkpt><trkpt lat="33.94648385748013" lon="8.417851311331907"><ele>15.0</ele><time>2026-04-07T09:39:18.001Z</time></trkpt><trkpt lat="33.94639817792996" lon="8.417877398103037"><ele>15.0</ele><time>2026-04-07T09:39:19.001Z</time></trkpt><trkpt lat="33.9463111361401" lon="8.417904984200778"><ele>15.0</ele><time>2026-04-07T09:39:20.001Z</time></trkpt><trkpt lat="33.946222865027984" lon="8.417930093822575"><ele>15.0</ele><time>2026-04-07T09:39:21.001Z</time></trkpt><trkpt lat="33.94613445814815" lon="8.417955113808333"><ele>15.0</ele><time>2026-04-07T09:39:22.001Z</time></trkpt><trkpt lat="33.946045677489415" lon="8.417981430367503"><ele>15.0</ele><time>2026-04-07T09:39:23.001Z</time></trkpt><trkpt lat="33.94595649105185" lon="8.418009466671194"><ele>15.0</ele><time>2026-04-07T09:39:24.001Z</time></trkpt><trkpt lat="33.94586684491549" lon="8.418038987692585"><ele>14.4</ele><time>2026-04-07T09:39:25.001Z</time></trkpt><trkpt lat="33.945776621256044" lon="8.41806699392602"><ele>13.8</ele><time>2026-04-07T09:39:26.001Z</time></trkpt><trkpt lat="33.94568543754848" lon="8.418094604466727"><ele>13.2</ele><time>2026-04-07T09:39:27.001Z</time></trkpt><trkpt lat="33.94558167997531" lon="8.418129410018713"><ele>12.6</ele><time>2026-04-07T09:39:28.001Z</time></trkpt><trkpt lat="33.94545720942258" lon="8.418171146771476"><ele>12.0</ele><time>2026-04-07T09:39:29.001Z</time></trkpt><trkpt lat="33.94532523513121" lon="8.418214364407454"><ele>12.0</ele><time>2026-04-07T09:39:30.001Z</time></trkpt><trkpt lat="33.94518995783318" lon="8.41825754259315"><ele>12.0</ele><time>2026-04-07T09:39:31.001Z</time></trkpt><trkpt lat="33.94505127766653" lon="8.41830138748776"><ele>12.0</ele><time>2026-04-07T09:39:32.001Z</time></trkpt><trkpt lat="33.94491461359066" lon="8.418343822079263"><ele>12.0</ele><time>2026-04-07T09:39:33.001Z</time></trkpt><trkpt lat="33.94478152344668" lon="8.418389013370987"><ele>12.5</ele><time>2026-04-07T09:39:34.001Z</time></trkpt><trkpt lat="33.944648812865026" lon="8.418436248712348"><ele>13.0</ele><time>2026-04-07T09:39:35.001Z</time></trkpt><trkpt lat="33.94452444673864" lon="8.418479430761815"><ele>13.5</ele><time>2026-04-07T09:39:36.001Z</time></trkpt><trkpt lat="33.94440800993725" lon="8.418516975819912"><ele>14.0</ele><time>2026-04-07T09:39:37.001Z</time></trkpt><trkpt lat="33.94430018853622" lon="8.41855061594477"><ele>14.166666666666668</ele><time>2026-04-07T09:39:38.001Z</time></trkpt><trkpt lat="33.94420077059359" lon="8.418582050757662"><ele>14.333333333333334</ele><time>2026-04-07T09:39:39.001Z</time></trkpt><trkpt lat="33.94410868830709" lon="8.418607276898822"><ele>14.5</ele><time>2026-04-07T09:39:40.001Z</time></trkpt><trkpt lat="33.94402759164938" lon="8.418634669230963"><ele>14.666666666666668</ele><time>2026-04-07T09:39:41.001Z</time></trkpt><trkpt lat="33.94394967538752" lon="8.418667053713149"><ele>14.833333333333334</ele><time>2026-04-07T09:39:42.001Z</time></trkpt><trkpt lat="33.94387214778479" lon="8.418695597330542"><ele>15.0</ele><time>2026-04-07T09:39:43.001Z</time></trkpt><trkpt lat="33.94379603860987" lon="8.418716774376584"><ele>15.0</ele><time>2026-04-07T09:39:44.001Z</time></trkpt><trkpt lat="33.94372217198344" lon="8.418739332912626"><ele>15.0</ele><time>2026-04-07T09:39:45.001Z</time></trkpt><trkpt lat="33.943648274919234" lon="8.418767455725295"><ele>15.0</ele><time>2026-04-07T09:39:46.001Z</time></trkpt><trkpt lat="33.94357695457499" lon="8.418798767783239"><ele>15.0</ele><time>2026-04-07T09:39:47.001Z</time></trkpt><trkpt lat="33.94351288774417" lon="8.418831848899169"><ele>15.0</ele><time>2026-04-07T09:39:48.001Z</time></trkpt><trkpt lat="33.94340018240139" lon="8.418882527941292"><ele>15.0</ele><time>2026-04-07T09:39:50.001Z</time></trkpt><trkpt lat="33.94330355799176" lon="8.418933655355266"><ele>14.833333333333334</ele><time>2026-04-07T09:39:52.001Z</time></trkpt><trkpt lat="33.943232048197444" lon="8.418970453467812"><ele>14.666666666666668</ele><time>2026-04-07T09:39:54.001Z</time></trkpt><trkpt lat="33.943148129179875" lon="8.41903442842422"><ele>14.5</ele><time>2026-04-07T09:39:57.001Z</time></trkpt><trkpt lat="33.94307957117337" lon="8.41908096750143"><ele>14.333333333333334</ele><time>2026-04-07T09:39:59.001Z</time></trkpt><trkpt lat="33.943000223670886" lon="8.419082036451762"><ele>14.166666666666668</ele><time>2026-04-07T09:40:01.001Z</time></trkpt><trkpt lat="33.94295039278588" lon="8.419024353206357"><ele>14.0</ele><time>2026-04-07T09:40:04.001Z</time></trkpt><trkpt lat="33.94289891366456" lon="8.419081869703637"><ele>14.000000000000002</ele><time>2026-04-07T09:44:48.999Z</time></trkpt><trkpt lat="33.9428687074377" lon="8.41900982807933"><ele>14.0</ele><time>2026-04-07T09:47:08.999Z</time></trkpt><trkpt lat="33.942822609889596" lon="8.418956604520998"><ele>14.0</ele><time>2026-04-07T09:47:58Z</time></trkpt><trkpt lat="33.94274409348373" lon="8.418917826101643"><ele>14.0</ele><time>2026-04-07T09:48:21Z</time></trkpt><trkpt lat="33.94267805732575" lon="8.418873506183532"><ele>14.000000000000002</ele><time>2026-04-07T09:48:24Z</time></trkpt><trkpt lat="33.942600458759024" lon="8.418819626879646"><ele>14.0</ele><time>2026-04-07T09:48:27Z</time></trkpt><trkpt lat="33.942537257869034" lon="8.418776882410922"><ele>14.000000000000002</ele><time>2026-04-07T09:48:29Z</time></trkpt><trkpt lat="33.9424553095064" lon="8.418726860037095"><ele>14.0</ele><time>2026-04-07T09:48:31Z</time></trkpt><trkpt lat="33.94237379759526" lon="8.418679282197683"><ele>14.0</ele><time>2026-04-07T09:48:33Z</time></trkpt><trkpt lat="33.94229475612494" lon="8.418631391229223"><ele>14.0</ele><time>2026-04-07T09:48:35Z</time></trkpt><trkpt lat="33.94221601488891" lon="8.41857876895439"><ele>14.000000000000002</ele><time>2026-04-07T09:48:37Z</time></trkpt><trkpt lat="33.94213905533814" lon="8.418528256932294"><ele>14.0</ele><time>2026-04-07T09:48:39Z</time></trkpt><trkpt lat="33.94206225131533" lon="8.418478095851203"><ele>14.000000000000002</ele><time>2026-04-07T09:48:41Z</time></trkpt><trkpt lat="33.94198210839069" lon="8.418434239185867"><ele>14.0</ele><time>2026-04-07T09:48:43Z</time></trkpt><trkpt lat="33.94190149432036" lon="8.41839345755172"><ele>14.0</ele><time>2026-04-07T09:48:45Z</time></trkpt><trkpt lat="33.94182326100675" lon="8.418349478699326"><ele>14.0</ele><time>2026-04-07T09:48:47Z</time></trkpt><trkpt lat="33.94174784188883" lon="8.418303930675792"><ele>14.000000000000002</ele><time>2026-04-07T09:48:49Z</time></trkpt><trkpt lat="33.94167113529773" lon="8.41825891670238"><ele>14.0</ele><time>2026-04-07T09:48:51Z</time></trkpt><trkpt lat="33.941599279848504" lon="8.418217813189772"><ele>14.000000000000002</ele><time>2026-04-07T09:48:53Z</time></trkpt><trkpt lat="33.9415386737343" lon="8.418177482842879"><ele>14.0</ele><time>2026-04-07T09:48:56Z</time></trkpt><trkpt lat="33.94160458430698" lon="8.418175613105628"><ele>14.0</ele><time>2026-04-07T09:53:39.999Z</time></trkpt><trkpt lat="33.9416716094811" lon="8.41824406758559"><ele>14.0</ele><time>2026-04-07T09:54:10Z</time></trkpt><trkpt lat="33.94173228346103" lon="8.418292309851273"><ele>14.000000000000002</ele><time>2026-04-07T09:54:12Z</time></trkpt><trkpt lat="33.941792301531294" lon="8.418348373846372"><ele>14.0</ele><time>2026-04-07T09:54:14Z</time></trkpt><trkpt lat="33.94186032152249" lon="8.418404282430483"><ele>14.0</ele><time>2026-04-07T09:54:16Z</time></trkpt><trkpt lat="33.9419389329321" lon="8.418453865575156"><ele>13.999999999999998</ele><time>2026-04-07T09:54:18Z</time></trkpt><trkpt lat="33.94201841954364" lon="8.418501283001262"><ele>13.999999999999998</ele><time>2026-04-07T09:54:20Z</time></trkpt><trkpt lat="33.9420938809685" lon="8.4185569062464"><ele>14.0</ele><time>2026-04-07T09:54:22Z</time></trkpt><trkpt lat="33.94217743973871" lon="8.418619140800851"><ele>14.0</ele><time>2026-04-07T09:54:24Z</time></trkpt><trkpt lat="33.942262751843096" lon="8.418667534897853"><ele>14.000000000000002</ele><time>2026-04-07T09:54:26Z</time></trkpt><trkpt lat="33.94234312136797" lon="8.41871227471973"><ele>14.0</ele><time>2026-04-07T09:54:28Z</time></trkpt><trkpt lat="33.94240673635645" lon="8.418767113840525"><ele>14.0</ele><time>2026-04-07T09:54:30Z</time></trkpt><trkpt lat="33.94244777295281" lon="8.41883903852938"><ele>14.0</ele><time>2026-04-07T09:54:32Z</time></trkpt><trkpt lat="33.94247371314216" lon="8.418922311631816"><ele>14.000000000000002</ele><time>2026-04-07T09:54:34Z</time></trkpt><trkpt lat="33.94249694741298" lon="8.419002420957545"><ele>14.0</ele><time>2026-04-07T09:54:36Z</time></trkpt><trkpt lat="33.94253984429707" lon="8.419089834227012"><ele>14.000000000000002</ele><time>2026-04-07T09:54:39Z</time></trkpt><trkpt lat="33.94262190429898" lon="8.419133794370978"><ele>14.0</ele><time>2026-04-07T09:54:42Z</time></trkpt><trkpt lat="33.9426979035469" lon="8.41913401380681"><ele>14.0</ele><time>2026-04-07T09:54:44Z</time></trkpt><trkpt lat="33.9427789277459" lon="8.41912938983847"><ele>14.0</ele><time>2026-04-07T09:54:46Z</time></trkpt><trkpt lat="33.94285121228836" lon="8.419124707208868"><ele>14.000000000000002</ele><time>2026-04-07T09:54:48Z</time></trkpt><trkpt lat="33.942896366211656" lon="8.419061759832328"><ele>14.0</ele><time>2026-04-07T09:54:52Z</time></trkpt><trkpt lat="33.94282723235605" lon="8.419077965350738"><ele>14.0</ele><time>2026-04-07T09:55:46Z</time></trkpt><trkpt lat="33.942781566288645" lon="8.419143936503385"><ele>14.0</ele><time>2026-04-07T09:56:12Z</time></trkpt><trkpt lat="33.94286714531672" lon="8.419102618382286"><ele>14.0</ele><time>2026-04-07T10:00:17Z</time></trkpt><trkpt lat="33.94293073856174" lon="8.419073057293724"><ele>14.0</ele><time>2026-04-07T10:00:37Z</time></trkpt><trkpt lat="33.98746235899548" lon="8.254862095713486"><ele>18.666666666666668</ele><time>2026-04-07T10:26:08.001Z</time></trkpt><trkpt lat="33.98754150198485" lon="8.2546777120861"><ele>23.333333333333336</ele><time>2026-04-07T10:26:09.001Z</time></trkpt><trkpt lat="33.987620062753294" lon="8.254491151356847"><ele>28.0</ele><time>2026-04-07T10:26:10.001Z</time></trkpt><trkpt lat="33.98769432804166" lon="8.25430506350998"><ele>28.0</ele><time>2026-04-07T10:26:11.001Z</time></trkpt><trkpt lat="33.98776214232498" lon="8.254108740888416"><ele>28.0</ele><time>2026-04-07T10:26:12.001Z</time></trkpt><trkpt lat="33.98782123130705" lon="8.253908025238683"><ele>28.0</ele><time>2026-04-07T10:26:13.001Z</time></trkpt><trkpt lat="33.987875543680076" lon="8.253708048749699"><ele>28.666666666666668</ele><time>2026-04-07T10:26:14.001Z</time></trkpt><trkpt lat="33.987928216933035" lon="8.253510007888162"><ele>29.333333333333336</ele><time>2026-04-07T10:26:15.001Z</time></trkpt><trkpt lat="33.987979876681905" lon="8.253323496395494"><ele>30.0</ele><time>2026-04-07T10:26:16.001Z</time></trkpt><trkpt lat="33.98802906025854" lon="8.253138448309217"><ele>30.0</ele><time>2026-04-07T10:26:17.001Z</time></trkpt><trkpt lat="33.988070852725656" lon="8.252950441232743"><ele>30.0</ele><time>2026-04-07T10:26:18.001Z</time></trkpt><trkpt lat="33.98810127999961" lon="8.25276492980978"><ele>30.0</ele><time>2026-04-07T10:26:19.001Z</time></trkpt><trkpt lat="33.98810700440648" lon="8.252578591049971"><ele>30.0</ele><time>2026-04-07T10:26:20.001Z</time></trkpt><trkpt lat="33.98808303947135" lon="8.252400462877212"><ele>30.0</ele><time>2026-04-07T10:26:21.001Z</time></trkpt><trkpt lat="33.98803316055346" lon="8.25221888122434"><ele>30.0</ele><time>2026-04-07T10:26:22.001Z</time></trkpt><trkpt lat="33.98785375273222" lon="8.25188142521879"><ele>30.333333333333336</ele><time>2026-04-07T10:26:24.001Z</time></trkpt><trkpt lat="33.987739043270054" lon="8.251726037798885"><ele>30.666666666666668</ele><time>2026-04-07T10:26:25.001Z</time></trkpt><trkpt lat="33.9876183204026" lon="8.251580774444252"><ele>31.0</ele><time>2026-04-07T10:26:26.001Z</time></trkpt><trkpt lat="33.98749735365253" lon="8.251438256737261"><ele>31.0</ele><time>2026-04-07T10:26:27.001Z</time></trkpt><trkpt lat="33.98737801958201" lon="8.251290302222841"><ele>31.0</ele><time>2026-04-07T10:26:28.001Z</time></trkpt><trkpt lat="33.9872555949667" lon="8.251142533000962"><ele>31.0</ele><time>2026-04-07T10:26:29.001Z</time></trkpt><trkpt lat="33.9871274869764" lon="8.250999563595864"><ele>31.0</ele><time>2026-04-07T10:26:30.001Z</time></trkpt><trkpt lat="33.986996751162906" lon="8.250859811692065"><ele>31.0</ele><time>2026-04-07T10:26:31.001Z</time></trkpt><trkpt lat="33.986868059800564" lon="8.25071643916828"><ele>31.0</ele><time>2026-04-07T10:26:32.001Z</time></trkpt><trkpt lat="33.986751484599715" lon="8.25056161442821"><ele>31.0</ele><time>2026-04-07T10:26:33.001Z</time></trkpt><trkpt lat="33.98664935059786" lon="8.250389904592561"><ele>31.0</ele><time>2026-04-07T10:26:34.001Z</time></trkpt><trkpt lat="33.98654524280482" lon="8.250215236521734"><ele>31.0</ele><time>2026-04-07T10:26:35.001Z</time></trkpt><trkpt lat="33.986436381545865" lon="8.250039528436549"><ele>31.0</ele><time>2026-04-07T10:26:36.001Z</time></trkpt><trkpt lat="33.98632721118467" lon="8.249860901811411"><ele>31.0</ele><time>2026-04-07T10:26:37.001Z</time></trkpt><trkpt lat="33.986221320469674" lon="8.249682477289944"><ele>31.0</ele><time>2026-04-07T10:26:38.001Z</time></trkpt><trkpt lat="33.98611274823509" lon="8.24951108058178"><ele>31.0</ele><time>2026-04-07T10:26:39.001Z</time></trkpt><trkpt lat="33.98600227542367" lon="8.249347489304624"><ele>31.0</ele><time>2026-04-07T10:26:40.001Z</time></trkpt><trkpt lat="33.985889893400014" lon="8.249193053801804"><ele>31.0</ele><time>2026-04-07T10:26:41.001Z</time></trkpt><trkpt lat="33.98577161901139" lon="8.249044743980138"><ele>31.0</ele><time>2026-04-07T10:26:42.001Z</time></trkpt><trkpt lat="33.985644488994154" lon="8.24889917096665"><ele>31.0</ele><time>2026-04-07T10:26:43.001Z</time></trkpt><trkpt lat="33.98536508617699" lon="8.248623477203415"><ele>31.0</ele><time>2026-04-07T10:26:45.001Z</time></trkpt><trkpt lat="33.98521448040781" lon="8.248506325310087"><ele>31.0</ele><time>2026-04-07T10:26:46.001Z</time></trkpt><trkpt lat="33.985055230245216" lon="8.24839984461371"><ele>31.0</ele><time>2026-04-07T10:26:47.001Z</time></trkpt><trkpt lat="33.98490216538319" lon="8.248304027162979"><ele>31.0</ele><time>2026-04-07T10:26:48.001Z</time></trkpt><trkpt lat="33.98474581145593" lon="8.248208389220046"><ele>31.0</ele><time>2026-04-07T10:26:49.001Z</time></trkpt><trkpt lat="33.98459146841188" lon="8.248110147451815"><ele>31.0</ele><time>2026-04-07T10:26:50.001Z</time></trkpt><trkpt lat="33.98443690847386" lon="8.248008428254067"><ele>31.0</ele><time>2026-04-07T10:26:51.001Z</time></trkpt><trkpt lat="33.9842832722286" lon="8.247904442473182"><ele>31.0</ele><time>2026-04-07T10:26:52.001Z</time></trkpt><trkpt lat="33.984127693725156" lon="8.247799871973708"><ele>31.0</ele><time>2026-04-07T10:26:53.001Z</time></trkpt><trkpt lat="33.983970386343124" lon="8.247701006931953"><ele>30.666666666666668</ele><time>2026-04-07T10:26:54.001Z</time></trkpt><trkpt lat="33.98380901857068" lon="8.24760554049238"><ele>30.333333333333336</ele><time>2026-04-07T10:26:55.001Z</time></trkpt><trkpt lat="33.983646149309145" lon="8.247510631306952"><ele>30.0</ele><time>2026-04-07T10:26:56.001Z</time></trkpt><trkpt lat="33.9834775261595" lon="8.247411793147"><ele>30.0</ele><time>2026-04-07T10:26:57.001Z</time></trkpt><trkpt lat="33.98331066011822" lon="8.24731208954475"><ele>30.0</ele><time>2026-04-07T10:26:58.001Z</time></trkpt><trkpt lat="33.983155333315864" lon="8.247204488077097"><ele>30.0</ele><time>2026-04-07T10:26:59.001Z</time></trkpt><trkpt lat="33.98300899457671" lon="8.247068319956476"><ele>30.0</ele><time>2026-04-07T10:27:00.001Z</time></trkpt><trkpt lat="33.98286786864914" lon="8.246900403935516"><ele>30.0</ele><time>2026-04-07T10:27:01.001Z</time></trkpt><trkpt lat="33.982733128519506" lon="8.24670015766835"><ele>30.0</ele><time>2026-04-07T10:27:02.001Z</time></trkpt><trkpt lat="33.98260701354787" lon="8.246489911317807"><ele>29.0</ele><time>2026-04-07T10:27:03.001Z</time></trkpt><trkpt lat="33.982479289070305" lon="8.246282518307762"><ele>28.0</ele><time>2026-04-07T10:27:04.001Z</time></trkpt><trkpt lat="33.982213358500594" lon="8.245883237840285"><ele>28.0</ele><time>2026-04-07T10:27:06.001Z</time></trkpt><trkpt lat="33.9820859005328" lon="8.245681015253766"><ele>28.0</ele><time>2026-04-07T10:27:07.001Z</time></trkpt><trkpt lat="33.98195872831336" lon="8.24547442004534"><ele>28.0</ele><time>2026-04-07T10:27:08.001Z</time></trkpt><trkpt lat="33.981832945910014" lon="8.245266594958515"><ele>28.0</ele><time>2026-04-07T10:27:09.001Z</time></trkpt><trkpt lat="33.98170711109558" lon="8.245064822252763"><ele>28.0</ele><time>2026-04-07T10:27:10.001Z</time></trkpt><trkpt lat="33.981578640303944" lon="8.244861707490344"><ele>28.0</ele><time>2026-04-07T10:27:11.001Z</time></trkpt><trkpt lat="33.981446128902476" lon="8.24465957370007"><ele>28.0</ele><time>2026-04-07T10:27:12.001Z</time></trkpt><trkpt lat="33.981315484754944" lon="8.244456498376575"><ele>28.0</ele><time>2026-04-07T10:27:13.001Z</time></trkpt><trkpt lat="33.981184409963156" lon="8.244255478954432"><ele>28.0</ele><time>2026-04-07T10:27:14.001Z</time></trkpt><trkpt lat="33.98105340251353" lon="8.244051984505427"><ele>28.666666666666668</ele><time>2026-04-07T10:27:15.001Z</time></trkpt><trkpt lat="33.98092244610114" lon="8.243853237080183"><ele>29.333333333333336</ele><time>2026-04-07T10:27:16.001Z</time></trkpt><trkpt lat="33.98078770491459" lon="8.243652464001467"><ele>30.0</ele><time>2026-04-07T10:27:17.001Z</time></trkpt><trkpt lat="33.98065849381389" lon="8.243448630117841"><ele>30.0</ele><time>2026-04-07T10:27:18.001Z</time></trkpt><trkpt lat="33.98053408157979" lon="8.243245046932271"><ele>30.0</ele><time>2026-04-07T10:27:19.001Z</time></trkpt><trkpt lat="33.980407660566556" lon="8.243038283257324"><ele>30.0</ele><time>2026-04-07T10:27:20.001Z</time></trkpt><trkpt lat="33.98028101989101" lon="8.242828226378412"><ele>30.0</ele><time>2026-04-07T10:27:21.001Z</time></trkpt><trkpt lat="33.98015621583068" lon="8.24262125445584"><ele>30.0</ele><time>2026-04-07T10:27:22.001Z</time></trkpt><trkpt lat="33.98002381015512" lon="8.24241861028689"><ele>30.0</ele><time>2026-04-07T10:27:23.001Z</time></trkpt><trkpt lat="33.9798910188441" lon="8.24222123748577"><ele>30.0</ele><time>2026-04-07T10:27:24.001Z</time></trkpt><trkpt lat="33.979760458723405" lon="8.242021859813281"><ele>30.0</ele><time>2026-04-07T10:27:25.001Z</time></trkpt><trkpt lat="33.97949727174888" lon="8.24161972280879"><ele>29.666666666666664</ele><time>2026-04-07T10:27:27.001Z</time></trkpt><trkpt lat="33.979367559983466" lon="8.241417181991626"><ele>29.333333333333332</ele><time>2026-04-07T10:27:28.001Z</time></trkpt><trkpt lat="33.97923512512738" lon="8.241216634666355"><ele>29.0</ele><time>2026-04-07T10:27:29.001Z</time></trkpt><trkpt lat="33.979100085231" lon="8.241022360166966"><ele>29.0</ele><time>2026-04-07T10:27:30.001Z</time></trkpt><trkpt lat="33.978954473301734" lon="8.240838085894085"><ele>29.0</ele><time>2026-04-07T10:27:31.001Z</time></trkpt><trkpt lat="33.9788011112334" lon="8.240673785731376"><ele>29.0</ele><time>2026-04-07T10:27:32.001Z</time></trkpt><trkpt lat="33.978644867616396" lon="8.2405440693947"><ele>29.0</ele><time>2026-04-07T10:27:33.001Z</time></trkpt><trkpt lat="33.97848972073952" lon="8.240420739544856"><ele>29.0</ele><time>2026-04-07T10:27:34.001Z</time></trkpt><trkpt lat="33.97833261291436" lon="8.24029689053397"><ele>29.0</ele><time>2026-04-07T10:27:35.001Z</time></trkpt><trkpt lat="33.97817317869454" lon="8.240167320716363"><ele>28.666666666666664</ele><time>2026-04-07T10:27:36.001Z</time></trkpt><trkpt lat="33.978014489359175" lon="8.240026495836327"><ele>28.333333333333336</ele><time>2026-04-07T10:27:37.001Z</time></trkpt><trkpt lat="33.97785464906733" lon="8.239890261623751"><ele>28.0</ele><time>2026-04-07T10:27:38.001Z</time></trkpt><trkpt lat="33.9776936365044" lon="8.239757541846465"><ele>27.666666666666668</ele><time>2026-04-07T10:27:39.001Z</time></trkpt><trkpt lat="33.97752959437792" lon="8.239626240843732"><ele>27.333333333333336</ele><time>2026-04-07T10:27:40.001Z</time></trkpt><trkpt lat="33.977369666647824" lon="8.239492957563533"><ele>27.0</ele><time>2026-04-07T10:27:41.001Z</time></trkpt><trkpt lat="33.97720517099807" lon="8.239361648186293"><ele>27.0</ele><time>2026-04-07T10:27:42.001Z</time></trkpt><trkpt lat="33.97703680657123" lon="8.23923676676004"><ele>27.0</ele><time>2026-04-07T10:27:43.001Z</time></trkpt><trkpt lat="33.97686091910892" lon="8.239126912691605"><ele>27.0</ele><time>2026-04-07T10:27:44.001Z</time></trkpt><trkpt lat="33.976679630713704" lon="8.239026208200535"><ele>27.0</ele><time>2026-04-07T10:27:45.001Z</time></trkpt><trkpt lat="33.976490718911705" lon="8.238932383954321"><ele>27.0</ele><time>2026-04-07T10:27:46.001Z</time></trkpt><trkpt lat="33.97610650897653" lon="8.238751364871336"><ele>27.0</ele><time>2026-04-07T10:27:48Z</time></trkpt><trkpt lat="33.97591173024519" lon="8.238664873611466"><ele>27.0</ele><time>2026-04-07T10:27:49Z</time></trkpt><trkpt lat="33.9757153777171" lon="8.238576095345097"><ele>27.0</ele><time>2026-04-07T10:27:50Z</time></trkpt><trkpt lat="33.97551786258591" lon="8.238484504243553"><ele>26.333333333333336</ele><time>2026-04-07T10:27:51Z</time></trkpt><trkpt lat="33.97531531633005" lon="8.238397516665538"><ele>25.666666666666668</ele><time>2026-04-07T10:27:52Z</time></trkpt><trkpt lat="33.97511784348121" lon="8.23831304366643"><ele>25.0</ele><time>2026-04-07T10:27:53Z</time></trkpt><trkpt lat="33.97492032283501" lon="8.23822883190082"><ele>25.0</ele><time>2026-04-07T10:27:54Z</time></trkpt><trkpt lat="33.9747214034564" lon="8.238139642865185"><ele>25.0</ele><time>2026-04-07T10:27:55Z</time></trkpt><trkpt lat="33.97452403071934" lon="8.23804792010759"><ele>25.0</ele><time>2026-04-07T10:27:56Z</time></trkpt><trkpt lat="33.974323869478546" lon="8.237958337092953"><ele>24.666666666666668</ele><time>2026-04-07T10:27:57Z</time></trkpt><trkpt lat="33.97412261905633" lon="8.237869265048761"><ele>24.333333333333336</ele><time>2026-04-07T10:27:58Z</time></trkpt><trkpt lat="33.97392545834102" lon="8.237780899930756"><ele>24.0</ele><time>2026-04-07T10:27:59Z</time></trkpt><trkpt lat="33.97372803588468" lon="8.237685679113481"><ele>24.0</ele><time>2026-04-07T10:28:00Z</time></trkpt><trkpt lat="33.97353246022154" lon="8.237581084833899"><ele>24.0</ele><time>2026-04-07T10:28:01Z</time></trkpt><trkpt lat="33.97333754949658" lon="8.23747268907357"><ele>24.0</ele><time>2026-04-07T10:28:02Z</time></trkpt><trkpt lat="33.973148127650994" lon="8.237363737289451"><ele>24.333333333333336</ele><time>2026-04-07T10:28:03Z</time></trkpt><trkpt lat="33.972957466229026" lon="8.237254187153754"><ele>24.666666666666668</ele><time>2026-04-07T10:28:04Z</time></trkpt><trkpt lat="33.97277317398341" lon="8.237135675773056"><ele>25.0</ele><time>2026-04-07T10:28:05Z</time></trkpt><trkpt lat="33.972600018848006" lon="8.237005166788856"><ele>24.0</ele><time>2026-04-07T10:28:06Z</time></trkpt><trkpt lat="33.97243040202395" lon="8.236860477519464"><ele>23.0</ele><time>2026-04-07T10:28:07Z</time></trkpt><trkpt lat="33.97211439626973" lon="8.236534884690618"><ele>23.0</ele><time>2026-04-07T10:28:09Z</time></trkpt><trkpt lat="33.97196930532105" lon="8.236360951840087"><ele>23.0</ele><time>2026-04-07T10:28:10Z</time></trkpt><trkpt lat="33.971834299264934" lon="8.236176079553251"><ele>23.0</ele><time>2026-04-07T10:28:11Z</time></trkpt><trkpt lat="33.97171490598765" lon="8.235985769521301"><ele>23.333333333333336</ele><time>2026-04-07T10:28:12Z</time></trkpt><trkpt lat="33.97160025495337" lon="8.235789061994037"><ele>23.666666666666668</ele><time>2026-04-07T10:28:13Z</time></trkpt><trkpt lat="33.97149863669342" lon="8.235588086094532"><ele>24.0</ele><time>2026-04-07T10:28:14Z</time></trkpt><trkpt lat="33.971399768657" lon="8.235385509320967"><ele>24.0</ele><time>2026-04-07T10:28:15Z</time></trkpt><trkpt lat="33.97129530218099" lon="8.23518382469056"><ele>24.0</ele><time>2026-04-07T10:28:16Z</time></trkpt><trkpt lat="33.97119178771776" lon="8.23498551748703"><ele>24.0</ele><time>2026-04-07T10:28:17Z</time></trkpt><trkpt lat="33.971090826742014" lon="8.234786296378685"><ele>23.666666666666668</ele><time>2026-04-07T10:28:18Z</time></trkpt><trkpt lat="33.97099292657368" lon="8.23458471076365"><ele>23.333333333333336</ele><time>2026-04-07T10:28:19Z</time></trkpt><trkpt lat="33.97089741526032" lon="8.234383729369638"><ele>23.0</ele><time>2026-04-07T10:28:20Z</time></trkpt><trkpt lat="33.9707950009045" lon="8.234182316511609"><ele>23.0</ele><time>2026-04-07T10:28:21Z</time></trkpt><trkpt lat="33.9706915804693" lon="8.233985325967815"><ele>23.0</ele><time>2026-04-07T10:28:22Z</time></trkpt><trkpt lat="33.97059278695631" lon="8.233787791450258"><ele>23.0</ele><time>2026-04-07T10:28:23Z</time></trkpt><trkpt lat="33.970495940019305" lon="8.233595040929268"><ele>23.333333333333336</ele><time>2026-04-07T10:28:24Z</time></trkpt><trkpt lat="33.97040404410505" lon="8.233416837653422"><ele>23.666666666666668</ele><time>2026-04-07T10:28:25Z</time></trkpt><trkpt lat="33.97032058528693" lon="8.233252705681313"><ele>24.0</ele><time>2026-04-07T10:28:26Z</time></trkpt><trkpt lat="33.97024379922834" lon="8.233098695501495"><ele>24.0</ele><time>2026-04-07T10:28:27Z</time></trkpt><trkpt lat="33.97017251478767" lon="8.232955125362013"><ele>24.0</ele><time>2026-04-07T10:28:28Z</time></trkpt><trkpt lat="33.97005200318431" lon="8.23272518618756"><ele>24.0</ele><time>2026-04-07T10:28:30Z</time></trkpt><trkpt lat="33.97000184519808" lon="8.232623091886891"><ele>24.0</ele><time>2026-04-07T10:28:31Z</time></trkpt><trkpt lat="33.969952510332675" lon="8.232533779599846"><ele>24.0</ele><time>2026-04-07T10:28:32Z</time></trkpt><trkpt lat="33.96990604641844" lon="8.23245299507734"><ele>24.0</ele><time>2026-04-07T10:28:33Z</time></trkpt><trkpt lat="33.96986415269935" lon="8.232374305521697"><ele>24.0</ele><time>2026-04-07T10:28:34Z</time></trkpt><trkpt lat="33.96982817714546" lon="8.232302694674317"><ele>24.0</ele><time>2026-04-07T10:28:35Z</time></trkpt><trkpt lat="33.96979570866131" lon="8.23223507504891"><ele>24.0</ele><time>2026-04-07T10:28:36Z</time></trkpt><trkpt lat="33.96973664645928" lon="8.232115237109031"><ele>24.333333333333332</ele><time>2026-04-07T10:28:38Z</time></trkpt><trkpt lat="33.9696778478035" lon="8.232006823636565"><ele>24.666666666666664</ele><time>2026-04-07T10:28:40Z</time></trkpt><trkpt lat="33.96964121036916" lon="8.231936307760396"><ele>25.0</ele><time>2026-04-07T10:28:41Z</time></trkpt><trkpt lat="33.96959472768081" lon="8.231859976118553"><ele>25.333333333333332</ele><time>2026-04-07T10:28:42Z</time></trkpt><trkpt lat="33.9695406537595" lon="8.23178048339369"><ele>25.666666666666664</ele><time>2026-04-07T10:28:43Z</time></trkpt><trkpt lat="33.96948690452516" lon="8.231693849686689"><ele>26.0</ele><time>2026-04-07T10:28:44Z</time></trkpt><trkpt lat="33.96943642908199" lon="8.231600853997552"><ele>26.0</ele><time>2026-04-07T10:28:45.001Z</time></trkpt><trkpt lat="33.969386511105625" lon="8.231504092266128"><ele>26.0</ele><time>2026-04-07T10:28:46.001Z</time></trkpt><trkpt lat="33.96933287334793" lon="8.231404519795642"><ele>26.0</ele><time>2026-04-07T10:28:47.001Z</time></trkpt><trkpt lat="33.96927683461641" lon="8.231305820980362"><ele>26.0</ele><time>2026-04-07T10:28:48.001Z</time></trkpt><trkpt lat="33.96921697479515" lon="8.23120519119841"><ele>26.0</ele><time>2026-04-07T10:28:49.001Z</time></trkpt><trkpt lat="33.96909249472405" lon="8.230986430208668"><ele>25.75</ele><time>2026-04-07T10:28:51.001Z</time></trkpt><trkpt lat="33.96902750231969" lon="8.230868602457832"><ele>25.5</ele><time>2026-04-07T10:28:52.001Z</time></trkpt><trkpt lat="33.96896277445323" lon="8.230749681424845"><ele>25.25</ele><time>2026-04-07T10:28:53.001Z</time></trkpt><trkpt lat="33.96889885614892" lon="8.23063134163699"><ele>25.0</ele><time>2026-04-07T10:28:54.001Z</time></trkpt><trkpt lat="33.96883249238447" lon="8.230513706183881"><ele>25.0</ele><time>2026-04-07T10:28:55.001Z</time></trkpt><trkpt lat="33.96876722285809" lon="8.230397326271584"><ele>25.0</ele><time>2026-04-07T10:28:56.001Z</time></trkpt><trkpt lat="33.96870615663644" lon="8.230279335910371"><ele>25.0</ele><time>2026-04-07T10:28:57.001Z</time></trkpt><trkpt lat="33.968644312298466" lon="8.230156396763332"><ele>25.0</ele><time>2026-04-07T10:28:58.001Z</time></trkpt><trkpt lat="33.96858224682602" lon="8.230028455903396"><ele>25.0</ele><time>2026-04-07T10:28:59.001Z</time></trkpt><trkpt lat="33.968511862182325" lon="8.22989486984101"><ele>25.0</ele><time>2026-04-07T10:29:00.001Z</time></trkpt><trkpt lat="33.968437360183884" lon="8.229760592518042"><ele>25.0</ele><time>2026-04-07T10:29:01.001Z</time></trkpt><trkpt lat="33.968364612228655" lon="8.229617830013012"><ele>25.0</ele><time>2026-04-07T10:29:02.001Z</time></trkpt><trkpt lat="33.968289633576774" lon="8.229467779630221"><ele>25.0</ele><time>2026-04-07T10:29:03.001Z</time></trkpt><trkpt lat="33.96821083395716" lon="8.229318136714832"><ele>25.0</ele><time>2026-04-07T10:29:04.001Z</time></trkpt><trkpt lat="33.96813129969286" lon="8.229165502932432"><ele>25.0</ele><time>2026-04-07T10:29:05.001Z</time></trkpt><trkpt lat="33.96804981136611" lon="8.229010782224593"><ele>25.0</ele><time>2026-04-07T10:29:06.001Z</time></trkpt><trkpt lat="33.96796220443967" lon="8.228852537414374"><ele>24.666666666666668</ele><time>2026-04-07T10:29:07.001Z</time></trkpt><trkpt lat="33.96787387302281" lon="8.228691821332351"><ele>24.333333333333336</ele><time>2026-04-07T10:29:08.001Z</time></trkpt><trkpt lat="33.967787447224104" lon="8.228527604460377"><ele>24.0</ele><time>2026-04-07T10:29:09.001Z</time></trkpt><trkpt lat="33.96769792659457" lon="8.228354713173859"><ele>24.5</ele><time>2026-04-07T10:29:10.001Z</time></trkpt><trkpt lat="33.967512718220114" lon="8.228008928519781"><ele>25.0</ele><time>2026-04-07T10:29:12.001Z</time></trkpt><trkpt lat="33.967413228323956" lon="8.227836795840005"><ele>25.0</ele><time>2026-04-07T10:29:13.001Z</time></trkpt><trkpt lat="33.96731337334802" lon="8.227660274263823"><ele>25.0</ele><time>2026-04-07T10:29:14.001Z</time></trkpt><trkpt lat="33.967215376871266" lon="8.227480989521823"><ele>25.0</ele><time>2026-04-07T10:29:15.001Z</time></trkpt><trkpt lat="33.9671151149578" lon="8.2272993491396"><ele>25.0</ele><time>2026-04-07T10:29:16Z</time></trkpt><trkpt lat="33.9670162637435" lon="8.227118351877413"><ele>25.0</ele><time>2026-04-07T10:29:17Z</time></trkpt><trkpt lat="33.96691155489579" lon="8.22693876734143"><ele>25.0</ele><time>2026-04-07T10:29:18Z</time></trkpt><trkpt lat="33.96680426337421" lon="8.226757195481472"><ele>25.0</ele><time>2026-04-07T10:29:19Z</time></trkpt><trkpt lat="33.966692415355816" lon="8.226575278386276"><ele>25.0</ele><time>2026-04-07T10:29:20Z</time></trkpt><trkpt lat="33.96658373266388" lon="8.226395042089411"><ele>25.0</ele><time>2026-04-07T10:29:21Z</time></trkpt><trkpt lat="33.96647266846978" lon="8.226217696127645"><ele>25.0</ele><time>2026-04-07T10:29:22Z</time></trkpt><trkpt lat="33.96636299478924" lon="8.22604431605484"><ele>25.0</ele><time>2026-04-07T10:29:23Z</time></trkpt><trkpt lat="33.96625257368041" lon="8.225870174498796"><ele>25.0</ele><time>2026-04-07T10:29:24Z</time></trkpt><trkpt lat="33.966141443636936" lon="8.225693825028825"><ele>25.0</ele><time>2026-04-07T10:29:25Z</time></trkpt><trkpt lat="33.96603046574626" lon="8.225520295907772"><ele>25.0</ele><time>2026-04-07T10:29:26Z</time></trkpt><trkpt lat="33.96591768680355" lon="8.225350008745053"><ele>25.0</ele><time>2026-04-07T10:29:27Z</time></trkpt><trkpt lat="33.96580123295886" lon="8.225179059831717"><ele>25.0</ele><time>2026-04-07T10:29:28Z</time></trkpt><trkpt lat="33.96568053857907" lon="8.225010092150196"><ele>25.0</ele><time>2026-04-07T10:29:29Z</time></trkpt><trkpt lat="33.965558786985156" lon="8.224844668380593"><ele>25.0</ele><time>2026-04-07T10:29:30Z</time></trkpt><trkpt lat="33.96542991150042" lon="8.224680823435646"><ele>25.0</ele><time>2026-04-07T10:29:31Z</time></trkpt><trkpt lat="33.96513503122947" lon="8.224337553839922"><ele>25.0</ele><time>2026-04-07T10:29:33Z</time></trkpt><trkpt lat="33.96496031096049" lon="8.224159000635552"><ele>25.0</ele><time>2026-04-07T10:29:34Z</time></trkpt><trkpt lat="33.96477925121627" lon="8.223977844681942"><ele>25.0</ele><time>2026-04-07T10:29:35Z</time></trkpt><trkpt lat="33.96459023542641" lon="8.22378796384943"><ele>25.0</ele><time>2026-04-07T10:29:36Z</time></trkpt><trkpt lat="33.96440038989571" lon="8.223591136562446"><ele>25.0</ele><time>2026-04-07T10:29:37Z</time></trkpt><trkpt lat="33.96420748562228" lon="8.223391376236446"><ele>24.5</ele><time>2026-04-07T10:29:38Z</time></trkpt><trkpt lat="33.96401414135157" lon="8.223192861560788"><ele>24.0</ele><time>2026-04-07T10:29:39Z</time></trkpt><trkpt lat="33.96382264321248" lon="8.22300116353258"><ele>24.0</ele><time>2026-04-07T10:29:40Z</time></trkpt><trkpt lat="33.9636314631472" lon="8.22280504196179"><ele>24.0</ele><time>2026-04-07T10:29:41Z</time></trkpt><trkpt lat="33.96344787704934" lon="8.222607238797256"><ele>23.5</ele><time>2026-04-07T10:29:42Z</time></trkpt><trkpt lat="33.963262411953146" lon="8.222409772653245"><ele>23.0</ele><time>2026-04-07T10:29:43Z</time></trkpt><trkpt lat="33.96308122323052" lon="8.222207561969459"><ele>23.0</ele><time>2026-04-07T10:29:44Z</time></trkpt><trkpt lat="33.96290929753793" lon="8.22200375793392"><ele>23.0</ele><time>2026-04-07T10:29:45Z</time></trkpt><trkpt lat="33.9627378052616" lon="8.22180078910141"><ele>23.0</ele><time>2026-04-07T10:29:46Z</time></trkpt><trkpt lat="33.962566743442636" lon="8.221603529415303"><ele>23.0</ele><time>2026-04-07T10:29:47Z</time></trkpt><trkpt lat="33.96239424545371" lon="8.221407951529326"><ele>23.5</ele><time>2026-04-07T10:29:48Z</time></trkpt><trkpt lat="33.96222932175083" lon="8.221223548724645"><ele>24.0</ele><time>2026-04-07T10:29:49Z</time></trkpt><trkpt lat="33.962062771432315" lon="8.221039705411822"><ele>24.0</ele><time>2026-04-07T10:29:50Z</time></trkpt><trkpt lat="33.96189677865391" lon="8.220853152651562"><ele>24.0</ele><time>2026-04-07T10:29:51Z</time></trkpt><trkpt lat="33.96173013019953" lon="8.220666009939508"><ele>25.0</ele><time>2026-04-07T10:29:52Z</time></trkpt><trkpt lat="33.961390412940894" lon="8.220284027481311"><ele>25.0</ele><time>2026-04-07T10:29:54Z</time></trkpt><trkpt lat="33.96122209683273" lon="8.220098528567211"><ele>25.0</ele><time>2026-04-07T10:29:55Z</time></trkpt><trkpt lat="33.96104926575588" lon="8.219915307251968"><ele>25.5</ele><time>2026-04-07T10:29:56Z</time></trkpt><trkpt lat="33.96087243609423" lon="8.219732085931554"><ele>26.0</ele><time>2026-04-07T10:29:57Z</time></trkpt><trkpt lat="33.96068722931934" lon="8.219556586263435"><ele>25.0</ele><time>2026-04-07T10:29:58Z</time></trkpt><trkpt lat="33.960500962568695" lon="8.219391266564255"><ele>24.0</ele><time>2026-04-07T10:29:59Z</time></trkpt><trkpt lat="33.960310282787674" lon="8.21924042658773"><ele>24.0</ele><time>2026-04-07T10:30:00Z</time></trkpt><trkpt lat="33.960108865884784" lon="8.219101717372977"><ele>24.0</ele><time>2026-04-07T10:30:01Z</time></trkpt><trkpt lat="33.959911305393206" lon="8.218973354430643"><ele>23.666666666666668</ele><time>2026-04-07T10:30:02Z</time></trkpt><trkpt lat="33.95973463568568" lon="8.218861976309105"><ele>23.333333333333336</ele><time>2026-04-07T10:30:03Z</time></trkpt><trkpt lat="33.959573202665126" lon="8.218764264134585"><ele>23.0</ele><time>2026-04-07T10:30:04Z</time></trkpt><trkpt lat="33.95942246597797" lon="8.218669341233165"><ele>23.0</ele><time>2026-04-07T10:30:05Z</time></trkpt><trkpt lat="33.95927992352988" lon="8.218580615775378"><ele>23.0</ele><time>2026-04-07T10:30:06Z</time></trkpt><trkpt lat="33.95914378001978" lon="8.218499195078872"><ele>23.0</ele><time>2026-04-07T10:30:07Z</time></trkpt><trkpt lat="33.95901510972368" lon="8.218422869790707"><ele>23.0</ele><time>2026-04-07T10:30:08Z</time></trkpt><trkpt lat="33.95889137900277" lon="8.218349520920153"><ele>23.0</ele><time>2026-04-07T10:30:09Z</time></trkpt><trkpt lat="33.958777403365254" lon="8.218280917074145"><ele>23.0</ele><time>2026-04-07T10:30:10Z</time></trkpt><trkpt lat="33.958667767358264" lon="8.218213219654409"><ele>23.0</ele><time>2026-04-07T10:30:11Z</time></trkpt><trkpt lat="33.95856461800993" lon="8.21814816427226"><ele>23.0</ele><time>2026-04-07T10:30:12Z</time></trkpt><trkpt lat="33.95846553064571" lon="8.21808562709621"><ele>23.0</ele><time>2026-04-07T10:30:13Z</time></trkpt><trkpt lat="33.95827861726752" lon="8.217977509778121"><ele>23.0</ele><time>2026-04-07T10:30:15Z</time></trkpt><trkpt lat="33.958188686499724" lon="8.21792080904686"><ele>23.0</ele><time>2026-04-07T10:30:16Z</time></trkpt><trkpt lat="33.9581009930826" lon="8.217869777477272"><ele>22.833333333333336</ele><time>2026-04-07T10:30:17Z</time></trkpt><trkpt lat="33.95802173235673" lon="8.21782083220924"><ele>22.666666666666668</ele><time>2026-04-07T10:30:18Z</time></trkpt><trkpt lat="33.95794617180926" lon="8.217776476022301"><ele>22.5</ele><time>2026-04-07T10:30:19Z</time></trkpt><trkpt lat="33.957873222802895" lon="8.217731169435163"><ele>22.333333333333332</ele><time>2026-04-07T10:30:20Z</time></trkpt><trkpt lat="33.95780703311076" lon="8.217684883749516"><ele>22.166666666666664</ele><time>2026-04-07T10:30:21Z</time></trkpt><trkpt lat="33.957752261090214" lon="8.2176263514449"><ele>22.0</ele><time>2026-04-07T10:30:22Z</time></trkpt><trkpt lat="33.95772411795564" lon="8.217552044392246"><ele>22.0</ele><time>2026-04-07T10:30:23Z</time></trkpt><trkpt lat="33.95772859960138" lon="8.217471806011114"><ele>22.0</ele><time>2026-04-07T10:30:24Z</time></trkpt><trkpt lat="33.95776194780303" lon="8.21739778216339"><ele>22.0</ele><time>2026-04-07T10:30:25Z</time></trkpt><trkpt lat="33.95782057551935" lon="8.217332413788974"><ele>22.0</ele><time>2026-04-07T10:30:26Z</time></trkpt><trkpt lat="33.957880581279326" lon="8.217277679224512"><ele>22.0</ele><time>2026-04-07T10:30:27Z</time></trkpt><trkpt lat="33.95794345401596" lon="8.217238212410585"><ele>22.0</ele><time>2026-04-07T10:30:28Z</time></trkpt><trkpt lat="33.95800793076758" lon="8.21720791962266"><ele>22.0</ele><time>2026-04-07T10:30:29Z</time></trkpt><trkpt lat="33.95807136589527" lon="8.217172042396522"><ele>22.400000000000002</ele><time>2026-04-07T10:30:30Z</time></trkpt><trkpt lat="33.95813584432031" lon="8.217136505070838"><ele>22.8</ele><time>2026-04-07T10:30:31Z</time></trkpt><trkpt lat="33.95820490251351" lon="8.21710346022271"><ele>23.2</ele><time>2026-04-07T10:30:32Z</time></trkpt><trkpt lat="33.95827474060387" lon="8.217067911158132"><ele>23.6</ele><time>2026-04-07T10:30:33Z</time></trkpt><trkpt lat="33.95834677216234" lon="8.217030483448651"><ele>24.0</ele><time>2026-04-07T10:30:34Z</time></trkpt><trkpt lat="33.95849070933314" lon="8.216948211418192"><ele>24.0</ele><time>2026-04-07T10:30:36Z</time></trkpt><trkpt lat="33.9585644433994" lon="8.2169067398774"><ele>24.0</ele><time>2026-04-07T10:30:37Z</time></trkpt><trkpt lat="33.958640983380505" lon="8.216865214948829"><ele>24.0</ele><time>2026-04-07T10:30:38Z</time></trkpt><trkpt lat="33.95871871439846" lon="8.21682230106244"><ele>24.0</ele><time>2026-04-07T10:30:39Z</time></trkpt><trkpt lat="33.95880184119817" lon="8.216772830218327"><ele>24.0</ele><time>2026-04-07T10:30:40Z</time></trkpt><trkpt lat="33.95888774395097" lon="8.21672124169788"><ele>24.0</ele><time>2026-04-07T10:30:41Z</time></trkpt><trkpt lat="33.958979028684794" lon="8.21666732537425"><ele>24.0</ele><time>2026-04-07T10:30:42Z</time></trkpt><trkpt lat="33.95907621246048" lon="8.216609098318163"><ele>24.0</ele><time>2026-04-07T10:30:43Z</time></trkpt><trkpt lat="33.95917926376888" lon="8.21654994962235"><ele>24.0</ele><time>2026-04-07T10:30:44Z</time></trkpt><trkpt lat="33.95940638560262" lon="8.21642721022654"><ele>24.5</ele><time>2026-04-07T10:30:46Z</time></trkpt><trkpt lat="33.95952284614565" lon="8.216362359849677"><ele>25.0</ele><time>2026-04-07T10:30:47Z</time></trkpt><trkpt lat="33.95964415036542" lon="8.216290278526236"><ele>25.5</ele><time>2026-04-07T10:30:48Z</time></trkpt><trkpt lat="33.959772490348435" lon="8.216214950465677"><ele>26.0</ele><time>2026-04-07T10:30:49Z</time></trkpt><trkpt lat="33.959907530993" lon="8.216139135976496"><ele>26.333333333333332</ele><time>2026-04-07T10:30:50.001Z</time></trkpt><trkpt lat="33.960045568789965" lon="8.216057190761045"><ele>26.666666666666664</ele><time>2026-04-07T10:30:51.001Z</time></trkpt><trkpt lat="33.96018719753966" lon="8.215968029113785"><ele>27.0</ele><time>2026-04-07T10:30:52.001Z</time></trkpt><trkpt lat="33.96033775432978" lon="8.215876554547016"><ele>27.0</ele><time>2026-04-07T10:30:53.001Z</time></trkpt><trkpt lat="33.960494485401895" lon="8.215787450780773"><ele>27.0</ele><time>2026-04-07T10:30:54.001Z</time></trkpt><trkpt lat="33.960656635402806" lon="8.215695746684014"><ele>27.0</ele><time>2026-04-07T10:30:55.001Z</time></trkpt></trkseg><trkseg><trkpt lat="33.92361116567133" lon="8.136116158691356"><ele>48.99999999999999</ele><time>2026-04-07T10:55:12.995Z</time></trkpt><trkpt lat="33.923542059734025" lon="8.136061750706235"><ele>49.0</ele><time>2026-04-07T10:55:14.996Z</time></trkpt><trkpt lat="33.92349354273139" lon="8.135945459542038"><ele>49.0</ele><time>2026-04-07T10:55:16.996Z</time></trkpt><trkpt lat="33.923448607559465" lon="8.1358709159198"><ele>49.0</ele><time>2026-04-07T10:55:18.997Z</time></trkpt><trkpt lat="33.923416857113764" lon="8.135787249932514"><ele>48.99999999999999</ele><time>2026-04-07T10:55:21.997Z</time></trkpt><trkpt lat="33.92337200289313" lon="8.13569000235991"><ele>49.0</ele><time>2026-04-07T10:55:23.998Z</time></trkpt><trkpt lat="33.92333157292799" lon="8.13560826381033"><ele>49.33333333333333</ele><time>2026-04-07T10:55:25.998Z</time></trkpt><trkpt lat="33.923291519952365" lon="8.135529143883767"><ele>49.666666666666664</ele><time>2026-04-07T10:55:27.998Z</time></trkpt><trkpt lat="33.92324360522305" lon="8.135450503593175"><ele>50.0</ele><time>2026-04-07T10:55:29.998Z</time></trkpt><trkpt lat="33.92320680829401" lon="8.135362846636509"><ele>50.33333333333333</ele><time>2026-04-07T10:55:31.998Z</time></trkpt><trkpt lat="33.92316100700788" lon="8.135292765443058"><ele>50.666666666666664</ele><time>2026-04-07T10:55:33.999Z</time></trkpt><trkpt lat="33.92311448022313" lon="8.135187964215053"><ele>51.0</ele><time>2026-04-07T10:55:36.999Z</time></trkpt><trkpt lat="33.92307390669587" lon="8.135101098097971"><ele>51.0</ele><time>2026-04-07T10:55:39.999Z</time></trkpt><trkpt lat="33.923034025221554" lon="8.135040259499638"><ele>51.0</ele><time>2026-04-07T10:55:41.999Z</time></trkpt><trkpt lat="33.92298397695243" lon="8.134957546593455"><ele>51.0</ele><time>2026-04-07T10:55:43.999Z</time></trkpt><trkpt lat="33.92293332103765" lon="8.134873311775687"><ele>51.0</ele><time>2026-04-07T10:55:45.999Z</time></trkpt><trkpt lat="33.92288637296418" lon="8.134777530873691"><ele>51.0</ele><time>2026-04-07T10:55:47.999Z</time></trkpt><trkpt lat="33.92282793728354" lon="8.134673998378839"><ele>51.0</ele><time>2026-04-07T10:55:49.999Z</time></trkpt><trkpt lat="33.92278223534724" lon="8.134587434916815"><ele>51.142857142857146</ele><time>2026-04-07T10:55:52Z</time></trkpt><trkpt lat="33.922747503139576" lon="8.13451934812566"><ele>51.28571428571429</ele><time>2026-04-07T10:55:54Z</time></trkpt><trkpt lat="33.922711203065745" lon="8.134452388766428"><ele>51.42857142857143</ele><time>2026-04-07T10:55:56Z</time></trkpt><trkpt lat="33.92266955670748" lon="8.1343817112479"><ele>51.57142857142857</ele><time>2026-04-07T10:55:59Z</time></trkpt><trkpt lat="33.922624888018824" lon="8.13431747306538"><ele>51.714285714285715</ele><time>2026-04-07T10:56:03Z</time></trkpt><trkpt lat="33.922557444071714" lon="8.134286022951077"><ele>51.857142857142854</ele><time>2026-04-07T10:56:06Z</time></trkpt><trkpt lat="33.92250857156354" lon="8.134337057273257"><ele>52.0</ele><time>2026-04-07T10:56:08Z</time></trkpt><trkpt lat="33.922464617327016" lon="8.13440266234539"><ele>51.99999999999999</ele><time>2026-04-07T10:56:10Z</time></trkpt><trkpt lat="33.92241879500739" lon="8.13447497615972"><ele>52.0</ele><time>2026-04-07T10:56:12Z</time></trkpt><trkpt lat="33.922371854054454" lon="8.134551568739075"><ele>52.0</ele><time>2026-04-07T10:56:15Z</time></trkpt><trkpt lat="33.92232797481575" lon="8.13462213859287"><ele>52.0</ele><time>2026-04-07T10:56:18Z</time></trkpt><trkpt lat="33.92226669724549" lon="8.134697502275225"><ele>51.99999999999999</ele><time>2026-04-07T10:56:21Z</time></trkpt><trkpt lat="33.9222225823914" lon="8.134761158732534"><ele>52.0</ele><time>2026-04-07T10:56:24Z</time></trkpt><trkpt lat="33.922174035844684" lon="8.134819165581458"><ele>51.666666666666664</ele><time>2026-04-07T10:56:27Z</time></trkpt><trkpt lat="33.922120345125" lon="8.134900606685711"><ele>51.33333333333333</ele><time>2026-04-07T10:56:30Z</time></trkpt><trkpt lat="33.92207708594002" lon="8.134966368631568"><ele>51.0</ele><time>2026-04-07T10:56:32Z</time></trkpt><trkpt lat="33.92203944822884" lon="8.135035843859285"><ele>50.66666666666667</ele><time>2026-04-07T10:56:34Z</time></trkpt><trkpt lat="33.921987822861716" lon="8.135112833171933"><ele>50.333333333333336</ele><time>2026-04-07T10:56:37Z</time></trkpt><trkpt lat="33.921925503073176" lon="8.135194619976835"><ele>50.0</ele><time>2026-04-07T10:56:40Z</time></trkpt><trkpt lat="33.92188553877336" lon="8.135253779843834"><ele>50.00000000000001</ele><time>2026-04-07T10:56:42Z</time></trkpt><trkpt lat="33.92183866714246" lon="8.135311857740268"><ele>50.0</ele><time>2026-04-07T10:56:44Z</time></trkpt><trkpt lat="33.92178538479722" lon="8.135375549031956"><ele>50.0</ele><time>2026-04-07T10:56:46Z</time></trkpt><trkpt lat="33.921724068425476" lon="8.135439356230522"><ele>50.0</ele><time>2026-04-07T10:56:48Z</time></trkpt><trkpt lat="33.92167262091379" lon="8.135483093597017"><ele>50.0</ele><time>2026-04-07T10:56:50Z</time></trkpt><trkpt lat="33.921615800300536" lon="8.135532589181976"><ele>50.00000000000001</ele><time>2026-04-07T10:56:52Z</time></trkpt><trkpt lat="33.921547696733285" lon="8.13559459353024"><ele>50.0</ele><time>2026-04-07T10:56:54Z</time></trkpt><trkpt lat="33.92147968912775" lon="8.135658077359937"><ele>50.00000000000001</ele><time>2026-04-07T10:56:56Z</time></trkpt><trkpt lat="33.92141789099023" lon="8.13570617161136"><ele>50.0</ele><time>2026-04-07T10:56:58Z</time></trkpt><trkpt lat="33.9213516321472" lon="8.135766224434969"><ele>50.0</ele><time>2026-04-07T10:57:00Z</time></trkpt><trkpt lat="33.921280103060326" lon="8.135821822031595"><ele>50.0</ele><time>2026-04-07T10:57:02.999Z</time></trkpt><trkpt lat="33.921200988178434" lon="8.135878043411813"><ele>50.00000000000001</ele><time>2026-04-07T10:57:05.999Z</time></trkpt><trkpt lat="33.921125170473125" lon="8.135929098954774"><ele>50.0</ele><time>2026-04-07T10:57:08.999Z</time></trkpt><trkpt lat="33.92106008743117" lon="8.135977313362918"><ele>50.00000000000001</ele><time>2026-04-07T10:57:10.999Z</time></trkpt><trkpt lat="33.92098776190551" lon="8.136032816002801"><ele>50.0</ele><time>2026-04-07T10:57:12.999Z</time></trkpt><trkpt lat="33.92091968233095" lon="8.136081470130542"><ele>50.0</ele><time>2026-04-07T10:57:14.999Z</time></trkpt><trkpt lat="33.92085354653983" lon="8.136131732154674"><ele>50.0</ele><time>2026-04-07T10:57:16.999Z</time></trkpt><trkpt lat="33.92077954596906" lon="8.136179881442924"><ele>50.00000000000001</ele><time>2026-04-07T10:57:19.999Z</time></trkpt><trkpt lat="33.9206803235405" lon="8.136227248158756"><ele>50.0</ele><time>2026-04-07T10:57:22.999Z</time></trkpt><trkpt lat="33.920598218897474" lon="8.136275279382739"><ele>49.833333333333336</ele><time>2026-04-07T10:57:24.999Z</time></trkpt><trkpt lat="33.92051570319093" lon="8.136324962377133"><ele>49.66666666666667</ele><time>2026-04-07T10:57:26.999Z</time></trkpt><trkpt lat="33.9204253317133" lon="8.136370158897163"><ele>49.5</ele><time>2026-04-07T10:57:28.999Z</time></trkpt><trkpt lat="33.92035009041871" lon="8.136407062153674"><ele>49.33333333333333</ele><time>2026-04-07T10:57:30.999Z</time></trkpt><trkpt lat="33.920278069468566" lon="8.136429311631705"><ele>49.166666666666664</ele><time>2026-04-07T10:57:32.999Z</time></trkpt><trkpt lat="33.920203474502934" lon="8.13645934001074"><ele>49.0</ele><time>2026-04-07T10:57:34.999Z</time></trkpt><trkpt lat="33.920138900755326" lon="8.136499670654421"><ele>48.99999999999999</ele><time>2026-04-07T10:57:36.999Z</time></trkpt><trkpt lat="33.92008051150162" lon="8.136540786520545"><ele>49.0</ele><time>2026-04-07T10:57:38.999Z</time></trkpt><trkpt lat="33.920020655280716" lon="8.136578266080988"><ele>49.0</ele><time>2026-04-07T10:57:40.999Z</time></trkpt><trkpt lat="33.91993513012401" lon="8.1365988049903"><ele>49.0</ele><time>2026-04-07T10:57:43.999Z</time></trkpt><trkpt lat="33.91984738835387" lon="8.136657106820357"><ele>48.99999999999999</ele><time>2026-04-07T10:57:46.999Z</time></trkpt><trkpt lat="33.91976740738296" lon="8.136699495157321"><ele>49.0</ele><time>2026-04-07T10:57:48.999Z</time></trkpt><trkpt lat="33.91968225445311" lon="8.136755306698827"><ele>48.83333333333333</ele><time>2026-04-07T10:57:50.999Z</time></trkpt><trkpt lat="33.919594236039856" lon="8.136804755796053"><ele>48.666666666666664</ele><time>2026-04-07T10:57:52.999Z</time></trkpt><trkpt lat="33.91950874634558" lon="8.136846312956958"><ele>48.5</ele><time>2026-04-07T10:57:54.999Z</time></trkpt><trkpt lat="33.91942894325331" lon="8.136890079264925"><ele>48.33333333333333</ele><time>2026-04-07T10:57:56.999Z</time></trkpt><trkpt lat="33.919371396091954" lon="8.136922555499977"><ele>48.166666666666664</ele><time>2026-04-07T10:57:59Z</time></trkpt><trkpt lat="33.91929798127859" lon="8.136958744366405"><ele>48.0</ele><time>2026-04-07T10:58:01Z</time></trkpt><trkpt lat="33.919220380662" lon="8.13698894480044"><ele>47.71428571428571</ele><time>2026-04-07T10:58:03Z</time></trkpt><trkpt lat="33.919156534257205" lon="8.137004179718788"><ele>47.42857142857143</ele><time>2026-04-07T10:58:05Z</time></trkpt><trkpt lat="33.91907675069079" lon="8.136992874251414"><ele>47.14285714285714</ele><time>2026-04-07T10:58:08Z</time></trkpt><trkpt lat="33.91902370772865" lon="8.137069942816156"><ele>46.857142857142854</ele><time>2026-04-07T10:58:13Z</time></trkpt><trkpt lat="33.919056035115716" lon="8.137156630736243"><ele>46.57142857142857</ele><time>2026-04-07T10:58:15Z</time></trkpt><trkpt lat="33.919086965513" lon="8.137234897208979"><ele>46.285714285714285</ele><time>2026-04-07T10:58:44Z</time></trkpt><trkpt lat="33.91909650125674" lon="8.137309954015521"><ele>46.0</ele><time>2026-04-07T11:07:07Z</time></trkpt><trkpt lat="33.919134078129176" lon="8.13737770606293"><ele>46.0</ele><time>2026-04-07T11:07:15Z</time></trkpt><trkpt lat="33.91917492892263" lon="8.137458420828464"><ele>46.0</ele><time>2026-04-07T11:09:33Z</time></trkpt><trkpt lat="33.91922862572043" lon="8.137515151891058"><ele>46.0</ele><time>2026-04-07T11:11:19Z</time></trkpt><trkpt lat="33.91925073450494" lon="8.137592363586698"><ele>46.0</ele><time>2026-04-07T11:11:28Z</time></trkpt><trkpt lat="33.91927298585952" lon="8.137664132918905"><ele>46.0</ele><time>2026-04-07T11:11:38Z</time></trkpt><trkpt lat="33.919276782245596" lon="8.137581088313079"><ele>46.0</ele><time>2026-04-07T11:12:18Z</time></trkpt><trkpt lat="33.91930123123468" lon="8.137659631143936"><ele>46.0</ele><time>2026-04-07T11:12:26Z</time></trkpt><trkpt lat="33.91935248164151" lon="8.137713759286205"><ele>46.142857142857146</ele><time>2026-04-07T11:12:32Z</time></trkpt><trkpt lat="33.91940795644446" lon="8.137773727027824"><ele>46.285714285714285</ele><time>2026-04-07T11:12:39Z</time></trkpt><trkpt lat="33.91945375782806" lon="8.13782639394039"><ele>46.42857142857143</ele><time>2026-04-07T11:12:46Z</time></trkpt><trkpt lat="33.91950810093209" lon="8.137869142154969"><ele>46.57142857142857</ele><time>2026-04-07T11:12:51Z</time></trkpt><trkpt lat="33.91957129760757" lon="8.137899444849202"><ele>46.71428571428571</ele><time>2026-04-07T11:12:56Z</time></trkpt><trkpt lat="33.91964226460785" lon="8.137916261066506"><ele>46.857142857142854</ele><time>2026-04-07T11:13:06Z</time></trkpt><trkpt lat="33.919710015408555" lon="8.137952197265005"><ele>47.0</ele><time>2026-04-07T11:13:12Z</time></trkpt><trkpt lat="33.91977249597994" lon="8.137977502312149"><ele>47.0</ele><time>2026-04-07T11:13:17Z</time></trkpt><trkpt lat="33.91984441828637" lon="8.13798913257714"><ele>47.0</ele><time>2026-04-07T11:13:22Z</time></trkpt><trkpt lat="33.91990857749632" lon="8.138016293735685"><ele>47.0</ele><time>2026-04-07T11:13:28Z</time></trkpt><trkpt lat="33.91996694755493" lon="8.138047263038471"><ele>47.0</ele><time>2026-04-07T11:13:33Z</time></trkpt><trkpt lat="33.920034291795545" lon="8.138062740637832"><ele>47.0</ele><time>2026-04-07T11:13:38Z</time></trkpt><trkpt lat="33.920095236583336" lon="8.138098388782057"><ele>47.0</ele><time>2026-04-07T11:13:43Z</time></trkpt><trkpt lat="33.92015629506263" lon="8.13812205254285"><ele>47.0</ele><time>2026-04-07T11:13:48Z</time></trkpt><trkpt lat="33.920218084498174" lon="8.138142958482197"><ele>47.0</ele><time>2026-04-07T11:13:53Z</time></trkpt><trkpt lat="33.920287055525286" lon="8.13815274780895"><ele>47.0</ele><time>2026-04-07T11:14:00Z</time></trkpt><trkpt lat="33.92034769767911" lon="8.138192805953302"><ele>47.0</ele><time>2026-04-07T11:14:06Z</time></trkpt><trkpt lat="33.92041997555849" lon="8.13820619195318"><ele>47.0</ele><time>2026-04-07T11:14:11Z</time></trkpt><trkpt lat="33.92048020784253" lon="8.138232750015476"><ele>47.0</ele><time>2026-04-07T11:14:15Z</time></trkpt><trkpt lat="33.92055636113653" lon="8.138267014059002"><ele>47.0</ele><time>2026-04-07T11:14:21Z</time></trkpt><trkpt lat="33.92061598047536" lon="8.138304871515073"><ele>47.0</ele><time>2026-04-07T11:14:52Z</time></trkpt><trkpt lat="33.9206393809723" lon="8.13838475238998"><ele>47.0</ele><time>2026-04-07T11:15:15Z</time></trkpt><trkpt lat="33.920699505037334" lon="8.13843133067124"><ele>47.0</ele><time>2026-04-07T11:15:20Z</time></trkpt><trkpt lat="33.92066843012351" lon="8.138503121586037"><ele>47.0</ele><time>2026-04-07T11:15:26Z</time></trkpt><trkpt lat="33.920671726448184" lon="8.138583923445584"><ele>47.0</ele><time>2026-04-07T11:15:32Z</time></trkpt><trkpt lat="33.920709082801444" lon="8.138657346673874"><ele>47.0</ele><time>2026-04-07T11:16:19.999Z</time></trkpt><trkpt lat="33.92077292236031" lon="8.138641378478102"><ele>47.0</ele><time>2026-04-07T11:16:37.999Z</time></trkpt><trkpt lat="33.92086589617257" lon="8.13865717844658"><ele>47.0</ele><time>2026-04-07T11:16:55.999Z</time></trkpt><trkpt lat="33.92084181878047" lon="8.138562611861808"><ele>46.8</ele><time>2026-04-07T11:16:57.999Z</time></trkpt><trkpt lat="33.920902809157006" lon="8.13847201110502"><ele>46.6</ele><time>2026-04-07T11:17:29.999Z</time></trkpt><trkpt lat="33.92096414128177" lon="8.138497542212864"><ele>46.4</ele><time>2026-04-07T11:17:38.999Z</time></trkpt><trkpt lat="33.921111303791605" lon="8.138575336728962"><ele>46.199999999999996</ele><time>2026-04-07T11:17:42.999Z</time></trkpt><trkpt lat="33.92117751733176" lon="8.138618932416511"><ele>46.0</ele><time>2026-04-07T11:17:44.999Z</time></trkpt><trkpt lat="33.920999737243136" lon="8.138606441930406"><ele>46.0</ele><time>2026-04-07T11:17:47.999Z</time></trkpt><trkpt lat="33.92119202090031" lon="8.138617989918547"><ele>46.0</ele><time>2026-04-07T11:18:03.031Z</time></trkpt><trkpt lat="33.92122396281691" lon="8.138693074800722"><ele>46.0</ele><time>2026-04-07T11:18:28.998Z</time></trkpt><trkpt lat="33.92127676241153" lon="8.138755609148252"><ele>46.0</ele><time>2026-04-07T11:18:34.998Z</time></trkpt><trkpt lat="33.92132413145493" lon="8.13880742726025"><ele>46.0</ele><time>2026-04-07T11:18:50.999Z</time></trkpt><trkpt lat="33.92138759455584" lon="8.13884544646081"><ele>46.0</ele><time>2026-04-07T11:18:58.999Z</time></trkpt><trkpt lat="33.921428137793875" lon="8.138908558485268"><ele>46.0</ele><time>2026-04-07T11:19:03.999Z</time></trkpt><trkpt lat="33.921511870796515" lon="8.138972890048672"><ele>46.0</ele><time>2026-04-07T11:19:04.999Z</time></trkpt><trkpt lat="33.921432651908916" lon="8.138954893273988"><ele>46.0</ele><time>2026-04-07T11:19:10.999Z</time></trkpt><trkpt lat="33.921368733744515" lon="8.138953307265197"><ele>46.0</ele><time>2026-04-07T11:19:21.999Z</time></trkpt><trkpt lat="33.92147136999725" lon="8.138908765751747"><ele>46.0</ele><time>2026-04-07T11:20:16Z</time></trkpt><trkpt lat="33.921466472200805" lon="8.138818474788184"><ele>46.0</ele><time>2026-04-07T11:21:45.019Z</time></trkpt><trkpt lat="33.92162095642633" lon="8.138742874467582"><ele>46.0</ele><time>2026-04-07T11:21:48Z</time></trkpt><trkpt lat="33.92167558589911" lon="8.13880628085781"><ele>46.0</ele><time>2026-04-07T11:21:52Z</time></trkpt><trkpt lat="33.92173496991952" lon="8.138770323170137"><ele>46.0</ele><time>2026-04-07T11:22:06Z</time></trkpt><trkpt lat="33.92178589630382" lon="8.138724199797581"><ele>46.0</ele><time>2026-04-07T11:22:13Z</time></trkpt><trkpt lat="33.92182416330268" lon="8.13864923154452"><ele>46.0</ele><time>2026-04-07T11:22:20Z</time></trkpt><trkpt lat="33.92187236962204" lon="8.13859127389831"><ele>45.85714285714286</ele><time>2026-04-07T11:22:30.997Z</time></trkpt><trkpt lat="33.92192044474748" lon="8.138539042049153"><ele>45.71428571428571</ele><time>2026-04-07T11:23:08.999Z</time></trkpt><trkpt lat="33.92197201597877" lon="8.138490808176453"><ele>45.57142857142857</ele><time>2026-04-07T11:23:18Z</time></trkpt><trkpt lat="33.92201352195138" lon="8.138430652703668"><ele>45.42857142857143</ele><time>2026-04-07T11:23:24Z</time></trkpt><trkpt lat="33.92207786641162" lon="8.138382459662546"><ele>45.28571428571429</ele><time>2026-04-07T11:23:29Z</time></trkpt><trkpt lat="33.92214121262378" lon="8.138357173401237"><ele>45.14285714285714</ele><time>2026-04-07T11:23:35Z</time></trkpt><trkpt lat="33.9222015326828" lon="8.138308902640095"><ele>45.0</ele><time>2026-04-07T11:23:41Z</time></trkpt><trkpt lat="33.92225385612906" lon="8.138253659385754"><ele>45.14285714285714</ele><time>2026-04-07T11:23:48Z</time></trkpt><trkpt lat="33.9223087450795" lon="8.138202614603584"><ele>45.28571428571429</ele><time>2026-04-07T11:23:54Z</time></trkpt><trkpt lat="33.92238606570615" lon="8.138178154011785"><ele>45.42857142857143</ele><time>2026-04-07T11:24:05.001Z</time></trkpt><trkpt lat="33.922425382862436" lon="8.138105127868936"><ele>45.57142857142857</ele><time>2026-04-07T11:24:13.001Z</time></trkpt><trkpt lat="33.922456477656105" lon="8.13803846224967"><ele>45.71428571428571</ele><time>2026-04-07T11:24:20.001Z</time></trkpt><trkpt lat="33.922491193427234" lon="8.137955739344516"><ele>45.85714285714286</ele><time>2026-04-07T11:24:28.001Z</time></trkpt><trkpt lat="33.9225391352266" lon="8.137901965185616"><ele>46.0</ele><time>2026-04-07T11:24:34.999Z</time></trkpt><trkpt lat="33.922567611569086" lon="8.13782924671593"><ele>46.142857142857146</ele><time>2026-04-07T11:24:40.999Z</time></trkpt><trkpt lat="33.922532672843836" lon="8.13776082874464"><ele>46.285714285714285</ele><time>2026-04-07T11:25:36.001Z</time></trkpt><trkpt lat="33.92248816457713" lon="8.137704499049779"><ele>46.42857142857143</ele><time>2026-04-07T11:25:45.001Z</time></trkpt><trkpt lat="33.92244243096466" lon="8.137627259084407"><ele>46.57142857142857</ele><time>2026-04-07T11:26:14.002Z</time></trkpt><trkpt lat="33.92240405578276" lon="8.137563229700458"><ele>46.71428571428571</ele><time>2026-04-07T11:26:26.002Z</time></trkpt><trkpt lat="33.92235273036237" lon="8.13751750649432"><ele>46.857142857142854</ele><time>2026-04-07T11:26:46.001Z</time></trkpt><trkpt lat="33.92231015593101" lon="8.13745462282845"><ele>47.0</ele><time>2026-04-07T11:26:54.001Z</time></trkpt><trkpt lat="33.9222540769614" lon="8.13741960634289"><ele>47.0</ele><time>2026-04-07T11:27:11.001Z</time></trkpt><trkpt lat="33.922201844226855" lon="8.137364746105673"><ele>47.0</ele><time>2026-04-07T11:27:18.001Z</time></trkpt><trkpt lat="33.9221512442462" lon="8.137303774190755"><ele>47.0</ele><time>2026-04-07T11:27:25.001Z</time></trkpt><trkpt lat="33.92209431855114" lon="8.137252167888626"><ele>47.0</ele><time>2026-04-07T11:27:34.002Z</time></trkpt><trkpt lat="33.922038426238224" lon="8.137196613144527"><ele>47.0</ele><time>2026-04-07T11:27:46.002Z</time></trkpt><trkpt lat="33.92199756332215" lon="8.137135293995582"><ele>47.0</ele><time>2026-04-07T11:27:55.002Z</time></trkpt><trkpt lat="33.92194303139132" lon="8.137083835190408"><ele>47.0</ele><time>2026-04-07T11:30:52.002Z</time></trkpt><trkpt lat="33.92189175965949" lon="8.137036407712706"><ele>47.0</ele><time>2026-04-07T11:31:00.002Z</time></trkpt><trkpt lat="33.92185175817033" lon="8.136975795185597"><ele>47.0</ele><time>2026-04-07T11:31:10.002Z</time></trkpt><trkpt lat="33.921812855734814" lon="8.136910783735376"><ele>47.0</ele><time>2026-04-07T11:31:24.002Z</time></trkpt><trkpt lat="33.92176488744055" lon="8.136854659534427"><ele>47.0</ele><time>2026-04-07T11:31:33.002Z</time></trkpt><trkpt lat="33.921722422118414" lon="8.136798210409554"><ele>47.0</ele><time>2026-04-07T11:31:42.002Z</time></trkpt><trkpt lat="33.92166406297374" lon="8.136764556867638"><ele>47.0</ele><time>2026-04-07T11:31:49.002Z</time></trkpt><trkpt lat="33.92160309792757" lon="8.13673273243089"><ele>47.0</ele><time>2026-04-07T11:32:00.002Z</time></trkpt><trkpt lat="33.92153556686297" lon="8.136710077319524"><ele>47.0</ele><time>2026-04-07T11:32:10.003Z</time></trkpt><trkpt lat="33.92147439897441" lon="8.136686367245597"><ele>47.0</ele><time>2026-04-07T11:32:19.003Z</time></trkpt><trkpt lat="33.921418349591505" lon="8.136640715447982"><ele>47.0</ele><time>2026-04-07T11:32:29.003Z</time></trkpt><trkpt lat="33.92135857946502" lon="8.136605733354893"><ele>47.0</ele><time>2026-04-07T11:32:36.003Z</time></trkpt><trkpt lat="33.92130155348529" lon="8.1365621782098"><ele>47.0</ele><time>2026-04-07T11:32:46.003Z</time></trkpt><trkpt lat="33.92126279765569" lon="8.136497355319593"><ele>47.0</ele><time>2026-04-07T11:32:57.003Z</time></trkpt><trkpt lat="33.92121282615179" lon="8.136439176762355"><ele>47.0</ele><time>2026-04-07T11:33:06.003Z</time></trkpt><trkpt lat="33.921204801486624" lon="8.136360184195025"><ele>47.42857142857143</ele><time>2026-04-07T11:33:16.003Z</time></trkpt><trkpt lat="33.92115246942996" lon="8.136298288715802"><ele>47.857142857142854</ele><time>2026-04-07T11:33:25.002Z</time></trkpt><trkpt lat="33.92112617730117" lon="8.136218366516824"><ele>48.28571428571429</ele><time>2026-04-07T11:33:34.002Z</time></trkpt><trkpt lat="33.9211061652888" lon="8.13614560980233"><ele>48.714285714285715</ele><time>2026-04-07T11:33:42.003Z</time></trkpt><trkpt lat="33.92108162572433" lon="8.136073981186852"><ele>49.142857142857146</ele><time>2026-04-07T11:33:51.003Z</time></trkpt><trkpt lat="33.92107129287964" lon="8.135979020777674"><ele>49.57142857142858</ele><time>2026-04-07T11:34:40.003Z</time></trkpt><trkpt lat="33.92111885910723" lon="8.135920463998433"><ele>50.0</ele><time>2026-04-07T11:34:47.003Z</time></trkpt><trkpt lat="33.92111922357007" lon="8.135837921174678"><ele>50.0</ele><time>2026-04-07T11:34:55.004Z</time></trkpt><trkpt lat="33.92108328030119" lon="8.13576978997259"><ele>50.0</ele><time>2026-04-07T11:35:03.004Z</time></trkpt><trkpt lat="33.92107611469408" lon="8.13567639233123"><ele>50.0</ele><time>2026-04-07T11:35:11.003Z</time></trkpt><trkpt lat="33.92113863832206" lon="8.135930141884762"><ele>50.0</ele><time>2026-04-07T11:37:06.965Z</time></trkpt><trkpt lat="33.921111063420106" lon="8.136021928326137"><ele>50.0</ele><time>2026-04-07T11:39:25.005Z</time></trkpt><trkpt lat="33.92110283204125" lon="8.135943277536024"><ele>50.00000000000001</ele><time>2026-04-07T11:39:31.005Z</time></trkpt><trkpt lat="33.9211278111879" lon="8.135869822465892"><ele>50.0</ele><time>2026-04-07T11:39:45.004Z</time></trkpt><trkpt lat="33.9210782283157" lon="8.135925554505349"><ele>50.0</ele><time>2026-04-07T11:40:18.002Z</time></trkpt><trkpt lat="33.921024985111934" lon="8.135982010641586"><ele>50.0</ele><time>2026-04-07T11:40:25.002Z</time></trkpt><trkpt lat="33.920963379445574" lon="8.136000244784869"><ele>50.0</ele><time>2026-04-07T11:40:34.002Z</time></trkpt><trkpt lat="33.9208975390724" lon="8.13602846665511"><ele>50.00000000000001</ele><time>2026-04-07T11:40:41.002Z</time></trkpt><trkpt lat="33.92084132923855" lon="8.136070317819287"><ele>50.0</ele><time>2026-04-07T11:40:50.002Z</time></trkpt><trkpt lat="33.92079560680747" lon="8.136123299850462"><ele>49.85714285714286</ele><time>2026-04-07T11:49:39Z</time></trkpt><trkpt lat="33.92073122424805" lon="8.136166888281565"><ele>49.714285714285715</ele><time>2026-04-07T11:49:48Z</time></trkpt><trkpt lat="33.92066524093505" lon="8.136201254697285"><ele>49.57142857142857</ele><time>2026-04-07T11:49:57Z</time></trkpt><trkpt lat="33.920616433088064" lon="8.136257791096245"><ele>49.42857142857143</ele><time>2026-04-07T11:50:04.001Z</time></trkpt><trkpt lat="33.92067046573772" lon="8.136327159964424"><ele>49.285714285714285</ele><time>2026-04-07T11:50:41Z</time></trkpt><trkpt lat="33.92059932683478" lon="8.136314101908061"><ele>49.142857142857146</ele><time>2026-04-07T11:51:34Z</time></trkpt><trkpt lat="33.92052537474074" lon="8.13627537469081"><ele>49.0</ele><time>2026-04-07T11:51:40Z</time></trkpt><trkpt lat="33.92045957677521" lon="8.136321532964496"><ele>48.99999999999999</ele><time>2026-04-07T11:51:47Z</time></trkpt><trkpt lat="33.92040077809234" lon="8.136367664763377"><ele>49.0</ele><time>2026-04-07T11:51:56Z</time></trkpt><trkpt lat="33.92033438250013" lon="8.136404070005884"><ele>49.0</ele><time>2026-04-07T11:52:39Z</time></trkpt><trkpt lat="33.920265519928" lon="8.136244360417427"><ele>49.0</ele><time>2026-04-07T11:53:13Z</time></trkpt><trkpt lat="33.920276836626634" lon="8.136341900441112"><ele>48.99999999999999</ele><time>2026-04-07T11:53:26.072Z</time></trkpt><trkpt lat="33.92029628474406" lon="8.136419312283412"><ele>49.0</ele><time>2026-04-07T11:53:31Z</time></trkpt><trkpt lat="33.920245540647414" lon="8.13636777155354"><ele>49.0</ele><time>2026-04-07T11:54:59Z</time></trkpt><trkpt lat="33.92025680161438" lon="8.136445425109486"><ele>49.0</ele><time>2026-04-07T11:55:18Z</time></trkpt><trkpt lat="33.92018789712485" lon="8.136443846560919"><ele>49.0</ele><time>2026-04-07T11:56:08Z</time></trkpt><trkpt lat="33.92013025666741" lon="8.136484956651096"><ele>49.0</ele><time>2026-04-07T11:56:14Z</time></trkpt><trkpt lat="33.9200619651839" lon="8.13653466425487"><ele>49.0</ele><time>2026-04-07T11:56:23Z</time></trkpt><trkpt lat="33.919991750168066" lon="8.136557622573337"><ele>49.0</ele><time>2026-04-07T11:56:32Z</time></trkpt><trkpt lat="33.91992685759716" lon="8.13657202437486"><ele>49.0</ele><time>2026-04-07T11:56:40Z</time></trkpt><trkpt lat="33.91986054524819" lon="8.13660472269183"><ele>48.857142857142854</ele><time>2026-04-07T11:56:45Z</time></trkpt><trkpt lat="33.91979329142165" lon="8.136642287854734"><ele>48.714285714285715</ele><time>2026-04-07T11:56:51Z</time></trkpt><trkpt lat="33.919739418011154" lon="8.136682347402244"><ele>48.57142857142857</ele><time>2026-04-07T11:56:56Z</time></trkpt><trkpt lat="33.91967156494998" lon="8.136718140456594"><ele>48.42857142857143</ele><time>2026-04-07T11:57:02Z</time></trkpt><trkpt lat="33.9196087480876" lon="8.13676064432876"><ele>48.285714285714285</ele><time>2026-04-07T11:57:11Z</time></trkpt><trkpt lat="33.91954558779917" lon="8.136806027037963"><ele>48.14285714285714</ele><time>2026-04-07T11:57:22Z</time></trkpt><trkpt lat="33.91948628140546" lon="8.136833135894937"><ele>48.0</ele><time>2026-04-07T11:57:27Z</time></trkpt><trkpt lat="33.91949948742574" lon="8.136918688876735"><ele>47.99999999999999</ele><time>2026-04-07T11:57:35Z</time></trkpt><trkpt lat="33.919462358422145" lon="8.136983167509388"><ele>48.0</ele><time>2026-04-07T11:57:41Z</time></trkpt><trkpt lat="33.919396400372946" lon="8.137007798178354"><ele>48.0</ele><time>2026-04-07T11:57:47Z</time></trkpt><trkpt lat="33.919331626509496" lon="8.137033467872364"><ele>48.0</ele><time>2026-04-07T11:57:55Z</time></trkpt><trkpt lat="33.91927374031232" lon="8.13707899023417"><ele>48.0</ele><time>2026-04-07T11:58:03Z</time></trkpt><trkpt lat="33.91925232540914" lon="8.137159730294584"><ele>47.99999999999999</ele><time>2026-04-07T11:58:09Z</time></trkpt><trkpt lat="33.919226960957985" lon="8.137242448672527"><ele>48.0</ele><time>2026-04-07T11:58:16Z</time></trkpt><trkpt lat="33.919176885528174" lon="8.137293748931759"><ele>47.71428571428571</ele><time>2026-04-07T11:58:22Z</time></trkpt><trkpt lat="33.919145314838474" lon="8.13737198176816"><ele>47.42857142857143</ele><time>2026-04-07T11:58:29Z</time></trkpt><trkpt lat="33.919104922888415" lon="8.137439522307869"><ele>47.14285714285714</ele><time>2026-04-07T11:58:44Z</time></trkpt><trkpt lat="33.91913787606591" lon="8.137355067138541"><ele>46.857142857142854</ele><time>2026-04-07T11:59:07.001Z</time></trkpt><trkpt lat="33.91914675756251" lon="8.137282952950374"><ele>46.57142857142857</ele><time>2026-04-07T12:04:04Z</time></trkpt><trkpt lat="33.91910350372771" lon="8.137223610307828"><ele>46.285714285714285</ele><time>2026-04-07T12:04:14Z</time></trkpt><trkpt lat="33.91912586977379" lon="8.1371315690903"><ele>46.0</ele><time>2026-04-07T12:05:43Z</time></trkpt><trkpt lat="33.91915124353687" lon="8.137033748640178"><ele>46.0</ele><time>2026-04-07T12:05:46Z</time></trkpt><trkpt lat="33.91908736453319" lon="8.136956197425992"><ele>46.0</ele><time>2026-04-07T12:05:48Z</time></trkpt><trkpt lat="33.91899421630172" lon="8.136894970673824"><ele>46.0</ele><time>2026-04-07T12:05:50Z</time></trkpt><trkpt lat="33.91891960044958" lon="8.136785959684776"><ele>46.0</ele><time>2026-04-07T12:05:52Z</time></trkpt><trkpt lat="33.918885910985345" lon="8.136710894681475"><ele>46.0</ele><time>2026-04-07T12:05:53Z</time></trkpt><trkpt lat="33.918846968165" lon="8.13663525689661"><ele>46.0</ele><time>2026-04-07T12:05:54Z</time></trkpt><trkpt lat="33.91880572193535" lon="8.136556843187657"><ele>46.0</ele><time>2026-04-07T12:05:55Z</time></trkpt><trkpt lat="33.9187639637723" lon="8.13648297692535"><ele>46.0</ele><time>2026-04-07T12:05:56Z</time></trkpt><trkpt lat="33.918723253367915" lon="8.13640342305025"><ele>46.0</ele><time>2026-04-07T12:05:57Z</time></trkpt><trkpt lat="33.91868983824945" lon="8.136330757421275"><ele>46.0</ele><time>2026-04-07T12:05:58Z</time></trkpt><trkpt lat="33.91865511680136" lon="8.136252106747087"><ele>46.0</ele><time>2026-04-07T12:05:59Z</time></trkpt><trkpt lat="33.91862223871252" lon="8.136179523039909"><ele>46.0</ele><time>2026-04-07T12:06:00Z</time></trkpt><trkpt lat="33.9185868897585" lon="8.136104805917132"><ele>46.0</ele><time>2026-04-07T12:06:01Z</time></trkpt><trkpt lat="33.91855333759534" lon="8.13602937929481"><ele>46.0</ele><time>2026-04-07T12:06:02Z</time></trkpt><trkpt lat="33.91851873744282" lon="8.135959630973502"><ele>46.0</ele><time>2026-04-07T12:06:03Z</time></trkpt><trkpt lat="33.91848651921754" lon="8.135891567227283"><ele>46.0</ele><time>2026-04-07T12:06:04Z</time></trkpt><trkpt lat="33.918453046245595" lon="8.135825326357644"><ele>46.0</ele><time>2026-04-07T12:06:05Z</time></trkpt><trkpt lat="33.91839286117994" lon="8.135696257345648"><ele>46.0</ele><time>2026-04-07T12:06:07Z</time></trkpt><trkpt lat="33.91832696048325" lon="8.135568907809438"><ele>46.599999999999994</ele><time>2026-04-07T12:06:09Z</time></trkpt><trkpt lat="33.91827380524548" lon="8.135456022533356"><ele>47.2</ele><time>2026-04-07T12:06:11Z</time></trkpt><trkpt lat="33.91823167157256" lon="8.135367285083941"><ele>47.8</ele><time>2026-04-07T12:06:13Z</time></trkpt><trkpt lat="33.91817899523342" lon="8.135259362363955"><ele>48.400000000000006</ele><time>2026-04-07T12:06:15Z</time></trkpt><trkpt lat="33.918120808892645" lon="8.135163257162615"><ele>49.0</ele><time>2026-04-07T12:06:17Z</time></trkpt><trkpt lat="33.91808026716751" lon="8.135078879908463"><ele>48.99999999999999</ele><time>2026-04-07T12:06:19Z</time></trkpt><trkpt lat="33.91804764425903" lon="8.1350094521965"><ele>49.0</ele><time>2026-04-07T12:06:22Z</time></trkpt><trkpt lat="33.91800850562696" lon="8.134942862785628"><ele>49.0</ele><time>2026-04-07T12:06:44.001Z</time></trkpt><trkpt lat="33.91796387331052" lon="8.134834091949795"><ele>49.0</ele><time>2026-04-07T12:06:48.001Z</time></trkpt><trkpt lat="33.917930369512824" lon="8.134762080831766"><ele>48.99999999999999</ele><time>2026-04-07T12:06:50.001Z</time></trkpt><trkpt lat="33.917895661561865" lon="8.134698769361552"><ele>49.0</ele><time>2026-04-07T12:06:52Z</time></trkpt><trkpt lat="33.91784563859271" lon="8.134608499083491"><ele>49.0</ele><time>2026-04-07T12:06:54Z</time></trkpt><trkpt lat="33.91778167700613" lon="8.134511577813704"><ele>49.0</ele><time>2026-04-07T12:06:56Z</time></trkpt><trkpt lat="33.91772957012567" lon="8.134397160309387"><ele>49.0</ele><time>2026-04-07T12:06:58Z</time></trkpt><trkpt lat="33.91767566225646" lon="8.134284391516642"><ele>49.0</ele><time>2026-04-07T12:07:00Z</time></trkpt><trkpt lat="33.917626921977046" lon="8.13416242090519"><ele>49.0</ele><time>2026-04-07T12:07:02Z</time></trkpt><trkpt lat="33.91757390958726" lon="8.134048832898984"><ele>48.99999999999999</ele><time>2026-04-07T12:07:04Z</time></trkpt><trkpt lat="33.917522250404986" lon="8.133929806287087"><ele>49.0</ele><time>2026-04-07T12:07:06Z</time></trkpt><trkpt lat="33.91748824491356" lon="8.133860446439572"><ele>49.0</ele><time>2026-04-07T12:07:07Z</time></trkpt><trkpt lat="33.9174530526661" lon="8.133791177243374"><ele>49.0</ele><time>2026-04-07T12:07:08Z</time></trkpt><trkpt lat="33.91741790671088" lon="8.133719818391713"><ele>48.99999999999999</ele><time>2026-04-07T12:07:09Z</time></trkpt><trkpt lat="33.917387388560364" lon="8.133651442335289"><ele>49.0</ele><time>2026-04-07T12:07:10Z</time></trkpt><trkpt lat="33.91733607810004" lon="8.13352901365469"><ele>48.99999999999999</ele><time>2026-04-07T12:07:12Z</time></trkpt><trkpt lat="33.917273996439675" lon="8.13339969533228"><ele>49.0</ele><time>2026-04-07T12:07:14Z</time></trkpt><trkpt lat="33.91723687862212" lon="8.133333478233874"><ele>49.0</ele><time>2026-04-07T12:07:15Z</time></trkpt><trkpt lat="33.91720067572496" lon="8.13326518455611"><ele>49.0</ele><time>2026-04-07T12:07:16Z</time></trkpt><trkpt lat="33.9171693897004" lon="8.133199203941645"><ele>48.99999999999999</ele><time>2026-04-07T12:07:17Z</time></trkpt><trkpt lat="33.917114072406925" lon="8.133063139628108"><ele>49.0</ele><time>2026-04-07T12:07:19Z</time></trkpt><trkpt lat="33.91708131033684" lon="8.132994211540126"><ele>49.0</ele><time>2026-04-07T12:07:20Z</time></trkpt><trkpt lat="33.917045709678916" lon="8.132928411289944"><ele>49.0</ele><time>2026-04-07T12:07:21Z</time></trkpt><trkpt lat="33.91700665555116" lon="8.132862614325783"><ele>49.0</ele><time>2026-04-07T12:07:22Z</time></trkpt><trkpt lat="33.91696941103858" lon="8.132796963080857"><ele>49.0</ele><time>2026-04-07T12:07:23Z</time></trkpt><trkpt lat="33.91693722195466" lon="8.132729660526053"><ele>49.0</ele><time>2026-04-07T12:07:24Z</time></trkpt><trkpt lat="33.916879973267285" lon="8.132606396039042"><ele>49.0</ele><time>2026-04-07T12:07:26Z</time></trkpt><trkpt lat="33.91684555384212" lon="8.132540829766771"><ele>49.0</ele><time>2026-04-07T12:07:27Z</time></trkpt><trkpt lat="33.916812969096675" lon="8.132474729792959"><ele>48.800000000000004</ele><time>2026-04-07T12:07:28Z</time></trkpt><trkpt lat="33.91674886388178" lon="8.132354491843223"><ele>48.6</ele><time>2026-04-07T12:07:30Z</time></trkpt><trkpt lat="33.91669312099414" lon="8.132231062338649"><ele>48.4</ele><time>2026-04-07T12:07:32Z</time></trkpt><trkpt lat="33.916646393905886" lon="8.132131148797907"><ele>48.2</ele><time>2026-04-07T12:07:34Z</time></trkpt><trkpt lat="33.916590764477235" lon="8.13202775023333"><ele>48.0</ele><time>2026-04-07T12:07:36Z</time></trkpt><trkpt lat="33.91652613566369" lon="8.131911986302073"><ele>48.0</ele><time>2026-04-07T12:07:38Z</time></trkpt><trkpt lat="33.91645366546611" lon="8.13178961807338"><ele>48.0</ele><time>2026-04-07T12:07:40Z</time></trkpt><trkpt lat="33.91638097355451" lon="8.131668761218421"><ele>48.0</ele><time>2026-04-07T12:07:42Z</time></trkpt><trkpt lat="33.91631417329665" lon="8.131543740824867"><ele>48.0</ele><time>2026-04-07T12:07:44Z</time></trkpt><trkpt lat="33.916277700133975" lon="8.131478031338673"><ele>48.0</ele><time>2026-04-07T12:07:45Z</time></trkpt><trkpt lat="33.91623694174475" lon="8.13141097389671"><ele>48.2</ele><time>2026-04-07T12:07:46Z</time></trkpt><trkpt lat="33.91619626196592" lon="8.131349131866374"><ele>48.4</ele><time>2026-04-07T12:07:47Z</time></trkpt><trkpt lat="33.91612173740178" lon="8.131237060886853"><ele>48.6</ele><time>2026-04-07T12:07:49Z</time></trkpt><trkpt lat="33.91605131551514" lon="8.131126787345575"><ele>48.800000000000004</ele><time>2026-04-07T12:07:51Z</time></trkpt><trkpt lat="33.91598344060242" lon="8.131014363745143"><ele>49.0</ele><time>2026-04-07T12:07:53Z</time></trkpt><trkpt lat="33.915910004318654" lon="8.130894659105026"><ele>48.99999999999999</ele><time>2026-04-07T12:07:55Z</time></trkpt><trkpt lat="33.91585544846643" lon="8.130808197621546"><ele>49.0</ele><time>2026-04-07T12:07:57Z</time></trkpt><trkpt lat="33.91581215131245" lon="8.130742118008467"><ele>49.0</ele><time>2026-04-07T12:07:59Z</time></trkpt><trkpt lat="33.915762522058714" lon="8.1306531717573"><ele>49.0</ele><time>2026-04-07T12:08:01Z</time></trkpt><trkpt lat="33.915703816396416" lon="8.130567793639415"><ele>48.99999999999999</ele><time>2026-04-07T12:08:03Z</time></trkpt><trkpt lat="33.91563072134836" lon="8.130481739345884"><ele>49.0</ele><time>2026-04-07T12:08:05Z</time></trkpt><trkpt lat="33.91556167444896" lon="8.130362587044862"><ele>49.0</ele><time>2026-04-07T12:08:07Z</time></trkpt><trkpt lat="33.915528305020324" lon="8.130296723763832"><ele>49.0</ele><time>2026-04-07T12:08:08Z</time></trkpt><trkpt lat="33.91549479028154" lon="8.130231532870393"><ele>49.0</ele><time>2026-04-07T12:08:09Z</time></trkpt><trkpt lat="33.91546147051424" lon="8.130165834221904"><ele>49.0</ele><time>2026-04-07T12:08:10Z</time></trkpt><trkpt lat="33.91543343363482" lon="8.1300937602062"><ele>49.0</ele><time>2026-04-07T12:08:11Z</time></trkpt><trkpt lat="33.91539634401147" lon="8.130007419096977"><ele>49.0</ele><time>2026-04-07T12:08:12Z</time></trkpt><trkpt lat="33.91534654585251" lon="8.129895236989382"><ele>49.0</ele><time>2026-04-07T12:08:13Z</time></trkpt><trkpt lat="33.9153004952756" lon="8.12977284481444"><ele>49.400000000000006</ele><time>2026-04-07T12:08:14Z</time></trkpt><trkpt lat="33.91526947787476" lon="8.129666300116291"><ele>49.8</ele><time>2026-04-07T12:08:15Z</time></trkpt><trkpt lat="33.91524636167524" lon="8.129579854678246"><ele>50.2</ele><time>2026-04-07T12:08:16Z</time></trkpt><trkpt lat="33.91520480725586" lon="8.129454904437607"><ele>50.599999999999994</ele><time>2026-04-07T12:08:18Z</time></trkpt><trkpt lat="33.915172856078684" lon="8.129375108666416"><ele>51.0</ele><time>2026-04-07T12:08:21Z</time></trkpt><trkpt lat="33.915127149755186" lon="8.129269215247758"><ele>51.0</ele><time>2026-04-07T12:08:23.001Z</time></trkpt><trkpt lat="33.91508791424764" lon="8.129170595125437"><ele>51.0</ele><time>2026-04-07T12:08:24.001Z</time></trkpt><trkpt lat="33.915046141226796" lon="8.12903245551269"><ele>51.0</ele><time>2026-04-07T12:08:25.001Z</time></trkpt><trkpt lat="33.91499891326653" lon="8.128893612368309"><ele>51.0</ele><time>2026-04-07T12:08:26.001Z</time></trkpt><trkpt lat="33.91495517519055" lon="8.128755558359277"><ele>50.599999999999994</ele><time>2026-04-07T12:08:27.001Z</time></trkpt><trkpt lat="33.91491397285828" lon="8.12862526579279"><ele>50.2</ele><time>2026-04-07T12:08:28.001Z</time></trkpt><trkpt lat="33.91486861847796" lon="8.128508992408984"><ele>49.8</ele><time>2026-04-07T12:08:29.001Z</time></trkpt><trkpt lat="33.914816818289154" lon="8.128390589284763"><ele>49.400000000000006</ele><time>2026-04-07T12:08:30.001Z</time></trkpt><trkpt lat="33.914767300842485" lon="8.128267352036456"><ele>49.0</ele><time>2026-04-07T12:08:31.001Z</time></trkpt><trkpt lat="33.91472458279061" lon="8.128145464518703"><ele>48.800000000000004</ele><time>2026-04-07T12:08:32.001Z</time></trkpt><trkpt lat="33.91468841054744" lon="8.128035319258597"><ele>48.6</ele><time>2026-04-07T12:08:33.001Z</time></trkpt><trkpt lat="33.91465340584036" lon="8.127925266484882"><ele>48.4</ele><time>2026-04-07T12:08:34.001Z</time></trkpt><trkpt lat="33.91460561743073" lon="8.127816390638436"><ele>48.2</ele><time>2026-04-07T12:08:35.001Z</time></trkpt><trkpt lat="33.914561518853375" lon="8.127704977877153"><ele>48.0</ele><time>2026-04-07T12:08:36.001Z</time></trkpt><trkpt lat="33.914530292200325" lon="8.127593884053162"><ele>48.0</ele><time>2026-04-07T12:08:37.001Z</time></trkpt><trkpt lat="33.9145120592331" lon="8.127488420068765"><ele>48.0</ele><time>2026-04-07T12:08:38.001Z</time></trkpt><trkpt lat="33.91448623346895" lon="8.127394526722322"><ele>48.0</ele><time>2026-04-07T12:08:39.001Z</time></trkpt><trkpt lat="33.91445680271308" lon="8.12729949178798"><ele>48.0</ele><time>2026-04-07T12:08:40.001Z</time></trkpt><trkpt lat="33.914447415736376" lon="8.127187048112194"><ele>48.0</ele><time>2026-04-07T12:08:41.001Z</time></trkpt><trkpt lat="33.914450643019094" lon="8.127057436737807"><ele>48.0</ele><time>2026-04-07T12:08:42.001Z</time></trkpt><trkpt lat="33.9144523065616" lon="8.126928667165929"><ele>48.0</ele><time>2026-04-07T12:08:43.001Z</time></trkpt><trkpt lat="33.914436566360706" lon="8.126801704450923"><ele>48.0</ele><time>2026-04-07T12:08:44.001Z</time></trkpt><trkpt lat="33.91441460952475" lon="8.126676553460793"><ele>48.0</ele><time>2026-04-07T12:08:45.001Z</time></trkpt><trkpt lat="33.91440229497452" lon="8.126551403225724"><ele>48.0</ele><time>2026-04-07T12:08:46.001Z</time></trkpt><trkpt lat="33.914393362647345" lon="8.126442726478373"><ele>47.99999999999999</ele><time>2026-04-07T12:08:47.001Z</time></trkpt><trkpt lat="33.9143835720712" lon="8.126353976578484"><ele>48.0</ele><time>2026-04-07T12:08:48.001Z</time></trkpt><trkpt lat="33.91437314837053" lon="8.126274240508547"><ele>48.0</ele><time>2026-04-07T12:08:49.001Z</time></trkpt><trkpt lat="33.91436620657249" lon="8.126191590322101"><ele>48.0</ele><time>2026-04-07T12:08:50.001Z</time></trkpt><trkpt lat="33.91436120259688" lon="8.126101311501733"><ele>48.0</ele><time>2026-04-07T12:08:51.001Z</time></trkpt><trkpt lat="33.91436026994553" lon="8.126005467229405"><ele>47.99999999999999</ele><time>2026-04-07T12:08:52.001Z</time></trkpt><trkpt lat="33.9143582068946" lon="8.125907805941635"><ele>48.0</ele><time>2026-04-07T12:08:53.001Z</time></trkpt><trkpt lat="33.91436043215302" lon="8.125808981312131"><ele>48.0</ele><time>2026-04-07T12:08:54.001Z</time></trkpt><trkpt lat="33.914367037199646" lon="8.125712032914729"><ele>48.0</ele><time>2026-04-07T12:08:55.001Z</time></trkpt><trkpt lat="33.91437433110751" lon="8.125614221626591"><ele>48.0</ele><time>2026-04-07T12:08:56.001Z</time></trkpt><trkpt lat="33.91438095906561" lon="8.12551689151718"><ele>48.0</ele><time>2026-04-07T12:08:56.999Z</time></trkpt><trkpt lat="33.91438469540241" lon="8.125419550956806"><ele>48.0</ele><time>2026-04-07T12:08:57.999Z</time></trkpt><trkpt lat="33.91438784102255" lon="8.125322346992949"><ele>48.0</ele><time>2026-04-07T12:08:58.999Z</time></trkpt><trkpt lat="33.91439314046702" lon="8.125227495213556"><ele>48.0</ele><time>2026-04-07T12:08:59.999Z</time></trkpt><trkpt lat="33.914396966922965" lon="8.125136885413186"><ele>48.0</ele><time>2026-04-07T12:09:00.999Z</time></trkpt><trkpt lat="33.91439738692216" lon="8.12503973738501"><ele>48.0</ele><time>2026-04-07T12:09:01.999Z</time></trkpt><trkpt lat="33.914391755158725" lon="8.124943261911136"><ele>48.0</ele><time>2026-04-07T12:09:02.999Z</time></trkpt><trkpt lat="33.91438427239521" lon="8.124849909993692"><ele>48.0</ele><time>2026-04-07T12:09:03.999Z</time></trkpt><trkpt lat="33.914370012933304" lon="8.124760381535554"><ele>48.0</ele><time>2026-04-07T12:09:04.999Z</time></trkpt><trkpt lat="33.91434569570158" lon="8.124668679131526"><ele>48.333333333333336</ele><time>2026-04-07T12:09:05.999Z</time></trkpt><trkpt lat="33.91431404460235" lon="8.12458182791465"><ele>48.66666666666667</ele><time>2026-04-07T12:09:06.999Z</time></trkpt><trkpt lat="33.91428171378986" lon="8.124491371026384"><ele>49.0</ele><time>2026-04-07T12:09:07.999Z</time></trkpt><trkpt lat="33.91424884368316" lon="8.124401487559368"><ele>49.333333333333336</ele><time>2026-04-07T12:09:08.999Z</time></trkpt><trkpt lat="33.91421381259155" lon="8.124313893513678"><ele>49.66666666666667</ele><time>2026-04-07T12:09:09.999Z</time></trkpt><trkpt lat="33.914174783072895" lon="8.124224856712777"><ele>50.0</ele><time>2026-04-07T12:09:10.999Z</time></trkpt><trkpt lat="33.91413504293495" lon="8.124135360986127"><ele>50.333333333333336</ele><time>2026-04-07T12:09:11.999Z</time></trkpt><trkpt lat="33.9140913239285" lon="8.124050229783881"><ele>50.66666666666667</ele><time>2026-04-07T12:09:12.999Z</time></trkpt><trkpt lat="33.91404955056296" lon="8.123960767571301"><ele>51.0</ele><time>2026-04-07T12:09:13.999Z</time></trkpt><trkpt lat="33.914011957138364" lon="8.123867772112751"><ele>51.33333333333333</ele><time>2026-04-07T12:09:14.999Z</time></trkpt><trkpt lat="33.91397275842702" lon="8.12378026749661"><ele>51.666666666666664</ele><time>2026-04-07T12:09:15.999Z</time></trkpt><trkpt lat="33.91393325192276" lon="8.123693903680454"><ele>52.0</ele><time>2026-04-07T12:09:16.999Z</time></trkpt><trkpt lat="33.9138940355406" lon="8.123605805829875"><ele>51.99999999999999</ele><time>2026-04-07T12:09:17.999Z</time></trkpt><trkpt lat="33.91385637392762" lon="8.123517950152863"><ele>52.0</ele><time>2026-04-07T12:09:18.999Z</time></trkpt><trkpt lat="33.91381728899209" lon="8.123429195143668"><ele>52.0</ele><time>2026-04-07T12:09:19.999Z</time></trkpt><trkpt lat="33.91377950202315" lon="8.123341511075715"><ele>52.0</ele><time>2026-04-07T12:09:20.999Z</time></trkpt><trkpt lat="33.913741470184945" lon="8.123254933002507"><ele>51.99999999999999</ele><time>2026-04-07T12:09:21.999Z</time></trkpt><trkpt lat="33.913707135900175" lon="8.123168323320552"><ele>52.0</ele><time>2026-04-07T12:09:23Z</time></trkpt><trkpt lat="33.91367459675048" lon="8.123084132558295"><ele>52.49999999999999</ele><time>2026-04-07T12:09:24Z</time></trkpt><trkpt lat="33.91364229772482" lon="8.122992438107698"><ele>53.0</ele><time>2026-04-07T12:09:25Z</time></trkpt><trkpt lat="33.913612801495645" lon="8.122913571078117"><ele>53.5</ele><time>2026-04-07T12:09:26Z</time></trkpt><trkpt lat="33.91358619218206" lon="8.122842872766348"><ele>54.0</ele><time>2026-04-07T12:09:27Z</time></trkpt><trkpt lat="33.913540630153925" lon="8.12272280129097"><ele>54.49999999999999</ele><time>2026-04-07T12:09:29Z</time></trkpt><trkpt lat="33.913490777636014" lon="8.12259166969458"><ele>55.0</ele><time>2026-04-07T12:09:31Z</time></trkpt><trkpt lat="33.913466102304405" lon="8.122518951461178"><ele>54.99999999999999</ele><time>2026-04-07T12:09:32Z</time></trkpt><trkpt lat="33.913438530468994" lon="8.122446722491285"><ele>55.0</ele><time>2026-04-07T12:09:33Z</time></trkpt><trkpt lat="33.9134107758757" lon="8.12237415346123"><ele>55.0</ele><time>2026-04-07T12:09:34Z</time></trkpt><trkpt lat="33.91338069231911" lon="8.122297979747835"><ele>55.0</ele><time>2026-04-07T12:09:35Z</time></trkpt><trkpt lat="33.913347678984884" lon="8.122219784846246"><ele>55.0</ele><time>2026-04-07T12:09:36Z</time></trkpt><trkpt lat="33.91331388493054" lon="8.12213875939491"><ele>54.99999999999999</ele><time>2026-04-07T12:09:37Z</time></trkpt><trkpt lat="33.91328133459869" lon="8.122055618511878"><ele>55.0</ele><time>2026-04-07T12:09:38Z</time></trkpt><trkpt lat="33.91324964416646" lon="8.121965512817617"><ele>54.83333333333333</ele><time>2026-04-07T12:09:39Z</time></trkpt><trkpt lat="33.91321691526236" lon="8.121877110483362"><ele>54.666666666666664</ele><time>2026-04-07T12:09:40Z</time></trkpt><trkpt lat="33.91318366163818" lon="8.12178589182998"><ele>54.5</ele><time>2026-04-07T12:09:41Z</time></trkpt><trkpt lat="33.91315133825571" lon="8.121694349478258"><ele>54.33333333333333</ele><time>2026-04-07T12:09:42Z</time></trkpt><trkpt lat="33.91311635715234" lon="8.121599957051941"><ele>54.166666666666664</ele><time>2026-04-07T12:09:43Z</time></trkpt><trkpt lat="33.91308150611179" lon="8.121499134758007"><ele>54.0</ele><time>2026-04-07T12:09:44Z</time></trkpt><trkpt lat="33.913044791189115" lon="8.121395264767292"><ele>54.5</ele><time>2026-04-07T12:09:45Z</time></trkpt><trkpt lat="33.913016558173865" lon="8.121295199564964"><ele>55.0</ele><time>2026-04-07T12:09:46Z</time></trkpt><trkpt lat="33.91300872228307" lon="8.12120418208038"><ele>55.5</ele><time>2026-04-07T12:09:47Z</time></trkpt><trkpt lat="33.913012523796716" lon="8.121113088495964"><ele>56.0</ele><time>2026-04-07T12:09:48Z</time></trkpt><trkpt lat="33.91303908592159" lon="8.12102574551457"><ele>56.5</ele><time>2026-04-07T12:09:49Z</time></trkpt><trkpt lat="33.91308460933219" lon="8.120953401330352"><ele>57.0</ele><time>2026-04-07T12:09:50Z</time></trkpt><trkpt lat="33.91315108743298" lon="8.120899965933674"><ele>57.0</ele><time>2026-04-07T12:09:51Z</time></trkpt><trkpt lat="33.913220179281744" lon="8.120851848801886"><ele>57.0</ele><time>2026-04-07T12:09:52Z</time></trkpt><trkpt lat="33.91328872517222" lon="8.120803879972074"><ele>57.0</ele><time>2026-04-07T12:09:53Z</time></trkpt><trkpt lat="33.91335862792254" lon="8.120754291243507"><ele>57.0</ele><time>2026-04-07T12:09:54Z</time></trkpt><trkpt lat="33.91342335539115" lon="8.120711987744027"><ele>57.0</ele><time>2026-04-07T12:09:55Z</time></trkpt><trkpt lat="33.913533462338684" lon="8.120647052077064"><ele>57.0</ele><time>2026-04-07T12:09:57Z</time></trkpt><trkpt lat="33.913625534162044" lon="8.120599796720212"><ele>57.0</ele><time>2026-04-07T12:09:59Z</time></trkpt><trkpt lat="33.913714250402705" lon="8.120549607339672"><ele>57.0</ele><time>2026-04-07T12:10:01Z</time></trkpt><trkpt lat="33.913749058642836" lon="8.120473993711098"><ele>57.0</ele><time>2026-04-07T12:10:03Z</time></trkpt><trkpt lat="33.91377735434689" lon="8.120392634119408"><ele>57.0</ele><time>2026-04-07T12:10:07Z</time></trkpt><trkpt lat="33.913790204997085" lon="8.12029491208157"><ele>57.0</ele><time>2026-04-07T12:10:12Z</time></trkpt><trkpt lat="33.913725268150614" lon="8.120242150909785"><ele>57.0</ele><time>2026-04-07T12:10:19Z</time></trkpt><trkpt lat="33.913754845995676" lon="8.12031770679408"><ele>57.0</ele><time>2026-04-07T12:13:32.999Z</time></trkpt><trkpt lat="33.913785974155374" lon="8.12038607415155"><ele>56.99999999999999</ele><time>2026-04-07T12:13:38Z</time></trkpt><trkpt lat="33.91382270232013" lon="8.120457921625679"><ele>57.0</ele><time>2026-04-07T12:13:45Z</time></trkpt><trkpt lat="33.91384278605647" lon="8.120550921878504"><ele>57.0</ele><time>2026-04-07T12:13:53Z</time></trkpt><trkpt lat="33.913895126413934" lon="8.120598739407864"><ele>56.99999999999999</ele><time>2026-04-07T12:14:05Z</time></trkpt><trkpt lat="33.913932416980515" lon="8.12066235422931"><ele>57.0</ele><time>2026-04-07T12:14:11Z</time></trkpt><trkpt lat="33.913951717601144" lon="8.120742138538908"><ele>57.0</ele><time>2026-04-07T12:14:18Z</time></trkpt><trkpt lat="33.91394385968625" lon="8.120875969172651"><ele>60.0</ele><time>2026-04-07T12:14:40.073Z</time></trkpt><trkpt lat="33.91384927200577" lon="8.120590089207552"><ele>57.0</ele><time>2026-04-07T12:14:55.232Z</time></trkpt><trkpt lat="33.91379333174168" lon="8.120691314901503"><ele>57.0</ele><time>2026-04-07T12:21:44.013Z</time></trkpt></trkseg><trkseg><trkpt lat="33.913976165656806" lon="8.117663458823925"><ele>62.00000000000001</ele><time>2026-04-07T15:11:18.997Z</time></trkpt><trkpt lat="33.9140506660495" lon="8.1176357604703"><ele>62.0</ele><time>2026-04-07T15:11:22.998Z</time></trkpt><trkpt lat="33.91412420453286" lon="8.117629435265844"><ele>62.0</ele><time>2026-04-07T15:11:24.998Z</time></trkpt><trkpt lat="33.91422190134564" lon="8.11762385031843"><ele>62.0</ele><time>2026-04-07T15:11:26.998Z</time></trkpt><trkpt lat="33.9143008590749" lon="8.117626828276947"><ele>62.00000000000001</ele><time>2026-04-07T15:11:28.998Z</time></trkpt><trkpt lat="33.91438541348336" lon="8.117614532793606"><ele>62.0</ele><time>2026-04-07T15:11:30.999Z</time></trkpt><trkpt lat="33.91448445015315" lon="8.117602474449258"><ele>63.0</ele><time>2026-04-07T15:11:32.999Z</time></trkpt><trkpt lat="33.91459884001218" lon="8.11758972854479"><ele>64.0</ele><time>2026-04-07T15:11:34.999Z</time></trkpt><trkpt lat="33.91471854142071" lon="8.117579465021691"><ele>65.0</ele><time>2026-04-07T15:11:36.999Z</time></trkpt><trkpt lat="33.9148132733561" lon="8.117567922176187"><ele>66.0</ele><time>2026-04-07T15:11:38.999Z</time></trkpt><trkpt lat="33.91487132438686" lon="8.117535826165579"><ele>67.0</ele><time>2026-04-07T15:11:42.999Z</time></trkpt><trkpt lat="33.91490652110245" lon="8.117425474385655"><ele>67.66666666666666</ele><time>2026-04-07T15:11:45.999Z</time></trkpt><trkpt lat="33.91489137097894" lon="8.11728874097075"><ele>68.33333333333333</ele><time>2026-04-07T15:11:47.999Z</time></trkpt><trkpt lat="33.91487949047953" lon="8.11721280707879"><ele>69.0</ele><time>2026-04-07T15:11:48.999Z</time></trkpt><trkpt lat="33.9148652451691" lon="8.11712839836192"><ele>69.66666666666667</ele><time>2026-04-07T15:11:49.999Z</time></trkpt><trkpt lat="33.91484994464584" lon="8.11705019234667"><ele>70.33333333333334</ele><time>2026-04-07T15:11:50.999Z</time></trkpt><trkpt lat="33.91484561370643" lon="8.116959431901389"><ele>71.0</ele><time>2026-04-07T15:11:51.999Z</time></trkpt><trkpt lat="33.9148433125505" lon="8.11686060683445"><ele>71.0</ele><time>2026-04-07T15:11:52.999Z</time></trkpt><trkpt lat="33.914818852457316" lon="8.116764424013859"><ele>71.0</ele><time>2026-04-07T15:11:53.999Z</time></trkpt><trkpt lat="33.91481086731455" lon="8.116662262819544"><ele>71.0</ele><time>2026-04-07T15:11:54.999Z</time></trkpt><trkpt lat="33.91480387212894" lon="8.116560248917345"><ele>71.0</ele><time>2026-04-07T15:11:55.999Z</time></trkpt><trkpt lat="33.91480319853075" lon="8.116458994358663"><ele>71.0</ele><time>2026-04-07T15:11:56.999Z</time></trkpt><trkpt lat="33.91480645329672" lon="8.11635575139312"><ele>71.0</ele><time>2026-04-07T15:11:57.999Z</time></trkpt><trkpt lat="33.91480556116692" lon="8.11624939824825"><ele>71.5</ele><time>2026-04-07T15:11:58.999Z</time></trkpt><trkpt lat="33.91479841582347" lon="8.11614571989256"><ele>72.0</ele><time>2026-04-07T15:11:59.999Z</time></trkpt><trkpt lat="33.9147827937533" lon="8.11604906453511"><ele>72.5</ele><time>2026-04-07T15:12:00.999Z</time></trkpt><trkpt lat="33.914769353638235" lon="8.115959565197292"><ele>73.0</ele><time>2026-04-07T15:12:01.999Z</time></trkpt><trkpt lat="33.91475916516323" lon="8.115868867680849"><ele>73.5</ele><time>2026-04-07T15:12:02.999Z</time></trkpt><trkpt lat="33.91475440776686" lon="8.11576629614986"><ele>74.0</ele><time>2026-04-07T15:12:03.999Z</time></trkpt><trkpt lat="33.91474879653422" lon="8.11566607280268"><ele>75.0</ele><time>2026-04-07T15:12:04.999Z</time></trkpt><trkpt lat="33.91473620262078" lon="8.115567856656094"><ele>76.0</ele><time>2026-04-07T15:12:05.999Z</time></trkpt><trkpt lat="33.91471330988779" lon="8.115459964945687"><ele>77.0</ele><time>2026-04-07T15:12:06.999Z</time></trkpt><trkpt lat="33.91468978256929" lon="8.115349471768827"><ele>78.0</ele><time>2026-04-07T15:12:07.999Z</time></trkpt><trkpt lat="33.91465713204487" lon="8.115242339576227"><ele>79.0</ele><time>2026-04-07T15:12:08.999Z</time></trkpt><trkpt lat="33.914598487240035" lon="8.11513298783029"><ele>79.0</ele><time>2026-04-07T15:12:09.999Z</time></trkpt><trkpt lat="33.914534455358265" lon="8.115030426658308"><ele>79.0</ele><time>2026-04-07T15:12:10.999Z</time></trkpt><trkpt lat="33.914441217544784" lon="8.11495142417078"><ele>79.0</ele><time>2026-04-07T15:12:11.999Z</time></trkpt><trkpt lat="33.91436421481804" lon="8.114878084333482"><ele>79.0</ele><time>2026-04-07T15:12:13Z</time></trkpt><trkpt lat="33.914276463502944" lon="8.1148192896081"><ele>79.0</ele><time>2026-04-07T15:12:14Z</time></trkpt><trkpt lat="33.91417512355276" lon="8.114755688592025"><ele>79.25</ele><time>2026-04-07T15:12:15Z</time></trkpt><trkpt lat="33.91404543922642" lon="8.114697452784156"><ele>79.5</ele><time>2026-04-07T15:12:16Z</time></trkpt><trkpt lat="33.91393051413662" lon="8.114634232190722"><ele>79.75</ele><time>2026-04-07T15:12:17Z</time></trkpt><trkpt lat="33.91382663277493" lon="8.114570260061123"><ele>80.0</ele><time>2026-04-07T15:12:18Z</time></trkpt><trkpt lat="33.91371851116488" lon="8.114503205868145"><ele>80.0</ele><time>2026-04-07T15:12:19Z</time></trkpt><trkpt lat="33.91360889556581" lon="8.114440897550807"><ele>80.0</ele><time>2026-04-07T15:12:20Z</time></trkpt><trkpt lat="33.91350088769774" lon="8.114378904459405"><ele>80.0</ele><time>2026-04-07T15:12:21Z</time></trkpt><trkpt lat="33.913385445198834" lon="8.11431644697398"><ele>80.0</ele><time>2026-04-07T15:12:22Z</time></trkpt><trkpt lat="33.91326867988696" lon="8.114254347482944"><ele>80.0</ele><time>2026-04-07T15:12:23Z</time></trkpt><trkpt lat="33.91317748585659" lon="8.114185244209732"><ele>80.0</ele><time>2026-04-07T15:12:24Z</time></trkpt><trkpt lat="33.91308201049179" lon="8.114095576872321"><ele>80.0</ele><time>2026-04-07T15:12:25Z</time></trkpt><trkpt lat="33.91300565977732" lon="8.114006841395828"><ele>80.0</ele><time>2026-04-07T15:12:26Z</time></trkpt><trkpt lat="33.91293871598077" lon="8.113885813654056"><ele>80.0</ele><time>2026-04-07T15:12:27Z</time></trkpt><trkpt lat="33.91288384925037" lon="8.113759666098565"><ele>80.0</ele><time>2026-04-07T15:12:27.999Z</time></trkpt><trkpt lat="33.91284154974665" lon="8.113654757277155"><ele>80.0</ele><time>2026-04-07T15:12:28.999Z</time></trkpt><trkpt lat="33.91280658340965" lon="8.113539853567865"><ele>80.0</ele><time>2026-04-07T15:12:29.999Z</time></trkpt><trkpt lat="33.91279281523663" lon="8.113409626127302"><ele>80.0</ele><time>2026-04-07T15:12:30.999Z</time></trkpt><trkpt lat="33.91278620550809" lon="8.11330179465823"><ele>79.2</ele><time>2026-04-07T15:12:31.999Z</time></trkpt><trkpt lat="33.912821388807124" lon="8.113205931222195"><ele>78.4</ele><time>2026-04-07T15:12:32.999Z</time></trkpt><trkpt lat="33.912861411427826" lon="8.113102699903603"><ele>77.6</ele><time>2026-04-07T15:12:33.999Z</time></trkpt><trkpt lat="33.912941498076755" lon="8.113022761168645"><ele>76.8</ele><time>2026-04-07T15:12:34.999Z</time></trkpt><trkpt lat="33.913028669111895" lon="8.112959333048279"><ele>76.0</ele><time>2026-04-07T15:12:35.999Z</time></trkpt><trkpt lat="33.91314206277789" lon="8.11286643658875"><ele>76.0</ele><time>2026-04-07T15:12:36.999Z</time></trkpt><trkpt lat="33.91329439929438" lon="8.11277621148711"><ele>76.0</ele><time>2026-04-07T15:12:37.999Z</time></trkpt><trkpt lat="33.91342111643998" lon="8.112700090542663"><ele>76.0</ele><time>2026-04-07T15:12:38.999Z</time></trkpt><trkpt lat="33.91353401915087" lon="8.112631366244608"><ele>76.0</ele><time>2026-04-07T15:12:39.999Z</time></trkpt><trkpt lat="33.913659106732375" lon="8.11258551582283"><ele>76.0</ele><time>2026-04-07T15:12:40.999Z</time></trkpt><trkpt lat="33.91378551661171" lon="8.112542506082765"><ele>76.0</ele><time>2026-04-07T15:12:41.999Z</time></trkpt><trkpt lat="33.913905247825426" lon="8.112478880906943"><ele>76.0</ele><time>2026-04-07T15:12:42.999Z</time></trkpt><trkpt lat="33.91401918023076" lon="8.112424625617876"><ele>76.0</ele><time>2026-04-07T15:12:43.999Z</time></trkpt><trkpt lat="33.914131456543124" lon="8.11236980681049"><ele>76.0</ele><time>2026-04-07T15:12:44.999Z</time></trkpt><trkpt lat="33.91423793951834" lon="8.112290673900874"><ele>76.0</ele><time>2026-04-07T15:12:45.999Z</time></trkpt><trkpt lat="33.914345367747586" lon="8.11220238775421"><ele>76.0</ele><time>2026-04-07T15:12:46.999Z</time></trkpt><trkpt lat="33.91446119915279" lon="8.112116328403143"><ele>76.0</ele><time>2026-04-07T15:12:47.999Z</time></trkpt><trkpt lat="33.91457627387616" lon="8.112044556653156"><ele>76.5</ele><time>2026-04-07T15:12:48.999Z</time></trkpt><trkpt lat="33.914696852296245" lon="8.111957179842786"><ele>77.0</ele><time>2026-04-07T15:12:49.999Z</time></trkpt><trkpt lat="33.91483455862372" lon="8.111885034088635"><ele>77.5</ele><time>2026-04-07T15:12:50.999Z</time></trkpt><trkpt lat="33.9149900191503" lon="8.11187526200841"><ele>78.0</ele><time>2026-04-07T15:12:51.999Z</time></trkpt><trkpt lat="33.915112438070594" lon="8.111836274665002"><ele>78.5</ele><time>2026-04-07T15:12:52.999Z</time></trkpt><trkpt lat="33.915239844442674" lon="8.111802301764298"><ele>79.0</ele><time>2026-04-07T15:12:53.999Z</time></trkpt><trkpt lat="33.915364344834124" lon="8.111765231836992"><ele>79.5</ele><time>2026-04-07T15:12:54.999Z</time></trkpt><trkpt lat="33.91549320626772" lon="8.11173766336293"><ele>80.0</ele><time>2026-04-07T15:12:55.999Z</time></trkpt><trkpt lat="33.91562176530748" lon="8.111755677278083"><ele>80.0</ele><time>2026-04-07T15:12:56.999Z</time></trkpt><trkpt lat="33.915736170600916" lon="8.1117488389177"><ele>80.0</ele><time>2026-04-07T15:12:57.999Z</time></trkpt><trkpt lat="33.91585391893574" lon="8.11174610465556"><ele>80.0</ele><time>2026-04-07T15:12:58.999Z</time></trkpt><trkpt lat="33.91597624743601" lon="8.111730120509012"><ele>80.0</ele><time>2026-04-07T15:12:59.999Z</time></trkpt><trkpt lat="33.91610129246781" lon="8.111718745216143"><ele>81.25</ele><time>2026-04-07T15:13:00.999Z</time></trkpt><trkpt lat="33.916222846960984" lon="8.111715914931693"><ele>82.5</ele><time>2026-04-07T15:13:01.999Z</time></trkpt><trkpt lat="33.916337224812985" lon="8.111714917671373"><ele>83.75</ele><time>2026-04-07T15:13:02.999Z</time></trkpt><trkpt lat="33.91645180763811" lon="8.111711986575099"><ele>85.0</ele><time>2026-04-07T15:13:03.999Z</time></trkpt><trkpt lat="33.9165629249304" lon="8.111711890931186"><ele>85.0</ele><time>2026-04-07T15:13:04.999Z</time></trkpt><trkpt lat="33.91668155473278" lon="8.111720613337742"><ele>85.0</ele><time>2026-04-07T15:13:05.999Z</time></trkpt><trkpt lat="33.916808208688074" lon="8.111721745669476"><ele>85.0</ele><time>2026-04-07T15:13:06.999Z</time></trkpt><trkpt lat="33.91692631655201" lon="8.111708455689325"><ele>85.0</ele><time>2026-04-07T15:13:07.999Z</time></trkpt><trkpt lat="33.917050688862815" lon="8.111701696863989"><ele>85.25</ele><time>2026-04-07T15:13:08.999Z</time></trkpt><trkpt lat="33.917170291362126" lon="8.1116914432293"><ele>85.5</ele><time>2026-04-07T15:13:09.999Z</time></trkpt><trkpt lat="33.9172891747282" lon="8.11168600590706"><ele>85.75</ele><time>2026-04-07T15:13:10.999Z</time></trkpt><trkpt lat="33.917407953365014" lon="8.111679009003213"><ele>86.0</ele><time>2026-04-07T15:13:11.999Z</time></trkpt><trkpt lat="33.91752420305069" lon="8.111672502679456"><ele>86.0</ele><time>2026-04-07T15:13:12.999Z</time></trkpt><trkpt lat="33.91763983029002" lon="8.111667279259246"><ele>86.0</ele><time>2026-04-07T15:13:13.999Z</time></trkpt><trkpt lat="33.91775853859457" lon="8.111657690412668"><ele>86.0</ele><time>2026-04-07T15:13:14.999Z</time></trkpt><trkpt lat="33.9178794301781" lon="8.111647213839538"><ele>86.0</ele><time>2026-04-07T15:13:15.999Z</time></trkpt><trkpt lat="33.91799970404468" lon="8.111643164459133"><ele>86.0</ele><time>2026-04-07T15:13:16.999Z</time></trkpt><trkpt lat="33.91812044397042" lon="8.111632181382905"><ele>86.0</ele><time>2026-04-07T15:13:17.999Z</time></trkpt><trkpt lat="33.91824195084273" lon="8.111614764986262"><ele>86.0</ele><time>2026-04-07T15:13:18.999Z</time></trkpt><trkpt lat="33.91836414683946" lon="8.111594918813822"><ele>86.0</ele><time>2026-04-07T15:13:19.999Z</time></trkpt><trkpt lat="33.91848614903587" lon="8.111566776112486"><ele>86.4</ele><time>2026-04-07T15:13:20.999Z</time></trkpt><trkpt lat="33.91860292644426" lon="8.111535804583657"><ele>86.8</ele><time>2026-04-07T15:13:21.999Z</time></trkpt><trkpt lat="33.91871308372538" lon="8.111504194760224"><ele>87.2</ele><time>2026-04-07T15:13:22.999Z</time></trkpt><trkpt lat="33.91881905888272" lon="8.111472618226914"><ele>87.60000000000001</ele><time>2026-04-07T15:13:23.999Z</time></trkpt><trkpt lat="33.918915400537266" lon="8.111441369566686"><ele>88.0</ele><time>2026-04-07T15:13:24.999Z</time></trkpt><trkpt lat="33.919006304049795" lon="8.111414667823604"><ele>88.0</ele><time>2026-04-07T15:13:25.999Z</time></trkpt><trkpt lat="33.919093731545345" lon="8.111385159869883"><ele>88.0</ele><time>2026-04-07T15:13:26.999Z</time></trkpt><trkpt lat="33.919174441662896" lon="8.111362528336537"><ele>88.0</ele><time>2026-04-07T15:13:27.999Z</time></trkpt><trkpt lat="33.919245531505325" lon="8.111336031795751"><ele>88.0</ele><time>2026-04-07T15:13:28.999Z</time></trkpt><trkpt lat="33.919309916524156" lon="8.111313290775724"><ele>88.0</ele><time>2026-04-07T15:13:29.999Z</time></trkpt><trkpt lat="33.919419767284104" lon="8.111288356030395"><ele>88.0</ele><time>2026-04-07T15:13:31.999Z</time></trkpt><trkpt lat="33.919499481447254" lon="8.111277863202597"><ele>87.85714285714286</ele><time>2026-04-07T15:13:33.999Z</time></trkpt><trkpt lat="33.91956209217259" lon="8.111267351297638"><ele>87.71428571428571</ele><time>2026-04-07T15:13:36.999Z</time></trkpt><trkpt lat="33.919635282341865" lon="8.111258088490125"><ele>87.57142857142857</ele><time>2026-04-07T15:13:42.999Z</time></trkpt><trkpt lat="33.919701438397084" lon="8.111253331845004"><ele>87.42857142857143</ele><time>2026-04-07T15:13:45.999Z</time></trkpt><trkpt lat="33.919760942695454" lon="8.111224584336487"><ele>87.28571428571429</ele><time>2026-04-07T15:13:48.999Z</time></trkpt><trkpt lat="33.91979163641104" lon="8.111154290218504"><ele>87.14285714285714</ele><time>2026-04-07T15:13:50.999Z</time></trkpt><trkpt lat="33.91979577481474" lon="8.111074342619334"><ele>87.0</ele><time>2026-04-07T15:13:51.999Z</time></trkpt><trkpt lat="33.919771599571156" lon="8.110916628661045"><ele>87.0</ele><time>2026-04-07T15:13:53.999Z</time></trkpt><trkpt lat="33.91976939740778" lon="8.110827689396139"><ele>87.0</ele><time>2026-04-07T15:13:54.999Z</time></trkpt><trkpt lat="33.91975644880543" lon="8.110721454968424"><ele>87.0</ele><time>2026-04-07T15:13:55.999Z</time></trkpt><trkpt lat="33.91972711721805" lon="8.110625926692505"><ele>87.0</ele><time>2026-04-07T15:13:56.999Z</time></trkpt><trkpt lat="33.91970500425151" lon="8.110531422482008"><ele>87.0</ele><time>2026-04-07T15:13:57.999Z</time></trkpt><trkpt lat="33.91967785071323" lon="8.110427067712973"><ele>87.0</ele><time>2026-04-07T15:13:58.999Z</time></trkpt><trkpt lat="33.91964984568304" lon="8.110317881317886"><ele>87.25</ele><time>2026-04-07T15:13:59.999Z</time></trkpt><trkpt lat="33.91962410689044" lon="8.110196393918285"><ele>87.5</ele><time>2026-04-07T15:14:00.999Z</time></trkpt><trkpt lat="33.91959116917026" lon="8.110067305615514"><ele>87.75</ele><time>2026-04-07T15:14:01.999Z</time></trkpt><trkpt lat="33.9195606536035" lon="8.109930372637649"><ele>88.0</ele><time>2026-04-07T15:14:02.999Z</time></trkpt><trkpt lat="33.919535072688305" lon="8.109785707710516"><ele>88.0</ele><time>2026-04-07T15:14:03.999Z</time></trkpt><trkpt lat="33.919502301946586" lon="8.109632206561285"><ele>88.0</ele><time>2026-04-07T15:14:04.999Z</time></trkpt><trkpt lat="33.919473201768525" lon="8.109489262859817"><ele>88.0</ele><time>2026-04-07T15:14:05.999Z</time></trkpt><trkpt lat="33.919446621620764" lon="8.109349679550249"><ele>88.0</ele><time>2026-04-07T15:14:06.999Z</time></trkpt><trkpt lat="33.91942169741679" lon="8.10921733162992"><ele>88.0</ele><time>2026-04-07T15:14:07.999Z</time></trkpt><trkpt lat="33.91939437424382" lon="8.109090200675302"><ele>88.0</ele><time>2026-04-07T15:14:08.999Z</time></trkpt><trkpt lat="33.919368076855335" lon="8.108987677706333"><ele>88.0</ele><time>2026-04-07T15:14:09.999Z</time></trkpt><trkpt lat="33.91933994904148" lon="8.108883847141405"><ele>88.0</ele><time>2026-04-07T15:14:10.999Z</time></trkpt><trkpt lat="33.91932013381337" lon="8.108790526469352"><ele>88.0</ele><time>2026-04-07T15:14:11.999Z</time></trkpt><trkpt lat="33.919294654335204" lon="8.108695562156916"><ele>88.2</ele><time>2026-04-07T15:14:12.999Z</time></trkpt><trkpt lat="33.919280305724016" lon="8.108593323845191"><ele>88.4</ele><time>2026-04-07T15:14:13.999Z</time></trkpt><trkpt lat="33.919259585784474" lon="8.108486181031482"><ele>88.60000000000001</ele><time>2026-04-07T15:14:14.999Z</time></trkpt><trkpt lat="33.919239115038685" lon="8.108373012430068"><ele>88.80000000000001</ele><time>2026-04-07T15:14:15.999Z</time></trkpt><trkpt lat="33.919214436663545" lon="8.108253677968404"><ele>89.0</ele><time>2026-04-07T15:14:16.999Z</time></trkpt><trkpt lat="33.919185963708394" lon="8.108130046975882"><ele>89.25</ele><time>2026-04-07T15:14:17.999Z</time></trkpt><trkpt lat="33.91915454539668" lon="8.10800630347781"><ele>89.5</ele><time>2026-04-07T15:14:18.999Z</time></trkpt><trkpt lat="33.91911537059636" lon="8.107871697858572"><ele>89.75</ele><time>2026-04-07T15:14:19.999Z</time></trkpt><trkpt lat="33.9190852779369" lon="8.107738763929783"><ele>90.0</ele><time>2026-04-07T15:14:20.999Z</time></trkpt><trkpt lat="33.919060494298854" lon="8.107602142024643"><ele>90.0</ele><time>2026-04-07T15:14:21.999Z</time></trkpt><trkpt lat="33.91904665621203" lon="8.107466749457721"><ele>90.0</ele><time>2026-04-07T15:14:22.999Z</time></trkpt><trkpt lat="33.91901235430661" lon="8.10733173082304"><ele>90.0</ele><time>2026-04-07T15:14:23.999Z</time></trkpt><trkpt lat="33.91898928394643" lon="8.107193280677379"><ele>90.0</ele><time>2026-04-07T15:14:24.999Z</time></trkpt><trkpt lat="33.91897447906027" lon="8.10706540782678"><ele>90.5</ele><time>2026-04-07T15:14:25.999Z</time></trkpt><trkpt lat="33.918951988735394" lon="8.106926382310908"><ele>91.0</ele><time>2026-04-07T15:14:26.999Z</time></trkpt><trkpt lat="33.918925145826655" lon="8.106776927914071"><ele>91.5</ele><time>2026-04-07T15:14:27.999Z</time></trkpt><trkpt lat="33.918913137905896" lon="8.106630816267533"><ele>92.0</ele><time>2026-04-07T15:14:28.999Z</time></trkpt><trkpt lat="33.918886513181" lon="8.10648773573823"><ele>92.25</ele><time>2026-04-07T15:14:29.999Z</time></trkpt><trkpt lat="33.91885937432929" lon="8.106336149147026"><ele>92.5</ele><time>2026-04-07T15:14:30.999Z</time></trkpt><trkpt lat="33.91883014041393" lon="8.106174826742565"><ele>92.75</ele><time>2026-04-07T15:14:31.999Z</time></trkpt><trkpt lat="33.91878572583694" lon="8.106015859853589"><ele>93.0</ele><time>2026-04-07T15:14:32.999Z</time></trkpt><trkpt lat="33.918753405980766" lon="8.105852459455528"><ele>93.0</ele><time>2026-04-07T15:14:33.999Z</time></trkpt><trkpt lat="33.918724242608924" lon="8.105697311746184"><ele>93.0</ele><time>2026-04-07T15:14:34.999Z</time></trkpt><trkpt lat="33.91869895722098" lon="8.105549123888775"><ele>93.0</ele><time>2026-04-07T15:14:35.999Z</time></trkpt><trkpt lat="33.91867122640054" lon="8.105401053102007"><ele>93.0</ele><time>2026-04-07T15:14:36.999Z</time></trkpt><trkpt lat="33.9186442090828" lon="8.105260018114148"><ele>93.0</ele><time>2026-04-07T15:14:37.999Z</time></trkpt><trkpt lat="33.918609489918495" lon="8.10511322093011"><ele>93.0</ele><time>2026-04-07T15:14:38.999Z</time></trkpt><trkpt lat="33.9185864389" lon="8.104973155328434"><ele>93.0</ele><time>2026-04-07T15:14:39.999Z</time></trkpt><trkpt lat="33.918547233229155" lon="8.10483385964195"><ele>93.0</ele><time>2026-04-07T15:14:40.999Z</time></trkpt><trkpt lat="33.91851567035168" lon="8.104695116898473"><ele>93.0</ele><time>2026-04-07T15:14:41.999Z</time></trkpt><trkpt lat="33.91848699637685" lon="8.104560036409255"><ele>93.0</ele><time>2026-04-07T15:14:42.999Z</time></trkpt><trkpt lat="33.91845706645744" lon="8.104436773280034"><ele>93.0</ele><time>2026-04-07T15:14:43.999Z</time></trkpt><trkpt lat="33.91843074502731" lon="8.10433233557656"><ele>93.0</ele><time>2026-04-07T15:14:44.999Z</time></trkpt><trkpt lat="33.918411041541255" lon="8.104253531652187"><ele>93.0</ele><time>2026-04-07T15:14:45.999Z</time></trkpt><trkpt lat="33.91838519468473" lon="8.104180126299914"><ele>93.0</ele><time>2026-04-07T15:14:46.999Z</time></trkpt><trkpt lat="33.918348694478865" lon="8.10403450746732"><ele>93.0</ele><time>2026-04-07T15:14:48.999Z</time></trkpt><trkpt lat="33.918327089090134" lon="8.103948602842424"><ele>93.0</ele><time>2026-04-07T15:14:49.999Z</time></trkpt><trkpt lat="33.91830133414272" lon="8.103857486346376"><ele>93.0</ele><time>2026-04-07T15:14:50.999Z</time></trkpt><trkpt lat="33.91827772080405" lon="8.103762978780834"><ele>93.0</ele><time>2026-04-07T15:14:51.999Z</time></trkpt><trkpt lat="33.91825415933836" lon="8.103664353522634"><ele>93.0</ele><time>2026-04-07T15:14:52.999Z</time></trkpt><trkpt lat="33.91823276331113" lon="8.10355711486069"><ele>93.0</ele><time>2026-04-07T15:14:53.999Z</time></trkpt><trkpt lat="33.91821166794649" lon="8.103442489871595"><ele>93.0</ele><time>2026-04-07T15:14:54.999Z</time></trkpt><trkpt lat="33.91818718025745" lon="8.103316299335072"><ele>93.0</ele><time>2026-04-07T15:14:55.999Z</time></trkpt><trkpt lat="33.918159156835245" lon="8.103190068802672"><ele>93.0</ele><time>2026-04-07T15:14:56.999Z</time></trkpt><trkpt lat="33.91813243052442" lon="8.103059824143694"><ele>93.0</ele><time>2026-04-07T15:14:57.999Z</time></trkpt><trkpt lat="33.91810983945308" lon="8.102925077589992"><ele>93.0</ele><time>2026-04-07T15:14:58.999Z</time></trkpt><trkpt lat="33.91808272696716" lon="8.102773810690165"><ele>93.75</ele><time>2026-04-07T15:14:59.999Z</time></trkpt><trkpt lat="33.91805287112628" lon="8.10263035414032"><ele>94.5</ele><time>2026-04-07T15:15:00.999Z</time></trkpt><trkpt lat="33.91802329195261" lon="8.102491728633828"><ele>95.25</ele><time>2026-04-07T15:15:01.999Z</time></trkpt><trkpt lat="33.91798819346607" lon="8.10234546653196"><ele>96.0</ele><time>2026-04-07T15:15:02.999Z</time></trkpt><trkpt lat="33.91795727052679" lon="8.10220615362904"><ele>96.0</ele><time>2026-04-07T15:15:03.999Z</time></trkpt><trkpt lat="33.91793112001866" lon="8.102065267909815"><ele>96.0</ele><time>2026-04-07T15:15:04.999Z</time></trkpt><trkpt lat="33.91789883224685" lon="8.101921686982948"><ele>96.0</ele><time>2026-04-07T15:15:05.999Z</time></trkpt><trkpt lat="33.917866188389056" lon="8.101772540111199"><ele>96.0</ele><time>2026-04-07T15:15:06.999Z</time></trkpt><trkpt lat="33.91783342445436" lon="8.101627525369373"><ele>96.5</ele><time>2026-04-07T15:15:07.999Z</time></trkpt><trkpt lat="33.91779382623834" lon="8.101472718067349"><ele>97.0</ele><time>2026-04-07T15:15:08.999Z</time></trkpt><trkpt lat="33.91776538105055" lon="8.101308230351632"><ele>97.5</ele><time>2026-04-07T15:15:09.999Z</time></trkpt><trkpt lat="33.91773256942641" lon="8.101144570857814"><ele>98.0</ele><time>2026-04-07T15:15:10.999Z</time></trkpt><trkpt lat="33.917691797189654" lon="8.100968793847604"><ele>98.0</ele><time>2026-04-07T15:15:11.999Z</time></trkpt><trkpt lat="33.91765581816404" lon="8.100799598596565"><ele>98.0</ele><time>2026-04-07T15:15:12.999Z</time></trkpt><trkpt lat="33.91762005883951" lon="8.100633602172657"><ele>98.0</ele><time>2026-04-07T15:15:13.999Z</time></trkpt><trkpt lat="33.917586306108355" lon="8.100468981703798"><ele>98.0</ele><time>2026-04-07T15:15:14.999Z</time></trkpt><trkpt lat="33.91755425583255" lon="8.10030683499051"><ele>98.0</ele><time>2026-04-07T15:15:15.999Z</time></trkpt><trkpt lat="33.917528562357596" lon="8.10014349147416"><ele>98.0</ele><time>2026-04-07T15:15:16.999Z</time></trkpt><trkpt lat="33.91749928959347" lon="8.099973383941112"><ele>98.0</ele><time>2026-04-07T15:15:17.999Z</time></trkpt><trkpt lat="33.91745900840308" lon="8.099788557973362"><ele>98.0</ele><time>2026-04-07T15:15:18.999Z</time></trkpt><trkpt lat="33.91742253935649" lon="8.099604594945767"><ele>99.0</ele><time>2026-04-07T15:15:19.999Z</time></trkpt><trkpt lat="33.917387791281236" lon="8.099411606385694"><ele>100.0</ele><time>2026-04-07T15:15:20.999Z</time></trkpt><trkpt lat="33.91736669796892" lon="8.099233699991768"><ele>101.0</ele><time>2026-04-07T15:15:21.999Z</time></trkpt><trkpt lat="33.91734347974919" lon="8.099056403790843"><ele>101.33333333333333</ele><time>2026-04-07T15:15:22.999Z</time></trkpt><trkpt lat="33.917299458255734" lon="8.098867939634621"><ele>101.66666666666666</ele><time>2026-04-07T15:15:23.999Z</time></trkpt><trkpt lat="33.917230098129075" lon="8.098642392805612"><ele>102.0</ele><time>2026-04-07T15:15:24.999Z</time></trkpt><trkpt lat="33.91717449786403" lon="8.098430254663949"><ele>103.0</ele><time>2026-04-07T15:15:25.999Z</time></trkpt><trkpt lat="33.91713019442521" lon="8.098234132492939"><ele>104.0</ele><time>2026-04-07T15:15:26.999Z</time></trkpt><trkpt lat="33.91708759224025" lon="8.098040492395553"><ele>105.0</ele><time>2026-04-07T15:15:27.999Z</time></trkpt><trkpt lat="33.91704426516285" lon="8.097845315159828"><ele>105.0</ele><time>2026-04-07T15:15:28.999Z</time></trkpt><trkpt lat="33.916998090432116" lon="8.097648884406569"><ele>105.0</ele><time>2026-04-07T15:15:29.999Z</time></trkpt><trkpt lat="33.91695254446701" lon="8.097455160733185"><ele>105.0</ele><time>2026-04-07T15:15:30.999Z</time></trkpt><trkpt lat="33.91690885588818" lon="8.097261646639517"><ele>105.33333333333334</ele><time>2026-04-07T15:15:31.999Z</time></trkpt><trkpt lat="33.91686525840693" lon="8.097069038337048"><ele>105.66666666666667</ele><time>2026-04-07T15:15:32.999Z</time></trkpt><trkpt lat="33.91682058594336" lon="8.096876349257883"><ele>106.0</ele><time>2026-04-07T15:15:33.999Z</time></trkpt><trkpt lat="33.91677945499184" lon="8.09668634361408"><ele>106.33333333333334</ele><time>2026-04-07T15:15:34.999Z</time></trkpt><trkpt lat="33.91673460570686" lon="8.096490552150893"><ele>106.66666666666666</ele><time>2026-04-07T15:15:35.999Z</time></trkpt><trkpt lat="33.91669271884644" lon="8.096299332639317"><ele>107.0</ele><time>2026-04-07T15:15:36.999Z</time></trkpt><trkpt lat="33.916653045797375" lon="8.096118449607394"><ele>107.0</ele><time>2026-04-07T15:15:37.999Z</time></trkpt><trkpt lat="33.916618543618476" lon="8.095949274340422"><ele>107.0</ele><time>2026-04-07T15:15:38.999Z</time></trkpt><trkpt lat="33.91657981671393" lon="8.095766445376665"><ele>107.0</ele><time>2026-04-07T15:15:39.999Z</time></trkpt><trkpt lat="33.91653985780696" lon="8.095584796208101"><ele>107.33333333333333</ele><time>2026-04-07T15:15:40.999Z</time></trkpt><trkpt lat="33.91650244922975" lon="8.09540202388185"><ele>107.66666666666666</ele><time>2026-04-07T15:15:41.999Z</time></trkpt><trkpt lat="33.91646271885585" lon="8.09521781451228"><ele>108.0</ele><time>2026-04-07T15:15:42.999Z</time></trkpt><trkpt lat="33.91642254107384" lon="8.095033950287304"><ele>109.0</ele><time>2026-04-07T15:15:43.999Z</time></trkpt><trkpt lat="33.91638308500685" lon="8.094852692059762"><ele>110.0</ele><time>2026-04-07T15:15:44.999Z</time></trkpt><trkpt lat="33.91634464768117" lon="8.09467487319489"><ele>111.0</ele><time>2026-04-07T15:15:45.999Z</time></trkpt><trkpt lat="33.91630588680268" lon="8.094499455915573"><ele>111.0</ele><time>2026-04-07T15:15:46.999Z</time></trkpt><trkpt lat="33.916268759318164" lon="8.094328245303142"><ele>111.0</ele><time>2026-04-07T15:15:47.999Z</time></trkpt><trkpt lat="33.91623151436659" lon="8.094161541841153"><ele>111.0</ele><time>2026-04-07T15:15:48.999Z</time></trkpt><trkpt lat="33.9161977132736" lon="8.093999187955298"><ele>111.0</ele><time>2026-04-07T15:15:49.999Z</time></trkpt><trkpt lat="33.91616360212824" lon="8.09383812105779"><ele>111.75</ele><time>2026-04-07T15:15:50.999Z</time></trkpt><trkpt lat="33.91612997937452" lon="8.093678278950247"><ele>112.5</ele><time>2026-04-07T15:15:51.999Z</time></trkpt><trkpt lat="33.91609605447103" lon="8.093517053071235"><ele>113.25</ele><time>2026-04-07T15:15:52.999Z</time></trkpt><trkpt lat="33.91606292276846" lon="8.093352474294594"><ele>114.0</ele><time>2026-04-07T15:15:53.999Z</time></trkpt><trkpt lat="33.91602578647791" lon="8.09318409898572"><ele>114.25</ele><time>2026-04-07T15:15:54.999Z</time></trkpt><trkpt lat="33.91599007765061" lon="8.093013685930186"><ele>114.5</ele><time>2026-04-07T15:15:55.999Z</time></trkpt><trkpt lat="33.91595517063124" lon="8.092845857196531"><ele>114.75</ele><time>2026-04-07T15:15:56.999Z</time></trkpt><trkpt lat="33.91591896453605" lon="8.092677536441395"><ele>115.0</ele><time>2026-04-07T15:15:57.999Z</time></trkpt><trkpt lat="33.915888033779545" lon="8.092510125131504"><ele>116.0</ele><time>2026-04-07T15:15:58.999Z</time></trkpt><trkpt lat="33.91585941481652" lon="8.092339748068069"><ele>117.0</ele><time>2026-04-07T15:15:59.999Z</time></trkpt><trkpt lat="33.91581800206489" lon="8.092157253345837"><ele>118.0</ele><time>2026-04-07T15:16:00.999Z</time></trkpt><trkpt lat="33.91578648932449" lon="8.091980906180673"><ele>118.0</ele><time>2026-04-07T15:16:01.999Z</time></trkpt><trkpt lat="33.91575094629537" lon="8.091808745680446"><ele>118.0</ele><time>2026-04-07T15:16:02.999Z</time></trkpt><trkpt lat="33.915716296142065" lon="8.091637758665408"><ele>118.0</ele><time>2026-04-07T15:16:03.999Z</time></trkpt><trkpt lat="33.91567599665584" lon="8.091469258484958"><ele>118.0</ele><time>2026-04-07T15:16:04.999Z</time></trkpt><trkpt lat="33.91563583326791" lon="8.091304492362955"><ele>118.75</ele><time>2026-04-07T15:16:05.999Z</time></trkpt><trkpt lat="33.91559856754142" lon="8.091143180221271"><ele>119.5</ele><time>2026-04-07T15:16:06.999Z</time></trkpt><trkpt lat="33.91556189312333" lon="8.09098354614616"><ele>120.25</ele><time>2026-04-07T15:16:07.999Z</time></trkpt><trkpt lat="33.915526685066524" lon="8.09082619683595"><ele>121.0</ele><time>2026-04-07T15:16:08.999Z</time></trkpt><trkpt lat="33.91549111817134" lon="8.090670153354758"><ele>121.0</ele><time>2026-04-07T15:16:09.999Z</time></trkpt><trkpt lat="33.91545738475391" lon="8.09051698057121"><ele>121.0</ele><time>2026-04-07T15:16:10.999Z</time></trkpt><trkpt lat="33.91542399888104" lon="8.090364336238041"><ele>121.0</ele><time>2026-04-07T15:16:11.999Z</time></trkpt><trkpt lat="33.91539396005883" lon="8.090218014684813"><ele>121.0</ele><time>2026-04-07T15:16:12.999Z</time></trkpt><trkpt lat="33.91536296625632" lon="8.090068842472078"><ele>121.0</ele><time>2026-04-07T15:16:13.999Z</time></trkpt><trkpt lat="33.915332181997144" lon="8.089919938415724"><ele>121.0</ele><time>2026-04-07T15:16:14.999Z</time></trkpt><trkpt lat="33.9153014927803" lon="8.08977141533922"><ele>121.0</ele><time>2026-04-07T15:16:15.999Z</time></trkpt><trkpt lat="33.915269938744885" lon="8.089626986737699"><ele>121.0</ele><time>2026-04-07T15:16:16.999Z</time></trkpt><trkpt lat="33.915238455930265" lon="8.089484250931564"><ele>121.0</ele><time>2026-04-07T15:16:17.999Z</time></trkpt><trkpt lat="33.915202897039904" lon="8.089342566071418"><ele>121.0</ele><time>2026-04-07T15:16:18.999Z</time></trkpt><trkpt lat="33.9151721997572" lon="8.089206217307424"><ele>121.0</ele><time>2026-04-07T15:16:19.999Z</time></trkpt><trkpt lat="33.91514114135779" lon="8.089073548542151"><ele>121.0</ele><time>2026-04-07T15:16:20.999Z</time></trkpt><trkpt lat="33.915113155770406" lon="8.088947275492052"><ele>121.33333333333334</ele><time>2026-04-07T15:16:21.999Z</time></trkpt><trkpt lat="33.91508584826154" lon="8.08882990103899"><ele>121.66666666666667</ele><time>2026-04-07T15:16:22.999Z</time></trkpt><trkpt lat="33.915061045790765" lon="8.088722747521842"><ele>122.0</ele><time>2026-04-07T15:16:23.999Z</time></trkpt><trkpt lat="33.91503828823979" lon="8.088624943182205"><ele>122.33333333333334</ele><time>2026-04-07T15:16:24.999Z</time></trkpt><trkpt lat="33.915021419557824" lon="8.088540479624054"><ele>122.66666666666667</ele><time>2026-04-07T15:16:25.999Z</time></trkpt><trkpt lat="33.91501067237151" lon="8.088459391066918"><ele>123.0</ele><time>2026-04-07T15:16:26.999Z</time></trkpt><trkpt lat="33.91501031438022" lon="8.088378636253635"><ele>123.0</ele><time>2026-04-07T15:16:27.999Z</time></trkpt><trkpt lat="33.91501824825193" lon="8.0882968514452"><ele>123.0</ele><time>2026-04-07T15:16:28.999Z</time></trkpt><trkpt lat="33.91502252995437" lon="8.088209151045376"><ele>123.0</ele><time>2026-04-07T15:16:29.999Z</time></trkpt><trkpt lat="33.915021663049046" lon="8.088116586704338"><ele>123.0</ele><time>2026-04-07T15:16:30.999Z</time></trkpt><trkpt lat="33.91500484085252" lon="8.088019639283283"><ele>123.0</ele><time>2026-04-07T15:16:31.999Z</time></trkpt><trkpt lat="33.91497925539181" lon="8.08791869832081"><ele>123.0</ele><time>2026-04-07T15:16:32.999Z</time></trkpt><trkpt lat="33.914951749046324" lon="8.087826917948076"><ele>123.0</ele><time>2026-04-07T15:16:33.999Z</time></trkpt><trkpt lat="33.914922548083794" lon="8.087720436302966"><ele>123.0</ele><time>2026-04-07T15:16:34.999Z</time></trkpt><trkpt lat="33.914909616462865" lon="8.087622769363318"><ele>123.0</ele><time>2026-04-07T15:16:35.999Z</time></trkpt><trkpt lat="33.914908440370496" lon="8.087524671685594"><ele>123.0</ele><time>2026-04-07T15:16:36.999Z</time></trkpt><trkpt lat="33.914911202513146" lon="8.087413934284383"><ele>123.0</ele><time>2026-04-07T15:16:37.999Z</time></trkpt><trkpt lat="33.914913200190405" lon="8.087298823799951"><ele>123.0</ele><time>2026-04-07T15:16:38.999Z</time></trkpt><trkpt lat="33.91492026624636" lon="8.08718409283986"><ele>123.0</ele><time>2026-04-07T15:16:39.999Z</time></trkpt><trkpt lat="33.9149234081954" lon="8.087091030719954"><ele>123.0</ele><time>2026-04-07T15:16:40.999Z</time></trkpt><trkpt lat="33.91492172726278" lon="8.086983283863347"><ele>123.0</ele><time>2026-04-07T15:16:41.999Z</time></trkpt><trkpt lat="33.91493505019139" lon="8.086878506973585"><ele>123.0</ele><time>2026-04-07T15:16:42.999Z</time></trkpt><trkpt lat="33.914946689706795" lon="8.086754761423398"><ele>123.0</ele><time>2026-04-07T15:16:43.999Z</time></trkpt><trkpt lat="33.91496646957828" lon="8.086649800071465"><ele>123.0</ele><time>2026-04-07T15:16:44.999Z</time></trkpt><trkpt lat="33.914976488233435" lon="8.086552909839853"><ele>123.16666666666667</ele><time>2026-04-07T15:16:45.999Z</time></trkpt><trkpt lat="33.91495102483037" lon="8.086464270127047"><ele>123.33333333333334</ele><time>2026-04-07T15:16:46.999Z</time></trkpt><trkpt lat="33.914942396679415" lon="8.086366333352855"><ele>123.5</ele><time>2026-04-07T15:16:47.999Z</time></trkpt><trkpt lat="33.91494266558983" lon="8.086271836259066"><ele>123.66666666666667</ele><time>2026-04-07T15:16:48.999Z</time></trkpt><trkpt lat="33.91494108901352" lon="8.086167157490058"><ele>123.83333333333334</ele><time>2026-04-07T15:16:49.999Z</time></trkpt><trkpt lat="33.91493781914935" lon="8.086059228510784"><ele>124.0</ele><time>2026-04-07T15:16:50.999Z</time></trkpt><trkpt lat="33.91492401579697" lon="8.08594245664431"><ele>124.0</ele><time>2026-04-07T15:16:51.999Z</time></trkpt><trkpt lat="33.91492552393159" lon="8.08582370573973"><ele>124.0</ele><time>2026-04-07T15:16:52.999Z</time></trkpt><trkpt lat="33.91494144965516" lon="8.085694387893607"><ele>124.0</ele><time>2026-04-07T15:16:53.999Z</time></trkpt><trkpt lat="33.914956235504995" lon="8.085551762265576"><ele>124.0</ele><time>2026-04-07T15:16:54.999Z</time></trkpt><trkpt lat="33.91497072704899" lon="8.085429037443975"><ele>124.0</ele><time>2026-04-07T15:16:55.999Z</time></trkpt><trkpt lat="33.91496613571187" lon="8.085269452802478"><ele>123.5</ele><time>2026-04-07T15:16:56.999Z</time></trkpt><trkpt lat="33.91497732031992" lon="8.085128188137618"><ele>123.0</ele><time>2026-04-07T15:16:57.999Z</time></trkpt><trkpt lat="33.91388787913134" lon="8.084592006940804"><ele>122.0</ele><time>2026-04-07T15:16:58.999Z</time></trkpt><trkpt lat="33.91363832549481" lon="8.084302422167939"><ele>121.0</ele><time>2026-04-07T15:16:59.999Z</time></trkpt><trkpt lat="33.91367543112887" lon="8.08409495738811"><ele>125.0</ele><time>2026-04-07T15:17:00.999Z</time></trkpt><trkpt lat="33.91413799339487" lon="8.083833417604719"><ele>125.0</ele><time>2026-04-07T15:17:01.999Z</time></trkpt><trkpt lat="33.91416681872456" lon="8.083636904893696"><ele>125.0</ele><time>2026-04-07T15:17:02.999Z</time></trkpt><trkpt lat="33.91414523681146" lon="8.08339571711236"><ele>125.0</ele><time>2026-04-07T15:17:03.999Z</time></trkpt><trkpt lat="33.91410973329968" lon="8.083154854891657"><ele>125.5</ele><time>2026-04-07T15:17:04.999Z</time></trkpt><trkpt lat="33.91398725220233" lon="8.082748729771845"><ele>126.0</ele><time>2026-04-07T15:17:05.999Z</time></trkpt><trkpt lat="33.9137715019044" lon="8.082260293878191"><ele>127.33333333333334</ele><time>2026-04-07T15:17:06.999Z</time></trkpt><trkpt lat="33.91368825937672" lon="8.082024199584906"><ele>128.66666666666669</ele><time>2026-04-07T15:17:07.999Z</time></trkpt><trkpt lat="33.9136073622291" lon="8.081846090606865"><ele>130.0</ele><time>2026-04-07T15:17:08.999Z</time></trkpt><trkpt lat="33.91376356301415" lon="8.081879617775057"><ele>130.0</ele><time>2026-04-07T15:17:09.999Z</time></trkpt><trkpt lat="33.91367526209244" lon="8.081723432234648"><ele>130.0</ele><time>2026-04-07T15:17:11.999Z</time></trkpt><trkpt lat="33.913630515733466" lon="8.081580352707572"><ele>130.0</ele><time>2026-04-07T15:17:12.999Z</time></trkpt><trkpt lat="33.913581667591714" lon="8.081421536733593"><ele>130.0</ele><time>2026-04-07T15:17:14.077Z</time></trkpt><trkpt lat="33.913538417650706" lon="8.081280303978852"><ele>130.0</ele><time>2026-04-07T15:17:15.037Z</time></trkpt><trkpt lat="33.91349366080005" lon="8.081135121768998"><ele>130.0</ele><time>2026-04-07T15:17:16.031Z</time></trkpt><trkpt lat="33.913446929074745" lon="8.080988861378257"><ele>130.0</ele><time>2026-04-07T15:17:17.03Z</time></trkpt><trkpt lat="33.9134008201002" lon="8.080842125288461"><ele>130.0</ele><time>2026-04-07T15:17:18.032Z</time></trkpt><trkpt lat="33.91335639758091" lon="8.080696386169002"><ele>131.0</ele><time>2026-04-07T15:17:19.028Z</time></trkpt><trkpt lat="33.9133109619413" lon="8.080549769419077"><ele>132.0</ele><time>2026-04-07T15:17:20.029Z</time></trkpt><trkpt lat="33.91245571846946" lon="8.076883904392293"><ele>134.33333333333334</ele><time>2026-04-07T15:17:32.999Z</time></trkpt><trkpt lat="33.9123981749022" lon="8.07667492906047"><ele>136.66666666666669</ele><time>2026-04-07T15:17:33.999Z</time></trkpt><trkpt lat="33.91241798792058" lon="8.076359989465535"><ele>139.0</ele><time>2026-04-07T15:17:34.999Z</time></trkpt><trkpt lat="33.91235569583665" lon="8.076146916302863"><ele>139.66666666666669</ele><time>2026-04-07T15:17:35.999Z</time></trkpt><trkpt lat="33.91232736622308" lon="8.075938696009919"><ele>140.33333333333334</ele><time>2026-04-07T15:17:36.999Z</time></trkpt><trkpt lat="33.91228348238303" lon="8.075730072174192"><ele>141.0</ele><time>2026-04-07T15:17:37.999Z</time></trkpt><trkpt lat="33.91224121615618" lon="8.075518565115402"><ele>141.0</ele><time>2026-04-07T15:17:38.999Z</time></trkpt><trkpt lat="33.912201029295304" lon="8.075306675016813"><ele>141.0</ele><time>2026-04-07T15:17:39.999Z</time></trkpt><trkpt lat="33.91215545798873" lon="8.07509684475235"><ele>141.0</ele><time>2026-04-07T15:17:40.999Z</time></trkpt><trkpt lat="33.91211083177618" lon="8.074884926569275"><ele>141.33333333333334</ele><time>2026-04-07T15:17:41.999Z</time></trkpt><trkpt lat="33.912063731865146" lon="8.074672668457264"><ele>141.66666666666669</ele><time>2026-04-07T15:17:42.999Z</time></trkpt><trkpt lat="33.912016061765456" lon="8.074465562243933"><ele>142.0</ele><time>2026-04-07T15:17:43.999Z</time></trkpt><trkpt lat="33.91197378452067" lon="8.074253573480254"><ele>142.0</ele><time>2026-04-07T15:17:44.999Z</time></trkpt><trkpt lat="33.911925175333245" lon="8.074044500193427"><ele>142.0</ele><time>2026-04-07T15:17:45.999Z</time></trkpt><trkpt lat="33.91188151295232" lon="8.073835606168087"><ele>142.0</ele><time>2026-04-07T15:17:46.999Z</time></trkpt><trkpt lat="33.91183457610377" lon="8.073629617195575"><ele>142.0</ele><time>2026-04-07T15:17:47.999Z</time></trkpt><trkpt lat="33.91179093474261" lon="8.073422611238948"><ele>142.0</ele><time>2026-04-07T15:17:48.999Z</time></trkpt><trkpt lat="33.91175229008233" lon="8.073217371512788"><ele>142.0</ele><time>2026-04-07T15:17:49.999Z</time></trkpt><trkpt lat="33.91171604309531" lon="8.073015421620232"><ele>141.66666666666669</ele><time>2026-04-07T15:17:50.999Z</time></trkpt><trkpt lat="33.91167112857116" lon="8.072806804221505"><ele>141.33333333333334</ele><time>2026-04-07T15:17:51.999Z</time></trkpt><trkpt lat="33.911624907062865" lon="8.072598831242612"><ele>141.0</ele><time>2026-04-07T15:17:52.999Z</time></trkpt><trkpt lat="33.91158042803781" lon="8.072388929207936"><ele>141.0</ele><time>2026-04-07T15:17:53.999Z</time></trkpt><trkpt lat="33.911533658511516" lon="8.072176956554618"><ele>141.0</ele><time>2026-04-07T15:17:54.999Z</time></trkpt><trkpt lat="33.91148303432619" lon="8.071966871295885"><ele>141.0</ele><time>2026-04-07T15:17:55.999Z</time></trkpt><trkpt lat="33.91143811058727" lon="8.071754425598332"><ele>141.66666666666666</ele><time>2026-04-07T15:17:56.999Z</time></trkpt><trkpt lat="33.91139203581095" lon="8.071538868635106"><ele>142.33333333333331</ele><time>2026-04-07T15:17:57.999Z</time></trkpt><trkpt lat="33.911339075280715" lon="8.071304974613573"><ele>143.0</ele><time>2026-04-07T15:17:58.999Z</time></trkpt><trkpt lat="33.911303909682246" lon="8.071106156026572"><ele>143.0</ele><time>2026-04-07T15:17:59.999Z</time></trkpt><trkpt lat="33.911254461844294" lon="8.070894456551448"><ele>143.0</ele><time>2026-04-07T15:18:00.999Z</time></trkpt><trkpt lat="33.91120750488364" lon="8.07068442251603"><ele>143.0</ele><time>2026-04-07T15:18:01.999Z</time></trkpt><trkpt lat="33.911156168916975" lon="8.070464572302622"><ele>143.0</ele><time>2026-04-07T15:18:02.999Z</time></trkpt><trkpt lat="33.911111575699294" lon="8.070247625777453"><ele>143.0</ele><time>2026-04-07T15:18:03.999Z</time></trkpt><trkpt lat="33.91107131322943" lon="8.07003145220275"><ele>143.0</ele><time>2026-04-07T15:18:04.999Z</time></trkpt><trkpt lat="33.91102270467795" lon="8.069813348260126"><ele>143.0</ele><time>2026-04-07T15:18:05.999Z</time></trkpt><trkpt lat="33.91097519971504" lon="8.06961281358704"><ele>143.0</ele><time>2026-04-07T15:18:06.999Z</time></trkpt><trkpt lat="33.91092218935947" lon="8.069413453505698"><ele>143.0</ele><time>2026-04-07T15:18:07.999Z</time></trkpt><trkpt lat="33.910855733355625" lon="8.069193987154211"><ele>143.0</ele><time>2026-04-07T15:18:08.999Z</time></trkpt><trkpt lat="33.91079434126462" lon="8.068984474383756"><ele>143.0</ele><time>2026-04-07T15:18:09.999Z</time></trkpt><trkpt lat="33.91073701769526" lon="8.068761418669427"><ele>143.0</ele><time>2026-04-07T15:18:10.999Z</time></trkpt><trkpt lat="33.91068739800592" lon="8.068541095761097"><ele>143.0</ele><time>2026-04-07T15:18:11.999Z</time></trkpt><trkpt lat="33.9106302696239" lon="8.068323142265655"><ele>143.0</ele><time>2026-04-07T15:18:12.999Z</time></trkpt><trkpt lat="33.91057945051735" lon="8.068107048698225"><ele>143.0</ele><time>2026-04-07T15:18:13.999Z</time></trkpt><trkpt lat="33.91052872774094" lon="8.067888808522248"><ele>144.0</ele><time>2026-04-07T15:18:14.999Z</time></trkpt><trkpt lat="33.910481972960895" lon="8.067674791223666"><ele>145.0</ele><time>2026-04-07T15:18:15.999Z</time></trkpt><trkpt lat="33.91042755991864" lon="8.067477647879885"><ele>146.0</ele><time>2026-04-07T15:18:16.999Z</time></trkpt><trkpt lat="33.910376182484256" lon="8.067279597899997"><ele>146.0</ele><time>2026-04-07T15:18:17.999Z</time></trkpt><trkpt lat="33.91033537607904" lon="8.06707512325271"><ele>146.0</ele><time>2026-04-07T15:18:18.999Z</time></trkpt><trkpt lat="33.91028778211903" lon="8.066870944554623"><ele>146.0</ele><time>2026-04-07T15:18:19.999Z</time></trkpt><trkpt lat="33.91025872012718" lon="8.06666265790397"><ele>146.33333333333331</ele><time>2026-04-07T15:18:20.999Z</time></trkpt><trkpt lat="33.91021539816696" lon="8.066458687769435"><ele>146.66666666666666</ele><time>2026-04-07T15:18:21.999Z</time></trkpt><trkpt lat="33.91016999097246" lon="8.066253439725871"><ele>147.0</ele><time>2026-04-07T15:18:22.999Z</time></trkpt><trkpt lat="33.91013167501206" lon="8.066050903276745"><ele>147.0</ele><time>2026-04-07T15:18:23.999Z</time></trkpt><trkpt lat="33.91009924849659" lon="8.065842391477592"><ele>147.0</ele><time>2026-04-07T15:18:24.999Z</time></trkpt><trkpt lat="33.91006354183898" lon="8.065630214782304"><ele>147.0</ele><time>2026-04-07T15:18:25.999Z</time></trkpt><trkpt lat="33.910012225168856" lon="8.065426527091002"><ele>147.0</ele><time>2026-04-07T15:18:26.999Z</time></trkpt><trkpt lat="33.90995906096461" lon="8.06522048343382"><ele>147.0</ele><time>2026-04-07T15:18:27.999Z</time></trkpt><trkpt lat="33.90990639767179" lon="8.065018680710718"><ele>147.0</ele><time>2026-04-07T15:18:28.999Z</time></trkpt><trkpt lat="33.90984885553011" lon="8.064812602290438"><ele>147.33333333333334</ele><time>2026-04-07T15:18:29.999Z</time></trkpt><trkpt lat="33.90980256647425" lon="8.064600492113623"><ele>147.66666666666669</ele><time>2026-04-07T15:18:30.999Z</time></trkpt><trkpt lat="33.90972057492022" lon="8.064378334017158"><ele>148.0</ele><time>2026-04-07T15:18:31.999Z</time></trkpt><trkpt lat="33.90966528526576" lon="8.064140110143091"><ele>147.66666666666669</ele><time>2026-04-07T15:18:32.999Z</time></trkpt><trkpt lat="33.90966116631659" lon="8.063916656498908"><ele>147.33333333333334</ele><time>2026-04-07T15:18:33.999Z</time></trkpt><trkpt lat="33.909627366236755" lon="8.063711503031492"><ele>147.0</ele><time>2026-04-07T15:18:34.999Z</time></trkpt><trkpt lat="33.90959359983737" lon="8.063499980455534"><ele>147.0</ele><time>2026-04-07T15:18:35.999Z</time></trkpt><trkpt lat="33.909530401448805" lon="8.063301098182006"><ele>147.0</ele><time>2026-04-07T15:18:36.999Z</time></trkpt><trkpt lat="33.90949735759019" lon="8.063083359140709"><ele>147.0</ele><time>2026-04-07T15:18:37.999Z</time></trkpt><trkpt lat="33.909434415416904" lon="8.062842919907665"><ele>147.33333333333334</ele><time>2026-04-07T15:18:38.999Z</time></trkpt><trkpt lat="33.90935485787694" lon="8.062621785354029"><ele>147.66666666666669</ele><time>2026-04-07T15:18:40.074Z</time></trkpt><trkpt lat="33.90927493286664" lon="8.062411177592736"><ele>148.0</ele><time>2026-04-07T15:18:41.039Z</time></trkpt><trkpt lat="33.90916735861113" lon="8.062189841449655"><ele>149.33333333333334</ele><time>2026-04-07T15:18:42.038Z</time></trkpt><trkpt lat="33.90911582202358" lon="8.062054784913471"><ele>150.66666666666666</ele><time>2026-04-07T15:18:43.036Z</time></trkpt><trkpt lat="33.90905911646309" lon="8.061849869615804"><ele>152.0</ele><time>2026-04-07T15:18:44.034Z</time></trkpt><trkpt lat="33.9090016616687" lon="8.061645802785536"><ele>152.5</ele><time>2026-04-07T15:18:45.032Z</time></trkpt><trkpt lat="33.90899506997465" lon="8.061343915643494"><ele>153.0</ele><time>2026-04-07T15:18:46.032Z</time></trkpt><trkpt lat="33.90916429600105" lon="8.061168292868159"><ele>153.0</ele><time>2026-04-07T15:18:47.032Z</time></trkpt><trkpt lat="33.90918284899805" lon="8.060968978061203"><ele>153.0</ele><time>2026-04-07T15:18:48.031Z</time></trkpt><trkpt lat="33.90922529276611" lon="8.06074192521136"><ele>153.0</ele><time>2026-04-07T15:18:49.034Z</time></trkpt><trkpt lat="33.90920486099751" lon="8.060532461144831"><ele>153.33333333333334</ele><time>2026-04-07T15:18:50.032Z</time></trkpt><trkpt lat="33.90917661833031" lon="8.060318539366802"><ele>153.66666666666669</ele><time>2026-04-07T15:18:51.032Z</time></trkpt><trkpt lat="33.909173882595695" lon="8.060108568450731"><ele>154.0</ele><time>2026-04-07T15:18:52.028Z</time></trkpt><trkpt lat="33.925102869898055" lon="8.04565383211976"><ele>137.33333333333334</ele><time>2026-04-07T15:21:10.999Z</time></trkpt><trkpt lat="33.92524029131631" lon="8.045562798431313"><ele>120.66666666666666</ele><time>2026-04-07T15:21:11.999Z</time></trkpt><trkpt lat="33.92539208274943" lon="8.045459387914283"><ele>104.0</ele><time>2026-04-07T15:21:12.999Z</time></trkpt><trkpt lat="33.92554372888228" lon="8.045366901416704"><ele>104.0</ele><time>2026-04-07T15:21:13.999Z</time></trkpt><trkpt lat="33.925699551322985" lon="8.045274304652946"><ele>104.0</ele><time>2026-04-07T15:21:14.999Z</time></trkpt><trkpt lat="33.92585684919493" lon="8.045179480861723"><ele>104.0</ele><time>2026-04-07T15:21:16Z</time></trkpt><trkpt lat="33.92601125663811" lon="8.045087189212209"><ele>103.66666666666666</ele><time>2026-04-07T15:21:17Z</time></trkpt><trkpt lat="33.92616612711534" lon="8.044993903319531"><ele>103.33333333333334</ele><time>2026-04-07T15:21:18Z</time></trkpt><trkpt lat="33.92631611659028" lon="8.044899370923517"><ele>103.0</ele><time>2026-04-07T15:21:19Z</time></trkpt><trkpt lat="33.926465323897844" lon="8.044807947514114"><ele>102.33333333333334</ele><time>2026-04-07T15:21:20Z</time></trkpt><trkpt lat="33.92661718139161" lon="8.044718620716264"><ele>101.66666666666666</ele><time>2026-04-07T15:21:21Z</time></trkpt><trkpt lat="33.9267662715187" lon="8.04463134518765"><ele>101.0</ele><time>2026-04-07T15:21:22Z</time></trkpt><trkpt lat="33.92691648196921" lon="8.044549230299086"><ele>100.0</ele><time>2026-04-07T15:21:23Z</time></trkpt><trkpt lat="33.92706647094208" lon="8.044467951982531"><ele>99.0</ele><time>2026-04-07T15:21:24Z</time></trkpt><trkpt lat="33.92721375242648" lon="8.044387001656457"><ele>98.0</ele><time>2026-04-07T15:21:25Z</time></trkpt><trkpt lat="33.927359184796366" lon="8.044303096352397"><ele>98.0</ele><time>2026-04-07T15:21:26Z</time></trkpt><trkpt lat="33.92750472167736" lon="8.04421803796753"><ele>98.0</ele><time>2026-04-07T15:21:27Z</time></trkpt><trkpt lat="33.92765113893612" lon="8.044131282901942"><ele>98.0</ele><time>2026-04-07T15:21:28Z</time></trkpt><trkpt lat="33.927795688095564" lon="8.04404645811795"><ele>97.33333333333333</ele><time>2026-04-07T15:21:29Z</time></trkpt><trkpt lat="33.92794056873354" lon="8.043963795768912"><ele>96.66666666666666</ele><time>2026-04-07T15:21:30Z</time></trkpt><trkpt lat="33.92808412822606" lon="8.04387873291806"><ele>96.0</ele><time>2026-04-07T15:21:31Z</time></trkpt><trkpt lat="33.92822726116444" lon="8.043791522256575"><ele>96.0</ele><time>2026-04-07T15:21:32Z</time></trkpt><trkpt lat="33.928372554508336" lon="8.04370335767222"><ele>96.0</ele><time>2026-04-07T15:21:33Z</time></trkpt><trkpt lat="33.92851919066868" lon="8.043617633159661"><ele>96.0</ele><time>2026-04-07T15:21:34Z</time></trkpt><trkpt lat="33.928666789763355" lon="8.043534226800437"><ele>96.0</ele><time>2026-04-07T15:21:35Z</time></trkpt><trkpt lat="33.928813446432514" lon="8.043446430403288"><ele>96.0</ele><time>2026-04-07T15:21:36Z</time></trkpt><trkpt lat="33.928961038510764" lon="8.043357715442095"><ele>96.0</ele><time>2026-04-07T15:21:37Z</time></trkpt><trkpt lat="33.929108672461396" lon="8.043267623799565"><ele>94.33333333333333</ele><time>2026-04-07T15:21:38Z</time></trkpt><trkpt lat="33.92925703442561" lon="8.043176019327257"><ele>92.66666666666666</ele><time>2026-04-07T15:21:39Z</time></trkpt><trkpt lat="33.92940892536591" lon="8.0430864342497"><ele>91.0</ele><time>2026-04-07T15:21:40Z</time></trkpt><trkpt lat="33.929560772370365" lon="8.042999677382754"><ele>91.0</ele><time>2026-04-07T15:21:41Z</time></trkpt><trkpt lat="33.929713661955375" lon="8.042915092958161"><ele>91.0</ele><time>2026-04-07T15:21:42Z</time></trkpt><trkpt lat="33.92987171761377" lon="8.042831347238144"><ele>91.0</ele><time>2026-04-07T15:21:43Z</time></trkpt><trkpt lat="33.930028216221366" lon="8.042748093310317"><ele>90.0</ele><time>2026-04-07T15:21:44Z</time></trkpt><trkpt lat="33.93018676028755" lon="8.042665257242788"><ele>89.0</ele><time>2026-04-07T15:21:45Z</time></trkpt><trkpt lat="33.9303444494289" lon="8.04257991714966"><ele>88.0</ele><time>2026-04-07T15:21:46Z</time></trkpt><trkpt lat="33.93050101744714" lon="8.042496247163372"><ele>87.66666666666666</ele><time>2026-04-07T15:21:47Z</time></trkpt><trkpt lat="33.93065780201918" lon="8.042416880138534"><ele>87.33333333333333</ele><time>2026-04-07T15:21:48Z</time></trkpt><trkpt lat="33.930816890185966" lon="8.04233787822982"><ele>87.0</ele><time>2026-04-07T15:21:49Z</time></trkpt><trkpt lat="33.93097225447405" lon="8.042254692413607"><ele>86.33333333333333</ele><time>2026-04-07T15:21:50Z</time></trkpt><trkpt lat="33.93112627258232" lon="8.042172786825875"><ele>85.66666666666666</ele><time>2026-04-07T15:21:51Z</time></trkpt><trkpt lat="33.931280361694185" lon="8.0420943643607"><ele>85.0</ele><time>2026-04-07T15:21:52Z</time></trkpt><trkpt lat="33.93143544339865" lon="8.042016193082459"><ele>85.0</ele><time>2026-04-07T15:21:53Z</time></trkpt><trkpt lat="33.931591909184675" lon="8.041939412452948"><ele>85.0</ele><time>2026-04-07T15:21:54Z</time></trkpt><trkpt lat="33.93174888168526" lon="8.041863154030699"><ele>85.0</ele><time>2026-04-07T15:21:55Z</time></trkpt><trkpt lat="33.93190541793686" lon="8.041790796240743"><ele>84.0</ele><time>2026-04-07T15:21:56Z</time></trkpt><trkpt lat="33.93206333401609" lon="8.041724354633413"><ele>83.0</ele><time>2026-04-07T15:21:57Z</time></trkpt><trkpt lat="33.93222351004304" lon="8.041669296157515"><ele>82.0</ele><time>2026-04-07T15:21:58Z</time></trkpt><trkpt lat="33.9323855005814" lon="8.041620583036137"><ele>82.0</ele><time>2026-04-07T15:21:59Z</time></trkpt><trkpt lat="33.93254981758802" lon="8.04157581624557"><ele>82.0</ele><time>2026-04-07T15:22:00Z</time></trkpt><trkpt lat="33.93271541854396" lon="8.041532215183135"><ele>82.0</ele><time>2026-04-07T15:22:01Z</time></trkpt><trkpt lat="33.93288242257266" lon="8.041489364019503"><ele>82.33333333333333</ele><time>2026-04-07T15:22:02Z</time></trkpt><trkpt lat="33.933048582128706" lon="8.041445106107485"><ele>82.66666666666667</ele><time>2026-04-07T15:22:03Z</time></trkpt><trkpt lat="33.93321589436318" lon="8.041400713910578"><ele>83.0</ele><time>2026-04-07T15:22:04Z</time></trkpt><trkpt lat="33.93338360552583" lon="8.041354538985864"><ele>81.66666666666667</ele><time>2026-04-07T15:22:05Z</time></trkpt><trkpt lat="33.93355186530872" lon="8.04130903440703"><ele>80.33333333333333</ele><time>2026-04-07T15:22:06Z</time></trkpt><trkpt lat="33.93372123216034" lon="8.041262427762108"><ele>79.0</ele><time>2026-04-07T15:22:07Z</time></trkpt><trkpt lat="33.933892070896825" lon="8.041218742867308"><ele>79.0</ele><time>2026-04-07T15:22:08Z</time></trkpt><trkpt lat="33.934063286234775" lon="8.041176135521239"><ele>79.0</ele><time>2026-04-07T15:22:09Z</time></trkpt><trkpt lat="33.93423599937769" lon="8.04113605576018"><ele>79.0</ele><time>2026-04-07T15:22:10Z</time></trkpt><trkpt lat="33.93440898097154" lon="8.041098897914907"><ele>77.66666666666666</ele><time>2026-04-07T15:22:11Z</time></trkpt><trkpt lat="33.93458036030697" lon="8.041065345323116"><ele>76.33333333333333</ele><time>2026-04-07T15:22:12Z</time></trkpt><trkpt lat="33.934751539765166" lon="8.041035692237646"><ele>75.0</ele><time>2026-04-07T15:22:13Z</time></trkpt><trkpt lat="33.93492317691096" lon="8.04100748181558"><ele>73.33333333333333</ele><time>2026-04-07T15:22:14Z</time></trkpt><trkpt lat="33.935094821396504" lon="8.040979721407115"><ele>71.66666666666666</ele><time>2026-04-07T15:22:15Z</time></trkpt><trkpt lat="33.93526577904582" lon="8.040950747889333"><ele>70.0</ele><time>2026-04-07T15:22:16Z</time></trkpt><trkpt lat="33.93543720568036" lon="8.04092282468732"><ele>70.0</ele><time>2026-04-07T15:22:17Z</time></trkpt><trkpt lat="33.93560758353489" lon="8.040893847392592"><ele>70.0</ele><time>2026-04-07T15:22:18Z</time></trkpt><trkpt lat="33.93577770496993" lon="8.040865028022726"><ele>70.0</ele><time>2026-04-07T15:22:19Z</time></trkpt><trkpt lat="33.935946378582464" lon="8.040838463962391"><ele>70.0</ele><time>2026-04-07T15:22:20Z</time></trkpt><trkpt lat="33.93611299889298" lon="8.040810496511378"><ele>70.0</ele><time>2026-04-07T15:22:21Z</time></trkpt><trkpt lat="33.93627873934798" lon="8.04078067995378"><ele>70.0</ele><time>2026-04-07T15:22:22Z</time></trkpt><trkpt lat="33.93644286996458" lon="8.040752291571824"><ele>70.0</ele><time>2026-04-07T15:22:23Z</time></trkpt><trkpt lat="33.93660740744307" lon="8.04072337559841"><ele>70.0</ele><time>2026-04-07T15:22:24Z</time></trkpt><trkpt lat="33.93677160697877" lon="8.040687800335329"><ele>70.0</ele><time>2026-04-07T15:22:25Z</time></trkpt><trkpt lat="33.9369363195308" lon="8.040653657395923"><ele>70.33333333333333</ele><time>2026-04-07T15:22:26Z</time></trkpt><trkpt lat="33.93709964638679" lon="8.04062223089049"><ele>70.66666666666667</ele><time>2026-04-07T15:22:27Z</time></trkpt><trkpt lat="33.93726324584733" lon="8.040596123236407"><ele>71.0</ele><time>2026-04-07T15:22:28Z</time></trkpt><trkpt lat="33.93742526570891" lon="8.040567599735528"><ele>70.0</ele><time>2026-04-07T15:22:29Z</time></trkpt><trkpt lat="33.93758766929785" lon="8.04054249163445"><ele>69.0</ele><time>2026-04-07T15:22:30Z</time></trkpt><trkpt lat="33.937750041350036" lon="8.0405188426943"><ele>68.0</ele><time>2026-04-07T15:22:31Z</time></trkpt><trkpt lat="33.937911254698605" lon="8.040497604629412"><ele>68.0</ele><time>2026-04-07T15:22:32Z</time></trkpt><trkpt lat="33.9380724648382" lon="8.040475039401544"><ele>68.0</ele><time>2026-04-07T15:22:33Z</time></trkpt><trkpt lat="33.93823185045245" lon="8.04045317794648"><ele>68.0</ele><time>2026-04-07T15:22:34Z</time></trkpt><trkpt lat="33.93839105178568" lon="8.04042853099267"><ele>67.0</ele><time>2026-04-07T15:22:35Z</time></trkpt><trkpt lat="33.93854941033759" lon="8.040404329145874"><ele>66.0</ele><time>2026-04-07T15:22:36Z</time></trkpt><trkpt lat="33.93870670916278" lon="8.040376915967435"><ele>65.0</ele><time>2026-04-07T15:22:37Z</time></trkpt><trkpt lat="33.93886359269408" lon="8.040342905888082"><ele>65.0</ele><time>2026-04-07T15:22:38Z</time></trkpt><trkpt lat="33.93902085222875" lon="8.040306495364987"><ele>65.0</ele><time>2026-04-07T15:22:39Z</time></trkpt><trkpt lat="33.93917622786038" lon="8.04027027341704"><ele>65.0</ele><time>2026-04-07T15:22:40Z</time></trkpt><trkpt lat="33.93932924561421" lon="8.040238767659188"><ele>64.33333333333334</ele><time>2026-04-07T15:22:41Z</time></trkpt><trkpt lat="33.93948374510491" lon="8.040212597413477"><ele>63.66666666666667</ele><time>2026-04-07T15:22:42Z</time></trkpt><trkpt lat="33.93963863346939" lon="8.0401891846515"><ele>63.0</ele><time>2026-04-07T15:22:43Z</time></trkpt><trkpt lat="33.93979292187314" lon="8.040161596025643"><ele>63.0</ele><time>2026-04-07T15:22:44Z</time></trkpt><trkpt lat="33.93994528095202" lon="8.040134483957083"><ele>63.0</ele><time>2026-04-07T15:22:45Z</time></trkpt><trkpt lat="33.940097817477366" lon="8.040108516397035"><ele>63.0</ele><time>2026-04-07T15:22:46Z</time></trkpt><trkpt lat="33.94024901784199" lon="8.040083042938495"><ele>62.33333333333333</ele><time>2026-04-07T15:22:47Z</time></trkpt><trkpt lat="33.94039909323945" lon="8.040055683924129"><ele>61.666666666666664</ele><time>2026-04-07T15:22:48Z</time></trkpt><trkpt lat="33.94054815779069" lon="8.040026141855742"><ele>61.0</ele><time>2026-04-07T15:22:49Z</time></trkpt><trkpt lat="33.94069659978324" lon="8.039999096550291"><ele>61.0</ele><time>2026-04-07T15:22:50Z</time></trkpt><trkpt lat="33.94084394852962" lon="8.039970795168667"><ele>61.0</ele><time>2026-04-07T15:22:51Z</time></trkpt><trkpt lat="33.940989732604315" lon="8.039941305639559"><ele>61.0</ele><time>2026-04-07T15:22:52Z</time></trkpt><trkpt lat="33.94113467835042" lon="8.039911943802023"><ele>61.0</ele><time>2026-04-07T15:22:53Z</time></trkpt><trkpt lat="33.94127870171914" lon="8.039886063530517"><ele>60.5</ele><time>2026-04-07T15:22:54Z</time></trkpt><trkpt lat="33.94142183443805" lon="8.039858153334356"><ele>60.0</ele><time>2026-04-07T15:22:55Z</time></trkpt><trkpt lat="33.94156329008287" lon="8.039833259060881"><ele>59.5</ele><time>2026-04-07T15:22:56Z</time></trkpt><trkpt lat="33.941705181312685" lon="8.039807394002622"><ele>59.0</ele><time>2026-04-07T15:22:57Z</time></trkpt><trkpt lat="33.9418453923432" lon="8.039780473697201"><ele>58.25</ele><time>2026-04-07T15:22:57.999Z</time></trkpt><trkpt lat="33.94198212105074" lon="8.039753452142032"><ele>57.5</ele><time>2026-04-07T15:22:58.999Z</time></trkpt><trkpt lat="33.942117109663194" lon="8.039727295938839"><ele>56.75</ele><time>2026-04-07T15:22:59.999Z</time></trkpt><trkpt lat="33.94224822774057" lon="8.039699231905091"><ele>56.0</ele><time>2026-04-07T15:23:00.999Z</time></trkpt><trkpt lat="33.94237865783572" lon="8.039673038256094"><ele>56.0</ele><time>2026-04-07T15:23:01.999Z</time></trkpt><trkpt lat="33.94250709826477" lon="8.039649887676095"><ele>56.0</ele><time>2026-04-07T15:23:02.999Z</time></trkpt><trkpt lat="33.94263328335561" lon="8.039626729416355"><ele>56.0</ele><time>2026-04-07T15:23:03.999Z</time></trkpt><trkpt lat="33.94275604592143" lon="8.039601274854364"><ele>56.0</ele><time>2026-04-07T15:23:04.999Z</time></trkpt><trkpt lat="33.942875907657395" lon="8.03957610479121"><ele>55.599999999999994</ele><time>2026-04-07T15:23:05.999Z</time></trkpt><trkpt lat="33.942990626399016" lon="8.039552693802825"><ele>55.199999999999996</ele><time>2026-04-07T15:23:06.999Z</time></trkpt><trkpt lat="33.943100185580064" lon="8.039531027394867"><ele>54.800000000000004</ele><time>2026-04-07T15:23:07.999Z</time></trkpt><trkpt lat="33.943204247019" lon="8.039513183153897"><ele>54.400000000000006</ele><time>2026-04-07T15:23:08.999Z</time></trkpt><trkpt lat="33.94329828737174" lon="8.039500501674699"><ele>54.0</ele><time>2026-04-07T15:23:09.999Z</time></trkpt><trkpt lat="33.943384637417246" lon="8.039486391207397"><ele>53.857142857142854</ele><time>2026-04-07T15:23:10.999Z</time></trkpt><trkpt lat="33.943460262231056" lon="8.039477613451949"><ele>53.71428571428571</ele><time>2026-04-07T15:23:11.999Z</time></trkpt><trkpt lat="33.94352865255618" lon="8.039489664927952"><ele>53.57142857142857</ele><time>2026-04-07T15:23:12.999Z</time></trkpt><trkpt lat="33.94358895415997" lon="8.039524298331978"><ele>53.42857142857143</ele><time>2026-04-07T15:23:13.999Z</time></trkpt><trkpt lat="33.94364058700036" lon="8.03958725933153"><ele>53.285714285714285</ele><time>2026-04-07T15:23:14.999Z</time></trkpt><trkpt lat="33.94368123284234" lon="8.03966093555281"><ele>53.142857142857146</ele><time>2026-04-07T15:23:15.999Z</time></trkpt><trkpt lat="33.94371561700819" lon="8.039748403067021"><ele>53.0</ele><time>2026-04-07T15:23:16.999Z</time></trkpt><trkpt lat="33.94373890285692" lon="8.039854703093008"><ele>53.0</ele><time>2026-04-07T15:23:17.999Z</time></trkpt><trkpt lat="33.943758635145336" lon="8.039968908566076"><ele>53.0</ele><time>2026-04-07T15:23:18.999Z</time></trkpt><trkpt lat="33.943783400157166" lon="8.040086536446708"><ele>53.0</ele><time>2026-04-07T15:23:19.999Z</time></trkpt><trkpt lat="33.94380746210277" lon="8.040211369607812"><ele>53.0</ele><time>2026-04-07T15:23:20.999Z</time></trkpt><trkpt lat="33.94383038160928" lon="8.040340931564687"><ele>53.0</ele><time>2026-04-07T15:23:21.999Z</time></trkpt><trkpt lat="33.9438517214102" lon="8.04047602412018"><ele>53.0</ele><time>2026-04-07T15:23:22.999Z</time></trkpt><trkpt lat="33.94387523175107" lon="8.04061554600245"><ele>53.0</ele><time>2026-04-07T15:23:23.999Z</time></trkpt><trkpt lat="33.943907004676696" lon="8.040752801535904"><ele>53.0</ele><time>2026-04-07T15:23:24.999Z</time></trkpt><trkpt lat="33.94394778298272" lon="8.040889556999522"><ele>53.0</ele><time>2026-04-07T15:23:25.999Z</time></trkpt><trkpt lat="33.94399931006833" lon="8.041026029359847"><ele>52.75</ele><time>2026-04-07T15:23:26.999Z</time></trkpt><trkpt lat="33.944064708790066" lon="8.04115911961986"><ele>52.5</ele><time>2026-04-07T15:23:27.999Z</time></trkpt><trkpt lat="33.94413697220324" lon="8.041290032413965"><ele>52.25</ele><time>2026-04-07T15:23:28.999Z</time></trkpt><trkpt lat="33.94421283851838" lon="8.041420968252154"><ele>52.0</ele><time>2026-04-07T15:23:29.999Z</time></trkpt><trkpt lat="33.944292998186945" lon="8.04154878164232"><ele>52.25</ele><time>2026-04-07T15:23:30.999Z</time></trkpt><trkpt lat="33.94437545500433" lon="8.041670366198199"><ele>52.5</ele><time>2026-04-07T15:23:31.999Z</time></trkpt><trkpt lat="33.94445739080503" lon="8.041785931837465"><ele>52.75</ele><time>2026-04-07T15:23:32.999Z</time></trkpt><trkpt lat="33.94453955014709" lon="8.0419026480222"><ele>53.0</ele><time>2026-04-07T15:23:33.999Z</time></trkpt><trkpt lat="33.9446251083506" lon="8.042022880727318"><ele>53.0</ele><time>2026-04-07T15:23:34.999Z</time></trkpt><trkpt lat="33.94470852366989" lon="8.042149525863714"><ele>53.0</ele><time>2026-04-07T15:23:35.999Z</time></trkpt><trkpt lat="33.94479208230672" lon="8.04228250629421"><ele>53.0</ele><time>2026-04-07T15:23:36.999Z</time></trkpt><trkpt lat="33.944877499046626" lon="8.04241702619336"><ele>53.0</ele><time>2026-04-07T15:23:37.999Z</time></trkpt><trkpt lat="33.94495891139892" lon="8.04255445648754"><ele>52.25</ele><time>2026-04-07T15:23:38.999Z</time></trkpt><trkpt lat="33.94503317911557" lon="8.042702979856127"><ele>51.5</ele><time>2026-04-07T15:23:39.999Z</time></trkpt><trkpt lat="33.9451009739125" lon="8.042858055298078"><ele>50.75</ele><time>2026-04-07T15:23:40.999Z</time></trkpt><trkpt lat="33.94515967770983" lon="8.043018451340629"><ele>50.0</ele><time>2026-04-07T15:23:41.999Z</time></trkpt><trkpt lat="33.945213802844556" lon="8.043183947938285"><ele>50.25</ele><time>2026-04-07T15:23:42.999Z</time></trkpt><trkpt lat="33.945261235472984" lon="8.043352116268657"><ele>50.5</ele><time>2026-04-07T15:23:43.999Z</time></trkpt><trkpt lat="33.94529939054793" lon="8.043523726702041"><ele>50.75</ele><time>2026-04-07T15:23:44.999Z</time></trkpt><trkpt lat="33.945329541905274" lon="8.04369873667358"><ele>51.0</ele><time>2026-04-07T15:23:45.999Z</time></trkpt><trkpt lat="33.9453534127346" lon="8.043879235752673"><ele>51.0</ele><time>2026-04-07T15:23:46.999Z</time></trkpt><trkpt lat="33.94536850574809" lon="8.044062810204009"><ele>51.0</ele><time>2026-04-07T15:23:47.999Z</time></trkpt><trkpt lat="33.94537990331077" lon="8.044247928988433"><ele>51.0</ele><time>2026-04-07T15:23:48.999Z</time></trkpt><trkpt lat="33.94537977967328" lon="8.044435919587002"><ele>50.66666666666667</ele><time>2026-04-07T15:23:49.999Z</time></trkpt><trkpt lat="33.945386037418935" lon="8.044623971023324"><ele>50.333333333333336</ele><time>2026-04-07T15:23:50.999Z</time></trkpt><trkpt lat="33.94538919926469" lon="8.044806245571145"><ele>50.0</ele><time>2026-04-07T15:23:51.999Z</time></trkpt><trkpt lat="33.945394528195074" lon="8.044985300829426"><ele>50.0</ele><time>2026-04-07T15:23:52.999Z</time></trkpt><trkpt lat="33.94539977305835" lon="8.04516445437802"><ele>50.0</ele><time>2026-04-07T15:23:53.999Z</time></trkpt><trkpt lat="33.94541864775585" lon="8.045344019523036"><ele>50.0</ele><time>2026-04-07T15:23:54.999Z</time></trkpt><trkpt lat="33.94544588307971" lon="8.045524668258597"><ele>50.0</ele><time>2026-04-07T15:23:55.999Z</time></trkpt><trkpt lat="33.945476302673356" lon="8.045703010064528"><ele>50.0</ele><time>2026-04-07T15:23:56.999Z</time></trkpt><trkpt lat="33.945513164618156" lon="8.045885038110832"><ele>50.0</ele><time>2026-04-07T15:23:57.999Z</time></trkpt><trkpt lat="33.94556647473084" lon="8.046063892360392"><ele>49.66666666666667</ele><time>2026-04-07T15:23:58.999Z</time></trkpt><trkpt lat="33.945629191299076" lon="8.04623859690628"><ele>49.33333333333333</ele><time>2026-04-07T15:23:59.999Z</time></trkpt><trkpt lat="33.945700137845684" lon="8.046412453333387"><ele>49.0</ele><time>2026-04-07T15:24:00.999Z</time></trkpt><trkpt lat="33.945766919341004" lon="8.046590791966821"><ele>49.33333333333333</ele><time>2026-04-07T15:24:01.999Z</time></trkpt><trkpt lat="33.94582884140526" lon="8.046768838080851"><ele>49.66666666666667</ele><time>2026-04-07T15:24:02.999Z</time></trkpt><trkpt lat="33.9458877566173" lon="8.046945262934454"><ele>50.0</ele><time>2026-04-07T15:24:03.999Z</time></trkpt><trkpt lat="33.945944669872674" lon="8.047123847824832"><ele>49.66666666666667</ele><time>2026-04-07T15:24:04.999Z</time></trkpt><trkpt lat="33.945993379872114" lon="8.047306358743109"><ele>49.33333333333333</ele><time>2026-04-07T15:24:05.999Z</time></trkpt><trkpt lat="33.94603078332601" lon="8.047493119787676"><ele>49.0</ele><time>2026-04-07T15:24:06.999Z</time></trkpt><trkpt lat="33.946058835319384" lon="8.047686766070857"><ele>49.0</ele><time>2026-04-07T15:24:07.999Z</time></trkpt><trkpt lat="33.946085044722174" lon="8.047882567266402"><ele>49.0</ele><time>2026-04-07T15:24:08.999Z</time></trkpt><trkpt lat="33.946097209640016" lon="8.048079673333461"><ele>49.0</ele><time>2026-04-07T15:24:09.999Z</time></trkpt><trkpt lat="33.9461093059007" lon="8.048280579696495"><ele>49.666666666666664</ele><time>2026-04-07T15:24:10.999Z</time></trkpt><trkpt lat="33.94612069827522" lon="8.048482590665188"><ele>50.33333333333333</ele><time>2026-04-07T15:24:11.999Z</time></trkpt><trkpt lat="33.946129360612524" lon="8.048686416074215"><ele>51.0</ele><time>2026-04-07T15:24:12.999Z</time></trkpt><trkpt lat="33.94613855671747" lon="8.048892646509758"><ele>51.0</ele><time>2026-04-07T15:24:13.999Z</time></trkpt><trkpt lat="33.94614794982019" lon="8.049098142184116"><ele>51.0</ele><time>2026-04-07T15:24:14.999Z</time></trkpt><trkpt lat="33.946156324701626" lon="8.049303152199542"><ele>51.0</ele><time>2026-04-07T15:24:15.999Z</time></trkpt><trkpt lat="33.94616436532229" lon="8.049509262227804"><ele>50.0</ele><time>2026-04-07T15:24:16.999Z</time></trkpt><trkpt lat="33.94617249624289" lon="8.049714992704189"><ele>49.0</ele><time>2026-04-07T15:24:17.999Z</time></trkpt><trkpt lat="33.94618158327682" lon="8.04991961094712"><ele>48.0</ele><time>2026-04-07T15:24:18.999Z</time></trkpt><trkpt lat="33.94619046249361" lon="8.050123903015008"><ele>48.0</ele><time>2026-04-07T15:24:19.999Z</time></trkpt><trkpt lat="33.946200395981386" lon="8.05032721984229"><ele>48.0</ele><time>2026-04-07T15:24:20.999Z</time></trkpt><trkpt lat="33.946209071161114" lon="8.050530684949765"><ele>48.0</ele><time>2026-04-07T15:24:21.999Z</time></trkpt><trkpt lat="33.94621818729894" lon="8.050732427748965"><ele>48.66666666666667</ele><time>2026-04-07T15:24:22.999Z</time></trkpt><trkpt lat="33.946227372013254" lon="8.050935694765675"><ele>49.333333333333336</ele><time>2026-04-07T15:24:23.999Z</time></trkpt><trkpt lat="33.94623950500865" lon="8.051138360891276"><ele>50.0</ele><time>2026-04-07T15:24:24.999Z</time></trkpt><trkpt lat="33.946252233148336" lon="8.051340301517788"><ele>50.0</ele><time>2026-04-07T15:24:25.999Z</time></trkpt><trkpt lat="33.9462770274862" lon="8.051538525161865"><ele>50.0</ele><time>2026-04-07T15:24:26.999Z</time></trkpt><trkpt lat="33.94631426066327" lon="8.051732301115576"><ele>50.0</ele><time>2026-04-07T15:24:27.999Z</time></trkpt><trkpt lat="33.94635360111643" lon="8.05192275808004"><ele>50.0</ele><time>2026-04-07T15:24:28.999Z</time></trkpt><trkpt lat="33.94639833826415" lon="8.05211702580972"><ele>50.0</ele><time>2026-04-07T15:24:29.999Z</time></trkpt><trkpt lat="33.946471774436894" lon="8.052294017758058"><ele>50.0</ele><time>2026-04-07T15:24:30.999Z</time></trkpt><trkpt lat="33.94654728289403" lon="8.052460704967094"><ele>50.0</ele><time>2026-04-07T15:24:31.999Z</time></trkpt><trkpt lat="33.94663781133541" lon="8.052613199482101"><ele>50.0</ele><time>2026-04-07T15:24:32.999Z</time></trkpt><trkpt lat="33.94672837927599" lon="8.052770690458047"><ele>50.0</ele><time>2026-04-07T15:24:33.999Z</time></trkpt><trkpt lat="33.94682860858108" lon="8.052917880813899"><ele>50.0</ele><time>2026-04-07T15:24:34.999Z</time></trkpt><trkpt lat="33.94693634610448" lon="8.053055548204409"><ele>50.0</ele><time>2026-04-07T15:24:35.999Z</time></trkpt><trkpt lat="33.94705137334582" lon="8.053184448535468"><ele>50.0</ele><time>2026-04-07T15:24:36.999Z</time></trkpt><trkpt lat="33.94716582466009" lon="8.053314128453541"><ele>50.0</ele><time>2026-04-07T15:24:37.999Z</time></trkpt><trkpt lat="33.94728563633223" lon="8.053433668863033"><ele>50.0</ele><time>2026-04-07T15:24:38.999Z</time></trkpt><trkpt lat="33.947407626320334" lon="8.053540390267546"><ele>50.0</ele><time>2026-04-07T15:24:39.999Z</time></trkpt><trkpt lat="33.947534638818254" lon="8.053635955906039"><ele>49.333333333333336</ele><time>2026-04-07T15:24:40.999Z</time></trkpt><trkpt lat="33.94766367959925" lon="8.05372809185587"><ele>48.66666666666667</ele><time>2026-04-07T15:24:41.999Z</time></trkpt><trkpt lat="33.94779887198757" lon="8.053810316298941"><ele>48.0</ele><time>2026-04-07T15:24:42.999Z</time></trkpt><trkpt lat="33.94793821763518" lon="8.05388003770025"><ele>48.0</ele><time>2026-04-07T15:24:43.999Z</time></trkpt><trkpt lat="33.94808000979377" lon="8.053937943559365"><ele>48.0</ele><time>2026-04-07T15:24:44.999Z</time></trkpt><trkpt lat="33.948224796585826" lon="8.054000755362852"><ele>48.0</ele><time>2026-04-07T15:24:45.999Z</time></trkpt><trkpt lat="33.948371583396174" lon="8.054050119377695"><ele>47.666666666666664</ele><time>2026-04-07T15:24:46.999Z</time></trkpt><trkpt lat="33.94852253697438" lon="8.05408664980455"><ele>47.33333333333333</ele><time>2026-04-07T15:24:47.999Z</time></trkpt><trkpt lat="33.94867697177969" lon="8.05411495228981"><ele>47.0</ele><time>2026-04-07T15:24:48.999Z</time></trkpt><trkpt lat="33.948834755264414" lon="8.054123590522911"><ele>46.33333333333333</ele><time>2026-04-07T15:24:49.999Z</time></trkpt><trkpt lat="33.94899321641656" lon="8.054118489558116"><ele>45.666666666666664</ele><time>2026-04-07T15:24:50.999Z</time></trkpt><trkpt lat="33.949152576135205" lon="8.054106172538267"><ele>45.0</ele><time>2026-04-07T15:24:51.999Z</time></trkpt><trkpt lat="33.949312687581205" lon="8.054089989065895"><ele>44.333333333333336</ele><time>2026-04-07T15:24:52.999Z</time></trkpt><trkpt lat="33.94947648532846" lon="8.054066285059179"><ele>43.66666666666667</ele><time>2026-04-07T15:24:53.999Z</time></trkpt><trkpt lat="33.949639384525035" lon="8.054040780842355"><ele>43.0</ele><time>2026-04-07T15:24:54.999Z</time></trkpt><trkpt lat="33.94980165353861" lon="8.054010801995654"><ele>43.0</ele><time>2026-04-07T15:24:55.999Z</time></trkpt><trkpt lat="33.94996330196555" lon="8.053971709264061"><ele>43.0</ele><time>2026-04-07T15:24:56.999Z</time></trkpt><trkpt lat="33.9501253073466" lon="8.053935556325248"><ele>43.0</ele><time>2026-04-07T15:24:57.999Z</time></trkpt><trkpt lat="33.95028697204092" lon="8.053892168169561"><ele>42.66666666666667</ele><time>2026-04-07T15:24:58.999Z</time></trkpt><trkpt lat="33.950443328545624" lon="8.053850989085012"><ele>42.333333333333336</ele><time>2026-04-07T15:24:59.999Z</time></trkpt><trkpt lat="33.95059840724044" lon="8.053818855156335"><ele>42.0</ele><time>2026-04-07T15:25:00.999Z</time></trkpt><trkpt lat="33.95074983766305" lon="8.053785708667732"><ele>41.666666666666664</ele><time>2026-04-07T15:25:01.999Z</time></trkpt><trkpt lat="33.95089965037714" lon="8.053759469547426"><ele>41.33333333333333</ele><time>2026-04-07T15:25:02.999Z</time></trkpt><trkpt lat="33.9510486968849" lon="8.053747220021528"><ele>41.0</ele><time>2026-04-07T15:25:03.999Z</time></trkpt><trkpt lat="33.95119825767556" lon="8.053746494626553"><ele>41.0</ele><time>2026-04-07T15:25:04.999Z</time></trkpt><trkpt lat="33.95134606289283" lon="8.053768133697371"><ele>41.0</ele><time>2026-04-07T15:25:05.999Z</time></trkpt><trkpt lat="33.95149326860089" lon="8.053815851031818"><ele>41.0</ele><time>2026-04-07T15:25:06.999Z</time></trkpt><trkpt lat="33.95163761228794" lon="8.053880344554564"><ele>40.33333333333333</ele><time>2026-04-07T15:25:07.999Z</time></trkpt><trkpt lat="33.95177223142806" lon="8.053969081219133"><ele>39.666666666666664</ele><time>2026-04-07T15:25:08.999Z</time></trkpt><trkpt lat="33.95189635711193" lon="8.05407243773012"><ele>39.0</ele><time>2026-04-07T15:25:09.999Z</time></trkpt><trkpt lat="33.95201027664157" lon="8.05419990741547"><ele>39.0</ele><time>2026-04-07T15:25:10.999Z</time></trkpt><trkpt lat="33.95210744363477" lon="8.054355880466188"><ele>39.0</ele><time>2026-04-07T15:25:11.999Z</time></trkpt><trkpt lat="33.95218301439848" lon="8.054551624128969"><ele>39.0</ele><time>2026-04-07T15:25:12.999Z</time></trkpt><trkpt lat="33.95225469271612" lon="8.054743661955257"><ele>39.0</ele><time>2026-04-07T15:25:13.999Z</time></trkpt><trkpt lat="33.95232776270095" lon="8.05493608866935"><ele>39.0</ele><time>2026-04-07T15:25:14.999Z</time></trkpt><trkpt lat="33.952401147105434" lon="8.055129265700758"><ele>39.0</ele><time>2026-04-07T15:25:15.999Z</time></trkpt><trkpt lat="33.952477477924155" lon="8.055324450421246"><ele>39.333333333333336</ele><time>2026-04-07T15:25:16.999Z</time></trkpt><trkpt lat="33.952554586226825" lon="8.055521458747268"><ele>39.66666666666667</ele><time>2026-04-07T15:25:17.999Z</time></trkpt><trkpt lat="33.95262913775101" lon="8.055721420493844"><ele>40.0</ele><time>2026-04-07T15:25:18.999Z</time></trkpt><trkpt lat="33.95270439638943" lon="8.05591909659373"><ele>40.333333333333336</ele><time>2026-04-07T15:25:19.999Z</time></trkpt><trkpt lat="33.95278023599603" lon="8.056115807106167"><ele>40.666666666666664</ele><time>2026-04-07T15:25:20.999Z</time></trkpt><trkpt lat="33.95285636912311" lon="8.05631155519244"><ele>41.0</ele><time>2026-04-07T15:25:21.999Z</time></trkpt><trkpt lat="33.95293138178867" lon="8.056507652263864"><ele>40.0</ele><time>2026-04-07T15:25:22.999Z</time></trkpt><trkpt lat="33.953006994153846" lon="8.056703076781947"><ele>39.0</ele><time>2026-04-07T15:25:23.999Z</time></trkpt><trkpt lat="33.953087697214556" lon="8.056895998088452"><ele>38.0</ele><time>2026-04-07T15:25:24.999Z</time></trkpt><trkpt lat="33.95316504487448" lon="8.057090611182057"><ele>38.0</ele><time>2026-04-07T15:25:25.999Z</time></trkpt><trkpt lat="33.95324216376314" lon="8.057286860717419"><ele>38.0</ele><time>2026-04-07T15:25:26.999Z</time></trkpt><trkpt lat="33.953319992637574" lon="8.057482300317847"><ele>38.0</ele><time>2026-04-07T15:25:27.999Z</time></trkpt><trkpt lat="33.95339521686558" lon="8.057679322741922"><ele>37.33333333333333</ele><time>2026-04-07T15:25:28.999Z</time></trkpt><trkpt lat="33.95347216807308" lon="8.057875462403228"><ele>36.666666666666664</ele><time>2026-04-07T15:25:29.999Z</time></trkpt><trkpt lat="33.95354841539266" lon="8.058071132259528"><ele>36.0</ele><time>2026-04-07T15:25:30.999Z</time></trkpt><trkpt lat="33.953624995020725" lon="8.058266740514416"><ele>37.0</ele><time>2026-04-07T15:25:31.999Z</time></trkpt><trkpt lat="33.95370218808643" lon="8.058461150305916"><ele>38.0</ele><time>2026-04-07T15:25:32.999Z</time></trkpt><trkpt lat="33.953777325926076" lon="8.058659229748036"><ele>39.0</ele><time>2026-04-07T15:25:33.999Z</time></trkpt><trkpt lat="33.953855441211175" lon="8.058853474481946"><ele>39.0</ele><time>2026-04-07T15:25:34.999Z</time></trkpt><trkpt lat="33.953933307902226" lon="8.059048949619246"><ele>39.0</ele><time>2026-04-07T15:25:35.999Z</time></trkpt><trkpt lat="33.954008498354675" lon="8.059243403588605"><ele>39.0</ele><time>2026-04-07T15:25:36.999Z</time></trkpt><trkpt lat="33.95408903592981" lon="8.059437641188213"><ele>39.0</ele><time>2026-04-07T15:25:37.999Z</time></trkpt><trkpt lat="33.95416523323687" lon="8.059638450998438"><ele>39.0</ele><time>2026-04-07T15:25:38.999Z</time></trkpt><trkpt lat="33.95424325978988" lon="8.059835331111945"><ele>39.0</ele><time>2026-04-07T15:25:39.999Z</time></trkpt><trkpt lat="33.954316229191114" lon="8.060034704390507"><ele>39.0</ele><time>2026-04-07T15:25:40.999Z</time></trkpt><trkpt lat="33.95438710869399" lon="8.06023014371337"><ele>39.0</ele><time>2026-04-07T15:25:41.999Z</time></trkpt><trkpt lat="33.954458244738085" lon="8.060423156380468"><ele>39.0</ele><time>2026-04-07T15:25:42.999Z</time></trkpt><trkpt lat="33.95452853674988" lon="8.060612559523205"><ele>39.0</ele><time>2026-04-07T15:25:43.999Z</time></trkpt><trkpt lat="33.95459972665586" lon="8.060815906429875"><ele>39.0</ele><time>2026-04-07T15:25:44.999Z</time></trkpt><trkpt lat="33.954688882831306" lon="8.060982939298563"><ele>39.0</ele><time>2026-04-07T15:25:45.999Z</time></trkpt><trkpt lat="33.95476964336418" lon="8.061176627940492"><ele>39.0</ele><time>2026-04-07T15:25:46.999Z</time></trkpt><trkpt lat="33.954844611282496" lon="8.061376291978906"><ele>39.0</ele><time>2026-04-07T15:25:47.999Z</time></trkpt><trkpt lat="33.954929085435154" lon="8.061567522598612"><ele>39.0</ele><time>2026-04-07T15:25:48.999Z</time></trkpt><trkpt lat="33.955026229970976" lon="8.061763563667922"><ele>38.666666666666664</ele><time>2026-04-07T15:25:49.999Z</time></trkpt><trkpt lat="33.95514219575918" lon="8.06195706666006"><ele>38.33333333333333</ele><time>2026-04-07T15:25:50.999Z</time></trkpt><trkpt lat="33.95524268728889" lon="8.062159510612616"><ele>38.0</ele><time>2026-04-07T15:25:51.999Z</time></trkpt><trkpt lat="33.95531830961828" lon="8.062389441963985"><ele>38.33333333333333</ele><time>2026-04-07T15:25:52.999Z</time></trkpt><trkpt lat="33.95543094788347" lon="8.062598432162146"><ele>38.666666666666664</ele><time>2026-04-07T15:25:53.999Z</time></trkpt><trkpt lat="33.955541749964915" lon="8.062801950193387"><ele>39.0</ele><time>2026-04-07T15:25:54.999Z</time></trkpt><trkpt lat="33.955622106074834" lon="8.063019577574886"><ele>39.0</ele><time>2026-04-07T15:25:55.999Z</time></trkpt><trkpt lat="33.95568182665313" lon="8.06323748654278"><ele>39.0</ele><time>2026-04-07T15:25:56.999Z</time></trkpt><trkpt lat="33.95576142295536" lon="8.063450886573277"><ele>39.0</ele><time>2026-04-07T15:25:57.999Z</time></trkpt><trkpt lat="33.955829817174745" lon="8.063675799585274"><ele>38.0</ele><time>2026-04-07T15:25:58.999Z</time></trkpt><trkpt lat="33.95589864050164" lon="8.0639163747467"><ele>37.0</ele><time>2026-04-07T15:25:59.999Z</time></trkpt><trkpt lat="33.95598634092518" lon="8.06412771675822"><ele>36.0</ele><time>2026-04-07T15:26:00.999Z</time></trkpt><trkpt lat="33.956071762695814" lon="8.064328188981788"><ele>36.0</ele><time>2026-04-07T15:26:01.999Z</time></trkpt><trkpt lat="33.9561656432541" lon="8.064483986137878"><ele>36.0</ele><time>2026-04-07T15:26:02.999Z</time></trkpt><trkpt lat="33.95627471262311" lon="8.064579648979457"><ele>36.0</ele><time>2026-04-07T15:26:03.999Z</time></trkpt><trkpt lat="33.956369636537396" lon="8.064718524615094"><ele>36.0</ele><time>2026-04-07T15:26:04.999Z</time></trkpt><trkpt lat="33.956448827394354" lon="8.064884324708661"><ele>36.666666666666664</ele><time>2026-04-07T15:26:05.999Z</time></trkpt><trkpt lat="33.9565260381273" lon="8.065036923639118"><ele>37.33333333333333</ele><time>2026-04-07T15:26:06.999Z</time></trkpt><trkpt lat="33.95659843055818" lon="8.065205364738764"><ele>38.0</ele><time>2026-04-07T15:26:07.999Z</time></trkpt><trkpt lat="33.95667969698303" lon="8.06537962538663"><ele>37.666666666666664</ele><time>2026-04-07T15:26:08.999Z</time></trkpt><trkpt lat="33.95676123932459" lon="8.065555751581472"><ele>37.333333333333336</ele><time>2026-04-07T15:26:09.999Z</time></trkpt><trkpt lat="33.956894809968745" lon="8.065688276900714"><ele>37.0</ele><time>2026-04-07T15:26:10.999Z</time></trkpt><trkpt lat="33.95701774091785" lon="8.065822921250119"><ele>37.0</ele><time>2026-04-07T15:26:11.999Z</time></trkpt><trkpt lat="33.95710242947398" lon="8.06596841999546"><ele>37.0</ele><time>2026-04-07T15:26:12.999Z</time></trkpt><trkpt lat="33.95719190819498" lon="8.066114942728552"><ele>37.0</ele><time>2026-04-07T15:26:13.999Z</time></trkpt><trkpt lat="33.95726242081077" lon="8.066286043037012"><ele>37.0</ele><time>2026-04-07T15:26:14.999Z</time></trkpt><trkpt lat="33.95736944408208" lon="8.066447881664901"><ele>37.0</ele><time>2026-04-07T15:26:15.999Z</time></trkpt><trkpt lat="33.9574533789116" lon="8.066610281644744"><ele>37.0</ele><time>2026-04-07T15:26:16.999Z</time></trkpt><trkpt lat="33.95753121881074" lon="8.06678648915788"><ele>35.66666666666667</ele><time>2026-04-07T15:26:17.999Z</time></trkpt><trkpt lat="33.95762170542303" lon="8.066959421683435"><ele>34.333333333333336</ele><time>2026-04-07T15:26:18.999Z</time></trkpt><trkpt lat="33.95770361694281" lon="8.0671330017882"><ele>33.0</ele><time>2026-04-07T15:26:19.999Z</time></trkpt><trkpt lat="33.95778430682401" lon="8.067307233613601"><ele>33.333333333333336</ele><time>2026-04-07T15:26:20.999Z</time></trkpt><trkpt lat="33.957865068163876" lon="8.067481466320405"><ele>33.66666666666667</ele><time>2026-04-07T15:26:21.999Z</time></trkpt><trkpt lat="33.95795266783627" lon="8.0676411838119"><ele>34.0</ele><time>2026-04-07T15:26:22.999Z</time></trkpt><trkpt lat="33.95800384466391" lon="8.067824672796267"><ele>34.0</ele><time>2026-04-07T15:26:23.999Z</time></trkpt><trkpt lat="33.95806701433654" lon="8.067999335242186"><ele>34.0</ele><time>2026-04-07T15:26:24.999Z</time></trkpt><trkpt lat="33.958103837366366" lon="8.068195261625982"><ele>34.0</ele><time>2026-04-07T15:26:25.999Z</time></trkpt><trkpt lat="33.958131702283815" lon="8.068416861137244"><ele>34.66666666666667</ele><time>2026-04-07T15:26:26.999Z</time></trkpt><trkpt lat="33.958160853235476" lon="8.068611357956465"><ele>35.333333333333336</ele><time>2026-04-07T15:26:27.999Z</time></trkpt><trkpt lat="33.9582464316836" lon="8.068789356377865"><ele>36.0</ele><time>2026-04-07T15:26:28.999Z</time></trkpt><trkpt lat="33.95828473321376" lon="8.068966124888773"><ele>35.333333333333336</ele><time>2026-04-07T15:26:29.999Z</time></trkpt><trkpt lat="33.95834151568043" lon="8.069148424332962"><ele>34.66666666666667</ele><time>2026-04-07T15:26:30.999Z</time></trkpt><trkpt lat="33.95840064089961" lon="8.069326297289024"><ele>34.0</ele><time>2026-04-07T15:26:31.999Z</time></trkpt><trkpt lat="33.95846799894756" lon="8.069504113135778"><ele>34.0</ele><time>2026-04-07T15:26:32.999Z</time></trkpt><trkpt lat="33.95853889208125" lon="8.06967685695335"><ele>34.0</ele><time>2026-04-07T15:26:33.999Z</time></trkpt><trkpt lat="33.95861157153844" lon="8.06985306850763"><ele>34.0</ele><time>2026-04-07T15:26:34.999Z</time></trkpt><trkpt lat="33.95869161327778" lon="8.07003033694124"><ele>34.0</ele><time>2026-04-07T15:26:35.999Z</time></trkpt><trkpt lat="33.958770545306216" lon="8.070205025112049"><ele>34.0</ele><time>2026-04-07T15:26:36.999Z</time></trkpt><trkpt lat="33.95885228344566" lon="8.070379317892025"><ele>34.0</ele><time>2026-04-07T15:26:37.999Z</time></trkpt><trkpt lat="33.95893594236991" lon="8.070551332211808"><ele>34.0</ele><time>2026-04-07T15:26:38.999Z</time></trkpt><trkpt lat="33.95901840659945" lon="8.070729270700856"><ele>34.0</ele><time>2026-04-07T15:26:39.999Z</time></trkpt><trkpt lat="33.95910012052546" lon="8.070903490945895"><ele>34.0</ele><time>2026-04-07T15:26:40.999Z</time></trkpt><trkpt lat="33.95918587996597" lon="8.071081999651899"><ele>33.66666666666667</ele><time>2026-04-07T15:26:41.999Z</time></trkpt><trkpt lat="33.9592639819816" lon="8.071266369844183"><ele>33.333333333333336</ele><time>2026-04-07T15:26:42.999Z</time></trkpt><trkpt lat="33.95932628808039" lon="8.071457565181285"><ele>33.0</ele><time>2026-04-07T15:26:43.999Z</time></trkpt><trkpt lat="33.95939438834119" lon="8.07165893254876"><ele>32.333333333333336</ele><time>2026-04-07T15:26:44.999Z</time></trkpt><trkpt lat="33.9594710917015" lon="8.07185403703672"><ele>31.666666666666668</ele><time>2026-04-07T15:26:45.999Z</time></trkpt><trkpt lat="33.95955093416591" lon="8.072046192260084"><ele>31.0</ele><time>2026-04-07T15:26:46.999Z</time></trkpt><trkpt lat="33.95963275643592" lon="8.07222457230258"><ele>31.0</ele><time>2026-04-07T15:26:47.999Z</time></trkpt><trkpt lat="33.95970758865667" lon="8.07241523154276"><ele>31.0</ele><time>2026-04-07T15:26:48.999Z</time></trkpt><trkpt lat="33.95978665693281" lon="8.072603214029346"><ele>31.0</ele><time>2026-04-07T15:26:49.999Z</time></trkpt><trkpt lat="33.9598674133856" lon="8.072789988744862"><ele>30.666666666666668</ele><time>2026-04-07T15:26:50.999Z</time></trkpt><trkpt lat="33.95993015752352" lon="8.072981895253552"><ele>30.333333333333336</ele><time>2026-04-07T15:26:51.999Z</time></trkpt><trkpt lat="33.95998454149531" lon="8.07317848957318"><ele>30.0</ele><time>2026-04-07T15:26:52.999Z</time></trkpt><trkpt lat="33.96004414081193" lon="8.073376518443919"><ele>31.0</ele><time>2026-04-07T15:26:53.999Z</time></trkpt><trkpt lat="33.960117461097866" lon="8.07356450891142"><ele>32.0</ele><time>2026-04-07T15:26:54.999Z</time></trkpt><trkpt lat="33.96019224819042" lon="8.073751239369377"><ele>33.0</ele><time>2026-04-07T15:26:55.999Z</time></trkpt><trkpt lat="33.960266587442675" lon="8.073938669472927"><ele>32.333333333333336</ele><time>2026-04-07T15:26:56.999Z</time></trkpt><trkpt lat="33.96034268075278" lon="8.074124221694822"><ele>31.666666666666668</ele><time>2026-04-07T15:26:57.999Z</time></trkpt><trkpt lat="33.9604215689418" lon="8.074307303559227"><ele>31.0</ele><time>2026-04-07T15:26:58.999Z</time></trkpt><trkpt lat="33.96049994337753" lon="8.07448732856857"><ele>31.0</ele><time>2026-04-07T15:26:59.999Z</time></trkpt><trkpt lat="33.960579062212055" lon="8.074662956014361"><ele>31.0</ele><time>2026-04-07T15:27:00.999Z</time></trkpt><trkpt lat="33.960657365041115" lon="8.074838998077098"><ele>31.0</ele><time>2026-04-07T15:27:01.999Z</time></trkpt><trkpt lat="33.960735442878516" lon="8.075016342142236"><ele>32.0</ele><time>2026-04-07T15:27:02.999Z</time></trkpt><trkpt lat="33.960813130208244" lon="8.07519363246584"><ele>33.0</ele><time>2026-04-07T15:27:03.999Z</time></trkpt><trkpt lat="33.960892186346015" lon="8.075371848406398"><ele>34.0</ele><time>2026-04-07T15:27:04.999Z</time></trkpt><trkpt lat="33.960971583212704" lon="8.075550221202265"><ele>34.0</ele><time>2026-04-07T15:27:05.999Z</time></trkpt><trkpt lat="33.96105021820377" lon="8.075728996913083"><ele>34.0</ele><time>2026-04-07T15:27:06.999Z</time></trkpt><trkpt lat="33.96112953179799" lon="8.075907314232483"><ele>34.0</ele><time>2026-04-07T15:27:07.999Z</time></trkpt><trkpt lat="33.96120993586585" lon="8.076086031983165"><ele>33.66666666666667</ele><time>2026-04-07T15:27:08.999Z</time></trkpt><trkpt lat="33.96128997372642" lon="8.076264843766085"><ele>33.333333333333336</ele><time>2026-04-07T15:27:09.999Z</time></trkpt><trkpt lat="33.961367900832144" lon="8.076445902012253"><ele>33.0</ele><time>2026-04-07T15:27:10.999Z</time></trkpt><trkpt lat="33.96144362067748" lon="8.076629930937827"><ele>32.666666666666664</ele><time>2026-04-07T15:27:11.999Z</time></trkpt><trkpt lat="33.96151741526869" lon="8.076812696967844"><ele>32.33333333333333</ele><time>2026-04-07T15:27:12.999Z</time></trkpt><trkpt lat="33.961590792060846" lon="8.07699650578222"><ele>32.0</ele><time>2026-04-07T15:27:13.999Z</time></trkpt><trkpt lat="33.96166301636661" lon="8.077182395587913"><ele>31.666666666666664</ele><time>2026-04-07T15:27:14.999Z</time></trkpt><trkpt lat="33.961734828537594" lon="8.077369541717944"><ele>31.333333333333336</ele><time>2026-04-07T15:27:15.999Z</time></trkpt><trkpt lat="33.96180890445409" lon="8.077557394180278"><ele>31.0</ele><time>2026-04-07T15:27:16.999Z</time></trkpt><trkpt lat="33.961878636478524" lon="8.07774808754343"><ele>31.0</ele><time>2026-04-07T15:27:17.999Z</time></trkpt><trkpt lat="33.961949089730446" lon="8.077938915117324"><ele>31.0</ele><time>2026-04-07T15:27:18.999Z</time></trkpt><trkpt lat="33.96202131537301" lon="8.078130556388663"><ele>31.0</ele><time>2026-04-07T15:27:19.999Z</time></trkpt><trkpt lat="33.96209463069655" lon="8.07832024016944"><ele>30.666666666666668</ele><time>2026-04-07T15:27:20.999Z</time></trkpt><trkpt lat="33.962167161473864" lon="8.078514408211628"><ele>30.333333333333336</ele><time>2026-04-07T15:27:21.999Z</time></trkpt><trkpt lat="33.962239461952294" lon="8.07870855148389"><ele>30.0</ele><time>2026-04-07T15:27:22.999Z</time></trkpt><trkpt lat="33.96231636038644" lon="8.078899821957785"><ele>30.0</ele><time>2026-04-07T15:27:23.999Z</time></trkpt><trkpt lat="33.962394416993945" lon="8.079088797187781"><ele>30.0</ele><time>2026-04-07T15:27:24.999Z</time></trkpt><trkpt lat="33.96247077116921" lon="8.079279400557185"><ele>30.0</ele><time>2026-04-07T15:27:25.999Z</time></trkpt><trkpt lat="33.96254072665417" lon="8.079469828398196"><ele>31.333333333333336</ele><time>2026-04-07T15:27:26.999Z</time></trkpt><trkpt lat="33.96261411007505" lon="8.079663616455818"><ele>32.66666666666667</ele><time>2026-04-07T15:27:27.999Z</time></trkpt><trkpt lat="33.96269496005093" lon="8.07985224056926"><ele>34.0</ele><time>2026-04-07T15:27:28.999Z</time></trkpt><trkpt lat="33.962770919146195" lon="8.080042619577247"><ele>34.333333333333336</ele><time>2026-04-07T15:27:29.999Z</time></trkpt><trkpt lat="33.96284764276071" lon="8.08023237576539"><ele>34.666666666666664</ele><time>2026-04-07T15:27:30.999Z</time></trkpt><trkpt lat="33.96292410780838" lon="8.08042135332485"><ele>35.0</ele><time>2026-04-07T15:27:31.999Z</time></trkpt><trkpt lat="33.9629998267595" lon="8.080610131643978"><ele>34.33333333333333</ele><time>2026-04-07T15:27:32.999Z</time></trkpt><trkpt lat="33.9630768044453" lon="8.080795991155279"><ele>33.666666666666664</ele><time>2026-04-07T15:27:33.999Z</time></trkpt><trkpt lat="33.963151681626535" lon="8.080982793934792"><ele>33.0</ele><time>2026-04-07T15:27:34.999Z</time></trkpt><trkpt lat="33.96322799482319" lon="8.081171875908415"><ele>33.0</ele><time>2026-04-07T15:27:35.999Z</time></trkpt><trkpt lat="33.96330665104108" lon="8.081359702881954"><ele>33.0</ele><time>2026-04-07T15:27:36.999Z</time></trkpt><trkpt lat="33.96338443911491" lon="8.081550110664566"><ele>33.0</ele><time>2026-04-07T15:27:37.999Z</time></trkpt><trkpt lat="33.963463427697064" lon="8.081741215605357"><ele>32.666666666666664</ele><time>2026-04-07T15:27:38.999Z</time></trkpt><trkpt lat="33.96354404649727" lon="8.081934453316084"><ele>32.33333333333333</ele><time>2026-04-07T15:27:39.999Z</time></trkpt><trkpt lat="33.963632834971996" lon="8.08211984532478"><ele>32.0</ele><time>2026-04-07T15:27:40.999Z</time></trkpt><trkpt lat="33.963725321252355" lon="8.082302409316789"><ele>32.0</ele><time>2026-04-07T15:27:41.999Z</time></trkpt><trkpt lat="33.963820731208884" lon="8.08248316658888"><ele>32.0</ele><time>2026-04-07T15:27:42.999Z</time></trkpt><trkpt lat="33.963922872977896" lon="8.082660577647568"><ele>32.0</ele><time>2026-04-07T15:27:43.999Z</time></trkpt><trkpt lat="33.964030588290846" lon="8.08283666463881"><ele>32.0</ele><time>2026-04-07T15:27:44.999Z</time></trkpt><trkpt lat="33.96414405752647" lon="8.08301094742009"><ele>32.0</ele><time>2026-04-07T15:27:45.999Z</time></trkpt><trkpt lat="33.96425843378269" lon="8.083182664561376"><ele>32.0</ele><time>2026-04-07T15:27:46.999Z</time></trkpt><trkpt lat="33.96437925193841" lon="8.083348986530787"><ele>33.0</ele><time>2026-04-07T15:27:47.999Z</time></trkpt><trkpt lat="33.96450312812832" lon="8.083508710496423"><ele>34.0</ele><time>2026-04-07T15:27:48.999Z</time></trkpt><trkpt lat="33.96463086987714" lon="8.083668325280314"><ele>35.0</ele><time>2026-04-07T15:27:49.999Z</time></trkpt><trkpt lat="33.96477173374288" lon="8.083808963524122"><ele>35.0</ele><time>2026-04-07T15:27:50.999Z</time></trkpt><trkpt lat="33.96491247365978" lon="8.08394586058651"><ele>35.0</ele><time>2026-04-07T15:27:51.999Z</time></trkpt><trkpt lat="33.96505524033741" lon="8.084081201925054"><ele>35.0</ele><time>2026-04-07T15:27:52.999Z</time></trkpt><trkpt lat="33.96520393975713" lon="8.08420452109952"><ele>34.0</ele><time>2026-04-07T15:27:53.999Z</time></trkpt><trkpt lat="33.96535169414104" lon="8.084330528399674"><ele>33.0</ele><time>2026-04-07T15:27:54.999Z</time></trkpt><trkpt lat="33.96549788019614" lon="8.084450489981581"><ele>32.0</ele><time>2026-04-07T15:27:55.999Z</time></trkpt><trkpt lat="33.96564114910054" lon="8.084570502894037"><ele>32.0</ele><time>2026-04-07T15:27:56.999Z</time></trkpt><trkpt lat="33.96578505170363" lon="8.084688584563615"><ele>32.0</ele><time>2026-04-07T15:27:57.999Z</time></trkpt><trkpt lat="33.965921622388464" lon="8.084813713525106"><ele>32.0</ele><time>2026-04-07T15:27:58.999Z</time></trkpt><trkpt lat="33.96605598492565" lon="8.084942774427477"><ele>32.0</ele><time>2026-04-07T15:27:59.999Z</time></trkpt><trkpt lat="33.96617569063788" lon="8.085086262266845"><ele>32.0</ele><time>2026-04-07T15:28:00.999Z</time></trkpt><trkpt lat="33.96627694148497" lon="8.085248826529371"><ele>32.0</ele><time>2026-04-07T15:28:01.999Z</time></trkpt><trkpt lat="33.966363762539736" lon="8.085419218053527"><ele>32.0</ele><time>2026-04-07T15:28:02.999Z</time></trkpt><trkpt lat="33.96643913905411" lon="8.085596254958928"><ele>32.0</ele><time>2026-04-07T15:28:03.999Z</time></trkpt><trkpt lat="33.96650448324332" lon="8.085775394333524"><ele>32.0</ele><time>2026-04-07T15:28:04.999Z</time></trkpt><trkpt lat="33.96656435624615" lon="8.085953859856543"><ele>32.666666666666664</ele><time>2026-04-07T15:28:05.999Z</time></trkpt><trkpt lat="33.966617432653166" lon="8.08613169775572"><ele>33.333333333333336</ele><time>2026-04-07T15:28:06.999Z</time></trkpt><trkpt lat="33.966670020206486" lon="8.086308231602773"><ele>34.0</ele><time>2026-04-07T15:28:07.999Z</time></trkpt><trkpt lat="33.966716123363604" lon="8.08648132032199"><ele>33.5</ele><time>2026-04-07T15:28:08.999Z</time></trkpt><trkpt lat="33.966757408202966" lon="8.086650685073772"><ele>33.0</ele><time>2026-04-07T15:28:09.999Z</time></trkpt><trkpt lat="33.96679881443189" lon="8.086818578098265"><ele>32.5</ele><time>2026-04-07T15:28:10.999Z</time></trkpt><trkpt lat="33.96683847715968" lon="8.08698496926887"><ele>32.0</ele><time>2026-04-07T15:28:11.999Z</time></trkpt><trkpt lat="33.96687895679965" lon="8.087151003138683"><ele>32.0</ele><time>2026-04-07T15:28:12.999Z</time></trkpt><trkpt lat="33.9669211074798" lon="8.087317313863581"><ele>32.0</ele><time>2026-04-07T15:28:13.999Z</time></trkpt><trkpt lat="33.966962891891086" lon="8.087482684359761"><ele>32.0</ele><time>2026-04-07T15:28:14.999Z</time></trkpt><trkpt lat="33.96700591034794" lon="8.087645592691223"><ele>32.0</ele><time>2026-04-07T15:28:15.999Z</time></trkpt><trkpt lat="33.967048685667336" lon="8.087801806532571"><ele>32.25</ele><time>2026-04-07T15:28:16.999Z</time></trkpt><trkpt lat="33.96709011661892" lon="8.087954970335065"><ele>32.5</ele><time>2026-04-07T15:28:17.999Z</time></trkpt><trkpt lat="33.96712981559941" lon="8.088104420484417"><ele>32.75</ele><time>2026-04-07T15:28:18.999Z</time></trkpt><trkpt lat="33.967166922834245" lon="8.088250304920507"><ele>33.0</ele><time>2026-04-07T15:28:19.999Z</time></trkpt><trkpt lat="33.96720367269826" lon="8.088394511693776"><ele>33.5</ele><time>2026-04-07T15:28:20.999Z</time></trkpt><trkpt lat="33.96724096934345" lon="8.08853565707225"><ele>34.0</ele><time>2026-04-07T15:28:21.999Z</time></trkpt><trkpt lat="33.96727711402412" lon="8.088674893721203"><ele>34.5</ele><time>2026-04-07T15:28:22.999Z</time></trkpt><trkpt lat="33.96731166745128" lon="8.08881171953581"><ele>35.0</ele><time>2026-04-07T15:28:23.999Z</time></trkpt><trkpt lat="33.967345514225116" lon="8.088947587903162"><ele>35.0</ele><time>2026-04-07T15:28:24.999Z</time></trkpt><trkpt lat="33.967380862967815" lon="8.089081600653222"><ele>35.0</ele><time>2026-04-07T15:28:25.999Z</time></trkpt><trkpt lat="33.96741374234674" lon="8.089214642610873"><ele>35.0</ele><time>2026-04-07T15:28:26.999Z</time></trkpt><trkpt lat="33.96744671663691" lon="8.089347866914189"><ele>35.0</ele><time>2026-04-07T15:28:27.999Z</time></trkpt><trkpt lat="33.967479714518326" lon="8.089475907526069"><ele>35.2</ele><time>2026-04-07T15:28:28.999Z</time></trkpt><trkpt lat="33.96751007858089" lon="8.089602343061623"><ele>35.4</ele><time>2026-04-07T15:28:29.999Z</time></trkpt><trkpt lat="33.96754208235937" lon="8.089727647448733"><ele>35.6</ele><time>2026-04-07T15:28:30.999Z</time></trkpt><trkpt lat="33.967572785960066" lon="8.089850847819166"><ele>35.8</ele><time>2026-04-07T15:28:31.999Z</time></trkpt><trkpt lat="33.96760157539166" lon="8.089973235602322"><ele>36.0</ele><time>2026-04-07T15:28:32.999Z</time></trkpt><trkpt lat="33.967632113321514" lon="8.090093340056747"><ele>35.4</ele><time>2026-04-07T15:28:33.999Z</time></trkpt><trkpt lat="33.96766102849338" lon="8.090214993548157"><ele>34.8</ele><time>2026-04-07T15:28:34.999Z</time></trkpt><trkpt lat="33.96769344039086" lon="8.090338431150364"><ele>34.199999999999996</ele><time>2026-04-07T15:28:35.999Z</time></trkpt><trkpt lat="33.96772564106692" lon="8.090457453778404"><ele>33.6</ele><time>2026-04-07T15:28:36.999Z</time></trkpt><trkpt lat="33.96775503586178" lon="8.090577102888766"><ele>33.0</ele><time>2026-04-07T15:28:37.999Z</time></trkpt><trkpt lat="33.96778438921409" lon="8.09069634402159"><ele>33.199999999999996</ele><time>2026-04-07T15:28:38.999Z</time></trkpt><trkpt lat="33.967816056346095" lon="8.090812164299987"><ele>33.4</ele><time>2026-04-07T15:28:39.999Z</time></trkpt><trkpt lat="33.967847331290024" lon="8.090929160158996"><ele>33.599999999999994</ele><time>2026-04-07T15:28:40.999Z</time></trkpt><trkpt lat="33.96787848802178" lon="8.09104769032197"><ele>33.8</ele><time>2026-04-07T15:28:41.999Z</time></trkpt><trkpt lat="33.96790936533029" lon="8.091167928440857"><ele>34.0</ele><time>2026-04-07T15:28:42.999Z</time></trkpt><trkpt lat="33.96794077480919" lon="8.091289139924937"><ele>34.0</ele><time>2026-04-07T15:28:43.999Z</time></trkpt><trkpt lat="33.967972201339066" lon="8.091412393676876"><ele>34.0</ele><time>2026-04-07T15:28:44.999Z</time></trkpt><trkpt lat="33.968003457862594" lon="8.09153605998842"><ele>34.0</ele><time>2026-04-07T15:28:45.999Z</time></trkpt><trkpt lat="33.96803370207861" lon="8.091661917726698"><ele>34.0</ele><time>2026-04-07T15:28:46.999Z</time></trkpt><trkpt lat="33.96806607337285" lon="8.091788783164368"><ele>34.0</ele><time>2026-04-07T15:28:47.999Z</time></trkpt><trkpt lat="33.96809930694676" lon="8.091913383914795"><ele>34.2</ele><time>2026-04-07T15:28:48.999Z</time></trkpt><trkpt lat="33.96813155157254" lon="8.092038489042665"><ele>34.4</ele><time>2026-04-07T15:28:49.999Z</time></trkpt><trkpt lat="33.968165346155025" lon="8.09216461145702"><ele>34.6</ele><time>2026-04-07T15:28:50.999Z</time></trkpt><trkpt lat="33.96819692623426" lon="8.092292813540581"><ele>34.8</ele><time>2026-04-07T15:28:51.999Z</time></trkpt><trkpt lat="33.968229900923006" lon="8.092419280586657"><ele>35.0</ele><time>2026-04-07T15:28:52.999Z</time></trkpt><trkpt lat="33.968263205037886" lon="8.09254689809561"><ele>35.0</ele><time>2026-04-07T15:28:53.999Z</time></trkpt><trkpt lat="33.968295135338856" lon="8.092675625213138"><ele>35.0</ele><time>2026-04-07T15:28:54.999Z</time></trkpt><trkpt lat="33.96832806201486" lon="8.092803728829207"><ele>35.0</ele><time>2026-04-07T15:28:55.999Z</time></trkpt><trkpt lat="33.96836220263272" lon="8.092931475742317"><ele>35.0</ele><time>2026-04-07T15:28:56.999Z</time></trkpt><trkpt lat="33.968395493363126" lon="8.093059442741621"><ele>35.0</ele><time>2026-04-07T15:28:57.999Z</time></trkpt><trkpt lat="33.968428568480995" lon="8.093187182318855"><ele>34.75</ele><time>2026-04-07T15:28:58.999Z</time></trkpt><trkpt lat="33.96846153241139" lon="8.093317282605131"><ele>34.5</ele><time>2026-04-07T15:28:59.999Z</time></trkpt><trkpt lat="33.968495424906195" lon="8.09344694353439"><ele>34.25</ele><time>2026-04-07T15:29:00.999Z</time></trkpt><trkpt lat="33.968527400257116" lon="8.093576860049513"><ele>34.0</ele><time>2026-04-07T15:29:01.999Z</time></trkpt><trkpt lat="33.96856134588128" lon="8.093705717662393"><ele>34.0</ele><time>2026-04-07T15:29:02.999Z</time></trkpt><trkpt lat="33.96859248704146" lon="8.093837654544869"><ele>34.0</ele><time>2026-04-07T15:29:03.999Z</time></trkpt><trkpt lat="33.96862330478127" lon="8.093969035584005"><ele>34.0</ele><time>2026-04-07T15:29:04.999Z</time></trkpt><trkpt lat="33.96865513301557" lon="8.094097204281914"><ele>34.0</ele><time>2026-04-07T15:29:05.999Z</time></trkpt><trkpt lat="33.9686853067515" lon="8.094229216568147"><ele>34.4</ele><time>2026-04-07T15:29:06.999Z</time></trkpt><trkpt lat="33.96871743098694" lon="8.094358611573076"><ele>34.8</ele><time>2026-04-07T15:29:07.999Z</time></trkpt><trkpt lat="33.96874385716198" lon="8.094486924109288"><ele>35.2</ele><time>2026-04-07T15:29:08.999Z</time></trkpt><trkpt lat="33.96877022021454" lon="8.094612718127577"><ele>35.6</ele><time>2026-04-07T15:29:09.999Z</time></trkpt><trkpt lat="33.968792746491815" lon="8.094739292197463"><ele>36.0</ele><time>2026-04-07T15:29:10.999Z</time></trkpt><trkpt lat="33.96881340237633" lon="8.094864334632033"><ele>36.0</ele><time>2026-04-07T15:29:11.999Z</time></trkpt><trkpt lat="33.96883340370104" lon="8.094991538721974"><ele>36.0</ele><time>2026-04-07T15:29:12.999Z</time></trkpt><trkpt lat="33.968854709308836" lon="8.095125419794515"><ele>36.0</ele><time>2026-04-07T15:29:13.999Z</time></trkpt><trkpt lat="33.96887759704642" lon="8.09525784121381"><ele>36.0</ele><time>2026-04-07T15:29:14.999Z</time></trkpt><trkpt lat="33.968917657145084" lon="8.095383134691867"><ele>36.0</ele><time>2026-04-07T15:29:15.999Z</time></trkpt><trkpt lat="33.968950104484676" lon="8.095511195522583"><ele>36.0</ele><time>2026-04-07T15:29:16.999Z</time></trkpt><trkpt lat="33.968986929526864" lon="8.095637336726972"><ele>36.0</ele><time>2026-04-07T15:29:17.999Z</time></trkpt><trkpt lat="33.9690151863417" lon="8.095749742741189"><ele>36.0</ele><time>2026-04-07T15:29:18.999Z</time></trkpt><trkpt lat="33.96904080954569" lon="8.095886162847236"><ele>36.0</ele><time>2026-04-07T15:29:19.999Z</time></trkpt><trkpt lat="33.96905310456757" lon="8.095998591862882"><ele>36.0</ele><time>2026-04-07T15:29:20.999Z</time></trkpt><trkpt lat="33.969077885152466" lon="8.096095928299905"><ele>36.0</ele><time>2026-04-07T15:29:21.999Z</time></trkpt><trkpt lat="33.969096253256" lon="8.096205912494261"><ele>36.0</ele><time>2026-04-07T15:29:22.999Z</time></trkpt><trkpt lat="33.96914226451576" lon="8.096330013932963"><ele>36.0</ele><time>2026-04-07T15:29:23.999Z</time></trkpt><trkpt lat="33.96918169870664" lon="8.09642443074263"><ele>36.0</ele><time>2026-04-07T15:29:24.999Z</time></trkpt><trkpt lat="33.96920602154138" lon="8.096530332956094"><ele>36.0</ele><time>2026-04-07T15:29:25.999Z</time></trkpt><trkpt lat="33.96923085539574" lon="8.09661584191607"><ele>36.5</ele><time>2026-04-07T15:29:26.999Z</time></trkpt><trkpt lat="33.96931073043094" lon="8.096753025439115"><ele>37.0</ele><time>2026-04-07T15:29:28.999Z</time></trkpt><trkpt lat="33.969382898138136" lon="8.096755100138203"><ele>37.5</ele><time>2026-04-07T15:29:29.999Z</time></trkpt><trkpt lat="33.969402276579075" lon="8.096930611510663"><ele>38.0</ele><time>2026-04-07T15:29:30.999Z</time></trkpt><trkpt lat="33.9694587948422" lon="8.097020220940239"><ele>38.0</ele><time>2026-04-07T15:29:31.999Z</time></trkpt><trkpt lat="33.96952067660932" lon="8.097133121005188"><ele>38.0</ele><time>2026-04-07T15:29:32.999Z</time></trkpt><trkpt lat="33.969543186617805" lon="8.09724993815448"><ele>38.0</ele><time>2026-04-07T15:29:33.999Z</time></trkpt><trkpt lat="33.96960652917129" lon="8.097337276458877"><ele>38.0</ele><time>2026-04-07T15:29:35.074Z</time></trkpt><trkpt lat="33.96967740492796" lon="8.097391418270194"><ele>38.0</ele><time>2026-04-07T15:29:36.041Z</time></trkpt><trkpt lat="33.96943326429773" lon="8.09707846270507"><ele>38.0</ele><time>2026-04-07T15:29:37.039Z</time></trkpt><trkpt lat="33.96938577138332" lon="8.097159431209763"><ele>38.0</ele><time>2026-04-07T15:29:41.035Z</time></trkpt><trkpt lat="33.99346187778229" lon="8.08010591140918"><ele>27.0</ele><time>2026-04-07T15:34:08.999Z</time></trkpt><trkpt lat="33.99340704049577" lon="8.08002409961369"><ele>16.0</ele><time>2026-04-07T15:34:09.999Z</time></trkpt><trkpt lat="33.99338986203986" lon="8.079867622395067"><ele>5.0</ele><time>2026-04-07T15:34:10.999Z</time></trkpt><trkpt lat="33.993356144683865" lon="8.07971172603245"><ele>-6.0</ele><time>2026-04-07T15:34:11.999Z</time></trkpt><trkpt lat="33.9933165819362" lon="8.079551035102874"><ele>-6.666666666666666</ele><time>2026-04-07T15:34:12.999Z</time></trkpt><trkpt lat="33.99328344137287" lon="8.079412311910986"><ele>-7.333333333333333</ele><time>2026-04-07T15:34:13.998Z</time></trkpt><trkpt lat="33.99325985024653" lon="8.079262884862624"><ele>-8.0</ele><time>2026-04-07T15:34:14.998Z</time></trkpt><trkpt lat="33.99330809540576" lon="8.078909055935444"><ele>-8.0</ele><time>2026-04-07T15:34:15.998Z</time></trkpt><trkpt lat="33.9932938605203" lon="8.078729114360387"><ele>-8.0</ele><time>2026-04-07T15:34:16.998Z</time></trkpt><trkpt lat="33.993280197508895" lon="8.078546202636554"><ele>-8.0</ele><time>2026-04-07T15:34:17.998Z</time></trkpt><trkpt lat="33.9932677304035" lon="8.078361953176485"><ele>-8.0</ele><time>2026-04-07T15:34:18.998Z</time></trkpt><trkpt lat="33.99325334279661" lon="8.078176387604424"><ele>-8.0</ele><time>2026-04-07T15:34:19.998Z</time></trkpt><trkpt lat="33.99324272242294" lon="8.077994960259629"><ele>-8.0</ele><time>2026-04-07T15:34:20.998Z</time></trkpt><trkpt lat="33.993231170213704" lon="8.07781542312329"><ele>-8.0</ele><time>2026-04-07T15:34:21.998Z</time></trkpt><trkpt lat="33.99323252384766" lon="8.07764350828599"><ele>-8.0</ele><time>2026-04-07T15:34:22.998Z</time></trkpt><trkpt lat="33.99323928614821" lon="8.07747148132911"><ele>-8.0</ele><time>2026-04-07T15:34:23.998Z</time></trkpt><trkpt lat="33.993253366897704" lon="8.07729907903532"><ele>-8.0</ele><time>2026-04-07T15:34:24.998Z</time></trkpt><trkpt lat="33.99327524503242" lon="8.077122988831453"><ele>-7.75</ele><time>2026-04-07T15:34:25.998Z</time></trkpt><trkpt lat="33.993296855383804" lon="8.076947137004913"><ele>-7.5</ele><time>2026-04-07T15:34:26.998Z</time></trkpt><trkpt lat="33.99332904928407" lon="8.07677377584987"><ele>-7.25</ele><time>2026-04-07T15:34:27.999Z</time></trkpt><trkpt lat="33.99336607394423" lon="8.076598846636665"><ele>-7.0</ele><time>2026-04-07T15:34:28.999Z</time></trkpt><trkpt lat="33.993402067357735" lon="8.07642437655157"><ele>-7.0</ele><time>2026-04-07T15:34:29.999Z</time></trkpt><trkpt lat="33.99343638027402" lon="8.076243362620117"><ele>-7.0</ele><time>2026-04-07T15:34:30.999Z</time></trkpt><trkpt lat="33.993474682148886" lon="8.076061603576628"><ele>-7.0</ele><time>2026-04-07T15:34:31.999Z</time></trkpt><trkpt lat="33.993514302198456" lon="8.075881887428334"><ele>-7.333333333333334</ele><time>2026-04-07T15:34:32.999Z</time></trkpt><trkpt lat="33.99355576223727" lon="8.075703073610468"><ele>-7.666666666666666</ele><time>2026-04-07T15:34:33.999Z</time></trkpt><trkpt lat="33.99360192932382" lon="8.075523461754582"><ele>-8.0</ele><time>2026-04-07T15:34:34.999Z</time></trkpt><trkpt lat="33.99365214703587" lon="8.07534522445765"><ele>-8.0</ele><time>2026-04-07T15:34:35.999Z</time></trkpt><trkpt lat="33.993701314511654" lon="8.075170331437443"><ele>-8.0</ele><time>2026-04-07T15:34:36.999Z</time></trkpt><trkpt lat="33.99375366045002" lon="8.074994948225719"><ele>-8.0</ele><time>2026-04-07T15:34:37.999Z</time></trkpt><trkpt lat="33.99381592164651" lon="8.07482533062009"><ele>-8.333333333333332</ele><time>2026-04-07T15:34:38.999Z</time></trkpt><trkpt lat="33.99387481524933" lon="8.074650889666065"><ele>-8.666666666666666</ele><time>2026-04-07T15:34:39.999Z</time></trkpt><trkpt lat="33.993936233338474" lon="8.074478859911252"><ele>-9.0</ele><time>2026-04-07T15:34:40.999Z</time></trkpt><trkpt lat="33.99400623328555" lon="8.074312031526757"><ele>-9.0</ele><time>2026-04-07T15:34:41.999Z</time></trkpt><trkpt lat="33.994079285428015" lon="8.074141024874379"><ele>-9.0</ele><time>2026-04-07T15:34:42.999Z</time></trkpt><trkpt lat="33.99415979255432" lon="8.073972532877729"><ele>-9.0</ele><time>2026-04-07T15:34:43.999Z</time></trkpt><trkpt lat="33.99424431360307" lon="8.07380648314045"><ele>-9.0</ele><time>2026-04-07T15:34:44.999Z</time></trkpt><trkpt lat="33.99433308830181" lon="8.073647348063886"><ele>-9.0</ele><time>2026-04-07T15:34:45.999Z</time></trkpt><trkpt lat="33.99441526802104" lon="8.073488977259343"><ele>-9.0</ele><time>2026-04-07T15:34:46.999Z</time></trkpt><trkpt lat="33.994499099479334" lon="8.073337559988984"><ele>-9.0</ele><time>2026-04-07T15:34:47.999Z</time></trkpt><trkpt lat="33.994580674266665" lon="8.073184824396181"><ele>-9.0</ele><time>2026-04-07T15:34:48.999Z</time></trkpt><trkpt lat="33.99466095346507" lon="8.073033571422252"><ele>-9.0</ele><time>2026-04-07T15:34:49.999Z</time></trkpt><trkpt lat="33.99473662100442" lon="8.072885248811273"><ele>-9.0</ele><time>2026-04-07T15:34:50.999Z</time></trkpt><trkpt lat="33.994816489550566" lon="8.072741068013183"><ele>-9.0</ele><time>2026-04-07T15:34:51.999Z</time></trkpt><trkpt lat="33.99489991903492" lon="8.072600906606354"><ele>-9.0</ele><time>2026-04-07T15:34:52.999Z</time></trkpt><trkpt lat="33.99498796792403" lon="8.0724655998857"><ele>-9.0</ele><time>2026-04-07T15:34:53.999Z</time></trkpt><trkpt lat="33.995080623388134" lon="8.072329154161633"><ele>-9.0</ele><time>2026-04-07T15:34:54.999Z</time></trkpt><trkpt lat="33.99517555926824" lon="8.072194311486072"><ele>-7.75</ele><time>2026-04-07T15:34:55.999Z</time></trkpt><trkpt lat="33.995272565186816" lon="8.072064656643878"><ele>-6.5</ele><time>2026-04-07T15:34:56.999Z</time></trkpt><trkpt lat="33.99536631343304" lon="8.071930080377458"><ele>-5.25</ele><time>2026-04-07T15:34:57.999Z</time></trkpt><trkpt lat="33.99545972305697" lon="8.071802570250883"><ele>-4.0</ele><time>2026-04-07T15:34:58.999Z</time></trkpt><trkpt lat="33.99555919296494" lon="8.071683116422756"><ele>-4.25</ele><time>2026-04-07T15:34:59.999Z</time></trkpt><trkpt lat="33.99565928316295" lon="8.071572922845068"><ele>-4.5</ele><time>2026-04-07T15:35:00.999Z</time></trkpt><trkpt lat="33.99575849045609" lon="8.071466308453335"><ele>-4.75</ele><time>2026-04-07T15:35:01.999Z</time></trkpt><trkpt lat="33.99585827757949" lon="8.07136360606161"><ele>-5.0</ele><time>2026-04-07T15:35:02.999Z</time></trkpt><trkpt lat="33.99596759240101" lon="8.071268820053405"><ele>-6.25</ele><time>2026-04-07T15:35:03.999Z</time></trkpt><trkpt lat="33.996080608613774" lon="8.071179519503362"><ele>-7.5</ele><time>2026-04-07T15:35:04.999Z</time></trkpt><trkpt lat="33.996201674664235" lon="8.071096321098317"><ele>-8.75</ele><time>2026-04-07T15:35:05.999Z</time></trkpt><trkpt lat="33.996328135345884" lon="8.071015185560785"><ele>-10.0</ele><time>2026-04-07T15:35:06.999Z</time></trkpt><trkpt lat="33.99645502334577" lon="8.070927582979547"><ele>-10.0</ele><time>2026-04-07T15:35:07.999Z</time></trkpt><trkpt lat="33.99658232642269" lon="8.070834459907998"><ele>-10.0</ele><time>2026-04-07T15:35:08.999Z</time></trkpt><trkpt lat="33.996713064425144" lon="8.070750853829399"><ele>-10.0</ele><time>2026-04-07T15:35:09.999Z</time></trkpt><trkpt lat="33.99684923142544" lon="8.070675544732314"><ele>-10.0</ele><time>2026-04-07T15:35:10.999Z</time></trkpt><trkpt lat="33.996988886161915" lon="8.070608977019077"><ele>-10.75</ele><time>2026-04-07T15:35:11.999Z</time></trkpt><trkpt lat="33.99713154770988" lon="8.070545125361777"><ele>-11.5</ele><time>2026-04-07T15:35:12.999Z</time></trkpt><trkpt lat="33.99726529314345" lon="8.070475378624296"><ele>-12.25</ele><time>2026-04-07T15:35:13.999Z</time></trkpt><trkpt lat="33.99739463950948" lon="8.070402254263056"><ele>-13.0</ele><time>2026-04-07T15:35:14.999Z</time></trkpt><trkpt lat="33.99753363275587" lon="8.070339901750968"><ele>-13.25</ele><time>2026-04-07T15:35:15.999Z</time></trkpt><trkpt lat="33.99767079731734" lon="8.07026667578167"><ele>-13.5</ele><time>2026-04-07T15:35:17Z</time></trkpt><trkpt lat="33.99780658077408" lon="8.070189670846714"><ele>-13.75</ele><time>2026-04-07T15:35:18Z</time></trkpt><trkpt lat="33.99793589942837" lon="8.070121249054312"><ele>-14.0</ele><time>2026-04-07T15:35:19Z</time></trkpt><trkpt lat="33.998068276785716" lon="8.070045478587723"><ele>-14.0</ele><time>2026-04-07T15:35:20Z</time></trkpt><trkpt lat="33.998203140502284" lon="8.06996279809866"><ele>-14.0</ele><time>2026-04-07T15:35:21Z</time></trkpt><trkpt lat="33.99833547271483" lon="8.069872808899254"><ele>-14.0</ele><time>2026-04-07T15:35:22Z</time></trkpt><trkpt lat="33.998466287716376" lon="8.069774762669764"><ele>-14.0</ele><time>2026-04-07T15:35:23Z</time></trkpt><trkpt lat="33.99860047683913" lon="8.069684831639508"><ele>-14.0</ele><time>2026-04-07T15:35:24Z</time></trkpt><trkpt lat="33.99873739763838" lon="8.069589286565282"><ele>-14.0</ele><time>2026-04-07T15:35:25Z</time></trkpt><trkpt lat="33.99886612540479" lon="8.069496501535474"><ele>-14.0</ele><time>2026-04-07T15:35:26Z</time></trkpt><trkpt lat="33.99900114512431" lon="8.06940797292479"><ele>-14.0</ele><time>2026-04-07T15:35:27Z</time></trkpt><trkpt lat="33.99913067760621" lon="8.069318274826808"><ele>-14.0</ele><time>2026-04-07T15:35:28Z</time></trkpt><trkpt lat="33.99925533780785" lon="8.069227858396113"><ele>-14.0</ele><time>2026-04-07T15:35:29Z</time></trkpt><trkpt lat="33.99938556056966" lon="8.069133206276852"><ele>-13.333333333333334</ele><time>2026-04-07T15:35:30Z</time></trkpt><trkpt lat="33.99951160877443" lon="8.069030568781201"><ele>-12.666666666666668</ele><time>2026-04-07T15:35:31Z</time></trkpt><trkpt lat="33.99963132819961" lon="8.068921441688024"><ele>-12.0</ele><time>2026-04-07T15:35:32Z</time></trkpt><trkpt lat="33.999755911913816" lon="8.068799521140827"><ele>-12.0</ele><time>2026-04-07T15:35:33Z</time></trkpt><trkpt lat="33.99987691215124" lon="8.068670508663228"><ele>-12.0</ele><time>2026-04-07T15:35:34Z</time></trkpt><trkpt lat="33.999976839359924" lon="8.068543417720957"><ele>-12.0</ele><time>2026-04-07T15:35:35Z</time></trkpt><trkpt lat="34.00005574045417" lon="8.068424696809148"><ele>-12.0</ele><time>2026-04-07T15:35:36Z</time></trkpt><trkpt lat="34.00015213205747" lon="8.068313544952192"><ele>-11.75</ele><time>2026-04-07T15:35:37Z</time></trkpt><trkpt lat="34.0002561336283" lon="8.0682046930124"><ele>-11.5</ele><time>2026-04-07T15:35:38Z</time></trkpt><trkpt lat="34.00037434276042" lon="8.068078780077787"><ele>-11.25</ele><time>2026-04-07T15:35:39Z</time></trkpt><trkpt lat="34.00047562034248" lon="8.067960241376493"><ele>-11.0</ele><time>2026-04-07T15:35:40Z</time></trkpt><trkpt lat="34.000575635190174" lon="8.067839575759535"><ele>-11.0</ele><time>2026-04-07T15:35:41Z</time></trkpt><trkpt lat="34.0006827213104" lon="8.067724916686851"><ele>-11.0</ele><time>2026-04-07T15:35:42Z</time></trkpt><trkpt lat="34.000784930649914" lon="8.067621502508944"><ele>-11.0</ele><time>2026-04-07T15:35:43Z</time></trkpt><trkpt lat="34.00089268649385" lon="8.067512397009466"><ele>-11.0</ele><time>2026-04-07T15:35:44Z</time></trkpt><trkpt lat="34.000994371329725" lon="8.067416039861275"><ele>-11.5</ele><time>2026-04-07T15:35:45Z</time></trkpt><trkpt lat="34.00110139487401" lon="8.06732419697104"><ele>-12.0</ele><time>2026-04-07T15:35:46Z</time></trkpt><trkpt lat="34.00121604345226" lon="8.067240476215174"><ele>-12.5</ele><time>2026-04-07T15:35:47Z</time></trkpt><trkpt lat="34.00132584577767" lon="8.06714114343086"><ele>-13.0</ele><time>2026-04-07T15:35:48Z</time></trkpt><trkpt lat="34.0014591963044" lon="8.0670522340643"><ele>-13.0</ele><time>2026-04-07T15:35:49Z</time></trkpt><trkpt lat="34.00158596384139" lon="8.06698398844218"><ele>-13.0</ele><time>2026-04-07T15:35:50Z</time></trkpt><trkpt lat="34.001721587242045" lon="8.066918184370703"><ele>-13.0</ele><time>2026-04-07T15:35:51Z</time></trkpt><trkpt lat="34.00185917252703" lon="8.066857023277628"><ele>-13.0</ele><time>2026-04-07T15:35:52Z</time></trkpt><trkpt lat="34.00199081671124" lon="8.066791955207986"><ele>-12.25</ele><time>2026-04-07T15:35:53Z</time></trkpt><trkpt lat="34.00212663365562" lon="8.066734322949266"><ele>-11.5</ele><time>2026-04-07T15:35:54Z</time></trkpt><trkpt lat="34.00226030824539" lon="8.066671650816803"><ele>-10.75</ele><time>2026-04-07T15:35:55Z</time></trkpt><trkpt lat="34.00240207850348" lon="8.066611248670025"><ele>-10.0</ele><time>2026-04-07T15:35:56Z</time></trkpt><trkpt lat="34.00250742095766" lon="8.06650663509907"><ele>-10.0</ele><time>2026-04-07T15:35:57Z</time></trkpt><trkpt lat="34.00260843195087" lon="8.066393698119658"><ele>-10.0</ele><time>2026-04-07T15:35:58Z</time></trkpt><trkpt lat="34.00270988890462" lon="8.06626952647395"><ele>-10.0</ele><time>2026-04-07T15:35:59Z</time></trkpt><trkpt lat="34.002804258193756" lon="8.066117613493883"><ele>-10.0</ele><time>2026-04-07T15:36:00Z</time></trkpt><trkpt lat="34.00289774000457" lon="8.065994768318085"><ele>-10.0</ele><time>2026-04-07T15:36:01Z</time></trkpt><trkpt lat="34.002939082740724" lon="8.065866513321346"><ele>-10.0</ele><time>2026-04-07T15:36:02Z</time></trkpt><trkpt lat="34.00301454253104" lon="8.065796209275291"><ele>-10.0</ele><time>2026-04-07T15:36:03Z</time></trkpt><trkpt lat="34.003129294755105" lon="8.065644876811055"><ele>-10.0</ele><time>2026-04-07T15:36:04Z</time></trkpt><trkpt lat="34.00315102205569" lon="8.065492499293812"><ele>-9.5</ele><time>2026-04-07T15:36:05Z</time></trkpt><trkpt lat="34.003209663793925" lon="8.065409304710768"><ele>-9.0</ele><time>2026-04-07T15:36:06Z</time></trkpt><trkpt lat="34.00323559473435" lon="8.065317899224638"><ele>-8.5</ele><time>2026-04-07T15:36:07Z</time></trkpt><trkpt lat="34.00326364528435" lon="8.065230506200525"><ele>-8.0</ele><time>2026-04-07T15:36:08Z</time></trkpt><trkpt lat="34.00329257615686" lon="8.065130271831329"><ele>-7.500000000000001</ele><time>2026-04-07T15:36:09Z</time></trkpt><trkpt lat="34.00331200059765" lon="8.065023070005221"><ele>-7.0</ele><time>2026-04-07T15:36:10Z</time></trkpt><trkpt lat="34.00333515194158" lon="8.064911431382995"><ele>-8.2</ele><time>2026-04-07T15:36:11Z</time></trkpt><trkpt lat="34.003363876676296" lon="8.0647885911055"><ele>-9.399999999999999</ele><time>2026-04-07T15:36:12Z</time></trkpt><trkpt lat="34.003397085020175" lon="8.064663907161172"><ele>-10.600000000000001</ele><time>2026-04-07T15:36:13Z</time></trkpt><trkpt lat="34.00343194102272" lon="8.06453676897257"><ele>-11.8</ele><time>2026-04-07T15:36:14Z</time></trkpt><trkpt lat="34.003471565200606" lon="8.064408552234243"><ele>-13.0</ele><time>2026-04-07T15:36:15Z</time></trkpt><trkpt lat="34.00350864758582" lon="8.064279394299847"><ele>-13.0</ele><time>2026-04-07T15:36:16Z</time></trkpt><trkpt lat="34.003550432686545" lon="8.064147730812854"><ele>-13.0</ele><time>2026-04-07T15:36:17Z</time></trkpt><trkpt lat="34.003586735044344" lon="8.064016729318254"><ele>-13.0</ele><time>2026-04-07T15:36:18Z</time></trkpt><trkpt lat="34.003610849700046" lon="8.063889266013772"><ele>-13.0</ele><time>2026-04-07T15:36:18.999Z</time></trkpt><trkpt lat="34.00361745078037" lon="8.063771879266147"><ele>-13.0</ele><time>2026-04-07T15:36:19.999Z</time></trkpt><trkpt lat="34.003618388640234" lon="8.063664896890108"><ele>-13.0</ele><time>2026-04-07T15:36:20.999Z</time></trkpt><trkpt lat="34.00362019853101" lon="8.063562089013118"><ele>-13.0</ele><time>2026-04-07T15:36:21.999Z</time></trkpt><trkpt lat="34.003606168317354" lon="8.063442965736785"><ele>-13.0</ele><time>2026-04-07T15:36:22.999Z</time></trkpt><trkpt lat="34.003578189183216" lon="8.06332036103767"><ele>-13.0</ele><time>2026-04-07T15:36:23.999Z</time></trkpt><trkpt lat="34.00352890017273" lon="8.063205347942434"><ele>-13.0</ele><time>2026-04-07T15:36:24.999Z</time></trkpt><trkpt lat="34.003482805058155" lon="8.063082994808047"><ele>-13.0</ele><time>2026-04-07T15:36:25.999Z</time></trkpt><trkpt lat="34.003451541500276" lon="8.062956830376129"><ele>-13.0</ele><time>2026-04-07T15:36:26.999Z</time></trkpt><trkpt lat="34.003432095306025" lon="8.062822618142496"><ele>-13.0</ele><time>2026-04-07T15:36:27.999Z</time></trkpt><trkpt lat="34.003419699878165" lon="8.062681398989135"><ele>-13.0</ele><time>2026-04-07T15:36:28.999Z</time></trkpt><trkpt lat="34.00340967299117" lon="8.06254326687631"><ele>-12.75</ele><time>2026-04-07T15:36:29.999Z</time></trkpt><trkpt lat="34.00340573545394" lon="8.062398636721191"><ele>-12.5</ele><time>2026-04-07T15:36:30.999Z</time></trkpt><trkpt lat="34.003410767916456" lon="8.062256828471693"><ele>-12.25</ele><time>2026-04-07T15:36:31.999Z</time></trkpt><trkpt lat="34.00342371192962" lon="8.062114483250985"><ele>-12.0</ele><time>2026-04-07T15:36:32.999Z</time></trkpt><trkpt lat="34.003443052150736" lon="8.061974003415338"><ele>-12.0</ele><time>2026-04-07T15:36:33.999Z</time></trkpt><trkpt lat="34.003472432184445" lon="8.061834629898723"><ele>-12.0</ele><time>2026-04-07T15:36:34.999Z</time></trkpt><trkpt lat="34.00352608991278" lon="8.06170500429001"><ele>-12.0</ele><time>2026-04-07T15:36:35.999Z</time></trkpt><trkpt lat="34.003586518299265" lon="8.061569531320481"><ele>-12.0</ele><time>2026-04-07T15:36:36.999Z</time></trkpt><trkpt lat="34.003653699214" lon="8.061437329885266"><ele>-11.75</ele><time>2026-04-07T15:36:37.999Z</time></trkpt><trkpt lat="34.00371890497239" lon="8.061298204699785"><ele>-11.5</ele><time>2026-04-07T15:36:38.999Z</time></trkpt><trkpt lat="34.00377455643353" lon="8.06115035157586"><ele>-11.25</ele><time>2026-04-07T15:36:39.999Z</time></trkpt><trkpt lat="34.00382268077603" lon="8.060997127904686"><ele>-11.0</ele><time>2026-04-07T15:36:40.999Z</time></trkpt><trkpt lat="34.00386994546571" lon="8.06084029588494"><ele>-11.25</ele><time>2026-04-07T15:36:42Z</time></trkpt><trkpt lat="34.00392109093422" lon="8.060684484324886"><ele>-11.5</ele><time>2026-04-07T15:36:43Z</time></trkpt><trkpt lat="34.003978940762515" lon="8.060525584526653"><ele>-11.75</ele><time>2026-04-07T15:36:44Z</time></trkpt><trkpt lat="34.004036589625535" lon="8.060362674119594"><ele>-12.0</ele><time>2026-04-07T15:36:45Z</time></trkpt><trkpt lat="34.004095443030444" lon="8.060197788280485"><ele>-12.0</ele><time>2026-04-07T15:36:46Z</time></trkpt><trkpt lat="34.00415073093796" lon="8.060029524003738"><ele>-12.0</ele><time>2026-04-07T15:36:47Z</time></trkpt><trkpt lat="34.00420436068161" lon="8.059860298358808"><ele>-12.0</ele><time>2026-04-07T15:36:48Z</time></trkpt><trkpt lat="34.00425061791442" lon="8.059687245743397"><ele>-11.666666666666666</ele><time>2026-04-07T15:36:49Z</time></trkpt><trkpt lat="34.00430183972499" lon="8.059515820975289"><ele>-11.333333333333332</ele><time>2026-04-07T15:36:50Z</time></trkpt><trkpt lat="34.004353910512144" lon="8.059345305535524"><ele>-11.0</ele><time>2026-04-07T15:36:51Z</time></trkpt><trkpt lat="34.00440561965985" lon="8.059177864425537"><ele>-11.25</ele><time>2026-04-07T15:36:52Z</time></trkpt><trkpt lat="34.004456306263535" lon="8.059007452961716"><ele>-11.5</ele><time>2026-04-07T15:36:53Z</time></trkpt><trkpt lat="34.004506008594205" lon="8.058840476292955"><ele>-11.75</ele><time>2026-04-07T15:36:54Z</time></trkpt><trkpt lat="34.00455935724466" lon="8.058671943372504"><ele>-12.0</ele><time>2026-04-07T15:36:55Z</time></trkpt><trkpt lat="34.004614479755915" lon="8.058502629822717"><ele>-12.0</ele><time>2026-04-07T15:36:56Z</time></trkpt><trkpt lat="34.00466823481365" lon="8.058331844383483"><ele>-12.0</ele><time>2026-04-07T15:36:57Z</time></trkpt><trkpt lat="34.00472236468374" lon="8.05816472702576"><ele>-12.0</ele><time>2026-04-07T15:36:58Z</time></trkpt><trkpt lat="34.00477891148444" lon="8.058000542396195"><ele>-12.0</ele><time>2026-04-07T15:36:59Z</time></trkpt><trkpt lat="34.004840129248244" lon="8.057842392265895"><ele>-11.75</ele><time>2026-04-07T15:37:00Z</time></trkpt><trkpt lat="34.0049044581426" lon="8.057680602665258"><ele>-11.5</ele><time>2026-04-07T15:37:01Z</time></trkpt><trkpt lat="34.00495812976355" lon="8.057518747828444"><ele>-11.25</ele><time>2026-04-07T15:37:02Z</time></trkpt><trkpt lat="34.0050038909446" lon="8.057353782264434"><ele>-11.0</ele><time>2026-04-07T15:37:03Z</time></trkpt><trkpt lat="34.005037428000435" lon="8.057184110629777"><ele>-11.0</ele><time>2026-04-07T15:37:04Z</time></trkpt><trkpt lat="34.005054194238895" lon="8.057012757610567"><ele>-11.0</ele><time>2026-04-07T15:37:05Z</time></trkpt><trkpt lat="34.00505480505227" lon="8.056840194763286"><ele>-11.0</ele><time>2026-04-07T15:37:06Z</time></trkpt><trkpt lat="34.00504406714278" lon="8.056667239452866"><ele>-11.0</ele><time>2026-04-07T15:37:07Z</time></trkpt><trkpt lat="34.00502565353336" lon="8.056489167121933"><ele>-11.0</ele><time>2026-04-07T15:37:08Z</time></trkpt><trkpt lat="34.0050048974457" lon="8.056310106183561"><ele>-11.0</ele><time>2026-04-07T15:37:09Z</time></trkpt><trkpt lat="34.00498407325651" lon="8.056128597225962"><ele>-11.0</ele><time>2026-04-07T15:37:10Z</time></trkpt><trkpt lat="34.00496534309812" lon="8.055946616653607"><ele>-9.666666666666666</ele><time>2026-04-07T15:37:11Z</time></trkpt><trkpt lat="34.00495001742967" lon="8.055765563052999"><ele>-8.333333333333334</ele><time>2026-04-07T15:37:12Z</time></trkpt><trkpt lat="34.00493766579604" lon="8.055585718885743"><ele>-7.0</ele><time>2026-04-07T15:37:13Z</time></trkpt><trkpt lat="34.004932893286636" lon="8.055404519211974"><ele>-7.0</ele><time>2026-04-07T15:37:14Z</time></trkpt><trkpt lat="34.00493768230325" lon="8.055222629386419"><ele>-7.0</ele><time>2026-04-07T15:37:15Z</time></trkpt><trkpt lat="34.00494656800927" lon="8.055042195821335"><ele>-7.0</ele><time>2026-04-07T15:37:16Z</time></trkpt><trkpt lat="34.004959980030996" lon="8.054862527045657"><ele>-7.0</ele><time>2026-04-07T15:37:17Z</time></trkpt><trkpt lat="34.00498056521951" lon="8.054685671426965"><ele>-7.0</ele><time>2026-04-07T15:37:18Z</time></trkpt><trkpt lat="34.00500527998106" lon="8.0545081940138"><ele>-7.0</ele><time>2026-04-07T15:37:19Z</time></trkpt><trkpt lat="34.00502960471939" lon="8.054328444151624"><ele>-7.0</ele><time>2026-04-07T15:37:20Z</time></trkpt><trkpt lat="34.005058117150895" lon="8.054147867776594"><ele>-8.333333333333334</ele><time>2026-04-07T15:37:21Z</time></trkpt><trkpt lat="34.0050928741575" lon="8.053969393263129"><ele>-9.666666666666666</ele><time>2026-04-07T15:37:22Z</time></trkpt><trkpt lat="34.005128564172075" lon="8.05379286064343"><ele>-11.0</ele><time>2026-04-07T15:37:23Z</time></trkpt><trkpt lat="34.005163538319216" lon="8.053615792756204"><ele>-11.0</ele><time>2026-04-07T15:37:24Z</time></trkpt><trkpt lat="34.00519830862872" lon="8.053440592745702"><ele>-11.0</ele><time>2026-04-07T15:37:25Z</time></trkpt><trkpt lat="34.00523660913115" lon="8.053269161278216"><ele>-11.0</ele><time>2026-04-07T15:37:26Z</time></trkpt><trkpt lat="34.005275038194554" lon="8.053100050680472"><ele>-11.0</ele><time>2026-04-07T15:37:27Z</time></trkpt><trkpt lat="34.005311524614854" lon="8.05292521608285"><ele>-10.5</ele><time>2026-04-07T15:37:28Z</time></trkpt><trkpt lat="34.005349601280884" lon="8.052757135076115"><ele>-10.0</ele><time>2026-04-07T15:37:29Z</time></trkpt><trkpt lat="34.00537790328667" lon="8.052593654555148"><ele>-9.5</ele><time>2026-04-07T15:37:30Z</time></trkpt><trkpt lat="34.00539529575315" lon="8.052440514759803"><ele>-9.0</ele><time>2026-04-07T15:37:31Z</time></trkpt><trkpt lat="34.0054080509635" lon="8.052286300596965"><ele>-9.0</ele><time>2026-04-07T15:37:32Z</time></trkpt><trkpt lat="34.00542059669512" lon="8.052130719828012"><ele>-9.0</ele><time>2026-04-07T15:37:33Z</time></trkpt><trkpt lat="34.0054351303567" lon="8.051976397026475"><ele>-9.0</ele><time>2026-04-07T15:37:34Z</time></trkpt><trkpt lat="34.005449629545865" lon="8.051821781073379"><ele>-9.0</ele><time>2026-04-07T15:37:35Z</time></trkpt><trkpt lat="34.005460974907976" lon="8.051669258249772"><ele>-9.2</ele><time>2026-04-07T15:37:36Z</time></trkpt><trkpt lat="34.0054701040576" lon="8.051519396804972"><ele>-9.4</ele><time>2026-04-07T15:37:37Z</time></trkpt><trkpt lat="34.0054755128207" lon="8.05137657254006"><ele>-9.6</ele><time>2026-04-07T15:37:38Z</time></trkpt><trkpt lat="34.00548192742797" lon="8.051245508388305"><ele>-9.8</ele><time>2026-04-07T15:37:39Z</time></trkpt><trkpt lat="34.00549098606852" lon="8.051128485036038"><ele>-10.0</ele><time>2026-04-07T15:37:40Z</time></trkpt><trkpt lat="34.00551605531038" lon="8.05101790085055"><ele>-10.0</ele><time>2026-04-07T15:37:41Z</time></trkpt><trkpt lat="34.005555752850285" lon="8.050909026489645"><ele>-10.0</ele><time>2026-04-07T15:37:42Z</time></trkpt><trkpt lat="34.005599153542136" lon="8.050795089466044"><ele>-10.0</ele><time>2026-04-07T15:37:43Z</time></trkpt><trkpt lat="34.00563909547841" lon="8.050672572717945"><ele>-10.0</ele><time>2026-04-07T15:37:44Z</time></trkpt><trkpt lat="34.00567014186358" lon="8.050541680189147"><ele>-10.0</ele><time>2026-04-07T15:37:45Z</time></trkpt><trkpt lat="34.00569001691171" lon="8.050403074755106"><ele>-10.25</ele><time>2026-04-07T15:37:46Z</time></trkpt><trkpt lat="34.005708402613365" lon="8.05025886093851"><ele>-10.5</ele><time>2026-04-07T15:37:47Z</time></trkpt><trkpt lat="34.005727701583936" lon="8.050110439133784"><ele>-10.75</ele><time>2026-04-07T15:37:48Z</time></trkpt><trkpt lat="34.00575046615667" lon="8.0499587644718"><ele>-11.0</ele><time>2026-04-07T15:37:49Z</time></trkpt><trkpt lat="34.00577626744416" lon="8.04980380156963"><ele>-11.0</ele><time>2026-04-07T15:37:50Z</time></trkpt><trkpt lat="34.00580198770766" lon="8.049644022938525"><ele>-11.0</ele><time>2026-04-07T15:37:51Z</time></trkpt><trkpt lat="34.00582837315006" lon="8.049482054282379"><ele>-11.0</ele><time>2026-04-07T15:37:52Z</time></trkpt><trkpt lat="34.0058539913503" lon="8.049319797995604"><ele>-11.0</ele><time>2026-04-07T15:37:53Z</time></trkpt><trkpt lat="34.00587793363328" lon="8.049153691570115"><ele>-12.25</ele><time>2026-04-07T15:37:54Z</time></trkpt><trkpt lat="34.005903419042085" lon="8.048987806372303"><ele>-13.5</ele><time>2026-04-07T15:37:55Z</time></trkpt><trkpt lat="34.00592998733573" lon="8.048821216875634"><ele>-14.75</ele><time>2026-04-07T15:37:56Z</time></trkpt><trkpt lat="34.005955895943906" lon="8.04865019312136"><ele>-16.0</ele><time>2026-04-07T15:37:57Z</time></trkpt><trkpt lat="34.005980534716905" lon="8.04847591902695"><ele>-16.0</ele><time>2026-04-07T15:37:58Z</time></trkpt><trkpt lat="34.00600653250735" lon="8.048298943072226"><ele>-16.0</ele><time>2026-04-07T15:37:59Z</time></trkpt><trkpt lat="34.00603393996167" lon="8.048120516326215"><ele>-16.0</ele><time>2026-04-07T15:38:00Z</time></trkpt><trkpt lat="34.006061335150164" lon="8.047941233924174"><ele>-16.0</ele><time>2026-04-07T15:38:01Z</time></trkpt><trkpt lat="34.00609124260018" lon="8.047760789160685"><ele>-16.0</ele><time>2026-04-07T15:38:02Z</time></trkpt><trkpt lat="34.00611974719778" lon="8.047579397212626"><ele>-16.0</ele><time>2026-04-07T15:38:03Z</time></trkpt><trkpt lat="34.006148616161546" lon="8.047399721420122"><ele>-15.5</ele><time>2026-04-07T15:38:04Z</time></trkpt><trkpt lat="34.00617892099699" lon="8.047221482449986"><ele>-15.0</ele><time>2026-04-07T15:38:05Z</time></trkpt><trkpt lat="34.006206961653085" lon="8.047045017917231"><ele>-14.5</ele><time>2026-04-07T15:38:06Z</time></trkpt><trkpt lat="34.00623070130347" lon="8.046870800664548"><ele>-14.0</ele><time>2026-04-07T15:38:07Z</time></trkpt><trkpt lat="34.00625385000706" lon="8.04669804861392"><ele>-14.25</ele><time>2026-04-07T15:38:08Z</time></trkpt><trkpt lat="34.006278198524235" lon="8.046527249700345"><ele>-14.5</ele><time>2026-04-07T15:38:09Z</time></trkpt><trkpt lat="34.00629841353499" lon="8.04635631426822"><ele>-14.75</ele><time>2026-04-07T15:38:10Z</time></trkpt><trkpt lat="34.00631142344748" lon="8.046186067430591"><ele>-15.0</ele><time>2026-04-07T15:38:11Z</time></trkpt><trkpt lat="34.00632474517245" lon="8.046016119534924"><ele>-15.0</ele><time>2026-04-07T15:38:12Z</time></trkpt><trkpt lat="34.00633614666917" lon="8.045845194605645"><ele>-15.0</ele><time>2026-04-07T15:38:13Z</time></trkpt><trkpt lat="34.00634574703903" lon="8.045674151275623"><ele>-15.0</ele><time>2026-04-07T15:38:14Z</time></trkpt><trkpt lat="34.00635517004535" lon="8.045502261539022"><ele>-15.0</ele><time>2026-04-07T15:38:15Z</time></trkpt><trkpt lat="34.006367607355195" lon="8.045331785205818"><ele>-14.5</ele><time>2026-04-07T15:38:16Z</time></trkpt><trkpt lat="34.006382931815935" lon="8.045163349682342"><ele>-14.0</ele><time>2026-04-07T15:38:17Z</time></trkpt><trkpt lat="34.00640359385646" lon="8.044997015167231"><ele>-13.5</ele><time>2026-04-07T15:38:18Z</time></trkpt><trkpt lat="34.00642765121021" lon="8.04483209111582"><ele>-13.0</ele><time>2026-04-07T15:38:19Z</time></trkpt><trkpt lat="34.006454212524915" lon="8.04466881507157"><ele>-12.75</ele><time>2026-04-07T15:38:20Z</time></trkpt><trkpt lat="34.00648402418138" lon="8.044506136412615"><ele>-12.5</ele><time>2026-04-07T15:38:21Z</time></trkpt><trkpt lat="34.006516691268544" lon="8.044346061619933"><ele>-12.25</ele><time>2026-04-07T15:38:22Z</time></trkpt><trkpt lat="34.00654824934896" lon="8.044190783296964"><ele>-12.0</ele><time>2026-04-07T15:38:23Z</time></trkpt><trkpt lat="34.0065744946911" lon="8.044033231073243"><ele>-12.0</ele><time>2026-04-07T15:38:24Z</time></trkpt><trkpt lat="34.00659807201667" lon="8.043874056397096"><ele>-12.0</ele><time>2026-04-07T15:38:25Z</time></trkpt><trkpt lat="34.006635915279034" lon="8.043720437762058"><ele>-12.0</ele><time>2026-04-07T15:38:26Z</time></trkpt><trkpt lat="34.006688653695846" lon="8.043574619334546"><ele>-12.0</ele><time>2026-04-07T15:38:27Z</time></trkpt><trkpt lat="34.00675551006699" lon="8.043434530252418"><ele>-12.0</ele><time>2026-04-07T15:38:28Z</time></trkpt><trkpt lat="34.006838703700915" lon="8.043303727897298"><ele>-12.0</ele><time>2026-04-07T15:38:29Z</time></trkpt><trkpt lat="34.00691617063901" lon="8.043165699596134"><ele>-12.0</ele><time>2026-04-07T15:38:30Z</time></trkpt><trkpt lat="34.006996385080726" lon="8.04301862539595"><ele>-12.0</ele><time>2026-04-07T15:38:31Z</time></trkpt><trkpt lat="34.00706193466934" lon="8.042860906597053"><ele>-12.5</ele><time>2026-04-07T15:38:32Z</time></trkpt><trkpt lat="34.00712321255387" lon="8.042700027629502"><ele>-13.0</ele><time>2026-04-07T15:38:33Z</time></trkpt><trkpt lat="34.00717830687645" lon="8.04253357402404"><ele>-13.5</ele><time>2026-04-07T15:38:34Z</time></trkpt><trkpt lat="34.00723121023064" lon="8.042366175277307"><ele>-14.0</ele><time>2026-04-07T15:38:35Z</time></trkpt><trkpt lat="34.00727650747011" lon="8.042194033367247"><ele>-14.0</ele><time>2026-04-07T15:38:36Z</time></trkpt><trkpt lat="34.00732382511983" lon="8.042025238745202"><ele>-14.0</ele><time>2026-04-07T15:38:37Z</time></trkpt><trkpt lat="34.00736986473138" lon="8.0418558157582"><ele>-14.0</ele><time>2026-04-07T15:38:38Z</time></trkpt><trkpt lat="34.00741412067237" lon="8.041682525993208"><ele>-14.0</ele><time>2026-04-07T15:38:39Z</time></trkpt><trkpt lat="34.00746161589726" lon="8.041509551189838"><ele>-13.5</ele><time>2026-04-07T15:38:40Z</time></trkpt><trkpt lat="34.0075060885353" lon="8.041336505736059"><ele>-13.0</ele><time>2026-04-07T15:38:41Z</time></trkpt><trkpt lat="34.007548823280224" lon="8.041164466026846"><ele>-12.5</ele><time>2026-04-07T15:38:42Z</time></trkpt><trkpt lat="34.007590661773975" lon="8.040992979929369"><ele>-12.0</ele><time>2026-04-07T15:38:43Z</time></trkpt><trkpt lat="34.00763094056162" lon="8.040821493240163"><ele>-12.0</ele><time>2026-04-07T15:38:44Z</time></trkpt><trkpt lat="34.00767688766322" lon="8.04065381437959"><ele>-12.0</ele><time>2026-04-07T15:38:45Z</time></trkpt><trkpt lat="34.00771671831553" lon="8.040481339286965"><ele>-12.0</ele><time>2026-04-07T15:38:46Z</time></trkpt><trkpt lat="34.00775161694777" lon="8.04030443661969"><ele>-12.0</ele><time>2026-04-07T15:38:47Z</time></trkpt><trkpt lat="34.00777753169639" lon="8.040126020782203"><ele>-12.333333333333332</ele><time>2026-04-07T15:38:48Z</time></trkpt><trkpt lat="34.00781152638047" lon="8.039951176449588"><ele>-12.666666666666666</ele><time>2026-04-07T15:38:49Z</time></trkpt><trkpt lat="34.00784722977126" lon="8.03977357342133"><ele>-13.0</ele><time>2026-04-07T15:38:50Z</time></trkpt><trkpt lat="34.007881043424824" lon="8.039594414735067"><ele>-13.0</ele><time>2026-04-07T15:38:51Z</time></trkpt><trkpt lat="34.00791334072209" lon="8.039414194273352"><ele>-13.0</ele><time>2026-04-07T15:38:52Z</time></trkpt><trkpt lat="34.007939861886975" lon="8.039234459398484"><ele>-13.0</ele><time>2026-04-07T15:38:53Z</time></trkpt><trkpt lat="34.00796571655657" lon="8.039054262965516"><ele>-12.666666666666666</ele><time>2026-04-07T15:38:54Z</time></trkpt><trkpt lat="34.00799354535819" lon="8.038875622996727"><ele>-12.333333333333332</ele><time>2026-04-07T15:38:55Z</time></trkpt><trkpt lat="34.00802287653107" lon="8.038698863513488"><ele>-12.0</ele><time>2026-04-07T15:38:56Z</time></trkpt><trkpt lat="34.00805589758027" lon="8.038515161516939"><ele>-12.0</ele><time>2026-04-07T15:38:57Z</time></trkpt><trkpt lat="34.00806927826717" lon="8.038320340463343"><ele>-12.0</ele><time>2026-04-07T15:38:58Z</time></trkpt><trkpt lat="34.00809535523393" lon="8.038136694844667"><ele>-12.0</ele><time>2026-04-07T15:38:59Z</time></trkpt><trkpt lat="34.00812757762896" lon="8.037962454351032"><ele>-11.75</ele><time>2026-04-07T15:39:00Z</time></trkpt><trkpt lat="34.0081631130706" lon="8.037794971959956"><ele>-11.5</ele><time>2026-04-07T15:39:01Z</time></trkpt><trkpt lat="34.008201973580306" lon="8.037624015762304"><ele>-11.25</ele><time>2026-04-07T15:39:02Z</time></trkpt><trkpt lat="34.0082375638705" lon="8.037454776169202"><ele>-11.0</ele><time>2026-04-07T15:39:03Z</time></trkpt><trkpt lat="34.008275408313764" lon="8.03727529886106"><ele>-11.666666666666666</ele><time>2026-04-07T15:39:04Z</time></trkpt><trkpt lat="34.00830892947549" lon="8.037093487599156"><ele>-12.333333333333332</ele><time>2026-04-07T15:39:05Z</time></trkpt><trkpt lat="34.00833781618834" lon="8.036902560237642"><ele>-13.0</ele><time>2026-04-07T15:39:06Z</time></trkpt><trkpt lat="34.00836019195272" lon="8.036734144363914"><ele>-12.75</ele><time>2026-04-07T15:39:07Z</time></trkpt><trkpt lat="34.00836001266833" lon="8.036591121554224"><ele>-12.5</ele><time>2026-04-07T15:39:08Z</time></trkpt><trkpt lat="34.008369544614034" lon="8.03644127129076"><ele>-12.25</ele><time>2026-04-07T15:39:09Z</time></trkpt><trkpt lat="34.00837474340821" lon="8.036269749969765"><ele>-12.0</ele><time>2026-04-07T15:39:10Z</time></trkpt><trkpt lat="34.00837190585557" lon="8.03608744730586"><ele>-12.0</ele><time>2026-04-07T15:39:11Z</time></trkpt><trkpt lat="34.00836264852938" lon="8.035904951389004"><ele>-12.0</ele><time>2026-04-07T15:39:12Z</time></trkpt><trkpt lat="34.00835590939912" lon="8.035723382623713"><ele>-12.0</ele><time>2026-04-07T15:39:13Z</time></trkpt><trkpt lat="34.00836306289024" lon="8.035530729471404"><ele>-13.0</ele><time>2026-04-07T15:39:14Z</time></trkpt><trkpt lat="34.00848639129083" lon="8.035303470166365"><ele>-14.0</ele><time>2026-04-07T15:39:15Z</time></trkpt><trkpt lat="34.008508565136616" lon="8.035117524106438"><ele>-15.0</ele><time>2026-04-07T15:39:16Z</time></trkpt><trkpt lat="34.0085260737376" lon="8.034923074263428"><ele>-15.0</ele><time>2026-04-07T15:39:17Z</time></trkpt><trkpt lat="34.00854671276201" lon="8.034723267374224"><ele>-15.0</ele><time>2026-04-07T15:39:18Z</time></trkpt><trkpt lat="34.00855842438246" lon="8.034535232840888"><ele>-15.0</ele><time>2026-04-07T15:39:19Z</time></trkpt><trkpt lat="34.008572713589096" lon="8.034337867386792"><ele>-15.0</ele><time>2026-04-07T15:39:20Z</time></trkpt><trkpt lat="34.00861432017293" lon="8.034143224242987"><ele>-15.0</ele><time>2026-04-07T15:39:21Z</time></trkpt><trkpt lat="34.00864399358255" lon="8.033946265562648"><ele>-15.0</ele><time>2026-04-07T15:39:22Z</time></trkpt><trkpt lat="34.00864832532325" lon="8.033749209258353"><ele>-14.666666666666668</ele><time>2026-04-07T15:39:23Z</time></trkpt><trkpt lat="34.00865415222941" lon="8.033554941990806"><ele>-14.333333333333334</ele><time>2026-04-07T15:39:24Z</time></trkpt><trkpt lat="34.00865990878094" lon="8.033359787601901"><ele>-14.0</ele><time>2026-04-07T15:39:25Z</time></trkpt><trkpt lat="34.008674071934976" lon="8.033163126085684"><ele>-13.333333333333334</ele><time>2026-04-07T15:39:26Z</time></trkpt><trkpt lat="34.00869218461738" lon="8.032967972091194"><ele>-12.666666666666668</ele><time>2026-04-07T15:39:27Z</time></trkpt><trkpt lat="34.008709439248" lon="8.032773102815407"><ele>-12.0</ele><time>2026-04-07T15:39:28Z</time></trkpt><trkpt lat="34.00872417648827" lon="8.032575984803584"><ele>-12.333333333333332</ele><time>2026-04-07T15:39:29Z</time></trkpt><trkpt lat="34.008752036577036" lon="8.032381641756924"><ele>-12.666666666666666</ele><time>2026-04-07T15:39:30Z</time></trkpt><trkpt lat="34.00877856816986" lon="8.03218774519823"><ele>-13.0</ele><time>2026-04-07T15:39:31Z</time></trkpt><trkpt lat="34.00880242552308" lon="8.031995627052675"><ele>-13.0</ele><time>2026-04-07T15:39:32Z</time></trkpt><trkpt lat="34.008828181998744" lon="8.03180358150049"><ele>-13.0</ele><time>2026-04-07T15:39:33Z</time></trkpt><trkpt lat="34.00884879544168" lon="8.031611653472897"><ele>-13.0</ele><time>2026-04-07T15:39:34Z</time></trkpt><trkpt lat="34.00887153429971" lon="8.031421912865115"><ele>-12.333333333333332</ele><time>2026-04-07T15:39:35Z</time></trkpt><trkpt lat="34.00888927255634" lon="8.031236436211596"><ele>-11.666666666666666</ele><time>2026-04-07T15:39:36Z</time></trkpt><trkpt lat="34.00889787903351" lon="8.031055358218847"><ele>-11.0</ele><time>2026-04-07T15:39:37Z</time></trkpt><trkpt lat="34.008900069413194" lon="8.030874565416537"><ele>-11.0</ele><time>2026-04-07T15:39:38Z</time></trkpt><trkpt lat="34.00890213165407" lon="8.030696354600112"><ele>-11.0</ele><time>2026-04-07T15:39:39Z</time></trkpt><trkpt lat="34.00890455806389" lon="8.030514760936182"><ele>-11.0</ele><time>2026-04-07T15:39:40Z</time></trkpt><trkpt lat="34.00890224738311" lon="8.030334232563288"><ele>-11.0</ele><time>2026-04-07T15:39:41Z</time></trkpt><trkpt lat="34.00889730226057" lon="8.030151511165812"><ele>-10.666666666666666</ele><time>2026-04-07T15:39:42Z</time></trkpt><trkpt lat="34.00889331956413" lon="8.02997077971545"><ele>-10.333333333333334</ele><time>2026-04-07T15:39:43Z</time></trkpt><trkpt lat="34.008893534698686" lon="8.029787179643652"><ele>-10.0</ele><time>2026-04-07T15:39:44Z</time></trkpt><trkpt lat="34.008893936808875" lon="8.029601788388803"><ele>-10.0</ele><time>2026-04-07T15:39:45Z</time></trkpt><trkpt lat="34.00889878267478" lon="8.029416635668811"><ele>-10.0</ele><time>2026-04-07T15:39:46Z</time></trkpt><trkpt lat="34.00890822139663" lon="8.029229390836067"><ele>-10.0</ele><time>2026-04-07T15:39:47Z</time></trkpt><trkpt lat="34.00892042371596" lon="8.029041321139099"><ele>-11.0</ele><time>2026-04-07T15:39:48Z</time></trkpt><trkpt lat="34.008936723994" lon="8.028853395534261"><ele>-12.0</ele><time>2026-04-07T15:39:49Z</time></trkpt><trkpt lat="34.00895927762446" lon="8.028666788495418"><ele>-13.0</ele><time>2026-04-07T15:39:50Z</time></trkpt><trkpt lat="34.00898690816002" lon="8.02847973473753"><ele>-12.333333333333332</ele><time>2026-04-07T15:39:51Z</time></trkpt><trkpt lat="34.00901722001863" lon="8.02829209074821"><ele>-11.666666666666666</ele><time>2026-04-07T15:39:52Z</time></trkpt><trkpt lat="34.00904718586284" lon="8.028103819043555"><ele>-11.0</ele><time>2026-04-07T15:39:53Z</time></trkpt><trkpt lat="34.0090746004054" lon="8.027914998245214"><ele>-11.0</ele><time>2026-04-07T15:39:54Z</time></trkpt><trkpt lat="34.009099102508415" lon="8.027725051572427"><ele>-11.0</ele><time>2026-04-07T15:39:55Z</time></trkpt><trkpt lat="34.00911633196567" lon="8.02753789720379"><ele>-11.0</ele><time>2026-04-07T15:39:56Z</time></trkpt><trkpt lat="34.009125568460775" lon="8.02734970735523"><ele>-11.333333333333332</ele><time>2026-04-07T15:39:57Z</time></trkpt><trkpt lat="34.009123677815204" lon="8.02716362873383"><ele>-11.666666666666666</ele><time>2026-04-07T15:39:58Z</time></trkpt><trkpt lat="34.00912506961401" lon="8.026980404144284"><ele>-12.0</ele><time>2026-04-07T15:39:59Z</time></trkpt><trkpt lat="34.00911830762909" lon="8.026799180701557"><ele>-11.5</ele><time>2026-04-07T15:40:00Z</time></trkpt><trkpt lat="34.009108897627335" lon="8.026619330411506"><ele>-11.0</ele><time>2026-04-07T15:40:01Z</time></trkpt><trkpt lat="34.009098364003954" lon="8.026440424108303"><ele>-10.5</ele><time>2026-04-07T15:40:02Z</time></trkpt><trkpt lat="34.00908190408201" lon="8.026260843789556"><ele>-10.0</ele><time>2026-04-07T15:40:03Z</time></trkpt><trkpt lat="34.009055677960504" lon="8.02608196583307"><ele>-10.0</ele><time>2026-04-07T15:40:04Z</time></trkpt><trkpt lat="34.00902178392416" lon="8.025905411833204"><ele>-10.0</ele><time>2026-04-07T15:40:05Z</time></trkpt><trkpt lat="34.00898758907306" lon="8.025728687452549"><ele>-10.0</ele><time>2026-04-07T15:40:06Z</time></trkpt><trkpt lat="34.00894966548536" lon="8.025551760845069"><ele>-10.0</ele><time>2026-04-07T15:40:07Z</time></trkpt><trkpt lat="34.00891314507643" lon="8.025374370097113"><ele>-10.0</ele><time>2026-04-07T15:40:08Z</time></trkpt><trkpt lat="34.00887492965592" lon="8.02519723424465"><ele>-10.0</ele><time>2026-04-07T15:40:09Z</time></trkpt><trkpt lat="34.00884020405141" lon="8.025020680656494"><ele>-10.25</ele><time>2026-04-07T15:40:10Z</time></trkpt><trkpt lat="34.00881132327871" lon="8.024842935651924"><ele>-10.5</ele><time>2026-04-07T15:40:11Z</time></trkpt><trkpt lat="34.008791148326445" lon="8.024665384107202"><ele>-10.75</ele><time>2026-04-07T15:40:12Z</time></trkpt><trkpt lat="34.008781861425" lon="8.024488452222288"><ele>-11.0</ele><time>2026-04-07T15:40:13Z</time></trkpt><trkpt lat="34.00877823241497" lon="8.02431084651435"><ele>-11.25</ele><time>2026-04-07T15:40:14Z</time></trkpt><trkpt lat="34.00878261350258" lon="8.024135171745126"><ele>-11.5</ele><time>2026-04-07T15:40:15Z</time></trkpt><trkpt lat="34.00879986176324" lon="8.023961051876322"><ele>-11.75</ele><time>2026-04-07T15:40:16Z</time></trkpt><trkpt lat="34.00882244099264" lon="8.02378501563842"><ele>-12.0</ele><time>2026-04-07T15:40:17Z</time></trkpt><trkpt lat="34.00884544839924" lon="8.023605908867932"><ele>-12.0</ele><time>2026-04-07T15:40:18Z</time></trkpt><trkpt lat="34.008871996439645" lon="8.023425113325636"><ele>-12.0</ele><time>2026-04-07T15:40:19Z</time></trkpt><trkpt lat="34.008891798323894" lon="8.023241076388837"><ele>-12.0</ele><time>2026-04-07T15:40:20Z</time></trkpt><trkpt lat="34.008905947858615" lon="8.023056006293514"><ele>-11.666666666666666</ele><time>2026-04-07T15:40:21Z</time></trkpt><trkpt lat="34.00891845505185" lon="8.022871774802883"><ele>-11.333333333333332</ele><time>2026-04-07T15:40:22Z</time></trkpt><trkpt lat="34.00892834449087" lon="8.02268696036587"><ele>-11.0</ele><time>2026-04-07T15:40:23Z</time></trkpt><trkpt lat="34.00893417831312" lon="8.022502930777758"><ele>-11.0</ele><time>2026-04-07T15:40:24Z</time></trkpt><trkpt lat="34.00893757382616" lon="8.022321033015483"><ele>-11.0</ele><time>2026-04-07T15:40:25Z</time></trkpt><trkpt lat="34.008941078211606" lon="8.022135960407553"><ele>-11.0</ele><time>2026-04-07T15:40:26Z</time></trkpt><trkpt lat="34.00894590954187" lon="8.02194831441658"><ele>-11.0</ele><time>2026-04-07T15:40:27Z</time></trkpt><trkpt lat="34.008951621569565" lon="8.021760047139324"><ele>-11.0</ele><time>2026-04-07T15:40:28Z</time></trkpt><trkpt lat="34.008959736857" lon="8.021570040595906"><ele>-11.0</ele><time>2026-04-07T15:40:29Z</time></trkpt><trkpt lat="34.00897106916928" lon="8.021381318219184"><ele>-11.0</ele><time>2026-04-07T15:40:30Z</time></trkpt><trkpt lat="34.008983313639014" lon="8.021192486328927"><ele>-11.0</ele><time>2026-04-07T15:40:31Z</time></trkpt><trkpt lat="34.008997673449464" lon="8.021004424364298"><ele>-11.0</ele><time>2026-04-07T15:40:32Z</time></trkpt><trkpt lat="34.00901377279742" lon="8.020817722951243"><ele>-10.666666666666666</ele><time>2026-04-07T15:40:33Z</time></trkpt><trkpt lat="34.009033271208274" lon="8.02063366707345"><ele>-10.333333333333334</ele><time>2026-04-07T15:40:34Z</time></trkpt><trkpt lat="34.00905920439863" lon="8.020452156260173"><ele>-10.0</ele><time>2026-04-07T15:40:35Z</time></trkpt><trkpt lat="34.009093314078335" lon="8.020274446663057"><ele>-10.0</ele><time>2026-04-07T15:40:36Z</time></trkpt><trkpt lat="34.0091342941397" lon="8.020101223613063"><ele>-10.0</ele><time>2026-04-07T15:40:37Z</time></trkpt><trkpt lat="34.00918079199273" lon="8.019928722525794"><ele>-10.0</ele><time>2026-04-07T15:40:38Z</time></trkpt><trkpt lat="34.00923318404511" lon="8.01975643696183"><ele>-10.333333333333334</ele><time>2026-04-07T15:40:39Z</time></trkpt><trkpt lat="34.00928241453402" lon="8.01957968127368"><ele>-10.666666666666666</ele><time>2026-04-07T15:40:40Z</time></trkpt><trkpt lat="34.00933044669539" lon="8.019402517398786"><ele>-11.0</ele><time>2026-04-07T15:40:41Z</time></trkpt><trkpt lat="34.00938214472125" lon="8.019225905357056"><ele>-11.0</ele><time>2026-04-07T15:40:42Z</time></trkpt><trkpt lat="34.00944522661858" lon="8.019059746128034"><ele>-11.0</ele><time>2026-04-07T15:40:43Z</time></trkpt><trkpt lat="34.00949893068111" lon="8.018886400397932"><ele>-11.0</ele><time>2026-04-07T15:40:44Z</time></trkpt><trkpt lat="34.00955913218121" lon="8.018719874349452"><ele>-11.0</ele><time>2026-04-07T15:40:45Z</time></trkpt><trkpt lat="34.0096255267336" lon="8.018556796011495"><ele>-11.0</ele><time>2026-04-07T15:40:46Z</time></trkpt><trkpt lat="34.00968976815932" lon="8.018395410144262"><ele>-11.0</ele><time>2026-04-07T15:40:47Z</time></trkpt><trkpt lat="34.009751878100495" lon="8.018234456205517"><ele>-11.0</ele><time>2026-04-07T15:40:48Z</time></trkpt><trkpt lat="34.00982285677208" lon="8.018077845773561"><ele>-11.25</ele><time>2026-04-07T15:40:49Z</time></trkpt><trkpt lat="34.00988966556189" lon="8.017921629917337"><ele>-11.5</ele><time>2026-04-07T15:40:50Z</time></trkpt><trkpt lat="34.00995754526837" lon="8.017763072845707"><ele>-11.75</ele><time>2026-04-07T15:40:51Z</time></trkpt><trkpt lat="34.010030127259576" lon="8.017609779619534"><ele>-12.0</ele><time>2026-04-07T15:40:52Z</time></trkpt><trkpt lat="34.01010499662107" lon="8.017458254994791"><ele>-12.0</ele><time>2026-04-07T15:40:53Z</time></trkpt><trkpt lat="34.01017152193822" lon="8.017302744296465"><ele>-12.0</ele><time>2026-04-07T15:40:54Z</time></trkpt><trkpt lat="34.01023593152431" lon="8.017148000227234"><ele>-12.0</ele><time>2026-04-07T15:40:55Z</time></trkpt><trkpt lat="34.01029969740248" lon="8.016994302654867"><ele>-12.0</ele><time>2026-04-07T15:40:56Z</time></trkpt><trkpt lat="34.01036513571112" lon="8.01684351579832"><ele>-12.0</ele><time>2026-04-07T15:40:57Z</time></trkpt><trkpt lat="34.01043095275962" lon="8.016697028160099"><ele>-12.0</ele><time>2026-04-07T15:40:58Z</time></trkpt><trkpt lat="34.0104955935167" lon="8.016555072341234"><ele>-12.0</ele><time>2026-04-07T15:40:59Z</time></trkpt><trkpt lat="34.01056333786443" lon="8.01641678246973"><ele>-12.0</ele><time>2026-04-07T15:41:00Z</time></trkpt><trkpt lat="34.010626212269095" lon="8.01627808154679"><ele>-11.75</ele><time>2026-04-07T15:41:01Z</time></trkpt><trkpt lat="34.01068728108119" lon="8.016142634570832"><ele>-11.5</ele><time>2026-04-07T15:41:02Z</time></trkpt><trkpt lat="34.010749006913926" lon="8.016009027778857"><ele>-11.25</ele><time>2026-04-07T15:41:03Z</time></trkpt><trkpt lat="34.010808740223766" lon="8.01587674968787"><ele>-11.0</ele><time>2026-04-07T15:41:04Z</time></trkpt><trkpt lat="34.01086931646912" lon="8.01574651199136"><ele>-11.75</ele><time>2026-04-07T15:41:05Z</time></trkpt><trkpt lat="34.01093164167388" lon="8.015618362018484"><ele>-12.5</ele><time>2026-04-07T15:41:06Z</time></trkpt><trkpt lat="34.01098465919283" lon="8.015489898475517"><ele>-13.25</ele><time>2026-04-07T15:41:07Z</time></trkpt><trkpt lat="34.011047357337155" lon="8.015359112306104"><ele>-14.0</ele><time>2026-04-07T15:41:08Z</time></trkpt><trkpt lat="34.01111053150902" lon="8.015224004893927"><ele>-14.0</ele><time>2026-04-07T15:41:09Z</time></trkpt><trkpt lat="34.011175357639516" lon="8.01508636252975"><ele>-14.0</ele><time>2026-04-07T15:41:10Z</time></trkpt><trkpt lat="34.011238769011406" lon="8.014944377667625"><ele>-14.0</ele><time>2026-04-07T15:41:11Z</time></trkpt><trkpt lat="34.01130063250358" lon="8.014798515792727"><ele>-14.0</ele><time>2026-04-07T15:41:12Z</time></trkpt><trkpt lat="34.0113572769909" lon="8.01465047071862"><ele>-12.75</ele><time>2026-04-07T15:41:13Z</time></trkpt><trkpt lat="34.01141410012622" lon="8.014504153281973"><ele>-11.5</ele><time>2026-04-07T15:41:14Z</time></trkpt><trkpt lat="34.011466174799736" lon="8.014358168492363"><ele>-10.25</ele><time>2026-04-07T15:41:15Z</time></trkpt><trkpt lat="34.01151382192694" lon="8.014209350694204"><ele>-9.0</ele><time>2026-04-07T15:41:16Z</time></trkpt><trkpt lat="34.011550606016435" lon="8.014055516188614"><ele>-8.75</ele><time>2026-04-07T15:41:17Z</time></trkpt><trkpt lat="34.01157161626609" lon="8.013895897120207"><ele>-8.5</ele><time>2026-04-07T15:41:18Z</time></trkpt><trkpt lat="34.01160258025861" lon="8.013740336661622"><ele>-8.25</ele><time>2026-04-07T15:41:19Z</time></trkpt><trkpt lat="34.011622072612084" lon="8.013578160327075"><ele>-8.0</ele><time>2026-04-07T15:41:20Z</time></trkpt><trkpt lat="34.01163593340956" lon="8.01341717679461"><ele>-8.25</ele><time>2026-04-07T15:41:21Z</time></trkpt><trkpt lat="34.01164281370429" lon="8.01325382010218"><ele>-8.5</ele><time>2026-04-07T15:41:22Z</time></trkpt><trkpt lat="34.01163858552372" lon="8.013088881081357"><ele>-8.75</ele><time>2026-04-07T15:41:23Z</time></trkpt><trkpt lat="34.01162219373319" lon="8.012922034217148"><ele>-9.0</ele><time>2026-04-07T15:41:24Z</time></trkpt><trkpt lat="34.011601749367344" lon="8.01275531784362"><ele>-9.0</ele><time>2026-04-07T15:41:25Z</time></trkpt><trkpt lat="34.011580695850036" lon="8.012587172180242"><ele>-9.0</ele><time>2026-04-07T15:41:26Z</time></trkpt><trkpt lat="34.01155891949288" lon="8.012418205453661"><ele>-9.0</ele><time>2026-04-07T15:41:27Z</time></trkpt><trkpt lat="34.011533133476135" lon="8.01225006337126"><ele>-9.0</ele><time>2026-04-07T15:41:28Z</time></trkpt><trkpt lat="34.01150883713919" lon="8.012082380048337"><ele>-9.75</ele><time>2026-04-07T15:41:29Z</time></trkpt><trkpt lat="34.01148449766431" lon="8.011915321307024"><ele>-10.5</ele><time>2026-04-07T15:41:30Z</time></trkpt><trkpt lat="34.0114610752036" lon="8.011750068554985"><ele>-11.25</ele><time>2026-04-07T15:41:31Z</time></trkpt><trkpt lat="34.011438962347604" lon="8.011583040149484"><ele>-12.0</ele><time>2026-04-07T15:41:32Z</time></trkpt><trkpt lat="34.01141719361532" lon="8.011411159405684"><ele>-12.0</ele><time>2026-04-07T15:41:33Z</time></trkpt><trkpt lat="34.011392328630535" lon="8.01123754042866"><ele>-12.0</ele><time>2026-04-07T15:41:34Z</time></trkpt><trkpt lat="34.01136293678909" lon="8.011062103182573"><ele>-12.0</ele><time>2026-04-07T15:41:35Z</time></trkpt><trkpt lat="34.011331855370024" lon="8.0108843969195"><ele>-12.0</ele><time>2026-04-07T15:41:36Z</time></trkpt><trkpt lat="34.011304757475614" lon="8.010703560890802"><ele>-12.0</ele><time>2026-04-07T15:41:37Z</time></trkpt><trkpt lat="34.01127678408881" lon="8.010520652071925"><ele>-12.0</ele><time>2026-04-07T15:41:38Z</time></trkpt><trkpt lat="34.011252359108916" lon="8.010335896403264"><ele>-12.0</ele><time>2026-04-07T15:41:39Z</time></trkpt><trkpt lat="34.011228492068504" lon="8.010148931807752"><ele>-12.666666666666668</ele><time>2026-04-07T15:41:40Z</time></trkpt><trkpt lat="34.01120813424939" lon="8.009960595200743"><ele>-13.333333333333334</ele><time>2026-04-07T15:41:41Z</time></trkpt><trkpt lat="34.01119301588545" lon="8.009768130446487"><ele>-14.0</ele><time>2026-04-07T15:41:42Z</time></trkpt><trkpt lat="34.01118059142482" lon="8.009574005528854"><ele>-14.0</ele><time>2026-04-07T15:41:43Z</time></trkpt><trkpt lat="34.0111690420071" lon="8.009378158799718"><ele>-14.0</ele><time>2026-04-07T15:41:44Z</time></trkpt><trkpt lat="34.01116116604665" lon="8.009181158319008"><ele>-14.0</ele><time>2026-04-07T15:41:45Z</time></trkpt><trkpt lat="34.011153363424555" lon="8.008983553871772"><ele>-14.333333333333334</ele><time>2026-04-07T15:41:46Z</time></trkpt><trkpt lat="34.01114914851134" lon="8.008785806090927"><ele>-14.666666666666668</ele><time>2026-04-07T15:41:47Z</time></trkpt><trkpt lat="34.011150889324234" lon="8.008587304480423"><ele>-15.0</ele><time>2026-04-07T15:41:48Z</time></trkpt><trkpt lat="34.01115563084766" lon="8.008390007252617"><ele>-15.0</ele><time>2026-04-07T15:41:49Z</time></trkpt><trkpt lat="34.0111609839988" lon="8.008193807238206"><ele>-15.0</ele><time>2026-04-07T15:41:50Z</time></trkpt><trkpt lat="34.01116664400117" lon="8.007999860716918"><ele>-15.0</ele><time>2026-04-07T15:41:51Z</time></trkpt><trkpt lat="34.011178597360484" lon="8.007807278653676"><ele>-15.0</ele><time>2026-04-07T15:41:52Z</time></trkpt><trkpt lat="34.01119142039553" lon="8.007619648892067"><ele>-15.0</ele><time>2026-04-07T15:41:53Z</time></trkpt><trkpt lat="34.01120022795429" lon="8.007435073841478"><ele>-15.0</ele><time>2026-04-07T15:41:54Z</time></trkpt><trkpt lat="34.01121002484806" lon="8.007257265987402"><ele>-15.25</ele><time>2026-04-07T15:41:55Z</time></trkpt><trkpt lat="34.01121879168509" lon="8.007082926924971"><ele>-15.5</ele><time>2026-04-07T15:41:56Z</time></trkpt><trkpt lat="34.011226121731525" lon="8.006911179435685"><ele>-15.75</ele><time>2026-04-07T15:41:57Z</time></trkpt><trkpt lat="34.01122294577961" lon="8.00673547779144"><ele>-16.0</ele><time>2026-04-07T15:41:58Z</time></trkpt><trkpt lat="34.01122222894938" lon="8.00656395197737"><ele>-16.0</ele><time>2026-04-07T15:41:59Z</time></trkpt><trkpt lat="34.01121442200942" lon="8.006386900939924"><ele>-16.0</ele><time>2026-04-07T15:42:00Z</time></trkpt><trkpt lat="34.01120739099693" lon="8.00620705056158"><ele>-16.0</ele><time>2026-04-07T15:42:01Z</time></trkpt><trkpt lat="34.01119892801463" lon="8.006026346148115"><ele>-16.0</ele><time>2026-04-07T15:42:02Z</time></trkpt><trkpt lat="34.0111881203331" lon="8.0058453972307"><ele>-15.75</ele><time>2026-04-07T15:42:03Z</time></trkpt><trkpt lat="34.011177503350446" lon="8.005666498158698"><ele>-15.5</ele><time>2026-04-07T15:42:04Z</time></trkpt><trkpt lat="34.01116632950132" lon="8.005486661950282"><ele>-15.25</ele><time>2026-04-07T15:42:05Z</time></trkpt><trkpt lat="34.011154634399965" lon="8.005305220349909"><ele>-15.0</ele><time>2026-04-07T15:42:06Z</time></trkpt><trkpt lat="34.011144271545035" lon="8.005127301068718"><ele>-15.0</ele><time>2026-04-07T15:42:07Z</time></trkpt><trkpt lat="34.01113180962634" lon="8.004951379873194"><ele>-15.0</ele><time>2026-04-07T15:42:08Z</time></trkpt><trkpt lat="34.01111802315107" lon="8.004779103963772"><ele>-15.0</ele><time>2026-04-07T15:42:09Z</time></trkpt><trkpt lat="34.01110393890572" lon="8.004609074102156"><ele>-15.0</ele><time>2026-04-07T15:42:10Z</time></trkpt><trkpt lat="34.01108595299361" lon="8.004438444926777"><ele>-15.0</ele><time>2026-04-07T15:42:11Z</time></trkpt><trkpt lat="34.0110673495254" lon="8.004265606831423"><ele>-15.0</ele><time>2026-04-07T15:42:12Z</time></trkpt><trkpt lat="34.01104353244303" lon="8.004095574875285"><ele>-15.0</ele><time>2026-04-07T15:42:13Z</time></trkpt><trkpt lat="34.011025548717946" lon="8.003918755507474"><ele>-15.0</ele><time>2026-04-07T15:42:14Z</time></trkpt><trkpt lat="34.01099709645989" lon="8.003745960606953"><ele>-14.75</ele><time>2026-04-07T15:42:15Z</time></trkpt><trkpt lat="34.01096957151166" lon="8.003571399928218"><ele>-14.5</ele><time>2026-04-07T15:42:16Z</time></trkpt><trkpt lat="34.01094320784638" lon="8.00339571528016"><ele>-14.25</ele><time>2026-04-07T15:42:17Z</time></trkpt><trkpt lat="34.01092051914076" lon="8.00321916833689"><ele>-14.0</ele><time>2026-04-07T15:42:18Z</time></trkpt><trkpt lat="34.010897821022844" lon="8.003040773168074"><ele>-15.333333333333334</ele><time>2026-04-07T15:42:19Z</time></trkpt><trkpt lat="34.01087511083979" lon="8.002858943282428"><ele>-16.666666666666668</ele><time>2026-04-07T15:42:20Z</time></trkpt><trkpt lat="34.01085441779841" lon="8.002674826907189"><ele>-18.0</ele><time>2026-04-07T15:42:21Z</time></trkpt><trkpt lat="34.010832088547666" lon="8.002492014254337"><ele>-17.0</ele><time>2026-04-07T15:42:22Z</time></trkpt><trkpt lat="34.01080848584881" lon="8.002307339508699"><ele>-16.0</ele><time>2026-04-07T15:42:23Z</time></trkpt><trkpt lat="34.010783808485904" lon="8.00212346715705"><ele>-15.0</ele><time>2026-04-07T15:42:24Z</time></trkpt><trkpt lat="34.010764136982175" lon="8.001937037746055"><ele>-15.0</ele><time>2026-04-07T15:42:25Z</time></trkpt><trkpt lat="34.01074078426016" lon="8.001750315269515"><ele>-15.0</ele><time>2026-04-07T15:42:26Z</time></trkpt><trkpt lat="34.0107196152083" lon="8.001562501702455"><ele>-15.0</ele><time>2026-04-07T15:42:27Z</time></trkpt><trkpt lat="34.01070407738589" lon="8.001372597839296"><ele>-15.0</ele><time>2026-04-07T15:42:28Z</time></trkpt><trkpt lat="34.01068998957334" lon="8.001184545965584"><ele>-15.0</ele><time>2026-04-07T15:42:29Z</time></trkpt><trkpt lat="34.01068393412841" lon="8.000995095233083"><ele>-15.0</ele><time>2026-04-07T15:42:30Z</time></trkpt><trkpt lat="34.010675878290854" lon="8.000806464207148"><ele>-15.0</ele><time>2026-04-07T15:42:31Z</time></trkpt><trkpt lat="34.010663568731864" lon="8.000617284938834"><ele>-15.0</ele><time>2026-04-07T15:42:32Z</time></trkpt><trkpt lat="34.01065397772603" lon="8.000432665995174"><ele>-15.0</ele><time>2026-04-07T15:42:33Z</time></trkpt><trkpt lat="34.01065020520104" lon="8.000244082343329"><ele>-15.0</ele><time>2026-04-07T15:42:34Z</time></trkpt><trkpt lat="34.010655519731735" lon="8.000057950439528"><ele>-15.0</ele><time>2026-04-07T15:42:35Z</time></trkpt><trkpt lat="34.010669529633304" lon="7.9998732028511474"><ele>-15.0</ele><time>2026-04-07T15:42:36Z</time></trkpt><trkpt lat="34.01068183930598" lon="7.999687847750695"><ele>-15.0</ele><time>2026-04-07T15:42:37Z</time></trkpt><trkpt lat="34.01069542857046" lon="7.999501640143229"><ele>-15.0</ele><time>2026-04-07T15:42:38Z</time></trkpt><trkpt lat="34.01071917590807" lon="7.999319024599402"><ele>-15.0</ele><time>2026-04-07T15:42:39Z</time></trkpt><trkpt lat="34.01074457876974" lon="7.999136111798393"><ele>-15.333333333333332</ele><time>2026-04-07T15:42:40Z</time></trkpt><trkpt lat="34.01077122537444" lon="7.998951634180422"><ele>-15.666666666666666</ele><time>2026-04-07T15:42:41Z</time></trkpt><trkpt lat="34.01079977241155" lon="7.998767767352172"><ele>-16.0</ele><time>2026-04-07T15:42:42Z</time></trkpt><trkpt lat="34.0108303219215" lon="7.998585238717991"><ele>-17.0</ele><time>2026-04-07T15:42:43Z</time></trkpt><trkpt lat="34.01086288982235" lon="7.998403287144986"><ele>-18.0</ele><time>2026-04-07T15:42:44Z</time></trkpt><trkpt lat="34.01089640472248" lon="7.9982239759768605"><ele>-19.0</ele><time>2026-04-07T15:42:45Z</time></trkpt><trkpt lat="34.010930793731234" lon="7.9980462969042785"><ele>-19.0</ele><time>2026-04-07T15:42:46Z</time></trkpt><trkpt lat="34.010964334326424" lon="7.997868211569701"><ele>-19.0</ele><time>2026-04-07T15:42:47Z</time></trkpt><trkpt lat="34.01099768959731" lon="7.997691539278305"><ele>-19.0</ele><time>2026-04-07T15:42:48Z</time></trkpt><trkpt lat="34.01103347004728" lon="7.997514478215349"><ele>-18.0</ele><time>2026-04-07T15:42:49Z</time></trkpt><trkpt lat="34.0110705157993" lon="7.997339148056872"><ele>-17.0</ele><time>2026-04-07T15:42:50Z</time></trkpt><trkpt lat="34.011107739429846" lon="7.997162591217156"><ele>-16.0</ele><time>2026-04-07T15:42:51Z</time></trkpt><trkpt lat="34.01114558169788" lon="7.99698529837427"><ele>-16.0</ele><time>2026-04-07T15:42:52Z</time></trkpt><trkpt lat="34.011182312570746" lon="7.996808972239355"><ele>-16.0</ele><time>2026-04-07T15:42:53Z</time></trkpt><trkpt lat="34.011220078424195" lon="7.996632311159032"><ele>-16.0</ele><time>2026-04-07T15:42:54Z</time></trkpt><trkpt lat="34.011259830328704" lon="7.996456459933126"><ele>-16.0</ele><time>2026-04-07T15:42:55Z</time></trkpt><trkpt lat="34.01130500854092" lon="7.9962792366524384"><ele>-16.0</ele><time>2026-04-07T15:42:56Z</time></trkpt><trkpt lat="34.011351082853295" lon="7.996101423180172"><ele>-16.0</ele><time>2026-04-07T15:42:57Z</time></trkpt><trkpt lat="34.0113988524868" lon="7.995924680876354"><ele>-16.0</ele><time>2026-04-07T15:42:58Z</time></trkpt><trkpt lat="34.01144186739335" lon="7.995745984447182"><ele>-16.0</ele><time>2026-04-07T15:42:59Z</time></trkpt><trkpt lat="34.011484413724084" lon="7.995567693941425"><ele>-16.0</ele><time>2026-04-07T15:43:00Z</time></trkpt><trkpt lat="34.011523009624185" lon="7.995385920504382"><ele>-16.0</ele><time>2026-04-07T15:43:01Z</time></trkpt><trkpt lat="34.011557940715086" lon="7.995202685101832"><ele>-16.0</ele><time>2026-04-07T15:43:02Z</time></trkpt><trkpt lat="34.01158973490153" lon="7.995020600950178"><ele>-16.0</ele><time>2026-04-07T15:43:03Z</time></trkpt><trkpt lat="34.01161769934329" lon="7.99483800692472"><ele>-16.0</ele><time>2026-04-07T15:43:04Z</time></trkpt><trkpt lat="34.011640715578054" lon="7.994654779113002"><ele>-16.0</ele><time>2026-04-07T15:43:05Z</time></trkpt><trkpt lat="34.011662292881" lon="7.9944747970205094"><ele>-16.0</ele><time>2026-04-07T15:43:06Z</time></trkpt><trkpt lat="34.011679202269065" lon="7.994297344407436"><ele>-16.0</ele><time>2026-04-07T15:43:07Z</time></trkpt><trkpt lat="34.01169331471838" lon="7.994122780542873"><ele>-16.0</ele><time>2026-04-07T15:43:08Z</time></trkpt><trkpt lat="34.01170778532446" lon="7.993948612678169"><ele>-16.0</ele><time>2026-04-07T15:43:09Z</time></trkpt><trkpt lat="34.01172241172796" lon="7.993776451894194"><ele>-16.0</ele><time>2026-04-07T15:43:10Z</time></trkpt><trkpt lat="34.01173710588807" lon="7.993603988573236"><ele>-16.0</ele><time>2026-04-07T15:43:11Z</time></trkpt><trkpt lat="34.011751992593304" lon="7.9934319549696395"><ele>-16.0</ele><time>2026-04-07T15:43:12Z</time></trkpt><trkpt lat="34.011767683714325" lon="7.9932606084331645"><ele>-16.0</ele><time>2026-04-07T15:43:13Z</time></trkpt><trkpt lat="34.01178652990519" lon="7.993090232299831"><ele>-16.0</ele><time>2026-04-07T15:43:14Z</time></trkpt><trkpt lat="34.0118071364028" lon="7.992920493693887"><ele>-16.0</ele><time>2026-04-07T15:43:15Z</time></trkpt><trkpt lat="34.01182990775061" lon="7.992749111446969"><ele>-16.0</ele><time>2026-04-07T15:43:16Z</time></trkpt><trkpt lat="34.01185262382673" lon="7.992578688611546"><ele>-16.0</ele><time>2026-04-07T15:43:17Z</time></trkpt><trkpt lat="34.01187454486436" lon="7.992409887032031"><ele>-16.0</ele><time>2026-04-07T15:43:18Z</time></trkpt><trkpt lat="34.01189800504254" lon="7.992243748311851"><ele>-16.0</ele><time>2026-04-07T15:43:19Z</time></trkpt><trkpt lat="34.011925262172106" lon="7.99208010318699"><ele>-16.0</ele><time>2026-04-07T15:43:20Z</time></trkpt><trkpt lat="34.01195209361771" lon="7.991917765868916"><ele>-16.0</ele><time>2026-04-07T15:43:21Z</time></trkpt><trkpt lat="34.01197803042771" lon="7.991757128539083"><ele>-16.0</ele><time>2026-04-07T15:43:22Z</time></trkpt><trkpt lat="34.01199994969278" lon="7.991594377035127"><ele>-16.0</ele><time>2026-04-07T15:43:23Z</time></trkpt><trkpt lat="34.012028315566525" lon="7.99143684596397"><ele>-16.0</ele><time>2026-04-07T15:43:24Z</time></trkpt><trkpt lat="34.01205732743186" lon="7.991276495412492"><ele>-16.0</ele><time>2026-04-07T15:43:25Z</time></trkpt><trkpt lat="34.012083736976926" lon="7.99111817131914"><ele>-16.0</ele><time>2026-04-07T15:43:26Z</time></trkpt><trkpt lat="34.01210780205912" lon="7.990962537103404"><ele>-16.0</ele><time>2026-04-07T15:43:27Z</time></trkpt><trkpt lat="34.012131053760314" lon="7.990810238124524"><ele>-16.0</ele><time>2026-04-07T15:43:28Z</time></trkpt><trkpt lat="34.012153719498926" lon="7.990659477623569"><ele>-16.0</ele><time>2026-04-07T15:43:29Z</time></trkpt><trkpt lat="34.012183227049654" lon="7.9905066520841315"><ele>-16.0</ele><time>2026-04-07T15:43:30Z</time></trkpt><trkpt lat="34.01221107351221" lon="7.990356807420504"><ele>-16.0</ele><time>2026-04-07T15:43:31Z</time></trkpt><trkpt lat="34.012235483187816" lon="7.990205141281632"><ele>-16.0</ele><time>2026-04-07T15:43:32Z</time></trkpt><trkpt lat="34.012270339279304" lon="7.990054465121783"><ele>-16.0</ele><time>2026-04-07T15:43:33Z</time></trkpt><trkpt lat="34.01229065915849" lon="7.989915538257226"><ele>-16.0</ele><time>2026-04-07T15:43:34Z</time></trkpt><trkpt lat="34.012306265727545" lon="7.989771634280818"><ele>-15.5</ele><time>2026-04-07T15:43:35Z</time></trkpt><trkpt lat="34.01232486251914" lon="7.989629225621099"><ele>-15.0</ele><time>2026-04-07T15:43:36Z</time></trkpt><trkpt lat="34.012341629218774" lon="7.989488887225987"><ele>-14.5</ele><time>2026-04-07T15:43:37Z</time></trkpt><trkpt lat="34.01235784027665" lon="7.989344234024699"><ele>-14.0</ele><time>2026-04-07T15:43:38Z</time></trkpt><trkpt lat="34.01238159353988" lon="7.989200817975803"><ele>-14.0</ele><time>2026-04-07T15:43:39Z</time></trkpt><trkpt lat="34.01240220704992" lon="7.989055756219971"><ele>-14.0</ele><time>2026-04-07T15:43:40Z</time></trkpt><trkpt lat="34.012424453887554" lon="7.988910427362595"><ele>-14.0</ele><time>2026-04-07T15:43:41Z</time></trkpt><trkpt lat="34.012447122625616" lon="7.988763344064935"><ele>-14.0</ele><time>2026-04-07T15:43:42Z</time></trkpt><trkpt lat="34.01247532771024" lon="7.988619790773979"><ele>-14.5</ele><time>2026-04-07T15:43:43Z</time></trkpt><trkpt lat="34.01250391343476" lon="7.988477647018513"><ele>-15.0</ele><time>2026-04-07T15:43:44Z</time></trkpt><trkpt lat="34.01253976880686" lon="7.988341817152793"><ele>-15.5</ele><time>2026-04-07T15:43:45Z</time></trkpt><trkpt lat="34.01258009468006" lon="7.988210167839946"><ele>-16.0</ele><time>2026-04-07T15:43:46Z</time></trkpt><trkpt lat="34.01262725376829" lon="7.988085113929805"><ele>-16.0</ele><time>2026-04-07T15:43:47Z</time></trkpt><trkpt lat="34.01268199200387" lon="7.987967355433843"><ele>-16.0</ele><time>2026-04-07T15:43:48Z</time></trkpt><trkpt lat="34.01274431047399" lon="7.9878550714057415"><ele>-16.0</ele><time>2026-04-07T15:43:49Z</time></trkpt><trkpt lat="34.01281370536359" lon="7.987750302894569"><ele>-16.0</ele><time>2026-04-07T15:43:50Z</time></trkpt><trkpt lat="34.012880736298754" lon="7.98764932219542"><ele>-16.0</ele><time>2026-04-07T15:43:51Z</time></trkpt><trkpt lat="34.01295860438733" lon="7.987559217257991"><ele>-15.8</ele><time>2026-04-07T15:43:52Z</time></trkpt><trkpt lat="34.01304189333149" lon="7.987477249750519"><ele>-15.600000000000001</ele><time>2026-04-07T15:43:53Z</time></trkpt><trkpt lat="34.01312091655176" lon="7.987394443486592"><ele>-15.4</ele><time>2026-04-07T15:43:54Z</time></trkpt><trkpt lat="34.013194014982254" lon="7.987319567901465"><ele>-15.2</ele><time>2026-04-07T15:43:55Z</time></trkpt><trkpt lat="34.013259180805264" lon="7.987250668928215"><ele>-15.0</ele><time>2026-04-07T15:43:56Z</time></trkpt><trkpt lat="34.0133234961875" lon="7.987178683549051"><ele>-15.166666666666666</ele><time>2026-04-07T15:43:57Z</time></trkpt><trkpt lat="34.013386153323665" lon="7.987099387894184"><ele>-15.333333333333332</ele><time>2026-04-07T15:43:58Z</time></trkpt><trkpt lat="34.013445812955695" lon="7.9870151785790515"><ele>-15.5</ele><time>2026-04-07T15:43:59Z</time></trkpt><trkpt lat="34.01349874624681" lon="7.986924955775144"><ele>-15.666666666666666</ele><time>2026-04-07T15:44:00Z</time></trkpt><trkpt lat="34.0135486135963" lon="7.986835307355375"><ele>-15.833333333333332</ele><time>2026-04-07T15:44:01Z</time></trkpt><trkpt lat="34.01359243227896" lon="7.98675193041758"><ele>-16.0</ele><time>2026-04-07T15:44:02Z</time></trkpt><trkpt lat="34.01363395014145" lon="7.986672960135243"><ele>-15.999999999999998</ele><time>2026-04-07T15:44:03Z</time></trkpt><trkpt lat="34.0136723566307" lon="7.986597396994694"><ele>-16.0</ele><time>2026-04-07T15:44:04Z</time></trkpt><trkpt lat="34.01371831928801" lon="7.98652946264368"><ele>-16.0</ele><time>2026-04-07T15:44:05Z</time></trkpt><trkpt lat="34.01377841903156" lon="7.986472891092245"><ele>-16.0</ele><time>2026-04-07T15:44:06Z</time></trkpt><trkpt lat="34.01384337871014" lon="7.98641760523086"><ele>-15.999999999999998</ele><time>2026-04-07T15:44:07Z</time></trkpt><trkpt lat="34.01391556749619" lon="7.986359264175739"><ele>-16.0</ele><time>2026-04-07T15:44:08Z</time></trkpt><trkpt lat="34.01399339101342" lon="7.9862933129557465"><ele>-16.0</ele><time>2026-04-07T15:44:09Z</time></trkpt><trkpt lat="34.01406765103528" lon="7.986219312263301"><ele>-16.0</ele><time>2026-04-07T15:44:10Z</time></trkpt><trkpt lat="34.01414020735828" lon="7.986138081140078"><ele>-16.0</ele><time>2026-04-07T15:44:11Z</time></trkpt><trkpt lat="34.01420916172563" lon="7.986050486210328"><ele>-16.0</ele><time>2026-04-07T15:44:12Z</time></trkpt><trkpt lat="34.014275360786336" lon="7.985957879616918"><ele>-16.0</ele><time>2026-04-07T15:44:13Z</time></trkpt><trkpt lat="34.01433580726014" lon="7.985865813538992"><ele>-15.8</ele><time>2026-04-07T15:44:14Z</time></trkpt><trkpt lat="34.01439510598586" lon="7.9857730777785845"><ele>-15.600000000000001</ele><time>2026-04-07T15:44:15Z</time></trkpt><trkpt lat="34.01445266754158" lon="7.98568021815857"><ele>-15.4</ele><time>2026-04-07T15:44:16Z</time></trkpt><trkpt lat="34.01450842359278" lon="7.9855798162677925"><ele>-15.2</ele><time>2026-04-07T15:44:17Z</time></trkpt><trkpt lat="34.01456161714327" lon="7.985476671271283"><ele>-15.0</ele><time>2026-04-07T15:44:18Z</time></trkpt><trkpt lat="34.01461641484463" lon="7.985375000344041"><ele>-15.0</ele><time>2026-04-07T15:44:19Z</time></trkpt><trkpt lat="34.014672411089244" lon="7.9852739381698195"><ele>-15.0</ele><time>2026-04-07T15:44:20Z</time></trkpt><trkpt lat="34.01473170327792" lon="7.985171765738677"><ele>-15.0</ele><time>2026-04-07T15:44:21Z</time></trkpt><trkpt lat="34.014787585806225" lon="7.985064861269854"><ele>-15.0</ele><time>2026-04-07T15:44:22Z</time></trkpt><trkpt lat="34.014843428740875" lon="7.984957216553654"><ele>-15.0</ele><time>2026-04-07T15:44:23Z</time></trkpt><trkpt lat="34.01490197200986" lon="7.984850508525718"><ele>-15.0</ele><time>2026-04-07T15:44:24Z</time></trkpt><trkpt lat="34.014956381501534" lon="7.984742005268983"><ele>-15.0</ele><time>2026-04-07T15:44:25Z</time></trkpt><trkpt lat="34.01501313317963" lon="7.9846350343570025"><ele>-15.0</ele><time>2026-04-07T15:44:26Z</time></trkpt><trkpt lat="34.01506890024252" lon="7.984526028322973"><ele>-15.0</ele><time>2026-04-07T15:44:27Z</time></trkpt><trkpt lat="34.01512511158655" lon="7.9844176033873895"><ele>-15.0</ele><time>2026-04-07T15:44:28Z</time></trkpt><trkpt lat="34.01517993388335" lon="7.984310474486025"><ele>-15.8</ele><time>2026-04-07T15:44:29Z</time></trkpt><trkpt lat="34.01523344814782" lon="7.984206351747999"><ele>-16.6</ele><time>2026-04-07T15:44:30Z</time></trkpt><trkpt lat="34.01528554245817" lon="7.98409746271285"><ele>-17.4</ele><time>2026-04-07T15:44:31Z</time></trkpt><trkpt lat="34.01534478596532" lon="7.9839885887637765"><ele>-18.2</ele><time>2026-04-07T15:44:32Z</time></trkpt><trkpt lat="34.015403506514254" lon="7.983877692178984"><ele>-19.0</ele><time>2026-04-07T15:44:33Z</time></trkpt><trkpt lat="34.01545842002897" lon="7.98376562847494"><ele>-19.0</ele><time>2026-04-07T15:44:34Z</time></trkpt><trkpt lat="34.01550965890777" lon="7.983650544310665"><ele>-19.0</ele><time>2026-04-07T15:44:35Z</time></trkpt><trkpt lat="34.01555329083602" lon="7.9835322223856995"><ele>-19.0</ele><time>2026-04-07T15:44:36Z</time></trkpt><trkpt lat="34.015594896390304" lon="7.983409693504885"><ele>-19.0</ele><time>2026-04-07T15:44:37Z</time></trkpt><trkpt lat="34.015636108496295" lon="7.983285976325013"><ele>-19.0</ele><time>2026-04-07T15:44:38Z</time></trkpt><trkpt lat="34.015676714295964" lon="7.983158401763119"><ele>-18.75</ele><time>2026-04-07T15:44:39Z</time></trkpt><trkpt lat="34.01571704688" lon="7.983029366224198"><ele>-18.5</ele><time>2026-04-07T15:44:40Z</time></trkpt><trkpt lat="34.015758441047836" lon="7.982900161598089"><ele>-18.25</ele><time>2026-04-07T15:44:41Z</time></trkpt><trkpt lat="34.01580219555875" lon="7.9827680068956814"><ele>-18.0</ele><time>2026-04-07T15:44:42Z</time></trkpt><trkpt lat="34.01584697853054" lon="7.982635886187066"><ele>-18.5</ele><time>2026-04-07T15:44:43Z</time></trkpt><trkpt lat="34.01588964975638" lon="7.982501773684505"><ele>-19.0</ele><time>2026-04-07T15:44:44Z</time></trkpt><trkpt lat="34.01593101003539" lon="7.982365113158705"><ele>-19.5</ele><time>2026-04-07T15:44:45Z</time></trkpt><trkpt lat="34.015972572919594" lon="7.982227377563358"><ele>-20.0</ele><time>2026-04-07T15:44:46Z</time></trkpt><trkpt lat="34.016015153000104" lon="7.982091798768022"><ele>-20.0</ele><time>2026-04-07T15:44:47Z</time></trkpt><trkpt lat="34.01605776830314" lon="7.9819562841382945"><ele>-20.0</ele><time>2026-04-07T15:44:48Z</time></trkpt><trkpt lat="34.01610359015439" lon="7.981824749826441"><ele>-20.0</ele><time>2026-04-07T15:44:49Z</time></trkpt><trkpt lat="34.016155542218776" lon="7.981697348364583"><ele>-20.0</ele><time>2026-04-07T15:44:50Z</time></trkpt><trkpt lat="34.01620815613235" lon="7.981572000572522"><ele>-20.5</ele><time>2026-04-07T15:44:51Z</time></trkpt><trkpt lat="34.016263322743974" lon="7.981445887798428"><ele>-21.0</ele><time>2026-04-07T15:44:52Z</time></trkpt><trkpt lat="34.01631804560556" lon="7.981320562418046"><ele>-21.5</ele><time>2026-04-07T15:44:53Z</time></trkpt><trkpt lat="34.016370070548696" lon="7.981192951210404"><ele>-22.0</ele><time>2026-04-07T15:44:54Z</time></trkpt><trkpt lat="34.01642189242373" lon="7.981066290767324"><ele>-22.0</ele><time>2026-04-07T15:44:55Z</time></trkpt><trkpt lat="34.01647298712765" lon="7.980941340000791"><ele>-22.0</ele><time>2026-04-07T15:44:56Z</time></trkpt><trkpt lat="34.01652331985833" lon="7.9808186741372324"><ele>-22.0</ele><time>2026-04-07T15:44:57Z</time></trkpt><trkpt lat="34.01657814149351" lon="7.980700087787131"><ele>-22.0</ele><time>2026-04-07T15:44:58Z</time></trkpt><trkpt lat="34.016637559005915" lon="7.98058507995419"><ele>-21.200000000000003</ele><time>2026-04-07T15:44:59Z</time></trkpt><trkpt lat="34.01669377677996" lon="7.980472199061917"><ele>-20.400000000000002</ele><time>2026-04-07T15:45:00Z</time></trkpt><trkpt lat="34.016751911809244" lon="7.980364654757789"><ele>-19.6</ele><time>2026-04-07T15:45:01Z</time></trkpt><trkpt lat="34.01680772106075" lon="7.980257973813961"><ele>-18.8</ele><time>2026-04-07T15:45:02Z</time></trkpt><trkpt lat="34.016861690252476" lon="7.980156738842598"><ele>-18.0</ele><time>2026-04-07T15:45:03Z</time></trkpt><trkpt lat="34.016913124741436" lon="7.9800595999548305"><ele>-17.8</ele><time>2026-04-07T15:45:04Z</time></trkpt><trkpt lat="34.016959167531304" lon="7.9799538817505065"><ele>-17.6</ele><time>2026-04-07T15:45:05Z</time></trkpt><trkpt lat="34.01700666768376" lon="7.97983928122696"><ele>-17.4</ele><time>2026-04-07T15:45:06Z</time></trkpt><trkpt lat="34.017056878069546" lon="7.979725683688485"><ele>-17.2</ele><time>2026-04-07T15:45:07Z</time></trkpt><trkpt lat="34.017100982743855" lon="7.979610114123612"><ele>-17.0</ele><time>2026-04-07T15:45:08Z</time></trkpt><trkpt lat="34.01715038901737" lon="7.979497967556117"><ele>-17.0</ele><time>2026-04-07T15:45:09Z</time></trkpt><trkpt lat="34.017201686222236" lon="7.9793882420426"><ele>-17.0</ele><time>2026-04-07T15:45:10Z</time></trkpt><trkpt lat="34.01725355994264" lon="7.979276294979719"><ele>-17.0</ele><time>2026-04-07T15:45:11Z</time></trkpt><trkpt lat="34.01730439861171" lon="7.9791670599774145"><ele>-17.0</ele><time>2026-04-07T15:45:12Z</time></trkpt><trkpt lat="34.01734902106063" lon="7.979052671911869"><ele>-17.0</ele><time>2026-04-07T15:45:13Z</time></trkpt><trkpt lat="34.01739392398745" lon="7.978933894719269"><ele>-17.0</ele><time>2026-04-07T15:45:14Z</time></trkpt><trkpt lat="34.017431102811244" lon="7.978815700758779"><ele>-17.0</ele><time>2026-04-07T15:45:15Z</time></trkpt><trkpt lat="34.01746793130395" lon="7.97869534545071"><ele>-17.0</ele><time>2026-04-07T15:45:16Z</time></trkpt><trkpt lat="34.0175026001835" lon="7.978576076814289"><ele>-17.0</ele><time>2026-04-07T15:45:17Z</time></trkpt><trkpt lat="34.01753257769238" lon="7.9784557018029885"><ele>-17.0</ele><time>2026-04-07T15:45:18Z</time></trkpt><trkpt lat="34.01756847069948" lon="7.978337730833386"><ele>-17.6</ele><time>2026-04-07T15:45:19Z</time></trkpt><trkpt lat="34.01760747175884" lon="7.978228535718737"><ele>-18.2</ele><time>2026-04-07T15:45:20Z</time></trkpt><trkpt lat="34.017653712893015" lon="7.97812240940588"><ele>-18.8</ele><time>2026-04-07T15:45:21Z</time></trkpt><trkpt lat="34.01769810615805" lon="7.978016115784051"><ele>-19.4</ele><time>2026-04-07T15:45:22Z</time></trkpt><trkpt lat="34.017745044884855" lon="7.977918636517394"><ele>-20.0</ele><time>2026-04-07T15:45:23Z</time></trkpt><trkpt lat="34.01779644643178" lon="7.977817466121573"><ele>-20.0</ele><time>2026-04-07T15:45:24Z</time></trkpt><trkpt lat="34.017852882671704" lon="7.977721122881146"><ele>-20.0</ele><time>2026-04-07T15:45:25Z</time></trkpt><trkpt lat="34.01790999512903" lon="7.977629064596813"><ele>-20.0</ele><time>2026-04-07T15:45:26Z</time></trkpt><trkpt lat="34.01796583683094" lon="7.977536010187804"><ele>-20.0</ele><time>2026-04-07T15:45:27Z</time></trkpt><trkpt lat="34.01802480258062" lon="7.977445444248735"><ele>-20.0</ele><time>2026-04-07T15:45:28Z</time></trkpt><trkpt lat="34.01808805175013" lon="7.9773529372714185"><ele>-19.6</ele><time>2026-04-07T15:45:29Z</time></trkpt><trkpt lat="34.01815046825669" lon="7.977261554914614"><ele>-19.2</ele><time>2026-04-07T15:45:30Z</time></trkpt><trkpt lat="34.01822001136425" lon="7.97717487210635"><ele>-18.8</ele><time>2026-04-07T15:45:31Z</time></trkpt><trkpt lat="34.01828739397523" lon="7.9770888912608715"><ele>-18.4</ele><time>2026-04-07T15:45:32Z</time></trkpt><trkpt lat="34.0183534423954" lon="7.976996467447136"><ele>-18.0</ele><time>2026-04-07T15:45:33Z</time></trkpt><trkpt lat="34.018417744672846" lon="7.9769009919896785"><ele>-18.0</ele><time>2026-04-07T15:45:34Z</time></trkpt><trkpt lat="34.01847768167902" lon="7.9768027377194635"><ele>-18.0</ele><time>2026-04-07T15:45:35Z</time></trkpt><trkpt lat="34.01853693372666" lon="7.976699993180935"><ele>-18.0</ele><time>2026-04-07T15:45:36Z</time></trkpt><trkpt lat="34.01859564180364" lon="7.976596748813739"><ele>-18.0</ele><time>2026-04-07T15:45:37Z</time></trkpt><trkpt lat="34.018660630514354" lon="7.976494181541899"><ele>-18.0</ele><time>2026-04-07T15:45:38Z</time></trkpt><trkpt lat="34.01872524062484" lon="7.97639379144096"><ele>-18.0</ele><time>2026-04-07T15:45:39Z</time></trkpt><trkpt lat="34.01879641250193" lon="7.976297532931805"><ele>-18.0</ele><time>2026-04-07T15:45:40Z</time></trkpt><trkpt lat="34.01886880570844" lon="7.97620458078776"><ele>-18.0</ele><time>2026-04-07T15:45:41Z</time></trkpt><trkpt lat="34.01893977175042" lon="7.976113794120937"><ele>-18.0</ele><time>2026-04-07T15:45:42Z</time></trkpt><trkpt lat="34.01900625447828" lon="7.976019192935034"><ele>-18.0</ele><time>2026-04-07T15:45:43Z</time></trkpt><trkpt lat="34.01906953853112" lon="7.975926641601243"><ele>-18.0</ele><time>2026-04-07T15:45:44Z</time></trkpt><trkpt lat="34.019133146902426" lon="7.975830013803551"><ele>-18.0</ele><time>2026-04-07T15:45:45Z</time></trkpt><trkpt lat="34.019200280060204" lon="7.975727352305406"><ele>-18.0</ele><time>2026-04-07T15:45:46Z</time></trkpt><trkpt lat="34.01926273542283" lon="7.975621241588468"><ele>-18.0</ele><time>2026-04-07T15:45:47Z</time></trkpt><trkpt lat="34.019316760485246" lon="7.975506378490976"><ele>-18.0</ele><time>2026-04-07T15:45:48Z</time></trkpt><trkpt lat="34.01936800927628" lon="7.975389374527661"><ele>-18.0</ele><time>2026-04-07T15:45:49Z</time></trkpt><trkpt lat="34.01942250941439" lon="7.975274304694189"><ele>-18.0</ele><time>2026-04-07T15:45:50Z</time></trkpt><trkpt lat="34.01947718006765" lon="7.975160270729062"><ele>-18.0</ele><time>2026-04-07T15:45:51Z</time></trkpt><trkpt lat="34.01953331987799" lon="7.975044211572009"><ele>-18.0</ele><time>2026-04-07T15:45:52Z</time></trkpt><trkpt lat="34.01959115436232" lon="7.974930662717521"><ele>-18.0</ele><time>2026-04-07T15:45:53Z</time></trkpt><trkpt lat="34.0196507429197" lon="7.974820753593635"><ele>-18.2</ele><time>2026-04-07T15:45:54Z</time></trkpt><trkpt lat="34.019707608425136" lon="7.974709041025599"><ele>-18.4</ele><time>2026-04-07T15:45:55Z</time></trkpt><trkpt lat="34.01975614920348" lon="7.9745931067356794"><ele>-18.599999999999998</ele><time>2026-04-07T15:45:56Z</time></trkpt><trkpt lat="34.01979719809501" lon="7.974481670210733"><ele>-18.8</ele><time>2026-04-07T15:45:57Z</time></trkpt><trkpt lat="34.01984656336049" lon="7.97437869484805"><ele>-19.0</ele><time>2026-04-07T15:45:58Z</time></trkpt><trkpt lat="34.01989534670492" lon="7.974279292455407"><ele>-19.0</ele><time>2026-04-07T15:45:59Z</time></trkpt><trkpt lat="34.019953061700164" lon="7.974186810692685"><ele>-19.0</ele><time>2026-04-07T15:46:00Z</time></trkpt><trkpt lat="34.02000066776357" lon="7.9740908076634645"><ele>-19.0</ele><time>2026-04-07T15:46:01Z</time></trkpt><trkpt lat="34.0200408700982" lon="7.9740006312730705"><ele>-19.0</ele><time>2026-04-07T15:46:02Z</time></trkpt><trkpt lat="34.020069929996" lon="7.973912627827097"><ele>-19.0</ele><time>2026-04-07T15:46:03Z</time></trkpt><trkpt lat="34.02010728954943" lon="7.973828843322614"><ele>-19.0</ele><time>2026-04-07T15:46:04Z</time></trkpt><trkpt lat="34.02015371507246" lon="7.973754338020697"><ele>-19.0</ele><time>2026-04-07T15:46:05Z</time></trkpt><trkpt lat="34.02020555586958" lon="7.973691426880729"><ele>-19.0</ele><time>2026-04-07T15:46:06Z</time></trkpt><trkpt lat="34.0202634340099" lon="7.973631170265372"><ele>-19.0</ele><time>2026-04-07T15:46:07Z</time></trkpt><trkpt lat="34.02032077048379" lon="7.9735655965618175"><ele>-19.0</ele><time>2026-04-07T15:46:08Z</time></trkpt><trkpt lat="34.02037556165355" lon="7.973499547047303"><ele>-19.0</ele><time>2026-04-07T15:46:09Z</time></trkpt><trkpt lat="34.0204269637361" lon="7.973430097853484"><ele>-19.0</ele><time>2026-04-07T15:46:10Z</time></trkpt><trkpt lat="34.02047558804035" lon="7.97335557994101"><ele>-19.0</ele><time>2026-04-07T15:46:11Z</time></trkpt><trkpt lat="34.02052880005519" lon="7.973280509162465"><ele>-19.0</ele><time>2026-04-07T15:46:12Z</time></trkpt><trkpt lat="34.02058541929817" lon="7.973204302886885"><ele>-19.0</ele><time>2026-04-07T15:46:13Z</time></trkpt><trkpt lat="34.0206387428175" lon="7.973129262356106"><ele>-19.0</ele><time>2026-04-07T15:46:14Z</time></trkpt><trkpt lat="34.02068519080937" lon="7.9730554256814745"><ele>-19.0</ele><time>2026-04-07T15:46:15Z</time></trkpt><trkpt lat="34.02072098005985" lon="7.9729755349014"><ele>-19.0</ele><time>2026-04-07T15:46:16Z</time></trkpt><trkpt lat="34.02075276211958" lon="7.972894774956247"><ele>-19.0</ele><time>2026-04-07T15:46:17Z</time></trkpt><trkpt lat="34.02079016990539" lon="7.972811646535012"><ele>-19.0</ele><time>2026-04-07T15:46:18Z</time></trkpt><trkpt lat="34.02083602831611" lon="7.972727375416393"><ele>-19.0</ele><time>2026-04-07T15:46:19Z</time></trkpt><trkpt lat="34.02089398270536" lon="7.972657378902402"><ele>-19.0</ele><time>2026-04-07T15:46:20Z</time></trkpt><trkpt lat="34.02096449407389" lon="7.972596197116535"><ele>-19.0</ele><time>2026-04-07T15:46:21Z</time></trkpt><trkpt lat="34.02103753566247" lon="7.972545945623505"><ele>-19.0</ele><time>2026-04-07T15:46:22Z</time></trkpt><trkpt lat="34.02110807431455" lon="7.972501349203824"><ele>-18.833333333333332</ele><time>2026-04-07T15:46:23Z</time></trkpt><trkpt lat="34.02117262891984" lon="7.972445085764572"><ele>-18.666666666666664</ele><time>2026-04-07T15:46:24Z</time></trkpt><trkpt lat="34.021234212743515" lon="7.9723848457250135"><ele>-18.5</ele><time>2026-04-07T15:46:25Z</time></trkpt><trkpt lat="34.021289038961946" lon="7.9723143494270134"><ele>-18.333333333333332</ele><time>2026-04-07T15:46:26Z</time></trkpt><trkpt lat="34.02134250881039" lon="7.972235759265872"><ele>-18.166666666666668</ele><time>2026-04-07T15:46:27Z</time></trkpt><trkpt lat="34.02139668735029" lon="7.972159198055096"><ele>-18.0</ele><time>2026-04-07T15:46:28Z</time></trkpt><trkpt lat="34.0214505179797" lon="7.972085081736032"><ele>-18.0</ele><time>2026-04-07T15:46:29Z</time></trkpt><trkpt lat="34.021503692123915" lon="7.972010701681425"><ele>-18.0</ele><time>2026-04-07T15:46:30Z</time></trkpt><trkpt lat="34.02155835501298" lon="7.971932607362368"><ele>-18.0</ele><time>2026-04-07T15:46:31Z</time></trkpt><trkpt lat="34.02161002048192" lon="7.971853522753285"><ele>-18.0</ele><time>2026-04-07T15:46:32Z</time></trkpt><trkpt lat="34.021662796157685" lon="7.971771671142913"><ele>-18.0</ele><time>2026-04-07T15:46:33Z</time></trkpt><trkpt lat="34.02172235415583" lon="7.9716964277224855"><ele>-18.0</ele><time>2026-04-07T15:46:34Z</time></trkpt><trkpt lat="34.02178386177669" lon="7.971620320419918"><ele>-18.0</ele><time>2026-04-07T15:46:35Z</time></trkpt><trkpt lat="34.021844607451754" lon="7.97154299740871"><ele>-18.0</ele><time>2026-04-07T15:46:36Z</time></trkpt><trkpt lat="34.02190748360032" lon="7.971466105462116"><ele>-18.0</ele><time>2026-04-07T15:46:37Z</time></trkpt><trkpt lat="34.021971445874385" lon="7.971386492193689"><ele>-18.0</ele><time>2026-04-07T15:46:38Z</time></trkpt><trkpt lat="34.02203490290445" lon="7.9713070218348925"><ele>-18.0</ele><time>2026-04-07T15:46:39Z</time></trkpt><trkpt lat="34.02209760991568" lon="7.9712271704958475"><ele>-18.0</ele><time>2026-04-07T15:46:40Z</time></trkpt><trkpt lat="34.02216139454811" lon="7.97114724194642"><ele>-18.0</ele><time>2026-04-07T15:46:41Z</time></trkpt><trkpt lat="34.02222537282483" lon="7.971067027662536"><ele>-18.0</ele><time>2026-04-07T15:46:42Z</time></trkpt><trkpt lat="34.022289023867344" lon="7.9709866587523255"><ele>-18.0</ele><time>2026-04-07T15:46:43Z</time></trkpt><trkpt lat="34.02235236252967" lon="7.970907386173276"><ele>-18.0</ele><time>2026-04-07T15:46:44Z</time></trkpt><trkpt lat="34.02241561700154" lon="7.970828194188691"><ele>-17.833333333333332</ele><time>2026-04-07T15:46:45Z</time></trkpt><trkpt lat="34.02247599836799" lon="7.970748680853023"><ele>-17.666666666666668</ele><time>2026-04-07T15:46:46Z</time></trkpt><trkpt lat="34.0225374297512" lon="7.970675112818854"><ele>-17.5</ele><time>2026-04-07T15:46:47Z</time></trkpt><trkpt lat="34.02259939823622" lon="7.970601375782349"><ele>-17.333333333333336</ele><time>2026-04-07T15:46:48Z</time></trkpt><trkpt lat="34.0226625443104" lon="7.9705342606767235"><ele>-17.166666666666668</ele><time>2026-04-07T15:46:48.999Z</time></trkpt><trkpt lat="34.022722689931406" lon="7.970467686292425"><ele>-17.0</ele><time>2026-04-07T15:46:49.999Z</time></trkpt><trkpt lat="34.02277302087116" lon="7.970400473763609"><ele>-16.6</ele><time>2026-04-07T15:46:50.999Z</time></trkpt><trkpt lat="34.02280921393659" lon="7.970327819648307"><ele>-16.2</ele><time>2026-04-07T15:46:51.999Z</time></trkpt><trkpt lat="34.02283683079819" lon="7.9702555999796685"><ele>-15.8</ele><time>2026-04-07T15:46:52.999Z</time></trkpt><trkpt lat="34.022880857132904" lon="7.9701179524830925"><ele>-15.4</ele><time>2026-04-07T15:46:54.999Z</time></trkpt><trkpt lat="34.02292550967357" lon="7.9699771795476995"><ele>-15.0</ele><time>2026-04-07T15:46:56.999Z</time></trkpt><trkpt lat="34.022948801890465" lon="7.969901837797607"><ele>-14.571428571428571</ele><time>2026-04-07T15:46:57.999Z</time></trkpt><trkpt lat="34.02297319957897" lon="7.969823858470033"><ele>-14.142857142857142</ele><time>2026-04-07T15:46:58.999Z</time></trkpt><trkpt lat="34.02300235580535" lon="7.969745912502172"><ele>-13.714285714285714</ele><time>2026-04-07T15:46:59.999Z</time></trkpt><trkpt lat="34.02303745435569" lon="7.96967061684125"><ele>-13.285714285714285</ele><time>2026-04-07T15:47:00.999Z</time></trkpt><trkpt lat="34.02307528052397" lon="7.969599792546307"><ele>-12.857142857142858</ele><time>2026-04-07T15:47:01.999Z</time></trkpt><trkpt lat="34.02311376932513" lon="7.969529424709395"><ele>-12.428571428571427</ele><time>2026-04-07T15:47:02.999Z</time></trkpt><trkpt lat="34.02314641660417" lon="7.969456017424609"><ele>-12.0</ele><time>2026-04-07T15:47:03.999Z</time></trkpt><trkpt lat="34.02317496565941" lon="7.969386274044086"><ele>-12.0</ele><time>2026-04-07T15:47:04.999Z</time></trkpt><trkpt lat="34.023203324370705" lon="7.969255262004951"><ele>-12.0</ele><time>2026-04-07T15:47:06.999Z</time></trkpt><trkpt lat="34.02319617924815" lon="7.969124716329545"><ele>-12.0</ele><time>2026-04-07T15:47:08.999Z</time></trkpt><trkpt lat="34.02318475510881" lon="7.968976036264764"><ele>-12.0</ele><time>2026-04-07T15:47:10.999Z</time></trkpt><trkpt lat="34.023188801262236" lon="7.968892930587236"><ele>-12.0</ele><time>2026-04-07T15:47:11.999Z</time></trkpt><trkpt lat="34.02319722015791" lon="7.968805342802648"><ele>-11.8</ele><time>2026-04-07T15:47:12.999Z</time></trkpt><trkpt lat="34.02320007753553" lon="7.9687053376983235"><ele>-11.6</ele><time>2026-04-07T15:47:13.999Z</time></trkpt><trkpt lat="34.023205989576766" lon="7.9685991665616935"><ele>-11.4</ele><time>2026-04-07T15:47:14.999Z</time></trkpt><trkpt lat="34.023214964301324" lon="7.968488421265844"><ele>-11.200000000000001</ele><time>2026-04-07T15:47:15.999Z</time></trkpt><trkpt lat="34.02322633530676" lon="7.968375457702779"><ele>-11.0</ele><time>2026-04-07T15:47:16.999Z</time></trkpt><trkpt lat="34.023234626032675" lon="7.968261547060613"><ele>-11.0</ele><time>2026-04-07T15:47:17.999Z</time></trkpt><trkpt lat="34.02324474779267" lon="7.968148034766232"><ele>-11.0</ele><time>2026-04-07T15:47:18.999Z</time></trkpt><trkpt lat="34.023255105701516" lon="7.968035955093873"><ele>-11.0</ele><time>2026-04-07T15:47:19.999Z</time></trkpt><trkpt lat="34.02326289361444" lon="7.967927213427412"><ele>-11.0</ele><time>2026-04-07T15:47:20.999Z</time></trkpt><trkpt lat="34.02326571747401" lon="7.967816623000477"><ele>-11.0</ele><time>2026-04-07T15:47:21.999Z</time></trkpt><trkpt lat="34.023263357380124" lon="7.96770931069791"><ele>-11.0</ele><time>2026-04-07T15:47:22.999Z</time></trkpt><trkpt lat="34.02326586227631" lon="7.967601679845108"><ele>-11.0</ele><time>2026-04-07T15:47:23.999Z</time></trkpt><trkpt lat="34.02327446635696" lon="7.967496595286762"><ele>-11.0</ele><time>2026-04-07T15:47:24.999Z</time></trkpt><trkpt lat="34.023292888177615" lon="7.967394225604354"><ele>-11.0</ele><time>2026-04-07T15:47:25.999Z</time></trkpt><trkpt lat="34.023320936334194" lon="7.967296362916268"><ele>-11.0</ele><time>2026-04-07T15:47:26.999Z</time></trkpt><trkpt lat="34.023348075468284" lon="7.9671983553113925"><ele>-11.0</ele><time>2026-04-07T15:47:27.999Z</time></trkpt><trkpt lat="34.023367184359216" lon="7.967098287464392"><ele>-10.5</ele><time>2026-04-07T15:47:28.999Z</time></trkpt><trkpt lat="34.02337818332657" lon="7.966998909635998"><ele>-10.0</ele><time>2026-04-07T15:47:29.999Z</time></trkpt><trkpt lat="34.023378974541366" lon="7.966896106324586"><ele>-9.5</ele><time>2026-04-07T15:47:30.999Z</time></trkpt><trkpt lat="34.02337982205685" lon="7.96679209836365"><ele>-9.0</ele><time>2026-04-07T15:47:31.999Z</time></trkpt><trkpt lat="34.023384810281975" lon="7.9666871671371275"><ele>-8.5</ele><time>2026-04-07T15:47:32.999Z</time></trkpt><trkpt lat="34.02339576917822" lon="7.966578712450508"><ele>-8.0</ele><time>2026-04-07T15:47:33.999Z</time></trkpt><trkpt lat="34.02340372723564" lon="7.966470680428163"><ele>-7.999999999999999</ele><time>2026-04-07T15:47:34.999Z</time></trkpt><trkpt lat="34.02341478325658" lon="7.966364290658989"><ele>-8.0</ele><time>2026-04-07T15:47:35.999Z</time></trkpt><trkpt lat="34.023430658069174" lon="7.966262705267559"><ele>-8.0</ele><time>2026-04-07T15:47:36.999Z</time></trkpt><trkpt lat="34.02345202312945" lon="7.966163957358064"><ele>-8.0</ele><time>2026-04-07T15:47:37.999Z</time></trkpt><trkpt lat="34.02347938229308" lon="7.966075395180994"><ele>-7.999999999999999</ele><time>2026-04-07T15:47:38.999Z</time></trkpt><trkpt lat="34.023502254331795" lon="7.96599507068465"><ele>-8.0</ele><time>2026-04-07T15:47:39.999Z</time></trkpt><trkpt lat="34.02353355266057" lon="7.965918372599134"><ele>-7.833333333333333</ele><time>2026-04-07T15:47:40.999Z</time></trkpt><trkpt lat="34.0235797767652" lon="7.965847483753123"><ele>-7.666666666666666</ele><time>2026-04-07T15:47:41.999Z</time></trkpt><trkpt lat="34.02362807534554" lon="7.965773277844765"><ele>-7.5</ele><time>2026-04-07T15:47:42.999Z</time></trkpt><trkpt lat="34.02367945974367" lon="7.965702295349496"><ele>-7.333333333333334</ele><time>2026-04-07T15:47:43.999Z</time></trkpt><trkpt lat="34.02372340329285" lon="7.965625046707878"><ele>-7.166666666666667</ele><time>2026-04-07T15:47:44.999Z</time></trkpt><trkpt lat="34.023759773608774" lon="7.965539551981488"><ele>-7.0</ele><time>2026-04-07T15:47:45.999Z</time></trkpt><trkpt lat="34.02378681485105" lon="7.965445307629239"><ele>-7.000000000000001</ele><time>2026-04-07T15:47:46.999Z</time></trkpt><trkpt lat="34.0237984688762" lon="7.965348482324607"><ele>-7.0</ele><time>2026-04-07T15:47:47.999Z</time></trkpt><trkpt lat="34.02381177007927" lon="7.965254630964492"><ele>-7.0</ele><time>2026-04-07T15:47:48.999Z</time></trkpt><trkpt lat="34.02382620113023" lon="7.965166658839842"><ele>-7.0</ele><time>2026-04-07T15:47:49.999Z</time></trkpt><trkpt lat="34.02385257791149" lon="7.965080312868289"><ele>-7.000000000000001</ele><time>2026-04-07T15:47:50.999Z</time></trkpt><trkpt lat="34.02389715947287" lon="7.964999981868092"><ele>-7.0</ele><time>2026-04-07T15:47:51.999Z</time></trkpt><trkpt lat="34.023947920388586" lon="7.964927367257633"><ele>-7.666666666666667</ele><time>2026-04-07T15:47:52.999Z</time></trkpt><trkpt lat="34.02400019078763" lon="7.9648590334471665"><ele>-8.333333333333334</ele><time>2026-04-07T15:47:53.999Z</time></trkpt><trkpt lat="34.024047941500676" lon="7.96478770539519"><ele>-9.0</ele><time>2026-04-07T15:47:54.999Z</time></trkpt><trkpt lat="34.0240964887845" lon="7.96471673223207"><ele>-9.666666666666666</ele><time>2026-04-07T15:47:55.999Z</time></trkpt><trkpt lat="34.02415625347358" lon="7.964658723277331"><ele>-10.333333333333332</ele><time>2026-04-07T15:47:56.999Z</time></trkpt><trkpt lat="34.02422456730731" lon="7.964609456790908"><ele>-11.0</ele><time>2026-04-07T15:47:57.999Z</time></trkpt><trkpt lat="34.02429574537088" lon="7.964570926780113"><ele>-11.0</ele><time>2026-04-07T15:47:58.999Z</time></trkpt><trkpt lat="34.02435499590539" lon="7.964510433753556"><ele>-11.0</ele><time>2026-04-07T15:47:59.999Z</time></trkpt><trkpt lat="34.02441110303713" lon="7.96443965311777"><ele>-11.0</ele><time>2026-04-07T15:48:00.999Z</time></trkpt><trkpt lat="34.02445876923697" lon="7.964361234409558"><ele>-11.0</ele><time>2026-04-07T15:48:01.999Z</time></trkpt><trkpt lat="34.02450274567475" lon="7.964300137449375"><ele>-11.0</ele><time>2026-04-07T15:48:02.999Z</time></trkpt><trkpt lat="34.02460664512857" lon="7.964226303853031"><ele>-11.0</ele><time>2026-04-07T15:48:04.999Z</time></trkpt><trkpt lat="34.024691839764095" lon="7.964130166176782"><ele>-11.200000000000001</ele><time>2026-04-07T15:48:06.999Z</time></trkpt><trkpt lat="34.02476421270458" lon="7.964008312516141"><ele>-11.4</ele><time>2026-04-07T15:48:08.999Z</time></trkpt><trkpt lat="34.02484585349418" lon="7.963928803639455"><ele>-11.6</ele><time>2026-04-07T15:48:10.999Z</time></trkpt><trkpt lat="34.02492898827454" lon="7.9638699885220685"><ele>-11.8</ele><time>2026-04-07T15:48:12.999Z</time></trkpt><trkpt lat="34.024984237144686" lon="7.963821715063737"><ele>-12.0</ele><time>2026-04-07T15:48:14.999Z</time></trkpt><trkpt lat="34.02503907588138" lon="7.963767083340273"><ele>-11.4</ele><time>2026-04-07T15:48:16.999Z</time></trkpt><trkpt lat="34.02509878442628" lon="7.963691962074664"><ele>-10.799999999999999</ele><time>2026-04-07T15:48:20Z</time></trkpt><trkpt lat="34.025122806985266" lon="7.963615592519348"><ele>-10.2</ele><time>2026-04-07T15:48:21Z</time></trkpt><trkpt lat="34.02520262386218" lon="7.963504180118407"><ele>-9.6</ele><time>2026-04-07T15:48:23Z</time></trkpt><trkpt lat="34.025248994662014" lon="7.963449800604679"><ele>-9.0</ele><time>2026-04-07T15:48:24Z</time></trkpt><trkpt lat="34.02535915735602" lon="7.96337522426446"><ele>-8.428571428571429</ele><time>2026-04-07T15:48:26Z</time></trkpt><trkpt lat="34.02541507805075" lon="7.963331128240019"><ele>-7.857142857142858</ele><time>2026-04-07T15:48:27Z</time></trkpt><trkpt lat="34.0254788392823" lon="7.9632745294212635"><ele>-7.2857142857142865</ele><time>2026-04-07T15:48:28Z</time></trkpt><trkpt lat="34.02553675967611" lon="7.963221395677012"><ele>-6.714285714285715</ele><time>2026-04-07T15:48:29Z</time></trkpt><trkpt lat="34.02558977717002" lon="7.963168554291794"><ele>-6.142857142857143</ele><time>2026-04-07T15:48:30Z</time></trkpt><trkpt lat="34.02564444355233" lon="7.963121437290856"><ele>-5.571428571428571</ele><time>2026-04-07T15:48:31Z</time></trkpt><trkpt lat="34.0256962049633" lon="7.9630629111690165"><ele>-5.0</ele><time>2026-04-07T15:48:32Z</time></trkpt><trkpt lat="34.0257578593024" lon="7.963002292978693"><ele>-5.0</ele><time>2026-04-07T15:48:33Z</time></trkpt><trkpt lat="34.025819389683576" lon="7.96295219780143"><ele>-5.0</ele><time>2026-04-07T15:48:34Z</time></trkpt><trkpt lat="34.0258860457904" lon="7.962907219287578"><ele>-5.0</ele><time>2026-04-07T15:48:35Z</time></trkpt><trkpt lat="34.02594719548559" lon="7.962869393635305"><ele>-5.0</ele><time>2026-04-07T15:48:36Z</time></trkpt><trkpt lat="34.026018154047776" lon="7.962840627426876"><ele>-5.0</ele><time>2026-04-07T15:48:37Z</time></trkpt><trkpt lat="34.02608850483751" lon="7.96280988449516"><ele>-5.0</ele><time>2026-04-07T15:48:38Z</time></trkpt><trkpt lat="34.026155587172084" lon="7.962771920226622"><ele>-5.0</ele><time>2026-04-07T15:48:39Z</time></trkpt><trkpt lat="34.02622085854449" lon="7.9627374034596174"><ele>-5.0</ele><time>2026-04-07T15:48:40Z</time></trkpt><trkpt lat="34.026295884433935" lon="7.962691354806959"><ele>-5.0</ele><time>2026-04-07T15:48:41Z</time></trkpt><trkpt lat="34.026360713854665" lon="7.962662989377062"><ele>-5.0</ele><time>2026-04-07T15:48:42Z</time></trkpt><trkpt lat="34.0264781772371" lon="7.962663319440567"><ele>-5.0</ele><time>2026-04-07T15:48:44Z</time></trkpt><trkpt lat="34.026572110552365" lon="7.9626845127992585"><ele>-5.0</ele><time>2026-04-07T15:48:46Z</time></trkpt><trkpt lat="34.0266685029201" lon="7.962654722083077"><ele>-5.0</ele><time>2026-04-07T15:48:48Z</time></trkpt><trkpt lat="34.02670292586512" lon="7.9625550767824915"><ele>-5.0</ele><time>2026-04-07T15:48:50Z</time></trkpt><trkpt lat="34.02664234439009" lon="7.962472285727049"><ele>-5.0</ele><time>2026-04-07T15:48:52Z</time></trkpt><trkpt lat="34.02657337798528" lon="7.962458096178964"><ele>-5.0</ele><time>2026-04-07T15:48:54.999Z</time></trkpt><trkpt lat="34.02662586088605" lon="7.962388141065894"><ele>-5.0</ele><time>2026-04-07T15:49:16.999Z</time></trkpt><trkpt lat="34.02667479475864" lon="7.962333333413444"><ele>-5.0</ele><time>2026-04-07T15:49:27.999Z</time></trkpt><trkpt lat="34.02674250025152" lon="7.962364513269979"><ele>-5.714285714285714</ele><time>2026-04-07T15:50:33Z</time></trkpt><trkpt lat="34.02679815354279" lon="7.962407963165342"><ele>-6.428571428571429</ele><time>2026-04-07T15:50:42Z</time></trkpt><trkpt lat="34.02686796110958" lon="7.962409884483493"><ele>-7.142857142857142</ele><time>2026-04-07T15:50:53Z</time></trkpt><trkpt lat="34.02693396904462" lon="7.962407765199111"><ele>-7.857142857142858</ele><time>2026-04-07T15:51:02.998Z</time></trkpt><trkpt lat="34.02693464877867" lon="7.962327082210386"><ele>-8.571428571428571</ele><time>2026-04-07T15:58:25Z</time></trkpt><trkpt lat="34.02694786992278" lon="7.962244774414076"><ele>-9.285714285714285</ele><time>2026-04-07T15:58:34Z</time></trkpt><trkpt lat="34.02694545751582" lon="7.962323842753739"><ele>-10.0</ele><time>2026-04-07T16:02:27Z</time></trkpt><trkpt lat="34.026945080116974" lon="7.962238373096513"><ele>-10.0</ele><time>2026-04-07T16:03:44Z</time></trkpt><trkpt lat="34.026885978864144" lon="7.962326732338432"><ele>-10.0</ele><time>2026-04-07T16:04:07Z</time></trkpt><trkpt lat="34.02684041219537" lon="7.962406623149156"><ele>-10.0</ele><time>2026-04-07T16:04:10Z</time></trkpt><trkpt lat="34.02676916157961" lon="7.9624270484299196"><ele>-10.0</ele><time>2026-04-07T16:04:18Z</time></trkpt><trkpt lat="34.026699765754564" lon="7.9624118307649985"><ele>-10.0</ele><time>2026-04-07T16:04:24Z</time></trkpt><trkpt lat="34.02662546635092" lon="7.962431031184411"><ele>-10.0</ele><time>2026-04-07T16:04:31.001Z</time></trkpt><trkpt lat="34.026562998975294" lon="7.96244820378976"><ele>-9.166666666666668</ele><time>2026-04-07T16:04:36.001Z</time></trkpt><trkpt lat="34.02649630717812" lon="7.962414648328266"><ele>-8.333333333333334</ele><time>2026-04-07T16:05:40.999Z</time></trkpt><trkpt lat="34.0264255734743" lon="7.962396269880742"><ele>-7.5</ele><time>2026-04-07T16:05:43.999Z</time></trkpt><trkpt lat="34.0263566605636" lon="7.96237691098524"><ele>-6.666666666666667</ele><time>2026-04-07T16:05:45.999Z</time></trkpt><trkpt lat="34.02627564944019" lon="7.962415204285886"><ele>-5.833333333333334</ele><time>2026-04-07T16:05:48.999Z</time></trkpt><trkpt lat="34.02621175144588" lon="7.962400759586166"><ele>-5.0</ele><time>2026-04-07T16:05:50.999Z</time></trkpt><trkpt lat="34.02614435675361" lon="7.962329192311029"><ele>-5.0</ele><time>2026-04-07T16:05:53.999Z</time></trkpt><trkpt lat="34.026119175685885" lon="7.962225209598434"><ele>-5.0</ele><time>2026-04-07T16:05:57Z</time></trkpt><trkpt lat="34.02612070357009" lon="7.962143855015794"><ele>-5.0</ele><time>2026-04-07T16:06:00Z</time></trkpt><trkpt lat="34.02612290967168" lon="7.962064457131913"><ele>-5.0</ele><time>2026-04-07T16:06:02Z</time></trkpt><trkpt lat="34.02610808277739" lon="7.961962934232028"><ele>-5.0</ele><time>2026-04-07T16:06:04Z</time></trkpt><trkpt lat="34.02610147329904" lon="7.9618554923438385"><ele>-5.0</ele><time>2026-04-07T16:06:06Z</time></trkpt><trkpt lat="34.026113031383765" lon="7.96174293704698"><ele>-5.666666666666667</ele><time>2026-04-07T16:06:08Z</time></trkpt><trkpt lat="34.02612338314079" lon="7.961625771933545"><ele>-6.333333333333334</ele><time>2026-04-07T16:06:10Z</time></trkpt><trkpt lat="34.02613004849903" lon="7.961514035636294"><ele>-7.0</ele><time>2026-04-07T16:06:12Z</time></trkpt><trkpt lat="34.026127423391536" lon="7.9614077483777494"><ele>-7.666666666666667</ele><time>2026-04-07T16:06:14Z</time></trkpt><trkpt lat="34.026126066286444" lon="7.9613000008535355"><ele>-8.333333333333334</ele><time>2026-04-07T16:06:16Z</time></trkpt><trkpt lat="34.02612062821562" lon="7.9612075894943395"><ele>-9.0</ele><time>2026-04-07T16:06:18Z</time></trkpt><trkpt lat="34.02608690146976" lon="7.961104033110879"><ele>-9.0</ele><time>2026-04-07T16:06:21Z</time></trkpt><trkpt lat="34.026058085853016" lon="7.961004634215247"><ele>-9.0</ele><time>2026-04-07T16:06:24Z</time></trkpt><trkpt lat="34.026050652609634" lon="7.960903861958199"><ele>-9.0</ele><time>2026-04-07T16:06:28Z</time></trkpt><trkpt lat="34.0260712263162" lon="7.960800284454924"><ele>-9.0</ele><time>2026-04-07T16:06:31Z</time></trkpt><trkpt lat="34.026119024925706" lon="7.960734438337576"><ele>-9.0</ele><time>2026-04-07T16:06:33Z</time></trkpt><trkpt lat="34.02618240522922" lon="7.960620159826415"><ele>-9.0</ele><time>2026-04-07T16:06:35Z</time></trkpt><trkpt lat="34.02620240670229" lon="7.960480174150994"><ele>-9.833333333333334</ele><time>2026-04-07T16:06:37Z</time></trkpt><trkpt lat="34.02619512408641" lon="7.960345848917821"><ele>-10.666666666666668</ele><time>2026-04-07T16:06:39Z</time></trkpt><trkpt lat="34.026188605288155" lon="7.960269898786532"><ele>-11.5</ele><time>2026-04-07T16:06:40Z</time></trkpt><trkpt lat="34.02617983125426" lon="7.960193191861507"><ele>-12.333333333333334</ele><time>2026-04-07T16:06:41Z</time></trkpt><trkpt lat="34.02614063186997" lon="7.960045777391246"><ele>-13.166666666666668</ele><time>2026-04-07T16:06:43Z</time></trkpt><trkpt lat="34.02611291183541" lon="7.95997332611904"><ele>-14.0</ele><time>2026-04-07T16:06:44Z</time></trkpt><trkpt lat="34.02608251722235" lon="7.959903199719395"><ele>-13.833333333333334</ele><time>2026-04-07T16:06:45Z</time></trkpt><trkpt lat="34.026039699701585" lon="7.959828277308258"><ele>-13.666666666666668</ele><time>2026-04-07T16:06:46Z</time></trkpt><trkpt lat="34.02598863305545" lon="7.959756744654794"><ele>-13.5</ele><time>2026-04-07T16:06:47Z</time></trkpt><trkpt lat="34.025936141803626" lon="7.959687037785559"><ele>-13.333333333333332</ele><time>2026-04-07T16:06:48Z</time></trkpt><trkpt lat="34.02588365072174" lon="7.9596216637518955"><ele>-13.166666666666666</ele><time>2026-04-07T16:06:49Z</time></trkpt><trkpt lat="34.02583372233557" lon="7.95955814236773"><ele>-13.0</ele><time>2026-04-07T16:06:50Z</time></trkpt><trkpt lat="34.02578495279163" lon="7.959489533905066"><ele>-12.999999999999998</ele><time>2026-04-07T16:06:51Z</time></trkpt><trkpt lat="34.02573652176463" lon="7.95941357295609"><ele>-13.0</ele><time>2026-04-07T16:06:52Z</time></trkpt><trkpt lat="34.02569180903594" lon="7.959328954824354"><ele>-13.0</ele><time>2026-04-07T16:06:53Z</time></trkpt><trkpt lat="34.0256438390913" lon="7.959241303001307"><ele>-13.0</ele><time>2026-04-07T16:06:54Z</time></trkpt><trkpt lat="34.02559364156798" lon="7.959147950088194"><ele>-12.999999999999998</ele><time>2026-04-07T16:06:55.001Z</time></trkpt><trkpt lat="34.025546860133176" lon="7.959051648727909"><ele>-13.0</ele><time>2026-04-07T16:06:56.001Z</time></trkpt><trkpt lat="34.02550340012575" lon="7.958947475918018"><ele>-14.2</ele><time>2026-04-07T16:06:57.001Z</time></trkpt><trkpt lat="34.02546243135003" lon="7.958841030441172"><ele>-15.4</ele><time>2026-04-07T16:06:58.001Z</time></trkpt><trkpt lat="34.0254246064789" lon="7.958733325700532"><ele>-16.599999999999998</ele><time>2026-04-07T16:06:59.001Z</time></trkpt><trkpt lat="34.025387946082034" lon="7.958629166233864"><ele>-17.8</ele><time>2026-04-07T16:07:00.001Z</time></trkpt><trkpt lat="34.02535408365561" lon="7.958522739441258"><ele>-19.0</ele><time>2026-04-07T16:07:01.001Z</time></trkpt><trkpt lat="34.02531644815201" lon="7.958421133199691"><ele>-19.5</ele><time>2026-04-07T16:07:02.001Z</time></trkpt><trkpt lat="34.02527675511725" lon="7.958325348148614"><ele>-20.0</ele><time>2026-04-07T16:07:03.001Z</time></trkpt><trkpt lat="34.025230500055216" lon="7.958228653322266"><ele>-20.5</ele><time>2026-04-07T16:07:04.001Z</time></trkpt><trkpt lat="34.02518179890052" lon="7.958136080208898"><ele>-21.0</ele><time>2026-04-07T16:07:05.001Z</time></trkpt><trkpt lat="34.02513163631979" lon="7.958048979990552"><ele>-21.5</ele><time>2026-04-07T16:07:06.001Z</time></trkpt><trkpt lat="34.025082719436995" lon="7.957965569605538"><ele>-22.0</ele><time>2026-04-07T16:07:07.001Z</time></trkpt><trkpt lat="34.025029154962745" lon="7.957882404824332"><ele>-21.5</ele><time>2026-04-07T16:07:08.001Z</time></trkpt><trkpt lat="34.024974990870945" lon="7.95780209029033"><ele>-21.0</ele><time>2026-04-07T16:07:09.001Z</time></trkpt><trkpt lat="34.024916015048916" lon="7.957724867296666"><ele>-20.5</ele><time>2026-04-07T16:07:10.001Z</time></trkpt><trkpt lat="34.024853456955306" lon="7.957646776306649"><ele>-20.0</ele><time>2026-04-07T16:07:11.001Z</time></trkpt><trkpt lat="34.02479444904544" lon="7.957567187009202"><ele>-19.5</ele><time>2026-04-07T16:07:12.001Z</time></trkpt><trkpt lat="34.02473745514036" lon="7.957488593439486"><ele>-19.0</ele><time>2026-04-07T16:07:13.001Z</time></trkpt><trkpt lat="34.02468409695898" lon="7.957408259733352"><ele>-18.5</ele><time>2026-04-07T16:07:14.001Z</time></trkpt><trkpt lat="34.0246299183537" lon="7.957328724374901"><ele>-18.0</ele><time>2026-04-07T16:07:15.001Z</time></trkpt><trkpt lat="34.02457718944899" lon="7.95724801266478"><ele>-17.5</ele><time>2026-04-07T16:07:16.001Z</time></trkpt><trkpt lat="34.024528728136126" lon="7.957170620968822"><ele>-17.0</ele><time>2026-04-07T16:07:17.001Z</time></trkpt><trkpt lat="34.02448518819372" lon="7.957090588891436"><ele>-16.5</ele><time>2026-04-07T16:07:18.001Z</time></trkpt><trkpt lat="34.02444404510774" lon="7.95700662878064"><ele>-16.0</ele><time>2026-04-07T16:07:19.001Z</time></trkpt><trkpt lat="34.02440250340623" lon="7.956924043550963"><ele>-15.999999999999998</ele><time>2026-04-07T16:07:20.001Z</time></trkpt><trkpt lat="34.024363660405534" lon="7.956837944075022"><ele>-16.0</ele><time>2026-04-07T16:07:21.001Z</time></trkpt><trkpt lat="34.02432351609745" lon="7.95675253939801"><ele>-16.0</ele><time>2026-04-07T16:07:22.001Z</time></trkpt><trkpt lat="34.02427776857031" lon="7.956669938847356"><ele>-16.0</ele><time>2026-04-07T16:07:23.001Z</time></trkpt><trkpt lat="34.02423031938972" lon="7.956587469201412"><ele>-15.999999999999998</ele><time>2026-04-07T16:07:24.001Z</time></trkpt><trkpt lat="34.02418182178313" lon="7.956500090029694"><ele>-16.0</ele><time>2026-04-07T16:07:25.001Z</time></trkpt><trkpt lat="34.02413195526927" lon="7.956413701772254"><ele>-16.6</ele><time>2026-04-07T16:07:26.001Z</time></trkpt><trkpt lat="34.02408020973987" lon="7.956324808128857"><ele>-17.200000000000003</ele><time>2026-04-07T16:07:27.001Z</time></trkpt><trkpt lat="34.0240288237253" lon="7.9562361084800655"><ele>-17.799999999999997</ele><time>2026-04-07T16:07:28.001Z</time></trkpt><trkpt lat="34.02397756416057" lon="7.956147221864351"><ele>-18.4</ele><time>2026-04-07T16:07:29.001Z</time></trkpt><trkpt lat="34.02392655924852" lon="7.956056636335184"><ele>-19.0</ele><time>2026-04-07T16:07:30.001Z</time></trkpt><trkpt lat="34.02387394772923" lon="7.95596540276335"><ele>-19.0</ele><time>2026-04-07T16:07:31.001Z</time></trkpt><trkpt lat="34.023820741618295" lon="7.955875085370444"><ele>-19.0</ele><time>2026-04-07T16:07:32.001Z</time></trkpt><trkpt lat="34.02376857687084" lon="7.955781582293948"><ele>-19.0</ele><time>2026-04-07T16:07:33.001Z</time></trkpt><trkpt lat="34.02371594383437" lon="7.955685270007552"><ele>-19.0</ele><time>2026-04-07T16:07:34.001Z</time></trkpt><trkpt lat="34.02366633809179" lon="7.955589158199146"><ele>-19.0</ele><time>2026-04-07T16:07:35.001Z</time></trkpt><trkpt lat="34.02361179082982" lon="7.955494608288312"><ele>-19.2</ele><time>2026-04-07T16:07:36.001Z</time></trkpt><trkpt lat="34.02355919714612" lon="7.955399976946375"><ele>-19.4</ele><time>2026-04-07T16:07:37.001Z</time></trkpt><trkpt lat="34.02350242187669" lon="7.955304511565725"><ele>-19.6</ele><time>2026-04-07T16:07:38.001Z</time></trkpt><trkpt lat="34.0234443244761" lon="7.955208612375269"><ele>-19.8</ele><time>2026-04-07T16:07:39.001Z</time></trkpt><trkpt lat="34.02338918790713" lon="7.955111084796117"><ele>-20.0</ele><time>2026-04-07T16:07:40.001Z</time></trkpt><trkpt lat="34.023336840707394" lon="7.95501096903402"><ele>-19.6</ele><time>2026-04-07T16:07:41.001Z</time></trkpt><trkpt lat="34.023283538656955" lon="7.9549105231744335"><ele>-19.2</ele><time>2026-04-07T16:07:42.001Z</time></trkpt><trkpt lat="34.02323540774594" lon="7.954807261888088"><ele>-18.8</ele><time>2026-04-07T16:07:43.001Z</time></trkpt><trkpt lat="34.023183750014326" lon="7.954706355076085"><ele>-18.4</ele><time>2026-04-07T16:07:44.001Z</time></trkpt><trkpt lat="34.02312958735114" lon="7.9546062072175365"><ele>-18.0</ele><time>2026-04-07T16:07:45.001Z</time></trkpt><trkpt lat="34.023081985299136" lon="7.954500618195715"><ele>-18.0</ele><time>2026-04-07T16:07:46.001Z</time></trkpt><trkpt lat="34.02303320362536" lon="7.9543942394894165"><ele>-18.0</ele><time>2026-04-07T16:07:46.999Z</time></trkpt><trkpt lat="34.02298208222202" lon="7.954291142566167"><ele>-18.0</ele><time>2026-04-07T16:07:47.999Z</time></trkpt><trkpt lat="34.02292842597608" lon="7.954185610379042"><ele>-18.0</ele><time>2026-04-07T16:07:48.999Z</time></trkpt><trkpt lat="34.022871202053274" lon="7.954083045411382"><ele>-18.0</ele><time>2026-04-07T16:07:49.999Z</time></trkpt><trkpt lat="34.02281310458632" lon="7.953980946012566"><ele>-18.2</ele><time>2026-04-07T16:07:50.999Z</time></trkpt><trkpt lat="34.02275455324507" lon="7.953879716243139"><ele>-18.4</ele><time>2026-04-07T16:07:51.999Z</time></trkpt><trkpt lat="34.02269807267633" lon="7.953776096265507"><ele>-18.599999999999998</ele><time>2026-04-07T16:07:52.999Z</time></trkpt><trkpt lat="34.02264002587862" lon="7.953673915001457"><ele>-18.8</ele><time>2026-04-07T16:07:53.999Z</time></trkpt><trkpt lat="34.022583791621706" lon="7.953568688084406"><ele>-19.0</ele><time>2026-04-07T16:07:54.999Z</time></trkpt><trkpt lat="34.02252362927171" lon="7.953466646532324"><ele>-19.4</ele><time>2026-04-07T16:07:55.999Z</time></trkpt><trkpt lat="34.022462688471904" lon="7.953363989826139"><ele>-19.799999999999997</ele><time>2026-04-07T16:07:56.999Z</time></trkpt><trkpt lat="34.02240477337914" lon="7.953260998549907"><ele>-20.200000000000003</ele><time>2026-04-07T16:07:57.999Z</time></trkpt><trkpt lat="34.022345009796105" lon="7.953157430837491"><ele>-20.6</ele><time>2026-04-07T16:07:58.999Z</time></trkpt><trkpt lat="34.02228323508512" lon="7.953057956291158"><ele>-21.0</ele><time>2026-04-07T16:07:59.999Z</time></trkpt><trkpt lat="34.022227369206746" lon="7.952951810698933"><ele>-21.0</ele><time>2026-04-07T16:08:00.999Z</time></trkpt><trkpt lat="34.02216955794697" lon="7.952848484098554"><ele>-21.0</ele><time>2026-04-07T16:08:01.999Z</time></trkpt><trkpt lat="34.0221110249763" lon="7.952747047842522"><ele>-21.0</ele><time>2026-04-07T16:08:03Z</time></trkpt><trkpt lat="34.02205001047559" lon="7.9526438498674"><ele>-21.0</ele><time>2026-04-07T16:08:04Z</time></trkpt><trkpt lat="34.021990050866606" lon="7.952540913581941"><ele>-21.0</ele><time>2026-04-07T16:08:05Z</time></trkpt><trkpt lat="34.02193145286385" lon="7.952439297408074"><ele>-20.8</ele><time>2026-04-07T16:08:06Z</time></trkpt><trkpt lat="34.02187457453937" lon="7.952338466000408"><ele>-20.6</ele><time>2026-04-07T16:08:07Z</time></trkpt><trkpt lat="34.02181797539754" lon="7.952237171260386"><ele>-20.4</ele><time>2026-04-07T16:08:08Z</time></trkpt><trkpt lat="34.02176239843137" lon="7.952138241631752"><ele>-20.2</ele><time>2026-04-07T16:08:09Z</time></trkpt><trkpt lat="34.021708831840705" lon="7.9520346351746545"><ele>-20.0</ele><time>2026-04-07T16:08:10Z</time></trkpt><trkpt lat="34.02165684558905" lon="7.951930937326297"><ele>-19.6</ele><time>2026-04-07T16:08:11Z</time></trkpt><trkpt lat="34.021602467726666" lon="7.951825805192791"><ele>-19.2</ele><time>2026-04-07T16:08:12Z</time></trkpt><trkpt lat="34.02155266983258" lon="7.951721077817243"><ele>-18.8</ele><time>2026-04-07T16:08:13Z</time></trkpt><trkpt lat="34.02150236469963" lon="7.951615940703484"><ele>-18.4</ele><time>2026-04-07T16:08:14Z</time></trkpt><trkpt lat="34.02145072393527" lon="7.951511071996645"><ele>-18.0</ele><time>2026-04-07T16:08:15Z</time></trkpt><trkpt lat="34.021397942246594" lon="7.951407124836285"><ele>-18.0</ele><time>2026-04-07T16:08:16Z</time></trkpt><trkpt lat="34.021344794555375" lon="7.951302247783875"><ele>-18.0</ele><time>2026-04-07T16:08:17Z</time></trkpt><trkpt lat="34.02129246563492" lon="7.951196074002926"><ele>-18.0</ele><time>2026-04-07T16:08:18Z</time></trkpt><trkpt lat="34.02124483231813" lon="7.95108992263303"><ele>-18.0</ele><time>2026-04-07T16:08:19Z</time></trkpt><trkpt lat="34.02119466260125" lon="7.950974870721527"><ele>-18.0</ele><time>2026-04-07T16:08:20Z</time></trkpt><trkpt lat="34.02114782633656" lon="7.950859268036321"><ele>-18.0</ele><time>2026-04-07T16:08:21Z</time></trkpt><trkpt lat="34.021093628167456" lon="7.9507463818568125"><ele>-18.0</ele><time>2026-04-07T16:08:22Z</time></trkpt><trkpt lat="34.02104172252961" lon="7.95063462586881"><ele>-18.0</ele><time>2026-04-07T16:08:23Z</time></trkpt><trkpt lat="34.02099384974944" lon="7.950519551290636"><ele>-18.0</ele><time>2026-04-07T16:08:24Z</time></trkpt><trkpt lat="34.02094367859101" lon="7.95040492467035"><ele>-18.0</ele><time>2026-04-07T16:08:25Z</time></trkpt><trkpt lat="34.02089048919897" lon="7.950292759740941"><ele>-18.0</ele><time>2026-04-07T16:08:26Z</time></trkpt><trkpt lat="34.02083967277145" lon="7.950176643593751"><ele>-18.0</ele><time>2026-04-07T16:08:27Z</time></trkpt><trkpt lat="34.020790528354354" lon="7.950058448988939"><ele>-18.0</ele><time>2026-04-07T16:08:28Z</time></trkpt><trkpt lat="34.02074333861819" lon="7.949943832885901"><ele>-18.0</ele><time>2026-04-07T16:08:29Z</time></trkpt><trkpt lat="34.020692058591926" lon="7.949827279346764"><ele>-18.0</ele><time>2026-04-07T16:08:30Z</time></trkpt><trkpt lat="34.02064618936275" lon="7.949706817898194"><ele>-18.2</ele><time>2026-04-07T16:08:31Z</time></trkpt><trkpt lat="34.02060539966099" lon="7.949582430269069"><ele>-18.4</ele><time>2026-04-07T16:08:32Z</time></trkpt><trkpt lat="34.0205575167589" lon="7.949461197553868"><ele>-18.599999999999998</ele><time>2026-04-07T16:08:33Z</time></trkpt><trkpt lat="34.020514102085045" lon="7.949338316300686"><ele>-18.8</ele><time>2026-04-07T16:08:34Z</time></trkpt><trkpt lat="34.020471827671024" lon="7.949211875918017"><ele>-19.0</ele><time>2026-04-07T16:08:35Z</time></trkpt><trkpt lat="34.020429497761164" lon="7.9490867610832145"><ele>-19.0</ele><time>2026-04-07T16:08:36Z</time></trkpt><trkpt lat="34.02038490694005" lon="7.9489617131614745"><ele>-19.0</ele><time>2026-04-07T16:08:37Z</time></trkpt><trkpt lat="34.02034413216973" lon="7.948837419065372"><ele>-19.0</ele><time>2026-04-07T16:08:38Z</time></trkpt><trkpt lat="34.020303224413496" lon="7.948711184075412"><ele>-19.0</ele><time>2026-04-07T16:08:39Z</time></trkpt><trkpt lat="34.02026103334095" lon="7.9485870798165985"><ele>-19.0</ele><time>2026-04-07T16:08:40Z</time></trkpt><trkpt lat="34.02022102999508" lon="7.948461250057228"><ele>-19.2</ele><time>2026-04-07T16:08:41Z</time></trkpt><trkpt lat="34.02018245083159" lon="7.94833703692415"><ele>-19.4</ele><time>2026-04-07T16:08:42Z</time></trkpt><trkpt lat="34.02014253582814" lon="7.948213172137193"><ele>-19.6</ele><time>2026-04-07T16:08:43Z</time></trkpt><trkpt lat="34.02010288927635" lon="7.948090384311756"><ele>-19.8</ele><time>2026-04-07T16:08:44Z</time></trkpt><trkpt lat="34.02006427269233" lon="7.947967462077586"><ele>-20.0</ele><time>2026-04-07T16:08:45Z</time></trkpt><trkpt lat="34.02002858406888" lon="7.947842703103986"><ele>-20.0</ele><time>2026-04-07T16:08:46Z</time></trkpt><trkpt lat="34.019993321795205" lon="7.9477181004742885"><ele>-20.0</ele><time>2026-04-07T16:08:47Z</time></trkpt><trkpt lat="34.019952865393584" lon="7.947592304385728"><ele>-20.0</ele><time>2026-04-07T16:08:48Z</time></trkpt><trkpt lat="34.01991410678323" lon="7.947468440017245"><ele>-20.0</ele><time>2026-04-07T16:08:49Z</time></trkpt><trkpt lat="34.01987958986445" lon="7.94734189673972"><ele>-20.0</ele><time>2026-04-07T16:08:50Z</time></trkpt><trkpt lat="34.01984356911415" lon="7.947216692484802"><ele>-20.0</ele><time>2026-04-07T16:08:51Z</time></trkpt><trkpt lat="34.01980546207263" lon="7.94709376636649"><ele>-20.0</ele><time>2026-04-07T16:08:52Z</time></trkpt><trkpt lat="34.019768323687245" lon="7.946968910248854"><ele>-20.0</ele><time>2026-04-07T16:08:53Z</time></trkpt><trkpt lat="34.01973122375296" lon="7.946844806923483"><ele>-20.0</ele><time>2026-04-07T16:08:54Z</time></trkpt><trkpt lat="34.01969613927393" lon="7.946719834393714"><ele>-20.0</ele><time>2026-04-07T16:08:55Z</time></trkpt><trkpt lat="34.0196604826719" lon="7.946594973563503"><ele>-20.0</ele><time>2026-04-07T16:08:56Z</time></trkpt><trkpt lat="34.019628082319215" lon="7.94646949115891"><ele>-20.0</ele><time>2026-04-07T16:08:57Z</time></trkpt><trkpt lat="34.01959899080008" lon="7.94634155741379"><ele>-20.0</ele><time>2026-04-07T16:08:58.001Z</time></trkpt><trkpt lat="34.019567594142515" lon="7.946216338733171"><ele>-20.0</ele><time>2026-04-07T16:08:59.001Z</time></trkpt><trkpt lat="34.01952959339454" lon="7.946096743959133"><ele>-20.0</ele><time>2026-04-07T16:09:00.001Z</time></trkpt><trkpt lat="34.0194859783445" lon="7.945978533119448"><ele>-20.2</ele><time>2026-04-07T16:09:01.001Z</time></trkpt><trkpt lat="34.01944551505546" lon="7.945859758855028"><ele>-20.4</ele><time>2026-04-07T16:09:02.001Z</time></trkpt><trkpt lat="34.01941147216606" lon="7.945736580787999"><ele>-20.6</ele><time>2026-04-07T16:09:03.001Z</time></trkpt><trkpt lat="34.01937180589476" lon="7.945613305118739"><ele>-20.8</ele><time>2026-04-07T16:09:04.001Z</time></trkpt><trkpt lat="34.01933820167194" lon="7.945486529649299"><ele>-21.0</ele><time>2026-04-07T16:09:05.001Z</time></trkpt><trkpt lat="34.01930490896318" lon="7.945361285459665"><ele>-21.0</ele><time>2026-04-07T16:09:06.001Z</time></trkpt><trkpt lat="34.019277919523596" lon="7.945233584473659"><ele>-21.0</ele><time>2026-04-07T16:09:07.001Z</time></trkpt><trkpt lat="34.019252852396974" lon="7.9451054932579055"><ele>-21.0</ele><time>2026-04-07T16:09:08.001Z</time></trkpt><trkpt lat="34.01922807926854" lon="7.944975937702379"><ele>-21.0</ele><time>2026-04-07T16:09:09.001Z</time></trkpt><trkpt lat="34.019208714827" lon="7.944846805305718"><ele>-21.0</ele><time>2026-04-07T16:09:10.001Z</time></trkpt><trkpt lat="34.01918742416244" lon="7.944718717217444"><ele>-21.0</ele><time>2026-04-07T16:09:11.001Z</time></trkpt><trkpt lat="34.01916209401785" lon="7.944592806522609"><ele>-21.0</ele><time>2026-04-07T16:09:12.001Z</time></trkpt><trkpt lat="34.01913930221576" lon="7.944468189806148"><ele>-21.0</ele><time>2026-04-07T16:09:13.001Z</time></trkpt><trkpt lat="34.01912061014208" lon="7.944343293120087"><ele>-21.0</ele><time>2026-04-07T16:09:14.001Z</time></trkpt><trkpt lat="34.01910026265017" lon="7.944219106695592"><ele>-21.0</ele><time>2026-04-07T16:09:15.001Z</time></trkpt><trkpt lat="34.0190797306896" lon="7.944098218584191"><ele>-21.0</ele><time>2026-04-07T16:09:16.001Z</time></trkpt><trkpt lat="34.019059141685894" lon="7.943976976211222"><ele>-21.0</ele><time>2026-04-07T16:09:17.001Z</time></trkpt><trkpt lat="34.01904386465096" lon="7.943855454019002"><ele>-21.0</ele><time>2026-04-07T16:09:18.001Z</time></trkpt><trkpt lat="34.01902878805623" lon="7.943731936848329"><ele>-21.0</ele><time>2026-04-07T16:09:19.001Z</time></trkpt><trkpt lat="34.01901501563742" lon="7.94360882324726"><ele>-21.0</ele><time>2026-04-07T16:09:20.001Z</time></trkpt><trkpt lat="34.019001687469704" lon="7.943484195922926"><ele>-20.8</ele><time>2026-04-07T16:09:21.001Z</time></trkpt><trkpt lat="34.01898890652827" lon="7.943359326528644"><ele>-20.6</ele><time>2026-04-07T16:09:22.001Z</time></trkpt><trkpt lat="34.01897736781633" lon="7.94323296196336"><ele>-20.4</ele><time>2026-04-07T16:09:23.001Z</time></trkpt><trkpt lat="34.018967512570164" lon="7.943107152012314"><ele>-20.2</ele><time>2026-04-07T16:09:24.001Z</time></trkpt><trkpt lat="34.018958110904464" lon="7.942981942168961"><ele>-20.0</ele><time>2026-04-07T16:09:25.001Z</time></trkpt><trkpt lat="34.01894870587125" lon="7.942856157065382"><ele>-20.0</ele><time>2026-04-07T16:09:26.001Z</time></trkpt><trkpt lat="34.01893860875651" lon="7.942732137452674"><ele>-20.0</ele><time>2026-04-07T16:09:27.001Z</time></trkpt><trkpt lat="34.018931151198814" lon="7.942608459359987"><ele>-20.0</ele><time>2026-04-07T16:09:28.001Z</time></trkpt><trkpt lat="34.01893122611287" lon="7.942485022942378"><ele>-20.0</ele><time>2026-04-07T16:09:29.001Z</time></trkpt><trkpt lat="34.01893249421791" lon="7.942361022833623"><ele>-20.0</ele><time>2026-04-07T16:09:30.001Z</time></trkpt><trkpt lat="34.01893534359332" lon="7.942237913975274"><ele>-20.0</ele><time>2026-04-07T16:09:31.001Z</time></trkpt><trkpt lat="34.01893494749036" lon="7.942113177717186"><ele>-20.0</ele><time>2026-04-07T16:09:32.001Z</time></trkpt><trkpt lat="34.01893414294981" lon="7.9419896709075655"><ele>-20.0</ele><time>2026-04-07T16:09:33.001Z</time></trkpt><trkpt lat="34.018937309380455" lon="7.941866828287123"><ele>-20.0</ele><time>2026-04-07T16:09:34.001Z</time></trkpt><trkpt lat="34.018943681750144" lon="7.941748842810384"><ele>-20.0</ele><time>2026-04-07T16:09:35.001Z</time></trkpt><trkpt lat="34.01894407101615" lon="7.941625352313474"><ele>-20.0</ele><time>2026-04-07T16:09:36.001Z</time></trkpt><trkpt lat="34.01894500627699" lon="7.941508428991081"><ele>-20.0</ele><time>2026-04-07T16:09:37.001Z</time></trkpt><trkpt lat="34.01893657701119" lon="7.941389956265267"><ele>-20.0</ele><time>2026-04-07T16:09:38.001Z</time></trkpt><trkpt lat="34.01893072387976" lon="7.9412744020940815"><ele>-20.0</ele><time>2026-04-07T16:09:39.001Z</time></trkpt><trkpt lat="34.01892628812332" lon="7.941156165891965"><ele>-20.0</ele><time>2026-04-07T16:09:40.001Z</time></trkpt><trkpt lat="34.01892103855159" lon="7.941041595742822"><ele>-20.0</ele><time>2026-04-07T16:09:41.001Z</time></trkpt><trkpt lat="34.01890845931695" lon="7.940926105654609"><ele>-20.0</ele><time>2026-04-07T16:09:42.001Z</time></trkpt><trkpt lat="34.01889954913459" lon="7.940817739723631"><ele>-20.0</ele><time>2026-04-07T16:09:43.001Z</time></trkpt><trkpt lat="34.01889066079193" lon="7.940708950526169"><ele>-20.0</ele><time>2026-04-07T16:09:44.001Z</time></trkpt><trkpt lat="34.01887620652495" lon="7.9405982680170855"><ele>-20.0</ele><time>2026-04-07T16:09:45.001Z</time></trkpt><trkpt lat="34.01885706616309" lon="7.940486946080016"><ele>-19.8</ele><time>2026-04-07T16:09:46.001Z</time></trkpt><trkpt lat="34.01884119769499" lon="7.940374351339746"><ele>-19.6</ele><time>2026-04-07T16:09:47.001Z</time></trkpt><trkpt lat="34.01882188625796" lon="7.940266114631299"><ele>-19.4</ele><time>2026-04-07T16:09:48.001Z</time></trkpt><trkpt lat="34.01880027153523" lon="7.940156685959452"><ele>-19.2</ele><time>2026-04-07T16:09:49.001Z</time></trkpt><trkpt lat="34.01876915757432" lon="7.940047641911359"><ele>-19.0</ele><time>2026-04-07T16:09:50.001Z</time></trkpt><trkpt lat="34.01873338100414" lon="7.939939668043495"><ele>-19.4</ele><time>2026-04-07T16:09:51.001Z</time></trkpt><trkpt lat="34.01870388234747" lon="7.939831295316958"><ele>-19.799999999999997</ele><time>2026-04-07T16:09:52Z</time></trkpt><trkpt lat="34.01867605323011" lon="7.939720824496921"><ele>-20.200000000000003</ele><time>2026-04-07T16:09:53Z</time></trkpt><trkpt lat="34.018646233367434" lon="7.93961447454725"><ele>-20.6</ele><time>2026-04-07T16:09:54Z</time></trkpt><trkpt lat="34.018616530243285" lon="7.939509281982177"><ele>-21.0</ele><time>2026-04-07T16:09:55Z</time></trkpt><trkpt lat="34.01858694366282" lon="7.939407076145694"><ele>-21.0</ele><time>2026-04-07T16:09:56Z</time></trkpt><trkpt lat="34.018567642960406" lon="7.939306706296605"><ele>-21.0</ele><time>2026-04-07T16:09:57Z</time></trkpt><trkpt lat="34.018536414044284" lon="7.939205972925934"><ele>-21.0</ele><time>2026-04-07T16:09:58Z</time></trkpt><trkpt lat="34.018508204439854" lon="7.939106441784011"><ele>-21.0</ele><time>2026-04-07T16:09:59Z</time></trkpt><trkpt lat="34.01848436174602" lon="7.939005184095273"><ele>-21.0</ele><time>2026-04-07T16:10:00Z</time></trkpt><trkpt lat="34.01846116479381" lon="7.938904891563763"><ele>-21.0</ele><time>2026-04-07T16:10:01Z</time></trkpt><trkpt lat="34.01843531987054" lon="7.9388045029787895"><ele>-21.166666666666668</ele><time>2026-04-07T16:10:02Z</time></trkpt><trkpt lat="34.018406099262286" lon="7.938705552099793"><ele>-21.333333333333332</ele><time>2026-04-07T16:10:03Z</time></trkpt><trkpt lat="34.018376076085076" lon="7.938608121633512"><ele>-21.5</ele><time>2026-04-07T16:10:04Z</time></trkpt><trkpt lat="34.01834224233406" lon="7.93851133452138"><ele>-21.666666666666664</ele><time>2026-04-07T16:10:05Z</time></trkpt><trkpt lat="34.01831592449009" lon="7.938415211897499"><ele>-21.833333333333332</ele><time>2026-04-07T16:10:06Z</time></trkpt><trkpt lat="34.018295349015574" lon="7.93833487872841"><ele>-22.0</ele><time>2026-04-07T16:10:07Z</time></trkpt><trkpt lat="34.01826194042515" lon="7.9382047484363785"><ele>-21.0</ele><time>2026-04-07T16:10:09Z</time></trkpt><trkpt lat="34.01824385951397" lon="7.938125027835519"><ele>-20.0</ele><time>2026-04-07T16:10:11Z</time></trkpt><trkpt lat="34.01821171795589" lon="7.938016776902426"><ele>-19.0</ele><time>2026-04-07T16:10:14Z</time></trkpt><trkpt lat="34.018176177221456" lon="7.937904635383401"><ele>-18.0</ele><time>2026-04-07T16:10:16Z</time></trkpt><trkpt lat="34.01812321040536" lon="7.937765904920861"><ele>-17.0</ele><time>2026-04-07T16:10:18Z</time></trkpt><trkpt lat="34.018103321857275" lon="7.9376881165128"><ele>-17.0</ele><time>2026-04-07T16:10:19Z</time></trkpt><trkpt lat="34.01807929540125" lon="7.937606157465098"><ele>-17.0</ele><time>2026-04-07T16:10:20Z</time></trkpt><trkpt lat="34.01805656359733" lon="7.937520621561319"><ele>-17.0</ele><time>2026-04-07T16:10:21Z</time></trkpt><trkpt lat="34.0180396260748" lon="7.937427400128233"><ele>-17.0</ele><time>2026-04-07T16:10:22Z</time></trkpt><trkpt lat="34.01803339140776" lon="7.937341607652402"><ele>-17.0</ele><time>2026-04-07T16:10:23Z</time></trkpt><trkpt lat="34.018035683681425" lon="7.937249142827576"><ele>-17.0</ele><time>2026-04-07T16:10:24Z</time></trkpt><trkpt lat="34.01804817490903" lon="7.93715005806037"><ele>-17.4</ele><time>2026-04-07T16:10:25Z</time></trkpt><trkpt lat="34.018063776555024" lon="7.937043954165227"><ele>-17.799999999999997</ele><time>2026-04-07T16:10:26Z</time></trkpt><trkpt lat="34.01807900733286" lon="7.936929863573363"><ele>-18.2</ele><time>2026-04-07T16:10:27Z</time></trkpt><trkpt lat="34.01808998028452" lon="7.93681041215766"><ele>-18.599999999999998</ele><time>2026-04-07T16:10:28Z</time></trkpt><trkpt lat="34.01809596445428" lon="7.9366851241158685"><ele>-19.0</ele><time>2026-04-07T16:10:29Z</time></trkpt><trkpt lat="34.018094157434916" lon="7.936552853583984"><ele>-19.0</ele><time>2026-04-07T16:10:30Z</time></trkpt><trkpt lat="34.01808748616066" lon="7.936426573983287"><ele>-19.0</ele><time>2026-04-07T16:10:31Z</time></trkpt><trkpt lat="34.018079205110844" lon="7.936304928452235"><ele>-19.0</ele><time>2026-04-07T16:10:32Z</time></trkpt><trkpt lat="34.01806560058834" lon="7.936178886507684"><ele>-19.0</ele><time>2026-04-07T16:10:33Z</time></trkpt><trkpt lat="34.01805538060612" lon="7.936056049060091"><ele>-19.0</ele><time>2026-04-07T16:10:34Z</time></trkpt><trkpt lat="34.01805501990637" lon="7.935928821160704"><ele>-19.0</ele><time>2026-04-07T16:10:35Z</time></trkpt><trkpt lat="34.01805918502992" lon="7.935800905504544"><ele>-19.0</ele><time>2026-04-07T16:10:36Z</time></trkpt><trkpt lat="34.018056468826266" lon="7.935668936670042"><ele>-19.0</ele><time>2026-04-07T16:10:37Z</time></trkpt><trkpt lat="34.0180534142807" lon="7.935538974966927"><ele>-19.0</ele><time>2026-04-07T16:10:38Z</time></trkpt><trkpt lat="34.01805164906494" lon="7.935406054785436"><ele>-19.0</ele><time>2026-04-07T16:10:39Z</time></trkpt><trkpt lat="34.01804786197946" lon="7.935273020030692"><ele>-19.0</ele><time>2026-04-07T16:10:40Z</time></trkpt><trkpt lat="34.018040061184514" lon="7.935140567505377"><ele>-19.0</ele><time>2026-04-07T16:10:41Z</time></trkpt><trkpt lat="34.01802342297073" lon="7.935007424455666"><ele>-19.0</ele><time>2026-04-07T16:10:42Z</time></trkpt><trkpt lat="34.01801281797951" lon="7.934872213605848"><ele>-19.0</ele><time>2026-04-07T16:10:43Z</time></trkpt><trkpt lat="34.01799763828966" lon="7.9347350415462685"><ele>-19.0</ele><time>2026-04-07T16:10:44Z</time></trkpt><trkpt lat="34.01798446168707" lon="7.934600244129618"><ele>-18.75</ele><time>2026-04-07T16:10:45Z</time></trkpt><trkpt lat="34.01796864948505" lon="7.9344631749635"><ele>-18.5</ele><time>2026-04-07T16:10:46.001Z</time></trkpt><trkpt lat="34.01795518360822" lon="7.934326179584117"><ele>-18.25</ele><time>2026-04-07T16:10:47.001Z</time></trkpt><trkpt lat="34.017944733855316" lon="7.934188186504558"><ele>-18.0</ele><time>2026-04-07T16:10:48.001Z</time></trkpt><trkpt lat="34.01793323585674" lon="7.934050958799838"><ele>-17.75</ele><time>2026-04-07T16:10:49.001Z</time></trkpt><trkpt lat="34.017919307490104" lon="7.93391450781025"><ele>-17.5</ele><time>2026-04-07T16:10:50.001Z</time></trkpt><trkpt lat="34.01790802212522" lon="7.933776339934643"><ele>-17.25</ele><time>2026-04-07T16:10:51.001Z</time></trkpt><trkpt lat="34.0178973403911" lon="7.933636515035786"><ele>-17.0</ele><time>2026-04-07T16:10:52.001Z</time></trkpt><trkpt lat="34.017883648468576" lon="7.933494385851022"><ele>-16.5</ele><time>2026-04-07T16:10:53.001Z</time></trkpt><trkpt lat="34.01786872650343" lon="7.933349422420253"><ele>-16.0</ele><time>2026-04-07T16:10:54.001Z</time></trkpt><trkpt lat="34.017854686643105" lon="7.9332004775258245"><ele>-15.5</ele><time>2026-04-07T16:10:55.001Z</time></trkpt><trkpt lat="34.01784045868455" lon="7.933051453965122"><ele>-15.0</ele><time>2026-04-07T16:10:56.001Z</time></trkpt><trkpt lat="34.01782402390409" lon="7.932899596019645"><ele>-15.0</ele><time>2026-04-07T16:10:57.001Z</time></trkpt><trkpt lat="34.01781154484161" lon="7.932745115449924"><ele>-15.0</ele><time>2026-04-07T16:10:58.001Z</time></trkpt><trkpt lat="34.017799559890385" lon="7.932586494250568"><ele>-15.0</ele><time>2026-04-07T16:10:59.001Z</time></trkpt><trkpt lat="34.017783193560064" lon="7.9324214493228045"><ele>-15.0</ele><time>2026-04-07T16:11:00.001Z</time></trkpt><trkpt lat="34.01776561051179" lon="7.932251273763026"><ele>-15.5</ele><time>2026-04-07T16:11:01.001Z</time></trkpt><trkpt lat="34.01775507872148" lon="7.932086658381957"><ele>-16.0</ele><time>2026-04-07T16:11:02.001Z</time></trkpt><trkpt lat="34.01774320194611" lon="7.931924536552294"><ele>-16.5</ele><time>2026-04-07T16:11:03.001Z</time></trkpt><trkpt lat="34.01773084763975" lon="7.9317652922867445"><ele>-17.0</ele><time>2026-04-07T16:11:04.001Z</time></trkpt><trkpt lat="34.01772044940647" lon="7.9316031310431265"><ele>-17.0</ele><time>2026-04-07T16:11:05.001Z</time></trkpt><trkpt lat="34.017707055096594" lon="7.9314354796607125"><ele>-17.0</ele><time>2026-04-07T16:11:06.001Z</time></trkpt><trkpt lat="34.017694140710134" lon="7.931264556828796"><ele>-17.0</ele><time>2026-04-07T16:11:07.001Z</time></trkpt><trkpt lat="34.017682668289694" lon="7.931093417147075"><ele>-17.0</ele><time>2026-04-07T16:11:08.001Z</time></trkpt><trkpt lat="34.0176695653676" lon="7.930922508125953"><ele>-17.0</ele><time>2026-04-07T16:11:09.001Z</time></trkpt><trkpt lat="34.01765617049857" lon="7.930750798794476"><ele>-17.0</ele><time>2026-04-07T16:11:10.001Z</time></trkpt><trkpt lat="34.017642592617946" lon="7.9305802888747134"><ele>-17.0</ele><time>2026-04-07T16:11:11.001Z</time></trkpt><trkpt lat="34.01762940059454" lon="7.9304106431596155"><ele>-17.0</ele><time>2026-04-07T16:11:12.001Z</time></trkpt><trkpt lat="34.017617301643384" lon="7.930242077881504"><ele>-17.0</ele><time>2026-04-07T16:11:13.001Z</time></trkpt><trkpt lat="34.01760419794516" lon="7.930073180097155"><ele>-17.0</ele><time>2026-04-07T16:11:14.001Z</time></trkpt><trkpt lat="34.01759138206407" lon="7.929904657891475"><ele>-17.0</ele><time>2026-04-07T16:11:15.001Z</time></trkpt><trkpt lat="34.01758029880818" lon="7.929736722531059"><ele>-17.0</ele><time>2026-04-07T16:11:16.001Z</time></trkpt><trkpt lat="34.01757075440771" lon="7.92956878614603"><ele>-17.5</ele><time>2026-04-07T16:11:17.001Z</time></trkpt><trkpt lat="34.01756378186828" lon="7.929399407220982"><ele>-18.0</ele><time>2026-04-07T16:11:18.001Z</time></trkpt><trkpt lat="34.01755426866213" lon="7.929229332656181"><ele>-18.5</ele><time>2026-04-07T16:11:19.001Z</time></trkpt><trkpt lat="34.01754421866339" lon="7.929059525092618"><ele>-19.0</ele><time>2026-04-07T16:11:20.001Z</time></trkpt><trkpt lat="34.017533960244876" lon="7.928890251927624"><ele>-19.0</ele><time>2026-04-07T16:11:21.001Z</time></trkpt><trkpt lat="34.017525268594156" lon="7.928722157473337"><ele>-19.0</ele><time>2026-04-07T16:11:22.001Z</time></trkpt><trkpt lat="34.01751544350868" lon="7.928553931819643"><ele>-19.0</ele><time>2026-04-07T16:11:23.001Z</time></trkpt><trkpt lat="34.017502848494146" lon="7.928385539965586"><ele>-19.0</ele><time>2026-04-07T16:11:24.001Z</time></trkpt><trkpt lat="34.01749300057942" lon="7.928215792971837"><ele>-18.25</ele><time>2026-04-07T16:11:25.001Z</time></trkpt><trkpt lat="34.0174802019722" lon="7.928045336023277"><ele>-17.5</ele><time>2026-04-07T16:11:26.001Z</time></trkpt><trkpt lat="34.01746712420168" lon="7.927875756301721"><ele>-16.75</ele><time>2026-04-07T16:11:27.001Z</time></trkpt><trkpt lat="34.01745344137949" lon="7.927705779041548"><ele>-16.0</ele><time>2026-04-07T16:11:28.001Z</time></trkpt><trkpt lat="34.01743891282719" lon="7.927536753762331"><ele>-16.0</ele><time>2026-04-07T16:11:29.001Z</time></trkpt><trkpt lat="34.01742439925951" lon="7.927368853962186"><ele>-16.0</ele><time>2026-04-07T16:11:30.001Z</time></trkpt><trkpt lat="34.01740779979721" lon="7.927202331426555"><ele>-16.0</ele><time>2026-04-07T16:11:31.001Z</time></trkpt><trkpt lat="34.017390669345325" lon="7.927037056540961"><ele>-16.0</ele><time>2026-04-07T16:11:32.001Z</time></trkpt><trkpt lat="34.017374899316636" lon="7.926872656629095"><ele>-16.5</ele><time>2026-04-07T16:11:33.001Z</time></trkpt><trkpt lat="34.01736156138228" lon="7.926707465429392"><ele>-17.0</ele><time>2026-04-07T16:11:34.001Z</time></trkpt><trkpt lat="34.01734627465898" lon="7.9265428316529"><ele>-17.5</ele><time>2026-04-07T16:11:35.001Z</time></trkpt><trkpt lat="34.01732942295546" lon="7.926379961438462"><ele>-18.0</ele><time>2026-04-07T16:11:36.001Z</time></trkpt><trkpt lat="34.01731575531178" lon="7.926217917446697"><ele>-18.0</ele><time>2026-04-07T16:11:37.001Z</time></trkpt><trkpt lat="34.01730092007587" lon="7.926055557723376"><ele>-18.0</ele><time>2026-04-07T16:11:38.001Z</time></trkpt><trkpt lat="34.017284611031585" lon="7.9258963369101"><ele>-18.0</ele><time>2026-04-07T16:11:39.001Z</time></trkpt><trkpt lat="34.0172730502024" lon="7.925740125169532"><ele>-18.0</ele><time>2026-04-07T16:11:40.001Z</time></trkpt><trkpt lat="34.017261688914566" lon="7.925581335188494"><ele>-17.5</ele><time>2026-04-07T16:11:41.001Z</time></trkpt><trkpt lat="34.017247809999596" lon="7.925424163098612"><ele>-17.0</ele><time>2026-04-07T16:11:42.001Z</time></trkpt><trkpt lat="34.01723354977269" lon="7.925264554999164"><ele>-16.5</ele><time>2026-04-07T16:11:43.001Z</time></trkpt><trkpt lat="34.01721657024724" lon="7.9251099079914935"><ele>-16.0</ele><time>2026-04-07T16:11:44.001Z</time></trkpt><trkpt lat="34.017204726318816" lon="7.924951421017763"><ele>-16.0</ele><time>2026-04-07T16:11:45.001Z</time></trkpt><trkpt lat="34.01719237349369" lon="7.924795795066443"><ele>-16.0</ele><time>2026-04-07T16:11:46.001Z</time></trkpt><trkpt lat="34.01717797415677" lon="7.924642185786369"><ele>-16.0</ele><time>2026-04-07T16:11:47.001Z</time></trkpt><trkpt lat="34.01717112289613" lon="7.924485555171164"><ele>-16.0</ele><time>2026-04-07T16:11:48.002Z</time></trkpt><trkpt lat="34.01715725706666" lon="7.924329862106546"><ele>-17.0</ele><time>2026-04-07T16:11:49.002Z</time></trkpt><trkpt lat="34.017148044618594" lon="7.924175065275301"><ele>-18.0</ele><time>2026-04-07T16:11:50.002Z</time></trkpt><trkpt lat="34.01713535406545" lon="7.924016558897441"><ele>-19.0</ele><time>2026-04-07T16:11:51.002Z</time></trkpt><trkpt lat="34.01711543318346" lon="7.92385974608214"><ele>-20.0</ele><time>2026-04-07T16:11:52.002Z</time></trkpt><trkpt lat="34.01709757183742" lon="7.923699540565414"><ele>-20.0</ele><time>2026-04-07T16:11:53.002Z</time></trkpt><trkpt lat="34.01708352900369" lon="7.923545141940932"><ele>-20.0</ele><time>2026-04-07T16:11:54.002Z</time></trkpt><trkpt lat="34.017064234029306" lon="7.923384678067565"><ele>-20.0</ele><time>2026-04-07T16:11:55.002Z</time></trkpt><trkpt lat="34.01704964299692" lon="7.923225489882395"><ele>-20.0</ele><time>2026-04-07T16:11:56.002Z</time></trkpt><trkpt lat="34.01703512626099" lon="7.923068462553581"><ele>-19.75</ele><time>2026-04-07T16:11:57.002Z</time></trkpt><trkpt lat="34.01702295437616" lon="7.922909853072419"><ele>-19.5</ele><time>2026-04-07T16:11:58.001Z</time></trkpt><trkpt lat="34.017010394136044" lon="7.922754069567757"><ele>-19.25</ele><time>2026-04-07T16:11:59.001Z</time></trkpt><trkpt lat="34.016998187307316" lon="7.922599024940118"><ele>-19.0</ele><time>2026-04-07T16:12:00.001Z</time></trkpt><trkpt lat="34.016985386156996" lon="7.922444822902183"><ele>-19.5</ele><time>2026-04-07T16:12:01.001Z</time></trkpt><trkpt lat="34.01697525595999" lon="7.922284458831084"><ele>-20.0</ele><time>2026-04-07T16:12:02.001Z</time></trkpt><trkpt lat="34.01696127918798" lon="7.922136409891262"><ele>-20.5</ele><time>2026-04-07T16:12:03.001Z</time></trkpt><trkpt lat="34.0169465107685" lon="7.921982280007765"><ele>-21.0</ele><time>2026-04-07T16:12:04.001Z</time></trkpt><trkpt lat="34.01693441284049" lon="7.921829181620874"><ele>-21.5</ele><time>2026-04-07T16:12:05.001Z</time></trkpt><trkpt lat="34.016925778616184" lon="7.92167592591771"><ele>-22.0</ele><time>2026-04-07T16:12:06.001Z</time></trkpt><trkpt lat="34.01690842498389" lon="7.9215230698632295"><ele>-22.5</ele><time>2026-04-07T16:12:07.001Z</time></trkpt><trkpt lat="34.01689656486356" lon="7.921372521926893"><ele>-23.0</ele><time>2026-04-07T16:12:08.001Z</time></trkpt><trkpt lat="34.016889488100134" lon="7.921224109553159"><ele>-23.0</ele><time>2026-04-07T16:12:09.001Z</time></trkpt><trkpt lat="34.01688110329186" lon="7.921074842944734"><ele>-23.0</ele><time>2026-04-07T16:12:10.001Z</time></trkpt><trkpt lat="34.016873599549875" lon="7.920928743046765"><ele>-23.0</ele><time>2026-04-07T16:12:11.001Z</time></trkpt><trkpt lat="34.016865859177706" lon="7.920785553472168"><ele>-23.0</ele><time>2026-04-07T16:12:12.001Z</time></trkpt><trkpt lat="34.01685996311746" lon="7.920644377065811"><ele>-23.25</ele><time>2026-04-07T16:12:13.001Z</time></trkpt><trkpt lat="34.016856488735435" lon="7.920504766498129"><ele>-23.5</ele><time>2026-04-07T16:12:14.001Z</time></trkpt><trkpt lat="34.01685226060142" lon="7.920366148603406"><ele>-23.75</ele><time>2026-04-07T16:12:15.001Z</time></trkpt><trkpt lat="34.016848380022" lon="7.920229397983295"><ele>-24.0</ele><time>2026-04-07T16:12:16Z</time></trkpt><trkpt lat="34.016838085267295" lon="7.920094913787693"><ele>-23.4</ele><time>2026-04-07T16:12:17Z</time></trkpt><trkpt lat="34.0168269352785" lon="7.919961151498472"><ele>-22.799999999999997</ele><time>2026-04-07T16:12:18Z</time></trkpt><trkpt lat="34.01681663418387" lon="7.919828937115456"><ele>-22.200000000000003</ele><time>2026-04-07T16:12:19Z</time></trkpt><trkpt lat="34.016801016950424" lon="7.919697138470343"><ele>-21.6</ele><time>2026-04-07T16:12:20Z</time></trkpt><trkpt lat="34.016786450351766" lon="7.919566978562083"><ele>-21.0</ele><time>2026-04-07T16:12:21Z</time></trkpt><trkpt lat="34.016768786059565" lon="7.9194389383347525"><ele>-21.0</ele><time>2026-04-07T16:12:22Z</time></trkpt><trkpt lat="34.016753307192175" lon="7.9193103295315685"><ele>-21.0</ele><time>2026-04-07T16:12:23Z</time></trkpt><trkpt lat="34.016735234296014" lon="7.919179034842686"><ele>-21.0</ele><time>2026-04-07T16:12:24Z</time></trkpt><trkpt lat="34.01671158234561" lon="7.919052966761064"><ele>-21.0</ele><time>2026-04-07T16:12:25Z</time></trkpt><trkpt lat="34.01668426954074" lon="7.9189307847992865"><ele>-21.0</ele><time>2026-04-07T16:12:26Z</time></trkpt><trkpt lat="34.016654503264746" lon="7.918811923145618"><ele>-20.6</ele><time>2026-04-07T16:12:27.001Z</time></trkpt><trkpt lat="34.0166261224446" lon="7.918689797586856"><ele>-20.200000000000003</ele><time>2026-04-07T16:12:28.001Z</time></trkpt><trkpt lat="34.01659089387199" lon="7.918566846471037"><ele>-19.799999999999997</ele><time>2026-04-07T16:12:29.001Z</time></trkpt><trkpt lat="34.016556348089054" lon="7.918448196391258"><ele>-19.4</ele><time>2026-04-07T16:12:30.001Z</time></trkpt><trkpt lat="34.01652993237538" lon="7.918327808886214"><ele>-19.0</ele><time>2026-04-07T16:12:31.001Z</time></trkpt><trkpt lat="34.016504312314716" lon="7.91820486651483"><ele>-19.0</ele><time>2026-04-07T16:12:32.001Z</time></trkpt><trkpt lat="34.01648174009015" lon="7.9180925634253185"><ele>-19.0</ele><time>2026-04-07T16:12:33.001Z</time></trkpt><trkpt lat="34.016463587408474" lon="7.917978075018269"><ele>-19.0</ele><time>2026-04-07T16:12:34.001Z</time></trkpt><trkpt lat="34.01644146527086" lon="7.9178714873033895"><ele>-19.0</ele><time>2026-04-07T16:12:35.001Z</time></trkpt><trkpt lat="34.01642354970149" lon="7.917773019697971"><ele>-19.0</ele><time>2026-04-07T16:12:36.001Z</time></trkpt><trkpt lat="34.016399025721505" lon="7.917671135853878"><ele>-19.0</ele><time>2026-04-07T16:12:37.001Z</time></trkpt><trkpt lat="34.01637792953959" lon="7.917581335444071"><ele>-19.0</ele><time>2026-04-07T16:12:38.001Z</time></trkpt><trkpt lat="34.01635586725276" lon="7.917500424021549"><ele>-19.0</ele><time>2026-04-07T16:12:39.001Z</time></trkpt><trkpt lat="34.01630889331452" lon="7.917390702805757"><ele>-19.0</ele><time>2026-04-07T16:12:41.001Z</time></trkpt><trkpt lat="34.01624451744129" lon="7.917257524992672"><ele>-19.0</ele><time>2026-04-07T16:12:43.001Z</time></trkpt><trkpt lat="34.01620659652177" lon="7.917178868484659"><ele>-19.166666666666664</ele><time>2026-04-07T16:12:44.001Z</time></trkpt><trkpt lat="34.01616892074242" lon="7.9170882714372635"><ele>-19.333333333333332</ele><time>2026-04-07T16:12:45.001Z</time></trkpt><trkpt lat="34.01614442537658" lon="7.91698945036392"><ele>-19.5</ele><time>2026-04-07T16:12:46.001Z</time></trkpt><trkpt lat="34.01613463395734" lon="7.91688598160593"><ele>-19.666666666666668</ele><time>2026-04-07T16:12:47.001Z</time></trkpt><trkpt lat="34.01613107374801" lon="7.916780653474253"><ele>-19.833333333333336</ele><time>2026-04-07T16:12:48.001Z</time></trkpt><trkpt lat="34.016140756716794" lon="7.916669939537913"><ele>-20.0</ele><time>2026-04-07T16:12:49.001Z</time></trkpt><trkpt lat="34.016155320996525" lon="7.916563016863312"><ele>-20.0</ele><time>2026-04-07T16:12:50.001Z</time></trkpt><trkpt lat="34.01616093468214" lon="7.916454005591961"><ele>-20.0</ele><time>2026-04-07T16:12:51.001Z</time></trkpt><trkpt lat="34.01616260987594" lon="7.91634127448273"><ele>-20.0</ele><time>2026-04-07T16:12:52.001Z</time></trkpt><trkpt lat="34.016160620940674" lon="7.9162294916208005"><ele>-20.0</ele><time>2026-04-07T16:12:53.001Z</time></trkpt><trkpt lat="34.01615588150419" lon="7.916113250930442"><ele>-20.0</ele><time>2026-04-07T16:12:54.001Z</time></trkpt><trkpt lat="34.01615635745237" lon="7.915998271764301"><ele>-20.0</ele><time>2026-04-07T16:12:55.001Z</time></trkpt><trkpt lat="34.01616397085028" lon="7.915883254989499"><ele>-20.0</ele><time>2026-04-07T16:12:56.001Z</time></trkpt><trkpt lat="34.016177836761294" lon="7.915766767421585"><ele>-20.0</ele><time>2026-04-07T16:12:57.001Z</time></trkpt><trkpt lat="34.01619680338412" lon="7.915650196730832"><ele>-20.0</ele><time>2026-04-07T16:12:58.001Z</time></trkpt><trkpt lat="34.016216873347936" lon="7.915533091070882"><ele>-20.0</ele><time>2026-04-07T16:12:59.001Z</time></trkpt><trkpt lat="34.01623134576899" lon="7.915416705013563"><ele>-20.0</ele><time>2026-04-07T16:13:00.001Z</time></trkpt><trkpt lat="34.01624458984326" lon="7.9153012682130575"><ele>-20.0</ele><time>2026-04-07T16:13:01.001Z</time></trkpt><trkpt lat="34.01625136237457" lon="7.91518346986106"><ele>-20.0</ele><time>2026-04-07T16:13:02.001Z</time></trkpt><trkpt lat="34.01625341975301" lon="7.915066262835396"><ele>-20.0</ele><time>2026-04-07T16:13:03.001Z</time></trkpt><trkpt lat="34.01625519853157" lon="7.914949729617982"><ele>-20.0</ele><time>2026-04-07T16:13:04.001Z</time></trkpt><trkpt lat="34.01626188996656" lon="7.914831527884202"><ele>-19.8</ele><time>2026-04-07T16:13:05.001Z</time></trkpt><trkpt lat="34.01626959922016" lon="7.914714067541389"><ele>-19.6</ele><time>2026-04-07T16:13:06.001Z</time></trkpt><trkpt lat="34.01628128812749" lon="7.914593989684044"><ele>-19.4</ele><time>2026-04-07T16:13:07.001Z</time></trkpt><trkpt lat="34.01629268515445" lon="7.91447207609567"><ele>-19.2</ele><time>2026-04-07T16:13:08.001Z</time></trkpt><trkpt lat="34.01630730628944" lon="7.914349240076516"><ele>-19.0</ele><time>2026-04-07T16:13:09.001Z</time></trkpt><trkpt lat="34.01632558421616" lon="7.914227877275898"><ele>-18.599999999999998</ele><time>2026-04-07T16:13:10.001Z</time></trkpt><trkpt lat="34.01634514547672" lon="7.914105688647425"><ele>-18.2</ele><time>2026-04-07T16:13:11.001Z</time></trkpt><trkpt lat="34.01636175855434" lon="7.913983388205796"><ele>-17.799999999999997</ele><time>2026-04-07T16:13:12.001Z</time></trkpt><trkpt lat="34.01637934197191" lon="7.9138642312569685"><ele>-17.4</ele><time>2026-04-07T16:13:13.001Z</time></trkpt><trkpt lat="34.01639604650446" lon="7.913747220129796"><ele>-17.0</ele><time>2026-04-07T16:13:14.001Z</time></trkpt><trkpt lat="34.016409141330016" lon="7.913630198788075"><ele>-17.0</ele><time>2026-04-07T16:13:15.001Z</time></trkpt><trkpt lat="34.016419342791444" lon="7.913512230704633"><ele>-17.0</ele><time>2026-04-07T16:13:16.001Z</time></trkpt><trkpt lat="34.0164265178945" lon="7.913395106140941"><ele>-17.0</ele><time>2026-04-07T16:13:17.001Z</time></trkpt><trkpt lat="34.01643202343746" lon="7.913275946358204"><ele>-17.0</ele><time>2026-04-07T16:13:18.001Z</time></trkpt><trkpt lat="34.01643575928402" lon="7.913157720399331"><ele>-17.0</ele><time>2026-04-07T16:13:19.001Z</time></trkpt><trkpt lat="34.016437285068655" lon="7.91303892599351"><ele>-16.8</ele><time>2026-04-07T16:13:20.001Z</time></trkpt><trkpt lat="34.01644009436227" lon="7.912922014026369"><ele>-16.6</ele><time>2026-04-07T16:13:21.001Z</time></trkpt><trkpt lat="34.01643914626468" lon="7.912805602212524"><ele>-16.400000000000002</ele><time>2026-04-07T16:13:22.001Z</time></trkpt><trkpt lat="34.016433147239965" lon="7.912691672636743"><ele>-16.2</ele><time>2026-04-07T16:13:23.001Z</time></trkpt><trkpt lat="34.016424926552155" lon="7.912584585120933"><ele>-16.0</ele><time>2026-04-07T16:13:24.001Z</time></trkpt><trkpt lat="34.016416168437104" lon="7.912482848908512"><ele>-15.857142857142856</ele><time>2026-04-07T16:13:25.001Z</time></trkpt><trkpt lat="34.01640562387941" lon="7.912387368551528"><ele>-15.714285714285712</ele><time>2026-04-07T16:13:26.001Z</time></trkpt><trkpt lat="34.01639293431947" lon="7.912298647282563"><ele>-15.571428571428571</ele><time>2026-04-07T16:13:27.001Z</time></trkpt><trkpt lat="34.016365299319084" lon="7.912217414811918"><ele>-15.428571428571427</ele><time>2026-04-07T16:13:28.001Z</time></trkpt><trkpt lat="34.016329248221396" lon="7.912148252940529"><ele>-15.285714285714285</ele><time>2026-04-07T16:13:29.001Z</time></trkpt><trkpt lat="34.01628575828051" lon="7.912088917003027"><ele>-15.142857142857142</ele><time>2026-04-07T16:13:30.001Z</time></trkpt><trkpt lat="34.01623149527007" lon="7.912050203216451"><ele>-15.0</ele><time>2026-04-07T16:13:31.001Z</time></trkpt><trkpt lat="34.01612942599199" lon="7.912010195725061"><ele>-15.0</ele><time>2026-04-07T16:13:33.001Z</time></trkpt><trkpt lat="34.016029946990415" lon="7.911981625538324"><ele>-15.0</ele><time>2026-04-07T16:13:35.001Z</time></trkpt><trkpt lat="34.01595011278528" lon="7.911935494970298"><ele>-15.0</ele><time>2026-04-07T16:13:37.001Z</time></trkpt><trkpt lat="34.01591218849169" lon="7.911859437304525"><ele>-15.0</ele><time>2026-04-07T16:13:39.001Z</time></trkpt><trkpt lat="34.015970785493394" lon="7.9119093001243295"><ele>-15.0</ele><time>2026-04-07T16:14:03.002Z</time></trkpt><trkpt lat="34.0159467987525" lon="7.911987431432779"><ele>-15.0</ele><time>2026-04-07T16:16:47Z</time></trkpt><trkpt lat="34.01592046372038" lon="7.912058277137729"><ele>-15.0</ele><time>2026-04-07T16:16:53Z</time></trkpt><trkpt lat="34.01592130682085" lon="7.912142599518662"><ele>-15.0</ele><time>2026-04-07T16:17:00Z</time></trkpt><trkpt lat="34.01591237996771" lon="7.912225438892158"><ele>-15.0</ele><time>2026-04-07T16:17:10Z</time></trkpt><trkpt lat="34.015905926582796" lon="7.912303887284948"><ele>-15.0</ele><time>2026-04-07T16:17:21Z</time></trkpt><trkpt lat="34.015864173364214" lon="7.912371220781219"><ele>-15.0</ele><time>2026-04-07T16:17:29.001Z</time></trkpt><trkpt lat="34.015822324762055" lon="7.912428965549377"><ele>-15.0</ele><time>2026-04-07T16:17:56.001Z</time></trkpt><trkpt lat="34.015828448387715" lon="7.912505338031925"><ele>-15.0</ele><time>2026-04-07T16:18:25Z</time></trkpt><trkpt lat="34.01580951346301" lon="7.9125827737442185"><ele>-15.0</ele><time>2026-04-07T16:18:42Z</time></trkpt><trkpt lat="34.01578521404792" lon="7.912652910299456"><ele>-15.0</ele><time>2026-04-07T16:18:56Z</time></trkpt><trkpt lat="34.01582528627977" lon="7.912593890817704"><ele>-15.0</ele><time>2026-04-07T16:29:47Z</time></trkpt><trkpt lat="34.01588755458888" lon="7.9125806664632545"><ele>-15.0</ele><time>2026-04-07T16:30:15.001Z</time></trkpt><trkpt lat="34.01582231721103" lon="7.912591959169771"><ele>-15.0</ele><time>2026-04-07T16:31:13Z</time></trkpt><trkpt lat="34.01584060500233" lon="7.912517536136043"><ele>-15.0</ele><time>2026-04-07T16:32:01.001Z</time></trkpt><trkpt lat="34.01579577310338" lon="7.91245430384652"><ele>-15.0</ele><time>2026-04-07T16:32:21.001Z</time></trkpt><trkpt lat="34.015837767919535" lon="7.91238816184841"><ele>-15.0</ele><time>2026-04-07T16:33:50.001Z</time></trkpt><trkpt lat="34.01589043190696" lon="7.912339799685878"><ele>-15.0</ele><time>2026-04-07T16:34:06.001Z</time></trkpt><trkpt lat="34.0159067354138" lon="7.9122644161459"><ele>-15.0</ele><time>2026-04-07T16:34:15.001Z</time></trkpt><trkpt lat="34.01592523215266" lon="7.912181706135602"><ele>-15.0</ele><time>2026-04-07T16:34:23.001Z</time></trkpt><trkpt lat="34.01591159273113" lon="7.912103424539177"><ele>-15.0</ele><time>2026-04-07T16:34:28.001Z</time></trkpt><trkpt lat="34.01587859430885" lon="7.912014653743397"><ele>-15.0</ele><time>2026-04-07T16:34:34.001Z</time></trkpt><trkpt lat="34.01585641606873" lon="7.911937205911056"><ele>-15.0</ele><time>2026-04-07T16:34:39.002Z</time></trkpt><trkpt lat="34.0158249070948" lon="7.911869884669425"><ele>-15.0</ele><time>2026-04-07T16:34:44.002Z</time></trkpt><trkpt lat="34.015803543544095" lon="7.911796437559752"><ele>-15.0</ele><time>2026-04-07T16:34:50.002Z</time></trkpt><trkpt lat="34.0157681083523" lon="7.911713692809269"><ele>-15.0</ele><time>2026-04-07T16:34:56.002Z</time></trkpt><trkpt lat="34.01574768180297" lon="7.911613355976643"><ele>-15.0</ele><time>2026-04-07T16:35:58.001Z</time></trkpt><trkpt lat="34.01579741394051" lon="7.911660499989099"><ele>-15.0</ele><time>2026-04-07T16:38:02.001Z</time></trkpt><trkpt lat="34.01586179890452" lon="7.911703650390814"><ele>-15.0</ele><time>2026-04-07T16:38:08.001Z</time></trkpt><trkpt lat="34.01590641320613" lon="7.911766913885191"><ele>-15.0</ele><time>2026-04-07T16:38:14.001Z</time></trkpt><trkpt lat="34.01592005801091" lon="7.91184371535694"><ele>-15.6</ele><time>2026-04-07T16:38:32.001Z</time></trkpt><trkpt lat="34.01593975258373" lon="7.911711061433488"><ele>-16.2</ele><time>2026-04-07T16:39:16.001Z</time></trkpt><trkpt lat="34.015968984592256" lon="7.911616240721726"><ele>-16.8</ele><time>2026-04-07T16:39:19.001Z</time></trkpt><trkpt lat="34.01599741497168" lon="7.911530244570555"><ele>-17.4</ele><time>2026-04-07T16:39:22.001Z</time></trkpt><trkpt lat="34.016031481794265" lon="7.911433603204446"><ele>-18.0</ele><time>2026-04-07T16:39:25.001Z</time></trkpt><trkpt lat="34.01606827621726" lon="7.9113311254669"><ele>-18.0</ele><time>2026-04-07T16:39:28.001Z</time></trkpt><trkpt lat="34.01610318165076" lon="7.911242626474496"><ele>-18.0</ele><time>2026-04-07T16:39:30.001Z</time></trkpt><trkpt lat="34.01614532268774" lon="7.911144425355854"><ele>-18.0</ele><time>2026-04-07T16:39:32.001Z</time></trkpt><trkpt lat="34.01619701083767" lon="7.911028343893168"><ele>-18.0</ele><time>2026-04-07T16:39:34.001Z</time></trkpt><trkpt lat="34.016238323880515" lon="7.910884784831772"><ele>-18.0</ele><time>2026-04-07T16:39:36.001Z</time></trkpt><trkpt lat="34.01625758203633" lon="7.910811782802536"><ele>-18.142857142857146</ele><time>2026-04-07T16:39:37.001Z</time></trkpt><trkpt lat="34.01627391940494" lon="7.910737773203876"><ele>-18.285714285714285</ele><time>2026-04-07T16:39:38.001Z</time></trkpt><trkpt lat="34.0162887288121" lon="7.910657435708027"><ele>-18.42857142857143</ele><time>2026-04-07T16:39:39.001Z</time></trkpt><trkpt lat="34.01629995327748" lon="7.910573228398564"><ele>-18.571428571428573</ele><time>2026-04-07T16:39:40.001Z</time></trkpt><trkpt lat="34.01631094835263" lon="7.910485688078078"><ele>-18.714285714285715</ele><time>2026-04-07T16:39:41.001Z</time></trkpt><trkpt lat="34.016315866595725" lon="7.9103961944598895"><ele>-18.857142857142858</ele><time>2026-04-07T16:39:42.001Z</time></trkpt><trkpt lat="34.01631705127336" lon="7.9103036538358875"><ele>-19.0</ele><time>2026-04-07T16:39:43.001Z</time></trkpt><trkpt lat="34.016313576007825" lon="7.910212880080197"><ele>-19.0</ele><time>2026-04-07T16:39:44.001Z</time></trkpt><trkpt lat="34.016308685452756" lon="7.910132299146534"><ele>-19.0</ele><time>2026-04-07T16:39:45.001Z</time></trkpt><trkpt lat="34.01630350053633" lon="7.91004704669921"><ele>-19.0</ele><time>2026-04-07T16:39:46.001Z</time></trkpt><trkpt lat="34.01629847710373" lon="7.9099534875335"><ele>-19.0</ele><time>2026-04-07T16:39:47.001Z</time></trkpt><trkpt lat="34.01628850208578" lon="7.90987063169444"><ele>-19.0</ele><time>2026-04-07T16:39:48.001Z</time></trkpt><trkpt lat="34.016280963247105" lon="7.909785647874725"><ele>-19.0</ele><time>2026-04-07T16:39:49.001Z</time></trkpt><trkpt lat="34.01627339214354" lon="7.909694569322706"><ele>-19.0</ele><time>2026-04-07T16:39:50.001Z</time></trkpt><trkpt lat="34.016267176602526" lon="7.909591916783354"><ele>-19.0</ele><time>2026-04-07T16:39:51.001Z</time></trkpt><trkpt lat="34.01626056883771" lon="7.909492055640696"><ele>-19.0</ele><time>2026-04-07T16:39:52.001Z</time></trkpt><trkpt lat="34.016254717854316" lon="7.909394017028677"><ele>-19.0</ele><time>2026-04-07T16:39:53.001Z</time></trkpt><trkpt lat="34.01625083313676" lon="7.909297832194042"><ele>-19.0</ele><time>2026-04-07T16:39:54.001Z</time></trkpt><trkpt lat="34.01624874873536" lon="7.909204212552981"><ele>-19.0</ele><time>2026-04-07T16:39:55.001Z</time></trkpt><trkpt lat="34.01624584540078" lon="7.909111554338776"><ele>-19.0</ele><time>2026-04-07T16:39:56.001Z</time></trkpt><trkpt lat="34.016242534721144" lon="7.909017637810225"><ele>-19.0</ele><time>2026-04-07T16:39:57.001Z</time></trkpt><trkpt lat="34.016236214273555" lon="7.908923708394184"><ele>-19.0</ele><time>2026-04-07T16:39:58.001Z</time></trkpt><trkpt lat="34.01623911180575" lon="7.908830140726122"><ele>-19.0</ele><time>2026-04-07T16:39:59.001Z</time></trkpt><trkpt lat="34.01623446038299" lon="7.908740398108181"><ele>-19.0</ele><time>2026-04-07T16:40:00.001Z</time></trkpt><trkpt lat="34.016233974281825" lon="7.908649006112817"><ele>-19.0</ele><time>2026-04-07T16:40:01.001Z</time></trkpt><trkpt lat="34.016232477733546" lon="7.908557794233292"><ele>-19.0</ele><time>2026-04-07T16:40:02.001Z</time></trkpt><trkpt lat="34.01622846739328" lon="7.908471874780728"><ele>-19.0</ele><time>2026-04-07T16:40:03.001Z</time></trkpt><trkpt lat="34.01622960075617" lon="7.908389346523039"><ele>-19.0</ele><time>2026-04-07T16:40:04.001Z</time></trkpt><trkpt lat="34.01622955012666" lon="7.908299827838162"><ele>-19.0</ele><time>2026-04-07T16:40:05.001Z</time></trkpt><trkpt lat="34.01622794938179" lon="7.908211036754146"><ele>-19.0</ele><time>2026-04-07T16:40:06.001Z</time></trkpt><trkpt lat="34.016218618805595" lon="7.9081238396325"><ele>-19.0</ele><time>2026-04-07T16:40:07.001Z</time></trkpt><trkpt lat="34.01621143450917" lon="7.908037789982843"><ele>-19.0</ele><time>2026-04-07T16:40:08.001Z</time></trkpt><trkpt lat="34.016209389455874" lon="7.907948109710623"><ele>-19.0</ele><time>2026-04-07T16:40:09.001Z</time></trkpt><trkpt lat="34.01620393200978" lon="7.90785814817269"><ele>-19.0</ele><time>2026-04-07T16:40:10.001Z</time></trkpt><trkpt lat="34.01620069111112" lon="7.9077719855130075"><ele>-19.0</ele><time>2026-04-07T16:40:11.001Z</time></trkpt><trkpt lat="34.01619547233362" lon="7.907692310064086"><ele>-19.0</ele><time>2026-04-07T16:40:12.001Z</time></trkpt><trkpt lat="34.01618517788224" lon="7.907543831463975"><ele>-19.0</ele><time>2026-04-07T16:40:14.001Z</time></trkpt><trkpt lat="34.01618106529933" lon="7.9074613730943355"><ele>-19.0</ele><time>2026-04-07T16:40:15.001Z</time></trkpt><trkpt lat="34.016171549619855" lon="7.907321424603993"><ele>-19.0</ele><time>2026-04-07T16:40:17.001Z</time></trkpt><trkpt lat="34.01616116478087" lon="7.907183842405408"><ele>-19.2</ele><time>2026-04-07T16:40:19.001Z</time></trkpt><trkpt lat="34.0161550474035" lon="7.907051742105941"><ele>-19.4</ele><time>2026-04-07T16:40:21.001Z</time></trkpt><trkpt lat="34.01614030018472" lon="7.906925569461911"><ele>-19.6</ele><time>2026-04-07T16:40:23.001Z</time></trkpt><trkpt lat="34.016138258921835" lon="7.9067897248350665"><ele>-19.8</ele><time>2026-04-07T16:40:25.001Z</time></trkpt><trkpt lat="34.01611814914337" lon="7.906657863104963"><ele>-20.0</ele><time>2026-04-07T16:40:27.001Z</time></trkpt><trkpt lat="34.01611786433495" lon="7.906529701215651"><ele>-20.0</ele><time>2026-04-07T16:40:29.001Z</time></trkpt><trkpt lat="34.01613140284171" lon="7.906453383548385"><ele>-20.0</ele><time>2026-04-07T16:40:30.001Z</time></trkpt><trkpt lat="34.01612218664215" lon="7.906319192033734"><ele>-20.0</ele><time>2026-04-07T16:40:32.001Z</time></trkpt><trkpt lat="34.0161088563017" lon="7.906192215820007"><ele>-20.0</ele><time>2026-04-07T16:40:34.001Z</time></trkpt><trkpt lat="34.01609506355303" lon="7.906114592355534"><ele>-20.0</ele><time>2026-04-07T16:40:35.001Z</time></trkpt><trkpt lat="34.01606634079343" lon="7.905959997516252"><ele>-19.8</ele><time>2026-04-07T16:40:37.001Z</time></trkpt><trkpt lat="34.01606010923808" lon="7.9058808772874976"><ele>-19.6</ele><time>2026-04-07T16:40:38.001Z</time></trkpt><trkpt lat="34.016077523008725" lon="7.9057379724345616"><ele>-19.4</ele><time>2026-04-07T16:40:40.001Z</time></trkpt><trkpt lat="34.01606440228243" lon="7.905655225046354"><ele>-19.2</ele><time>2026-04-07T16:40:41.001Z</time></trkpt><trkpt lat="34.016053048726" lon="7.905514210630699"><ele>-19.0</ele><time>2026-04-07T16:40:43.001Z</time></trkpt><trkpt lat="34.01604423605221" lon="7.905364892257383"><ele>-19.0</ele><time>2026-04-07T16:40:45.001Z</time></trkpt><trkpt lat="34.01602988593263" lon="7.905219300451937"><ele>-19.0</ele><time>2026-04-07T16:40:47.001Z</time></trkpt><trkpt lat="34.01602291643134" lon="7.905134248899025"><ele>-19.0</ele><time>2026-04-07T16:40:48.001Z</time></trkpt><trkpt lat="34.01600514285942" lon="7.905047085740837"><ele>-19.0</ele><time>2026-04-07T16:40:49.001Z</time></trkpt><trkpt lat="34.01597593597866" lon="7.904905098627133"><ele>-19.0</ele><time>2026-04-07T16:40:51.001Z</time></trkpt><trkpt lat="34.01597182609384" lon="7.904751389742378"><ele>-19.0</ele><time>2026-04-07T16:40:53.001Z</time></trkpt><trkpt lat="34.015966506139954" lon="7.904674060369293"><ele>-19.0</ele><time>2026-04-07T16:40:54.001Z</time></trkpt><trkpt lat="34.01595323660865" lon="7.904531167708499"><ele>-19.0</ele><time>2026-04-07T16:40:56.001Z</time></trkpt><trkpt lat="34.0159136621415" lon="7.904389376762255"><ele>-19.0</ele><time>2026-04-07T16:40:58.001Z</time></trkpt><trkpt lat="34.015873262347455" lon="7.904250808677845"><ele>-19.0</ele><time>2026-04-07T16:41:00.001Z</time></trkpt><trkpt lat="34.01584236807425" lon="7.904109363403069"><ele>-19.333333333333332</ele><time>2026-04-07T16:41:02.001Z</time></trkpt><trkpt lat="34.01580963676681" lon="7.903961573755798"><ele>-19.666666666666664</ele><time>2026-04-07T16:41:04.001Z</time></trkpt><trkpt lat="34.01578789565406" lon="7.903885724278325"><ele>-20.0</ele><time>2026-04-07T16:41:05.001Z</time></trkpt><trkpt lat="34.01577281969153" lon="7.903809306417609"><ele>-20.333333333333332</ele><time>2026-04-07T16:41:06.001Z</time></trkpt><trkpt lat="34.015752288366826" lon="7.903735771049689"><ele>-20.666666666666668</ele><time>2026-04-07T16:41:07.001Z</time></trkpt><trkpt lat="34.01572906177409" lon="7.903662351420827"><ele>-21.0</ele><time>2026-04-07T16:41:08.001Z</time></trkpt><trkpt lat="34.01569703314441" lon="7.903587420678373"><ele>-21.0</ele><time>2026-04-07T16:41:09.001Z</time></trkpt><trkpt lat="34.01566605680404" lon="7.903514504796803"><ele>-21.0</ele><time>2026-04-07T16:41:10.001Z</time></trkpt><trkpt lat="34.015629309430196" lon="7.90344098167014"><ele>-21.0</ele><time>2026-04-07T16:41:11.001Z</time></trkpt><trkpt lat="34.01560876315358" lon="7.903366312625789"><ele>-21.0</ele><time>2026-04-07T16:41:12.001Z</time></trkpt><trkpt lat="34.015588521917145" lon="7.903293455937815"><ele>-21.0</ele><time>2026-04-07T16:41:13.001Z</time></trkpt><trkpt lat="34.01555958455423" lon="7.903221102215503"><ele>-21.0</ele><time>2026-04-07T16:41:14.001Z</time></trkpt><trkpt lat="34.01552500036184" lon="7.903146871189793"><ele>-21.0</ele><time>2026-04-07T16:41:15.001Z</time></trkpt><trkpt lat="34.015497761668655" lon="7.903073202973128"><ele>-21.0</ele><time>2026-04-07T16:41:16.001Z</time></trkpt><trkpt lat="34.015474119543555" lon="7.902997888095808"><ele>-21.0</ele><time>2026-04-07T16:41:17.001Z</time></trkpt><trkpt lat="34.01545943488019" lon="7.902918582733669"><ele>-21.0</ele><time>2026-04-07T16:41:18.001Z</time></trkpt><trkpt lat="34.0154297464556" lon="7.902846986293162"><ele>-21.0</ele><time>2026-04-07T16:41:19.001Z</time></trkpt><trkpt lat="34.01541053350685" lon="7.902767736570676"><ele>-21.0</ele><time>2026-04-07T16:41:20.001Z</time></trkpt><trkpt lat="34.01538805265908" lon="7.902683672517986"><ele>-21.0</ele><time>2026-04-07T16:41:21.001Z</time></trkpt><trkpt lat="34.01537164636058" lon="7.902600431392845"><ele>-21.0</ele><time>2026-04-07T16:41:22.001Z</time></trkpt><trkpt lat="34.01534645705002" lon="7.902516675133791"><ele>-20.833333333333332</ele><time>2026-04-07T16:41:23.001Z</time></trkpt><trkpt lat="34.01532822670185" lon="7.9024325513632645"><ele>-20.666666666666668</ele><time>2026-04-07T16:41:24.001Z</time></trkpt><trkpt lat="34.015304711762894" lon="7.902344766457936"><ele>-20.5</ele><time>2026-04-07T16:41:25.001Z</time></trkpt><trkpt lat="34.01527526912534" lon="7.902260651631162"><ele>-20.333333333333336</ele><time>2026-04-07T16:41:26.001Z</time></trkpt><trkpt lat="34.01524145272618" lon="7.902169704998366"><ele>-20.166666666666668</ele><time>2026-04-07T16:41:27.001Z</time></trkpt><trkpt lat="34.01522443204395" lon="7.902079599994666"><ele>-20.0</ele><time>2026-04-07T16:41:28.001Z</time></trkpt><trkpt lat="34.0152046157317" lon="7.901981812055087"><ele>-20.0</ele><time>2026-04-07T16:41:29.001Z</time></trkpt><trkpt lat="34.01519071463074" lon="7.901888603197349"><ele>-20.0</ele><time>2026-04-07T16:41:30.001Z</time></trkpt><trkpt lat="34.015182633439316" lon="7.901799048232005"><ele>-20.0</ele><time>2026-04-07T16:41:31.001Z</time></trkpt><trkpt lat="34.01516996670936" lon="7.901705987142131"><ele>-20.0</ele><time>2026-04-07T16:41:32.001Z</time></trkpt><trkpt lat="34.015151218864105" lon="7.901610762506136"><ele>-20.0</ele><time>2026-04-07T16:41:33.001Z</time></trkpt><trkpt lat="34.01513914972393" lon="7.901513560490927"><ele>-20.0</ele><time>2026-04-07T16:41:34.001Z</time></trkpt><trkpt lat="34.015131926816906" lon="7.901417683016223"><ele>-19.833333333333336</ele><time>2026-04-07T16:41:35.001Z</time></trkpt><trkpt lat="34.015115346942196" lon="7.901320313537376"><ele>-19.666666666666668</ele><time>2026-04-07T16:41:36.001Z</time></trkpt><trkpt lat="34.01510547350585" lon="7.901222199797722"><ele>-19.5</ele><time>2026-04-07T16:41:37.001Z</time></trkpt><trkpt lat="34.01509700233779" lon="7.901120766993787"><ele>-19.333333333333332</ele><time>2026-04-07T16:41:38.001Z</time></trkpt><trkpt lat="34.01508414263654" lon="7.901019954062385"><ele>-19.166666666666664</ele><time>2026-04-07T16:41:39.001Z</time></trkpt><trkpt lat="34.01508139591721" lon="7.900920813657254"><ele>-19.0</ele><time>2026-04-07T16:41:40.001Z</time></trkpt><trkpt lat="34.01507032844362" lon="7.900817439354107"><ele>-19.0</ele><time>2026-04-07T16:41:41.001Z</time></trkpt><trkpt lat="34.01506463699412" lon="7.900709934152728"><ele>-19.0</ele><time>2026-04-07T16:41:42.001Z</time></trkpt><trkpt lat="34.01505157536014" lon="7.900604694617104"><ele>-19.0</ele><time>2026-04-07T16:41:43.001Z</time></trkpt><trkpt lat="34.01504816732048" lon="7.900500445453684"><ele>-19.0</ele><time>2026-04-07T16:41:44.001Z</time></trkpt><trkpt lat="34.01504847265142" lon="7.900394082650033"><ele>-19.0</ele><time>2026-04-07T16:41:45.001Z</time></trkpt><trkpt lat="34.01504189850456" lon="7.900288909039814"><ele>-19.0</ele><time>2026-04-07T16:41:46.001Z</time></trkpt><trkpt lat="34.01503187558045" lon="7.90018501270384"><ele>-19.0</ele><time>2026-04-07T16:41:47.001Z</time></trkpt><trkpt lat="34.01502625455849" lon="7.900082552469835"><ele>-19.0</ele><time>2026-04-07T16:41:48.001Z</time></trkpt><trkpt lat="34.01501513892941" lon="7.899982006307458"><ele>-19.0</ele><time>2026-04-07T16:41:49.001Z</time></trkpt><trkpt lat="34.01500077694824" lon="7.899884213645015"><ele>-19.0</ele><time>2026-04-07T16:41:50.001Z</time></trkpt><trkpt lat="34.01499976740472" lon="7.899778855831305"><ele>-19.0</ele><time>2026-04-07T16:41:51.001Z</time></trkpt><trkpt lat="34.0149907467777" lon="7.899671957540761"><ele>-19.0</ele><time>2026-04-07T16:41:52.001Z</time></trkpt><trkpt lat="34.01497492454214" lon="7.899567375035591"><ele>-19.0</ele><time>2026-04-07T16:41:53.001Z</time></trkpt><trkpt lat="34.014965241957285" lon="7.89946002489673"><ele>-19.0</ele><time>2026-04-07T16:41:54.001Z</time></trkpt><trkpt lat="34.01495428923197" lon="7.8993530115778"><ele>-19.0</ele><time>2026-04-07T16:41:55.001Z</time></trkpt><trkpt lat="34.01495689527316" lon="7.899242336001632"><ele>-19.0</ele><time>2026-04-07T16:41:56.001Z</time></trkpt><trkpt lat="34.01495242300131" lon="7.899131914617157"><ele>-19.0</ele><time>2026-04-07T16:41:57.001Z</time></trkpt><trkpt lat="34.01492366453156" lon="7.899023793063997"><ele>-18.0</ele><time>2026-04-07T16:41:58.001Z</time></trkpt><trkpt lat="34.01490132597049" lon="7.898948077401395"><ele>-17.0</ele><time>2026-04-07T16:41:59.001Z</time></trkpt><trkpt lat="34.01490593077534" lon="7.898828600843126"><ele>-15.999999999999998</ele><time>2026-04-07T16:42:00.001Z</time></trkpt><trkpt lat="34.014868958142216" lon="7.898694624542889"><ele>-15.0</ele><time>2026-04-07T16:42:01.001Z</time></trkpt><trkpt lat="34.014889793105084" lon="7.898558565870574"><ele>-14.0</ele><time>2026-04-07T16:42:02.001Z</time></trkpt><trkpt lat="34.01488349830536" lon="7.898441707303575"><ele>-14.2</ele><time>2026-04-07T16:42:03.001Z</time></trkpt><trkpt lat="34.01487262600174" lon="7.898323007010271"><ele>-14.399999999999999</ele><time>2026-04-07T16:42:04.001Z</time></trkpt><trkpt lat="34.014864449430526" lon="7.898207383301079"><ele>-14.6</ele><time>2026-04-07T16:42:05.001Z</time></trkpt><trkpt lat="34.01484687416539" lon="7.898089160073524"><ele>-14.8</ele><time>2026-04-07T16:42:06.001Z</time></trkpt><trkpt lat="34.01483288872454" lon="7.897971974120187"><ele>-15.0</ele><time>2026-04-07T16:42:07.001Z</time></trkpt><trkpt lat="34.01482969190725" lon="7.897854914055974"><ele>-15.0</ele><time>2026-04-07T16:42:08.001Z</time></trkpt><trkpt lat="34.014822310140914" lon="7.8977385171867684"><ele>-15.0</ele><time>2026-04-07T16:42:09.001Z</time></trkpt><trkpt lat="34.01480720156844" lon="7.897618853085277"><ele>-15.0</ele><time>2026-04-07T16:42:10.001Z</time></trkpt><trkpt lat="34.014781276824316" lon="7.8975039224957015"><ele>-15.0</ele><time>2026-04-07T16:42:11.001Z</time></trkpt><trkpt lat="34.01476885199053" lon="7.897386298484311"><ele>-15.0</ele><time>2026-04-07T16:42:12.001Z</time></trkpt><trkpt lat="34.01473973624311" lon="7.897274636904574"><ele>-14.2</ele><time>2026-04-07T16:42:13.001Z</time></trkpt><trkpt lat="34.01471013862893" lon="7.897164085313594"><ele>-13.4</ele><time>2026-04-07T16:42:14.001Z</time></trkpt><trkpt lat="34.01469201964536" lon="7.8970544761981785"><ele>-12.600000000000001</ele><time>2026-04-07T16:42:15.001Z</time></trkpt><trkpt lat="34.01466632509718" lon="7.896943095251115"><ele>-11.8</ele><time>2026-04-07T16:42:16.001Z</time></trkpt><trkpt lat="34.014627730884605" lon="7.896829607418947"><ele>-11.0</ele><time>2026-04-07T16:42:17.001Z</time></trkpt><trkpt lat="34.014602377849215" lon="7.896722572218664"><ele>-10.8</ele><time>2026-04-07T16:42:18.001Z</time></trkpt><trkpt lat="34.0145806420239" lon="7.896620290888521"><ele>-10.600000000000001</ele><time>2026-04-07T16:42:19.001Z</time></trkpt><trkpt lat="34.01456743430961" lon="7.8965125485741545"><ele>-10.4</ele><time>2026-04-07T16:42:20.001Z</time></trkpt><trkpt lat="34.014547440856134" lon="7.896404263011038"><ele>-10.2</ele><time>2026-04-07T16:42:21.001Z</time></trkpt><trkpt lat="34.014527822605274" lon="7.896295890482883"><ele>-10.0</ele><time>2026-04-07T16:42:22.001Z</time></trkpt><trkpt lat="34.01450586750674" lon="7.896188872800441"><ele>-10.0</ele><time>2026-04-07T16:42:23.001Z</time></trkpt><trkpt lat="34.01448288252533" lon="7.896087292881974"><ele>-10.0</ele><time>2026-04-07T16:42:24.001Z</time></trkpt><trkpt lat="34.01447645998937" lon="7.895984458279411"><ele>-10.0</ele><time>2026-04-07T16:42:25.001Z</time></trkpt><trkpt lat="34.01448586440989" lon="7.895885591992609"><ele>-10.0</ele><time>2026-04-07T16:42:26.001Z</time></trkpt><trkpt lat="34.01447281490377" lon="7.89580185401594"><ele>-10.0</ele><time>2026-04-07T16:42:27.001Z</time></trkpt><trkpt lat="34.01446917895064" lon="7.895721006543196"><ele>-10.0</ele><time>2026-04-07T16:42:28.001Z</time></trkpt><trkpt lat="34.01443237984848" lon="7.895633089411756"><ele>-9.8</ele><time>2026-04-07T16:42:29.001Z</time></trkpt><trkpt lat="34.01438420356595" lon="7.895544022065686"><ele>-9.6</ele><time>2026-04-07T16:42:30.001Z</time></trkpt><trkpt lat="34.014348246088346" lon="7.895454719377697"><ele>-9.4</ele><time>2026-04-07T16:42:31.001Z</time></trkpt><trkpt lat="34.014312543774054" lon="7.895342373993443"><ele>-9.2</ele><time>2026-04-07T16:42:32.001Z</time></trkpt><trkpt lat="34.014301722043" lon="7.895234885251566"><ele>-9.0</ele><time>2026-04-07T16:42:33.001Z</time></trkpt><trkpt lat="34.014334461327465" lon="7.8951284995618956"><ele>-9.333333333333334</ele><time>2026-04-07T16:42:34.001Z</time></trkpt><trkpt lat="34.01434121840008" lon="7.895026221186877"><ele>-9.666666666666666</ele><time>2026-04-07T16:42:35.001Z</time></trkpt><trkpt lat="34.01434627516326" lon="7.8949251355219685"><ele>-10.0</ele><time>2026-04-07T16:42:36.001Z</time></trkpt><trkpt lat="34.014333437999085" lon="7.894848079929465"><ele>-10.333333333333332</ele><time>2026-04-07T16:42:37.001Z</time></trkpt><trkpt lat="34.014324684745695" lon="7.894772693643976"><ele>-10.666666666666666</ele><time>2026-04-07T16:42:38.001Z</time></trkpt><trkpt lat="34.01431922955555" lon="7.894660293906642"><ele>-11.0</ele><time>2026-04-07T16:42:40.001Z</time></trkpt><trkpt lat="34.01425951487358" lon="7.894531440256495"><ele>-11.0</ele><time>2026-04-07T16:42:42.001Z</time></trkpt><trkpt lat="34.01423079361455" lon="7.8944450751729525"><ele>-11.0</ele><time>2026-04-07T16:42:43.001Z</time></trkpt><trkpt lat="34.014189205229044" lon="7.894357664244906"><ele>-11.0</ele><time>2026-04-07T16:42:44.001Z</time></trkpt><trkpt lat="34.014099226334324" lon="7.894249949814641"><ele>-11.0</ele><time>2026-04-07T16:42:45.001Z</time></trkpt><trkpt lat="34.013958405600526" lon="7.894139014090993"><ele>-11.8</ele><time>2026-04-07T16:42:46.001Z</time></trkpt><trkpt lat="34.013869362658724" lon="7.894048542338995"><ele>-12.600000000000001</ele><time>2026-04-07T16:42:47.001Z</time></trkpt><trkpt lat="34.013813689705785" lon="7.89398774607842"><ele>-13.4</ele><time>2026-04-07T16:42:48.001Z</time></trkpt><trkpt lat="34.013802134080855" lon="7.893855338935123"><ele>-14.2</ele><time>2026-04-07T16:42:49.001Z</time></trkpt><trkpt lat="34.013852526603166" lon="7.893701825762904"><ele>-15.0</ele><time>2026-04-07T16:42:50.001Z</time></trkpt><trkpt lat="34.013862757065894" lon="7.893579044162582"><ele>-15.0</ele><time>2026-04-07T16:42:51.001Z</time></trkpt><trkpt lat="34.013882746777504" lon="7.893427755372771"><ele>-15.0</ele><time>2026-04-07T16:42:52.001Z</time></trkpt><trkpt lat="34.01389358914179" lon="7.893309052155217"><ele>-15.0</ele><time>2026-04-07T16:42:53.001Z</time></trkpt><trkpt lat="34.01387198210228" lon="7.89322507767456"><ele>-15.0</ele><time>2026-04-07T16:42:54.001Z</time></trkpt><trkpt lat="34.01384850068668" lon="7.893132356016282"><ele>-15.0</ele><time>2026-04-07T16:42:56.001Z</time></trkpt><trkpt lat="34.01386746768682" lon="7.892973903937549"><ele>-15.0</ele><time>2026-04-07T16:42:57.001Z</time></trkpt><trkpt lat="34.013813941015734" lon="7.8929085631414795"><ele>-15.0</ele><time>2026-04-07T16:42:58.001Z</time></trkpt><trkpt lat="34.01383680240065" lon="7.892782530116072"><ele>-15.0</ele><time>2026-04-07T16:43:00.001Z</time></trkpt><trkpt lat="34.01382157174522" lon="7.892665391513177"><ele>-15.0</ele><time>2026-04-07T16:43:02.001Z</time></trkpt><trkpt lat="34.01376213825551" lon="7.892574933932858"><ele>-15.0</ele><time>2026-04-07T16:43:03.001Z</time></trkpt><trkpt lat="34.0136970064503" lon="7.892529496419902"><ele>-15.4</ele><time>2026-04-07T16:43:04.001Z</time></trkpt><trkpt lat="34.01365531391612" lon="7.892426568714737"><ele>-15.8</ele><time>2026-04-07T16:43:06.001Z</time></trkpt><trkpt lat="34.01348853706811" lon="7.892464253005309"><ele>-16.2</ele><time>2026-04-07T16:43:07.001Z</time></trkpt><trkpt lat="34.01342762811787" lon="7.892437663032618"><ele>-16.6</ele><time>2026-04-07T16:43:08.001Z</time></trkpt><trkpt lat="34.01332717086317" lon="7.892432726025275"><ele>-17.0</ele><time>2026-04-07T16:43:09.001Z</time></trkpt><trkpt lat="34.013193322732185" lon="7.8924411310005045"><ele>-17.5</ele><time>2026-04-07T16:43:11.001Z</time></trkpt><trkpt lat="34.01308672967014" lon="7.892526129151353"><ele>-18.0</ele><time>2026-04-07T16:43:13.001Z</time></trkpt><trkpt lat="34.01300606126818" lon="7.892545808975095"><ele>-18.5</ele><time>2026-04-07T16:43:14.001Z</time></trkpt><trkpt lat="34.012907971326705" lon="7.8925339444625235"><ele>-19.0</ele><time>2026-04-07T16:43:16.001Z</time></trkpt><trkpt lat="34.012786181226204" lon="7.892427365154249"><ele>-19.0</ele><time>2026-04-07T16:43:18.001Z</time></trkpt><trkpt lat="34.01281050361223" lon="7.892351711159878"><ele>-19.0</ele><time>2026-04-07T16:43:19.001Z</time></trkpt><trkpt lat="34.012860340416864" lon="7.892268719077282"><ele>-19.0</ele><time>2026-04-07T16:43:22.001Z</time></trkpt><trkpt lat="34.012938491761915" lon="7.892206540960976"><ele>-19.0</ele><time>2026-04-07T16:43:23.001Z</time></trkpt><trkpt lat="34.01295944163346" lon="7.892107163634626"><ele>-19.0</ele><time>2026-04-07T16:43:25.001Z</time></trkpt><trkpt lat="34.01295895942018" lon="7.89200635841488"><ele>-19.0</ele><time>2026-04-07T16:43:27.001Z</time></trkpt><trkpt lat="34.012904750056194" lon="7.89187345869231"><ele>-19.0</ele><time>2026-04-07T16:43:29.001Z</time></trkpt><trkpt lat="34.01296064618279" lon="7.891762458608421"><ele>-19.0</ele><time>2026-04-07T16:43:30.001Z</time></trkpt><trkpt lat="34.013024991105624" lon="7.8916615857153065"><ele>-19.0</ele><time>2026-04-07T16:43:31.001Z</time></trkpt><trkpt lat="34.01306618774352" lon="7.891547023935507"><ele>-19.0</ele><time>2026-04-07T16:43:32.001Z</time></trkpt><trkpt lat="34.01309708478486" lon="7.891460902992463"><ele>-19.0</ele><time>2026-04-07T16:43:33.001Z</time></trkpt><trkpt lat="34.01313071344311" lon="7.89135863724789"><ele>-19.333333333333332</ele><time>2026-04-07T16:43:34.001Z</time></trkpt><trkpt lat="34.01317527883946" lon="7.891249137662131"><ele>-19.666666666666664</ele><time>2026-04-07T16:43:35.001Z</time></trkpt><trkpt lat="34.01316799163439" lon="7.89116078856176"><ele>-20.0</ele><time>2026-04-07T16:43:36.001Z</time></trkpt><trkpt lat="34.01315207623221" lon="7.891070324393537"><ele>-20.333333333333332</ele><time>2026-04-07T16:43:37.001Z</time></trkpt><trkpt lat="34.01312642102309" lon="7.890985924529362"><ele>-20.666666666666668</ele><time>2026-04-07T16:43:38.001Z</time></trkpt><trkpt lat="34.01310531361118" lon="7.8908946131613815"><ele>-21.0</ele><time>2026-04-07T16:43:39.001Z</time></trkpt><trkpt lat="34.013080358818605" lon="7.890800335868371"><ele>-21.0</ele><time>2026-04-07T16:43:40.001Z</time></trkpt><trkpt lat="34.01304990244709" lon="7.890709608141525"><ele>-21.0</ele><time>2026-04-07T16:43:41.001Z</time></trkpt><trkpt lat="34.0130004679746" lon="7.890620938510134"><ele>-21.0</ele><time>2026-04-07T16:43:42.001Z</time></trkpt><trkpt lat="34.012958875231426" lon="7.890524695387965"><ele>-21.0</ele><time>2026-04-07T16:43:43.001Z</time></trkpt><trkpt lat="34.01291931497786" lon="7.89042432600809"><ele>-21.0</ele><time>2026-04-07T16:43:44.001Z</time></trkpt><trkpt lat="34.01288308244985" lon="7.890321823267002"><ele>-21.0</ele><time>2026-04-07T16:43:45.001Z</time></trkpt><trkpt lat="34.0128507088657" lon="7.890219549628648"><ele>-21.0</ele><time>2026-04-07T16:43:46.001Z</time></trkpt><trkpt lat="34.012793270791654" lon="7.890121285268157"><ele>-21.0</ele><time>2026-04-07T16:43:47.001Z</time></trkpt><trkpt lat="34.01275884245291" lon="7.890021235000285"><ele>-21.0</ele><time>2026-04-07T16:43:48.001Z</time></trkpt><trkpt lat="34.012728524052534" lon="7.889917571252791"><ele>-21.0</ele><time>2026-04-07T16:43:49.001Z</time></trkpt><trkpt lat="34.0126850172418" lon="7.8898216428680366"><ele>-21.0</ele><time>2026-04-07T16:43:50.001Z</time></trkpt><trkpt lat="34.01264789497261" lon="7.889727735660486"><ele>-21.0</ele><time>2026-04-07T16:43:51.001Z</time></trkpt><trkpt lat="34.01261027999171" lon="7.8896353286407725"><ele>-21.0</ele><time>2026-04-07T16:43:52.001Z</time></trkpt><trkpt lat="34.01258787830764" lon="7.889517544216363"><ele>-21.0</ele><time>2026-04-07T16:43:53.001Z</time></trkpt><trkpt lat="34.012547688992186" lon="7.8894188287162255"><ele>-21.0</ele><time>2026-04-07T16:43:54.001Z</time></trkpt><trkpt lat="34.01250433810127" lon="7.889320455863872"><ele>-21.0</ele><time>2026-04-07T16:43:55.001Z</time></trkpt><trkpt lat="34.012455794703484" lon="7.889223771871318"><ele>-20.6</ele><time>2026-04-07T16:43:56.001Z</time></trkpt><trkpt lat="34.0124053216174" lon="7.889123256248154"><ele>-20.200000000000003</ele><time>2026-04-07T16:43:57Z</time></trkpt><trkpt lat="34.012353020469604" lon="7.889022522225331"><ele>-19.799999999999997</ele><time>2026-04-07T16:43:58Z</time></trkpt><trkpt lat="34.01229862825637" lon="7.888927111658944"><ele>-19.4</ele><time>2026-04-07T16:43:59Z</time></trkpt><trkpt lat="34.012253166122676" lon="7.888833603293593"><ele>-19.0</ele><time>2026-04-07T16:44:00Z</time></trkpt><trkpt lat="34.012215397284834" lon="7.888742699642859"><ele>-19.0</ele><time>2026-04-07T16:44:01Z</time></trkpt><trkpt lat="34.01216286867467" lon="7.8886449495934095"><ele>-19.0</ele><time>2026-04-07T16:44:02Z</time></trkpt><trkpt lat="34.01210961256754" lon="7.888538975357574"><ele>-19.0</ele><time>2026-04-07T16:44:03Z</time></trkpt><trkpt lat="34.012065489986384" lon="7.888433409431707"><ele>-19.0</ele><time>2026-04-07T16:44:04Z</time></trkpt><trkpt lat="34.012020714881885" lon="7.888327113627267"><ele>-19.0</ele><time>2026-04-07T16:44:05Z</time></trkpt><trkpt lat="34.01197249507676" lon="7.888221622120195"><ele>-19.0</ele><time>2026-04-07T16:44:06Z</time></trkpt><trkpt lat="34.01192050461793" lon="7.888113233346468"><ele>-19.0</ele><time>2026-04-07T16:44:07Z</time></trkpt><trkpt lat="34.0118826270941" lon="7.888002610660131"><ele>-19.0</ele><time>2026-04-07T16:44:08Z</time></trkpt><trkpt lat="34.01184355432095" lon="7.887888839723779"><ele>-19.0</ele><time>2026-04-07T16:44:09Z</time></trkpt><trkpt lat="34.011807631899075" lon="7.887787221709465"><ele>-19.0</ele><time>2026-04-07T16:44:10Z</time></trkpt><trkpt lat="34.01177538063159" lon="7.887674857934626"><ele>-19.0</ele><time>2026-04-07T16:44:11Z</time></trkpt><trkpt lat="34.01178739888122" lon="7.887555808447756"><ele>-19.0</ele><time>2026-04-07T16:44:12Z</time></trkpt><trkpt lat="34.01177624647885" lon="7.887439135205519"><ele>-19.0</ele><time>2026-04-07T16:44:13Z</time></trkpt><trkpt lat="34.01176512908415" lon="7.887303810476537"><ele>-19.0</ele><time>2026-04-07T16:44:14Z</time></trkpt><trkpt lat="34.01176949095303" lon="7.887164719247372"><ele>-19.0</ele><time>2026-04-07T16:44:15Z</time></trkpt><trkpt lat="34.01175614802804" lon="7.8870473662949365"><ele>-19.0</ele><time>2026-04-07T16:44:16Z</time></trkpt><trkpt lat="34.011714045722876" lon="7.8869418236677635"><ele>-19.0</ele><time>2026-04-07T16:44:17Z</time></trkpt><trkpt lat="34.011635755969216" lon="7.886827387239575"><ele>-19.0</ele><time>2026-04-07T16:44:18Z</time></trkpt><trkpt lat="34.011537551930424" lon="7.886736035125624"><ele>-19.0</ele><time>2026-04-07T16:44:19Z</time></trkpt><trkpt lat="34.01147662024694" lon="7.886613436096659"><ele>-19.0</ele><time>2026-04-07T16:44:20Z</time></trkpt><trkpt lat="34.01142161911321" lon="7.886503349263698"><ele>-19.0</ele><time>2026-04-07T16:44:21Z</time></trkpt><trkpt lat="34.011409203790954" lon="7.886406005457667"><ele>-19.0</ele><time>2026-04-07T16:44:22Z</time></trkpt><trkpt lat="34.011377063689615" lon="7.8863133425581085"><ele>-19.0</ele><time>2026-04-07T16:44:23Z</time></trkpt><trkpt lat="34.01134112318779" lon="7.886214533707185"><ele>-19.0</ele><time>2026-04-07T16:44:24Z</time></trkpt><trkpt lat="34.01129378892826" lon="7.886116822336769"><ele>-19.0</ele><time>2026-04-07T16:44:25Z</time></trkpt><trkpt lat="34.011213362462065" lon="7.886049852062538"><ele>-19.0</ele><time>2026-04-07T16:44:26Z</time></trkpt><trkpt lat="34.01113048541824" lon="7.885902838119197"><ele>-19.0</ele><time>2026-04-07T16:44:28Z</time></trkpt><trkpt lat="34.0111070328908" lon="7.885796596301203"><ele>-19.0</ele><time>2026-04-07T16:44:29Z</time></trkpt><trkpt lat="34.01106886838212" lon="7.885696356516801"><ele>-19.0</ele><time>2026-04-07T16:44:30Z</time></trkpt><trkpt lat="34.011030263536746" lon="7.885597228861836"><ele>-19.0</ele><time>2026-04-07T16:44:31Z</time></trkpt><trkpt lat="34.01099278996993" lon="7.885499024492409"><ele>-19.0</ele><time>2026-04-07T16:44:32Z</time></trkpt><trkpt lat="34.01095738594826" lon="7.885401566382109"><ele>-19.0</ele><time>2026-04-07T16:44:33Z</time></trkpt><trkpt lat="34.01092451635072" lon="7.885303052701622"><ele>-19.0</ele><time>2026-04-07T16:44:34Z</time></trkpt><trkpt lat="34.01089630894831" lon="7.885202574970043"><ele>-19.0</ele><time>2026-04-07T16:44:35Z</time></trkpt><trkpt lat="34.01086674369923" lon="7.885106885239002"><ele>-19.0</ele><time>2026-04-07T16:44:36Z</time></trkpt><trkpt lat="34.01083788040537" lon="7.885013378875196"><ele>-18.5</ele><time>2026-04-07T16:44:37Z</time></trkpt><trkpt lat="34.010810182934364" lon="7.884919547554328"><ele>-18.0</ele><time>2026-04-07T16:44:38Z</time></trkpt><trkpt lat="34.010779706587044" lon="7.884833746258989"><ele>-17.5</ele><time>2026-04-07T16:44:39Z</time></trkpt><trkpt lat="34.01074628803766" lon="7.884757085299392"><ele>-17.0</ele><time>2026-04-07T16:44:40Z</time></trkpt><trkpt lat="34.01071250906225" lon="7.884676428133361"><ele>-16.5</ele><time>2026-04-07T16:44:41Z</time></trkpt><trkpt lat="34.01067584325117" lon="7.884598851713334"><ele>-16.0</ele><time>2026-04-07T16:44:42Z</time></trkpt><trkpt lat="34.0106306187686" lon="7.884520460884438"><ele>-15.999999999999998</ele><time>2026-04-07T16:44:43Z</time></trkpt><trkpt lat="34.01058866915602" lon="7.884443340308413"><ele>-16.0</ele><time>2026-04-07T16:44:44Z</time></trkpt><trkpt lat="34.0105480053188" lon="7.88436812843814"><ele>-16.0</ele><time>2026-04-07T16:44:45Z</time></trkpt><trkpt lat="34.01049790714581" lon="7.884296951540871"><ele>-16.0</ele><time>2026-04-07T16:44:46Z</time></trkpt><trkpt lat="34.01044704428592" lon="7.8842258874577045"><ele>-15.999999999999998</ele><time>2026-04-07T16:44:47Z</time></trkpt><trkpt lat="34.010399147911315" lon="7.884150849263075"><ele>-16.0</ele><time>2026-04-07T16:44:48Z</time></trkpt><trkpt lat="34.01035454656277" lon="7.884071912149627"><ele>-15.666666666666666</ele><time>2026-04-07T16:44:49Z</time></trkpt><trkpt lat="34.01031291601321" lon="7.883990638975286"><ele>-15.333333333333332</ele><time>2026-04-07T16:44:50Z</time></trkpt><trkpt lat="34.0102751295008" lon="7.883905542643922"><ele>-15.0</ele><time>2026-04-07T16:44:51Z</time></trkpt><trkpt lat="34.01023547089898" lon="7.883823880604258"><ele>-14.666666666666668</ele><time>2026-04-07T16:44:52Z</time></trkpt><trkpt lat="34.01019678534147" lon="7.883743481122282"><ele>-14.333333333333334</ele><time>2026-04-07T16:44:53Z</time></trkpt><trkpt lat="34.01015439592476" lon="7.883664405070179"><ele>-14.0</ele><time>2026-04-07T16:44:54Z</time></trkpt><trkpt lat="34.010113962372884" lon="7.8835844107988855"><ele>-14.000000000000002</ele><time>2026-04-07T16:44:55Z</time></trkpt><trkpt lat="34.01007355427203" lon="7.883503888686613"><ele>-14.0</ele><time>2026-04-07T16:44:56Z</time></trkpt><trkpt lat="34.01003626085203" lon="7.883419476497078"><ele>-14.0</ele><time>2026-04-07T16:44:57Z</time></trkpt><trkpt lat="34.00999952486777" lon="7.883332818941829"><ele>-14.0</ele><time>2026-04-07T16:44:58Z</time></trkpt><trkpt lat="34.00995930871053" lon="7.88324715535059"><ele>-14.000000000000002</ele><time>2026-04-07T16:44:59Z</time></trkpt><trkpt lat="34.00991979965883" lon="7.883164848364138"><ele>-14.0</ele><time>2026-04-07T16:45:00Z</time></trkpt><trkpt lat="34.00987497560908" lon="7.883088048563477"><ele>-14.333333333333334</ele><time>2026-04-07T16:45:01Z</time></trkpt><trkpt lat="34.009829655890066" lon="7.8830097842174425"><ele>-14.666666666666668</ele><time>2026-04-07T16:45:02Z</time></trkpt><trkpt lat="34.00978448531732" lon="7.882930186049711"><ele>-15.0</ele><time>2026-04-07T16:45:03Z</time></trkpt><trkpt lat="34.00973671401633" lon="7.882852208991274"><ele>-15.333333333333332</ele><time>2026-04-07T16:45:04Z</time></trkpt><trkpt lat="34.00969226832245" lon="7.882771165580614"><ele>-15.666666666666666</ele><time>2026-04-07T16:45:05Z</time></trkpt><trkpt lat="34.00964514231939" lon="7.882689798336696"><ele>-16.0</ele><time>2026-04-07T16:45:06Z</time></trkpt><trkpt lat="34.00959437836919" lon="7.8826132206636395"><ele>-15.999999999999998</ele><time>2026-04-07T16:45:07Z</time></trkpt><trkpt lat="34.00954090263307" lon="7.882537737565573"><ele>-16.0</ele><time>2026-04-07T16:45:08Z</time></trkpt><trkpt lat="34.009485057094544" lon="7.8824677911170475"><ele>-16.0</ele><time>2026-04-07T16:45:09Z</time></trkpt><trkpt lat="34.00942299737083" lon="7.8824040006499985"><ele>-16.0</ele><time>2026-04-07T16:45:10Z</time></trkpt><trkpt lat="34.009359992701434" lon="7.8823506724922785"><ele>-15.999999999999998</ele><time>2026-04-07T16:45:11Z</time></trkpt><trkpt lat="34.009293760951785" lon="7.882305930620933"><ele>-16.0</ele><time>2026-04-07T16:45:12Z</time></trkpt><trkpt lat="34.009222352258405" lon="7.88226708825605"><ele>-15.333333333333332</ele><time>2026-04-07T16:45:13Z</time></trkpt><trkpt lat="34.009150572983295" lon="7.882228815951028"><ele>-14.666666666666666</ele><time>2026-04-07T16:45:14Z</time></trkpt><trkpt lat="34.00907876515268" lon="7.882190417050562"><ele>-14.0</ele><time>2026-04-07T16:45:15Z</time></trkpt><trkpt lat="34.00901018146631" lon="7.882151957586801"><ele>-13.333333333333332</ele><time>2026-04-07T16:45:16Z</time></trkpt><trkpt lat="34.00894126096105" lon="7.882116312434895"><ele>-12.666666666666666</ele><time>2026-04-07T16:45:17Z</time></trkpt><trkpt lat="34.00887325818905" lon="7.882077645442054"><ele>-12.0</ele><time>2026-04-07T16:45:18Z</time></trkpt><trkpt lat="34.00880668952181" lon="7.882029789289092"><ele>-12.0</ele><time>2026-04-07T16:45:19Z</time></trkpt><trkpt lat="34.00874629290995" lon="7.881978641746653"><ele>-12.0</ele><time>2026-04-07T16:45:20Z</time></trkpt><trkpt lat="34.00868454464021" lon="7.881919209703836"><ele>-12.0</ele><time>2026-04-07T16:45:21Z</time></trkpt><trkpt lat="34.00862800927541" lon="7.881852937427408"><ele>-12.0</ele><time>2026-04-07T16:45:22Z</time></trkpt><trkpt lat="34.00857484023885" lon="7.881786683015324"><ele>-12.0</ele><time>2026-04-07T16:45:23Z</time></trkpt><trkpt lat="34.00852211375249" lon="7.881717565691792"><ele>-12.0</ele><time>2026-04-07T16:45:24Z</time></trkpt><trkpt lat="34.00846491855315" lon="7.881653205793729"><ele>-12.166666666666666</ele><time>2026-04-07T16:45:25Z</time></trkpt><trkpt lat="34.00840382649923" lon="7.8815848892048"><ele>-12.333333333333332</ele><time>2026-04-07T16:45:26Z</time></trkpt><trkpt lat="34.00834805938525" lon="7.88151571491245"><ele>-12.5</ele><time>2026-04-07T16:45:27Z</time></trkpt><trkpt lat="34.0082925195988" lon="7.881453348697256"><ele>-12.666666666666666</ele><time>2026-04-07T16:45:28Z</time></trkpt><trkpt lat="34.00824006391678" lon="7.881387899083131"><ele>-12.833333333333332</ele><time>2026-04-07T16:45:29Z</time></trkpt><trkpt lat="34.008192977254566" lon="7.881320107768826"><ele>-13.0</ele><time>2026-04-07T16:45:30Z</time></trkpt><trkpt lat="34.00814870901039" lon="7.8812449279145875"><ele>-12.833333333333332</ele><time>2026-04-07T16:45:31Z</time></trkpt><trkpt lat="34.00810731057686" lon="7.881161672076848"><ele>-12.666666666666666</ele><time>2026-04-07T16:45:32Z</time></trkpt><trkpt lat="34.00807392650388" lon="7.881071886738812"><ele>-12.5</ele><time>2026-04-07T16:45:33Z</time></trkpt><trkpt lat="34.00804761127576" lon="7.880975152469623"><ele>-12.333333333333332</ele><time>2026-04-07T16:45:34Z</time></trkpt><trkpt lat="34.008007028101304" lon="7.880880318816853"><ele>-12.166666666666666</ele><time>2026-04-07T16:45:35Z</time></trkpt><trkpt lat="34.00796506832658" lon="7.880787736180915"><ele>-12.0</ele><time>2026-04-07T16:45:36Z</time></trkpt><trkpt lat="34.007934773709785" lon="7.880703778255459"><ele>-12.0</ele><time>2026-04-07T16:45:37Z</time></trkpt><trkpt lat="34.00790094952713" lon="7.880616734072603"><ele>-12.0</ele><time>2026-04-07T16:45:38Z</time></trkpt><trkpt lat="34.007854922163524" lon="7.880547529346135"><ele>-12.0</ele><time>2026-04-07T16:45:39Z</time></trkpt><trkpt lat="34.00779555521373" lon="7.880479112313079"><ele>-12.0</ele><time>2026-04-07T16:45:40Z</time></trkpt><trkpt lat="34.00772923974628" lon="7.880400965370564"><ele>-12.0</ele><time>2026-04-07T16:45:41Z</time></trkpt><trkpt lat="34.0076758601393" lon="7.880341136530829"><ele>-12.0</ele><time>2026-04-07T16:45:42Z</time></trkpt><trkpt lat="34.00758189403703" lon="7.880224055321006"><ele>-12.0</ele><time>2026-04-07T16:45:44Z</time></trkpt><trkpt lat="34.00750782848019" lon="7.88017403318916"><ele>-12.0</ele><time>2026-04-07T16:45:45.075Z</time></trkpt><trkpt lat="34.00743844176789" lon="7.880135185544798"><ele>-12.0</ele><time>2026-04-07T16:45:46.044Z</time></trkpt><trkpt lat="34.00736215716631" lon="7.8800853737406324"><ele>-12.0</ele><time>2026-04-07T16:45:47.039Z</time></trkpt><trkpt lat="34.007267396370736" lon="7.880027419551611"><ele>-12.0</ele><time>2026-04-07T16:45:48.039Z</time></trkpt><trkpt lat="34.00714887742957" lon="7.880002539064013"><ele>-11.5</ele><time>2026-04-07T16:45:49.038Z</time></trkpt><trkpt lat="34.00712292931638" lon="7.87991664880293"><ele>-11.0</ele><time>2026-04-07T16:45:50.035Z</time></trkpt><trkpt lat="34.00709482666424" lon="7.879822858079004"><ele>-10.5</ele><time>2026-04-07T16:45:51.032Z</time></trkpt><trkpt lat="34.007085729048065" lon="7.879718208320786"><ele>-10.0</ele><time>2026-04-07T16:45:52.033Z</time></trkpt><trkpt lat="34.007390575056064" lon="7.879457533683858"><ele>-10.0</ele><time>2026-04-07T16:45:53.033Z</time></trkpt><trkpt lat="34.00733727706316" lon="7.879372076435391"><ele>-10.0</ele><time>2026-04-07T16:45:54.031Z</time></trkpt><trkpt lat="34.007285355948355" lon="7.879284796733689"><ele>-10.0</ele><time>2026-04-07T16:45:55.03Z</time></trkpt><trkpt lat="34.007221391552505" lon="7.87920242748144"><ele>-10.0</ele><time>2026-04-07T16:45:56.028Z</time></trkpt><trkpt lat="34.00715395616662" lon="7.879119674690007"><ele>-10.0</ele><time>2026-04-07T16:45:57.03Z</time></trkpt><trkpt lat="34.00736827449758" lon="7.878886910833427"><ele>-8.0</ele><time>2026-04-07T16:45:58.03Z</time></trkpt><trkpt lat="34.00187137068064" lon="7.860240816180936"><ele>-7.999999999999999</ele><time>2026-04-07T16:49:05Z</time></trkpt><trkpt lat="34.00181623329377" lon="7.860144449783888"><ele>-8.0</ele><time>2026-04-07T16:49:07Z</time></trkpt><trkpt lat="34.00175798440521" lon="7.860061781721288"><ele>-8.0</ele><time>2026-04-07T16:49:08Z</time></trkpt><trkpt lat="34.00171512413498" lon="7.859986847668646"><ele>-8.0</ele><time>2026-04-07T16:49:09Z</time></trkpt><trkpt lat="34.00165535239443" lon="7.859925742442961"><ele>-7.999999999999999</ele><time>2026-04-07T16:49:10Z</time></trkpt><trkpt lat="34.00160186095404" lon="7.859850742004117"><ele>-8.0</ele><time>2026-04-07T16:49:11Z</time></trkpt><trkpt lat="34.001542926214185" lon="7.85976965807148"><ele>-7.833333333333333</ele><time>2026-04-07T16:49:12Z</time></trkpt><trkpt lat="34.001488306625184" lon="7.859682334821206"><ele>-7.666666666666666</ele><time>2026-04-07T16:49:13Z</time></trkpt><trkpt lat="34.001424861431595" lon="7.859595455456258"><ele>-7.5</ele><time>2026-04-07T16:49:14Z</time></trkpt><trkpt lat="34.00136421939267" lon="7.859517651260082"><ele>-7.333333333333334</ele><time>2026-04-07T16:49:15Z</time></trkpt><trkpt lat="34.0013020570901" lon="7.859456684450882"><ele>-7.166666666666667</ele><time>2026-04-07T16:49:16Z</time></trkpt><trkpt lat="34.001243383879206" lon="7.859420738958466"><ele>-7.0</ele><time>2026-04-07T16:49:17Z</time></trkpt><trkpt lat="34.00118549932927" lon="7.8593813281190155"><ele>-7.000000000000001</ele><time>2026-04-07T16:49:18Z</time></trkpt><trkpt lat="34.00107477482629" lon="7.859316784386117"><ele>-7.0</ele><time>2026-04-07T16:49:20Z</time></trkpt><trkpt lat="34.000977629598445" lon="7.859241830561739"><ele>-7.0</ele><time>2026-04-07T16:49:22Z</time></trkpt><trkpt lat="34.00092795961793" lon="7.859192903122873"><ele>-7.0</ele><time>2026-04-07T16:49:23Z</time></trkpt><trkpt lat="34.000873133555324" lon="7.859141606707597"><ele>-7.000000000000001</ele><time>2026-04-07T16:49:24Z</time></trkpt><trkpt lat="34.000817045273735" lon="7.859083498033509"><ele>-7.0</ele><time>2026-04-07T16:49:25Z</time></trkpt><trkpt lat="34.00076601317048" lon="7.85902407638951"><ele>-7.142857142857142</ele><time>2026-04-07T16:49:26Z</time></trkpt><trkpt lat="34.000716496332025" lon="7.858969736033289"><ele>-7.285714285714286</ele><time>2026-04-07T16:49:27Z</time></trkpt><trkpt lat="34.000662398751174" lon="7.858911779691044"><ele>-7.428571428571429</ele><time>2026-04-07T16:49:28Z</time></trkpt><trkpt lat="34.00060424180438" lon="7.8588466201584595"><ele>-7.571428571428571</ele><time>2026-04-07T16:49:29Z</time></trkpt><trkpt lat="34.000541051049275" lon="7.858795602395197"><ele>-7.7142857142857135</ele><time>2026-04-07T16:49:30Z</time></trkpt><trkpt lat="34.00048831988206" lon="7.858732797039379"><ele>-7.857142857142857</ele><time>2026-04-07T16:49:31Z</time></trkpt><trkpt lat="34.00044441417817" lon="7.858665978573382"><ele>-8.0</ele><time>2026-04-07T16:49:32Z</time></trkpt><trkpt lat="34.000401914592295" lon="7.8585971506799615"><ele>-7.999999999999999</ele><time>2026-04-07T16:49:33Z</time></trkpt><trkpt lat="34.00035798038478" lon="7.858525570055954"><ele>-8.0</ele><time>2026-04-07T16:49:34Z</time></trkpt><trkpt lat="34.00031632845345" lon="7.858451772811624"><ele>-8.0</ele><time>2026-04-07T16:49:35Z</time></trkpt><trkpt lat="34.000261388447576" lon="7.858380041888542"><ele>-8.0</ele><time>2026-04-07T16:49:36Z</time></trkpt><trkpt lat="34.000198410831985" lon="7.858319240513062"><ele>-7.999999999999999</ele><time>2026-04-07T16:49:37Z</time></trkpt><trkpt lat="34.00012948712579" lon="7.8582603084413405"><ele>-8.0</ele><time>2026-04-07T16:49:38Z</time></trkpt><trkpt lat="34.000052287992524" lon="7.8582101496084675"><ele>-7.833333333333333</ele><time>2026-04-07T16:49:39Z</time></trkpt><trkpt lat="33.99998021438139" lon="7.858151228154032"><ele>-7.666666666666666</ele><time>2026-04-07T16:49:40Z</time></trkpt><trkpt lat="33.999901269195426" lon="7.85808656011757"><ele>-7.5</ele><time>2026-04-07T16:49:41Z</time></trkpt><trkpt lat="33.99982744645021" lon="7.858017823726391"><ele>-7.333333333333334</ele><time>2026-04-07T16:49:42Z</time></trkpt><trkpt lat="33.99976198277882" lon="7.85796231159765"><ele>-7.166666666666667</ele><time>2026-04-07T16:49:43Z</time></trkpt><trkpt lat="33.99968970576706" lon="7.8578969411291535"><ele>-7.0</ele><time>2026-04-07T16:49:44Z</time></trkpt><trkpt lat="33.99962868444527" lon="7.8578278584450345"><ele>-7.000000000000001</ele><time>2026-04-07T16:49:45Z</time></trkpt><trkpt lat="33.999568911216734" lon="7.857760249995561"><ele>-7.0</ele><time>2026-04-07T16:49:46Z</time></trkpt><trkpt lat="33.99951505660667" lon="7.857688833740702"><ele>-7.0</ele><time>2026-04-07T16:49:47Z</time></trkpt><trkpt lat="33.999458597823114" lon="7.857619980542259"><ele>-7.0</ele><time>2026-04-07T16:49:48Z</time></trkpt><trkpt lat="33.999409361915376" lon="7.857555108489871"><ele>-7.000000000000001</ele><time>2026-04-07T16:49:49Z</time></trkpt><trkpt lat="33.99936625179998" lon="7.857492756666112"><ele>-7.0</ele><time>2026-04-07T16:49:50Z</time></trkpt><trkpt lat="33.999322629632715" lon="7.857427220869112"><ele>-7.000000000000001</ele><time>2026-04-07T16:49:51Z</time></trkpt><trkpt lat="33.999284647822094" lon="7.85736327459594"><ele>-7.0</ele><time>2026-04-07T16:49:52Z</time></trkpt><trkpt lat="33.99924210923516" lon="7.857295246577258"><ele>-7.0</ele><time>2026-04-07T16:49:53Z</time></trkpt><trkpt lat="33.99919540443822" lon="7.857225439143122"><ele>-7.0</ele><time>2026-04-07T16:49:54Z</time></trkpt><trkpt lat="33.99911376779513" lon="7.857118149813867"><ele>-7.000000000000001</ele><time>2026-04-07T16:49:56Z</time></trkpt><trkpt lat="33.999041915133034" lon="7.857008391761034"><ele>-7.0</ele><time>2026-04-07T16:49:58Z</time></trkpt><trkpt lat="33.99898187323555" lon="7.856899455947985"><ele>-7.0</ele><time>2026-04-07T16:50:00Z</time></trkpt><trkpt lat="33.99894609482468" lon="7.856794170723006"><ele>-6.999999999999999</ele><time>2026-04-07T16:50:02Z</time></trkpt><trkpt lat="33.998885022951356" lon="7.856714451835673"><ele>-6.999999999999999</ele><time>2026-04-07T16:50:04Z</time></trkpt><trkpt lat="33.99881361692113" lon="7.856629828669136"><ele>-7.0</ele><time>2026-04-07T16:50:06Z</time></trkpt><trkpt lat="33.99874788561652" lon="7.856520633563689"><ele>-7.0</ele><time>2026-04-07T16:50:09Z</time></trkpt><trkpt lat="33.99864725356829" lon="7.856421263688172"><ele>-7.000000000000001</ele><time>2026-04-07T16:50:11Z</time></trkpt><trkpt lat="33.99857434666428" lon="7.856354029290907"><ele>-7.0</ele><time>2026-04-07T16:50:12Z</time></trkpt><trkpt lat="33.998510216908905" lon="7.856304870109914"><ele>-7.0</ele><time>2026-04-07T16:50:13Z</time></trkpt><trkpt lat="33.99840129705973" lon="7.856225970580494"><ele>-7.0</ele><time>2026-04-07T16:50:15Z</time></trkpt><trkpt lat="33.99834446913203" lon="7.856187756013228"><ele>-7.000000000000001</ele><time>2026-04-07T16:50:16Z</time></trkpt><trkpt lat="33.99828052671402" lon="7.85614901048957"><ele>-7.0</ele><time>2026-04-07T16:50:17Z</time></trkpt><trkpt lat="33.99822147322449" lon="7.856102735560478"><ele>-7.500000000000001</ele><time>2026-04-07T16:50:18Z</time></trkpt><trkpt lat="33.99815556842811" lon="7.856050029120872"><ele>-8.0</ele><time>2026-04-07T16:50:19Z</time></trkpt><trkpt lat="33.99811360519769" lon="7.855990914730575"><ele>-8.5</ele><time>2026-04-07T16:50:20Z</time></trkpt><trkpt lat="33.99806378778681" lon="7.855918989083867"><ele>-9.0</ele><time>2026-04-07T16:50:21Z</time></trkpt><trkpt lat="33.99800988278153" lon="7.855847012940358"><ele>-9.5</ele><time>2026-04-07T16:50:22Z</time></trkpt><trkpt lat="33.99796348370014" lon="7.855779977173837"><ele>-10.0</ele><time>2026-04-07T16:50:23Z</time></trkpt><trkpt lat="33.99790806092525" lon="7.855716398189421"><ele>-10.0</ele><time>2026-04-07T16:50:24Z</time></trkpt><trkpt lat="33.997849744093834" lon="7.85564793345552"><ele>-10.0</ele><time>2026-04-07T16:50:25Z</time></trkpt><trkpt lat="33.997796150128885" lon="7.855577943249199"><ele>-10.0</ele><time>2026-04-07T16:50:26Z</time></trkpt><trkpt lat="33.99773921441167" lon="7.855500366811703"><ele>-10.0</ele><time>2026-04-07T16:50:27Z</time></trkpt><trkpt lat="33.99767812340709" lon="7.855413849434358"><ele>-10.0</ele><time>2026-04-07T16:50:28Z</time></trkpt><trkpt lat="33.9976049316501" lon="7.855327120207427"><ele>-10.0</ele><time>2026-04-07T16:50:29Z</time></trkpt><trkpt lat="33.99753510232699" lon="7.855247010365625"><ele>-9.0</ele><time>2026-04-07T16:50:30Z</time></trkpt><trkpt lat="33.997474281238" lon="7.855172543649294"><ele>-8.0</ele><time>2026-04-07T16:50:31Z</time></trkpt><trkpt lat="33.99741786413386" lon="7.855089082770914"><ele>-7.0</ele><time>2026-04-07T16:50:32Z</time></trkpt><trkpt lat="33.99735973602666" lon="7.855005382962776"><ele>-6.0</ele><time>2026-04-07T16:50:33Z</time></trkpt><trkpt lat="33.99729797828588" lon="7.854944180999401"><ele>-5.0</ele><time>2026-04-07T16:50:34Z</time></trkpt><trkpt lat="33.997238431942165" lon="7.854873520685864"><ele>-4.0</ele><time>2026-04-07T16:50:35Z</time></trkpt><trkpt lat="33.997184475609444" lon="7.854803188206551"><ele>-3.9999999999999996</ele><time>2026-04-07T16:50:36Z</time></trkpt><trkpt lat="33.99713472547905" lon="7.854731890589842"><ele>-4.0</ele><time>2026-04-07T16:50:37Z</time></trkpt><trkpt lat="33.99708153225458" lon="7.854661358642868"><ele>-4.0</ele><time>2026-04-07T16:50:38Z</time></trkpt><trkpt lat="33.99702262801872" lon="7.854590722785293"><ele>-4.0</ele><time>2026-04-07T16:50:39Z</time></trkpt><trkpt lat="33.99697379444424" lon="7.854522107243688"><ele>-3.9999999999999996</ele><time>2026-04-07T16:50:40Z</time></trkpt><trkpt lat="33.99693462213059" lon="7.854454318981579"><ele>-4.0</ele><time>2026-04-07T16:50:41Z</time></trkpt><trkpt lat="33.99687125533529" lon="7.85432935805103"><ele>-3.9999999999999996</ele><time>2026-04-07T16:50:43Z</time></trkpt><trkpt lat="33.9968296899409" lon="7.854260377532595"><ele>-4.0</ele><time>2026-04-07T16:50:44Z</time></trkpt><trkpt lat="33.9967872370468" lon="7.854188984379029"><ele>-4.0</ele><time>2026-04-07T16:50:45Z</time></trkpt><trkpt lat="33.99674732531115" lon="7.854102335345975"><ele>-4.0</ele><time>2026-04-07T16:50:46Z</time></trkpt><trkpt lat="33.996704654948545" lon="7.854016153865183"><ele>-3.9999999999999996</ele><time>2026-04-07T16:50:47Z</time></trkpt><trkpt lat="33.99666386379392" lon="7.853937725951036"><ele>-4.0</ele><time>2026-04-07T16:50:48Z</time></trkpt><trkpt lat="33.996615805613494" lon="7.853861185522042"><ele>-3.9999999999999996</ele><time>2026-04-07T16:50:49Z</time></trkpt><trkpt lat="33.996574722577186" lon="7.853782773213649"><ele>-4.0</ele><time>2026-04-07T16:50:50Z</time></trkpt><trkpt lat="33.99653056581406" lon="7.853706114596705"><ele>-4.0</ele><time>2026-04-07T16:50:51Z</time></trkpt><trkpt lat="33.99647536462393" lon="7.853627218197905"><ele>-4.0</ele><time>2026-04-07T16:50:52Z</time></trkpt><trkpt lat="33.996428316856395" lon="7.853554102554718"><ele>-3.9999999999999996</ele><time>2026-04-07T16:50:53Z</time></trkpt><trkpt lat="33.99637598584339" lon="7.853475631318127"><ele>-4.0</ele><time>2026-04-07T16:50:54Z</time></trkpt><trkpt lat="33.99631595911804" lon="7.853395511538986"><ele>-4.5</ele><time>2026-04-07T16:50:55Z</time></trkpt><trkpt lat="33.996266243216425" lon="7.853318317365081"><ele>-5.0</ele><time>2026-04-07T16:50:56Z</time></trkpt><trkpt lat="33.99622207786195" lon="7.853231657903248"><ele>-5.5</ele><time>2026-04-07T16:50:57Z</time></trkpt><trkpt lat="33.996181206678806" lon="7.8531451272021"><ele>-6.0</ele><time>2026-04-07T16:50:58Z</time></trkpt><trkpt lat="33.99614073510556" lon="7.853064772030187"><ele>-6.500000000000001</ele><time>2026-04-07T16:50:59Z</time></trkpt><trkpt lat="33.99610300749207" lon="7.852982190366661"><ele>-7.0</ele><time>2026-04-07T16:51:00Z</time></trkpt><trkpt lat="33.99606469308151" lon="7.852894983461533"><ele>-7.000000000000001</ele><time>2026-04-07T16:51:01Z</time></trkpt><trkpt lat="33.99602176897347" lon="7.852809850822172"><ele>-7.0</ele><time>2026-04-07T16:51:02Z</time></trkpt><trkpt lat="33.99597411758623" lon="7.8527182995751925"><ele>-7.0</ele><time>2026-04-07T16:51:03Z</time></trkpt><trkpt lat="33.99593463370051" lon="7.852631950181624"><ele>-7.0</ele><time>2026-04-07T16:51:04Z</time></trkpt><trkpt lat="33.99590314658434" lon="7.852547359998091"><ele>-7.000000000000001</ele><time>2026-04-07T16:51:05Z</time></trkpt><trkpt lat="33.99586778589666" lon="7.852448089613414"><ele>-7.0</ele><time>2026-04-07T16:51:06Z</time></trkpt><trkpt lat="33.9958305936432" lon="7.852359183809478"><ele>-6.500000000000001</ele><time>2026-04-07T16:51:07Z</time></trkpt><trkpt lat="33.995794202855066" lon="7.852273998330473"><ele>-6.0</ele><time>2026-04-07T16:51:07.999Z</time></trkpt><trkpt lat="33.99575901275232" lon="7.852189844616118"><ele>-5.5</ele><time>2026-04-07T16:51:08.999Z</time></trkpt><trkpt lat="33.99572898571099" lon="7.852100948626489"><ele>-5.0</ele><time>2026-04-07T16:51:09.999Z</time></trkpt><trkpt lat="33.995699343053836" lon="7.852004596660003"><ele>-4.5</ele><time>2026-04-07T16:51:10.999Z</time></trkpt><trkpt lat="33.995668301895094" lon="7.851901451581538"><ele>-4.0</ele><time>2026-04-07T16:51:11.999Z</time></trkpt><trkpt lat="33.99564628211901" lon="7.8518036257964035"><ele>-3.1666666666666665</ele><time>2026-04-07T16:51:12.999Z</time></trkpt><trkpt lat="33.99561990637996" lon="7.851702037130819"><ele>-2.333333333333333</ele><time>2026-04-07T16:51:13.999Z</time></trkpt><trkpt lat="33.99560103043315" lon="7.851599711039086"><ele>-1.5</ele><time>2026-04-07T16:51:14.999Z</time></trkpt><trkpt lat="33.99558525007944" lon="7.851499933447386"><ele>-0.6666666666666666</ele><time>2026-04-07T16:51:15.999Z</time></trkpt><trkpt lat="33.995565826208384" lon="7.851403316110957"><ele>0.16666666666666663</ele><time>2026-04-07T16:51:16.999Z</time></trkpt><trkpt lat="33.995544743004764" lon="7.851303106128487"><ele>1.0</ele><time>2026-04-07T16:51:17.999Z</time></trkpt><trkpt lat="33.9955373865397" lon="7.85120064022737"><ele>0.9999999999999999</ele><time>2026-04-07T16:51:18.999Z</time></trkpt><trkpt lat="33.99552630464748" lon="7.851106581297883"><ele>1.0</ele><time>2026-04-07T16:51:19.999Z</time></trkpt><trkpt lat="33.99551584005164" lon="7.851029377702582"><ele>1.0</ele><time>2026-04-07T16:51:20.999Z</time></trkpt><trkpt lat="33.995496216925574" lon="7.850886171086704"><ele>1.0</ele><time>2026-04-07T16:51:22.999Z</time></trkpt><trkpt lat="33.99547959669619" lon="7.850802300264948"><ele>0.9999999999999999</ele><time>2026-04-07T16:51:23.999Z</time></trkpt><trkpt lat="33.995467803468756" lon="7.850725005518665"><ele>1.0</ele><time>2026-04-07T16:51:24.999Z</time></trkpt><trkpt lat="33.9954646655879" lon="7.850648989764204"><ele>0.16666666666666663</ele><time>2026-04-07T16:51:25.999Z</time></trkpt><trkpt lat="33.99546467885796" lon="7.8505008769401385"><ele>-0.6666666666666666</ele><time>2026-04-07T16:51:27.999Z</time></trkpt><trkpt lat="33.99546903882928" lon="7.850422528384217"><ele>-1.5</ele><time>2026-04-07T16:51:28.999Z</time></trkpt><trkpt lat="33.99547445097726" lon="7.850335796737561"><ele>-2.333333333333333</ele><time>2026-04-07T16:51:29.999Z</time></trkpt><trkpt lat="33.995475851861436" lon="7.850244322873635"><ele>-3.1666666666666665</ele><time>2026-04-07T16:51:30.999Z</time></trkpt><trkpt lat="33.99548753152522" lon="7.850164361414388"><ele>-4.0</ele><time>2026-04-07T16:51:31.999Z</time></trkpt><trkpt lat="33.99550791624765" lon="7.850066793049286"><ele>-4.333333333333333</ele><time>2026-04-07T16:51:33.999Z</time></trkpt><trkpt lat="33.99547145557815" lon="7.849999541560391"><ele>-4.666666666666666</ele><time>2026-04-07T16:51:37.999Z</time></trkpt><trkpt lat="33.99543785243691" lon="7.849900869520621"><ele>-5.0</ele><time>2026-04-07T16:51:40.999Z</time></trkpt><trkpt lat="33.9954079966589" lon="7.849823561156714"><ele>-5.333333333333333</ele><time>2026-04-07T16:51:42.999Z</time></trkpt><trkpt lat="33.99537565249052" lon="7.849751110810961"><ele>-5.666666666666667</ele><time>2026-04-07T16:51:44.999Z</time></trkpt><trkpt lat="33.99533432784859" lon="7.84965435022483"><ele>-6.0</ele><time>2026-04-07T16:51:46.999Z</time></trkpt><trkpt lat="33.99527610928816" lon="7.849539542862524"><ele>-6.0</ele><time>2026-04-07T16:51:48.999Z</time></trkpt><trkpt lat="33.99524919003198" lon="7.849469597352893"><ele>-6.0</ele><time>2026-04-07T16:51:49.999Z</time></trkpt><trkpt lat="33.99519386650438" lon="7.8493308617873705"><ele>-6.0</ele><time>2026-04-07T16:51:51.999Z</time></trkpt><trkpt lat="33.99516643053075" lon="7.849261530079219"><ele>-6.0</ele><time>2026-04-07T16:51:52.999Z</time></trkpt><trkpt lat="33.995119343748286" lon="7.849124390116706"><ele>-6.0</ele><time>2026-04-07T16:51:54.999Z</time></trkpt><trkpt lat="33.99509319955611" lon="7.849053963186557"><ele>-6.0</ele><time>2026-04-07T16:51:55.999Z</time></trkpt><trkpt lat="33.995067859196666" lon="7.848981897553893"><ele>-5.833333333333333</ele><time>2026-04-07T16:51:56.999Z</time></trkpt><trkpt lat="33.99501720475311" lon="7.848836216368062"><ele>-5.666666666666667</ele><time>2026-04-07T16:51:58.999Z</time></trkpt><trkpt lat="33.994987053084394" lon="7.848764220775552"><ele>-5.5</ele><time>2026-04-07T16:51:59.999Z</time></trkpt><trkpt lat="33.99495690427895" lon="7.848684392849329"><ele>-5.333333333333334</ele><time>2026-04-07T16:52:00.999Z</time></trkpt><trkpt lat="33.99492495292901" lon="7.848605228673133"><ele>-5.166666666666667</ele><time>2026-04-07T16:52:01.999Z</time></trkpt><trkpt lat="33.99489110042901" lon="7.848526835137057"><ele>-5.0</ele><time>2026-04-07T16:52:02.999Z</time></trkpt><trkpt lat="33.99485797136599" lon="7.848451369762859"><ele>-5.0</ele><time>2026-04-07T16:52:03.999Z</time></trkpt><trkpt lat="33.99482512473315" lon="7.848376742047241"><ele>-5.0</ele><time>2026-04-07T16:52:04.999Z</time></trkpt><trkpt lat="33.99479362644747" lon="7.848305769644485"><ele>-5.0</ele><time>2026-04-07T16:52:05.999Z</time></trkpt><trkpt lat="33.994764023853335" lon="7.8482365074666145"><ele>-5.0</ele><time>2026-04-07T16:52:06.999Z</time></trkpt><trkpt lat="33.99473403245306" lon="7.848169457231478"><ele>-5.0</ele><time>2026-04-07T16:52:07.999Z</time></trkpt><trkpt lat="33.99470620729933" lon="7.8480995182545294"><ele>-5.0</ele><time>2026-04-07T16:52:08.999Z</time></trkpt><trkpt lat="33.994680394647176" lon="7.84802956266401"><ele>-5.0</ele><time>2026-04-07T16:52:09.999Z</time></trkpt><trkpt lat="33.99465624664505" lon="7.847956092684644"><ele>-5.0</ele><time>2026-04-07T16:52:10.999Z</time></trkpt><trkpt lat="33.99460043271451" lon="7.847827652335598"><ele>-5.0</ele><time>2026-04-07T16:52:12.999Z</time></trkpt><trkpt lat="33.99458167185717" lon="7.847700191635754"><ele>-5.0</ele><time>2026-04-07T16:52:14.999Z</time></trkpt><trkpt lat="33.994589120152696" lon="7.847597953764853"><ele>-5.0</ele><time>2026-04-07T16:52:16.999Z</time></trkpt><trkpt lat="33.99459340467906" lon="7.847506344195521"><ele>-5.0</ele><time>2026-04-07T16:52:19.999Z</time></trkpt><trkpt lat="33.99459113241341" lon="7.847389004763387"><ele>-4.666666666666667</ele><time>2026-04-07T16:52:22.999Z</time></trkpt><trkpt lat="33.99453963161864" lon="7.847295594838725"><ele>-4.333333333333334</ele><time>2026-04-07T16:52:23.999Z</time></trkpt><trkpt lat="33.99453645234658" lon="7.847206576151557"><ele>-4.0</ele><time>2026-04-07T16:52:25.999Z</time></trkpt><trkpt lat="33.99453428461275" lon="7.847113225640485"><ele>-3.666666666666667</ele><time>2026-04-07T16:52:27.999Z</time></trkpt><trkpt lat="33.994524712172115" lon="7.847036065968417"><ele>-3.3333333333333335</ele><time>2026-04-07T16:52:29.999Z</time></trkpt><trkpt lat="33.994501058305985" lon="7.846948029989055"><ele>-3.0</ele><time>2026-04-07T16:52:32.999Z</time></trkpt><trkpt lat="33.994473602503405" lon="7.846847933070569"><ele>-3.4</ele><time>2026-04-07T16:52:35.999Z</time></trkpt><trkpt lat="33.99444675394453" lon="7.8467787473001955"><ele>-3.8</ele><time>2026-04-07T16:52:37.999Z</time></trkpt><trkpt lat="33.99441809129091" lon="7.846705113442564"><ele>-4.2</ele><time>2026-04-07T16:52:39.999Z</time></trkpt><trkpt lat="33.99439598245584" lon="7.8465877309898575"><ele>-4.6</ele><time>2026-04-07T16:52:41.999Z</time></trkpt><trkpt lat="33.99443972240321" lon="7.846497127791186"><ele>-5.0</ele><time>2026-04-07T16:52:44.999Z</time></trkpt><trkpt lat="33.99441669993984" lon="7.846314747981687"><ele>-5.0</ele><time>2026-04-07T16:52:47.999Z</time></trkpt><trkpt lat="33.994429222388284" lon="7.8462174973181025"><ele>-5.0</ele><time>2026-04-07T16:52:50.999Z</time></trkpt><trkpt lat="33.99445819292118" lon="7.846105298848537"><ele>-5.0</ele><time>2026-04-07T16:52:53.999Z</time></trkpt><trkpt lat="33.99447799336138" lon="7.846018579205959"><ele>-5.0</ele><time>2026-04-07T16:52:55.999Z</time></trkpt><trkpt lat="33.994480710155415" lon="7.845940175771071"><ele>-5.0</ele><time>2026-04-07T16:52:57.999Z</time></trkpt><trkpt lat="33.994453334046355" lon="7.845840079148866"><ele>-5.0</ele><time>2026-04-07T16:53:00.999Z</time></trkpt><trkpt lat="33.994424656393285" lon="7.84574121150402"><ele>-5.142857142857142</ele><time>2026-04-07T17:00:08.999Z</time></trkpt><trkpt lat="33.99442196625484" lon="7.845661348880623"><ele>-5.285714285714286</ele><time>2026-04-07T17:01:27.001Z</time></trkpt><trkpt lat="33.99439160190903" lon="7.845592951325829"><ele>-5.428571428571429</ele><time>2026-04-07T17:01:46.999Z</time></trkpt><trkpt lat="33.994362373725416" lon="7.845524616665286"><ele>-5.571428571428571</ele><time>2026-04-07T17:02:47Z</time></trkpt><trkpt lat="33.994331781070244" lon="7.845451508728865"><ele>-5.714285714285714</ele><time>2026-04-07T17:03:09Z</time></trkpt><trkpt lat="33.99431782019373" lon="7.8453682923592964"><ele>-5.857142857142857</ele><time>2026-04-07T17:03:17Z</time></trkpt><trkpt lat="33.99430627377547" lon="7.845281195680386"><ele>-6.0</ele><time>2026-04-07T17:03:24Z</time></trkpt><trkpt lat="33.99428833180791" lon="7.845200430343292"><ele>-5.7142857142857135</ele><time>2026-04-07T17:03:31.001Z</time></trkpt><trkpt lat="33.994267605795955" lon="7.8451210458810055"><ele>-5.428571428571429</ele><time>2026-04-07T17:03:38.001Z</time></trkpt><trkpt lat="33.99424819212156" lon="7.845044673400913"><ele>-5.142857142857142</ele><time>2026-04-07T17:03:45.001Z</time></trkpt><trkpt lat="33.99424155899533" lon="7.844961253763271"><ele>-4.857142857142857</ele><time>2026-04-07T17:03:51.997Z</time></trkpt><trkpt lat="33.99423375090892" lon="7.844879164468219"><ele>-4.571428571428571</ele><time>2026-04-07T17:03:58.998Z</time></trkpt><trkpt lat="33.99421884162309" lon="7.844799944240325"><ele>-4.285714285714286</ele><time>2026-04-07T17:04:04.998Z</time></trkpt><trkpt lat="33.99421187604741" lon="7.844720660626225"><ele>-4.0</ele><time>2026-04-07T17:04:13.999Z</time></trkpt><trkpt lat="33.99417263732284" lon="7.844638026864293"><ele>-4.0</ele><time>2026-04-07T17:04:29.999Z</time></trkpt><trkpt lat="33.99415523277684" lon="7.844560449335218"><ele>-4.0</ele><time>2026-04-07T17:04:35.999Z</time></trkpt><trkpt lat="33.99413929005129" lon="7.844486031457613"><ele>-4.0</ele><time>2026-04-07T17:04:42Z</time></trkpt><trkpt lat="33.994130826429185" lon="7.844408598706373"><ele>-4.0</ele><time>2026-04-07T17:04:49Z</time></trkpt><trkpt lat="33.99412318321939" lon="7.844332678257679"><ele>-4.0</ele><time>2026-04-07T17:04:55Z</time></trkpt><trkpt lat="33.99417263732284" lon="7.844638026864293"><ele>-4.285714285714286</ele><time>2026-04-07T17:04:29.999Z</time></trkpt><trkpt lat="33.99415523277684" lon="7.844560449335218"><ele>-4.571428571428571</ele><time>2026-04-07T17:04:35.999Z</time></trkpt><trkpt lat="33.99413929005129" lon="7.844486031457613"><ele>-4.857142857142857</ele><time>2026-04-07T17:04:42Z</time></trkpt><trkpt lat="33.994130826429185" lon="7.844408598706373"><ele>-5.142857142857142</ele><time>2026-04-07T17:04:49Z</time></trkpt><trkpt lat="33.99412318321939" lon="7.844332678257679"><ele>-5.428571428571429</ele><time>2026-04-07T17:04:55Z</time></trkpt><trkpt lat="33.994104242838176" lon="7.844245979570075"><ele>-5.7142857142857135</ele><time>2026-04-07T17:05:02Z</time></trkpt><trkpt lat="33.99405727115806" lon="7.8441705459507105"><ele>-6.0</ele><time>2026-04-07T17:05:06Z</time></trkpt><trkpt lat="33.99406307274162" lon="7.8440793805954865"><ele>-6.571428571428571</ele><time>2026-04-07T17:05:13Z</time></trkpt><trkpt lat="33.99405605902538" lon="7.844000085603922"><ele>-7.142857142857142</ele><time>2026-04-07T17:05:19Z</time></trkpt><trkpt lat="33.994027612218964" lon="7.843925678237133"><ele>-7.7142857142857135</ele><time>2026-04-07T17:05:25Z</time></trkpt><trkpt lat="33.994033420131366" lon="7.84384908202344"><ele>-8.285714285714285</ele><time>2026-04-07T17:05:33Z</time></trkpt><trkpt lat="33.99401204518527" lon="7.843772252914828"><ele>-8.857142857142858</ele><time>2026-04-07T17:05:41.001Z</time></trkpt><trkpt lat="33.99400883950113" lon="7.843687978809399"><ele>-9.428571428571429</ele><time>2026-04-07T17:05:48.001Z</time></trkpt><trkpt lat="33.99402075795023" lon="7.843604208805699"><ele>-10.0</ele><time>2026-04-07T17:05:55.001Z</time></trkpt><trkpt lat="33.9940206247479" lon="7.843522145459327"><ele>-9.714285714285714</ele><time>2026-04-07T17:06:02.999Z</time></trkpt><trkpt lat="33.9940363086513" lon="7.843444275328401"><ele>-9.428571428571429</ele><time>2026-04-07T17:06:08.999Z</time></trkpt><trkpt lat="33.99405496042793" lon="7.843358359947439"><ele>-9.142857142857142</ele><time>2026-04-07T17:06:15Z</time></trkpt><trkpt lat="33.994093719228005" lon="7.843294665953957"><ele>-8.857142857142858</ele><time>2026-04-07T17:06:22Z</time></trkpt><trkpt lat="33.99410032321582" lon="7.843210570873481"><ele>-8.571428571428571</ele><time>2026-04-07T17:06:31Z</time></trkpt><trkpt lat="33.994077371263494" lon="7.843125498760741"><ele>-8.285714285714285</ele><time>2026-04-07T17:06:38Z</time></trkpt><trkpt lat="33.9940950900543" lon="7.843043611593517"><ele>-8.0</ele><time>2026-04-07T17:07:07.001Z</time></trkpt><trkpt lat="33.994126209859814" lon="7.842964826365897"><ele>-8.0</ele><time>2026-04-07T17:07:32.001Z</time></trkpt><trkpt lat="33.99416290986792" lon="7.842891005193023"><ele>-7.999999999999999</ele><time>2026-04-07T17:07:50.002Z</time></trkpt><trkpt lat="33.994215980217106" lon="7.842844045415844"><ele>-8.0</ele><time>2026-04-07T17:08:06.001Z</time></trkpt><trkpt lat="33.99426031732785" lon="7.8427827977740305"><ele>-8.0</ele><time>2026-04-07T17:08:22.001Z</time></trkpt><trkpt lat="33.99432767666644" lon="7.84277228114229"><ele>-7.999999999999999</ele><time>2026-04-07T17:09:14.002Z</time></trkpt><trkpt lat="33.9943950793075" lon="7.842790185804718"><ele>-8.0</ele><time>2026-04-07T17:10:47.001Z</time></trkpt><trkpt lat="33.99438004909534" lon="7.8428793788996405"><ele>-8.0</ele><time>2026-04-07T17:11:02.001Z</time></trkpt><trkpt lat="33.994407392004696" lon="7.84295669601961"><ele>-8.0</ele><time>2026-04-07T17:12:20.001Z</time></trkpt><trkpt lat="33.99435400075981" lon="7.842900796138662"><ele>-7.999999999999999</ele><time>2026-04-07T17:12:47.001Z</time></trkpt><trkpt lat="33.994432703460724" lon="7.84285284052803"><ele>-8.0</ele><time>2026-04-07T17:16:45.002Z</time></trkpt><trkpt lat="33.99448550611958" lon="7.842902927908427"><ele>-8.0</ele><time>2026-04-07T17:17:04.002Z</time></trkpt><trkpt lat="33.9944218724698" lon="7.842902672185557"><ele>-7.999999999999999</ele><time>2026-04-07T17:19:01.002Z</time></trkpt><trkpt lat="33.99442937835343" lon="7.842979915099489"><ele>-8.0</ele><time>2026-04-07T17:20:10.002Z</time></trkpt><trkpt lat="33.99444572624782" lon="7.8429038256048145"><ele>-8.0</ele><time>2026-04-07T17:21:05.001Z</time></trkpt><trkpt lat="33.99446504417262" lon="7.842822579417762"><ele>-7.999999999999999</ele><time>2026-04-07T17:21:25.001Z</time></trkpt><trkpt lat="33.99449298050978" lon="7.8427022842098015"><ele>-8.0</ele><time>2026-04-07T17:27:27.001Z</time></trkpt><trkpt lat="33.994346075685876" lon="7.84270020724956"><ele>-8.0</ele><time>2026-04-07T17:31:28.001Z</time></trkpt><trkpt lat="33.994293307718074" lon="7.842743542862032"><ele>-8.0</ele><time>2026-04-07T17:31:39.001Z</time></trkpt><trkpt lat="33.99424452946627" lon="7.84279287526409"><ele>-7.999999999999999</ele><time>2026-04-07T17:31:48.001Z</time></trkpt><trkpt lat="33.99420933508752" lon="7.842856246239229"><ele>-8.0</ele><time>2026-04-07T17:32:18.001Z</time></trkpt><trkpt lat="33.99416415175136" lon="7.842915056466571"><ele>-8.0</ele><time>2026-04-07T17:32:28.001Z</time></trkpt><trkpt lat="33.99411186473975" lon="7.84296067943007"><ele>-7.999999999999999</ele><time>2026-04-07T17:32:45.001Z</time></trkpt><trkpt lat="33.99407932681229" lon="7.843038022289004"><ele>-8.0</ele><time>2026-04-07T17:32:54.001Z</time></trkpt><trkpt lat="33.99401312782448" lon="7.843059845323501"><ele>-8.0</ele><time>2026-04-07T17:33:01.001Z</time></trkpt><trkpt lat="33.9939600341325" lon="7.843124560475586"><ele>-7.999999999999999</ele><time>2026-04-07T17:33:09.001Z</time></trkpt><trkpt lat="33.99390396897877" lon="7.843160687975058"><ele>-8.0</ele><time>2026-04-07T17:33:24.001Z</time></trkpt><trkpt lat="33.993900509982105" lon="7.843244109251576"><ele>-8.0</ele><time>2026-04-07T17:36:19.001Z</time></trkpt><trkpt lat="33.99388969935562" lon="7.843160958049694"><ele>-7.999999999999999</ele><time>2026-04-07T17:36:47.001Z</time></trkpt><trkpt lat="33.99380988213226" lon="7.843159451553308"><ele>-8.0</ele><time>2026-04-07T17:44:58Z</time></trkpt><trkpt lat="33.993772512848466" lon="7.843244978647883"><ele>-8.0</ele><time>2026-04-07T17:45:01Z</time></trkpt><trkpt lat="33.99378584356671" lon="7.84334210045986"><ele>-8.0</ele><time>2026-04-07T17:45:04Z</time></trkpt><trkpt lat="33.99384772366476" lon="7.8433821094352885"><ele>-7.999999999999999</ele><time>2026-04-07T17:45:06Z</time></trkpt><trkpt lat="33.99391579623014" lon="7.843410102475749"><ele>-8.0</ele><time>2026-04-07T17:45:08Z</time></trkpt><trkpt lat="33.993953016536445" lon="7.843485855683268"><ele>-8.4</ele><time>2026-04-07T17:45:11Z</time></trkpt><trkpt lat="33.99396611546932" lon="7.843606644342899"><ele>-8.8</ele><time>2026-04-07T17:45:15Z</time></trkpt><trkpt lat="33.993966973025586" lon="7.843721516709881"><ele>-9.2</ele><time>2026-04-07T17:45:17Z</time></trkpt><trkpt lat="33.99398456438323" lon="7.843846146151896"><ele>-9.6</ele><time>2026-04-07T17:45:19Z</time></trkpt><trkpt lat="33.99400879331581" lon="7.843976817844584"><ele>-10.0</ele><time>2026-04-07T17:45:21Z</time></trkpt><trkpt lat="33.99400630786128" lon="7.844112827474655"><ele>-10.0</ele><time>2026-04-07T17:45:23Z</time></trkpt><trkpt lat="33.99395551455227" lon="7.844238964420908"><ele>-10.0</ele><time>2026-04-07T17:45:25Z</time></trkpt><trkpt lat="33.99386640009952" lon="7.844327928540696"><ele>-10.0</ele><time>2026-04-07T17:45:27Z</time></trkpt><trkpt lat="33.993763886412935" lon="7.844406191718891"><ele>-10.0</ele><time>2026-04-07T17:45:29Z</time></trkpt><trkpt lat="33.99368559249973" lon="7.844507799413355"><ele>-9.2</ele><time>2026-04-07T17:45:31Z</time></trkpt><trkpt lat="33.993619937831454" lon="7.844629345980486"><ele>-8.4</ele><time>2026-04-07T17:45:33Z</time></trkpt><trkpt lat="33.993562262651956" lon="7.844739951343988"><ele>-7.6</ele><time>2026-04-07T17:45:35Z</time></trkpt><trkpt lat="33.99349887311389" lon="7.844840791559279"><ele>-6.8</ele><time>2026-04-07T17:45:37Z</time></trkpt><trkpt lat="33.993432355878184" lon="7.844925938906147"><ele>-6.0</ele><time>2026-04-07T17:45:39Z</time></trkpt><trkpt lat="33.99335402256899" lon="7.844967687736934"><ele>-6.6</ele><time>2026-04-07T17:45:41Z</time></trkpt><trkpt lat="33.99325555319776" lon="7.844976607233492"><ele>-7.199999999999999</ele><time>2026-04-07T17:45:45Z</time></trkpt><trkpt lat="33.99318723430631" lon="7.844935897679296"><ele>-7.800000000000001</ele><time>2026-04-07T17:47:04Z</time></trkpt><trkpt lat="33.993082865289544" lon="7.844942363161522"><ele>-8.4</ele><time>2026-04-07T17:47:06Z</time></trkpt><trkpt lat="33.99298659957645" lon="7.844980658497753"><ele>-9.0</ele><time>2026-04-07T17:47:08Z</time></trkpt><trkpt lat="33.992900438972924" lon="7.844953877610471"><ele>-9.0</ele><time>2026-04-07T17:47:10Z</time></trkpt><trkpt lat="33.99280021920427" lon="7.844968035440949"><ele>-9.0</ele><time>2026-04-07T17:47:12Z</time></trkpt><trkpt lat="33.99269761513951" lon="7.845012325710073"><ele>-9.0</ele><time>2026-04-07T17:47:14Z</time></trkpt><trkpt lat="33.99260158149708" lon="7.845079147465093"><ele>-9.0</ele><time>2026-04-07T17:47:16Z</time></trkpt><trkpt lat="33.99252014755412" lon="7.845148588162155"><ele>-9.0</ele><time>2026-04-07T17:47:18Z</time></trkpt><trkpt lat="33.99242307890724" lon="7.845224739788411"><ele>-9.0</ele><time>2026-04-07T17:47:20Z</time></trkpt><trkpt lat="33.992336024509335" lon="7.84529050829917"><ele>-9.0</ele><time>2026-04-07T17:47:22Z</time></trkpt><trkpt lat="33.992249480434054" lon="7.845353993835784"><ele>-9.0</ele><time>2026-04-07T17:47:24Z</time></trkpt><trkpt lat="33.99214076009541" lon="7.845420101152017"><ele>-9.0</ele><time>2026-04-07T17:47:26Z</time></trkpt><trkpt lat="33.992079251696396" lon="7.8454477027810325"><ele>-9.0</ele><time>2026-04-07T17:47:27Z</time></trkpt><trkpt lat="33.992017156828624" lon="7.845476752798826"><ele>-9.0</ele><time>2026-04-07T17:47:28Z</time></trkpt><trkpt lat="33.991955714308645" lon="7.845523630865315"><ele>-9.0</ele><time>2026-04-07T17:47:29Z</time></trkpt><trkpt lat="33.99189215922113" lon="7.84559431377524"><ele>-9.0</ele><time>2026-04-07T17:47:30Z</time></trkpt><trkpt lat="33.99182923343639" lon="7.845675787929723"><ele>-9.0</ele><time>2026-04-07T17:47:31Z</time></trkpt><trkpt lat="33.99176910795253" lon="7.845752172034876"><ele>-9.0</ele><time>2026-04-07T17:47:32Z</time></trkpt><trkpt lat="33.99171283824871" lon="7.845823892817923"><ele>-9.0</ele><time>2026-04-07T17:47:33Z</time></trkpt><trkpt lat="33.991655661986485" lon="7.84590002116276"><ele>-8.4</ele><time>2026-04-07T17:47:34Z</time></trkpt><trkpt lat="33.991593745447105" lon="7.8459794426978"><ele>-7.800000000000001</ele><time>2026-04-07T17:47:35Z</time></trkpt><trkpt lat="33.991528755747" lon="7.8460629198608824"><ele>-7.199999999999999</ele><time>2026-04-07T17:47:36Z</time></trkpt><trkpt lat="33.991461115810175" lon="7.846147352321056"><ele>-6.6</ele><time>2026-04-07T17:47:37Z</time></trkpt><trkpt lat="33.99139261916345" lon="7.846234133749895"><ele>-6.0</ele><time>2026-04-07T17:47:38Z</time></trkpt><trkpt lat="33.99132164155584" lon="7.846330107981935"><ele>-6.0</ele><time>2026-04-07T17:47:39Z</time></trkpt><trkpt lat="33.991248643321896" lon="7.846428800010834"><ele>-6.0</ele><time>2026-04-07T17:47:40Z</time></trkpt><trkpt lat="33.99117354500719" lon="7.846531695643092"><ele>-6.0</ele><time>2026-04-07T17:47:41Z</time></trkpt><trkpt lat="33.9910946309037" lon="7.846639422940225"><ele>-6.0</ele><time>2026-04-07T17:47:42Z</time></trkpt><trkpt lat="33.991014034553814" lon="7.846749277925704"><ele>-6.0</ele><time>2026-04-07T17:47:43Z</time></trkpt><trkpt lat="33.99093160122221" lon="7.8468648690252785"><ele>-6.0</ele><time>2026-04-07T17:47:44Z</time></trkpt><trkpt lat="33.99084991780346" lon="7.846981896042309"><ele>-6.0</ele><time>2026-04-07T17:47:45Z</time></trkpt><trkpt lat="33.99076502509505" lon="7.847102356547879"><ele>-6.0</ele><time>2026-04-07T17:47:46Z</time></trkpt><trkpt lat="33.990681710569284" lon="7.847223379158504"><ele>-6.0</ele><time>2026-04-07T17:47:47Z</time></trkpt><trkpt lat="33.990599853331304" lon="7.84733732351934"><ele>-6.0</ele><time>2026-04-07T17:47:48Z</time></trkpt><trkpt lat="33.99051677749225" lon="7.84744199673289"><ele>-6.0</ele><time>2026-04-07T17:47:49Z</time></trkpt><trkpt lat="33.99043045356726" lon="7.847545017827177"><ele>-6.0</ele><time>2026-04-07T17:47:50Z</time></trkpt><trkpt lat="33.99034426027777" lon="7.847644234677759"><ele>-6.25</ele><time>2026-04-07T17:47:51Z</time></trkpt><trkpt lat="33.990260411437866" lon="7.847743026193444"><ele>-6.5</ele><time>2026-04-07T17:47:52Z</time></trkpt><trkpt lat="33.990177832402864" lon="7.8478421505508695"><ele>-6.75</ele><time>2026-04-07T17:47:53Z</time></trkpt><trkpt lat="33.990090490953264" lon="7.847947250239372"><ele>-7.0</ele><time>2026-04-07T17:47:53.998Z</time></trkpt><trkpt lat="33.98999698081256" lon="7.8480553581822345"><ele>-6.75</ele><time>2026-04-07T17:47:54.998Z</time></trkpt><trkpt lat="33.989898436596825" lon="7.848166077814005"><ele>-6.5</ele><time>2026-04-07T17:47:55.998Z</time></trkpt><trkpt lat="33.989795772017516" lon="7.848277115915611"><ele>-6.25</ele><time>2026-04-07T17:47:56.998Z</time></trkpt><trkpt lat="33.98969010727417" lon="7.848390975312162"><ele>-6.0</ele><time>2026-04-07T17:47:57.998Z</time></trkpt><trkpt lat="33.9895817071839" lon="7.848508164799355"><ele>-6.0</ele><time>2026-04-07T17:47:58.998Z</time></trkpt><trkpt lat="33.989471379167156" lon="7.848628376379603"><ele>-6.0</ele><time>2026-04-07T17:47:59.998Z</time></trkpt><trkpt lat="33.98936394933216" lon="7.848745537403289"><ele>-6.0</ele><time>2026-04-07T17:48:00.998Z</time></trkpt><trkpt lat="33.989264110310266" lon="7.848858688719498"><ele>-6.0</ele><time>2026-04-07T17:48:01.998Z</time></trkpt><trkpt lat="33.98917166125349" lon="7.848970333099525"><ele>-6.0</ele><time>2026-04-07T17:48:02.998Z</time></trkpt><trkpt lat="33.98907343067282" lon="7.849089814616548"><ele>-6.0</ele><time>2026-04-07T17:48:03.998Z</time></trkpt><trkpt lat="33.98897181107232" lon="7.849214497601814"><ele>-6.0</ele><time>2026-04-07T17:48:04.998Z</time></trkpt><trkpt lat="33.98886903590442" lon="7.849342755519143"><ele>-6.0</ele><time>2026-04-07T17:48:05.998Z</time></trkpt><trkpt lat="33.98876438961353" lon="7.84947479469133"><ele>-4.666666666666667</ele><time>2026-04-07T17:48:06.998Z</time></trkpt><trkpt lat="33.988653779141515" lon="7.849605469574353"><ele>-3.333333333333333</ele><time>2026-04-07T17:48:07.998Z</time></trkpt><trkpt lat="33.98853521576412" lon="7.849733605083634"><ele>-2.0</ele><time>2026-04-07T17:48:08.998Z</time></trkpt><trkpt lat="33.98841018239867" lon="7.849859138573425"><ele>-2.0</ele><time>2026-04-07T17:48:09.999Z</time></trkpt><trkpt lat="33.98828374822281" lon="7.849983089963359"><ele>-2.0</ele><time>2026-04-07T17:48:10.999Z</time></trkpt><trkpt lat="33.98815878765153" lon="7.8501042571692405"><ele>-2.0</ele><time>2026-04-07T17:48:11.999Z</time></trkpt><trkpt lat="33.98803412560891" lon="7.850222077619619"><ele>-2.0</ele><time>2026-04-07T17:48:12.999Z</time></trkpt><trkpt lat="33.987913673673255" lon="7.850344393530128"><ele>-2.0</ele><time>2026-04-07T17:48:13.999Z</time></trkpt><trkpt lat="33.98780013342528" lon="7.850480919219758"><ele>-2.0</ele><time>2026-04-07T17:48:14.999Z</time></trkpt><trkpt lat="33.987698474134454" lon="7.850636134119621"><ele>-2.0</ele><time>2026-04-07T17:48:15.999Z</time></trkpt><trkpt lat="33.98761331480208" lon="7.850812569829459"><ele>-2.0</ele><time>2026-04-07T17:48:16.999Z</time></trkpt><trkpt lat="33.98754262522043" lon="7.850995923835414"><ele>-2.0</ele><time>2026-04-07T17:48:17.999Z</time></trkpt><trkpt lat="33.987486973739514" lon="7.851193484252877"><ele>-1.0</ele><time>2026-04-07T17:48:18.999Z</time></trkpt><trkpt lat="33.98744809053597" lon="7.8513987852663"><ele>0.0</ele><time>2026-04-07T17:48:19.999Z</time></trkpt><trkpt lat="33.98742111073165" lon="7.851604627763424"><ele>1.0</ele><time>2026-04-07T17:48:20.999Z</time></trkpt><trkpt lat="33.987389802488906" lon="7.851810111578338"><ele>1.0</ele><time>2026-04-07T17:48:21.999Z</time></trkpt><trkpt lat="33.98735828939098" lon="7.852016954880658"><ele>1.0</ele><time>2026-04-07T17:48:22.999Z</time></trkpt><trkpt lat="33.987322661340436" lon="7.852226331728416"><ele>1.0</ele><time>2026-04-07T17:48:23.999Z</time></trkpt><trkpt lat="33.9872854470648" lon="7.852437599387058"><ele>0.6666666666666666</ele><time>2026-04-07T17:48:24.999Z</time></trkpt><trkpt lat="33.98724718604894" lon="7.852651217985438"><ele>0.3333333333333333</ele><time>2026-04-07T17:48:25.999Z</time></trkpt><trkpt lat="33.98720005866356" lon="7.852861474087328"><ele>0.0</ele><time>2026-04-07T17:48:26.999Z</time></trkpt><trkpt lat="33.98713933962458" lon="7.853064959966254"><ele>0.0</ele><time>2026-04-07T17:48:27.999Z</time></trkpt><trkpt lat="33.98706622549525" lon="7.8532577661006355"><ele>0.0</ele><time>2026-04-07T17:48:28.999Z</time></trkpt><trkpt lat="33.986973778780296" lon="7.853439403279448"><ele>0.0</ele><time>2026-04-07T17:48:29.999Z</time></trkpt><trkpt lat="33.98685633395512" lon="7.853609802857907"><ele>-0.3333333333333333</ele><time>2026-04-07T17:48:30.999Z</time></trkpt><trkpt lat="33.98672787525395" lon="7.853766582713802"><ele>-0.6666666666666666</ele><time>2026-04-07T17:48:31.999Z</time></trkpt><trkpt lat="33.98658423969118" lon="7.85391304444666"><ele>-1.0</ele><time>2026-04-07T17:48:32.999Z</time></trkpt><trkpt lat="33.98642722888768" lon="7.8540413558499775"><ele>-1.3333333333333333</ele><time>2026-04-07T17:48:33.999Z</time></trkpt><trkpt lat="33.98625493205644" lon="7.854146969987998"><ele>-1.6666666666666665</ele><time>2026-04-07T17:48:34.999Z</time></trkpt><trkpt lat="33.98607896036298" lon="7.854238340711906"><ele>-2.0</ele><time>2026-04-07T17:48:35.999Z</time></trkpt><trkpt lat="33.98590578488967" lon="7.854337952578294"><ele>-1.0</ele><time>2026-04-07T17:48:36.999Z</time></trkpt><trkpt lat="33.98573646251324" lon="7.854448002383249"><ele>0.0</ele><time>2026-04-07T17:48:37.999Z</time></trkpt><trkpt lat="33.98556838221326" lon="7.854563554381349"><ele>1.0</ele><time>2026-04-07T17:48:38.999Z</time></trkpt><trkpt lat="33.985403637015416" lon="7.8546849770035045"><ele>1.0</ele><time>2026-04-07T17:48:39.999Z</time></trkpt><trkpt lat="33.985246935162614" lon="7.854815315405239"><ele>1.0</ele><time>2026-04-07T17:48:40.999Z</time></trkpt><trkpt lat="33.98509551327776" lon="7.854948135009108"><ele>1.0</ele><time>2026-04-07T17:48:41.999Z</time></trkpt><trkpt lat="33.98494534868569" lon="7.855073109929897"><ele>2.0</ele><time>2026-04-07T17:48:42.999Z</time></trkpt><trkpt lat="33.98479268756464" lon="7.855188066072317"><ele>3.0</ele><time>2026-04-07T17:48:43.999Z</time></trkpt><trkpt lat="33.984635007188096" lon="7.855284820219865"><ele>4.0</ele><time>2026-04-07T17:48:44.999Z</time></trkpt><trkpt lat="33.98446431575168" lon="7.855333457471289"><ele>4.0</ele><time>2026-04-07T17:48:45.999Z</time></trkpt><trkpt lat="33.98429200990671" lon="7.855349922175168"><ele>4.0</ele><time>2026-04-07T17:48:46.999Z</time></trkpt><trkpt lat="33.984110974018414" lon="7.855329809403115"><ele>4.0</ele><time>2026-04-07T17:48:47.999Z</time></trkpt><trkpt lat="33.98394432671165" lon="7.855320189815868"><ele>4.333333333333333</ele><time>2026-04-07T17:48:48.999Z</time></trkpt><trkpt lat="33.98373455372944" lon="7.855293417057297"><ele>4.666666666666667</ele><time>2026-04-07T17:48:49.999Z</time></trkpt><trkpt lat="33.98354998640262" lon="7.855245638894021"><ele>5.0</ele><time>2026-04-07T17:48:50.999Z</time></trkpt><trkpt lat="33.98336308569539" lon="7.855226921022958"><ele>4.333333333333334</ele><time>2026-04-07T17:48:51.999Z</time></trkpt><trkpt lat="33.9831877866157" lon="7.855176113619765"><ele>3.666666666666667</ele><time>2026-04-07T17:48:53Z</time></trkpt><trkpt lat="33.982992435868184" lon="7.855175798135306"><ele>3.0</ele><time>2026-04-07T17:48:54Z</time></trkpt><trkpt lat="33.98279529364432" lon="7.855175725040519"><ele>3.0</ele><time>2026-04-07T17:48:55Z</time></trkpt><trkpt lat="33.982595129922586" lon="7.855165402080176"><ele>3.0</ele><time>2026-04-07T17:48:56Z</time></trkpt><trkpt lat="33.982394978733105" lon="7.855143094167489"><ele>3.0</ele><time>2026-04-07T17:48:57Z</time></trkpt><trkpt lat="33.98219183278938" lon="7.855119153008893"><ele>2.6666666666666665</ele><time>2026-04-07T17:48:58Z</time></trkpt><trkpt lat="33.981988993285135" lon="7.855090091304245"><ele>2.333333333333333</ele><time>2026-04-07T17:48:59Z</time></trkpt><trkpt lat="33.98178797625197" lon="7.855048152034951"><ele>2.0</ele><time>2026-04-07T17:49:00Z</time></trkpt><trkpt lat="33.98158998955264" lon="7.854995672270576"><ele>2.0</ele><time>2026-04-07T17:49:01Z</time></trkpt><trkpt lat="33.98138989231646" lon="7.8549324960294475"><ele>2.0</ele><time>2026-04-07T17:49:02Z</time></trkpt><trkpt lat="33.981187543450574" lon="7.8548615372310175"><ele>2.0</ele><time>2026-04-07T17:49:03Z</time></trkpt><trkpt lat="33.98098283794412" lon="7.854795623197772"><ele>1.0</ele><time>2026-04-07T17:49:04Z</time></trkpt><trkpt lat="33.98077484941433" lon="7.854731446299605"><ele>0.0</ele><time>2026-04-07T17:49:05Z</time></trkpt><trkpt lat="33.9805671000289" lon="7.854619759769109"><ele>-1.0</ele><time>2026-04-07T17:49:06Z</time></trkpt><trkpt lat="33.98036156763198" lon="7.854514669177834"><ele>-1.0</ele><time>2026-04-07T17:49:07Z</time></trkpt><trkpt lat="33.98016485282417" lon="7.854396486387988"><ele>-1.0</ele><time>2026-04-07T17:49:08Z</time></trkpt><trkpt lat="33.979973149668325" lon="7.854322256137883"><ele>-1.0</ele><time>2026-04-07T17:49:09Z</time></trkpt><trkpt lat="33.979773628858766" lon="7.854243043317764"><ele>-1.0</ele><time>2026-04-07T17:49:10Z</time></trkpt><trkpt lat="33.979580196389456" lon="7.854168861665763"><ele>-1.0</ele><time>2026-04-07T17:49:11Z</time></trkpt><trkpt lat="33.97937801002191" lon="7.854101281921389"><ele>-1.0</ele><time>2026-04-07T17:49:12Z</time></trkpt><trkpt lat="33.9791810410368" lon="7.85400640684007"><ele>-1.0</ele><time>2026-04-07T17:49:13Z</time></trkpt><trkpt lat="33.97898370865661" lon="7.85389444594051"><ele>-1.0</ele><time>2026-04-07T17:49:14Z</time></trkpt><trkpt lat="33.97878519988995" lon="7.853777516751527"><ele>-1.0</ele><time>2026-04-07T17:49:15Z</time></trkpt><trkpt lat="33.97858638776037" lon="7.853664881692365"><ele>-1.0</ele><time>2026-04-07T17:49:16Z</time></trkpt><trkpt lat="33.97838899267139" lon="7.853550231154831"><ele>-1.0</ele><time>2026-04-07T17:49:17Z</time></trkpt><trkpt lat="33.978194501007174" lon="7.853390753148623"><ele>0.0</ele><time>2026-04-07T17:49:18Z</time></trkpt><trkpt lat="33.978006968418484" lon="7.853269771439405"><ele>1.0</ele><time>2026-04-07T17:49:19Z</time></trkpt><trkpt lat="33.97782430019715" lon="7.853153286798832"><ele>2.0</ele><time>2026-04-07T17:49:20Z</time></trkpt><trkpt lat="33.97763275311593" lon="7.853049773328272"><ele>2.333333333333333</ele><time>2026-04-07T17:49:21Z</time></trkpt><trkpt lat="33.97746826025221" lon="7.852937063182864"><ele>2.6666666666666665</ele><time>2026-04-07T17:49:22Z</time></trkpt><trkpt lat="33.97730773781016" lon="7.852799572805654"><ele>3.0</ele><time>2026-04-07T17:49:23Z</time></trkpt><trkpt lat="33.97711194677405" lon="7.852681827349285"><ele>2.6666666666666665</ele><time>2026-04-07T17:49:24Z</time></trkpt><trkpt lat="33.976924026345195" lon="7.852585091922919"><ele>2.333333333333333</ele><time>2026-04-07T17:49:25Z</time></trkpt><trkpt lat="33.97673663044699" lon="7.85247368018105"><ele>2.0</ele><time>2026-04-07T17:49:26Z</time></trkpt><trkpt lat="33.97655515423499" lon="7.852350108005438"><ele>1.0</ele><time>2026-04-07T17:49:27Z</time></trkpt><trkpt lat="33.97637148976302" lon="7.852206732999949"><ele>0.0</ele><time>2026-04-07T17:49:28Z</time></trkpt><trkpt lat="33.976190336622615" lon="7.852065528206125"><ele>-1.0</ele><time>2026-04-07T17:49:29Z</time></trkpt><trkpt lat="33.976010641799206" lon="7.851921810544979"><ele>-0.6666666666666666</ele><time>2026-04-07T17:49:30Z</time></trkpt><trkpt lat="33.97583141931978" lon="7.851777398462119"><ele>-0.3333333333333333</ele><time>2026-04-07T17:49:31Z</time></trkpt><trkpt lat="33.97564895871786" lon="7.851627930383469"><ele>0.0</ele><time>2026-04-07T17:49:32Z</time></trkpt><trkpt lat="33.97547016438241" lon="7.851478405526852"><ele>0.0</ele><time>2026-04-07T17:49:33Z</time></trkpt><trkpt lat="33.97528924478627" lon="7.851327515869005"><ele>0.0</ele><time>2026-04-07T17:49:34Z</time></trkpt><trkpt lat="33.975108744730036" lon="7.8511728254731805"><ele>0.0</ele><time>2026-04-07T17:49:35Z</time></trkpt><trkpt lat="33.974929081009016" lon="7.851018488348614"><ele>1.0</ele><time>2026-04-07T17:49:36Z</time></trkpt><trkpt lat="33.974752877976776" lon="7.850858582345964"><ele>2.0</ele><time>2026-04-07T17:49:37Z</time></trkpt><trkpt lat="33.974576461598616" lon="7.850705798867244"><ele>3.0</ele><time>2026-04-07T17:49:38Z</time></trkpt><trkpt lat="33.97439023686237" lon="7.850564015460389"><ele>3.0</ele><time>2026-04-07T17:49:39Z</time></trkpt><trkpt lat="33.974198683636594" lon="7.850431839103305"><ele>3.0</ele><time>2026-04-07T17:49:40Z</time></trkpt><trkpt lat="33.97400397407466" lon="7.850305442923134"><ele>3.0</ele><time>2026-04-07T17:49:41Z</time></trkpt><trkpt lat="33.97380617931266" lon="7.850185777812668"><ele>2.6666666666666665</ele><time>2026-04-07T17:49:42Z</time></trkpt><trkpt lat="33.97360371318049" lon="7.850074118368216"><ele>2.333333333333333</ele><time>2026-04-07T17:49:43Z</time></trkpt><trkpt lat="33.97340161764628" lon="7.84996524409005"><ele>2.0</ele><time>2026-04-07T17:49:44Z</time></trkpt><trkpt lat="33.973200262595334" lon="7.849852038240626"><ele>2.0</ele><time>2026-04-07T17:49:45Z</time></trkpt><trkpt lat="33.973001745124044" lon="7.849729187307869"><ele>2.0</ele><time>2026-04-07T17:49:46Z</time></trkpt><trkpt lat="33.97280767420126" lon="7.849599924331117"><ele>2.0</ele><time>2026-04-07T17:49:47Z</time></trkpt><trkpt lat="33.97261659217047" lon="7.849459952378791"><ele>1.3333333333333333</ele><time>2026-04-07T17:49:48Z</time></trkpt><trkpt lat="33.97242588970968" lon="7.849321609582537"><ele>0.6666666666666666</ele><time>2026-04-07T17:49:49Z</time></trkpt><trkpt lat="33.972233691103355" lon="7.849183820152468"><ele>0.0</ele><time>2026-04-07T17:49:50Z</time></trkpt><trkpt lat="33.972038415788234" lon="7.849050823314352"><ele>0.0</ele><time>2026-04-07T17:49:51Z</time></trkpt><trkpt lat="33.971841586666244" lon="7.848919980407944"><ele>0.0</ele><time>2026-04-07T17:49:52Z</time></trkpt><trkpt lat="33.97164189267802" lon="7.848794499488407"><ele>0.6666666666666666</ele><time>2026-04-07T17:49:53Z</time></trkpt><trkpt lat="33.971441034130955" lon="7.84867229058763"><ele>1.3333333333333333</ele><time>2026-04-07T17:49:54Z</time></trkpt><trkpt lat="33.97124044639845" lon="7.848553368746928"><ele>2.0</ele><time>2026-04-07T17:49:55Z</time></trkpt><trkpt lat="33.97103776595405" lon="7.848433488634772"><ele>2.5</ele><time>2026-04-07T17:49:56Z</time></trkpt><trkpt lat="33.97083150208581" lon="7.848314291768996"><ele>3.0</ele><time>2026-04-07T17:49:57Z</time></trkpt><trkpt lat="33.97062242653638" lon="7.848192737278669"><ele>3.0</ele><time>2026-04-07T17:49:58Z</time></trkpt><trkpt lat="33.970412013973345" lon="7.848079834048436"><ele>3.0</ele><time>2026-04-07T17:49:59Z</time></trkpt><trkpt lat="33.97020166726596" lon="7.847960714307974"><ele>3.0</ele><time>2026-04-07T17:49:59.999Z</time></trkpt><trkpt lat="33.969987745621715" lon="7.847842138494112"><ele>3.0</ele><time>2026-04-07T17:50:00.999Z</time></trkpt><trkpt lat="33.96977593679323" lon="7.847718011913213"><ele>4.0</ele><time>2026-04-07T17:50:01.999Z</time></trkpt><trkpt lat="33.96956271954477" lon="7.847586702795077"><ele>5.0</ele><time>2026-04-07T17:50:02.999Z</time></trkpt><trkpt lat="33.96935200786128" lon="7.847455852695825"><ele>4.0</ele><time>2026-04-07T17:50:03.999Z</time></trkpt><trkpt lat="33.96913911922778" lon="7.8473281405387585"><ele>3.0</ele><time>2026-04-07T17:50:04.999Z</time></trkpt><trkpt lat="33.96892317516172" lon="7.847206395458368"><ele>3.0</ele><time>2026-04-07T17:50:05.999Z</time></trkpt><trkpt lat="33.968706539859696" lon="7.84708636292374"><ele>3.0</ele><time>2026-04-07T17:50:06.999Z</time></trkpt><trkpt lat="33.968269357288385" lon="7.846875944405484"><ele>3.5</ele><time>2026-04-07T17:50:08.999Z</time></trkpt><trkpt lat="33.96804940154511" lon="7.846773336367905"><ele>4.0</ele><time>2026-04-07T17:50:09.999Z</time></trkpt><trkpt lat="33.967827738160246" lon="7.846669968371811"><ele>4.0</ele><time>2026-04-07T17:50:10.999Z</time></trkpt><trkpt lat="33.967605090141134" lon="7.846565400795923"><ele>4.0</ele><time>2026-04-07T17:50:11.999Z</time></trkpt><trkpt lat="33.96738050351137" lon="7.846463622083853"><ele>4.0</ele><time>2026-04-07T17:50:12.999Z</time></trkpt><trkpt lat="33.96715743385755" lon="7.846363344233442"><ele>4.0</ele><time>2026-04-07T17:50:13.999Z</time></trkpt><trkpt lat="33.96693715385495" lon="7.8462608495422534"><ele>4.0</ele><time>2026-04-07T17:50:14.999Z</time></trkpt><trkpt lat="33.966719234620946" lon="7.846157442530029"><ele>4.0</ele><time>2026-04-07T17:50:15.999Z</time></trkpt><trkpt lat="33.96650240839868" lon="7.846053439260829"><ele>5.0</ele><time>2026-04-07T17:50:16.999Z</time></trkpt><trkpt lat="33.96628586201611" lon="7.845946167268051"><ele>6.0</ele><time>2026-04-07T17:50:17.999Z</time></trkpt><trkpt lat="33.966068183644076" lon="7.845836718807635"><ele>5.5</ele><time>2026-04-07T17:50:18.999Z</time></trkpt><trkpt lat="33.96585096911573" lon="7.845726400836844"><ele>5.0</ele><time>2026-04-07T17:50:19.999Z</time></trkpt><trkpt lat="33.96563511952652" lon="7.845613014393106"><ele>5.0</ele><time>2026-04-07T17:50:20.999Z</time></trkpt><trkpt lat="33.965421660928996" lon="7.8454916939193815"><ele>5.0</ele><time>2026-04-07T17:50:21.999Z</time></trkpt><trkpt lat="33.96521185488751" lon="7.8453617066300545"><ele>4.0</ele><time>2026-04-07T17:50:22.999Z</time></trkpt><trkpt lat="33.96500806323655" lon="7.8452197214265365"><ele>3.0</ele><time>2026-04-07T17:50:23.999Z</time></trkpt><trkpt lat="33.96480842776011" lon="7.845069070637578"><ele>3.0</ele><time>2026-04-07T17:50:24.999Z</time></trkpt><trkpt lat="33.96460688202525" lon="7.844922780971373"><ele>3.0</ele><time>2026-04-07T17:50:25.999Z</time></trkpt><trkpt lat="33.964405235187456" lon="7.844774823201694"><ele>3.0</ele><time>2026-04-07T17:50:26.999Z</time></trkpt><trkpt lat="33.96419881053648" lon="7.844634613593834"><ele>3.0</ele><time>2026-04-07T17:50:27.999Z</time></trkpt><trkpt lat="33.96398648554831" lon="7.844507543526361"><ele>3.5</ele><time>2026-04-07T17:50:29Z</time></trkpt><trkpt lat="33.96377263748306" lon="7.844389766030569"><ele>4.0</ele><time>2026-04-07T17:50:30Z</time></trkpt><trkpt lat="33.96355966342378" lon="7.844273441964321"><ele>5.0</ele><time>2026-04-07T17:50:31Z</time></trkpt><trkpt lat="33.963347358039954" lon="7.844158124741916"><ele>6.0</ele><time>2026-04-07T17:50:32Z</time></trkpt><trkpt lat="33.963134661795124" lon="7.844044660672379"><ele>6.0</ele><time>2026-04-07T17:50:33Z</time></trkpt><trkpt lat="33.96292256826836" lon="7.843929945897289"><ele>6.0</ele><time>2026-04-07T17:50:34Z</time></trkpt><trkpt lat="33.96271133834149" lon="7.843814705604159"><ele>6.0</ele><time>2026-04-07T17:50:35Z</time></trkpt><trkpt lat="33.96250135436227" lon="7.843693444551148"><ele>6.0</ele><time>2026-04-07T17:50:36Z</time></trkpt><trkpt lat="33.96229220598493" lon="7.8435740454791105"><ele>6.5</ele><time>2026-04-07T17:50:37Z</time></trkpt><trkpt lat="33.96208348044692" lon="7.843452791465219"><ele>7.0</ele><time>2026-04-07T17:50:38Z</time></trkpt><trkpt lat="33.96187439565495" lon="7.843328880351756"><ele>6.5</ele><time>2026-04-07T17:50:39Z</time></trkpt><trkpt lat="33.961667432576334" lon="7.84320343422111"><ele>6.0</ele><time>2026-04-07T17:50:40Z</time></trkpt><trkpt lat="33.96146243874065" lon="7.843074920439095"><ele>6.0</ele><time>2026-04-07T17:50:41Z</time></trkpt><trkpt lat="33.96126103589911" lon="7.842941981218944"><ele>6.0</ele><time>2026-04-07T17:50:42Z</time></trkpt><trkpt lat="33.96106441235624" lon="7.842806856231353"><ele>6.0</ele><time>2026-04-07T17:50:43Z</time></trkpt><trkpt lat="33.96087089781467" lon="7.842671646280282"><ele>6.0</ele><time>2026-04-07T17:50:44Z</time></trkpt><trkpt lat="33.9606793974573" lon="7.8425357275042105"><ele>6.0</ele><time>2026-04-07T17:50:45Z</time></trkpt><trkpt lat="33.960491171353866" lon="7.84240072073056"><ele>5.666666666666667</ele><time>2026-04-07T17:50:46Z</time></trkpt><trkpt lat="33.9603100587774" lon="7.842260575232252"><ele>5.333333333333334</ele><time>2026-04-07T17:50:47Z</time></trkpt><trkpt lat="33.96013919947545" lon="7.8421076874513895"><ele>5.0</ele><time>2026-04-07T17:50:48Z</time></trkpt><trkpt lat="33.959977467167164" lon="7.841938603323449"><ele>6.0</ele><time>2026-04-07T17:50:49Z</time></trkpt><trkpt lat="33.959830813123176" lon="7.841748381645304"><ele>7.0</ele><time>2026-04-07T17:50:50Z</time></trkpt><trkpt lat="33.95969620351293" lon="7.841542424259264"><ele>8.0</ele><time>2026-04-07T17:50:51Z</time></trkpt><trkpt lat="33.95955252456965" lon="7.841342835794823"><ele>8.0</ele><time>2026-04-07T17:50:52Z</time></trkpt><trkpt lat="33.95939245035492" lon="7.8411513965092485"><ele>8.0</ele><time>2026-04-07T17:50:53Z</time></trkpt><trkpt lat="33.95922226263356" lon="7.840969991109279"><ele>7.5</ele><time>2026-04-07T17:50:54Z</time></trkpt><trkpt lat="33.95904290824518" lon="7.840801739757724"><ele>7.0</ele><time>2026-04-07T17:50:55Z</time></trkpt><trkpt lat="33.95885331558888" lon="7.840650399265155"><ele>7.0</ele><time>2026-04-07T17:50:56Z</time></trkpt><trkpt lat="33.95865749157699" lon="7.840511965638309"><ele>7.0</ele><time>2026-04-07T17:50:57Z</time></trkpt><trkpt lat="33.95845576799824" lon="7.8403882046535065"><ele>7.333333333333334</ele><time>2026-04-07T17:50:58Z</time></trkpt><trkpt lat="33.95824956043355" lon="7.840278374010276"><ele>7.666666666666666</ele><time>2026-04-07T17:50:59Z</time></trkpt><trkpt lat="33.95804640392874" lon="7.840168574942946"><ele>8.0</ele><time>2026-04-07T17:51:00Z</time></trkpt><trkpt lat="33.95784664285528" lon="7.8400562743983535"><ele>8.333333333333332</ele><time>2026-04-07T17:51:01Z</time></trkpt><trkpt lat="33.957652727768405" lon="7.839936464406685"><ele>8.666666666666666</ele><time>2026-04-07T17:51:02Z</time></trkpt><trkpt lat="33.95746526106949" lon="7.839800649232968"><ele>9.0</ele><time>2026-04-07T17:51:03Z</time></trkpt><trkpt lat="33.957288778132465" lon="7.839645896671186"><ele>8.333333333333334</ele><time>2026-04-07T17:51:04Z</time></trkpt><trkpt lat="33.957100946425456" lon="7.839504010596581"><ele>7.666666666666667</ele><time>2026-04-07T17:51:05Z</time></trkpt><trkpt lat="33.956898123711326" lon="7.839380023061418"><ele>7.0</ele><time>2026-04-07T17:51:06Z</time></trkpt><trkpt lat="33.956685739554175" lon="7.839278931660167"><ele>7.0</ele><time>2026-04-07T17:51:07Z</time></trkpt><trkpt lat="33.956468509656325" lon="7.839199978688466"><ele>7.0</ele><time>2026-04-07T17:51:08Z</time></trkpt><trkpt lat="33.95625085974454" lon="7.839138823934301"><ele>7.0</ele><time>2026-04-07T17:51:09Z</time></trkpt><trkpt lat="33.95603647976709" lon="7.839070168177939"><ele>7.0</ele><time>2026-04-07T17:51:10Z</time></trkpt><trkpt lat="33.95582471730544" lon="7.83899748715505"><ele>7.0</ele><time>2026-04-07T17:51:11Z</time></trkpt><trkpt lat="33.95562128832301" lon="7.8389008396007736"><ele>7.333333333333334</ele><time>2026-04-07T17:51:12Z</time></trkpt><trkpt lat="33.95542782042918" lon="7.838771700279387"><ele>7.666666666666666</ele><time>2026-04-07T17:51:13Z</time></trkpt><trkpt lat="33.95524337685466" lon="7.838620841850081"><ele>8.0</ele><time>2026-04-07T17:51:14Z</time></trkpt><trkpt lat="33.95505242350473" lon="7.838470955992369"><ele>8.0</ele><time>2026-04-07T17:51:15Z</time></trkpt><trkpt lat="33.95485750323217" lon="7.838330127369026"><ele>8.0</ele><time>2026-04-07T17:51:16Z</time></trkpt><trkpt lat="33.95465753727141" lon="7.838203345258085"><ele>8.0</ele><time>2026-04-07T17:51:17Z</time></trkpt><trkpt lat="33.95445285247336" lon="7.838082494181693"><ele>8.0</ele><time>2026-04-07T17:51:18Z</time></trkpt><trkpt lat="33.95424400075603" lon="7.837967140757451"><ele>8.0</ele><time>2026-04-07T17:51:19Z</time></trkpt><trkpt lat="33.95403614204914" lon="7.837853016428438"><ele>8.0</ele><time>2026-04-07T17:51:20Z</time></trkpt><trkpt lat="33.95382748627289" lon="7.837739526704781"><ele>8.0</ele><time>2026-04-07T17:51:21Z</time></trkpt><trkpt lat="33.953621841051856" lon="7.837624582086182"><ele>8.0</ele><time>2026-04-07T17:51:22Z</time></trkpt><trkpt lat="33.95342190520875" lon="7.837499789221074"><ele>8.666666666666666</ele><time>2026-04-07T17:51:23Z</time></trkpt><trkpt lat="33.953227464620305" lon="7.837366067735857"><ele>9.333333333333334</ele><time>2026-04-07T17:51:24Z</time></trkpt><trkpt lat="33.95303875711764" lon="7.8372241239710245"><ele>10.0</ele><time>2026-04-07T17:51:25Z</time></trkpt><trkpt lat="33.952849443219215" lon="7.837083307130789"><ele>10.0</ele><time>2026-04-07T17:51:26Z</time></trkpt><trkpt lat="33.95265880310413" lon="7.8369418990240955"><ele>10.0</ele><time>2026-04-07T17:51:27Z</time></trkpt><trkpt lat="33.9524653609569" lon="7.836812527144441"><ele>10.0</ele><time>2026-04-07T17:51:28Z</time></trkpt><trkpt lat="33.95226803036929" lon="7.836691489222164"><ele>9.666666666666668</ele><time>2026-04-07T17:51:29Z</time></trkpt><trkpt lat="33.95206865001915" lon="7.836574774854201"><ele>9.333333333333334</ele><time>2026-04-07T17:51:30Z</time></trkpt><trkpt lat="33.951871481250855" lon="7.836453052937849"><ele>9.0</ele><time>2026-04-07T17:51:31Z</time></trkpt><trkpt lat="33.95168272875582" lon="7.836315153583786"><ele>9.0</ele><time>2026-04-07T17:51:32Z</time></trkpt><trkpt lat="33.95149836727598" lon="7.836170380911756"><ele>9.0</ele><time>2026-04-07T17:51:33Z</time></trkpt><trkpt lat="33.951313909149206" lon="7.836026951406662"><ele>9.0</ele><time>2026-04-07T17:51:34Z</time></trkpt><trkpt lat="33.95113010849759" lon="7.835884760651546"><ele>9.0</ele><time>2026-04-07T17:51:35Z</time></trkpt><trkpt lat="33.95094363228034" lon="7.83575400127572"><ele>9.0</ele><time>2026-04-07T17:51:36Z</time></trkpt><trkpt lat="33.950761616290166" lon="7.835627075241453"><ele>9.0</ele><time>2026-04-07T17:51:37Z</time></trkpt><trkpt lat="33.950581972939275" lon="7.835509436279744"><ele>9.666666666666666</ele><time>2026-04-07T17:51:38Z</time></trkpt><trkpt lat="33.950401302921144" lon="7.835402718579101"><ele>10.333333333333332</ele><time>2026-04-07T17:51:39Z</time></trkpt><trkpt lat="33.95022071893913" lon="7.835314766003777"><ele>11.0</ele><time>2026-04-07T17:51:40Z</time></trkpt><trkpt lat="33.95003795031165" lon="7.8352612273139925"><ele>12.333333333333332</ele><time>2026-04-07T17:51:41Z</time></trkpt><trkpt lat="33.94985401319914" lon="7.835240508895152"><ele>13.666666666666666</ele><time>2026-04-07T17:51:42Z</time></trkpt><trkpt lat="33.94966802049565" lon="7.835247597218859"><ele>15.0</ele><time>2026-04-07T17:51:43Z</time></trkpt><trkpt lat="33.949489396414066" lon="7.835278912248226"><ele>15.0</ele><time>2026-04-07T17:51:44Z</time></trkpt><trkpt lat="33.949315406086605" lon="7.835337683940301"><ele>15.0</ele><time>2026-04-07T17:51:45Z</time></trkpt><trkpt lat="33.949141854175565" lon="7.835406918160278"><ele>15.0</ele><time>2026-04-07T17:51:46.001Z</time></trkpt><trkpt lat="33.948967733079726" lon="7.835479038290685"><ele>15.666666666666668</ele><time>2026-04-07T17:51:47.001Z</time></trkpt><trkpt lat="33.94879344130868" lon="7.835551196893745"><ele>16.333333333333336</ele><time>2026-04-07T17:51:48.001Z</time></trkpt><trkpt lat="33.948616452837065" lon="7.835624432406943"><ele>17.0</ele><time>2026-04-07T17:51:49.001Z</time></trkpt><trkpt lat="33.94843476036692" lon="7.835692665639885"><ele>17.0</ele><time>2026-04-07T17:51:50.001Z</time></trkpt><trkpt lat="33.948247217953046" lon="7.835749692147803"><ele>17.0</ele><time>2026-04-07T17:51:51.001Z</time></trkpt><trkpt lat="33.9480526795073" lon="7.835795035021401"><ele>17.0</ele><time>2026-04-07T17:51:52.001Z</time></trkpt><trkpt lat="33.94785408561153" lon="7.835837759994605"><ele>17.0</ele><time>2026-04-07T17:51:53.001Z</time></trkpt><trkpt lat="33.947653015527834" lon="7.835882667997269"><ele>17.0</ele><time>2026-04-07T17:51:54.001Z</time></trkpt><trkpt lat="33.94744992602592" lon="7.835927888323355"><ele>17.0</ele><time>2026-04-07T17:51:55.001Z</time></trkpt><trkpt lat="33.94724465900666" lon="7.8359734250057445"><ele>17.0</ele><time>2026-04-07T17:51:56.001Z</time></trkpt><trkpt lat="33.94703525567427" lon="7.836017294034202"><ele>17.0</ele><time>2026-04-07T17:51:57.001Z</time></trkpt><trkpt lat="33.946824300348936" lon="7.836060422875882"><ele>17.0</ele><time>2026-04-07T17:51:58.001Z</time></trkpt><trkpt lat="33.946613534305655" lon="7.836103668134552"><ele>16.666666666666668</ele><time>2026-04-07T17:51:59.001Z</time></trkpt><trkpt lat="33.94640235438111" lon="7.8361475948843"><ele>16.333333333333332</ele><time>2026-04-07T17:52:00.001Z</time></trkpt><trkpt lat="33.94619231263595" lon="7.836188994973154"><ele>16.0</ele><time>2026-04-07T17:52:01.001Z</time></trkpt><trkpt lat="33.945983422118374" lon="7.836231229083642"><ele>17.0</ele><time>2026-04-07T17:52:02.001Z</time></trkpt><trkpt lat="33.94577600535789" lon="7.836279584103226"><ele>18.0</ele><time>2026-04-07T17:52:03.001Z</time></trkpt><trkpt lat="33.945568295748885" lon="7.836335603851683"><ele>19.0</ele><time>2026-04-07T17:52:04.001Z</time></trkpt><trkpt lat="33.94536240776356" lon="7.836395749683355"><ele>19.0</ele><time>2026-04-07T17:52:05.001Z</time></trkpt><trkpt lat="33.945154835757464" lon="7.8364569658210455"><ele>19.0</ele><time>2026-04-07T17:52:06Z</time></trkpt><trkpt lat="33.944943689538995" lon="7.836520690290851"><ele>19.0</ele><time>2026-04-07T17:52:07Z</time></trkpt><trkpt lat="33.94472996949414" lon="7.836584567236201"><ele>19.0</ele><time>2026-04-07T17:52:08Z</time></trkpt><trkpt lat="33.944513858407404" lon="7.836647688748454"><ele>19.0</ele><time>2026-04-07T17:52:09Z</time></trkpt><trkpt lat="33.94429827451645" lon="7.836709852246337"><ele>19.0</ele><time>2026-04-07T17:52:10Z</time></trkpt><trkpt lat="33.9440819507927" lon="7.8367710205774985"><ele>18.333333333333332</ele><time>2026-04-07T17:52:11Z</time></trkpt><trkpt lat="33.943868679477276" lon="7.836836155132104"><ele>17.666666666666668</ele><time>2026-04-07T17:52:12Z</time></trkpt><trkpt lat="33.943658402697544" lon="7.836902756422686"><ele>17.0</ele><time>2026-04-07T17:52:13Z</time></trkpt><trkpt lat="33.94344982696746" lon="7.836970771131619"><ele>17.0</ele><time>2026-04-07T17:52:14Z</time></trkpt><trkpt lat="33.943240858758365" lon="7.837036914423767"><ele>17.0</ele><time>2026-04-07T17:52:15Z</time></trkpt><trkpt lat="33.94302798874525" lon="7.837094319534293"><ele>17.0</ele><time>2026-04-07T17:52:16Z</time></trkpt><trkpt lat="33.94281850475319" lon="7.837140405525455"><ele>17.0</ele><time>2026-04-07T17:52:17Z</time></trkpt><trkpt lat="33.942594872189055" lon="7.837203925728254"><ele>17.0</ele><time>2026-04-07T17:52:18Z</time></trkpt><trkpt lat="33.9423775510512" lon="7.837245120858504"><ele>17.666666666666668</ele><time>2026-04-07T17:52:19Z</time></trkpt><trkpt lat="33.94216443115013" lon="7.837309254349507"><ele>18.333333333333332</ele><time>2026-04-07T17:52:20Z</time></trkpt><trkpt lat="33.94195275218313" lon="7.837394830346245"><ele>19.0</ele><time>2026-04-07T17:52:21Z</time></trkpt><trkpt lat="33.94174524680052" lon="7.837494400991953"><ele>19.5</ele><time>2026-04-07T17:52:22Z</time></trkpt><trkpt lat="33.9415425832497" lon="7.837612233203241"><ele>20.0</ele><time>2026-04-07T17:52:23Z</time></trkpt><trkpt lat="33.94134230084988" lon="7.83774057853101"><ele>20.333333333333336</ele><time>2026-04-07T17:52:24Z</time></trkpt><trkpt lat="33.94113959255357" lon="7.837865308491095"><ele>20.666666666666668</ele><time>2026-04-07T17:52:25Z</time></trkpt><trkpt lat="33.94093939373997" lon="7.837976131373907"><ele>21.0</ele><time>2026-04-07T17:52:26Z</time></trkpt><trkpt lat="33.94072680392107" lon="7.8380708272154545"><ele>21.666666666666668</ele><time>2026-04-07T17:52:27Z</time></trkpt><trkpt lat="33.94051439914452" lon="7.838162208603381"><ele>22.333333333333336</ele><time>2026-04-07T17:52:28Z</time></trkpt><trkpt lat="33.94030507652265" lon="7.838246055820399"><ele>23.0</ele><time>2026-04-07T17:52:29Z</time></trkpt><trkpt lat="33.94009656123529" lon="7.838333159070108"><ele>23.666666666666668</ele><time>2026-04-07T17:52:30Z</time></trkpt><trkpt lat="33.93988824632529" lon="7.8384222022548"><ele>24.333333333333336</ele><time>2026-04-07T17:52:31Z</time></trkpt><trkpt lat="33.93967404598643" lon="7.838508975264659"><ele>25.0</ele><time>2026-04-07T17:52:32Z</time></trkpt><trkpt lat="33.939460740651626" lon="7.838588092671888"><ele>25.333333333333336</ele><time>2026-04-07T17:52:33Z</time></trkpt><trkpt lat="33.939249504167805" lon="7.838652888286926"><ele>25.666666666666664</ele><time>2026-04-07T17:52:34Z</time></trkpt><trkpt lat="33.93903246717286" lon="7.838705813092359"><ele>26.0</ele><time>2026-04-07T17:52:35Z</time></trkpt><trkpt lat="33.93882198783703" lon="7.838744580015984"><ele>26.666666666666664</ele><time>2026-04-07T17:52:36Z</time></trkpt><trkpt lat="33.93859999765119" lon="7.838766896856365"><ele>27.333333333333336</ele><time>2026-04-07T17:52:37Z</time></trkpt><trkpt lat="33.93838504025584" lon="7.838799045191036"><ele>28.0</ele><time>2026-04-07T17:52:38Z</time></trkpt><trkpt lat="33.93817954730793" lon="7.838852443693617"><ele>28.333333333333336</ele><time>2026-04-07T17:52:39Z</time></trkpt><trkpt lat="33.937988152345376" lon="7.838929641344966"><ele>28.666666666666664</ele><time>2026-04-07T17:52:40Z</time></trkpt><trkpt lat="33.93779686009172" lon="7.839026465196419"><ele>29.0</ele><time>2026-04-07T17:52:41Z</time></trkpt><trkpt lat="33.93761122080791" lon="7.839130962804898"><ele>30.0</ele><time>2026-04-07T17:52:42Z</time></trkpt><trkpt lat="33.93742531555486" lon="7.839239493239897"><ele>31.0</ele><time>2026-04-07T17:52:43Z</time></trkpt><trkpt lat="33.937247970832416" lon="7.839352095830591"><ele>32.0</ele><time>2026-04-07T17:52:44Z</time></trkpt><trkpt lat="33.93707276946249" lon="7.839471763429114"><ele>32.0</ele><time>2026-04-07T17:52:45Z</time></trkpt><trkpt lat="33.93689957495855" lon="7.8395918304031955"><ele>32.0</ele><time>2026-04-07T17:52:46Z</time></trkpt><trkpt lat="33.936724202833126" lon="7.839701715198198"><ele>32.0</ele><time>2026-04-07T17:52:47Z</time></trkpt><trkpt lat="33.93653720926891" lon="7.839782269224422"><ele>33.0</ele><time>2026-04-07T17:52:48Z</time></trkpt><trkpt lat="33.93633540030645" lon="7.83982763377237"><ele>34.0</ele><time>2026-04-07T17:52:49Z</time></trkpt><trkpt lat="33.93612601632089" lon="7.839842766329695"><ele>35.0</ele><time>2026-04-07T17:52:50Z</time></trkpt><trkpt lat="33.93591347769254" lon="7.839870548140437"><ele>35.33333333333333</ele><time>2026-04-07T17:52:51Z</time></trkpt><trkpt lat="33.93570330941699" lon="7.839924508211016"><ele>35.666666666666664</ele><time>2026-04-07T17:52:52Z</time></trkpt><trkpt lat="33.93549854875743" lon="7.839995546995311"><ele>36.0</ele><time>2026-04-07T17:52:53Z</time></trkpt><trkpt lat="33.9352951857055" lon="7.840063841952302"><ele>36.0</ele><time>2026-04-07T17:52:54Z</time></trkpt><trkpt lat="33.93508643432775" lon="7.84011122079765"><ele>36.0</ele><time>2026-04-07T17:52:55Z</time></trkpt><trkpt lat="33.934878050716996" lon="7.840139537338392"><ele>36.0</ele><time>2026-04-07T17:52:56Z</time></trkpt><trkpt lat="33.93466505411166" lon="7.840153482556943"><ele>36.666666666666664</ele><time>2026-04-07T17:52:57Z</time></trkpt><trkpt lat="33.93445469460619" lon="7.840157862058122"><ele>37.33333333333333</ele><time>2026-04-07T17:52:58.001Z</time></trkpt><trkpt lat="33.93424174568212" lon="7.840178779568158"><ele>38.0</ele><time>2026-04-07T17:52:59.001Z</time></trkpt><trkpt lat="33.934036863234205" lon="7.84022718223151"><ele>39.666666666666664</ele><time>2026-04-07T17:53:00.001Z</time></trkpt><trkpt lat="33.93383666314321" lon="7.840303196759025"><ele>41.333333333333336</ele><time>2026-04-07T17:53:01.001Z</time></trkpt><trkpt lat="33.933641508927714" lon="7.840409395861989"><ele>43.0</ele><time>2026-04-07T17:53:02.001Z</time></trkpt><trkpt lat="33.9334576472341" lon="7.840529931649319"><ele>43.333333333333336</ele><time>2026-04-07T17:53:03.001Z</time></trkpt><trkpt lat="33.93327087451378" lon="7.840650834071998"><ele>43.666666666666664</ele><time>2026-04-07T17:53:04.001Z</time></trkpt><trkpt lat="33.933084184623524" lon="7.8407610480297985"><ele>44.0</ele><time>2026-04-07T17:53:05.001Z</time></trkpt><trkpt lat="33.93289296896664" lon="7.8408586547211545"><ele>44.0</ele><time>2026-04-07T17:53:06.001Z</time></trkpt><trkpt lat="33.93269681226085" lon="7.840934924420142"><ele>44.0</ele><time>2026-04-07T17:53:07.001Z</time></trkpt><trkpt lat="33.93249428982514" lon="7.840981370726286"><ele>44.0</ele><time>2026-04-07T17:53:08.001Z</time></trkpt><trkpt lat="33.93229342113435" lon="7.841009291417291"><ele>45.33333333333333</ele><time>2026-04-07T17:53:09.001Z</time></trkpt><trkpt lat="33.93208991238173" lon="7.841023621787728"><ele>46.666666666666664</ele><time>2026-04-07T17:53:10.001Z</time></trkpt><trkpt lat="33.931889407911086" lon="7.841053064922785"><ele>48.0</ele><time>2026-04-07T17:53:11.001Z</time></trkpt><trkpt lat="33.93169056327594" lon="7.84111238095717"><ele>48.33333333333333</ele><time>2026-04-07T17:53:12.001Z</time></trkpt><trkpt lat="33.93149579788233" lon="7.8412023747018065"><ele>48.666666666666664</ele><time>2026-04-07T17:53:13.001Z</time></trkpt><trkpt lat="33.931304530868424" lon="7.84131182113148"><ele>49.0</ele><time>2026-04-07T17:53:14.001Z</time></trkpt><trkpt lat="33.93111580076009" lon="7.841428830628524"><ele>49.0</ele><time>2026-04-07T17:53:15.001Z</time></trkpt><trkpt lat="33.93092614751091" lon="7.841539374140165"><ele>49.0</ele><time>2026-04-07T17:53:16.001Z</time></trkpt><trkpt lat="33.93073347002247" lon="7.84163897639443"><ele>49.0</ele><time>2026-04-07T17:53:17.001Z</time></trkpt><trkpt lat="33.93053361527398" lon="7.84171926627386"><ele>49.0</ele><time>2026-04-07T17:53:18.001Z</time></trkpt><trkpt lat="33.93032838781591" lon="7.841784560644945"><ele>49.0</ele><time>2026-04-07T17:53:19.001Z</time></trkpt><trkpt lat="33.93012640359233" lon="7.841858555676293"><ele>49.0</ele><time>2026-04-07T17:53:20.001Z</time></trkpt><trkpt lat="33.92992867344228" lon="7.841959244477275"><ele>49.0</ele><time>2026-04-07T17:53:21.001Z</time></trkpt><trkpt lat="33.929738450526415" lon="7.842081162492881"><ele>49.0</ele><time>2026-04-07T17:53:22.001Z</time></trkpt><trkpt lat="33.92955363183559" lon="7.842211882615007"><ele>49.0</ele><time>2026-04-07T17:53:23.001Z</time></trkpt><trkpt lat="33.92937043622986" lon="7.8423430317047265"><ele>49.0</ele><time>2026-04-07T17:53:24.001Z</time></trkpt><trkpt lat="33.92918951890411" lon="7.842479069789272"><ele>49.0</ele><time>2026-04-07T17:53:25.001Z</time></trkpt><trkpt lat="33.929012923158865" lon="7.842621160684798"><ele>49.0</ele><time>2026-04-07T17:53:26.001Z</time></trkpt><trkpt lat="33.928841313750844" lon="7.842769425827937"><ele>49.0</ele><time>2026-04-07T17:53:27.001Z</time></trkpt><trkpt lat="33.92867326490727" lon="7.8429212553040495"><ele>49.0</ele><time>2026-04-07T17:53:28.001Z</time></trkpt><trkpt lat="33.92850895507378" lon="7.843079253119417"><ele>49.0</ele><time>2026-04-07T17:53:29.001Z</time></trkpt><trkpt lat="33.92835160997201" lon="7.843243116576415"><ele>49.0</ele><time>2026-04-07T17:53:30.001Z</time></trkpt><trkpt lat="33.928199288878325" lon="7.843413097667254"><ele>49.0</ele><time>2026-04-07T17:53:31.001Z</time></trkpt><trkpt lat="33.92805298158428" lon="7.843583547357898"><ele>49.0</ele><time>2026-04-07T17:53:32.001Z</time></trkpt><trkpt lat="33.92790897445513" lon="7.843748941305597"><ele>48.0</ele><time>2026-04-07T17:53:33.001Z</time></trkpt><trkpt lat="33.92776405996003" lon="7.843907311713589"><ele>47.0</ele><time>2026-04-07T17:53:34.001Z</time></trkpt><trkpt lat="33.93508643432775" lon="7.84011122079765"><ele>44.0</ele><time>2026-04-07T17:52:55Z</time></trkpt><trkpt lat="33.934878050716996" lon="7.840139537338392"><ele>41.0</ele><time>2026-04-07T17:52:56Z</time></trkpt><trkpt lat="33.93466505411166" lon="7.840153482556943"><ele>38.0</ele><time>2026-04-07T17:52:57Z</time></trkpt><trkpt lat="33.93445469460619" lon="7.840157862058122"><ele>38.0</ele><time>2026-04-07T17:52:58.001Z</time></trkpt><trkpt lat="33.93424174568212" lon="7.840178779568158"><ele>38.0</ele><time>2026-04-07T17:52:59.001Z</time></trkpt><trkpt lat="33.934036863234205" lon="7.84022718223151"><ele>38.0</ele><time>2026-04-07T17:53:00.001Z</time></trkpt><trkpt lat="33.93383666314321" lon="7.840303196759025"><ele>39.666666666666664</ele><time>2026-04-07T17:53:01.001Z</time></trkpt><trkpt lat="33.933641508927714" lon="7.840409395861989"><ele>41.333333333333336</ele><time>2026-04-07T17:53:02.001Z</time></trkpt><trkpt lat="33.9334576472341" lon="7.840529931649319"><ele>43.0</ele><time>2026-04-07T17:53:03.001Z</time></trkpt><trkpt lat="33.93327087451378" lon="7.840650834071998"><ele>43.333333333333336</ele><time>2026-04-07T17:53:04.001Z</time></trkpt><trkpt lat="33.933084184623524" lon="7.8407610480297985"><ele>43.666666666666664</ele><time>2026-04-07T17:53:05.001Z</time></trkpt><trkpt lat="33.93289296896664" lon="7.8408586547211545"><ele>44.0</ele><time>2026-04-07T17:53:06.001Z</time></trkpt><trkpt lat="33.93269681226085" lon="7.840934924420142"><ele>45.33333333333333</ele><time>2026-04-07T17:53:07.001Z</time></trkpt><trkpt lat="33.93249428982514" lon="7.840981370726286"><ele>46.666666666666664</ele><time>2026-04-07T17:53:08.001Z</time></trkpt><trkpt lat="33.93229342113435" lon="7.841009291417291"><ele>48.0</ele><time>2026-04-07T17:53:09.001Z</time></trkpt><trkpt lat="33.93208991238173" lon="7.841023621787728"><ele>48.0</ele><time>2026-04-07T17:53:10.001Z</time></trkpt><trkpt lat="33.931889407911086" lon="7.841053064922785"><ele>48.0</ele><time>2026-04-07T17:53:11.001Z</time></trkpt><trkpt lat="33.93169056327594" lon="7.84111238095717"><ele>48.0</ele><time>2026-04-07T17:53:12.001Z</time></trkpt><trkpt lat="33.93149579788233" lon="7.8412023747018065"><ele>48.33333333333333</ele><time>2026-04-07T17:53:13.001Z</time></trkpt><trkpt lat="33.931304530868424" lon="7.84131182113148"><ele>48.666666666666664</ele><time>2026-04-07T17:53:14.001Z</time></trkpt><trkpt lat="33.93111580076009" lon="7.841428830628524"><ele>49.0</ele><time>2026-04-07T17:53:15.001Z</time></trkpt><trkpt lat="33.93092614751091" lon="7.841539374140165"><ele>48.666666666666664</ele><time>2026-04-07T17:53:16.001Z</time></trkpt><trkpt lat="33.93073347002247" lon="7.84163897639443"><ele>48.33333333333333</ele><time>2026-04-07T17:53:17.001Z</time></trkpt><trkpt lat="33.93053361527398" lon="7.84171926627386"><ele>48.0</ele><time>2026-04-07T17:53:18.001Z</time></trkpt><trkpt lat="33.93032838781591" lon="7.841784560644945"><ele>48.33333333333333</ele><time>2026-04-07T17:53:19.001Z</time></trkpt><trkpt lat="33.93012640359233" lon="7.841858555676293"><ele>48.666666666666664</ele><time>2026-04-07T17:53:20.001Z</time></trkpt><trkpt lat="33.92992867344228" lon="7.841959244477275"><ele>49.0</ele><time>2026-04-07T17:53:21.001Z</time></trkpt><trkpt lat="33.929738450526415" lon="7.842081162492881"><ele>49.0</ele><time>2026-04-07T17:53:22.001Z</time></trkpt><trkpt lat="33.92955363183559" lon="7.842211882615007"><ele>49.0</ele><time>2026-04-07T17:53:23.001Z</time></trkpt><trkpt lat="33.92937043622986" lon="7.8423430317047265"><ele>49.0</ele><time>2026-04-07T17:53:24.001Z</time></trkpt><trkpt lat="33.92918951890411" lon="7.842479069789272"><ele>49.0</ele><time>2026-04-07T17:53:25.001Z</time></trkpt><trkpt lat="33.929012923158865" lon="7.842621160684798"><ele>49.0</ele><time>2026-04-07T17:53:26.001Z</time></trkpt><trkpt lat="33.928841313750844" lon="7.842769425827937"><ele>49.0</ele><time>2026-04-07T17:53:27.001Z</time></trkpt><trkpt lat="33.92867326490727" lon="7.8429212553040495"><ele>49.0</ele><time>2026-04-07T17:53:28.001Z</time></trkpt><trkpt lat="33.92850895507378" lon="7.843079253119417"><ele>49.0</ele><time>2026-04-07T17:53:29.001Z</time></trkpt><trkpt lat="33.92835160997201" lon="7.843243116576415"><ele>49.0</ele><time>2026-04-07T17:53:30.001Z</time></trkpt><trkpt lat="33.928199288878325" lon="7.843413097667254"><ele>48.33333333333333</ele><time>2026-04-07T17:53:31.001Z</time></trkpt><trkpt lat="33.92805298158428" lon="7.843583547357898"><ele>47.666666666666664</ele><time>2026-04-07T17:53:32.001Z</time></trkpt><trkpt lat="33.92790897445513" lon="7.843748941305597"><ele>47.0</ele><time>2026-04-07T17:53:33.001Z</time></trkpt><trkpt lat="33.92776405996003" lon="7.843907311713589"><ele>47.0</ele><time>2026-04-07T17:53:34.001Z</time></trkpt><trkpt lat="33.92761023210282" lon="7.844043226297642"><ele>47.0</ele><time>2026-04-07T17:53:35.001Z</time></trkpt><trkpt lat="33.927445203286176" lon="7.844151742881249"><ele>47.0</ele><time>2026-04-07T17:53:36.001Z</time></trkpt><trkpt lat="33.927271781745695" lon="7.844238587406584"><ele>46.33333333333333</ele><time>2026-04-07T17:53:37.001Z</time></trkpt><trkpt lat="33.9270942152773" lon="7.844307836197532"><ele>45.666666666666664</ele><time>2026-04-07T17:53:38.001Z</time></trkpt><trkpt lat="33.92690517047605" lon="7.844362657477074"><ele>45.0</ele><time>2026-04-07T17:53:39.001Z</time></trkpt><trkpt lat="33.926710666231834" lon="7.844395637867627"><ele>45.0</ele><time>2026-04-07T17:53:40.001Z</time></trkpt><trkpt lat="33.92651021984431" lon="7.844404365239735"><ele>45.0</ele><time>2026-04-07T17:53:41.001Z</time></trkpt><trkpt lat="33.92630621112503" lon="7.844395077044126"><ele>45.0</ele><time>2026-04-07T17:53:42.001Z</time></trkpt><trkpt lat="33.926096877278724" lon="7.844372599775794"><ele>44.666666666666664</ele><time>2026-04-07T17:53:43.001Z</time></trkpt><trkpt lat="33.925890102801134" lon="7.844352653345235"><ele>44.33333333333333</ele><time>2026-04-07T17:53:44.001Z</time></trkpt><trkpt lat="33.925680836073646" lon="7.844336442398774"><ele>44.0</ele><time>2026-04-07T17:53:45.001Z</time></trkpt><trkpt lat="33.925472547373616" lon="7.84432078640038"><ele>44.0</ele><time>2026-04-07T17:53:46.001Z</time></trkpt><trkpt lat="33.925267667074024" lon="7.84430021809054"><ele>44.0</ele><time>2026-04-07T17:53:47.001Z</time></trkpt><trkpt lat="33.925067995511725" lon="7.844281190137584"><ele>44.0</ele><time>2026-04-07T17:53:48.001Z</time></trkpt><trkpt lat="33.92487174690338" lon="7.844266849064168"><ele>43.666666666666664</ele><time>2026-04-07T17:53:49.001Z</time></trkpt><trkpt lat="33.92467842224427" lon="7.844276457353524"><ele>43.333333333333336</ele><time>2026-04-07T17:53:50.001Z</time></trkpt><trkpt lat="33.92449259036098" lon="7.844304435880315"><ele>43.0</ele><time>2026-04-07T17:53:51.001Z</time></trkpt><trkpt lat="33.92431141072075" lon="7.844330436372126"><ele>42.66666666666667</ele><time>2026-04-07T17:53:52.001Z</time></trkpt><trkpt lat="33.92412964453093" lon="7.844353814344358"><ele>42.333333333333336</ele><time>2026-04-07T17:53:53.001Z</time></trkpt><trkpt lat="33.92394859396804" lon="7.844381215296842"><ele>42.0</ele><time>2026-04-07T17:53:54.001Z</time></trkpt><trkpt lat="33.923770053195014" lon="7.844418372222127"><ele>42.0</ele><time>2026-04-07T17:53:55.001Z</time></trkpt><trkpt lat="33.92359400415492" lon="7.844471816524244"><ele>42.0</ele><time>2026-04-07T17:53:56.001Z</time></trkpt><trkpt lat="33.923424198244426" lon="7.84452248565458"><ele>42.0</ele><time>2026-04-07T17:53:57.001Z</time></trkpt><trkpt lat="33.923261982460275" lon="7.844579480994097"><ele>41.333333333333336</ele><time>2026-04-07T17:53:58.001Z</time></trkpt><trkpt lat="33.923104164620916" lon="7.844648799451178"><ele>40.66666666666667</ele><time>2026-04-07T17:53:59.001Z</time></trkpt><trkpt lat="33.92294793981215" lon="7.844717450785207"><ele>40.0</ele><time>2026-04-07T17:54:00.001Z</time></trkpt><trkpt lat="33.92279066662331" lon="7.844791355639653"><ele>40.0</ele><time>2026-04-07T17:54:01.001Z</time></trkpt><trkpt lat="33.92263331507234" lon="7.844872946035685"><ele>40.0</ele><time>2026-04-07T17:54:02.001Z</time></trkpt><trkpt lat="33.92248200100372" lon="7.84496103667518"><ele>40.0</ele><time>2026-04-07T17:54:03.001Z</time></trkpt><trkpt lat="33.922333856646105" lon="7.8450487938340885"><ele>39.66666666666667</ele><time>2026-04-07T17:54:04.001Z</time></trkpt><trkpt lat="33.92218393365221" lon="7.845135957310564"><ele>39.333333333333336</ele><time>2026-04-07T17:54:05.001Z</time></trkpt><trkpt lat="33.92203118439819" lon="7.845223720900041"><ele>39.0</ele><time>2026-04-07T17:54:06.001Z</time></trkpt><trkpt lat="33.92187422102408" lon="7.845311153682892"><ele>38.666666666666664</ele><time>2026-04-07T17:54:07.001Z</time></trkpt><trkpt lat="33.92171543115762" lon="7.845395355081639"><ele>38.33333333333333</ele><time>2026-04-07T17:54:08.001Z</time></trkpt><trkpt lat="33.92155869009178" lon="7.845482668718774"><ele>38.0</ele><time>2026-04-07T17:54:09.001Z</time></trkpt><trkpt lat="33.92140679957759" lon="7.845569797609781"><ele>38.0</ele><time>2026-04-07T17:54:10.001Z</time></trkpt><trkpt lat="33.92126238203417" lon="7.845667285479592"><ele>38.0</ele><time>2026-04-07T17:54:11.001Z</time></trkpt><trkpt lat="33.921132528153386" lon="7.845781361365643"><ele>38.0</ele><time>2026-04-07T17:54:12Z</time></trkpt><trkpt lat="33.92101778056909" lon="7.845912316533361"><ele>38.0</ele><time>2026-04-07T17:54:13Z</time></trkpt><trkpt lat="33.920916279213145" lon="7.846064793660569"><ele>38.0</ele><time>2026-04-07T17:54:14Z</time></trkpt><trkpt lat="33.92082632206944" lon="7.846232694369125"><ele>38.0</ele><time>2026-04-07T17:54:15Z</time></trkpt><trkpt lat="33.92073992942601" lon="7.846405825713235"><ele>38.666666666666664</ele><time>2026-04-07T17:54:16Z</time></trkpt><trkpt lat="33.92065084731469" lon="7.846577134748226"><ele>39.333333333333336</ele><time>2026-04-07T17:54:17Z</time></trkpt><trkpt lat="33.920565135464905" lon="7.84674898001255"><ele>40.0</ele><time>2026-04-07T17:54:18Z</time></trkpt><trkpt lat="33.92048050953789" lon="7.8469246898876435"><ele>40.0</ele><time>2026-04-07T17:54:19Z</time></trkpt><trkpt lat="33.92039646311178" lon="7.847104494850673"><ele>40.0</ele><time>2026-04-07T17:54:20Z</time></trkpt><trkpt lat="33.92031192506619" lon="7.847284191241766"><ele>40.0</ele><time>2026-04-07T17:54:21Z</time></trkpt><trkpt lat="33.92021937426975" lon="7.847463772450126"><ele>40.0</ele><time>2026-04-07T17:54:22Z</time></trkpt><trkpt lat="33.92013007545852" lon="7.847644936563438"><ele>40.0</ele><time>2026-04-07T17:54:23Z</time></trkpt><trkpt lat="33.920044835171346" lon="7.847829752034254"><ele>40.0</ele><time>2026-04-07T17:54:24Z</time></trkpt><trkpt lat="33.919963334377755" lon="7.848012426703647"><ele>40.0</ele><time>2026-04-07T17:54:25Z</time></trkpt><trkpt lat="33.91988677792028" lon="7.84819292715518"><ele>40.0</ele><time>2026-04-07T17:54:26Z</time></trkpt><trkpt lat="33.91981049559688" lon="7.848372793172137"><ele>40.0</ele><time>2026-04-07T17:54:27Z</time></trkpt><trkpt lat="33.91973567295893" lon="7.8485485922564635"><ele>39.0</ele><time>2026-04-07T17:54:28Z</time></trkpt><trkpt lat="33.91965194111732" lon="7.8487201306785686"><ele>38.0</ele><time>2026-04-07T17:54:29Z</time></trkpt><trkpt lat="33.91955317275154" lon="7.8488774262972685"><ele>37.0</ele><time>2026-04-07T17:54:30Z</time></trkpt><trkpt lat="33.919447760904006" lon="7.849028769565562"><ele>37.0</ele><time>2026-04-07T17:54:31Z</time></trkpt><trkpt lat="33.91930775481577" lon="7.849146434465884"><ele>37.0</ele><time>2026-04-07T17:54:32Z</time></trkpt><trkpt lat="33.91915484097219" lon="7.849234734807355"><ele>37.0</ele><time>2026-04-07T17:54:33Z</time></trkpt><trkpt lat="33.918982729403524" lon="7.849290048133263"><ele>38.0</ele><time>2026-04-07T17:54:34Z</time></trkpt><trkpt lat="33.91881476632746" lon="7.849350158888252"><ele>39.0</ele><time>2026-04-07T17:54:35Z</time></trkpt><trkpt lat="33.91864950066501" lon="7.8494310896099035"><ele>40.0</ele><time>2026-04-07T17:54:36Z</time></trkpt><trkpt lat="33.91849135282707" lon="7.849535546421131"><ele>40.66666666666667</ele><time>2026-04-07T17:54:37Z</time></trkpt><trkpt lat="33.918340405296625" lon="7.849666219416755"><ele>41.333333333333336</ele><time>2026-04-07T17:54:38Z</time></trkpt><trkpt lat="33.91820235456398" lon="7.849816265315045"><ele>42.0</ele><time>2026-04-07T17:54:39Z</time></trkpt><trkpt lat="33.91807531321857" lon="7.84998131424963"><ele>42.0</ele><time>2026-04-07T17:54:40Z</time></trkpt><trkpt lat="33.9179469211875" lon="7.850150284717724"><ele>42.0</ele><time>2026-04-07T17:54:41Z</time></trkpt><trkpt lat="33.91781198569538" lon="7.85031636010876"><ele>42.0</ele><time>2026-04-07T17:54:42Z</time></trkpt><trkpt lat="33.91767295098652" lon="7.850484289388244"><ele>42.0</ele><time>2026-04-07T17:54:43Z</time></trkpt><trkpt lat="33.91753800422148" lon="7.850659741571728"><ele>42.0</ele><time>2026-04-07T17:54:44Z</time></trkpt><trkpt lat="33.91740680923558" lon="7.850841663983608"><ele>42.0</ele><time>2026-04-07T17:54:45Z</time></trkpt><trkpt lat="33.9172782734898" lon="7.8510267737819595"><ele>42.0</ele><time>2026-04-07T17:54:46Z</time></trkpt><trkpt lat="33.91715121986367" lon="7.851210302264204"><ele>42.0</ele><time>2026-04-07T17:54:47Z</time></trkpt><trkpt lat="33.91702575549691" lon="7.851395931898752"><ele>42.0</ele><time>2026-04-07T17:54:48Z</time></trkpt><trkpt lat="33.91689909542203" lon="7.851586075919103"><ele>42.0</ele><time>2026-04-07T17:54:49Z</time></trkpt><trkpt lat="33.916771548981934" lon="7.851780356765835"><ele>42.0</ele><time>2026-04-07T17:54:50Z</time></trkpt><trkpt lat="33.91663902571001" lon="7.851976087762586"><ele>42.0</ele><time>2026-04-07T17:54:51Z</time></trkpt><trkpt lat="33.91650627256709" lon="7.8521732902192625"><ele>41.333333333333336</ele><time>2026-04-07T17:54:52Z</time></trkpt><trkpt lat="33.91637138824977" lon="7.852371321277033"><ele>40.66666666666667</ele><time>2026-04-07T17:54:53Z</time></trkpt><trkpt lat="33.91623498021947" lon="7.852570603053579"><ele>40.0</ele><time>2026-04-07T17:54:54Z</time></trkpt><trkpt lat="33.916098550184074" lon="7.852768846107707"><ele>41.333333333333336</ele><time>2026-04-07T17:54:55Z</time></trkpt><trkpt lat="33.91596188901578" lon="7.852964581721453"><ele>42.666666666666664</ele><time>2026-04-07T17:54:56.001Z</time></trkpt><trkpt lat="33.915822804609974" lon="7.853155677037745"><ele>44.0</ele><time>2026-04-07T17:54:57.001Z</time></trkpt><trkpt lat="33.9156820032825" lon="7.853343255349743"><ele>45.33333333333333</ele><time>2026-04-07T17:54:58.001Z</time></trkpt><trkpt lat="33.91553548690145" lon="7.853529585749215"><ele>46.666666666666664</ele><time>2026-04-07T17:54:59.001Z</time></trkpt><trkpt lat="33.91538443690708" lon="7.853712599997057"><ele>48.0</ele><time>2026-04-07T17:55:00.001Z</time></trkpt><trkpt lat="33.91522853118075" lon="7.853884316706984"><ele>49.0</ele><time>2026-04-07T17:55:01.001Z</time></trkpt><trkpt lat="33.91506751538382" lon="7.85405051674459"><ele>50.0</ele><time>2026-04-07T17:55:02.001Z</time></trkpt><trkpt lat="33.91490088878325" lon="7.854216353636623"><ele>51.0</ele><time>2026-04-07T17:55:03.001Z</time></trkpt><trkpt lat="33.91473380769038" lon="7.8543799318641465"><ele>51.33333333333333</ele><time>2026-04-07T17:55:04.001Z</time></trkpt><trkpt lat="33.914561270994504" lon="7.854537005492904"><ele>51.666666666666664</ele><time>2026-04-07T17:55:05.001Z</time></trkpt><trkpt lat="33.91438570667433" lon="7.854685206666989"><ele>52.0</ele><time>2026-04-07T17:55:06.001Z</time></trkpt><trkpt lat="33.914207324460186" lon="7.854828020054032"><ele>52.0</ele><time>2026-04-07T17:55:07.001Z</time></trkpt><trkpt lat="33.91402941544332" lon="7.85497139925216"><ele>52.0</ele><time>2026-04-07T17:55:08.001Z</time></trkpt><trkpt lat="33.91385195790379" lon="7.855118801004302"><ele>52.0</ele><time>2026-04-07T17:55:09.001Z</time></trkpt><trkpt lat="33.91368080301063" lon="7.855280134603892"><ele>53.0</ele><time>2026-04-07T17:55:10.001Z</time></trkpt><trkpt lat="33.91351833417001" lon="7.855456470975892"><ele>54.0</ele><time>2026-04-07T17:55:11.001Z</time></trkpt><trkpt lat="33.91336071987231" lon="7.855638442422691"><ele>55.0</ele><time>2026-04-07T17:55:12.001Z</time></trkpt><trkpt lat="33.91320756380161" lon="7.855823996846621"><ele>57.0</ele><time>2026-04-07T17:55:13.001Z</time></trkpt><trkpt lat="33.91306039113668" lon="7.856012174265808"><ele>59.0</ele><time>2026-04-07T17:55:14.001Z</time></trkpt><trkpt lat="33.9129161867751" lon="7.85619945169503"><ele>61.0</ele><time>2026-04-07T17:55:15.001Z</time></trkpt><trkpt lat="33.912769576979876" lon="7.856383881743511"><ele>61.0</ele><time>2026-04-07T17:55:16.001Z</time></trkpt><trkpt lat="33.9126245991709" lon="7.856566691852286"><ele>61.0</ele><time>2026-04-07T17:55:17.001Z</time></trkpt><trkpt lat="33.91248070580075" lon="7.856748480203248"><ele>61.0</ele><time>2026-04-07T17:55:18.001Z</time></trkpt><trkpt lat="33.91233925706826" lon="7.85693123203314"><ele>62.0</ele><time>2026-04-07T17:55:19.001Z</time></trkpt><trkpt lat="33.91219873085885" lon="7.857115658976865"><ele>63.0</ele><time>2026-04-07T17:55:20.001Z</time></trkpt><trkpt lat="33.912058706688114" lon="7.857300410444366"><ele>64.0</ele><time>2026-04-07T17:55:21.001Z</time></trkpt><trkpt lat="33.911919939060155" lon="7.857484143083297"><ele>65.0</ele><time>2026-04-07T17:55:22.001Z</time></trkpt><trkpt lat="33.911781372343484" lon="7.857666121171416"><ele>66.0</ele><time>2026-04-07T17:55:23.001Z</time></trkpt><trkpt lat="33.9116455059584" lon="7.857847432833198"><ele>67.0</ele><time>2026-04-07T17:55:24.001Z</time></trkpt><trkpt lat="33.91150919396114" lon="7.858028976583229"><ele>67.66666666666666</ele><time>2026-04-07T17:55:25.001Z</time></trkpt><trkpt lat="33.91137433294674" lon="7.858210338825217"><ele>68.33333333333333</ele><time>2026-04-07T17:55:26.001Z</time></trkpt><trkpt lat="33.911238131246606" lon="7.858389299786593"><ele>69.0</ele><time>2026-04-07T17:55:27.001Z</time></trkpt><trkpt lat="33.91110090723887" lon="7.858565216198202"><ele>70.33333333333333</ele><time>2026-04-07T17:55:28.001Z</time></trkpt><trkpt lat="33.9109572434682" lon="7.858733412511722"><ele>71.66666666666666</ele><time>2026-04-07T17:55:29.001Z</time></trkpt><trkpt lat="33.910801481324825" lon="7.858881368510316"><ele>73.0</ele><time>2026-04-07T17:55:30.001Z</time></trkpt><trkpt lat="33.91063291688837" lon="7.859015015529223"><ele>74.0</ele><time>2026-04-07T17:55:31.001Z</time></trkpt><trkpt lat="33.9104618336239" lon="7.859145908234427"><ele>75.0</ele><time>2026-04-07T17:55:32.001Z</time></trkpt><trkpt lat="33.910289135043435" lon="7.85927285578763"><ele>76.0</ele><time>2026-04-07T17:55:33.001Z</time></trkpt><trkpt lat="33.910114280831394" lon="7.859398206200221"><ele>76.0</ele><time>2026-04-07T17:55:34.001Z</time></trkpt><trkpt lat="33.90993720203968" lon="7.859523209713171"><ele>76.0</ele><time>2026-04-07T17:55:35.001Z</time></trkpt><trkpt lat="33.90975879687956" lon="7.859649082092009"><ele>76.0</ele><time>2026-04-07T17:55:36.001Z</time></trkpt><trkpt lat="33.90958069528167" lon="7.8597782776414675"><ele>76.0</ele><time>2026-04-07T17:55:37.001Z</time></trkpt><trkpt lat="33.90940187765111" lon="7.859910598865871"><ele>76.0</ele><time>2026-04-07T17:55:38.001Z</time></trkpt><trkpt lat="33.90921916131647" lon="7.86004450873957"><ele>76.0</ele><time>2026-04-07T17:55:39.001Z</time></trkpt><trkpt lat="33.909033280087435" lon="7.860178972243636"><ele>77.0</ele><time>2026-04-07T17:55:40.001Z</time></trkpt><trkpt lat="33.9088450231683" lon="7.860317760290439"><ele>78.0</ele><time>2026-04-07T17:55:41.001Z</time></trkpt><trkpt lat="33.908656792818014" lon="7.860458463169467"><ele>79.0</ele><time>2026-04-07T17:55:42.001Z</time></trkpt><trkpt lat="33.90846694935803" lon="7.860598290814748"><ele>79.0</ele><time>2026-04-07T17:55:43.001Z</time></trkpt><trkpt lat="33.90827566623104" lon="7.860736347704633"><ele>79.0</ele><time>2026-04-07T17:55:44.001Z</time></trkpt><trkpt lat="33.90808166220655" lon="7.860870974174426"><ele>79.0</ele><time>2026-04-07T17:55:45.001Z</time></trkpt><trkpt lat="33.90788629843371" lon="7.861005636207985"><ele>79.33333333333333</ele><time>2026-04-07T17:55:46.001Z</time></trkpt><trkpt lat="33.90769144674373" lon="7.861136075402493"><ele>79.66666666666667</ele><time>2026-04-07T17:55:47.001Z</time></trkpt><trkpt lat="33.907494225582056" lon="7.861263287270779"><ele>80.0</ele><time>2026-04-07T17:55:48.001Z</time></trkpt><trkpt lat="33.907296799675024" lon="7.861387778339752"><ele>80.0</ele><time>2026-04-07T17:55:49.001Z</time></trkpt><trkpt lat="33.907098319785156" lon="7.861509113989173"><ele>80.0</ele><time>2026-04-07T17:55:50.001Z</time></trkpt><trkpt lat="33.906900491188416" lon="7.861632137747306"><ele>80.0</ele><time>2026-04-07T17:55:51.001Z</time></trkpt><trkpt lat="33.90670410200561" lon="7.861756324962319"><ele>80.66666666666667</ele><time>2026-04-07T17:55:52.001Z</time></trkpt><trkpt lat="33.90650620457405" lon="7.861881964767275"><ele>81.33333333333333</ele><time>2026-04-07T17:55:53.001Z</time></trkpt><trkpt lat="33.9063083124165" lon="7.862006481386248"><ele>82.0</ele><time>2026-04-07T17:55:54.001Z</time></trkpt><trkpt lat="33.90611023067941" lon="7.862130009734097"><ele>82.0</ele><time>2026-04-07T17:55:55.001Z</time></trkpt><trkpt lat="33.90591320172386" lon="7.862253182697183"><ele>82.0</ele><time>2026-04-07T17:55:56.001Z</time></trkpt><trkpt lat="33.90571877601528" lon="7.86237536430877"><ele>82.0</ele><time>2026-04-07T17:55:57.001Z</time></trkpt><trkpt lat="33.90552549390255" lon="7.8624997412253155"><ele>82.33333333333333</ele><time>2026-04-07T17:55:58.001Z</time></trkpt><trkpt lat="33.905332671918075" lon="7.862619370444056"><ele>82.66666666666667</ele><time>2026-04-07T17:55:59.001Z</time></trkpt><trkpt lat="33.905140226885315" lon="7.862736034552683"><ele>83.0</ele><time>2026-04-07T17:56:00.001Z</time></trkpt><trkpt lat="33.904948619753036" lon="7.86284757634695"><ele>83.0</ele><time>2026-04-07T17:56:01.001Z</time></trkpt><trkpt lat="33.90475736260427" lon="7.862952713653116"><ele>83.0</ele><time>2026-04-07T17:56:02.001Z</time></trkpt><trkpt lat="33.904560969861805" lon="7.863051157424926"><ele>83.0</ele><time>2026-04-07T17:56:03.001Z</time></trkpt><trkpt lat="33.90436067407041" lon="7.863140938289786"><ele>82.66666666666667</ele><time>2026-04-07T17:56:04.001Z</time></trkpt><trkpt lat="33.90415346660117" lon="7.863216135142921"><ele>82.33333333333333</ele><time>2026-04-07T17:56:05.001Z</time></trkpt><trkpt lat="33.90394014054535" lon="7.863269484375876"><ele>82.0</ele><time>2026-04-07T17:56:06.001Z</time></trkpt><trkpt lat="33.90372396943444" lon="7.863305960187886"><ele>82.0</ele><time>2026-04-07T17:56:07.001Z</time></trkpt><trkpt lat="33.903504755202235" lon="7.86333046986824"><ele>82.0</ele><time>2026-04-07T17:56:08.001Z</time></trkpt><trkpt lat="33.90328408894931" lon="7.863359887728848"><ele>82.0</ele><time>2026-04-07T17:56:09.001Z</time></trkpt><trkpt lat="33.90306564413156" lon="7.863411909504688"><ele>82.0</ele><time>2026-04-07T17:56:10.001Z</time></trkpt><trkpt lat="33.90285110938607" lon="7.86348395664543"><ele>82.0</ele><time>2026-04-07T17:56:11.001Z</time></trkpt><trkpt lat="33.90264141624858" lon="7.863574559784759"><ele>82.0</ele><time>2026-04-07T17:56:12.001Z</time></trkpt><trkpt lat="33.90242938343092" lon="7.863665770195816"><ele>82.5</ele><time>2026-04-07T17:56:13.002Z</time></trkpt><trkpt lat="33.902215260858085" lon="7.863753378965438"><ele>83.0</ele><time>2026-04-07T17:56:14.002Z</time></trkpt><trkpt lat="33.902000837754166" lon="7.8638382921081345"><ele>83.0</ele><time>2026-04-07T17:56:15.002Z</time></trkpt><trkpt lat="33.901785973247634" lon="7.863931699084347"><ele>83.0</ele><time>2026-04-07T17:56:16.002Z</time></trkpt><trkpt lat="33.90157435804938" lon="7.864026286030422"><ele>83.0</ele><time>2026-04-07T17:56:17Z</time></trkpt><trkpt lat="33.901362979997195" lon="7.864126016228348"><ele>83.0</ele><time>2026-04-07T17:56:18Z</time></trkpt><trkpt lat="33.90115445626258" lon="7.864230074909242"><ele>83.0</ele><time>2026-04-07T17:56:19Z</time></trkpt><trkpt lat="33.90094796610941" lon="7.864331593493598"><ele>83.0</ele><time>2026-04-07T17:56:20Z</time></trkpt><trkpt lat="33.90074449264854" lon="7.864429595201576"><ele>83.0</ele><time>2026-04-07T17:56:21Z</time></trkpt><trkpt lat="33.900539500280786" lon="7.864508150293168"><ele>83.0</ele><time>2026-04-07T17:56:22Z</time></trkpt><trkpt lat="33.900331872833824" lon="7.864552654461519"><ele>83.0</ele><time>2026-04-07T17:56:23Z</time></trkpt><trkpt lat="33.90012031069849" lon="7.864576328589011"><ele>83.0</ele><time>2026-04-07T17:56:24Z</time></trkpt><trkpt lat="33.8999090315628" lon="7.864602176366968"><ele>83.0</ele><time>2026-04-07T17:56:25Z</time></trkpt><trkpt lat="33.89969762154297" lon="7.864638948249786"><ele>83.0</ele><time>2026-04-07T17:56:26Z</time></trkpt><trkpt lat="33.89948612808688" lon="7.864688237915105"><ele>83.0</ele><time>2026-04-07T17:56:27Z</time></trkpt><trkpt lat="33.89927467699551" lon="7.864750646219807"><ele>82.66666666666667</ele><time>2026-04-07T17:56:28Z</time></trkpt><trkpt lat="33.89906979628315" lon="7.864824069959552"><ele>82.33333333333333</ele><time>2026-04-07T17:56:29Z</time></trkpt><trkpt lat="33.89886635869171" lon="7.864899293107517"><ele>82.0</ele><time>2026-04-07T17:56:30Z</time></trkpt><trkpt lat="33.89867051845459" lon="7.864976061847316"><ele>82.0</ele><time>2026-04-07T17:56:31Z</time></trkpt><trkpt lat="33.89847556959461" lon="7.865049386042935"><ele>82.0</ele><time>2026-04-07T17:56:32Z</time></trkpt><trkpt lat="33.89827896226854" lon="7.865118420088584"><ele>82.0</ele><time>2026-04-07T17:56:33Z</time></trkpt><trkpt lat="33.89807817129261" lon="7.86518226756769"><ele>83.0</ele><time>2026-04-07T17:56:34Z</time></trkpt><trkpt lat="33.89787324341972" lon="7.865227665247474"><ele>84.0</ele><time>2026-04-07T17:56:35Z</time></trkpt><trkpt lat="33.897664961133394" lon="7.865252604693838"><ele>85.0</ele><time>2026-04-07T17:56:36Z</time></trkpt><trkpt lat="33.89745486852775" lon="7.865254293281919"><ele>86.33333333333333</ele><time>2026-04-07T17:56:37Z</time></trkpt><trkpt lat="33.89724336878821" lon="7.865240748828528"><ele>87.66666666666667</ele><time>2026-04-07T17:56:38Z</time></trkpt><trkpt lat="33.8970322332812" lon="7.865224549472403"><ele>89.0</ele><time>2026-04-07T17:56:39.001Z</time></trkpt><trkpt lat="33.89682073775316" lon="7.865228960038275"><ele>88.66666666666667</ele><time>2026-04-07T17:56:40.001Z</time></trkpt><trkpt lat="33.89661070249274" lon="7.865262564055745"><ele>88.33333333333333</ele><time>2026-04-07T17:56:41.001Z</time></trkpt><trkpt lat="33.8964001833701" lon="7.86532825631914"><ele>88.0</ele><time>2026-04-07T17:56:42.001Z</time></trkpt><trkpt lat="33.896194688722694" lon="7.865404548219744"><ele>88.0</ele><time>2026-04-07T17:56:43.001Z</time></trkpt><trkpt lat="33.895990815134354" lon="7.865492953509949"><ele>88.0</ele><time>2026-04-07T17:56:44.001Z</time></trkpt><trkpt lat="33.895789087272234" lon="7.865586919228934"><ele>88.0</ele><time>2026-04-07T17:56:45.001Z</time></trkpt><trkpt lat="33.89558419271529" lon="7.8656767698037475"><ele>88.33333333333333</ele><time>2026-04-07T17:56:46.001Z</time></trkpt><trkpt lat="33.895375271205054" lon="7.865747216949131"><ele>88.66666666666667</ele><time>2026-04-07T17:56:47.001Z</time></trkpt><trkpt lat="33.895160637382716" lon="7.865800763580901"><ele>89.0</ele><time>2026-04-07T17:56:48.001Z</time></trkpt><trkpt lat="33.89494806729683" lon="7.865857181520628"><ele>89.0</ele><time>2026-04-07T17:56:49.001Z</time></trkpt><trkpt lat="33.894737096466145" lon="7.865921914648837"><ele>89.0</ele><time>2026-04-07T17:56:50.001Z</time></trkpt><trkpt lat="33.89452683054828" lon="7.865995163564648"><ele>89.0</ele><time>2026-04-07T17:56:51.001Z</time></trkpt><trkpt lat="33.894317158903036" lon="7.866072953312343"><ele>90.0</ele><time>2026-04-07T17:56:52.001Z</time></trkpt><trkpt lat="33.89410877326001" lon="7.8661542771798105"><ele>91.0</ele><time>2026-04-07T17:56:53.001Z</time></trkpt><trkpt lat="33.89390333516525" lon="7.866239990309586"><ele>92.0</ele><time>2026-04-07T17:56:54.001Z</time></trkpt><trkpt lat="33.89370183596966" lon="7.8663324699515575"><ele>92.0</ele><time>2026-04-07T17:56:55.001Z</time></trkpt><trkpt lat="33.89350213970355" lon="7.866420215342093"><ele>92.0</ele><time>2026-04-07T17:56:56.001Z</time></trkpt><trkpt lat="33.893305352843115" lon="7.866503737780454"><ele>92.0</ele><time>2026-04-07T17:56:57.001Z</time></trkpt><trkpt lat="33.893107707949945" lon="7.866577361047453"><ele>91.33333333333334</ele><time>2026-04-07T17:56:58.001Z</time></trkpt><trkpt lat="33.89290935124369" lon="7.866631340313"><ele>90.66666666666667</ele><time>2026-04-07T17:56:59.001Z</time></trkpt><trkpt lat="33.89270811287383" lon="7.866669688280546"><ele>90.0</ele><time>2026-04-07T17:57:00.001Z</time></trkpt><trkpt lat="33.89250874719108" lon="7.866700110847814"><ele>91.33333333333333</ele><time>2026-04-07T17:57:01.001Z</time></trkpt><trkpt lat="33.892309465686694" lon="7.866720247580652"><ele>92.66666666666666</ele><time>2026-04-07T17:57:02.001Z</time></trkpt><trkpt lat="33.89211013869712" lon="7.86672574207788"><ele>94.0</ele><time>2026-04-07T17:57:03.001Z</time></trkpt><trkpt lat="33.891911215688275" lon="7.866706961526515"><ele>93.66666666666666</ele><time>2026-04-07T17:57:04.001Z</time></trkpt><trkpt lat="33.89171535354803" lon="7.866678044156506"><ele>93.33333333333333</ele><time>2026-04-07T17:57:05.001Z</time></trkpt><trkpt lat="33.891522426557614" lon="7.866645776194144"><ele>93.0</ele><time>2026-04-07T17:57:06.001Z</time></trkpt><trkpt lat="33.89133414631701" lon="7.8666072245822845"><ele>93.0</ele><time>2026-04-07T17:57:07.001Z</time></trkpt><trkpt lat="33.89115390414094" lon="7.866567592403585"><ele>93.0</ele><time>2026-04-07T17:57:08.001Z</time></trkpt><trkpt lat="33.89098262164568" lon="7.866532749221723"><ele>93.0</ele><time>2026-04-07T17:57:09.001Z</time></trkpt><trkpt lat="33.890821282123305" lon="7.866512345979639"><ele>92.0</ele><time>2026-04-07T17:57:10.001Z</time></trkpt><trkpt lat="33.890663132650495" lon="7.866508021031807"><ele>91.0</ele><time>2026-04-07T17:57:11.001Z</time></trkpt><trkpt lat="33.89050875598447" lon="7.866527147683004"><ele>90.0</ele><time>2026-04-07T17:57:12.001Z</time></trkpt><trkpt lat="33.89035629325838" lon="7.86657446029394"><ele>90.0</ele><time>2026-04-07T17:57:13.001Z</time></trkpt><trkpt lat="33.89021046458556" lon="7.866652232696931"><ele>90.0</ele><time>2026-04-07T17:57:14.001Z</time></trkpt><trkpt lat="33.890071650183984" lon="7.866750743914182"><ele>90.0</ele><time>2026-04-07T17:57:15.001Z</time></trkpt><trkpt lat="33.88993227396589" lon="7.866857231828833"><ele>90.33333333333333</ele><time>2026-04-07T17:57:16.001Z</time></trkpt><trkpt lat="33.889790234085936" lon="7.866965422172441"><ele>90.66666666666666</ele><time>2026-04-07T17:57:17.001Z</time></trkpt><trkpt lat="33.88964385518787" lon="7.867073264404298"><ele>91.0</ele><time>2026-04-07T17:57:18.001Z</time></trkpt><trkpt lat="33.88949219547758" lon="7.86717488976571"><ele>91.0</ele><time>2026-04-07T17:57:19.001Z</time></trkpt><trkpt lat="33.88933444480154" lon="7.8672724548184965"><ele>91.0</ele><time>2026-04-07T17:57:20.001Z</time></trkpt><trkpt lat="33.8891715712092" lon="7.867370835057982"><ele>91.0</ele><time>2026-04-07T17:57:21.001Z</time></trkpt><trkpt lat="33.889006317268276" lon="7.867470847460566"><ele>91.66666666666666</ele><time>2026-04-07T17:57:22.001Z</time></trkpt><trkpt lat="33.888838428001215" lon="7.867570473174861"><ele>92.33333333333333</ele><time>2026-04-07T17:57:23.001Z</time></trkpt><trkpt lat="33.888667536517424" lon="7.8676703990263634"><ele>93.0</ele><time>2026-04-07T17:57:24.001Z</time></trkpt><trkpt lat="33.88849175253551" lon="7.867770370121917"><ele>92.66666666666667</ele><time>2026-04-07T17:57:25.001Z</time></trkpt><trkpt lat="33.8883118539901" lon="7.867870518985573"><ele>92.33333333333334</ele><time>2026-04-07T17:57:26.001Z</time></trkpt><trkpt lat="33.88813269613822" lon="7.867969092434707"><ele>92.0</ele><time>2026-04-07T17:57:27.001Z</time></trkpt><trkpt lat="33.88795133549231" lon="7.868067607517114"><ele>92.0</ele><time>2026-04-07T17:57:28.001Z</time></trkpt><trkpt lat="33.88777003537632" lon="7.868166212433004"><ele>92.0</ele><time>2026-04-07T17:57:29.001Z</time></trkpt><trkpt lat="33.887588475011434" lon="7.868266046590884"><ele>92.0</ele><time>2026-04-07T17:57:30.001Z</time></trkpt><trkpt lat="33.88740793547965" lon="7.868363304335626"><ele>91.66666666666667</ele><time>2026-04-07T17:57:31.001Z</time></trkpt><trkpt lat="33.887228648646314" lon="7.868459855582693"><ele>91.33333333333333</ele><time>2026-04-07T17:57:32.001Z</time></trkpt><trkpt lat="33.887045732414855" lon="7.86855308219499"><ele>91.0</ele><time>2026-04-07T17:57:33.001Z</time></trkpt><trkpt lat="33.88686668074199" lon="7.868650216130219"><ele>90.33333333333333</ele><time>2026-04-07T17:57:34.001Z</time></trkpt><trkpt lat="33.88668952552623" lon="7.868749802213309"><ele>89.66666666666667</ele><time>2026-04-07T17:57:35.001Z</time></trkpt><trkpt lat="33.88651494888475" lon="7.868852320031831"><ele>89.0</ele><time>2026-04-07T17:57:36.001Z</time></trkpt><trkpt lat="33.88634405141831" lon="7.86896858643776"><ele>89.0</ele><time>2026-04-07T17:57:37.001Z</time></trkpt><trkpt lat="33.88617840522415" lon="7.869098403846755"><ele>89.0</ele><time>2026-04-07T17:57:38.001Z</time></trkpt><trkpt lat="33.88601761479197" lon="7.869242335071116"><ele>89.0</ele><time>2026-04-07T17:57:39.001Z</time></trkpt><trkpt lat="33.885862929840386" lon="7.869401902466857"><ele>90.66666666666667</ele><time>2026-04-07T17:57:40.001Z</time></trkpt><trkpt lat="33.88571789782657" lon="7.86957676552644"><ele>92.33333333333333</ele><time>2026-04-07T17:57:41.001Z</time></trkpt><trkpt lat="33.88558295422924" lon="7.869762485178974"><ele>94.0</ele><time>2026-04-07T17:57:42.001Z</time></trkpt><trkpt lat="33.885452262864085" lon="7.8699508261692195"><ele>94.66666666666666</ele><time>2026-04-07T17:57:43.001Z</time></trkpt><trkpt lat="33.88532279979354" lon="7.870135783217394"><ele>95.33333333333333</ele><time>2026-04-07T17:57:44.001Z</time></trkpt><trkpt lat="33.88519548762675" lon="7.870318212868407"><ele>96.0</ele><time>2026-04-07T17:57:45.001Z</time></trkpt><trkpt lat="33.885067174171034" lon="7.870497151014442"><ele>96.0</ele><time>2026-04-07T17:57:46.001Z</time></trkpt><trkpt lat="33.884943184929156" lon="7.870673499719744"><ele>96.0</ele><time>2026-04-07T17:57:47.001Z</time></trkpt><trkpt lat="33.884823682977434" lon="7.8708464715664155"><ele>96.0</ele><time>2026-04-07T17:57:48.001Z</time></trkpt><trkpt lat="33.88470658453553" lon="7.87101203198003"><ele>96.33333333333334</ele><time>2026-04-07T17:57:49.001Z</time></trkpt><trkpt lat="33.88459296650259" lon="7.871173771656314"><ele>96.66666666666667</ele><time>2026-04-07T17:57:50.001Z</time></trkpt><trkpt lat="33.88448660766571" lon="7.871335416022168"><ele>97.0</ele><time>2026-04-07T17:57:51.001Z</time></trkpt><trkpt lat="33.884382860650746" lon="7.871490232555174"><ele>97.0</ele><time>2026-04-07T17:57:52.001Z</time></trkpt><trkpt lat="33.884279930494934" lon="7.871638234896803"><ele>97.0</ele><time>2026-04-07T17:57:53.001Z</time></trkpt><trkpt lat="33.88417218262547" lon="7.871772891961367"><ele>97.0</ele><time>2026-04-07T17:57:54.002Z</time></trkpt><trkpt lat="33.8840572143015" lon="7.871890355848255"><ele>97.0</ele><time>2026-04-07T17:57:55.002Z</time></trkpt><trkpt lat="33.88393085751982" lon="7.871988949557097"><ele>97.0</ele><time>2026-04-07T17:57:56.002Z</time></trkpt><trkpt lat="33.88380114754653" lon="7.872071949771373"><ele>97.0</ele><time>2026-04-07T17:57:57.002Z</time></trkpt><trkpt lat="33.88367198100402" lon="7.872148737223209"><ele>97.0</ele><time>2026-04-07T17:57:58.002Z</time></trkpt><trkpt lat="33.883542064454424" lon="7.8722184013195795"><ele>96.75</ele><time>2026-04-07T17:57:59.002Z</time></trkpt><trkpt lat="33.88341339680401" lon="7.872281855112085"><ele>96.5</ele><time>2026-04-07T17:58:00.002Z</time></trkpt><trkpt lat="33.88328846908782" lon="7.872340463226289"><ele>96.25</ele><time>2026-04-07T17:58:01.002Z</time></trkpt><trkpt lat="33.88316445339183" lon="7.872394243304778"><ele>96.0</ele><time>2026-04-07T17:58:02.002Z</time></trkpt><trkpt lat="33.88304721547593" lon="7.872439153158878"><ele>96.0</ele><time>2026-04-07T17:58:03.002Z</time></trkpt><trkpt lat="33.882941413467115" lon="7.872480608373621"><ele>96.0</ele><time>2026-04-07T17:58:04.002Z</time></trkpt><trkpt lat="33.88284930592117" lon="7.8725234354587315"><ele>96.0</ele><time>2026-04-07T17:58:05.002Z</time></trkpt><trkpt lat="33.88277137672289" lon="7.8725689400650305"><ele>96.0</ele><time>2026-04-07T17:58:06.002Z</time></trkpt><trkpt lat="33.88271874288786" lon="7.872619285283671"><ele>96.0</ele><time>2026-04-07T17:58:07.002Z</time></trkpt><trkpt lat="33.88267605232094" lon="7.872675929711055"><ele>96.0</ele><time>2026-04-07T17:58:08.002Z</time></trkpt><trkpt lat="33.88262049933561" lon="7.87280988873091"><ele>96.25</ele><time>2026-04-07T17:58:10.002Z</time></trkpt><trkpt lat="33.88260441743493" lon="7.8729556938287715"><ele>96.5</ele><time>2026-04-07T17:58:12.002Z</time></trkpt><trkpt lat="33.88261301313542" lon="7.873103122555101"><ele>96.75</ele><time>2026-04-07T17:58:14.002Z</time></trkpt><trkpt lat="33.88259595855192" lon="7.873244937330526"><ele>97.0</ele><time>2026-04-07T17:58:16.002Z</time></trkpt><trkpt lat="33.88254280049439" lon="7.873365203761071"><ele>97.00000000000001</ele><time>2026-04-07T17:58:18.002Z</time></trkpt><trkpt lat="33.88248290577454" lon="7.873499784795979"><ele>97.0</ele><time>2026-04-07T17:58:20.002Z</time></trkpt><trkpt lat="33.88245693195071" lon="7.87357089482814"><ele>97.0</ele><time>2026-04-07T17:58:21.002Z</time></trkpt><trkpt lat="33.882438026175855" lon="7.873646362824707"><ele>97.0</ele><time>2026-04-07T17:58:22.002Z</time></trkpt><trkpt lat="33.88242331010457" lon="7.873730411809506"><ele>97.00000000000001</ele><time>2026-04-07T17:58:23.001Z</time></trkpt><trkpt lat="33.882414435706856" lon="7.873819821680532"><ele>97.0</ele><time>2026-04-07T17:58:24.001Z</time></trkpt><trkpt lat="33.88240992870875" lon="7.873911630294547"><ele>97.00000000000001</ele><time>2026-04-07T17:58:25.001Z</time></trkpt><trkpt lat="33.88241403157703" lon="7.874002622038858"><ele>97.0</ele><time>2026-04-07T17:58:26.001Z</time></trkpt><trkpt lat="33.88242397798964" lon="7.874093903553237"><ele>97.0</ele><time>2026-04-07T17:58:27.001Z</time></trkpt><trkpt lat="33.88243343369595" lon="7.874184874003423"><ele>97.0</ele><time>2026-04-07T17:58:28.001Z</time></trkpt><trkpt lat="33.882437271753375" lon="7.874279112104102"><ele>97.00000000000001</ele><time>2026-04-07T17:58:29.001Z</time></trkpt><trkpt lat="33.88243574994082" lon="7.874374584862952"><ele>97.0</ele><time>2026-04-07T17:58:30.001Z</time></trkpt><trkpt lat="33.88242675891833" lon="7.874475270242074"><ele>97.50000000000001</ele><time>2026-04-07T17:58:31.001Z</time></trkpt><trkpt lat="33.88241204231778" lon="7.874574530785147"><ele>98.0</ele><time>2026-04-07T17:58:32.001Z</time></trkpt><trkpt lat="33.882382442378194" lon="7.874673226502099"><ele>98.5</ele><time>2026-04-07T17:58:33.001Z</time></trkpt><trkpt lat="33.88233483543631" lon="7.874758407008538"><ele>99.0</ele><time>2026-04-07T17:58:34.001Z</time></trkpt><trkpt lat="33.882286343693" lon="7.874844650738832"><ele>99.50000000000001</ele><time>2026-04-07T17:58:35.001Z</time></trkpt><trkpt lat="33.8822620088242" lon="7.874942996557225"><ele>100.0</ele><time>2026-04-07T17:58:36.001Z</time></trkpt><trkpt lat="33.882257222676245" lon="7.87504662694176"><ele>100.2</ele><time>2026-04-07T17:58:37.001Z</time></trkpt><trkpt lat="33.882259574096736" lon="7.87514903375703"><ele>100.4</ele><time>2026-04-07T17:58:38.001Z</time></trkpt><trkpt lat="33.88227160158162" lon="7.875258709335112"><ele>100.6</ele><time>2026-04-07T17:58:39.001Z</time></trkpt><trkpt lat="33.882288674506306" lon="7.8753687818080405"><ele>100.8</ele><time>2026-04-07T17:58:40.001Z</time></trkpt><trkpt lat="33.88230401442221" lon="7.8754803529047575"><ele>101.0</ele><time>2026-04-07T17:58:41.001Z</time></trkpt><trkpt lat="33.88231572398071" lon="7.875590413459035"><ele>101.0</ele><time>2026-04-07T17:58:42.001Z</time></trkpt><trkpt lat="33.88232148545893" lon="7.8757008746518"><ele>101.0</ele><time>2026-04-07T17:58:43.001Z</time></trkpt><trkpt lat="33.882326264628276" lon="7.875814583560816"><ele>101.0</ele><time>2026-04-07T17:58:44.001Z</time></trkpt><trkpt lat="33.882331066165634" lon="7.87592715594057"><ele>101.0</ele><time>2026-04-07T17:58:45.001Z</time></trkpt><trkpt lat="33.88233652726572" lon="7.876040145943808"><ele>101.0</ele><time>2026-04-07T17:58:46.001Z</time></trkpt><trkpt lat="33.88234512635345" lon="7.876152430679135"><ele>101.16666666666666</ele><time>2026-04-07T17:58:47.001Z</time></trkpt><trkpt lat="33.88235535987674" lon="7.876261758507014"><ele>101.33333333333333</ele><time>2026-04-07T17:58:48.001Z</time></trkpt><trkpt lat="33.88235884758185" lon="7.8763690721760105"><ele>101.5</ele><time>2026-04-07T17:58:49.001Z</time></trkpt><trkpt lat="33.8823597335603" lon="7.876474617485038"><ele>101.66666666666666</ele><time>2026-04-07T17:58:50.001Z</time></trkpt><trkpt lat="33.88235891589458" lon="7.876577253405581"><ele>101.83333333333333</ele><time>2026-04-07T17:58:51.001Z</time></trkpt><trkpt lat="33.88236038595991" lon="7.876674101327409"><ele>102.0</ele><time>2026-04-07T17:58:52.001Z</time></trkpt><trkpt lat="33.88235454791258" lon="7.876758987067139"><ele>102.0</ele><time>2026-04-07T17:58:53.001Z</time></trkpt><trkpt lat="33.88233621283323" lon="7.876833291596157"><ele>102.0</ele><time>2026-04-07T17:58:54.001Z</time></trkpt><trkpt lat="33.88226406401432" lon="7.87694636271348"><ele>102.0</ele><time>2026-04-07T17:58:56.001Z</time></trkpt><trkpt lat="33.88217128268876" lon="7.877020086598042"><ele>102.0</ele><time>2026-04-07T17:58:58.001Z</time></trkpt><trkpt lat="33.882084702065484" lon="7.877062995342379"><ele>102.0</ele><time>2026-04-07T17:59:00.001Z</time></trkpt><trkpt lat="33.88200216889763" lon="7.877100507555784"><ele>102.0</ele><time>2026-04-07T17:59:02.001Z</time></trkpt><trkpt lat="33.88194074822956" lon="7.877149947741707"><ele>102.0</ele><time>2026-04-07T17:59:04.001Z</time></trkpt><trkpt lat="33.881909571615275" lon="7.877245716625571"><ele>102.0</ele><time>2026-04-07T17:59:07.001Z</time></trkpt><trkpt lat="33.88195341149642" lon="7.877341769814193"><ele>102.0</ele><time>2026-04-07T17:59:09.001Z</time></trkpt><trkpt lat="33.8820476428656" lon="7.877460174521829"><ele>102.0</ele><time>2026-04-07T17:59:11.001Z</time></trkpt><trkpt lat="33.88210138529797" lon="7.877540422736502"><ele>101.66666666666667</ele><time>2026-04-07T17:59:12.001Z</time></trkpt><trkpt lat="33.88215179617053" lon="7.877626293243273"><ele>101.33333333333334</ele><time>2026-04-07T17:59:13.001Z</time></trkpt><trkpt lat="33.88219846819448" lon="7.877712001125043"><ele>101.0</ele><time>2026-04-07T17:59:14.001Z</time></trkpt><trkpt lat="33.882242976988636" lon="7.877798052161003"><ele>100.66666666666667</ele><time>2026-04-07T17:59:15.001Z</time></trkpt><trkpt lat="33.88228294320465" lon="7.8778937202346455"><ele>100.33333333333334</ele><time>2026-04-07T17:59:16.001Z</time></trkpt><trkpt lat="33.88231982744172" lon="7.87800336333799"><ele>100.0</ele><time>2026-04-07T17:59:17.001Z</time></trkpt><trkpt lat="33.88235435867041" lon="7.878119991159258"><ele>100.0</ele><time>2026-04-07T17:59:18.001Z</time></trkpt><trkpt lat="33.88238643390605" lon="7.878244873951243"><ele>100.0</ele><time>2026-04-07T17:59:19.001Z</time></trkpt><trkpt lat="33.88241901078377" lon="7.878376174821739"><ele>100.0</ele><time>2026-04-07T17:59:20.001Z</time></trkpt><trkpt lat="33.88245033114251" lon="7.878512413855154"><ele>100.0</ele><time>2026-04-07T17:59:21.001Z</time></trkpt><trkpt lat="33.88247515915582" lon="7.8786555415312405"><ele>100.0</ele><time>2026-04-07T17:59:22.001Z</time></trkpt><trkpt lat="33.882487525802254" lon="7.878805475718621"><ele>100.0</ele><time>2026-04-07T17:59:23.001Z</time></trkpt><trkpt lat="33.882488200066845" lon="7.878960069851976"><ele>100.0</ele><time>2026-04-07T17:59:24.001Z</time></trkpt><trkpt lat="33.882474155673" lon="7.879114921276026"><ele>100.0</ele><time>2026-04-07T17:59:25.001Z</time></trkpt><trkpt lat="33.88244893168122" lon="7.879268324984171"><ele>100.0</ele><time>2026-04-07T17:59:26.001Z</time></trkpt><trkpt lat="33.882420237003195" lon="7.879418600332005"><ele>100.0</ele><time>2026-04-07T17:59:27.001Z</time></trkpt><trkpt lat="33.88238520993582" lon="7.879565597858095"><ele>100.0</ele><time>2026-04-07T17:59:28.001Z</time></trkpt><trkpt lat="33.882344565617814" lon="7.879707860233277"><ele>100.0</ele><time>2026-04-07T17:59:29.001Z</time></trkpt><trkpt lat="33.88230149104005" lon="7.879848179895644"><ele>100.0</ele><time>2026-04-07T17:59:30.001Z</time></trkpt><trkpt lat="33.88225562217585" lon="7.8799846295371365"><ele>100.0</ele><time>2026-04-07T17:59:31.001Z</time></trkpt><trkpt lat="33.88220039264107" lon="7.880117396774503"><ele>100.0</ele><time>2026-04-07T17:59:32.001Z</time></trkpt><trkpt lat="33.88213596424842" lon="7.880244947172962"><ele>100.0</ele><time>2026-04-07T17:59:33.001Z</time></trkpt><trkpt lat="33.882064607325056" lon="7.88036832451502"><ele>99.75</ele><time>2026-04-07T17:59:34.001Z</time></trkpt><trkpt lat="33.881986084867506" lon="7.880488734666977"><ele>99.5</ele><time>2026-04-07T17:59:35.001Z</time></trkpt><trkpt lat="33.88190484973652" lon="7.880604971229657"><ele>99.25</ele><time>2026-04-07T17:59:36.001Z</time></trkpt><trkpt lat="33.88182201488009" lon="7.880721307923257"><ele>99.0</ele><time>2026-04-07T17:59:37.001Z</time></trkpt><trkpt lat="33.88173948551708" lon="7.880839981530168"><ele>98.25</ele><time>2026-04-07T17:59:38.001Z</time></trkpt><trkpt lat="33.88165722876678" lon="7.880959246631724"><ele>97.5</ele><time>2026-04-07T17:59:39.001Z</time></trkpt><trkpt lat="33.88157124849523" lon="7.881075704477188"><ele>96.75</ele><time>2026-04-07T17:59:40.001Z</time></trkpt><trkpt lat="33.881485654301365" lon="7.881195496454245"><ele>96.0</ele><time>2026-04-07T17:59:41.001Z</time></trkpt><trkpt lat="33.881403383235615" lon="7.8813173335053675"><ele>96.0</ele><time>2026-04-07T17:59:42.001Z</time></trkpt><trkpt lat="33.881320016533934" lon="7.881438766826713"><ele>96.0</ele><time>2026-04-07T17:59:43.001Z</time></trkpt><trkpt lat="33.88123711766131" lon="7.8815547143143725"><ele>96.0</ele><time>2026-04-07T17:59:44.002Z</time></trkpt><trkpt lat="33.88115838818094" lon="7.881661164547545"><ele>96.0</ele><time>2026-04-07T17:59:45.002Z</time></trkpt><trkpt lat="33.88108630782067" lon="7.881756488519386"><ele>96.5</ele><time>2026-04-07T17:59:46.002Z</time></trkpt><trkpt lat="33.881027070819925" lon="7.881840755639134"><ele>97.0</ele><time>2026-04-07T17:59:47.002Z</time></trkpt><trkpt lat="33.88097195782783" lon="7.88191328665584"><ele>97.5</ele><time>2026-04-07T17:59:48.002Z</time></trkpt><trkpt lat="33.88091714132778" lon="7.881977993191469"><ele>98.0</ele><time>2026-04-07T17:59:49.002Z</time></trkpt><trkpt lat="33.88086362660211" lon="7.882044190630247"><ele>98.5</ele><time>2026-04-07T17:59:50.002Z</time></trkpt><trkpt lat="33.8808094149154" lon="7.8821098123630575"><ele>99.0</ele><time>2026-04-07T17:59:51.002Z</time></trkpt><trkpt lat="33.88075559832659" lon="7.882172902361247"><ele>99.0</ele><time>2026-04-07T17:59:52.002Z</time></trkpt><trkpt lat="33.880698796201735" lon="7.882230791831069"><ele>99.0</ele><time>2026-04-07T17:59:53.002Z</time></trkpt><trkpt lat="33.880638750780925" lon="7.882285607694803"><ele>99.0</ele><time>2026-04-07T17:59:54.002Z</time></trkpt><trkpt lat="33.8805765536984" lon="7.882338411929358"><ele>99.0</ele><time>2026-04-07T17:59:55.002Z</time></trkpt><trkpt lat="33.880510537127996" lon="7.882390027685614"><ele>99.0</ele><time>2026-04-07T17:59:56.002Z</time></trkpt><trkpt lat="33.88043952105773" lon="7.88243976352941"><ele>99.0</ele><time>2026-04-07T17:59:57.002Z</time></trkpt><trkpt lat="33.8803665774006" lon="7.882486822808326"><ele>99.0</ele><time>2026-04-07T17:59:58.002Z</time></trkpt><trkpt lat="33.880289855430625" lon="7.882531909081663"><ele>99.0</ele><time>2026-04-07T17:59:59.002Z</time></trkpt><trkpt lat="33.88021106833137" lon="7.882573009483365"><ele>99.0</ele><time>2026-04-07T18:00:00.002Z</time></trkpt><trkpt lat="33.88013230200259" lon="7.882610412094228"><ele>99.0</ele><time>2026-04-07T18:00:01.002Z</time></trkpt><trkpt lat="33.88005960885587" lon="7.882646087772464"><ele>99.0</ele><time>2026-04-07T18:00:02.002Z</time></trkpt><trkpt lat="33.87999884326763" lon="7.882676054628985"><ele>99.0</ele><time>2026-04-07T18:00:03.002Z</time></trkpt><trkpt lat="33.87990250423417" lon="7.8827255992292375"><ele>99.0</ele><time>2026-04-07T18:00:05.002Z</time></trkpt><trkpt lat="33.87979587496888" lon="7.882784592194039"><ele>99.0</ele><time>2026-04-07T18:00:07.002Z</time></trkpt><trkpt lat="33.87973128186126" lon="7.882818474838576"><ele>99.0</ele><time>2026-04-07T18:00:08.002Z</time></trkpt><trkpt lat="33.87966032518392" lon="7.882855732005594"><ele>99.0</ele><time>2026-04-07T18:00:09.002Z</time></trkpt><trkpt lat="33.8795815685466" lon="7.8828961747921396"><ele>99.0</ele><time>2026-04-07T18:00:10.002Z</time></trkpt><trkpt lat="33.87949680934821" lon="7.882940570305119"><ele>99.0</ele><time>2026-04-07T18:00:11.002Z</time></trkpt><trkpt lat="33.879409089618996" lon="7.882990034268909"><ele>99.0</ele><time>2026-04-07T18:00:12.002Z</time></trkpt><trkpt lat="33.87931801434723" lon="7.883042029485377"><ele>99.0</ele><time>2026-04-07T18:00:13.002Z</time></trkpt><trkpt lat="33.87922407104667" lon="7.883095764784256"><ele>99.0</ele><time>2026-04-07T18:00:14.002Z</time></trkpt><trkpt lat="33.87912805406175" lon="7.883149257493701"><ele>99.0</ele><time>2026-04-07T18:00:15.002Z</time></trkpt><trkpt lat="33.87903115132135" lon="7.883199200718478"><ele>99.0</ele><time>2026-04-07T18:00:16.002Z</time></trkpt><trkpt lat="33.87893226516713" lon="7.883242698747611"><ele>98.4</ele><time>2026-04-07T18:00:17.002Z</time></trkpt><trkpt lat="33.8788371509783" lon="7.883289056310383"><ele>97.80000000000001</ele><time>2026-04-07T18:00:18.002Z</time></trkpt><trkpt lat="33.87874492867039" lon="7.88333321560852"><ele>97.19999999999999</ele><time>2026-04-07T18:00:19.002Z</time></trkpt><trkpt lat="33.878656878040374" lon="7.883376455941504"><ele>96.6</ele><time>2026-04-07T18:00:20.002Z</time></trkpt><trkpt lat="33.87857251037027" lon="7.883419919387634"><ele>96.0</ele><time>2026-04-07T18:00:21.002Z</time></trkpt><trkpt lat="33.87849233514249" lon="7.8834630770318626"><ele>95.6</ele><time>2026-04-07T18:00:22.002Z</time></trkpt><trkpt lat="33.878415510660986" lon="7.883505307239123"><ele>95.19999999999999</ele><time>2026-04-07T18:00:23.002Z</time></trkpt><trkpt lat="33.878348342675764" lon="7.883552013246044"><ele>94.80000000000001</ele><time>2026-04-07T18:00:24.002Z</time></trkpt><trkpt lat="33.87829196405746" lon="7.883595567437073"><ele>94.4</ele><time>2026-04-07T18:00:25.002Z</time></trkpt><trkpt lat="33.878224245704324" lon="7.883709069851082"><ele>94.0</ele><time>2026-04-07T18:00:27.002Z</time></trkpt><trkpt lat="33.87820797793768" lon="7.8838466641282"><ele>94.0</ele><time>2026-04-07T18:00:29.001Z</time></trkpt><trkpt lat="33.878199726456856" lon="7.8839266157281696"><ele>94.0</ele><time>2026-04-07T18:00:30.001Z</time></trkpt><trkpt lat="33.87819900009366" lon="7.884012257935112"><ele>94.0</ele><time>2026-04-07T18:00:31.001Z</time></trkpt><trkpt lat="33.87820314719687" lon="7.884102819597415"><ele>94.0</ele><time>2026-04-07T18:00:32.001Z</time></trkpt><trkpt lat="33.87820455442284" lon="7.884196410808561"><ele>94.0</ele><time>2026-04-07T18:00:33.001Z</time></trkpt><trkpt lat="33.87820403288554" lon="7.884290592426939"><ele>94.0</ele><time>2026-04-07T18:00:34.001Z</time></trkpt><trkpt lat="33.878204202837026" lon="7.884383128593107"><ele>94.0</ele><time>2026-04-07T18:00:35.001Z</time></trkpt><trkpt lat="33.87820256487336" lon="7.884475915893542"><ele>94.16666666666666</ele><time>2026-04-07T18:00:36.001Z</time></trkpt><trkpt lat="33.87820052803852" lon="7.88456646549563"><ele>94.33333333333333</ele><time>2026-04-07T18:00:37.001Z</time></trkpt><trkpt lat="33.87820395266877" lon="7.884657091571991"><ele>94.5</ele><time>2026-04-07T18:00:38.001Z</time></trkpt><trkpt lat="33.87821007219464" lon="7.884747771555092"><ele>94.66666666666667</ele><time>2026-04-07T18:00:39.001Z</time></trkpt><trkpt lat="33.87821385442184" lon="7.884839934801901"><ele>94.83333333333334</ele><time>2026-04-07T18:00:40.001Z</time></trkpt><trkpt lat="33.878214676522234" lon="7.88493122403734"><ele>95.0</ele><time>2026-04-07T18:00:41.001Z</time></trkpt><trkpt lat="33.87821068496387" lon="7.885022382843823"><ele>95.16666666666667</ele><time>2026-04-07T18:00:42.001Z</time></trkpt><trkpt lat="33.87820610124601" lon="7.885112371230143"><ele>95.33333333333334</ele><time>2026-04-07T18:00:43.001Z</time></trkpt><trkpt lat="33.87820314081401" lon="7.885206730333165"><ele>95.5</ele><time>2026-04-07T18:00:44.001Z</time></trkpt><trkpt lat="33.87820157229554" lon="7.885301984057981"><ele>95.66666666666667</ele><time>2026-04-07T18:00:45.001Z</time></trkpt><trkpt lat="33.87820059109911" lon="7.885399492893897"><ele>95.83333333333333</ele><time>2026-04-07T18:00:46.001Z</time></trkpt><trkpt lat="33.87819912130525" lon="7.885498116379773"><ele>96.0</ele><time>2026-04-07T18:00:47.001Z</time></trkpt><trkpt lat="33.87819642082592" lon="7.885596304600455"><ele>96.0</ele><time>2026-04-07T18:00:48.001Z</time></trkpt><trkpt lat="33.878194314596385" lon="7.885695498569619"><ele>96.0</ele><time>2026-04-07T18:00:49.001Z</time></trkpt><trkpt lat="33.878191755232535" lon="7.8857936050510835"><ele>96.0</ele><time>2026-04-07T18:00:50.001Z</time></trkpt><trkpt lat="33.87819265664909" lon="7.885886848958045"><ele>96.0</ele><time>2026-04-07T18:00:51.001Z</time></trkpt><trkpt lat="33.87819190478733" lon="7.885976490380033"><ele>96.0</ele><time>2026-04-07T18:00:52.001Z</time></trkpt><trkpt lat="33.87819196658755" lon="7.886065054811166"><ele>96.0</ele><time>2026-04-07T18:00:53.001Z</time></trkpt><trkpt lat="33.87819090004972" lon="7.886151649210643"><ele>95.85714285714285</ele><time>2026-04-07T18:00:54.001Z</time></trkpt><trkpt lat="33.87819102693464" lon="7.886238847739233"><ele>95.71428571428571</ele><time>2026-04-07T18:00:55.001Z</time></trkpt><trkpt lat="33.87819235791115" lon="7.88632567074711"><ele>95.57142857142857</ele><time>2026-04-07T18:00:56.001Z</time></trkpt><trkpt lat="33.87819151821373" lon="7.886414182758011"><ele>95.42857142857142</ele><time>2026-04-07T18:00:57.001Z</time></trkpt><trkpt lat="33.87819082124916" lon="7.886501428327989"><ele>95.28571428571429</ele><time>2026-04-07T18:00:58.001Z</time></trkpt><trkpt lat="33.87819093055903" lon="7.886589199743243"><ele>95.14285714285714</ele><time>2026-04-07T18:00:59.001Z</time></trkpt><trkpt lat="33.87818937762442" lon="7.886673600296102"><ele>95.0</ele><time>2026-04-07T18:01:00.001Z</time></trkpt><trkpt lat="33.8781893766089" lon="7.886749744341486"><ele>95.0</ele><time>2026-04-07T18:01:01.001Z</time></trkpt><trkpt lat="33.878187574075994" lon="7.886874579373115"><ele>95.0</ele><time>2026-04-07T18:01:03.001Z</time></trkpt><trkpt lat="33.878188508948" lon="7.8870021251177675"><ele>95.0</ele><time>2026-04-07T18:01:05.001Z</time></trkpt><trkpt lat="33.87819352084793" lon="7.887132368497638"><ele>95.0</ele><time>2026-04-07T18:01:07.001Z</time></trkpt><trkpt lat="33.878199239413426" lon="7.887254203909125"><ele>95.0</ele><time>2026-04-07T18:01:09.001Z</time></trkpt><trkpt lat="33.878206857975705" lon="7.887371011465491"><ele>95.0</ele><time>2026-04-07T18:01:11.001Z</time></trkpt><trkpt lat="33.87820372688502" lon="7.887485370010828"><ele>95.0</ele><time>2026-04-07T18:01:13.001Z</time></trkpt><trkpt lat="33.878193042558294" lon="7.887619831409551"><ele>95.0</ele><time>2026-04-07T18:01:15.001Z</time></trkpt><trkpt lat="33.87819043286497" lon="7.887771452723745"><ele>95.0</ele><time>2026-04-07T18:01:17.001Z</time></trkpt><trkpt lat="33.87818830581764" lon="7.8878540214301305"><ele>95.0</ele><time>2026-04-07T18:01:18.001Z</time></trkpt><trkpt lat="33.87818575815703" lon="7.887939339750876"><ele>95.16666666666667</ele><time>2026-04-07T18:01:19.001Z</time></trkpt><trkpt lat="33.87818605904887" lon="7.888025831105909"><ele>95.33333333333334</ele><time>2026-04-07T18:01:20.001Z</time></trkpt><trkpt lat="33.878187277733446" lon="7.8881142197824365"><ele>95.5</ele><time>2026-04-07T18:01:21.001Z</time></trkpt><trkpt lat="33.8781890754995" lon="7.888203556524071"><ele>95.66666666666667</ele><time>2026-04-07T18:01:22.001Z</time></trkpt><trkpt lat="33.8781911850707" lon="7.888295213298479"><ele>95.83333333333333</ele><time>2026-04-07T18:01:23.001Z</time></trkpt><trkpt lat="33.87819498452959" lon="7.888391108701911"><ele>96.0</ele><time>2026-04-07T18:01:24.001Z</time></trkpt><trkpt lat="33.87819472594442" lon="7.888488827750068"><ele>96.0</ele><time>2026-04-07T18:01:25.001Z</time></trkpt><trkpt lat="33.87819077729774" lon="7.8885879709890485"><ele>96.0</ele><time>2026-04-07T18:01:26.001Z</time></trkpt><trkpt lat="33.87818551070823" lon="7.888692204706799"><ele>96.0</ele><time>2026-04-07T18:01:27.001Z</time></trkpt><trkpt lat="33.878181389278936" lon="7.888799112033035"><ele>96.0</ele><time>2026-04-07T18:01:28.001Z</time></trkpt><trkpt lat="33.878179572298166" lon="7.888907123885062"><ele>96.0</ele><time>2026-04-07T18:01:29.001Z</time></trkpt><trkpt lat="33.87817742683409" lon="7.889019812187088"><ele>96.0</ele><time>2026-04-07T18:01:30.001Z</time></trkpt><trkpt lat="33.878176017711745" lon="7.88913497889589"><ele>96.0</ele><time>2026-04-07T18:01:31.001Z</time></trkpt><trkpt lat="33.878178184311366" lon="7.88925100976121"><ele>96.0</ele><time>2026-04-07T18:01:32.001Z</time></trkpt><trkpt lat="33.87817720192655" lon="7.88936933113872"><ele>96.0</ele><time>2026-04-07T18:01:33.001Z</time></trkpt><trkpt lat="33.8781753765782" lon="7.889486916260077"><ele>96.0</ele><time>2026-04-07T18:01:34.001Z</time></trkpt><trkpt lat="33.87817362626909" lon="7.889604203619919"><ele>96.0</ele><time>2026-04-07T18:01:35.001Z</time></trkpt><trkpt lat="33.87817269252618" lon="7.889721889545187"><ele>95.6</ele><time>2026-04-07T18:01:36.001Z</time></trkpt><trkpt lat="33.8781735890846" lon="7.889839602816286"><ele>95.19999999999999</ele><time>2026-04-07T18:01:37.001Z</time></trkpt><trkpt lat="33.878174977625555" lon="7.8899561230073365"><ele>94.80000000000001</ele><time>2026-04-07T18:01:38.001Z</time></trkpt><trkpt lat="33.87817523778669" lon="7.890072930829378"><ele>94.4</ele><time>2026-04-07T18:01:39.001Z</time></trkpt><trkpt lat="33.87817564649019" lon="7.890189721409474"><ele>94.0</ele><time>2026-04-07T18:01:40.002Z</time></trkpt><trkpt lat="33.87817694267643" lon="7.890306434665355"><ele>93.6</ele><time>2026-04-07T18:01:41.002Z</time></trkpt><trkpt lat="33.87817762547025" lon="7.890423345073089"><ele>93.2</ele><time>2026-04-07T18:01:42.002Z</time></trkpt><trkpt lat="33.878175592628786" lon="7.890539945908916"><ele>92.8</ele><time>2026-04-07T18:01:43.002Z</time></trkpt><trkpt lat="33.87817534088849" lon="7.8906549732895455"><ele>92.39999999999999</ele><time>2026-04-07T18:01:44.002Z</time></trkpt><trkpt lat="33.87817612032388" lon="7.8907687783502105"><ele>92.0</ele><time>2026-04-07T18:01:45.002Z</time></trkpt><trkpt lat="33.87817658103707" lon="7.8908812139254145"><ele>92.39999999999999</ele><time>2026-04-07T18:01:46.002Z</time></trkpt><trkpt lat="33.87817806083774" lon="7.890993074000033"><ele>92.8</ele><time>2026-04-07T18:01:47.002Z</time></trkpt><trkpt lat="33.878178650001466" lon="7.891105474186476"><ele>93.2</ele><time>2026-04-07T18:01:48.002Z</time></trkpt><trkpt lat="33.878178109937835" lon="7.8912164203246675"><ele>93.6</ele><time>2026-04-07T18:01:49.002Z</time></trkpt><trkpt lat="33.87817764706611" lon="7.891326837766594"><ele>94.0</ele><time>2026-04-07T18:01:50.002Z</time></trkpt><trkpt lat="33.87818081416784" lon="7.89143618921926"><ele>94.0</ele><time>2026-04-07T18:01:51.002Z</time></trkpt><trkpt lat="33.87818628930357" lon="7.891543597394664"><ele>94.0</ele><time>2026-04-07T18:01:52.002Z</time></trkpt><trkpt lat="33.87819019994016" lon="7.8916518964147455"><ele>94.0</ele><time>2026-04-07T18:01:53.002Z</time></trkpt><trkpt lat="33.87818976265505" lon="7.891755338903373"><ele>94.0</ele><time>2026-04-07T18:01:54.002Z</time></trkpt><trkpt lat="33.87819177343552" lon="7.891859178209816"><ele>94.0</ele><time>2026-04-07T18:01:55.002Z</time></trkpt><trkpt lat="33.87819824735126" lon="7.891961757272499"><ele>94.0</ele><time>2026-04-07T18:01:56.002Z</time></trkpt><trkpt lat="33.878200147794765" lon="7.8920648088121235"><ele>94.16666666666666</ele><time>2026-04-07T18:01:57.002Z</time></trkpt><trkpt lat="33.8781994572107" lon="7.892166222197422"><ele>94.33333333333333</ele><time>2026-04-07T18:01:58.002Z</time></trkpt><trkpt lat="33.87819856817082" lon="7.8922668207454825"><ele>94.5</ele><time>2026-04-07T18:01:59.002Z</time></trkpt><trkpt lat="33.878197488132166" lon="7.892365430535073"><ele>94.66666666666667</ele><time>2026-04-07T18:02:00.002Z</time></trkpt><trkpt lat="33.87819715259183" lon="7.892460582906926"><ele>94.83333333333334</ele><time>2026-04-07T18:02:01.002Z</time></trkpt><trkpt lat="33.87819117404857" lon="7.892553662052008"><ele>95.0</ele><time>2026-04-07T18:02:02.002Z</time></trkpt><trkpt lat="33.87818022510673" lon="7.892644528602402"><ele>95.16666666666667</ele><time>2026-04-07T18:02:03.002Z</time></trkpt><trkpt lat="33.878171177626825" lon="7.892734164779094"><ele>95.33333333333334</ele><time>2026-04-07T18:02:04.002Z</time></trkpt><trkpt lat="33.87817191305409" lon="7.892820579934326"><ele>95.5</ele><time>2026-04-07T18:02:05.002Z</time></trkpt><trkpt lat="33.87818099186992" lon="7.892904351448817"><ele>95.66666666666667</ele><time>2026-04-07T18:02:06.002Z</time></trkpt><trkpt lat="33.87818591610713" lon="7.892980456277216"><ele>95.83333333333333</ele><time>2026-04-07T18:02:07.002Z</time></trkpt><trkpt lat="33.878181616410934" lon="7.89311292701214"><ele>96.0</ele><time>2026-04-07T18:02:09.002Z</time></trkpt><trkpt lat="33.8781282939016" lon="7.893202064286802"><ele>96.0</ele><time>2026-04-07T18:02:11.002Z</time></trkpt><trkpt lat="33.87801574153728" lon="7.893218426148956"><ele>96.0</ele><time>2026-04-07T18:02:13.002Z</time></trkpt><trkpt lat="33.87795030818536" lon="7.893215945446025"><ele>96.0</ele><time>2026-04-07T18:02:14.002Z</time></trkpt><trkpt lat="33.87787830238142" lon="7.8932238688686045"><ele>96.0</ele><time>2026-04-07T18:02:15.002Z</time></trkpt><trkpt lat="33.877792503196574" lon="7.893226971164954"><ele>96.0</ele><time>2026-04-07T18:02:16.002Z</time></trkpt><trkpt lat="33.87770033719029" lon="7.893232165999076"><ele>96.0</ele><time>2026-04-07T18:02:17.002Z</time></trkpt><trkpt lat="33.877600183402855" lon="7.893239605653644"><ele>95.6</ele><time>2026-04-07T18:02:18.002Z</time></trkpt><trkpt lat="33.87749653432518" lon="7.893244030387476"><ele>95.19999999999999</ele><time>2026-04-07T18:02:19.002Z</time></trkpt><trkpt lat="33.87738737929899" lon="7.893246319251615"><ele>94.80000000000001</ele><time>2026-04-07T18:02:20.002Z</time></trkpt><trkpt lat="33.877274778373625" lon="7.893248021652785"><ele>94.4</ele><time>2026-04-07T18:02:21.002Z</time></trkpt><trkpt lat="33.87716267260373" lon="7.893251595665763"><ele>94.0</ele><time>2026-04-07T18:02:22.002Z</time></trkpt><trkpt lat="33.87704965218795" lon="7.893256170187792"><ele>94.0</ele><time>2026-04-07T18:02:23.002Z</time></trkpt><trkpt lat="33.87694028338628" lon="7.893263072608233"><ele>94.0</ele><time>2026-04-07T18:02:24.002Z</time></trkpt><trkpt lat="33.876833872946435" lon="7.893267566245031"><ele>94.0</ele><time>2026-04-07T18:02:25.002Z</time></trkpt><trkpt lat="33.876734446364374" lon="7.893269220705873"><ele>94.0</ele><time>2026-04-07T18:02:26.002Z</time></trkpt><trkpt lat="33.87664183376044" lon="7.8932703080249045"><ele>94.0</ele><time>2026-04-07T18:02:27.002Z</time></trkpt><trkpt lat="33.87656185256829" lon="7.893272798199914"><ele>93.5</ele><time>2026-04-07T18:02:28.002Z</time></trkpt><trkpt lat="33.87649333311063" lon="7.893275145329438"><ele>93.0</ele><time>2026-04-07T18:02:29.002Z</time></trkpt><trkpt lat="33.87640985241572" lon="7.893283254971348"><ele>92.5</ele><time>2026-04-07T18:02:31.002Z</time></trkpt><trkpt lat="33.876344066384604" lon="7.89331737551069"><ele>92.0</ele><time>2026-04-07T18:02:34.002Z</time></trkpt><trkpt lat="33.87632086546608" lon="7.893414351976957"><ele>91.5</ele><time>2026-04-07T18:02:36.001Z</time></trkpt><trkpt lat="33.87632467573022" lon="7.893565943814425"><ele>91.0</ele><time>2026-04-07T18:02:38.001Z</time></trkpt><trkpt lat="33.87632930187262" lon="7.893663012931323"><ele>90.66666666666666</ele><time>2026-04-07T18:02:39.001Z</time></trkpt><trkpt lat="33.876333835582415" lon="7.893757677234411"><ele>90.33333333333333</ele><time>2026-04-07T18:02:40.001Z</time></trkpt><trkpt lat="33.876338527096664" lon="7.893852817395234"><ele>90.0</ele><time>2026-04-07T18:02:41.001Z</time></trkpt><trkpt lat="33.876345171183466" lon="7.893948406703012"><ele>89.66666666666667</ele><time>2026-04-07T18:02:42.001Z</time></trkpt><trkpt lat="33.876350382183745" lon="7.8940370061117315"><ele>89.33333333333334</ele><time>2026-04-07T18:02:43.001Z</time></trkpt><trkpt lat="33.87635297181149" lon="7.894125913310963"><ele>89.0</ele><time>2026-04-07T18:02:44.001Z</time></trkpt><trkpt lat="33.876355406492394" lon="7.894216405116702"><ele>89.2</ele><time>2026-04-07T18:02:45.001Z</time></trkpt><trkpt lat="33.87635808786062" lon="7.894297782405126"><ele>89.4</ele><time>2026-04-07T18:02:46.001Z</time></trkpt><trkpt lat="33.87636348015157" lon="7.894426605412213"><ele>89.6</ele><time>2026-04-07T18:02:48.001Z</time></trkpt><trkpt lat="33.876339323624535" lon="7.894524040553109"><ele>89.8</ele><time>2026-04-07T18:02:50.001Z</time></trkpt><trkpt lat="33.8762589176673" lon="7.894581806734431"><ele>90.0</ele><time>2026-04-07T18:02:52.001Z</time></trkpt><trkpt lat="33.87613291057245" lon="7.894596209598671"><ele>90.0</ele><time>2026-04-07T18:02:54.001Z</time></trkpt><trkpt lat="33.876066946710644" lon="7.894601770093772"><ele>90.0</ele><time>2026-04-07T18:02:55.001Z</time></trkpt><trkpt lat="33.87598762445329" lon="7.8946206569595905"><ele>90.0</ele><time>2026-04-07T18:02:56.001Z</time></trkpt><trkpt lat="33.87591008073495" lon="7.894655024907525"><ele>90.0</ele><time>2026-04-07T18:02:57.001Z</time></trkpt><trkpt lat="33.875832662235574" lon="7.894701886666766"><ele>90.0</ele><time>2026-04-07T18:02:58.001Z</time></trkpt><trkpt lat="33.87575034168257" lon="7.894748927296708"><ele>90.0</ele><time>2026-04-07T18:02:59.001Z</time></trkpt><trkpt lat="33.875665734260004" lon="7.894799038926202"><ele>89.4</ele><time>2026-04-07T18:03:00.001Z</time></trkpt><trkpt lat="33.875579698824275" lon="7.894848804414953"><ele>88.8</ele><time>2026-04-07T18:03:01.001Z</time></trkpt><trkpt lat="33.87549149414261" lon="7.894903725266985"><ele>88.19999999999999</ele><time>2026-04-07T18:03:02.001Z</time></trkpt><trkpt lat="33.87540844277816" lon="7.894953222721037"><ele>87.6</ele><time>2026-04-07T18:03:03.001Z</time></trkpt><trkpt lat="33.87532080298812" lon="7.895009232080796"><ele>87.0</ele><time>2026-04-07T18:03:04.001Z</time></trkpt><trkpt lat="33.875235111241054" lon="7.895061420702992"><ele>87.0</ele><time>2026-04-07T18:03:05.001Z</time></trkpt><trkpt lat="33.875150629091266" lon="7.8951097131354135"><ele>87.0</ele><time>2026-04-07T18:03:06.001Z</time></trkpt><trkpt lat="33.87506459586801" lon="7.895156971653563"><ele>87.0</ele><time>2026-04-07T18:03:07.001Z</time></trkpt><trkpt lat="33.87497762986059" lon="7.895201316521567"><ele>87.0</ele><time>2026-04-07T18:03:08.001Z</time></trkpt><trkpt lat="33.87489215551619" lon="7.895247169253105"><ele>87.0</ele><time>2026-04-07T18:03:09.001Z</time></trkpt><trkpt lat="33.87480805317776" lon="7.895292144472152"><ele>86.39999999999999</ele><time>2026-04-07T18:03:10.001Z</time></trkpt><trkpt lat="33.874719077825944" lon="7.895338931432469"><ele>85.8</ele><time>2026-04-07T18:03:11.001Z</time></trkpt><trkpt lat="33.87463009010317" lon="7.895383641763506"><ele>85.2</ele><time>2026-04-07T18:03:12.001Z</time></trkpt><trkpt lat="33.8745441080708" lon="7.895430601821345"><ele>84.6</ele><time>2026-04-07T18:03:13.001Z</time></trkpt><trkpt lat="33.87445447061751" lon="7.895476334620124"><ele>84.0</ele><time>2026-04-07T18:03:14.001Z</time></trkpt><trkpt lat="33.87436796322551" lon="7.8955196522289945"><ele>84.0</ele><time>2026-04-07T18:03:15.001Z</time></trkpt><trkpt lat="33.874281243052074" lon="7.8955578305368705"><ele>84.0</ele><time>2026-04-07T18:03:16.001Z</time></trkpt><trkpt lat="33.874194577650144" lon="7.8955996259142935"><ele>84.0</ele><time>2026-04-07T18:03:17.001Z</time></trkpt><trkpt lat="33.87411147630757" lon="7.8956413585995096"><ele>84.0</ele><time>2026-04-07T18:03:18.001Z</time></trkpt><trkpt lat="33.87402932878651" lon="7.895679199145965"><ele>84.0</ele><time>2026-04-07T18:03:19.001Z</time></trkpt><trkpt lat="33.87395373841801" lon="7.895714357229815"><ele>84.0</ele><time>2026-04-07T18:03:20.001Z</time></trkpt><trkpt lat="33.873885396380864" lon="7.895747230476234"><ele>83.66666666666667</ele><time>2026-04-07T18:03:21.001Z</time></trkpt><trkpt lat="33.87382632640443" lon="7.895777468750949"><ele>83.33333333333333</ele><time>2026-04-07T18:03:22.001Z</time></trkpt><trkpt lat="33.87374561342164" lon="7.895814417863445"><ele>83.0</ele><time>2026-04-07T18:03:24.001Z</time></trkpt><trkpt lat="33.873670548941035" lon="7.895850212381448"><ele>82.66666666666666</ele><time>2026-04-07T18:03:28.001Z</time></trkpt><trkpt lat="33.87361680431019" lon="7.895899598868838"><ele>82.33333333333333</ele><time>2026-04-07T18:03:30.001Z</time></trkpt><trkpt lat="33.87361512894402" lon="7.896015092499839"><ele>82.0</ele><time>2026-04-07T18:03:32.001Z</time></trkpt><trkpt lat="33.87366138980572" lon="7.896163226548531"><ele>82.0</ele><time>2026-04-07T18:03:34.001Z</time></trkpt><trkpt lat="33.873681624323595" lon="7.896259850002659"><ele>82.0</ele><time>2026-04-07T18:03:35.001Z</time></trkpt><trkpt lat="33.87370761883291" lon="7.896365369579255"><ele>82.0</ele><time>2026-04-07T18:03:36.001Z</time></trkpt><trkpt lat="33.87373578693446" lon="7.89648199221141"><ele>82.0</ele><time>2026-04-07T18:03:37.001Z</time></trkpt><trkpt lat="33.87376246164396" lon="7.896599329205418"><ele>82.0</ele><time>2026-04-07T18:03:38.001Z</time></trkpt><trkpt lat="33.87378642589649" lon="7.896710420931206"><ele>81.8</ele><time>2026-04-07T18:03:39.001Z</time></trkpt><trkpt lat="33.87381094532138" lon="7.896815789119122"><ele>81.6</ele><time>2026-04-07T18:03:40.001Z</time></trkpt><trkpt lat="33.8738366498776" lon="7.8969248635284455"><ele>81.39999999999999</ele><time>2026-04-07T18:03:41.001Z</time></trkpt><trkpt lat="33.87386552371832" lon="7.897042549197653"><ele>81.19999999999999</ele><time>2026-04-07T18:03:42.001Z</time></trkpt><trkpt lat="33.873894657255086" lon="7.897167529935696"><ele>81.0</ele><time>2026-04-07T18:03:43.001Z</time></trkpt><trkpt lat="33.87392729401026" lon="7.897297720339087"><ele>81.0</ele><time>2026-04-07T18:03:44.001Z</time></trkpt><trkpt lat="33.873961364260644" lon="7.897432861262119"><ele>81.0</ele><time>2026-04-07T18:03:45.001Z</time></trkpt><trkpt lat="33.87399467756792" lon="7.897574572994152"><ele>81.0</ele><time>2026-04-07T18:03:46.001Z</time></trkpt><trkpt lat="33.87402888132284" lon="7.897723165951464"><ele>81.0</ele><time>2026-04-07T18:03:47.001Z</time></trkpt><trkpt lat="33.87406387169727" lon="7.897879199252315"><ele>81.0</ele><time>2026-04-07T18:03:48.001Z</time></trkpt><trkpt lat="33.87409820219325" lon="7.898042597058278"><ele>81.0</ele><time>2026-04-07T18:03:49.001Z</time></trkpt><trkpt lat="33.87413094379638" lon="7.898197283621207"><ele>81.0</ele><time>2026-04-07T18:03:50.001Z</time></trkpt><trkpt lat="33.874160657030274" lon="7.898347978130553"><ele>81.0</ele><time>2026-04-07T18:03:51.001Z</time></trkpt><trkpt lat="33.87419117559782" lon="7.898501748028673"><ele>81.0</ele><time>2026-04-07T18:03:52.001Z</time></trkpt><trkpt lat="33.8742232121516" lon="7.898654544336192"><ele>81.0</ele><time>2026-04-07T18:03:53.001Z</time></trkpt><trkpt lat="33.874255440316674" lon="7.8988134413902955"><ele>81.0</ele><time>2026-04-07T18:03:54.001Z</time></trkpt><trkpt lat="33.8742873505535" lon="7.898977419433231"><ele>81.0</ele><time>2026-04-07T18:03:55.001Z</time></trkpt><trkpt lat="33.87432291855436" lon="7.899145618111181"><ele>82.25</ele><time>2026-04-07T18:03:56.001Z</time></trkpt><trkpt lat="33.87435899465709" lon="7.899314898273562"><ele>83.5</ele><time>2026-04-07T18:03:57.001Z</time></trkpt><trkpt lat="33.87439483487141" lon="7.899487335221703"><ele>84.75</ele><time>2026-04-07T18:03:58.001Z</time></trkpt><trkpt lat="33.874432342401185" lon="7.899662786527526"><ele>86.0</ele><time>2026-04-07T18:03:59.001Z</time></trkpt><trkpt lat="33.87446916348611" lon="7.899841794620953"><ele>86.0</ele><time>2026-04-07T18:04:00.001Z</time></trkpt><trkpt lat="33.87450879949893" lon="7.900025390798426"><ele>86.0</ele><time>2026-04-07T18:04:01.001Z</time></trkpt><trkpt lat="33.8745478163556" lon="7.900211752211772"><ele>86.0</ele><time>2026-04-07T18:04:02.001Z</time></trkpt><trkpt lat="33.874590011135474" lon="7.900401185150929"><ele>85.66666666666667</ele><time>2026-04-07T18:04:03.001Z</time></trkpt><trkpt lat="33.874633544361046" lon="7.900593907800653"><ele>85.33333333333333</ele><time>2026-04-07T18:04:04.002Z</time></trkpt><trkpt lat="33.874678619740706" lon="7.900791353710576"><ele>85.0</ele><time>2026-04-07T18:04:05.002Z</time></trkpt><trkpt lat="33.87472312547235" lon="7.900991649174768"><ele>85.0</ele><time>2026-04-07T18:04:06.002Z</time></trkpt><trkpt lat="33.87476939783504" lon="7.90119837778125"><ele>85.0</ele><time>2026-04-07T18:04:07.002Z</time></trkpt><trkpt lat="33.874816970889995" lon="7.901405484334397"><ele>85.0</ele><time>2026-04-07T18:04:08.002Z</time></trkpt><trkpt lat="33.874861741906734" lon="7.901618474587314"><ele>85.0</ele><time>2026-04-07T18:04:09.002Z</time></trkpt><trkpt lat="33.874909433909274" lon="7.901838293004776"><ele>85.0</ele><time>2026-04-07T18:04:10.002Z</time></trkpt><trkpt lat="33.874958077081246" lon="7.902055846530139"><ele>85.0</ele><time>2026-04-07T18:04:11.002Z</time></trkpt><trkpt lat="33.87500522946845" lon="7.902279865217741"><ele>85.0</ele><time>2026-04-07T18:04:12.002Z</time></trkpt><trkpt lat="33.8750538543897" lon="7.902504691123737"><ele>85.0</ele><time>2026-04-07T18:04:13.002Z</time></trkpt><trkpt lat="33.87510352689014" lon="7.902733400731266"><ele>85.0</ele><time>2026-04-07T18:04:14.002Z</time></trkpt><trkpt lat="33.87515463241099" lon="7.902964853276346"><ele>86.66666666666666</ele><time>2026-04-07T18:04:15.002Z</time></trkpt><trkpt lat="33.875204767669594" lon="7.903199677156761"><ele>88.33333333333333</ele><time>2026-04-07T18:04:16.002Z</time></trkpt><trkpt lat="33.87525530186532" lon="7.9034396154787885"><ele>90.0</ele><time>2026-04-07T18:04:17.002Z</time></trkpt><trkpt lat="33.87530669852774" lon="7.90368169790904"><ele>90.0</ele><time>2026-04-07T18:04:18.002Z</time></trkpt><trkpt lat="33.87536025257486" lon="7.903925651349514"><ele>90.0</ele><time>2026-04-07T18:04:19.002Z</time></trkpt><trkpt lat="33.87541689226057" lon="7.90417396364155"><ele>90.0</ele><time>2026-04-07T18:04:20.002Z</time></trkpt><trkpt lat="33.87547218060367" lon="7.904423733859943"><ele>90.0</ele><time>2026-04-07T18:04:21.002Z</time></trkpt><trkpt lat="33.875528109883156" lon="7.904678022924285"><ele>90.0</ele><time>2026-04-07T18:04:22.002Z</time></trkpt><trkpt lat="33.875582709255966" lon="7.904934100230656"><ele>90.0</ele><time>2026-04-07T18:04:23.002Z</time></trkpt><trkpt lat="33.87563730134408" lon="7.905190714632813"><ele>90.33333333333333</ele><time>2026-04-07T18:04:24.002Z</time></trkpt><trkpt lat="33.87568743076411" lon="7.9054416473532"><ele>90.66666666666666</ele><time>2026-04-07T18:04:25.002Z</time></trkpt><trkpt lat="33.87573771500411" lon="7.90568836841676"><ele>91.0</ele><time>2026-04-07T18:04:26.002Z</time></trkpt><trkpt lat="33.87578914787" lon="7.905931357752432"><ele>91.0</ele><time>2026-04-07T18:04:27.002Z</time></trkpt><trkpt lat="33.8758423458034" lon="7.906175219899277"><ele>91.0</ele><time>2026-04-07T18:04:28.002Z</time></trkpt><trkpt lat="33.87589694029926" lon="7.906419568721011"><ele>91.0</ele><time>2026-04-07T18:04:29.002Z</time></trkpt><trkpt lat="33.8759496229194" lon="7.906667833978571"><ele>91.0</ele><time>2026-04-07T18:04:30.002Z</time></trkpt><trkpt lat="33.87600418323988" lon="7.906914543844337"><ele>91.0</ele><time>2026-04-07T18:04:31.002Z</time></trkpt><trkpt lat="33.87605920149955" lon="7.907162651941254"><ele>91.0</ele><time>2026-04-07T18:04:32.002Z</time></trkpt><trkpt lat="33.876111777717874" lon="7.907413065218489"><ele>92.0</ele><time>2026-04-07T18:04:33.002Z</time></trkpt><trkpt lat="33.876165557550486" lon="7.907667735599914"><ele>93.0</ele><time>2026-04-07T18:04:34.002Z</time></trkpt><trkpt lat="33.87621996092675" lon="7.907919483846972"><ele>94.0</ele><time>2026-04-07T18:04:35.002Z</time></trkpt><trkpt lat="33.876276232034336" lon="7.908171803853883"><ele>94.66666666666666</ele><time>2026-04-07T18:04:36.002Z</time></trkpt><trkpt lat="33.876331952368666" lon="7.908425248857639"><ele>95.33333333333333</ele><time>2026-04-07T18:04:37.002Z</time></trkpt><trkpt lat="33.87638717033054" lon="7.908682369531318"><ele>96.0</ele><time>2026-04-07T18:04:38.002Z</time></trkpt><trkpt lat="33.87644458810351" lon="7.908940666681941"><ele>96.0</ele><time>2026-04-07T18:04:39.002Z</time></trkpt><trkpt lat="33.87650159634157" lon="7.909201711078111"><ele>96.0</ele><time>2026-04-07T18:04:40.002Z</time></trkpt><trkpt lat="33.87655915210471" lon="7.90946262896135"><ele>96.0</ele><time>2026-04-07T18:04:41Z</time></trkpt><trkpt lat="33.876616652861316" lon="7.909724254531567"><ele>95.0</ele><time>2026-04-07T18:04:42Z</time></trkpt><trkpt lat="33.876674602313614" lon="7.909988177268603"><ele>94.0</ele><time>2026-04-07T18:04:43Z</time></trkpt><trkpt lat="33.87673336513258" lon="7.910253645470166"><ele>94.5</ele><time>2026-04-07T18:04:44Z</time></trkpt><trkpt lat="33.876792268363566" lon="7.910523399690512"><ele>95.0</ele><time>2026-04-07T18:04:45Z</time></trkpt><trkpt lat="33.87684923071465" lon="7.910794941925031"><ele>96.0</ele><time>2026-04-07T18:04:46Z</time></trkpt><trkpt lat="33.87690759363852" lon="7.911067203647116"><ele>97.0</ele><time>2026-04-07T18:04:47Z</time></trkpt><trkpt lat="33.876966941136864" lon="7.911341843252154"><ele>97.0</ele><time>2026-04-07T18:04:48Z</time></trkpt><trkpt lat="33.8770270474547" lon="7.911620566911254"><ele>97.0</ele><time>2026-04-07T18:04:49Z</time></trkpt><trkpt lat="33.877088279117274" lon="7.911900423947007"><ele>96.0</ele><time>2026-04-07T18:04:50Z</time></trkpt><trkpt lat="33.87714907135544" lon="7.912184850666689"><ele>95.0</ele><time>2026-04-07T18:04:51Z</time></trkpt><trkpt lat="33.877208974236964" lon="7.912469163193356"><ele>96.0</ele><time>2026-04-07T18:04:52Z</time></trkpt><trkpt lat="33.87726985011406" lon="7.912752187276804"><ele>97.0</ele><time>2026-04-07T18:04:53Z</time></trkpt><trkpt lat="33.87733158189968" lon="7.913033931075098"><ele>97.0</ele><time>2026-04-07T18:04:54Z</time></trkpt><trkpt lat="33.877392474343445" lon="7.913313158308822"><ele>97.0</ele><time>2026-04-07T18:04:55Z</time></trkpt><trkpt lat="33.87745338392353" lon="7.9135917928619675"><ele>96.5</ele><time>2026-04-07T18:04:56Z</time></trkpt><trkpt lat="33.87751269554905" lon="7.913869791800087"><ele>96.0</ele><time>2026-04-07T18:04:57Z</time></trkpt><trkpt lat="33.877571928511394" lon="7.914147471458664"><ele>96.0</ele><time>2026-04-07T18:04:58Z</time></trkpt><trkpt lat="33.87763054111505" lon="7.914424658134036"><ele>96.0</ele><time>2026-04-07T18:04:59Z</time></trkpt><trkpt lat="33.877690451108734" lon="7.914701054619679"><ele>96.0</ele><time>2026-04-07T18:05:00Z</time></trkpt><trkpt lat="33.87774937370158" lon="7.914974020911096"><ele>96.0</ele><time>2026-04-07T18:05:01Z</time></trkpt><trkpt lat="33.877805857781" lon="7.915245277900305"><ele>96.5</ele><time>2026-04-07T18:05:02Z</time></trkpt><trkpt lat="33.87786243397829" lon="7.915513569108492"><ele>97.0</ele><time>2026-04-07T18:05:03Z</time></trkpt><trkpt lat="33.87791809668152" lon="7.915779909813598"><ele>97.0</ele><time>2026-04-07T18:05:04Z</time></trkpt><trkpt lat="33.877973298279414" lon="7.916045598526726"><ele>97.0</ele><time>2026-04-07T18:05:05Z</time></trkpt><trkpt lat="33.87803142125137" lon="7.916309011452426"><ele>97.0</ele><time>2026-04-07T18:05:06.001Z</time></trkpt><trkpt lat="33.87808888246733" lon="7.916572542308477"><ele>97.0</ele><time>2026-04-07T18:05:07.001Z</time></trkpt><trkpt lat="33.87814529762774" lon="7.916836410722416"><ele>97.5</ele><time>2026-04-07T18:05:08.001Z</time></trkpt><trkpt lat="33.878201620834595" lon="7.9171036773447945"><ele>98.0</ele><time>2026-04-07T18:05:09.001Z</time></trkpt><trkpt lat="33.878258255422516" lon="7.917372421827647"><ele>98.5</ele><time>2026-04-07T18:05:10.001Z</time></trkpt><trkpt lat="33.87831588328724" lon="7.917640834982144"><ele>99.0</ele><time>2026-04-07T18:05:11.001Z</time></trkpt><trkpt lat="33.878373480697746" lon="7.9179089265221725"><ele>99.0</ele><time>2026-04-07T18:05:12.001Z</time></trkpt><trkpt lat="33.878431820195395" lon="7.918175122040212"><ele>99.0</ele><time>2026-04-07T18:05:13.001Z</time></trkpt><trkpt lat="33.8784893395489" lon="7.918444371672959"><ele>100.0</ele><time>2026-04-07T18:05:14.001Z</time></trkpt><trkpt lat="33.878547901994345" lon="7.918713598691216"><ele>101.0</ele><time>2026-04-07T18:05:15.001Z</time></trkpt><trkpt lat="33.8786060749766" lon="7.9189829572655785"><ele>101.5</ele><time>2026-04-07T18:05:16.001Z</time></trkpt><trkpt lat="33.87866477651049" lon="7.919251049176289"><ele>102.0</ele><time>2026-04-07T18:05:17.001Z</time></trkpt><trkpt lat="33.87872341664973" lon="7.919519123630375"><ele>102.0</ele><time>2026-04-07T18:05:18.001Z</time></trkpt><trkpt lat="33.878781724774626" lon="7.919787607151063"><ele>102.0</ele><time>2026-04-07T18:05:19.001Z</time></trkpt><trkpt lat="33.87883821740633" lon="7.920058628254156"><ele>102.5</ele><time>2026-04-07T18:05:20.001Z</time></trkpt><trkpt lat="33.8788951924941" lon="7.920327970469489"><ele>103.0</ele><time>2026-04-07T18:05:21.001Z</time></trkpt><trkpt lat="33.878952582444214" lon="7.920597197875499"><ele>103.0</ele><time>2026-04-07T18:05:22.001Z</time></trkpt><trkpt lat="33.87900972986081" lon="7.920866935851118"><ele>103.0</ele><time>2026-04-07T18:05:23.001Z</time></trkpt><trkpt lat="33.87906852471571" lon="7.9211353124144095"><ele>104.0</ele><time>2026-04-07T18:05:24.001Z</time></trkpt><trkpt lat="33.879124380949484" lon="7.921403523059286"><ele>105.0</ele><time>2026-04-07T18:05:25.001Z</time></trkpt><trkpt lat="33.87918176488589" lon="7.921669265289398"><ele>104.5</ele><time>2026-04-07T18:05:26.001Z</time></trkpt><trkpt lat="33.87923907961514" lon="7.92193626639465"><ele>104.0</ele><time>2026-04-07T18:05:27.001Z</time></trkpt><trkpt lat="33.879298701921314" lon="7.9222018653486"><ele>104.0</ele><time>2026-04-07T18:05:28.001Z</time></trkpt><trkpt lat="33.87935466230387" lon="7.922468471178759"><ele>104.0</ele><time>2026-04-07T18:05:29.001Z</time></trkpt><trkpt lat="33.879410541933034" lon="7.922733586685554"><ele>102.5</ele><time>2026-04-07T18:05:30.001Z</time></trkpt><trkpt lat="33.87946650386423" lon="7.9229990940717"><ele>101.0</ele><time>2026-04-07T18:05:31.001Z</time></trkpt><trkpt lat="33.87952512657644" lon="7.923263075777119"><ele>102.0</ele><time>2026-04-07T18:05:32.001Z</time></trkpt><trkpt lat="33.87958379244556" lon="7.923529046645538"><ele>103.0</ele><time>2026-04-07T18:05:33.001Z</time></trkpt><trkpt lat="33.87964287884581" lon="7.923792320449242"><ele>103.0</ele><time>2026-04-07T18:05:34.001Z</time></trkpt><trkpt lat="33.879699655051375" lon="7.924054012320392"><ele>103.0</ele><time>2026-04-07T18:05:35.001Z</time></trkpt><trkpt lat="33.87975763291755" lon="7.924315977641555"><ele>103.0</ele><time>2026-04-07T18:05:36.001Z</time></trkpt><trkpt lat="33.87981450452745" lon="7.924578951403159"><ele>103.0</ele><time>2026-04-07T18:05:37.001Z</time></trkpt><trkpt lat="33.87987114412993" lon="7.924842136224447"><ele>103.5</ele><time>2026-04-07T18:05:38.001Z</time></trkpt><trkpt lat="33.879927235836554" lon="7.925105802195448"><ele>104.0</ele><time>2026-04-07T18:05:39.001Z</time></trkpt><trkpt lat="33.87998456058115" lon="7.925369685077749"><ele>104.0</ele><time>2026-04-07T18:05:40.001Z</time></trkpt><trkpt lat="33.88004202410554" lon="7.9256347929952184"><ele>104.0</ele><time>2026-04-07T18:05:41.001Z</time></trkpt><trkpt lat="33.88009865597616" lon="7.925900077380751"><ele>105.5</ele><time>2026-04-07T18:05:42.001Z</time></trkpt><trkpt lat="33.8801565901908" lon="7.9261653805020105"><ele>107.0</ele><time>2026-04-07T18:05:43.001Z</time></trkpt><trkpt lat="33.8802147863416" lon="7.9264309552508125"><ele>107.0</ele><time>2026-04-07T18:05:44.001Z</time></trkpt><trkpt lat="33.880275043158285" lon="7.926694274127661"><ele>107.0</ele><time>2026-04-07T18:05:45.001Z</time></trkpt><trkpt lat="33.8803340071298" lon="7.926957557101119"><ele>108.5</ele><time>2026-04-07T18:05:46.001Z</time></trkpt><trkpt lat="33.88039127041149" lon="7.927219997779057"><ele>110.0</ele><time>2026-04-07T18:05:47.001Z</time></trkpt><trkpt lat="33.880446676409505" lon="7.927482036679517"><ele>110.0</ele><time>2026-04-07T18:05:48.001Z</time></trkpt><trkpt lat="33.88050064056904" lon="7.927745988784276"><ele>110.0</ele><time>2026-04-07T18:05:49.001Z</time></trkpt><trkpt lat="33.88055631202917" lon="7.928008036875556"><ele>110.0</ele><time>2026-04-07T18:05:50.001Z</time></trkpt><trkpt lat="33.88061190673365" lon="7.928269681826015"><ele>110.0</ele><time>2026-04-07T18:05:51.001Z</time></trkpt><trkpt lat="33.880668262809124" lon="7.9285304259756595"><ele>110.0</ele><time>2026-04-07T18:05:52.001Z</time></trkpt><trkpt lat="33.88072463018636" lon="7.928790577471599"><ele>110.0</ele><time>2026-04-07T18:05:53.001Z</time></trkpt><trkpt lat="33.88078129111712" lon="7.9290499103349745"><ele>110.0</ele><time>2026-04-07T18:05:54.001Z</time></trkpt><trkpt lat="33.880837762331986" lon="7.929309621032688"><ele>110.0</ele><time>2026-04-07T18:05:55.001Z</time></trkpt><trkpt lat="33.880893654620074" lon="7.929569853430811"><ele>110.33333333333333</ele><time>2026-04-07T18:05:56.001Z</time></trkpt><trkpt lat="33.88094827593373" lon="7.92982898540954"><ele>110.66666666666666</ele><time>2026-04-07T18:05:57.001Z</time></trkpt><trkpt lat="33.881002466946526" lon="7.930089783433997"><ele>111.0</ele><time>2026-04-07T18:05:58.001Z</time></trkpt><trkpt lat="33.88105734372544" lon="7.930351549642918"><ele>111.0</ele><time>2026-04-07T18:05:59.001Z</time></trkpt><trkpt lat="33.881113080511575" lon="7.930611480518707"><ele>111.0</ele><time>2026-04-07T18:06:00.001Z</time></trkpt><trkpt lat="33.88117014801234" lon="7.930871072527234"><ele>111.0</ele><time>2026-04-07T18:06:01.001Z</time></trkpt><trkpt lat="33.88122619824533" lon="7.9311308098906785"><ele>110.66666666666666</ele><time>2026-04-07T18:06:02.001Z</time></trkpt><trkpt lat="33.881283630132444" lon="7.931390548858004"><ele>110.33333333333333</ele><time>2026-04-07T18:06:03.001Z</time></trkpt><trkpt lat="33.88134155122972" lon="7.931650286076273"><ele>110.0</ele><time>2026-04-07T18:06:04.001Z</time></trkpt><trkpt lat="33.88139785213224" lon="7.931912448967997"><ele>110.0</ele><time>2026-04-07T18:06:05.001Z</time></trkpt><trkpt lat="33.88145278189018" lon="7.9321748949596635"><ele>110.0</ele><time>2026-04-07T18:06:06.001Z</time></trkpt><trkpt lat="33.881508553357854" lon="7.9324377080159705"><ele>110.0</ele><time>2026-04-07T18:06:07.001Z</time></trkpt><trkpt lat="33.88156430729085" lon="7.932700333580582"><ele>110.0</ele><time>2026-04-07T18:06:08.001Z</time></trkpt><trkpt lat="33.88162127152747" lon="7.932961280011995"><ele>110.0</ele><time>2026-04-07T18:06:09.001Z</time></trkpt><trkpt lat="33.88167828047063" lon="7.933222429558238"><ele>110.0</ele><time>2026-04-07T18:06:10.001Z</time></trkpt><trkpt lat="33.88173764791446" lon="7.933485801016639"><ele>110.0</ele><time>2026-04-07T18:06:11.001Z</time></trkpt><trkpt lat="33.88179560102655" lon="7.933747892361855"><ele>110.0</ele><time>2026-04-07T18:06:12.001Z</time></trkpt><trkpt lat="33.88185392911062" lon="7.9340109479366525"><ele>110.0</ele><time>2026-04-07T18:06:13.001Z</time></trkpt><trkpt lat="33.88191241942797" lon="7.93427370635287"><ele>110.33333333333333</ele><time>2026-04-07T18:06:14.001Z</time></trkpt><trkpt lat="33.88196875693606" lon="7.934535550182826"><ele>110.66666666666666</ele><time>2026-04-07T18:06:15.001Z</time></trkpt><trkpt lat="33.8820247698157" lon="7.934796736847424"><ele>111.0</ele><time>2026-04-07T18:06:16.001Z</time></trkpt><trkpt lat="33.88208057818877" lon="7.935060627058669"><ele>111.0</ele><time>2026-04-07T18:06:17.001Z</time></trkpt><trkpt lat="33.882137143929924" lon="7.935325134940085"><ele>111.0</ele><time>2026-04-07T18:06:18.001Z</time></trkpt><trkpt lat="33.882194022768395" lon="7.935589107439322"><ele>111.0</ele><time>2026-04-07T18:06:19.001Z</time></trkpt><trkpt lat="33.88225137281678" lon="7.935854753929203"><ele>111.0</ele><time>2026-04-07T18:06:20.001Z</time></trkpt><trkpt lat="33.88230910971468" lon="7.936120499262322"><ele>112.5</ele><time>2026-04-07T18:06:21.001Z</time></trkpt><trkpt lat="33.88236594628213" lon="7.936385264503081"><ele>114.0</ele><time>2026-04-07T18:06:22.001Z</time></trkpt><trkpt lat="33.882422514234115" lon="7.936649834231847"><ele>114.33333333333334</ele><time>2026-04-07T18:06:23.001Z</time></trkpt><trkpt lat="33.88247987279432" lon="7.936910400547018"><ele>114.66666666666667</ele><time>2026-04-07T18:06:24.001Z</time></trkpt><trkpt lat="33.88253502050374" lon="7.937170609116414"><ele>115.0</ele><time>2026-04-07T18:06:25.001Z</time></trkpt><trkpt lat="33.88259008052643" lon="7.9374307813432186"><ele>116.33333333333334</ele><time>2026-04-07T18:06:26.001Z</time></trkpt><trkpt lat="33.882645610222305" lon="7.937688878626362"><ele>117.66666666666666</ele><time>2026-04-07T18:06:27.001Z</time></trkpt><trkpt lat="33.88269962265153" lon="7.9379457651491325"><ele>119.0</ele><time>2026-04-07T18:06:28.001Z</time></trkpt><trkpt lat="33.882755077693254" lon="7.938202274885921"><ele>119.0</ele><time>2026-04-07T18:06:29.001Z</time></trkpt><trkpt lat="33.88281181461816" lon="7.938461120047856"><ele>119.0</ele><time>2026-04-07T18:06:30.001Z</time></trkpt><trkpt lat="33.88286844823099" lon="7.9387208044410515"><ele>119.0</ele><time>2026-04-07T18:06:31.001Z</time></trkpt><trkpt lat="33.88292410342353" lon="7.938980522371378"><ele>119.33333333333333</ele><time>2026-04-07T18:06:32.001Z</time></trkpt><trkpt lat="33.88297904444934" lon="7.939240146514502"><ele>119.66666666666666</ele><time>2026-04-07T18:06:33.001Z</time></trkpt><trkpt lat="33.8830349517862" lon="7.939498820125083"><ele>120.0</ele><time>2026-04-07T18:06:34.001Z</time></trkpt><trkpt lat="33.88309101386378" lon="7.93975817239143"><ele>120.0</ele><time>2026-04-07T18:06:35.001Z</time></trkpt><trkpt lat="33.883145410469" lon="7.940019258050762"><ele>120.0</ele><time>2026-04-07T18:06:36.001Z</time></trkpt><trkpt lat="33.88320021203974" lon="7.9402793582239815"><ele>120.0</ele><time>2026-04-07T18:06:37.001Z</time></trkpt><trkpt lat="33.88325544538177" lon="7.940538766718535"><ele>120.0</ele><time>2026-04-07T18:06:38.001Z</time></trkpt><trkpt lat="33.88331231997049" lon="7.940799879968471"><ele>120.0</ele><time>2026-04-07T18:06:39.002Z</time></trkpt><trkpt lat="33.88336855255" lon="7.941060704891281"><ele>120.0</ele><time>2026-04-07T18:06:40.002Z</time></trkpt><trkpt lat="33.8834239042672" lon="7.941322426164339"><ele>120.66666666666666</ele><time>2026-04-07T18:06:41.002Z</time></trkpt><trkpt lat="33.88348063709619" lon="7.941583879242757"><ele>121.33333333333333</ele><time>2026-04-07T18:06:42.002Z</time></trkpt><trkpt lat="33.883539250807075" lon="7.941845039345412"><ele>122.0</ele><time>2026-04-07T18:06:43.002Z</time></trkpt><trkpt lat="33.88359882488322" lon="7.942108488415637"><ele>123.5</ele><time>2026-04-07T18:06:44.002Z</time></trkpt><trkpt lat="33.88365898389968" lon="7.942372052666199"><ele>125.0</ele><time>2026-04-07T18:06:45.002Z</time></trkpt><trkpt lat="33.88371864164362" lon="7.942636468001374"><ele>125.0</ele><time>2026-04-07T18:06:46.002Z</time></trkpt><trkpt lat="33.88377620204872" lon="7.942900966077203"><ele>125.0</ele><time>2026-04-07T18:06:47Z</time></trkpt><trkpt lat="33.883832499076185" lon="7.943164629257918"><ele>124.5</ele><time>2026-04-07T18:06:48Z</time></trkpt><trkpt lat="33.883887434185105" lon="7.943429494465723"><ele>124.0</ele><time>2026-04-07T18:06:49Z</time></trkpt><trkpt lat="33.88394099837209" lon="7.943697321125526"><ele>124.0</ele><time>2026-04-07T18:06:50Z</time></trkpt><trkpt lat="33.883994298049295" lon="7.9439637946134365"><ele>124.0</ele><time>2026-04-07T18:06:51Z</time></trkpt><trkpt lat="33.884050184072" lon="7.944226695482864"><ele>123.5</ele><time>2026-04-07T18:06:52Z</time></trkpt><trkpt lat="33.884107708717224" lon="7.944488620407966"><ele>123.0</ele><time>2026-04-07T18:06:53Z</time></trkpt><trkpt lat="33.88416833451824" lon="7.944752906379974"><ele>123.0</ele><time>2026-04-07T18:06:54Z</time></trkpt><trkpt lat="33.884226034882914" lon="7.945017869898219"><ele>123.0</ele><time>2026-04-07T18:06:55Z</time></trkpt><trkpt lat="33.88428358569201" lon="7.945281136365927"><ele>125.0</ele><time>2026-04-07T18:06:56Z</time></trkpt><trkpt lat="33.884339749596464" lon="7.945545327199757"><ele>127.0</ele><time>2026-04-07T18:06:57Z</time></trkpt><trkpt lat="33.884395740372106" lon="7.945812785323357"><ele>127.5</ele><time>2026-04-07T18:06:58Z</time></trkpt><trkpt lat="33.88445192022569" lon="7.946079742774969"><ele>128.0</ele><time>2026-04-07T18:06:59Z</time></trkpt><trkpt lat="33.88450864136387" lon="7.9463450771410065"><ele>128.0</ele><time>2026-04-07T18:07:00Z</time></trkpt><trkpt lat="33.88456575283457" lon="7.946609357111213"><ele>128.0</ele><time>2026-04-07T18:07:01Z</time></trkpt><trkpt lat="33.884622145208304" lon="7.946872973134057"><ele>128.0</ele><time>2026-04-07T18:07:02Z</time></trkpt><trkpt lat="33.88467697901687" lon="7.947136848050858"><ele>128.0</ele><time>2026-04-07T18:07:03Z</time></trkpt><trkpt lat="33.88473360144055" lon="7.947398738005644"><ele>128.0</ele><time>2026-04-07T18:07:04Z</time></trkpt><trkpt lat="33.884790020335956" lon="7.947660112182883"><ele>128.0</ele><time>2026-04-07T18:07:05Z</time></trkpt><trkpt lat="33.88484793712486" lon="7.947920272711713"><ele>128.0</ele><time>2026-04-07T18:07:06Z</time></trkpt><trkpt lat="33.88490340326712" lon="7.948181017216828"><ele>127.33333333333333</ele><time>2026-04-07T18:07:07Z</time></trkpt><trkpt lat="33.88495835961096" lon="7.948444252611982"><ele>126.66666666666666</ele><time>2026-04-07T18:07:08Z</time></trkpt><trkpt lat="33.88501451220741" lon="7.948704666191812"><ele>126.0</ele><time>2026-04-07T18:07:09Z</time></trkpt><trkpt lat="33.88507217059324" lon="7.948965237707126"><ele>126.0</ele><time>2026-04-07T18:07:10Z</time></trkpt><trkpt lat="33.88513128378466" lon="7.949228349515447"><ele>126.0</ele><time>2026-04-07T18:07:11Z</time></trkpt><trkpt lat="33.88518885784754" lon="7.949492055192506"><ele>126.0</ele><time>2026-04-07T18:07:12Z</time></trkpt><trkpt lat="33.88524597020699" lon="7.949756903865314"><ele>126.0</ele><time>2026-04-07T18:07:13Z</time></trkpt><trkpt lat="33.88530233139293" lon="7.950021866268446"><ele>126.0</ele><time>2026-04-07T18:07:14Z</time></trkpt><trkpt lat="33.88535914486856" lon="7.950284971611482"><ele>126.0</ele><time>2026-04-07T18:07:15Z</time></trkpt><trkpt lat="33.88541538056398" lon="7.950548758318615"><ele>126.0</ele><time>2026-04-07T18:07:16Z</time></trkpt><trkpt lat="33.885470110057305" lon="7.950813197405029"><ele>126.0</ele><time>2026-04-07T18:07:17Z</time></trkpt><trkpt lat="33.88552523669135" lon="7.951077729737219"><ele>125.5</ele><time>2026-04-07T18:07:18Z</time></trkpt><trkpt lat="33.88558041165777" lon="7.951343212750757"><ele>125.0</ele><time>2026-04-07T18:07:19Z</time></trkpt><trkpt lat="33.885635867027894" lon="7.951606732365149"><ele>124.5</ele><time>2026-04-07T18:07:20Z</time></trkpt><trkpt lat="33.885692003575066" lon="7.951872121633082"><ele>124.0</ele><time>2026-04-07T18:07:21Z</time></trkpt><trkpt lat="33.885749533744466" lon="7.95213502806914"><ele>124.0</ele><time>2026-04-07T18:07:22Z</time></trkpt><trkpt lat="33.88580639288599" lon="7.9523975764921255"><ele>124.0</ele><time>2026-04-07T18:07:23Z</time></trkpt><trkpt lat="33.88586303532155" lon="7.952660068447852"><ele>125.33333333333334</ele><time>2026-04-07T18:07:24Z</time></trkpt><trkpt lat="33.88591796102525" lon="7.952920851682126"><ele>126.66666666666666</ele><time>2026-04-07T18:07:25Z</time></trkpt><trkpt lat="33.88597280683862" lon="7.953179738217134"><ele>128.0</ele><time>2026-04-07T18:07:26Z</time></trkpt><trkpt lat="33.88602825722367" lon="7.953438814269101"><ele>129.0</ele><time>2026-04-07T18:07:27Z</time></trkpt><trkpt lat="33.88608439900285" lon="7.953696461549836"><ele>130.0</ele><time>2026-04-07T18:07:28Z</time></trkpt><trkpt lat="33.88614020443059" lon="7.953954739933596"><ele>131.0</ele><time>2026-04-07T18:07:29Z</time></trkpt><trkpt lat="33.886194119118954" lon="7.954212235442012"><ele>131.0</ele><time>2026-04-07T18:07:30Z</time></trkpt><trkpt lat="33.886248160001195" lon="7.954469687337528"><ele>131.0</ele><time>2026-04-07T18:07:31Z</time></trkpt><trkpt lat="33.88630301230926" lon="7.954726142716033"><ele>131.0</ele><time>2026-04-07T18:07:32Z</time></trkpt><trkpt lat="33.88636001762884" lon="7.954982848758068"><ele>131.0</ele><time>2026-04-07T18:07:33Z</time></trkpt><trkpt lat="33.88641767763788" lon="7.955238839662962"><ele>131.0</ele><time>2026-04-07T18:07:34Z</time></trkpt><trkpt lat="33.88647307088767" lon="7.955498007930381"><ele>131.0</ele><time>2026-04-07T18:07:35Z</time></trkpt><trkpt lat="33.88652812960415" lon="7.955760043082059"><ele>130.5</ele><time>2026-04-07T18:07:36Z</time></trkpt><trkpt lat="33.88658287715927" lon="7.956023072620797"><ele>130.0</ele><time>2026-04-07T18:07:37Z</time></trkpt><trkpt lat="33.886638014756905" lon="7.956285254881086"><ele>130.0</ele><time>2026-04-07T18:07:38Z</time></trkpt><trkpt lat="33.886693474644524" lon="7.956552005832337"><ele>130.0</ele><time>2026-04-07T18:07:39Z</time></trkpt><trkpt lat="33.88675099023404" lon="7.9568190497844995"><ele>131.0</ele><time>2026-04-07T18:07:40Z</time></trkpt><trkpt lat="33.88680878781905" lon="7.95708553038916"><ele>132.0</ele><time>2026-04-07T18:07:41Z</time></trkpt><trkpt lat="33.886869149992435" lon="7.957355837883494"><ele>132.0</ele><time>2026-04-07T18:07:42Z</time></trkpt><trkpt lat="33.886929026461296" lon="7.957626734981236"><ele>132.0</ele><time>2026-04-07T18:07:43Z</time></trkpt><trkpt lat="33.88698778212867" lon="7.957897257933559"><ele>132.0</ele><time>2026-04-07T18:07:44Z</time></trkpt><trkpt lat="33.887044990187434" lon="7.9581674851378725"><ele>132.0</ele><time>2026-04-07T18:07:45Z</time></trkpt><trkpt lat="33.887103763678205" lon="7.958440023770354"><ele>132.0</ele><time>2026-04-07T18:07:46Z</time></trkpt><trkpt lat="33.887164024437865" lon="7.958710195386999"><ele>132.0</ele><time>2026-04-07T18:07:47Z</time></trkpt><trkpt lat="33.88722270384277" lon="7.958980450844391"><ele>131.5</ele><time>2026-04-07T18:07:48.001Z</time></trkpt><trkpt lat="33.88728020861604" lon="7.959250984971649"><ele>131.0</ele><time>2026-04-07T18:07:49.001Z</time></trkpt><trkpt lat="33.88733871760487" lon="7.9595215090161995"><ele>131.0</ele><time>2026-04-07T18:07:50.001Z</time></trkpt><trkpt lat="33.88739673427158" lon="7.959791361956172"><ele>131.0</ele><time>2026-04-07T18:07:51.001Z</time></trkpt><trkpt lat="33.88745474982169" lon="7.960061245469634"><ele>131.0</ele><time>2026-04-07T18:07:52.001Z</time></trkpt><trkpt lat="33.88751278241706" lon="7.960330628323611"><ele>131.0</ele><time>2026-04-07T18:07:53.001Z</time></trkpt><trkpt lat="33.88757016691066" lon="7.960598911542819"><ele>133.5</ele><time>2026-04-07T18:07:54.001Z</time></trkpt><trkpt lat="33.88762665788669" lon="7.960868426121786"><ele>136.0</ele><time>2026-04-07T18:07:55.001Z</time></trkpt><trkpt lat="33.88768386749024" lon="7.961136024093704"><ele>136.0</ele><time>2026-04-07T18:07:56.001Z</time></trkpt><trkpt lat="33.88774324738188" lon="7.961402291476858"><ele>136.0</ele><time>2026-04-07T18:07:57.001Z</time></trkpt><trkpt lat="33.88780221468685" lon="7.961667052388883"><ele>136.5</ele><time>2026-04-07T18:07:58.001Z</time></trkpt><trkpt lat="33.88786080000514" lon="7.961933389172334"><ele>137.0</ele><time>2026-04-07T18:07:59.001Z</time></trkpt><trkpt lat="33.88791931113165" lon="7.9621983466126"><ele>137.0</ele><time>2026-04-07T18:08:00.001Z</time></trkpt><trkpt lat="33.88797538731803" lon="7.962464959791227"><ele>137.0</ele><time>2026-04-07T18:08:01.001Z</time></trkpt><trkpt lat="33.88803074513609" lon="7.962729825842258"><ele>137.0</ele><time>2026-04-07T18:08:02.001Z</time></trkpt><trkpt lat="33.88808485864606" lon="7.962994013965634"><ele>137.0</ele><time>2026-04-07T18:08:03.001Z</time></trkpt><trkpt lat="33.88813979745897" lon="7.963255749386095"><ele>136.66666666666666</ele><time>2026-04-07T18:08:04.001Z</time></trkpt><trkpt lat="33.88819731183974" lon="7.963514310640366"><ele>136.33333333333334</ele><time>2026-04-07T18:08:05.001Z</time></trkpt><trkpt lat="33.88825430163599" lon="7.963773612850611"><ele>136.0</ele><time>2026-04-07T18:08:06.001Z</time></trkpt><trkpt lat="33.88831087889234" lon="7.964032612894709"><ele>136.33333333333334</ele><time>2026-04-07T18:08:07.001Z</time></trkpt><trkpt lat="33.88836864300072" lon="7.964288269519571"><ele>136.66666666666666</ele><time>2026-04-07T18:08:08.001Z</time></trkpt><trkpt lat="33.888424159356575" lon="7.964544980618843"><ele>137.0</ele><time>2026-04-07T18:08:09.001Z</time></trkpt><trkpt lat="33.888480056695265" lon="7.964800517647426"><ele>138.0</ele><time>2026-04-07T18:08:10.001Z</time></trkpt><trkpt lat="33.888535112241065" lon="7.965057883139201"><ele>139.0</ele><time>2026-04-07T18:08:11.001Z</time></trkpt><trkpt lat="33.88858940544608" lon="7.965315952050403"><ele>140.0</ele><time>2026-04-07T18:08:12.001Z</time></trkpt><trkpt lat="33.88864593186347" lon="7.965573544328953"><ele>140.0</ele><time>2026-04-07T18:08:13.001Z</time></trkpt><trkpt lat="33.88870173354376" lon="7.965832217593428"><ele>140.0</ele><time>2026-04-07T18:08:14.001Z</time></trkpt><trkpt lat="33.888756615455726" lon="7.966091305256305"><ele>140.0</ele><time>2026-04-07T18:08:15.001Z</time></trkpt><trkpt lat="33.88881190985116" lon="7.966351195160441"><ele>140.0</ele><time>2026-04-07T18:08:16.001Z</time></trkpt><trkpt lat="33.88886699483714" lon="7.9666150319380975"><ele>140.0</ele><time>2026-04-07T18:08:17.001Z</time></trkpt><trkpt lat="33.88892393668951" lon="7.966877436842325"><ele>140.5</ele><time>2026-04-07T18:08:18.001Z</time></trkpt><trkpt lat="33.8889815639128" lon="7.967140097517498"><ele>141.0</ele><time>2026-04-07T18:08:19.001Z</time></trkpt><trkpt lat="33.889038792268224" lon="7.9674022109949005"><ele>140.0</ele><time>2026-04-07T18:08:20.001Z</time></trkpt><trkpt lat="33.88909566470609" lon="7.967665715959656"><ele>139.0</ele><time>2026-04-07T18:08:21.001Z</time></trkpt><trkpt lat="33.88915112003374" lon="7.967930155429561"><ele>139.0</ele><time>2026-04-07T18:08:22.001Z</time></trkpt><trkpt lat="33.88920642765973" lon="7.968194796223923"><ele>139.0</ele><time>2026-04-07T18:08:23.001Z</time></trkpt><trkpt lat="33.88926260912073" lon="7.968461753347179"><ele>139.5</ele><time>2026-04-07T18:08:24.001Z</time></trkpt><trkpt lat="33.889318791907826" lon="7.968726557547267"><ele>140.0</ele><time>2026-04-07T18:08:25.001Z</time></trkpt><trkpt lat="33.88937445900827" lon="7.96898886843981"><ele>140.33333333333331</ele><time>2026-04-07T18:08:26.001Z</time></trkpt><trkpt lat="33.88943038619416" lon="7.969250579894481"><ele>140.66666666666666</ele><time>2026-04-07T18:08:27.001Z</time></trkpt><trkpt lat="33.88948632211781" lon="7.969511222359129"><ele>141.0</ele><time>2026-04-07T18:08:28.001Z</time></trkpt><trkpt lat="33.88954228582798" lon="7.969770435616077"><ele>140.66666666666666</ele><time>2026-04-07T18:08:29.001Z</time></trkpt><trkpt lat="33.88959822244431" lon="7.970031521582933"><ele>140.33333333333331</ele><time>2026-04-07T18:08:30.001Z</time></trkpt><trkpt lat="33.889654162393434" lon="7.970290265804102"><ele>140.0</ele><time>2026-04-07T18:08:31.001Z</time></trkpt><trkpt lat="33.88970963439805" lon="7.970548835401263"><ele>140.0</ele><time>2026-04-07T18:08:32.001Z</time></trkpt><trkpt lat="33.88976549473938" lon="7.970806949750464"><ele>140.0</ele><time>2026-04-07T18:08:33.001Z</time></trkpt><trkpt lat="33.88982127106343" lon="7.9710678844010445"><ele>140.0</ele><time>2026-04-07T18:08:34.001Z</time></trkpt><trkpt lat="33.8898772029546" lon="7.971328329765225"><ele>139.66666666666666</ele><time>2026-04-07T18:08:35.001Z</time></trkpt><trkpt lat="33.88993316353855" lon="7.971589704080678"><ele>139.33333333333334</ele><time>2026-04-07T18:08:36.001Z</time></trkpt><trkpt lat="33.88998953966482" lon="7.971850858289613"><ele>139.0</ele><time>2026-04-07T18:08:37.001Z</time></trkpt><trkpt lat="33.890045993218166" lon="7.972113602282234"><ele>141.0</ele><time>2026-04-07T18:08:38.001Z</time></trkpt><trkpt lat="33.89010022116663" lon="7.972376098184109"><ele>143.0</ele><time>2026-04-07T18:08:39.001Z</time></trkpt><trkpt lat="33.89015742790526" lon="7.972639947765472"><ele>143.0</ele><time>2026-04-07T18:08:40.001Z</time></trkpt><trkpt lat="33.89020990050783" lon="7.972902510799621"><ele>143.0</ele><time>2026-04-07T18:08:41.001Z</time></trkpt><trkpt lat="33.89026628564402" lon="7.973161914725723"><ele>143.0</ele><time>2026-04-07T18:08:42.001Z</time></trkpt><trkpt lat="33.89032513435287" lon="7.973421657770708"><ele>142.5</ele><time>2026-04-07T18:08:43.001Z</time></trkpt><trkpt lat="33.890381822351415" lon="7.97368446751748"><ele>142.0</ele><time>2026-04-07T18:08:44.001Z</time></trkpt><trkpt lat="33.890439545670176" lon="7.973946211803127"><ele>142.0</ele><time>2026-04-07T18:08:45.001Z</time></trkpt><trkpt lat="33.890498564193166" lon="7.974207654557931"><ele>142.0</ele><time>2026-04-07T18:08:46.001Z</time></trkpt><trkpt lat="33.890555680043185" lon="7.9744676990197885"><ele>142.0</ele><time>2026-04-07T18:08:47.001Z</time></trkpt><trkpt lat="33.89061214072843" lon="7.97472850905976"><ele>142.0</ele><time>2026-04-07T18:08:48.001Z</time></trkpt><trkpt lat="33.890667696728265" lon="7.974988608177262"><ele>142.0</ele><time>2026-04-07T18:08:49.001Z</time></trkpt><trkpt lat="33.8907243278481" lon="7.975250445857933"><ele>142.0</ele><time>2026-04-07T18:08:50.001Z</time></trkpt><trkpt lat="33.89077968023568" lon="7.9755138108889465"><ele>141.33333333333334</ele><time>2026-04-07T18:08:51.001Z</time></trkpt><trkpt lat="33.890835356811685" lon="7.975776015905723"><ele>140.66666666666666</ele><time>2026-04-07T18:08:52.001Z</time></trkpt><trkpt lat="33.89088962602064" lon="7.97603809419407"><ele>140.0</ele><time>2026-04-07T18:08:52.999Z</time></trkpt><trkpt lat="33.89094392630939" lon="7.976299362316709"><ele>141.0</ele><time>2026-04-07T18:08:53.999Z</time></trkpt><trkpt lat="33.89100099116513" lon="7.976562086502407"><ele>142.0</ele><time>2026-04-07T18:08:54.999Z</time></trkpt><trkpt lat="33.891056798041014" lon="7.976827510002057"><ele>142.0</ele><time>2026-04-07T18:08:55.999Z</time></trkpt><trkpt lat="33.89111521624248" lon="7.977091660043984"><ele>142.0</ele><time>2026-04-07T18:08:56.999Z</time></trkpt><trkpt lat="33.8911746503304" lon="7.977355223779829"><ele>142.0</ele><time>2026-04-07T18:08:57.999Z</time></trkpt><trkpt lat="33.89123355437984" lon="7.9776177585689085"><ele>142.0</ele><time>2026-04-07T18:08:58.999Z</time></trkpt><trkpt lat="33.89128921695511" lon="7.977881336091911"><ele>142.0</ele><time>2026-04-07T18:08:59.999Z</time></trkpt><trkpt lat="33.891344317961405" lon="7.978145290095859"><ele>142.0</ele><time>2026-04-07T18:09:00.999Z</time></trkpt><trkpt lat="33.891399545166706" lon="7.978407115229543"><ele>142.33333333333334</ele><time>2026-04-07T18:09:01.999Z</time></trkpt><trkpt lat="33.8914550453958" lon="7.978668655752767"><ele>142.66666666666666</ele><time>2026-04-07T18:09:02.999Z</time></trkpt><trkpt lat="33.89151090495838" lon="7.978929833981333"><ele>143.0</ele><time>2026-04-07T18:09:03.999Z</time></trkpt><trkpt lat="33.89156842952965" lon="7.97919086990059"><ele>143.0</ele><time>2026-04-07T18:09:04.999Z</time></trkpt><trkpt lat="33.89162534204271" lon="7.979449462536293"><ele>143.0</ele><time>2026-04-07T18:09:05.999Z</time></trkpt><trkpt lat="33.89168196566023" lon="7.9797097867929905"><ele>143.0</ele><time>2026-04-07T18:09:06.999Z</time></trkpt><trkpt lat="33.89173820487667" lon="7.9799718012423755"><ele>145.0</ele><time>2026-04-07T18:09:07.999Z</time></trkpt><trkpt lat="33.89179429341849" lon="7.980234514172567"><ele>147.0</ele><time>2026-04-07T18:09:08.999Z</time></trkpt><trkpt lat="33.891850135929204" lon="7.980498096566092"><ele>147.0</ele><time>2026-04-07T18:09:09.999Z</time></trkpt><trkpt lat="33.8919046446909" lon="7.980764464696245"><ele>147.0</ele><time>2026-04-07T18:09:10.999Z</time></trkpt><trkpt lat="33.89196087651041" lon="7.981030406118941"><ele>146.5</ele><time>2026-04-07T18:09:11.999Z</time></trkpt><trkpt lat="33.892016976905495" lon="7.981296830370837"><ele>146.0</ele><time>2026-04-07T18:09:12.999Z</time></trkpt><trkpt lat="33.89207328082054" lon="7.981564337016341"><ele>145.0</ele><time>2026-04-07T18:09:13.999Z</time></trkpt><trkpt lat="33.89213179085034" lon="7.9818319192155"><ele>144.0</ele><time>2026-04-07T18:09:14.999Z</time></trkpt><trkpt lat="33.89218901896717" lon="7.982098603304499"><ele>144.0</ele><time>2026-04-07T18:09:15.999Z</time></trkpt><trkpt lat="33.89224640234561" lon="7.9823671657178865"><ele>144.0</ele><time>2026-04-07T18:09:16.999Z</time></trkpt><trkpt lat="33.89230347388987" lon="7.982634823888645"><ele>143.0</ele><time>2026-04-07T18:09:17.999Z</time></trkpt><trkpt lat="33.89236231047705" lon="7.982905562712708"><ele>142.0</ele><time>2026-04-07T18:09:18.999Z</time></trkpt><trkpt lat="33.89242422675878" lon="7.983177864287609"><ele>142.0</ele><time>2026-04-07T18:09:20Z</time></trkpt><trkpt lat="33.892485097438815" lon="7.983451198985097"><ele>142.0</ele><time>2026-04-07T18:09:21Z</time></trkpt><trkpt lat="33.892546354234845" lon="7.983720037557984"><ele>142.5</ele><time>2026-04-07T18:09:22Z</time></trkpt><trkpt lat="33.89260506783908" lon="7.983992668909032"><ele>143.0</ele><time>2026-04-07T18:09:23Z</time></trkpt><trkpt lat="33.892662626956266" lon="7.984267292268422"><ele>143.0</ele><time>2026-04-07T18:09:24Z</time></trkpt><trkpt lat="33.892719975314215" lon="7.9845406396603655"><ele>143.0</ele><time>2026-04-07T18:09:25Z</time></trkpt><trkpt lat="33.89277759839466" lon="7.984814888209655"><ele>143.0</ele><time>2026-04-07T18:09:26Z</time></trkpt><trkpt lat="33.89283627492585" lon="7.9850888067851304"><ele>143.0</ele><time>2026-04-07T18:09:27Z</time></trkpt><trkpt lat="33.89289479781746" lon="7.985361588593146"><ele>143.0</ele><time>2026-04-07T18:09:28Z</time></trkpt><trkpt lat="33.89295317373352" lon="7.98563480784904"><ele>143.0</ele><time>2026-04-07T18:09:29Z</time></trkpt><trkpt lat="33.89301116445071" lon="7.985909897009106"><ele>142.5</ele><time>2026-04-07T18:09:30Z</time></trkpt><trkpt lat="33.893068888417496" lon="7.986184371003996"><ele>142.0</ele><time>2026-04-07T18:09:31Z</time></trkpt><trkpt lat="33.89312617527406" lon="7.986457265814651"><ele>143.0</ele><time>2026-04-07T18:09:32Z</time></trkpt><trkpt lat="33.893183731874096" lon="7.986729789651431"><ele>144.0</ele><time>2026-04-07T18:09:33Z</time></trkpt><trkpt lat="33.89324114372686" lon="7.987001190759311"><ele>144.0</ele><time>2026-04-07T18:09:34Z</time></trkpt><trkpt lat="33.893299148071115" lon="7.98727393083175"><ele>144.0</ele><time>2026-04-07T18:09:35Z</time></trkpt><trkpt lat="33.893356579016825" lon="7.987545206544042"><ele>143.5</ele><time>2026-04-07T18:09:36Z</time></trkpt><trkpt lat="33.89341419928358" lon="7.987815760779448"><ele>143.0</ele><time>2026-04-07T18:09:37Z</time></trkpt><trkpt lat="33.89347303077002" lon="7.988086085110795"><ele>145.0</ele><time>2026-04-07T18:09:38Z</time></trkpt><trkpt lat="33.89353132539648" lon="7.988355828583295"><ele>147.0</ele><time>2026-04-07T18:09:39Z</time></trkpt><trkpt lat="33.893590491300635" lon="7.988625033443492"><ele>147.0</ele><time>2026-04-07T18:09:40Z</time></trkpt><trkpt lat="33.89364939050151" lon="7.988894723732418"><ele>147.0</ele><time>2026-04-07T18:09:41Z</time></trkpt><trkpt lat="33.89370665035699" lon="7.989164504430445"><ele>147.0</ele><time>2026-04-07T18:09:42Z</time></trkpt><trkpt lat="33.8937640784456" lon="7.989435876363753"><ele>147.0</ele><time>2026-04-07T18:09:43Z</time></trkpt><trkpt lat="33.893822634444135" lon="7.989707787148247"><ele>147.0</ele><time>2026-04-07T18:09:44Z</time></trkpt><trkpt lat="33.89388129274498" lon="7.9899809555593775"><ele>147.0</ele><time>2026-04-07T18:09:45Z</time></trkpt><trkpt lat="33.89394021889388" lon="7.99025500827377"><ele>147.5</ele><time>2026-04-07T18:09:46Z</time></trkpt><trkpt lat="33.89400003159227" lon="7.99053035386322"><ele>148.0</ele><time>2026-04-07T18:09:47Z</time></trkpt><trkpt lat="33.89405956595354" lon="7.990806524987359"><ele>148.0</ele><time>2026-04-07T18:09:48Z</time></trkpt><trkpt lat="33.89412030439651" lon="7.991084242226433"><ele>148.0</ele><time>2026-04-07T18:09:49Z</time></trkpt><trkpt lat="33.89418294166868" lon="7.991362077452482"><ele>148.0</ele><time>2026-04-07T18:09:50Z</time></trkpt><trkpt lat="33.894244475329586" lon="7.991645141458556"><ele>148.0</ele><time>2026-04-07T18:09:51Z</time></trkpt><trkpt lat="33.89430215729715" lon="7.99192116479286"><ele>150.0</ele><time>2026-04-07T18:09:52Z</time></trkpt><trkpt lat="33.894362188214835" lon="7.992196235860817"><ele>152.0</ele><time>2026-04-07T18:09:53Z</time></trkpt><trkpt lat="33.89442153417799" lon="7.9924709590108085"><ele>152.5</ele><time>2026-04-07T18:09:54Z</time></trkpt><trkpt lat="33.89447985517534" lon="7.992744397746346"><ele>153.0</ele><time>2026-04-07T18:09:55Z</time></trkpt><trkpt lat="33.89453779625618" lon="7.993017851089196"><ele>153.0</ele><time>2026-04-07T18:09:56Z</time></trkpt><trkpt lat="33.89459654597013" lon="7.9932924529462905"><ele>153.0</ele><time>2026-04-07T18:09:57Z</time></trkpt><trkpt lat="33.89465631663168" lon="7.993566704096242"><ele>153.0</ele><time>2026-04-07T18:09:58Z</time></trkpt><trkpt lat="33.894714956810965" lon="7.993839258251059"><ele>153.0</ele><time>2026-04-07T18:09:59Z</time></trkpt><trkpt lat="33.894773647643966" lon="7.994111773509709"><ele>153.5</ele><time>2026-04-07T18:10:00Z</time></trkpt><trkpt lat="33.89483231516205" lon="7.994383720666921"><ele>154.0</ele><time>2026-04-07T18:10:01Z</time></trkpt><trkpt lat="33.894890401394804" lon="7.994655755545269"><ele>154.0</ele><time>2026-04-07T18:10:02Z</time></trkpt><trkpt lat="33.89494920204415" lon="7.994929790106706"><ele>154.0</ele><time>2026-04-07T18:10:03Z</time></trkpt><trkpt lat="33.89500610261516" lon="7.995202978260392"><ele>153.0</ele><time>2026-04-07T18:10:04Z</time></trkpt><trkpt lat="33.89506355895009" lon="7.995476881701659"><ele>152.0</ele><time>2026-04-07T18:10:05Z</time></trkpt><trkpt lat="33.89512181391208" lon="7.995749952849091"><ele>153.0</ele><time>2026-04-07T18:10:06Z</time></trkpt><trkpt lat="33.895180413494536" lon="7.996024353684958"><ele>154.0</ele><time>2026-04-07T18:10:07Z</time></trkpt><trkpt lat="33.89523934378303" lon="7.99629707249586"><ele>154.0</ele><time>2026-04-07T18:10:08.001Z</time></trkpt><trkpt lat="33.895298540204315" lon="7.996570520928417"><ele>154.0</ele><time>2026-04-07T18:10:09.001Z</time></trkpt><trkpt lat="33.89535743551626" lon="7.996843390606139"><ele>153.5</ele><time>2026-04-07T18:10:10.001Z</time></trkpt><trkpt lat="33.895415199850994" lon="7.997116638612248"><ele>153.0</ele><time>2026-04-07T18:10:11.001Z</time></trkpt><trkpt lat="33.89547348520319" lon="7.997390158163416"><ele>153.0</ele><time>2026-04-07T18:10:12.001Z</time></trkpt><trkpt lat="33.895532032609644" lon="7.997662745739683"><ele>153.0</ele><time>2026-04-07T18:10:13.001Z</time></trkpt><trkpt lat="33.895589810015736" lon="7.997936404232488"><ele>153.0</ele><time>2026-04-07T18:10:14.001Z</time></trkpt><trkpt lat="33.89564775569393" lon="7.998209881764235"><ele>153.0</ele><time>2026-04-07T18:10:15.001Z</time></trkpt><trkpt lat="33.895705899556944" lon="7.9984826826473885"><ele>154.0</ele><time>2026-04-07T18:10:16.001Z</time></trkpt><trkpt lat="33.89576217649266" lon="7.998756041199265"><ele>155.0</ele><time>2026-04-07T18:10:17.001Z</time></trkpt><trkpt lat="33.89582321896224" lon="7.999028366985893"><ele>154.5</ele><time>2026-04-07T18:10:18.001Z</time></trkpt><trkpt lat="33.895882999055004" lon="7.999298980860624"><ele>154.0</ele><time>2026-04-07T18:10:19.001Z</time></trkpt><trkpt lat="33.89594359668101" lon="7.999570868657739"><ele>155.0</ele><time>2026-04-07T18:10:20.001Z</time></trkpt><trkpt lat="33.896003016076655" lon="7.999842693612728"><ele>156.0</ele><time>2026-04-07T18:10:21.001Z</time></trkpt><trkpt lat="33.896062306828874" lon="8.000116681193074"><ele>156.0</ele><time>2026-04-07T18:10:22.001Z</time></trkpt><trkpt lat="33.89612065336739" lon="8.000390470886689"><ele>156.0</ele><time>2026-04-07T18:10:23.001Z</time></trkpt><trkpt lat="33.8961789598424" lon="8.000664013830782"><ele>155.5</ele><time>2026-04-07T18:10:24.001Z</time></trkpt><trkpt lat="33.89623663579586" lon="8.000937041474662"><ele>155.0</ele><time>2026-04-07T18:10:25.001Z</time></trkpt><trkpt lat="33.896295424067645" lon="8.00120922412219"><ele>155.0</ele><time>2026-04-07T18:10:26.001Z</time></trkpt><trkpt lat="33.89635449551185" lon="8.001482633450372"><ele>155.0</ele><time>2026-04-07T18:10:27.001Z</time></trkpt><trkpt lat="33.8964155725789" lon="8.00175363431435"><ele>154.5</ele><time>2026-04-07T18:10:28.001Z</time></trkpt><trkpt lat="33.89647324879247" lon="8.002025661104197"><ele>154.0</ele><time>2026-04-07T18:10:29.001Z</time></trkpt><trkpt lat="33.8965304551378" lon="8.002296450839495"><ele>154.5</ele><time>2026-04-07T18:10:30.001Z</time></trkpt><trkpt lat="33.896588550308394" lon="8.002568454742278"><ele>155.0</ele><time>2026-04-07T18:10:31.001Z</time></trkpt><trkpt lat="33.89664842357674" lon="8.002841437541218"><ele>155.0</ele><time>2026-04-07T18:10:32.001Z</time></trkpt><trkpt lat="33.89670752158916" lon="8.003115279703863"><ele>155.0</ele><time>2026-04-07T18:10:33.001Z</time></trkpt><trkpt lat="33.896767339063615" lon="8.003388563138513"><ele>155.5</ele><time>2026-04-07T18:10:34.001Z</time></trkpt><trkpt lat="33.896828111219435" lon="8.003661591972568"><ele>156.0</ele><time>2026-04-07T18:10:35.001Z</time></trkpt><trkpt lat="33.89688742719779" lon="8.003933564776016"><ele>156.0</ele><time>2026-04-07T18:10:36.001Z</time></trkpt><trkpt lat="33.89694619809805" lon="8.00420389918053"><ele>156.0</ele><time>2026-04-07T18:10:37.001Z</time></trkpt><trkpt lat="33.89700175476764" lon="8.004474168762709"><ele>156.0</ele><time>2026-04-07T18:10:38.001Z</time></trkpt><trkpt lat="33.89705850663099" lon="8.004746074719748"><ele>156.0</ele><time>2026-04-07T18:10:39.001Z</time></trkpt><trkpt lat="33.89711530480208" lon="8.005015265804541"><ele>157.5</ele><time>2026-04-07T18:10:40.001Z</time></trkpt><trkpt lat="33.89717243151859" lon="8.005283355034322"><ele>159.0</ele><time>2026-04-07T18:10:41.001Z</time></trkpt><trkpt lat="33.89722876635738" lon="8.005549453353291"><ele>159.0</ele><time>2026-04-07T18:10:42.001Z</time></trkpt><trkpt lat="33.897285155432385" lon="8.005813653123157"><ele>159.0</ele><time>2026-04-07T18:10:43.001Z</time></trkpt><trkpt lat="33.89734163004619" lon="8.00608052316502"><ele>160.5</ele><time>2026-04-07T18:10:44.001Z</time></trkpt><trkpt lat="33.8973973178939" lon="8.006345291077036"><ele>162.0</ele><time>2026-04-07T18:10:45.001Z</time></trkpt><trkpt lat="33.89745361329465" lon="8.006610674877177"><ele>162.5</ele><time>2026-04-07T18:10:46.001Z</time></trkpt><trkpt lat="33.89751065730019" lon="8.00687730320361"><ele>163.0</ele><time>2026-04-07T18:10:47.001Z</time></trkpt><trkpt lat="33.897568659380674" lon="8.007143190142964"><ele>163.5</ele><time>2026-04-07T18:10:48.001Z</time></trkpt><trkpt lat="33.89762703359205" lon="8.007410044110252"><ele>164.0</ele><time>2026-04-07T18:10:49.001Z</time></trkpt><trkpt lat="33.89768411546508" lon="8.007677204572452"><ele>163.0</ele><time>2026-04-07T18:10:50.001Z</time></trkpt><trkpt lat="33.89774268042764" lon="8.00794374428882"><ele>162.0</ele><time>2026-04-07T18:10:51.001Z</time></trkpt><trkpt lat="33.89779969785874" lon="8.008209368795194"><ele>162.0</ele><time>2026-04-07T18:10:52.001Z</time></trkpt><trkpt lat="33.89785655090846" lon="8.008475859999017"><ele>162.0</ele><time>2026-04-07T18:10:53.001Z</time></trkpt><trkpt lat="33.89791306626174" lon="8.0087436290996"><ele>162.0</ele><time>2026-04-07T18:10:54.001Z</time></trkpt><trkpt lat="33.8979696820182" lon="8.009010845880757"><ele>162.0</ele><time>2026-04-07T18:10:55.001Z</time></trkpt><trkpt lat="33.898029412194994" lon="8.00927749239505"><ele>162.0</ele><time>2026-04-07T18:10:56.001Z</time></trkpt><trkpt lat="33.89808786034642" lon="8.009544359661506"><ele>162.0</ele><time>2026-04-07T18:10:57.001Z</time></trkpt><trkpt lat="33.898146550462094" lon="8.009812037351537"><ele>162.0</ele><time>2026-04-07T18:10:58.001Z</time></trkpt><trkpt lat="33.89820373770217" lon="8.010078306189516"><ele>162.0</ele><time>2026-04-07T18:10:59Z</time></trkpt><trkpt lat="33.89825942698345" lon="8.010346002637892"><ele>162.0</ele><time>2026-04-07T18:11:00Z</time></trkpt><trkpt lat="33.898316028205684" lon="8.010611901123758"><ele>162.0</ele><time>2026-04-07T18:11:01Z</time></trkpt><trkpt lat="33.8983735581926" lon="8.01087931673737"><ele>163.0</ele><time>2026-04-07T18:11:02Z</time></trkpt><trkpt lat="33.898429146234626" lon="8.011146563074936"><ele>164.0</ele><time>2026-04-07T18:11:03Z</time></trkpt><trkpt lat="33.89848473677" lon="8.011411545281943"><ele>164.5</ele><time>2026-04-07T18:11:04Z</time></trkpt><trkpt lat="33.89854081388415" lon="8.011677301321448"><ele>165.0</ele><time>2026-04-07T18:11:05Z</time></trkpt><trkpt lat="33.898598171810406" lon="8.011941303928383"><ele>165.0</ele><time>2026-04-07T18:11:06Z</time></trkpt><trkpt lat="33.89865630309383" lon="8.012205772292825"><ele>165.0</ele><time>2026-04-07T18:11:07Z</time></trkpt><trkpt lat="33.898713173346096" lon="8.012470269894743"><ele>165.0</ele><time>2026-04-07T18:11:08Z</time></trkpt><trkpt lat="33.898768423136225" lon="8.012734607882585"><ele>165.0</ele><time>2026-04-07T18:11:09Z</time></trkpt><trkpt lat="33.89882363371552" lon="8.012998511896436"><ele>165.0</ele><time>2026-04-07T18:11:10Z</time></trkpt><trkpt lat="33.898879690970894" lon="8.01326313870444"><ele>165.0</ele><time>2026-04-07T18:11:11Z</time></trkpt><trkpt lat="33.898935897076605" lon="8.01352582541626"><ele>163.5</ele><time>2026-04-07T18:11:12Z</time></trkpt><trkpt lat="33.898991170070225" lon="8.013790170416456"><ele>162.0</ele><time>2026-04-07T18:11:13Z</time></trkpt><trkpt lat="33.8990470614919" lon="8.014054839334499"><ele>163.0</ele><time>2026-04-07T18:11:14Z</time></trkpt><trkpt lat="33.899103039556714" lon="8.014316801717142"><ele>164.0</ele><time>2026-04-07T18:11:15Z</time></trkpt><trkpt lat="33.89915880172838" lon="8.014580910831441"><ele>164.0</ele><time>2026-04-07T18:11:16Z</time></trkpt><trkpt lat="33.89921362406287" lon="8.014844536961533"><ele>164.0</ele><time>2026-04-07T18:11:17Z</time></trkpt><trkpt lat="33.89926839660973" lon="8.015109888465707"><ele>165.0</ele><time>2026-04-07T18:11:18Z</time></trkpt><trkpt lat="33.89932555023947" lon="8.015373877075037"><ele>166.0</ele><time>2026-04-07T18:11:19Z</time></trkpt><trkpt lat="33.89938158956675" lon="8.015637844320054"><ele>165.5</ele><time>2026-04-07T18:11:20Z</time></trkpt><trkpt lat="33.89943828347449" lon="8.015900803887341"><ele>165.0</ele><time>2026-04-07T18:11:21Z</time></trkpt><trkpt lat="33.89949355769723" lon="8.016164986266146"><ele>165.0</ele><time>2026-04-07T18:11:22Z</time></trkpt><trkpt lat="33.899549446136554" lon="8.01642758127849"><ele>165.0</ele><time>2026-04-07T18:11:23Z</time></trkpt><trkpt lat="33.899605319334576" lon="8.016691568336688"><ele>164.0</ele><time>2026-04-07T18:11:24Z</time></trkpt><trkpt lat="33.899661502394885" lon="8.016955107256976"><ele>163.0</ele><time>2026-04-07T18:11:25Z</time></trkpt><trkpt lat="33.89971835932386" lon="8.017217668872139"><ele>163.0</ele><time>2026-04-07T18:11:26Z</time></trkpt><trkpt lat="33.89977418320852" lon="8.017481929306799"><ele>163.0</ele><time>2026-04-07T18:11:27Z</time></trkpt><trkpt lat="33.899831402588745" lon="8.017745673717936"><ele>163.0</ele><time>2026-04-07T18:11:28Z</time></trkpt><trkpt lat="33.899885927366775" lon="8.01800940840803"><ele>163.0</ele><time>2026-04-07T18:11:29Z</time></trkpt><trkpt lat="33.899941156912696" lon="8.018274257800318"><ele>162.5</ele><time>2026-04-07T18:11:30Z</time></trkpt><trkpt lat="33.899998731817654" lon="8.018538285914994"><ele>162.0</ele><time>2026-04-07T18:11:31Z</time></trkpt><trkpt lat="33.9000559957464" lon="8.01880150836847"><ele>162.5</ele><time>2026-04-07T18:11:32Z</time></trkpt><trkpt lat="33.9001111764674" lon="8.019066318286082"><ele>163.0</ele><time>2026-04-07T18:11:33Z</time></trkpt><trkpt lat="33.900166051715594" lon="8.019331647800254"><ele>163.0</ele><time>2026-04-07T18:11:34Z</time></trkpt><trkpt lat="33.900220769546266" lon="8.019596700928943"><ele>163.0</ele><time>2026-04-07T18:11:35Z</time></trkpt><trkpt lat="33.90027716207731" lon="8.019861083727573"><ele>164.5</ele><time>2026-04-07T18:11:36Z</time></trkpt><trkpt lat="33.90033524831367" lon="8.020124306622671"><ele>166.0</ele><time>2026-04-07T18:11:37Z</time></trkpt><trkpt lat="33.900392207660325" lon="8.020387185682193"><ele>166.0</ele><time>2026-04-07T18:11:38Z</time></trkpt><trkpt lat="33.90044877872278" lon="8.02064807792305"><ele>166.0</ele><time>2026-04-07T18:11:39Z</time></trkpt><trkpt lat="33.90050425217666" lon="8.020908996579124"><ele>166.0</ele><time>2026-04-07T18:11:40.001Z</time></trkpt><trkpt lat="33.900559591864024" lon="8.021170779305285"><ele>165.5</ele><time>2026-04-07T18:11:41.001Z</time></trkpt><trkpt lat="33.90061392861699" lon="8.021434312569426"><ele>165.0</ele><time>2026-04-07T18:11:42.001Z</time></trkpt><trkpt lat="33.900670612631366" lon="8.021695975983393"><ele>164.0</ele><time>2026-04-07T18:11:43.001Z</time></trkpt><trkpt lat="33.90072597878267" lon="8.02195646981758"><ele>163.0</ele><time>2026-04-07T18:11:44.001Z</time></trkpt><trkpt lat="33.90078072426699" lon="8.022215904061207"><ele>162.0</ele><time>2026-04-07T18:11:45.001Z</time></trkpt><trkpt lat="33.900835097602155" lon="8.022476607306956"><ele>162.33333333333334</ele><time>2026-04-07T18:11:46.001Z</time></trkpt><trkpt lat="33.90089143686112" lon="8.022736695891966"><ele>162.66666666666669</ele><time>2026-04-07T18:11:47.001Z</time></trkpt><trkpt lat="33.9009496307875" lon="8.022994592966196"><ele>163.0</ele><time>2026-04-07T18:11:48.001Z</time></trkpt><trkpt lat="33.90100956110734" lon="8.023250687284367"><ele>163.66666666666669</ele><time>2026-04-07T18:11:49.001Z</time></trkpt><trkpt lat="33.90105722798306" lon="8.02351247617874"><ele>164.33333333333334</ele><time>2026-04-07T18:11:50.001Z</time></trkpt><trkpt lat="33.90111399076983" lon="8.023769075426946"><ele>165.0</ele><time>2026-04-07T18:11:51.001Z</time></trkpt><trkpt lat="33.90116821791336" lon="8.024027491409159"><ele>163.66666666666666</ele><time>2026-04-07T18:11:52.001Z</time></trkpt><trkpt lat="33.90122589900614" lon="8.024284326473362"><ele>162.33333333333331</ele><time>2026-04-07T18:11:53.001Z</time></trkpt><trkpt lat="33.901284814579526" lon="8.024540186379904"><ele>161.0</ele><time>2026-04-07T18:11:54.001Z</time></trkpt><trkpt lat="33.90134106162599" lon="8.024795986219482"><ele>161.33333333333331</ele><time>2026-04-07T18:11:55.001Z</time></trkpt><trkpt lat="33.90139812815113" lon="8.025049980513726"><ele>161.66666666666666</ele><time>2026-04-07T18:11:56.001Z</time></trkpt><trkpt lat="33.90145189583189" lon="8.025304380483137"><ele>162.0</ele><time>2026-04-07T18:11:57.001Z</time></trkpt><trkpt lat="33.90150522897157" lon="8.02555599367508"><ele>162.0</ele><time>2026-04-07T18:11:58.001Z</time></trkpt><trkpt lat="33.90155905349149" lon="8.025807227409526"><ele>162.0</ele><time>2026-04-07T18:11:59.001Z</time></trkpt><trkpt lat="33.90161193220032" lon="8.026056147981954"><ele>162.0</ele><time>2026-04-07T18:12:00.001Z</time></trkpt><trkpt lat="33.901665823355486" lon="8.026304063228329"><ele>161.66666666666666</ele><time>2026-04-07T18:12:01.001Z</time></trkpt><trkpt lat="33.90171730168427" lon="8.026554199458518"><ele>161.33333333333331</ele><time>2026-04-07T18:12:02.001Z</time></trkpt><trkpt lat="33.90176864875185" lon="8.026804385113579"><ele>161.0</ele><time>2026-04-07T18:12:03.001Z</time></trkpt><trkpt lat="33.901819475679474" lon="8.027056521642296"><ele>160.66666666666666</ele><time>2026-04-07T18:12:04.001Z</time></trkpt><trkpt lat="33.90187416828813" lon="8.027306454010292"><ele>160.33333333333334</ele><time>2026-04-07T18:12:05.001Z</time></trkpt><trkpt lat="33.90193083869355" lon="8.02755356271137"><ele>160.0</ele><time>2026-04-07T18:12:06.001Z</time></trkpt><trkpt lat="33.90198715057881" lon="8.027801458267332"><ele>159.0</ele><time>2026-04-07T18:12:07.001Z</time></trkpt><trkpt lat="33.90204188485175" lon="8.028049908339868"><ele>158.0</ele><time>2026-04-07T18:12:08.001Z</time></trkpt><trkpt lat="33.902094942510615" lon="8.028300946483464"><ele>157.0</ele><time>2026-04-07T18:12:09.001Z</time></trkpt><trkpt lat="33.9021488582453" lon="8.02855352931432"><ele>156.66666666666669</ele><time>2026-04-07T18:12:10.001Z</time></trkpt><trkpt lat="33.90220160671256" lon="8.028805647740434"><ele>156.33333333333334</ele><time>2026-04-07T18:12:11.001Z</time></trkpt><trkpt lat="33.902255774153076" lon="8.02905440340173"><ele>156.0</ele><time>2026-04-07T18:12:12.001Z</time></trkpt><trkpt lat="33.90230978558495" lon="8.029304724189561"><ele>156.0</ele><time>2026-04-07T18:12:13.001Z</time></trkpt><trkpt lat="33.90236422490337" lon="8.029555782166346"><ele>156.0</ele><time>2026-04-07T18:12:14.001Z</time></trkpt><trkpt lat="33.90241747980225" lon="8.029809595221206"><ele>156.0</ele><time>2026-04-07T18:12:15.001Z</time></trkpt><trkpt lat="33.902471984185695" lon="8.030062689826456"><ele>156.0</ele><time>2026-04-07T18:12:16.001Z</time></trkpt><trkpt lat="33.902526160542884" lon="8.03031704293991"><ele>156.0</ele><time>2026-04-07T18:12:17.001Z</time></trkpt><trkpt lat="33.90258195187192" lon="8.030571826872725"><ele>156.0</ele><time>2026-04-07T18:12:18.001Z</time></trkpt><trkpt lat="33.90263686331664" lon="8.030829558313654"><ele>155.66666666666666</ele><time>2026-04-07T18:12:19.001Z</time></trkpt><trkpt lat="33.90269300421995" lon="8.031084008219048"><ele>155.33333333333331</ele><time>2026-04-07T18:12:20.001Z</time></trkpt><trkpt lat="33.902748731121534" lon="8.031339171343031"><ele>155.0</ele><time>2026-04-07T18:12:21.001Z</time></trkpt><trkpt lat="33.90280250807506" lon="8.03159406147442"><ele>154.66666666666666</ele><time>2026-04-07T18:12:22.001Z</time></trkpt><trkpt lat="33.90285793901358" lon="8.031850888485208"><ele>154.33333333333334</ele><time>2026-04-07T18:12:23.001Z</time></trkpt><trkpt lat="33.90291395357532" lon="8.03210959916858"><ele>154.0</ele><time>2026-04-07T18:12:24.001Z</time></trkpt><trkpt lat="33.90296877392449" lon="8.032367925373025"><ele>153.33333333333334</ele><time>2026-04-07T18:12:25.001Z</time></trkpt><trkpt lat="33.90302304367526" lon="8.03262473907054"><ele>152.66666666666666</ele><time>2026-04-07T18:12:26.001Z</time></trkpt><trkpt lat="33.90307826137002" lon="8.032883373504616"><ele>152.0</ele><time>2026-04-07T18:12:27.001Z</time></trkpt><trkpt lat="33.90313409825134" lon="8.03314222883082"><ele>152.33333333333331</ele><time>2026-04-07T18:12:28.001Z</time></trkpt><trkpt lat="33.90319110120995" lon="8.03339959856544"><ele>152.66666666666666</ele><time>2026-04-07T18:12:29.001Z</time></trkpt><trkpt lat="33.90324687204879" lon="8.033661060849175"><ele>153.0</ele><time>2026-04-07T18:12:30.001Z</time></trkpt><trkpt lat="33.90330592236832" lon="8.033922788946024"><ele>153.0</ele><time>2026-04-07T18:12:31.001Z</time></trkpt><trkpt lat="33.90336301676834" lon="8.034183655588038"><ele>153.0</ele><time>2026-04-07T18:12:32.001Z</time></trkpt><trkpt lat="33.90342091760018" lon="8.034446335988543"><ele>153.0</ele><time>2026-04-07T18:12:33.001Z</time></trkpt><trkpt lat="33.90347570952909" lon="8.034710255059544"><ele>152.33333333333334</ele><time>2026-04-07T18:12:34.001Z</time></trkpt><trkpt lat="33.90352954774826" lon="8.03497183784087"><ele>151.66666666666669</ele><time>2026-04-07T18:12:35.001Z</time></trkpt><trkpt lat="33.90358526761497" lon="8.035234806914955"><ele>151.0</ele><time>2026-04-07T18:12:36.001Z</time></trkpt><trkpt lat="33.90364213073099" lon="8.035495851204116"><ele>151.0</ele><time>2026-04-07T18:12:37.001Z</time></trkpt><trkpt lat="33.903696852583685" lon="8.035755297972164"><ele>151.0</ele><time>2026-04-07T18:12:38.001Z</time></trkpt><trkpt lat="33.9037510368056" lon="8.036013983339362"><ele>151.0</ele><time>2026-04-07T18:12:39.001Z</time></trkpt><trkpt lat="33.9038062066987" lon="8.036273221536739"><ele>151.66666666666669</ele><time>2026-04-07T18:12:40.002Z</time></trkpt><trkpt lat="33.903863053664395" lon="8.03653056140677"><ele>152.33333333333334</ele><time>2026-04-07T18:12:41.002Z</time></trkpt><trkpt lat="33.90391727335867" lon="8.036787806611718"><ele>153.0</ele><time>2026-04-07T18:12:42.002Z</time></trkpt><trkpt lat="33.9039699147206" lon="8.037047380811755"><ele>153.33333333333334</ele><time>2026-04-07T18:12:43.002Z</time></trkpt><trkpt lat="33.90402374783494" lon="8.037308900545929"><ele>153.66666666666669</ele><time>2026-04-07T18:12:44.002Z</time></trkpt><trkpt lat="33.90408126803685" lon="8.037570438123936"><ele>154.0</ele><time>2026-04-07T18:12:45.002Z</time></trkpt><trkpt lat="33.90413993566207" lon="8.037831367292762"><ele>154.33333333333334</ele><time>2026-04-07T18:12:46.002Z</time></trkpt><trkpt lat="33.90419626830929" lon="8.038090881575384"><ele>154.66666666666666</ele><time>2026-04-07T18:12:47.002Z</time></trkpt><trkpt lat="33.90424981475932" lon="8.03835017415521"><ele>155.0</ele><time>2026-04-07T18:12:48.002Z</time></trkpt><trkpt lat="33.904302525791834" lon="8.038611645661785"><ele>156.0</ele><time>2026-04-07T18:12:49.002Z</time></trkpt><trkpt lat="33.90435693741441" lon="8.038873127624449"><ele>157.0</ele><time>2026-04-07T18:12:50.002Z</time></trkpt><trkpt lat="33.904415184495456" lon="8.039133790308743"><ele>158.0</ele><time>2026-04-07T18:12:51.002Z</time></trkpt><trkpt lat="33.90447272824917" lon="8.039395050791818"><ele>158.33333333333331</ele><time>2026-04-07T18:12:52.002Z</time></trkpt><trkpt lat="33.904528369343" lon="8.039654860814096"><ele>158.66666666666666</ele><time>2026-04-07T18:12:53.002Z</time></trkpt><trkpt lat="33.904581663468484" lon="8.039914456424654"><ele>159.0</ele><time>2026-04-07T18:12:54.002Z</time></trkpt><trkpt lat="33.90463581539555" lon="8.040174542723953"><ele>159.0</ele><time>2026-04-07T18:12:55.002Z</time></trkpt><trkpt lat="33.904690425689246" lon="8.040432673685444"><ele>159.0</ele><time>2026-04-07T18:12:56.002Z</time></trkpt><trkpt lat="33.90474569490333" lon="8.040689586260006"><ele>159.0</ele><time>2026-04-07T18:12:57.002Z</time></trkpt><trkpt lat="33.904801963286516" lon="8.040945876057133"><ele>158.66666666666666</ele><time>2026-04-07T18:12:58.002Z</time></trkpt><trkpt lat="33.90485806066938" lon="8.04120010091507"><ele>158.33333333333331</ele><time>2026-04-07T18:12:59.002Z</time></trkpt><trkpt lat="33.904913353276825" lon="8.041454718528044"><ele>158.0</ele><time>2026-04-07T18:13:00.002Z</time></trkpt><trkpt lat="33.90496908579306" lon="8.041708043655948"><ele>158.0</ele><time>2026-04-07T18:13:01.002Z</time></trkpt><trkpt lat="33.90502468704047" lon="8.041960250831606"><ele>158.0</ele><time>2026-04-07T18:13:02.002Z</time></trkpt><trkpt lat="33.90508009925974" lon="8.042214268711907"><ele>158.0</ele><time>2026-04-07T18:13:03.002Z</time></trkpt><trkpt lat="33.905134541141074" lon="8.042471169005648"><ele>158.0</ele><time>2026-04-07T18:13:04.002Z</time></trkpt><trkpt lat="33.905188079512534" lon="8.042725009653388"><ele>158.0</ele><time>2026-04-07T18:13:04.999Z</time></trkpt><trkpt lat="33.90524224174336" lon="8.04297907598752"><ele>158.0</ele><time>2026-04-07T18:13:05.999Z</time></trkpt><trkpt lat="33.905297420838274" lon="8.043234509533772"><ele>158.33333333333331</ele><time>2026-04-07T18:13:06.999Z</time></trkpt><trkpt lat="33.90535324059502" lon="8.04348774375766"><ele>158.66666666666666</ele><time>2026-04-07T18:13:07.999Z</time></trkpt><trkpt lat="33.90540751086204" lon="8.043739271724789"><ele>159.0</ele><time>2026-04-07T18:13:08.999Z</time></trkpt><trkpt lat="33.90546189002477" lon="8.043991017882108"><ele>159.0</ele><time>2026-04-07T18:13:09.999Z</time></trkpt><trkpt lat="33.9055152487801" lon="8.044242784497586"><ele>159.0</ele><time>2026-04-07T18:13:10.999Z</time></trkpt><trkpt lat="33.90556886116898" lon="8.044492344649367"><ele>159.0</ele><time>2026-04-07T18:13:11.999Z</time></trkpt><trkpt lat="33.90562224325632" lon="8.044742576208739"><ele>158.66666666666666</ele><time>2026-04-07T18:13:12.999Z</time></trkpt><trkpt lat="33.905675471811875" lon="8.044992424483059"><ele>158.33333333333331</ele><time>2026-04-07T18:13:13.999Z</time></trkpt><trkpt lat="33.90573051290315" lon="8.04524348847382"><ele>158.0</ele><time>2026-04-07T18:13:14.999Z</time></trkpt><trkpt lat="33.90578675646416" lon="8.045493531221341"><ele>158.0</ele><time>2026-04-07T18:13:15.999Z</time></trkpt><trkpt lat="33.90584261183979" lon="8.045744261515566"><ele>158.0</ele><time>2026-04-07T18:13:16.999Z</time></trkpt><trkpt lat="33.90589860036411" lon="8.045995704797296"><ele>158.0</ele><time>2026-04-07T18:13:17.999Z</time></trkpt><trkpt lat="33.90595478466126" lon="8.046250454325296"><ele>157.0</ele><time>2026-04-07T18:13:18.999Z</time></trkpt><trkpt lat="33.90601080126208" lon="8.046503137410186"><ele>156.0</ele><time>2026-04-07T18:13:19.999Z</time></trkpt><trkpt lat="33.906066579901434" lon="8.046755182999918"><ele>155.0</ele><time>2026-04-07T18:13:21Z</time></trkpt><trkpt lat="33.90612282703485" lon="8.047009400407802"><ele>155.0</ele><time>2026-04-07T18:13:22Z</time></trkpt><trkpt lat="33.90617784772472" lon="8.047262737424294"><ele>155.0</ele><time>2026-04-07T18:13:23Z</time></trkpt><trkpt lat="33.90623206673838" lon="8.047519507479135"><ele>155.0</ele><time>2026-04-07T18:13:24Z</time></trkpt><trkpt lat="33.906285256925095" lon="8.047774538453604"><ele>156.0</ele><time>2026-04-07T18:13:25Z</time></trkpt><trkpt lat="33.906338982124865" lon="8.04803042840235"><ele>157.0</ele><time>2026-04-07T18:13:26Z</time></trkpt><trkpt lat="33.906392643624464" lon="8.0482858457958"><ele>158.0</ele><time>2026-04-07T18:13:27Z</time></trkpt><trkpt lat="33.90644755184992" lon="8.048539726098065"><ele>158.0</ele><time>2026-04-07T18:13:28Z</time></trkpt><trkpt lat="33.90650202232917" lon="8.048793353064017"><ele>158.0</ele><time>2026-04-07T18:13:29Z</time></trkpt><trkpt lat="33.9065559128029" lon="8.04904633346811"><ele>158.0</ele><time>2026-04-07T18:13:30Z</time></trkpt><trkpt lat="33.906609393065445" lon="8.049297385174059"><ele>158.0</ele><time>2026-04-07T18:13:31Z</time></trkpt><trkpt lat="33.906662823964766" lon="8.049548310412144"><ele>158.0</ele><time>2026-04-07T18:13:32Z</time></trkpt><trkpt lat="33.906718361180786" lon="8.04979759403752"><ele>158.0</ele><time>2026-04-07T18:13:33Z</time></trkpt><trkpt lat="33.90677263216244" lon="8.050049412637016"><ele>157.33333333333331</ele><time>2026-04-07T18:13:34Z</time></trkpt><trkpt lat="33.90682780556362" lon="8.050298149853038"><ele>156.66666666666666</ele><time>2026-04-07T18:13:35Z</time></trkpt><trkpt lat="33.90688248515793" lon="8.050543791678276"><ele>156.0</ele><time>2026-04-07T18:13:36Z</time></trkpt><trkpt lat="33.906936882840206" lon="8.050787630286669"><ele>155.66666666666666</ele><time>2026-04-07T18:13:37Z</time></trkpt><trkpt lat="33.906990782526805" lon="8.051032395321739"><ele>155.33333333333331</ele><time>2026-04-07T18:13:38Z</time></trkpt><trkpt lat="33.90704433380635" lon="8.051280307072924"><ele>155.0</ele><time>2026-04-07T18:13:39Z</time></trkpt><trkpt lat="33.90709720349056" lon="8.051528272741262"><ele>154.66666666666666</ele><time>2026-04-07T18:13:40Z</time></trkpt><trkpt lat="33.90714856686078" lon="8.051776215544754"><ele>154.33333333333334</ele><time>2026-04-07T18:13:41Z</time></trkpt><trkpt lat="33.90719991102234" lon="8.052025908419301"><ele>154.0</ele><time>2026-04-07T18:13:42Z</time></trkpt><trkpt lat="33.90725297501488" lon="8.052277347722328"><ele>153.66666666666669</ele><time>2026-04-07T18:13:43Z</time></trkpt><trkpt lat="33.907304920854415" lon="8.052528527066682"><ele>153.33333333333334</ele><time>2026-04-07T18:13:44Z</time></trkpt><trkpt lat="33.9073583269119" lon="8.052779219766393"><ele>153.0</ele><time>2026-04-07T18:13:45Z</time></trkpt><trkpt lat="33.90741228202521" lon="8.053030117912808"><ele>153.0</ele><time>2026-04-07T18:13:46Z</time></trkpt><trkpt lat="33.9074658718717" lon="8.053278453807561"><ele>153.0</ele><time>2026-04-07T18:13:47Z</time></trkpt><trkpt lat="33.90751942566188" lon="8.053527723438146"><ele>153.0</ele><time>2026-04-07T18:13:48Z</time></trkpt><trkpt lat="33.9075723093341" lon="8.053773805512941"><ele>152.66666666666666</ele><time>2026-04-07T18:13:49Z</time></trkpt><trkpt lat="33.907623068624495" lon="8.054021288542287"><ele>152.33333333333331</ele><time>2026-04-07T18:13:50Z</time></trkpt><trkpt lat="33.90767312323212" lon="8.054267029228704"><ele>152.0</ele><time>2026-04-07T18:13:51Z</time></trkpt><trkpt lat="33.907723840842536" lon="8.054511413038748"><ele>152.0</ele><time>2026-04-07T18:13:52Z</time></trkpt><trkpt lat="33.90777539786821" lon="8.054755718485337"><ele>152.0</ele><time>2026-04-07T18:13:53Z</time></trkpt><trkpt lat="33.907828094707874" lon="8.054997691381198"><ele>152.0</ele><time>2026-04-07T18:13:54Z</time></trkpt><trkpt lat="33.90787974236273" lon="8.055240615001225"><ele>152.33333333333331</ele><time>2026-04-07T18:13:55Z</time></trkpt><trkpt lat="33.90793126919757" lon="8.055482613642807"><ele>152.66666666666666</ele><time>2026-04-07T18:13:56Z</time></trkpt><trkpt lat="33.90798360588042" lon="8.055720003891734"><ele>153.0</ele><time>2026-04-07T18:13:57.001Z</time></trkpt><trkpt lat="33.908034211138784" lon="8.055958927020459"><ele>153.66666666666666</ele><time>2026-04-07T18:13:58.001Z</time></trkpt><trkpt lat="33.908084935074314" lon="8.056199967857939"><ele>154.33333333333331</ele><time>2026-04-07T18:13:59.001Z</time></trkpt><trkpt lat="33.908136982544924" lon="8.056440323541459"><ele>155.0</ele><time>2026-04-07T18:14:00.001Z</time></trkpt><trkpt lat="33.90818910345839" lon="8.05668125536534"><ele>155.66666666666666</ele><time>2026-04-07T18:14:01.001Z</time></trkpt><trkpt lat="33.90824042661983" lon="8.056921945869911"><ele>156.33333333333334</ele><time>2026-04-07T18:14:02.001Z</time></trkpt><trkpt lat="33.908291159280225" lon="8.057161062072607"><ele>157.0</ele><time>2026-04-07T18:14:03.001Z</time></trkpt><trkpt lat="33.90834226010924" lon="8.057400102426993"><ele>157.0</ele><time>2026-04-07T18:14:04.001Z</time></trkpt><trkpt lat="33.90839321310752" lon="8.05764106373011"><ele>157.0</ele><time>2026-04-07T18:14:05.001Z</time></trkpt><trkpt lat="33.908445202183465" lon="8.057883085518561"><ele>157.0</ele><time>2026-04-07T18:14:06.001Z</time></trkpt><trkpt lat="33.90849872193685" lon="8.058128620292917"><ele>157.0</ele><time>2026-04-07T18:14:07.001Z</time></trkpt><trkpt lat="33.90855391418167" lon="8.058370912980932"><ele>157.0</ele><time>2026-04-07T18:14:08.001Z</time></trkpt><trkpt lat="33.90860800516378" lon="8.058618271877071"><ele>157.0</ele><time>2026-04-07T18:14:09.001Z</time></trkpt><trkpt lat="33.908661091336675" lon="8.05886505195425"><ele>157.0</ele><time>2026-04-07T18:14:10.001Z</time></trkpt><trkpt lat="33.90871334677212" lon="8.059111925268674"><ele>157.0</ele><time>2026-04-07T18:14:11.001Z</time></trkpt><trkpt lat="33.90876714497514" lon="8.0593603647908"><ele>157.0</ele><time>2026-04-07T18:14:12.001Z</time></trkpt><trkpt lat="33.90882219950296" lon="8.05960999444281"><ele>156.66666666666669</ele><time>2026-04-07T18:14:13.001Z</time></trkpt><trkpt lat="33.9088760138245" lon="8.059860804878799"><ele>156.33333333333334</ele><time>2026-04-07T18:14:14.001Z</time></trkpt><trkpt lat="33.9089279220022" lon="8.060113992891326"><ele>156.0</ele><time>2026-04-07T18:14:15.001Z</time></trkpt><trkpt lat="33.90897977682103" lon="8.06036926520361"><ele>155.33333333333334</ele><time>2026-04-07T18:14:16.001Z</time></trkpt><trkpt lat="33.90903275307761" lon="8.060624729623456"><ele>154.66666666666669</ele><time>2026-04-07T18:14:17.001Z</time></trkpt><trkpt lat="33.9090861982958" lon="8.060879271264145"><ele>154.0</ele><time>2026-04-07T18:14:18.001Z</time></trkpt><trkpt lat="33.909140046563046" lon="8.061134663329357"><ele>153.66666666666669</ele><time>2026-04-07T18:14:19.001Z</time></trkpt><trkpt lat="33.90919591088267" lon="8.061391199672675"><ele>153.33333333333334</ele><time>2026-04-07T18:14:20.001Z</time></trkpt><trkpt lat="33.90925114809413" lon="8.06164937195626"><ele>153.0</ele><time>2026-04-07T18:14:21.001Z</time></trkpt><trkpt lat="33.909305220708625" lon="8.061905075158412"><ele>151.33333333333334</ele><time>2026-04-07T18:14:22.001Z</time></trkpt><trkpt lat="33.90935846105943" lon="8.062159744425335"><ele>149.66666666666669</ele><time>2026-04-07T18:14:23.001Z</time></trkpt><trkpt lat="33.9094117941512" lon="8.062409224873466"><ele>148.0</ele><time>2026-04-07T18:14:24.001Z</time></trkpt><trkpt lat="33.90946329356814" lon="8.062654942865008"><ele>148.0</ele><time>2026-04-07T18:14:25.001Z</time></trkpt><trkpt lat="33.90951471115297" lon="8.062900188506552"><ele>148.0</ele><time>2026-04-07T18:14:26.001Z</time></trkpt><trkpt lat="33.9095645933616" lon="8.063140984847273"><ele>148.0</ele><time>2026-04-07T18:14:27.001Z</time></trkpt><trkpt lat="33.90961593505574" lon="8.063379804225566"><ele>147.66666666666669</ele><time>2026-04-07T18:14:28.001Z</time></trkpt><trkpt lat="33.90966607444465" lon="8.06361762459299"><ele>147.33333333333334</ele><time>2026-04-07T18:14:29.001Z</time></trkpt><trkpt lat="33.909716741034664" lon="8.06385589747072"><ele>147.0</ele><time>2026-04-07T18:14:30.001Z</time></trkpt><trkpt lat="33.90976695269161" lon="8.064093932380484"><ele>147.33333333333334</ele><time>2026-04-07T18:14:31.001Z</time></trkpt><trkpt lat="33.909817223199276" lon="8.064330712589726"><ele>147.66666666666669</ele><time>2026-04-07T18:14:32.001Z</time></trkpt><trkpt lat="33.909867564634446" lon="8.064567085745505"><ele>148.0</ele><time>2026-04-07T18:14:33.001Z</time></trkpt><trkpt lat="33.90991906501825" lon="8.064800046656158"><ele>147.66666666666669</ele><time>2026-04-07T18:14:34.001Z</time></trkpt><trkpt lat="33.90996963521924" lon="8.06503567210745"><ele>147.33333333333334</ele><time>2026-04-07T18:14:35.001Z</time></trkpt><trkpt lat="33.91001999745258" lon="8.065271893376158"><ele>147.0</ele><time>2026-04-07T18:14:36.001Z</time></trkpt><trkpt lat="33.91006912854946" lon="8.065505078629268"><ele>147.0</ele><time>2026-04-07T18:14:37.001Z</time></trkpt><trkpt lat="33.91011836320741" lon="8.065739813771795"><ele>147.0</ele><time>2026-04-07T18:14:38.001Z</time></trkpt><trkpt lat="33.91016949177314" lon="8.06597586351424"><ele>147.0</ele><time>2026-04-07T18:14:39.001Z</time></trkpt><trkpt lat="33.91021877573223" lon="8.066213747761783"><ele>147.0</ele><time>2026-04-07T18:14:40.001Z</time></trkpt><trkpt lat="33.9102694635344" lon="8.066450822094858"><ele>147.0</ele><time>2026-04-07T18:14:41.001Z</time></trkpt><trkpt lat="33.91032181395688" lon="8.06668924738798"><ele>147.0</ele><time>2026-04-07T18:14:42.001Z</time></trkpt><trkpt lat="33.910373220033755" lon="8.066929406371509"><ele>146.66666666666666</ele><time>2026-04-07T18:14:43.001Z</time></trkpt><trkpt lat="33.91042629978572" lon="8.067171114948524"><ele>146.33333333333331</ele><time>2026-04-07T18:14:44.001Z</time></trkpt><trkpt lat="33.91048013797094" lon="8.067416851153762"><ele>146.0</ele><time>2026-04-07T18:14:45.001Z</time></trkpt><trkpt lat="33.9105330341795" lon="8.0676621171599"><ele>146.0</ele><time>2026-04-07T18:14:46.001Z</time></trkpt><trkpt lat="33.91058668921497" lon="8.067906571128006"><ele>146.0</ele><time>2026-04-07T18:14:47.001Z</time></trkpt><trkpt lat="33.910640039542855" lon="8.068154298242439"><ele>146.0</ele><time>2026-04-07T18:14:48.001Z</time></trkpt><trkpt lat="33.910692240207524" lon="8.068402023824339"><ele>145.0</ele><time>2026-04-07T18:14:49.001Z</time></trkpt><trkpt lat="33.91074404761932" lon="8.06864869067607"><ele>144.0</ele><time>2026-04-07T18:14:50.001Z</time></trkpt><trkpt lat="33.91079538059737" lon="8.068893421514401"><ele>143.0</ele><time>2026-04-07T18:14:51.002Z</time></trkpt><trkpt lat="33.91084822123634" lon="8.069137155808642"><ele>143.0</ele><time>2026-04-07T18:14:52.002Z</time></trkpt><trkpt lat="33.91090020752859" lon="8.069381472679572"><ele>143.0</ele><time>2026-04-07T18:14:53.002Z</time></trkpt><trkpt lat="33.91095259103578" lon="8.069627885901557"><ele>143.0</ele><time>2026-04-07T18:14:54.002Z</time></trkpt><trkpt lat="33.911005117993795" lon="8.06987407903748"><ele>142.66666666666666</ele><time>2026-04-07T18:14:55.002Z</time></trkpt><trkpt lat="33.911058146910115" lon="8.070120623202556"><ele>142.33333333333334</ele><time>2026-04-07T18:14:56.002Z</time></trkpt><trkpt lat="33.91111155823987" lon="8.070367043059576"><ele>142.0</ele><time>2026-04-07T18:14:57.002Z</time></trkpt><trkpt lat="33.91116333567136" lon="8.070615325434831"><ele>142.33333333333334</ele><time>2026-04-07T18:14:58.002Z</time></trkpt><trkpt lat="33.911214139660046" lon="8.07086721839131"><ele>142.66666666666666</ele><time>2026-04-07T18:14:59.002Z</time></trkpt><trkpt lat="33.91126625517466" lon="8.071119759649262"><ele>143.0</ele><time>2026-04-07T18:15:00.002Z</time></trkpt><trkpt lat="33.91131972150081" lon="8.071372003540542"><ele>142.33333333333331</ele><time>2026-04-07T18:15:01.002Z</time></trkpt><trkpt lat="33.911374106090705" lon="8.071619630570705"><ele>141.66666666666666</ele><time>2026-04-07T18:15:02.002Z</time></trkpt><trkpt lat="33.911427524600214" lon="8.071866281079318"><ele>141.0</ele><time>2026-04-07T18:15:03.002Z</time></trkpt><trkpt lat="33.911479772179106" lon="8.072113902764928"><ele>141.0</ele><time>2026-04-07T18:15:04.002Z</time></trkpt><trkpt lat="33.911532252810275" lon="8.072361105149609"><ele>141.0</ele><time>2026-04-07T18:15:05.002Z</time></trkpt><trkpt lat="33.91158360651756" lon="8.072604360675646"><ele>141.0</ele><time>2026-04-07T18:15:06.002Z</time></trkpt><trkpt lat="33.91163113537793" lon="8.072844955702166"><ele>141.0</ele><time>2026-04-07T18:15:07.002Z</time></trkpt><trkpt lat="33.91168304116734" lon="8.07308253460227"><ele>141.0</ele><time>2026-04-07T18:15:08.002Z</time></trkpt><trkpt lat="33.91173382500152" lon="8.073318281806126"><ele>141.0</ele><time>2026-04-07T18:15:09.002Z</time></trkpt><trkpt lat="33.91178540243668" lon="8.073550321710457"><ele>141.33333333333334</ele><time>2026-04-07T18:15:10.002Z</time></trkpt><trkpt lat="33.911837303892746" lon="8.073781620527592"><ele>141.66666666666669</ele><time>2026-04-07T18:15:11Z</time></trkpt><trkpt lat="33.91188843423923" lon="8.074013918870428"><ele>142.0</ele><time>2026-04-07T18:15:12Z</time></trkpt><trkpt lat="33.91193897618638" lon="8.07424442044932"><ele>142.0</ele><time>2026-04-07T18:15:13Z</time></trkpt><trkpt lat="33.911989992911636" lon="8.074472287739521"><ele>142.0</ele><time>2026-04-07T18:15:14Z</time></trkpt><trkpt lat="33.912039842010515" lon="8.074698262511939"><ele>142.0</ele><time>2026-04-07T18:15:15Z</time></trkpt><trkpt lat="33.91208708306858" lon="8.074922702102999"><ele>141.66666666666669</ele><time>2026-04-07T18:15:16Z</time></trkpt><trkpt lat="33.91213526150565" lon="8.075141212333708"><ele>141.33333333333334</ele><time>2026-04-07T18:15:17Z</time></trkpt><trkpt lat="33.91218136486014" lon="8.07535497303502"><ele>141.0</ele><time>2026-04-07T18:15:18Z</time></trkpt><trkpt lat="33.91222530067421" lon="8.07556481473252"><ele>141.0</ele><time>2026-04-07T18:15:19Z</time></trkpt><trkpt lat="33.91226832408377" lon="8.075767554159029"><ele>141.0</ele><time>2026-04-07T18:15:20Z</time></trkpt><trkpt lat="33.91231253222341" lon="8.075963041244345"><ele>141.0</ele><time>2026-04-07T18:15:21Z</time></trkpt><trkpt lat="33.91235413019417" lon="8.076154771152185"><ele>141.0</ele><time>2026-04-07T18:15:22Z</time></trkpt><trkpt lat="33.91239904538575" lon="8.076342567294992"><ele>141.0</ele><time>2026-04-07T18:15:23Z</time></trkpt><trkpt lat="33.912443088068585" lon="8.076530619596163"><ele>141.0</ele><time>2026-04-07T18:15:24Z</time></trkpt><trkpt lat="33.91248802574461" lon="8.076723757097646"><ele>140.33333333333334</ele><time>2026-04-07T18:15:25Z</time></trkpt><trkpt lat="33.91252846434662" lon="8.076922772650617"><ele>139.66666666666669</ele><time>2026-04-07T18:15:26Z</time></trkpt><trkpt lat="33.912569302846016" lon="8.07712759434744"><ele>139.0</ele><time>2026-04-07T18:15:27Z</time></trkpt><trkpt lat="33.912608367584575" lon="8.077337349999919"><ele>139.0</ele><time>2026-04-07T18:15:28Z</time></trkpt><trkpt lat="33.912647309266895" lon="8.077552348300765"><ele>139.0</ele><time>2026-04-07T18:15:29Z</time></trkpt><trkpt lat="33.91268712994599" lon="8.07777087600377"><ele>139.0</ele><time>2026-04-07T18:15:30Z</time></trkpt><trkpt lat="33.91272980284914" lon="8.077990657319575"><ele>139.0</ele><time>2026-04-07T18:15:31Z</time></trkpt><trkpt lat="33.912775996834924" lon="8.078212840893912"><ele>139.0</ele><time>2026-04-07T18:15:32Z</time></trkpt><trkpt lat="33.91282298339048" lon="8.078436061436706"><ele>139.0</ele><time>2026-04-07T18:15:33Z</time></trkpt><trkpt lat="33.91286991353747" lon="8.078661328440091"><ele>137.66666666666669</ele><time>2026-04-07T18:15:34Z</time></trkpt><trkpt lat="33.91291730420325" lon="8.078887203538219"><ele>136.33333333333334</ele><time>2026-04-07T18:15:35Z</time></trkpt><trkpt lat="33.91296390813667" lon="8.079114009810267"><ele>135.0</ele><time>2026-04-07T18:15:36Z</time></trkpt><trkpt lat="33.913009753386376" lon="8.079342766429784"><ele>134.66666666666666</ele><time>2026-04-07T18:15:37Z</time></trkpt><trkpt lat="33.91305609867522" lon="8.079570730624102"><ele>134.33333333333331</ele><time>2026-04-07T18:15:38Z</time></trkpt><trkpt lat="33.913102672477464" lon="8.079799030523736"><ele>134.0</ele><time>2026-04-07T18:15:39Z</time></trkpt><trkpt lat="33.91315029966098" lon="8.080026581890856"><ele>133.33333333333331</ele><time>2026-04-07T18:15:40Z</time></trkpt><trkpt lat="33.91319852759502" lon="8.080255227571602"><ele>132.66666666666666</ele><time>2026-04-07T18:15:41Z</time></trkpt><trkpt lat="33.91324687786747" lon="8.080482984867542"><ele>132.0</ele><time>2026-04-07T18:15:42Z</time></trkpt><trkpt lat="33.91329492415078" lon="8.080711164191666"><ele>132.0</ele><time>2026-04-07T18:15:43Z</time></trkpt><trkpt lat="33.913341556474535" lon="8.080938664251804"><ele>132.0</ele><time>2026-04-07T18:15:44Z</time></trkpt><trkpt lat="33.91338941492425" lon="8.081167311118636"><ele>132.0</ele><time>2026-04-07T18:15:45Z</time></trkpt><trkpt lat="33.91343741981438" lon="8.081395316896112"><ele>131.33333333333334</ele><time>2026-04-07T18:15:46Z</time></trkpt><trkpt lat="33.913486231866784" lon="8.081619710197339"><ele>130.66666666666669</ele><time>2026-04-07T18:15:47Z</time></trkpt><trkpt lat="33.913534647415915" lon="8.081842023883015"><ele>130.0</ele><time>2026-04-07T18:15:48Z</time></trkpt><trkpt lat="33.91358179361079" lon="8.08205915332723"><ele>130.0</ele><time>2026-04-07T18:15:49Z</time></trkpt><trkpt lat="33.913628457308924" lon="8.082276861975965"><ele>130.0</ele><time>2026-04-07T18:15:50Z</time></trkpt><trkpt lat="33.91367467925692" lon="8.082489317216872"><ele>130.0</ele><time>2026-04-07T18:15:51.001Z</time></trkpt><trkpt lat="33.91372069393672" lon="8.082701998798616"><ele>128.66666666666669</ele><time>2026-04-07T18:15:52.001Z</time></trkpt><trkpt lat="33.913765872551416" lon="8.082913003852255"><ele>127.33333333333334</ele><time>2026-04-07T18:15:53.001Z</time></trkpt><trkpt lat="33.91380972011311" lon="8.08312243768724"><ele>126.0</ele><time>2026-04-07T18:15:54.001Z</time></trkpt><trkpt lat="33.91385376978028" lon="8.08333210612469"><ele>125.66666666666666</ele><time>2026-04-07T18:15:55.001Z</time></trkpt><trkpt lat="33.91389835009888" lon="8.083542615628993"><ele>125.33333333333333</ele><time>2026-04-07T18:15:56.001Z</time></trkpt><trkpt lat="33.913942879239976" lon="8.083749550726777"><ele>125.0</ele><time>2026-04-07T18:15:57.001Z</time></trkpt><trkpt lat="33.913987190570786" lon="8.083951894532827"><ele>123.66666666666666</ele><time>2026-04-07T18:15:58.001Z</time></trkpt><trkpt lat="33.914030404967406" lon="8.084151617366107"><ele>122.33333333333334</ele><time>2026-04-07T18:15:59.001Z</time></trkpt><trkpt lat="33.914071033423866" lon="8.084348801084245"><ele>121.0</ele><time>2026-04-07T18:16:00.001Z</time></trkpt><trkpt lat="33.914111979902785" lon="8.084543648672124"><ele>121.0</ele><time>2026-04-07T18:16:01.001Z</time></trkpt><trkpt lat="33.91414949544736" lon="8.084733864000253"><ele>121.0</ele><time>2026-04-07T18:16:02.001Z</time></trkpt><trkpt lat="33.91418901909957" lon="8.084923373276501"><ele>121.0</ele><time>2026-04-07T18:16:03.001Z</time></trkpt><trkpt lat="33.914228762686186" lon="8.08511324386885"><ele>121.66666666666667</ele><time>2026-04-07T18:16:04.001Z</time></trkpt><trkpt lat="33.91426894053482" lon="8.085300840967397"><ele>122.33333333333334</ele><time>2026-04-07T18:16:05.001Z</time></trkpt><trkpt lat="33.914307540876194" lon="8.085486326804961"><ele>123.0</ele><time>2026-04-07T18:16:06.001Z</time></trkpt><trkpt lat="33.91434513471951" lon="8.085670478920129"><ele>123.33333333333334</ele><time>2026-04-07T18:16:07.001Z</time></trkpt><trkpt lat="33.914381299179624" lon="8.085852578070918"><ele>123.66666666666667</ele><time>2026-04-07T18:16:08.001Z</time></trkpt><trkpt lat="33.914416468154705" lon="8.086033841731211"><ele>124.0</ele><time>2026-04-07T18:16:09.001Z</time></trkpt><trkpt lat="33.91445187689176" lon="8.086211113139084"><ele>124.0</ele><time>2026-04-07T18:16:10.001Z</time></trkpt><trkpt lat="33.91448727778501" lon="8.086385289147326"><ele>124.0</ele><time>2026-04-07T18:16:11.001Z</time></trkpt><trkpt lat="33.91452278199364" lon="8.086555424906729"><ele>124.0</ele><time>2026-04-07T18:16:12.001Z</time></trkpt><trkpt lat="33.91455848199221" lon="8.086720684021417"><ele>124.0</ele><time>2026-04-07T18:16:13.001Z</time></trkpt><trkpt lat="33.91459307344983" lon="8.086881310977988"><ele>123.75</ele><time>2026-04-07T18:16:14.001Z</time></trkpt><trkpt lat="33.91462668177155" lon="8.0870377577399"><ele>123.5</ele><time>2026-04-07T18:16:15.001Z</time></trkpt><trkpt lat="33.91465785196483" lon="8.087187022303116"><ele>123.25</ele><time>2026-04-07T18:16:16.001Z</time></trkpt><trkpt lat="33.91468672557135" lon="8.087326486443272"><ele>123.0</ele><time>2026-04-07T18:16:17.001Z</time></trkpt><trkpt lat="33.91471391853719" lon="8.087458433388724"><ele>123.0</ele><time>2026-04-07T18:16:18.001Z</time></trkpt><trkpt lat="33.91473667965282" lon="8.087581352682701"><ele>123.00000000000001</ele><time>2026-04-07T18:16:19.001Z</time></trkpt><trkpt lat="33.91475606857294" lon="8.087693412316685"><ele>123.00000000000001</ele><time>2026-04-07T18:16:20.001Z</time></trkpt><trkpt lat="33.91476642252869" lon="8.087801179436806"><ele>123.0</ele><time>2026-04-07T18:16:21.001Z</time></trkpt><trkpt lat="33.91476173129294" lon="8.087907038156223"><ele>123.0</ele><time>2026-04-07T18:16:22.001Z</time></trkpt><trkpt lat="33.914746981490964" lon="8.088007109076303"><ele>123.0</ele><time>2026-04-07T18:16:23.001Z</time></trkpt><trkpt lat="33.914736426087465" lon="8.088099912891142"><ele>123.0</ele><time>2026-04-07T18:16:24.001Z</time></trkpt><trkpt lat="33.91475371213726" lon="8.088187981951798"><ele>123.0</ele><time>2026-04-07T18:16:25.001Z</time></trkpt><trkpt lat="33.91479309576913" lon="8.088267670494321"><ele>123.0</ele><time>2026-04-07T18:16:26.001Z</time></trkpt><trkpt lat="33.914840434315614" lon="8.08834794120806"><ele>123.0</ele><time>2026-04-07T18:16:27.001Z</time></trkpt><trkpt lat="33.91488253258709" lon="8.088438068265846"><ele>123.0</ele><time>2026-04-07T18:16:28.001Z</time></trkpt><trkpt lat="33.91492599807593" lon="8.088541025593523"><ele>123.0</ele><time>2026-04-07T18:16:29.001Z</time></trkpt><trkpt lat="33.91496115938436" lon="8.088651069262783"><ele>123.00000000000001</ele><time>2026-04-07T18:16:30.001Z</time></trkpt><trkpt lat="33.914991982665676" lon="8.088773502888658"><ele>123.00000000000001</ele><time>2026-04-07T18:16:31.001Z</time></trkpt><trkpt lat="33.91501919109012" lon="8.088906179581876"><ele>123.0</ele><time>2026-04-07T18:16:32.001Z</time></trkpt><trkpt lat="33.91504791715071" lon="8.089050112854082"><ele>123.0</ele><time>2026-04-07T18:16:33.001Z</time></trkpt><trkpt lat="33.91507915307169" lon="8.08920135971797"><ele>122.5</ele><time>2026-04-07T18:16:34.001Z</time></trkpt><trkpt lat="33.9151107151186" lon="8.089353829662937"><ele>122.0</ele><time>2026-04-07T18:16:35.001Z</time></trkpt><trkpt lat="33.915141841706465" lon="8.089503103172813"><ele>121.5</ele><time>2026-04-07T18:16:36.001Z</time></trkpt><trkpt lat="33.915173003381994" lon="8.089649566482231"><ele>121.0</ele><time>2026-04-07T18:16:37.001Z</time></trkpt><trkpt lat="33.91520197824963" lon="8.089795376117445"><ele>121.0</ele><time>2026-04-07T18:16:38.001Z</time></trkpt><trkpt lat="33.915231626032444" lon="8.089942769627477"><ele>121.0</ele><time>2026-04-07T18:16:39.001Z</time></trkpt><trkpt lat="33.915263992651866" lon="8.090092908798628"><ele>121.0</ele><time>2026-04-07T18:16:40.002Z</time></trkpt><trkpt lat="33.915297879928616" lon="8.090246904010947"><ele>121.0</ele><time>2026-04-07T18:16:41.002Z</time></trkpt><trkpt lat="33.91532063589721" lon="8.090403623774387"><ele>121.0</ele><time>2026-04-07T18:16:42.002Z</time></trkpt><trkpt lat="33.91536420569427" lon="8.090567988608619"><ele>121.0</ele><time>2026-04-07T18:16:43.002Z</time></trkpt><trkpt lat="33.91540040824857" lon="8.090733072081585"><ele>121.0</ele><time>2026-04-07T18:16:44.002Z</time></trkpt><trkpt lat="33.91543205773461" lon="8.090903853885292"><ele>121.0</ele><time>2026-04-07T18:16:45.002Z</time></trkpt><trkpt lat="33.915470302644394" lon="8.0910739997862"><ele>121.25</ele><time>2026-04-07T18:16:46.002Z</time></trkpt><trkpt lat="33.91550606468335" lon="8.091245804697522"><ele>121.5</ele><time>2026-04-07T18:16:47.002Z</time></trkpt><trkpt lat="33.91554102464298" lon="8.091421452908875"><ele>121.75</ele><time>2026-04-07T18:16:48.002Z</time></trkpt><trkpt lat="33.915576354323704" lon="8.091597680417967"><ele>122.0</ele><time>2026-04-07T18:16:49.002Z</time></trkpt><trkpt lat="33.91561446597504" lon="8.091775529545108"><ele>120.66666666666666</ele><time>2026-04-07T18:16:50.002Z</time></trkpt><trkpt lat="33.91564988865838" lon="8.09195425323431"><ele>119.33333333333334</ele><time>2026-04-07T18:16:51.002Z</time></trkpt><trkpt lat="33.91568742188223" lon="8.092131817872755"><ele>118.0</ele><time>2026-04-07T18:16:52.002Z</time></trkpt><trkpt lat="33.91572269603687" lon="8.092309998091974"><ele>117.25</ele><time>2026-04-07T18:16:53.002Z</time></trkpt><trkpt lat="33.91575761671072" lon="8.09248962665123"><ele>116.5</ele><time>2026-04-07T18:16:54.002Z</time></trkpt><trkpt lat="33.91579621135675" lon="8.092662261269785"><ele>115.75</ele><time>2026-04-07T18:16:55.002Z</time></trkpt><trkpt lat="33.915834456231785" lon="8.092834349748658"><ele>115.0</ele><time>2026-04-07T18:16:56.002Z</time></trkpt><trkpt lat="33.915871063533146" lon="8.093007185918877"><ele>115.25</ele><time>2026-04-07T18:16:57.002Z</time></trkpt><trkpt lat="33.91590875177557" lon="8.09317896808065"><ele>115.5</ele><time>2026-04-07T18:16:58.002Z</time></trkpt><trkpt lat="33.915945978576325" lon="8.093350555683124"><ele>115.75</ele><time>2026-04-07T18:16:59.002Z</time></trkpt><trkpt lat="33.91598189491159" lon="8.093522527960687"><ele>116.0</ele><time>2026-04-07T18:17:00.002Z</time></trkpt><trkpt lat="33.9160177683794" lon="8.093695102984443"><ele>115.5</ele><time>2026-04-07T18:17:01.002Z</time></trkpt><trkpt lat="33.91605679216036" lon="8.093868830638085"><ele>115.0</ele><time>2026-04-07T18:17:02.002Z</time></trkpt><trkpt lat="33.91609444548015" lon="8.094041897533867"><ele>114.5</ele><time>2026-04-07T18:17:03.002Z</time></trkpt><trkpt lat="33.9161323463927" lon="8.094217969393528"><ele>114.0</ele><time>2026-04-07T18:17:04.002Z</time></trkpt><trkpt lat="33.916170488283825" lon="8.09439386436601"><ele>113.0</ele><time>2026-04-07T18:17:05.002Z</time></trkpt><trkpt lat="33.91620755867739" lon="8.09457205357872"><ele>112.0</ele><time>2026-04-07T18:17:06.002Z</time></trkpt><trkpt lat="33.91624515300483" lon="8.094749255463757"><ele>111.0</ele><time>2026-04-07T18:17:07.002Z</time></trkpt><trkpt lat="33.9162825783428" lon="8.094930036550812"><ele>110.0</ele><time>2026-04-07T18:17:08.002Z</time></trkpt><trkpt lat="33.91632124707575" lon="8.095111418381778"><ele>109.0</ele><time>2026-04-07T18:17:09.002Z</time></trkpt><trkpt lat="33.91636069919258" lon="8.095293881949713"><ele>108.0</ele><time>2026-04-07T18:17:10.002Z</time></trkpt><trkpt lat="33.916401611489796" lon="8.095476608183374"><ele>108.0</ele><time>2026-04-07T18:17:11.002Z</time></trkpt><trkpt lat="33.91644241684352" lon="8.095662369419669"><ele>108.0</ele><time>2026-04-07T18:17:12.002Z</time></trkpt><trkpt lat="33.91648443042121" lon="8.09585084554981"><ele>108.0</ele><time>2026-04-07T18:17:13.002Z</time></trkpt><trkpt lat="33.91652486127868" lon="8.096039687110519"><ele>107.66666666666666</ele><time>2026-04-07T18:17:14.002Z</time></trkpt><trkpt lat="33.9165649196135" lon="8.096230643941531"><ele>107.33333333333333</ele><time>2026-04-07T18:17:15.002Z</time></trkpt><trkpt lat="33.91660575200746" lon="8.096419501335705"><ele>107.0</ele><time>2026-04-07T18:17:16.002Z</time></trkpt><trkpt lat="33.9166475188004" lon="8.09660611177691"><ele>106.66666666666666</ele><time>2026-04-07T18:17:17Z</time></trkpt><trkpt lat="33.916689059171" lon="8.096789413785748"><ele>106.33333333333334</ele><time>2026-04-07T18:17:18Z</time></trkpt><trkpt lat="33.91673030418011" lon="8.096969656241768"><ele>106.0</ele><time>2026-04-07T18:17:19Z</time></trkpt><trkpt lat="33.9167704336943" lon="8.097144695902434"><ele>106.0</ele><time>2026-04-07T18:17:20Z</time></trkpt><trkpt lat="33.916810236879826" lon="8.097315794051374"><ele>106.0</ele><time>2026-04-07T18:17:21Z</time></trkpt><trkpt lat="33.91685038791995" lon="8.09748322690737"><ele>106.0</ele><time>2026-04-07T18:17:22Z</time></trkpt><trkpt lat="33.91688834130834" lon="8.097648630926688"><ele>106.0</ele><time>2026-04-07T18:17:23Z</time></trkpt><trkpt lat="33.91692417638953" lon="8.09781353758935"><ele>105.75</ele><time>2026-04-07T18:17:24Z</time></trkpt><trkpt lat="33.91695946627357" lon="8.097977680040719"><ele>105.5</ele><time>2026-04-07T18:17:25Z</time></trkpt><trkpt lat="33.916995007593485" lon="8.098144532744788"><ele>105.25</ele><time>2026-04-07T18:17:26Z</time></trkpt><trkpt lat="33.917031039122115" lon="8.09831246818151"><ele>105.0</ele><time>2026-04-07T18:17:27Z</time></trkpt><trkpt lat="33.91706750801721" lon="8.098482463756671"><ele>104.25</ele><time>2026-04-07T18:17:28Z</time></trkpt><trkpt lat="33.91710471735192" lon="8.098654520824537"><ele>103.5</ele><time>2026-04-07T18:17:29Z</time></trkpt><trkpt lat="33.9171417358187" lon="8.098827192053019"><ele>102.75</ele><time>2026-04-07T18:17:30Z</time></trkpt><trkpt lat="33.917179837371535" lon="8.0989975862151"><ele>102.0</ele><time>2026-04-07T18:17:31Z</time></trkpt><trkpt lat="33.91721885618948" lon="8.099165938548772"><ele>101.75</ele><time>2026-04-07T18:17:32Z</time></trkpt><trkpt lat="33.917255076890434" lon="8.099332271084016"><ele>101.5</ele><time>2026-04-07T18:17:33Z</time></trkpt><trkpt lat="33.917292110932706" lon="8.099498080814785"><ele>101.25</ele><time>2026-04-07T18:17:34Z</time></trkpt><trkpt lat="33.91732764492226" lon="8.099667906160091"><ele>101.0</ele><time>2026-04-07T18:17:35Z</time></trkpt><trkpt lat="33.91736070770128" lon="8.099840340048862"><ele>100.0</ele><time>2026-04-07T18:17:36Z</time></trkpt><trkpt lat="33.91739441502598" lon="8.100016134090366"><ele>99.0</ele><time>2026-04-07T18:17:37.001Z</time></trkpt><trkpt lat="33.917429276642366" lon="8.100193486360128"><ele>98.0</ele><time>2026-04-07T18:17:38.001Z</time></trkpt><trkpt lat="33.91746521718012" lon="8.100371050730454"><ele>98.0</ele><time>2026-04-07T18:17:39.001Z</time></trkpt><trkpt lat="33.917501883233754" lon="8.10054685948037"><ele>98.0</ele><time>2026-04-07T18:17:40.001Z</time></trkpt><trkpt lat="33.91753964637598" lon="8.100723412820525"><ele>98.0</ele><time>2026-04-07T18:17:41.001Z</time></trkpt><trkpt lat="33.917578693730576" lon="8.100900609816547"><ele>98.0</ele><time>2026-04-07T18:17:42.001Z</time></trkpt><trkpt lat="33.91761993663937" lon="8.101084085535238"><ele>98.0</ele><time>2026-04-07T18:17:43.001Z</time></trkpt><trkpt lat="33.9176580735771" lon="8.10126694790193"><ele>98.0</ele><time>2026-04-07T18:17:44.001Z</time></trkpt><trkpt lat="33.91769548154191" lon="8.10144974115315"><ele>97.33333333333333</ele><time>2026-04-07T18:17:45.001Z</time></trkpt><trkpt lat="33.91773518629261" lon="8.101631299439667"><ele>96.66666666666666</ele><time>2026-04-07T18:17:46.001Z</time></trkpt><trkpt lat="33.9177730799396" lon="8.101809839905526"><ele>96.0</ele><time>2026-04-07T18:17:47.001Z</time></trkpt><trkpt lat="33.917810492009544" lon="8.10198425753989"><ele>96.0</ele><time>2026-04-07T18:17:48.001Z</time></trkpt><trkpt lat="33.917848233072306" lon="8.102157078255237"><ele>96.0</ele><time>2026-04-07T18:17:49.001Z</time></trkpt><trkpt lat="33.91788394936291" lon="8.102325316641746"><ele>96.0</ele><time>2026-04-07T18:17:50.001Z</time></trkpt><trkpt lat="33.917918676350595" lon="8.10248866117955"><ele>96.0</ele><time>2026-04-07T18:17:51.001Z</time></trkpt><trkpt lat="33.91795517913896" lon="8.10264768731783"><ele>96.0</ele><time>2026-04-07T18:17:52.001Z</time></trkpt><trkpt lat="33.91798980891486" lon="8.102805223395102"><ele>96.0</ele><time>2026-04-07T18:17:53.001Z</time></trkpt><trkpt lat="33.9180236126202" lon="8.102962434147049"><ele>96.0</ele><time>2026-04-07T18:17:54.001Z</time></trkpt><trkpt lat="33.91805692521853" lon="8.103121175997117"><ele>96.0</ele><time>2026-04-07T18:17:55.001Z</time></trkpt><trkpt lat="33.91808840455095" lon="8.103282310311354"><ele>95.25</ele><time>2026-04-07T18:17:56.001Z</time></trkpt><trkpt lat="33.91811994174454" lon="8.103444598891231"><ele>94.5</ele><time>2026-04-07T18:17:57.001Z</time></trkpt><trkpt lat="33.91815315250525" lon="8.10360480705226"><ele>93.75</ele><time>2026-04-07T18:17:58.001Z</time></trkpt><trkpt lat="33.91818588583979" lon="8.103761460145622"><ele>93.0</ele><time>2026-04-07T18:17:59.001Z</time></trkpt><trkpt lat="33.91821788255572" lon="8.10391453731934"><ele>93.0</ele><time>2026-04-07T18:18:00.001Z</time></trkpt><trkpt lat="33.91824759669824" lon="8.104053282472666"><ele>93.0</ele><time>2026-04-07T18:18:01.001Z</time></trkpt><trkpt lat="33.91827304979021" lon="8.104173576982491"><ele>93.0</ele><time>2026-04-07T18:18:02.001Z</time></trkpt><trkpt lat="33.91829710147312" lon="8.104277439358244"><ele>93.0</ele><time>2026-04-07T18:18:03.001Z</time></trkpt><trkpt lat="33.918321042137784" lon="8.104382991179126"><ele>93.0</ele><time>2026-04-07T18:18:04.001Z</time></trkpt><trkpt lat="33.91834527840824" lon="8.10449377387232"><ele>93.0</ele><time>2026-04-07T18:18:05.001Z</time></trkpt><trkpt lat="33.91837195070175" lon="8.104611250604641"><ele>93.0</ele><time>2026-04-07T18:18:06.001Z</time></trkpt><trkpt lat="33.91839571014431" lon="8.104732289448572"><ele>93.0</ele><time>2026-04-07T18:18:07.001Z</time></trkpt><trkpt lat="33.918421744316156" lon="8.10486005373876"><ele>93.0</ele><time>2026-04-07T18:18:08.001Z</time></trkpt><trkpt lat="33.9184469626177" lon="8.104992668913855"><ele>93.0</ele><time>2026-04-07T18:18:09.001Z</time></trkpt><trkpt lat="33.91847354348448" lon="8.105130345171716"><ele>93.0</ele><time>2026-04-07T18:18:10.001Z</time></trkpt><trkpt lat="33.9185018713918" lon="8.105271337159623"><ele>93.0</ele><time>2026-04-07T18:18:11.001Z</time></trkpt><trkpt lat="33.91853252358854" lon="8.105415234575087"><ele>93.0</ele><time>2026-04-07T18:18:12.001Z</time></trkpt><trkpt lat="33.9185646260166" lon="8.105559855841097"><ele>93.0</ele><time>2026-04-07T18:18:13.001Z</time></trkpt><trkpt lat="33.918595743329945" lon="8.105712386521633"><ele>93.0</ele><time>2026-04-07T18:18:14.001Z</time></trkpt><trkpt lat="33.918626197386295" lon="8.105863446950554"><ele>93.0</ele><time>2026-04-07T18:18:15.001Z</time></trkpt><trkpt lat="33.918655193528025" lon="8.10601657925818"><ele>93.0</ele><time>2026-04-07T18:18:16.001Z</time></trkpt><trkpt lat="33.91868657594774" lon="8.106168931711515"><ele>93.0</ele><time>2026-04-07T18:18:17.001Z</time></trkpt><trkpt lat="33.9187182859339" lon="8.10632308193287"><ele>93.0</ele><time>2026-04-07T18:18:18.001Z</time></trkpt><trkpt lat="33.918755485484475" lon="8.106479599381808"><ele>93.0</ele><time>2026-04-07T18:18:19.001Z</time></trkpt><trkpt lat="33.91878878788503" lon="8.106639918907696"><ele>93.0</ele><time>2026-04-07T18:18:20.001Z</time></trkpt><trkpt lat="33.91882265268263" lon="8.106797903008845"><ele>93.0</ele><time>2026-04-07T18:18:21.001Z</time></trkpt><trkpt lat="33.91885794732822" lon="8.106955103240573"><ele>92.75</ele><time>2026-04-07T18:18:22.001Z</time></trkpt><trkpt lat="33.9188939914481" lon="8.107113815269987"><ele>92.5</ele><time>2026-04-07T18:18:23.001Z</time></trkpt><trkpt lat="33.91892633615057" lon="8.10727132791833"><ele>92.25</ele><time>2026-04-07T18:18:24.001Z</time></trkpt><trkpt lat="33.91895942771998" lon="8.107429270161418"><ele>92.0</ele><time>2026-04-07T18:18:25.001Z</time></trkpt><trkpt lat="33.91899566945781" lon="8.107580734672934"><ele>91.5</ele><time>2026-04-07T18:18:26.002Z</time></trkpt><trkpt lat="33.919025328507566" lon="8.107736363343857"><ele>91.0</ele><time>2026-04-07T18:18:27.002Z</time></trkpt><trkpt lat="33.91905541116377" lon="8.1078868128076"><ele>90.5</ele><time>2026-04-07T18:18:28.002Z</time></trkpt><trkpt lat="33.91908618709994" lon="8.108034716802687"><ele>90.0</ele><time>2026-04-07T18:18:29.002Z</time></trkpt><trkpt lat="33.91911613176987" lon="8.108178277714098"><ele>89.75</ele><time>2026-04-07T18:18:30.002Z</time></trkpt><trkpt lat="33.91914580400104" lon="8.108318524970528"><ele>89.5</ele><time>2026-04-07T18:18:31.002Z</time></trkpt><trkpt lat="33.91917420434052" lon="8.108454921333445"><ele>89.25</ele><time>2026-04-07T18:18:32.002Z</time></trkpt><trkpt lat="33.91920251875272" lon="8.108586001409103"><ele>89.0</ele><time>2026-04-07T18:18:33.002Z</time></trkpt><trkpt lat="33.919230522345046" lon="8.108718849626209"><ele>89.0</ele><time>2026-04-07T18:18:34.002Z</time></trkpt><trkpt lat="33.91925135250238" lon="8.108827322688972"><ele>89.0</ele><time>2026-04-07T18:18:35.002Z</time></trkpt><trkpt lat="33.91926638004377" lon="8.108918589211648"><ele>89.0</ele><time>2026-04-07T18:18:36.002Z</time></trkpt><trkpt lat="33.919287792671085" lon="8.109000974083932"><ele>89.0</ele><time>2026-04-07T18:18:37.002Z</time></trkpt><trkpt lat="33.91930784908944" lon="8.10908629654788"><ele>89.0</ele><time>2026-04-07T18:18:38.002Z</time></trkpt><trkpt lat="33.91932955535597" lon="8.109172788876206"><ele>89.0</ele><time>2026-04-07T18:18:39.002Z</time></trkpt><trkpt lat="33.91933896120462" lon="8.10926549016637"><ele>88.83333333333334</ele><time>2026-04-07T18:18:40.002Z</time></trkpt><trkpt lat="33.91936147004477" lon="8.109361766792604"><ele>88.66666666666667</ele><time>2026-04-07T18:18:41.002Z</time></trkpt><trkpt lat="33.919374011170405" lon="8.109466834311663"><ele>88.5</ele><time>2026-04-07T18:18:42.002Z</time></trkpt><trkpt lat="33.91939362229959" lon="8.109571430814215"><ele>88.33333333333333</ele><time>2026-04-07T18:18:43.002Z</time></trkpt><trkpt lat="33.91941612701692" lon="8.109674908503877"><ele>88.16666666666666</ele><time>2026-04-07T18:18:44.002Z</time></trkpt><trkpt lat="33.9194382243155" lon="8.109782211293973"><ele>88.0</ele><time>2026-04-07T18:18:45.002Z</time></trkpt><trkpt lat="33.91945825874203" lon="8.109888267361873"><ele>88.0</ele><time>2026-04-07T18:18:46.002Z</time></trkpt><trkpt lat="33.91947780164895" lon="8.109991613115053"><ele>88.0</ele><time>2026-04-07T18:18:47.002Z</time></trkpt><trkpt lat="33.91949741120412" lon="8.110090137005267"><ele>88.0</ele><time>2026-04-07T18:18:48.002Z</time></trkpt><trkpt lat="33.91951344890234" lon="8.110188372336037"><ele>88.0</ele><time>2026-04-07T18:18:49.002Z</time></trkpt><trkpt lat="33.91953411859416" lon="8.110281645959168"><ele>88.0</ele><time>2026-04-07T18:18:50.002Z</time></trkpt><trkpt lat="33.91955190760749" lon="8.11037045769133"><ele>88.0</ele><time>2026-04-07T18:18:51.002Z</time></trkpt><trkpt lat="33.91957375739122" lon="8.110456981862173"><ele>88.0</ele><time>2026-04-07T18:18:52.002Z</time></trkpt><trkpt lat="33.919591733692634" lon="8.110538667314986"><ele>88.0</ele><time>2026-04-07T18:18:53.002Z</time></trkpt><trkpt lat="33.9196087963479" lon="8.110613291435005"><ele>88.0</ele><time>2026-04-07T18:18:54.002Z</time></trkpt><trkpt lat="33.9196352809584" lon="8.110739052932157"><ele>88.0</ele><time>2026-04-07T18:18:56.002Z</time></trkpt><trkpt lat="33.91966021902516" lon="8.110840873023049"><ele>88.0</ele><time>2026-04-07T18:18:58.002Z</time></trkpt><trkpt lat="33.919669068189286" lon="8.11091886419449"><ele>88.0</ele><time>2026-04-07T18:19:00.002Z</time></trkpt><trkpt lat="33.91965761748684" lon="8.11100493558723"><ele>88.0</ele><time>2026-04-07T18:19:02.002Z</time></trkpt><trkpt lat="33.91961074138256" lon="8.111116382243868"><ele>88.0</ele><time>2026-04-07T18:19:04.002Z</time></trkpt><trkpt lat="33.91950775209523" lon="8.111204888201087"><ele>88.0</ele><time>2026-04-07T18:19:06.002Z</time></trkpt><trkpt lat="33.91944303451032" lon="8.111230438611043"><ele>88.0</ele><time>2026-04-07T18:19:07.002Z</time></trkpt><trkpt lat="33.91937644684153" lon="8.111253157891595"><ele>88.0</ele><time>2026-04-07T18:19:08.002Z</time></trkpt><trkpt lat="33.91930516704711" lon="8.111273292215504"><ele>88.0</ele><time>2026-04-07T18:19:09.002Z</time></trkpt><trkpt lat="33.919230862154066" lon="8.111295076561992"><ele>88.0</ele><time>2026-04-07T18:19:10.002Z</time></trkpt><trkpt lat="33.91915877932577" lon="8.1113193681808"><ele>88.0</ele><time>2026-04-07T18:19:11.002Z</time></trkpt><trkpt lat="33.91908916210036" lon="8.111339877218926"><ele>88.0</ele><time>2026-04-07T18:19:12.002Z</time></trkpt><trkpt lat="33.9190222337063" lon="8.111365801446805"><ele>88.0</ele><time>2026-04-07T18:19:13.002Z</time></trkpt><trkpt lat="33.918946060824304" lon="8.11138660050926"><ele>88.0</ele><time>2026-04-07T18:19:14.002Z</time></trkpt><trkpt lat="33.91886583347473" lon="8.111409809856502"><ele>88.0</ele><time>2026-04-07T18:19:15.002Z</time></trkpt><trkpt lat="33.91877735229819" lon="8.111433043816115"><ele>88.0</ele><time>2026-04-07T18:19:16.002Z</time></trkpt><trkpt lat="33.91868601902463" lon="8.111455143747532"><ele>88.0</ele><time>2026-04-07T18:19:17.003Z</time></trkpt><trkpt lat="33.918600941241415" lon="8.11148327346349"><ele>88.0</ele><time>2026-04-07T18:19:18.003Z</time></trkpt><trkpt lat="33.918511636808006" lon="8.1115145506758"><ele>88.0</ele><time>2026-04-07T18:19:19.003Z</time></trkpt><trkpt lat="33.9184139983581" lon="8.111530105295344"><ele>88.0</ele><time>2026-04-07T18:19:20.003Z</time></trkpt><trkpt lat="33.918320456004906" lon="8.111548488488227"><ele>88.0</ele><time>2026-04-07T18:19:21.003Z</time></trkpt><trkpt lat="33.91822760341311" lon="8.11156646221434"><ele>88.0</ele><time>2026-04-07T18:19:22.003Z</time></trkpt><trkpt lat="33.9181370653273" lon="8.111582782796596"><ele>88.0</ele><time>2026-04-07T18:19:23.002Z</time></trkpt><trkpt lat="33.91804511165517" lon="8.1115918663517"><ele>88.0</ele><time>2026-04-07T18:19:24.002Z</time></trkpt><trkpt lat="33.91795645676915" lon="8.111594718682044"><ele>88.0</ele><time>2026-04-07T18:19:25.002Z</time></trkpt><trkpt lat="33.9178626207655" lon="8.111598370694306"><ele>87.66666666666666</ele><time>2026-04-07T18:19:26.002Z</time></trkpt><trkpt lat="33.91777315677216" lon="8.111606002372381"><ele>87.33333333333333</ele><time>2026-04-07T18:19:27.002Z</time></trkpt><trkpt lat="33.91768742118519" lon="8.111611928549411"><ele>87.0</ele><time>2026-04-07T18:19:28.002Z</time></trkpt><trkpt lat="33.91760302881843" lon="8.111621078251458"><ele>86.66666666666667</ele><time>2026-04-07T18:19:29.002Z</time></trkpt><trkpt lat="33.917510744354" lon="8.111624877450542"><ele>86.33333333333334</ele><time>2026-04-07T18:19:30.002Z</time></trkpt><trkpt lat="33.91742176634562" lon="8.111623657859623"><ele>86.0</ele><time>2026-04-07T18:19:31.002Z</time></trkpt><trkpt lat="33.917331393659346" lon="8.111618370553112"><ele>86.0</ele><time>2026-04-07T18:19:32.002Z</time></trkpt><trkpt lat="33.917243926305545" lon="8.11161877685111"><ele>86.0</ele><time>2026-04-07T18:19:33.002Z</time></trkpt><trkpt lat="33.917158095046105" lon="8.111626599796214"><ele>86.0</ele><time>2026-04-07T18:19:34.002Z</time></trkpt><trkpt lat="33.91707043451019" lon="8.111636297090737"><ele>86.0</ele><time>2026-04-07T18:19:35.001Z</time></trkpt><trkpt lat="33.9169802854928" lon="8.111653142069656"><ele>86.0</ele><time>2026-04-07T18:19:36.001Z</time></trkpt><trkpt lat="33.916891054481994" lon="8.111663130921631"><ele>86.0</ele><time>2026-04-07T18:19:37.001Z</time></trkpt><trkpt lat="33.91679949811057" lon="8.111679580612865"><ele>85.8</ele><time>2026-04-07T18:19:38.001Z</time></trkpt><trkpt lat="33.916707385735386" lon="8.111692438938089"><ele>85.6</ele><time>2026-04-07T18:19:39.001Z</time></trkpt><trkpt lat="33.916614249689694" lon="8.111704592165378"><ele>85.4</ele><time>2026-04-07T18:19:40.001Z</time></trkpt><trkpt lat="33.91652012001594" lon="8.111715235738657"><ele>85.2</ele><time>2026-04-07T18:19:41.001Z</time></trkpt><trkpt lat="33.916425387067754" lon="8.111723298933228"><ele>85.0</ele><time>2026-04-07T18:19:42.001Z</time></trkpt><trkpt lat="33.916328579923906" lon="8.111728223248557"><ele>85.0</ele><time>2026-04-07T18:19:43.001Z</time></trkpt><trkpt lat="33.916229771547016" lon="8.11173107985607"><ele>85.0</ele><time>2026-04-07T18:19:44.001Z</time></trkpt><trkpt lat="33.91612878054237" lon="8.111734058452775"><ele>85.0</ele><time>2026-04-07T18:19:45.001Z</time></trkpt><trkpt lat="33.91602455231282" lon="8.111740397065741"><ele>85.0</ele><time>2026-04-07T18:19:46.001Z</time></trkpt><trkpt lat="33.915920594930604" lon="8.11175013762625"><ele>85.0</ele><time>2026-04-07T18:19:47.001Z</time></trkpt><trkpt lat="33.915816591899386" lon="8.111757071491018"><ele>84.0</ele><time>2026-04-07T18:19:48.001Z</time></trkpt><trkpt lat="33.91571265907952" lon="8.111762641384816"><ele>83.0</ele><time>2026-04-07T18:19:49.001Z</time></trkpt><trkpt lat="33.915609532356015" lon="8.11177127056415"><ele>82.0</ele><time>2026-04-07T18:19:50.001Z</time></trkpt><trkpt lat="33.91550733478064" lon="8.11178100573857"><ele>81.0</ele><time>2026-04-07T18:19:51.001Z</time></trkpt><trkpt lat="33.915408018679535" lon="8.111797186426562"><ele>80.0</ele><time>2026-04-07T18:19:52.001Z</time></trkpt><trkpt lat="33.915310150305416" lon="8.11181539970157"><ele>80.0</ele><time>2026-04-07T18:19:53.001Z</time></trkpt><trkpt lat="33.91521306295084" lon="8.11183715569792"><ele>80.0</ele><time>2026-04-07T18:19:54.001Z</time></trkpt><trkpt lat="33.91511779025876" lon="8.11186185561319"><ele>80.0</ele><time>2026-04-07T18:19:55.001Z</time></trkpt><trkpt lat="33.91502352671926" lon="8.111892150975342"><ele>80.0</ele><time>2026-04-07T18:19:56.002Z</time></trkpt><trkpt lat="33.91493080866421" lon="8.111929639207123"><ele>80.0</ele><time>2026-04-07T18:19:57.002Z</time></trkpt><trkpt lat="33.914839321791554" lon="8.111971546936596"><ele>79.6</ele><time>2026-04-07T18:19:58.002Z</time></trkpt><trkpt lat="33.91475039472774" lon="8.112017316382842"><ele>79.2</ele><time>2026-04-07T18:19:59.002Z</time></trkpt><trkpt lat="33.91466424377254" lon="8.112066516878896"><ele>78.8</ele><time>2026-04-07T18:20:00.002Z</time></trkpt><trkpt lat="33.91457963759844" lon="8.112116110803695"><ele>78.4</ele><time>2026-04-07T18:20:01.002Z</time></trkpt><trkpt lat="33.91449642509283" lon="8.112167828497114"><ele>78.0</ele><time>2026-04-07T18:20:02.002Z</time></trkpt><trkpt lat="33.91441390075001" lon="8.112219379209002"><ele>78.0</ele><time>2026-04-07T18:20:03.002Z</time></trkpt><trkpt lat="33.91433636264093" lon="8.112273421753025"><ele>78.0</ele><time>2026-04-07T18:20:04.002Z</time></trkpt><trkpt lat="33.914256201445795" lon="8.112329536187962"><ele>78.0</ele><time>2026-04-07T18:20:05.002Z</time></trkpt><trkpt lat="33.91417806406737" lon="8.112388530579503"><ele>78.0</ele><time>2026-04-07T18:20:06.002Z</time></trkpt><trkpt lat="33.91410204707687" lon="8.112443188125082"><ele>78.0</ele><time>2026-04-07T18:20:07.002Z</time></trkpt><trkpt lat="33.91402727733163" lon="8.112496653382376"><ele>78.16666666666667</ele><time>2026-04-07T18:20:08.002Z</time></trkpt><trkpt lat="33.913950976547696" lon="8.112546884829209"><ele>78.33333333333333</ele><time>2026-04-07T18:20:09.002Z</time></trkpt><trkpt lat="33.91387574026587" lon="8.11259655088032"><ele>78.5</ele><time>2026-04-07T18:20:10.002Z</time></trkpt><trkpt lat="33.91379881511004" lon="8.112643950734002"><ele>78.66666666666666</ele><time>2026-04-07T18:20:11.002Z</time></trkpt><trkpt lat="33.9137205077965" lon="8.112688261455471"><ele>78.83333333333333</ele><time>2026-04-07T18:20:12.002Z</time></trkpt><trkpt lat="33.91364171229745" lon="8.112731376776578"><ele>79.0</ele><time>2026-04-07T18:20:13.002Z</time></trkpt><trkpt lat="33.91356247437627" lon="8.112773061198533"><ele>79.0</ele><time>2026-04-07T18:20:14.002Z</time></trkpt><trkpt lat="33.91348643278301" lon="8.11281457796993"><ele>79.0</ele><time>2026-04-07T18:20:15.002Z</time></trkpt><trkpt lat="33.91341116787077" lon="8.112854082945244"><ele>79.0</ele><time>2026-04-07T18:20:16.002Z</time></trkpt><trkpt lat="33.913340500190905" lon="8.112901148602592"><ele>79.0</ele><time>2026-04-07T18:20:17.002Z</time></trkpt><trkpt lat="33.9132687499039" lon="8.112956217389604"><ele>79.0</ele><time>2026-04-07T18:20:18.002Z</time></trkpt><trkpt lat="33.91320455792458" lon="8.113010348658422"><ele>79.0</ele><time>2026-04-07T18:20:19.002Z</time></trkpt><trkpt lat="33.913140667675094" lon="8.113071194529555"><ele>79.14285714285715</ele><time>2026-04-07T18:20:20.002Z</time></trkpt><trkpt lat="33.913082369063574" lon="8.113136438484787"><ele>79.28571428571429</ele><time>2026-04-07T18:20:21.002Z</time></trkpt><trkpt lat="33.913029813967015" lon="8.113195746255181"><ele>79.42857142857143</ele><time>2026-04-07T18:20:22.002Z</time></trkpt><trkpt lat="33.912978156927245" lon="8.113251020645649"><ele>79.57142857142858</ele><time>2026-04-07T18:20:23.002Z</time></trkpt><trkpt lat="33.91293491234925" lon="8.113326024032409"><ele>79.71428571428572</ele><time>2026-04-07T18:20:24.002Z</time></trkpt><trkpt lat="33.91291211680818" lon="8.113407646211149"><ele>79.85714285714286</ele><time>2026-04-07T18:20:25.002Z</time></trkpt><trkpt lat="33.91288567256702" lon="8.113491123716209"><ele>80.0</ele><time>2026-04-07T18:20:26.002Z</time></trkpt><trkpt lat="33.912869450331144" lon="8.113599794873403"><ele>80.0</ele><time>2026-04-07T18:20:27.002Z</time></trkpt><trkpt lat="33.91286883585606" lon="8.1137318986566"><ele>80.0</ele><time>2026-04-07T18:20:28.002Z</time></trkpt><trkpt lat="33.91288526940749" lon="8.113830730516932"><ele>80.0</ele><time>2026-04-07T18:20:29.002Z</time></trkpt><trkpt lat="33.9128986691201" lon="8.11393596179898"><ele>80.0</ele><time>2026-04-07T18:20:30.002Z</time></trkpt><trkpt lat="33.9129013373417" lon="8.114057899696432"><ele>80.0</ele><time>2026-04-07T18:20:31.002Z</time></trkpt><trkpt lat="33.91292169692304" lon="8.114175090620003"><ele>79.8</ele><time>2026-04-07T18:20:32.002Z</time></trkpt><trkpt lat="33.91296679582584" lon="8.114266579096704"><ele>79.6</ele><time>2026-04-07T18:20:33.002Z</time></trkpt><trkpt lat="33.91304115396161" lon="8.114331447963137"><ele>79.4</ele><time>2026-04-07T18:20:34.002Z</time></trkpt><trkpt lat="33.913106246693744" lon="8.114392117759389"><ele>79.2</ele><time>2026-04-07T18:20:35.002Z</time></trkpt><trkpt lat="33.913185481742794" lon="8.114476775649266"><ele>79.0</ele><time>2026-04-07T18:20:36.002Z</time></trkpt><trkpt lat="33.91326145254239" lon="8.114548011171733"><ele>79.0</ele><time>2026-04-07T18:20:37.002Z</time></trkpt><trkpt lat="33.913328233639675" lon="8.114600034896723"><ele>79.0</ele><time>2026-04-07T18:20:38.002Z</time></trkpt><trkpt lat="33.91339693000694" lon="8.11462152734037"><ele>79.0</ele><time>2026-04-07T18:20:39.002Z</time></trkpt><trkpt lat="33.913484795901816" lon="8.114663975343017"><ele>79.0</ele><time>2026-04-07T18:20:40.002Z</time></trkpt><trkpt lat="33.9135549318847" lon="8.114705875835524"><ele>79.0</ele><time>2026-04-07T18:20:41.002Z</time></trkpt><trkpt lat="33.91362720151228" lon="8.114715755325335"><ele>79.0</ele><time>2026-04-07T18:20:42.002Z</time></trkpt><trkpt lat="33.91370208678059" lon="8.114752272436638"><ele>79.16666666666666</ele><time>2026-04-07T18:20:43.002Z</time></trkpt><trkpt lat="33.91378493508408" lon="8.114780582362934"><ele>79.33333333333333</ele><time>2026-04-07T18:20:44.002Z</time></trkpt><trkpt lat="33.91386613018989" lon="8.114814628574278"><ele>79.5</ele><time>2026-04-07T18:20:45.002Z</time></trkpt><trkpt lat="33.91394203592793" lon="8.114851598597081"><ele>79.66666666666667</ele><time>2026-04-07T18:20:46.002Z</time></trkpt><trkpt lat="33.914008027977566" lon="8.114897483714254"><ele>79.83333333333334</ele><time>2026-04-07T18:20:47.002Z</time></trkpt><trkpt lat="33.91409203744212" lon="8.114938519221257"><ele>80.0</ele><time>2026-04-07T18:20:48.002Z</time></trkpt><trkpt lat="33.914170797626" lon="8.115004503138408"><ele>79.83333333333334</ele><time>2026-04-07T18:20:49.002Z</time></trkpt><trkpt lat="33.91424510169111" lon="8.11503916266363"><ele>79.66666666666667</ele><time>2026-04-07T18:20:50.002Z</time></trkpt><trkpt lat="33.914320898694825" lon="8.115076379706052"><ele>79.5</ele><time>2026-04-07T18:20:51.002Z</time></trkpt><trkpt lat="33.91438642632143" lon="8.115115821251706"><ele>79.33333333333333</ele><time>2026-04-07T18:20:52.002Z</time></trkpt><trkpt lat="33.914450694261255" lon="8.115170030859494"><ele>79.16666666666666</ele><time>2026-04-07T18:20:53.002Z</time></trkpt><trkpt lat="33.91450417295665" lon="8.115234427213496"><ele>79.0</ele><time>2026-04-07T18:20:54.002Z</time></trkpt><trkpt lat="33.91455428843416" lon="8.11530520938118"><ele>79.0</ele><time>2026-04-07T18:20:55.002Z</time></trkpt><trkpt lat="33.91459770477473" lon="8.115371140219729"><ele>79.0</ele><time>2026-04-07T18:20:56.002Z</time></trkpt><trkpt lat="33.91463638497836" lon="8.115433157989557"><ele>79.0</ele><time>2026-04-07T18:20:57.002Z</time></trkpt><trkpt lat="33.9146909588993" lon="8.115588467065166"><ele>79.0</ele><time>2026-04-07T18:20:59.002Z</time></trkpt><trkpt lat="33.914738658849686" lon="8.115694645809647"><ele>79.0</ele><time>2026-04-07T18:21:00.003Z</time></trkpt><trkpt lat="33.91477925089436" lon="8.115780787260181"><ele>78.16666666666666</ele><time>2026-04-07T18:21:01.003Z</time></trkpt><trkpt lat="33.91481017549183" lon="8.115873542860466"><ele>77.33333333333333</ele><time>2026-04-07T18:21:02.003Z</time></trkpt><trkpt lat="33.914828678819845" lon="8.115976429450528"><ele>76.5</ele><time>2026-04-07T18:21:03.003Z</time></trkpt><trkpt lat="33.91484680367101" lon="8.116084965369723"><ele>75.66666666666667</ele><time>2026-04-07T18:21:04.003Z</time></trkpt><trkpt lat="33.91486899786204" lon="8.116191485906288"><ele>74.83333333333334</ele><time>2026-04-07T18:21:05.003Z</time></trkpt><trkpt lat="33.91485937607871" lon="8.116296050843339"><ele>74.0</ele><time>2026-04-07T18:21:06.003Z</time></trkpt><trkpt lat="33.91489854685112" lon="8.116392200442126"><ele>74.0</ele><time>2026-04-07T18:21:07.003Z</time></trkpt><trkpt lat="33.914916125407004" lon="8.11649819678417"><ele>74.0</ele><time>2026-04-07T18:21:08.003Z</time></trkpt><trkpt lat="33.91493625377984" lon="8.116612547236073"><ele>74.0</ele><time>2026-04-07T18:21:09.003Z</time></trkpt><trkpt lat="33.91493899284132" lon="8.116715518043007"><ele>74.0</ele><time>2026-04-07T18:21:10.003Z</time></trkpt><trkpt lat="33.9149468551263" lon="8.1168161464197"><ele>74.0</ele><time>2026-04-07T18:21:11.003Z</time></trkpt><trkpt lat="33.914947277126544" lon="8.116914503723285"><ele>74.0</ele><time>2026-04-07T18:21:12.003Z</time></trkpt><trkpt lat="33.91495579252434" lon="8.117009782594083"><ele>73.5</ele><time>2026-04-07T18:21:13.003Z</time></trkpt><trkpt lat="33.914962083751696" lon="8.117110862752286"><ele>73.0</ele><time>2026-04-07T18:21:14.003Z</time></trkpt><trkpt lat="33.91494425760365" lon="8.117210947723686"><ele>72.5</ele><time>2026-04-07T18:21:15.003Z</time></trkpt><trkpt lat="33.91493033730698" lon="8.117288588489075"><ele>72.0</ele><time>2026-04-07T18:21:16.003Z</time></trkpt><trkpt lat="33.914893262205226" lon="8.117414520745092"><ele>71.5</ele><time>2026-04-07T18:21:18.003Z</time></trkpt><trkpt lat="33.914862305727546" lon="8.117496782600984"><ele>71.0</ele><time>2026-04-07T18:21:20.003Z</time></trkpt><trkpt lat="33.914790598798994" lon="8.117568142404108"><ele>70.33333333333334</ele><time>2026-04-07T18:21:22.003Z</time></trkpt><trkpt lat="33.91469709884728" lon="8.11758493774715"><ele>69.66666666666667</ele><time>2026-04-07T18:21:24.003Z</time></trkpt><trkpt lat="33.91459878224547" lon="8.117594915852969"><ele>69.0</ele><time>2026-04-07T18:21:26.003Z</time></trkpt><trkpt lat="33.91450226296075" lon="8.11761107363693"><ele>68.33333333333333</ele><time>2026-04-07T18:21:28.003Z</time></trkpt><trkpt lat="33.914435902173906" lon="8.117612895787756"><ele>67.66666666666666</ele><time>2026-04-07T18:21:30.002Z</time></trkpt><trkpt lat="33.91437074120147" lon="8.11761799463976"><ele>67.0</ele><time>2026-04-07T18:21:36.002Z</time></trkpt><trkpt lat="33.914297826976224" lon="8.117603469528603"><ele>66.28571428571429</ele><time>2026-04-07T18:23:12.003Z</time></trkpt><trkpt lat="33.91422358324659" lon="8.1176129002982"><ele>65.57142857142857</ele><time>2026-04-07T18:23:18.003Z</time></trkpt><trkpt lat="33.91414897359347" lon="8.117620946462475"><ele>64.85714285714286</ele><time>2026-04-07T18:23:24.003Z</time></trkpt><trkpt lat="33.914080631288336" lon="8.117636410932725"><ele>64.14285714285714</ele><time>2026-04-07T18:23:30.003Z</time></trkpt><trkpt lat="33.914017114809525" lon="8.117654660478172"><ele>63.42857142857143</ele><time>2026-04-07T18:23:36.002Z</time></trkpt><trkpt lat="33.913951126108095" lon="8.117673387486043"><ele>62.714285714285715</ele><time>2026-04-07T18:23:43.002Z</time></trkpt><trkpt lat="33.9138806787249" lon="8.117662512911043"><ele>62.0</ele><time>2026-04-07T18:23:50.002Z</time></trkpt><trkpt lat="33.91381702252714" lon="8.117652802761535"><ele>62.0</ele><time>2026-04-07T18:23:56.002Z</time></trkpt><trkpt lat="33.91375039283631" lon="8.117636680275016"><ele>62.00000000000001</ele><time>2026-04-07T18:24:05.002Z</time></trkpt><trkpt lat="33.91368902835212" lon="8.1176020389778"><ele>62.0</ele><time>2026-04-07T18:24:12.002Z</time></trkpt><trkpt lat="33.913622027250625" lon="8.117579490370483"><ele>62.0</ele><time>2026-04-07T18:24:20.002Z</time></trkpt><trkpt lat="33.91356652326874" lon="8.11753090199988"><ele>62.00000000000001</ele><time>2026-04-07T18:24:27.002Z</time></trkpt><trkpt lat="33.91351859962876" lon="8.117476659078307"><ele>62.0</ele><time>2026-04-07T18:24:35.002Z</time></trkpt><trkpt lat="33.91345475652115" lon="8.117502167841366"><ele>62.0</ele><time>2026-04-07T18:24:54.002Z</time></trkpt><trkpt lat="33.91340571952978" lon="8.117550740357421"><ele>61.714285714285715</ele><time>2026-04-07T18:25:02.002Z</time></trkpt><trkpt lat="33.913341645066666" lon="8.117565464149706"><ele>61.42857142857143</ele><time>2026-04-07T18:25:30.002Z</time></trkpt><trkpt lat="33.91328665133751" lon="8.117527027005552"><ele>61.142857142857146</ele><time>2026-04-07T18:25:49.002Z</time></trkpt><trkpt lat="33.913221117108094" lon="8.1175068160773"><ele>60.85714285714286</ele><time>2026-04-07T18:25:57.002Z</time></trkpt><trkpt lat="33.91317094773081" lon="8.117457917245437"><ele>60.57142857142857</ele><time>2026-04-07T18:26:02.002Z</time></trkpt><trkpt lat="33.9132386862318" lon="8.117501604938887"><ele>60.28571428571429</ele><time>2026-04-07T18:26:42.002Z</time></trkpt><trkpt lat="33.91327980515176" lon="8.117560289525764"><ele>60.0</ele><time>2026-04-07T18:26:54.002Z</time></trkpt><trkpt lat="33.913271882155485" lon="8.117445653555276"><ele>67.0</ele><time>2026-04-07T18:27:20.466Z</time></trkpt><trkpt lat="33.91394105580877" lon="8.117317382786723"><ele>67.0</ele><time>2026-04-07T18:27:21.067Z</time></trkpt><trkpt lat="33.91395775675377" lon="8.11739433015403"><ele>67.0</ele><time>2026-04-07T18:27:26.067Z</time></trkpt><trkpt lat="33.91350793827379" lon="8.117829318571808"><ele>64.66666666666666</ele><time>2026-04-07T18:27:34.055Z</time></trkpt><trkpt lat="33.9133282537636" lon="8.11798545557165"><ele>62.33333333333333</ele><time>2026-04-07T18:27:35.056Z</time></trkpt><trkpt lat="33.91313894477606" lon="8.118039752636298"><ele>60.0</ele><time>2026-04-07T18:28:26.016Z</time></trkpt><trkpt lat="33.913117602366334" lon="8.117959561096548"><ele>60.0</ele><time>2026-04-07T18:28:29.015Z</time></trkpt><trkpt lat="33.913104786003956" lon="8.11787904023913"><ele>60.0</ele><time>2026-04-07T18:28:35.014Z</time></trkpt><trkpt lat="33.913047325665204" lon="8.117929023492968"><ele>60.0</ele><time>2026-04-07T18:28:40.016Z</time></trkpt><trkpt lat="33.91311966243835" lon="8.117819915443429"><ele>60.0</ele><time>2026-04-07T18:30:27.416Z</time></trkpt><trkpt lat="33.91320658723556" lon="8.117669523722034"><ele>60.0</ele><time>2026-04-07T18:30:28.508Z</time></trkpt><trkpt lat="33.91326210046428" lon="8.117487948607925"><ele>60.0</ele><time>2026-04-07T18:34:55.084Z</time></trkpt><trkpt lat="33.91313643200263" lon="8.117794477942569"><ele>60.0</ele><time>2026-04-07T18:35:30.019Z</time></trkpt><trkpt lat="33.91312882679816" lon="8.117638704377068"><ele>60.0</ele><time>2026-04-07T18:36:24.021Z</time></trkpt><trkpt lat="33.91306369520636" lon="8.117600087418124"><ele>60.0</ele><time>2026-04-07T18:48:14Z</time></trkpt><trkpt lat="33.91311969670722" lon="8.117657615443129"><ele>60.0</ele><time>2026-04-07T18:53:40.001Z</time></trkpt><trkpt lat="33.91317120271755" lon="8.117594139538076"><ele>60.0</ele><time>2026-04-07T18:54:01.001Z</time></trkpt><trkpt lat="33.913182031547024" lon="8.11751517561723"><ele>60.0</ele><time>2026-04-07T18:54:14.001Z</time></trkpt><trkpt lat="33.9131815123555" lon="8.11743509857365"><ele>60.0</ele><time>2026-04-07T18:54:19.001Z</time></trkpt><trkpt lat="33.913119257788516" lon="8.117412838277197"><ele>60.0</ele><time>2026-04-07T18:54:23.001Z</time></trkpt><trkpt lat="33.91310772427988" lon="8.117333735429655"><ele>60.0</ele><time>2026-04-07T18:54:29.001Z</time></trkpt><trkpt lat="33.91316050974041" lon="8.117287525705235"><ele>60.57142857142857</ele><time>2026-04-07T18:54:33.001Z</time></trkpt><trkpt lat="33.913179215895774" lon="8.11720584721765"><ele>61.14285714285714</ele><time>2026-04-07T18:54:39.001Z</time></trkpt><trkpt lat="33.91314019653828" lon="8.117145751668836"><ele>61.71428571428571</ele><time>2026-04-07T18:54:44.001Z</time></trkpt><trkpt lat="33.91311414333933" lon="8.117074527591797"><ele>62.285714285714285</ele><time>2026-04-07T18:54:50.001Z</time></trkpt><trkpt lat="33.91306117647319" lon="8.11702267790482"><ele>62.85714285714285</ele><time>2026-04-07T18:55:03Z</time></trkpt><trkpt lat="33.913007330575674" lon="8.11694680091172"><ele>63.42857142857142</ele><time>2026-04-07T18:55:08Z</time></trkpt><trkpt lat="33.91296026844049" lon="8.116875846114722"><ele>64.0</ele><time>2026-04-07T18:55:13Z</time></trkpt><trkpt lat="33.91290682759809" lon="8.116815366374135"><ele>64.0</ele><time>2026-04-07T18:55:18Z</time></trkpt><trkpt lat="33.91293801250602" lon="8.116746613347422"><ele>64.0</ele><time>2026-04-07T18:55:22Z</time></trkpt><trkpt lat="33.91290275495623" lon="8.116674374994751"><ele>64.0</ele><time>2026-04-07T18:55:32.001Z</time></trkpt><trkpt lat="33.912967574921424" lon="8.116706954983433"><ele>64.0</ele><time>2026-04-07T20:38:23Z</time></trkpt><trkpt lat="33.91289952813541" lon="8.116741351464428"><ele>64.0</ele><time>2026-04-07T20:39:15Z</time></trkpt></trkseg><trkseg><trkpt lat="33.912912862964056" lon="8.11675327306619"><ele>64.0</ele><time>2026-04-07T21:20:18Z</time></trkpt><trkpt lat="33.912934677489254" lon="8.116833530939324"><ele>63.99999999999999</ele><time>2026-04-07T21:20:23Z</time></trkpt><trkpt lat="33.912981385431756" lon="8.116904201857563"><ele>64.0</ele><time>2026-04-07T21:20:28Z</time></trkpt><trkpt lat="33.91300815048166" lon="8.11698294528527"><ele>64.0</ele><time>2026-04-07T21:20:34Z</time></trkpt><trkpt lat="33.91304318805497" lon="8.117059703743243"><ele>63.99999999999999</ele><time>2026-04-07T21:20:38Z</time></trkpt><trkpt lat="33.913085983191365" lon="8.117129873855907"><ele>64.0</ele><time>2026-04-07T21:20:43Z</time></trkpt><trkpt lat="33.91311975227143" lon="8.117213019010569"><ele>64.0</ele><time>2026-04-07T21:20:48Z</time></trkpt><trkpt lat="33.91317237599139" lon="8.117276157870116"><ele>64.0</ele><time>2026-04-07T21:20:53Z</time></trkpt><trkpt lat="33.91313296806672" lon="8.11735226219848"><ele>63.99999999999999</ele><time>2026-04-07T21:20:59Z</time></trkpt><trkpt lat="33.91316909361049" lon="8.117270654983455"><ele>64.0</ele><time>2026-04-07T21:21:06Z</time></trkpt><trkpt lat="33.91311872658577" lon="8.117224304142297"><ele>64.0</ele><time>2026-04-07T21:21:11Z</time></trkpt><trkpt lat="33.91306940170498" lon="8.117162202711945"><ele>63.99999999999999</ele><time>2026-04-07T21:21:17Z</time></trkpt><trkpt lat="33.91306348906048" lon="8.117083177178388"><ele>64.0</ele><time>2026-04-07T21:21:21Z</time></trkpt><trkpt lat="33.91301930521208" lon="8.117022274403405"><ele>64.0</ele><time>2026-04-07T21:21:29Z</time></trkpt><trkpt lat="33.912985893610475" lon="8.116946656343783"><ele>63.99999999999999</ele><time>2026-04-07T21:21:33.999Z</time></trkpt><trkpt lat="33.91294468315908" lon="8.116877350568958"><ele>64.0</ele><time>2026-04-07T21:21:38.999Z</time></trkpt><trkpt lat="33.91292452785664" lon="8.116796728757393"><ele>64.0</ele><time>2026-04-07T21:21:43.999Z</time></trkpt><trkpt lat="33.912993406491786" lon="8.116808364945113"><ele>64.0</ele><time>2026-04-07T21:23:03Z</time></trkpt><trkpt lat="33.91302039188529" lon="8.116891011817774"><ele>63.99999999999999</ele><time>2026-04-07T21:23:09Z</time></trkpt><trkpt lat="33.9130064492712" lon="8.116993955663949"><ele>64.0</ele><time>2026-04-07T21:23:13Z</time></trkpt><trkpt lat="33.91306793623675" lon="8.117087456910218"><ele>64.0</ele><time>2026-04-07T21:23:16Z</time></trkpt><trkpt lat="33.91311250768019" lon="8.117163436480288"><ele>63.99999999999999</ele><time>2026-04-07T21:23:19Z</time></trkpt><trkpt lat="33.913143124273866" lon="8.117240922492995"><ele>64.0</ele><time>2026-04-07T21:23:23Z</time></trkpt><trkpt lat="33.91309124782925" lon="8.117304082403242"><ele>64.0</ele><time>2026-04-07T21:23:30Z</time></trkpt><trkpt lat="33.913095521857414" lon="8.117398788510947"><ele>63.99999999999999</ele><time>2026-04-07T21:23:34Z</time></trkpt><trkpt lat="33.913147187523116" lon="8.117457117270344"><ele>64.0</ele><time>2026-04-07T21:23:38Z</time></trkpt><trkpt lat="33.9131904860814" lon="8.117522030617554"><ele>64.0</ele><time>2026-04-07T21:23:42Z</time></trkpt><trkpt lat="33.91322865530323" lon="8.117597825079047"><ele>63.5</ele><time>2026-04-07T21:23:47Z</time></trkpt><trkpt lat="33.91334777179182" lon="8.11761774186985"><ele>63.0</ele><time>2026-04-07T21:24:02.999Z</time></trkpt><trkpt lat="33.91336709187529" lon="8.117543615763418"><ele>62.5</ele><time>2026-04-07T21:24:09.999Z</time></trkpt><trkpt lat="33.913607029064316" lon="8.117517990137388"><ele>62.0</ele><time>2026-04-07T21:24:19.999Z</time></trkpt><trkpt lat="33.91354362858972" lon="8.117636923042737"><ele>62.0</ele><time>2026-04-07T21:24:34Z</time></trkpt><trkpt lat="33.913536361837195" lon="8.11773612376738"><ele>62.0</ele><time>2026-04-07T21:24:35Z</time></trkpt><trkpt lat="33.91351315846466" lon="8.11781077491242"><ele>62.0</ele><time>2026-04-07T21:24:39Z</time></trkpt><trkpt lat="33.91353669429119" lon="8.117925994250347"><ele>62.0</ele><time>2026-04-07T21:24:41Z</time></trkpt><trkpt lat="33.91367641181068" lon="8.117989742920518"><ele>62.0</ele><time>2026-04-07T21:24:59Z</time></trkpt><trkpt lat="33.914070184892964" lon="8.118357978405578"><ele>59.0</ele><time>2026-04-07T21:25:00Z</time></trkpt><trkpt lat="33.91361022815167" lon="8.11825882355357"><ele>60.5</ele><time>2026-04-07T21:25:04Z</time></trkpt><trkpt lat="33.913712235365516" lon="8.117931402261004"><ele>62.0</ele><time>2026-04-07T21:25:06Z</time></trkpt><trkpt lat="33.913575212983616" lon="8.117619180980752"><ele>62.0</ele><time>2026-04-07T21:25:07Z</time></trkpt><trkpt lat="33.913478400098676" lon="8.117547419067147"><ele>62.0</ele><time>2026-04-07T21:25:22Z</time></trkpt><trkpt lat="33.913411252314546" lon="8.117570683020794"><ele>62.0</ele><time>2026-04-07T21:25:43Z</time></trkpt><trkpt lat="33.91339416565172" lon="8.11764970629423"><ele>60.0</ele><time>2026-04-07T21:26:04Z</time></trkpt><trkpt lat="33.91331822938716" lon="8.117551531862278"><ele>60.0</ele><time>2026-04-07T21:26:28Z</time></trkpt></trkseg><trkseg><trkpt lat="33.91348808125668" lon="8.117487703591824"><ele>62.00000000000001</ele><time>2026-04-08T06:55:52Z</time></trkpt><trkpt lat="33.9134494678855" lon="8.11757385013958"><ele>62.0</ele><time>2026-04-08T06:56:12Z</time></trkpt><trkpt lat="33.913429157503316" lon="8.117686095121652"><ele>62.0</ele><time>2026-04-08T06:56:15Z</time></trkpt><trkpt lat="33.91348807929341" lon="8.117714710885831"><ele>62.0</ele><time>2026-04-08T06:56:18Z</time></trkpt><trkpt lat="33.91355131264334" lon="8.117676361243456"><ele>62.00000000000001</ele><time>2026-04-08T07:00:32Z</time></trkpt><trkpt lat="33.91361993876903" lon="8.117645633693366"><ele>62.0</ele><time>2026-04-08T07:00:35Z</time></trkpt><trkpt lat="33.91369796391626" lon="8.11763658971509"><ele>62.00000000000001</ele><time>2026-04-08T07:00:39Z</time></trkpt><trkpt lat="33.913770016553315" lon="8.117644190462794"><ele>62.0</ele><time>2026-04-08T07:00:45Z</time></trkpt><trkpt lat="33.91383957514717" lon="8.117658033302934"><ele>62.0</ele><time>2026-04-08T07:00:50Z</time></trkpt><trkpt lat="33.91392159280384" lon="8.11768517537433"><ele>62.0</ele><time>2026-04-08T07:00:53Z</time></trkpt><trkpt lat="33.91400279310977" lon="8.117658754643273"><ele>62.00000000000001</ele><time>2026-04-08T07:00:57Z</time></trkpt><trkpt lat="33.914085009348675" lon="8.117631236217122"><ele>62.0</ele><time>2026-04-08T07:00:59Z</time></trkpt><trkpt lat="33.91418316312194" lon="8.11760283486503"><ele>62.833333333333336</ele><time>2026-04-08T07:01:01Z</time></trkpt><trkpt lat="33.91425986293651" lon="8.117589805467835"><ele>63.66666666666667</ele><time>2026-04-08T07:01:03Z</time></trkpt><trkpt lat="33.91434649499772" lon="8.117595090092209"><ele>64.5</ele><time>2026-04-08T07:01:05Z</time></trkpt><trkpt lat="33.914431577613655" lon="8.117602360939777"><ele>65.33333333333333</ele><time>2026-04-08T07:01:07Z</time></trkpt><trkpt lat="33.91451793032737" lon="8.117586220879744"><ele>66.16666666666666</ele><time>2026-04-08T07:01:09Z</time></trkpt><trkpt lat="33.91460262716997" lon="8.117578628974615"><ele>67.0</ele><time>2026-04-08T07:01:11Z</time></trkpt><trkpt lat="33.91468196851066" lon="8.117566388940483"><ele>67.0</ele><time>2026-04-08T07:01:13Z</time></trkpt><trkpt lat="33.914744976847906" lon="8.117548206454943"><ele>67.0</ele><time>2026-04-08T07:01:15Z</time></trkpt><trkpt lat="33.91482220697492" lon="8.117581120376128"><ele>67.0</ele><time>2026-04-08T07:01:18Z</time></trkpt><trkpt lat="33.91487460542478" lon="8.117640246957862"><ele>67.0</ele><time>2026-04-08T07:01:20Z</time></trkpt><trkpt lat="33.91487444966239" lon="8.117762111035153"><ele>67.0</ele><time>2026-04-08T07:01:22Z</time></trkpt><trkpt lat="33.914885911291954" lon="8.117909102804399"><ele>67.0</ele><time>2026-04-08T07:01:24Z</time></trkpt><trkpt lat="33.91489967706065" lon="8.117989754775037"><ele>67.0</ele><time>2026-04-08T07:01:25Z</time></trkpt><trkpt lat="33.91490437382929" lon="8.11807255427238"><ele>67.0</ele><time>2026-04-08T07:01:26Z</time></trkpt><trkpt lat="33.9149111634773" lon="8.118156336999679"><ele>67.0</ele><time>2026-04-08T07:01:27Z</time></trkpt><trkpt lat="33.914922392036154" lon="8.118244001343472"><ele>67.0</ele><time>2026-04-08T07:01:28Z</time></trkpt><trkpt lat="33.91493292917487" lon="8.118334665968208"><ele>67.0</ele><time>2026-04-08T07:01:29Z</time></trkpt><trkpt lat="33.914939461125606" lon="8.118427033484274"><ele>67.0</ele><time>2026-04-08T07:01:30Z</time></trkpt><trkpt lat="33.914947198848736" lon="8.118521011035462"><ele>67.0</ele><time>2026-04-08T07:01:31Z</time></trkpt><trkpt lat="33.9149556411401" lon="8.118607459787347"><ele>66.6</ele><time>2026-04-08T07:01:32Z</time></trkpt><trkpt lat="33.91496565795444" lon="8.11868520125817"><ele>66.2</ele><time>2026-04-08T07:01:33Z</time></trkpt><trkpt lat="33.91498779371972" lon="8.118828705315577"><ele>65.8</ele><time>2026-04-08T07:01:35Z</time></trkpt><trkpt lat="33.91500388876689" lon="8.118969757312025"><ele>65.4</ele><time>2026-04-08T07:01:37Z</time></trkpt><trkpt lat="33.91501692316597" lon="8.119109702991196"><ele>65.0</ele><time>2026-04-08T07:01:39Z</time></trkpt><trkpt lat="33.9150311407575" lon="8.119250780954227"><ele>66.0</ele><time>2026-04-08T07:01:41Z</time></trkpt><trkpt lat="33.91507747757987" lon="8.119373840462986"><ele>67.0</ele><time>2026-04-08T07:01:43Z</time></trkpt><trkpt lat="33.91515159211012" lon="8.119473841487668"><ele>68.0</ele><time>2026-04-08T07:01:45Z</time></trkpt><trkpt lat="33.91521108745513" lon="8.119589232471231"><ele>69.0</ele><time>2026-04-08T07:01:47Z</time></trkpt><trkpt lat="33.91527323489184" lon="8.119712576103112"><ele>69.0</ele><time>2026-04-08T07:01:49Z</time></trkpt><trkpt lat="33.915338672268284" lon="8.119839769294313"><ele>69.0</ele><time>2026-04-08T07:01:51Z</time></trkpt><trkpt lat="33.91537341399493" lon="8.11990376816383"><ele>69.0</ele><time>2026-04-08T07:01:52Z</time></trkpt><trkpt lat="33.91540506690924" lon="8.119972706832584"><ele>69.0</ele><time>2026-04-08T07:01:53Z</time></trkpt><trkpt lat="33.91543338587495" lon="8.120050748549511"><ele>69.0</ele><time>2026-04-08T07:01:54Z</time></trkpt><trkpt lat="33.91548073343985" lon="8.1201286373617"><ele>69.0</ele><time>2026-04-08T07:01:55Z</time></trkpt><trkpt lat="33.91552209910519" lon="8.120203440998047"><ele>68.5</ele><time>2026-04-08T07:01:56Z</time></trkpt><trkpt lat="33.91558147229961" lon="8.120329178324978"><ele>68.0</ele><time>2026-04-08T07:01:58Z</time></trkpt><trkpt lat="33.915650372041" lon="8.12045325619957"><ele>67.5</ele><time>2026-04-08T07:02:00Z</time></trkpt><trkpt lat="33.91570424217339" lon="8.120583095640773"><ele>67.0</ele><time>2026-04-08T07:02:02Z</time></trkpt><trkpt lat="33.91576622365047" lon="8.120707649933612"><ele>67.0</ele><time>2026-04-08T07:02:04Z</time></trkpt><trkpt lat="33.91583133227196" lon="8.120830986694669"><ele>67.0</ele><time>2026-04-08T07:02:06Z</time></trkpt><trkpt lat="33.91588754596632" lon="8.120957001862504"><ele>67.0</ele><time>2026-04-08T07:02:07.999Z</time></trkpt><trkpt lat="33.91595524925352" lon="8.121085674483744"><ele>67.0</ele><time>2026-04-08T07:02:10Z</time></trkpt><trkpt lat="33.91599181048603" lon="8.121147532989935"><ele>67.0</ele><time>2026-04-08T07:02:11Z</time></trkpt><trkpt lat="33.9160306210002" lon="8.121210726907503"><ele>67.0</ele><time>2026-04-08T07:02:12Z</time></trkpt><trkpt lat="33.9160663947691" lon="8.121278744861065"><ele>67.0</ele><time>2026-04-08T07:02:13Z</time></trkpt><trkpt lat="33.91609712963735" lon="8.121351844084018"><ele>67.0</ele><time>2026-04-08T07:02:14Z</time></trkpt><trkpt lat="33.916135838968806" lon="8.121427624666062"><ele>67.0</ele><time>2026-04-08T07:02:15Z</time></trkpt><trkpt lat="33.91617826468746" lon="8.121493821415307"><ele>67.0</ele><time>2026-04-08T07:02:16Z</time></trkpt><trkpt lat="33.91621475834562" lon="8.121556496191104"><ele>67.0</ele><time>2026-04-08T07:02:17Z</time></trkpt><trkpt lat="33.916279711589695" lon="8.121683781512672"><ele>66.6</ele><time>2026-04-08T07:02:19Z</time></trkpt><trkpt lat="33.916319854102845" lon="8.121744628769303"><ele>66.2</ele><time>2026-04-08T07:02:20Z</time></trkpt><trkpt lat="33.91639992922248" lon="8.12183905820145"><ele>65.8</ele><time>2026-04-08T07:02:22Z</time></trkpt><trkpt lat="33.91646218198028" lon="8.121941465342703"><ele>65.4</ele><time>2026-04-08T07:02:24Z</time></trkpt><trkpt lat="33.91653410181771" lon="8.12206122143208"><ele>65.0</ele><time>2026-04-08T07:02:26Z</time></trkpt><trkpt lat="33.91659641642067" lon="8.122170263730098"><ele>65.0</ele><time>2026-04-08T07:02:28Z</time></trkpt><trkpt lat="33.91665945678687" lon="8.122252862943846"><ele>65.0</ele><time>2026-04-08T07:02:30Z</time></trkpt><trkpt lat="33.91671613773513" lon="8.122342674397737"><ele>65.0</ele><time>2026-04-08T07:02:32Z</time></trkpt><trkpt lat="33.916775791235345" lon="8.122431730500823"><ele>65.0</ele><time>2026-04-08T07:02:34Z</time></trkpt><trkpt lat="33.916838411503235" lon="8.122526765705375"><ele>65.0</ele><time>2026-04-08T07:02:36Z</time></trkpt><trkpt lat="33.916929333161775" lon="8.122562013557381"><ele>65.0</ele><time>2026-04-08T07:02:38Z</time></trkpt><trkpt lat="33.91700349831449" lon="8.12248677789145"><ele>65.0</ele><time>2026-04-08T07:02:40Z</time></trkpt><trkpt lat="33.91706513307324" lon="8.122391686691229"><ele>65.0</ele><time>2026-04-08T07:02:42Z</time></trkpt><trkpt lat="33.917152049489616" lon="8.122313257968461"><ele>65.0</ele><time>2026-04-08T07:02:44Z</time></trkpt><trkpt lat="33.91725054048111" lon="8.122221847556887"><ele>65.0</ele><time>2026-04-08T07:02:46Z</time></trkpt><trkpt lat="33.91730103077908" lon="8.12217449562667"><ele>65.0</ele><time>2026-04-08T07:02:47Z</time></trkpt><trkpt lat="33.91734798493622" lon="8.122123226509176"><ele>65.0</ele><time>2026-04-08T07:02:48Z</time></trkpt><trkpt lat="33.917430233964296" lon="8.122044869097744"><ele>65.0</ele><time>2026-04-08T07:02:50Z</time></trkpt><trkpt lat="33.917525237205965" lon="8.121960317066524"><ele>65.0</ele><time>2026-04-08T07:02:52Z</time></trkpt><trkpt lat="33.91757760319719" lon="8.12191373916116"><ele>65.0</ele><time>2026-04-08T07:02:53Z</time></trkpt><trkpt lat="33.91763287132809" lon="8.121871466234365"><ele>65.0</ele><time>2026-04-08T07:02:54Z</time></trkpt><trkpt lat="33.91769102427767" lon="8.121829977961516"><ele>64.85714285714286</ele><time>2026-04-08T07:02:55Z</time></trkpt><trkpt lat="33.91775668714891" lon="8.121788011627975"><ele>64.71428571428572</ele><time>2026-04-08T07:02:56Z</time></trkpt><trkpt lat="33.91782343561928" lon="8.121739836557865"><ele>64.57142857142857</ele><time>2026-04-08T07:02:57Z</time></trkpt><trkpt lat="33.91788609161296" lon="8.121690612809495"><ele>64.42857142857143</ele><time>2026-04-08T07:02:58Z</time></trkpt><trkpt lat="33.91794699328775" lon="8.12164469723594"><ele>64.28571428571428</ele><time>2026-04-08T07:02:59Z</time></trkpt><trkpt lat="33.918007812183816" lon="8.121598490423121"><ele>64.14285714285714</ele><time>2026-04-08T07:03:00Z</time></trkpt><trkpt lat="33.918066792854255" lon="8.121557302169153"><ele>64.0</ele><time>2026-04-08T07:03:01Z</time></trkpt><trkpt lat="33.91812805580033" lon="8.121518390140798"><ele>64.57142857142857</ele><time>2026-04-08T07:03:02Z</time></trkpt><trkpt lat="33.918190011212694" lon="8.121478702355136"><ele>65.14285714285714</ele><time>2026-04-08T07:03:03Z</time></trkpt><trkpt lat="33.91825536668719" lon="8.121435658227384"><ele>65.71428571428571</ele><time>2026-04-08T07:03:04Z</time></trkpt><trkpt lat="33.91831442977639" lon="8.12139420452778"><ele>66.28571428571428</ele><time>2026-04-08T07:03:05Z</time></trkpt><trkpt lat="33.918369182810395" lon="8.121351957507787"><ele>66.85714285714286</ele><time>2026-04-08T07:03:06Z</time></trkpt><trkpt lat="33.91842790344066" lon="8.121308810852657"><ele>67.42857142857142</ele><time>2026-04-08T07:03:07Z</time></trkpt><trkpt lat="33.91848698883978" lon="8.121261148044873"><ele>68.0</ele><time>2026-04-08T07:03:08Z</time></trkpt><trkpt lat="33.91859025991174" lon="8.121180638691277"><ele>68.0</ele><time>2026-04-08T07:03:10Z</time></trkpt><trkpt lat="33.91864467815542" lon="8.121141924778165"><ele>68.0</ele><time>2026-04-08T07:03:11Z</time></trkpt><trkpt lat="33.918742773458334" lon="8.12106688183437"><ele>68.0</ele><time>2026-04-08T07:03:13Z</time></trkpt><trkpt lat="33.918847085750876" lon="8.121003995477537"><ele>68.0</ele><time>2026-04-08T07:03:15Z</time></trkpt><trkpt lat="33.91894593140632" lon="8.120918930976446"><ele>68.0</ele><time>2026-04-08T07:03:17Z</time></trkpt><trkpt lat="33.9190481999225" lon="8.120838334090733"><ele>68.0</ele><time>2026-04-08T07:03:19Z</time></trkpt><trkpt lat="33.919156076821956" lon="8.120762676724294"><ele>68.0</ele><time>2026-04-08T07:03:21Z</time></trkpt><trkpt lat="33.919211746698195" lon="8.120725326423685"><ele>68.0</ele><time>2026-04-08T07:03:22Z</time></trkpt><trkpt lat="33.91931368691469" lon="8.120642536192895"><ele>68.0</ele><time>2026-04-08T07:03:24Z</time></trkpt><trkpt lat="33.91942027745545" lon="8.120565114488507"><ele>68.0</ele><time>2026-04-08T07:03:26Z</time></trkpt><trkpt lat="33.91951494924073" lon="8.120493090780972"><ele>68.5</ele><time>2026-04-08T07:03:28Z</time></trkpt><trkpt lat="33.91961443248315" lon="8.120421446008034"><ele>69.0</ele><time>2026-04-08T07:03:30Z</time></trkpt><trkpt lat="33.91971731659991" lon="8.1203466920183"><ele>69.5</ele><time>2026-04-08T07:03:32Z</time></trkpt><trkpt lat="33.91981762460867" lon="8.12027121327681"><ele>70.0</ele><time>2026-04-08T07:03:34Z</time></trkpt><trkpt lat="33.919921602143646" lon="8.120206602752027"><ele>70.0</ele><time>2026-04-08T07:03:36Z</time></trkpt><trkpt lat="33.92002873127267" lon="8.12012449878191"><ele>70.0</ele><time>2026-04-08T07:03:38Z</time></trkpt><trkpt lat="33.92008306863843" lon="8.120076592119268"><ele>70.0</ele><time>2026-04-08T07:03:39Z</time></trkpt><trkpt lat="33.9201422289002" lon="8.120035297262111"><ele>70.0</ele><time>2026-04-08T07:03:40Z</time></trkpt><trkpt lat="33.920198644983365" lon="8.119993500780614"><ele>70.0</ele><time>2026-04-08T07:03:41Z</time></trkpt><trkpt lat="33.920305211807616" lon="8.119915420317184"><ele>70.4</ele><time>2026-04-08T07:03:43Z</time></trkpt><trkpt lat="33.92036149119222" lon="8.119878256387405"><ele>70.8</ele><time>2026-04-08T07:03:44Z</time></trkpt><trkpt lat="33.9204678792678" lon="8.11980118971328"><ele>71.2</ele><time>2026-04-08T07:03:46Z</time></trkpt><trkpt lat="33.92057104749428" lon="8.119718392107936"><ele>71.6</ele><time>2026-04-08T07:03:48Z</time></trkpt><trkpt lat="33.92067951947245" lon="8.119666657599304"><ele>72.0</ele><time>2026-04-08T07:03:50Z</time></trkpt><trkpt lat="33.92075844415557" lon="8.11962061944123"><ele>72.00000000000001</ele><time>2026-04-08T07:03:52Z</time></trkpt><trkpt lat="33.92082240900254" lon="8.119561139337554"><ele>72.0</ele><time>2026-04-08T07:03:54Z</time></trkpt><trkpt lat="33.92088122412782" lon="8.119508605472495"><ele>72.0</ele><time>2026-04-08T07:03:56Z</time></trkpt><trkpt lat="33.92095157927303" lon="8.119469697587164"><ele>72.0</ele><time>2026-04-08T07:03:59Z</time></trkpt><trkpt lat="33.92101075007835" lon="8.11949643255122"><ele>72.0</ele><time>2026-04-08T07:04:14Z</time></trkpt><trkpt lat="33.92107270309144" lon="8.119522870645401"><ele>72.00000000000001</ele><time>2026-04-08T07:04:19Z</time></trkpt><trkpt lat="33.92112172672252" lon="8.119577266879295"><ele>72.0</ele><time>2026-04-08T07:04:23Z</time></trkpt><trkpt lat="33.92113824885254" lon="8.119675007884332"><ele>72.0</ele><time>2026-04-08T07:04:26Z</time></trkpt><trkpt lat="33.92113423458424" lon="8.119800905121512"><ele>72.0</ele><time>2026-04-08T07:04:28Z</time></trkpt><trkpt lat="33.92114002894271" lon="8.119931755052333"><ele>72.0</ele><time>2026-04-08T07:04:30Z</time></trkpt><trkpt lat="33.92114996219048" lon="8.120083702913245"><ele>72.0</ele><time>2026-04-08T07:04:32Z</time></trkpt><trkpt lat="33.921150247444345" lon="8.120167556568525"><ele>72.0</ele><time>2026-04-08T07:04:33Z</time></trkpt><trkpt lat="33.92115255925229" lon="8.12025686790505"><ele>71.5</ele><time>2026-04-08T07:04:34Z</time></trkpt><trkpt lat="33.92115367348051" lon="8.120348274883149"><ele>71.0</ele><time>2026-04-08T07:04:35Z</time></trkpt><trkpt lat="33.92115611758778" lon="8.120443933723136"><ele>70.5</ele><time>2026-04-08T07:04:36Z</time></trkpt><trkpt lat="33.921157138311706" lon="8.120540087356128"><ele>70.0</ele><time>2026-04-08T07:04:37Z</time></trkpt><trkpt lat="33.92115356231358" lon="8.120634883776871"><ele>69.5</ele><time>2026-04-08T07:04:38Z</time></trkpt><trkpt lat="33.9211546295939" lon="8.120726596674864"><ele>69.0</ele><time>2026-04-08T07:04:39Z</time></trkpt><trkpt lat="33.92116172276033" lon="8.120822291100572"><ele>68.0</ele><time>2026-04-08T07:04:40Z</time></trkpt><trkpt lat="33.92116550327277" lon="8.12092145891483"><ele>67.0</ele><time>2026-04-08T07:04:41Z</time></trkpt><trkpt lat="33.921170468429644" lon="8.121026160321238"><ele>66.0</ele><time>2026-04-08T07:04:42Z</time></trkpt><trkpt lat="33.92117587352167" lon="8.121132423448344"><ele>65.0</ele><time>2026-04-08T07:04:43Z</time></trkpt><trkpt lat="33.92117771887505" lon="8.121243045168669"><ele>64.0</ele><time>2026-04-08T07:04:44Z</time></trkpt><trkpt lat="33.92117916133491" lon="8.121354726340295"><ele>63.0</ele><time>2026-04-08T07:04:45Z</time></trkpt><trkpt lat="33.92118329675554" lon="8.121459353444026"><ele>63.0</ele><time>2026-04-08T07:04:46Z</time></trkpt><trkpt lat="33.92118703177242" lon="8.121559017970162"><ele>63.0</ele><time>2026-04-08T07:04:47Z</time></trkpt><trkpt lat="33.92119087350254" lon="8.121655568352612"><ele>63.0</ele><time>2026-04-08T07:04:48Z</time></trkpt><trkpt lat="33.92119234482844" lon="8.121756279955818"><ele>63.0</ele><time>2026-04-08T07:04:49Z</time></trkpt><trkpt lat="33.92119555888253" lon="8.121857031645577"><ele>63.0</ele><time>2026-04-08T07:04:50Z</time></trkpt><trkpt lat="33.921199701584634" lon="8.121957731522617"><ele>63.0</ele><time>2026-04-08T07:04:51Z</time></trkpt><trkpt lat="33.92120296552831" lon="8.122058734708734"><ele>62.833333333333336</ele><time>2026-04-08T07:04:52Z</time></trkpt><trkpt lat="33.92120475194369" lon="8.122156964244942"><ele>62.66666666666667</ele><time>2026-04-08T07:04:53Z</time></trkpt><trkpt lat="33.92120817506726" lon="8.122255094629287"><ele>62.5</ele><time>2026-04-08T07:04:54Z</time></trkpt><trkpt lat="33.92121428747586" lon="8.122354517918785"><ele>62.333333333333336</ele><time>2026-04-08T07:04:55Z</time></trkpt><trkpt lat="33.92122193452217" lon="8.12244957890573"><ele>62.16666666666667</ele><time>2026-04-08T07:04:56Z</time></trkpt><trkpt lat="33.92121857226183" lon="8.122541823700935"><ele>62.0</ele><time>2026-04-08T07:04:57Z</time></trkpt><trkpt lat="33.921217926754075" lon="8.12263255809342"><ele>61.57142857142858</ele><time>2026-04-08T07:04:58Z</time></trkpt><trkpt lat="33.92122371770977" lon="8.122719123302783"><ele>61.14285714285715</ele><time>2026-04-08T07:04:59Z</time></trkpt><trkpt lat="33.921224668655256" lon="8.122804271345558"><ele>60.714285714285715</ele><time>2026-04-08T07:05:00Z</time></trkpt><trkpt lat="33.92122656896453" lon="8.12288856984875"><ele>60.28571428571429</ele><time>2026-04-08T07:05:01Z</time></trkpt><trkpt lat="33.92123088332453" lon="8.122970952234727"><ele>59.85714285714286</ele><time>2026-04-08T07:05:02Z</time></trkpt><trkpt lat="33.92123451377686" lon="8.123054705153198"><ele>59.42857142857143</ele><time>2026-04-08T07:05:03Z</time></trkpt><trkpt lat="33.92124014438772" lon="8.123135704977457"><ele>59.0</ele><time>2026-04-08T07:05:04Z</time></trkpt><trkpt lat="33.92124322743637" lon="8.123216688584526"><ele>58.50000000000001</ele><time>2026-04-08T07:05:05Z</time></trkpt><trkpt lat="33.92124554451101" lon="8.123297128089225"><ele>58.0</ele><time>2026-04-08T07:05:06Z</time></trkpt><trkpt lat="33.92124621085165" lon="8.123376119273088"><ele>57.5</ele><time>2026-04-08T07:05:07Z</time></trkpt><trkpt lat="33.921247548499274" lon="8.123453774144693"><ele>57.0</ele><time>2026-04-08T07:05:08Z</time></trkpt><trkpt lat="33.921255730110595" lon="8.123530197513317"><ele>56.50000000000001</ele><time>2026-04-08T07:05:09Z</time></trkpt><trkpt lat="33.921263114836115" lon="8.123606327909915"><ele>56.0</ele><time>2026-04-08T07:05:10Z</time></trkpt><trkpt lat="33.92126533387199" lon="8.123757666812468"><ele>56.00000000000001</ele><time>2026-04-08T07:05:12Z</time></trkpt><trkpt lat="33.92126886014377" lon="8.123834943521707"><ele>56.0</ele><time>2026-04-08T07:05:13Z</time></trkpt><trkpt lat="33.92127437482892" lon="8.123992913897583"><ele>56.0</ele><time>2026-04-08T07:05:15Z</time></trkpt><trkpt lat="33.92127517205577" lon="8.124084052639692"><ele>56.0</ele><time>2026-04-08T07:05:16Z</time></trkpt><trkpt lat="33.921275616825454" lon="8.124176568373683"><ele>56.00000000000001</ele><time>2026-04-08T07:05:17Z</time></trkpt><trkpt lat="33.921279159132446" lon="8.12426956454776"><ele>56.0</ele><time>2026-04-08T07:05:18Z</time></trkpt><trkpt lat="33.92128227534652" lon="8.124359325327093"><ele>55.66666666666667</ele><time>2026-04-08T07:05:19Z</time></trkpt><trkpt lat="33.921286572362895" lon="8.124445528516848"><ele>55.333333333333336</ele><time>2026-04-08T07:05:20Z</time></trkpt><trkpt lat="33.92129001774866" lon="8.124534984887953"><ele>55.0</ele><time>2026-04-08T07:05:21Z</time></trkpt><trkpt lat="33.9212914167739" lon="8.124629989784756"><ele>54.66666666666667</ele><time>2026-04-08T07:05:22Z</time></trkpt><trkpt lat="33.921293880035954" lon="8.124726559962266"><ele>54.333333333333336</ele><time>2026-04-08T07:05:23Z</time></trkpt><trkpt lat="33.921296442350545" lon="8.12482326965905"><ele>54.0</ele><time>2026-04-08T07:05:24Z</time></trkpt><trkpt lat="33.92129624064394" lon="8.124915244547562"><ele>53.333333333333336</ele><time>2026-04-08T07:05:25Z</time></trkpt><trkpt lat="33.9212991161298" lon="8.125006766885129"><ele>52.66666666666667</ele><time>2026-04-08T07:05:26Z</time></trkpt><trkpt lat="33.92130511751188" lon="8.125100585043967"><ele>52.0</ele><time>2026-04-08T07:05:27Z</time></trkpt><trkpt lat="33.921307291664235" lon="8.125193754510148"><ele>51.333333333333336</ele><time>2026-04-08T07:05:28Z</time></trkpt><trkpt lat="33.921306462969085" lon="8.125288032251405"><ele>50.66666666666667</ele><time>2026-04-08T07:05:29Z</time></trkpt><trkpt lat="33.92130823960279" lon="8.125377597278739"><ele>50.0</ele><time>2026-04-08T07:05:30Z</time></trkpt><trkpt lat="33.921312073570675" lon="8.125460376931287"><ele>50.00000000000001</ele><time>2026-04-08T07:05:31Z</time></trkpt><trkpt lat="33.921314181945824" lon="8.125538356951136"><ele>50.0</ele><time>2026-04-08T07:05:32Z</time></trkpt><trkpt lat="33.92131678940679" lon="8.125616667573421"><ele>50.0</ele><time>2026-04-08T07:05:33Z</time></trkpt><trkpt lat="33.92132128376149" lon="8.12569607603008"><ele>50.0</ele><time>2026-04-08T07:05:34Z</time></trkpt><trkpt lat="33.92132423480245" lon="8.125774670851296"><ele>50.0</ele><time>2026-04-08T07:05:35Z</time></trkpt><trkpt lat="33.92132809878521" lon="8.125853446212986"><ele>50.00000000000001</ele><time>2026-04-08T07:05:36Z</time></trkpt><trkpt lat="33.921334042674495" lon="8.125994415386135"><ele>50.0</ele><time>2026-04-08T07:05:38Z</time></trkpt><trkpt lat="33.92133925131571" lon="8.12611273874348"><ele>49.4</ele><time>2026-04-08T07:05:40Z</time></trkpt><trkpt lat="33.921344872048124" lon="8.12622546824975"><ele>48.8</ele><time>2026-04-08T07:05:42Z</time></trkpt><trkpt lat="33.921352294825176" lon="8.126345952599703"><ele>48.2</ele><time>2026-04-08T07:05:44Z</time></trkpt><trkpt lat="33.92135336137296" lon="8.126474308912764"><ele>47.6</ele><time>2026-04-08T07:05:46Z</time></trkpt><trkpt lat="33.92135409623444" lon="8.126593780751799"><ele>47.0</ele><time>2026-04-08T07:05:48Z</time></trkpt><trkpt lat="33.92135722801113" lon="8.126707355051934"><ele>46.75</ele><time>2026-04-08T07:05:50Z</time></trkpt><trkpt lat="33.92136229333555" lon="8.126834822132171"><ele>46.5</ele><time>2026-04-08T07:05:52Z</time></trkpt><trkpt lat="33.92136959199899" lon="8.126978931064778"><ele>46.25</ele><time>2026-04-08T07:05:54Z</time></trkpt><trkpt lat="33.9213831032974" lon="8.127125463779409"><ele>46.0</ele><time>2026-04-08T07:05:56Z</time></trkpt><trkpt lat="33.92139293106048" lon="8.12725725790232"><ele>46.0</ele><time>2026-04-08T07:05:58Z</time></trkpt><trkpt lat="33.92139275938029" lon="8.127388100459394"><ele>46.0</ele><time>2026-04-08T07:06:00Z</time></trkpt><trkpt lat="33.92139638380659" lon="8.12750982059871"><ele>46.0</ele><time>2026-04-08T07:06:02Z</time></trkpt><trkpt lat="33.92140034414781" lon="8.127615376976399"><ele>46.0</ele><time>2026-04-08T07:06:04Z</time></trkpt><trkpt lat="33.921408331216305" lon="8.12771854164091"><ele>46.0</ele><time>2026-04-08T07:06:06Z</time></trkpt><trkpt lat="33.92141127762166" lon="8.127833485471673"><ele>46.0</ele><time>2026-04-08T07:06:08Z</time></trkpt><trkpt lat="33.92141311075957" lon="8.127965746837138"><ele>46.0</ele><time>2026-04-08T07:06:10Z</time></trkpt><trkpt lat="33.921412547087236" lon="8.12811039222741"><ele>46.0</ele><time>2026-04-08T07:06:12Z</time></trkpt><trkpt lat="33.92142275250773" lon="8.128253348680435"><ele>46.0</ele><time>2026-04-08T07:06:14Z</time></trkpt><trkpt lat="33.92142848440253" lon="8.128399469811532"><ele>45.8</ele><time>2026-04-08T07:06:16Z</time></trkpt><trkpt lat="33.921430889794095" lon="8.128518236288915"><ele>45.599999999999994</ele><time>2026-04-08T07:06:18Z</time></trkpt><trkpt lat="33.92144218519175" lon="8.12862078390738"><ele>45.4</ele><time>2026-04-08T07:06:19.999Z</time></trkpt><trkpt lat="33.92144100273459" lon="8.12873030991592"><ele>45.2</ele><time>2026-04-08T07:06:22Z</time></trkpt><trkpt lat="33.921439494304245" lon="8.128838508394741"><ele>45.0</ele><time>2026-04-08T07:06:24Z</time></trkpt><trkpt lat="33.92144944620031" lon="8.128953396950374"><ele>44.8</ele><time>2026-04-08T07:06:26Z</time></trkpt><trkpt lat="33.921451792524884" lon="8.129069265245136"><ele>44.6</ele><time>2026-04-08T07:06:28Z</time></trkpt><trkpt lat="33.92145054529348" lon="8.129190389187583"><ele>44.400000000000006</ele><time>2026-04-08T07:06:30Z</time></trkpt><trkpt lat="33.92145723600681" lon="8.129293973167627"><ele>44.2</ele><time>2026-04-08T07:06:32Z</time></trkpt><trkpt lat="33.92146517619274" lon="8.129417472938655"><ele>44.0</ele><time>2026-04-08T07:06:34Z</time></trkpt><trkpt lat="33.92146718541929" lon="8.129540720736383"><ele>44.0</ele><time>2026-04-08T07:06:36Z</time></trkpt><trkpt lat="33.92147322588157" lon="8.129671953743445"><ele>44.0</ele><time>2026-04-08T07:06:38Z</time></trkpt><trkpt lat="33.921480880038274" lon="8.1298140713266"><ele>44.0</ele><time>2026-04-08T07:06:40Z</time></trkpt><trkpt lat="33.92148580054168" lon="8.129941175589511"><ele>44.0</ele><time>2026-04-08T07:06:42Z</time></trkpt><trkpt lat="33.92148940666668" lon="8.13006580215203"><ele>44.0</ele><time>2026-04-08T07:06:44Z</time></trkpt><trkpt lat="33.9214932564684" lon="8.130186409336194"><ele>44.166666666666664</ele><time>2026-04-08T07:06:46Z</time></trkpt><trkpt lat="33.92149866544568" lon="8.130280510157192"><ele>44.33333333333333</ele><time>2026-04-08T07:06:48Z</time></trkpt><trkpt lat="33.921501046576665" lon="8.13036275235567"><ele>44.5</ele><time>2026-04-08T07:06:50Z</time></trkpt><trkpt lat="33.92150612050983" lon="8.130447097962513"><ele>44.666666666666664</ele><time>2026-04-08T07:06:52Z</time></trkpt><trkpt lat="33.9215043678082" lon="8.1305517161691"><ele>44.833333333333336</ele><time>2026-04-08T07:06:54Z</time></trkpt><trkpt lat="33.92151218793798" lon="8.130660009169144"><ele>45.0</ele><time>2026-04-08T07:06:56Z</time></trkpt><trkpt lat="33.92151331156951" lon="8.130771074976572"><ele>45.4</ele><time>2026-04-08T07:06:58Z</time></trkpt><trkpt lat="33.92152429430204" lon="8.130891373768849"><ele>45.8</ele><time>2026-04-08T07:07:00Z</time></trkpt><trkpt lat="33.921529688939245" lon="8.131018340693831"><ele>46.2</ele><time>2026-04-08T07:07:02Z</time></trkpt><trkpt lat="33.9215528080184" lon="8.131153482601693"><ele>46.6</ele><time>2026-04-08T07:07:04Z</time></trkpt><trkpt lat="33.921593426854194" lon="8.131292401934935"><ele>47.0</ele><time>2026-04-08T07:07:06Z</time></trkpt><trkpt lat="33.921616559817345" lon="8.131369658388365"><ele>47.0</ele><time>2026-04-08T07:07:07Z</time></trkpt><trkpt lat="33.921643176815174" lon="8.131450045090135"><ele>47.0</ele><time>2026-04-08T07:07:08Z</time></trkpt><trkpt lat="33.92166726353329" lon="8.131534794575611"><ele>47.0</ele><time>2026-04-08T07:07:09Z</time></trkpt><trkpt lat="33.92169394344962" lon="8.131617112596519"><ele>47.0</ele><time>2026-04-08T07:07:10Z</time></trkpt><trkpt lat="33.92171752082033" lon="8.131689274263238"><ele>47.0</ele><time>2026-04-08T07:07:11Z</time></trkpt><trkpt lat="33.921746997439655" lon="8.131805272156488"><ele>47.0</ele><time>2026-04-08T07:07:13Z</time></trkpt><trkpt lat="33.92177296659292" lon="8.131899743574134"><ele>46.83333333333333</ele><time>2026-04-08T07:07:15Z</time></trkpt><trkpt lat="33.9218097746846" lon="8.132013611472265"><ele>46.666666666666664</ele><time>2026-04-08T07:07:17Z</time></trkpt><trkpt lat="33.921853175082006" lon="8.132147644495062"><ele>46.5</ele><time>2026-04-08T07:07:19Z</time></trkpt><trkpt lat="33.921875276745034" lon="8.13222186720725"><ele>46.333333333333336</ele><time>2026-04-08T07:07:20Z</time></trkpt><trkpt lat="33.92189846423838" lon="8.132295395753635"><ele>46.16666666666667</ele><time>2026-04-08T07:07:21Z</time></trkpt><trkpt lat="33.921922607695834" lon="8.132372333627405"><ele>46.0</ele><time>2026-04-08T07:07:22Z</time></trkpt><trkpt lat="33.92194428376109" lon="8.132446089756305"><ele>46.42857142857143</ele><time>2026-04-08T07:07:23Z</time></trkpt><trkpt lat="33.92196491132033" lon="8.132525661165271"><ele>46.857142857142854</ele><time>2026-04-08T07:07:24Z</time></trkpt><trkpt lat="33.921986258898166" lon="8.132603170718225"><ele>47.285714285714285</ele><time>2026-04-08T07:07:25Z</time></trkpt><trkpt lat="33.92200580678759" lon="8.13267752942397"><ele>47.714285714285715</ele><time>2026-04-08T07:07:26Z</time></trkpt><trkpt lat="33.922026430872265" lon="8.132749992783602"><ele>48.14285714285714</ele><time>2026-04-08T07:07:27Z</time></trkpt><trkpt lat="33.92204832569149" lon="8.132821383765773"><ele>48.57142857142857</ele><time>2026-04-08T07:07:28Z</time></trkpt><trkpt lat="33.92206865937636" lon="8.132894409205692"><ele>49.0</ele><time>2026-04-08T07:07:29Z</time></trkpt><trkpt lat="33.92209192588484" lon="8.132969045515706"><ele>48.99999999999999</ele><time>2026-04-08T07:07:30Z</time></trkpt><trkpt lat="33.92211298326777" lon="8.13304125986268"><ele>49.0</ele><time>2026-04-08T07:07:31Z</time></trkpt><trkpt lat="33.92215503023475" lon="8.133168864709997"><ele>49.0</ele><time>2026-04-08T07:07:33Z</time></trkpt><trkpt lat="33.922186898749736" lon="8.133259325908348"><ele>49.0</ele><time>2026-04-08T07:07:35Z</time></trkpt><trkpt lat="33.9222142739419" lon="8.133347484422956"><ele>48.99999999999999</ele><time>2026-04-08T07:07:37Z</time></trkpt><trkpt lat="33.92224035125271" lon="8.133433989709596"><ele>49.0</ele><time>2026-04-08T07:07:39Z</time></trkpt><trkpt lat="33.922275099020176" lon="8.133531593121027"><ele>49.400000000000006</ele><time>2026-04-08T07:07:41Z</time></trkpt><trkpt lat="33.92231545539106" lon="8.13363324867993"><ele>49.8</ele><time>2026-04-08T07:07:43Z</time></trkpt><trkpt lat="33.922346776017086" lon="8.133744019233447"><ele>50.2</ele><time>2026-04-08T07:07:45Z</time></trkpt><trkpt lat="33.92239426315735" lon="8.133860808279962"><ele>50.599999999999994</ele><time>2026-04-08T07:07:47Z</time></trkpt><trkpt lat="33.922440150221504" lon="8.133991056856768"><ele>51.0</ele><time>2026-04-08T07:07:49Z</time></trkpt><trkpt lat="33.92250535643657" lon="8.134121904007337"><ele>51.166666666666664</ele><time>2026-04-08T07:07:51Z</time></trkpt><trkpt lat="33.92255985785739" lon="8.134216315660215"><ele>51.33333333333333</ele><time>2026-04-08T07:07:52Z</time></trkpt><trkpt lat="33.92261344256421" lon="8.13431586604396"><ele>51.5</ele><time>2026-04-08T07:07:53Z</time></trkpt><trkpt lat="33.92265719495026" lon="8.134392542779162"><ele>51.666666666666664</ele><time>2026-04-08T07:07:54Z</time></trkpt><trkpt lat="33.92269598855128" lon="8.13446344292423"><ele>51.83333333333333</ele><time>2026-04-08T07:07:55Z</time></trkpt><trkpt lat="33.922738504139645" lon="8.134537723808853"><ele>52.0</ele><time>2026-04-08T07:07:56Z</time></trkpt><trkpt lat="33.92277694487907" lon="8.134606884089806"><ele>52.0</ele><time>2026-04-08T07:07:57Z</time></trkpt><trkpt lat="33.92281606588685" lon="8.134673185996732"><ele>52.0</ele><time>2026-04-08T07:07:58Z</time></trkpt><trkpt lat="33.922853170976545" lon="8.134736453269825"><ele>52.0</ele><time>2026-04-08T07:07:59Z</time></trkpt><trkpt lat="33.922890580927856" lon="8.134802240880349"><ele>52.0</ele><time>2026-04-08T07:08:00Z</time></trkpt><trkpt lat="33.922926056012834" lon="8.134869839165871"><ele>52.0</ele><time>2026-04-08T07:08:01Z</time></trkpt><trkpt lat="33.92296071498723" lon="8.134937574810733"><ele>52.0</ele><time>2026-04-08T07:08:02Z</time></trkpt><trkpt lat="33.92299804827277" lon="8.135008226720522"><ele>52.0</ele><time>2026-04-08T07:08:03Z</time></trkpt><trkpt lat="33.923036042382044" lon="8.135076022966437"><ele>51.8</ele><time>2026-04-08T07:08:04Z</time></trkpt><trkpt lat="33.92307414391414" lon="8.135147586672488"><ele>51.6</ele><time>2026-04-08T07:08:05Z</time></trkpt><trkpt lat="33.92311116745012" lon="8.135211910157187"><ele>51.4</ele><time>2026-04-08T07:08:06Z</time></trkpt><trkpt lat="33.923178122130054" lon="8.135325290619676"><ele>51.199999999999996</ele><time>2026-04-08T07:08:08Z</time></trkpt><trkpt lat="33.92324190810414" lon="8.135448503223548"><ele>51.0</ele><time>2026-04-08T07:08:10Z</time></trkpt><trkpt lat="33.92330679333788" lon="8.135578162780826"><ele>51.0</ele><time>2026-04-08T07:08:12Z</time></trkpt><trkpt lat="33.92334218171743" lon="8.135644905453374"><ele>51.0</ele><time>2026-04-08T07:08:13Z</time></trkpt><trkpt lat="33.923372937221366" lon="8.135712005273612"><ele>51.0</ele><time>2026-04-08T07:08:14Z</time></trkpt><trkpt lat="33.92340472538084" lon="8.13578115358652"><ele>51.0</ele><time>2026-04-08T07:08:15Z</time></trkpt><trkpt lat="33.92343772892515" lon="8.1358515138085"><ele>51.0</ele><time>2026-04-08T07:08:16Z</time></trkpt><trkpt lat="33.92346992351422" lon="8.135919310841802"><ele>51.0</ele><time>2026-04-08T07:08:17Z</time></trkpt><trkpt lat="33.923498261867955" lon="8.1359892158548"><ele>51.0</ele><time>2026-04-08T07:08:18Z</time></trkpt><trkpt lat="33.92352336325332" lon="8.136060867569036"><ele>50.714285714285715</ele><time>2026-04-08T07:08:18.999Z</time></trkpt><trkpt lat="33.923550984817446" lon="8.136132574012143"><ele>50.42857142857143</ele><time>2026-04-08T07:08:19.999Z</time></trkpt><trkpt lat="33.923582165940125" lon="8.13620403745534"><ele>50.14285714285714</ele><time>2026-04-08T07:08:20.999Z</time></trkpt><trkpt lat="33.923614422963794" lon="8.136277961101934"><ele>49.85714285714286</ele><time>2026-04-08T07:08:21.999Z</time></trkpt><trkpt lat="33.9236469554553" lon="8.136353868685015"><ele>49.57142857142857</ele><time>2026-04-08T07:08:22.999Z</time></trkpt><trkpt lat="33.92367624368689" lon="8.136430447715174"><ele>49.285714285714285</ele><time>2026-04-08T07:08:23.999Z</time></trkpt><trkpt lat="33.923702845785314" lon="8.136500883853316"><ele>49.0</ele><time>2026-04-08T07:08:24.999Z</time></trkpt><trkpt lat="33.92375033190248" lon="8.13662144867007"><ele>48.83333333333333</ele><time>2026-04-08T07:08:26.999Z</time></trkpt><trkpt lat="33.923791871152176" lon="8.136718139040317"><ele>48.666666666666664</ele><time>2026-04-08T07:08:29Z</time></trkpt><trkpt lat="33.923831405974624" lon="8.136802575688414"><ele>48.5</ele><time>2026-04-08T07:08:31Z</time></trkpt><trkpt lat="33.92386440573188" lon="8.136882389020158"><ele>48.33333333333333</ele><time>2026-04-08T07:08:33Z</time></trkpt><trkpt lat="33.92389544082001" lon="8.13696709547153"><ele>48.166666666666664</ele><time>2026-04-08T07:08:35Z</time></trkpt><trkpt lat="33.923938259157346" lon="8.137049539529613"><ele>48.0</ele><time>2026-04-08T07:08:37Z</time></trkpt><trkpt lat="33.92401570225976" lon="8.137085740294859"><ele>48.0</ele><time>2026-04-08T07:08:39Z</time></trkpt><trkpt lat="33.92412138569085" lon="8.137107264534986"><ele>48.0</ele><time>2026-04-08T07:08:41Z</time></trkpt><trkpt lat="33.92423785348664" lon="8.137153491554264"><ele>48.0</ele><time>2026-04-08T07:08:43Z</time></trkpt><trkpt lat="33.9243025721212" lon="8.137171997034285"><ele>48.0</ele><time>2026-04-08T07:08:44Z</time></trkpt><trkpt lat="33.92437009726207" lon="8.137191745914786"><ele>48.0</ele><time>2026-04-08T07:08:45Z</time></trkpt><trkpt lat="33.924438695851066" lon="8.137209456728229"><ele>48.0</ele><time>2026-04-08T07:08:46Z</time></trkpt><trkpt lat="33.92450896576388" lon="8.13722358475203"><ele>47.666666666666664</ele><time>2026-04-08T07:08:47Z</time></trkpt><trkpt lat="33.924576144249684" lon="8.137241641814768"><ele>47.333333333333336</ele><time>2026-04-08T07:08:48Z</time></trkpt><trkpt lat="33.9246392514158" lon="8.137260247887383"><ele>47.0</ele><time>2026-04-08T07:08:49Z</time></trkpt><trkpt lat="33.92470104224708" lon="8.137282006601843"><ele>46.66666666666667</ele><time>2026-04-08T07:08:50Z</time></trkpt><trkpt lat="33.9248185047693" lon="8.137321338183021"><ele>46.333333333333336</ele><time>2026-04-08T07:08:52Z</time></trkpt><trkpt lat="33.92492594728056" lon="8.137355459888742"><ele>46.0</ele><time>2026-04-08T07:08:54Z</time></trkpt><trkpt lat="33.92503353676249" lon="8.137404029533627"><ele>45.66666666666667</ele><time>2026-04-08T07:08:56Z</time></trkpt><trkpt lat="33.925141450373566" lon="8.137450710897323"><ele>45.333333333333336</ele><time>2026-04-08T07:08:58Z</time></trkpt><trkpt lat="33.9252612064104" lon="8.137487923452655"><ele>45.0</ele><time>2026-04-08T07:09:00Z</time></trkpt><trkpt lat="33.92532551679972" lon="8.137505740677653"><ele>44.666666666666664</ele><time>2026-04-08T07:09:01Z</time></trkpt><trkpt lat="33.925386801194286" lon="8.137527245511853"><ele>44.33333333333333</ele><time>2026-04-08T07:09:02Z</time></trkpt><trkpt lat="33.92545111771204" lon="8.13754985940787"><ele>44.0</ele><time>2026-04-08T07:09:03Z</time></trkpt><trkpt lat="33.925517282294415" lon="8.137574375720874"><ele>44.0</ele><time>2026-04-08T07:09:04Z</time></trkpt><trkpt lat="33.92558965121562" lon="8.137598916482464"><ele>44.0</ele><time>2026-04-08T07:09:05Z</time></trkpt><trkpt lat="33.92566629961605" lon="8.137624981546436"><ele>44.0</ele><time>2026-04-08T07:09:06Z</time></trkpt><trkpt lat="33.92574280109206" lon="8.137650044663573"><ele>44.0</ele><time>2026-04-08T07:09:07Z</time></trkpt><trkpt lat="33.925820015076184" lon="8.137675424615288"><ele>44.0</ele><time>2026-04-08T07:09:08Z</time></trkpt><trkpt lat="33.925899953097144" lon="8.137704469190282"><ele>44.0</ele><time>2026-04-08T07:09:09Z</time></trkpt><trkpt lat="33.925978631461966" lon="8.137734175764301"><ele>44.142857142857146</ele><time>2026-04-08T07:09:10Z</time></trkpt><trkpt lat="33.92604953001179" lon="8.137758041651697"><ele>44.285714285714285</ele><time>2026-04-08T07:09:11Z</time></trkpt><trkpt lat="33.9261185774216" lon="8.137781028684815"><ele>44.42857142857143</ele><time>2026-04-08T07:09:12Z</time></trkpt><trkpt lat="33.92618877523429" lon="8.137806579606218"><ele>44.57142857142857</ele><time>2026-04-08T07:09:13Z</time></trkpt><trkpt lat="33.92625883118359" lon="8.137832163075203"><ele>44.714285714285715</ele><time>2026-04-08T07:09:14Z</time></trkpt><trkpt lat="33.92632809796457" lon="8.137854486271173"><ele>44.857142857142854</ele><time>2026-04-08T07:09:15Z</time></trkpt><trkpt lat="33.92639426240378" lon="8.13787470585785"><ele>45.0</ele><time>2026-04-08T07:09:16Z</time></trkpt><trkpt lat="33.92645981657054" lon="8.137897024663701"><ele>45.0</ele><time>2026-04-08T07:09:17Z</time></trkpt><trkpt lat="33.92652638195876" lon="8.137921594692884"><ele>45.0</ele><time>2026-04-08T07:09:18Z</time></trkpt><trkpt lat="33.92659672114621" lon="8.13794147835653"><ele>45.0</ele><time>2026-04-08T07:09:19Z</time></trkpt><trkpt lat="33.92666722207338" lon="8.137962068725537"><ele>45.0</ele><time>2026-04-08T07:09:20Z</time></trkpt><trkpt lat="33.92673876267024" lon="8.137983951899725"><ele>45.0</ele><time>2026-04-08T07:09:21Z</time></trkpt><trkpt lat="33.92680863833352" lon="8.138006083306227"><ele>45.0</ele><time>2026-04-08T07:09:22Z</time></trkpt><trkpt lat="33.92687786946535" lon="8.138026970940372"><ele>45.0</ele><time>2026-04-08T07:09:23Z</time></trkpt><trkpt lat="33.926994430309136" lon="8.138072018419733"><ele>45.166666666666664</ele><time>2026-04-08T07:09:25Z</time></trkpt><trkpt lat="33.92711976442415" lon="8.138116600146889"><ele>45.333333333333336</ele><time>2026-04-08T07:09:27Z</time></trkpt><trkpt lat="33.92718723969229" lon="8.138137957903739"><ele>45.5</ele><time>2026-04-08T07:09:28Z</time></trkpt><trkpt lat="33.927260635032106" lon="8.138157072572838"><ele>45.66666666666667</ele><time>2026-04-08T07:09:29Z</time></trkpt><trkpt lat="33.927330625521165" lon="8.138173407159334"><ele>45.833333333333336</ele><time>2026-04-08T07:09:30Z</time></trkpt><trkpt lat="33.927393150951644" lon="8.138191500388071"><ele>46.0</ele><time>2026-04-08T07:09:31Z</time></trkpt><trkpt lat="33.92746044181199" lon="8.138205051480925"><ele>46.0</ele><time>2026-04-08T07:09:32Z</time></trkpt><trkpt lat="33.927527915893585" lon="8.138205518807602"><ele>46.0</ele><time>2026-04-08T07:09:33Z</time></trkpt><trkpt lat="33.92760106178185" lon="8.138206042868193"><ele>46.0</ele><time>2026-04-08T07:09:34Z</time></trkpt><trkpt lat="33.92767860782031" lon="8.138214943174765"><ele>46.0</ele><time>2026-04-08T07:09:35Z</time></trkpt><trkpt lat="33.927755701085026" lon="8.138223960148519"><ele>46.0</ele><time>2026-04-08T07:09:36Z</time></trkpt><trkpt lat="33.92783279048491" lon="8.138229345928233"><ele>46.0</ele><time>2026-04-08T07:09:37Z</time></trkpt><trkpt lat="33.927915411802275" lon="8.13823143112695"><ele>45.8</ele><time>2026-04-08T07:09:38Z</time></trkpt><trkpt lat="33.92799444630618" lon="8.138240753041899"><ele>45.599999999999994</ele><time>2026-04-08T07:09:39Z</time></trkpt><trkpt lat="33.92806333643104" lon="8.138250062373178"><ele>45.4</ele><time>2026-04-08T07:09:40Z</time></trkpt><trkpt lat="33.92818469269765" lon="8.13825412777553"><ele>45.2</ele><time>2026-04-08T07:09:42Z</time></trkpt><trkpt lat="33.92831510505126" lon="8.13826007182008"><ele>45.0</ele><time>2026-04-08T07:09:44Z</time></trkpt><trkpt lat="33.92838321197477" lon="8.138261285417737"><ele>45.166666666666664</ele><time>2026-04-08T07:09:45Z</time></trkpt><trkpt lat="33.92845262100963" lon="8.138262462414499"><ele>45.333333333333336</ele><time>2026-04-08T07:09:46Z</time></trkpt><trkpt lat="33.92852400935434" lon="8.138261807753317"><ele>45.5</ele><time>2026-04-08T07:09:47Z</time></trkpt><trkpt lat="33.9285911523371" lon="8.13825396180769"><ele>45.66666666666667</ele><time>2026-04-08T07:09:48Z</time></trkpt><trkpt lat="33.928711110570696" lon="8.138247710521163"><ele>45.833333333333336</ele><time>2026-04-08T07:09:50Z</time></trkpt><trkpt lat="33.92882777466872" lon="8.138243290160263"><ele>46.0</ele><time>2026-04-08T07:09:52Z</time></trkpt><trkpt lat="33.92890632951277" lon="8.138241999955213"><ele>46.0</ele><time>2026-04-08T07:09:53Z</time></trkpt><trkpt lat="33.92900595822049" lon="8.138245026652294"><ele>46.0</ele><time>2026-04-08T07:09:54Z</time></trkpt><trkpt lat="33.92908819718165" lon="8.138257274970368"><ele>46.0</ele><time>2026-04-08T07:09:55Z</time></trkpt><trkpt lat="33.929160175347256" lon="8.138271848979576"><ele>46.0</ele><time>2026-04-08T07:09:56Z</time></trkpt><trkpt lat="33.929231643846315" lon="8.138282417017303"><ele>46.0</ele><time>2026-04-08T07:09:57Z</time></trkpt><trkpt lat="33.92930038577028" lon="8.138291425431262"><ele>46.0</ele><time>2026-04-08T07:09:58Z</time></trkpt><trkpt lat="33.92941372553723" lon="8.138320288220754"><ele>46.16666666666667</ele><time>2026-04-08T07:10:00Z</time></trkpt><trkpt lat="33.929541625287555" lon="8.138361374614336"><ele>46.333333333333336</ele><time>2026-04-08T07:10:02Z</time></trkpt><trkpt lat="33.92961481522528" lon="8.138382259700107"><ele>46.5</ele><time>2026-04-08T07:10:03Z</time></trkpt><trkpt lat="33.92968881959754" lon="8.138410919297993"><ele>46.666666666666664</ele><time>2026-04-08T07:10:04Z</time></trkpt><trkpt lat="33.92976426927946" lon="8.138442483446765"><ele>46.83333333333333</ele><time>2026-04-08T07:10:05Z</time></trkpt><trkpt lat="33.92984252179931" lon="8.138476246536632"><ele>47.0</ele><time>2026-04-08T07:10:06Z</time></trkpt><trkpt lat="33.92991657989499" lon="8.138507249695794"><ele>47.0</ele><time>2026-04-08T07:10:07Z</time></trkpt><trkpt lat="33.92998713122075" lon="8.138539521646507"><ele>47.0</ele><time>2026-04-08T07:10:08Z</time></trkpt><trkpt lat="33.93005934167779" lon="8.138565297487792"><ele>47.0</ele><time>2026-04-08T07:10:09Z</time></trkpt><trkpt lat="33.9301238473964" lon="8.138587195433841"><ele>47.0</ele><time>2026-04-08T07:10:10Z</time></trkpt><trkpt lat="33.930237248954555" lon="8.138632152302673"><ele>47.0</ele><time>2026-04-08T07:10:12Z</time></trkpt><trkpt lat="33.93033456796449" lon="8.138678005072885"><ele>47.0</ele><time>2026-04-08T07:10:14Z</time></trkpt><trkpt lat="33.93045141755129" lon="8.1387216826732"><ele>47.0</ele><time>2026-04-08T07:10:16Z</time></trkpt><trkpt lat="33.930563345425895" lon="8.138767979707445"><ele>47.0</ele><time>2026-04-08T07:10:18Z</time></trkpt><trkpt lat="33.93062478495018" lon="8.13879081821626"><ele>47.0</ele><time>2026-04-08T07:10:19Z</time></trkpt><trkpt lat="33.93068905485982" lon="8.138816024652726"><ele>47.0</ele><time>2026-04-08T07:10:20Z</time></trkpt><trkpt lat="33.930752537100425" lon="8.138843150855767"><ele>47.0</ele><time>2026-04-08T07:10:20.999Z</time></trkpt><trkpt lat="33.9308642036179" lon="8.138888542847369"><ele>47.0</ele><time>2026-04-08T07:10:22.999Z</time></trkpt><trkpt lat="33.93097819204811" lon="8.138921587677032"><ele>47.33333333333333</ele><time>2026-04-08T07:10:24.999Z</time></trkpt><trkpt lat="33.93108470662642" lon="8.138973985941563"><ele>47.666666666666664</ele><time>2026-04-08T07:10:26.999Z</time></trkpt><trkpt lat="33.93117718853741" lon="8.139018430057904"><ele>48.0</ele><time>2026-04-08T07:10:28.999Z</time></trkpt><trkpt lat="33.93123490681006" lon="8.139059911763633"><ele>48.33333333333333</ele><time>2026-04-08T07:10:30.999Z</time></trkpt><trkpt lat="33.93129231814692" lon="8.139095712253502"><ele>48.666666666666664</ele><time>2026-04-08T07:11:31Z</time></trkpt><trkpt lat="33.931349465423914" lon="8.139130819114152"><ele>49.0</ele><time>2026-04-08T07:12:24.999Z</time></trkpt><trkpt lat="33.93142453036856" lon="8.139159166324209"><ele>49.0</ele><time>2026-04-08T07:12:26.999Z</time></trkpt><trkpt lat="33.93154664484839" lon="8.13919395912177"><ele>49.0</ele><time>2026-04-08T07:12:28.999Z</time></trkpt><trkpt lat="33.93161779429325" lon="8.139223822363586"><ele>49.0</ele><time>2026-04-08T07:12:29.999Z</time></trkpt><trkpt lat="33.93169448957529" lon="8.139259383061063"><ele>49.0</ele><time>2026-04-08T07:12:30.999Z</time></trkpt><trkpt lat="33.93177887050863" lon="8.139292160686807"><ele>49.0</ele><time>2026-04-08T07:12:31.999Z</time></trkpt><trkpt lat="33.93186829427746" lon="8.139327640039554"><ele>49.800000000000004</ele><time>2026-04-08T07:12:32.999Z</time></trkpt><trkpt lat="33.93196192424935" lon="8.139365241884562"><ele>50.6</ele><time>2026-04-08T07:12:33.999Z</time></trkpt><trkpt lat="33.93206176608472" lon="8.139406894738231"><ele>51.4</ele><time>2026-04-08T07:12:34.999Z</time></trkpt><trkpt lat="33.93216864228984" lon="8.139443629666253"><ele>52.2</ele><time>2026-04-08T07:12:35.999Z</time></trkpt><trkpt lat="33.932278916876115" lon="8.139485211674739"><ele>53.0</ele><time>2026-04-08T07:12:36.999Z</time></trkpt><trkpt lat="33.932392697580546" lon="8.139537929158822"><ele>53.0</ele><time>2026-04-08T07:12:37.999Z</time></trkpt><trkpt lat="33.93251317239083" lon="8.139585268453919"><ele>53.0</ele><time>2026-04-08T07:12:38.999Z</time></trkpt><trkpt lat="33.93263779301143" lon="8.139632083574353"><ele>53.0</ele><time>2026-04-08T07:12:40Z</time></trkpt><trkpt lat="33.93276059943915" lon="8.139680195584159"><ele>53.0</ele><time>2026-04-08T07:12:41Z</time></trkpt><trkpt lat="33.93287806279959" lon="8.139732472151378"><ele>54.0</ele><time>2026-04-08T07:12:42Z</time></trkpt><trkpt lat="33.93299408426078" lon="8.139778491660334"><ele>55.0</ele><time>2026-04-08T07:12:43Z</time></trkpt><trkpt lat="33.93310505203436" lon="8.139823486700122"><ele>56.0</ele><time>2026-04-08T07:12:44Z</time></trkpt><trkpt lat="33.93320755183465" lon="8.139864972675678"><ele>57.0</ele><time>2026-04-08T07:12:45Z</time></trkpt><trkpt lat="33.93330131630459" lon="8.139902696703478"><ele>58.0</ele><time>2026-04-08T07:12:46Z</time></trkpt><trkpt lat="33.93339482685069" lon="8.139941284394446"><ele>58.8</ele><time>2026-04-08T07:12:47Z</time></trkpt><trkpt lat="33.933483978608805" lon="8.139978832266653"><ele>59.599999999999994</ele><time>2026-04-08T07:12:48Z</time></trkpt><trkpt lat="33.933571464162554" lon="8.140014854533725"><ele>60.400000000000006</ele><time>2026-04-08T07:12:49Z</time></trkpt><trkpt lat="33.93366602946708" lon="8.14005255009419"><ele>61.2</ele><time>2026-04-08T07:12:50Z</time></trkpt><trkpt lat="33.933765189063024" lon="8.140091305463336"><ele>62.0</ele><time>2026-04-08T07:12:51Z</time></trkpt><trkpt lat="33.93386840484401" lon="8.140134462221427"><ele>62.0</ele><time>2026-04-08T07:12:52Z</time></trkpt><trkpt lat="33.93397513328487" lon="8.140177674826663"><ele>62.0</ele><time>2026-04-08T07:12:53Z</time></trkpt><trkpt lat="33.93408583809524" lon="8.140223709542356"><ele>62.0</ele><time>2026-04-08T07:12:54Z</time></trkpt><trkpt lat="33.934199428985714" lon="8.140269140409753"><ele>62.0</ele><time>2026-04-08T07:12:55Z</time></trkpt><trkpt lat="33.93431840208772" lon="8.14031940914193"><ele>63.0</ele><time>2026-04-08T07:12:56Z</time></trkpt><trkpt lat="33.934441745545115" lon="8.14036830047793"><ele>64.0</ele><time>2026-04-08T07:12:57Z</time></trkpt><trkpt lat="33.934572726444934" lon="8.14042480386692"><ele>65.0</ele><time>2026-04-08T07:12:58Z</time></trkpt><trkpt lat="33.93470985224543" lon="8.140482662968825"><ele>66.0</ele><time>2026-04-08T07:12:59Z</time></trkpt><trkpt lat="33.93485163225018" lon="8.140541450738995"><ele>66.0</ele><time>2026-04-08T07:13:00Z</time></trkpt><trkpt lat="33.93499704223377" lon="8.140601498523974"><ele>66.0</ele><time>2026-04-08T07:13:01Z</time></trkpt><trkpt lat="33.935145402716145" lon="8.140662577940413"><ele>66.0</ele><time>2026-04-08T07:13:02Z</time></trkpt><trkpt lat="33.9352927538807" lon="8.140722513288848"><ele>66.66666666666667</ele><time>2026-04-08T07:13:03Z</time></trkpt><trkpt lat="33.93544010941217" lon="8.140782343073955"><ele>67.33333333333334</ele><time>2026-04-08T07:13:04Z</time></trkpt><trkpt lat="33.93558555537155" lon="8.14084260366849"><ele>68.0</ele><time>2026-04-08T07:13:05Z</time></trkpt><trkpt lat="33.93572564068922" lon="8.140896071950388"><ele>68.0</ele><time>2026-04-08T07:13:06Z</time></trkpt><trkpt lat="33.935852245032265" lon="8.140946366229025"><ele>68.0</ele><time>2026-04-08T07:13:07Z</time></trkpt><trkpt lat="33.93597837207026" lon="8.140999850007882"><ele>68.0</ele><time>2026-04-08T07:13:08Z</time></trkpt><trkpt lat="33.93610338109948" lon="8.141053255155592"><ele>68.0</ele><time>2026-04-08T07:13:09Z</time></trkpt><trkpt lat="33.93622569947728" lon="8.1411056385288"><ele>69.0</ele><time>2026-04-08T07:13:10Z</time></trkpt><trkpt lat="33.93634532846478" lon="8.141159436120141"><ele>70.0</ele><time>2026-04-08T07:13:11Z</time></trkpt><trkpt lat="33.93646155888589" lon="8.141208143653703"><ele>71.0</ele><time>2026-04-08T07:13:12Z</time></trkpt><trkpt lat="33.936580437361464" lon="8.141259009025449"><ele>72.0</ele><time>2026-04-08T07:13:13Z</time></trkpt><trkpt lat="33.936695029497706" lon="8.141308023810364"><ele>72.5</ele><time>2026-04-08T07:13:14Z</time></trkpt><trkpt lat="33.936808718782984" lon="8.141355955910138"><ele>73.0</ele><time>2026-04-08T07:13:15Z</time></trkpt><trkpt lat="33.936930692661086" lon="8.141404393395767"><ele>73.5</ele><time>2026-04-08T07:13:16Z</time></trkpt><trkpt lat="33.937062519594996" lon="8.141464360642178"><ele>74.0</ele><time>2026-04-08T07:13:17Z</time></trkpt><trkpt lat="33.937196232000225" lon="8.141535688488444"><ele>73.75</ele><time>2026-04-08T07:13:18Z</time></trkpt><trkpt lat="33.93732710439855" lon="8.141609338190161"><ele>73.5</ele><time>2026-04-08T07:13:19Z</time></trkpt><trkpt lat="33.93744063768016" lon="8.141680624547355"><ele>73.25</ele><time>2026-04-08T07:13:20Z</time></trkpt><trkpt lat="33.937544466949255" lon="8.141747515523209"><ele>73.0</ele><time>2026-04-08T07:13:21Z</time></trkpt><trkpt lat="33.93763770177916" lon="8.141803406165286"><ele>73.33333333333333</ele><time>2026-04-08T07:13:22Z</time></trkpt><trkpt lat="33.93771695571486" lon="8.141852706988333"><ele>73.66666666666666</ele><time>2026-04-08T07:13:23Z</time></trkpt><trkpt lat="33.93779473715672" lon="8.141907362144549"><ele>74.0</ele><time>2026-04-08T07:13:24Z</time></trkpt><trkpt lat="33.93787219797731" lon="8.141961244389039"><ele>74.33333333333333</ele><time>2026-04-08T07:13:25Z</time></trkpt><trkpt lat="33.937948197702966" lon="8.142009745729275"><ele>74.66666666666667</ele><time>2026-04-08T07:13:26Z</time></trkpt><trkpt lat="33.938025219616236" lon="8.142063221150346"><ele>75.0</ele><time>2026-04-08T07:13:27Z</time></trkpt><trkpt lat="33.93810249470185" lon="8.14211569696434"><ele>75.0</ele><time>2026-04-08T07:13:28Z</time></trkpt><trkpt lat="33.93818628474541" lon="8.142174274273081"><ele>75.0</ele><time>2026-04-08T07:13:29Z</time></trkpt><trkpt lat="33.93827362690198" lon="8.142236050618855"><ele>75.0</ele><time>2026-04-08T07:13:30Z</time></trkpt><trkpt lat="33.93836920213478" lon="8.142302564609421"><ele>75.0</ele><time>2026-04-08T07:13:31Z</time></trkpt><trkpt lat="33.93846752410525" lon="8.142372777051584"><ele>75.0</ele><time>2026-04-08T07:13:32Z</time></trkpt><trkpt lat="33.93857423125499" lon="8.142442070741065"><ele>75.25</ele><time>2026-04-08T07:13:33Z</time></trkpt><trkpt lat="33.93868503635817" lon="8.142517902651575"><ele>75.5</ele><time>2026-04-08T07:13:34Z</time></trkpt><trkpt lat="33.93879317110283" lon="8.142591710967672"><ele>75.75</ele><time>2026-04-08T07:13:35Z</time></trkpt><trkpt lat="33.93890768132125" lon="8.142669605457973"><ele>76.0</ele><time>2026-04-08T07:13:36Z</time></trkpt><trkpt lat="33.93902772983493" lon="8.142754819150502"><ele>76.0</ele><time>2026-04-08T07:13:37Z</time></trkpt><trkpt lat="33.93914851718251" lon="8.142843038835423"><ele>76.0</ele><time>2026-04-08T07:13:38Z</time></trkpt><trkpt lat="33.93927746138031" lon="8.14293449624239"><ele>76.0</ele><time>2026-04-08T07:13:39Z</time></trkpt><trkpt lat="33.93941464569444" lon="8.143030531549844"><ele>76.0</ele><time>2026-04-08T07:13:40Z</time></trkpt><trkpt lat="33.93955680003258" lon="8.14313265789879"><ele>77.0</ele><time>2026-04-08T07:13:41Z</time></trkpt><trkpt lat="33.93970214901029" lon="8.143235480158614"><ele>78.0</ele><time>2026-04-08T07:13:42Z</time></trkpt><trkpt lat="33.9398484759598" lon="8.143340466574289"><ele>79.0</ele><time>2026-04-08T07:13:43Z</time></trkpt><trkpt lat="33.93999874366609" lon="8.143448812928654"><ele>80.0</ele><time>2026-04-08T07:13:44Z</time></trkpt><trkpt lat="33.94015351526974" lon="8.143552227729954"><ele>81.0</ele><time>2026-04-08T07:13:45Z</time></trkpt><trkpt lat="33.94030906199794" lon="8.143654964399248"><ele>82.0</ele><time>2026-04-08T07:13:46Z</time></trkpt><trkpt lat="33.94046815832667" lon="8.143760425429354"><ele>82.0</ele><time>2026-04-08T07:13:47Z</time></trkpt><trkpt lat="33.94063465291674" lon="8.14387894712967"><ele>82.0</ele><time>2026-04-08T07:13:48Z</time></trkpt><trkpt lat="33.940809360408196" lon="8.143998782803552"><ele>82.0</ele><time>2026-04-08T07:13:49Z</time></trkpt><trkpt lat="33.94099824873763" lon="8.144131765503749"><ele>82.0</ele><time>2026-04-08T07:13:50Z</time></trkpt><trkpt lat="33.941207096775884" lon="8.1442725327272"><ele>82.0</ele><time>2026-04-08T07:13:51Z</time></trkpt><trkpt lat="33.94144547532612" lon="8.144425177131733"><ele>82.0</ele><time>2026-04-08T07:13:52Z</time></trkpt><trkpt lat="33.94168539519937" lon="8.14458345640251"><ele>82.0</ele><time>2026-04-08T07:13:53Z</time></trkpt><trkpt lat="33.94191707346379" lon="8.144741408573832"><ele>81.0</ele><time>2026-04-08T07:13:54Z</time></trkpt><trkpt lat="33.94213644338758" lon="8.144890369460356"><ele>80.0</ele><time>2026-04-08T07:13:55Z</time></trkpt><trkpt lat="33.94234289987438" lon="8.145032954476338"><ele>80.0</ele><time>2026-04-08T07:13:56Z</time></trkpt><trkpt lat="33.94253895772998" lon="8.145171471488544"><ele>80.0</ele><time>2026-04-08T07:13:57Z</time></trkpt><trkpt lat="33.942733213019046" lon="8.145307753062959"><ele>80.33333333333334</ele><time>2026-04-08T07:13:58Z</time></trkpt><trkpt lat="33.942924111423274" lon="8.145442066269466"><ele>80.66666666666667</ele><time>2026-04-08T07:13:59Z</time></trkpt><trkpt lat="33.94311192885357" lon="8.14557342841474"><ele>81.0</ele><time>2026-04-08T07:14:00Z</time></trkpt><trkpt lat="33.9432893164824" lon="8.145695387211509"><ele>81.66666666666667</ele><time>2026-04-08T07:14:01Z</time></trkpt><trkpt lat="33.943461652074646" lon="8.145815146046601"><ele>82.33333333333334</ele><time>2026-04-08T07:14:02Z</time></trkpt><trkpt lat="33.943631666788455" lon="8.145932859039455"><ele>83.0</ele><time>2026-04-08T07:14:03Z</time></trkpt><trkpt lat="33.94379661184879" lon="8.146049025495063"><ele>83.0</ele><time>2026-04-08T07:14:04Z</time></trkpt><trkpt lat="33.94396262406765" lon="8.146161480708175"><ele>83.0</ele><time>2026-04-08T07:14:05Z</time></trkpt><trkpt lat="33.94412586847547" lon="8.146272372747749"><ele>83.0</ele><time>2026-04-08T07:14:06Z</time></trkpt><trkpt lat="33.94428483680286" lon="8.146383219625685"><ele>82.66666666666667</ele><time>2026-04-08T07:14:07Z</time></trkpt><trkpt lat="33.944440708622025" lon="8.146488357041312"><ele>82.33333333333333</ele><time>2026-04-08T07:14:08Z</time></trkpt><trkpt lat="33.94459795898824" lon="8.146592415707438"><ele>82.0</ele><time>2026-04-08T07:14:09Z</time></trkpt><trkpt lat="33.94475454856708" lon="8.146698375732678"><ele>82.0</ele><time>2026-04-08T07:14:10Z</time></trkpt><trkpt lat="33.94490710268394" lon="8.146805744218161"><ele>82.0</ele><time>2026-04-08T07:14:11Z</time></trkpt><trkpt lat="33.945064282926175" lon="8.146916051422176"><ele>82.0</ele><time>2026-04-08T07:14:12Z</time></trkpt><trkpt lat="33.9452209833842" lon="8.14702687705879"><ele>82.66666666666666</ele><time>2026-04-08T07:14:13Z</time></trkpt><trkpt lat="33.94537557813124" lon="8.147135992456052"><ele>83.33333333333333</ele><time>2026-04-08T07:14:14Z</time></trkpt><trkpt lat="33.945528963755336" lon="8.147245034637228"><ele>84.0</ele><time>2026-04-08T07:14:15Z</time></trkpt><trkpt lat="33.945679144552095" lon="8.147353134715106"><ele>83.66666666666667</ele><time>2026-04-08T07:14:16Z</time></trkpt><trkpt lat="33.945823284995136" lon="8.147456633501626"><ele>83.33333333333334</ele><time>2026-04-08T07:14:17Z</time></trkpt><trkpt lat="33.94595968210465" lon="8.147555451311105"><ele>83.0</ele><time>2026-04-08T07:14:18Z</time></trkpt><trkpt lat="33.94609481746844" lon="8.14765198455468"><ele>83.0</ele><time>2026-04-08T07:14:19Z</time></trkpt><trkpt lat="33.94623294201404" lon="8.147749199109649"><ele>83.0</ele><time>2026-04-08T07:14:20Z</time></trkpt><trkpt lat="33.94637003933745" lon="8.147845328571174"><ele>83.0</ele><time>2026-04-08T07:14:21Z</time></trkpt><trkpt lat="33.94650800583531" lon="8.147941849828797"><ele>83.0</ele><time>2026-04-08T07:14:22Z</time></trkpt><trkpt lat="33.946654563464065" lon="8.148039778051743"><ele>83.0</ele><time>2026-04-08T07:14:23Z</time></trkpt><trkpt lat="33.94680074095065" lon="8.148133939895565"><ele>83.0</ele><time>2026-04-08T07:14:24Z</time></trkpt><trkpt lat="33.94694954613527" lon="8.148230347506242"><ele>82.33333333333334</ele><time>2026-04-08T07:14:25Z</time></trkpt><trkpt lat="33.94709952513996" lon="8.14833071654499"><ele>81.66666666666667</ele><time>2026-04-08T07:14:26Z</time></trkpt><trkpt lat="33.94724983527633" lon="8.14843397074991"><ele>81.0</ele><time>2026-04-08T07:14:27Z</time></trkpt><trkpt lat="33.94740189012696" lon="8.14852957756072"><ele>81.33333333333333</ele><time>2026-04-08T07:14:28Z</time></trkpt><trkpt lat="33.947556531921556" lon="8.148606539986883"><ele>81.66666666666666</ele><time>2026-04-08T07:14:29Z</time></trkpt><trkpt lat="33.94770642465436" lon="8.148670286607752"><ele>82.0</ele><time>2026-04-08T07:14:30Z</time></trkpt><trkpt lat="33.9478532822162" lon="8.148724733980021"><ele>82.0</ele><time>2026-04-08T07:14:31Z</time></trkpt><trkpt lat="33.94799378091364" lon="8.148770782045396"><ele>82.0</ele><time>2026-04-08T07:14:32Z</time></trkpt><trkpt lat="33.948131512331905" lon="8.148812121461306"><ele>82.0</ele><time>2026-04-08T07:14:33Z</time></trkpt><trkpt lat="33.948265019074334" lon="8.148854620961123"><ele>82.0</ele><time>2026-04-08T07:14:34Z</time></trkpt><trkpt lat="33.9483998407379" lon="8.148895033254172"><ele>81.0</ele><time>2026-04-08T07:14:35Z</time></trkpt><trkpt lat="33.948536396363025" lon="8.14893470329666"><ele>80.0</ele><time>2026-04-08T07:14:36Z</time></trkpt><trkpt lat="33.948668729709944" lon="8.148979202481904"><ele>79.0</ele><time>2026-04-08T07:14:37Z</time></trkpt><trkpt lat="33.94880476276039" lon="8.149026322179498"><ele>78.0</ele><time>2026-04-08T07:14:38Z</time></trkpt><trkpt lat="33.948939406788824" lon="8.14907101112613"><ele>77.75</ele><time>2026-04-08T07:14:39Z</time></trkpt><trkpt lat="33.949073777024935" lon="8.149113278275482"><ele>77.5</ele><time>2026-04-08T07:14:39.999Z</time></trkpt><trkpt lat="33.949205820891684" lon="8.149142090660368"><ele>77.25</ele><time>2026-04-08T07:14:40.999Z</time></trkpt><trkpt lat="33.94932735833754" lon="8.14918293701949"><ele>77.0</ele><time>2026-04-08T07:14:41.999Z</time></trkpt><trkpt lat="33.94944451805089" lon="8.149222073136045"><ele>77.4</ele><time>2026-04-08T07:14:42.999Z</time></trkpt><trkpt lat="33.94955945643871" lon="8.149243186520607"><ele>77.80000000000001</ele><time>2026-04-08T07:14:43.999Z</time></trkpt><trkpt lat="33.949661087842735" lon="8.1492766212475"><ele>78.2</ele><time>2026-04-08T07:14:44.999Z</time></trkpt><trkpt lat="33.949746120370136" lon="8.14930867639712"><ele>78.60000000000001</ele><time>2026-04-08T07:14:46Z</time></trkpt><trkpt lat="33.9498236762002" lon="8.149337573618626"><ele>79.0</ele><time>2026-04-08T07:14:47Z</time></trkpt><trkpt lat="33.94990301164065" lon="8.149370156563487"><ele>79.00000000000001</ele><time>2026-04-08T07:14:48Z</time></trkpt><trkpt lat="33.9499709629932" lon="8.149404632203195"><ele>79.0</ele><time>2026-04-08T07:14:49Z</time></trkpt><trkpt lat="33.950026711697895" lon="8.149448383902014"><ele>79.0</ele><time>2026-04-08T07:14:50Z</time></trkpt><trkpt lat="33.950074640019196" lon="8.149506965238402"><ele>79.0</ele><time>2026-04-08T07:14:51Z</time></trkpt><trkpt lat="33.95012511616267" lon="8.149572611192271"><ele>79.0</ele><time>2026-04-08T07:14:52Z</time></trkpt><trkpt lat="33.95018987853036" lon="8.149618104048548"><ele>79.00000000000001</ele><time>2026-04-08T07:14:53Z</time></trkpt><trkpt lat="33.950266873281784" lon="8.149638888788935"><ele>79.0</ele><time>2026-04-08T07:14:54Z</time></trkpt><trkpt lat="33.95035351548628" lon="8.149622637310243"><ele>79.0</ele><time>2026-04-08T07:14:55Z</time></trkpt><trkpt lat="33.950446632173644" lon="8.149592279670024"><ele>79.0</ele><time>2026-04-08T07:14:56Z</time></trkpt><trkpt lat="33.95054345939178" lon="8.149580355754408"><ele>79.0</ele><time>2026-04-08T07:14:57Z</time></trkpt><trkpt lat="33.950643058300514" lon="8.149601911212127"><ele>79.0</ele><time>2026-04-08T07:14:58Z</time></trkpt><trkpt lat="33.950742644528944" lon="8.149628993096808"><ele>79.0</ele><time>2026-04-08T07:14:59Z</time></trkpt><trkpt lat="33.95084309145409" lon="8.149659483602493"><ele>78.75</ele><time>2026-04-08T07:15:00Z</time></trkpt><trkpt lat="33.9509459640582" lon="8.149694330518884"><ele>78.5</ele><time>2026-04-08T07:15:01Z</time></trkpt><trkpt lat="33.95105540376943" lon="8.149735570263443"><ele>78.25</ele><time>2026-04-08T07:15:02Z</time></trkpt><trkpt lat="33.951174426861236" lon="8.149774235330478"><ele>78.0</ele><time>2026-04-08T07:15:03Z</time></trkpt><trkpt lat="33.951305239664066" lon="8.149811017331777"><ele>78.0</ele><time>2026-04-08T07:15:04Z</time></trkpt><trkpt lat="33.95144283629295" lon="8.149846168919584"><ele>78.0</ele><time>2026-04-08T07:15:05Z</time></trkpt><trkpt lat="33.95158025839134" lon="8.14988466523514"><ele>78.0</ele><time>2026-04-08T07:15:06Z</time></trkpt><trkpt lat="33.951714641026655" lon="8.149925096129612"><ele>78.0</ele><time>2026-04-08T07:15:07Z</time></trkpt><trkpt lat="33.951850171812644" lon="8.149962586298727"><ele>77.25</ele><time>2026-04-08T07:15:08Z</time></trkpt><trkpt lat="33.951985917104764" lon="8.149998080266112"><ele>76.5</ele><time>2026-04-08T07:15:09Z</time></trkpt><trkpt lat="33.952123723983064" lon="8.150033061348946"><ele>75.75</ele><time>2026-04-08T07:15:10Z</time></trkpt><trkpt lat="33.95226487195863" lon="8.150067284189028"><ele>75.0</ele><time>2026-04-08T07:15:11Z</time></trkpt><trkpt lat="33.95241122647478" lon="8.150103015351453"><ele>75.0</ele><time>2026-04-08T07:15:12Z</time></trkpt><trkpt lat="33.952559510677844" lon="8.150140627021479"><ele>75.0</ele><time>2026-04-08T07:15:13Z</time></trkpt><trkpt lat="33.95271041650861" lon="8.150178389283155"><ele>75.0</ele><time>2026-04-08T07:15:14Z</time></trkpt><trkpt lat="33.952862119485836" lon="8.150213275508001"><ele>75.0</ele><time>2026-04-08T07:15:15Z</time></trkpt><trkpt lat="33.95301511179528" lon="8.150251445606084"><ele>75.0</ele><time>2026-04-08T07:15:16Z</time></trkpt><trkpt lat="33.95317229440858" lon="8.150288455144434"><ele>75.0</ele><time>2026-04-08T07:15:17Z</time></trkpt><trkpt lat="33.953336986286004" lon="8.15032529268714"><ele>73.66666666666667</ele><time>2026-04-08T07:15:18Z</time></trkpt><trkpt lat="33.9535037595024" lon="8.150361858089118"><ele>72.33333333333334</ele><time>2026-04-08T07:15:19Z</time></trkpt><trkpt lat="33.95367226577522" lon="8.150402300135077"><ele>71.0</ele><time>2026-04-08T07:15:20Z</time></trkpt><trkpt lat="33.9538440153106" lon="8.150445574517173"><ele>71.0</ele><time>2026-04-08T07:15:21Z</time></trkpt><trkpt lat="33.954017987035826" lon="8.150492017489485"><ele>71.0</ele><time>2026-04-08T07:15:22Z</time></trkpt><trkpt lat="33.95419027080011" lon="8.150537068693044"><ele>71.0</ele><time>2026-04-08T07:15:23Z</time></trkpt><trkpt lat="33.95436624287272" lon="8.15058340763914"><ele>70.66666666666667</ele><time>2026-04-08T07:15:24Z</time></trkpt><trkpt lat="33.9545400219626" lon="8.150624959378742"><ele>70.33333333333333</ele><time>2026-04-08T07:15:25Z</time></trkpt><trkpt lat="33.95471659532214" lon="8.15066620105189"><ele>70.0</ele><time>2026-04-08T07:15:26Z</time></trkpt><trkpt lat="33.954892171267815" lon="8.150705167506231"><ele>70.0</ele><time>2026-04-08T07:15:27Z</time></trkpt><trkpt lat="33.95507282290944" lon="8.150748989999823"><ele>70.0</ele><time>2026-04-08T07:15:28Z</time></trkpt><trkpt lat="33.955251100877504" lon="8.150792201117637"><ele>70.0</ele><time>2026-04-08T07:15:29Z</time></trkpt><trkpt lat="33.955428316581575" lon="8.150834999968515"><ele>70.0</ele><time>2026-04-08T07:15:30Z</time></trkpt><trkpt lat="33.955605425743556" lon="8.150877380853569"><ele>70.0</ele><time>2026-04-08T07:15:31Z</time></trkpt><trkpt lat="33.95577718021776" lon="8.150919081970821"><ele>70.0</ele><time>2026-04-08T07:15:32Z</time></trkpt><trkpt lat="33.95595040241055" lon="8.15096246441741"><ele>70.0</ele><time>2026-04-08T07:15:33Z</time></trkpt><trkpt lat="33.95612041661492" lon="8.151006032402034"><ele>70.0</ele><time>2026-04-08T07:15:34Z</time></trkpt><trkpt lat="33.95628332304975" lon="8.15104433141708"><ele>70.0</ele><time>2026-04-08T07:15:35Z</time></trkpt><trkpt lat="33.956439859878714" lon="8.15108392661459"><ele>70.0</ele><time>2026-04-08T07:15:36Z</time></trkpt><trkpt lat="33.95659757821575" lon="8.151124394689637"><ele>70.0</ele><time>2026-04-08T07:15:37Z</time></trkpt><trkpt lat="33.95675611839241" lon="8.151160020322443"><ele>70.0</ele><time>2026-04-08T07:15:38Z</time></trkpt><trkpt lat="33.956914536379976" lon="8.151197644988736"><ele>69.33333333333333</ele><time>2026-04-08T07:15:39Z</time></trkpt><trkpt lat="33.95707415555724" lon="8.151235940538898"><ele>68.66666666666667</ele><time>2026-04-08T07:15:40Z</time></trkpt><trkpt lat="33.95723974652328" lon="8.151276226766283"><ele>68.0</ele><time>2026-04-08T07:15:41Z</time></trkpt><trkpt lat="33.95740627634573" lon="8.151316678964475"><ele>68.0</ele><time>2026-04-08T07:15:42Z</time></trkpt><trkpt lat="33.95756940652669" lon="8.151358343535811"><ele>68.0</ele><time>2026-04-08T07:15:43Z</time></trkpt><trkpt lat="33.957735776094125" lon="8.15139806509536"><ele>68.0</ele><time>2026-04-08T07:15:44Z</time></trkpt><trkpt lat="33.957902592160934" lon="8.151437985021648"><ele>68.0</ele><time>2026-04-08T07:15:45Z</time></trkpt><trkpt lat="33.958072701464225" lon="8.151476117796012"><ele>68.0</ele><time>2026-04-08T07:15:46Z</time></trkpt><trkpt lat="33.958241231405964" lon="8.151518967986515"><ele>68.0</ele><time>2026-04-08T07:15:47Z</time></trkpt><trkpt lat="33.95840387408201" lon="8.151565103774207"><ele>69.0</ele><time>2026-04-08T07:15:48Z</time></trkpt><trkpt lat="33.95856534658263" lon="8.151606996008649"><ele>70.0</ele><time>2026-04-08T07:15:49Z</time></trkpt><trkpt lat="33.95873087209951" lon="8.151648289675773"><ele>71.0</ele><time>2026-04-08T07:15:50Z</time></trkpt><trkpt lat="33.95889789968468" lon="8.151688890965074"><ele>71.0</ele><time>2026-04-08T07:15:51Z</time></trkpt><trkpt lat="33.95906156313888" lon="8.151731042408715"><ele>71.0</ele><time>2026-04-08T07:15:52Z</time></trkpt><trkpt lat="33.95922591723058" lon="8.151771390383274"><ele>71.0</ele><time>2026-04-08T07:15:53Z</time></trkpt><trkpt lat="33.959389431905876" lon="8.151811277059094"><ele>70.66666666666667</ele><time>2026-04-08T07:15:54Z</time></trkpt><trkpt lat="33.9595533779006" lon="8.151850421368676"><ele>70.33333333333333</ele><time>2026-04-08T07:15:55Z</time></trkpt><trkpt lat="33.959716652282026" lon="8.151891247111049"><ele>70.0</ele><time>2026-04-08T07:15:56Z</time></trkpt><trkpt lat="33.95987992731331" lon="8.151931173376951"><ele>69.66666666666666</ele><time>2026-04-08T07:15:57Z</time></trkpt><trkpt lat="33.96004381837005" lon="8.151972126063367"><ele>69.33333333333333</ele><time>2026-04-08T07:15:58Z</time></trkpt><trkpt lat="33.9602081987519" lon="8.1520097080112"><ele>69.0</ele><time>2026-04-08T07:15:59Z</time></trkpt><trkpt lat="33.960369980793686" lon="8.152047713716659"><ele>69.0</ele><time>2026-04-08T07:16:00Z</time></trkpt><trkpt lat="33.96052935789042" lon="8.152088088355374"><ele>69.0</ele><time>2026-04-08T07:16:01Z</time></trkpt><trkpt lat="33.9606922701306" lon="8.152129348607911"><ele>69.0</ele><time>2026-04-08T07:16:02Z</time></trkpt><trkpt lat="33.96085173289569" lon="8.152171951796687"><ele>69.33333333333333</ele><time>2026-04-08T07:16:03Z</time></trkpt><trkpt lat="33.961012360559614" lon="8.152215152762873"><ele>69.66666666666666</ele><time>2026-04-08T07:16:04Z</time></trkpt><trkpt lat="33.96117107488309" lon="8.15225817071285"><ele>70.0</ele><time>2026-04-08T07:16:05Z</time></trkpt><trkpt lat="33.96133258487002" lon="8.152295841852037"><ele>70.0</ele><time>2026-04-08T07:16:06Z</time></trkpt><trkpt lat="33.96149494130029" lon="8.152333531014882"><ele>70.0</ele><time>2026-04-08T07:16:07Z</time></trkpt><trkpt lat="33.961653014642174" lon="8.152373978038199"><ele>70.0</ele><time>2026-04-08T07:16:08Z</time></trkpt><trkpt lat="33.9618161059486" lon="8.152412327096963"><ele>70.33333333333333</ele><time>2026-04-08T07:16:09Z</time></trkpt><trkpt lat="33.96197816231133" lon="8.152449649157008"><ele>70.66666666666667</ele><time>2026-04-08T07:16:10Z</time></trkpt><trkpt lat="33.96214142284685" lon="8.152490464118813"><ele>71.0</ele><time>2026-04-08T07:16:11Z</time></trkpt><trkpt lat="33.96230625827847" lon="8.152532566775701"><ele>71.0</ele><time>2026-04-08T07:16:12Z</time></trkpt><trkpt lat="33.962472333582205" lon="8.152574108812322"><ele>71.0</ele><time>2026-04-08T07:16:13Z</time></trkpt><trkpt lat="33.96264044409564" lon="8.152613976949421"><ele>71.0</ele><time>2026-04-08T07:16:14Z</time></trkpt><trkpt lat="33.96280862696071" lon="8.152649347538912"><ele>71.66666666666667</ele><time>2026-04-08T07:16:15Z</time></trkpt><trkpt lat="33.96297894058753" lon="8.152687271928269"><ele>72.33333333333333</ele><time>2026-04-08T07:16:16Z</time></trkpt><trkpt lat="33.96314790553623" lon="8.152726576145849"><ele>73.0</ele><time>2026-04-08T07:16:17Z</time></trkpt><trkpt lat="33.963318215652876" lon="8.152767771689508"><ele>72.33333333333333</ele><time>2026-04-08T07:16:18Z</time></trkpt><trkpt lat="33.96348816465142" lon="8.152808348115895"><ele>71.66666666666667</ele><time>2026-04-08T07:16:19Z</time></trkpt><trkpt lat="33.96365981628529" lon="8.152849265290518"><ele>71.0</ele><time>2026-04-08T07:16:20Z</time></trkpt><trkpt lat="33.9638305088587" lon="8.152893358153335"><ele>71.0</ele><time>2026-04-08T07:16:21Z</time></trkpt><trkpt lat="33.964003515255236" lon="8.152939603881332"><ele>71.0</ele><time>2026-04-08T07:16:22Z</time></trkpt><trkpt lat="33.96417796499373" lon="8.152985161475375"><ele>71.0</ele><time>2026-04-08T07:16:23Z</time></trkpt><trkpt lat="33.96435482738683" lon="8.153029558304409"><ele>70.66666666666667</ele><time>2026-04-08T07:16:24Z</time></trkpt><trkpt lat="33.96453247465478" lon="8.153073082481532"><ele>70.33333333333333</ele><time>2026-04-08T07:16:25Z</time></trkpt><trkpt lat="33.964714056334564" lon="8.153120128567691"><ele>70.0</ele><time>2026-04-08T07:16:26Z</time></trkpt><trkpt lat="33.96489491387449" lon="8.153163972784155"><ele>70.33333333333333</ele><time>2026-04-08T07:16:27Z</time></trkpt><trkpt lat="33.96507665692697" lon="8.153207156912947"><ele>70.66666666666667</ele><time>2026-04-08T07:16:28Z</time></trkpt><trkpt lat="33.96525689099567" lon="8.153250777949884"><ele>71.0</ele><time>2026-04-08T07:16:29Z</time></trkpt><trkpt lat="33.96543051048027" lon="8.153294438605275"><ele>71.0</ele><time>2026-04-08T07:16:30Z</time></trkpt><trkpt lat="33.96559528915876" lon="8.15333418632016"><ele>71.0</ele><time>2026-04-08T07:16:31Z</time></trkpt><trkpt lat="33.965760344381586" lon="8.153372867838263"><ele>71.0</ele><time>2026-04-08T07:16:32Z</time></trkpt><trkpt lat="33.96592945495769" lon="8.153413336838224"><ele>71.0</ele><time>2026-04-08T07:16:33Z</time></trkpt><trkpt lat="33.96609922716924" lon="8.153454052983474"><ele>71.0</ele><time>2026-04-08T07:16:34Z</time></trkpt><trkpt lat="33.96626798088727" lon="8.153494420291638"><ele>71.0</ele><time>2026-04-08T07:16:35Z</time></trkpt><trkpt lat="33.966436921906904" lon="8.153534824842202"><ele>71.0</ele><time>2026-04-08T07:16:35.999Z</time></trkpt><trkpt lat="33.966603849354215" lon="8.153573913308461"><ele>71.0</ele><time>2026-04-08T07:16:36.999Z</time></trkpt><trkpt lat="33.96676829318136" lon="8.15361506168102"><ele>71.0</ele><time>2026-04-08T07:16:37.999Z</time></trkpt><trkpt lat="33.9669352065346" lon="8.153654721629676"><ele>71.0</ele><time>2026-04-08T07:16:38.999Z</time></trkpt><trkpt lat="33.96710137662716" lon="8.153692394888955"><ele>71.0</ele><time>2026-04-08T07:16:39.999Z</time></trkpt><trkpt lat="33.967266809740096" lon="8.153731234166102"><ele>71.0</ele><time>2026-04-08T07:16:40.999Z</time></trkpt><trkpt lat="33.96743717542417" lon="8.153771863667213"><ele>71.0</ele><time>2026-04-08T07:16:41.999Z</time></trkpt><trkpt lat="33.96760810648096" lon="8.153812859298098"><ele>71.0</ele><time>2026-04-08T07:16:42.999Z</time></trkpt><trkpt lat="33.96778236360054" lon="8.153857436496349"><ele>71.0</ele><time>2026-04-08T07:16:43.999Z</time></trkpt><trkpt lat="33.96796050922268" lon="8.153901152137054"><ele>71.0</ele><time>2026-04-08T07:16:44.999Z</time></trkpt><trkpt lat="33.96814195342606" lon="8.153945478000129"><ele>71.0</ele><time>2026-04-08T07:16:45.999Z</time></trkpt><trkpt lat="33.9683220191634" lon="8.153988198106893"><ele>71.0</ele><time>2026-04-08T07:16:46.999Z</time></trkpt><trkpt lat="33.9685008363794" lon="8.154032504181842"><ele>70.66666666666667</ele><time>2026-04-08T07:16:47.999Z</time></trkpt><trkpt lat="33.968677997102894" lon="8.154076047621583"><ele>70.33333333333333</ele><time>2026-04-08T07:16:48.999Z</time></trkpt><trkpt lat="33.96885400025237" lon="8.154119860376513"><ele>70.0</ele><time>2026-04-08T07:16:49.999Z</time></trkpt><trkpt lat="33.96903286884823" lon="8.154160794465605"><ele>70.0</ele><time>2026-04-08T07:16:51Z</time></trkpt><trkpt lat="33.96921555751615" lon="8.154202070246559"><ele>70.0</ele><time>2026-04-08T07:16:52Z</time></trkpt><trkpt lat="33.96939580074035" lon="8.154244545560166"><ele>70.0</ele><time>2026-04-08T07:16:53Z</time></trkpt><trkpt lat="33.96957628868468" lon="8.154290071842587"><ele>70.0</ele><time>2026-04-08T07:16:54Z</time></trkpt><trkpt lat="33.969755367079735" lon="8.154334518417368"><ele>70.0</ele><time>2026-04-08T07:16:55Z</time></trkpt><trkpt lat="33.96993663007266" lon="8.154380021493843"><ele>70.0</ele><time>2026-04-08T07:16:56Z</time></trkpt><trkpt lat="33.97011826623914" lon="8.154425321520963"><ele>69.33333333333333</ele><time>2026-04-08T07:16:57Z</time></trkpt><trkpt lat="33.97029705765376" lon="8.154468185434904"><ele>68.66666666666667</ele><time>2026-04-08T07:16:58Z</time></trkpt><trkpt lat="33.97047456250096" lon="8.154511542639598"><ele>68.0</ele><time>2026-04-08T07:16:59Z</time></trkpt><trkpt lat="33.97065176012638" lon="8.154553884560938"><ele>68.0</ele><time>2026-04-08T07:17:00Z</time></trkpt><trkpt lat="33.97083207479356" lon="8.15459741455507"><ele>68.0</ele><time>2026-04-08T07:17:01Z</time></trkpt><trkpt lat="33.97101039483951" lon="8.154639872932364"><ele>68.0</ele><time>2026-04-08T07:17:02Z</time></trkpt><trkpt lat="33.97118817550745" lon="8.154685571132406"><ele>67.66666666666667</ele><time>2026-04-08T07:17:03Z</time></trkpt><trkpt lat="33.97136397457847" lon="8.154729699863427"><ele>67.33333333333333</ele><time>2026-04-08T07:17:04Z</time></trkpt><trkpt lat="33.97154169755342" lon="8.154773061666196"><ele>67.0</ele><time>2026-04-08T07:17:05Z</time></trkpt><trkpt lat="33.97171311686679" lon="8.154816804700772"><ele>66.33333333333333</ele><time>2026-04-08T07:17:06Z</time></trkpt><trkpt lat="33.97188134813537" lon="8.154859050375396"><ele>65.66666666666667</ele><time>2026-04-08T07:17:07Z</time></trkpt><trkpt lat="33.97205204131416" lon="8.154903509900539"><ele>65.0</ele><time>2026-04-08T07:17:08Z</time></trkpt><trkpt lat="33.9722285669811" lon="8.154947354468613"><ele>66.0</ele><time>2026-04-08T07:17:09Z</time></trkpt><trkpt lat="33.97240523802354" lon="8.15498973240759"><ele>67.0</ele><time>2026-04-08T07:17:10Z</time></trkpt><trkpt lat="33.97257947759428" lon="8.15503302022594"><ele>68.0</ele><time>2026-04-08T07:17:11Z</time></trkpt><trkpt lat="33.97275604858995" lon="8.155075732150719"><ele>68.0</ele><time>2026-04-08T07:17:12Z</time></trkpt><trkpt lat="33.97293244381353" lon="8.1551192096087"><ele>68.0</ele><time>2026-04-08T07:17:13Z</time></trkpt><trkpt lat="33.97310489020748" lon="8.155160664910436"><ele>68.0</ele><time>2026-04-08T07:17:14Z</time></trkpt><trkpt lat="33.97327827736396" lon="8.155201446777669"><ele>67.33333333333334</ele><time>2026-04-08T07:17:15Z</time></trkpt><trkpt lat="33.97345239906273" lon="8.155244463141182"><ele>66.66666666666667</ele><time>2026-04-08T07:17:16Z</time></trkpt><trkpt lat="33.973627225346355" lon="8.155290794494332"><ele>66.0</ele><time>2026-04-08T07:17:17Z</time></trkpt><trkpt lat="33.973801969319425" lon="8.155331621386367"><ele>66.0</ele><time>2026-04-08T07:17:18Z</time></trkpt><trkpt lat="33.97397473246436" lon="8.15537158570254"><ele>66.0</ele><time>2026-04-08T07:17:19Z</time></trkpt><trkpt lat="33.97414879911366" lon="8.155411887275418"><ele>66.0</ele><time>2026-04-08T07:17:20Z</time></trkpt><trkpt lat="33.97432376157881" lon="8.155453348120366"><ele>66.66666666666667</ele><time>2026-04-08T07:17:21Z</time></trkpt><trkpt lat="33.97450148730668" lon="8.155497318255525"><ele>67.33333333333334</ele><time>2026-04-08T07:17:22Z</time></trkpt><trkpt lat="33.97467927644727" lon="8.155542814390456"><ele>68.0</ele><time>2026-04-08T07:17:23Z</time></trkpt><trkpt lat="33.97486020490535" lon="8.155587418054266"><ele>68.33333333333334</ele><time>2026-04-08T07:17:24Z</time></trkpt><trkpt lat="33.97504061103641" lon="8.155630371962872"><ele>68.66666666666667</ele><time>2026-04-08T07:17:25Z</time></trkpt><trkpt lat="33.975221382699566" lon="8.15567263238702"><ele>69.0</ele><time>2026-04-08T07:17:26Z</time></trkpt><trkpt lat="33.97540171770262" lon="8.155715258073357"><ele>69.0</ele><time>2026-04-08T07:17:27Z</time></trkpt><trkpt lat="33.97557867385014" lon="8.155754637360456"><ele>69.0</ele><time>2026-04-08T07:17:28Z</time></trkpt><trkpt lat="33.97575208999348" lon="8.155797875651707"><ele>69.0</ele><time>2026-04-08T07:17:29Z</time></trkpt><trkpt lat="33.97592454235825" lon="8.155840073917863"><ele>69.33333333333333</ele><time>2026-04-08T07:17:30Z</time></trkpt><trkpt lat="33.97609728956893" lon="8.155879928662712"><ele>69.66666666666666</ele><time>2026-04-08T07:17:31Z</time></trkpt><trkpt lat="33.97626907439704" lon="8.155920878709884"><ele>70.0</ele><time>2026-04-08T07:17:32Z</time></trkpt><trkpt lat="33.97644235808673" lon="8.155965170216874"><ele>70.0</ele><time>2026-04-08T07:17:33Z</time></trkpt><trkpt lat="33.97661636789725" lon="8.156007490685306"><ele>70.0</ele><time>2026-04-08T07:17:34Z</time></trkpt><trkpt lat="33.97679337027579" lon="8.156048647907546"><ele>70.0</ele><time>2026-04-08T07:17:35Z</time></trkpt><trkpt lat="33.976966377766345" lon="8.156091332581365"><ele>69.66666666666666</ele><time>2026-04-08T07:17:36Z</time></trkpt><trkpt lat="33.97713979445826" lon="8.156137165747884"><ele>69.33333333333333</ele><time>2026-04-08T07:17:37Z</time></trkpt><trkpt lat="33.97731543766088" lon="8.156182036630447"><ele>69.0</ele><time>2026-04-08T07:17:38Z</time></trkpt><trkpt lat="33.977489715941886" lon="8.156225586879806"><ele>69.33333333333333</ele><time>2026-04-08T07:17:39Z</time></trkpt><trkpt lat="33.97766490562632" lon="8.156268216375013"><ele>69.66666666666666</ele><time>2026-04-08T07:17:40Z</time></trkpt><trkpt lat="33.97783890552625" lon="8.15630810671416"><ele>70.0</ele><time>2026-04-08T07:17:41Z</time></trkpt><trkpt lat="33.97801370112299" lon="8.156347913503255"><ele>70.0</ele><time>2026-04-08T07:17:42Z</time></trkpt><trkpt lat="33.978188146806616" lon="8.156387757223921"><ele>70.0</ele><time>2026-04-08T07:17:43Z</time></trkpt><trkpt lat="33.978353267078596" lon="8.156428777438418"><ele>70.0</ele><time>2026-04-08T07:17:44Z</time></trkpt><trkpt lat="33.97850900640372" lon="8.1564701438044"><ele>70.0</ele><time>2026-04-08T07:17:45Z</time></trkpt><trkpt lat="33.97866086514962" lon="8.156510129472577"><ele>70.0</ele><time>2026-04-08T07:17:46Z</time></trkpt><trkpt lat="33.978818529340195" lon="8.15655025665239"><ele>70.0</ele><time>2026-04-08T07:17:47Z</time></trkpt><trkpt lat="33.978979046339276" lon="8.156589284921873"><ele>70.0</ele><time>2026-04-08T07:17:48Z</time></trkpt><trkpt lat="33.97914414563489" lon="8.156625472809647"><ele>70.0</ele><time>2026-04-08T07:17:49Z</time></trkpt><trkpt lat="33.97930559167214" lon="8.15666174140593"><ele>70.0</ele><time>2026-04-08T07:17:50Z</time></trkpt><trkpt lat="33.97946969273198" lon="8.156701245736246"><ele>70.0</ele><time>2026-04-08T07:17:51Z</time></trkpt><trkpt lat="33.97963221310455" lon="8.156740773801587"><ele>70.0</ele><time>2026-04-08T07:17:52Z</time></trkpt><trkpt lat="33.97979399396996" lon="8.156781134150783"><ele>70.0</ele><time>2026-04-08T07:17:53Z</time></trkpt><trkpt lat="33.97996036920221" lon="8.15682134952027"><ele>69.66666666666666</ele><time>2026-04-08T07:17:54Z</time></trkpt><trkpt lat="33.98012262664247" lon="8.156862464736047"><ele>69.33333333333333</ele><time>2026-04-08T07:17:55Z</time></trkpt><trkpt lat="33.9802852107616" lon="8.156901951783723"><ele>69.0</ele><time>2026-04-08T07:17:56Z</time></trkpt><trkpt lat="33.98044846463357" lon="8.15694433188065"><ele>69.0</ele><time>2026-04-08T07:17:57Z</time></trkpt><trkpt lat="33.9806115552391" lon="8.156983074758875"><ele>69.0</ele><time>2026-04-08T07:17:58Z</time></trkpt><trkpt lat="33.98077297720123" lon="8.157021308800333"><ele>69.0</ele><time>2026-04-08T07:17:59Z</time></trkpt><trkpt lat="33.98093638354213" lon="8.157059208111479"><ele>69.0</ele><time>2026-04-08T07:18:00Z</time></trkpt><trkpt lat="33.98109826136526" lon="8.157096254374377"><ele>69.0</ele><time>2026-04-08T07:18:01Z</time></trkpt><trkpt lat="33.98125728346018" lon="8.157136750736417"><ele>69.0</ele><time>2026-04-08T07:18:02Z</time></trkpt><trkpt lat="33.98141871901115" lon="8.157180830015456"><ele>69.0</ele><time>2026-04-08T07:18:03Z</time></trkpt><trkpt lat="33.98158228445539" lon="8.157224958937935"><ele>69.0</ele><time>2026-04-08T07:18:04Z</time></trkpt><trkpt lat="33.98174957214723" lon="8.157266594175521"><ele>69.0</ele><time>2026-04-08T07:18:05Z</time></trkpt><trkpt lat="33.98191466147783" lon="8.157306138053595"><ele>69.33333333333333</ele><time>2026-04-08T07:18:06Z</time></trkpt><trkpt lat="33.9820799254855" lon="8.157344497778464"><ele>69.66666666666666</ele><time>2026-04-08T07:18:07Z</time></trkpt><trkpt lat="33.98224623578237" lon="8.157383655969241"><ele>70.0</ele><time>2026-04-08T07:18:08Z</time></trkpt><trkpt lat="33.98241032025053" lon="8.157424506329289"><ele>70.66666666666666</ele><time>2026-04-08T07:18:09Z</time></trkpt><trkpt lat="33.98257566608355" lon="8.157465190628113"><ele>71.33333333333333</ele><time>2026-04-08T07:18:10Z</time></trkpt><trkpt lat="33.982741194807346" lon="8.15750379556509"><ele>72.0</ele><time>2026-04-08T07:18:11Z</time></trkpt><trkpt lat="33.98290698348843" lon="8.157540673339666"><ele>72.0</ele><time>2026-04-08T07:18:12Z</time></trkpt><trkpt lat="33.98306984306288" lon="8.157579986165098"><ele>72.0</ele><time>2026-04-08T07:18:13Z</time></trkpt><trkpt lat="33.98323813793711" lon="8.157622696275304"><ele>72.0</ele><time>2026-04-08T07:18:14Z</time></trkpt><trkpt lat="33.98340601145047" lon="8.157670158229841"><ele>72.0</ele><time>2026-04-08T07:18:15Z</time></trkpt><trkpt lat="33.98357221753897" lon="8.157710808795905"><ele>72.0</ele><time>2026-04-08T07:18:16Z</time></trkpt><trkpt lat="33.9837420702297" lon="8.157751678499025"><ele>72.0</ele><time>2026-04-08T07:18:17Z</time></trkpt><trkpt lat="33.983909939847955" lon="8.157794683647055"><ele>72.0</ele><time>2026-04-08T07:18:18Z</time></trkpt><trkpt lat="33.98407721013183" lon="8.157837517660658"><ele>72.0</ele><time>2026-04-08T07:18:19Z</time></trkpt><trkpt lat="33.98424320555246" lon="8.157880722220831"><ele>72.0</ele><time>2026-04-08T07:18:20Z</time></trkpt><trkpt lat="33.984409035292686" lon="8.157922715359478"><ele>72.33333333333333</ele><time>2026-04-08T07:18:21Z</time></trkpt><trkpt lat="33.984577377485515" lon="8.157966574402117"><ele>72.66666666666666</ele><time>2026-04-08T07:18:22Z</time></trkpt><trkpt lat="33.984745757720596" lon="8.158010872757067"><ele>73.0</ele><time>2026-04-08T07:18:23Z</time></trkpt><trkpt lat="33.98491566106624" lon="8.15806302700824"><ele>73.66666666666666</ele><time>2026-04-08T07:18:24Z</time></trkpt><trkpt lat="33.985084482136834" lon="8.158117705603457"><ele>74.33333333333333</ele><time>2026-04-08T07:18:25Z</time></trkpt><trkpt lat="33.98525485942363" lon="8.158169845315516"><ele>75.0</ele><time>2026-04-08T07:18:26Z</time></trkpt><trkpt lat="33.985425334830566" lon="8.158227344025489"><ele>75.0</ele><time>2026-04-08T07:18:27Z</time></trkpt><trkpt lat="33.98559783641529" lon="8.158287488931128"><ele>75.0</ele><time>2026-04-08T07:18:28Z</time></trkpt><trkpt lat="33.985764227052414" lon="8.158353097215008"><ele>75.0</ele><time>2026-04-08T07:18:29Z</time></trkpt><trkpt lat="33.98592807998095" lon="8.15842364051462"><ele>75.0</ele><time>2026-04-08T07:18:30Z</time></trkpt><trkpt lat="33.98607983290402" lon="8.158497552551603"><ele>75.0</ele><time>2026-04-08T07:18:31Z</time></trkpt><trkpt lat="33.98621397269539" lon="8.158562542325603"><ele>75.0</ele><time>2026-04-08T07:18:32Z</time></trkpt><trkpt lat="33.98633080457036" lon="8.158617359054888"><ele>75.0</ele><time>2026-04-08T07:18:33Z</time></trkpt><trkpt lat="33.98643660678076" lon="8.158668346160173"><ele>75.0</ele><time>2026-04-08T07:18:34Z</time></trkpt><trkpt lat="33.986534678455676" lon="8.158713034733749"><ele>75.0</ele><time>2026-04-08T07:18:35Z</time></trkpt><trkpt lat="33.986622688271176" lon="8.158752969667399"><ele>75.0</ele><time>2026-04-08T07:18:36Z</time></trkpt><trkpt lat="33.986707913117456" lon="8.158793086403067"><ele>75.0</ele><time>2026-04-08T07:18:37Z</time></trkpt><trkpt lat="33.986789967277176" lon="8.158833447121088"><ele>75.0</ele><time>2026-04-08T07:18:38Z</time></trkpt><trkpt lat="33.98686879376584" lon="8.158870858218364"><ele>75.16666666666667</ele><time>2026-04-08T07:18:39Z</time></trkpt><trkpt lat="33.98694138319864" lon="8.158908322435426"><ele>75.33333333333333</ele><time>2026-04-08T07:18:39.999Z</time></trkpt><trkpt lat="33.98700979173136" lon="8.158945315917531"><ele>75.5</ele><time>2026-04-08T07:18:40.999Z</time></trkpt><trkpt lat="33.98707330541318" lon="8.158976843774814"><ele>75.66666666666666</ele><time>2026-04-08T07:18:41.999Z</time></trkpt><trkpt lat="33.98713295171479" lon="8.159008173634916"><ele>75.83333333333333</ele><time>2026-04-08T07:18:42.999Z</time></trkpt><trkpt lat="33.9872493676279" lon="8.159048808820566"><ele>76.0</ele><time>2026-04-08T07:18:44.999Z</time></trkpt><trkpt lat="33.98730891345409" lon="8.159073538569642"><ele>76.0</ele><time>2026-04-08T07:18:45.999Z</time></trkpt><trkpt lat="33.987370283157276" lon="8.159101137219723"><ele>76.0</ele><time>2026-04-08T07:18:46.999Z</time></trkpt><trkpt lat="33.9874312105089" lon="8.159132382809226"><ele>76.0</ele><time>2026-04-08T07:18:47.999Z</time></trkpt><trkpt lat="33.987498661039666" lon="8.159163905350141"><ele>76.0</ele><time>2026-04-08T07:18:48.999Z</time></trkpt><trkpt lat="33.987573154626816" lon="8.159202323164175"><ele>76.0</ele><time>2026-04-08T07:18:49.999Z</time></trkpt><trkpt lat="33.98765823366191" lon="8.159243199772988"><ele>76.0</ele><time>2026-04-08T07:18:50.999Z</time></trkpt><trkpt lat="33.98775277579525" lon="8.15928564851296"><ele>76.5</ele><time>2026-04-08T07:18:51.999Z</time></trkpt><trkpt lat="33.987854851364474" lon="8.159336078509659"><ele>77.0</ele><time>2026-04-08T07:18:52.999Z</time></trkpt><trkpt lat="33.987958917790756" lon="8.159388920312823"><ele>77.5</ele><time>2026-04-08T07:18:53.999Z</time></trkpt><trkpt lat="33.988066174666564" lon="8.15944266617123"><ele>78.0</ele><time>2026-04-08T07:18:54.999Z</time></trkpt><trkpt lat="33.98817920636148" lon="8.159493179612506"><ele>78.0</ele><time>2026-04-08T07:18:55.999Z</time></trkpt><trkpt lat="33.98829415451818" lon="8.159543094326674"><ele>78.0</ele><time>2026-04-08T07:18:57Z</time></trkpt><trkpt lat="33.988410790335024" lon="8.159599568588634"><ele>78.0</ele><time>2026-04-08T07:18:58Z</time></trkpt><trkpt lat="33.98853094826564" lon="8.159663386628782"><ele>78.0</ele><time>2026-04-08T07:18:59Z</time></trkpt><trkpt lat="33.9886508657105" lon="8.159725526620061"><ele>77.75</ele><time>2026-04-08T07:19:00Z</time></trkpt><trkpt lat="33.98877854656048" lon="8.15978917155152"><ele>77.5</ele><time>2026-04-08T07:19:01Z</time></trkpt><trkpt lat="33.988908873820144" lon="8.15985562310138"><ele>77.25</ele><time>2026-04-08T07:19:02Z</time></trkpt><trkpt lat="33.989042201036085" lon="8.159919354974493"><ele>77.0</ele><time>2026-04-08T07:19:03Z</time></trkpt><trkpt lat="33.98917931581734" lon="8.159979435519674"><ele>76.0</ele><time>2026-04-08T07:19:04Z</time></trkpt><trkpt lat="33.989314139269204" lon="8.160045490966922"><ele>75.0</ele><time>2026-04-08T07:19:05Z</time></trkpt><trkpt lat="33.98944673098217" lon="8.160121230748"><ele>74.0</ele><time>2026-04-08T07:19:06Z</time></trkpt><trkpt lat="33.98957750049353" lon="8.16020042957835"><ele>73.0</ele><time>2026-04-08T07:19:07Z</time></trkpt><trkpt lat="33.9897091367824" lon="8.160285543778521"><ele>73.0</ele><time>2026-04-08T07:19:08Z</time></trkpt><trkpt lat="33.989836910254276" lon="8.16037552420498"><ele>73.0</ele><time>2026-04-08T07:19:09Z</time></trkpt><trkpt lat="33.989962766508064" lon="8.160469558155192"><ele>73.0</ele><time>2026-04-08T07:19:10Z</time></trkpt><trkpt lat="33.99008496797603" lon="8.160569277602644"><ele>73.0</ele><time>2026-04-08T07:19:11Z</time></trkpt><trkpt lat="33.990204181090604" lon="8.160673183189727"><ele>72.25</ele><time>2026-04-08T07:19:12Z</time></trkpt><trkpt lat="33.99032303848509" lon="8.160779556726023"><ele>71.5</ele><time>2026-04-08T07:19:13Z</time></trkpt><trkpt lat="33.9904392140276" lon="8.16089019737869"><ele>70.75</ele><time>2026-04-08T07:19:14Z</time></trkpt><trkpt lat="33.990552907781876" lon="8.161007510425733"><ele>70.0</ele><time>2026-04-08T07:19:15Z</time></trkpt><trkpt lat="33.990663437833184" lon="8.161129741848306"><ele>70.0</ele><time>2026-04-08T07:19:16Z</time></trkpt><trkpt lat="33.99076906741046" lon="8.161255044177992"><ele>70.0</ele><time>2026-04-08T07:19:17Z</time></trkpt><trkpt lat="33.99087062392597" lon="8.161385342474322"><ele>70.0</ele><time>2026-04-08T07:19:18Z</time></trkpt><trkpt lat="33.99096905674791" lon="8.161522815721618"><ele>70.0</ele><time>2026-04-08T07:19:19Z</time></trkpt><trkpt lat="33.99107205048157" lon="8.161668130917683"><ele>68.33333333333333</ele><time>2026-04-08T07:19:20Z</time></trkpt><trkpt lat="33.99117285539051" lon="8.161810868251123"><ele>66.66666666666667</ele><time>2026-04-08T07:19:21Z</time></trkpt><trkpt lat="33.99127243603889" lon="8.161956540866985"><ele>65.0</ele><time>2026-04-08T07:19:22Z</time></trkpt><trkpt lat="33.99136929831049" lon="8.162105617421133"><ele>65.0</ele><time>2026-04-08T07:19:23Z</time></trkpt><trkpt lat="33.9914651110953" lon="8.162255684444062"><ele>65.0</ele><time>2026-04-08T07:19:24Z</time></trkpt><trkpt lat="33.991563142331266" lon="8.162405019943511"><ele>65.0</ele><time>2026-04-08T07:19:25Z</time></trkpt><trkpt lat="33.99166030075123" lon="8.162552723211032"><ele>63.333333333333336</ele><time>2026-04-08T07:19:26Z</time></trkpt><trkpt lat="33.99175689094951" lon="8.162701132212087"><ele>61.66666666666667</ele><time>2026-04-08T07:19:27Z</time></trkpt><trkpt lat="33.991850973247104" lon="8.162848225882401"><ele>60.0</ele><time>2026-04-08T07:19:28Z</time></trkpt><trkpt lat="33.991947962841664" lon="8.16299626057442"><ele>60.0</ele><time>2026-04-08T07:19:29Z</time></trkpt><trkpt lat="33.99204678550261" lon="8.16314243516986"><ele>60.0</ele><time>2026-04-08T07:19:30Z</time></trkpt><trkpt lat="33.99214826236965" lon="8.163289579059695"><ele>60.0</ele><time>2026-04-08T07:19:31Z</time></trkpt><trkpt lat="33.99224587032745" lon="8.163432603972788"><ele>59.0</ele><time>2026-04-08T07:19:32Z</time></trkpt><trkpt lat="33.99234438261435" lon="8.163573772801426"><ele>58.0</ele><time>2026-04-08T07:19:33Z</time></trkpt><trkpt lat="33.99244192708299" lon="8.163715002841217"><ele>57.0</ele><time>2026-04-08T07:19:34Z</time></trkpt><trkpt lat="33.992533558083984" lon="8.163850398078564"><ele>56.8</ele><time>2026-04-08T07:19:35Z</time></trkpt><trkpt lat="33.992609016595274" lon="8.163967674599332"><ele>56.6</ele><time>2026-04-08T07:19:36Z</time></trkpt><trkpt lat="33.992671819562084" lon="8.164067064246247"><ele>56.39999999999999</ele><time>2026-04-08T07:19:37Z</time></trkpt><trkpt lat="33.99272198099424" lon="8.164146813779865"><ele>56.199999999999996</ele><time>2026-04-08T07:19:38Z</time></trkpt><trkpt lat="33.9927686159319" lon="8.164222023875405"><ele>56.0</ele><time>2026-04-08T07:19:39Z</time></trkpt><trkpt lat="33.992818324887175" lon="8.164296112374794"><ele>56.333333333333336</ele><time>2026-04-08T07:19:40Z</time></trkpt><trkpt lat="33.99287142694604" lon="8.164376270648535"><ele>56.66666666666667</ele><time>2026-04-08T07:19:41Z</time></trkpt><trkpt lat="33.992925149838406" lon="8.164459060005395"><ele>57.0</ele><time>2026-04-08T07:19:42Z</time></trkpt><trkpt lat="33.992977147692855" lon="8.16453654276343"><ele>57.33333333333333</ele><time>2026-04-08T07:19:43Z</time></trkpt><trkpt lat="33.99302643706524" lon="8.164605076027128"><ele>57.666666666666664</ele><time>2026-04-08T07:19:44Z</time></trkpt><trkpt lat="33.993072329559645" lon="8.164671512391088"><ele>58.0</ele><time>2026-04-08T07:19:45Z</time></trkpt><trkpt lat="33.993117024995044" lon="8.164744040191348"><ele>58.0</ele><time>2026-04-08T07:19:46Z</time></trkpt><trkpt lat="33.993164023062505" lon="8.164824774514798"><ele>58.0</ele><time>2026-04-08T07:19:47Z</time></trkpt><trkpt lat="33.993214417716004" lon="8.164913100327665"><ele>58.0</ele><time>2026-04-08T07:19:48Z</time></trkpt><trkpt lat="33.99326490353307" lon="8.165008669020606"><ele>58.0</ele><time>2026-04-08T07:19:49Z</time></trkpt><trkpt lat="33.993315865627046" lon="8.165109305995296"><ele>58.0</ele><time>2026-04-08T07:19:50Z</time></trkpt><trkpt lat="33.99336327906385" lon="8.165217208302485"><ele>57.0</ele><time>2026-04-08T07:19:51Z</time></trkpt><trkpt lat="33.99341221442095" lon="8.165328167770669"><ele>56.0</ele><time>2026-04-08T07:19:52Z</time></trkpt><trkpt lat="33.99345979805787" lon="8.165446666766847"><ele>55.0</ele><time>2026-04-08T07:19:53Z</time></trkpt><trkpt lat="33.99350612121245" lon="8.165568891688315"><ele>54.0</ele><time>2026-04-08T07:19:54Z</time></trkpt><trkpt lat="33.99355240125043" lon="8.165692173187997"><ele>53.0</ele><time>2026-04-08T07:19:55Z</time></trkpt><trkpt lat="33.99359036835434" lon="8.16582464617174"><ele>52.75</ele><time>2026-04-08T07:19:56Z</time></trkpt><trkpt lat="33.993622474895744" lon="8.165962404443718"><ele>52.5</ele><time>2026-04-08T07:19:57Z</time></trkpt><trkpt lat="33.99365496688544" lon="8.16610534919021"><ele>52.25</ele><time>2026-04-08T07:19:58Z</time></trkpt><trkpt lat="33.99368693200017" lon="8.166249807095065"><ele>52.0</ele><time>2026-04-08T07:19:59Z</time></trkpt><trkpt lat="33.99371033753066" lon="8.166397842503677"><ele>51.75</ele><time>2026-04-08T07:20:00Z</time></trkpt><trkpt lat="33.993736487726245" lon="8.16655322968136"><ele>51.5</ele><time>2026-04-08T07:20:01Z</time></trkpt><trkpt lat="33.99377144799984" lon="8.16671477217733"><ele>51.25</ele><time>2026-04-08T07:20:02Z</time></trkpt><trkpt lat="33.99380866644192" lon="8.166875813568117"><ele>51.0</ele><time>2026-04-08T07:20:03Z</time></trkpt><trkpt lat="33.99384894597346" lon="8.167042263039246"><ele>51.0</ele><time>2026-04-08T07:20:04Z</time></trkpt><trkpt lat="33.99389492106071" lon="8.167211490557436"><ele>51.0</ele><time>2026-04-08T07:20:05Z</time></trkpt><trkpt lat="33.9939575733044" lon="8.167397587830376"><ele>51.0</ele><time>2026-04-08T07:20:06Z</time></trkpt><trkpt lat="33.994046051365686" lon="8.16759502762802"><ele>50.33333333333333</ele><time>2026-04-08T07:20:07Z</time></trkpt><trkpt lat="33.99416551615959" lon="8.167795804965845"><ele>49.666666666666664</ele><time>2026-04-08T07:20:08Z</time></trkpt><trkpt lat="33.99431832783154" lon="8.16799041813355"><ele>49.0</ele><time>2026-04-08T07:20:09Z</time></trkpt><trkpt lat="33.99448217653306" lon="8.168175699464115"><ele>49.666666666666664</ele><time>2026-04-08T07:20:10Z</time></trkpt><trkpt lat="33.99463549087822" lon="8.168325800034781"><ele>50.33333333333333</ele><time>2026-04-08T07:20:11Z</time></trkpt><trkpt lat="33.99478032667155" lon="8.168461261426613"><ele>51.0</ele><time>2026-04-08T07:20:12Z</time></trkpt><trkpt lat="33.994917127051416" lon="8.168582163263927"><ele>51.0</ele><time>2026-04-08T07:20:13Z</time></trkpt><trkpt lat="33.99504724549523" lon="8.168701668689478"><ele>51.0</ele><time>2026-04-08T07:20:14Z</time></trkpt><trkpt lat="33.995167235112085" lon="8.16881546364798"><ele>51.0</ele><time>2026-04-08T07:20:15Z</time></trkpt><trkpt lat="33.99528445279935" lon="8.168918047942663"><ele>51.0</ele><time>2026-04-08T07:20:16Z</time></trkpt><trkpt lat="33.99540086151705" lon="8.169016054783334"><ele>51.0</ele><time>2026-04-08T07:20:17Z</time></trkpt><trkpt lat="33.99551528215942" lon="8.169102582062834"><ele>51.0</ele><time>2026-04-08T07:20:18Z</time></trkpt><trkpt lat="33.9956223486435" lon="8.169185993348064"><ele>51.0</ele><time>2026-04-08T07:20:19Z</time></trkpt><trkpt lat="33.99572489717746" lon="8.169271475586045"><ele>51.25</ele><time>2026-04-08T07:20:20Z</time></trkpt><trkpt lat="33.99582854984575" lon="8.16935881743181"><ele>51.5</ele><time>2026-04-08T07:20:21Z</time></trkpt><trkpt lat="33.995929996716626" lon="8.169451384892467"><ele>51.75</ele><time>2026-04-08T07:20:22Z</time></trkpt><trkpt lat="33.99603153742049" lon="8.16954665917193"><ele>52.0</ele><time>2026-04-08T07:20:23Z</time></trkpt><trkpt lat="33.99612937070644" lon="8.169637369279968"><ele>52.25</ele><time>2026-04-08T07:20:24Z</time></trkpt><trkpt lat="33.99622803323702" lon="8.169721629273383"><ele>52.5</ele><time>2026-04-08T07:20:25Z</time></trkpt><trkpt lat="33.99632461668132" lon="8.169805700367395"><ele>52.75</ele><time>2026-04-08T07:20:26Z</time></trkpt><trkpt lat="33.99641976487545" lon="8.169883887623241"><ele>53.0</ele><time>2026-04-08T07:20:27Z</time></trkpt><trkpt lat="33.996515234295515" lon="8.169961381951714"><ele>53.4</ele><time>2026-04-08T07:20:28Z</time></trkpt><trkpt lat="33.99660645715297" lon="8.170038377687897"><ele>53.8</ele><time>2026-04-08T07:20:29Z</time></trkpt><trkpt lat="33.99669619224053" lon="8.170117119195337"><ele>54.2</ele><time>2026-04-08T07:20:30Z</time></trkpt><trkpt lat="33.99678416629102" lon="8.170193605946752"><ele>54.6</ele><time>2026-04-08T07:20:31Z</time></trkpt><trkpt lat="33.996868536023555" lon="8.170264290561043"><ele>55.0</ele><time>2026-04-08T07:20:32Z</time></trkpt><trkpt lat="33.99695045737576" lon="8.170330720536755"><ele>55.666666666666664</ele><time>2026-04-08T07:20:33Z</time></trkpt><trkpt lat="33.99703015287612" lon="8.170395651560346"><ele>56.33333333333333</ele><time>2026-04-08T07:20:34Z</time></trkpt><trkpt lat="33.997102223755874" lon="8.170461956661097"><ele>57.0</ele><time>2026-04-08T07:20:35Z</time></trkpt><trkpt lat="33.99716273248" lon="8.170528612151104"><ele>57.66666666666667</ele><time>2026-04-08T07:20:36Z</time></trkpt><trkpt lat="33.997213486624545" lon="8.17059724418749"><ele>58.333333333333336</ele><time>2026-04-08T07:20:37Z</time></trkpt><trkpt lat="33.997254342130155" lon="8.170674392937253"><ele>59.0</ele><time>2026-04-08T07:20:38Z</time></trkpt><trkpt lat="33.99730063457988" lon="8.170746912023471"><ele>59.800000000000004</ele><time>2026-04-08T07:20:39Z</time></trkpt><trkpt lat="33.997369330111844" lon="8.170799454027355"><ele>60.60000000000001</ele><time>2026-04-08T07:20:40Z</time></trkpt><trkpt lat="33.997455157564566" lon="8.170811650841072"><ele>61.4</ele><time>2026-04-08T07:20:41Z</time></trkpt><trkpt lat="33.99754884784424" lon="8.170794322672622"><ele>62.2</ele><time>2026-04-08T07:20:42Z</time></trkpt><trkpt lat="33.99764758244833" lon="8.170804221166161"><ele>63.0</ele><time>2026-04-08T07:20:43Z</time></trkpt><trkpt lat="33.99774628906563" lon="8.170850742992316"><ele>63.25</ele><time>2026-04-08T07:20:44Z</time></trkpt><trkpt lat="33.99784500164157" lon="8.170901636064679"><ele>63.5</ele><time>2026-04-08T07:20:45Z</time></trkpt><trkpt lat="33.99794865565071" lon="8.170958340247461"><ele>63.75</ele><time>2026-04-08T07:20:46Z</time></trkpt><trkpt lat="33.998057588726134" lon="8.171013042880379"><ele>64.0</ele><time>2026-04-08T07:20:47Z</time></trkpt><trkpt lat="33.998172505375" lon="8.171065796804287"><ele>64.0</ele><time>2026-04-08T07:20:48Z</time></trkpt><trkpt lat="33.99829059545148" lon="8.171114564204565"><ele>64.0</ele><time>2026-04-08T07:20:49Z</time></trkpt><trkpt lat="33.998402125535115" lon="8.171163624261787"><ele>64.0</ele><time>2026-04-08T07:20:50Z</time></trkpt><trkpt lat="33.998509983393404" lon="8.171212573328436"><ele>64.0</ele><time>2026-04-08T07:20:51Z</time></trkpt><trkpt lat="33.99861508032143" lon="8.171259715255696"><ele>64.0</ele><time>2026-04-08T07:20:52Z</time></trkpt><trkpt lat="33.998713439475445" lon="8.171304912464523"><ele>64.0</ele><time>2026-04-08T07:20:53Z</time></trkpt><trkpt lat="33.998807187629204" lon="8.171343831615651"><ele>64.0</ele><time>2026-04-08T07:20:54Z</time></trkpt><trkpt lat="33.99889359337719" lon="8.171380602955097"><ele>64.0</ele><time>2026-04-08T07:20:55Z</time></trkpt><trkpt lat="33.99896969834846" lon="8.171414917339566"><ele>64.0</ele><time>2026-04-08T07:20:56Z</time></trkpt><trkpt lat="33.999039956975615" lon="8.171448791713956"><ele>63.99999999999999</ele><time>2026-04-08T07:20:57Z</time></trkpt><trkpt lat="33.999109015812735" lon="8.171484342839785"><ele>64.0</ele><time>2026-04-08T07:20:58Z</time></trkpt><trkpt lat="33.99917953157158" lon="8.171520033679291"><ele>64.0</ele><time>2026-04-08T07:20:59Z</time></trkpt><trkpt lat="33.99925450680733" lon="8.171554520765042"><ele>64.0</ele><time>2026-04-08T07:21:00Z</time></trkpt><trkpt lat="33.99933087793613" lon="8.17158727463618"><ele>63.99999999999999</ele><time>2026-04-08T07:21:01Z</time></trkpt><trkpt lat="33.9994090469444" lon="8.171623544065456"><ele>64.0</ele><time>2026-04-08T07:21:01.999Z</time></trkpt><trkpt lat="33.99948744059488" lon="8.171660875376029"><ele>63.6</ele><time>2026-04-08T07:21:03Z</time></trkpt><trkpt lat="33.999571925584085" lon="8.171698101853194"><ele>63.2</ele><time>2026-04-08T07:21:04Z</time></trkpt><trkpt lat="33.99966179342808" lon="8.171736076643457"><ele>62.800000000000004</ele><time>2026-04-08T07:21:05Z</time></trkpt><trkpt lat="33.99975158412396" lon="8.171777972058758"><ele>62.400000000000006</ele><time>2026-04-08T07:21:06Z</time></trkpt><trkpt lat="33.999845546563854" lon="8.17182240399317"><ele>62.0</ele><time>2026-04-08T07:21:07Z</time></trkpt><trkpt lat="33.99994120426482" lon="8.171862688519507"><ele>62.0</ele><time>2026-04-08T07:21:08Z</time></trkpt><trkpt lat="34.00003583625705" lon="8.171902869103905"><ele>62.0</ele><time>2026-04-08T07:21:09Z</time></trkpt><trkpt lat="34.000134549908296" lon="8.171945426573435"><ele>62.0</ele><time>2026-04-08T07:21:10Z</time></trkpt><trkpt lat="34.000234947177276" lon="8.17198885726679"><ele>62.0</ele><time>2026-04-08T07:21:11Z</time></trkpt><trkpt lat="34.0003345380173" lon="8.172033586885563"><ele>62.0</ele><time>2026-04-08T07:21:12Z</time></trkpt><trkpt lat="34.000427427519384" lon="8.172079508120945"><ele>62.0</ele><time>2026-04-08T07:21:13Z</time></trkpt><trkpt lat="34.00050556325808" lon="8.172115079029368"><ele>62.0</ele><time>2026-04-08T07:21:14Z</time></trkpt><trkpt lat="34.00061005009602" lon="8.172153280669901"><ele>62.0</ele><time>2026-04-08T07:21:16Z</time></trkpt><trkpt lat="34.00071089555932" lon="8.172198956010728"><ele>62.0</ele><time>2026-04-08T07:21:18Z</time></trkpt><trkpt lat="34.00082304134244" lon="8.172255790966792"><ele>62.0</ele><time>2026-04-08T07:21:20Z</time></trkpt><trkpt lat="34.00088781942542" lon="8.172287965715427"><ele>61.400000000000006</ele><time>2026-04-08T07:21:21Z</time></trkpt><trkpt lat="34.000963612920835" lon="8.172321449127232"><ele>60.800000000000004</ele><time>2026-04-08T07:21:22Z</time></trkpt><trkpt lat="34.00104262271231" lon="8.172357143762042"><ele>60.2</ele><time>2026-04-08T07:21:23Z</time></trkpt><trkpt lat="34.00113072639917" lon="8.172399859752176"><ele>59.6</ele><time>2026-04-08T07:21:24Z</time></trkpt><trkpt lat="34.00122848468502" lon="8.172447223796839"><ele>59.0</ele><time>2026-04-08T07:21:25Z</time></trkpt><trkpt lat="34.00133042217676" lon="8.172497726553951"><ele>59.0</ele><time>2026-04-08T07:21:26Z</time></trkpt><trkpt lat="34.00143505596517" lon="8.172548188053952"><ele>59.0</ele><time>2026-04-08T07:21:27Z</time></trkpt><trkpt lat="34.00154275936182" lon="8.172599314632377"><ele>59.0</ele><time>2026-04-08T07:21:28Z</time></trkpt><trkpt lat="34.00165311945776" lon="8.172649728419186"><ele>59.0</ele><time>2026-04-08T07:21:29Z</time></trkpt><trkpt lat="34.00177124050285" lon="8.172701047383319"><ele>57.25</ele><time>2026-04-08T07:21:30Z</time></trkpt><trkpt lat="34.001891847158966" lon="8.172761256093136"><ele>55.5</ele><time>2026-04-08T07:21:31Z</time></trkpt><trkpt lat="34.00202334107695" lon="8.172820926911161"><ele>53.75</ele><time>2026-04-08T07:21:32Z</time></trkpt><trkpt lat="34.0021611814936" lon="8.17287982717389"><ele>52.0</ele><time>2026-04-08T07:21:33Z</time></trkpt><trkpt lat="34.00230244350435" lon="8.172948577870445"><ele>52.0</ele><time>2026-04-08T07:21:34Z</time></trkpt><trkpt lat="34.002447024844074" lon="8.17301660859231"><ele>52.0</ele><time>2026-04-08T07:21:35Z</time></trkpt><trkpt lat="34.00259459342544" lon="8.173080834998116"><ele>52.0</ele><time>2026-04-08T07:21:36Z</time></trkpt><trkpt lat="34.00273147679737" lon="8.173139415155006"><ele>51.75</ele><time>2026-04-08T07:21:37Z</time></trkpt><trkpt lat="34.00286198237928" lon="8.173203499025268"><ele>51.5</ele><time>2026-04-08T07:21:38Z</time></trkpt><trkpt lat="34.0029912442987" lon="8.173269663096605"><ele>51.25</ele><time>2026-04-08T07:21:39Z</time></trkpt><trkpt lat="34.00312705546841" lon="8.173335341352544"><ele>51.0</ele><time>2026-04-08T07:21:40Z</time></trkpt><trkpt lat="34.00326508586303" lon="8.173395284659946"><ele>51.5</ele><time>2026-04-08T07:21:41Z</time></trkpt><trkpt lat="34.00340511383169" lon="8.173454941089723"><ele>52.0</ele><time>2026-04-08T07:21:42Z</time></trkpt><trkpt lat="34.003545126199604" lon="8.173520002289477"><ele>52.5</ele><time>2026-04-08T07:21:43Z</time></trkpt><trkpt lat="34.00368038094234" lon="8.173586284237178"><ele>53.0</ele><time>2026-04-08T07:21:44Z</time></trkpt><trkpt lat="34.00381722390301" lon="8.173651333368452"><ele>53.0</ele><time>2026-04-08T07:21:45Z</time></trkpt><trkpt lat="34.003951687875144" lon="8.17371768277496"><ele>53.0</ele><time>2026-04-08T07:21:46Z</time></trkpt><trkpt lat="34.00408252245608" lon="8.173791003303648"><ele>53.0</ele><time>2026-04-08T07:21:47Z</time></trkpt><trkpt lat="34.004210716400216" lon="8.17386889446753"><ele>53.0</ele><time>2026-04-08T07:21:48Z</time></trkpt><trkpt lat="34.004334974669014" lon="8.173944421642926"><ele>53.25</ele><time>2026-04-08T07:21:49Z</time></trkpt><trkpt lat="34.00445488894852" lon="8.174026316202252"><ele>53.5</ele><time>2026-04-08T07:21:50Z</time></trkpt><trkpt lat="34.00456901482564" lon="8.17411621047902"><ele>53.75</ele><time>2026-04-08T07:21:51Z</time></trkpt><trkpt lat="34.004678456468284" lon="8.174211454412719"><ele>54.0</ele><time>2026-04-08T07:21:52Z</time></trkpt><trkpt lat="34.00478377717707" lon="8.174309469125689"><ele>54.0</ele><time>2026-04-08T07:21:53Z</time></trkpt><trkpt lat="34.004889560421645" lon="8.174408777663896"><ele>54.0</ele><time>2026-04-08T07:21:54Z</time></trkpt><trkpt lat="34.00499465559491" lon="8.174504821496457"><ele>54.0</ele><time>2026-04-08T07:21:55Z</time></trkpt><trkpt lat="34.00510131174657" lon="8.174604988804193"><ele>54.0</ele><time>2026-04-08T07:21:56Z</time></trkpt><trkpt lat="34.00520689817452" lon="8.174709668805944"><ele>54.0</ele><time>2026-04-08T07:21:57Z</time></trkpt><trkpt lat="34.00531360931031" lon="8.174816961448409"><ele>54.0</ele><time>2026-04-08T07:21:58Z</time></trkpt><trkpt lat="34.00542523843462" lon="8.174927025593675"><ele>54.0</ele><time>2026-04-08T07:21:59Z</time></trkpt><trkpt lat="34.00553843435993" lon="8.17503649287344"><ele>54.0</ele><time>2026-04-08T07:22:00Z</time></trkpt><trkpt lat="34.00565422570382" lon="8.175149904718287"><ele>54.0</ele><time>2026-04-08T07:22:01Z</time></trkpt><trkpt lat="34.00576943399768" lon="8.175264000235186"><ele>54.0</ele><time>2026-04-08T07:22:02Z</time></trkpt><trkpt lat="34.00588781285472" lon="8.175378988467454"><ele>54.0</ele><time>2026-04-08T07:22:03Z</time></trkpt><trkpt lat="34.00600970526177" lon="8.1754940418602"><ele>54.33333333333333</ele><time>2026-04-08T07:22:04Z</time></trkpt><trkpt lat="34.00613108584475" lon="8.175613702231233"><ele>54.666666666666664</ele><time>2026-04-08T07:22:05Z</time></trkpt><trkpt lat="34.006254768513735" lon="8.175735472638644"><ele>55.0</ele><time>2026-04-08T07:22:06Z</time></trkpt><trkpt lat="34.00638275744551" lon="8.175851419775348"><ele>55.0</ele><time>2026-04-08T07:22:07Z</time></trkpt><trkpt lat="34.00650850392779" lon="8.175975022958996"><ele>55.0</ele><time>2026-04-08T07:22:08Z</time></trkpt><trkpt lat="34.006636874695296" lon="8.176101083461166"><ele>55.0</ele><time>2026-04-08T07:22:09Z</time></trkpt><trkpt lat="34.00676952922106" lon="8.176223841902399"><ele>55.0</ele><time>2026-04-08T07:22:10Z</time></trkpt><trkpt lat="34.006898679110236" lon="8.176353871477"><ele>55.0</ele><time>2026-04-08T07:22:11Z</time></trkpt><trkpt lat="34.007029725665525" lon="8.176482093977574"><ele>55.0</ele><time>2026-04-08T07:22:12Z</time></trkpt><trkpt lat="34.00716516567121" lon="8.17661156883322"><ele>55.0</ele><time>2026-04-08T07:22:13Z</time></trkpt><trkpt lat="34.007297175224885" lon="8.176741626850651"><ele>55.0</ele><time>2026-04-08T07:22:14Z</time></trkpt><trkpt lat="34.00743304298385" lon="8.176873142744034"><ele>55.0</ele><time>2026-04-08T07:22:15Z</time></trkpt><trkpt lat="34.00756528973633" lon="8.177002916060529"><ele>54.0</ele><time>2026-04-08T07:22:16Z</time></trkpt><trkpt lat="34.0076966412609" lon="8.177129785450868"><ele>53.0</ele><time>2026-04-08T07:22:17Z</time></trkpt><trkpt lat="34.00782678608571" lon="8.177254374655815"><ele>52.0</ele><time>2026-04-08T07:22:18Z</time></trkpt><trkpt lat="34.00794444617039" lon="8.177371080719789"><ele>52.0</ele><time>2026-04-08T07:22:19Z</time></trkpt><trkpt lat="34.00805809568506" lon="8.17748426946866"><ele>52.0</ele><time>2026-04-08T07:22:20Z</time></trkpt><trkpt lat="34.00817095196459" lon="8.17759517327768"><ele>52.0</ele><time>2026-04-08T07:22:21Z</time></trkpt><trkpt lat="34.00828378225612" lon="8.177705524256337"><ele>52.0</ele><time>2026-04-08T07:22:22Z</time></trkpt><trkpt lat="34.00839796135361" lon="8.177813724471697"><ele>52.25</ele><time>2026-04-08T07:22:23Z</time></trkpt><trkpt lat="34.0085151521555" lon="8.17791986187786"><ele>52.5</ele><time>2026-04-08T07:22:24Z</time></trkpt><trkpt lat="34.0086292658261" lon="8.178028181318233"><ele>52.75</ele><time>2026-04-08T07:22:25Z</time></trkpt><trkpt lat="34.00874116653649" lon="8.178136684823155"><ele>53.0</ele><time>2026-04-08T07:22:26Z</time></trkpt><trkpt lat="34.008848279210774" lon="8.178238870941735"><ele>53.0</ele><time>2026-04-08T07:22:27Z</time></trkpt><trkpt lat="34.008950063365056" lon="8.17833644109793"><ele>53.0</ele><time>2026-04-08T07:22:28Z</time></trkpt><trkpt lat="34.009045794928845" lon="8.178429546056783"><ele>53.0</ele><time>2026-04-08T07:22:29Z</time></trkpt><trkpt lat="34.009139276754034" lon="8.178520670442808"><ele>53.0</ele><time>2026-04-08T07:22:30Z</time></trkpt><trkpt lat="34.00922576504111" lon="8.178606610940088"><ele>52.0</ele><time>2026-04-08T07:22:31Z</time></trkpt><trkpt lat="34.0093092434749" lon="8.178693615445408"><ele>51.0</ele><time>2026-04-08T07:22:32Z</time></trkpt><trkpt lat="34.009389339035586" lon="8.178774004486796"><ele>50.0</ele><time>2026-04-08T07:22:33Z</time></trkpt><trkpt lat="34.00946747058454" lon="8.178850453371954"><ele>49.0</ele><time>2026-04-08T07:22:34Z</time></trkpt><trkpt lat="34.009544268216175" lon="8.178921061855105"><ele>48.0</ele><time>2026-04-08T07:22:35Z</time></trkpt><trkpt lat="34.009610468555806" lon="8.17898388994294"><ele>48.333333333333336</ele><time>2026-04-08T07:22:36Z</time></trkpt><trkpt lat="34.00966213025794" lon="8.179033162838634"><ele>48.66666666666667</ele><time>2026-04-08T07:22:37Z</time></trkpt><trkpt lat="34.00973776118248" lon="8.179123951332656"><ele>49.0</ele><time>2026-04-08T07:22:39Z</time></trkpt><trkpt lat="34.00980520686465" lon="8.179182720110513"><ele>49.333333333333336</ele><time>2026-04-08T07:22:41Z</time></trkpt><trkpt lat="34.00985781075876" lon="8.179252758686777"><ele>49.66666666666667</ele><time>2026-04-08T07:22:43Z</time></trkpt><trkpt lat="34.009884538553784" lon="8.179329672632601"><ele>50.0</ele><time>2026-04-08T07:22:45Z</time></trkpt><trkpt lat="34.00991093773562" lon="8.179418817509987"><ele>50.0</ele><time>2026-04-08T07:22:47Z</time></trkpt><trkpt lat="34.00995851018962" lon="8.179511562200116"><ele>50.0</ele><time>2026-04-08T07:22:49Z</time></trkpt><trkpt lat="34.01005352158726" lon="8.17955840698259"><ele>50.0</ele><time>2026-04-08T07:22:51Z</time></trkpt><trkpt lat="34.01014616201378" lon="8.179509021033084"><ele>50.0</ele><time>2026-04-08T07:22:53Z</time></trkpt><trkpt lat="34.010181242976124" lon="8.179381339706664"><ele>50.0</ele><time>2026-04-08T07:22:55Z</time></trkpt><trkpt lat="34.01020381972523" lon="8.179233125290931"><ele>50.00000000000001</ele><time>2026-04-08T07:22:57Z</time></trkpt><trkpt lat="34.01023870498253" lon="8.179165115642764"><ele>50.0</ele><time>2026-04-08T07:22:58Z</time></trkpt><trkpt lat="34.01028962175607" lon="8.179090901568541"><ele>50.0</ele><time>2026-04-08T07:22:59Z</time></trkpt><trkpt lat="34.01034688137951" lon="8.179013539050565"><ele>50.0</ele><time>2026-04-08T07:23:00Z</time></trkpt><trkpt lat="34.01040844583646" lon="8.178926901398068"><ele>50.00000000000001</ele><time>2026-04-08T07:23:01Z</time></trkpt><trkpt lat="34.01047192940256" lon="8.178830483982932"><ele>50.0</ele><time>2026-04-08T07:23:02Z</time></trkpt><trkpt lat="34.01054424407901" lon="8.17871772612687"><ele>49.25</ele><time>2026-04-08T07:23:03Z</time></trkpt><trkpt lat="34.010627784015405" lon="8.17859241669728"><ele>48.5</ele><time>2026-04-08T07:23:04Z</time></trkpt><trkpt lat="34.01072465547579" lon="8.178457204323209"><ele>47.75</ele><time>2026-04-08T07:23:05Z</time></trkpt><trkpt lat="34.010831285448056" lon="8.17831555116558"><ele>47.0</ele><time>2026-04-08T07:23:06Z</time></trkpt><trkpt lat="34.010934944136096" lon="8.178174131750241"><ele>45.5</ele><time>2026-04-08T07:23:07Z</time></trkpt><trkpt lat="34.011031320009835" lon="8.178043189439324"><ele>44.0</ele><time>2026-04-08T07:23:08Z</time></trkpt><trkpt lat="34.01112618679893" lon="8.17791194095039"><ele>42.5</ele><time>2026-04-08T07:23:09Z</time></trkpt><trkpt lat="34.011226601902074" lon="8.177776763824212"><ele>41.0</ele><time>2026-04-08T07:23:10Z</time></trkpt><trkpt lat="34.0113327836369" lon="8.177634577706453"><ele>41.0</ele><time>2026-04-08T07:23:11Z</time></trkpt><trkpt lat="34.01144670788814" lon="8.177485196401035"><ele>41.0</ele><time>2026-04-08T07:23:12Z</time></trkpt><trkpt lat="34.01156637016533" lon="8.177323435670415"><ele>41.0</ele><time>2026-04-08T07:23:13Z</time></trkpt><trkpt lat="34.01169159684865" lon="8.177149365473705"><ele>40.666666666666664</ele><time>2026-04-08T07:23:14Z</time></trkpt><trkpt lat="34.01182132112597" lon="8.176965310697275"><ele>40.333333333333336</ele><time>2026-04-08T07:23:15Z</time></trkpt><trkpt lat="34.01195916446292" lon="8.1767775927227"><ele>40.0</ele><time>2026-04-08T07:23:16Z</time></trkpt><trkpt lat="34.01211104301144" lon="8.176577096377162"><ele>40.0</ele><time>2026-04-08T07:23:17Z</time></trkpt><trkpt lat="34.01226219777591" lon="8.176376104186485"><ele>40.0</ele><time>2026-04-08T07:23:18Z</time></trkpt><trkpt lat="34.01241596281534" lon="8.176168481833262"><ele>39.5</ele><time>2026-04-08T07:23:19Z</time></trkpt><trkpt lat="34.012569591099926" lon="8.175956844017145"><ele>39.0</ele><time>2026-04-08T07:23:20Z</time></trkpt><trkpt lat="34.01272698550549" lon="8.175745162737465"><ele>37.5</ele><time>2026-04-08T07:23:21Z</time></trkpt><trkpt lat="34.01287787458633" lon="8.17554011811517"><ele>36.0</ele><time>2026-04-08T07:23:22Z</time></trkpt><trkpt lat="34.01303179275252" lon="8.175333702865775"><ele>36.0</ele><time>2026-04-08T07:23:23Z</time></trkpt><trkpt lat="34.01318390091911" lon="8.1751297094544"><ele>36.0</ele><time>2026-04-08T07:23:24Z</time></trkpt><trkpt lat="34.01333979316769" lon="8.174923999798706"><ele>36.0</ele><time>2026-04-08T07:23:25Z</time></trkpt><trkpt lat="34.013491924677396" lon="8.174717735912504"><ele>36.0</ele><time>2026-04-08T07:23:26Z</time></trkpt><trkpt lat="34.01364650171742" lon="8.174511668761093"><ele>36.0</ele><time>2026-04-08T07:23:27Z</time></trkpt><trkpt lat="34.0138025938015" lon="8.17430646320655"><ele>36.0</ele><time>2026-04-08T07:23:28Z</time></trkpt><trkpt lat="34.01395616127914" lon="8.17410637938905"><ele>35.5</ele><time>2026-04-08T07:23:29Z</time></trkpt><trkpt lat="34.01410720751104" lon="8.173900377407309"><ele>35.0</ele><time>2026-04-08T07:23:30Z</time></trkpt><trkpt lat="34.0142581108325" lon="8.17368943186794"><ele>33.0</ele><time>2026-04-08T07:23:31Z</time></trkpt><trkpt lat="34.014407712023015" lon="8.173479547781723"><ele>31.0</ele><time>2026-04-08T07:23:32Z</time></trkpt><trkpt lat="34.01455797801724" lon="8.173272926039822"><ele>31.5</ele><time>2026-04-08T07:23:33Z</time></trkpt><trkpt lat="34.01470999767419" lon="8.173064576837552"><ele>32.0</ele><time>2026-04-08T07:23:34Z</time></trkpt><trkpt lat="34.01486152293583" lon="8.172859655301316"><ele>31.0</ele><time>2026-04-08T07:23:35Z</time></trkpt><trkpt lat="34.01501832306867" lon="8.172651539414229"><ele>30.0</ele><time>2026-04-08T07:23:36Z</time></trkpt><trkpt lat="34.01517041359571" lon="8.172451870254818"><ele>30.0</ele><time>2026-04-08T07:23:37Z</time></trkpt><trkpt lat="34.015324491375274" lon="8.172248405073624"><ele>30.0</ele><time>2026-04-08T07:23:38Z</time></trkpt><trkpt lat="34.015477979933095" lon="8.172041955304117"><ele>30.0</ele><time>2026-04-08T07:23:39Z</time></trkpt><trkpt lat="34.01562825921296" lon="8.171836953228459"><ele>30.0</ele><time>2026-04-08T07:23:40Z</time></trkpt><trkpt lat="34.015781401319586" lon="8.171627558817693"><ele>29.5</ele><time>2026-04-08T07:23:41Z</time></trkpt><trkpt lat="34.01593442989067" lon="8.171422737508324"><ele>29.0</ele><time>2026-04-08T07:23:42Z</time></trkpt><trkpt lat="34.01608956330709" lon="8.171218110177895"><ele>29.0</ele><time>2026-04-08T07:23:43Z</time></trkpt><trkpt lat="34.01624440951036" lon="8.171013882709996"><ele>29.0</ele><time>2026-04-08T07:23:44Z</time></trkpt><trkpt lat="34.01639566759577" lon="8.170807339088054"><ele>29.0</ele><time>2026-04-08T07:23:45Z</time></trkpt><trkpt lat="34.01654756792173" lon="8.17060178426382"><ele>29.0</ele><time>2026-04-08T07:23:46Z</time></trkpt><trkpt lat="34.0166978691304" lon="8.170394728502515"><ele>28.0</ele><time>2026-04-08T07:23:47Z</time></trkpt><trkpt lat="34.01685033800889" lon="8.170190294708506"><ele>27.0</ele><time>2026-04-08T07:23:48Z</time></trkpt><trkpt lat="34.01700481954989" lon="8.169985331374631"><ele>26.5</ele><time>2026-04-08T07:23:49Z</time></trkpt><trkpt lat="34.01716204724882" lon="8.169780926643565"><ele>26.0</ele><time>2026-04-08T07:23:50Z</time></trkpt><trkpt lat="34.01731445488647" lon="8.169574011787766"><ele>26.0</ele><time>2026-04-08T07:23:51Z</time></trkpt><trkpt lat="34.01746965622775" lon="8.169368812217076"><ele>26.0</ele><time>2026-04-08T07:23:52Z</time></trkpt><trkpt lat="34.01762378102367" lon="8.169164463746148"><ele>25.5</ele><time>2026-04-08T07:23:53Z</time></trkpt><trkpt lat="34.01777654738831" lon="8.168959894205358"><ele>25.0</ele><time>2026-04-08T07:23:54Z</time></trkpt><trkpt lat="34.0179314242954" lon="8.168754447081518"><ele>25.0</ele><time>2026-04-08T07:23:55Z</time></trkpt><trkpt lat="34.01808334632404" lon="8.168549010760273"><ele>25.0</ele><time>2026-04-08T07:23:56Z</time></trkpt><trkpt lat="34.01823983353166" lon="8.168344225500585"><ele>25.0</ele><time>2026-04-08T07:23:57Z</time></trkpt><trkpt lat="34.01839332418808" lon="8.168142946303435"><ele>25.0</ele><time>2026-04-08T07:23:58Z</time></trkpt><trkpt lat="34.01854874803389" lon="8.167940614447977"><ele>25.0</ele><time>2026-04-08T07:23:59Z</time></trkpt><trkpt lat="34.01870306917333" lon="8.167740472760945"><ele>25.0</ele><time>2026-04-08T07:24:00Z</time></trkpt><trkpt lat="34.018854138991806" lon="8.167539005882588"><ele>24.5</ele><time>2026-04-08T07:24:01Z</time></trkpt><trkpt lat="34.019005689130275" lon="8.167336030062765"><ele>24.0</ele><time>2026-04-08T07:24:02Z</time></trkpt><trkpt lat="34.019157184647945" lon="8.167132989139047"><ele>23.5</ele><time>2026-04-08T07:24:03Z</time></trkpt><trkpt lat="34.01930752503948" lon="8.166930126928712"><ele>23.0</ele><time>2026-04-08T07:24:04Z</time></trkpt><trkpt lat="34.01945780689479" lon="8.166726863091183"><ele>22.5</ele><time>2026-04-08T07:24:05Z</time></trkpt><trkpt lat="34.0196138164545" lon="8.166519891903402"><ele>22.0</ele><time>2026-04-08T07:24:06Z</time></trkpt><trkpt lat="34.01976745674049" lon="8.166316052067401"><ele>22.0</ele><time>2026-04-08T07:24:07Z</time></trkpt><trkpt lat="34.019920985005434" lon="8.166115354285546"><ele>22.0</ele><time>2026-04-08T07:24:08Z</time></trkpt><trkpt lat="34.020076202261976" lon="8.165913126536399"><ele>22.0</ele><time>2026-04-08T07:24:09Z</time></trkpt><trkpt lat="34.02022840396299" lon="8.165715448012296"><ele>22.0</ele><time>2026-04-08T07:24:10Z</time></trkpt><trkpt lat="34.02038201007693" lon="8.16550983907856"><ele>22.5</ele><time>2026-04-08T07:24:11Z</time></trkpt><trkpt lat="34.02053112211145" lon="8.16530216025221"><ele>23.0</ele><time>2026-04-08T07:24:12Z</time></trkpt><trkpt lat="34.02068327742952" lon="8.165092695853874"><ele>22.5</ele><time>2026-04-08T07:24:13Z</time></trkpt><trkpt lat="34.020832553068814" lon="8.164889483774857"><ele>22.0</ele><time>2026-04-08T07:24:14Z</time></trkpt><trkpt lat="34.02098756834929" lon="8.16468286983734"><ele>22.0</ele><time>2026-04-08T07:24:15Z</time></trkpt><trkpt lat="34.02114487093226" lon="8.16447886614293"><ele>22.0</ele><time>2026-04-08T07:24:16Z</time></trkpt><trkpt lat="34.02129892446723" lon="8.164277550120538"><ele>22.0</ele><time>2026-04-08T07:24:17Z</time></trkpt><trkpt lat="34.021457555105805" lon="8.164069353273575"><ele>22.0</ele><time>2026-04-08T07:24:18Z</time></trkpt><trkpt lat="34.02161339082333" lon="8.163863007553886"><ele>21.5</ele><time>2026-04-08T07:24:19Z</time></trkpt><trkpt lat="34.021772260388595" lon="8.16364819271389"><ele>21.0</ele><time>2026-04-08T07:24:20Z</time></trkpt><trkpt lat="34.02193474741544" lon="8.163431430958092"><ele>21.0</ele><time>2026-04-08T07:24:21Z</time></trkpt><trkpt lat="34.022096875797345" lon="8.163216659386983"><ele>21.0</ele><time>2026-04-08T07:24:22Z</time></trkpt><trkpt lat="34.02226355599668" lon="8.163000281789836"><ele>21.5</ele><time>2026-04-08T07:24:23Z</time></trkpt><trkpt lat="34.022428035051846" lon="8.16278379652482"><ele>22.0</ele><time>2026-04-08T07:24:24Z</time></trkpt><trkpt lat="34.0225884806191" lon="8.162570938458593"><ele>20.5</ele><time>2026-04-08T07:24:25Z</time></trkpt><trkpt lat="34.02274778959667" lon="8.16235905613227"><ele>19.0</ele><time>2026-04-08T07:24:26Z</time></trkpt><trkpt lat="34.02291077147536" lon="8.16214601048776"><ele>19.0</ele><time>2026-04-08T07:24:27Z</time></trkpt><trkpt lat="34.023070320175215" lon="8.16193234622457"><ele>19.0</ele><time>2026-04-08T07:24:28Z</time></trkpt><trkpt lat="34.02323088645509" lon="8.16172082415819"><ele>18.0</ele><time>2026-04-08T07:24:29Z</time></trkpt><trkpt lat="34.02339299396873" lon="8.161508096158247"><ele>17.0</ele><time>2026-04-08T07:24:30Z</time></trkpt><trkpt lat="34.02355750094402" lon="8.161295213947133"><ele>17.0</ele><time>2026-04-08T07:24:31Z</time></trkpt><trkpt lat="34.02371942582525" lon="8.161080234201178"><ele>17.0</ele><time>2026-04-08T07:24:32Z</time></trkpt><trkpt lat="34.02387901329219" lon="8.16086420681063"><ele>17.0</ele><time>2026-04-08T07:24:33Z</time></trkpt><trkpt lat="34.02403570327024" lon="8.160648621050703"><ele>17.0</ele><time>2026-04-08T07:24:34Z</time></trkpt><trkpt lat="34.0241924280273" lon="8.160430521591666"><ele>16.5</ele><time>2026-04-08T07:24:35Z</time></trkpt><trkpt lat="34.02435314659464" lon="8.160217110362506"><ele>16.0</ele><time>2026-04-08T07:24:36Z</time></trkpt><trkpt lat="34.024515678481485" lon="8.160003762039706"><ele>16.0</ele><time>2026-04-08T07:24:37Z</time></trkpt><trkpt lat="34.02467666745582" lon="8.15978881075585"><ele>16.0</ele><time>2026-04-08T07:24:38Z</time></trkpt><trkpt lat="34.02483341862268" lon="8.159575309575926"><ele>14.5</ele><time>2026-04-08T07:24:39Z</time></trkpt><trkpt lat="34.02499350950076" lon="8.159362920752995"><ele>13.0</ele><time>2026-04-08T07:24:40Z</time></trkpt><trkpt lat="34.02515506578728" lon="8.159146064857278"><ele>13.5</ele><time>2026-04-08T07:24:41Z</time></trkpt><trkpt lat="34.02531650844391" lon="8.158934272806276"><ele>14.0</ele><time>2026-04-08T07:24:42Z</time></trkpt><trkpt lat="34.02547578839438" lon="8.158716495031921"><ele>14.0</ele><time>2026-04-08T07:24:43Z</time></trkpt><trkpt lat="34.02563472265857" lon="8.15849631341684"><ele>14.0</ele><time>2026-04-08T07:24:44Z</time></trkpt><trkpt lat="34.02579153318083" lon="8.15828461891568"><ele>13.0</ele><time>2026-04-08T07:24:45Z</time></trkpt><trkpt lat="34.025951808308044" lon="8.158069223107033"><ele>12.0</ele><time>2026-04-08T07:24:46Z</time></trkpt><trkpt lat="34.02611205901355" lon="8.15785204548489"><ele>12.0</ele><time>2026-04-08T07:24:47Z</time></trkpt><trkpt lat="34.026272163847395" lon="8.157636968980146"><ele>12.0</ele><time>2026-04-08T07:24:48Z</time></trkpt><trkpt lat="34.026433257306756" lon="8.157422341060318"><ele>12.0</ele><time>2026-04-08T07:24:49Z</time></trkpt><trkpt lat="34.02659637277677" lon="8.157209221092959"><ele>12.0</ele><time>2026-04-08T07:24:50Z</time></trkpt><trkpt lat="34.0267570568075" lon="8.15699954038599"><ele>11.5</ele><time>2026-04-08T07:24:51Z</time></trkpt><trkpt lat="34.02692239401035" lon="8.156789052401237"><ele>11.0</ele><time>2026-04-08T07:24:52Z</time></trkpt><trkpt lat="34.02709208206651" lon="8.156568630934576"><ele>11.0</ele><time>2026-04-08T07:24:53Z</time></trkpt><trkpt lat="34.027261178614246" lon="8.156345674990378"><ele>11.0</ele><time>2026-04-08T07:24:54Z</time></trkpt><trkpt lat="34.027439857399685" lon="8.156102966584674"><ele>11.0</ele><time>2026-04-08T07:24:55Z</time></trkpt><trkpt lat="34.027612849737004" lon="8.155866022359898"><ele>11.0</ele><time>2026-04-08T07:24:56Z</time></trkpt><trkpt lat="34.02778837638802" lon="8.155628049328701"><ele>11.0</ele><time>2026-04-08T07:24:57Z</time></trkpt><trkpt lat="34.02796469491276" lon="8.155390302194874"><ele>11.0</ele><time>2026-04-08T07:24:58Z</time></trkpt><trkpt lat="34.028141347842364" lon="8.15515226378761"><ele>9.5</ele><time>2026-04-08T07:24:59Z</time></trkpt><trkpt lat="34.02831991154424" lon="8.154917172954672"><ele>8.0</ele><time>2026-04-08T07:25:00Z</time></trkpt><trkpt lat="34.02850007729563" lon="8.154680967971064"><ele>8.0</ele><time>2026-04-08T07:25:01Z</time></trkpt><trkpt lat="34.0286797573151" lon="8.154447116961492"><ele>8.0</ele><time>2026-04-08T07:25:02Z</time></trkpt><trkpt lat="34.0288573034263" lon="8.15421073581313"><ele>8.0</ele><time>2026-04-08T07:25:03Z</time></trkpt><trkpt lat="34.029033277160316" lon="8.153976813995055"><ele>8.0</ele><time>2026-04-08T07:25:04Z</time></trkpt><trkpt lat="34.02921003277764" lon="8.153736798469671"><ele>8.0</ele><time>2026-04-08T07:25:05Z</time></trkpt><trkpt lat="34.02938918978242" lon="8.153493390350338"><ele>8.0</ele><time>2026-04-08T07:25:06Z</time></trkpt><trkpt lat="34.02956754702974" lon="8.153258341692325"><ele>7.5</ele><time>2026-04-08T07:25:07Z</time></trkpt><trkpt lat="34.029740610356065" lon="8.153025013690137"><ele>7.0</ele><time>2026-04-08T07:25:08Z</time></trkpt><trkpt lat="34.02991672282713" lon="8.152794541383903"><ele>7.0</ele><time>2026-04-08T07:25:09Z</time></trkpt><trkpt lat="34.03009691713618" lon="8.1525568385404"><ele>7.0</ele><time>2026-04-08T07:25:10Z</time></trkpt><trkpt lat="34.03027765041248" lon="8.15232869591248"><ele>7.0</ele><time>2026-04-08T07:25:11Z</time></trkpt><trkpt lat="34.030458317221935" lon="8.152091657449425"><ele>7.0</ele><time>2026-04-08T07:25:12Z</time></trkpt><trkpt lat="34.03063908973366" lon="8.151856363585587"><ele>6.5</ele><time>2026-04-08T07:25:13Z</time></trkpt><trkpt lat="34.03081698923753" lon="8.15161917603557"><ele>6.0</ele><time>2026-04-08T07:25:14Z</time></trkpt><trkpt lat="34.03099664408928" lon="8.15138369890824"><ele>6.0</ele><time>2026-04-08T07:25:15Z</time></trkpt><trkpt lat="34.03117359056627" lon="8.151150234370453"><ele>6.0</ele><time>2026-04-08T07:25:16Z</time></trkpt><trkpt lat="34.031352835425054" lon="8.15091186233972"><ele>5.5</ele><time>2026-04-08T07:25:17Z</time></trkpt><trkpt lat="34.031529256189295" lon="8.150675519591585"><ele>5.0</ele><time>2026-04-08T07:25:18Z</time></trkpt><trkpt lat="34.031705333675006" lon="8.150439262686506"><ele>4.0</ele><time>2026-04-08T07:25:19Z</time></trkpt><trkpt lat="34.03188194000175" lon="8.150203409053196"><ele>3.0</ele><time>2026-04-08T07:25:20Z</time></trkpt><trkpt lat="34.03205699471433" lon="8.149965249026106"><ele>3.5</ele><time>2026-04-08T07:25:21Z</time></trkpt><trkpt lat="34.03223220714071" lon="8.149725855671594"><ele>4.0</ele><time>2026-04-08T07:25:22Z</time></trkpt><trkpt lat="34.032407215172746" lon="8.14948665138951"><ele>4.0</ele><time>2026-04-08T07:25:23Z</time></trkpt><trkpt lat="34.03258636032602" lon="8.149253483499782"><ele>4.0</ele><time>2026-04-08T07:25:24Z</time></trkpt><trkpt lat="34.03276289967159" lon="8.149014996160979"><ele>4.0</ele><time>2026-04-08T07:25:25Z</time></trkpt><trkpt lat="34.032941737127636" lon="8.148779193697363"><ele>4.0</ele><time>2026-04-08T07:25:26Z</time></trkpt><trkpt lat="34.0331198673524" lon="8.148539779184167"><ele>4.0</ele><time>2026-04-08T07:25:27Z</time></trkpt><trkpt lat="34.03329841661457" lon="8.148303656593244"><ele>4.0</ele><time>2026-04-08T07:25:28Z</time></trkpt><trkpt lat="34.03347597868588" lon="8.148068312660271"><ele>2.5</ele><time>2026-04-08T07:25:29Z</time></trkpt><trkpt lat="34.03365521580248" lon="8.147831384008057"><ele>1.0</ele><time>2026-04-08T07:25:30Z</time></trkpt><trkpt lat="34.03383559059759" lon="8.147601945517247"><ele>1.0</ele><time>2026-04-08T07:25:31Z</time></trkpt><trkpt lat="34.034015275300185" lon="8.147365123279414"><ele>1.0</ele><time>2026-04-08T07:25:32Z</time></trkpt><trkpt lat="34.03419177547034" lon="8.14712907006386"><ele>1.0</ele><time>2026-04-08T07:25:33Z</time></trkpt><trkpt lat="34.034366975915766" lon="8.146891987131223"><ele>1.0</ele><time>2026-04-08T07:25:34Z</time></trkpt><trkpt lat="34.03454347451773" lon="8.146655378477783"><ele>1.0</ele><time>2026-04-08T07:25:35Z</time></trkpt><trkpt lat="34.034721165929234" lon="8.146421246716352"><ele>1.0</ele><time>2026-04-08T07:25:36Z</time></trkpt><trkpt lat="34.03490406316382" lon="8.146188777189515"><ele>1.0</ele><time>2026-04-08T07:25:37Z</time></trkpt><trkpt lat="34.035092125984406" lon="8.145971719558577"><ele>1.0</ele><time>2026-04-08T07:25:38Z</time></trkpt><trkpt lat="34.03529015974132" lon="8.145763668978589"><ele>0.5</ele><time>2026-04-08T07:25:39Z</time></trkpt><trkpt lat="34.035496549252045" lon="8.145556477713573"><ele>0.0</ele><time>2026-04-08T07:25:40Z</time></trkpt><trkpt lat="34.03570843229961" lon="8.145369013248345"><ele>0.0</ele><time>2026-04-08T07:25:41Z</time></trkpt><trkpt lat="34.035930587742484" lon="8.145193335764361"><ele>0.0</ele><time>2026-04-08T07:25:42Z</time></trkpt><trkpt lat="34.03615853689912" lon="8.145033171318834"><ele>0.0</ele><time>2026-04-08T07:25:43Z</time></trkpt><trkpt lat="34.03639072996707" lon="8.14488141489174"><ele>0.0</ele><time>2026-04-08T07:25:44Z</time></trkpt><trkpt lat="34.036625745951646" lon="8.144737461105246"><ele>-1.5</ele><time>2026-04-08T07:25:45Z</time></trkpt><trkpt lat="34.03686253788392" lon="8.144590623452107"><ele>-3.0</ele><time>2026-04-08T07:25:46Z</time></trkpt><trkpt lat="34.037096256112854" lon="8.144445507120833"><ele>-3.0</ele><time>2026-04-08T07:25:47Z</time></trkpt><trkpt lat="34.03732953058114" lon="8.144302528757192"><ele>-3.0</ele><time>2026-04-08T07:25:48Z</time></trkpt><trkpt lat="34.037565177467364" lon="8.14415637817188"><ele>-2.0</ele><time>2026-04-08T07:25:49Z</time></trkpt><trkpt lat="34.03779955968036" lon="8.144014896278005"><ele>-1.0</ele><time>2026-04-08T07:25:50Z</time></trkpt><trkpt lat="34.03803398119483" lon="8.143874076040523"><ele>-1.0</ele><time>2026-04-08T07:25:51Z</time></trkpt><trkpt lat="34.03826959556923" lon="8.143732578770933"><ele>-1.0</ele><time>2026-04-08T07:25:52Z</time></trkpt><trkpt lat="34.038506489298705" lon="8.143584654551491"><ele>-1.5</ele><time>2026-04-08T07:25:53Z</time></trkpt><trkpt lat="34.03874177692257" lon="8.143441407522952"><ele>-2.0</ele><time>2026-04-08T07:25:54Z</time></trkpt><trkpt lat="34.03897523679062" lon="8.14329609186081"><ele>-2.5</ele><time>2026-04-08T07:25:55Z</time></trkpt><trkpt lat="34.03920783425553" lon="8.14314747189936"><ele>-3.0</ele><time>2026-04-08T07:25:56Z</time></trkpt><trkpt lat="34.039436431142455" lon="8.143000354190352"><ele>-3.0</ele><time>2026-04-08T07:25:57Z</time></trkpt><trkpt lat="34.03965820602589" lon="8.1428625256479"><ele>-3.0</ele><time>2026-04-08T07:25:58Z</time></trkpt><trkpt lat="34.039880565515745" lon="8.1427249158761"><ele>-3.5</ele><time>2026-04-08T07:25:59Z</time></trkpt><trkpt lat="34.04009827518643" lon="8.14259101924719"><ele>-4.0</ele><time>2026-04-08T07:26:00Z</time></trkpt><trkpt lat="34.04031473292531" lon="8.142454398656936"><ele>-4.0</ele><time>2026-04-08T07:26:01Z</time></trkpt><trkpt lat="34.040529645891624" lon="8.142312953879644"><ele>-4.0</ele><time>2026-04-08T07:26:02Z</time></trkpt><trkpt lat="34.0407399201658" lon="8.142179231765642"><ele>-4.0</ele><time>2026-04-08T07:26:03Z</time></trkpt><trkpt lat="34.0409558961809" lon="8.142043562179484"><ele>-4.0</ele><time>2026-04-08T07:26:04Z</time></trkpt><trkpt lat="34.04117262204128" lon="8.141912812966233"><ele>-4.0</ele><time>2026-04-08T07:26:05Z</time></trkpt><trkpt lat="34.041389725973495" lon="8.14178070663218"><ele>-4.0</ele><time>2026-04-08T07:26:06Z</time></trkpt><trkpt lat="34.041607636081345" lon="8.14163614930589"><ele>-4.5</ele><time>2026-04-08T07:26:07Z</time></trkpt><trkpt lat="34.041824437360475" lon="8.141488074740732"><ele>-5.0</ele><time>2026-04-08T07:26:08Z</time></trkpt><trkpt lat="34.042048428351556" lon="8.14134782386954"><ele>-5.0</ele><time>2026-04-08T07:26:09Z</time></trkpt><trkpt lat="34.04227328250496" lon="8.141211438260298"><ele>-5.0</ele><time>2026-04-08T07:26:10Z</time></trkpt><trkpt lat="34.042499356004846" lon="8.141064548881042"><ele>-5.0</ele><time>2026-04-08T07:26:11Z</time></trkpt><trkpt lat="34.04272531123844" lon="8.140930834250154"><ele>-5.0</ele><time>2026-04-08T07:26:12Z</time></trkpt><trkpt lat="34.04295254713165" lon="8.140795364838413"><ele>-5.5</ele><time>2026-04-08T07:26:13Z</time></trkpt><trkpt lat="34.04317926094334" lon="8.140650812264072"><ele>-6.0</ele><time>2026-04-08T07:26:14Z</time></trkpt><trkpt lat="34.04340120937603" lon="8.140509805137063"><ele>-6.0</ele><time>2026-04-08T07:26:15Z</time></trkpt><trkpt lat="34.043623956383705" lon="8.14037380096012"><ele>-6.0</ele><time>2026-04-08T07:26:16Z</time></trkpt><trkpt lat="34.04384869346127" lon="8.140231711252278"><ele>-6.0</ele><time>2026-04-08T07:26:17Z</time></trkpt><trkpt lat="34.04407049049199" lon="8.140095108303395"><ele>-6.0</ele><time>2026-04-08T07:26:18Z</time></trkpt><trkpt lat="34.04429864597701" lon="8.139955597040773"><ele>-6.5</ele><time>2026-04-08T07:26:19Z</time></trkpt><trkpt lat="34.04452194884296" lon="8.13981480101929"><ele>-7.0</ele><time>2026-04-08T07:26:20Z</time></trkpt><trkpt lat="34.04474821757598" lon="8.13967226186519"><ele>-6.0</ele><time>2026-04-08T07:26:21Z</time></trkpt><trkpt lat="34.04496726707401" lon="8.139527012077679"><ele>-5.0</ele><time>2026-04-08T07:26:22Z</time></trkpt><trkpt lat="34.0451842773193" lon="8.139377705075454"><ele>-5.0</ele><time>2026-04-08T07:26:23Z</time></trkpt><trkpt lat="34.04540743930107" lon="8.139236944071545"><ele>-5.0</ele><time>2026-04-08T07:26:24Z</time></trkpt><trkpt lat="34.04564080434457" lon="8.13909968219018"><ele>-5.5</ele><time>2026-04-08T07:26:25Z</time></trkpt><trkpt lat="34.045861048053105" lon="8.13896552745617"><ele>-6.0</ele><time>2026-04-08T07:26:26Z</time></trkpt><trkpt lat="34.046086534893846" lon="8.138823684961661"><ele>-6.0</ele><time>2026-04-08T07:26:27Z</time></trkpt><trkpt lat="34.04629766655162" lon="8.13867439209186"><ele>-6.0</ele><time>2026-04-08T07:26:28Z</time></trkpt><trkpt lat="34.0465205470925" lon="8.138530964769576"><ele>-6.5</ele><time>2026-04-08T07:26:29Z</time></trkpt><trkpt lat="34.04673761158536" lon="8.13839051708265"><ele>-7.0</ele><time>2026-04-08T07:26:30Z</time></trkpt><trkpt lat="34.04695666730927" lon="8.138249291538596"><ele>-7.0</ele><time>2026-04-08T07:26:31Z</time></trkpt><trkpt lat="34.047180540991945" lon="8.138110197517758"><ele>-7.0</ele><time>2026-04-08T07:26:32Z</time></trkpt><trkpt lat="34.047391827286006" lon="8.137969190437154"><ele>-7.0</ele><time>2026-04-08T07:26:33Z</time></trkpt><trkpt lat="34.04761304184468" lon="8.137839994916279"><ele>-7.0</ele><time>2026-04-08T07:26:34Z</time></trkpt><trkpt lat="34.04780402557726" lon="8.13770335194803"><ele>-7.0</ele><time>2026-04-08T07:26:35Z</time></trkpt><trkpt lat="34.04799671643998" lon="8.137583282114818"><ele>-7.0</ele><time>2026-04-08T07:26:36Z</time></trkpt><trkpt lat="34.048180694481054" lon="8.13747636838132"><ele>-7.0</ele><time>2026-04-08T07:26:37Z</time></trkpt><trkpt lat="34.0483578440438" lon="8.1373690799014"><ele>-7.0</ele><time>2026-04-08T07:26:38Z</time></trkpt><trkpt lat="34.048534511947935" lon="8.13725445727036"><ele>-7.0</ele><time>2026-04-08T07:26:39Z</time></trkpt><trkpt lat="34.048717643444256" lon="8.13713920241682"><ele>-7.0</ele><time>2026-04-08T07:26:40Z</time></trkpt><trkpt lat="34.04890732378616" lon="8.13702325028048"><ele>-7.0</ele><time>2026-04-08T07:26:41Z</time></trkpt><trkpt lat="34.049099493875616" lon="8.136904227758498"><ele>-7.0</ele><time>2026-04-08T07:26:42Z</time></trkpt><trkpt lat="34.049300968299896" lon="8.136778519424189"><ele>-7.0</ele><time>2026-04-08T07:26:43Z</time></trkpt><trkpt lat="34.04950341464011" lon="8.136651749753753"><ele>-8.0</ele><time>2026-04-08T07:26:44Z</time></trkpt><trkpt lat="34.04971129569275" lon="8.136516450751403"><ele>-9.0</ele><time>2026-04-08T07:26:45Z</time></trkpt><trkpt lat="34.04992338239424" lon="8.136381523752911"><ele>-8.5</ele><time>2026-04-08T07:26:46Z</time></trkpt><trkpt lat="34.050140339020736" lon="8.136256176606853"><ele>-8.0</ele><time>2026-04-08T07:26:47Z</time></trkpt><trkpt lat="34.05034840608288" lon="8.136132827691261"><ele>-8.0</ele><time>2026-04-08T07:26:48Z</time></trkpt><trkpt lat="34.05056112687496" lon="8.135995045143314"><ele>-8.0</ele><time>2026-04-08T07:26:49Z</time></trkpt><trkpt lat="34.05077458620391" lon="8.135858750436478"><ele>-8.0</ele><time>2026-04-08T07:26:50Z</time></trkpt><trkpt lat="34.05098135473464" lon="8.135725153328252"><ele>-8.0</ele><time>2026-04-08T07:26:51Z</time></trkpt><trkpt lat="34.05118492016536" lon="8.13559732451556"><ele>-8.5</ele><time>2026-04-08T07:26:52Z</time></trkpt><trkpt lat="34.05138464541853" lon="8.135464067767193"><ele>-9.0</ele><time>2026-04-08T07:26:53Z</time></trkpt><trkpt lat="34.051585348119815" lon="8.135340207887573"><ele>-8.666666666666666</ele><time>2026-04-08T07:26:54Z</time></trkpt><trkpt lat="34.05178469666714" lon="8.135218644435886"><ele>-8.333333333333332</ele><time>2026-04-08T07:26:55Z</time></trkpt><trkpt lat="34.05197521821667" lon="8.13509296984707"><ele>-8.0</ele><time>2026-04-08T07:26:56Z</time></trkpt><trkpt lat="34.052169333189305" lon="8.134964427545562"><ele>-8.0</ele><time>2026-04-08T07:26:57Z</time></trkpt><trkpt lat="34.05236795398517" lon="8.134838966976037"><ele>-8.0</ele><time>2026-04-08T07:26:58Z</time></trkpt><trkpt lat="34.05256960179807" lon="8.134714670030968"><ele>-7.666666666666666</ele><time>2026-04-08T07:26:59Z</time></trkpt><trkpt lat="34.05276820414248" lon="8.134585327530557"><ele>-7.333333333333334</ele><time>2026-04-08T07:27:00Z</time></trkpt><trkpt lat="34.05296434176195" lon="8.134458672614086"><ele>-7.0</ele><time>2026-04-08T07:27:01Z</time></trkpt><trkpt lat="34.05316554188681" lon="8.134332231267182"><ele>-7.0</ele><time>2026-04-08T07:27:02Z</time></trkpt><trkpt lat="34.05336901734126" lon="8.134205420588431"><ele>-7.0</ele><time>2026-04-08T07:27:03Z</time></trkpt><trkpt lat="34.05356839164506" lon="8.134078688272254"><ele>-8.5</ele><time>2026-04-08T07:27:04Z</time></trkpt><trkpt lat="34.05376605283039" lon="8.133950084474913"><ele>-10.0</ele><time>2026-04-08T07:27:05Z</time></trkpt><trkpt lat="34.05396477808024" lon="8.133822328317653"><ele>-9.5</ele><time>2026-04-08T07:27:06Z</time></trkpt><trkpt lat="34.05417011896264" lon="8.133695661409332"><ele>-9.0</ele><time>2026-04-08T07:27:07Z</time></trkpt><trkpt lat="34.054374694221586" lon="8.133567912245786"><ele>-9.0</ele><time>2026-04-08T07:27:08Z</time></trkpt><trkpt lat="34.05457649069112" lon="8.133429124735047"><ele>-9.0</ele><time>2026-04-08T07:27:09Z</time></trkpt><trkpt lat="34.054790553007" lon="8.133293783047627"><ele>-8.0</ele><time>2026-04-08T07:27:10Z</time></trkpt><trkpt lat="34.05500991050268" lon="8.13315896072496"><ele>-7.0</ele><time>2026-04-08T07:27:11Z</time></trkpt><trkpt lat="34.05523215763824" lon="8.133018788618179"><ele>-7.0</ele><time>2026-04-08T07:27:12Z</time></trkpt><trkpt lat="34.05545427466829" lon="8.132876146809963"><ele>-7.0</ele><time>2026-04-08T07:27:13Z</time></trkpt><trkpt lat="34.055677794944366" lon="8.132727152749881"><ele>-7.0</ele><time>2026-04-08T07:27:14Z</time></trkpt><trkpt lat="34.05590222965015" lon="8.132574038238626"><ele>-7.0</ele><time>2026-04-08T07:27:15Z</time></trkpt><trkpt lat="34.05612533499698" lon="8.132415205337765"><ele>-8.0</ele><time>2026-04-08T07:27:16Z</time></trkpt><trkpt lat="34.05634759098521" lon="8.132250010937923"><ele>-9.0</ele><time>2026-04-08T07:27:17Z</time></trkpt><trkpt lat="34.056571511867425" lon="8.132084567746237"><ele>-8.5</ele><time>2026-04-08T07:27:18Z</time></trkpt><trkpt lat="34.056797493095466" lon="8.131919497156344"><ele>-8.0</ele><time>2026-04-08T07:27:19Z</time></trkpt><trkpt lat="34.05702507390782" lon="8.131754586358598"><ele>-8.0</ele><time>2026-04-08T07:27:20Z</time></trkpt><trkpt lat="34.057253778332885" lon="8.131590957036824"><ele>-8.0</ele><time>2026-04-08T07:27:21Z</time></trkpt><trkpt lat="34.05748443236269" lon="8.131428815789421"><ele>-8.0</ele><time>2026-04-08T07:27:22Z</time></trkpt><trkpt lat="34.05771718927786" lon="8.131266623550152"><ele>-8.0</ele><time>2026-04-08T07:27:23Z</time></trkpt><trkpt lat="34.057950716756764" lon="8.131106093803295"><ele>-8.0</ele><time>2026-04-08T07:27:24Z</time></trkpt><trkpt lat="34.058185871860296" lon="8.130942942491691"><ele>-8.0</ele><time>2026-04-08T07:27:25Z</time></trkpt><trkpt lat="34.05842150322401" lon="8.130781165998387"><ele>-8.0</ele><time>2026-04-08T07:27:26Z</time></trkpt><trkpt lat="34.05865826946539" lon="8.130624395404393"><ele>-8.0</ele><time>2026-04-08T07:27:27Z</time></trkpt><trkpt lat="34.05889424127887" lon="8.130475975033136"><ele>-8.0</ele><time>2026-04-08T07:27:28Z</time></trkpt><trkpt lat="34.05913243840284" lon="8.130331247169082"><ele>-8.0</ele><time>2026-04-08T07:27:29Z</time></trkpt><trkpt lat="34.0593718681688" lon="8.130182497780265"><ele>-8.0</ele><time>2026-04-08T07:27:30Z</time></trkpt><trkpt lat="34.05960677385948" lon="8.130035133897659"><ele>-8.0</ele><time>2026-04-08T07:27:31Z</time></trkpt><trkpt lat="34.05984796076814" lon="8.129888031478409"><ele>-8.5</ele><time>2026-04-08T07:27:32Z</time></trkpt><trkpt lat="34.060090459578824" lon="8.129737415894352"><ele>-9.0</ele><time>2026-04-08T07:27:33Z</time></trkpt><trkpt lat="34.06033190239451" lon="8.129583201787469"><ele>-9.0</ele><time>2026-04-08T07:27:34Z</time></trkpt><trkpt lat="34.06057151954391" lon="8.129424043726438"><ele>-9.0</ele><time>2026-04-08T07:27:35Z</time></trkpt><trkpt lat="34.06081381673677" lon="8.129260424927578"><ele>-8.0</ele><time>2026-04-08T07:27:36Z</time></trkpt><trkpt lat="34.06105384898868" lon="8.129098771833425"><ele>-7.0</ele><time>2026-04-08T07:27:37Z</time></trkpt><trkpt lat="34.061291949662476" lon="8.128939405061557"><ele>-7.0</ele><time>2026-04-08T07:27:38Z</time></trkpt><trkpt lat="34.0615324745024" lon="8.128782193995288"><ele>-7.0</ele><time>2026-04-08T07:27:39Z</time></trkpt><trkpt lat="34.061772437006766" lon="8.128637374153213"><ele>-8.0</ele><time>2026-04-08T07:27:40Z</time></trkpt><trkpt lat="34.06201544654989" lon="8.128490385184287"><ele>-9.0</ele><time>2026-04-08T07:27:41Z</time></trkpt><trkpt lat="34.062257010212804" lon="8.128345510864913"><ele>-9.0</ele><time>2026-04-08T07:27:42Z</time></trkpt><trkpt lat="34.06249648440602" lon="8.12819976785596"><ele>-9.0</ele><time>2026-04-08T07:27:43Z</time></trkpt><trkpt lat="34.06272905901155" lon="8.128055227534464"><ele>-9.0</ele><time>2026-04-08T07:27:44Z</time></trkpt><trkpt lat="34.06296087819876" lon="8.127908778851427"><ele>-9.0</ele><time>2026-04-08T07:27:45Z</time></trkpt><trkpt lat="34.063192115840565" lon="8.127763214344542"><ele>-9.0</ele><time>2026-04-08T07:27:46Z</time></trkpt><trkpt lat="34.06342235254331" lon="8.127618692920441"><ele>-9.0</ele><time>2026-04-08T07:27:47Z</time></trkpt><trkpt lat="34.063655135188235" lon="8.12747234479524"><ele>-8.5</ele><time>2026-04-08T07:27:48Z</time></trkpt><trkpt lat="34.06388680859331" lon="8.127327289192094"><ele>-8.0</ele><time>2026-04-08T07:27:49Z</time></trkpt><trkpt lat="34.06411787750149" lon="8.127181528387023"><ele>-8.0</ele><time>2026-04-08T07:27:50Z</time></trkpt><trkpt lat="34.06434992773308" lon="8.127039605652024"><ele>-8.0</ele><time>2026-04-08T07:27:51Z</time></trkpt><trkpt lat="34.064578958188434" lon="8.126895871770717"><ele>-8.0</ele><time>2026-04-08T07:27:52Z</time></trkpt><trkpt lat="34.06480679247495" lon="8.126752260793355"><ele>-8.0</ele><time>2026-04-08T07:27:53Z</time></trkpt><trkpt lat="34.06503319456928" lon="8.126611077981657"><ele>-7.5</ele><time>2026-04-08T07:27:54Z</time></trkpt><trkpt lat="34.06526125371638" lon="8.126467526363154"><ele>-7.0</ele><time>2026-04-08T07:27:55Z</time></trkpt><trkpt lat="34.06548556766472" lon="8.126320984557628"><ele>-7.0</ele><time>2026-04-08T07:27:56Z</time></trkpt><trkpt lat="34.065709270869654" lon="8.126176004637305"><ele>-7.0</ele><time>2026-04-08T07:27:57Z</time></trkpt><trkpt lat="34.065934240717404" lon="8.126034568604544"><ele>-6.5</ele><time>2026-04-08T07:27:58Z</time></trkpt><trkpt lat="34.06616203866214" lon="8.125891650251116"><ele>-6.0</ele><time>2026-04-08T07:27:59Z</time></trkpt><trkpt lat="34.06638596446329" lon="8.12575185713143"><ele>-7.0</ele><time>2026-04-08T07:28:00Z</time></trkpt><trkpt lat="34.066612976869735" lon="8.125608772053834"><ele>-8.0</ele><time>2026-04-08T07:28:01Z</time></trkpt><trkpt lat="34.06683803161791" lon="8.125470045705718"><ele>-8.0</ele><time>2026-04-08T07:28:02Z</time></trkpt><trkpt lat="34.06706360913173" lon="8.12532954000237"><ele>-8.0</ele><time>2026-04-08T07:28:03Z</time></trkpt><trkpt lat="34.06728572047666" lon="8.125186388058836"><ele>-7.5</ele><time>2026-04-08T07:28:04Z</time></trkpt><trkpt lat="34.067507684356244" lon="8.125043970225315"><ele>-7.0</ele><time>2026-04-08T07:28:05Z</time></trkpt><trkpt lat="34.067729648137316" lon="8.12490404677246"><ele>-7.5</ele><time>2026-04-08T07:28:06Z</time></trkpt><trkpt lat="34.067956435780104" lon="8.124764309351745"><ele>-8.0</ele><time>2026-04-08T07:28:07Z</time></trkpt><trkpt lat="34.06818572568963" lon="8.124625475506576"><ele>-8.0</ele><time>2026-04-08T07:28:08Z</time></trkpt><trkpt lat="34.068416606441424" lon="8.124491474690052"><ele>-8.0</ele><time>2026-04-08T07:28:09Z</time></trkpt><trkpt lat="34.06864649316764" lon="8.124355047769512"><ele>-8.0</ele><time>2026-04-08T07:28:10Z</time></trkpt><trkpt lat="34.06887959615262" lon="8.124220231039967"><ele>-8.0</ele><time>2026-04-08T07:28:11Z</time></trkpt><trkpt lat="34.069110039778074" lon="8.124082621193345"><ele>-7.5</ele><time>2026-04-08T07:28:12Z</time></trkpt><trkpt lat="34.069336292387156" lon="8.123941807621868"><ele>-7.0</ele><time>2026-04-08T07:28:13Z</time></trkpt><trkpt lat="34.0695661927755" lon="8.12380083391916"><ele>-7.0</ele><time>2026-04-08T07:28:14Z</time></trkpt><trkpt lat="34.0697995503709" lon="8.123657105673065"><ele>-7.0</ele><time>2026-04-08T07:28:15Z</time></trkpt><trkpt lat="34.07003080817791" lon="8.123515810190025"><ele>-7.0</ele><time>2026-04-08T07:28:16Z</time></trkpt><trkpt lat="34.07026896012229" lon="8.123376389173222"><ele>-7.0</ele><time>2026-04-08T07:28:17Z</time></trkpt><trkpt lat="34.070509715159865" lon="8.12324379082299"><ele>-7.5</ele><time>2026-04-08T07:28:18Z</time></trkpt><trkpt lat="34.07074162231892" lon="8.123113194745603"><ele>-8.0</ele><time>2026-04-08T07:28:19Z</time></trkpt><trkpt lat="34.07096795243225" lon="8.122979434789372"><ele>-8.0</ele><time>2026-04-08T07:28:20Z</time></trkpt><trkpt lat="34.071194922688576" lon="8.122844544894182"><ele>-8.0</ele><time>2026-04-08T07:28:21Z</time></trkpt><trkpt lat="34.0714324978902" lon="8.122708552189799"><ele>-7.5</ele><time>2026-04-08T07:28:22Z</time></trkpt><trkpt lat="34.071661627109776" lon="8.122577964209876"><ele>-7.0</ele><time>2026-04-08T07:28:23Z</time></trkpt><trkpt lat="34.0718957057094" lon="8.12244068645613"><ele>-7.0</ele><time>2026-04-08T07:28:24Z</time></trkpt><trkpt lat="34.07212708107589" lon="8.122302215020408"><ele>-7.0</ele><time>2026-04-08T07:28:25Z</time></trkpt><trkpt lat="34.07235604038617" lon="8.122167730479893"><ele>-7.0</ele><time>2026-04-08T07:28:26Z</time></trkpt><trkpt lat="34.072581325531736" lon="8.122035917274914"><ele>-7.0</ele><time>2026-04-08T07:28:27Z</time></trkpt><trkpt lat="34.07280679632352" lon="8.121905370966612"><ele>-7.0</ele><time>2026-04-08T07:28:28Z</time></trkpt><trkpt lat="34.07303251692485" lon="8.121774027930893"><ele>-7.0</ele><time>2026-04-08T07:28:29Z</time></trkpt><trkpt lat="34.073256021914275" lon="8.121643399003778"><ele>-7.5</ele><time>2026-04-08T07:28:30Z</time></trkpt><trkpt lat="34.07347770932839" lon="8.121512529969426"><ele>-8.0</ele><time>2026-04-08T07:28:31Z</time></trkpt><trkpt lat="34.07370091204847" lon="8.121377625280592"><ele>-8.0</ele><time>2026-04-08T07:28:32Z</time></trkpt><trkpt lat="34.073928655440184" lon="8.121239177327187"><ele>-8.0</ele><time>2026-04-08T07:28:33Z</time></trkpt><trkpt lat="34.074157978101326" lon="8.121104214859967"><ele>-8.0</ele><time>2026-04-08T07:28:34Z</time></trkpt><trkpt lat="34.074375030338736" lon="8.12098142819288"><ele>-8.0</ele><time>2026-04-08T07:28:35Z</time></trkpt><trkpt lat="34.074583141619826" lon="8.12086118634408"><ele>-8.0</ele><time>2026-04-08T07:28:36Z</time></trkpt><trkpt lat="34.0747904041358" lon="8.120745659376436"><ele>-8.0</ele><time>2026-04-08T07:28:37Z</time></trkpt><trkpt lat="34.07499004427165" lon="8.120631895594068"><ele>-8.0</ele><time>2026-04-08T07:28:38Z</time></trkpt><trkpt lat="34.075183087670275" lon="8.120512854786128"><ele>-8.0</ele><time>2026-04-08T07:28:39Z</time></trkpt><trkpt lat="34.075379879430315" lon="8.120397140801746"><ele>-8.0</ele><time>2026-04-08T07:28:40Z</time></trkpt><trkpt lat="34.07557502904266" lon="8.12027855974341"><ele>-8.0</ele><time>2026-04-08T07:28:41Z</time></trkpt><trkpt lat="34.07577658695412" lon="8.120156568995935"><ele>-7.5</ele><time>2026-04-08T07:28:42Z</time></trkpt><trkpt lat="34.075987294802864" lon="8.120032418146886"><ele>-7.0</ele><time>2026-04-08T07:28:43Z</time></trkpt><trkpt lat="34.076200226750366" lon="8.119909186006122"><ele>-7.5</ele><time>2026-04-08T07:28:44Z</time></trkpt><trkpt lat="34.076416737231554" lon="8.11978599743773"><ele>-8.0</ele><time>2026-04-08T07:28:45Z</time></trkpt><trkpt lat="34.07663521228334" lon="8.119659234212966"><ele>-8.5</ele><time>2026-04-08T07:28:46Z</time></trkpt><trkpt lat="34.076856186639354" lon="8.119528608240515"><ele>-9.0</ele><time>2026-04-08T07:28:47Z</time></trkpt><trkpt lat="34.0770786133845" lon="8.11939725196459"><ele>-9.0</ele><time>2026-04-08T07:28:48Z</time></trkpt><trkpt lat="34.07730429605128" lon="8.119263494822864"><ele>-9.0</ele><time>2026-04-08T07:28:49Z</time></trkpt><trkpt lat="34.077531927711824" lon="8.119125762102723"><ele>-8.0</ele><time>2026-04-08T07:28:50Z</time></trkpt><trkpt lat="34.07776242499168" lon="8.11898973091145"><ele>-7.0</ele><time>2026-04-08T07:28:51Z</time></trkpt><trkpt lat="34.077992674681994" lon="8.118853540977714"><ele>-7.0</ele><time>2026-04-08T07:28:52Z</time></trkpt><trkpt lat="34.07822487497792" lon="8.118715074574228"><ele>-7.0</ele><time>2026-04-08T07:28:53Z</time></trkpt><trkpt lat="34.07845761145889" lon="8.118577411253058"><ele>-8.0</ele><time>2026-04-08T07:28:54Z</time></trkpt><trkpt lat="34.078696929661824" lon="8.118438804811838"><ele>-9.0</ele><time>2026-04-08T07:28:55Z</time></trkpt><trkpt lat="34.078942696547934" lon="8.118299933371725"><ele>-9.0</ele><time>2026-04-08T07:28:56Z</time></trkpt><trkpt lat="34.079194688352295" lon="8.118157317011763"><ele>-9.0</ele><time>2026-04-08T07:28:57Z</time></trkpt><trkpt lat="34.079450316224424" lon="8.118007268264396"><ele>-9.0</ele><time>2026-04-08T07:28:58Z</time></trkpt><trkpt lat="34.07970849116912" lon="8.117855711202258"><ele>-9.0</ele><time>2026-04-08T07:28:59Z</time></trkpt><trkpt lat="34.07996528985242" lon="8.117707652894321"><ele>-9.0</ele><time>2026-04-08T07:29:00Z</time></trkpt><trkpt lat="34.08022831794572" lon="8.117560397581105"><ele>-9.0</ele><time>2026-04-08T07:29:01Z</time></trkpt><trkpt lat="34.08047716163371" lon="8.117412538662897"><ele>-10.0</ele><time>2026-04-08T07:29:02Z</time></trkpt><trkpt lat="34.08072092046208" lon="8.117271794555087"><ele>-11.0</ele><time>2026-04-08T07:29:03Z</time></trkpt><trkpt lat="34.0809641002615" lon="8.117130555621738"><ele>-11.0</ele><time>2026-04-08T07:29:04Z</time></trkpt><trkpt lat="34.081196867140086" lon="8.116994713022603"><ele>-11.0</ele><time>2026-04-08T07:29:05Z</time></trkpt><trkpt lat="34.08142781057971" lon="8.116859882262975"><ele>-10.0</ele><time>2026-04-08T07:29:06Z</time></trkpt><trkpt lat="34.08165951850853" lon="8.116722061324035"><ele>-9.0</ele><time>2026-04-08T07:29:07Z</time></trkpt><trkpt lat="34.08189241496756" lon="8.116587578583475"><ele>-8.5</ele><time>2026-04-08T07:29:08Z</time></trkpt><trkpt lat="34.082118880647755" lon="8.116455016724155"><ele>-8.0</ele><time>2026-04-08T07:29:09Z</time></trkpt><trkpt lat="34.082344236100504" lon="8.116323715595675"><ele>-7.0</ele><time>2026-04-08T07:29:10Z</time></trkpt><trkpt lat="34.08256596108904" lon="8.116189139524884"><ele>-6.0</ele><time>2026-04-08T07:29:11Z</time></trkpt><trkpt lat="34.08278473248215" lon="8.116057728511048"><ele>-6.0</ele><time>2026-04-08T07:29:12Z</time></trkpt><trkpt lat="34.083003791064996" lon="8.115931765107817"><ele>-6.0</ele><time>2026-04-08T07:29:13Z</time></trkpt><trkpt lat="34.083214643127114" lon="8.115807672233203"><ele>-6.5</ele><time>2026-04-08T07:29:14Z</time></trkpt><trkpt lat="34.08342551722245" lon="8.115685225485676"><ele>-7.0</ele><time>2026-04-08T07:29:15Z</time></trkpt><trkpt lat="34.08364090319249" lon="8.11556085974925"><ele>-7.0</ele><time>2026-04-08T07:29:16Z</time></trkpt><trkpt lat="34.08386002466159" lon="8.115434585060207"><ele>-7.0</ele><time>2026-04-08T07:29:17Z</time></trkpt><trkpt lat="34.084080247994244" lon="8.115305381379713"><ele>-7.5</ele><time>2026-04-08T07:29:18Z</time></trkpt><trkpt lat="34.08430348755903" lon="8.115176935651625"><ele>-8.0</ele><time>2026-04-08T07:29:19Z</time></trkpt><trkpt lat="34.08452828779249" lon="8.115047070883932"><ele>-8.0</ele><time>2026-04-08T07:29:20Z</time></trkpt><trkpt lat="34.084754604503225" lon="8.11491799013014"><ele>-8.0</ele><time>2026-04-08T07:29:21Z</time></trkpt><trkpt lat="34.08497614739342" lon="8.114791988988248"><ele>-9.0</ele><time>2026-04-08T07:29:22Z</time></trkpt><trkpt lat="34.08519687327767" lon="8.1146634974021"><ele>-10.0</ele><time>2026-04-08T07:29:23Z</time></trkpt><trkpt lat="34.08541292029768" lon="8.114541623128277"><ele>-10.0</ele><time>2026-04-08T07:29:24Z</time></trkpt><trkpt lat="34.085628280671166" lon="8.114423218352139"><ele>-10.0</ele><time>2026-04-08T07:29:25Z</time></trkpt><trkpt lat="34.085840769087774" lon="8.114299170344406"><ele>-10.0</ele><time>2026-04-08T07:29:26Z</time></trkpt><trkpt lat="34.08605452984784" lon="8.114166462554213"><ele>-10.0</ele><time>2026-04-08T07:29:27Z</time></trkpt><trkpt lat="34.08626926131012" lon="8.114038731586632"><ele>-9.5</ele><time>2026-04-08T07:29:28Z</time></trkpt><trkpt lat="34.08648827443903" lon="8.113915776217366"><ele>-9.0</ele><time>2026-04-08T07:29:29Z</time></trkpt><trkpt lat="34.08670984303756" lon="8.113791334502165"><ele>-8.5</ele><time>2026-04-08T07:29:30Z</time></trkpt><trkpt lat="34.08692950283114" lon="8.113666151389221"><ele>-8.0</ele><time>2026-04-08T07:29:31Z</time></trkpt><trkpt lat="34.087151103931824" lon="8.113538307935585"><ele>-8.0</ele><time>2026-04-08T07:29:32Z</time></trkpt><trkpt lat="34.087370802412885" lon="8.113408549144962"><ele>-8.0</ele><time>2026-04-08T07:29:33.001Z</time></trkpt><trkpt lat="34.08759042414375" lon="8.113278659631645"><ele>-8.0</ele><time>2026-04-08T07:29:34Z</time></trkpt><trkpt lat="34.08781573373806" lon="8.113143578894968"><ele>-8.0</ele><time>2026-04-08T07:29:35Z</time></trkpt><trkpt lat="34.088038658957544" lon="8.113004925407642"><ele>-8.0</ele><time>2026-04-08T07:29:36Z</time></trkpt><trkpt lat="34.08826735413999" lon="8.112857409075174"><ele>-8.0</ele><time>2026-04-08T07:29:37Z</time></trkpt><trkpt lat="34.088491609057996" lon="8.112711434697633"><ele>-8.0</ele><time>2026-04-08T07:29:38Z</time></trkpt><trkpt lat="34.08871314517772" lon="8.112573414175575"><ele>-8.0</ele><time>2026-04-08T07:29:39Z</time></trkpt><trkpt lat="34.08893358824926" lon="8.112441492048076"><ele>-8.0</ele><time>2026-04-08T07:29:40Z</time></trkpt><trkpt lat="34.08915241901732" lon="8.112299769239684"><ele>-8.0</ele><time>2026-04-08T07:29:41Z</time></trkpt><trkpt lat="34.08937314029635" lon="8.112157426352601"><ele>-8.0</ele><time>2026-04-08T07:29:42Z</time></trkpt><trkpt lat="34.089592807148684" lon="8.112018361037133"><ele>-8.0</ele><time>2026-04-08T07:29:43Z</time></trkpt><trkpt lat="34.08981101994964" lon="8.111883156944597"><ele>-8.5</ele><time>2026-04-08T07:29:44Z</time></trkpt><trkpt lat="34.09003210828436" lon="8.111746255412022"><ele>-9.0</ele><time>2026-04-08T07:29:45Z</time></trkpt><trkpt lat="34.09025495111539" lon="8.111611132743151"><ele>-9.0</ele><time>2026-04-08T07:29:46Z</time></trkpt><trkpt lat="34.09046598306342" lon="8.11147360959082"><ele>-9.0</ele><time>2026-04-08T07:29:47Z</time></trkpt><trkpt lat="34.09068424268728" lon="8.111332201042684"><ele>-9.0</ele><time>2026-04-08T07:29:48Z</time></trkpt><trkpt lat="34.09090538409406" lon="8.111191207365456"><ele>-9.0</ele><time>2026-04-08T07:29:49Z</time></trkpt><trkpt lat="34.091124409068776" lon="8.111054266508956"><ele>-9.0</ele><time>2026-04-08T07:29:50Z</time></trkpt><trkpt lat="34.09133286722494" lon="8.110927338238241"><ele>-9.0</ele><time>2026-04-08T07:29:51Z</time></trkpt><trkpt lat="34.09154068348264" lon="8.110798188915767"><ele>-9.5</ele><time>2026-04-08T07:29:52Z</time></trkpt><trkpt lat="34.09175033174396" lon="8.110665670178546"><ele>-10.0</ele><time>2026-04-08T07:29:53Z</time></trkpt><trkpt lat="34.09196076402692" lon="8.110534884550038"><ele>-10.0</ele><time>2026-04-08T07:29:54Z</time></trkpt><trkpt lat="34.09217737355217" lon="8.110395381665251"><ele>-10.0</ele><time>2026-04-08T07:29:55Z</time></trkpt><trkpt lat="34.092393700172906" lon="8.110256425147298"><ele>-10.0</ele><time>2026-04-08T07:29:56Z</time></trkpt><trkpt lat="34.09261149684993" lon="8.11011710339219"><ele>-10.0</ele><time>2026-04-08T07:29:57Z</time></trkpt><trkpt lat="34.09283165111844" lon="8.109980687108116"><ele>-10.0</ele><time>2026-04-08T07:29:58Z</time></trkpt><trkpt lat="34.09304843606899" lon="8.109846552911042"><ele>-10.0</ele><time>2026-04-08T07:29:59Z</time></trkpt><trkpt lat="34.09325895434328" lon="8.10971286724137"><ele>-10.5</ele><time>2026-04-08T07:30:00Z</time></trkpt><trkpt lat="34.09347268397279" lon="8.109578730891513"><ele>-11.0</ele><time>2026-04-08T07:30:01Z</time></trkpt><trkpt lat="34.093685735259356" lon="8.109440459189345"><ele>-11.0</ele><time>2026-04-08T07:30:02Z</time></trkpt><trkpt lat="34.09389988007161" lon="8.109303473957533"><ele>-11.0</ele><time>2026-04-08T07:30:03Z</time></trkpt><trkpt lat="34.09411797354601" lon="8.109164237422947"><ele>-11.0</ele><time>2026-04-08T07:30:04Z</time></trkpt><trkpt lat="34.09432830576269" lon="8.109029777623846"><ele>-11.0</ele><time>2026-04-08T07:30:05Z</time></trkpt><trkpt lat="34.094538821409856" lon="8.10889638707369"><ele>-11.0</ele><time>2026-04-08T07:30:06Z</time></trkpt><trkpt lat="34.094745406085615" lon="8.108763444135235"><ele>-11.0</ele><time>2026-04-08T07:30:07Z</time></trkpt><trkpt lat="34.094955079902064" lon="8.108630855639063"><ele>-11.0</ele><time>2026-04-08T07:30:08Z</time></trkpt><trkpt lat="34.09517454904917" lon="8.108492777848587"><ele>-11.0</ele><time>2026-04-08T07:30:09Z</time></trkpt><trkpt lat="34.095396976623164" lon="8.108354665655696"><ele>-11.0</ele><time>2026-04-08T07:30:10Z</time></trkpt><trkpt lat="34.09561905151431" lon="8.108212462366826"><ele>-11.0</ele><time>2026-04-08T07:30:11Z</time></trkpt><trkpt lat="34.09583912204801" lon="8.108068655414714"><ele>-11.0</ele><time>2026-04-08T07:30:12Z</time></trkpt><trkpt lat="34.09605654664699" lon="8.107926818979676"><ele>-11.0</ele><time>2026-04-08T07:30:13Z</time></trkpt><trkpt lat="34.09628096770149" lon="8.107784090162301"><ele>-11.0</ele><time>2026-04-08T07:30:14Z</time></trkpt><trkpt lat="34.096502524548804" lon="8.10763983091904"><ele>-11.0</ele><time>2026-04-08T07:30:15Z</time></trkpt><trkpt lat="34.096724849821456" lon="8.107498420721088"><ele>-10.5</ele><time>2026-04-08T07:30:16Z</time></trkpt><trkpt lat="34.09694675387863" lon="8.10735601054905"><ele>-10.0</ele><time>2026-04-08T07:30:17Z</time></trkpt><trkpt lat="34.09716348498118" lon="8.107210844610531"><ele>-10.0</ele><time>2026-04-08T07:30:18Z</time></trkpt><trkpt lat="34.09737536514625" lon="8.10706738515024"><ele>-10.0</ele><time>2026-04-08T07:30:19Z</time></trkpt><trkpt lat="34.09757750705336" lon="8.106935988995497"><ele>-10.5</ele><time>2026-04-08T07:30:20Z</time></trkpt><trkpt lat="34.09778316776518" lon="8.106803083121564"><ele>-11.0</ele><time>2026-04-08T07:30:21Z</time></trkpt><trkpt lat="34.09798066519424" lon="8.106673466668504"><ele>-11.0</ele><time>2026-04-08T07:30:22Z</time></trkpt><trkpt lat="34.098181071088455" lon="8.106534927789093"><ele>-11.0</ele><time>2026-04-08T07:30:23Z</time></trkpt><trkpt lat="34.09838054632694" lon="8.106404208891146"><ele>-11.0</ele><time>2026-04-08T07:30:24Z</time></trkpt><trkpt lat="34.098585501923594" lon="8.106271504735293"><ele>-11.0</ele><time>2026-04-08T07:30:25Z</time></trkpt><trkpt lat="34.098789489558186" lon="8.10613965088556"><ele>-11.0</ele><time>2026-04-08T07:30:26Z</time></trkpt><trkpt lat="34.098997217760356" lon="8.10600691266438"><ele>-11.0</ele><time>2026-04-08T07:30:27Z</time></trkpt><trkpt lat="34.09920759029318" lon="8.105867614711524"><ele>-11.0</ele><time>2026-04-08T07:30:28Z</time></trkpt><trkpt lat="34.09941802574583" lon="8.105731225154988"><ele>-11.0</ele><time>2026-04-08T07:30:29Z</time></trkpt><trkpt lat="34.099625278825854" lon="8.105594086944452"><ele>-11.0</ele><time>2026-04-08T07:30:30Z</time></trkpt><trkpt lat="34.099828413637525" lon="8.105459787721628"><ele>-11.0</ele><time>2026-04-08T07:30:31Z</time></trkpt><trkpt lat="34.100038545689706" lon="8.105316635600559"><ele>-11.0</ele><time>2026-04-08T07:30:32Z</time></trkpt><trkpt lat="34.10024695214559" lon="8.105180970427075"><ele>-11.0</ele><time>2026-04-08T07:30:33Z</time></trkpt><trkpt lat="34.10045719525342" lon="8.105045269631086"><ele>-12.0</ele><time>2026-04-08T07:30:34Z</time></trkpt><trkpt lat="34.10067051754903" lon="8.104905322631213"><ele>-13.0</ele><time>2026-04-08T07:30:35Z</time></trkpt><trkpt lat="34.10087947643888" lon="8.104769867057943"><ele>-14.0</ele><time>2026-04-08T07:30:36Z</time></trkpt><trkpt lat="34.101091520732766" lon="8.104628301238272"><ele>-15.0</ele><time>2026-04-08T07:30:37Z</time></trkpt><trkpt lat="34.10130582151464" lon="8.104490161411869"><ele>-15.0</ele><time>2026-04-08T07:30:38Z</time></trkpt><trkpt lat="34.10151796902767" lon="8.104363591012234"><ele>-15.0</ele><time>2026-04-08T07:30:39Z</time></trkpt><trkpt lat="34.10172535474489" lon="8.104236971833577"><ele>-13.5</ele><time>2026-04-08T07:30:40Z</time></trkpt><trkpt lat="34.1019394249979" lon="8.104096860057412"><ele>-12.0</ele><time>2026-04-08T07:30:41Z</time></trkpt><trkpt lat="34.10215222974952" lon="8.10395444873979"><ele>-12.0</ele><time>2026-04-08T07:30:42Z</time></trkpt><trkpt lat="34.102363667121246" lon="8.103817916865372"><ele>-12.0</ele><time>2026-04-08T07:30:43Z</time></trkpt><trkpt lat="34.10257453904835" lon="8.103680013020416"><ele>-11.5</ele><time>2026-04-08T07:30:44Z</time></trkpt><trkpt lat="34.102784632356844" lon="8.103543198620036"><ele>-11.0</ele><time>2026-04-08T07:30:45Z</time></trkpt><trkpt lat="34.10299826836424" lon="8.103403833090958"><ele>-11.0</ele><time>2026-04-08T07:30:46Z</time></trkpt><trkpt lat="34.10320850268717" lon="8.103272135934702"><ele>-11.0</ele><time>2026-04-08T07:30:47Z</time></trkpt><trkpt lat="34.10342487933875" lon="8.103134947826918"><ele>-12.0</ele><time>2026-04-08T07:30:48Z</time></trkpt><trkpt lat="34.10363447557331" lon="8.103004795913959"><ele>-13.0</ele><time>2026-04-08T07:30:49Z</time></trkpt><trkpt lat="34.103847680400875" lon="8.102872077636674"><ele>-13.0</ele><time>2026-04-08T07:30:50Z</time></trkpt><trkpt lat="34.10406465557836" lon="8.102741846087063"><ele>-13.0</ele><time>2026-04-08T07:30:51Z</time></trkpt><trkpt lat="34.104274952665826" lon="8.10260903219184"><ele>-13.0</ele><time>2026-04-08T07:30:52Z</time></trkpt><trkpt lat="34.10448617724416" lon="8.102475055005927"><ele>-13.0</ele><time>2026-04-08T07:30:53Z</time></trkpt><trkpt lat="34.10469739613284" lon="8.102338239147768"><ele>-13.0</ele><time>2026-04-08T07:30:54Z</time></trkpt><trkpt lat="34.1049088086521" lon="8.102202664021156"><ele>-13.0</ele><time>2026-04-08T07:30:55Z</time></trkpt><trkpt lat="34.10512017781544" lon="8.102069767191189"><ele>-12.5</ele><time>2026-04-08T07:30:56Z</time></trkpt><trkpt lat="34.10533560381097" lon="8.101931506177952"><ele>-12.0</ele><time>2026-04-08T07:30:57Z</time></trkpt><trkpt lat="34.10554669086413" lon="8.10180418195789"><ele>-12.0</ele><time>2026-04-08T07:30:58Z</time></trkpt><trkpt lat="34.105760008113236" lon="8.101674559426947"><ele>-12.0</ele><time>2026-04-08T07:30:59Z</time></trkpt><trkpt lat="34.105958747028204" lon="8.101553457863856"><ele>-12.0</ele><time>2026-04-08T07:31:00Z</time></trkpt><trkpt lat="34.106126815786574" lon="8.101443340496708"><ele>-12.0</ele><time>2026-04-08T07:31:01Z</time></trkpt><trkpt lat="34.10627436794211" lon="8.101352343287642"><ele>-12.0</ele><time>2026-04-08T07:31:02Z</time></trkpt><trkpt lat="34.10640300486375" lon="8.10127036104061"><ele>-12.0</ele><time>2026-04-08T07:31:03Z</time></trkpt><trkpt lat="34.10651063480755" lon="8.101203377860706"><ele>-12.0</ele><time>2026-04-08T07:31:04Z</time></trkpt><trkpt lat="34.106595231346084" lon="8.101151445901928"><ele>-12.0</ele><time>2026-04-08T07:31:05Z</time></trkpt><trkpt lat="34.1066570027948" lon="8.101114313127084"><ele>-12.0</ele><time>2026-04-08T07:31:06Z</time></trkpt><trkpt lat="34.1067310124536" lon="8.101075573937013"><ele>-12.0</ele><time>2026-04-08T07:31:08Z</time></trkpt><trkpt lat="34.106785639235724" lon="8.101036406326012"><ele>-12.0</ele><time>2026-04-08T07:32:47Z</time></trkpt><trkpt lat="34.10685792778718" lon="8.100985924111825"><ele>-12.0</ele><time>2026-04-08T07:32:48Z</time></trkpt><trkpt lat="34.10694979711717" lon="8.100917562425872"><ele>-12.0</ele><time>2026-04-08T07:32:49Z</time></trkpt><trkpt lat="34.107060330358195" lon="8.100841826351056"><ele>-12.0</ele><time>2026-04-08T07:32:50Z</time></trkpt><trkpt lat="34.107174416432464" lon="8.100762926596238"><ele>-12.0</ele><time>2026-04-08T07:32:51Z</time></trkpt><trkpt lat="34.10730616655842" lon="8.100670074619087"><ele>-12.333333333333332</ele><time>2026-04-08T07:32:52Z</time></trkpt><trkpt lat="34.10745075719551" lon="8.100566002273549"><ele>-12.666666666666666</ele><time>2026-04-08T07:32:53Z</time></trkpt><trkpt lat="34.1076097030045" lon="8.100453134277952"><ele>-13.0</ele><time>2026-04-08T07:32:54Z</time></trkpt><trkpt lat="34.10777586342152" lon="8.100340176811018"><ele>-13.0</ele><time>2026-04-08T07:32:55Z</time></trkpt><trkpt lat="34.107947467311476" lon="8.100217187536627"><ele>-13.0</ele><time>2026-04-08T07:32:56Z</time></trkpt><trkpt lat="34.10812474803464" lon="8.100094047805431"><ele>-13.0</ele><time>2026-04-08T07:32:57Z</time></trkpt><trkpt lat="34.108307767568895" lon="8.099963584633198"><ele>-12.5</ele><time>2026-04-08T07:32:58Z</time></trkpt><trkpt lat="34.10850179744397" lon="8.099827058574624"><ele>-12.0</ele><time>2026-04-08T07:32:59Z</time></trkpt><trkpt lat="34.10869896479517" lon="8.099689436390525"><ele>-12.0</ele><time>2026-04-08T07:33:00Z</time></trkpt><trkpt lat="34.10889999963831" lon="8.099544131842602"><ele>-12.0</ele><time>2026-04-08T07:33:01Z</time></trkpt><trkpt lat="34.10910132295574" lon="8.099395615573474"><ele>-12.0</ele><time>2026-04-08T07:33:02Z</time></trkpt><trkpt lat="34.10930661263672" lon="8.099247397109922"><ele>-12.0</ele><time>2026-04-08T07:33:03Z</time></trkpt><trkpt lat="34.10951846100353" lon="8.099093527213553"><ele>-12.0</ele><time>2026-04-08T07:33:04Z</time></trkpt><trkpt lat="34.109728487910864" lon="8.098943828951775"><ele>-12.0</ele><time>2026-04-08T07:33:05Z</time></trkpt><trkpt lat="34.10994287092549" lon="8.09878711074393"><ele>-12.0</ele><time>2026-04-08T07:33:06Z</time></trkpt><trkpt lat="34.11015901949734" lon="8.098631792503548"><ele>-12.0</ele><time>2026-04-08T07:33:07Z</time></trkpt><trkpt lat="34.11037456495557" lon="8.098472072335465"><ele>-12.0</ele><time>2026-04-08T07:33:08Z</time></trkpt><trkpt lat="34.11058934179836" lon="8.098317419691407"><ele>-12.0</ele><time>2026-04-08T07:33:09Z</time></trkpt><trkpt lat="34.1108082251095" lon="8.098160227245703"><ele>-13.0</ele><time>2026-04-08T07:33:10Z</time></trkpt><trkpt lat="34.11103117429268" lon="8.09800565680044"><ele>-14.0</ele><time>2026-04-08T07:33:11Z</time></trkpt><trkpt lat="34.11125308076958" lon="8.097848558928705"><ele>-14.0</ele><time>2026-04-08T07:33:12Z</time></trkpt><trkpt lat="34.11148406379031" lon="8.097676754570047"><ele>-14.0</ele><time>2026-04-08T07:33:13Z</time></trkpt><trkpt lat="34.11172338446236" lon="8.097500605155975"><ele>-14.0</ele><time>2026-04-08T07:33:14Z</time></trkpt><trkpt lat="34.11197688498259" lon="8.097320730231024"><ele>-14.0</ele><time>2026-04-08T07:33:15Z</time></trkpt><trkpt lat="34.11223497746262" lon="8.097137579553964"><ele>-14.5</ele><time>2026-04-08T07:33:16Z</time></trkpt><trkpt lat="34.11249912702836" lon="8.096944746318675"><ele>-15.0</ele><time>2026-04-08T07:33:17Z</time></trkpt><trkpt lat="34.112775364974055" lon="8.096747522026728"><ele>-14.5</ele><time>2026-04-08T07:33:18Z</time></trkpt><trkpt lat="34.113062479217454" lon="8.09653848506553"><ele>-14.0</ele><time>2026-04-08T07:33:19Z</time></trkpt><trkpt lat="34.11335288776344" lon="8.096319182144425"><ele>-14.0</ele><time>2026-04-08T07:33:20Z</time></trkpt><trkpt lat="34.1136561731741" lon="8.096098203648513"><ele>-14.0</ele><time>2026-04-08T07:33:21Z</time></trkpt><trkpt lat="34.11395994312005" lon="8.095877781234522"><ele>-13.5</ele><time>2026-04-08T07:33:22Z</time></trkpt><trkpt lat="34.114262006616826" lon="8.09565999527852"><ele>-13.0</ele><time>2026-04-08T07:33:23Z</time></trkpt><trkpt lat="34.11455643810254" lon="8.095449495951677"><ele>-13.0</ele><time>2026-04-08T07:33:24Z</time></trkpt><trkpt lat="34.11485112001354" lon="8.09523312425653"><ele>-13.0</ele><time>2026-04-08T07:33:25Z</time></trkpt><trkpt lat="34.11514521085119" lon="8.09502571042827"><ele>-13.0</ele><time>2026-04-08T07:33:26Z</time></trkpt><trkpt lat="34.115441325613624" lon="8.094815560571233"><ele>-13.0</ele><time>2026-04-08T07:33:27Z</time></trkpt><trkpt lat="34.11574896492631" lon="8.094596533989717"><ele>-14.0</ele><time>2026-04-08T07:33:28Z</time></trkpt><trkpt lat="34.116066657509954" lon="8.094375768242973"><ele>-15.0</ele><time>2026-04-08T07:33:29Z</time></trkpt><trkpt lat="34.116385577531304" lon="8.094162023110426"><ele>-15.0</ele><time>2026-04-08T07:33:30Z</time></trkpt><trkpt lat="34.11671104213707" lon="8.093945521437462"><ele>-15.0</ele><time>2026-04-08T07:33:31Z</time></trkpt><trkpt lat="34.11702672679921" lon="8.09372551435835"><ele>-15.0</ele><time>2026-04-08T07:33:32Z</time></trkpt><trkpt lat="34.1173282547814" lon="8.09350903011196"><ele>-15.0</ele><time>2026-04-08T07:33:33Z</time></trkpt><trkpt lat="34.11762000650276" lon="8.093295933746989"><ele>-14.5</ele><time>2026-04-08T07:33:34Z</time></trkpt><trkpt lat="34.11791822602677" lon="8.093082534324232"><ele>-14.0</ele><time>2026-04-08T07:33:35Z</time></trkpt><trkpt lat="34.118208172023635" lon="8.092873506384073"><ele>-14.0</ele><time>2026-04-08T07:33:36Z</time></trkpt><trkpt lat="34.118509711055474" lon="8.092662024637209"><ele>-14.0</ele><time>2026-04-08T07:33:37Z</time></trkpt><trkpt lat="34.118807298348976" lon="8.092452765376564"><ele>-14.5</ele><time>2026-04-08T07:33:38Z</time></trkpt><trkpt lat="34.11910400590877" lon="8.092239634017265"><ele>-15.0</ele><time>2026-04-08T07:33:39.001Z</time></trkpt><trkpt lat="34.11939847873491" lon="8.092026970028531"><ele>-15.0</ele><time>2026-04-08T07:33:40.001Z</time></trkpt><trkpt lat="34.119694053712244" lon="8.091815349220994"><ele>-15.0</ele><time>2026-04-08T07:33:41.001Z</time></trkpt><trkpt lat="34.11999234274049" lon="8.09160437068666"><ele>-16.5</ele><time>2026-04-08T07:33:42.001Z</time></trkpt><trkpt lat="34.12029128734724" lon="8.091394285876989"><ele>-18.0</ele><time>2026-04-08T07:33:43.001Z</time></trkpt><trkpt lat="34.120590134728715" lon="8.091183493763412"><ele>-17.5</ele><time>2026-04-08T07:33:44.001Z</time></trkpt><trkpt lat="34.12088893188192" lon="8.090969505770293"><ele>-17.0</ele><time>2026-04-08T07:33:45.001Z</time></trkpt><trkpt lat="34.12118924841607" lon="8.09075195382476"><ele>-17.0</ele><time>2026-04-08T07:33:46.001Z</time></trkpt><trkpt lat="34.121499837229514" lon="8.090527920746597"><ele>-17.0</ele><time>2026-04-08T07:33:47.001Z</time></trkpt><trkpt lat="34.121819213968905" lon="8.090301477386344"><ele>-16.5</ele><time>2026-04-08T07:33:48.001Z</time></trkpt><trkpt lat="34.12214344121884" lon="8.090072179997208"><ele>-16.0</ele><time>2026-04-08T07:33:49.001Z</time></trkpt><trkpt lat="34.12246980467028" lon="8.089836731938465"><ele>-16.0</ele><time>2026-04-08T07:33:50.001Z</time></trkpt><trkpt lat="34.12279866657041" lon="8.089600331437907"><ele>-16.0</ele><time>2026-04-08T07:33:51.001Z</time></trkpt><trkpt lat="34.123133517779415" lon="8.089357117502633"><ele>-16.0</ele><time>2026-04-08T07:33:52Z</time></trkpt><trkpt lat="34.12346987017474" lon="8.089110273726895"><ele>-16.0</ele><time>2026-04-08T07:33:53Z</time></trkpt><trkpt lat="34.123817553776895" lon="8.088861850535078"><ele>-16.0</ele><time>2026-04-08T07:33:54Z</time></trkpt><trkpt lat="34.12416193491012" lon="8.088613600890238"><ele>-16.0</ele><time>2026-04-08T07:33:55Z</time></trkpt><trkpt lat="34.12451170897842" lon="8.088366018581548"><ele>-16.0</ele><time>2026-04-08T07:33:56Z</time></trkpt><trkpt lat="34.124849116579576" lon="8.088125632370629"><ele>-16.0</ele><time>2026-04-08T07:33:57Z</time></trkpt><trkpt lat="34.12517426892504" lon="8.087894985038183"><ele>-16.0</ele><time>2026-04-08T07:33:58Z</time></trkpt><trkpt lat="34.125474634925304" lon="8.087680251397149"><ele>-16.0</ele><time>2026-04-08T07:33:59Z</time></trkpt><trkpt lat="34.12577046755888" lon="8.087473233191663"><ele>-16.0</ele><time>2026-04-08T07:34:00Z</time></trkpt><trkpt lat="34.126047593749135" lon="8.087276118939196"><ele>-16.0</ele><time>2026-04-08T07:34:01Z</time></trkpt><trkpt lat="34.12631091008399" lon="8.08708870825799"><ele>-16.0</ele><time>2026-04-08T07:34:02Z</time></trkpt><trkpt lat="34.12656068820007" lon="8.086911665112748"><ele>-16.0</ele><time>2026-04-08T07:34:03Z</time></trkpt><trkpt lat="34.12679221497076" lon="8.086744317600534"><ele>-16.0</ele><time>2026-04-08T07:34:04Z</time></trkpt><trkpt lat="34.12702033319229" lon="8.086582362630775"><ele>-16.0</ele><time>2026-04-08T07:34:05Z</time></trkpt><trkpt lat="34.127231604222935" lon="8.086429672129611"><ele>-16.333333333333332</ele><time>2026-04-08T07:34:06Z</time></trkpt><trkpt lat="34.12742372190549" lon="8.086291950050045"><ele>-16.666666666666668</ele><time>2026-04-08T07:34:07Z</time></trkpt><trkpt lat="34.12759599526815" lon="8.086169446211796"><ele>-17.0</ele><time>2026-04-08T07:34:08Z</time></trkpt><trkpt lat="34.12774285116835" lon="8.086064936995186"><ele>-17.0</ele><time>2026-04-08T07:34:09Z</time></trkpt><trkpt lat="34.127866508596796" lon="8.085976629252226"><ele>-17.0</ele><time>2026-04-08T07:34:10Z</time></trkpt><trkpt lat="34.127973941999315" lon="8.085894858341753"><ele>-17.0</ele><time>2026-04-08T07:34:11Z</time></trkpt><trkpt lat="34.12807782388136" lon="8.085816515960227"><ele>-17.0</ele><time>2026-04-08T07:34:12Z</time></trkpt><trkpt lat="34.12817719261555" lon="8.085739318127102"><ele>-17.2</ele><time>2026-04-08T07:34:13Z</time></trkpt><trkpt lat="34.12827050164166" lon="8.085671827715482"><ele>-17.4</ele><time>2026-04-08T07:34:14Z</time></trkpt><trkpt lat="34.12835331761108" lon="8.085622760767"><ele>-17.6</ele><time>2026-04-08T07:34:15Z</time></trkpt><trkpt lat="34.12842755062473" lon="8.08556304808823"><ele>-17.8</ele><time>2026-04-08T07:34:16Z</time></trkpt><trkpt lat="34.12848394773917" lon="8.085506021177345"><ele>-18.0</ele><time>2026-04-08T07:34:17Z</time></trkpt><trkpt lat="34.128578582408934" lon="8.085418147267218"><ele>-18.0</ele><time>2026-04-08T07:34:19Z</time></trkpt><trkpt lat="34.1286652849974" lon="8.085341005912834"><ele>-18.0</ele><time>2026-04-08T07:34:21Z</time></trkpt><trkpt lat="34.12872748401542" lon="8.085267432185972"><ele>-18.0</ele><time>2026-04-08T07:34:23Z</time></trkpt><trkpt lat="34.12882251822373" lon="8.08518261300031"><ele>-18.0</ele><time>2026-04-08T07:34:25Z</time></trkpt><trkpt lat="34.12889411532543" lon="8.085128439553198"><ele>-18.0</ele><time>2026-04-08T07:34:26Z</time></trkpt><trkpt lat="34.12897481966516" lon="8.08506613291818"><ele>-17.75</ele><time>2026-04-08T07:34:27Z</time></trkpt><trkpt lat="34.12906314058056" lon="8.084992928835591"><ele>-17.5</ele><time>2026-04-08T07:34:28Z</time></trkpt><trkpt lat="34.12915542180371" lon="8.084914473414015"><ele>-17.25</ele><time>2026-04-08T07:34:29Z</time></trkpt><trkpt lat="34.12925814385324" lon="8.084825432534576"><ele>-17.0</ele><time>2026-04-08T07:34:30Z</time></trkpt><trkpt lat="34.12937042314219" lon="8.084738155227287"><ele>-17.0</ele><time>2026-04-08T07:34:31Z</time></trkpt><trkpt lat="34.12948757449016" lon="8.08464653129772"><ele>-17.0</ele><time>2026-04-08T07:34:32Z</time></trkpt><trkpt lat="34.129615481572294" lon="8.0845449513763"><ele>-17.0</ele><time>2026-04-08T07:34:33Z</time></trkpt><trkpt lat="34.129746418327095" lon="8.084437086437571"><ele>-17.0</ele><time>2026-04-08T07:34:34Z</time></trkpt><trkpt lat="34.12989869534223" lon="8.084309482340009"><ele>-17.0</ele><time>2026-04-08T07:34:35Z</time></trkpt><trkpt lat="34.13006946905281" lon="8.08416348668677"><ele>-17.0</ele><time>2026-04-08T07:34:36Z</time></trkpt><trkpt lat="34.130266270417096" lon="8.08399980853308"><ele>-17.0</ele><time>2026-04-08T07:34:37Z</time></trkpt><trkpt lat="34.13047291220822" lon="8.08383022069196"><ele>-17.0</ele><time>2026-04-08T07:34:38Z</time></trkpt><trkpt lat="34.13070383041724" lon="8.083643249037934"><ele>-17.5</ele><time>2026-04-08T07:34:39Z</time></trkpt><trkpt lat="34.13094938458532" lon="8.08344566356133"><ele>-18.0</ele><time>2026-04-08T07:34:40Z</time></trkpt><trkpt lat="34.13121675149812" lon="8.083225784993346"><ele>-18.0</ele><time>2026-04-08T07:34:41Z</time></trkpt><trkpt lat="34.1314945042769" lon="8.082995991664164"><ele>-18.0</ele><time>2026-04-08T07:34:42Z</time></trkpt><trkpt lat="34.131784266226774" lon="8.082755986781084"><ele>-18.0</ele><time>2026-04-08T07:34:43Z</time></trkpt><trkpt lat="34.132085001779615" lon="8.082507744799512"><ele>-18.0</ele><time>2026-04-08T07:34:44Z</time></trkpt><trkpt lat="34.132397416583395" lon="8.082254330046133"><ele>-18.0</ele><time>2026-04-08T07:34:45Z</time></trkpt><trkpt lat="34.13271645995086" lon="8.081995657809395"><ele>-18.0</ele><time>2026-04-08T07:34:46Z</time></trkpt><trkpt lat="34.13303183073971" lon="8.08173578235274"><ele>-18.5</ele><time>2026-04-08T07:34:47Z</time></trkpt><trkpt lat="34.13332475339166" lon="8.08149260119275"><ele>-19.0</ele><time>2026-04-08T07:34:48Z</time></trkpt><trkpt lat="34.13359551456224" lon="8.081268072448882"><ele>-19.0</ele><time>2026-04-08T07:34:49Z</time></trkpt><trkpt lat="34.13383205507252" lon="8.081074853564688"><ele>-19.0</ele><time>2026-04-08T07:34:50Z</time></trkpt><trkpt lat="34.13404872706017" lon="8.080902795223963"><ele>-19.0</ele><time>2026-04-08T07:34:51Z</time></trkpt><trkpt lat="34.13426031543296" lon="8.08073490348791"><ele>-19.0</ele><time>2026-04-08T07:34:52Z</time></trkpt><trkpt lat="34.13445861345731" lon="8.080581041030879"><ele>-19.0</ele><time>2026-04-08T07:34:53Z</time></trkpt><trkpt lat="34.13465968007638" lon="8.080425679568773"><ele>-19.0</ele><time>2026-04-08T07:34:54Z</time></trkpt><trkpt lat="34.13485787793694" lon="8.080268336539087"><ele>-19.0</ele><time>2026-04-08T07:34:55Z</time></trkpt><trkpt lat="34.135060015702486" lon="8.080105196952312"><ele>-19.0</ele><time>2026-04-08T07:34:56Z</time></trkpt><trkpt lat="34.13526486952341" lon="8.079945793563764"><ele>-19.0</ele><time>2026-04-08T07:34:57Z</time></trkpt><trkpt lat="34.13546547986721" lon="8.079793917941913"><ele>-19.0</ele><time>2026-04-08T07:34:58Z</time></trkpt><trkpt lat="34.135656695016415" lon="8.079657197886277"><ele>-19.0</ele><time>2026-04-08T07:34:59Z</time></trkpt><trkpt lat="34.13583827562137" lon="8.079528861907942"><ele>-19.0</ele><time>2026-04-08T07:35:00Z</time></trkpt><trkpt lat="34.13599948694827" lon="8.079424436101753"><ele>-19.0</ele><time>2026-04-08T07:35:01Z</time></trkpt><trkpt lat="34.13615630164797" lon="8.079324374661283"><ele>-19.0</ele><time>2026-04-08T07:35:02Z</time></trkpt><trkpt lat="34.13628574212044" lon="8.079247487169798"><ele>-19.0</ele><time>2026-04-08T07:35:03Z</time></trkpt><trkpt lat="34.136394005137554" lon="8.07919193340472"><ele>-19.0</ele><time>2026-04-08T07:35:04Z</time></trkpt><trkpt lat="34.1364818431412" lon="8.079138993717192"><ele>-19.0</ele><time>2026-04-08T07:35:05Z</time></trkpt><trkpt lat="34.13654599056792" lon="8.079097964904943"><ele>-19.0</ele><time>2026-04-08T07:35:06Z</time></trkpt><trkpt lat="34.13662354430585" lon="8.079070832658605"><ele>-19.0</ele><time>2026-04-08T07:35:08Z</time></trkpt><trkpt lat="34.136717577579475" lon="8.079006945309498"><ele>-19.0</ele><time>2026-04-08T07:35:12Z</time></trkpt><trkpt lat="34.13678173723424" lon="8.078966894974183"><ele>-19.0</ele><time>2026-04-08T07:35:13Z</time></trkpt><trkpt lat="34.1368731113469" lon="8.078911887617965"><ele>-19.0</ele><time>2026-04-08T07:35:14Z</time></trkpt><trkpt lat="34.13698265184201" lon="8.078834521532329"><ele>-19.0</ele><time>2026-04-08T07:35:15Z</time></trkpt><trkpt lat="34.13712192219863" lon="8.078738157580236"><ele>-19.0</ele><time>2026-04-08T07:35:16Z</time></trkpt><trkpt lat="34.137283857147416" lon="8.078633948710092"><ele>-19.0</ele><time>2026-04-08T07:35:17Z</time></trkpt><trkpt lat="34.137460338431666" lon="8.078523357286608"><ele>-19.0</ele><time>2026-04-08T07:35:18Z</time></trkpt><trkpt lat="34.13762557428053" lon="8.078415011111028"><ele>-19.0</ele><time>2026-04-08T07:35:19Z</time></trkpt><trkpt lat="34.137791802427074" lon="8.078298623816737"><ele>-19.0</ele><time>2026-04-08T07:35:20Z</time></trkpt><trkpt lat="34.13799055240574" lon="8.078164723805894"><ele>-19.0</ele><time>2026-04-08T07:35:21Z</time></trkpt><trkpt lat="34.138199411441725" lon="8.078028649738076"><ele>-19.0</ele><time>2026-04-08T07:35:22Z</time></trkpt><trkpt lat="34.138421462256844" lon="8.077891773464865"><ele>-19.0</ele><time>2026-04-08T07:35:23Z</time></trkpt><trkpt lat="34.138634970907866" lon="8.077754968820102"><ele>-19.0</ele><time>2026-04-08T07:35:24Z</time></trkpt><trkpt lat="34.1388299163418" lon="8.077629254674704"><ele>-19.0</ele><time>2026-04-08T07:35:25Z</time></trkpt><trkpt lat="34.13901664547354" lon="8.077511111099383"><ele>-19.0</ele><time>2026-04-08T07:35:26Z</time></trkpt><trkpt lat="34.13919732736788" lon="8.077394535649624"><ele>-19.666666666666664</ele><time>2026-04-08T07:35:27Z</time></trkpt><trkpt lat="34.13938050760617" lon="8.077276411607146"><ele>-20.333333333333332</ele><time>2026-04-08T07:35:28Z</time></trkpt><trkpt lat="34.13955988083144" lon="8.077159832416207"><ele>-21.0</ele><time>2026-04-08T07:35:29Z</time></trkpt><trkpt lat="34.13974187543172" lon="8.077041415232838"><ele>-20.666666666666668</ele><time>2026-04-08T07:35:30Z</time></trkpt><trkpt lat="34.13992091934189" lon="8.0769272310825"><ele>-20.333333333333336</ele><time>2026-04-08T07:35:31Z</time></trkpt><trkpt lat="34.14010722137334" lon="8.076805624750317"><ele>-20.0</ele><time>2026-04-08T07:35:32Z</time></trkpt><trkpt lat="34.14030124672238" lon="8.07668076765998"><ele>-20.333333333333336</ele><time>2026-04-08T07:35:33Z</time></trkpt><trkpt lat="34.14049884035013" lon="8.07655750869248"><ele>-20.666666666666668</ele><time>2026-04-08T07:35:34Z</time></trkpt><trkpt lat="34.140698637864915" lon="8.076431602291418"><ele>-21.0</ele><time>2026-04-08T07:35:35Z</time></trkpt><trkpt lat="34.14090471539616" lon="8.076302098958761"><ele>-19.5</ele><time>2026-04-08T07:35:36Z</time></trkpt><trkpt lat="34.141108851053524" lon="8.076170707005998"><ele>-18.0</ele><time>2026-04-08T07:35:37Z</time></trkpt><trkpt lat="34.14132663753095" lon="8.07602766772378"><ele>-18.0</ele><time>2026-04-08T07:35:38Z</time></trkpt><trkpt lat="34.14155828506317" lon="8.075883421026697"><ele>-18.0</ele><time>2026-04-08T07:35:39Z</time></trkpt><trkpt lat="34.14180470215783" lon="8.075736370862046"><ele>-18.5</ele><time>2026-04-08T07:35:40Z</time></trkpt><trkpt lat="34.14206374868438" lon="8.0755828280416"><ele>-19.0</ele><time>2026-04-08T07:35:41Z</time></trkpt><trkpt lat="34.14232762849586" lon="8.075432100097132"><ele>-19.0</ele><time>2026-04-08T07:35:42Z</time></trkpt><trkpt lat="34.14258403773589" lon="8.075287688826576"><ele>-19.0</ele><time>2026-04-08T07:35:43Z</time></trkpt><trkpt lat="34.142831084584756" lon="8.07514933268319"><ele>-19.0</ele><time>2026-04-08T07:35:44Z</time></trkpt><trkpt lat="34.143071106588295" lon="8.075018837221126"><ele>-19.0</ele><time>2026-04-08T07:35:45Z</time></trkpt><trkpt lat="34.14331213730449" lon="8.07488910187355"><ele>-19.5</ele><time>2026-04-08T07:35:46Z</time></trkpt><trkpt lat="34.14354941553291" lon="8.074758799925998"><ele>-20.0</ele><time>2026-04-08T07:35:47Z</time></trkpt><trkpt lat="34.14378151320713" lon="8.074631421603401"><ele>-20.0</ele><time>2026-04-08T07:35:48Z</time></trkpt><trkpt lat="34.144031618436784" lon="8.074493199968344"><ele>-20.0</ele><time>2026-04-08T07:35:49Z</time></trkpt><trkpt lat="34.14429011187421" lon="8.07435490092658"><ele>-20.0</ele><time>2026-04-08T07:35:50Z</time></trkpt><trkpt lat="34.144550354019685" lon="8.074212512898555"><ele>-20.0</ele><time>2026-04-08T07:35:51Z</time></trkpt><trkpt lat="34.14481259759434" lon="8.074066146446718"><ele>-19.0</ele><time>2026-04-08T07:35:52Z</time></trkpt><trkpt lat="34.14507616419973" lon="8.07392059962226"><ele>-18.0</ele><time>2026-04-08T07:35:53Z</time></trkpt><trkpt lat="34.145340869836055" lon="8.073776267226826"><ele>-18.0</ele><time>2026-04-08T07:35:54Z</time></trkpt><trkpt lat="34.145598664168496" lon="8.07363501222994"><ele>-18.0</ele><time>2026-04-08T07:35:55Z</time></trkpt><trkpt lat="34.14585657767042" lon="8.073493653568683"><ele>-18.5</ele><time>2026-04-08T07:35:56Z</time></trkpt><trkpt lat="34.14610685501365" lon="8.073353864675429"><ele>-19.0</ele><time>2026-04-08T07:35:57Z</time></trkpt><trkpt lat="34.146360035762534" lon="8.073212756529868"><ele>-20.5</ele><time>2026-04-08T07:35:58Z</time></trkpt><trkpt lat="34.14661043922209" lon="8.07307413535083"><ele>-22.0</ele><time>2026-04-08T07:35:59Z</time></trkpt><trkpt lat="34.146867745368965" lon="8.072935284215744"><ele>-22.0</ele><time>2026-04-08T07:36:00Z</time></trkpt><trkpt lat="34.14711511316478" lon="8.072799346828225"><ele>-22.0</ele><time>2026-04-08T07:36:01Z</time></trkpt><trkpt lat="34.147370977807505" lon="8.072659666441595"><ele>-22.0</ele><time>2026-04-08T07:36:02Z</time></trkpt><trkpt lat="34.14762537949937" lon="8.072518139786373"><ele>-22.0</ele><time>2026-04-08T07:36:03Z</time></trkpt><trkpt lat="34.147877109998795" lon="8.072376289074024"><ele>-22.0</ele><time>2026-04-08T07:36:04Z</time></trkpt><trkpt lat="34.1481284716342" lon="8.072236743596642"><ele>-22.0</ele><time>2026-04-08T07:36:05Z</time></trkpt><trkpt lat="34.14838522181154" lon="8.072096393952483"><ele>-21.0</ele><time>2026-04-08T07:36:06Z</time></trkpt><trkpt lat="34.14864397923105" lon="8.071955265520057"><ele>-20.0</ele><time>2026-04-08T07:36:07Z</time></trkpt><trkpt lat="34.14890208072247" lon="8.071815669539726"><ele>-20.0</ele><time>2026-04-08T07:36:08Z</time></trkpt><trkpt lat="34.1491556534881" lon="8.071676276595506"><ele>-20.0</ele><time>2026-04-08T07:36:09Z</time></trkpt><trkpt lat="34.149403046616044" lon="8.071540692628073"><ele>-20.0</ele><time>2026-04-08T07:36:10Z</time></trkpt><trkpt lat="34.14965411348216" lon="8.071408008468994"><ele>-20.0</ele><time>2026-04-08T07:36:11Z</time></trkpt><trkpt lat="34.149902232576174" lon="8.071279199311268"><ele>-20.0</ele><time>2026-04-08T07:36:12Z</time></trkpt><trkpt lat="34.150161532498615" lon="8.07114700492459"><ele>-20.0</ele><time>2026-04-08T07:36:13Z</time></trkpt><trkpt lat="34.15043060814295" lon="8.071013715708792"><ele>-20.0</ele><time>2026-04-08T07:36:14Z</time></trkpt><trkpt lat="34.150694976264916" lon="8.07088412135402"><ele>-20.0</ele><time>2026-04-08T07:36:15Z</time></trkpt><trkpt lat="34.15096279478259" lon="8.070753283062269"><ele>-20.0</ele><time>2026-04-08T07:36:16Z</time></trkpt><trkpt lat="34.15121973537954" lon="8.070617004448298"><ele>-20.0</ele><time>2026-04-08T07:36:17Z</time></trkpt><trkpt lat="34.15147007512769" lon="8.070472330658392"><ele>-20.0</ele><time>2026-04-08T07:36:18Z</time></trkpt><trkpt lat="34.15170756220789" lon="8.070326946128482"><ele>-20.0</ele><time>2026-04-08T07:36:19Z</time></trkpt><trkpt lat="34.15194472050056" lon="8.070180296762766"><ele>-20.0</ele><time>2026-04-08T07:36:20Z</time></trkpt><trkpt lat="34.1521816238083" lon="8.070028560515343"><ele>-20.0</ele><time>2026-04-08T07:36:21Z</time></trkpt><trkpt lat="34.15243189848171" lon="8.069870025003896"><ele>-20.0</ele><time>2026-04-08T07:36:22Z</time></trkpt><trkpt lat="34.15268454625843" lon="8.069711877764275"><ele>-20.0</ele><time>2026-04-08T07:36:23Z</time></trkpt><trkpt lat="34.15293819191647" lon="8.069554139117914"><ele>-20.0</ele><time>2026-04-08T07:36:24Z</time></trkpt><trkpt lat="34.15319343897314" lon="8.069394433542373"><ele>-20.0</ele><time>2026-04-08T07:36:25Z</time></trkpt><trkpt lat="34.15344664497932" lon="8.069233305162822"><ele>-21.0</ele><time>2026-04-08T07:36:26Z</time></trkpt><trkpt lat="34.15370002066891" lon="8.069074499462653"><ele>-22.0</ele><time>2026-04-08T07:36:27Z</time></trkpt><trkpt lat="34.15395032018941" lon="8.068916223700619"><ele>-21.5</ele><time>2026-04-08T07:36:28Z</time></trkpt><trkpt lat="34.15420199958441" lon="8.06875291566152"><ele>-21.0</ele><time>2026-04-08T07:36:29Z</time></trkpt><trkpt lat="34.15445634804639" lon="8.068588254553418"><ele>-21.0</ele><time>2026-04-08T07:36:30Z</time></trkpt><trkpt lat="34.15471047315573" lon="8.068433975046169"><ele>-21.0</ele><time>2026-04-08T07:36:31Z</time></trkpt><trkpt lat="34.15496328342584" lon="8.068285105367826"><ele>-20.0</ele><time>2026-04-08T07:36:32Z</time></trkpt><trkpt lat="34.155213926346505" lon="8.068141537085742"><ele>-19.0</ele><time>2026-04-08T07:36:33Z</time></trkpt><trkpt lat="34.15546701420711" lon="8.067990094366138"><ele>-19.5</ele><time>2026-04-08T07:36:34Z</time></trkpt><trkpt lat="34.15571308184295" lon="8.067842946600962"><ele>-20.0</ele><time>2026-04-08T07:36:35Z</time></trkpt><trkpt lat="34.15596162222817" lon="8.067690826785807"><ele>-20.0</ele><time>2026-04-08T07:36:36Z</time></trkpt><trkpt lat="34.156215783835684" lon="8.06753706257218"><ele>-20.0</ele><time>2026-04-08T07:36:37Z</time></trkpt><trkpt lat="34.156468428308564" lon="8.067381753214553"><ele>-20.5</ele><time>2026-04-08T07:36:38Z</time></trkpt><trkpt lat="34.15672275441121" lon="8.067223391506461"><ele>-21.0</ele><time>2026-04-08T07:36:39Z</time></trkpt><trkpt lat="34.15697580544875" lon="8.067065663419246"><ele>-21.0</ele><time>2026-04-08T07:36:40Z</time></trkpt><trkpt lat="34.15722068685833" lon="8.066916925874787"><ele>-21.0</ele><time>2026-04-08T07:36:41Z</time></trkpt><trkpt lat="34.15747402390431" lon="8.066768495559025"><ele>-21.0</ele><time>2026-04-08T07:36:42Z</time></trkpt><trkpt lat="34.157741893839784" lon="8.066599461683913"><ele>-21.0</ele><time>2026-04-08T07:36:43Z</time></trkpt><trkpt lat="34.158005901813524" lon="8.066419242969449"><ele>-21.0</ele><time>2026-04-08T07:36:44Z</time></trkpt><trkpt lat="34.158280904628214" lon="8.066233402580753"><ele>-21.0</ele><time>2026-04-08T07:36:45Z</time></trkpt><trkpt lat="34.158559741387805" lon="8.066044608505242"><ele>-21.0</ele><time>2026-04-08T07:36:46Z</time></trkpt><trkpt lat="34.15882601006787" lon="8.065867490564173"><ele>-21.0</ele><time>2026-04-08T07:36:47Z</time></trkpt><trkpt lat="34.15907713280492" lon="8.065694394803009"><ele>-20.0</ele><time>2026-04-08T07:36:48Z</time></trkpt><trkpt lat="34.159329392291056" lon="8.065530969381863"><ele>-19.0</ele><time>2026-04-08T07:36:49Z</time></trkpt><trkpt lat="34.15958468385728" lon="8.065360181844081"><ele>-19.0</ele><time>2026-04-08T07:36:50Z</time></trkpt><trkpt lat="34.159833938479515" lon="8.065190027905965"><ele>-19.0</ele><time>2026-04-08T07:36:51Z</time></trkpt><trkpt lat="34.16008464740144" lon="8.065016189954147"><ele>-19.0</ele><time>2026-04-08T07:36:52Z</time></trkpt><trkpt lat="34.160335523119194" lon="8.064840779948229"><ele>-19.0</ele><time>2026-04-08T07:36:53Z</time></trkpt><trkpt lat="34.16058870738676" lon="8.06467083760015"><ele>-20.5</ele><time>2026-04-08T07:36:54Z</time></trkpt><trkpt lat="34.16085034130962" lon="8.064499699597878"><ele>-22.0</ele><time>2026-04-08T07:36:55Z</time></trkpt><trkpt lat="34.16110436851723" lon="8.064314692277186"><ele>-22.0</ele><time>2026-04-08T07:36:56Z</time></trkpt><trkpt lat="34.16136459947346" lon="8.06411509023113"><ele>-22.0</ele><time>2026-04-08T07:36:57Z</time></trkpt><trkpt lat="34.161635584243506" lon="8.063907012193518"><ele>-21.0</ele><time>2026-04-08T07:36:58Z</time></trkpt><trkpt lat="34.16192311178695" lon="8.06368697659473"><ele>-20.0</ele><time>2026-04-08T07:36:59Z</time></trkpt><trkpt lat="34.16222162929327" lon="8.063461404186341"><ele>-19.5</ele><time>2026-04-08T07:37:00Z</time></trkpt><trkpt lat="34.162533411922034" lon="8.063226807821982"><ele>-19.0</ele><time>2026-04-08T07:37:01Z</time></trkpt><trkpt lat="34.16284689293205" lon="8.062989169019794"><ele>-19.0</ele><time>2026-04-08T07:37:02Z</time></trkpt><trkpt lat="34.163137438936225" lon="8.062764046436548"><ele>-19.0</ele><time>2026-04-08T07:37:03Z</time></trkpt><trkpt lat="34.16341185832209" lon="8.062553738401576"><ele>-19.0</ele><time>2026-04-08T07:37:04Z</time></trkpt><trkpt lat="34.16366698901658" lon="8.062349782147933"><ele>-19.0</ele><time>2026-04-08T07:37:05Z</time></trkpt><trkpt lat="34.16392323442088" lon="8.062143604962754"><ele>-19.0</ele><time>2026-04-08T07:37:06Z</time></trkpt><trkpt lat="34.16417257635313" lon="8.061941091420433"><ele>-19.0</ele><time>2026-04-08T07:37:07Z</time></trkpt><trkpt lat="34.16440815064638" lon="8.061752710633671"><ele>-19.5</ele><time>2026-04-08T07:37:08Z</time></trkpt><trkpt lat="34.1646325041269" lon="8.061561922881566"><ele>-20.0</ele><time>2026-04-08T07:37:09Z</time></trkpt><trkpt lat="34.16483831553478" lon="8.061388192096691"><ele>-20.5</ele><time>2026-04-08T07:37:10Z</time></trkpt><trkpt lat="34.1650441552816" lon="8.06121206196628"><ele>-21.0</ele><time>2026-04-08T07:37:11Z</time></trkpt><trkpt lat="34.16525534804195" lon="8.061027053983478"><ele>-21.0</ele><time>2026-04-08T07:37:12Z</time></trkpt><trkpt lat="34.16546924555583" lon="8.060844480501993"><ele>-21.0</ele><time>2026-04-08T07:37:13Z</time></trkpt><trkpt lat="34.165675314641575" lon="8.060670543450252"><ele>-20.333333333333332</ele><time>2026-04-08T07:37:14Z</time></trkpt><trkpt lat="34.16586308829011" lon="8.06051086136571"><ele>-19.666666666666664</ele><time>2026-04-08T07:37:15Z</time></trkpt><trkpt lat="34.16603523941129" lon="8.060364793000875"><ele>-19.0</ele><time>2026-04-08T07:37:16Z</time></trkpt><trkpt lat="34.16618988982621" lon="8.060228400379934"><ele>-19.0</ele><time>2026-04-08T07:37:17Z</time></trkpt><trkpt lat="34.166336695255275" lon="8.060102087530877"><ele>-19.0</ele><time>2026-04-08T07:37:18Z</time></trkpt><trkpt lat="34.16647010967162" lon="8.059985097687402"><ele>-19.0</ele><time>2026-04-08T07:37:19Z</time></trkpt><trkpt lat="34.16660014915292" lon="8.059865086074204"><ele>-19.333333333333332</ele><time>2026-04-08T07:37:20Z</time></trkpt><trkpt lat="34.166732066149045" lon="8.059740110719193"><ele>-19.666666666666668</ele><time>2026-04-08T07:37:21Z</time></trkpt><trkpt lat="34.166876318847414" lon="8.05961119140777"><ele>-20.0</ele><time>2026-04-08T07:37:22Z</time></trkpt><trkpt lat="34.16702254154148" lon="8.059483898749416"><ele>-20.0</ele><time>2026-04-08T07:37:23Z</time></trkpt><trkpt lat="34.16718141649394" lon="8.059348283862183"><ele>-20.0</ele><time>2026-04-08T07:37:24Z</time></trkpt><trkpt lat="34.16734613841096" lon="8.059214374100735"><ele>-20.0</ele><time>2026-04-08T07:37:25Z</time></trkpt><trkpt lat="34.167514199823934" lon="8.059075761684758"><ele>-20.0</ele><time>2026-04-08T07:37:26Z</time></trkpt><trkpt lat="34.16768107879627" lon="8.058937621887697"><ele>-20.0</ele><time>2026-04-08T07:37:27Z</time></trkpt><trkpt lat="34.16786117708031" lon="8.058785249365648"><ele>-20.0</ele><time>2026-04-08T07:37:28Z</time></trkpt><trkpt lat="34.168065135647396" lon="8.058614516294226"><ele>-20.0</ele><time>2026-04-08T07:37:29Z</time></trkpt><trkpt lat="34.16829161009605" lon="8.058420354783923"><ele>-20.0</ele><time>2026-04-08T07:37:30Z</time></trkpt><trkpt lat="34.16853135353149" lon="8.058207157652433"><ele>-20.0</ele><time>2026-04-08T07:37:31Z</time></trkpt><trkpt lat="34.16878671059563" lon="8.057978463005773"><ele>-20.0</ele><time>2026-04-08T07:37:32Z</time></trkpt><trkpt lat="34.16906254391871" lon="8.057740754333208"><ele>-19.5</ele><time>2026-04-08T07:37:33Z</time></trkpt><trkpt lat="34.169351854777624" lon="8.057502125264262"><ele>-19.0</ele><time>2026-04-08T07:37:34Z</time></trkpt><trkpt lat="34.16965113984734" lon="8.057262790275859"><ele>-19.0</ele><time>2026-04-08T07:37:35Z</time></trkpt><trkpt lat="34.169956451454205" lon="8.057007637250392"><ele>-19.0</ele><time>2026-04-08T07:37:36Z</time></trkpt><trkpt lat="34.17026958114199" lon="8.056748233754368"><ele>-19.0</ele><time>2026-04-08T07:37:37Z</time></trkpt><trkpt lat="34.170583097887544" lon="8.056488951426454"><ele>-19.0</ele><time>2026-04-08T07:37:38Z</time></trkpt><trkpt lat="34.170895478771506" lon="8.056232120513718"><ele>-19.0</ele><time>2026-04-08T07:37:39Z</time></trkpt><trkpt lat="34.17120318314403" lon="8.055979632468821"><ele>-19.0</ele><time>2026-04-08T07:37:40Z</time></trkpt><trkpt lat="34.17150592087072" lon="8.055725767459476"><ele>-18.0</ele><time>2026-04-08T07:37:41Z</time></trkpt><trkpt lat="34.171810132889604" lon="8.055467352670798"><ele>-17.0</ele><time>2026-04-08T07:37:42Z</time></trkpt><trkpt lat="34.172116178049045" lon="8.055205135862451"><ele>-17.5</ele><time>2026-04-08T07:37:43Z</time></trkpt><trkpt lat="34.172434733678536" lon="8.054936910032445"><ele>-18.0</ele><time>2026-04-08T07:37:44Z</time></trkpt><trkpt lat="34.17275242649005" lon="8.054666299690918"><ele>-18.0</ele><time>2026-04-08T07:37:45Z</time></trkpt><trkpt lat="34.173081653288335" lon="8.054389222390865"><ele>-18.0</ele><time>2026-04-08T07:37:46Z</time></trkpt><trkpt lat="34.17340895548663" lon="8.054106906007624"><ele>-18.5</ele><time>2026-04-08T07:37:47Z</time></trkpt><trkpt lat="34.17371275212985" lon="8.053845186064626"><ele>-19.0</ele><time>2026-04-08T07:37:48Z</time></trkpt><trkpt lat="34.17399808593988" lon="8.053599179668415"><ele>-19.0</ele><time>2026-04-08T07:37:49Z</time></trkpt><trkpt lat="34.17427351639016" lon="8.053363967944557"><ele>-19.0</ele><time>2026-04-08T07:37:50Z</time></trkpt><trkpt lat="34.17452315079261" lon="8.053153560858934"><ele>-19.0</ele><time>2026-04-08T07:37:51Z</time></trkpt><trkpt lat="34.17474763430745" lon="8.052964398229745"><ele>-19.0</ele><time>2026-04-08T07:37:52Z</time></trkpt><trkpt lat="34.17495678567719" lon="8.052789999434355"><ele>-19.0</ele><time>2026-04-08T07:37:53Z</time></trkpt><trkpt lat="34.175143087340366" lon="8.052630119147414"><ele>-19.0</ele><time>2026-04-08T07:37:54Z</time></trkpt><trkpt lat="34.175307451768894" lon="8.052488312873994"><ele>-19.0</ele><time>2026-04-08T07:37:55Z</time></trkpt><trkpt lat="34.17545032890016" lon="8.052366671152246"><ele>-18.75</ele><time>2026-04-08T07:37:56Z</time></trkpt><trkpt lat="34.175574202128" lon="8.052259264128798"><ele>-18.5</ele><time>2026-04-08T07:37:57Z</time></trkpt><trkpt lat="34.17567462782553" lon="8.052171078584623"><ele>-18.25</ele><time>2026-04-08T07:37:58Z</time></trkpt><trkpt lat="34.17577278896549" lon="8.052085958848842"><ele>-18.0</ele><time>2026-04-08T07:37:59Z</time></trkpt><trkpt lat="34.17586567917008" lon="8.052004908812322"><ele>-17.8</ele><time>2026-04-08T07:38:00Z</time></trkpt><trkpt lat="34.175954190444685" lon="8.05192948617376"><ele>-17.6</ele><time>2026-04-08T07:38:01Z</time></trkpt><trkpt lat="34.17603666468544" lon="8.051856963026475"><ele>-17.4</ele><time>2026-04-08T07:38:02Z</time></trkpt><trkpt lat="34.176120615630154" lon="8.051784141324788"><ele>-17.2</ele><time>2026-04-08T07:38:03Z</time></trkpt><trkpt lat="34.176206623680045" lon="8.051710085627285"><ele>-17.0</ele><time>2026-04-08T07:38:04Z</time></trkpt><trkpt lat="34.17630322820093" lon="8.051627166146197"><ele>-16.75</ele><time>2026-04-08T07:38:05Z</time></trkpt><trkpt lat="34.17641295054923" lon="8.051534441775038"><ele>-16.5</ele><time>2026-04-08T07:38:06Z</time></trkpt><trkpt lat="34.17653307121052" lon="8.05143457066929"><ele>-16.25</ele><time>2026-04-08T07:38:07Z</time></trkpt><trkpt lat="34.17666364909391" lon="8.051327068282786"><ele>-16.0</ele><time>2026-04-08T07:38:08Z</time></trkpt><trkpt lat="34.17679312336208" lon="8.051220827393246"><ele>-16.666666666666664</ele><time>2026-04-08T07:38:09Z</time></trkpt><trkpt lat="34.176921753712925" lon="8.051115192982436"><ele>-17.333333333333332</ele><time>2026-04-08T07:38:10Z</time></trkpt><trkpt lat="34.17704634803805" lon="8.051007770950509"><ele>-18.0</ele><time>2026-04-08T07:38:11Z</time></trkpt><trkpt lat="34.177171587027864" lon="8.05089960713921"><ele>-18.0</ele><time>2026-04-08T07:38:12Z</time></trkpt><trkpt lat="34.177294895195445" lon="8.050792761545244"><ele>-18.0</ele><time>2026-04-08T07:38:13Z</time></trkpt><trkpt lat="34.17741296851221" lon="8.050691217711996"><ele>-18.0</ele><time>2026-04-08T07:38:14Z</time></trkpt><trkpt lat="34.177524734179336" lon="8.050600865106949"><ele>-18.0</ele><time>2026-04-08T07:38:15Z</time></trkpt><trkpt lat="34.17763361046697" lon="8.05051537852262"><ele>-18.0</ele><time>2026-04-08T07:38:16Z</time></trkpt><trkpt lat="34.177734532959136" lon="8.050430579376837"><ele>-18.0</ele><time>2026-04-08T07:38:17Z</time></trkpt><trkpt lat="34.177840787591855" lon="8.050341114903384"><ele>-18.0</ele><time>2026-04-08T07:38:18Z</time></trkpt><trkpt lat="34.1779462246957" lon="8.050254360155455"><ele>-18.0</ele><time>2026-04-08T07:38:19Z</time></trkpt><trkpt lat="34.17805832681292" lon="8.05015879568994"><ele>-18.0</ele><time>2026-04-08T07:38:20Z</time></trkpt><trkpt lat="34.17817458409553" lon="8.050060968923306"><ele>-18.0</ele><time>2026-04-08T07:38:21Z</time></trkpt><trkpt lat="34.17829559912706" lon="8.049959819323126"><ele>-18.0</ele><time>2026-04-08T07:38:22Z</time></trkpt><trkpt lat="34.17841202995362" lon="8.049866004802182"><ele>-18.0</ele><time>2026-04-08T07:38:23Z</time></trkpt><trkpt lat="34.178519219019066" lon="8.049778752285544"><ele>-17.25</ele><time>2026-04-08T07:38:24Z</time></trkpt><trkpt lat="34.178612962194634" lon="8.049696619667026"><ele>-16.5</ele><time>2026-04-08T07:38:25Z</time></trkpt><trkpt lat="34.178710432272865" lon="8.049618079289578"><ele>-15.75</ele><time>2026-04-08T07:38:26Z</time></trkpt><trkpt lat="34.17879910128226" lon="8.049546249461802"><ele>-15.0</ele><time>2026-04-08T07:38:27Z</time></trkpt><trkpt lat="34.178892612499745" lon="8.049470257945055"><ele>-15.0</ele><time>2026-04-08T07:38:28Z</time></trkpt><trkpt lat="34.178999458759606" lon="8.049384579153287"><ele>-15.0</ele><time>2026-04-08T07:38:29Z</time></trkpt><trkpt lat="34.17910963092679" lon="8.049297799739607"><ele>-15.0</ele><time>2026-04-08T07:38:30Z</time></trkpt><trkpt lat="34.179234547645216" lon="8.049201462976027"><ele>-15.0</ele><time>2026-04-08T07:38:31Z</time></trkpt><trkpt lat="34.17935776609905" lon="8.049100223937469"><ele>-15.333333333333332</ele><time>2026-04-08T07:38:32Z</time></trkpt><trkpt lat="34.17948785070347" lon="8.048989218109824"><ele>-15.666666666666666</ele><time>2026-04-08T07:38:33Z</time></trkpt><trkpt lat="34.179621317134185" lon="8.048879152537504"><ele>-16.0</ele><time>2026-04-08T07:38:34Z</time></trkpt><trkpt lat="34.17975942680441" lon="8.04876854881829"><ele>-15.666666666666666</ele><time>2026-04-08T07:38:35Z</time></trkpt><trkpt lat="34.179904588688515" lon="8.04865169846836"><ele>-15.333333333333332</ele><time>2026-04-08T07:38:36Z</time></trkpt><trkpt lat="34.180054885631606" lon="8.0485347578022"><ele>-15.0</ele><time>2026-04-08T07:38:37Z</time></trkpt><trkpt lat="34.18021538564058" lon="8.048408551412297"><ele>-15.333333333333332</ele><time>2026-04-08T07:38:38Z</time></trkpt><trkpt lat="34.18037224033018" lon="8.048283532291551"><ele>-15.666666666666666</ele><time>2026-04-08T07:38:39Z</time></trkpt><trkpt lat="34.18052910529963" lon="8.04815472623517"><ele>-16.0</ele><time>2026-04-08T07:38:40Z</time></trkpt><trkpt lat="34.1806875057027" lon="8.048020344053478"><ele>-16.0</ele><time>2026-04-08T07:38:41Z</time></trkpt><trkpt lat="34.18083816734195" lon="8.047896983880966"><ele>-16.0</ele><time>2026-04-08T07:38:42Z</time></trkpt><trkpt lat="34.18098160740942" lon="8.047787735466073"><ele>-16.0</ele><time>2026-04-08T07:38:43Z</time></trkpt><trkpt lat="34.18112124663862" lon="8.047674840062434"><ele>-16.0</ele><time>2026-04-08T07:38:44Z</time></trkpt><trkpt lat="34.1812524630512" lon="8.047566642243783"><ele>-16.0</ele><time>2026-04-08T07:38:45Z</time></trkpt><trkpt lat="34.18138516299702" lon="8.047463199097782"><ele>-16.0</ele><time>2026-04-08T07:38:46Z</time></trkpt><trkpt lat="34.181512600335715" lon="8.047363425167559"><ele>-15.666666666666666</ele><time>2026-04-08T07:38:47Z</time></trkpt><trkpt lat="34.18163588002706" lon="8.047261919104182"><ele>-15.333333333333332</ele><time>2026-04-08T07:38:48Z</time></trkpt><trkpt lat="34.18176495839726" lon="8.047159139663703"><ele>-15.0</ele><time>2026-04-08T07:38:49Z</time></trkpt><trkpt lat="34.181894388356746" lon="8.047055254271198"><ele>-15.0</ele><time>2026-04-08T07:38:50Z</time></trkpt><trkpt lat="34.18202040315291" lon="8.046957826086405"><ele>-15.0</ele><time>2026-04-08T07:38:51Z</time></trkpt><trkpt lat="34.182137840113796" lon="8.046862090344153"><ele>-15.0</ele><time>2026-04-08T07:38:52Z</time></trkpt><trkpt lat="34.182248239260204" lon="8.046770144598327"><ele>-15.0</ele><time>2026-04-08T07:38:53Z</time></trkpt><trkpt lat="34.18236583475139" lon="8.046677889321286"><ele>-15.333333333333332</ele><time>2026-04-08T07:38:54Z</time></trkpt><trkpt lat="34.182489998713905" lon="8.046576618832741"><ele>-15.666666666666666</ele><time>2026-04-08T07:38:55Z</time></trkpt><trkpt lat="34.18261527031232" lon="8.04647573632543"><ele>-16.0</ele><time>2026-04-08T07:38:56Z</time></trkpt><trkpt lat="34.18274359350259" lon="8.046371340175922"><ele>-16.0</ele><time>2026-04-08T07:38:57Z</time></trkpt><trkpt lat="34.182873704466566" lon="8.046268685352944"><ele>-16.0</ele><time>2026-04-08T07:38:58Z</time></trkpt><trkpt lat="34.18300430640167" lon="8.04616601275291"><ele>-16.0</ele><time>2026-04-08T07:38:59Z</time></trkpt><trkpt lat="34.18313473751888" lon="8.046058766717648"><ele>-16.0</ele><time>2026-04-08T07:39:00Z</time></trkpt><trkpt lat="34.18326532907219" lon="8.045952702980422"><ele>-16.0</ele><time>2026-04-08T07:39:01Z</time></trkpt><trkpt lat="34.183395841859955" lon="8.045848515153326"><ele>-16.0</ele><time>2026-04-08T07:39:02Z</time></trkpt><trkpt lat="34.183525544906615" lon="8.045748796185515"><ele>-15.75</ele><time>2026-04-08T07:39:03Z</time></trkpt><trkpt lat="34.183652904461894" lon="8.045651308809246"><ele>-15.5</ele><time>2026-04-08T07:39:04Z</time></trkpt><trkpt lat="34.18376781432624" lon="8.045559466212751"><ele>-15.25</ele><time>2026-04-08T07:39:05Z</time></trkpt><trkpt lat="34.183875798441186" lon="8.04546937701919"><ele>-15.0</ele><time>2026-04-08T07:39:06Z</time></trkpt><trkpt lat="34.18397276270964" lon="8.04538749554816"><ele>-15.0</ele><time>2026-04-08T07:39:07Z</time></trkpt><trkpt lat="34.184071057278146" lon="8.04531159564417"><ele>-15.0</ele><time>2026-04-08T07:39:08Z</time></trkpt><trkpt lat="34.18416349801146" lon="8.045242987363725"><ele>-15.0</ele><time>2026-04-08T07:39:09Z</time></trkpt><trkpt lat="34.18425444848639" lon="8.045172899693238"><ele>-15.0</ele><time>2026-04-08T07:39:10Z</time></trkpt><trkpt lat="34.18434178945743" lon="8.045100320862055"><ele>-15.0</ele><time>2026-04-08T07:39:11Z</time></trkpt><trkpt lat="34.184430745538506" lon="8.045026029652792"><ele>-14.0</ele><time>2026-04-08T07:39:12Z</time></trkpt><trkpt lat="34.18452589041245" lon="8.044953883936474"><ele>-13.0</ele><time>2026-04-08T07:39:13Z</time></trkpt><trkpt lat="34.18461940063362" lon="8.044877907903269"><ele>-12.0</ele><time>2026-04-08T07:39:14Z</time></trkpt><trkpt lat="34.184711908668056" lon="8.044801836941192"><ele>-11.0</ele><time>2026-04-08T07:39:15Z</time></trkpt><trkpt lat="34.18480784786629" lon="8.044729077240772"><ele>-11.333333333333332</ele><time>2026-04-08T07:39:16Z</time></trkpt><trkpt lat="34.18490531976791" lon="8.044656996208776"><ele>-11.666666666666666</ele><time>2026-04-08T07:39:17Z</time></trkpt><trkpt lat="34.18509583947924" lon="8.044505742524414"><ele>-12.0</ele><time>2026-04-08T07:39:19Z</time></trkpt><trkpt lat="34.18518930288997" lon="8.044429723694941"><ele>-12.0</ele><time>2026-04-08T07:39:20Z</time></trkpt><trkpt lat="34.18528298026422" lon="8.044355975129845"><ele>-12.0</ele><time>2026-04-08T07:39:21Z</time></trkpt><trkpt lat="34.185375408577755" lon="8.04428507513677"><ele>-12.0</ele><time>2026-04-08T07:39:22Z</time></trkpt><trkpt lat="34.18547068530666" lon="8.044211853705626"><ele>-12.0</ele><time>2026-04-08T07:39:23Z</time></trkpt><trkpt lat="34.18556212708615" lon="8.044139286888585"><ele>-12.0</ele><time>2026-04-08T07:39:24Z</time></trkpt><trkpt lat="34.18565312126132" lon="8.044065013720541"><ele>-11.5</ele><time>2026-04-08T07:39:25Z</time></trkpt><trkpt lat="34.18574594134353" lon="8.043990624111744"><ele>-11.0</ele><time>2026-04-08T07:39:26Z</time></trkpt><trkpt lat="34.1858383817431" lon="8.043916018576802"><ele>-10.5</ele><time>2026-04-08T07:39:27Z</time></trkpt><trkpt lat="34.18593702312114" lon="8.043833195543307"><ele>-10.0</ele><time>2026-04-08T07:39:28Z</time></trkpt><trkpt lat="34.186044264309906" lon="8.043744046582628"><ele>-10.0</ele><time>2026-04-08T07:39:29Z</time></trkpt><trkpt lat="34.18615263448933" lon="8.043651270293207"><ele>-10.0</ele><time>2026-04-08T07:39:30Z</time></trkpt><trkpt lat="34.18626386475627" lon="8.043551239145465"><ele>-10.0</ele><time>2026-04-08T07:39:31Z</time></trkpt><trkpt lat="34.18637697723606" lon="8.043447600582509"><ele>-10.0</ele><time>2026-04-08T07:39:32Z</time></trkpt><trkpt lat="34.18648385994434" lon="8.043345848509372"><ele>-10.5</ele><time>2026-04-08T07:39:33Z</time></trkpt><trkpt lat="34.186582808108405" lon="8.043247904385934"><ele>-11.0</ele><time>2026-04-08T07:39:34Z</time></trkpt><trkpt lat="34.186673991452714" lon="8.043154704920147"><ele>-11.5</ele><time>2026-04-08T07:39:35Z</time></trkpt><trkpt lat="34.186762704654036" lon="8.043069664476947"><ele>-12.0</ele><time>2026-04-08T07:39:36Z</time></trkpt><trkpt lat="34.18685080383421" lon="8.042994658497632"><ele>-12.0</ele><time>2026-04-08T07:39:37Z</time></trkpt><trkpt lat="34.18693451928446" lon="8.04292175154044"><ele>-12.0</ele><time>2026-04-08T07:39:38Z</time></trkpt><trkpt lat="34.18700892826654" lon="8.042850437056961"><ele>-12.0</ele><time>2026-04-08T07:39:39Z</time></trkpt><trkpt lat="34.18708092528951" lon="8.042777544993852"><ele>-12.0</ele><time>2026-04-08T07:39:40Z</time></trkpt><trkpt lat="34.18714814407014" lon="8.042710472833072"><ele>-12.0</ele><time>2026-04-08T07:39:41Z</time></trkpt><trkpt lat="34.18721683222096" lon="8.04264140889616"><ele>-12.0</ele><time>2026-04-08T07:39:42Z</time></trkpt><trkpt lat="34.18728997275829" lon="8.042569458498168"><ele>-12.0</ele><time>2026-04-08T07:39:43Z</time></trkpt><trkpt lat="34.18737325903183" lon="8.042489390221952"><ele>-12.0</ele><time>2026-04-08T07:39:44Z</time></trkpt><trkpt lat="34.187458493529014" lon="8.042405094818992"><ele>-12.0</ele><time>2026-04-08T07:39:45Z</time></trkpt><trkpt lat="34.187547972211966" lon="8.042318329092664"><ele>-12.0</ele><time>2026-04-08T07:39:46Z</time></trkpt><trkpt lat="34.187646645514874" lon="8.042221092067814"><ele>-11.75</ele><time>2026-04-08T07:39:47Z</time></trkpt><trkpt lat="34.187745491825034" lon="8.04212213423076"><ele>-11.5</ele><time>2026-04-08T07:39:48Z</time></trkpt><trkpt lat="34.187848280151016" lon="8.042017270867234"><ele>-11.25</ele><time>2026-04-08T07:39:49Z</time></trkpt><trkpt lat="34.18795902103636" lon="8.041894192463944"><ele>-11.0</ele><time>2026-04-08T07:39:50Z</time></trkpt><trkpt lat="34.188077776627004" lon="8.041764740648755"><ele>-10.333333333333332</ele><time>2026-04-08T07:39:51Z</time></trkpt><trkpt lat="34.188203914974125" lon="8.041631012523741"><ele>-9.666666666666666</ele><time>2026-04-08T07:39:52Z</time></trkpt><trkpt lat="34.18833363376173" lon="8.041488876054704"><ele>-9.0</ele><time>2026-04-08T07:39:53Z</time></trkpt><trkpt lat="34.18846531570715" lon="8.041341069835067"><ele>-9.0</ele><time>2026-04-08T07:39:54Z</time></trkpt><trkpt lat="34.18859688005336" lon="8.041186929662379"><ele>-9.0</ele><time>2026-04-08T07:39:55Z</time></trkpt><trkpt lat="34.18873209260095" lon="8.041026504530313"><ele>-9.0</ele><time>2026-04-08T07:39:56Z</time></trkpt><trkpt lat="34.18887315019906" lon="8.040864703297759"><ele>-8.666666666666666</ele><time>2026-04-08T07:39:57Z</time></trkpt><trkpt lat="34.18901242846891" lon="8.04069714367871"><ele>-8.333333333333332</ele><time>2026-04-08T07:39:58Z</time></trkpt><trkpt lat="34.189148659651345" lon="8.04053057281089"><ele>-8.0</ele><time>2026-04-08T07:39:59Z</time></trkpt><trkpt lat="34.18928527993948" lon="8.040354535422573"><ele>-8.0</ele><time>2026-04-08T07:40:00Z</time></trkpt><trkpt lat="34.18941740733426" lon="8.040183013158565"><ele>-8.0</ele><time>2026-04-08T07:40:01Z</time></trkpt><trkpt lat="34.189542987052135" lon="8.040029400157378"><ele>-8.0</ele><time>2026-04-08T07:40:02Z</time></trkpt><trkpt lat="34.189650558773444" lon="8.03988728000445"><ele>-7.333333333333333</ele><time>2026-04-08T07:40:03Z</time></trkpt><trkpt lat="34.18974868758561" lon="8.039752800775835"><ele>-6.666666666666666</ele><time>2026-04-08T07:40:04Z</time></trkpt><trkpt lat="34.18984676820112" lon="8.039616101127594"><ele>-6.0</ele><time>2026-04-08T07:40:05Z</time></trkpt><trkpt lat="34.18994516482258" lon="8.039473835971489"><ele>-6.0</ele><time>2026-04-08T07:40:06Z</time></trkpt><trkpt lat="34.19004469417991" lon="8.039319974602968"><ele>-6.0</ele><time>2026-04-08T07:40:07Z</time></trkpt><trkpt lat="34.1901426492795" lon="8.039172801162715"><ele>-6.0</ele><time>2026-04-08T07:40:08Z</time></trkpt><trkpt lat="34.1902431526932" lon="8.039027237821976"><ele>-5.666666666666667</ele><time>2026-04-08T07:40:09Z</time></trkpt><trkpt lat="34.19034174185084" lon="8.038872579684405"><ele>-5.333333333333334</ele><time>2026-04-08T07:40:10Z</time></trkpt><trkpt lat="34.19043676024801" lon="8.03871298399232"><ele>-5.0</ele><time>2026-04-08T07:40:11Z</time></trkpt><trkpt lat="34.190532165694506" lon="8.03855557404896"><ele>-5.0</ele><time>2026-04-08T07:40:12Z</time></trkpt><trkpt lat="34.1906239304107" lon="8.038399702424789"><ele>-5.0</ele><time>2026-04-08T07:40:13Z</time></trkpt><trkpt lat="34.19071877158833" lon="8.03824701327144"><ele>-5.0</ele><time>2026-04-08T07:40:14Z</time></trkpt><trkpt lat="34.19080388544368" lon="8.038084557273065"><ele>-5.5</ele><time>2026-04-08T07:40:15Z</time></trkpt><trkpt lat="34.19088884397452" lon="8.037934663680405"><ele>-6.0</ele><time>2026-04-08T07:40:16Z</time></trkpt><trkpt lat="34.19097448303758" lon="8.037791075479296"><ele>-6.5</ele><time>2026-04-08T07:40:17Z</time></trkpt><trkpt lat="34.19105230319685" lon="8.037657859727455"><ele>-7.0</ele><time>2026-04-08T07:40:18Z</time></trkpt><trkpt lat="34.19112455305412" lon="8.037528660929619"><ele>-7.75</ele><time>2026-04-08T07:40:19Z</time></trkpt><trkpt lat="34.19119841760157" lon="8.0373946907488"><ele>-8.5</ele><time>2026-04-08T07:40:20Z</time></trkpt><trkpt lat="34.19127009080355" lon="8.037264272747779"><ele>-9.25</ele><time>2026-04-08T07:40:21Z</time></trkpt><trkpt lat="34.19133985509855" lon="8.037132160786493"><ele>-10.0</ele><time>2026-04-08T07:40:22Z</time></trkpt><trkpt lat="34.191411739017454" lon="8.036998716826238"><ele>-10.0</ele><time>2026-04-08T07:40:23Z</time></trkpt><trkpt lat="34.19147893286012" lon="8.036864443411154"><ele>-10.0</ele><time>2026-04-08T07:40:24Z</time></trkpt><trkpt lat="34.1915475719194" lon="8.036723966314705"><ele>-10.0</ele><time>2026-04-08T07:40:25Z</time></trkpt><trkpt lat="34.19161836235711" lon="8.036576373645978"><ele>-10.0</ele><time>2026-04-08T07:40:26Z</time></trkpt><trkpt lat="34.191689125973824" lon="8.03642916130865"><ele>-10.0</ele><time>2026-04-08T07:40:27Z</time></trkpt><trkpt lat="34.19175742389178" lon="8.036281000076151"><ele>-10.0</ele><time>2026-04-08T07:40:28Z</time></trkpt><trkpt lat="34.19182635405219" lon="8.036131103525953"><ele>-10.0</ele><time>2026-04-08T07:40:29Z</time></trkpt><trkpt lat="34.191894477590644" lon="8.035983415446655"><ele>-10.0</ele><time>2026-04-08T07:40:30Z</time></trkpt><trkpt lat="34.19196182891971" lon="8.035832721028195"><ele>-10.0</ele><time>2026-04-08T07:40:31Z</time></trkpt><trkpt lat="34.192029968563865" lon="8.035678896712577"><ele>-10.0</ele><time>2026-04-08T07:40:32Z</time></trkpt><trkpt lat="34.19209751533556" lon="8.035524040958999"><ele>-10.0</ele><time>2026-04-08T07:40:33Z</time></trkpt><trkpt lat="34.192167606659034" lon="8.035369201634776"><ele>-10.0</ele><time>2026-04-08T07:40:34Z</time></trkpt><trkpt lat="34.19224256022227" lon="8.035210189061168"><ele>-10.0</ele><time>2026-04-08T07:40:35Z</time></trkpt><trkpt lat="34.19231337849532" lon="8.035049339256934"><ele>-10.0</ele><time>2026-04-08T07:40:36Z</time></trkpt><trkpt lat="34.19239817493388" lon="8.034882687003098"><ele>-10.0</ele><time>2026-04-08T07:40:37Z</time></trkpt><trkpt lat="34.192485858121124" lon="8.034723826197002"><ele>-9.333333333333334</ele><time>2026-04-08T07:40:38Z</time></trkpt><trkpt lat="34.192575463256745" lon="8.034566353387614"><ele>-8.666666666666666</ele><time>2026-04-08T07:40:39Z</time></trkpt><trkpt lat="34.19267035239991" lon="8.034412652667505"><ele>-8.0</ele><time>2026-04-08T07:40:40Z</time></trkpt><trkpt lat="34.192774589608256" lon="8.034263684337546"><ele>-7.666666666666666</ele><time>2026-04-08T07:40:41Z</time></trkpt><trkpt lat="34.192886521665535" lon="8.034121650677086"><ele>-7.333333333333334</ele><time>2026-04-08T07:40:42Z</time></trkpt><trkpt lat="34.19300328805964" lon="8.033993966804603"><ele>-7.0</ele><time>2026-04-08T07:40:43Z</time></trkpt><trkpt lat="34.19312298152243" lon="8.033870001538068"><ele>-6.5</ele><time>2026-04-08T07:40:44Z</time></trkpt><trkpt lat="34.1932418331163" lon="8.033767748477343"><ele>-6.0</ele><time>2026-04-08T07:40:45Z</time></trkpt><trkpt lat="34.19335560130545" lon="8.033678084527223"><ele>-5.5</ele><time>2026-04-08T07:40:46Z</time></trkpt><trkpt lat="34.19347865251836" lon="8.033613738540168"><ele>-5.0</ele><time>2026-04-08T07:40:47Z</time></trkpt><trkpt lat="34.19361196679832" lon="8.033564021905095"><ele>-5.0</ele><time>2026-04-08T07:40:48Z</time></trkpt><trkpt lat="34.19375569726505" lon="8.033520825333543"><ele>-5.0</ele><time>2026-04-08T07:40:49Z</time></trkpt><trkpt lat="34.19390557847869" lon="8.033473029056925"><ele>-5.0</ele><time>2026-04-08T07:40:50Z</time></trkpt><trkpt lat="34.19405785778834" lon="8.033422248474425"><ele>-5.0</ele><time>2026-04-08T07:40:51Z</time></trkpt><trkpt lat="34.19420869718718" lon="8.033370312581535"><ele>-5.0</ele><time>2026-04-08T07:40:52Z</time></trkpt><trkpt lat="34.19436632172464" lon="8.033318622980511"><ele>-5.0</ele><time>2026-04-08T07:40:53Z</time></trkpt><trkpt lat="34.19452504667058" lon="8.033267239045822"><ele>-5.0</ele><time>2026-04-08T07:40:54Z</time></trkpt><trkpt lat="34.19468482818164" lon="8.033214623674558"><ele>-5.0</ele><time>2026-04-08T07:40:55Z</time></trkpt><trkpt lat="34.19484350460667" lon="8.033162196256141"><ele>-5.0</ele><time>2026-04-08T07:40:56Z</time></trkpt><trkpt lat="34.1949981421848" lon="8.03311198160598"><ele>-4.75</ele><time>2026-04-08T07:40:57Z</time></trkpt><trkpt lat="34.195141461652774" lon="8.033063789026102"><ele>-4.5</ele><time>2026-04-08T07:40:58Z</time></trkpt><trkpt lat="34.1952765399068" lon="8.033016682699545"><ele>-4.25</ele><time>2026-04-08T07:40:59Z</time></trkpt><trkpt lat="34.195408220811736" lon="8.0329830483602"><ele>-4.0</ele><time>2026-04-08T07:41:00Z</time></trkpt><trkpt lat="34.19553592926587" lon="8.032942352665328"><ele>-4.0</ele><time>2026-04-08T07:41:01Z</time></trkpt><trkpt lat="34.195666886368905" lon="8.032895810976088"><ele>-4.0</ele><time>2026-04-08T07:41:02Z</time></trkpt><trkpt lat="34.195795471001084" lon="8.032853327958348"><ele>-4.0</ele><time>2026-04-08T07:41:03Z</time></trkpt><trkpt lat="34.19592782801383" lon="8.032808150944103"><ele>-4.0</ele><time>2026-04-08T07:41:04Z</time></trkpt><trkpt lat="34.19606022008626" lon="8.032759194985191"><ele>-4.0</ele><time>2026-04-08T07:41:05Z</time></trkpt><trkpt lat="34.196194935346156" lon="8.032707351774905"><ele>-4.0</ele><time>2026-04-08T07:41:06Z</time></trkpt><trkpt lat="34.196334033710905" lon="8.032656586458547"><ele>-4.0</ele><time>2026-04-08T07:41:07Z</time></trkpt><trkpt lat="34.196470815029194" lon="8.032606600567647"><ele>-4.0</ele><time>2026-04-08T07:41:08Z</time></trkpt><trkpt lat="34.19660956521532" lon="8.032554882188505"><ele>-4.0</ele><time>2026-04-08T07:41:09Z</time></trkpt><trkpt lat="34.19674818405365" lon="8.032502229474762"><ele>-4.0</ele><time>2026-04-08T07:41:10Z</time></trkpt><trkpt lat="34.19688298463798" lon="8.032449354651288"><ele>-4.0</ele><time>2026-04-08T07:41:11Z</time></trkpt><trkpt lat="34.19702250773133" lon="8.032398312746393"><ele>-4.0</ele><time>2026-04-08T07:41:12Z</time></trkpt><trkpt lat="34.19716533069255" lon="8.032348267105997"><ele>-4.0</ele><time>2026-04-08T07:41:13Z</time></trkpt><trkpt lat="34.19731083316086" lon="8.032295004178227"><ele>-4.0</ele><time>2026-04-08T07:41:14Z</time></trkpt><trkpt lat="34.19745980878314" lon="8.03223695240415"><ele>-4.0</ele><time>2026-04-08T07:41:15Z</time></trkpt><trkpt lat="34.197611733204134" lon="8.032175376520595"><ele>-4.0</ele><time>2026-04-08T07:41:16Z</time></trkpt><trkpt lat="34.19776449484003" lon="8.032114654348785"><ele>-4.0</ele><time>2026-04-08T07:41:17Z</time></trkpt><trkpt lat="34.197916983581884" lon="8.03205569307679"><ele>-4.0</ele><time>2026-04-08T07:41:18Z</time></trkpt><trkpt lat="34.19806679416285" lon="8.031995859087269"><ele>-3.6666666666666665</ele><time>2026-04-08T07:41:19Z</time></trkpt><trkpt lat="34.19821977757157" lon="8.03192958581317"><ele>-3.333333333333333</ele><time>2026-04-08T07:41:20Z</time></trkpt><trkpt lat="34.19836962923631" lon="8.031867331373073"><ele>-3.0</ele><time>2026-04-08T07:41:21Z</time></trkpt><trkpt lat="34.19852171702933" lon="8.03179459138565"><ele>-3.0</ele><time>2026-04-08T07:41:22Z</time></trkpt><trkpt lat="34.198667542053364" lon="8.031716961382129"><ele>-3.0</ele><time>2026-04-08T07:41:23Z</time></trkpt><trkpt lat="34.19881158213981" lon="8.031633203221196"><ele>-3.0</ele><time>2026-04-08T07:41:24Z</time></trkpt><trkpt lat="34.198957036527794" lon="8.03154839579758"><ele>-3.0</ele><time>2026-04-08T07:41:25Z</time></trkpt><trkpt lat="34.199104274699245" lon="8.031465269961112"><ele>-3.0</ele><time>2026-04-08T07:41:26Z</time></trkpt><trkpt lat="34.1992524859727" lon="8.03138071653192"><ele>-3.0</ele><time>2026-04-08T07:41:27Z</time></trkpt><trkpt lat="34.199398281913126" lon="8.031282479350631"><ele>-3.0</ele><time>2026-04-08T07:41:28Z</time></trkpt><trkpt lat="34.19954067838458" lon="8.031175093275401"><ele>-3.0</ele><time>2026-04-08T07:41:29Z</time></trkpt><trkpt lat="34.19968080559919" lon="8.031068522204828"><ele>-3.0</ele><time>2026-04-08T07:41:30Z</time></trkpt><trkpt lat="34.19982365818372" lon="8.03095884855871"><ele>-2.6666666666666665</ele><time>2026-04-08T07:41:31Z</time></trkpt><trkpt lat="34.1999657890132" lon="8.030843370740543"><ele>-2.333333333333333</ele><time>2026-04-08T07:41:32Z</time></trkpt><trkpt lat="34.20010565208136" lon="8.030723791425887"><ele>-2.0</ele><time>2026-04-08T07:41:33Z</time></trkpt><trkpt lat="34.20024487169978" lon="8.03060100344158"><ele>-1.6666666666666665</ele><time>2026-04-08T07:41:34Z</time></trkpt><trkpt lat="34.2003860461157" lon="8.030469158003216"><ele>-1.3333333333333333</ele><time>2026-04-08T07:41:35Z</time></trkpt><trkpt lat="34.200521957536544" lon="8.030334264215533"><ele>-1.0</ele><time>2026-04-08T07:41:36Z</time></trkpt><trkpt lat="34.20065898534678" lon="8.030198178361589"><ele>-1.0</ele><time>2026-04-08T07:41:37Z</time></trkpt><trkpt lat="34.20079445292439" lon="8.030056883056302"><ele>-1.0</ele><time>2026-04-08T07:41:38Z</time></trkpt><trkpt lat="34.200927657005174" lon="8.029911322772769"><ele>-1.0</ele><time>2026-04-08T07:41:39Z</time></trkpt><trkpt lat="34.201056298135526" lon="8.029764969236375"><ele>-1.6666666666666665</ele><time>2026-04-08T07:41:40Z</time></trkpt><trkpt lat="34.20118473106887" lon="8.02960929671553"><ele>-2.3333333333333335</ele><time>2026-04-08T07:41:41Z</time></trkpt><trkpt lat="34.20130859568334" lon="8.029455144351704"><ele>-3.0</ele><time>2026-04-08T07:41:42Z</time></trkpt><trkpt lat="34.20143092122722" lon="8.02929713833845"><ele>-3.333333333333333</ele><time>2026-04-08T07:41:43Z</time></trkpt><trkpt lat="34.201550855655924" lon="8.029139518686012"><ele>-3.6666666666666665</ele><time>2026-04-08T07:41:44Z</time></trkpt><trkpt lat="34.20167287958678" lon="8.028976902452028"><ele>-4.0</ele><time>2026-04-08T07:41:45Z</time></trkpt><trkpt lat="34.20179307746667" lon="8.028814931459909"><ele>-4.0</ele><time>2026-04-08T07:41:46Z</time></trkpt><trkpt lat="34.20191637027565" lon="8.028653389528873"><ele>-4.0</ele><time>2026-04-08T07:41:47Z</time></trkpt><trkpt lat="34.2020471124866" lon="8.028484821529673"><ele>-4.0</ele><time>2026-04-08T07:41:48Z</time></trkpt><trkpt lat="34.202174142643166" lon="8.028323579818087"><ele>-4.0</ele><time>2026-04-08T07:41:49Z</time></trkpt><trkpt lat="34.2023015421636" lon="8.028159046619944"><ele>-4.0</ele><time>2026-04-08T07:41:50Z</time></trkpt><trkpt lat="34.20242794183662" lon="8.027994759834877"><ele>-4.0</ele><time>2026-04-08T07:41:51Z</time></trkpt><trkpt lat="34.202557217444635" lon="8.027829545117775"><ele>-4.0</ele><time>2026-04-08T07:41:52Z</time></trkpt><trkpt lat="34.20268545527893" lon="8.02766726162492"><ele>-4.0</ele><time>2026-04-08T07:41:53Z</time></trkpt><trkpt lat="34.20281237647427" lon="8.027502241620134"><ele>-4.0</ele><time>2026-04-08T07:41:54Z</time></trkpt><trkpt lat="34.20293450911586" lon="8.027342857260672"><ele>-4.0</ele><time>2026-04-08T07:41:55Z</time></trkpt><trkpt lat="34.20306137790494" lon="8.027175301221359"><ele>-4.0</ele><time>2026-04-08T07:41:56Z</time></trkpt><trkpt lat="34.203192200187985" lon="8.02700405513444"><ele>-4.0</ele><time>2026-04-08T07:41:57Z</time></trkpt><trkpt lat="34.20332212348111" lon="8.026835963165615"><ele>-4.0</ele><time>2026-04-08T07:41:58Z</time></trkpt><trkpt lat="34.203454909594214" lon="8.026663404098109"><ele>-4.0</ele><time>2026-04-08T07:41:59Z</time></trkpt><trkpt lat="34.20359018239132" lon="8.026486153736967"><ele>-4.0</ele><time>2026-04-08T07:42:00Z</time></trkpt><trkpt lat="34.20372466965196" lon="8.026312049530542"><ele>-3.333333333333333</ele><time>2026-04-08T07:42:01Z</time></trkpt><trkpt lat="34.203859219386" lon="8.026138465311742"><ele>-2.6666666666666665</ele><time>2026-04-08T07:42:02Z</time></trkpt><trkpt lat="34.20399204252578" lon="8.025966855706626"><ele>-2.0</ele><time>2026-04-08T07:42:03Z</time></trkpt><trkpt lat="34.20412046518423" lon="8.02579560285176"><ele>-2.0</ele><time>2026-04-08T07:42:04Z</time></trkpt><trkpt lat="34.20424880294689" lon="8.025623339145808"><ele>-2.0</ele><time>2026-04-08T07:42:05Z</time></trkpt><trkpt lat="34.20437711316215" lon="8.025455031853395"><ele>-2.0</ele><time>2026-04-08T07:42:06Z</time></trkpt><trkpt lat="34.20450248439046" lon="8.02529877988139"><ele>-2.0</ele><time>2026-04-08T07:42:07Z</time></trkpt><trkpt lat="34.20462474143687" lon="8.025144511816178"><ele>-2.0</ele><time>2026-04-08T07:42:08Z</time></trkpt><trkpt lat="34.20474607618619" lon="8.024990475200164"><ele>-2.0</ele><time>2026-04-08T07:42:09Z</time></trkpt><trkpt lat="34.20486546918294" lon="8.024834647120358"><ele>-2.0</ele><time>2026-04-08T07:42:10Z</time></trkpt><trkpt lat="34.20498324513739" lon="8.024681385110405"><ele>-2.0</ele><time>2026-04-08T07:42:11Z</time></trkpt><trkpt lat="34.205103828033636" lon="8.02452721326278"><ele>-2.0</ele><time>2026-04-08T07:42:12Z</time></trkpt><trkpt lat="34.20522232097917" lon="8.024372950540897"><ele>-2.0</ele><time>2026-04-08T07:42:13Z</time></trkpt><trkpt lat="34.20534111393742" lon="8.02421575476459"><ele>-2.0</ele><time>2026-04-08T07:42:14Z</time></trkpt><trkpt lat="34.205464234088346" lon="8.024054896220454"><ele>-2.0</ele><time>2026-04-08T07:42:15Z</time></trkpt><trkpt lat="34.20558889446769" lon="8.023892793735037"><ele>-1.3333333333333333</ele><time>2026-04-08T07:42:16Z</time></trkpt><trkpt lat="34.20571810101734" lon="8.023729005175388"><ele>-0.6666666666666666</ele><time>2026-04-08T07:42:17Z</time></trkpt><trkpt lat="34.205847594484304" lon="8.023563900615464"><ele>0.0</ele><time>2026-04-08T07:42:18Z</time></trkpt><trkpt lat="34.20597757293796" lon="8.023395802342037"><ele>-0.6666666666666666</ele><time>2026-04-08T07:42:19Z</time></trkpt><trkpt lat="34.20610142012466" lon="8.023229143824555"><ele>-1.3333333333333333</ele><time>2026-04-08T07:42:20Z</time></trkpt><trkpt lat="34.20622834711977" lon="8.023059416630277"><ele>-2.0</ele><time>2026-04-08T07:42:21Z</time></trkpt><trkpt lat="34.20635392405894" lon="8.022897657714967"><ele>-2.0</ele><time>2026-04-08T07:42:22Z</time></trkpt><trkpt lat="34.20648321867481" lon="8.022734744803616"><ele>-2.0</ele><time>2026-04-08T07:42:23Z</time></trkpt><trkpt lat="34.206610151228844" lon="8.022566600797335"><ele>-2.0</ele><time>2026-04-08T07:42:24Z</time></trkpt><trkpt lat="34.20673767185701" lon="8.02239607402683"><ele>-2.0</ele><time>2026-04-08T07:42:25Z</time></trkpt><trkpt lat="34.206863529370445" lon="8.02222650840709"><ele>-2.0</ele><time>2026-04-08T07:42:26Z</time></trkpt><trkpt lat="34.20699374803847" lon="8.022054206646116"><ele>-2.0</ele><time>2026-04-08T07:42:27Z</time></trkpt><trkpt lat="34.20712640755172" lon="8.021877141940728"><ele>-2.0</ele><time>2026-04-08T07:42:28Z</time></trkpt><trkpt lat="34.20726162744269" lon="8.021701867926792"><ele>-2.0</ele><time>2026-04-08T07:42:29Z</time></trkpt><trkpt lat="34.207397362547745" lon="8.021528580606907"><ele>-2.0</ele><time>2026-04-08T07:42:30Z</time></trkpt><trkpt lat="34.20753368993625" lon="8.021358666760262"><ele>-2.0</ele><time>2026-04-08T07:42:31Z</time></trkpt><trkpt lat="34.207666802360606" lon="8.021184707401233"><ele>-2.0</ele><time>2026-04-08T07:42:32Z</time></trkpt><trkpt lat="34.20779317661933" lon="8.021012233221043"><ele>-2.0</ele><time>2026-04-08T07:42:33Z</time></trkpt><trkpt lat="34.20792730734398" lon="8.02084586421942"><ele>-2.0</ele><time>2026-04-08T07:42:34Z</time></trkpt><trkpt lat="34.208056315600295" lon="8.020685504889602"><ele>-2.0</ele><time>2026-04-08T07:42:35Z</time></trkpt><trkpt lat="34.20818270174816" lon="8.02051948035091"><ele>-2.0</ele><time>2026-04-08T07:42:36Z</time></trkpt><trkpt lat="34.20829749629564" lon="8.020360764482422"><ele>-2.0</ele><time>2026-04-08T07:42:37Z</time></trkpt><trkpt lat="34.208410382748696" lon="8.02020935973183"><ele>-2.0</ele><time>2026-04-08T07:42:38Z</time></trkpt><trkpt lat="34.20852542580052" lon="8.020064719476245"><ele>-2.0</ele><time>2026-04-08T07:42:39Z</time></trkpt><trkpt lat="34.208639991921295" lon="8.019908772118542"><ele>-2.0</ele><time>2026-04-08T07:42:40Z</time></trkpt><trkpt lat="34.20875434909635" lon="8.019746880024305"><ele>-2.0</ele><time>2026-04-08T07:42:41Z</time></trkpt><trkpt lat="34.20886585226786" lon="8.019584573896685"><ele>-2.0</ele><time>2026-04-08T07:42:42Z</time></trkpt><trkpt lat="34.20897465652809" lon="8.01941582784354"><ele>-2.0</ele><time>2026-04-08T07:42:43Z</time></trkpt><trkpt lat="34.20908300998975" lon="8.019243328808368"><ele>-2.0</ele><time>2026-04-08T07:42:44Z</time></trkpt><trkpt lat="34.209188625548826" lon="8.019068054804087"><ele>-2.0</ele><time>2026-04-08T07:42:45Z</time></trkpt><trkpt lat="34.209294732124235" lon="8.018886445045414"><ele>-2.333333333333333</ele><time>2026-04-08T07:42:46Z</time></trkpt><trkpt lat="34.20940190277158" lon="8.018704157678222"><ele>-2.6666666666666665</ele><time>2026-04-08T07:42:47Z</time></trkpt><trkpt lat="34.209505554799925" lon="8.018516526249295"><ele>-3.0</ele><time>2026-04-08T07:42:48Z</time></trkpt><trkpt lat="34.20960780216088" lon="8.018325574962814"><ele>-3.333333333333333</ele><time>2026-04-08T07:42:49Z</time></trkpt><trkpt lat="34.20970982824548" lon="8.018137932716632"><ele>-3.6666666666666665</ele><time>2026-04-08T07:42:50Z</time></trkpt><trkpt lat="34.20981370823952" lon="8.017945737204192"><ele>-4.0</ele><time>2026-04-08T07:42:51Z</time></trkpt><trkpt lat="34.20991892378451" lon="8.017761298077136"><ele>-4.333333333333333</ele><time>2026-04-08T07:42:52Z</time></trkpt><trkpt lat="34.21002413099614" lon="8.017577569816352"><ele>-4.666666666666667</ele><time>2026-04-08T07:42:53Z</time></trkpt><trkpt lat="34.21013250125407" lon="8.017395730260764"><ele>-5.0</ele><time>2026-04-08T07:42:54Z</time></trkpt><trkpt lat="34.21024217721249" lon="8.017217134159191"><ele>-5.0</ele><time>2026-04-08T07:42:55Z</time></trkpt><trkpt lat="34.210354107083475" lon="8.017052444826039"><ele>-5.0</ele><time>2026-04-08T07:42:56Z</time></trkpt><trkpt lat="34.21046157287844" lon="8.016893524459997"><ele>-5.0</ele><time>2026-04-08T07:42:57Z</time></trkpt><trkpt lat="34.21056195461705" lon="8.016734903710255"><ele>-6.333333333333334</ele><time>2026-04-08T07:42:58Z</time></trkpt><trkpt lat="34.21066146276923" lon="8.016582345043519"><ele>-7.666666666666667</ele><time>2026-04-08T07:42:59Z</time></trkpt><trkpt lat="34.21076035312354" lon="8.016432258667166"><ele>-9.0</ele><time>2026-04-08T07:43:00Z</time></trkpt><trkpt lat="34.21086298648569" lon="8.016282177542193"><ele>-9.0</ele><time>2026-04-08T07:43:01Z</time></trkpt><trkpt lat="34.21096666374444" lon="8.016130451176178"><ele>-9.0</ele><time>2026-04-08T07:43:02Z</time></trkpt><trkpt lat="34.21106927861921" lon="8.015975751807964"><ele>-9.0</ele><time>2026-04-08T07:43:03Z</time></trkpt><trkpt lat="34.211173832091475" lon="8.015818308149198"><ele>-9.0</ele><time>2026-04-08T07:43:04Z</time></trkpt><trkpt lat="34.211280584713336" lon="8.015667333497309"><ele>-9.0</ele><time>2026-04-08T07:43:05Z</time></trkpt><trkpt lat="34.21138205414597" lon="8.015509325325143"><ele>-9.0</ele><time>2026-04-08T07:43:06Z</time></trkpt><trkpt lat="34.21148075379644" lon="8.015349143598124"><ele>-9.0</ele><time>2026-04-08T07:43:07Z</time></trkpt><trkpt lat="34.21157861427162" lon="8.015191918754486"><ele>-9.0</ele><time>2026-04-08T07:43:08Z</time></trkpt><trkpt lat="34.2116764400065" lon="8.015041147081115"><ele>-9.0</ele><time>2026-04-08T07:43:09Z</time></trkpt><trkpt lat="34.21177446223288" lon="8.014891738425025"><ele>-9.0</ele><time>2026-04-08T07:43:10Z</time></trkpt><trkpt lat="34.21187911632122" lon="8.014737348429037"><ele>-9.0</ele><time>2026-04-08T07:43:11Z</time></trkpt><trkpt lat="34.211985983868146" lon="8.01458594568951"><ele>-9.0</ele><time>2026-04-08T07:43:12Z</time></trkpt><trkpt lat="34.21209238843008" lon="8.014421921545209"><ele>-9.0</ele><time>2026-04-08T07:43:13Z</time></trkpt><trkpt lat="34.21219890727483" lon="8.01425167635037"><ele>-9.0</ele><time>2026-04-08T07:43:14Z</time></trkpt><trkpt lat="34.21230706935813" lon="8.014088099395302"><ele>-9.0</ele><time>2026-04-08T07:43:15Z</time></trkpt><trkpt lat="34.21241642843979" lon="8.013924767682878"><ele>-9.0</ele><time>2026-04-08T07:43:16Z</time></trkpt><trkpt lat="34.21252774410657" lon="8.013759259251026"><ele>-9.0</ele><time>2026-04-08T07:43:17Z</time></trkpt><trkpt lat="34.21264239754429" lon="8.013598029589856"><ele>-9.0</ele><time>2026-04-08T07:43:18Z</time></trkpt><trkpt lat="34.212764806919644" lon="8.013433187002292"><ele>-8.333333333333334</ele><time>2026-04-08T07:43:19Z</time></trkpt><trkpt lat="34.21288083150899" lon="8.013263236527349"><ele>-7.666666666666667</ele><time>2026-04-08T07:43:20Z</time></trkpt><trkpt lat="34.21299306378257" lon="8.013089881667579"><ele>-7.0</ele><time>2026-04-08T07:43:21Z</time></trkpt><trkpt lat="34.21310228860911" lon="8.012912402492786"><ele>-7.333333333333334</ele><time>2026-04-08T07:43:22Z</time></trkpt><trkpt lat="34.21321389045313" lon="8.01273055778906"><ele>-7.666666666666666</ele><time>2026-04-08T07:43:23Z</time></trkpt><trkpt lat="34.21332648317776" lon="8.01255195093845"><ele>-8.0</ele><time>2026-04-08T07:43:24Z</time></trkpt><trkpt lat="34.213441274415594" lon="8.01237328678165"><ele>-8.0</ele><time>2026-04-08T07:43:25Z</time></trkpt><trkpt lat="34.21355143726009" lon="8.012207160522259"><ele>-8.0</ele><time>2026-04-08T07:43:26Z</time></trkpt><trkpt lat="34.213668536491944" lon="8.012029556608761"><ele>-8.0</ele><time>2026-04-08T07:43:27Z</time></trkpt><trkpt lat="34.21378463888083" lon="8.011859944992732"><ele>-8.0</ele><time>2026-04-08T07:43:28Z</time></trkpt><trkpt lat="34.21390278624184" lon="8.011680281393993"><ele>-8.0</ele><time>2026-04-08T07:43:29Z</time></trkpt><trkpt lat="34.21401767689126" lon="8.011495898807327"><ele>-8.0</ele><time>2026-04-08T07:43:30Z</time></trkpt><trkpt lat="34.214135350487595" lon="8.011312965364976"><ele>-8.0</ele><time>2026-04-08T07:43:31Z</time></trkpt><trkpt lat="34.21425157827703" lon="8.011141328856004"><ele>-8.0</ele><time>2026-04-08T07:43:32Z</time></trkpt><trkpt lat="34.21436501678472" lon="8.010961959039323"><ele>-8.0</ele><time>2026-04-08T07:43:33Z</time></trkpt><trkpt lat="34.21447144297587" lon="8.010795770582483"><ele>-8.0</ele><time>2026-04-08T07:43:34Z</time></trkpt><trkpt lat="34.21457626253558" lon="8.010640520549902"><ele>-8.0</ele><time>2026-04-08T07:43:35Z</time></trkpt><trkpt lat="34.21467661419987" lon="8.010490331820586"><ele>-8.0</ele><time>2026-04-08T07:43:36Z</time></trkpt><trkpt lat="34.21477716508159" lon="8.010334485475443"><ele>-8.0</ele><time>2026-04-08T07:43:37Z</time></trkpt><trkpt lat="34.2148764575678" lon="8.010170790998291"><ele>-8.0</ele><time>2026-04-08T07:43:38Z</time></trkpt><trkpt lat="34.21497971583486" lon="8.010005686810915"><ele>-8.0</ele><time>2026-04-08T07:43:39Z</time></trkpt><trkpt lat="34.215083373511554" lon="8.009844981673572"><ele>-8.0</ele><time>2026-04-08T07:43:40Z</time></trkpt><trkpt lat="34.21519451908197" lon="8.00966970097823"><ele>-8.0</ele><time>2026-04-08T07:43:41Z</time></trkpt><trkpt lat="34.21530894587238" lon="8.009494378621225"><ele>-8.0</ele><time>2026-04-08T07:43:42Z</time></trkpt><trkpt lat="34.21542956411304" lon="8.009314653810275"><ele>-7.666666666666666</ele><time>2026-04-08T07:43:43Z</time></trkpt><trkpt lat="34.21554822539586" lon="8.009135407786808"><ele>-7.333333333333334</ele><time>2026-04-08T07:43:44Z</time></trkpt><trkpt lat="34.21566412588532" lon="8.008953282729186"><ele>-7.0</ele><time>2026-04-08T07:43:45Z</time></trkpt><trkpt lat="34.21578305632536" lon="8.008770166802437"><ele>-7.0</ele><time>2026-04-08T07:43:46Z</time></trkpt><trkpt lat="34.21589947804972" lon="8.008595991786882"><ele>-7.0</ele><time>2026-04-08T07:43:47Z</time></trkpt><trkpt lat="34.216014240108365" lon="8.00842046134842"><ele>-7.0</ele><time>2026-04-08T07:43:48Z</time></trkpt><trkpt lat="34.21612598716545" lon="8.008247613692467"><ele>-6.333333333333334</ele><time>2026-04-08T07:43:49Z</time></trkpt><trkpt lat="34.216238278642095" lon="8.008070444184789"><ele>-5.666666666666667</ele><time>2026-04-08T07:43:50Z</time></trkpt><trkpt lat="34.216351289865145" lon="8.00790093952183"><ele>-5.0</ele><time>2026-04-08T07:43:51Z</time></trkpt><trkpt lat="34.21646827130024" lon="8.007727311334422"><ele>-5.0</ele><time>2026-04-08T07:43:52Z</time></trkpt><trkpt lat="34.21658341089811" lon="8.007558726828535"><ele>-5.0</ele><time>2026-04-08T07:43:53Z</time></trkpt><trkpt lat="34.21669843923479" lon="8.00737817222321"><ele>-5.0</ele><time>2026-04-08T07:43:54Z</time></trkpt><trkpt lat="34.2168155141413" lon="8.007200250970715"><ele>-5.0</ele><time>2026-04-08T07:43:55Z</time></trkpt><trkpt lat="34.21693539026708" lon="8.00702011829751"><ele>-5.0</ele><time>2026-04-08T07:43:56Z</time></trkpt><trkpt lat="34.21705469004059" lon="8.006838271516205"><ele>-5.0</ele><time>2026-04-08T07:43:57Z</time></trkpt><trkpt lat="34.21717626486829" lon="8.006657456575727"><ele>-5.333333333333334</ele><time>2026-04-08T07:43:58Z</time></trkpt><trkpt lat="34.217295772790905" lon="8.006481101241674"><ele>-5.666666666666667</ele><time>2026-04-08T07:43:59Z</time></trkpt><trkpt lat="34.21741346390031" lon="8.006302227360013"><ele>-6.0</ele><time>2026-04-08T07:44:00Z</time></trkpt><trkpt lat="34.2175260113952" lon="8.006125161222053"><ele>-5.333333333333333</ele><time>2026-04-08T07:44:01Z</time></trkpt><trkpt lat="34.21764110167168" lon="8.005953157660004"><ele>-4.666666666666666</ele><time>2026-04-08T07:44:02Z</time></trkpt><trkpt lat="34.21776174060606" lon="8.005789825770325"><ele>-4.0</ele><time>2026-04-08T07:44:03Z</time></trkpt><trkpt lat="34.21788273056549" lon="8.005635648802945"><ele>-4.0</ele><time>2026-04-08T07:44:04Z</time></trkpt><trkpt lat="34.21800454602953" lon="8.005483802852932"><ele>-4.0</ele><time>2026-04-08T07:44:05Z</time></trkpt><trkpt lat="34.218128268985105" lon="8.00533802945047"><ele>-4.0</ele><time>2026-04-08T07:44:06Z</time></trkpt><trkpt lat="34.21825417546759" lon="8.00519560471051"><ele>-4.0</ele><time>2026-04-08T07:44:07Z</time></trkpt><trkpt lat="34.218385071191456" lon="8.005058856739431"><ele>-4.0</ele><time>2026-04-08T07:44:08Z</time></trkpt><trkpt lat="34.218526212432685" lon="8.004934145418163"><ele>-4.0</ele><time>2026-04-08T07:44:09Z</time></trkpt><trkpt lat="34.21867408449786" lon="8.00482442448712"><ele>-4.0</ele><time>2026-04-08T07:44:10Z</time></trkpt><trkpt lat="34.21882009701925" lon="8.004723415739168"><ele>-4.0</ele><time>2026-04-08T07:44:11Z</time></trkpt><trkpt lat="34.21896347705577" lon="8.004626550332612"><ele>-4.0</ele><time>2026-04-08T07:44:12Z</time></trkpt><trkpt lat="34.219099689471754" lon="8.004535343893119"><ele>-3.0</ele><time>2026-04-08T07:44:13Z</time></trkpt><trkpt lat="34.219239037954786" lon="8.004455905316062"><ele>-2.0</ele><time>2026-04-08T07:44:14Z</time></trkpt><trkpt lat="34.21937318637258" lon="8.00437373637799"><ele>-1.0</ele><time>2026-04-08T07:44:15Z</time></trkpt><trkpt lat="34.21950178179811" lon="8.004288833963104"><ele>-1.0</ele><time>2026-04-08T07:44:16Z</time></trkpt><trkpt lat="34.219634759678414" lon="8.004204455126215"><ele>-1.0</ele><time>2026-04-08T07:44:17Z</time></trkpt><trkpt lat="34.21977008582827" lon="8.004121429494655"><ele>-1.0</ele><time>2026-04-08T07:44:18Z</time></trkpt><trkpt lat="34.21990816811677" lon="8.00403659433636"><ele>-1.0</ele><time>2026-04-08T07:44:19Z</time></trkpt><trkpt lat="34.22005090355075" lon="8.003949963906912"><ele>-1.0</ele><time>2026-04-08T07:44:20Z</time></trkpt><trkpt lat="34.220194708366805" lon="8.003864207560468"><ele>-1.0</ele><time>2026-04-08T07:44:21Z</time></trkpt><trkpt lat="34.220338750521755" lon="8.003776459944143"><ele>-1.0</ele><time>2026-04-08T07:44:22Z</time></trkpt><trkpt lat="34.22049392444452" lon="8.003684330867964"><ele>-1.0</ele><time>2026-04-08T07:44:23Z</time></trkpt><trkpt lat="34.22064548306403" lon="8.003589839752875"><ele>-1.0</ele><time>2026-04-08T07:44:24Z</time></trkpt><trkpt lat="34.2208039431857" lon="8.00349453503933"><ele>-0.6666666666666666</ele><time>2026-04-08T07:44:25Z</time></trkpt><trkpt lat="34.22096355405332" lon="8.00339802548647"><ele>-0.3333333333333333</ele><time>2026-04-08T07:44:26Z</time></trkpt><trkpt lat="34.22112892725841" lon="8.003300054707404"><ele>0.0</ele><time>2026-04-08T07:44:27Z</time></trkpt><trkpt lat="34.221296688516325" lon="8.003200743865014"><ele>0.3333333333333333</ele><time>2026-04-08T07:44:28Z</time></trkpt><trkpt lat="34.22145924902015" lon="8.003100112921361"><ele>0.6666666666666666</ele><time>2026-04-08T07:44:29Z</time></trkpt><trkpt lat="34.22162859410569" lon="8.002997743929031"><ele>1.0</ele><time>2026-04-08T07:44:30Z</time></trkpt><trkpt lat="34.2217954501849" lon="8.002894126323234"><ele>1.0</ele><time>2026-04-08T07:44:31Z</time></trkpt><trkpt lat="34.221967174561456" lon="8.00279179604625"><ele>1.0</ele><time>2026-04-08T07:44:32Z</time></trkpt><trkpt lat="34.22214037842753" lon="8.002690570042557"><ele>1.0</ele><time>2026-04-08T07:44:33Z</time></trkpt><trkpt lat="34.222316754203945" lon="8.002590410603284"><ele>1.3333333333333333</ele><time>2026-04-08T07:44:34Z</time></trkpt><trkpt lat="34.22249151290731" lon="8.002488643621511"><ele>1.6666666666666665</ele><time>2026-04-08T07:44:35Z</time></trkpt><trkpt lat="34.22266982123755" lon="8.002385331828478"><ele>2.0</ele><time>2026-04-08T07:44:36Z</time></trkpt><trkpt lat="34.222843639190764" lon="8.002279641498092"><ele>2.0</ele><time>2026-04-08T07:44:37Z</time></trkpt><trkpt lat="34.223019048584455" lon="8.002170337358574"><ele>2.0</ele><time>2026-04-08T07:44:38Z</time></trkpt><trkpt lat="34.223188362458856" lon="8.002062918105928"><ele>2.0</ele><time>2026-04-08T07:44:39Z</time></trkpt><trkpt lat="34.22335974853985" lon="8.001952268626512"><ele>2.0</ele><time>2026-04-08T07:44:40Z</time></trkpt><trkpt lat="34.22353241573523" lon="8.001845814421973"><ele>2.0</ele><time>2026-04-08T07:44:41Z</time></trkpt><trkpt lat="34.22371226158422" lon="8.001736165154684"><ele>2.0</ele><time>2026-04-08T07:44:42Z</time></trkpt><trkpt lat="34.223889001122124" lon="8.001625853360443"><ele>2.0</ele><time>2026-04-08T07:44:43Z</time></trkpt><trkpt lat="34.22406977546914" lon="8.001518508744468"><ele>2.0</ele><time>2026-04-08T07:44:44Z</time></trkpt><trkpt lat="34.22424711507044" lon="8.0014057030687"><ele>2.0</ele><time>2026-04-08T07:44:45Z</time></trkpt><trkpt lat="34.22443194622124" lon="8.001292707158827"><ele>2.0</ele><time>2026-04-08T07:44:46Z</time></trkpt><trkpt lat="34.224613202930776" lon="8.001179475241058"><ele>2.0</ele><time>2026-04-08T07:44:47Z</time></trkpt><trkpt lat="34.224799721830294" lon="8.001063605939429"><ele>2.0</ele><time>2026-04-08T07:44:48Z</time></trkpt><trkpt lat="34.22498428663499" lon="8.000948311345764"><ele>2.333333333333333</ele><time>2026-04-08T07:44:49Z</time></trkpt><trkpt lat="34.225169458795605" lon="8.000828882249975"><ele>2.6666666666666665</ele><time>2026-04-08T07:44:50Z</time></trkpt><trkpt lat="34.22535508579404" lon="8.000710612766166"><ele>3.0</ele><time>2026-04-08T07:44:51Z</time></trkpt><trkpt lat="34.22553743095407" lon="8.000594993774618"><ele>3.333333333333333</ele><time>2026-04-08T07:44:52Z</time></trkpt><trkpt lat="34.22571697071564" lon="8.000477146265132"><ele>3.6666666666666665</ele><time>2026-04-08T07:44:53Z</time></trkpt><trkpt lat="34.22589892159205" lon="8.000362994289029"><ele>4.0</ele><time>2026-04-08T07:44:54Z</time></trkpt><trkpt lat="34.22607574735757" lon="8.00024457413592"><ele>4.0</ele><time>2026-04-08T07:44:55Z</time></trkpt><trkpt lat="34.22626087563846" lon="8.000128296209352"><ele>4.0</ele><time>2026-04-08T07:44:56Z</time></trkpt><trkpt lat="34.22644645081229" lon="8.000015518300344"><ele>4.0</ele><time>2026-04-08T07:44:57Z</time></trkpt><trkpt lat="34.226620986994675" lon="7.999905177778996"><ele>4.0</ele><time>2026-04-08T07:44:58Z</time></trkpt><trkpt lat="34.22680038454432" lon="7.999797454047644"><ele>4.0</ele><time>2026-04-08T07:44:59Z</time></trkpt><trkpt lat="34.22697643180862" lon="7.999688741832974"><ele>4.0</ele><time>2026-04-08T07:45:00Z</time></trkpt><trkpt lat="34.22714722564641" lon="7.999574395603324"><ele>4.0</ele><time>2026-04-08T07:45:01Z</time></trkpt><trkpt lat="34.22731351225645" lon="7.999463289911315"><ele>4.0</ele><time>2026-04-08T07:45:02Z</time></trkpt><trkpt lat="34.227487870549844" lon="7.999350692511677"><ele>4.0</ele><time>2026-04-08T07:45:03Z</time></trkpt><trkpt lat="34.227660526478445" lon="7.999239902237322"><ele>4.0</ele><time>2026-04-08T07:45:04Z</time></trkpt><trkpt lat="34.227833919888226" lon="7.999133907929732"><ele>4.0</ele><time>2026-04-08T07:45:05Z</time></trkpt><trkpt lat="34.22800398668888" lon="7.999030078391949"><ele>4.0</ele><time>2026-04-08T07:45:06Z</time></trkpt><trkpt lat="34.22817131258668" lon="7.998923854947926"><ele>4.333333333333333</ele><time>2026-04-08T07:45:07Z</time></trkpt><trkpt lat="34.22833855709489" lon="7.998812347050874"><ele>4.666666666666667</ele><time>2026-04-08T07:45:08Z</time></trkpt><trkpt lat="34.22850966193853" lon="7.9986996662049235"><ele>5.0</ele><time>2026-04-08T07:45:09Z</time></trkpt><trkpt lat="34.22868297812946" lon="7.998587955415537"><ele>5.0</ele><time>2026-04-08T07:45:10Z</time></trkpt><trkpt lat="34.22885858116305" lon="7.998478771821967"><ele>5.0</ele><time>2026-04-08T07:45:11Z</time></trkpt><trkpt lat="34.229039600047614" lon="7.998365251543563"><ele>5.0</ele><time>2026-04-08T07:45:12Z</time></trkpt><trkpt lat="34.2292176017362" lon="7.998253404532685"><ele>5.666666666666667</ele><time>2026-04-08T07:45:13Z</time></trkpt><trkpt lat="34.22939262279669" lon="7.998140599692761"><ele>6.333333333333334</ele><time>2026-04-08T07:45:14Z</time></trkpt><trkpt lat="34.22956639463746" lon="7.998023088899208"><ele>7.0</ele><time>2026-04-08T07:45:15Z</time></trkpt><trkpt lat="34.229737237359245" lon="7.997911982688762"><ele>6.666666666666667</ele><time>2026-04-08T07:45:16Z</time></trkpt><trkpt lat="34.2299073255706" lon="7.997803603858486"><ele>6.333333333333334</ele><time>2026-04-08T07:45:17Z</time></trkpt><trkpt lat="34.23007835634622" lon="7.99769548962444"><ele>6.0</ele><time>2026-04-08T07:45:18Z</time></trkpt><trkpt lat="34.230242990511094" lon="7.997588136278017"><ele>6.0</ele><time>2026-04-08T07:45:19Z</time></trkpt><trkpt lat="34.23041004778305" lon="7.997481839256413"><ele>6.0</ele><time>2026-04-08T07:45:20Z</time></trkpt><trkpt lat="34.23057762753293" lon="7.997375288925982"><ele>6.0</ele><time>2026-04-08T07:45:21Z</time></trkpt><trkpt lat="34.23074590957728" lon="7.997269210416725"><ele>6.0</ele><time>2026-04-08T07:45:22Z</time></trkpt><trkpt lat="34.23091628936959" lon="7.997158625438968"><ele>6.0</ele><time>2026-04-08T07:45:23Z</time></trkpt><trkpt lat="34.23108663035424" lon="7.997050992313202"><ele>6.0</ele><time>2026-04-08T07:45:24Z</time></trkpt><trkpt lat="34.231252397113856" lon="7.996945066429632"><ele>6.0</ele><time>2026-04-08T07:45:25Z</time></trkpt><trkpt lat="34.231416208950755" lon="7.996842654054895"><ele>6.0</ele><time>2026-04-08T07:45:26Z</time></trkpt><trkpt lat="34.231577817424075" lon="7.996732598971427"><ele>6.0</ele><time>2026-04-08T07:45:27Z</time></trkpt><trkpt lat="34.231740979496614" lon="7.996621581022129"><ele>6.666666666666666</ele><time>2026-04-08T07:45:28Z</time></trkpt><trkpt lat="34.23190192421756" lon="7.996513017789281"><ele>7.333333333333333</ele><time>2026-04-08T07:45:29Z</time></trkpt><trkpt lat="34.23206595498885" lon="7.99640534052944"><ele>8.0</ele><time>2026-04-08T07:45:30Z</time></trkpt><trkpt lat="34.232232022462625" lon="7.996296315803711"><ele>8.666666666666666</ele><time>2026-04-08T07:45:31Z</time></trkpt><trkpt lat="34.232392469630874" lon="7.996191739142659"><ele>9.333333333333334</ele><time>2026-04-08T07:45:32Z</time></trkpt><trkpt lat="34.232556849933786" lon="7.996079368597696"><ele>10.0</ele><time>2026-04-08T07:45:33Z</time></trkpt><trkpt lat="34.23272774851242" lon="7.995961938602754"><ele>10.0</ele><time>2026-04-08T07:45:34Z</time></trkpt><trkpt lat="34.232900419070475" lon="7.995846829754827"><ele>10.0</ele><time>2026-04-08T07:45:35Z</time></trkpt><trkpt lat="34.2330778361581" lon="7.9957368190146445"><ele>10.0</ele><time>2026-04-08T07:45:36Z</time></trkpt><trkpt lat="34.23326100237303" lon="7.995622676158384"><ele>10.0</ele><time>2026-04-08T07:45:37Z</time></trkpt><trkpt lat="34.23344230395571" lon="7.995509554717896"><ele>10.0</ele><time>2026-04-08T07:45:38Z</time></trkpt><trkpt lat="34.23362253492726" lon="7.995396874968247"><ele>10.0</ele><time>2026-04-08T07:45:39Z</time></trkpt><trkpt lat="34.23379956730246" lon="7.995279730114715"><ele>10.666666666666668</ele><time>2026-04-08T07:45:40Z</time></trkpt><trkpt lat="34.23398399771856" lon="7.9951612227995925"><ele>11.333333333333334</ele><time>2026-04-08T07:45:41Z</time></trkpt><trkpt lat="34.2341694608865" lon="7.995042676323951"><ele>12.0</ele><time>2026-04-08T07:45:42Z</time></trkpt><trkpt lat="34.23435308769327" lon="7.994919346127985"><ele>12.333333333333332</ele><time>2026-04-08T07:45:43Z</time></trkpt><trkpt lat="34.234533417732585" lon="7.99479164904309"><ele>12.666666666666666</ele><time>2026-04-08T07:45:44Z</time></trkpt><trkpt lat="34.23471654609232" lon="7.994660997916345"><ele>13.0</ele><time>2026-04-08T07:45:45Z</time></trkpt><trkpt lat="34.234896921325095" lon="7.994531604917283"><ele>13.0</ele><time>2026-04-08T07:45:46Z</time></trkpt><trkpt lat="34.235081915103265" lon="7.9944032401867045"><ele>13.0</ele><time>2026-04-08T07:45:47Z</time></trkpt><trkpt lat="34.23526313758015" lon="7.994277952947517"><ele>13.0</ele><time>2026-04-08T07:45:48Z</time></trkpt><trkpt lat="34.23545006273411" lon="7.99414570440646"><ele>13.0</ele><time>2026-04-08T07:45:49Z</time></trkpt><trkpt lat="34.23563571072426" lon="7.994014390345476"><ele>13.0</ele><time>2026-04-08T07:45:50Z</time></trkpt><trkpt lat="34.23581942174394" lon="7.993880283173305"><ele>13.0</ele><time>2026-04-08T07:45:51Z</time></trkpt><trkpt lat="34.236000324958496" lon="7.993749303747205"><ele>13.0</ele><time>2026-04-08T07:45:52Z</time></trkpt><trkpt lat="34.2361813917349" lon="7.993616629097637"><ele>13.0</ele><time>2026-04-08T07:45:53Z</time></trkpt><trkpt lat="34.236363371691496" lon="7.9934826033464725"><ele>13.0</ele><time>2026-04-08T07:45:54Z</time></trkpt><trkpt lat="34.23655196659484" lon="7.993351493496286"><ele>13.333333333333332</ele><time>2026-04-08T07:45:55Z</time></trkpt><trkpt lat="34.23674302450759" lon="7.993221446964475"><ele>13.666666666666668</ele><time>2026-04-08T07:45:56Z</time></trkpt><trkpt lat="34.236931765614095" lon="7.993091944974817"><ele>14.0</ele><time>2026-04-08T07:45:57Z</time></trkpt><trkpt lat="34.237126474665665" lon="7.99296435017186"><ele>14.666666666666668</ele><time>2026-04-08T07:45:58Z</time></trkpt><trkpt lat="34.23732345064389" lon="7.992841862449638"><ele>15.333333333333332</ele><time>2026-04-08T07:45:59Z</time></trkpt><trkpt lat="34.23752319471021" lon="7.99271864923453"><ele>16.0</ele><time>2026-04-08T07:46:00Z</time></trkpt><trkpt lat="34.23772351323886" lon="7.992595725713423"><ele>16.0</ele><time>2026-04-08T07:46:01Z</time></trkpt><trkpt lat="34.23791341362876" lon="7.992482647182017"><ele>16.0</ele><time>2026-04-08T07:46:02Z</time></trkpt><trkpt lat="34.23810063943653" lon="7.9923711210635275"><ele>16.0</ele><time>2026-04-08T07:46:03Z</time></trkpt><trkpt lat="34.238286327558775" lon="7.992258891335295"><ele>16.666666666666664</ele><time>2026-04-08T07:46:04Z</time></trkpt><trkpt lat="34.23846771592413" lon="7.992146849960249"><ele>17.333333333333332</ele><time>2026-04-08T07:46:05Z</time></trkpt><trkpt lat="34.238654463409716" lon="7.992031349305613"><ele>18.0</ele><time>2026-04-08T07:46:06Z</time></trkpt><trkpt lat="34.23884353214636" lon="7.991918034933251"><ele>18.333333333333332</ele><time>2026-04-08T07:46:07Z</time></trkpt><trkpt lat="34.239033840341314" lon="7.991803326846064"><ele>18.666666666666664</ele><time>2026-04-08T07:46:08Z</time></trkpt><trkpt lat="34.23922604435033" lon="7.9916888438427724"><ele>19.0</ele><time>2026-04-08T07:46:09Z</time></trkpt><trkpt lat="34.23941744498384" lon="7.991572319587389"><ele>19.0</ele><time>2026-04-08T07:46:10Z</time></trkpt><trkpt lat="34.239613872363606" lon="7.991453567873604"><ele>19.0</ele><time>2026-04-08T07:46:11Z</time></trkpt><trkpt lat="34.23980838487167" lon="7.991336210233763"><ele>19.0</ele><time>2026-04-08T07:46:12Z</time></trkpt><trkpt lat="34.240009632532065" lon="7.991216239049133"><ele>19.666666666666664</ele><time>2026-04-08T07:46:13Z</time></trkpt><trkpt lat="34.24020524018722" lon="7.991102964310216"><ele>20.333333333333332</ele><time>2026-04-08T07:46:14Z</time></trkpt><trkpt lat="34.24040582469534" lon="7.9909830378061235"><ele>21.0</ele><time>2026-04-08T07:46:15Z</time></trkpt><trkpt lat="34.24060894357225" lon="7.990858450326663"><ele>20.333333333333332</ele><time>2026-04-08T07:46:16Z</time></trkpt><trkpt lat="34.24080823001408" lon="7.990742286151486"><ele>19.666666666666664</ele><time>2026-04-08T07:46:17Z</time></trkpt><trkpt lat="34.24100747343109" lon="7.990619022502363"><ele>19.0</ele><time>2026-04-08T07:46:18Z</time></trkpt><trkpt lat="34.241206935421225" lon="7.990491553109211"><ele>19.0</ele><time>2026-04-08T07:46:19Z</time></trkpt><trkpt lat="34.241403922630404" lon="7.99036980987665"><ele>19.0</ele><time>2026-04-08T07:46:20Z</time></trkpt><trkpt lat="34.24160358637755" lon="7.99025097989415"><ele>19.0</ele><time>2026-04-08T07:46:21Z</time></trkpt><trkpt lat="34.24180609884138" lon="7.990134764048501"><ele>19.0</ele><time>2026-04-08T07:46:22Z</time></trkpt><trkpt lat="34.24200154016116" lon="7.990015262920758"><ele>19.0</ele><time>2026-04-08T07:46:23Z</time></trkpt><trkpt lat="34.242201479756346" lon="7.989893982489407"><ele>19.0</ele><time>2026-04-08T07:46:24Z</time></trkpt><trkpt lat="34.24239774092057" lon="7.989774050232368"><ele>19.666666666666664</ele><time>2026-04-08T07:46:25Z</time></trkpt><trkpt lat="34.242592944111884" lon="7.9896524883347295"><ele>20.333333333333332</ele><time>2026-04-08T07:46:26Z</time></trkpt><trkpt lat="34.24278250814526" lon="7.989526313722481"><ele>21.0</ele><time>2026-04-08T07:46:27Z</time></trkpt><trkpt lat="34.24298210061292" lon="7.989405652212774"><ele>21.333333333333332</ele><time>2026-04-08T07:46:28Z</time></trkpt><trkpt lat="34.243177186438636" lon="7.989283923307185"><ele>21.666666666666664</ele><time>2026-04-08T07:46:29Z</time></trkpt><trkpt lat="34.243374880078754" lon="7.989164495498208"><ele>22.0</ele><time>2026-04-08T07:46:30Z</time></trkpt><trkpt lat="34.243568355215594" lon="7.989045773675513"><ele>22.0</ele><time>2026-04-08T07:46:31Z</time></trkpt><trkpt lat="34.24377029247911" lon="7.9889279197818315"><ele>22.0</ele><time>2026-04-08T07:46:32Z</time></trkpt><trkpt lat="34.243971216452" lon="7.988808326234291"><ele>22.0</ele><time>2026-04-08T07:46:33Z</time></trkpt><trkpt lat="34.24417457960895" lon="7.98868483432282"><ele>22.0</ele><time>2026-04-08T07:46:34Z</time></trkpt><trkpt lat="34.24437945838714" lon="7.988553663535976"><ele>22.0</ele><time>2026-04-08T07:46:35Z</time></trkpt><trkpt lat="34.24459247185544" lon="7.988423668864718"><ele>22.0</ele><time>2026-04-08T07:46:36Z</time></trkpt><trkpt lat="34.244809989726825" lon="7.9882954648589335"><ele>22.0</ele><time>2026-04-08T07:46:37Z</time></trkpt><trkpt lat="34.24502987223542" lon="7.988166763716066"><ele>22.0</ele><time>2026-04-08T07:46:38Z</time></trkpt><trkpt lat="34.245247624416635" lon="7.988042325761043"><ele>22.0</ele><time>2026-04-08T07:46:39Z</time></trkpt><trkpt lat="34.24546778548133" lon="7.987913517436395"><ele>21.0</ele><time>2026-04-08T07:46:40Z</time></trkpt><trkpt lat="34.24569022457161" lon="7.987777129548081"><ele>20.0</ele><time>2026-04-08T07:46:41Z</time></trkpt><trkpt lat="34.24590926402367" lon="7.987647478441212"><ele>20.0</ele><time>2026-04-08T07:46:42Z</time></trkpt><trkpt lat="34.24613079189086" lon="7.987518579626145"><ele>20.0</ele><time>2026-04-08T07:46:43Z</time></trkpt><trkpt lat="34.246351980409976" lon="7.987390435918792"><ele>21.5</ele><time>2026-04-08T07:46:44Z</time></trkpt><trkpt lat="34.246572984198195" lon="7.987260009009085"><ele>23.0</ele><time>2026-04-08T07:46:45Z</time></trkpt><trkpt lat="34.24679359316502" lon="7.987132297169938"><ele>23.0</ele><time>2026-04-08T07:46:46Z</time></trkpt><trkpt lat="34.24701107499782" lon="7.987000152428357"><ele>23.0</ele><time>2026-04-08T07:46:47Z</time></trkpt><trkpt lat="34.24722468982088" lon="7.986858662071637"><ele>23.0</ele><time>2026-04-08T07:46:48Z</time></trkpt><trkpt lat="34.24743376033304" lon="7.986709522516769"><ele>23.0</ele><time>2026-04-08T07:46:49Z</time></trkpt><trkpt lat="34.24763410252696" lon="7.986542849344531"><ele>23.0</ele><time>2026-04-08T07:46:50Z</time></trkpt><trkpt lat="34.24782916970048" lon="7.986370640160401"><ele>23.0</ele><time>2026-04-08T07:46:51Z</time></trkpt><trkpt lat="34.24801681295776" lon="7.986175721068821"><ele>22.5</ele><time>2026-04-08T07:46:52Z</time></trkpt><trkpt lat="34.24819129349124" lon="7.985972922176863"><ele>22.0</ele><time>2026-04-08T07:46:53Z</time></trkpt><trkpt lat="34.24835608154371" lon="7.985755264691547"><ele>22.0</ele><time>2026-04-08T07:46:54Z</time></trkpt><trkpt lat="34.24850495022368" lon="7.985520862343402"><ele>22.0</ele><time>2026-04-08T07:46:55Z</time></trkpt><trkpt lat="34.24864384036532" lon="7.985279875947378"><ele>22.0</ele><time>2026-04-08T07:46:56Z</time></trkpt><trkpt lat="34.24877094802996" lon="7.9850331161055665"><ele>22.0</ele><time>2026-04-08T07:46:57Z</time></trkpt><trkpt lat="34.248891125886566" lon="7.984781116672143"><ele>22.5</ele><time>2026-04-08T07:46:58Z</time></trkpt><trkpt lat="34.249010585169465" lon="7.984524885402079"><ele>23.0</ele><time>2026-04-08T07:46:59Z</time></trkpt><trkpt lat="34.24913845431702" lon="7.984275752480039"><ele>23.5</ele><time>2026-04-08T07:47:00Z</time></trkpt><trkpt lat="34.249275108197125" lon="7.984032049736882"><ele>24.0</ele><time>2026-04-08T07:47:01Z</time></trkpt><trkpt lat="34.24941693447284" lon="7.983791909027226"><ele>24.0</ele><time>2026-04-08T07:47:02Z</time></trkpt><trkpt lat="34.249567627718505" lon="7.983563665574779"><ele>24.0</ele><time>2026-04-08T07:47:03Z</time></trkpt><trkpt lat="34.249728109935845" lon="7.983341624364513"><ele>23.5</ele><time>2026-04-08T07:47:04Z</time></trkpt><trkpt lat="34.249899669069094" lon="7.983126519386598"><ele>23.0</ele><time>2026-04-08T07:47:05Z</time></trkpt><trkpt lat="34.25007807805367" lon="7.982913658516652"><ele>23.0</ele><time>2026-04-08T07:47:06Z</time></trkpt><trkpt lat="34.25026829285999" lon="7.982709544307597"><ele>23.0</ele><time>2026-04-08T07:47:07Z</time></trkpt><trkpt lat="34.2504669872726" lon="7.982515919605176"><ele>22.5</ele><time>2026-04-08T07:47:08Z</time></trkpt><trkpt lat="34.250668383664376" lon="7.982323895612531"><ele>22.0</ele><time>2026-04-08T07:47:09Z</time></trkpt><trkpt lat="34.250878364863546" lon="7.982144203092127"><ele>22.0</ele><time>2026-04-08T07:47:10Z</time></trkpt><trkpt lat="34.25109965940196" lon="7.9819789622403015"><ele>22.0</ele><time>2026-04-08T07:47:11Z</time></trkpt><trkpt lat="34.2513236519845" lon="7.981824203121336"><ele>23.0</ele><time>2026-04-08T07:47:12Z</time></trkpt><trkpt lat="34.25155323460333" lon="7.981680213995869"><ele>24.0</ele><time>2026-04-08T07:47:13Z</time></trkpt><trkpt lat="34.251786594678144" lon="7.981543787223955"><ele>24.0</ele><time>2026-04-08T07:47:14Z</time></trkpt><trkpt lat="34.25201937813903" lon="7.9814151469452455"><ele>24.0</ele><time>2026-04-08T07:47:15Z</time></trkpt><trkpt lat="34.25225077402508" lon="7.981291037158965"><ele>24.0</ele><time>2026-04-08T07:47:16Z</time></trkpt><trkpt lat="34.25248565180091" lon="7.981157248306234"><ele>24.0</ele><time>2026-04-08T07:47:17Z</time></trkpt><trkpt lat="34.25271022914928" lon="7.981027297247142"><ele>24.0</ele><time>2026-04-08T07:47:18Z</time></trkpt><trkpt lat="34.25293583448413" lon="7.980895725612433"><ele>24.0</ele><time>2026-04-08T07:47:19Z</time></trkpt><trkpt lat="34.253164866015915" lon="7.980754767024667"><ele>24.5</ele><time>2026-04-08T07:47:20Z</time></trkpt><trkpt lat="34.25339605145651" lon="7.98061554148297"><ele>25.0</ele><time>2026-04-08T07:47:21Z</time></trkpt><trkpt lat="34.253627278340595" lon="7.980480014819954"><ele>25.0</ele><time>2026-04-08T07:47:22Z</time></trkpt><trkpt lat="34.25386014236368" lon="7.9803433727596005"><ele>25.0</ele><time>2026-04-08T07:47:23Z</time></trkpt><trkpt lat="34.25409351728448" lon="7.980209455438492"><ele>25.0</ele><time>2026-04-08T07:47:24Z</time></trkpt><trkpt lat="34.25432821645818" lon="7.980074204062906"><ele>25.0</ele><time>2026-04-08T07:47:25Z</time></trkpt><trkpt lat="34.25456122309642" lon="7.979939399700059"><ele>25.0</ele><time>2026-04-08T07:47:26Z</time></trkpt><trkpt lat="34.25479613781413" lon="7.979796049749657"><ele>25.0</ele><time>2026-04-08T07:47:27Z</time></trkpt><trkpt lat="34.255033575803566" lon="7.979654695961415"><ele>25.0</ele><time>2026-04-08T07:47:28Z</time></trkpt><trkpt lat="34.25527518119905" lon="7.9795183819679805"><ele>25.0</ele><time>2026-04-08T07:47:29Z</time></trkpt><trkpt lat="34.25552322547753" lon="7.979379887574283"><ele>25.0</ele><time>2026-04-08T07:47:30Z</time></trkpt><trkpt lat="34.255770658603126" lon="7.979240915646666"><ele>25.0</ele><time>2026-04-08T07:47:31Z</time></trkpt><trkpt lat="34.2560183676432" lon="7.979103320291703"><ele>25.0</ele><time>2026-04-08T07:47:32Z</time></trkpt><trkpt lat="34.25626871509667" lon="7.97895787579476"><ele>25.0</ele><time>2026-04-08T07:47:33Z</time></trkpt><trkpt lat="34.25652207402392" lon="7.978811135096674"><ele>25.0</ele><time>2026-04-08T07:47:34Z</time></trkpt><trkpt lat="34.25677631970266" lon="7.978661759048482"><ele>25.0</ele><time>2026-04-08T07:47:35Z</time></trkpt><trkpt lat="34.25703089786077" lon="7.978506817726867"><ele>25.0</ele><time>2026-04-08T07:47:36Z</time></trkpt><trkpt lat="34.257283860873905" lon="7.978353389198714"><ele>25.0</ele><time>2026-04-08T07:47:37Z</time></trkpt><trkpt lat="34.25753735942144" lon="7.978200464083868"><ele>26.5</ele><time>2026-04-08T07:47:38Z</time></trkpt><trkpt lat="34.25778927366494" lon="7.978052651006952"><ele>28.0</ele><time>2026-04-08T07:47:39Z</time></trkpt><trkpt lat="34.25804250103699" lon="7.97790918864306"><ele>27.0</ele><time>2026-04-08T07:47:40Z</time></trkpt><trkpt lat="34.25829220035341" lon="7.9777714734137515"><ele>26.0</ele><time>2026-04-08T07:47:41Z</time></trkpt><trkpt lat="34.25854444696685" lon="7.977622127812354"><ele>26.5</ele><time>2026-04-08T07:47:42Z</time></trkpt><trkpt lat="34.25879328753144" lon="7.977472505982347"><ele>27.0</ele><time>2026-04-08T07:47:43Z</time></trkpt><trkpt lat="34.25903989916619" lon="7.9773197424098905"><ele>27.0</ele><time>2026-04-08T07:47:44Z</time></trkpt><trkpt lat="34.25928278263886" lon="7.977177388412553"><ele>27.0</ele><time>2026-04-08T07:47:45Z</time></trkpt><trkpt lat="34.25951302260139" lon="7.977044344915736"><ele>27.0</ele><time>2026-04-08T07:47:46Z</time></trkpt><trkpt lat="34.259722416057" lon="7.97691953719259"><ele>27.0</ele><time>2026-04-08T07:47:47Z</time></trkpt><trkpt lat="34.259912824623214" lon="7.976806209351099"><ele>27.0</ele><time>2026-04-08T07:47:48Z</time></trkpt><trkpt lat="34.26008124646469" lon="7.976708983100864"><ele>27.666666666666664</ele><time>2026-04-08T07:47:49Z</time></trkpt><trkpt lat="34.26025215956106" lon="7.976613283627295"><ele>28.333333333333332</ele><time>2026-04-08T07:47:50Z</time></trkpt><trkpt lat="34.26043812081855" lon="7.976506439845831"><ele>29.0</ele><time>2026-04-08T07:47:51Z</time></trkpt><trkpt lat="34.26062674168567" lon="7.976396445920738"><ele>29.333333333333332</ele><time>2026-04-08T07:47:52Z</time></trkpt><trkpt lat="34.260816715451625" lon="7.976288352245185"><ele>29.666666666666664</ele><time>2026-04-08T07:47:53Z</time></trkpt><trkpt lat="34.26101111823224" lon="7.976178975326375"><ele>30.0</ele><time>2026-04-08T07:47:54Z</time></trkpt><trkpt lat="34.26120968138863" lon="7.976066027900071"><ele>30.0</ele><time>2026-04-08T07:47:55Z</time></trkpt><trkpt lat="34.261402017538025" lon="7.975951285336847"><ele>30.0</ele><time>2026-04-08T07:47:56Z</time></trkpt><trkpt lat="34.26160097077232" lon="7.975837028781784"><ele>30.0</ele><time>2026-04-08T07:47:57Z</time></trkpt><trkpt lat="34.26180125021979" lon="7.975719906640839"><ele>30.0</ele><time>2026-04-08T07:47:58Z</time></trkpt><trkpt lat="34.26199841975565" lon="7.9755912897405175"><ele>30.0</ele><time>2026-04-08T07:47:59Z</time></trkpt><trkpt lat="34.26219784004905" lon="7.975460813140524"><ele>30.5</ele><time>2026-04-08T07:48:00Z</time></trkpt><trkpt lat="34.262397295866656" lon="7.975327668119422"><ele>31.0</ele><time>2026-04-08T07:48:01Z</time></trkpt><trkpt lat="34.262592593887014" lon="7.975195457422939"><ele>31.0</ele><time>2026-04-08T07:48:02Z</time></trkpt><trkpt lat="34.26278577892968" lon="7.975058159789751"><ele>31.0</ele><time>2026-04-08T07:48:03Z</time></trkpt><trkpt lat="34.26296295092473" lon="7.97493127607465"><ele>31.0</ele><time>2026-04-08T07:48:04Z</time></trkpt><trkpt lat="34.26314087443444" lon="7.974804926117361"><ele>31.333333333333336</ele><time>2026-04-08T07:48:05Z</time></trkpt><trkpt lat="34.263320170209354" lon="7.97467514503763"><ele>31.666666666666664</ele><time>2026-04-08T07:48:06Z</time></trkpt><trkpt lat="34.26350195777414" lon="7.974544112441665"><ele>32.0</ele><time>2026-04-08T07:48:07Z</time></trkpt><trkpt lat="34.26368538722954" lon="7.974415925951201"><ele>32.0</ele><time>2026-04-08T07:48:08Z</time></trkpt><trkpt lat="34.26386837244602" lon="7.97428045099193"><ele>32.0</ele><time>2026-04-08T07:48:09Z</time></trkpt><trkpt lat="34.26405537904999" lon="7.974146839902075"><ele>32.0</ele><time>2026-04-08T07:48:10Z</time></trkpt><trkpt lat="34.26423752939932" lon="7.974009581377763"><ele>32.0</ele><time>2026-04-08T07:48:11Z</time></trkpt><trkpt lat="34.264432587367125" lon="7.973875724216028"><ele>32.0</ele><time>2026-04-08T07:48:12Z</time></trkpt><trkpt lat="34.26462361799591" lon="7.973738425171926"><ele>32.0</ele><time>2026-04-08T07:48:13Z</time></trkpt><trkpt lat="34.26481485240928" lon="7.973600677281084"><ele>32.33333333333333</ele><time>2026-04-08T07:48:14Z</time></trkpt><trkpt lat="34.26500663094857" lon="7.973463132112125"><ele>32.666666666666664</ele><time>2026-04-08T07:48:15Z</time></trkpt><trkpt lat="34.265202726130006" lon="7.973326406810232"><ele>33.0</ele><time>2026-04-08T07:48:16Z</time></trkpt><trkpt lat="34.26539187004278" lon="7.973185440643023"><ele>33.0</ele><time>2026-04-08T07:48:17Z</time></trkpt><trkpt lat="34.26558619586977" lon="7.97304777962337"><ele>33.0</ele><time>2026-04-08T07:48:18Z</time></trkpt><trkpt lat="34.26578453268962" lon="7.972901684078615"><ele>33.5</ele><time>2026-04-08T07:48:19Z</time></trkpt><trkpt lat="34.26598088424357" lon="7.972756155661034"><ele>34.0</ele><time>2026-04-08T07:48:20Z</time></trkpt><trkpt lat="34.26617405598186" lon="7.9726051714618"><ele>34.0</ele><time>2026-04-08T07:48:21Z</time></trkpt><trkpt lat="34.266361370087175" lon="7.9724578133347"><ele>34.0</ele><time>2026-04-08T07:48:22Z</time></trkpt><trkpt lat="34.26655033283883" lon="7.972303447890914"><ele>35.0</ele><time>2026-04-08T07:48:23Z</time></trkpt><trkpt lat="34.266737228419906" lon="7.9721468304279615"><ele>36.0</ele><time>2026-04-08T07:48:24Z</time></trkpt><trkpt lat="34.26692347819803" lon="7.971994792173094"><ele>36.0</ele><time>2026-04-08T07:48:25Z</time></trkpt><trkpt lat="34.26710994598168" lon="7.971844544077853"><ele>36.0</ele><time>2026-04-08T07:48:26Z</time></trkpt><trkpt lat="34.267297468758954" lon="7.971692576853266"><ele>35.666666666666664</ele><time>2026-04-08T07:48:27Z</time></trkpt><trkpt lat="34.26748310306917" lon="7.971539387532762"><ele>35.33333333333333</ele><time>2026-04-08T07:48:28Z</time></trkpt><trkpt lat="34.267665633158956" lon="7.971393333914725"><ele>35.0</ele><time>2026-04-08T07:48:29Z</time></trkpt><trkpt lat="34.26784832371368" lon="7.971247629150857"><ele>35.0</ele><time>2026-04-08T07:48:30Z</time></trkpt><trkpt lat="34.26802633612961" lon="7.971104786806066"><ele>35.0</ele><time>2026-04-08T07:48:31Z</time></trkpt><trkpt lat="34.26820592241297" lon="7.9709594706971325"><ele>35.0</ele><time>2026-04-08T07:48:32Z</time></trkpt><trkpt lat="34.26838414853302" lon="7.970810286284544"><ele>35.666666666666664</ele><time>2026-04-08T07:48:33Z</time></trkpt><trkpt lat="34.26856698275045" lon="7.970656366239253"><ele>36.333333333333336</ele><time>2026-04-08T07:48:34Z</time></trkpt><trkpt lat="34.268752930443995" lon="7.970504372565534"><ele>37.0</ele><time>2026-04-08T07:48:35Z</time></trkpt><trkpt lat="34.26893614399915" lon="7.970355214089169"><ele>37.5</ele><time>2026-04-08T07:48:36Z</time></trkpt><trkpt lat="34.26912070853919" lon="7.970203589275907"><ele>38.0</ele><time>2026-04-08T07:48:37Z</time></trkpt><trkpt lat="34.26931258580253" lon="7.970055740818707"><ele>37.5</ele><time>2026-04-08T07:48:38Z</time></trkpt><trkpt lat="34.26950325218156" lon="7.9699057477568696"><ele>37.0</ele><time>2026-04-08T07:48:39Z</time></trkpt><trkpt lat="34.26969602664207" lon="7.96975197560154"><ele>37.0</ele><time>2026-04-08T07:48:40Z</time></trkpt><trkpt lat="34.26988536923071" lon="7.9695980451884525"><ele>37.0</ele><time>2026-04-08T07:48:41Z</time></trkpt><trkpt lat="34.270079609882025" lon="7.969438747676757"><ele>37.0</ele><time>2026-04-08T07:48:42Z</time></trkpt><trkpt lat="34.27027727908644" lon="7.969277651774681"><ele>37.0</ele><time>2026-04-08T07:48:43Z</time></trkpt><trkpt lat="34.27046620138885" lon="7.969118291512905"><ele>38.5</ele><time>2026-04-08T07:48:44Z</time></trkpt><trkpt lat="34.27066610695048" lon="7.968954503372059"><ele>40.0</ele><time>2026-04-08T07:48:45Z</time></trkpt><trkpt lat="34.27086294234105" lon="7.968795140393715"><ele>40.0</ele><time>2026-04-08T07:48:46Z</time></trkpt><trkpt lat="34.27106734286264" lon="7.96863392637379"><ele>40.0</ele><time>2026-04-08T07:48:47Z</time></trkpt><trkpt lat="34.27126704883017" lon="7.968473532778429"><ele>39.5</ele><time>2026-04-08T07:48:48Z</time></trkpt><trkpt lat="34.2714693204543" lon="7.968311272945863"><ele>39.0</ele><time>2026-04-08T07:48:49Z</time></trkpt><trkpt lat="34.27167110631783" lon="7.968148369649043"><ele>39.0</ele><time>2026-04-08T07:48:50Z</time></trkpt><trkpt lat="34.27187464211502" lon="7.967984955874047"><ele>39.0</ele><time>2026-04-08T07:48:51Z</time></trkpt><trkpt lat="34.27207890135641" lon="7.967818763143125"><ele>39.5</ele><time>2026-04-08T07:48:52Z</time></trkpt><trkpt lat="34.272285202882884" lon="7.967655218567705"><ele>40.0</ele><time>2026-04-08T07:48:53Z</time></trkpt><trkpt lat="34.272486831509" lon="7.967494765989916"><ele>40.0</ele><time>2026-04-08T07:48:54Z</time></trkpt><trkpt lat="34.27268870923844" lon="7.967332843125864"><ele>40.0</ele><time>2026-04-08T07:48:55Z</time></trkpt><trkpt lat="34.27289241912467" lon="7.967168534703537"><ele>40.0</ele><time>2026-04-08T07:48:56Z</time></trkpt><trkpt lat="34.273093843395614" lon="7.967004857141011"><ele>40.0</ele><time>2026-04-08T07:48:57Z</time></trkpt><trkpt lat="34.2732989442457" lon="7.966841221130969"><ele>41.0</ele><time>2026-04-08T07:48:58Z</time></trkpt><trkpt lat="34.273496288857295" lon="7.96668175147346"><ele>42.0</ele><time>2026-04-08T07:48:59Z</time></trkpt><trkpt lat="34.27369768044421" lon="7.966518447964001"><ele>42.0</ele><time>2026-04-08T07:49:00Z</time></trkpt><trkpt lat="34.273896709400816" lon="7.966358810780933"><ele>42.0</ele><time>2026-04-08T07:49:01Z</time></trkpt><trkpt lat="34.27409267891076" lon="7.966201008772354"><ele>42.0</ele><time>2026-04-08T07:49:02Z</time></trkpt><trkpt lat="34.27428917545174" lon="7.966039397460294"><ele>42.0</ele><time>2026-04-08T07:49:03Z</time></trkpt><trkpt lat="34.274488595412244" lon="7.965878781034686"><ele>42.0</ele><time>2026-04-08T07:49:04Z</time></trkpt><trkpt lat="34.27468600568009" lon="7.965720169410337"><ele>42.0</ele><time>2026-04-08T07:49:05Z</time></trkpt><trkpt lat="34.27488201966319" lon="7.965563033674745"><ele>42.0</ele><time>2026-04-08T07:49:06Z</time></trkpt><trkpt lat="34.275075067701316" lon="7.965409671994816"><ele>42.0</ele><time>2026-04-08T07:49:07Z</time></trkpt><trkpt lat="34.27527783505907" lon="7.965245698521424"><ele>42.0</ele><time>2026-04-08T07:49:08Z</time></trkpt><trkpt lat="34.275477478556375" lon="7.965085866345062"><ele>42.0</ele><time>2026-04-08T07:49:09Z</time></trkpt><trkpt lat="34.275683247624706" lon="7.9649208247275896"><ele>43.5</ele><time>2026-04-08T07:49:10Z</time></trkpt><trkpt lat="34.27588953668794" lon="7.964756361160899"><ele>45.0</ele><time>2026-04-08T07:49:11Z</time></trkpt><trkpt lat="34.27609770814357" lon="7.964591511525271"><ele>45.0</ele><time>2026-04-08T07:49:12Z</time></trkpt><trkpt lat="34.27630573373499" lon="7.964422316699005"><ele>45.0</ele><time>2026-04-08T07:49:13Z</time></trkpt><trkpt lat="34.27651225744945" lon="7.964256037870056"><ele>45.0</ele><time>2026-04-08T07:49:14Z</time></trkpt><trkpt lat="34.276712198525885" lon="7.96409290412005"><ele>45.0</ele><time>2026-04-08T07:49:15Z</time></trkpt><trkpt lat="34.27691351189186" lon="7.963932479690937"><ele>45.0</ele><time>2026-04-08T07:49:16Z</time></trkpt><trkpt lat="34.27711003406648" lon="7.96377648759672"><ele>45.0</ele><time>2026-04-08T07:49:17Z</time></trkpt><trkpt lat="34.27730419868142" lon="7.963619708176679"><ele>45.0</ele><time>2026-04-08T07:49:18Z</time></trkpt><trkpt lat="34.277493829997766" lon="7.963465956852278"><ele>45.0</ele><time>2026-04-08T07:49:19Z</time></trkpt><trkpt lat="34.27768458069101" lon="7.963311183207258"><ele>45.0</ele><time>2026-04-08T07:49:20Z</time></trkpt><trkpt lat="34.27786857949643" lon="7.963161035461891"><ele>45.0</ele><time>2026-04-08T07:49:21Z</time></trkpt><trkpt lat="34.278052849101606" lon="7.9630120161007625"><ele>45.0</ele><time>2026-04-08T07:49:22Z</time></trkpt><trkpt lat="34.27823176465466" lon="7.962865965282924"><ele>45.333333333333336</ele><time>2026-04-08T07:49:23Z</time></trkpt><trkpt lat="34.27841512374593" lon="7.962720063765046"><ele>45.66666666666667</ele><time>2026-04-08T07:49:24Z</time></trkpt><trkpt lat="34.27860013779707" lon="7.96257323413596"><ele>46.0</ele><time>2026-04-08T07:49:25Z</time></trkpt><trkpt lat="34.278788826964515" lon="7.962415328658145"><ele>46.0</ele><time>2026-04-08T07:49:26Z</time></trkpt><trkpt lat="34.278979809489655" lon="7.962257393910736"><ele>46.0</ele><time>2026-04-08T07:49:27Z</time></trkpt><trkpt lat="34.27917122739262" lon="7.962101046695079"><ele>46.0</ele><time>2026-04-08T07:49:28Z</time></trkpt><trkpt lat="34.27936868191837" lon="7.961940880277034"><ele>46.0</ele><time>2026-04-08T07:49:29Z</time></trkpt><trkpt lat="34.279567330569385" lon="7.961782229095235"><ele>46.5</ele><time>2026-04-08T07:49:30Z</time></trkpt><trkpt lat="34.279767161653766" lon="7.961620388271052"><ele>47.0</ele><time>2026-04-08T07:49:31Z</time></trkpt><trkpt lat="34.27997547992087" lon="7.961453032064021"><ele>47.0</ele><time>2026-04-08T07:49:32Z</time></trkpt><trkpt lat="34.28018343198665" lon="7.961282518028353"><ele>47.0</ele><time>2026-04-08T07:49:33Z</time></trkpt><trkpt lat="34.280393901381686" lon="7.96111144140022"><ele>48.0</ele><time>2026-04-08T07:49:34Z</time></trkpt><trkpt lat="34.28060579893274" lon="7.960938139066857"><ele>49.0</ele><time>2026-04-08T07:49:35Z</time></trkpt><trkpt lat="34.2808176631225" lon="7.960764385226518"><ele>49.0</ele><time>2026-04-08T07:49:36Z</time></trkpt><trkpt lat="34.28103112624996" lon="7.960595708964457"><ele>49.0</ele><time>2026-04-08T07:49:37Z</time></trkpt><trkpt lat="34.281241794139135" lon="7.9604231480902765"><ele>48.5</ele><time>2026-04-08T07:49:38Z</time></trkpt><trkpt lat="34.28145373851407" lon="7.960255487971081"><ele>48.0</ele><time>2026-04-08T07:49:39Z</time></trkpt><trkpt lat="34.28166529300727" lon="7.960086056907043"><ele>48.0</ele><time>2026-04-08T07:49:40Z</time></trkpt><trkpt lat="34.28187458494829" lon="7.9599189394961085"><ele>48.0</ele><time>2026-04-08T07:49:41Z</time></trkpt><trkpt lat="34.28208187836607" lon="7.959752733341256"><ele>49.0</ele><time>2026-04-08T07:49:42Z</time></trkpt><trkpt lat="34.28228295996552" lon="7.959585314696042"><ele>50.0</ele><time>2026-04-08T07:49:43Z</time></trkpt><trkpt lat="34.28247514101417" lon="7.959430614511482"><ele>50.0</ele><time>2026-04-08T07:49:44Z</time></trkpt><trkpt lat="34.2826527821003" lon="7.959284862166749"><ele>50.0</ele><time>2026-04-08T07:49:45Z</time></trkpt><trkpt lat="34.28282301104544" lon="7.959146940658551"><ele>50.0</ele><time>2026-04-08T07:49:46Z</time></trkpt><trkpt lat="34.282989269941844" lon="7.959013712139303"><ele>50.333333333333336</ele><time>2026-04-08T07:49:47Z</time></trkpt><trkpt lat="34.28315863262904" lon="7.9588762685609975"><ele>50.66666666666667</ele><time>2026-04-08T07:49:48Z</time></trkpt><trkpt lat="34.283339206756175" lon="7.9587339116828995"><ele>51.0</ele><time>2026-04-08T07:49:49Z</time></trkpt><trkpt lat="34.283521388411955" lon="7.958588708732466"><ele>51.0</ele><time>2026-04-08T07:49:50Z</time></trkpt><trkpt lat="34.28369788672659" lon="7.958444516021679"><ele>51.0</ele><time>2026-04-08T07:49:51Z</time></trkpt><trkpt lat="34.28388107083983" lon="7.958300644687628"><ele>51.0</ele><time>2026-04-08T07:49:52Z</time></trkpt><trkpt lat="34.28405933119173" lon="7.958156243876537"><ele>51.66666666666667</ele><time>2026-04-08T07:49:53Z</time></trkpt><trkpt lat="34.28424080858293" lon="7.95800768463554"><ele>52.333333333333336</ele><time>2026-04-08T07:49:54Z</time></trkpt><trkpt lat="34.28443278757011" lon="7.957856167983602"><ele>53.0</ele><time>2026-04-08T07:49:55Z</time></trkpt><trkpt lat="34.28462137544419" lon="7.957700821557926"><ele>53.0</ele><time>2026-04-08T07:49:56Z</time></trkpt><trkpt lat="34.28481164906824" lon="7.9575467878530235"><ele>53.0</ele><time>2026-04-08T07:49:57Z</time></trkpt><trkpt lat="34.285001528794695" lon="7.957395542331187"><ele>53.5</ele><time>2026-04-08T07:49:58Z</time></trkpt><trkpt lat="34.285190914483636" lon="7.957238793243402"><ele>54.0</ele><time>2026-04-08T07:49:59Z</time></trkpt><trkpt lat="34.28538221538199" lon="7.957084030970248"><ele>54.0</ele><time>2026-04-08T07:50:00Z</time></trkpt><trkpt lat="34.28557177790105" lon="7.956931301482783"><ele>54.0</ele><time>2026-04-08T07:50:01Z</time></trkpt><trkpt lat="34.28576123171693" lon="7.956778574040135"><ele>54.0</ele><time>2026-04-08T07:50:02Z</time></trkpt><trkpt lat="34.285949470105905" lon="7.9566261653232635"><ele>54.0</ele><time>2026-04-08T07:50:03Z</time></trkpt><trkpt lat="34.286140149313454" lon="7.9564741248674675"><ele>54.0</ele><time>2026-04-08T07:50:04Z</time></trkpt><trkpt lat="34.28633264501702" lon="7.95632223379615"><ele>54.0</ele><time>2026-04-08T07:50:05Z</time></trkpt><trkpt lat="34.286522106790024" lon="7.956172785452725"><ele>54.0</ele><time>2026-04-08T07:50:06Z</time></trkpt><trkpt lat="34.28671195067852" lon="7.956018650187871"><ele>54.0</ele><time>2026-04-08T07:50:07Z</time></trkpt><trkpt lat="34.28690087308427" lon="7.95586147478353"><ele>54.0</ele><time>2026-04-08T07:50:08Z</time></trkpt><trkpt lat="34.28709022115393" lon="7.955706209522599"><ele>54.0</ele><time>2026-04-08T07:50:09Z</time></trkpt><trkpt lat="34.2872772044738" lon="7.9555488050931045"><ele>54.0</ele><time>2026-04-08T07:50:10Z</time></trkpt><trkpt lat="34.287472094609" lon="7.95538654544755"><ele>54.0</ele><time>2026-04-08T07:50:11Z</time></trkpt><trkpt lat="34.28766451557525" lon="7.955231311026782"><ele>54.0</ele><time>2026-04-08T07:50:12Z</time></trkpt><trkpt lat="34.28785754400834" lon="7.955081113649385"><ele>54.0</ele><time>2026-04-08T07:50:13Z</time></trkpt><trkpt lat="34.28805262725458" lon="7.954924046731252"><ele>55.0</ele><time>2026-04-08T07:50:14Z</time></trkpt><trkpt lat="34.28824476952358" lon="7.954768591243265"><ele>56.0</ele><time>2026-04-08T07:50:15Z</time></trkpt><trkpt lat="34.28843587807797" lon="7.954610900506048"><ele>56.0</ele><time>2026-04-08T07:50:16Z</time></trkpt><trkpt lat="34.288625797217726" lon="7.954460168197913"><ele>56.0</ele><time>2026-04-08T07:50:17Z</time></trkpt><trkpt lat="34.28881561156988" lon="7.9543093633528255"><ele>58.0</ele><time>2026-04-08T07:50:18Z</time></trkpt><trkpt lat="34.28900873418294" lon="7.954147779776103"><ele>60.0</ele><time>2026-04-08T07:50:19Z</time></trkpt><trkpt lat="34.289195195438026" lon="7.95399273258262"><ele>60.0</ele><time>2026-04-08T07:50:20Z</time></trkpt><trkpt lat="34.28938477379288" lon="7.953838500363499"><ele>60.0</ele><time>2026-04-08T07:50:21Z</time></trkpt><trkpt lat="34.28957350758412" lon="7.953686663737257"><ele>59.0</ele><time>2026-04-08T07:50:22Z</time></trkpt><trkpt lat="34.289761177506634" lon="7.953534468676073"><ele>58.0</ele><time>2026-04-08T07:50:23Z</time></trkpt><trkpt lat="34.28994880015004" lon="7.953380045223992"><ele>58.5</ele><time>2026-04-08T07:50:24Z</time></trkpt><trkpt lat="34.29013531789769" lon="7.953228749984037"><ele>59.0</ele><time>2026-04-08T07:50:24.999Z</time></trkpt><trkpt lat="34.29032313635934" lon="7.953075267574569"><ele>59.0</ele><time>2026-04-08T07:50:26Z</time></trkpt><trkpt lat="34.29050846174576" lon="7.952923542710118"><ele>59.0</ele><time>2026-04-08T07:50:27Z</time></trkpt><trkpt lat="34.29069581921817" lon="7.9527724189218905"><ele>59.0</ele><time>2026-04-08T07:50:28Z</time></trkpt><trkpt lat="34.290880050974295" lon="7.952626954884746"><ele>59.0</ele><time>2026-04-08T07:50:29Z</time></trkpt><trkpt lat="34.2910651220478" lon="7.9524752389551665"><ele>59.0</ele><time>2026-04-08T07:50:30Z</time></trkpt><trkpt lat="34.2912489503587" lon="7.952327399682028"><ele>59.0</ele><time>2026-04-08T07:50:31Z</time></trkpt><trkpt lat="34.291425904347356" lon="7.952185996875786"><ele>59.333333333333336</ele><time>2026-04-08T07:50:32Z</time></trkpt><trkpt lat="34.29158753041683" lon="7.952053548802491"><ele>59.66666666666667</ele><time>2026-04-08T07:50:33Z</time></trkpt><trkpt lat="34.29175601372198" lon="7.951920307955292"><ele>60.0</ele><time>2026-04-08T07:50:34Z</time></trkpt><trkpt lat="34.291921919247876" lon="7.951790558541843"><ele>60.66666666666667</ele><time>2026-04-08T07:50:35Z</time></trkpt><trkpt lat="34.2920887274733" lon="7.9516544403965685"><ele>61.333333333333336</ele><time>2026-04-08T07:50:36Z</time></trkpt><trkpt lat="34.29225565306185" lon="7.951518489363286"><ele>62.0</ele><time>2026-04-08T07:50:37Z</time></trkpt><trkpt lat="34.29242095077071" lon="7.951388921689955"><ele>62.0</ele><time>2026-04-08T07:50:38Z</time></trkpt><trkpt lat="34.292590151734" lon="7.951253454762798"><ele>62.0</ele><time>2026-04-08T07:50:39Z</time></trkpt><trkpt lat="34.292754197517354" lon="7.951121416973324"><ele>62.0</ele><time>2026-04-08T07:50:40Z</time></trkpt><trkpt lat="34.29292108695425" lon="7.9509840397008835"><ele>62.333333333333336</ele><time>2026-04-08T07:50:41Z</time></trkpt><trkpt lat="34.29308951276155" lon="7.950849130815952"><ele>62.66666666666667</ele><time>2026-04-08T07:50:42Z</time></trkpt><trkpt lat="34.293263850929016" lon="7.950706302464422"><ele>63.0</ele><time>2026-04-08T07:50:43Z</time></trkpt><trkpt lat="34.29343559309466" lon="7.950568752544678"><ele>63.0</ele><time>2026-04-08T07:50:44Z</time></trkpt><trkpt lat="34.293614553324375" lon="7.950423292485155"><ele>63.0</ele><time>2026-04-08T07:50:45Z</time></trkpt><trkpt lat="34.29378814945364" lon="7.950278024739557"><ele>63.0</ele><time>2026-04-08T07:50:46Z</time></trkpt><trkpt lat="34.293955825692066" lon="7.950130467918579"><ele>63.66666666666667</ele><time>2026-04-08T07:50:47Z</time></trkpt><trkpt lat="34.294121884013066" lon="7.949970202571207"><ele>64.33333333333334</ele><time>2026-04-08T07:50:48Z</time></trkpt><trkpt lat="34.29428083930281" lon="7.949808550078897"><ele>65.0</ele><time>2026-04-08T07:50:49Z</time></trkpt><trkpt lat="34.29443960928654" lon="7.9496384213419065"><ele>65.0</ele><time>2026-04-08T07:50:50Z</time></trkpt><trkpt lat="34.29459802018446" lon="7.949469341343165"><ele>65.0</ele><time>2026-04-08T07:50:51Z</time></trkpt><trkpt lat="34.294756182864994" lon="7.949298320258989"><ele>65.0</ele><time>2026-04-08T07:50:52Z</time></trkpt><trkpt lat="34.294916065241196" lon="7.949126567161463"><ele>65.0</ele><time>2026-04-08T07:50:53Z</time></trkpt><trkpt lat="34.295072394396186" lon="7.9489570317274865"><ele>65.0</ele><time>2026-04-08T07:50:54Z</time></trkpt><trkpt lat="34.2952301978874" lon="7.948782523796285"><ele>65.0</ele><time>2026-04-08T07:50:55Z</time></trkpt><trkpt lat="34.295390758026635" lon="7.948608926021978"><ele>65.0</ele><time>2026-04-08T07:50:56Z</time></trkpt><trkpt lat="34.295551305898854" lon="7.948433575226081"><ele>65.0</ele><time>2026-04-08T07:50:57Z</time></trkpt><trkpt lat="34.29571469998724" lon="7.948264287907176"><ele>65.0</ele><time>2026-04-08T07:50:58Z</time></trkpt><trkpt lat="34.29588221722335" lon="7.948082510691039"><ele>65.0</ele><time>2026-04-08T07:50:59Z</time></trkpt><trkpt lat="34.29604123138858" lon="7.947914971317689"><ele>65.0</ele><time>2026-04-08T07:51:00Z</time></trkpt><trkpt lat="34.296198391239" lon="7.9477515269177825"><ele>65.0</ele><time>2026-04-08T07:51:01Z</time></trkpt><trkpt lat="34.296359283336095" lon="7.947585195770369"><ele>65.33333333333334</ele><time>2026-04-08T07:51:02Z</time></trkpt><trkpt lat="34.29651708017467" lon="7.94742272822554"><ele>65.66666666666667</ele><time>2026-04-08T07:51:03Z</time></trkpt><trkpt lat="34.29667511602842" lon="7.9472601326222785"><ele>66.0</ele><time>2026-04-08T07:51:04Z</time></trkpt><trkpt lat="34.296831062333084" lon="7.947098250038343"><ele>66.0</ele><time>2026-04-08T07:51:05Z</time></trkpt><trkpt lat="34.29697350869386" lon="7.946945630922673"><ele>66.0</ele><time>2026-04-08T07:51:06Z</time></trkpt><trkpt lat="34.297115272655915" lon="7.946798869924507"><ele>66.0</ele><time>2026-04-08T07:51:07Z</time></trkpt><trkpt lat="34.29726173197512" lon="7.946650926144687"><ele>66.0</ele><time>2026-04-08T07:51:08Z</time></trkpt><trkpt lat="34.29740484391255" lon="7.946508122505768"><ele>66.0</ele><time>2026-04-08T07:51:09Z</time></trkpt><trkpt lat="34.2975495870725" lon="7.946367674546658"><ele>66.0</ele><time>2026-04-08T07:51:10Z</time></trkpt><trkpt lat="34.297698413731275" lon="7.946234914683949"><ele>66.0</ele><time>2026-04-08T07:51:11Z</time></trkpt><trkpt lat="34.29785845027528" lon="7.946110060929875"><ele>66.0</ele><time>2026-04-08T07:51:12Z</time></trkpt><trkpt lat="34.29802219657569" lon="7.945998414484071"><ele>66.0</ele><time>2026-04-08T07:51:13Z</time></trkpt><trkpt lat="34.29819305843022" lon="7.945893746202828"><ele>67.0</ele><time>2026-04-08T07:51:14Z</time></trkpt><trkpt lat="34.29836625523462" lon="7.945800223812681"><ele>68.0</ele><time>2026-04-08T07:51:15Z</time></trkpt><trkpt lat="34.2985428335756" lon="7.945716030304965"><ele>69.0</ele><time>2026-04-08T07:51:16Z</time></trkpt><trkpt lat="34.29872206206054" lon="7.945640512175845"><ele>69.0</ele><time>2026-04-08T07:51:17Z</time></trkpt><trkpt lat="34.298901359259986" lon="7.945573806349935"><ele>69.0</ele><time>2026-04-08T07:51:18Z</time></trkpt><trkpt lat="34.299074060615" lon="7.945502947162601"><ele>69.0</ele><time>2026-04-08T07:51:19Z</time></trkpt><trkpt lat="34.29924965930708" lon="7.94543036429747"><ele>69.33333333333333</ele><time>2026-04-08T07:51:20Z</time></trkpt><trkpt lat="34.29942268996432" lon="7.945356204768907"><ele>69.66666666666666</ele><time>2026-04-08T07:51:21Z</time></trkpt><trkpt lat="34.299598372057545" lon="7.945276490843957"><ele>70.0</ele><time>2026-04-08T07:51:22Z</time></trkpt><trkpt lat="34.29977446949433" lon="7.945190246653227"><ele>70.0</ele><time>2026-04-08T07:51:23Z</time></trkpt><trkpt lat="34.29995092767469" lon="7.9451018027612506"><ele>70.0</ele><time>2026-04-08T07:51:24Z</time></trkpt><trkpt lat="34.300127092796465" lon="7.945017590515647"><ele>70.0</ele><time>2026-04-08T07:51:25Z</time></trkpt><trkpt lat="34.30030969863119" lon="7.944931463350296"><ele>70.0</ele><time>2026-04-08T07:51:26Z</time></trkpt><trkpt lat="34.300488538322625" lon="7.944849116720095"><ele>70.0</ele><time>2026-04-08T07:51:27Z</time></trkpt><trkpt lat="34.300667405992655" lon="7.944762703773595"><ele>70.0</ele><time>2026-04-08T07:51:28Z</time></trkpt><trkpt lat="34.300845092235384" lon="7.944677261597337"><ele>71.0</ele><time>2026-04-08T07:51:29Z</time></trkpt><trkpt lat="34.30101708066769" lon="7.944593173703245"><ele>72.0</ele><time>2026-04-08T07:51:30Z</time></trkpt><trkpt lat="34.30119083048481" lon="7.9445058272806"><ele>73.0</ele><time>2026-04-08T07:51:31Z</time></trkpt><trkpt lat="34.30136135815732" lon="7.94442151178211"><ele>73.0</ele><time>2026-04-08T07:51:32Z</time></trkpt><trkpt lat="34.30153011866092" lon="7.944340506323914"><ele>73.0</ele><time>2026-04-08T07:51:33Z</time></trkpt><trkpt lat="34.3016976597399" lon="7.9442571158900614"><ele>73.0</ele><time>2026-04-08T07:51:34Z</time></trkpt><trkpt lat="34.30186119371196" lon="7.944178360079319"><ele>73.0</ele><time>2026-04-08T07:51:35Z</time></trkpt><trkpt lat="34.30202635245853" lon="7.944101899340555"><ele>73.0</ele><time>2026-04-08T07:51:36Z</time></trkpt><trkpt lat="34.30218895872016" lon="7.944026996888429"><ele>73.0</ele><time>2026-04-08T07:51:37Z</time></trkpt><trkpt lat="34.302351708759325" lon="7.943951880617459"><ele>73.0</ele><time>2026-04-08T07:51:38Z</time></trkpt><trkpt lat="34.302512873259545" lon="7.943878948419266"><ele>73.0</ele><time>2026-04-08T07:51:39Z</time></trkpt><trkpt lat="34.302675109480454" lon="7.9438039917359005"><ele>73.0</ele><time>2026-04-08T07:51:40Z</time></trkpt><trkpt lat="34.302840908358036" lon="7.943727160995921"><ele>73.0</ele><time>2026-04-08T07:51:41Z</time></trkpt><trkpt lat="34.303005914961524" lon="7.943656721223706"><ele>73.0</ele><time>2026-04-08T07:51:42Z</time></trkpt><trkpt lat="34.30317217901275" lon="7.943588218568902"><ele>73.0</ele><time>2026-04-08T07:51:43Z</time></trkpt><trkpt lat="34.303334281225474" lon="7.943520383388252"><ele>74.0</ele><time>2026-04-08T07:51:44Z</time></trkpt><trkpt lat="34.30350041660061" lon="7.943452917481669"><ele>75.0</ele><time>2026-04-08T07:51:45Z</time></trkpt><trkpt lat="34.303665712173895" lon="7.943385195295381"><ele>76.0</ele><time>2026-04-08T07:51:46Z</time></trkpt><trkpt lat="34.303837885903235" lon="7.9433136068347"><ele>77.0</ele><time>2026-04-08T07:51:47Z</time></trkpt><trkpt lat="34.30400583580062" lon="7.943251191986813"><ele>78.0</ele><time>2026-04-08T07:51:48Z</time></trkpt><trkpt lat="34.30417004197717" lon="7.943187102095081"><ele>79.0</ele><time>2026-04-08T07:51:49Z</time></trkpt><trkpt lat="34.30433238621438" lon="7.943126669598588"><ele>79.0</ele><time>2026-04-08T07:51:50Z</time></trkpt><trkpt lat="34.30449514724093" lon="7.943064021510472"><ele>79.0</ele><time>2026-04-08T07:51:51Z</time></trkpt><trkpt lat="34.30465505438563" lon="7.943001735795021"><ele>79.0</ele><time>2026-04-08T07:51:52Z</time></trkpt><trkpt lat="34.30481775249041" lon="7.942944574997849"><ele>79.66666666666666</ele><time>2026-04-08T07:51:53Z</time></trkpt><trkpt lat="34.304979764089396" lon="7.942884695937797"><ele>80.33333333333333</ele><time>2026-04-08T07:51:54Z</time></trkpt><trkpt lat="34.30514401862415" lon="7.9428257480062285"><ele>81.0</ele><time>2026-04-08T07:51:55Z</time></trkpt><trkpt lat="34.30530999806829" lon="7.942767164174403"><ele>81.0</ele><time>2026-04-08T07:51:56Z</time></trkpt><trkpt lat="34.305476444614676" lon="7.942711468322458"><ele>81.0</ele><time>2026-04-08T07:51:57Z</time></trkpt><trkpt lat="34.30564281778795" lon="7.942657851659273"><ele>81.0</ele><time>2026-04-08T07:51:58Z</time></trkpt><trkpt lat="34.30580749018218" lon="7.942596865857339"><ele>81.0</ele><time>2026-04-08T07:51:59Z</time></trkpt><trkpt lat="34.30596875863832" lon="7.942539849915008"><ele>81.0</ele><time>2026-04-08T07:52:00Z</time></trkpt><trkpt lat="34.306128767843596" lon="7.942479089502749"><ele>81.0</ele><time>2026-04-08T07:52:01Z</time></trkpt><trkpt lat="34.30629311181664" lon="7.942423281476098"><ele>82.0</ele><time>2026-04-08T07:52:02Z</time></trkpt><trkpt lat="34.30645540621833" lon="7.942363600805425"><ele>83.0</ele><time>2026-04-08T07:52:03Z</time></trkpt><trkpt lat="34.30662212781641" lon="7.942306422096849"><ele>84.0</ele><time>2026-04-08T07:52:04Z</time></trkpt><trkpt lat="34.3067886031099" lon="7.942254218645286"><ele>84.0</ele><time>2026-04-08T07:52:05Z</time></trkpt><trkpt lat="34.30694949689136" lon="7.942204467068967"><ele>84.0</ele><time>2026-04-08T07:52:06Z</time></trkpt><trkpt lat="34.307103277183984" lon="7.942156716344016"><ele>84.0</ele><time>2026-04-08T07:52:07Z</time></trkpt><trkpt lat="34.307255193061756" lon="7.942106021290427"><ele>84.5</ele><time>2026-04-08T07:52:08Z</time></trkpt><trkpt lat="34.307398283016504" lon="7.942058500073512"><ele>85.0</ele><time>2026-04-08T07:52:09Z</time></trkpt><trkpt lat="34.30753149071168" lon="7.942012675048333"><ele>85.5</ele><time>2026-04-08T07:52:10Z</time></trkpt><trkpt lat="34.307644826280914" lon="7.941972131108661"><ele>86.0</ele><time>2026-04-08T07:52:11Z</time></trkpt><trkpt lat="34.30775448617962" lon="7.94193947186302"><ele>86.0</ele><time>2026-04-08T07:52:12Z</time></trkpt><trkpt lat="34.30786170377677" lon="7.941908292802604"><ele>86.0</ele><time>2026-04-08T07:52:13Z</time></trkpt><trkpt lat="34.30796305573061" lon="7.94187992560067"><ele>86.0</ele><time>2026-04-08T07:52:14Z</time></trkpt><trkpt lat="34.3080568298617" lon="7.941851377067239"><ele>86.0</ele><time>2026-04-08T07:52:15Z</time></trkpt><trkpt lat="34.30814495086228" lon="7.941822012846872"><ele>86.0</ele><time>2026-04-08T07:52:16Z</time></trkpt><trkpt lat="34.30822413938557" lon="7.941794274357245"><ele>86.00000000000001</ele><time>2026-04-08T07:52:17Z</time></trkpt><trkpt lat="34.30830068796267" lon="7.941772143847557"><ele>86.0</ele><time>2026-04-08T07:52:18Z</time></trkpt><trkpt lat="34.30837217264851" lon="7.941748877192681"><ele>86.0</ele><time>2026-04-08T07:52:19Z</time></trkpt><trkpt lat="34.30844654945096" lon="7.9417214652480155"><ele>86.0</ele><time>2026-04-08T07:52:20Z</time></trkpt><trkpt lat="34.30851980444759" lon="7.941697598660763"><ele>86.0</ele><time>2026-04-08T07:52:21Z</time></trkpt><trkpt lat="34.308587171629554" lon="7.941677556190451"><ele>86.00000000000001</ele><time>2026-04-08T07:52:21.999Z</time></trkpt><trkpt lat="34.308651821253356" lon="7.941661274084084"><ele>86.0</ele><time>2026-04-08T07:52:22.999Z</time></trkpt><trkpt lat="34.30877015444902" lon="7.941625484505149"><ele>86.0</ele><time>2026-04-08T07:52:24.999Z</time></trkpt><trkpt lat="34.30888103838024" lon="7.941589659812273"><ele>86.0</ele><time>2026-04-08T07:52:26.999Z</time></trkpt><trkpt lat="34.30897395934536" lon="7.941563238236006"><ele>86.0</ele><time>2026-04-08T07:52:28.999Z</time></trkpt><trkpt lat="34.30905674719651" lon="7.9415581489734395"><ele>86.0</ele><time>2026-04-08T07:52:32Z</time></trkpt><trkpt lat="34.30913827598252" lon="7.941560835408823"><ele>86.0</ele><time>2026-04-08T07:52:35Z</time></trkpt><trkpt lat="34.309205293147144" lon="7.941567199370966"><ele>86.0</ele><time>2026-04-08T07:52:38Z</time></trkpt><trkpt lat="34.30929076641573" lon="7.941574309296907"><ele>86.16666666666667</ele><time>2026-04-08T07:52:44Z</time></trkpt><trkpt lat="34.30936501527527" lon="7.941584608242143"><ele>86.33333333333334</ele><time>2026-04-08T07:52:48Z</time></trkpt><trkpt lat="34.30943364118811" lon="7.9415800356635895"><ele>86.5</ele><time>2026-04-08T07:52:51Z</time></trkpt><trkpt lat="34.3095012288221" lon="7.941587634161171"><ele>86.66666666666667</ele><time>2026-04-08T07:52:54Z</time></trkpt><trkpt lat="34.309568591930635" lon="7.9415922957482135"><ele>86.83333333333333</ele><time>2026-04-08T07:54:23.999Z</time></trkpt><trkpt lat="34.30965757511798" lon="7.941587331502641"><ele>87.0</ele><time>2026-04-08T08:04:31.999Z</time></trkpt><trkpt lat="34.309748516602376" lon="7.9415834309587305"><ele>87.66666666666667</ele><time>2026-04-08T08:04:33.999Z</time></trkpt><trkpt lat="34.30983445747733" lon="7.941583479925299"><ele>88.33333333333333</ele><time>2026-04-08T08:04:35.999Z</time></trkpt><trkpt lat="34.30990448716093" lon="7.941572357129715"><ele>89.0</ele><time>2026-04-08T08:04:37.999Z</time></trkpt><trkpt lat="34.309991422072365" lon="7.941575769934289"><ele>89.66666666666666</ele><time>2026-04-08T08:05:37Z</time></trkpt><trkpt lat="34.31008390182144" lon="7.941589992387894"><ele>90.33333333333333</ele><time>2026-04-08T08:05:39Z</time></trkpt><trkpt lat="34.31017112342216" lon="7.941569103901109"><ele>91.0</ele><time>2026-04-08T08:05:41Z</time></trkpt><trkpt lat="34.310251538572295" lon="7.941564546979813"><ele>91.0</ele><time>2026-04-08T08:05:43Z</time></trkpt><trkpt lat="34.31033287807231" lon="7.941560083545847"><ele>91.0</ele><time>2026-04-08T08:05:45Z</time></trkpt><trkpt lat="34.310419863817636" lon="7.941543421587804"><ele>91.0</ele><time>2026-04-08T08:05:47Z</time></trkpt><trkpt lat="34.31051037726157" lon="7.9415310771911765"><ele>91.0</ele><time>2026-04-08T08:05:49Z</time></trkpt><trkpt lat="34.31059973463271" lon="7.9415347153269895"><ele>91.0</ele><time>2026-04-08T08:05:51Z</time></trkpt><trkpt lat="34.310670254604894" lon="7.941594667903681"><ele>91.0</ele><time>2026-04-08T08:05:53Z</time></trkpt><trkpt lat="34.310695910958486" lon="7.941691020129284"><ele>91.5</ele><time>2026-04-08T08:05:56Z</time></trkpt><trkpt lat="34.31068693778548" lon="7.941781481103024"><ele>92.0</ele><time>2026-04-08T08:06:29.999Z</time></trkpt><trkpt lat="34.31064193186859" lon="7.94185795183757"><ele>92.5</ele><time>2026-04-08T08:06:31.999Z</time></trkpt><trkpt lat="34.310570158828334" lon="7.9419345199163205"><ele>93.0</ele><time>2026-04-08T08:06:34.999Z</time></trkpt><trkpt lat="34.31052172385076" lon="7.941999869617644"><ele>93.5</ele><time>2026-04-08T08:06:36.999Z</time></trkpt><trkpt lat="34.31046155130836" lon="7.942059528532723"><ele>94.0</ele><time>2026-04-08T08:06:38.999Z</time></trkpt><trkpt lat="34.31040332126423" lon="7.942133197629299"><ele>94.0</ele><time>2026-04-08T08:06:40.999Z</time></trkpt><trkpt lat="34.31033128013218" lon="7.9422063483749366"><ele>94.0</ele><time>2026-04-08T08:06:42.999Z</time></trkpt><trkpt lat="34.310267557645304" lon="7.942285926381778"><ele>94.0</ele><time>2026-04-08T08:06:44.999Z</time></trkpt><trkpt lat="34.31021355425588" lon="7.942347944131164"><ele>94.0</ele><time>2026-04-08T08:06:46.999Z</time></trkpt><trkpt lat="34.310160847622534" lon="7.9423957385840005"><ele>94.0</ele><time>2026-04-08T08:06:48.999Z</time></trkpt><trkpt lat="34.31010562743687" lon="7.942468971658329"><ele>94.0</ele><time>2026-04-08T08:06:51.999Z</time></trkpt><trkpt lat="34.31005257593785" lon="7.942520960937052"><ele>93.5</ele><time>2026-04-08T08:06:53.999Z</time></trkpt><trkpt lat="34.30999444431645" lon="7.942592057597673"><ele>93.0</ele><time>2026-04-08T08:06:55.999Z</time></trkpt><trkpt lat="34.30993787285629" lon="7.942652043880511"><ele>92.5</ele><time>2026-04-08T08:06:57.999Z</time></trkpt><trkpt lat="34.3098793722269" lon="7.942718647249761"><ele>92.0</ele><time>2026-04-08T08:06:59.999Z</time></trkpt><trkpt lat="34.30981800477554" lon="7.942778319449443"><ele>91.5</ele><time>2026-04-08T08:07:01.999Z</time></trkpt><trkpt lat="34.30976536806787" lon="7.942845779371244"><ele>91.0</ele><time>2026-04-08T08:07:03.999Z</time></trkpt><trkpt lat="34.30970176716925" lon="7.942895400569262"><ele>90.5</ele><time>2026-04-08T08:07:06.999Z</time></trkpt><trkpt lat="34.309662595060225" lon="7.9429699946671715"><ele>90.0</ele><time>2026-04-08T08:08:49.999Z</time></trkpt><trkpt lat="34.30960405770487" lon="7.943045219727162"><ele>89.5</ele><time>2026-04-08T08:08:50.999Z</time></trkpt><trkpt lat="34.30950365639377" lon="7.943152515673933"><ele>89.0</ele><time>2026-04-08T08:08:51.999Z</time></trkpt><trkpt lat="34.30936330281391" lon="7.943307609219873"><ele>89.0</ele><time>2026-04-08T08:08:52.999Z</time></trkpt><trkpt lat="34.30921014998542" lon="7.94347663345399"><ele>89.0</ele><time>2026-04-08T08:08:53.999Z</time></trkpt><trkpt lat="34.30902352895719" lon="7.943689156751798"><ele>87.5</ele><time>2026-04-08T08:08:54.999Z</time></trkpt><trkpt lat="34.308803502991175" lon="7.943936154221038"><ele>86.0</ele><time>2026-04-08T08:08:55.999Z</time></trkpt><trkpt lat="34.30859369793449" lon="7.944172701208964"><ele>87.0</ele><time>2026-04-08T08:08:56.999Z</time></trkpt><trkpt lat="34.30841943961232" lon="7.944370308122522"><ele>88.0</ele><time>2026-04-08T08:08:57.999Z</time></trkpt><trkpt lat="34.308215256786" lon="7.944592642896384"><ele>86.5</ele><time>2026-04-08T08:08:58.999Z</time></trkpt><trkpt lat="34.30800500962513" lon="7.944817030086165"><ele>85.0</ele><time>2026-04-08T08:08:59.999Z</time></trkpt><trkpt lat="34.30776814477166" lon="7.945080916254041"><ele>84.5</ele><time>2026-04-08T08:09:00.999Z</time></trkpt><trkpt lat="34.30751974283465" lon="7.945362665943047"><ele>84.0</ele><time>2026-04-08T08:09:01.999Z</time></trkpt><trkpt lat="34.30724717228254" lon="7.945673194755995"><ele>82.5</ele><time>2026-04-08T08:09:02.999Z</time></trkpt><trkpt lat="34.30696765016569" lon="7.945994168920295"><ele>81.0</ele><time>2026-04-08T08:09:03.999Z</time></trkpt><trkpt lat="34.30670982915018" lon="7.946280841480346"><ele>81.0</ele><time>2026-04-08T08:09:04.999Z</time></trkpt><trkpt lat="34.30648513545985" lon="7.946533296198011"><ele>81.0</ele><time>2026-04-08T08:09:05.999Z</time></trkpt><trkpt lat="34.30625918087543" lon="7.946787967684564"><ele>80.0</ele><time>2026-04-08T08:09:06.999Z</time></trkpt><trkpt lat="34.30602368605011" lon="7.947053628367318"><ele>79.0</ele><time>2026-04-08T08:09:07.999Z</time></trkpt><trkpt lat="34.30579538272763" lon="7.947310289992467"><ele>79.0</ele><time>2026-04-08T08:09:08.999Z</time></trkpt><trkpt lat="34.30559304800726" lon="7.947537228653824"><ele>79.0</ele><time>2026-04-08T08:09:09.999Z</time></trkpt><trkpt lat="34.30540913495755" lon="7.947743756086944"><ele>78.0</ele><time>2026-04-08T08:09:10.999Z</time></trkpt><trkpt lat="34.30522116353241" lon="7.947952860238475"><ele>77.0</ele><time>2026-04-08T08:09:11.999Z</time></trkpt><trkpt lat="34.30501499477842" lon="7.948183287741502"><ele>77.0</ele><time>2026-04-08T08:09:12.999Z</time></trkpt><trkpt lat="34.30479498000211" lon="7.948421109831732"><ele>77.0</ele><time>2026-04-08T08:09:13.999Z</time></trkpt><trkpt lat="34.304587061163" lon="7.948657873652262"><ele>76.0</ele><time>2026-04-08T08:09:14.999Z</time></trkpt><trkpt lat="34.304366772876" lon="7.948910394031897"><ele>75.0</ele><time>2026-04-08T08:09:15.999Z</time></trkpt><trkpt lat="34.304139805720645" lon="7.949169026461386"><ele>74.5</ele><time>2026-04-08T08:09:16.999Z</time></trkpt><trkpt lat="34.3039115730008" lon="7.9494268678175874"><ele>74.0</ele><time>2026-04-08T08:09:17.999Z</time></trkpt><trkpt lat="34.3036794370107" lon="7.949688695317985"><ele>74.0</ele><time>2026-04-08T08:09:19Z</time></trkpt><trkpt lat="34.30344101380394" lon="7.949951229637356"><ele>74.0</ele><time>2026-04-08T08:09:20Z</time></trkpt><trkpt lat="34.30320064766435" lon="7.950214257635292"><ele>72.5</ele><time>2026-04-08T08:09:21Z</time></trkpt><trkpt lat="34.30295484330698" lon="7.950481801716708"><ele>71.0</ele><time>2026-04-08T08:09:22Z</time></trkpt><trkpt lat="34.302711201933064" lon="7.9507432895862715"><ele>71.0</ele><time>2026-04-08T08:09:23Z</time></trkpt><trkpt lat="34.30248094095617" lon="7.95098298177869"><ele>71.0</ele><time>2026-04-08T08:09:24Z</time></trkpt><trkpt lat="34.302256360073365" lon="7.951218708893619"><ele>71.0</ele><time>2026-04-08T08:09:25Z</time></trkpt><trkpt lat="34.302046660008806" lon="7.951440854552089"><ele>71.0</ele><time>2026-04-08T08:09:26Z</time></trkpt><trkpt lat="34.30184521139704" lon="7.951649610273958"><ele>70.5</ele><time>2026-04-08T08:09:27Z</time></trkpt><trkpt lat="34.30164796792873" lon="7.951857760438525"><ele>70.0</ele><time>2026-04-08T08:09:28Z</time></trkpt><trkpt lat="34.30145729263325" lon="7.952060893860554"><ele>69.5</ele><time>2026-04-08T08:09:29Z</time></trkpt><trkpt lat="34.30125208732896" lon="7.952276604077952"><ele>69.0</ele><time>2026-04-08T08:09:30Z</time></trkpt><trkpt lat="34.301034561630516" lon="7.952492450741845"><ele>68.5</ele><time>2026-04-08T08:09:31Z</time></trkpt><trkpt lat="34.300784293383835" lon="7.952726446476287"><ele>68.0</ele><time>2026-04-08T08:09:32Z</time></trkpt><trkpt lat="34.30055219391464" lon="7.95293663429213"><ele>67.5</ele><time>2026-04-08T08:09:33Z</time></trkpt><trkpt lat="34.300340995542854" lon="7.9531357067530895"><ele>67.0</ele><time>2026-04-08T08:09:34Z</time></trkpt><trkpt lat="34.30013033370079" lon="7.953341601765947"><ele>66.5</ele><time>2026-04-08T08:09:35Z</time></trkpt><trkpt lat="34.29993858618682" lon="7.953551662665993"><ele>66.0</ele><time>2026-04-08T08:09:36Z</time></trkpt><trkpt lat="34.29975476605687" lon="7.953777715564033"><ele>66.0</ele><time>2026-04-08T08:09:37Z</time></trkpt><trkpt lat="34.299583499532766" lon="7.954018604656474"><ele>66.0</ele><time>2026-04-08T08:09:38Z</time></trkpt><trkpt lat="34.29943597583282" lon="7.9542617606594375"><ele>65.5</ele><time>2026-04-08T08:09:39Z</time></trkpt><trkpt lat="34.29929656284455" lon="7.95453335629069"><ele>65.0</ele><time>2026-04-08T08:09:40Z</time></trkpt><trkpt lat="34.29915875592743" lon="7.954828566551953"><ele>64.5</ele><time>2026-04-08T08:09:41Z</time></trkpt><trkpt lat="34.299018631819166" lon="7.955145706993965"><ele>64.0</ele><time>2026-04-08T08:09:42Z</time></trkpt><trkpt lat="34.298893322498685" lon="7.955461095547006"><ele>62.5</ele><time>2026-04-08T08:09:43Z</time></trkpt><trkpt lat="34.29876770574458" lon="7.955805118605731"><ele>61.0</ele><time>2026-04-08T08:09:44Z</time></trkpt><trkpt lat="34.29864663627192" lon="7.956142024893583"><ele>61.0</ele><time>2026-04-08T08:09:45Z</time></trkpt><trkpt lat="34.29852933491049" lon="7.956476289323547"><ele>61.0</ele><time>2026-04-08T08:09:46Z</time></trkpt><trkpt lat="34.29842043942782" lon="7.956808982218118"><ele>61.5</ele><time>2026-04-08T08:09:47Z</time></trkpt><trkpt lat="34.298306312020266" lon="7.957159842940265"><ele>62.0</ele><time>2026-04-08T08:09:48Z</time></trkpt><trkpt lat="34.29818507508758" lon="7.957516553569223"><ele>60.0</ele><time>2026-04-08T08:09:49Z</time></trkpt><trkpt lat="34.29806015932414" lon="7.957869999780767"><ele>58.0</ele><time>2026-04-08T08:09:50Z</time></trkpt><trkpt lat="34.297936364208645" lon="7.958240381076325"><ele>58.5</ele><time>2026-04-08T08:09:51Z</time></trkpt><trkpt lat="34.297813724006616" lon="7.958605727351832"><ele>59.0</ele><time>2026-04-08T08:09:52Z</time></trkpt><trkpt lat="34.29768947008758" lon="7.958974987477527"><ele>59.0</ele><time>2026-04-08T08:09:53Z</time></trkpt><trkpt lat="34.29756254624672" lon="7.959345463189105"><ele>59.0</ele><time>2026-04-08T08:09:54Z</time></trkpt><trkpt lat="34.29743740125516" lon="7.959695849753842"><ele>59.0</ele><time>2026-04-08T08:09:55Z</time></trkpt><trkpt lat="34.29730873620035" lon="7.960078632312896"><ele>59.0</ele><time>2026-04-08T08:09:56Z</time></trkpt><trkpt lat="34.2971757453045" lon="7.960471201873767"><ele>58.0</ele><time>2026-04-08T08:09:57Z</time></trkpt><trkpt lat="34.29703329990656" lon="7.960881727336829"><ele>57.0</ele><time>2026-04-08T08:09:58Z</time></trkpt><trkpt lat="34.29688805962734" lon="7.961299030044741"><ele>57.0</ele><time>2026-04-08T08:09:59Z</time></trkpt><trkpt lat="34.29674258561147" lon="7.961727101603607"><ele>57.0</ele><time>2026-04-08T08:10:00Z</time></trkpt><trkpt lat="34.29659828546917" lon="7.962150125078447"><ele>56.0</ele><time>2026-04-08T08:10:01Z</time></trkpt><trkpt lat="34.29645746831607" lon="7.962555897962287"><ele>55.0</ele><time>2026-04-08T08:10:02Z</time></trkpt><trkpt lat="34.29632378926585" lon="7.962944524136289"><ele>55.0</ele><time>2026-04-08T08:10:03Z</time></trkpt><trkpt lat="34.29618582194499" lon="7.963335244305558"><ele>55.0</ele><time>2026-04-08T08:10:04Z</time></trkpt><trkpt lat="34.29604830734904" lon="7.963722479842144"><ele>55.0</ele><time>2026-04-08T08:10:05Z</time></trkpt><trkpt lat="34.29591015981083" lon="7.964100827699621"><ele>55.0</ele><time>2026-04-08T08:10:06Z</time></trkpt><trkpt lat="34.29576049937996" lon="7.964477431882502"><ele>55.0</ele><time>2026-04-08T08:10:07Z</time></trkpt><trkpt lat="34.29559910629097" lon="7.964853094656626"><ele>55.0</ele><time>2026-04-08T08:10:08Z</time></trkpt><trkpt lat="34.29542336731132" lon="7.965234018193001"><ele>54.0</ele><time>2026-04-08T08:10:09Z</time></trkpt><trkpt lat="34.29524022164973" lon="7.96561877670942"><ele>53.0</ele><time>2026-04-08T08:10:10Z</time></trkpt><trkpt lat="34.29504883720924" lon="7.9660118634926125"><ele>53.0</ele><time>2026-04-08T08:10:11Z</time></trkpt><trkpt lat="34.29485842630046" lon="7.9664026485572155"><ele>53.0</ele><time>2026-04-08T08:10:12Z</time></trkpt><trkpt lat="34.29467210986981" lon="7.966788717888287"><ele>52.0</ele><time>2026-04-08T08:10:13Z</time></trkpt><trkpt lat="34.294491901152" lon="7.967170502250405"><ele>51.0</ele><time>2026-04-08T08:10:14Z</time></trkpt><trkpt lat="34.29431654923844" lon="7.967540005394268"><ele>53.0</ele><time>2026-04-08T08:10:15Z</time></trkpt><trkpt lat="34.29413972001388" lon="7.967909610539686"><ele>55.0</ele><time>2026-04-08T08:10:16Z</time></trkpt><trkpt lat="34.29396853042698" lon="7.968263851212294"><ele>54.0</ele><time>2026-04-08T08:10:17Z</time></trkpt><trkpt lat="34.29380112388844" lon="7.968608541372896"><ele>53.0</ele><time>2026-04-08T08:10:18Z</time></trkpt><trkpt lat="34.29363716608819" lon="7.968952235893654"><ele>53.0</ele><time>2026-04-08T08:10:19Z</time></trkpt><trkpt lat="34.29347651750151" lon="7.969289467454624"><ele>53.0</ele><time>2026-04-08T08:10:20Z</time></trkpt><trkpt lat="34.29332939173233" lon="7.9696042281008745"><ele>53.0</ele><time>2026-04-08T08:10:21Z</time></trkpt><trkpt lat="34.29319225826151" lon="7.969895986319494"><ele>53.0</ele><time>2026-04-08T08:10:22Z</time></trkpt><trkpt lat="34.29305964969721" lon="7.970178299068727"><ele>52.5</ele><time>2026-04-08T08:10:23Z</time></trkpt><trkpt lat="34.29293856867133" lon="7.97044221779057"><ele>52.0</ele><time>2026-04-08T08:10:24Z</time></trkpt><trkpt lat="34.292827409180966" lon="7.970681423767887"><ele>52.0</ele><time>2026-04-08T08:10:25Z</time></trkpt><trkpt lat="34.29272676729279" lon="7.970897360288226"><ele>52.0</ele><time>2026-04-08T08:10:26Z</time></trkpt><trkpt lat="34.29263556204" lon="7.971097768802936"><ele>52.0</ele><time>2026-04-08T08:10:27Z</time></trkpt><trkpt lat="34.292555180788355" lon="7.9712738982617575"><ele>52.0</ele><time>2026-04-08T08:10:28Z</time></trkpt><trkpt lat="34.292492311301224" lon="7.971412007422347"><ele>52.0</ele><time>2026-04-08T08:10:29Z</time></trkpt><trkpt lat="34.29244389004199" lon="7.971527382155749"><ele>52.0</ele><time>2026-04-08T08:10:30Z</time></trkpt><trkpt lat="34.29241322323351" lon="7.971613704131953"><ele>52.0</ele><time>2026-04-08T08:10:31Z</time></trkpt><trkpt lat="34.292374803207935" lon="7.971705518930548"><ele>52.0</ele><time>2026-04-08T08:10:32Z</time></trkpt><trkpt lat="34.29231939332101" lon="7.971821558479226"><ele>51.33333333333333</ele><time>2026-04-08T08:10:33Z</time></trkpt><trkpt lat="34.292249426483124" lon="7.971946639820027"><ele>50.66666666666667</ele><time>2026-04-08T08:10:34Z</time></trkpt><trkpt lat="34.292157214839655" lon="7.972089257657842"><ele>50.0</ele><time>2026-04-08T08:10:35Z</time></trkpt><trkpt lat="34.29203402359026" lon="7.972269798628367"><ele>50.0</ele><time>2026-04-08T08:10:36Z</time></trkpt><trkpt lat="34.2918781101827" lon="7.972497234329827"><ele>50.0</ele><time>2026-04-08T08:10:37Z</time></trkpt><trkpt lat="34.29170188516431" lon="7.972744492971581"><ele>50.0</ele><time>2026-04-08T08:10:38Z</time></trkpt><trkpt lat="34.29151535758256" lon="7.973007066612499"><ele>50.0</ele><time>2026-04-08T08:10:39Z</time></trkpt><trkpt lat="34.29133202534247" lon="7.973262979514186"><ele>49.5</ele><time>2026-04-08T08:10:40Z</time></trkpt><trkpt lat="34.29116834399467" lon="7.973484363071885"><ele>49.0</ele><time>2026-04-08T08:10:41Z</time></trkpt><trkpt lat="34.2910257676309" lon="7.973690609181371"><ele>49.0</ele><time>2026-04-08T08:10:42Z</time></trkpt><trkpt lat="34.29090399308927" lon="7.973896203467527"><ele>49.0</ele><time>2026-04-08T08:10:43Z</time></trkpt><trkpt lat="34.29079515360781" lon="7.974117719824948"><ele>49.0</ele><time>2026-04-08T08:10:44Z</time></trkpt><trkpt lat="34.29069138624106" lon="7.974369130529885"><ele>49.0</ele><time>2026-04-08T08:10:45Z</time></trkpt><trkpt lat="34.29059333307861" lon="7.974654555851503"><ele>49.0</ele><time>2026-04-08T08:10:46Z</time></trkpt><trkpt lat="34.290504198366435" lon="7.974961812997308"><ele>49.0</ele><time>2026-04-08T08:10:47Z</time></trkpt><trkpt lat="34.29041538831299" lon="7.9752894621294965"><ele>49.0</ele><time>2026-04-08T08:10:48Z</time></trkpt><trkpt lat="34.29032894832941" lon="7.97563243676344"><ele>48.5</ele><time>2026-04-08T08:10:49Z</time></trkpt><trkpt lat="34.290249702326875" lon="7.975954102288905"><ele>48.0</ele><time>2026-04-08T08:10:50Z</time></trkpt><trkpt lat="34.29017635756549" lon="7.976244322011922"><ele>48.0</ele><time>2026-04-08T08:10:51Z</time></trkpt><trkpt lat="34.29011731215201" lon="7.976525253415902"><ele>48.0</ele><time>2026-04-08T08:10:52Z</time></trkpt><trkpt lat="34.29005878271637" lon="7.976809988124708"><ele>48.33333333333333</ele><time>2026-04-08T08:10:53Z</time></trkpt><trkpt lat="34.290013231867285" lon="7.977062584135784"><ele>48.666666666666664</ele><time>2026-04-08T08:10:54Z</time></trkpt><trkpt lat="34.289978375187665" lon="7.97730051701124"><ele>49.0</ele><time>2026-04-08T08:10:55Z</time></trkpt><trkpt lat="34.28995642193219" lon="7.977512433223937"><ele>49.0</ele><time>2026-04-08T08:10:56Z</time></trkpt><trkpt lat="34.289941446248676" lon="7.977709758468586"><ele>49.0</ele><time>2026-04-08T08:10:57Z</time></trkpt><trkpt lat="34.28993325711274" lon="7.977921759121248"><ele>49.0</ele><time>2026-04-08T08:10:58Z</time></trkpt><trkpt lat="34.2899355921072" lon="7.978157829691699"><ele>49.0</ele><time>2026-04-08T08:10:59Z</time></trkpt><trkpt lat="34.28994863825423" lon="7.978431365829043"><ele>49.0</ele><time>2026-04-08T08:11:00Z</time></trkpt><trkpt lat="34.28997563175616" lon="7.978725165277573"><ele>49.0</ele><time>2026-04-08T08:11:01Z</time></trkpt><trkpt lat="34.29001415159223" lon="7.979037518926573"><ele>49.0</ele><time>2026-04-08T08:11:02Z</time></trkpt><trkpt lat="34.29006551719276" lon="7.979368768700549"><ele>48.5</ele><time>2026-04-08T08:11:03Z</time></trkpt><trkpt lat="34.290115213479" lon="7.979717567952728"><ele>48.0</ele><time>2026-04-08T08:11:04Z</time></trkpt><trkpt lat="34.290163809624374" lon="7.980100236986603"><ele>48.0</ele><time>2026-04-08T08:11:05Z</time></trkpt><trkpt lat="34.29021237037086" lon="7.98049646696835"><ele>48.0</ele><time>2026-04-08T08:11:06Z</time></trkpt><trkpt lat="34.29026600020618" lon="7.980911958312188"><ele>47.5</ele><time>2026-04-08T08:11:07Z</time></trkpt><trkpt lat="34.290323219818724" lon="7.981344650176177"><ele>47.0</ele><time>2026-04-08T08:11:08Z</time></trkpt><trkpt lat="34.2903837588587" lon="7.981788847908173"><ele>47.0</ele><time>2026-04-08T08:11:09Z</time></trkpt><trkpt lat="34.29044336968037" lon="7.982252419922797"><ele>47.0</ele><time>2026-04-08T08:11:10Z</time></trkpt><trkpt lat="34.290504670697594" lon="7.9827165450276265"><ele>47.0</ele><time>2026-04-08T08:11:10.999Z</time></trkpt><trkpt lat="34.29056799603643" lon="7.983199079815239"><ele>47.0</ele><time>2026-04-08T08:11:11.999Z</time></trkpt><trkpt lat="34.29063128987834" lon="7.983689085384939"><ele>47.0</ele><time>2026-04-08T08:11:12.999Z</time></trkpt><trkpt lat="34.29069376529604" lon="7.984172888420303"><ele>47.0</ele><time>2026-04-08T08:11:13.999Z</time></trkpt><trkpt lat="34.29075370991079" lon="7.984641646382741"><ele>46.0</ele><time>2026-04-08T08:11:14.999Z</time></trkpt><trkpt lat="34.29080753135987" lon="7.985080992952431"><ele>45.0</ele><time>2026-04-08T08:11:15.999Z</time></trkpt><trkpt lat="34.290854767584705" lon="7.985501025210855"><ele>44.5</ele><time>2026-04-08T08:11:16.999Z</time></trkpt><trkpt lat="34.29090307788832" lon="7.985926888673321"><ele>44.0</ele><time>2026-04-08T08:11:17.999Z</time></trkpt><trkpt lat="34.290948911872526" lon="7.986328032180268"><ele>44.5</ele><time>2026-04-08T08:11:18.999Z</time></trkpt><trkpt lat="34.29099472436103" lon="7.986698845440826"><ele>45.0</ele><time>2026-04-08T08:11:19.999Z</time></trkpt><trkpt lat="34.29103920582237" lon="7.987053489143112"><ele>45.0</ele><time>2026-04-08T08:11:20.999Z</time></trkpt><trkpt lat="34.291081023658954" lon="7.987415789683487"><ele>45.0</ele><time>2026-04-08T08:11:21.999Z</time></trkpt><trkpt lat="34.2911252046571" lon="7.987793146107035"><ele>44.5</ele><time>2026-04-08T08:11:22.999Z</time></trkpt><trkpt lat="34.29117382064593" lon="7.988200809292818"><ele>44.0</ele><time>2026-04-08T08:11:23.999Z</time></trkpt><trkpt lat="34.29122183644708" lon="7.988617044846312"><ele>43.5</ele><time>2026-04-08T08:11:25Z</time></trkpt><trkpt lat="34.2912636628686" lon="7.989044775277181"><ele>43.0</ele><time>2026-04-08T08:11:26Z</time></trkpt><trkpt lat="34.291305711953484" lon="7.989482597299942"><ele>43.0</ele><time>2026-04-08T08:11:27Z</time></trkpt><trkpt lat="34.291349475276355" lon="7.989933667448599"><ele>43.0</ele><time>2026-04-08T08:11:28Z</time></trkpt><trkpt lat="34.29139256766223" lon="7.990389416078678"><ele>41.5</ele><time>2026-04-08T08:11:29Z</time></trkpt><trkpt lat="34.29143446070544" lon="7.990854544486024"><ele>40.0</ele><time>2026-04-08T08:11:30Z</time></trkpt><trkpt lat="34.291476609190525" lon="7.991310361674399"><ele>40.5</ele><time>2026-04-08T08:11:31Z</time></trkpt><trkpt lat="34.291513115474366" lon="7.99172741378866"><ele>41.0</ele><time>2026-04-08T08:11:32Z</time></trkpt><trkpt lat="34.29154860348945" lon="7.992136098480745"><ele>40.5</ele><time>2026-04-08T08:11:33Z</time></trkpt><trkpt lat="34.29157975656816" lon="7.992535371526623"><ele>40.0</ele><time>2026-04-08T08:11:34Z</time></trkpt><trkpt lat="34.29161055060041" lon="7.992936196971388"><ele>40.0</ele><time>2026-04-08T08:11:35Z</time></trkpt><trkpt lat="34.29164084373445" lon="7.993319182550997"><ele>40.0</ele><time>2026-04-08T08:11:36Z</time></trkpt><trkpt lat="34.29167410133558" lon="7.993689875988012"><ele>40.0</ele><time>2026-04-08T08:11:37Z</time></trkpt><trkpt lat="34.29170626182407" lon="7.9940667855882515"><ele>40.0</ele><time>2026-04-08T08:11:38Z</time></trkpt><trkpt lat="34.291735248276034" lon="7.994427471089254"><ele>40.0</ele><time>2026-04-08T08:11:39Z</time></trkpt><trkpt lat="34.29176632959166" lon="7.994765242298166"><ele>40.0</ele><time>2026-04-08T08:11:40Z</time></trkpt><trkpt lat="34.29179890865388" lon="7.995123508078936"><ele>39.0</ele><time>2026-04-08T08:11:41Z</time></trkpt><trkpt lat="34.29183061199269" lon="7.995479358791187"><ele>38.0</ele><time>2026-04-08T08:11:42Z</time></trkpt><trkpt lat="34.29186397152231" lon="7.995854461207229"><ele>38.0</ele><time>2026-04-08T08:11:43Z</time></trkpt><trkpt lat="34.291897123202595" lon="7.996223663419921"><ele>38.0</ele><time>2026-04-08T08:11:44Z</time></trkpt><trkpt lat="34.291934068986194" lon="7.9965959935092155"><ele>37.5</ele><time>2026-04-08T08:11:45Z</time></trkpt><trkpt lat="34.29196733593865" lon="7.996957722185346"><ele>37.0</ele><time>2026-04-08T08:11:46Z</time></trkpt><trkpt lat="34.29199681039556" lon="7.997287273951321"><ele>36.0</ele><time>2026-04-08T08:11:47Z</time></trkpt><trkpt lat="34.29202417265151" lon="7.997601229425437"><ele>35.0</ele><time>2026-04-08T08:11:48Z</time></trkpt><trkpt lat="34.292049068639294" lon="7.997889781595357"><ele>35.0</ele><time>2026-04-08T08:11:49Z</time></trkpt><trkpt lat="34.292073375348885" lon="7.998160695082733"><ele>35.0</ele><time>2026-04-08T08:11:50Z</time></trkpt><trkpt lat="34.29209775155488" lon="7.998418860554342"><ele>35.0</ele><time>2026-04-08T08:11:51Z</time></trkpt><trkpt lat="34.2921187791159" lon="7.998664076536083"><ele>35.0</ele><time>2026-04-08T08:11:52Z</time></trkpt><trkpt lat="34.29213654756854" lon="7.99889769504578"><ele>35.0</ele><time>2026-04-08T08:11:53Z</time></trkpt><trkpt lat="34.292154651741676" lon="7.9991330762976816"><ele>35.0</ele><time>2026-04-08T08:11:54Z</time></trkpt><trkpt lat="34.292173603522144" lon="7.999369944840188"><ele>35.0</ele><time>2026-04-08T08:11:55Z</time></trkpt><trkpt lat="34.29219525824819" lon="7.999609958205955"><ele>35.0</ele><time>2026-04-08T08:11:56Z</time></trkpt><trkpt lat="34.29221382636886" lon="7.9998353628513925"><ele>35.0</ele><time>2026-04-08T08:11:57Z</time></trkpt><trkpt lat="34.292232128890454" lon="8.000051321735816"><ele>35.0</ele><time>2026-04-08T08:11:58Z</time></trkpt><trkpt lat="34.29225185967886" lon="8.000262346384616"><ele>35.0</ele><time>2026-04-08T08:11:59Z</time></trkpt><trkpt lat="34.29226999796669" lon="8.00046968983876"><ele>35.0</ele><time>2026-04-08T08:12:00Z</time></trkpt><trkpt lat="34.29228776563449" lon="8.000670132879067"><ele>35.0</ele><time>2026-04-08T08:12:01Z</time></trkpt><trkpt lat="34.29231047539473" lon="8.00087395797681"><ele>35.0</ele><time>2026-04-08T08:12:02Z</time></trkpt><trkpt lat="34.29233228808496" lon="8.00107212802727"><ele>35.0</ele><time>2026-04-08T08:12:03Z</time></trkpt><trkpt lat="34.29235971918213" lon="8.00127450251002"><ele>35.0</ele><time>2026-04-08T08:12:04Z</time></trkpt><trkpt lat="34.292393776447554" lon="8.00148029686509"><ele>35.0</ele><time>2026-04-08T08:12:05Z</time></trkpt><trkpt lat="34.29242882148267" lon="8.001676785468986"><ele>35.0</ele><time>2026-04-08T08:12:06Z</time></trkpt><trkpt lat="34.29246133382334" lon="8.00186227094135"><ele>35.0</ele><time>2026-04-08T08:12:07Z</time></trkpt><trkpt lat="34.29249734410772" lon="8.002070876932232"><ele>35.0</ele><time>2026-04-08T08:12:08Z</time></trkpt><trkpt lat="34.29253181763362" lon="8.002294367265335"><ele>35.0</ele><time>2026-04-08T08:12:09Z</time></trkpt><trkpt lat="34.29256618686624" lon="8.002536440259462"><ele>35.0</ele><time>2026-04-08T08:12:10Z</time></trkpt><trkpt lat="34.29259921468531" lon="8.002777177551307"><ele>35.0</ele><time>2026-04-08T08:12:11Z</time></trkpt><trkpt lat="34.2926294158233" lon="8.003021346550794"><ele>35.0</ele><time>2026-04-08T08:12:12Z</time></trkpt><trkpt lat="34.29265149930221" lon="8.003260245559598"><ele>34.0</ele><time>2026-04-08T08:12:13Z</time></trkpt><trkpt lat="34.29266456095827" lon="8.003487127649427"><ele>33.0</ele><time>2026-04-08T08:12:14Z</time></trkpt><trkpt lat="34.292680872407864" lon="8.003719730399252"><ele>32.0</ele><time>2026-04-08T08:12:15Z</time></trkpt><trkpt lat="34.29269010812288" lon="8.003946450583603"><ele>32.0</ele><time>2026-04-08T08:12:16Z</time></trkpt><trkpt lat="34.292692664854414" lon="8.004147219855147"><ele>32.0</ele><time>2026-04-08T08:12:17Z</time></trkpt><trkpt lat="34.292696219260115" lon="8.00434308931957"><ele>32.0</ele><time>2026-04-08T08:12:18Z</time></trkpt><trkpt lat="34.29269769664555" lon="8.004536740157262"><ele>33.0</ele><time>2026-04-08T08:12:19Z</time></trkpt><trkpt lat="34.29269942671642" lon="8.004731230037597"><ele>34.0</ele><time>2026-04-08T08:12:20Z</time></trkpt><trkpt lat="34.292693738987126" lon="8.00491722142809"><ele>35.0</ele><time>2026-04-08T08:12:21Z</time></trkpt><trkpt lat="34.29268684186325" lon="8.00510201284983"><ele>35.25</ele><time>2026-04-08T08:12:22Z</time></trkpt><trkpt lat="34.29268691094175" lon="8.005283813502304"><ele>35.5</ele><time>2026-04-08T08:12:23Z</time></trkpt><trkpt lat="34.29268708717079" lon="8.005463563191523"><ele>35.75</ele><time>2026-04-08T08:12:24Z</time></trkpt><trkpt lat="34.29268461049976" lon="8.005634079009955"><ele>36.0</ele><time>2026-04-08T08:12:25Z</time></trkpt><trkpt lat="34.292683172953915" lon="8.0057936102265"><ele>36.0</ele><time>2026-04-08T08:12:26Z</time></trkpt><trkpt lat="34.29268719766352" lon="8.005956120867573"><ele>36.0</ele><time>2026-04-08T08:12:27Z</time></trkpt><trkpt lat="34.29268912635614" lon="8.00612061817034"><ele>36.0</ele><time>2026-04-08T08:12:28Z</time></trkpt><trkpt lat="34.29269129815561" lon="8.006282110170181"><ele>36.0</ele><time>2026-04-08T08:12:29Z</time></trkpt><trkpt lat="34.29269222540932" lon="8.006444410789417"><ele>36.0</ele><time>2026-04-08T08:12:30Z</time></trkpt><trkpt lat="34.2926921668934" lon="8.006606857190949"><ele>36.0</ele><time>2026-04-08T08:12:31Z</time></trkpt><trkpt lat="34.29269149002325" lon="8.006777545799928"><ele>36.0</ele><time>2026-04-08T08:12:32Z</time></trkpt><trkpt lat="34.29269149411858" lon="8.00696259938338"><ele>36.0</ele><time>2026-04-08T08:12:33Z</time></trkpt><trkpt lat="34.29269889243494" lon="8.007161387709946"><ele>35.666666666666664</ele><time>2026-04-08T08:12:34Z</time></trkpt><trkpt lat="34.292705598528286" lon="8.007351326165173"><ele>35.33333333333333</ele><time>2026-04-08T08:12:35Z</time></trkpt><trkpt lat="34.292702379350985" lon="8.007549701460132"><ele>35.0</ele><time>2026-04-08T08:12:36Z</time></trkpt><trkpt lat="34.2926999609656" lon="8.007737378271571"><ele>35.0</ele><time>2026-04-08T08:12:37Z</time></trkpt><trkpt lat="34.29269607509887" lon="8.007914826141251"><ele>35.0</ele><time>2026-04-08T08:12:38Z</time></trkpt><trkpt lat="34.292699433138786" lon="8.008091603904543"><ele>35.0</ele><time>2026-04-08T08:12:39Z</time></trkpt><trkpt lat="34.29270268601038" lon="8.00826217908959"><ele>35.0</ele><time>2026-04-08T08:12:40Z</time></trkpt><trkpt lat="34.29270237754578" lon="8.00844030039988"><ele>35.25</ele><time>2026-04-08T08:12:41Z</time></trkpt><trkpt lat="34.29270239458651" lon="8.008620388872389"><ele>35.5</ele><time>2026-04-08T08:12:42Z</time></trkpt><trkpt lat="34.29270441750434" lon="8.008801464735834"><ele>35.75</ele><time>2026-04-08T08:12:43Z</time></trkpt><trkpt lat="34.2927064142031" lon="8.00898376094044"><ele>36.0</ele><time>2026-04-08T08:12:44Z</time></trkpt><trkpt lat="34.292709822190204" lon="8.009167130904482"><ele>36.333333333333336</ele><time>2026-04-08T08:12:45Z</time></trkpt><trkpt lat="34.29271603016634" lon="8.0093466312756"><ele>36.66666666666667</ele><time>2026-04-08T08:12:46Z</time></trkpt><trkpt lat="34.292727231298564" lon="8.009534053231246"><ele>37.0</ele><time>2026-04-08T08:12:47Z</time></trkpt><trkpt lat="34.292743380821655" lon="8.009726031658989"><ele>37.0</ele><time>2026-04-08T08:12:48Z</time></trkpt><trkpt lat="34.29276410907093" lon="8.009924186774532"><ele>37.0</ele><time>2026-04-08T08:12:49Z</time></trkpt><trkpt lat="34.29278769332982" lon="8.01011882110996"><ele>37.0</ele><time>2026-04-08T08:12:50Z</time></trkpt><trkpt lat="34.292816798470206" lon="8.010315740054637"><ele>37.0</ele><time>2026-04-08T08:12:51Z</time></trkpt><trkpt lat="34.292849673656114" lon="8.010514836076045"><ele>37.0</ele><time>2026-04-08T08:12:52Z</time></trkpt><trkpt lat="34.292881412953164" lon="8.010713534264966"><ele>37.0</ele><time>2026-04-08T08:12:53Z</time></trkpt><trkpt lat="34.29291481806154" lon="8.010914039634487"><ele>37.0</ele><time>2026-04-08T08:12:54Z</time></trkpt><trkpt lat="34.29294411044102" lon="8.011102016201324"><ele>37.0</ele><time>2026-04-08T08:12:55Z</time></trkpt><trkpt lat="34.29297303565751" lon="8.011292237370657"><ele>37.0</ele><time>2026-04-08T08:12:56Z</time></trkpt><trkpt lat="34.2929990210568" lon="8.011497791110505"><ele>37.0</ele><time>2026-04-08T08:12:57Z</time></trkpt><trkpt lat="34.293020074428675" lon="8.011699893102003"><ele>37.0</ele><time>2026-04-08T08:12:58Z</time></trkpt><trkpt lat="34.2930382873712" lon="8.011905995397187"><ele>37.0</ele><time>2026-04-08T08:12:59Z</time></trkpt><trkpt lat="34.293054679846065" lon="8.012105085611404"><ele>37.0</ele><time>2026-04-08T08:13:00Z</time></trkpt><trkpt lat="34.29306797547518" lon="8.012305244040503"><ele>37.0</ele><time>2026-04-08T08:13:01Z</time></trkpt><trkpt lat="34.2930838314854" lon="8.012512458390752"><ele>37.0</ele><time>2026-04-08T08:13:02Z</time></trkpt><trkpt lat="34.29309789253202" lon="8.012721044351006"><ele>37.333333333333336</ele><time>2026-04-08T08:13:03Z</time></trkpt><trkpt lat="34.29311142685342" lon="8.01293260193492"><ele>37.666666666666664</ele><time>2026-04-08T08:13:04Z</time></trkpt><trkpt lat="34.293125349772886" lon="8.013143564790164"><ele>38.0</ele><time>2026-04-08T08:13:05Z</time></trkpt><trkpt lat="34.293139995350124" lon="8.013355967014737"><ele>38.33333333333333</ele><time>2026-04-08T08:13:06Z</time></trkpt><trkpt lat="34.29315546094793" lon="8.013565447452502"><ele>38.666666666666664</ele><time>2026-04-08T08:13:07Z</time></trkpt><trkpt lat="34.29316907729168" lon="8.013781348834987"><ele>39.0</ele><time>2026-04-08T08:13:08Z</time></trkpt><trkpt lat="34.2931822563135" lon="8.013998940962843"><ele>38.666666666666664</ele><time>2026-04-08T08:13:09Z</time></trkpt><trkpt lat="34.293197626433866" lon="8.014213320290756"><ele>38.33333333333333</ele><time>2026-04-08T08:13:10Z</time></trkpt><trkpt lat="34.293214327238395" lon="8.014427921677699"><ele>38.0</ele><time>2026-04-08T08:13:11Z</time></trkpt><trkpt lat="34.293230962336516" lon="8.014635910643907"><ele>38.0</ele><time>2026-04-08T08:13:12Z</time></trkpt><trkpt lat="34.29324729840841" lon="8.014848713791936"><ele>38.0</ele><time>2026-04-08T08:13:13Z</time></trkpt><trkpt lat="34.29326152446942" lon="8.015062492401674"><ele>38.0</ele><time>2026-04-08T08:13:14Z</time></trkpt><trkpt lat="34.29327595623201" lon="8.015273439424126"><ele>37.666666666666664</ele><time>2026-04-08T08:13:15Z</time></trkpt><trkpt lat="34.29328972942744" lon="8.01549066878625"><ele>37.333333333333336</ele><time>2026-04-08T08:13:16Z</time></trkpt><trkpt lat="34.29330299976679" lon="8.01570596278246"><ele>37.0</ele><time>2026-04-08T08:13:17Z</time></trkpt><trkpt lat="34.29331719427985" lon="8.015915792340538"><ele>37.0</ele><time>2026-04-08T08:13:18Z</time></trkpt><trkpt lat="34.2933315585735" lon="8.016124316717978"><ele>37.0</ele><time>2026-04-08T08:13:19Z</time></trkpt><trkpt lat="34.29334537331477" lon="8.016338228278167"><ele>37.0</ele><time>2026-04-08T08:13:20Z</time></trkpt><trkpt lat="34.29336017387753" lon="8.016544783829165"><ele>37.0</ele><time>2026-04-08T08:13:21Z</time></trkpt><trkpt lat="34.29337609115302" lon="8.016746864399977"><ele>37.0</ele><time>2026-04-08T08:13:22Z</time></trkpt><trkpt lat="34.29338819914895" lon="8.01694001932451"><ele>37.0</ele><time>2026-04-08T08:13:23Z</time></trkpt><trkpt lat="34.29340107067354" lon="8.017134960943672"><ele>37.0</ele><time>2026-04-08T08:13:24Z</time></trkpt><trkpt lat="34.29341382537566" lon="8.017342519799383"><ele>37.0</ele><time>2026-04-08T08:13:25Z</time></trkpt><trkpt lat="34.29342390708944" lon="8.017549747577572"><ele>37.0</ele><time>2026-04-08T08:13:26Z</time></trkpt><trkpt lat="34.2934359390984" lon="8.017768241028442"><ele>37.0</ele><time>2026-04-08T08:13:27Z</time></trkpt><trkpt lat="34.29344572592092" lon="8.017970497089559"><ele>37.0</ele><time>2026-04-08T08:13:28Z</time></trkpt><trkpt lat="34.29345984978321" lon="8.018186125925713"><ele>37.0</ele><time>2026-04-08T08:13:29Z</time></trkpt><trkpt lat="34.29347254529656" lon="8.018392555511491"><ele>36.66666666666667</ele><time>2026-04-08T08:13:30Z</time></trkpt><trkpt lat="34.29348429527104" lon="8.018606673585113"><ele>36.333333333333336</ele><time>2026-04-08T08:13:31.001Z</time></trkpt><trkpt lat="34.293495262912515" lon="8.01881578216817"><ele>36.0</ele><time>2026-04-08T08:13:32.001Z</time></trkpt><trkpt lat="34.29350923075374" lon="8.019025650172255"><ele>35.666666666666664</ele><time>2026-04-08T08:13:33.001Z</time></trkpt><trkpt lat="34.293523868930734" lon="8.019236844804018"><ele>35.33333333333333</ele><time>2026-04-08T08:13:34.001Z</time></trkpt><trkpt lat="34.29353783289014" lon="8.01945014472268"><ele>35.0</ele><time>2026-04-08T08:13:35.001Z</time></trkpt><trkpt lat="34.29354861203358" lon="8.019668623671288"><ele>35.0</ele><time>2026-04-08T08:13:36.001Z</time></trkpt><trkpt lat="34.29355673617998" lon="8.019876923379721"><ele>35.0</ele><time>2026-04-08T08:13:37.001Z</time></trkpt><trkpt lat="34.29356526293266" lon="8.02008675666429"><ele>35.0</ele><time>2026-04-08T08:13:38.001Z</time></trkpt><trkpt lat="34.29356721658154" lon="8.020291699446288"><ele>34.666666666666664</ele><time>2026-04-08T08:13:39.001Z</time></trkpt><trkpt lat="34.293566055359264" lon="8.02049511986341"><ele>34.333333333333336</ele><time>2026-04-08T08:13:40.001Z</time></trkpt><trkpt lat="34.2935584142587" lon="8.020701612444336"><ele>34.0</ele><time>2026-04-08T08:13:41.001Z</time></trkpt><trkpt lat="34.29354920834361" lon="8.020901964852944"><ele>34.0</ele><time>2026-04-08T08:13:42Z</time></trkpt><trkpt lat="34.29354839134765" lon="8.021132281157485"><ele>34.0</ele><time>2026-04-08T08:13:43Z</time></trkpt><trkpt lat="34.29354541735071" lon="8.021341827539805"><ele>34.0</ele><time>2026-04-08T08:13:44Z</time></trkpt><trkpt lat="34.293538272840514" lon="8.021543245748088"><ele>33.66666666666667</ele><time>2026-04-08T08:13:45Z</time></trkpt><trkpt lat="34.29353117428413" lon="8.02175055449695"><ele>33.333333333333336</ele><time>2026-04-08T08:13:46Z</time></trkpt><trkpt lat="34.293525268444775" lon="8.021958180784928"><ele>33.0</ele><time>2026-04-08T08:13:47Z</time></trkpt><trkpt lat="34.29351753153251" lon="8.022170091176351"><ele>33.0</ele><time>2026-04-08T08:13:48Z</time></trkpt><trkpt lat="34.293512082918994" lon="8.022378853244168"><ele>33.0</ele><time>2026-04-08T08:13:49Z</time></trkpt><trkpt lat="34.29350594989568" lon="8.022590683750332"><ele>33.0</ele><time>2026-04-08T08:13:50Z</time></trkpt><trkpt lat="34.29349832531559" lon="8.022796902884227"><ele>33.333333333333336</ele><time>2026-04-08T08:13:51Z</time></trkpt><trkpt lat="34.293486506524246" lon="8.023000978255048"><ele>33.66666666666667</ele><time>2026-04-08T08:13:52Z</time></trkpt><trkpt lat="34.2934674354386" lon="8.023209184761035"><ele>34.0</ele><time>2026-04-08T08:13:53Z</time></trkpt><trkpt lat="34.293447940161215" lon="8.023419998085682"><ele>33.333333333333336</ele><time>2026-04-08T08:13:54Z</time></trkpt><trkpt lat="34.293430974619625" lon="8.023631863653554"><ele>32.666666666666664</ele><time>2026-04-08T08:13:55Z</time></trkpt><trkpt lat="34.29341494075569" lon="8.02383812146001"><ele>32.0</ele><time>2026-04-08T08:13:56Z</time></trkpt><trkpt lat="34.2933975211624" lon="8.024044865881931"><ele>31.666666666666664</ele><time>2026-04-08T08:13:57Z</time></trkpt><trkpt lat="34.29337950951764" lon="8.024249170947096"><ele>31.333333333333336</ele><time>2026-04-08T08:13:58Z</time></trkpt><trkpt lat="34.2933654764144" lon="8.024454621832843"><ele>31.0</ele><time>2026-04-08T08:13:59Z</time></trkpt><trkpt lat="34.29335106981392" lon="8.024665178256031"><ele>31.0</ele><time>2026-04-08T08:14:00Z</time></trkpt><trkpt lat="34.29333691444103" lon="8.02487459987301"><ele>31.0</ele><time>2026-04-08T08:14:01Z</time></trkpt><trkpt lat="34.29332153800351" lon="8.025083913675244"><ele>31.0</ele><time>2026-04-08T08:14:02Z</time></trkpt><trkpt lat="34.29330326367951" lon="8.025302235830107"><ele>31.0</ele><time>2026-04-08T08:14:03Z</time></trkpt><trkpt lat="34.29328452788697" lon="8.025515332163252"><ele>31.0</ele><time>2026-04-08T08:14:04Z</time></trkpt><trkpt lat="34.29326333524945" lon="8.025727621355788"><ele>31.0</ele><time>2026-04-08T08:14:05Z</time></trkpt><trkpt lat="34.293241848694116" lon="8.025945910301871"><ele>30.333333333333336</ele><time>2026-04-08T08:14:06Z</time></trkpt><trkpt lat="34.29322506444019" lon="8.02614685044454"><ele>29.666666666666664</ele><time>2026-04-08T08:14:07Z</time></trkpt><trkpt lat="34.29320957949284" lon="8.026360661929035"><ele>29.0</ele><time>2026-04-08T08:14:08Z</time></trkpt><trkpt lat="34.29320175549601" lon="8.026572214695232"><ele>28.666666666666664</ele><time>2026-04-08T08:14:09Z</time></trkpt><trkpt lat="34.29320100085041" lon="8.026798388569176"><ele>28.333333333333336</ele><time>2026-04-08T08:14:10Z</time></trkpt><trkpt lat="34.29320824856873" lon="8.027014028781965"><ele>28.0</ele><time>2026-04-08T08:14:11Z</time></trkpt><trkpt lat="34.293228092110276" lon="8.027222717224875"><ele>28.0</ele><time>2026-04-08T08:14:12Z</time></trkpt><trkpt lat="34.29326110332242" lon="8.02742055051702"><ele>28.0</ele><time>2026-04-08T08:14:13Z</time></trkpt><trkpt lat="34.29330856121953" lon="8.027612398672927"><ele>28.0</ele><time>2026-04-08T08:14:14Z</time></trkpt><trkpt lat="34.29335478006231" lon="8.027792190195296"><ele>28.666666666666668</ele><time>2026-04-08T08:14:15Z</time></trkpt><trkpt lat="34.29339440952387" lon="8.027979366079318"><ele>29.333333333333336</ele><time>2026-04-08T08:14:16Z</time></trkpt><trkpt lat="34.29343437894855" lon="8.028169212718344"><ele>30.0</ele><time>2026-04-08T08:14:17Z</time></trkpt><trkpt lat="34.293479390035706" lon="8.02837623363888"><ele>30.0</ele><time>2026-04-08T08:14:18Z</time></trkpt><trkpt lat="34.29352513398201" lon="8.028575240378972"><ele>30.0</ele><time>2026-04-08T08:14:19Z</time></trkpt><trkpt lat="34.293574893677004" lon="8.028788057985652"><ele>30.0</ele><time>2026-04-08T08:14:20Z</time></trkpt><trkpt lat="34.293623781741786" lon="8.028998908099595"><ele>30.333333333333336</ele><time>2026-04-08T08:14:21Z</time></trkpt><trkpt lat="34.29367504518149" lon="8.029211002014584"><ele>30.666666666666668</ele><time>2026-04-08T08:14:22Z</time></trkpt><trkpt lat="34.293725518261674" lon="8.029415403553827"><ele>31.0</ele><time>2026-04-08T08:14:23Z</time></trkpt><trkpt lat="34.293774927047544" lon="8.029618701038624"><ele>31.0</ele><time>2026-04-08T08:14:24Z</time></trkpt><trkpt lat="34.29382033724167" lon="8.029806653050544"><ele>31.0</ele><time>2026-04-08T08:14:25Z</time></trkpt><trkpt lat="34.29386603246479" lon="8.02999649383481"><ele>31.0</ele><time>2026-04-08T08:14:26Z</time></trkpt><trkpt lat="34.293918567551074" lon="8.03019406058949"><ele>31.333333333333336</ele><time>2026-04-08T08:14:27Z</time></trkpt><trkpt lat="34.2939691070997" lon="8.03038955959318"><ele>31.666666666666664</ele><time>2026-04-08T08:14:28Z</time></trkpt><trkpt lat="34.29402491044094" lon="8.0305847537561"><ele>32.0</ele><time>2026-04-08T08:14:29Z</time></trkpt><trkpt lat="34.2940753869107" lon="8.030778848006637"><ele>31.666666666666664</ele><time>2026-04-08T08:14:30Z</time></trkpt><trkpt lat="34.29412637298804" lon="8.030979549025583"><ele>31.333333333333336</ele><time>2026-04-08T08:14:31Z</time></trkpt><trkpt lat="34.29417298079955" lon="8.031171411668248"><ele>31.0</ele><time>2026-04-08T08:14:32Z</time></trkpt><trkpt lat="34.294217746093736" lon="8.03135018034774"><ele>31.0</ele><time>2026-04-08T08:14:33Z</time></trkpt><trkpt lat="34.29426095694028" lon="8.03152734917135"><ele>31.0</ele><time>2026-04-08T08:14:34Z</time></trkpt><trkpt lat="34.29430660698164" lon="8.03171958764669"><ele>31.0</ele><time>2026-04-08T08:14:35Z</time></trkpt><trkpt lat="34.29435242709353" lon="8.031915813362197"><ele>31.333333333333336</ele><time>2026-04-08T08:14:36Z</time></trkpt><trkpt lat="34.294399782807794" lon="8.032120298860617"><ele>31.666666666666664</ele><time>2026-04-08T08:14:37Z</time></trkpt><trkpt lat="34.29444750183545" lon="8.032326144928247"><ele>32.0</ele><time>2026-04-08T08:14:38Z</time></trkpt><trkpt lat="34.29449574454209" lon="8.032530859870969"><ele>33.0</ele><time>2026-04-08T08:14:39Z</time></trkpt><trkpt lat="34.29454442968421" lon="8.032737577226873"><ele>34.0</ele><time>2026-04-08T08:14:40Z</time></trkpt><trkpt lat="34.29459414086456" lon="8.032944210887253"><ele>35.0</ele><time>2026-04-08T08:14:41Z</time></trkpt><trkpt lat="34.29464560793238" lon="8.03314481678134"><ele>34.666666666666664</ele><time>2026-04-08T08:14:42Z</time></trkpt><trkpt lat="34.29469648881742" lon="8.033341660977168"><ele>34.333333333333336</ele><time>2026-04-08T08:14:43Z</time></trkpt><trkpt lat="34.29474511982708" lon="8.033525038510271"><ele>34.0</ele><time>2026-04-08T08:14:44Z</time></trkpt><trkpt lat="34.29479625798805" lon="8.033729040742887"><ele>34.0</ele><time>2026-04-08T08:14:45Z</time></trkpt><trkpt lat="34.29484155370521" lon="8.033919814542422"><ele>34.0</ele><time>2026-04-08T08:14:46Z</time></trkpt><trkpt lat="34.294883525215404" lon="8.034110213844924"><ele>34.0</ele><time>2026-04-08T08:14:47Z</time></trkpt><trkpt lat="34.29492696367566" lon="8.034296775287979"><ele>33.66666666666667</ele><time>2026-04-08T08:14:48Z</time></trkpt><trkpt lat="34.294973382651534" lon="8.034485352284523"><ele>33.333333333333336</ele><time>2026-04-08T08:14:49Z</time></trkpt><trkpt lat="34.295019238585844" lon="8.034666712806978"><ele>33.0</ele><time>2026-04-08T08:14:50Z</time></trkpt><trkpt lat="34.295065346049505" lon="8.034856032387601"><ele>34.0</ele><time>2026-04-08T08:14:51Z</time></trkpt><trkpt lat="34.29511151177066" lon="8.035045902408473"><ele>35.0</ele><time>2026-04-08T08:14:52Z</time></trkpt><trkpt lat="34.29515809251427" lon="8.035241861234226"><ele>36.0</ele><time>2026-04-08T08:14:53Z</time></trkpt><trkpt lat="34.29520471302829" lon="8.035434464705432"><ele>36.0</ele><time>2026-04-08T08:14:54Z</time></trkpt><trkpt lat="34.29525260479707" lon="8.035624502454853"><ele>36.0</ele><time>2026-04-08T08:14:55Z</time></trkpt><trkpt lat="34.295298812584015" lon="8.035816471984703"><ele>36.0</ele><time>2026-04-08T08:14:56Z</time></trkpt><trkpt lat="34.29534522731878" lon="8.036013818080738"><ele>35.666666666666664</ele><time>2026-04-08T08:14:57Z</time></trkpt><trkpt lat="34.295390906340145" lon="8.036208121467318"><ele>35.33333333333333</ele><time>2026-04-08T08:14:58Z</time></trkpt><trkpt lat="34.29543502407179" lon="8.03640124301046"><ele>35.0</ele><time>2026-04-08T08:14:59Z</time></trkpt><trkpt lat="34.295478893517895" lon="8.036588994393524"><ele>35.0</ele><time>2026-04-08T08:15:00Z</time></trkpt><trkpt lat="34.29552073204577" lon="8.036771676286508"><ele>35.0</ele><time>2026-04-08T08:15:01Z</time></trkpt><trkpt lat="34.29556640232769" lon="8.036955896975682"><ele>35.0</ele><time>2026-04-08T08:15:02Z</time></trkpt><trkpt lat="34.29561159555119" lon="8.03714014206946"><ele>35.0</ele><time>2026-04-08T08:15:03Z</time></trkpt><trkpt lat="34.29565408224344" lon="8.03732190448617"><ele>35.0</ele><time>2026-04-08T08:15:04Z</time></trkpt><trkpt lat="34.29569868869456" lon="8.037510790262386"><ele>35.0</ele><time>2026-04-08T08:15:05Z</time></trkpt><trkpt lat="34.29574336707546" lon="8.037696389909298"><ele>35.33333333333333</ele><time>2026-04-08T08:15:06Z</time></trkpt><trkpt lat="34.295790004925564" lon="8.037900463743117"><ele>35.666666666666664</ele><time>2026-04-08T08:15:07Z</time></trkpt><trkpt lat="34.29583719167306" lon="8.038095445840518"><ele>36.0</ele><time>2026-04-08T08:15:08Z</time></trkpt><trkpt lat="34.29588360613766" lon="8.038294454149625"><ele>35.666666666666664</ele><time>2026-04-08T08:15:09Z</time></trkpt><trkpt lat="34.295929485574845" lon="8.038488285076067"><ele>35.33333333333333</ele><time>2026-04-08T08:15:10Z</time></trkpt><trkpt lat="34.29597600927797" lon="8.038690713666822"><ele>35.0</ele><time>2026-04-08T08:15:11Z</time></trkpt><trkpt lat="34.29602008171832" lon="8.038885613183357"><ele>35.0</ele><time>2026-04-08T08:15:12Z</time></trkpt><trkpt lat="34.296063839293836" lon="8.03908377250188"><ele>35.0</ele><time>2026-04-08T08:15:13Z</time></trkpt><trkpt lat="34.29610753507687" lon="8.039286255491191"><ele>35.0</ele><time>2026-04-08T08:15:14Z</time></trkpt><trkpt lat="34.29615706826654" lon="8.039492477786279"><ele>35.0</ele><time>2026-04-08T08:15:15Z</time></trkpt><trkpt lat="34.29620213488401" lon="8.039693357212489"><ele>35.0</ele><time>2026-04-08T08:15:16Z</time></trkpt><trkpt lat="34.2962454380204" lon="8.039890859266677"><ele>35.0</ele><time>2026-04-08T08:15:17Z</time></trkpt><trkpt lat="34.29628936475304" lon="8.040090163286838"><ele>35.0</ele><time>2026-04-08T08:15:18Z</time></trkpt><trkpt lat="34.29633160568037" lon="8.040275936576304"><ele>35.0</ele><time>2026-04-08T08:15:19Z</time></trkpt><trkpt lat="34.29637570791448" lon="8.04046565631684"><ele>35.0</ele><time>2026-04-08T08:15:20Z</time></trkpt><trkpt lat="34.29641968614199" lon="8.040656063143443"><ele>35.33333333333333</ele><time>2026-04-08T08:15:21Z</time></trkpt><trkpt lat="34.29646757240596" lon="8.040851915246432"><ele>35.666666666666664</ele><time>2026-04-08T08:15:22Z</time></trkpt><trkpt lat="34.29651532722619" lon="8.041044738911044"><ele>36.0</ele><time>2026-04-08T08:15:23Z</time></trkpt><trkpt lat="34.29655992257004" lon="8.041241143213744"><ele>36.0</ele><time>2026-04-08T08:15:24Z</time></trkpt><trkpt lat="34.29659910549668" lon="8.04144217408354"><ele>36.0</ele><time>2026-04-08T08:15:25Z</time></trkpt><trkpt lat="34.29663363694657" lon="8.041636389150614"><ele>36.0</ele><time>2026-04-08T08:15:26Z</time></trkpt><trkpt lat="34.2966731382948" lon="8.041832045174832"><ele>36.0</ele><time>2026-04-08T08:15:27Z</time></trkpt><trkpt lat="34.29671496940866" lon="8.042017869630335"><ele>36.0</ele><time>2026-04-08T08:15:28Z</time></trkpt><trkpt lat="34.29676151077006" lon="8.042203734872443"><ele>36.0</ele><time>2026-04-08T08:15:29Z</time></trkpt><trkpt lat="34.29680589074682" lon="8.042391358787299"><ele>36.0</ele><time>2026-04-08T08:15:30Z</time></trkpt><trkpt lat="34.29684801359514" lon="8.042583172694044"><ele>36.0</ele><time>2026-04-08T08:15:31Z</time></trkpt><trkpt lat="34.29689247638999" lon="8.042777537802234"><ele>36.0</ele><time>2026-04-08T08:15:32Z</time></trkpt><trkpt lat="34.296940198118115" lon="8.042976822770918"><ele>36.0</ele><time>2026-04-08T08:15:33Z</time></trkpt><trkpt lat="34.29698772185745" lon="8.04318185856197"><ele>36.0</ele><time>2026-04-08T08:15:34Z</time></trkpt><trkpt lat="34.29703234031702" lon="8.043386432950149"><ele>36.0</ele><time>2026-04-08T08:15:35Z</time></trkpt><trkpt lat="34.29707769712272" lon="8.043592585365943"><ele>36.333333333333336</ele><time>2026-04-08T08:15:36.001Z</time></trkpt><trkpt lat="34.297117016773306" lon="8.043792319105041"><ele>36.66666666666667</ele><time>2026-04-08T08:15:37.001Z</time></trkpt><trkpt lat="34.29716048666793" lon="8.043998406781515"><ele>37.0</ele><time>2026-04-08T08:15:38.001Z</time></trkpt><trkpt lat="34.29720638609456" lon="8.044200045914128"><ele>37.66666666666667</ele><time>2026-04-08T08:15:39.001Z</time></trkpt><trkpt lat="34.29725353993369" lon="8.044400451198081"><ele>38.333333333333336</ele><time>2026-04-08T08:15:40.001Z</time></trkpt><trkpt lat="34.29729663390111" lon="8.044597966482879"><ele>39.0</ele><time>2026-04-08T08:15:41.001Z</time></trkpt><trkpt lat="34.29733698124276" lon="8.044793846627318"><ele>39.0</ele><time>2026-04-08T08:15:42.001Z</time></trkpt><trkpt lat="34.297379660703974" lon="8.0449923750755"><ele>39.0</ele><time>2026-04-08T08:15:43.001Z</time></trkpt><trkpt lat="34.29742394042738" lon="8.045189953087934"><ele>39.0</ele><time>2026-04-08T08:15:44.001Z</time></trkpt><trkpt lat="34.29747341551721" lon="8.045392233736901"><ele>39.0</ele><time>2026-04-08T08:15:45.001Z</time></trkpt><trkpt lat="34.29752303212601" lon="8.045594499193362"><ele>39.0</ele><time>2026-04-08T08:15:46.001Z</time></trkpt><trkpt lat="34.297571787335855" lon="8.04580566840345"><ele>39.0</ele><time>2026-04-08T08:15:47.001Z</time></trkpt><trkpt lat="34.29761897838306" lon="8.04601662306618"><ele>38.666666666666664</ele><time>2026-04-08T08:15:48.001Z</time></trkpt><trkpt lat="34.29766141358408" lon="8.046224652477067"><ele>38.33333333333333</ele><time>2026-04-08T08:15:49.001Z</time></trkpt><trkpt lat="34.29770407685348" lon="8.046439823072653"><ele>38.0</ele><time>2026-04-08T08:15:50.001Z</time></trkpt><trkpt lat="34.297745026135786" lon="8.04664245595244"><ele>38.0</ele><time>2026-04-08T08:15:51Z</time></trkpt><trkpt lat="34.29778582539462" lon="8.046842835394205"><ele>38.0</ele><time>2026-04-08T08:15:52Z</time></trkpt><trkpt lat="34.297828452388046" lon="8.047040344857168"><ele>38.0</ele><time>2026-04-08T08:15:53Z</time></trkpt><trkpt lat="34.29787208225523" lon="8.047235559123102"><ele>38.0</ele><time>2026-04-08T08:15:54Z</time></trkpt><trkpt lat="34.2979172601762" lon="8.047430429739743"><ele>38.0</ele><time>2026-04-08T08:15:55Z</time></trkpt><trkpt lat="34.297959838295014" lon="8.047621309108889"><ele>38.0</ele><time>2026-04-08T08:15:56Z</time></trkpt><trkpt lat="34.298002929666694" lon="8.04780643614527"><ele>38.0</ele><time>2026-04-08T08:15:57Z</time></trkpt><trkpt lat="34.298047105282436" lon="8.04799139669812"><ele>38.0</ele><time>2026-04-08T08:15:58Z</time></trkpt><trkpt lat="34.298092663381865" lon="8.048184913443034"><ele>38.0</ele><time>2026-04-08T08:15:59Z</time></trkpt><trkpt lat="34.29814005177613" lon="8.048377247495436"><ele>37.33333333333333</ele><time>2026-04-08T08:16:00Z</time></trkpt><trkpt lat="34.298186720907964" lon="8.048570475651148"><ele>36.666666666666664</ele><time>2026-04-08T08:16:01Z</time></trkpt><trkpt lat="34.2982332063609" lon="8.048768038787504"><ele>36.0</ele><time>2026-04-08T08:16:02Z</time></trkpt><trkpt lat="34.29827873786764" lon="8.048962309253938"><ele>36.666666666666664</ele><time>2026-04-08T08:16:03Z</time></trkpt><trkpt lat="34.29832484692693" lon="8.049159715993465"><ele>37.33333333333333</ele><time>2026-04-08T08:16:04Z</time></trkpt><trkpt lat="34.298370319512" lon="8.049354510213837"><ele>38.0</ele><time>2026-04-08T08:16:05Z</time></trkpt><trkpt lat="34.29841642279264" lon="8.049551869431795"><ele>38.0</ele><time>2026-04-08T08:16:06Z</time></trkpt><trkpt lat="34.2984622665593" lon="8.049742043968966"><ele>38.0</ele><time>2026-04-08T08:16:07Z</time></trkpt><trkpt lat="34.298506866184404" lon="8.049945655766413"><ele>38.0</ele><time>2026-04-08T08:16:08Z</time></trkpt><trkpt lat="34.298549533408654" lon="8.050143886509796"><ele>38.33333333333333</ele><time>2026-04-08T08:16:09Z</time></trkpt><trkpt lat="34.29859422179694" lon="8.05034753054688"><ele>38.666666666666664</ele><time>2026-04-08T08:16:10Z</time></trkpt><trkpt lat="34.29864854706542" lon="8.050543906419472"><ele>39.0</ele><time>2026-04-08T08:16:11Z</time></trkpt><trkpt lat="34.298700302396476" lon="8.050744241056774"><ele>38.666666666666664</ele><time>2026-04-08T08:16:12Z</time></trkpt><trkpt lat="34.298743687085974" lon="8.050943027501468"><ele>38.33333333333333</ele><time>2026-04-08T08:16:13Z</time></trkpt><trkpt lat="34.298790021670094" lon="8.051151114200268"><ele>38.0</ele><time>2026-04-08T08:16:14Z</time></trkpt><trkpt lat="34.29883546677788" lon="8.051351415206225"><ele>38.0</ele><time>2026-04-08T08:16:15Z</time></trkpt><trkpt lat="34.298883267949016" lon="8.051557282417052"><ele>38.0</ele><time>2026-04-08T08:16:16Z</time></trkpt><trkpt lat="34.29893004688744" lon="8.051752754810911"><ele>38.0</ele><time>2026-04-08T08:16:17Z</time></trkpt><trkpt lat="34.298975500033315" lon="8.051941542240234"><ele>38.0</ele><time>2026-04-08T08:16:18Z</time></trkpt><trkpt lat="34.299028046694914" lon="8.05212855431648"><ele>38.0</ele><time>2026-04-08T08:16:19Z</time></trkpt><trkpt lat="34.29908456185184" lon="8.052318229708407"><ele>38.0</ele><time>2026-04-08T08:16:20Z</time></trkpt><trkpt lat="34.2991350814069" lon="8.05250687900588"><ele>37.33333333333333</ele><time>2026-04-08T08:16:21Z</time></trkpt><trkpt lat="34.29918303761437" lon="8.052700189547807"><ele>36.666666666666664</ele><time>2026-04-08T08:16:22Z</time></trkpt><trkpt lat="34.299225160166536" lon="8.052903078217245"><ele>36.0</ele><time>2026-04-08T08:16:23Z</time></trkpt><trkpt lat="34.29926799393255" lon="8.053110307147351"><ele>36.0</ele><time>2026-04-08T08:16:24Z</time></trkpt><trkpt lat="34.29930992300093" lon="8.05332557840128"><ele>36.0</ele><time>2026-04-08T08:16:25Z</time></trkpt><trkpt lat="34.29935282986286" lon="8.053546857260747"><ele>36.0</ele><time>2026-04-08T08:16:26Z</time></trkpt><trkpt lat="34.299398704969" lon="8.053760106824493"><ele>36.0</ele><time>2026-04-08T08:16:27Z</time></trkpt><trkpt lat="34.29944495384152" lon="8.053961886576975"><ele>36.0</ele><time>2026-04-08T08:16:28Z</time></trkpt><trkpt lat="34.29949044618568" lon="8.054147406565006"><ele>36.0</ele><time>2026-04-08T08:16:29Z</time></trkpt><trkpt lat="34.29953535889708" lon="8.05429967775155"><ele>36.0</ele><time>2026-04-08T08:16:30Z</time></trkpt><trkpt lat="34.299573599334245" lon="8.054434512160555"><ele>36.0</ele><time>2026-04-08T08:16:31Z</time></trkpt><trkpt lat="34.29961367315419" lon="8.054569833361663"><ele>36.0</ele><time>2026-04-08T08:16:32Z</time></trkpt><trkpt lat="34.299651271489566" lon="8.054716065551283"><ele>36.0</ele><time>2026-04-08T08:16:33Z</time></trkpt><trkpt lat="34.299681267778354" lon="8.05487682514628"><ele>36.0</ele><time>2026-04-08T08:16:34Z</time></trkpt><trkpt lat="34.29971076397863" lon="8.055031369795618"><ele>36.0</ele><time>2026-04-08T08:16:35Z</time></trkpt><trkpt lat="34.29974687993927" lon="8.055168026448966"><ele>36.0</ele><time>2026-04-08T08:16:36Z</time></trkpt><trkpt lat="34.29978928269215" lon="8.055320845317286"><ele>36.0</ele><time>2026-04-08T08:16:37Z</time></trkpt><trkpt lat="34.29982877898457" lon="8.055483680601327"><ele>36.0</ele><time>2026-04-08T08:16:38Z</time></trkpt><trkpt lat="34.299864211049155" lon="8.05565331742016"><ele>36.0</ele><time>2026-04-08T08:16:39Z</time></trkpt><trkpt lat="34.29989857051077" lon="8.055822524011115"><ele>36.0</ele><time>2026-04-08T08:16:40Z</time></trkpt><trkpt lat="34.29993373863528" lon="8.055987158940392"><ele>36.0</ele><time>2026-04-08T08:16:41Z</time></trkpt><trkpt lat="34.299968974680546" lon="8.056149370340702"><ele>36.5</ele><time>2026-04-08T08:16:42Z</time></trkpt><trkpt lat="34.30000441884529" lon="8.056313041723852"><ele>37.0</ele><time>2026-04-08T08:16:43Z</time></trkpt><trkpt lat="34.30003725548291" lon="8.05647031125414"><ele>37.5</ele><time>2026-04-08T08:16:44Z</time></trkpt><trkpt lat="34.30007730673739" lon="8.05663482210642"><ele>38.0</ele><time>2026-04-08T08:16:45Z</time></trkpt><trkpt lat="34.30011672076458" lon="8.056802812469098"><ele>36.666666666666664</ele><time>2026-04-08T08:16:46Z</time></trkpt><trkpt lat="34.300158938624435" lon="8.05697719461241"><ele>35.333333333333336</ele><time>2026-04-08T08:16:47Z</time></trkpt><trkpt lat="34.30020315761378" lon="8.057156927518701"><ele>34.0</ele><time>2026-04-08T08:16:48Z</time></trkpt><trkpt lat="34.30025075038577" lon="8.057336659383324"><ele>34.66666666666667</ele><time>2026-04-08T08:16:49Z</time></trkpt><trkpt lat="34.300297870860895" lon="8.05751990193431"><ele>35.333333333333336</ele><time>2026-04-08T08:16:50Z</time></trkpt><trkpt lat="34.30034116536925" lon="8.057703180264827"><ele>36.0</ele><time>2026-04-08T08:16:51Z</time></trkpt><trkpt lat="34.300381392053104" lon="8.057880584324733"><ele>36.0</ele><time>2026-04-08T08:16:52Z</time></trkpt><trkpt lat="34.300427029703364" lon="8.058068566885545"><ele>36.0</ele><time>2026-04-08T08:16:53Z</time></trkpt><trkpt lat="34.30046972035781" lon="8.058252671598117"><ele>36.0</ele><time>2026-04-08T08:16:54Z</time></trkpt><trkpt lat="34.30050997776335" lon="8.058439844217332"><ele>36.333333333333336</ele><time>2026-04-08T08:16:55Z</time></trkpt><trkpt lat="34.30055322493429" lon="8.058630477361705"><ele>36.66666666666667</ele><time>2026-04-08T08:16:56Z</time></trkpt><trkpt lat="34.300598694764155" lon="8.058816603969257"><ele>37.0</ele><time>2026-04-08T08:16:57Z</time></trkpt><trkpt lat="34.300640786088536" lon="8.059003739419527"><ele>36.333333333333336</ele><time>2026-04-08T08:16:58Z</time></trkpt><trkpt lat="34.30068100146375" lon="8.059184950384434"><ele>35.666666666666664</ele><time>2026-04-08T08:16:59Z</time></trkpt><trkpt lat="34.30072294677745" lon="8.059373633196214"><ele>35.0</ele><time>2026-04-08T08:17:00Z</time></trkpt><trkpt lat="34.30076680043656" lon="8.059562183087667"><ele>35.0</ele><time>2026-04-08T08:17:01Z</time></trkpt><trkpt lat="34.30081280315627" lon="8.059753160474699"><ele>35.0</ele><time>2026-04-08T08:17:02Z</time></trkpt><trkpt lat="34.30086274092468" lon="8.059940307787324"><ele>35.0</ele><time>2026-04-08T08:17:03Z</time></trkpt><trkpt lat="34.30091278174374" lon="8.06013067076444"><ele>35.0</ele><time>2026-04-08T08:17:04Z</time></trkpt><trkpt lat="34.30096093528578" lon="8.060321943355296"><ele>35.0</ele><time>2026-04-08T08:17:05Z</time></trkpt><trkpt lat="34.30100837448662" lon="8.060515684840011"><ele>35.0</ele><time>2026-04-08T08:17:06Z</time></trkpt><trkpt lat="34.3010505573524" lon="8.060710434684713"><ele>34.666666666666664</ele><time>2026-04-08T08:17:07Z</time></trkpt><trkpt lat="34.30109377506134" lon="8.060919522639116"><ele>34.333333333333336</ele><time>2026-04-08T08:17:08Z</time></trkpt><trkpt lat="34.30114173796797" lon="8.061118413003983"><ele>34.0</ele><time>2026-04-08T08:17:09Z</time></trkpt><trkpt lat="34.30119738229241" lon="8.061326354363013"><ele>34.0</ele><time>2026-04-08T08:17:10Z</time></trkpt><trkpt lat="34.30125276102054" lon="8.061532837433054"><ele>34.0</ele><time>2026-04-08T08:17:11Z</time></trkpt><trkpt lat="34.30130562870775" lon="8.061740124267072"><ele>34.0</ele><time>2026-04-08T08:17:12Z</time></trkpt><trkpt lat="34.301354822339746" lon="8.061953691436337"><ele>34.0</ele><time>2026-04-08T08:17:13Z</time></trkpt><trkpt lat="34.30140273477699" lon="8.06216675682511"><ele>34.0</ele><time>2026-04-08T08:17:14Z</time></trkpt><trkpt lat="34.30144764891194" lon="8.062371658729457"><ele>34.0</ele><time>2026-04-08T08:17:15Z</time></trkpt><trkpt lat="34.30149740528849" lon="8.062582431742149"><ele>34.66666666666667</ele><time>2026-04-08T08:17:16Z</time></trkpt><trkpt lat="34.30154950976847" lon="8.062793683280814"><ele>35.333333333333336</ele><time>2026-04-08T08:17:17Z</time></trkpt><trkpt lat="34.30159960288306" lon="8.062997133561435"><ele>36.0</ele><time>2026-04-08T08:17:18Z</time></trkpt><trkpt lat="34.301651774247" lon="8.06320697402152"><ele>36.0</ele><time>2026-04-08T08:17:19Z</time></trkpt><trkpt lat="34.30170402192047" lon="8.06341097300129"><ele>36.0</ele><time>2026-04-08T08:17:20Z</time></trkpt><trkpt lat="34.30175670059282" lon="8.063617707734574"><ele>36.0</ele><time>2026-04-08T08:17:21Z</time></trkpt><trkpt lat="34.301805441274986" lon="8.063812608485804"><ele>36.0</ele><time>2026-04-08T08:17:22Z</time></trkpt><trkpt lat="34.30185213428274" lon="8.064004193482416"><ele>36.0</ele><time>2026-04-08T08:17:23Z</time></trkpt><trkpt lat="34.301899096865355" lon="8.064196798525167"><ele>36.0</ele><time>2026-04-08T08:17:24Z</time></trkpt><trkpt lat="34.301946854379715" lon="8.064389050703197"><ele>35.666666666666664</ele><time>2026-04-08T08:17:25Z</time></trkpt><trkpt lat="34.30199728984861" lon="8.06457312187869"><ele>35.33333333333333</ele><time>2026-04-08T08:17:26Z</time></trkpt><trkpt lat="34.3020455866488" lon="8.064758669446581"><ele>35.0</ele><time>2026-04-08T08:17:27Z</time></trkpt><trkpt lat="34.302089205887945" lon="8.064948858870377"><ele>35.0</ele><time>2026-04-08T08:17:28Z</time></trkpt><trkpt lat="34.30213759645803" lon="8.065150075573913"><ele>35.0</ele><time>2026-04-08T08:17:29Z</time></trkpt><trkpt lat="34.302189047001846" lon="8.065336121091221"><ele>35.0</ele><time>2026-04-08T08:17:30Z</time></trkpt><trkpt lat="34.30224479553684" lon="8.065533335878708"><ele>35.33333333333333</ele><time>2026-04-08T08:17:31Z</time></trkpt><trkpt lat="34.30229146045101" lon="8.065732603433366"><ele>35.666666666666664</ele><time>2026-04-08T08:17:32Z</time></trkpt><trkpt lat="34.30233566249782" lon="8.065933140131603"><ele>36.0</ele><time>2026-04-08T08:17:33Z</time></trkpt><trkpt lat="34.30238466457788" lon="8.066134508170107"><ele>36.333333333333336</ele><time>2026-04-08T08:17:34Z</time></trkpt><trkpt lat="34.302432872520065" lon="8.066332270834781"><ele>36.66666666666667</ele><time>2026-04-08T08:17:35Z</time></trkpt><trkpt lat="34.30248390881494" lon="8.066531552225419"><ele>37.0</ele><time>2026-04-08T08:17:36Z</time></trkpt><trkpt lat="34.30253511591036" lon="8.066733746412092"><ele>37.0</ele><time>2026-04-08T08:17:37Z</time></trkpt><trkpt lat="34.302589857411526" lon="8.066934418449845"><ele>37.0</ele><time>2026-04-08T08:17:38Z</time></trkpt><trkpt lat="34.30264593006766" lon="8.067143944385366"><ele>37.0</ele><time>2026-04-08T08:17:39Z</time></trkpt><trkpt lat="34.30269528047244" lon="8.06735245114094"><ele>37.66666666666667</ele><time>2026-04-08T08:17:40Z</time></trkpt><trkpt lat="34.302740296929876" lon="8.067553814790577"><ele>38.333333333333336</ele><time>2026-04-08T08:17:41Z</time></trkpt><trkpt lat="34.30279568424662" lon="8.067761201961812"><ele>39.0</ele><time>2026-04-08T08:17:42Z</time></trkpt><trkpt lat="34.302846468365345" lon="8.067961485176903"><ele>39.0</ele><time>2026-04-08T08:17:43Z</time></trkpt><trkpt lat="34.30289592036697" lon="8.0681549622351"><ele>39.0</ele><time>2026-04-08T08:17:44Z</time></trkpt><trkpt lat="34.302950313258414" lon="8.06835135876685"><ele>39.0</ele><time>2026-04-08T08:17:45Z</time></trkpt><trkpt lat="34.30300189066541" lon="8.068546711179264"><ele>39.0</ele><time>2026-04-08T08:17:46Z</time></trkpt><trkpt lat="34.30305067068754" lon="8.068740324248218"><ele>39.0</ele><time>2026-04-08T08:17:47Z</time></trkpt><trkpt lat="34.30310231834907" lon="8.068946232208924"><ele>39.0</ele><time>2026-04-08T08:17:48Z</time></trkpt><trkpt lat="34.30314856555927" lon="8.069147913438421"><ele>39.0</ele><time>2026-04-08T08:17:49Z</time></trkpt><trkpt lat="34.30319506809304" lon="8.069350787825458"><ele>39.0</ele><time>2026-04-08T08:17:50Z</time></trkpt><trkpt lat="34.30324302207306" lon="8.069555021139069"><ele>39.0</ele><time>2026-04-08T08:17:51Z</time></trkpt><trkpt lat="34.30329502705453" lon="8.069747744528213"><ele>38.666666666666664</ele><time>2026-04-08T08:17:52Z</time></trkpt><trkpt lat="34.30334876505625" lon="8.069943542114741"><ele>38.33333333333333</ele><time>2026-04-08T08:17:53Z</time></trkpt><trkpt lat="34.303403996621626" lon="8.070143022112642"><ele>38.0</ele><time>2026-04-08T08:17:54Z</time></trkpt><trkpt lat="34.30345885022015" lon="8.070342088044775"><ele>38.0</ele><time>2026-04-08T08:17:55Z</time></trkpt><trkpt lat="34.30350864047824" lon="8.07054328448985"><ele>38.0</ele><time>2026-04-08T08:17:56Z</time></trkpt><trkpt lat="34.30355815869772" lon="8.070746337849963"><ele>38.0</ele><time>2026-04-08T08:17:57Z</time></trkpt><trkpt lat="34.303610739123485" lon="8.070952843570309"><ele>38.33333333333333</ele><time>2026-04-08T08:17:58Z</time></trkpt><trkpt lat="34.30366357927764" lon="8.071154904470943"><ele>38.666666666666664</ele><time>2026-04-08T08:17:59Z</time></trkpt><trkpt lat="34.30371843624869" lon="8.071355895492665"><ele>39.0</ele><time>2026-04-08T08:18:00Z</time></trkpt><trkpt lat="34.303766976454746" lon="8.071559932197925"><ele>39.0</ele><time>2026-04-08T08:18:01Z</time></trkpt><trkpt lat="34.30381453060475" lon="8.071768189655614"><ele>39.0</ele><time>2026-04-08T08:18:02Z</time></trkpt><trkpt lat="34.30386459963096" lon="8.07197354475644"><ele>39.0</ele><time>2026-04-08T08:18:03Z</time></trkpt><trkpt lat="34.30391871841111" lon="8.07217693424983"><ele>39.0</ele><time>2026-04-08T08:18:04Z</time></trkpt><trkpt lat="34.30397006619328" lon="8.072370090956207"><ele>39.0</ele><time>2026-04-08T08:18:05Z</time></trkpt><trkpt lat="34.30401906448799" lon="8.07256941996308"><ele>39.0</ele><time>2026-04-08T08:18:06Z</time></trkpt><trkpt lat="34.304071883788154" lon="8.072761720262456"><ele>39.333333333333336</ele><time>2026-04-08T08:18:07Z</time></trkpt><trkpt lat="34.30412599358889" lon="8.072956697642999"><ele>39.66666666666667</ele><time>2026-04-08T08:18:08Z</time></trkpt><trkpt lat="34.3041848266535" lon="8.073148019421241"><ele>40.0</ele><time>2026-04-08T08:18:09Z</time></trkpt><trkpt lat="34.30424118209145" lon="8.073341606911946"><ele>40.0</ele><time>2026-04-08T08:18:10Z</time></trkpt><trkpt lat="34.304292371430286" lon="8.073538614407997"><ele>40.0</ele><time>2026-04-08T08:18:11Z</time></trkpt><trkpt lat="34.30434172780667" lon="8.073733359695193"><ele>40.0</ele><time>2026-04-08T08:18:12Z</time></trkpt><trkpt lat="34.30438958054859" lon="8.073932455795292"><ele>39.66666666666667</ele><time>2026-04-08T08:18:13Z</time></trkpt><trkpt lat="34.304438297479514" lon="8.0741347127772"><ele>39.333333333333336</ele><time>2026-04-08T08:18:14Z</time></trkpt><trkpt lat="34.3044892273298" lon="8.074329095069437"><ele>39.0</ele><time>2026-04-08T08:18:15Z</time></trkpt><trkpt lat="34.3045395844241" lon="8.07452967895783"><ele>39.0</ele><time>2026-04-08T08:18:16Z</time></trkpt><trkpt lat="34.30458809640022" lon="8.07473675549678"><ele>39.0</ele><time>2026-04-08T08:18:17Z</time></trkpt><trkpt lat="34.304637716827436" lon="8.074944287101406"><ele>39.0</ele><time>2026-04-08T08:18:18Z</time></trkpt><trkpt lat="34.30468698365881" lon="8.075149093689802"><ele>38.75</ele><time>2026-04-08T08:18:19Z</time></trkpt><trkpt lat="34.30472919381182" lon="8.075337379011934"><ele>38.5</ele><time>2026-04-08T08:18:20Z</time></trkpt><trkpt lat="34.30477232753349" lon="8.075508474359946"><ele>38.25</ele><time>2026-04-08T08:18:21Z</time></trkpt><trkpt lat="34.304812331165884" lon="8.07567119186404"><ele>38.0</ele><time>2026-04-08T08:18:22Z</time></trkpt><trkpt lat="34.304853616243996" lon="8.07584456095752"><ele>38.666666666666664</ele><time>2026-04-08T08:18:23Z</time></trkpt><trkpt lat="34.30490343555566" lon="8.076032815509796"><ele>39.333333333333336</ele><time>2026-04-08T08:18:24Z</time></trkpt><trkpt lat="34.30495737195528" lon="8.07624909169849"><ele>40.0</ele><time>2026-04-08T08:18:25Z</time></trkpt><trkpt lat="34.305012317678994" lon="8.076473613808352"><ele>40.0</ele><time>2026-04-08T08:18:26Z</time></trkpt><trkpt lat="34.30506360431577" lon="8.076692943290698"><ele>40.0</ele><time>2026-04-08T08:18:27Z</time></trkpt><trkpt lat="34.30511397130061" lon="8.076911929992752"><ele>40.0</ele><time>2026-04-08T08:18:28Z</time></trkpt><trkpt lat="34.305159270293736" lon="8.077119781396503"><ele>40.0</ele><time>2026-04-08T08:18:29Z</time></trkpt><trkpt lat="34.30520241921358" lon="8.07732236892367"><ele>40.0</ele><time>2026-04-08T08:18:30Z</time></trkpt><trkpt lat="34.305252040098" lon="8.077524641058893"><ele>40.0</ele><time>2026-04-08T08:18:31Z</time></trkpt><trkpt lat="34.30530453188888" lon="8.07772026553547"><ele>40.66666666666667</ele><time>2026-04-08T08:18:32Z</time></trkpt><trkpt lat="34.30535539718478" lon="8.07791721656863"><ele>41.333333333333336</ele><time>2026-04-08T08:18:33Z</time></trkpt><trkpt lat="34.30540209416753" lon="8.07809965138599"><ele>42.0</ele><time>2026-04-08T08:18:34Z</time></trkpt><trkpt lat="34.305450222394526" lon="8.078294832564625"><ele>42.0</ele><time>2026-04-08T08:18:35Z</time></trkpt><trkpt lat="34.30549866978455" lon="8.078488319987505"><ele>42.0</ele><time>2026-04-08T08:18:36Z</time></trkpt><trkpt lat="34.305545607385824" lon="8.078684394333433"><ele>42.0</ele><time>2026-04-08T08:18:37Z</time></trkpt><trkpt lat="34.30559176064473" lon="8.07887294280156"><ele>42.333333333333336</ele><time>2026-04-08T08:18:38Z</time></trkpt><trkpt lat="34.30563668425758" lon="8.07906416686516"><ele>42.66666666666667</ele><time>2026-04-08T08:18:39Z</time></trkpt><trkpt lat="34.30568567051548" lon="8.079261217378399"><ele>43.0</ele><time>2026-04-08T08:18:40Z</time></trkpt><trkpt lat="34.30573277154717" lon="8.079456752031437"><ele>43.333333333333336</ele><time>2026-04-08T08:18:41Z</time></trkpt><trkpt lat="34.30578063297501" lon="8.079652439674687"><ele>43.666666666666664</ele><time>2026-04-08T08:18:42Z</time></trkpt><trkpt lat="34.305826001418026" lon="8.079851263431953"><ele>44.0</ele><time>2026-04-08T08:18:43Z</time></trkpt><trkpt lat="34.30587816200424" lon="8.080047379861554"><ele>44.33333333333333</ele><time>2026-04-08T08:18:44Z</time></trkpt><trkpt lat="34.30593227883712" lon="8.080245128029693"><ele>44.666666666666664</ele><time>2026-04-08T08:18:45Z</time></trkpt><trkpt lat="34.305979842870215" lon="8.080441966848642"><ele>45.0</ele><time>2026-04-08T08:18:46Z</time></trkpt><trkpt lat="34.306028680351446" lon="8.08063940923053"><ele>45.0</ele><time>2026-04-08T08:18:47Z</time></trkpt><trkpt lat="34.306075665589454" lon="8.080833649232249"><ele>45.0</ele><time>2026-04-08T08:18:48Z</time></trkpt><trkpt lat="34.30612150409912" lon="8.081030216475813"><ele>45.0</ele><time>2026-04-08T08:18:49Z</time></trkpt><trkpt lat="34.30616758544547" lon="8.081229729458435"><ele>45.0</ele><time>2026-04-08T08:18:50Z</time></trkpt><trkpt lat="34.306211391466846" lon="8.081415269507671"><ele>45.0</ele><time>2026-04-08T08:18:51Z</time></trkpt><trkpt lat="34.30625614680175" lon="8.081604065835064"><ele>45.0</ele><time>2026-04-08T08:18:52Z</time></trkpt><trkpt lat="34.30630314089276" lon="8.08179426900098"><ele>45.666666666666664</ele><time>2026-04-08T08:18:53Z</time></trkpt><trkpt lat="34.30634867585658" lon="8.081982514104034"><ele>46.33333333333333</ele><time>2026-04-08T08:18:54Z</time></trkpt><trkpt lat="34.30639914432047" lon="8.082176527306762"><ele>47.0</ele><time>2026-04-08T08:18:55Z</time></trkpt><trkpt lat="34.30644788836838" lon="8.082365273714503"><ele>47.33333333333333</ele><time>2026-04-08T08:18:56Z</time></trkpt><trkpt lat="34.30649919433564" lon="8.082564691573767"><ele>47.666666666666664</ele><time>2026-04-08T08:18:57Z</time></trkpt><trkpt lat="34.30654146074597" lon="8.082766138218775"><ele>48.0</ele><time>2026-04-08T08:18:58Z</time></trkpt><trkpt lat="34.30658135808051" lon="8.082968367798463"><ele>48.0</ele><time>2026-04-08T08:18:59Z</time></trkpt><trkpt lat="34.306620582308476" lon="8.083170534635624"><ele>48.0</ele><time>2026-04-08T08:19:00Z</time></trkpt><trkpt lat="34.306662524271594" lon="8.083375113072837"><ele>48.0</ele><time>2026-04-08T08:19:01Z</time></trkpt><trkpt lat="34.30669640930809" lon="8.083569561629222"><ele>47.666666666666664</ele><time>2026-04-08T08:19:02Z</time></trkpt><trkpt lat="34.306726944017896" lon="8.083772743187684"><ele>47.33333333333333</ele><time>2026-04-08T08:19:03Z</time></trkpt><trkpt lat="34.30675535918007" lon="8.083971374953917"><ele>47.0</ele><time>2026-04-08T08:19:04Z</time></trkpt><trkpt lat="34.30677950463939" lon="8.084170479567437"><ele>46.33333333333333</ele><time>2026-04-08T08:19:05Z</time></trkpt><trkpt lat="34.30680236713787" lon="8.084364428380983"><ele>45.666666666666664</ele><time>2026-04-08T08:19:06Z</time></trkpt><trkpt lat="34.30682504578317" lon="8.084569309531727"><ele>45.0</ele><time>2026-04-08T08:19:07Z</time></trkpt><trkpt lat="34.30684925319227" lon="8.084769071060018"><ele>44.666666666666664</ele><time>2026-04-08T08:19:08Z</time></trkpt><trkpt lat="34.306878421660414" lon="8.0849725169946"><ele>44.33333333333333</ele><time>2026-04-08T08:19:09Z</time></trkpt><trkpt lat="34.3069135631734" lon="8.08517623492005"><ele>44.0</ele><time>2026-04-08T08:19:10Z</time></trkpt><trkpt lat="34.30695107096658" lon="8.085377198941007"><ele>44.0</ele><time>2026-04-08T08:19:11Z</time></trkpt><trkpt lat="34.306992571052014" lon="8.085580530049434"><ele>44.0</ele><time>2026-04-08T08:19:12Z</time></trkpt><trkpt lat="34.30703493482126" lon="8.085784117943339"><ele>44.0</ele><time>2026-04-08T08:19:13Z</time></trkpt><trkpt lat="34.307074593305224" lon="8.085991704152441"><ele>44.0</ele><time>2026-04-08T08:19:14Z</time></trkpt><trkpt lat="34.307107525359264" lon="8.086187859346257"><ele>44.0</ele><time>2026-04-08T08:19:15Z</time></trkpt><trkpt lat="34.30713827665284" lon="8.086389621334604"><ele>44.0</ele><time>2026-04-08T08:19:16Z</time></trkpt><trkpt lat="34.3071745554722" lon="8.08660451404353"><ele>44.33333333333333</ele><time>2026-04-08T08:19:17Z</time></trkpt><trkpt lat="34.30721075031926" lon="8.086819792083142"><ele>44.666666666666664</ele><time>2026-04-08T08:19:18Z</time></trkpt><trkpt lat="34.30724384511327" lon="8.08701328310079"><ele>45.0</ele><time>2026-04-08T08:19:19Z</time></trkpt><trkpt lat="34.30727548405535" lon="8.087197707561119"><ele>45.0</ele><time>2026-04-08T08:19:20Z</time></trkpt><trkpt lat="34.30730517004456" lon="8.08738256223874"><ele>45.0</ele><time>2026-04-08T08:19:21Z</time></trkpt><trkpt lat="34.30733964966058" lon="8.087575468376658"><ele>45.0</ele><time>2026-04-08T08:19:22Z</time></trkpt><trkpt lat="34.30737142741863" lon="8.087766726679675"><ele>45.0</ele><time>2026-04-08T08:19:23Z</time></trkpt><trkpt lat="34.30740701558727" lon="8.087973795703375"><ele>45.0</ele><time>2026-04-08T08:19:24Z</time></trkpt><trkpt lat="34.30744186686075" lon="8.088188099959815"><ele>45.0</ele><time>2026-04-08T08:19:25Z</time></trkpt><trkpt lat="34.30747530147522" lon="8.088403192252969"><ele>44.666666666666664</ele><time>2026-04-08T08:19:26Z</time></trkpt><trkpt lat="34.30750704092784" lon="8.088622579409325"><ele>44.33333333333333</ele><time>2026-04-08T08:19:27Z</time></trkpt><trkpt lat="34.30753039325391" lon="8.088843905033373"><ele>44.0</ele><time>2026-04-08T08:19:28Z</time></trkpt><trkpt lat="34.307550352940865" lon="8.089073523854353"><ele>44.0</ele><time>2026-04-08T08:19:29Z</time></trkpt><trkpt lat="34.30757811347039" lon="8.089311457517924"><ele>44.0</ele><time>2026-04-08T08:19:30Z</time></trkpt><trkpt lat="34.307593718696694" lon="8.089537911789979"><ele>44.0</ele><time>2026-04-08T08:19:30.999Z</time></trkpt><trkpt lat="34.307605354910855" lon="8.089751460197476"><ele>43.666666666666664</ele><time>2026-04-08T08:19:31.999Z</time></trkpt><trkpt lat="34.30761899504857" lon="8.089963646919736"><ele>43.333333333333336</ele><time>2026-04-08T08:19:32.999Z</time></trkpt><trkpt lat="34.30763500628529" lon="8.090162484198395"><ele>43.0</ele><time>2026-04-08T08:19:33.999Z</time></trkpt><trkpt lat="34.30765138455743" lon="8.0903569411264"><ele>43.0</ele><time>2026-04-08T08:19:34.999Z</time></trkpt><trkpt lat="34.30766626592897" lon="8.090532015529572"><ele>43.0</ele><time>2026-04-08T08:19:35.999Z</time></trkpt><trkpt lat="34.307680894810446" lon="8.090705209355109"><ele>43.0</ele><time>2026-04-08T08:19:36.999Z</time></trkpt><trkpt lat="34.307692192663154" lon="8.090879124070039"><ele>43.0</ele><time>2026-04-08T08:19:37.999Z</time></trkpt><trkpt lat="34.30770409832039" lon="8.091068020113193"><ele>43.66666666666667</ele><time>2026-04-08T08:19:38.999Z</time></trkpt><trkpt lat="34.307720433923805" lon="8.091268658609668"><ele>44.333333333333336</ele><time>2026-04-08T08:19:39.999Z</time></trkpt><trkpt lat="34.30773517501582" lon="8.091468416568315"><ele>45.0</ele><time>2026-04-08T08:19:40.999Z</time></trkpt><trkpt lat="34.307746882934104" lon="8.091663650900163"><ele>45.0</ele><time>2026-04-08T08:19:41.999Z</time></trkpt><trkpt lat="34.30775814379492" lon="8.091858070010042"><ele>45.0</ele><time>2026-04-08T08:19:42.999Z</time></trkpt><trkpt lat="34.307769505775596" lon="8.09204369147074"><ele>45.0</ele><time>2026-04-08T08:19:43.999Z</time></trkpt><trkpt lat="34.307783543880404" lon="8.092228997424778"><ele>45.0</ele><time>2026-04-08T08:19:44.999Z</time></trkpt><trkpt lat="34.30779794116839" lon="8.092410508299944"><ele>45.0</ele><time>2026-04-08T08:19:45.999Z</time></trkpt><trkpt lat="34.307813568845106" lon="8.092600308535678"><ele>45.0</ele><time>2026-04-08T08:19:47Z</time></trkpt><trkpt lat="34.3078325896969" lon="8.09278988412642"><ele>44.666666666666664</ele><time>2026-04-08T08:19:48Z</time></trkpt><trkpt lat="34.30784857733686" lon="8.092985804718198"><ele>44.33333333333333</ele><time>2026-04-08T08:19:49Z</time></trkpt><trkpt lat="34.30785759095822" lon="8.093187512530124"><ele>44.0</ele><time>2026-04-08T08:19:50Z</time></trkpt><trkpt lat="34.30787556647299" lon="8.093380656756374"><ele>43.33333333333333</ele><time>2026-04-08T08:19:51Z</time></trkpt><trkpt lat="34.30789130499176" lon="8.09358097023637"><ele>42.666666666666664</ele><time>2026-04-08T08:19:52Z</time></trkpt><trkpt lat="34.3079068424226" lon="8.09378869021448"><ele>42.0</ele><time>2026-04-08T08:19:53Z</time></trkpt><trkpt lat="34.307923703992344" lon="8.093996504598644"><ele>42.333333333333336</ele><time>2026-04-08T08:19:54Z</time></trkpt><trkpt lat="34.30794189380507" lon="8.09420001336213"><ele>42.66666666666667</ele><time>2026-04-08T08:19:55Z</time></trkpt><trkpt lat="34.30795709688685" lon="8.094411028455967"><ele>43.0</ele><time>2026-04-08T08:19:56Z</time></trkpt><trkpt lat="34.30797628299803" lon="8.094619894568162"><ele>43.0</ele><time>2026-04-08T08:19:57Z</time></trkpt><trkpt lat="34.30799168519769" lon="8.094821321710759"><ele>43.0</ele><time>2026-04-08T08:19:58Z</time></trkpt><trkpt lat="34.30800158971038" lon="8.095008862126772"><ele>43.0</ele><time>2026-04-08T08:19:59Z</time></trkpt><trkpt lat="34.308014693273236" lon="8.095191350129854"><ele>44.0</ele><time>2026-04-08T08:20:00Z</time></trkpt><trkpt lat="34.30802832924096" lon="8.095379023141327"><ele>45.0</ele><time>2026-04-08T08:20:01Z</time></trkpt><trkpt lat="34.308040683044325" lon="8.095567778352704"><ele>46.0</ele><time>2026-04-08T08:20:02Z</time></trkpt><trkpt lat="34.30805622168733" lon="8.095754956660883"><ele>46.0</ele><time>2026-04-08T08:20:03Z</time></trkpt><trkpt lat="34.308071981945126" lon="8.095942202889404"><ele>46.0</ele><time>2026-04-08T08:20:04Z</time></trkpt><trkpt lat="34.30808406307772" lon="8.096137198397033"><ele>46.0</ele><time>2026-04-08T08:20:05Z</time></trkpt><trkpt lat="34.3080971925676" lon="8.096322912517719"><ele>46.0</ele><time>2026-04-08T08:20:06Z</time></trkpt><trkpt lat="34.30811438578984" lon="8.096509663913428"><ele>46.0</ele><time>2026-04-08T08:20:07Z</time></trkpt><trkpt lat="34.30812997013778" lon="8.096704315052266"><ele>46.0</ele><time>2026-04-08T08:20:08Z</time></trkpt><trkpt lat="34.30814418757676" lon="8.096901876214112"><ele>46.0</ele><time>2026-04-08T08:20:09Z</time></trkpt><trkpt lat="34.30815763392882" lon="8.0970818743627"><ele>46.0</ele><time>2026-04-08T08:20:10Z</time></trkpt><trkpt lat="34.308171141551156" lon="8.097249901741296"><ele>46.0</ele><time>2026-04-08T08:20:11Z</time></trkpt><trkpt lat="34.30818522390965" lon="8.097420273198207"><ele>46.0</ele><time>2026-04-08T08:20:12Z</time></trkpt><trkpt lat="34.30819874238337" lon="8.097609554403641"><ele>46.0</ele><time>2026-04-08T08:20:13Z</time></trkpt><trkpt lat="34.308209117669485" lon="8.097807388845608"><ele>46.0</ele><time>2026-04-08T08:20:14Z</time></trkpt><trkpt lat="34.30822580480127" lon="8.098006147206078"><ele>46.0</ele><time>2026-04-08T08:20:15Z</time></trkpt><trkpt lat="34.3082391765275" lon="8.098205035992613"><ele>46.333333333333336</ele><time>2026-04-08T08:20:16Z</time></trkpt><trkpt lat="34.30825193880721" lon="8.098401045173485"><ele>46.666666666666664</ele><time>2026-04-08T08:20:17Z</time></trkpt><trkpt lat="34.308265994919054" lon="8.098596226379938"><ele>47.0</ele><time>2026-04-08T08:20:18Z</time></trkpt><trkpt lat="34.30827861310981" lon="8.098790166642623"><ele>47.0</ele><time>2026-04-08T08:20:19Z</time></trkpt><trkpt lat="34.308285659814665" lon="8.098981960163941"><ele>47.0</ele><time>2026-04-08T08:20:20Z</time></trkpt><trkpt lat="34.30829411529604" lon="8.099179583568924"><ele>47.0</ele><time>2026-04-08T08:20:21Z</time></trkpt><trkpt lat="34.30830457870182" lon="8.099366762376757"><ele>47.33333333333333</ele><time>2026-04-08T08:20:22Z</time></trkpt><trkpt lat="34.30832008172606" lon="8.099560094691775"><ele>47.666666666666664</ele><time>2026-04-08T08:20:23Z</time></trkpt><trkpt lat="34.30833288551988" lon="8.099746063330834"><ele>48.0</ele><time>2026-04-08T08:20:24Z</time></trkpt><trkpt lat="34.308343887304716" lon="8.099932614335554"><ele>48.0</ele><time>2026-04-08T08:20:25Z</time></trkpt><trkpt lat="34.30835558544266" lon="8.100118409159954"><ele>48.0</ele><time>2026-04-08T08:20:26Z</time></trkpt><trkpt lat="34.30836772807001" lon="8.100307110693079"><ele>48.0</ele><time>2026-04-08T08:20:27Z</time></trkpt><trkpt lat="34.30837891695868" lon="8.100498764337619"><ele>48.0</ele><time>2026-04-08T08:20:28Z</time></trkpt><trkpt lat="34.308389770936174" lon="8.10069463995359"><ele>48.0</ele><time>2026-04-08T08:20:29Z</time></trkpt><trkpt lat="34.308400608627736" lon="8.100886585807634"><ele>48.0</ele><time>2026-04-08T08:20:30Z</time></trkpt><trkpt lat="34.30841317613963" lon="8.10108716980328"><ele>48.66666666666667</ele><time>2026-04-08T08:20:31Z</time></trkpt><trkpt lat="34.308423301322435" lon="8.101284177923535"><ele>49.333333333333336</ele><time>2026-04-08T08:20:32Z</time></trkpt><trkpt lat="34.30843322716161" lon="8.101473696496619"><ele>50.0</ele><time>2026-04-08T08:20:33Z</time></trkpt><trkpt lat="34.308444077946106" lon="8.101663684687718"><ele>50.0</ele><time>2026-04-08T08:20:34Z</time></trkpt><trkpt lat="34.30845546478623" lon="8.101851720567055"><ele>50.0</ele><time>2026-04-08T08:20:35Z</time></trkpt><trkpt lat="34.30846487083408" lon="8.102039431913155"><ele>50.0</ele><time>2026-04-08T08:20:36Z</time></trkpt><trkpt lat="34.30847605049149" lon="8.102224858045902"><ele>50.66666666666667</ele><time>2026-04-08T08:20:37Z</time></trkpt><trkpt lat="34.30848581323078" lon="8.102417455010624"><ele>51.33333333333333</ele><time>2026-04-08T08:20:38Z</time></trkpt><trkpt lat="34.30849374620108" lon="8.102602991737836"><ele>52.0</ele><time>2026-04-08T08:20:39Z</time></trkpt><trkpt lat="34.30850608986818" lon="8.10279368701466"><ele>52.0</ele><time>2026-04-08T08:20:40Z</time></trkpt><trkpt lat="34.308517208566414" lon="8.102975684598933"><ele>52.0</ele><time>2026-04-08T08:20:41Z</time></trkpt><trkpt lat="34.30852455579239" lon="8.103159261755604"><ele>52.0</ele><time>2026-04-08T08:20:42Z</time></trkpt><trkpt lat="34.30853075210094" lon="8.103348948789902"><ele>52.0</ele><time>2026-04-08T08:20:43Z</time></trkpt><trkpt lat="34.3085422231596" lon="8.103526152124834"><ele>52.0</ele><time>2026-04-08T08:20:44Z</time></trkpt><trkpt lat="34.30855337135682" lon="8.103688623081565"><ele>52.0</ele><time>2026-04-08T08:20:45Z</time></trkpt><trkpt lat="34.3085594397701" lon="8.10384378106368"><ele>52.0</ele><time>2026-04-08T08:20:46Z</time></trkpt><trkpt lat="34.30856667987564" lon="8.103986218504524"><ele>51.6</ele><time>2026-04-08T08:20:47Z</time></trkpt><trkpt lat="34.308575702389525" lon="8.10412325689783"><ele>51.2</ele><time>2026-04-08T08:20:48Z</time></trkpt><trkpt lat="34.30858421694323" lon="8.10425317594137"><ele>50.8</ele><time>2026-04-08T08:20:49Z</time></trkpt><trkpt lat="34.30859113592331" lon="8.104385140449018"><ele>50.4</ele><time>2026-04-08T08:20:50Z</time></trkpt><trkpt lat="34.30860166094301" lon="8.104514806478518"><ele>50.0</ele><time>2026-04-08T08:20:51Z</time></trkpt><trkpt lat="34.308613456640465" lon="8.104646416863403"><ele>50.0</ele><time>2026-04-08T08:20:52Z</time></trkpt><trkpt lat="34.308625259626" lon="8.104779447560286"><ele>50.0</ele><time>2026-04-08T08:20:53Z</time></trkpt><trkpt lat="34.30864050135595" lon="8.104911555314095"><ele>50.0</ele><time>2026-04-08T08:20:54Z</time></trkpt><trkpt lat="34.30865339672294" lon="8.105046419921662"><ele>50.0</ele><time>2026-04-08T08:20:55Z</time></trkpt><trkpt lat="34.308661878153785" lon="8.105178453968259"><ele>50.0</ele><time>2026-04-08T08:20:56Z</time></trkpt><trkpt lat="34.30866869786936" lon="8.105295415880263"><ele>50.2</ele><time>2026-04-08T08:20:57Z</time></trkpt><trkpt lat="34.3086757418527" lon="8.105408213752426"><ele>50.4</ele><time>2026-04-08T08:20:58Z</time></trkpt><trkpt lat="34.308678230120336" lon="8.10553260498958"><ele>50.599999999999994</ele><time>2026-04-08T08:20:59Z</time></trkpt><trkpt lat="34.30867807774785" lon="8.10565859754761"><ele>50.8</ele><time>2026-04-08T08:21:00Z</time></trkpt><trkpt lat="34.30868367761921" lon="8.105787048050727"><ele>51.0</ele><time>2026-04-08T08:21:01Z</time></trkpt><trkpt lat="34.3086936577523" lon="8.105915831814333"><ele>51.5</ele><time>2026-04-08T08:21:02Z</time></trkpt><trkpt lat="34.308702937931535" lon="8.106048467469481"><ele>52.0</ele><time>2026-04-08T08:21:03Z</time></trkpt><trkpt lat="34.30871977795615" lon="8.106188619379981"><ele>52.5</ele><time>2026-04-08T08:21:04Z</time></trkpt><trkpt lat="34.30874150216015" lon="8.106333365836145"><ele>53.0</ele><time>2026-04-08T08:21:05Z</time></trkpt><trkpt lat="34.30876054697293" lon="8.106490245814209"><ele>53.0</ele><time>2026-04-08T08:21:06Z</time></trkpt><trkpt lat="34.308765994283156" lon="8.106660692860716"><ele>53.0</ele><time>2026-04-08T08:21:07Z</time></trkpt><trkpt lat="34.30876090468627" lon="8.10684744251312"><ele>53.0</ele><time>2026-04-08T08:21:08Z</time></trkpt><trkpt lat="34.30876341062484" lon="8.107051769253546"><ele>53.0</ele><time>2026-04-08T08:21:09Z</time></trkpt><trkpt lat="34.30877631519431" lon="8.107295200538202"><ele>53.0</ele><time>2026-04-08T08:21:10Z</time></trkpt><trkpt lat="34.308776295852226" lon="8.107523222279218"><ele>53.0</ele><time>2026-04-08T08:21:11Z</time></trkpt><trkpt lat="34.30878039245135" lon="8.107710078047198"><ele>53.0</ele><time>2026-04-08T08:21:12Z</time></trkpt><trkpt lat="34.30879134644883" lon="8.107861116379896"><ele>53.0</ele><time>2026-04-08T08:21:13Z</time></trkpt><trkpt lat="34.30879968493406" lon="8.107996801371263"><ele>53.0</ele><time>2026-04-08T08:21:14Z</time></trkpt><trkpt lat="34.308809132236014" lon="8.108117270736285"><ele>53.0</ele><time>2026-04-08T08:21:15Z</time></trkpt><trkpt lat="34.3088161574934" lon="8.108200621201687"><ele>53.0</ele><time>2026-04-08T08:21:16Z</time></trkpt><trkpt lat="34.30882843685683" lon="8.108309581589012"><ele>53.0</ele><time>2026-04-08T08:21:17.999Z</time></trkpt><trkpt lat="34.308841712767645" lon="8.108384498910178"><ele>53.0</ele><time>2026-04-08T08:21:21.999Z</time></trkpt><trkpt lat="34.30884884702383" lon="8.108471160653297"><ele>53.0</ele><time>2026-04-08T08:22:37Z</time></trkpt><trkpt lat="34.30885965294816" lon="8.108560873925187"><ele>53.0</ele><time>2026-04-08T08:22:38Z</time></trkpt><trkpt lat="34.30886808297904" lon="8.108716349425173"><ele>53.0</ele><time>2026-04-08T08:22:39Z</time></trkpt><trkpt lat="34.30887418392374" lon="8.108878895375058"><ele>53.0</ele><time>2026-04-08T08:22:40Z</time></trkpt><trkpt lat="34.30887926120473" lon="8.10907113013612"><ele>53.0</ele><time>2026-04-08T08:22:41Z</time></trkpt><trkpt lat="34.308889821887135" lon="8.109324495261294"><ele>53.0</ele><time>2026-04-08T08:22:42Z</time></trkpt><trkpt lat="34.308907102525644" lon="8.109606103104193"><ele>52.5</ele><time>2026-04-08T08:22:43Z</time></trkpt><trkpt lat="34.308929933761725" lon="8.109888028934838"><ele>52.0</ele><time>2026-04-08T08:22:44Z</time></trkpt><trkpt lat="34.30896046422462" lon="8.110153786931637"><ele>51.5</ele><time>2026-04-08T08:22:45Z</time></trkpt><trkpt lat="34.30900857264504" lon="8.110421226062664"><ele>51.0</ele><time>2026-04-08T08:22:46Z</time></trkpt><trkpt lat="34.30907756087585" lon="8.110729156708327"><ele>50.5</ele><time>2026-04-08T08:22:47Z</time></trkpt><trkpt lat="34.309144716509614" lon="8.111019762075342"><ele>50.0</ele><time>2026-04-08T08:22:48Z</time></trkpt><trkpt lat="34.309202707146554" lon="8.111287969083138"><ele>50.0</ele><time>2026-04-08T08:22:49Z</time></trkpt><trkpt lat="34.30925307763792" lon="8.111532634104803"><ele>50.0</ele><time>2026-04-08T08:22:50Z</time></trkpt><trkpt lat="34.30930369229704" lon="8.11177883293991"><ele>50.0</ele><time>2026-04-08T08:22:51Z</time></trkpt><trkpt lat="34.30934201449499" lon="8.112011447678414"><ele>50.333333333333336</ele><time>2026-04-08T08:22:52Z</time></trkpt><trkpt lat="34.30936788307951" lon="8.1122448050657"><ele>50.66666666666667</ele><time>2026-04-08T08:22:53Z</time></trkpt><trkpt lat="34.309398390254096" lon="8.11249096716886"><ele>51.0</ele><time>2026-04-08T08:22:54Z</time></trkpt><trkpt lat="34.30943243748676" lon="8.11275079380914"><ele>51.33333333333333</ele><time>2026-04-08T08:22:55Z</time></trkpt><trkpt lat="34.30945820780488" lon="8.113011542134938"><ele>51.666666666666664</ele><time>2026-04-08T08:22:56Z</time></trkpt><trkpt lat="34.309479227577576" lon="8.113257398410274"><ele>52.0</ele><time>2026-04-08T08:22:57Z</time></trkpt><trkpt lat="34.30950164157176" lon="8.113502197408431"><ele>52.0</ele><time>2026-04-08T08:22:58Z</time></trkpt><trkpt lat="34.309524084395385" lon="8.113743045465798"><ele>52.0</ele><time>2026-04-08T08:22:59Z</time></trkpt><trkpt lat="34.3095437515378" lon="8.113969927417818"><ele>52.0</ele><time>2026-04-08T08:23:00Z</time></trkpt><trkpt lat="34.30956223262962" lon="8.1141704702427"><ele>52.0</ele><time>2026-04-08T08:23:01Z</time></trkpt><trkpt lat="34.30958662947836" lon="8.114372869072676"><ele>52.0</ele><time>2026-04-08T08:23:02Z</time></trkpt><trkpt lat="34.30961457246738" lon="8.114587888204985"><ele>52.0</ele><time>2026-04-08T08:23:03Z</time></trkpt><trkpt lat="34.30963071558472" lon="8.114781866994296"><ele>52.0</ele><time>2026-04-08T08:23:04Z</time></trkpt><trkpt lat="34.30964626416156" lon="8.114966260015764"><ele>52.0</ele><time>2026-04-08T08:23:05Z</time></trkpt><trkpt lat="34.30966410281535" lon="8.115153691678815"><ele>52.0</ele><time>2026-04-08T08:23:06Z</time></trkpt><trkpt lat="34.30968656317282" lon="8.115355575798961"><ele>52.0</ele><time>2026-04-08T08:23:07Z</time></trkpt><trkpt lat="34.30971588369695" lon="8.115563264216096"><ele>52.0</ele><time>2026-04-08T08:23:08Z</time></trkpt><trkpt lat="34.30975007924694" lon="8.115799885856564"><ele>52.0</ele><time>2026-04-08T08:23:09Z</time></trkpt><trkpt lat="34.309785394767765" lon="8.116015104869993"><ele>52.33333333333333</ele><time>2026-04-08T08:23:10Z</time></trkpt><trkpt lat="34.30983509071179" lon="8.116234383814621"><ele>52.66666666666667</ele><time>2026-04-08T08:23:11Z</time></trkpt><trkpt lat="34.30989543277367" lon="8.116456976928065"><ele>53.0</ele><time>2026-04-08T08:23:11.999Z</time></trkpt><trkpt lat="34.309973238927455" lon="8.116684307890901"><ele>53.5</ele><time>2026-04-08T08:23:12.999Z</time></trkpt><trkpt lat="34.310064360022224" lon="8.116939029235182"><ele>54.0</ele><time>2026-04-08T08:23:13.999Z</time></trkpt><trkpt lat="34.31016634622549" lon="8.117196196342846"><ele>53.5</ele><time>2026-04-08T08:23:14.999Z</time></trkpt><trkpt lat="34.31027086518818" lon="8.117455765312968"><ele>53.0</ele><time>2026-04-08T08:23:15.999Z</time></trkpt><trkpt lat="34.310365520286524" lon="8.117711521857665"><ele>53.0</ele><time>2026-04-08T08:23:16.999Z</time></trkpt><trkpt lat="34.31045387828984" lon="8.1179667150109"><ele>53.0</ele><time>2026-04-08T08:23:17.999Z</time></trkpt><trkpt lat="34.31051907619214" lon="8.118191569441159"><ele>53.0</ele><time>2026-04-08T08:23:18.999Z</time></trkpt><trkpt lat="34.31056826492257" lon="8.118393334844727"><ele>53.0</ele><time>2026-04-08T08:23:19.999Z</time></trkpt><trkpt lat="34.31061351902202" lon="8.118596442204138"><ele>53.0</ele><time>2026-04-08T08:23:20.999Z</time></trkpt><trkpt lat="34.31065065751956" lon="8.118828587134596"><ele>53.0</ele><time>2026-04-08T08:23:21.999Z</time></trkpt><trkpt lat="34.31067098313437" lon="8.119053888289832"><ele>52.333333333333336</ele><time>2026-04-08T08:23:22.999Z</time></trkpt><trkpt lat="34.31068613554008" lon="8.11926136558795"><ele>51.66666666666667</ele><time>2026-04-08T08:23:23.999Z</time></trkpt><trkpt lat="34.31069856120583" lon="8.119470381854626"><ele>51.0</ele><time>2026-04-08T08:23:24.999Z</time></trkpt><trkpt lat="34.310701927998245" lon="8.1196908304409"><ele>51.66666666666667</ele><time>2026-04-08T08:23:25.999Z</time></trkpt><trkpt lat="34.31069456036891" lon="8.119906678079403"><ele>52.333333333333336</ele><time>2026-04-08T08:23:26.999Z</time></trkpt><trkpt lat="34.310682311921305" lon="8.120133607092209"><ele>53.0</ele><time>2026-04-08T08:23:27.999Z</time></trkpt><trkpt lat="34.31065899183741" lon="8.120344777670477"><ele>53.0</ele><time>2026-04-08T08:23:28.999Z</time></trkpt><trkpt lat="34.31062705314949" lon="8.120564391886894"><ele>53.0</ele><time>2026-04-08T08:23:29.999Z</time></trkpt><trkpt lat="34.31058258021594" lon="8.120780724124991"><ele>53.0</ele><time>2026-04-08T08:23:30.999Z</time></trkpt><trkpt lat="34.31053960306517" lon="8.121004762895456"><ele>53.333333333333336</ele><time>2026-04-08T08:23:31.999Z</time></trkpt><trkpt lat="34.310490574746034" lon="8.121218192085708"><ele>53.66666666666667</ele><time>2026-04-08T08:23:32.999Z</time></trkpt><trkpt lat="34.31044265444351" lon="8.121425779019425"><ele>54.0</ele><time>2026-04-08T08:23:33.999Z</time></trkpt><trkpt lat="34.31040120906211" lon="8.12162664341949"><ele>54.0</ele><time>2026-04-08T08:23:34.999Z</time></trkpt><trkpt lat="34.31034581824438" lon="8.121838083221126"><ele>54.0</ele><time>2026-04-08T08:23:35.999Z</time></trkpt><trkpt lat="34.31029865279243" lon="8.122043256519499"><ele>54.0</ele><time>2026-04-08T08:23:36.999Z</time></trkpt><trkpt lat="34.31025463382726" lon="8.122261075300083"><ele>54.66666666666667</ele><time>2026-04-08T08:23:37.999Z</time></trkpt><trkpt lat="34.31021635326302" lon="8.122477937053135"><ele>55.333333333333336</ele><time>2026-04-08T08:23:38.999Z</time></trkpt><trkpt lat="34.3101805637644" lon="8.122686108133486"><ele>56.0</ele><time>2026-04-08T08:23:39.999Z</time></trkpt><trkpt lat="34.31015073847286" lon="8.122900692827843"><ele>56.0</ele><time>2026-04-08T08:23:40.999Z</time></trkpt><trkpt lat="34.310124795016925" lon="8.123102038006206"><ele>56.0</ele><time>2026-04-08T08:23:41.999Z</time></trkpt><trkpt lat="34.31009785882023" lon="8.123305855941467"><ele>56.0</ele><time>2026-04-08T08:23:42.999Z</time></trkpt><trkpt lat="34.31007048146635" lon="8.123507387968221"><ele>56.333333333333336</ele><time>2026-04-08T08:23:43.999Z</time></trkpt><trkpt lat="34.31003804047317" lon="8.123709432775739"><ele>56.66666666666667</ele><time>2026-04-08T08:23:44.999Z</time></trkpt><trkpt lat="34.31000786977815" lon="8.123915469683588"><ele>57.0</ele><time>2026-04-08T08:23:45.999Z</time></trkpt><trkpt lat="34.30998470575494" lon="8.124119616141641"><ele>56.33333333333333</ele><time>2026-04-08T08:23:46.999Z</time></trkpt><trkpt lat="34.309956346057305" lon="8.124331217135163"><ele>55.666666666666664</ele><time>2026-04-08T08:23:47.999Z</time></trkpt><trkpt lat="34.30992461525665" lon="8.124531996918241"><ele>55.0</ele><time>2026-04-08T08:23:48.999Z</time></trkpt><trkpt lat="34.30989360661668" lon="8.12474469749249"><ele>55.0</ele><time>2026-04-08T08:23:49.999Z</time></trkpt><trkpt lat="34.309862994782705" lon="8.124952388211362"><ele>55.0</ele><time>2026-04-08T08:23:50.999Z</time></trkpt><trkpt lat="34.30983423374709" lon="8.125160269808703"><ele>55.0</ele><time>2026-04-08T08:23:51.999Z</time></trkpt><trkpt lat="34.309802947926464" lon="8.1253747922141"><ele>55.0</ele><time>2026-04-08T08:23:52.999Z</time></trkpt><trkpt lat="34.30977403308023" lon="8.125589175815783"><ele>55.0</ele><time>2026-04-08T08:23:53.999Z</time></trkpt><trkpt lat="34.30975174039158" lon="8.125800127196339"><ele>55.0</ele><time>2026-04-08T08:23:54.999Z</time></trkpt><trkpt lat="34.309733899898795" lon="8.126010396445022"><ele>55.0</ele><time>2026-04-08T08:23:55.999Z</time></trkpt><trkpt lat="34.30971706919663" lon="8.126221284936438"><ele>55.0</ele><time>2026-04-08T08:23:56.999Z</time></trkpt><trkpt lat="34.30970211477545" lon="8.126423116654314"><ele>55.0</ele><time>2026-04-08T08:23:57.999Z</time></trkpt><trkpt lat="34.30968769395398" lon="8.126637688592774"><ele>55.0</ele><time>2026-04-08T08:23:59Z</time></trkpt><trkpt lat="34.309670954068125" lon="8.12684519661143"><ele>55.0</ele><time>2026-04-08T08:24:00Z</time></trkpt><trkpt lat="34.30964669496454" lon="8.127058147484918"><ele>55.0</ele><time>2026-04-08T08:24:01Z</time></trkpt><trkpt lat="34.309625516925294" lon="8.127279542498231"><ele>55.0</ele><time>2026-04-08T08:24:02Z</time></trkpt><trkpt lat="34.309610595435956" lon="8.12748458408303"><ele>55.0</ele><time>2026-04-08T08:24:03Z</time></trkpt><trkpt lat="34.30959558871717" lon="8.127670694018772"><ele>55.0</ele><time>2026-04-08T08:24:04Z</time></trkpt><trkpt lat="34.309581011466456" lon="8.127840175098656"><ele>55.0</ele><time>2026-04-08T08:24:05Z</time></trkpt><trkpt lat="34.309564415731394" lon="8.12800964340763"><ele>55.0</ele><time>2026-04-08T08:24:06Z</time></trkpt><trkpt lat="34.30954819570634" lon="8.128190219071012"><ele>55.0</ele><time>2026-04-08T08:24:07Z</time></trkpt><trkpt lat="34.30953422280657" lon="8.12839550974935"><ele>55.0</ele><time>2026-04-08T08:24:08Z</time></trkpt><trkpt lat="34.309526685220376" lon="8.128617579168017"><ele>55.0</ele><time>2026-04-08T08:24:09Z</time></trkpt><trkpt lat="34.30952119729709" lon="8.128835443184586"><ele>55.0</ele><time>2026-04-08T08:24:10Z</time></trkpt><trkpt lat="34.30951430319734" lon="8.129046994583355"><ele>55.666666666666664</ele><time>2026-04-08T08:24:11Z</time></trkpt><trkpt lat="34.309514693434885" lon="8.129262425766314"><ele>56.33333333333333</ele><time>2026-04-08T08:24:12Z</time></trkpt><trkpt lat="34.30950882794442" lon="8.129471647871345"><ele>57.0</ele><time>2026-04-08T08:24:13Z</time></trkpt><trkpt lat="34.309503769705394" lon="8.129695773898618"><ele>57.33333333333333</ele><time>2026-04-08T08:24:14Z</time></trkpt><trkpt lat="34.309501436624224" lon="8.129909975469854"><ele>57.666666666666664</ele><time>2026-04-08T08:24:15Z</time></trkpt><trkpt lat="34.30949659082111" lon="8.130124715840255"><ele>58.0</ele><time>2026-04-08T08:24:16Z</time></trkpt><trkpt lat="34.309489383746886" lon="8.130332269790078"><ele>58.0</ele><time>2026-04-08T08:24:17Z</time></trkpt><trkpt lat="34.30947803120699" lon="8.130531604318888"><ele>58.0</ele><time>2026-04-08T08:24:18Z</time></trkpt><trkpt lat="34.30946845232515" lon="8.130728149540392"><ele>58.0</ele><time>2026-04-08T08:24:19Z</time></trkpt><trkpt lat="34.30946031323239" lon="8.130918799974891"><ele>58.0</ele><time>2026-04-08T08:24:20Z</time></trkpt><trkpt lat="34.309454600382786" lon="8.131090082825766"><ele>58.0</ele><time>2026-04-08T08:24:21Z</time></trkpt><trkpt lat="34.30945082786484" lon="8.131259965586086"><ele>58.0</ele><time>2026-04-08T08:24:22Z</time></trkpt><trkpt lat="34.30944708170013" lon="8.13143111164606"><ele>58.0</ele><time>2026-04-08T08:24:23Z</time></trkpt><trkpt lat="34.30944570526045" lon="8.131592520243705"><ele>58.0</ele><time>2026-04-08T08:24:24Z</time></trkpt><trkpt lat="34.3094444615025" lon="8.131739531861571"><ele>58.0</ele><time>2026-04-08T08:24:25Z</time></trkpt><trkpt lat="34.30944356323703" lon="8.131876792259616"><ele>58.0</ele><time>2026-04-08T08:24:26Z</time></trkpt><trkpt lat="34.30943810272726" lon="8.132008234288218"><ele>58.0</ele><time>2026-04-08T08:24:27Z</time></trkpt><trkpt lat="34.30943156443402" lon="8.132131174356031"><ele>58.0</ele><time>2026-04-08T08:24:28Z</time></trkpt><trkpt lat="34.30942654127064" lon="8.132244375024724"><ele>57.99999999999999</ele><time>2026-04-08T08:24:29Z</time></trkpt><trkpt lat="34.30941158925654" lon="8.132348972751622"><ele>58.0</ele><time>2026-04-08T08:24:30Z</time></trkpt><trkpt lat="34.30938830234497" lon="8.132436154816501"><ele>58.0</ele><time>2026-04-08T08:24:31Z</time></trkpt><trkpt lat="34.30935529401943" lon="8.132516010810306"><ele>58.0</ele><time>2026-04-08T08:24:32Z</time></trkpt><trkpt lat="34.30930296671538" lon="8.132587072098904"><ele>57.99999999999999</ele><time>2026-04-08T08:24:33Z</time></trkpt><trkpt lat="34.30923936417925" lon="8.13263842845037"><ele>58.0</ele><time>2026-04-08T08:24:34Z</time></trkpt><trkpt lat="34.30916624786789" lon="8.132679130105316"><ele>58.4</ele><time>2026-04-08T08:24:35Z</time></trkpt><trkpt lat="34.30907489933938" lon="8.132746215465447"><ele>58.8</ele><time>2026-04-08T08:24:37Z</time></trkpt><trkpt lat="34.309054486165905" lon="8.132873830276692"><ele>59.2</ele><time>2026-04-08T08:24:39Z</time></trkpt><trkpt lat="34.30905607965543" lon="8.132979777755814"><ele>59.6</ele><time>2026-04-08T08:24:40Z</time></trkpt><trkpt lat="34.30906641315151" lon="8.133099446453365"><ele>60.0</ele><time>2026-04-08T08:24:41Z</time></trkpt><trkpt lat="34.30907319996001" lon="8.1332339830334"><ele>60.0</ele><time>2026-04-08T08:24:42Z</time></trkpt><trkpt lat="34.30907465224121" lon="8.133382993826961"><ele>60.0</ele><time>2026-04-08T08:24:43Z</time></trkpt><trkpt lat="34.30907705309402" lon="8.1335508731065"><ele>60.0</ele><time>2026-04-08T08:24:44Z</time></trkpt><trkpt lat="34.3090835163741" lon="8.133734954573884"><ele>60.0</ele><time>2026-04-08T08:24:45Z</time></trkpt><trkpt lat="34.309090522309035" lon="8.133934038150676"><ele>60.0</ele><time>2026-04-08T08:24:46Z</time></trkpt><trkpt lat="34.30909449966162" lon="8.134138669525266"><ele>60.0</ele><time>2026-04-08T08:24:47Z</time></trkpt><trkpt lat="34.30910096158444" lon="8.134341596080173"><ele>60.0</ele><time>2026-04-08T08:24:48Z</time></trkpt><trkpt lat="34.30910727397812" lon="8.134549541971728"><ele>60.0</ele><time>2026-04-08T08:24:49Z</time></trkpt><trkpt lat="34.30910973721528" lon="8.134744551205369"><ele>60.0</ele><time>2026-04-08T08:24:50Z</time></trkpt><trkpt lat="34.30911091106303" lon="8.134924967566153"><ele>60.0</ele><time>2026-04-08T08:24:51Z</time></trkpt><trkpt lat="34.30911259743851" lon="8.135093252033963"><ele>60.0</ele><time>2026-04-08T08:24:52Z</time></trkpt><trkpt lat="34.30911410148648" lon="8.13526410187099"><ele>60.5</ele><time>2026-04-08T08:24:53Z</time></trkpt><trkpt lat="34.30911228878178" lon="8.13543977149151"><ele>61.0</ele><time>2026-04-08T08:24:54Z</time></trkpt><trkpt lat="34.30911176972828" lon="8.135612483055562"><ele>61.5</ele><time>2026-04-08T08:24:55Z</time></trkpt><trkpt lat="34.30911074866275" lon="8.135784335500686"><ele>62.0</ele><time>2026-04-08T08:24:56Z</time></trkpt><trkpt lat="34.30911072073419" lon="8.135952553002705"><ele>62.25</ele><time>2026-04-08T08:24:57Z</time></trkpt><trkpt lat="34.309112744860506" lon="8.136116090780785"><ele>62.5</ele><time>2026-04-08T08:24:58Z</time></trkpt><trkpt lat="34.30911520956947" lon="8.136284706217877"><ele>62.75</ele><time>2026-04-08T08:24:59Z</time></trkpt><trkpt lat="34.30911743825552" lon="8.136444517853391"><ele>63.0</ele><time>2026-04-08T08:25:00Z</time></trkpt><trkpt lat="34.30912304114841" lon="8.136605610613255"><ele>62.5</ele><time>2026-04-08T08:25:01Z</time></trkpt><trkpt lat="34.30912386024716" lon="8.136769894893517"><ele>62.0</ele><time>2026-04-08T08:25:02Z</time></trkpt><trkpt lat="34.30912167696624" lon="8.136927560592039"><ele>61.5</ele><time>2026-04-08T08:25:03Z</time></trkpt><trkpt lat="34.309119948336104" lon="8.137084337193544"><ele>61.0</ele><time>2026-04-08T08:25:04Z</time></trkpt><trkpt lat="34.30912340075099" lon="8.137247898204876"><ele>61.0</ele><time>2026-04-08T08:25:05Z</time></trkpt><trkpt lat="34.30913072950295" lon="8.137435073693775"><ele>61.0</ele><time>2026-04-08T08:25:06Z</time></trkpt><trkpt lat="34.30913809229378" lon="8.13762313991564"><ele>61.0</ele><time>2026-04-08T08:25:07Z</time></trkpt><trkpt lat="34.309138933882664" lon="8.137809513138947"><ele>61.0</ele><time>2026-04-08T08:25:08Z</time></trkpt><trkpt lat="34.30914002636184" lon="8.137999009876575"><ele>61.0</ele><time>2026-04-08T08:25:08.999Z</time></trkpt><trkpt lat="34.30914332660857" lon="8.138179458691829"><ele>61.0</ele><time>2026-04-08T08:25:09.999Z</time></trkpt><trkpt lat="34.309143481410715" lon="8.138368043314822"><ele>61.0</ele><time>2026-04-08T08:25:10.999Z</time></trkpt><trkpt lat="34.30914347009842" lon="8.138560618059579"><ele>61.0</ele><time>2026-04-08T08:25:11.999Z</time></trkpt><trkpt lat="34.30914047495167" lon="8.138766383981483"><ele>61.0</ele><time>2026-04-08T08:25:12.999Z</time></trkpt><trkpt lat="34.309140751108686" lon="8.138970594986798"><ele>61.33333333333333</ele><time>2026-04-08T08:25:13.999Z</time></trkpt><trkpt lat="34.3091425285798" lon="8.139188877256176"><ele>61.66666666666667</ele><time>2026-04-08T08:25:14.999Z</time></trkpt><trkpt lat="34.30914646993055" lon="8.139410960283893"><ele>62.0</ele><time>2026-04-08T08:25:15.999Z</time></trkpt><trkpt lat="34.30915309325601" lon="8.139636556914532"><ele>62.0</ele><time>2026-04-08T08:25:16.999Z</time></trkpt><trkpt lat="34.30915813339446" lon="8.139865523806849"><ele>62.0</ele><time>2026-04-08T08:25:17.999Z</time></trkpt><trkpt lat="34.30915804818402" lon="8.14010737333506"><ele>62.0</ele><time>2026-04-08T08:25:18.999Z</time></trkpt><trkpt lat="34.30915869140189" lon="8.140332501801062"><ele>62.66666666666667</ele><time>2026-04-08T08:25:19.999Z</time></trkpt><trkpt lat="34.30915725278505" lon="8.140563146079408"><ele>63.33333333333333</ele><time>2026-04-08T08:25:20.999Z</time></trkpt><trkpt lat="34.30915784355502" lon="8.140782756642981"><ele>64.0</ele><time>2026-04-08T08:25:21.999Z</time></trkpt><trkpt lat="34.309161892902345" lon="8.141004377834737"><ele>64.0</ele><time>2026-04-08T08:25:22.999Z</time></trkpt><trkpt lat="34.30917041410471" lon="8.141214014726014"><ele>64.0</ele><time>2026-04-08T08:25:23.999Z</time></trkpt><trkpt lat="34.30917498448936" lon="8.141432026118546"><ele>64.0</ele><time>2026-04-08T08:25:24.999Z</time></trkpt><trkpt lat="34.30917814004696" lon="8.141635582379909"><ele>64.66666666666666</ele><time>2026-04-08T08:25:25.999Z</time></trkpt><trkpt lat="34.3091773229935" lon="8.141835271507064"><ele>65.33333333333333</ele><time>2026-04-08T08:25:26.999Z</time></trkpt><trkpt lat="34.30917039186289" lon="8.142027272315303"><ele>66.0</ele><time>2026-04-08T08:25:27.999Z</time></trkpt><trkpt lat="34.309170907993746" lon="8.142214580272762"><ele>66.25</ele><time>2026-04-08T08:25:28.999Z</time></trkpt><trkpt lat="34.3091735464548" lon="8.142391780093122"><ele>66.5</ele><time>2026-04-08T08:25:29.999Z</time></trkpt><trkpt lat="34.309173287868276" lon="8.142569700352423"><ele>66.75</ele><time>2026-04-08T08:25:30.999Z</time></trkpt><trkpt lat="34.30917258692483" lon="8.142744648903857"><ele>67.0</ele><time>2026-04-08T08:25:31.999Z</time></trkpt><trkpt lat="34.30916964012237" lon="8.142943923181603"><ele>67.0</ele><time>2026-04-08T08:25:32.999Z</time></trkpt><trkpt lat="34.30916525795277" lon="8.143163325480815"><ele>67.0</ele><time>2026-04-08T08:25:33.999Z</time></trkpt><trkpt lat="34.30915753205287" lon="8.143397556727741"><ele>67.0</ele><time>2026-04-08T08:25:34.999Z</time></trkpt><trkpt lat="34.309145956795724" lon="8.143632009968876"><ele>67.33333333333333</ele><time>2026-04-08T08:25:35.999Z</time></trkpt><trkpt lat="34.30912872526461" lon="8.1438693888788"><ele>67.66666666666667</ele><time>2026-04-08T08:25:36.999Z</time></trkpt><trkpt lat="34.309107584843055" lon="8.144099445672436"><ele>68.0</ele><time>2026-04-08T08:25:37.999Z</time></trkpt><trkpt lat="34.30907951073012" lon="8.144316952578807"><ele>68.0</ele><time>2026-04-08T08:25:38.999Z</time></trkpt><trkpt lat="34.309052892221594" lon="8.144546614670391"><ele>68.0</ele><time>2026-04-08T08:25:39.999Z</time></trkpt><trkpt lat="34.309038820076545" lon="8.144800872253748"><ele>68.0</ele><time>2026-04-08T08:25:40.999Z</time></trkpt><trkpt lat="34.30903035267023" lon="8.145042455871426"><ele>68.0</ele><time>2026-04-08T08:25:41.999Z</time></trkpt><trkpt lat="34.30902519053481" lon="8.145286212328589"><ele>68.0</ele><time>2026-04-08T08:25:42.999Z</time></trkpt><trkpt lat="34.3090278522981" lon="8.145532155598092"><ele>68.0</ele><time>2026-04-08T08:25:43.999Z</time></trkpt><trkpt lat="34.309038898781644" lon="8.14577880764982"><ele>68.0</ele><time>2026-04-08T08:25:44.999Z</time></trkpt><trkpt lat="34.30905722666399" lon="8.146020887619427"><ele>68.0</ele><time>2026-04-08T08:25:45.999Z</time></trkpt><trkpt lat="34.30908204507035" lon="8.146262487914564"><ele>68.0</ele><time>2026-04-08T08:25:46.999Z</time></trkpt><trkpt lat="34.309105974512384" lon="8.146500244553174"><ele>68.33333333333334</ele><time>2026-04-08T08:25:47.999Z</time></trkpt><trkpt lat="34.30913075154717" lon="8.146737533274802"><ele>68.66666666666667</ele><time>2026-04-08T08:25:48.999Z</time></trkpt><trkpt lat="34.30915282605073" lon="8.146972152343446"><ele>69.0</ele><time>2026-04-08T08:25:49.999Z</time></trkpt><trkpt lat="34.3091755702136" lon="8.147206578454304"><ele>68.66666666666667</ele><time>2026-04-08T08:25:50.999Z</time></trkpt><trkpt lat="34.309200338443226" lon="8.147437080664597"><ele>68.33333333333334</ele><time>2026-04-08T08:25:51.999Z</time></trkpt><trkpt lat="34.30922202079372" lon="8.147656408044037"><ele>68.0</ele><time>2026-04-08T08:25:52.999Z</time></trkpt><trkpt lat="34.309240055244885" lon="8.147867640590844"><ele>68.0</ele><time>2026-04-08T08:25:53.999Z</time></trkpt><trkpt lat="34.309260560273614" lon="8.14806704547281"><ele>68.0</ele><time>2026-04-08T08:25:54.999Z</time></trkpt><trkpt lat="34.30927862597384" lon="8.14826821528924"><ele>68.0</ele><time>2026-04-08T08:25:55.999Z</time></trkpt><trkpt lat="34.30929390649037" lon="8.148469748331602"><ele>68.33333333333334</ele><time>2026-04-08T08:25:56.999Z</time></trkpt><trkpt lat="34.30931074710945" lon="8.148671177083509"><ele>68.66666666666667</ele><time>2026-04-08T08:25:57.999Z</time></trkpt><trkpt lat="34.30932768273555" lon="8.148866595382035"><ele>69.0</ele><time>2026-04-08T08:25:58.999Z</time></trkpt><trkpt lat="34.30934439400978" lon="8.149047320809537"><ele>69.25</ele><time>2026-04-08T08:25:59.999Z</time></trkpt><trkpt lat="34.30936311020654" lon="8.149217635370182"><ele>69.5</ele><time>2026-04-08T08:26:00.999Z</time></trkpt><trkpt lat="34.30938430571668" lon="8.149384548032781"><ele>69.75</ele><time>2026-04-08T08:26:01.999Z</time></trkpt><trkpt lat="34.30941318208516" lon="8.149549836645447"><ele>70.0</ele><time>2026-04-08T08:26:02.999Z</time></trkpt><trkpt lat="34.30944945865674" lon="8.149697766360461"><ele>70.0</ele><time>2026-04-08T08:26:03.999Z</time></trkpt><trkpt lat="34.30949026735436" lon="8.149827677800642"><ele>70.0</ele><time>2026-04-08T08:26:05Z</time></trkpt><trkpt lat="34.30953285712062" lon="8.14995033212443"><ele>70.0</ele><time>2026-04-08T08:26:06Z</time></trkpt><trkpt lat="34.309570475760054" lon="8.150053436793643"><ele>70.0</ele><time>2026-04-08T08:26:07Z</time></trkpt><trkpt lat="34.30960870680656" lon="8.150140697530567"><ele>70.0</ele><time>2026-04-08T08:26:08Z</time></trkpt><trkpt lat="34.309664376821" lon="8.150236436913527"><ele>70.2</ele><time>2026-04-08T08:26:09Z</time></trkpt><trkpt lat="34.30972525792564" lon="8.15031519431718"><ele>70.4</ele><time>2026-04-08T08:26:10Z</time></trkpt><trkpt lat="34.30980190683606" lon="8.150395523135826"><ele>70.6</ele><time>2026-04-08T08:26:11Z</time></trkpt><trkpt lat="34.30991068933953" lon="8.150476555445005"><ele>70.8</ele><time>2026-04-08T08:26:12Z</time></trkpt><trkpt lat="34.31001446128509" lon="8.150548787090171"><ele>71.0</ele><time>2026-04-08T08:26:13Z</time></trkpt><trkpt lat="34.3101308945763" lon="8.150637244085482"><ele>71.33333333333334</ele><time>2026-04-08T08:26:14Z</time></trkpt><trkpt lat="34.31027158230974" lon="8.150747328772898"><ele>71.66666666666667</ele><time>2026-04-08T08:26:15Z</time></trkpt><trkpt lat="34.31042113898567" lon="8.150876123033006"><ele>72.0</ele><time>2026-04-08T08:26:16Z</time></trkpt><trkpt lat="34.31055664910328" lon="8.150994989956148"><ele>72.0</ele><time>2026-04-08T08:26:17Z</time></trkpt><trkpt lat="34.31068192235827" lon="8.151104356573404"><ele>72.0</ele><time>2026-04-08T08:26:18Z</time></trkpt><trkpt lat="34.310807503483694" lon="8.151218269554683"><ele>72.0</ele><time>2026-04-08T08:26:19Z</time></trkpt><trkpt lat="34.310933427438464" lon="8.151339586831156"><ele>72.0</ele><time>2026-04-08T08:26:20Z</time></trkpt><trkpt lat="34.31105707994961" lon="8.151461953335014"><ele>72.0</ele><time>2026-04-08T08:26:21Z</time></trkpt><trkpt lat="34.31117828947657" lon="8.151573669072242"><ele>72.0</ele><time>2026-04-08T08:26:22Z</time></trkpt><trkpt lat="34.31130576386927" lon="8.151679860224267"><ele>72.33333333333333</ele><time>2026-04-08T08:26:23Z</time></trkpt><trkpt lat="34.311445364861314" lon="8.151778396364309"><ele>72.66666666666666</ele><time>2026-04-08T08:26:24Z</time></trkpt><trkpt lat="34.311589239368686" lon="8.151862680289993"><ele>73.0</ele><time>2026-04-08T08:26:25Z</time></trkpt><trkpt lat="34.31173222671715" lon="8.15194468367925"><ele>73.0</ele><time>2026-04-08T08:26:26Z</time></trkpt><trkpt lat="34.31188194859337" lon="8.152017872856296"><ele>73.0</ele><time>2026-04-08T08:26:27Z</time></trkpt><trkpt lat="34.312034753013926" lon="8.152099073764338"><ele>73.0</ele><time>2026-04-08T08:26:28Z</time></trkpt><trkpt lat="34.31218500523088" lon="8.152195686990027"><ele>73.33333333333333</ele><time>2026-04-08T08:26:29Z</time></trkpt><trkpt lat="34.312332176879536" lon="8.152296393291822"><ele>73.66666666666667</ele><time>2026-04-08T08:26:30Z</time></trkpt><trkpt lat="34.31247225945635" lon="8.15239532805155"><ele>74.0</ele><time>2026-04-08T08:26:31Z</time></trkpt><trkpt lat="34.31260578244105" lon="8.152492535786566"><ele>74.33333333333334</ele><time>2026-04-08T08:26:32Z</time></trkpt><trkpt lat="34.31274506557154" lon="8.152590133707625"><ele>74.66666666666667</ele><time>2026-04-08T08:26:33Z</time></trkpt><trkpt lat="34.31288732446746" lon="8.152684811071511"><ele>75.0</ele><time>2026-04-08T08:26:34Z</time></trkpt><trkpt lat="34.31303615459528" lon="8.152780484861047"><ele>75.0</ele><time>2026-04-08T08:26:35Z</time></trkpt><trkpt lat="34.313186884227925" lon="8.15286942219379"><ele>75.0</ele><time>2026-04-08T08:26:36Z</time></trkpt><trkpt lat="34.313338381729416" lon="8.152952575037398"><ele>75.0</ele><time>2026-04-08T08:26:37Z</time></trkpt><trkpt lat="34.31349071014329" lon="8.153033845212025"><ele>75.0</ele><time>2026-04-08T08:26:38Z</time></trkpt><trkpt lat="34.313649898442364" lon="8.153110825912545"><ele>75.0</ele><time>2026-04-08T08:26:39Z</time></trkpt><trkpt lat="34.31382746929709" lon="8.153182154911288"><ele>75.0</ele><time>2026-04-08T08:26:40Z</time></trkpt><trkpt lat="34.31401049104187" lon="8.153249120448223"><ele>75.33333333333333</ele><time>2026-04-08T08:26:41Z</time></trkpt><trkpt lat="34.314173828982" lon="8.15331834640204"><ele>75.66666666666666</ele><time>2026-04-08T08:26:42Z</time></trkpt><trkpt lat="34.314338995345736" lon="8.153397465726634"><ele>76.0</ele><time>2026-04-08T08:26:43Z</time></trkpt><trkpt lat="34.314514639343244" lon="8.153491357666312"><ele>76.0</ele><time>2026-04-08T08:26:44Z</time></trkpt><trkpt lat="34.31467943696176" lon="8.153589045389866"><ele>76.0</ele><time>2026-04-08T08:26:45Z</time></trkpt><trkpt lat="34.31484605665176" lon="8.15369106203166"><ele>76.0</ele><time>2026-04-08T08:26:46Z</time></trkpt><trkpt lat="34.31499650983615" lon="8.153787308588015"><ele>76.66666666666666</ele><time>2026-04-08T08:26:47Z</time></trkpt><trkpt lat="34.315143416546235" lon="8.153882857543103"><ele>77.33333333333333</ele><time>2026-04-08T08:26:48Z</time></trkpt><trkpt lat="34.3152836229479" lon="8.153971610269497"><ele>78.0</ele><time>2026-04-08T08:26:49Z</time></trkpt><trkpt lat="34.31542288809843" lon="8.154059366169331"><ele>78.0</ele><time>2026-04-08T08:26:50Z</time></trkpt><trkpt lat="34.31555831519488" lon="8.15414485224163"><ele>78.0</ele><time>2026-04-08T08:26:51Z</time></trkpt><trkpt lat="34.31569289617068" lon="8.154227516962319"><ele>78.0</ele><time>2026-04-08T08:26:52Z</time></trkpt><trkpt lat="34.315824676696224" lon="8.154307159582665"><ele>78.0</ele><time>2026-04-08T08:26:53Z</time></trkpt><trkpt lat="34.31595584371889" lon="8.154384981970422"><ele>78.0</ele><time>2026-04-08T08:26:54Z</time></trkpt><trkpt lat="34.31608824911099" lon="8.154464820669602"><ele>78.0</ele><time>2026-04-08T08:26:55Z</time></trkpt><trkpt lat="34.31622253649871" lon="8.154546758843454"><ele>78.0</ele><time>2026-04-08T08:26:56Z</time></trkpt><trkpt lat="34.316371150237735" lon="8.154634824154344"><ele>79.0</ele><time>2026-04-08T08:26:57Z</time></trkpt><trkpt lat="34.316510309771736" lon="8.154717904142153"><ele>80.0</ele><time>2026-04-08T08:26:58Z</time></trkpt><trkpt lat="34.31664127408327" lon="8.154802570622968"><ele>81.0</ele><time>2026-04-08T08:26:59Z</time></trkpt><trkpt lat="34.31677669075609" lon="8.15488758666934"><ele>81.0</ele><time>2026-04-08T08:27:00Z</time></trkpt><trkpt lat="34.31691528247655" lon="8.154980795143421"><ele>81.0</ele><time>2026-04-08T08:27:01Z</time></trkpt><trkpt lat="34.31704601514273" lon="8.155076494771754"><ele>81.0</ele><time>2026-04-08T08:27:02Z</time></trkpt><trkpt lat="34.317175697014626" lon="8.155188123303349"><ele>81.25</ele><time>2026-04-08T08:27:03Z</time></trkpt><trkpt lat="34.317300868354884" lon="8.155306073298743"><ele>81.5</ele><time>2026-04-08T08:27:04Z</time></trkpt><trkpt lat="34.317414261524355" lon="8.155415558355863"><ele>81.75</ele><time>2026-04-08T08:27:05Z</time></trkpt><trkpt lat="34.3175241580671" lon="8.155513950743885"><ele>82.0</ele><time>2026-04-08T08:27:06Z</time></trkpt><trkpt lat="34.3176316500269" lon="8.155600123381927"><ele>82.0</ele><time>2026-04-08T08:27:06.999Z</time></trkpt><trkpt lat="34.31773249372494" lon="8.155680583273785"><ele>82.0</ele><time>2026-04-08T08:27:07.999Z</time></trkpt><trkpt lat="34.31781963610451" lon="8.155759707295527"><ele>82.0</ele><time>2026-04-08T08:27:08.999Z</time></trkpt><trkpt lat="34.31789039309301" lon="8.15584407604438"><ele>82.0</ele><time>2026-04-08T08:27:09.999Z</time></trkpt><trkpt lat="34.3179532854579" lon="8.155945860635168"><ele>82.0</ele><time>2026-04-08T08:27:10.999Z</time></trkpt><trkpt lat="34.318007947540025" lon="8.156056836794429"><ele>81.75</ele><time>2026-04-08T08:27:11.999Z</time></trkpt><trkpt lat="34.318048705329616" lon="8.156189475737316"><ele>81.5</ele><time>2026-04-08T08:27:12.999Z</time></trkpt><trkpt lat="34.318077409778795" lon="8.156332983961228"><ele>81.25</ele><time>2026-04-08T08:27:13.999Z</time></trkpt><trkpt lat="34.318099555797225" lon="8.156504869265852"><ele>81.0</ele><time>2026-04-08T08:27:14.999Z</time></trkpt><trkpt lat="34.31811827195619" lon="8.156672886692618"><ele>80.5</ele><time>2026-04-08T08:27:15.999Z</time></trkpt><trkpt lat="34.31814196768098" lon="8.156823938818095"><ele>80.0</ele><time>2026-04-08T08:27:16.999Z</time></trkpt><trkpt lat="34.318179374420566" lon="8.156980481757524"><ele>79.5</ele><time>2026-04-08T08:27:17.999Z</time></trkpt><trkpt lat="34.31822707977747" lon="8.157140882627306"><ele>79.0</ele><time>2026-04-08T08:27:18.999Z</time></trkpt><trkpt lat="34.3182894158075" lon="8.15729079055462"><ele>80.0</ele><time>2026-04-08T08:27:19.999Z</time></trkpt><trkpt lat="34.318370172544455" lon="8.15746203993427"><ele>81.0</ele><time>2026-04-08T08:27:20.999Z</time></trkpt><trkpt lat="34.31844108231204" lon="8.157639615967962"><ele>82.0</ele><time>2026-04-08T08:27:21.999Z</time></trkpt><trkpt lat="34.31850585908749" lon="8.157831441005635"><ele>82.0</ele><time>2026-04-08T08:27:22.999Z</time></trkpt><trkpt lat="34.318570649004485" lon="8.158041177958804"><ele>82.0</ele><time>2026-04-08T08:27:23.999Z</time></trkpt><trkpt lat="34.31863354708359" lon="8.158262022622317"><ele>82.0</ele><time>2026-04-08T08:27:24.999Z</time></trkpt><trkpt lat="34.318689604699614" lon="8.15848038982178"><ele>81.66666666666666</ele><time>2026-04-08T08:27:25.999Z</time></trkpt><trkpt lat="34.31874094607515" lon="8.158682145815874"><ele>81.33333333333333</ele><time>2026-04-08T08:27:26.999Z</time></trkpt><trkpt lat="34.31878884686742" lon="8.158874845443032"><ele>81.0</ele><time>2026-04-08T08:27:27.999Z</time></trkpt><trkpt lat="34.31883092689751" lon="8.15905112086456"><ele>81.0</ele><time>2026-04-08T08:27:28.999Z</time></trkpt><trkpt lat="34.31886863154826" lon="8.159228771710271"><ele>81.0</ele><time>2026-04-08T08:27:29.999Z</time></trkpt><trkpt lat="34.31890950325743" lon="8.15940791397407"><ele>81.0</ele><time>2026-04-08T08:27:30.999Z</time></trkpt><trkpt lat="34.31895245354914" lon="8.159587047680295"><ele>82.0</ele><time>2026-04-08T08:27:31.999Z</time></trkpt><trkpt lat="34.318992952538494" lon="8.159770285499539"><ele>83.0</ele><time>2026-04-08T08:27:32.999Z</time></trkpt><trkpt lat="34.31903484735537" lon="8.15996190469547"><ele>84.0</ele><time>2026-04-08T08:27:33.999Z</time></trkpt><trkpt lat="34.31907814614746" lon="8.160150608543555"><ele>84.0</ele><time>2026-04-08T08:27:34.999Z</time></trkpt><trkpt lat="34.31912326432682" lon="8.160334256999175"><ele>84.0</ele><time>2026-04-08T08:27:35.999Z</time></trkpt><trkpt lat="34.319172100607254" lon="8.160512857674929"><ele>84.0</ele><time>2026-04-08T08:27:36.999Z</time></trkpt><trkpt lat="34.31922974254171" lon="8.160692493136404"><ele>85.0</ele><time>2026-04-08T08:27:37.999Z</time></trkpt><trkpt lat="34.31929971430116" lon="8.160874452397149"><ele>86.0</ele><time>2026-04-08T08:27:38.999Z</time></trkpt><trkpt lat="34.31936818257196" lon="8.161044880483425"><ele>87.0</ele><time>2026-04-08T08:27:39.999Z</time></trkpt><trkpt lat="34.31942909512018" lon="8.16121013875323"><ele>87.0</ele><time>2026-04-08T08:27:40.999Z</time></trkpt><trkpt lat="34.3194864422997" lon="8.161375684583417"><ele>87.0</ele><time>2026-04-08T08:27:41.999Z</time></trkpt><trkpt lat="34.31953694997826" lon="8.161533243467806"><ele>87.0</ele><time>2026-04-08T08:27:42.999Z</time></trkpt><trkpt lat="34.31958693167373" lon="8.161691774302913"><ele>87.0</ele><time>2026-04-08T08:27:43.999Z</time></trkpt><trkpt lat="34.31963752006869" lon="8.161851137702634"><ele>87.66666666666667</ele><time>2026-04-08T08:27:44.999Z</time></trkpt><trkpt lat="34.31969177669884" lon="8.162020859292063"><ele>88.33333333333334</ele><time>2026-04-08T08:27:45.999Z</time></trkpt><trkpt lat="34.31975270855433" lon="8.162195326139598"><ele>89.0</ele><time>2026-04-08T08:27:46.999Z</time></trkpt><trkpt lat="34.319818666739465" lon="8.162368001015714"><ele>89.5</ele><time>2026-04-08T08:27:47.999Z</time></trkpt><trkpt lat="34.31988534207442" lon="8.162534117421004"><ele>90.0</ele><time>2026-04-08T08:27:48.999Z</time></trkpt><trkpt lat="34.319947422109216" lon="8.162685540214634"><ele>90.5</ele><time>2026-04-08T08:27:49.999Z</time></trkpt><trkpt lat="34.32000955879802" lon="8.16282121026547"><ele>91.0</ele><time>2026-04-08T08:27:50.999Z</time></trkpt><trkpt lat="34.32007530400914" lon="8.1629385550509"><ele>91.0</ele><time>2026-04-08T08:27:51.999Z</time></trkpt><trkpt lat="34.320149326183525" lon="8.163051535305074"><ele>91.0</ele><time>2026-04-08T08:27:52.999Z</time></trkpt><trkpt lat="34.32023315430803" lon="8.163156440967784"><ele>91.0</ele><time>2026-04-08T08:27:53.999Z</time></trkpt><trkpt lat="34.320321722452334" lon="8.163257347237064"><ele>91.0</ele><time>2026-04-08T08:27:54.999Z</time></trkpt><trkpt lat="34.32040773995472" lon="8.163359547254274"><ele>91.19999999999999</ele><time>2026-04-08T08:27:55.999Z</time></trkpt><trkpt lat="34.32048251981612" lon="8.16346610486213"><ele>91.39999999999999</ele><time>2026-04-08T08:27:56.999Z</time></trkpt><trkpt lat="34.32054375349172" lon="8.163567340753842"><ele>91.6</ele><time>2026-04-08T08:27:57.999Z</time></trkpt><trkpt lat="34.32058885888568" lon="8.163669617184505"><ele>91.8</ele><time>2026-04-08T08:27:58.999Z</time></trkpt><trkpt lat="34.32061898405985" lon="8.163770380930888"><ele>92.0</ele><time>2026-04-08T08:27:59.999Z</time></trkpt><trkpt lat="34.32064340600043" lon="8.163888784891803"><ele>93.0</ele><time>2026-04-08T08:28:00.999Z</time></trkpt><trkpt lat="34.32066535079472" lon="8.164033760687563"><ele>94.0</ele><time>2026-04-08T08:28:01.999Z</time></trkpt><trkpt lat="34.320682971128974" lon="8.16421215340126"><ele>95.0</ele><time>2026-04-08T08:28:02.999Z</time></trkpt><trkpt lat="34.32068855938592" lon="8.164396613376601"><ele>96.0</ele><time>2026-04-08T08:28:03.999Z</time></trkpt><trkpt lat="34.32069080391498" lon="8.164598764127177"><ele>96.0</ele><time>2026-04-08T08:28:04.999Z</time></trkpt><trkpt lat="34.320690972907414" lon="8.164771142554077"><ele>96.0</ele><time>2026-04-08T08:28:05.999Z</time></trkpt><trkpt lat="34.32068751516979" lon="8.164926616211924"><ele>96.0</ele><time>2026-04-08T08:28:06.999Z</time></trkpt><trkpt lat="34.32068236672325" lon="8.165059535200582"><ele>96.0</ele><time>2026-04-08T08:28:07.999Z</time></trkpt><trkpt lat="34.32067754356327" lon="8.165165744656404"><ele>95.83333333333333</ele><time>2026-04-08T08:28:08.999Z</time></trkpt><trkpt lat="34.32067298333963" lon="8.165243225319838"><ele>95.66666666666667</ele><time>2026-04-08T08:28:09.999Z</time></trkpt><trkpt lat="34.320659142978705" lon="8.16533634735145"><ele>95.5</ele><time>2026-04-08T08:28:12Z</time></trkpt><trkpt lat="34.32065311291116" lon="8.165434291930605"><ele>95.33333333333334</ele><time>2026-04-08T08:28:35Z</time></trkpt><trkpt lat="34.32065645983761" lon="8.165561601691884"><ele>95.16666666666667</ele><time>2026-04-08T08:28:37Z</time></trkpt><trkpt lat="34.32062319052307" lon="8.165674869065997"><ele>95.0</ele><time>2026-04-08T08:28:39Z</time></trkpt><trkpt lat="34.320551442734086" lon="8.165785663757424"><ele>95.0</ele><time>2026-04-08T08:28:41Z</time></trkpt><trkpt lat="34.32051034355077" lon="8.165848059652841"><ele>95.0</ele><time>2026-04-08T08:28:42Z</time></trkpt><trkpt lat="34.32046637846017" lon="8.165924123751692"><ele>95.0</ele><time>2026-04-08T08:28:43Z</time></trkpt><trkpt lat="34.320421098356256" lon="8.165992138999083"><ele>95.0</ele><time>2026-04-08T08:28:44Z</time></trkpt><trkpt lat="34.32037447464785" lon="8.16604412579105"><ele>95.0</ele><time>2026-04-08T08:28:45Z</time></trkpt><trkpt lat="34.32032420287301" lon="8.166105348701814"><ele>95.0</ele><time>2026-04-08T08:28:46Z</time></trkpt><trkpt lat="34.320265397577415" lon="8.166169671035657"><ele>95.0</ele><time>2026-04-08T08:28:47Z</time></trkpt><trkpt lat="34.320197902945836" lon="8.166224864409205"><ele>95.0</ele><time>2026-04-08T08:28:48Z</time></trkpt><trkpt lat="34.320122480096245" lon="8.166280197916725"><ele>95.0</ele><time>2026-04-08T08:28:49Z</time></trkpt><trkpt lat="34.320047270147086" lon="8.166335131919935"><ele>95.0</ele><time>2026-04-08T08:28:50Z</time></trkpt><trkpt lat="34.31997935144829" lon="8.166380474591111"><ele>95.0</ele><time>2026-04-08T08:28:51Z</time></trkpt><trkpt lat="34.31989224058556" lon="8.166431447784678"><ele>95.0</ele><time>2026-04-08T08:28:52Z</time></trkpt><trkpt lat="34.31978757134484" lon="8.166489587016997"><ele>95.4</ele><time>2026-04-08T08:28:53Z</time></trkpt><trkpt lat="34.319693330923464" lon="8.166546622855355"><ele>95.8</ele><time>2026-04-08T08:28:54Z</time></trkpt><trkpt lat="34.31961375304282" lon="8.166594268310885"><ele>96.19999999999999</ele><time>2026-04-08T08:28:55Z</time></trkpt><trkpt lat="34.319546932564926" lon="8.16663819543339"><ele>96.6</ele><time>2026-04-08T08:28:56Z</time></trkpt><trkpt lat="34.3194498076945" lon="8.166724773468141"><ele>97.0</ele><time>2026-04-08T08:28:58Z</time></trkpt><trkpt lat="34.31940041252346" lon="8.166849591847065"><ele>97.0</ele><time>2026-04-08T08:29:00Z</time></trkpt><trkpt lat="34.31939460268664" lon="8.166929595175521"><ele>97.0</ele><time>2026-04-08T08:29:01Z</time></trkpt><trkpt lat="34.31940529571261" lon="8.167025936063453"><ele>97.0</ele><time>2026-04-08T08:29:02Z</time></trkpt><trkpt lat="34.31942990875301" lon="8.167153868126242"><ele>97.0</ele><time>2026-04-08T08:29:03Z</time></trkpt><trkpt lat="34.31946749551708" lon="8.16728933497825"><ele>97.0</ele><time>2026-04-08T08:29:04Z</time></trkpt><trkpt lat="34.31952451909843" lon="8.16742548879038"><ele>97.5</ele><time>2026-04-08T08:29:05Z</time></trkpt><trkpt lat="34.31958195627859" lon="8.167545309646618"><ele>98.0</ele><time>2026-04-08T08:29:06Z</time></trkpt><trkpt lat="34.31963894974483" lon="8.167663306829418"><ele>98.5</ele><time>2026-04-08T08:29:06.999Z</time></trkpt><trkpt lat="34.31968931914961" lon="8.167784234883218"><ele>99.0</ele><time>2026-04-08T08:29:07.999Z</time></trkpt><trkpt lat="34.31973958299994" lon="8.167910994551617"><ele>99.5</ele><time>2026-04-08T08:29:08.999Z</time></trkpt><trkpt lat="34.31978841417762" lon="8.16802557368679"><ele>100.0</ele><time>2026-04-08T08:29:09.999Z</time></trkpt><trkpt lat="34.31984641262212" lon="8.168138141207047"><ele>100.5</ele><time>2026-04-08T08:29:10.999Z</time></trkpt><trkpt lat="34.31991247108351" lon="8.16825659567935"><ele>101.0</ele><time>2026-04-08T08:29:11.999Z</time></trkpt><trkpt lat="34.31997543478447" lon="8.168381391909087"><ele>101.6</ele><time>2026-04-08T08:29:12.999Z</time></trkpt><trkpt lat="34.320025777750345" lon="8.16849173519419"><ele>102.19999999999999</ele><time>2026-04-08T08:29:13.999Z</time></trkpt><trkpt lat="34.32008023246341" lon="8.168598879533148"><ele>102.80000000000001</ele><time>2026-04-08T08:29:14.999Z</time></trkpt><trkpt lat="34.32014121624307" lon="8.168712136925391"><ele>103.4</ele><time>2026-04-08T08:29:15.999Z</time></trkpt><trkpt lat="34.32020451104454" lon="8.168823944918755"><ele>104.0</ele><time>2026-04-08T08:29:16.999Z</time></trkpt><trkpt lat="34.3202741368438" lon="8.168943220664687"><ele>104.5</ele><time>2026-04-08T08:29:17.999Z</time></trkpt><trkpt lat="34.320352369430054" lon="8.169069725868155"><ele>105.0</ele><time>2026-04-08T08:29:18.999Z</time></trkpt><trkpt lat="34.32043250364556" lon="8.16920372044118"><ele>105.5</ele><time>2026-04-08T08:29:19.999Z</time></trkpt><trkpt lat="34.320508257349154" lon="8.16934590103506"><ele>106.0</ele><time>2026-04-08T08:29:20.999Z</time></trkpt><trkpt lat="34.32057608136697" lon="8.169481360958542"><ele>106.5</ele><time>2026-04-08T08:29:21.999Z</time></trkpt><trkpt lat="34.320648655560795" lon="8.16962659266152"><ele>107.0</ele><time>2026-04-08T08:29:22.999Z</time></trkpt><trkpt lat="34.32072224831427" lon="8.169780900209153"><ele>107.5</ele><time>2026-04-08T08:29:23.999Z</time></trkpt><trkpt lat="34.320778051720524" lon="8.16990976646952"><ele>108.0</ele><time>2026-04-08T08:29:24.999Z</time></trkpt><trkpt lat="34.3208370831965" lon="8.17003040818906"><ele>108.75</ele><time>2026-04-08T08:29:25.999Z</time></trkpt><trkpt lat="34.32090592756294" lon="8.170147676710815"><ele>109.5</ele><time>2026-04-08T08:29:26.999Z</time></trkpt><trkpt lat="34.32098449414023" lon="8.170266139034457"><ele>110.25</ele><time>2026-04-08T08:29:27.999Z</time></trkpt><trkpt lat="34.32106998381284" lon="8.170381992482843"><ele>111.0</ele><time>2026-04-08T08:29:28.999Z</time></trkpt><trkpt lat="34.32115225639702" lon="8.170492202294438"><ele>111.0</ele><time>2026-04-08T08:29:29.999Z</time></trkpt><trkpt lat="34.32122996327287" lon="8.170617444525142"><ele>111.0</ele><time>2026-04-08T08:29:30.999Z</time></trkpt><trkpt lat="34.32130582407791" lon="8.170768918913145"><ele>111.0</ele><time>2026-04-08T08:29:31.999Z</time></trkpt><trkpt lat="34.321369203621856" lon="8.170909742466087"><ele>111.0</ele><time>2026-04-08T08:29:32.999Z</time></trkpt><trkpt lat="34.32141905131752" lon="8.171032817324644"><ele>112.75</ele><time>2026-04-08T08:29:33.999Z</time></trkpt><trkpt lat="34.32146735979193" lon="8.171156623484015"><ele>114.5</ele><time>2026-04-08T08:29:34.999Z</time></trkpt><trkpt lat="34.321519271164696" lon="8.17128530787847"><ele>116.25</ele><time>2026-04-08T08:29:35.999Z</time></trkpt><trkpt lat="34.3215762197902" lon="8.17142088218318"><ele>118.0</ele><time>2026-04-08T08:29:36.999Z</time></trkpt><trkpt lat="34.32163674925095" lon="8.17155618151082"><ele>118.0</ele><time>2026-04-08T08:29:37.999Z</time></trkpt><trkpt lat="34.32170203854883" lon="8.171691269371204"><ele>118.0</ele><time>2026-04-08T08:29:38.999Z</time></trkpt><trkpt lat="34.32177510974362" lon="8.171823199709802"><ele>118.0</ele><time>2026-04-08T08:29:39.999Z</time></trkpt><trkpt lat="34.32184859495726" lon="8.17195514608954"><ele>118.0</ele><time>2026-04-08T08:29:40.999Z</time></trkpt><trkpt lat="34.321926805006285" lon="8.172082617393286"><ele>118.0</ele><time>2026-04-08T08:29:41.999Z</time></trkpt><trkpt lat="34.32200505418426" lon="8.172213797901609"><ele>118.0</ele><time>2026-04-08T08:29:42.999Z</time></trkpt><trkpt lat="34.3220710158231" lon="8.172336001914106"><ele>118.0</ele><time>2026-04-08T08:29:43.999Z</time></trkpt><trkpt lat="34.32213038144328" lon="8.172451702526773"><ele>118.0</ele><time>2026-04-08T08:29:44.999Z</time></trkpt><trkpt lat="34.32218997327741" lon="8.172554876237832"><ele>119.75</ele><time>2026-04-08T08:29:45.999Z</time></trkpt><trkpt lat="34.32225318639485" lon="8.17265912748449"><ele>121.5</ele><time>2026-04-08T08:29:46.999Z</time></trkpt><trkpt lat="34.32232956471476" lon="8.172762985655973"><ele>123.25</ele><time>2026-04-08T08:29:47.999Z</time></trkpt><trkpt lat="34.32242115831174" lon="8.172866134890306"><ele>125.0</ele><time>2026-04-08T08:29:48.999Z</time></trkpt><trkpt lat="34.3225300641602" lon="8.172974659077124"><ele>125.0</ele><time>2026-04-08T08:29:49.999Z</time></trkpt><trkpt lat="34.3226455879366" lon="8.17307783358848"><ele>125.0</ele><time>2026-04-08T08:29:50.999Z</time></trkpt><trkpt lat="34.32275761218923" lon="8.173160561407093"><ele>125.0</ele><time>2026-04-08T08:29:51.999Z</time></trkpt><trkpt lat="34.3228604557033" lon="8.1732378853787"><ele>125.0</ele><time>2026-04-08T08:29:52.999Z</time></trkpt><trkpt lat="34.322959453385096" lon="8.173292022313113"><ele>125.5</ele><time>2026-04-08T08:29:53.999Z</time></trkpt><trkpt lat="34.323055616210645" lon="8.173326881326698"><ele>126.0</ele><time>2026-04-08T08:29:54.999Z</time></trkpt><trkpt lat="34.32316310688361" lon="8.173357779886945"><ele>126.5</ele><time>2026-04-08T08:29:55.999Z</time></trkpt><trkpt lat="34.32328647715913" lon="8.173381084963008"><ele>127.0</ele><time>2026-04-08T08:29:56.999Z</time></trkpt><trkpt lat="34.32341166170503" lon="8.173398037921636"><ele>127.0</ele><time>2026-04-08T08:29:57.999Z</time></trkpt><trkpt lat="34.323516927293724" lon="8.173399553054963"><ele>126.99999999999999</ele><time>2026-04-08T08:29:58.999Z</time></trkpt><trkpt lat="34.32362647391902" lon="8.173388426906701"><ele>126.99999999999999</ele><time>2026-04-08T08:29:59.999Z</time></trkpt><trkpt lat="34.3237375290307" lon="8.17338340624441"><ele>127.0</ele><time>2026-04-08T08:30:00.999Z</time></trkpt><trkpt lat="34.32383308980687" lon="8.173392161877821"><ele>127.0</ele><time>2026-04-08T08:30:01.999Z</time></trkpt><trkpt lat="34.32392794407537" lon="8.17340936832537"><ele>128.4</ele><time>2026-04-08T08:30:02.999Z</time></trkpt><trkpt lat="34.32402074981587" lon="8.173441046723614"><ele>129.79999999999998</ele><time>2026-04-08T08:30:03.999Z</time></trkpt><trkpt lat="34.324112988309984" lon="8.173487620124682"><ele>131.2</ele><time>2026-04-08T08:30:04.999Z</time></trkpt><trkpt lat="34.32419945187169" lon="8.17353168037756"><ele>132.6</ele><time>2026-04-08T08:30:05.999Z</time></trkpt><trkpt lat="34.3242813400106" lon="8.173580205141903"><ele>134.0</ele><time>2026-04-08T08:30:06.999Z</time></trkpt><trkpt lat="34.32437649009069" lon="8.173621350365531"><ele>134.0</ele><time>2026-04-08T08:30:07.999Z</time></trkpt><trkpt lat="34.324473391356136" lon="8.17365165642379"><ele>134.0</ele><time>2026-04-08T08:30:08.999Z</time></trkpt><trkpt lat="34.3245725553282" lon="8.173664173828913"><ele>134.0</ele><time>2026-04-08T08:30:09.999Z</time></trkpt><trkpt lat="34.324681960654885" lon="8.173650106899181"><ele>134.0</ele><time>2026-04-08T08:30:10.999Z</time></trkpt><trkpt lat="34.32479433502497" lon="8.173633836447694"><ele>134.0</ele><time>2026-04-08T08:30:11.999Z</time></trkpt><trkpt lat="34.32489324035511" lon="8.173622671005967"><ele>135.0</ele><time>2026-04-08T08:30:12.999Z</time></trkpt><trkpt lat="34.32499255036504" lon="8.173628341296299"><ele>136.0</ele><time>2026-04-08T08:30:13.999Z</time></trkpt><trkpt lat="34.32509481581603" lon="8.173644824015975"><ele>137.0</ele><time>2026-04-08T08:30:14.999Z</time></trkpt><trkpt lat="34.32518419082601" lon="8.173668726041138"><ele>138.0</ele><time>2026-04-08T08:30:15.999Z</time></trkpt><trkpt lat="34.325259572284054" lon="8.173704695520229"><ele>139.0</ele><time>2026-04-08T08:30:17Z</time></trkpt><trkpt lat="34.32533225846403" lon="8.17374086412233"><ele>139.0</ele><time>2026-04-08T08:30:18Z</time></trkpt><trkpt lat="34.32541630234999" lon="8.173776486420964"><ele>139.0</ele><time>2026-04-08T08:30:19Z</time></trkpt><trkpt lat="34.32548990575837" lon="8.173811085926495"><ele>139.0</ele><time>2026-04-08T08:30:20Z</time></trkpt><trkpt lat="34.32556297914267" lon="8.173861614898966"><ele>139.0</ele><time>2026-04-08T08:30:21Z</time></trkpt><trkpt lat="34.32565135120643" lon="8.173925866170839"><ele>139.0</ele><time>2026-04-08T08:30:22Z</time></trkpt><trkpt lat="34.32574710911597" lon="8.173996078622476"><ele>138.6</ele><time>2026-04-08T08:30:23Z</time></trkpt><trkpt lat="34.32583059522272" lon="8.174057204481638"><ele>138.2</ele><time>2026-04-08T08:30:24Z</time></trkpt><trkpt lat="34.32589415459137" lon="8.174104725226707"><ele>137.79999999999998</ele><time>2026-04-08T08:30:25Z</time></trkpt><trkpt lat="34.326004889611234" lon="8.174156211609827"><ele>137.4</ele><time>2026-04-08T08:30:27Z</time></trkpt><trkpt lat="34.32611114099059" lon="8.174207197603254"><ele>137.0</ele><time>2026-04-08T08:30:29Z</time></trkpt><trkpt lat="34.326175087582605" lon="8.174258118847787"><ele>137.0</ele><time>2026-04-08T08:30:31Z</time></trkpt><trkpt lat="34.326247292422615" lon="8.17433617679167"><ele>137.0</ele><time>2026-04-08T08:30:34Z</time></trkpt><trkpt lat="34.32632516091672" lon="8.17435839271569"><ele>137.0</ele><time>2026-04-08T08:30:36Z</time></trkpt><trkpt lat="34.32640744196131" lon="8.174376501297191"><ele>137.0</ele><time>2026-04-08T08:30:38Z</time></trkpt><trkpt lat="34.326465938774355" lon="8.17441376356411"><ele>137.0</ele><time>2026-04-08T08:30:40Z</time></trkpt><trkpt lat="34.326568622481005" lon="8.174477335805697"><ele>137.0</ele><time>2026-04-08T08:30:43Z</time></trkpt><trkpt lat="34.32663059542902" lon="8.174500997897145"><ele>138.33333333333331</ele><time>2026-04-08T08:30:44Z</time></trkpt><trkpt lat="34.3266994775316" lon="8.17452743713822"><ele>139.66666666666666</ele><time>2026-04-08T08:30:45Z</time></trkpt><trkpt lat="34.326771206413596" lon="8.174563329975031"><ele>141.0</ele><time>2026-04-08T08:30:46Z</time></trkpt><trkpt lat="34.32684012440425" lon="8.174612052984777"><ele>142.33333333333334</ele><time>2026-04-08T08:30:47Z</time></trkpt><trkpt lat="34.32691076300445" lon="8.174667263321057"><ele>143.66666666666669</ele><time>2026-04-08T08:30:48Z</time></trkpt><trkpt lat="34.32698525349762" lon="8.17472873214587"><ele>145.0</ele><time>2026-04-08T08:30:49Z</time></trkpt><trkpt lat="34.32706290371064" lon="8.174794083796979"><ele>144.6</ele><time>2026-04-08T08:30:50Z</time></trkpt><trkpt lat="34.327136707068085" lon="8.174879212171735"><ele>144.2</ele><time>2026-04-08T08:30:51Z</time></trkpt><trkpt lat="34.32720220360947" lon="8.174973367504078"><ele>143.8</ele><time>2026-04-08T08:30:52Z</time></trkpt><trkpt lat="34.327263440148315" lon="8.175071737183373"><ele>143.4</ele><time>2026-04-08T08:30:53Z</time></trkpt><trkpt lat="34.32730508732302" lon="8.175144173036784"><ele>143.0</ele><time>2026-04-08T08:30:54Z</time></trkpt><trkpt lat="34.32736777868943" lon="8.17522020849701"><ele>144.0</ele><time>2026-04-08T08:30:56Z</time></trkpt><trkpt lat="34.32742569800482" lon="8.175313346506504"><ele>145.0</ele><time>2026-04-08T08:31:22.999Z</time></trkpt><trkpt lat="34.327465961124304" lon="8.175373468740434"><ele>146.0</ele><time>2026-04-08T08:31:23.999Z</time></trkpt><trkpt lat="34.32750416449763" lon="8.175446947368627"><ele>147.0</ele><time>2026-04-08T08:31:24.999Z</time></trkpt><trkpt lat="34.32753439133204" lon="8.175524636255668"><ele>148.0</ele><time>2026-04-08T08:31:25.999Z</time></trkpt><trkpt lat="34.327563670644416" lon="8.175598459594896"><ele>149.0</ele><time>2026-04-08T08:31:26.999Z</time></trkpt><trkpt lat="34.32761958927859" lon="8.175738765735883"><ele>149.6</ele><time>2026-04-08T08:31:28.999Z</time></trkpt><trkpt lat="34.327669991371934" lon="8.175818548814293"><ele>150.2</ele><time>2026-04-08T08:31:29.999Z</time></trkpt><trkpt lat="34.32774727165526" lon="8.175896505590815"><ele>150.79999999999998</ele><time>2026-04-08T08:31:30.999Z</time></trkpt><trkpt lat="34.327842139182415" lon="8.175974436781615"><ele>151.4</ele><time>2026-04-08T08:31:31.999Z</time></trkpt><trkpt lat="34.32793978259877" lon="8.17605240637019"><ele>152.0</ele><time>2026-04-08T08:31:32.999Z</time></trkpt><trkpt lat="34.32802468937324" lon="8.176115345763789"><ele>152.79999999999998</ele><time>2026-04-08T08:31:33.999Z</time></trkpt><trkpt lat="34.32810145841455" lon="8.176176224176603"><ele>153.6</ele><time>2026-04-08T08:31:34.999Z</time></trkpt><trkpt lat="34.328178792871256" lon="8.176239731846424"><ele>154.39999999999998</ele><time>2026-04-08T08:31:35.999Z</time></trkpt><trkpt lat="34.328255797191474" lon="8.176319043531896"><ele>155.2</ele><time>2026-04-08T08:31:36.999Z</time></trkpt><trkpt lat="34.3283165075985" lon="8.176412348629365"><ele>156.0</ele><time>2026-04-08T08:31:37.999Z</time></trkpt><trkpt lat="34.328352406429524" lon="8.17654254516229"><ele>156.25</ele><time>2026-04-08T08:31:38.999Z</time></trkpt><trkpt lat="34.32837386813162" lon="8.176680398530225"><ele>156.5</ele><time>2026-04-08T08:31:39.999Z</time></trkpt><trkpt lat="34.32836601400025" lon="8.176864631656105"><ele>156.75</ele><time>2026-04-08T08:31:40.999Z</time></trkpt><trkpt lat="34.32838519725065" lon="8.177020061993817"><ele>157.0</ele><time>2026-04-08T08:31:41.999Z</time></trkpt><trkpt lat="34.32842176538625" lon="8.177149937307146"><ele>157.0</ele><time>2026-04-08T08:31:42.999Z</time></trkpt><trkpt lat="34.32846219039891" lon="8.177274362083432"><ele>157.0</ele><time>2026-04-08T08:31:43.999Z</time></trkpt><trkpt lat="34.32849275455826" lon="8.177423749150723"><ele>157.0</ele><time>2026-04-08T08:31:44.999Z</time></trkpt><trkpt lat="34.328511550798446" lon="8.17756514726935"><ele>157.0</ele><time>2026-04-08T08:31:45.999Z</time></trkpt><trkpt lat="34.328508559498204" lon="8.17770715310698"><ele>158.25</ele><time>2026-04-08T08:31:46.999Z</time></trkpt><trkpt lat="34.32849833261487" lon="8.177852745859724"><ele>159.5</ele><time>2026-04-08T08:31:47.999Z</time></trkpt><trkpt lat="34.328469967322064" lon="8.177999746031356"><ele>160.75</ele><time>2026-04-08T08:31:48.999Z</time></trkpt><trkpt lat="34.32847139078599" lon="8.178143641441869"><ele>162.0</ele><time>2026-04-08T08:31:49.999Z</time></trkpt><trkpt lat="34.32848175064269" lon="8.17830886062721"><ele>162.0</ele><time>2026-04-08T08:31:50.999Z</time></trkpt><trkpt lat="34.32848405651274" lon="8.178483179801445"><ele>162.0</ele><time>2026-04-08T08:31:51.999Z</time></trkpt><trkpt lat="34.32849942241988" lon="8.178679782681256"><ele>162.0</ele><time>2026-04-08T08:31:52.999Z</time></trkpt><trkpt lat="34.32853181010359" lon="8.178852835803264"><ele>162.75</ele><time>2026-04-08T08:31:53.999Z</time></trkpt><trkpt lat="34.32855896708219" lon="8.17901834671483"><ele>163.5</ele><time>2026-04-08T08:31:54.999Z</time></trkpt><trkpt lat="34.32857620900002" lon="8.179191892856926"><ele>164.25</ele><time>2026-04-08T08:31:55.999Z</time></trkpt><trkpt lat="34.32858325631904" lon="8.179369749435647"><ele>165.0</ele><time>2026-04-08T08:31:56.999Z</time></trkpt><trkpt lat="34.32858524167629" lon="8.179524676498197"><ele>165.0</ele><time>2026-04-08T08:31:57.999Z</time></trkpt><trkpt lat="34.32858813161672" lon="8.179684722220609"><ele>165.0</ele><time>2026-04-08T08:31:58.999Z</time></trkpt><trkpt lat="34.3285713437303" lon="8.17982765366674"><ele>165.0</ele><time>2026-04-08T08:31:59.999Z</time></trkpt><trkpt lat="34.32857423717864" lon="8.179964125992557"><ele>165.0</ele><time>2026-04-08T08:32:00.999Z</time></trkpt><trkpt lat="34.32860532511201" lon="8.180117582764495"><ele>166.66666666666666</ele><time>2026-04-08T08:32:01.999Z</time></trkpt><trkpt lat="34.32865510395333" lon="8.180305324566676"><ele>168.33333333333331</ele><time>2026-04-08T08:32:02.999Z</time></trkpt><trkpt lat="34.32870816105246" lon="8.180506139358286"><ele>170.0</ele><time>2026-04-08T08:32:03.999Z</time></trkpt><trkpt lat="34.328742455739786" lon="8.18070030389011"><ele>171.75</ele><time>2026-04-08T08:32:04.999Z</time></trkpt><trkpt lat="34.32877388337117" lon="8.180884237317692"><ele>173.5</ele><time>2026-04-08T08:32:05.999Z</time></trkpt><trkpt lat="34.328800390260746" lon="8.181034873047002"><ele>175.25</ele><time>2026-04-08T08:32:06.999Z</time></trkpt><trkpt lat="34.328828594304845" lon="8.18116609967865"><ele>177.0</ele><time>2026-04-08T08:32:07.999Z</time></trkpt><trkpt lat="34.328858680225075" lon="8.181275891345726"><ele>176.8</ele><time>2026-04-08T08:32:08.999Z</time></trkpt><trkpt lat="34.32889300114873" lon="8.181368551711266"><ele>176.6</ele><time>2026-04-08T08:32:09.999Z</time></trkpt><trkpt lat="34.328936232592426" lon="8.181443598847856"><ele>176.4</ele><time>2026-04-08T08:32:10.999Z</time></trkpt><trkpt lat="34.32902691405975" lon="8.181532783243064"><ele>176.20000000000002</ele><time>2026-04-08T08:32:12.999Z</time></trkpt><trkpt lat="34.3290910129088" lon="8.18157213216965"><ele>176.0</ele><time>2026-04-08T08:32:13.999Z</time></trkpt><trkpt lat="34.32919468386259" lon="8.181621151322853"><ele>175.60000000000002</ele><time>2026-04-08T08:32:14.999Z</time></trkpt><trkpt lat="34.32928953792029" lon="8.181691641089277"><ele>175.2</ele><time>2026-04-08T08:32:15.999Z</time></trkpt><trkpt lat="34.329360437955806" lon="8.181740127857381"><ele>174.8</ele><time>2026-04-08T08:32:16.999Z</time></trkpt><trkpt lat="34.329423086689495" lon="8.181815250122618"><ele>174.39999999999998</ele><time>2026-04-08T08:32:17.999Z</time></trkpt><trkpt lat="34.329468037762865" lon="8.18191620835014"><ele>174.0</ele><time>2026-04-08T08:32:18.999Z</time></trkpt><trkpt lat="34.32950965060791" lon="8.18202399321937"><ele>174.0</ele><time>2026-04-08T08:32:19.999Z</time></trkpt><trkpt lat="34.329560380006804" lon="8.182123363550398"><ele>174.0</ele><time>2026-04-08T08:32:20.999Z</time></trkpt><trkpt lat="34.32964819195742" lon="8.182216164067396"><ele>174.0</ele><time>2026-04-08T08:32:21.999Z</time></trkpt><trkpt lat="34.32975922545801" lon="8.182300357406795"><ele>174.0</ele><time>2026-04-08T08:32:23Z</time></trkpt><trkpt lat="34.32985974710857" lon="8.18236638024212"><ele>174.16666666666666</ele><time>2026-04-08T08:32:24Z</time></trkpt><trkpt lat="34.32993893822157" lon="8.182410176939804"><ele>174.33333333333334</ele><time>2026-04-08T08:32:25Z</time></trkpt><trkpt lat="34.33001556928525" lon="8.182433212758713"><ele>174.5</ele><time>2026-04-08T08:32:26Z</time></trkpt><trkpt lat="34.33008746679666" lon="8.18244893515151"><ele>174.66666666666669</ele><time>2026-04-08T08:32:27Z</time></trkpt><trkpt lat="34.33015536385971" lon="8.18245556620259"><ele>174.83333333333334</ele><time>2026-04-08T08:32:28Z</time></trkpt><trkpt lat="34.33021822387525" lon="8.182445604083924"><ele>175.0</ele><time>2026-04-08T08:32:29Z</time></trkpt><trkpt lat="34.33032087238743" lon="8.182415283201404"><ele>175.0</ele><time>2026-04-08T08:32:31Z</time></trkpt><trkpt lat="34.330393359865376" lon="8.182386838611793"><ele>175.0</ele><time>2026-04-08T08:32:33Z</time></trkpt><trkpt lat="34.33044885887981" lon="8.18233957648948"><ele>175.0</ele><time>2026-04-08T08:32:46Z</time></trkpt><trkpt lat="34.33050678236544" lon="8.182300272795148"><ele>175.0</ele><time>2026-04-08T08:32:57Z</time></trkpt><trkpt lat="34.33043488376981" lon="8.182323222146682"><ele>175.0</ele><time>2026-04-08T08:33:38.999Z</time></trkpt><trkpt lat="34.33037198954042" lon="8.18235423335432"><ele>175.0</ele><time>2026-04-08T08:33:41.999Z</time></trkpt><trkpt lat="34.33030193170579" lon="8.182396878024228"><ele>175.0</ele><time>2026-04-08T08:33:46.999Z</time></trkpt><trkpt lat="34.330373774487626" lon="8.18236831738086"><ele>175.0</ele><time>2026-04-08T08:34:15.999Z</time></trkpt><trkpt lat="34.33045655148461" lon="8.182355552083994"><ele>175.0</ele><time>2026-04-08T08:34:20.999Z</time></trkpt><trkpt lat="34.33052094155486" lon="8.18232570557462"><ele>175.0</ele><time>2026-04-08T08:34:25.999Z</time></trkpt><trkpt lat="34.33056124599371" lon="8.182260648177618"><ele>175.0</ele><time>2026-04-08T08:34:30.999Z</time></trkpt><trkpt lat="34.33065954123438" lon="8.182257840496378"><ele>175.0</ele><time>2026-04-08T08:35:47.999Z</time></trkpt><trkpt lat="34.3307735118197" lon="8.18233585992711"><ele>175.0</ele><time>2026-04-08T08:35:49.999Z</time></trkpt><trkpt lat="34.330822979400644" lon="8.182397969319398"><ele>175.4</ele><time>2026-04-08T08:35:50.999Z</time></trkpt><trkpt lat="34.330869506079004" lon="8.18246639057808"><ele>175.8</ele><time>2026-04-08T08:35:51.999Z</time></trkpt><trkpt lat="34.330919547717016" lon="8.182558170297881"><ele>176.2</ele><time>2026-04-08T08:35:52.999Z</time></trkpt><trkpt lat="34.330974017201584" lon="8.18265103312743"><ele>176.6</ele><time>2026-04-08T08:35:53.999Z</time></trkpt><trkpt lat="34.33102600997281" lon="8.182755621825823"><ele>177.0</ele><time>2026-04-08T08:35:54.999Z</time></trkpt><trkpt lat="34.33106571056507" lon="8.182869200080827"><ele>177.0</ele><time>2026-04-08T08:35:55.999Z</time></trkpt><trkpt lat="34.33110150321275" lon="8.182949639453533"><ele>177.0</ele><time>2026-04-08T08:35:56.999Z</time></trkpt><trkpt lat="34.33113467998714" lon="8.18303181617777"><ele>177.0</ele><time>2026-04-08T08:35:57.999Z</time></trkpt><trkpt lat="34.331176919576414" lon="8.18311811555256"><ele>177.0</ele><time>2026-04-08T08:35:58.999Z</time></trkpt><trkpt lat="34.331211730997076" lon="8.183203435025304"><ele>177.0</ele><time>2026-04-08T08:35:59.999Z</time></trkpt><trkpt lat="34.33124903460753" lon="8.1832897213296"><ele>177.0</ele><time>2026-04-08T08:36:00.999Z</time></trkpt><trkpt lat="34.33129048093475" lon="8.183381252338261"><ele>177.39999999999998</ele><time>2026-04-08T08:36:01.999Z</time></trkpt><trkpt lat="34.33133897566906" lon="8.183492239862742"><ele>177.79999999999998</ele><time>2026-04-08T08:36:02.999Z</time></trkpt><trkpt lat="34.33138626548631" lon="8.183596542049553"><ele>178.2</ele><time>2026-04-08T08:36:03.999Z</time></trkpt><trkpt lat="34.33142660578559" lon="8.183694517687918"><ele>178.6</ele><time>2026-04-08T08:36:04.999Z</time></trkpt><trkpt lat="34.33147125983856" lon="8.183792175120768"><ele>179.0</ele><time>2026-04-08T08:36:05.999Z</time></trkpt><trkpt lat="34.331518915570165" lon="8.183888609556716"><ele>179.0</ele><time>2026-04-08T08:36:06.999Z</time></trkpt><trkpt lat="34.33156334925231" lon="8.18398150314445"><ele>179.0</ele><time>2026-04-08T08:36:07.999Z</time></trkpt><trkpt lat="34.33162140325084" lon="8.184073587983908"><ele>179.0</ele><time>2026-04-08T08:36:08.999Z</time></trkpt><trkpt lat="34.33168555713431" lon="8.184176028740175"><ele>179.0</ele><time>2026-04-08T08:36:09.999Z</time></trkpt><trkpt lat="34.33176019996092" lon="8.18430820085717"><ele>179.0</ele><time>2026-04-08T08:36:10.999Z</time></trkpt><trkpt lat="34.33183157450174" lon="8.184432034454"><ele>180.2</ele><time>2026-04-08T08:36:11.999Z</time></trkpt><trkpt lat="34.33188699576215" lon="8.184526650966971"><ele>181.39999999999998</ele><time>2026-04-08T08:36:12.999Z</time></trkpt><trkpt lat="34.33195179190637" lon="8.184623852098913"><ele>182.6</ele><time>2026-04-08T08:36:13.999Z</time></trkpt><trkpt lat="34.33201712286334" lon="8.184733397074497"><ele>183.8</ele><time>2026-04-08T08:36:14.999Z</time></trkpt><trkpt lat="34.33206490527529" lon="8.184846620040839"><ele>185.0</ele><time>2026-04-08T08:36:15.999Z</time></trkpt><trkpt lat="34.33209714419766" lon="8.18493785210811"><ele>186.6</ele><time>2026-04-08T08:36:16.999Z</time></trkpt><trkpt lat="34.33214821097137" lon="8.185054644017855"><ele>188.2</ele><time>2026-04-08T08:36:18.999Z</time></trkpt><trkpt lat="34.33225381831053" lon="8.185085801825462"><ele>189.8</ele><time>2026-04-08T08:36:20.999Z</time></trkpt><trkpt lat="34.33231413310541" lon="8.185056587298778"><ele>191.4</ele><time>2026-04-08T08:36:21.999Z</time></trkpt><trkpt lat="34.33238037266623" lon="8.184989306019574"><ele>193.0</ele><time>2026-04-08T08:36:22.999Z</time></trkpt><trkpt lat="34.33244287000462" lon="8.184905995092066"><ele>192.99999999999997</ele><time>2026-04-08T08:36:23.999Z</time></trkpt><trkpt lat="34.33250055641287" lon="8.184860754576118"><ele>193.0</ele><time>2026-04-08T08:36:24.999Z</time></trkpt><trkpt lat="34.33257025407765" lon="8.18483796135401"><ele>193.0</ele><time>2026-04-08T08:36:25.999Z</time></trkpt><trkpt lat="34.332658847581136" lon="8.18482887117204"><ele>193.0</ele><time>2026-04-08T08:36:26.999Z</time></trkpt><trkpt lat="34.332745941931336" lon="8.184810775734332"><ele>192.99999999999997</ele><time>2026-04-08T08:36:27.999Z</time></trkpt><trkpt lat="34.33285549598086" lon="8.184759814393749"><ele>193.0</ele><time>2026-04-08T08:36:28.999Z</time></trkpt><trkpt lat="34.332982353189436" lon="8.184692389932493"><ele>192.60000000000002</ele><time>2026-04-08T08:36:29.999Z</time></trkpt><trkpt lat="34.333104867452825" lon="8.18465436073531"><ele>192.20000000000002</ele><time>2026-04-08T08:36:30.999Z</time></trkpt><trkpt lat="34.333205666985485" lon="8.184620048272814"><ele>191.8</ele><time>2026-04-08T08:36:31.999Z</time></trkpt><trkpt lat="34.333296378710656" lon="8.184586041465975"><ele>191.4</ele><time>2026-04-08T08:36:32.999Z</time></trkpt><trkpt lat="34.333381314508145" lon="8.184554218776732"><ele>191.0</ele><time>2026-04-08T08:36:33.999Z</time></trkpt><trkpt lat="34.33347177359391" lon="8.184521676107728"><ele>191.0</ele><time>2026-04-08T08:36:34.999Z</time></trkpt><trkpt lat="34.33357355805056" lon="8.184489291868053"><ele>191.0</ele><time>2026-04-08T08:36:35.999Z</time></trkpt><trkpt lat="34.333686037819504" lon="8.184457693326918"><ele>191.0</ele><time>2026-04-08T08:36:36.999Z</time></trkpt><trkpt lat="34.33379536137809" lon="8.184436113127678"><ele>191.0</ele><time>2026-04-08T08:36:37.999Z</time></trkpt><trkpt lat="34.3338891096701" lon="8.18441742744757"><ele>191.0</ele><time>2026-04-08T08:36:38.999Z</time></trkpt><trkpt lat="34.33397487779297" lon="8.184395933335045"><ele>194.5</ele><time>2026-04-08T08:36:39.999Z</time></trkpt><trkpt lat="34.33405135399283" lon="8.184368066486003"><ele>198.0</ele><time>2026-04-08T08:36:40.999Z</time></trkpt><trkpt lat="34.33414607848084" lon="8.184370753350406"><ele>201.5</ele><time>2026-04-08T08:36:42.999Z</time></trkpt><trkpt lat="34.334192825965424" lon="8.184438983632564"><ele>205.0</ele><time>2026-04-08T08:36:43.999Z</time></trkpt><trkpt lat="34.33423339706444" lon="8.184529587464745"><ele>208.50000000000003</ele><time>2026-04-08T08:36:44.999Z</time></trkpt><trkpt lat="34.33427181198842" lon="8.184633023103464"><ele>212.0</ele><time>2026-04-08T08:36:45.999Z</time></trkpt><trkpt lat="34.334290004804394" lon="8.18472447014235"><ele>212.00000000000003</ele><time>2026-04-08T08:36:46.999Z</time></trkpt><trkpt lat="34.33430148211472" lon="8.184811436428605"><ele>212.0</ele><time>2026-04-08T08:36:47.999Z</time></trkpt><trkpt lat="34.33431633553168" lon="8.184900050357065"><ele>212.0</ele><time>2026-04-08T08:36:48.999Z</time></trkpt><trkpt lat="34.33433111884972" lon="8.184985624935855"><ele>212.0</ele><time>2026-04-08T08:36:49.999Z</time></trkpt><trkpt lat="34.33434491852286" lon="8.185072171755616"><ele>212.00000000000003</ele><time>2026-04-08T08:36:50.999Z</time></trkpt><trkpt lat="34.33436190232971" lon="8.185165530369575"><ele>212.0</ele><time>2026-04-08T08:36:51.999Z</time></trkpt><trkpt lat="34.33438596017216" lon="8.185275999136437"><ele>212.0</ele><time>2026-04-08T08:36:52.999Z</time></trkpt><trkpt lat="34.33441322780889" lon="8.18538901073483"><ele>212.0</ele><time>2026-04-08T08:36:53.999Z</time></trkpt><trkpt lat="34.334446997282214" lon="8.185507290762663"><ele>212.0</ele><time>2026-04-08T08:36:54.999Z</time></trkpt><trkpt lat="34.33447792674791" lon="8.185626704395787"><ele>212.0</ele><time>2026-04-08T08:36:55.999Z</time></trkpt><trkpt lat="34.334509500228855" lon="8.185744743465083"><ele>212.0</ele><time>2026-04-08T08:36:56.999Z</time></trkpt><trkpt lat="34.33454198424756" lon="8.18586459226379"><ele>211.83333333333334</ele><time>2026-04-08T08:36:57.999Z</time></trkpt><trkpt lat="34.33456499392045" lon="8.185978279744802"><ele>211.66666666666669</ele><time>2026-04-08T08:36:58.999Z</time></trkpt><trkpt lat="34.33458497396011" lon="8.186080743567034"><ele>211.5</ele><time>2026-04-08T08:36:59.999Z</time></trkpt><trkpt lat="34.334607769483966" lon="8.186181223050129"><ele>211.33333333333331</ele><time>2026-04-08T08:37:00.999Z</time></trkpt><trkpt lat="34.3346334783599" lon="8.186280455454826"><ele>211.16666666666666</ele><time>2026-04-08T08:37:01.999Z</time></trkpt><trkpt lat="34.33465524998499" lon="8.186379619756393"><ele>211.0</ele><time>2026-04-08T08:37:02.999Z</time></trkpt><trkpt lat="34.334680668882584" lon="8.186475152415886"><ele>210.83333333333331</ele><time>2026-04-08T08:37:03.999Z</time></trkpt><trkpt lat="34.33471084819517" lon="8.186572022846287"><ele>210.66666666666666</ele><time>2026-04-08T08:37:04.999Z</time></trkpt><trkpt lat="34.334735677049494" lon="8.186660456401615"><ele>210.5</ele><time>2026-04-08T08:37:05.999Z</time></trkpt><trkpt lat="34.33476773236045" lon="8.186754825044495"><ele>210.33333333333331</ele><time>2026-04-08T08:37:06.999Z</time></trkpt><trkpt lat="34.33480142054501" lon="8.186851028004128"><ele>210.16666666666666</ele><time>2026-04-08T08:37:07.999Z</time></trkpt><trkpt lat="34.33483182786863" lon="8.186949882798318"><ele>210.0</ele><time>2026-04-08T08:37:08.999Z</time></trkpt><trkpt lat="34.33485164658486" lon="8.187053960807388"><ele>214.8</ele><time>2026-04-08T08:37:09.999Z</time></trkpt><trkpt lat="34.334856068518974" lon="8.187166978549739"><ele>219.6</ele><time>2026-04-08T08:37:10.999Z</time></trkpt><trkpt lat="34.334840940123456" lon="8.187287220742292"><ele>224.39999999999998</ele><time>2026-04-08T08:37:11.999Z</time></trkpt><trkpt lat="34.33481065525203" lon="8.187403931456535"><ele>229.2</ele><time>2026-04-08T08:37:12.999Z</time></trkpt><trkpt lat="34.33477974589929" lon="8.187511118676152"><ele>234.0</ele><time>2026-04-08T08:37:13.999Z</time></trkpt><trkpt lat="34.33476476037941" lon="8.187593381681955"><ele>234.0</ele><time>2026-04-08T08:37:14.999Z</time></trkpt><trkpt lat="34.33478226656644" lon="8.187693206118627"><ele>233.99999999999997</ele><time>2026-04-08T08:37:16.999Z</time></trkpt><trkpt lat="34.334864417373495" lon="8.18771402158598"><ele>233.99999999999997</ele><time>2026-04-08T08:37:18.999Z</time></trkpt><trkpt lat="34.33491509014793" lon="8.18765913815164"><ele>234.0</ele><time>2026-04-08T08:37:19.999Z</time></trkpt><trkpt lat="34.33494438867403" lon="8.187558098573135"><ele>234.0</ele><time>2026-04-08T08:37:20.999Z</time></trkpt><trkpt lat="34.334975583947845" lon="8.187408638006199"><ele>235.75</ele><time>2026-04-08T08:37:21.999Z</time></trkpt><trkpt lat="34.335024851994355" lon="8.187226674836994"><ele>237.5</ele><time>2026-04-08T08:37:22.999Z</time></trkpt><trkpt lat="34.33508000606619" lon="8.187054518907138"><ele>239.25</ele><time>2026-04-08T08:37:23.999Z</time></trkpt><trkpt lat="34.335116093587146" lon="8.18693231579947"><ele>241.0</ele><time>2026-04-08T08:37:24.999Z</time></trkpt><trkpt lat="34.33511520991582" lon="8.186840462827478"><ele>241.0</ele><time>2026-04-08T08:37:25.999Z</time></trkpt><trkpt lat="34.33512771673524" lon="8.186719290250164"><ele>241.00000000000003</ele><time>2026-04-08T08:37:26.999Z</time></trkpt><trkpt lat="34.335131832368276" lon="8.18659839640404"><ele>241.00000000000003</ele><time>2026-04-08T08:37:27.999Z</time></trkpt><trkpt lat="34.335135183893996" lon="8.186480238970372"><ele>241.0</ele><time>2026-04-08T08:37:28.999Z</time></trkpt><trkpt lat="34.33515248831042" lon="8.186359564962821"><ele>241.0</ele><time>2026-04-08T08:37:29.999Z</time></trkpt><trkpt lat="34.335196325107795" lon="8.186238749091842"><ele>241.60000000000002</ele><time>2026-04-08T08:37:30.999Z</time></trkpt><trkpt lat="34.335251890207935" lon="8.186117373813211"><ele>242.20000000000002</ele><time>2026-04-08T08:37:31.999Z</time></trkpt><trkpt lat="34.335311767146806" lon="8.185998608563436"><ele>242.79999999999998</ele><time>2026-04-08T08:37:32.999Z</time></trkpt><trkpt lat="34.335343168038264" lon="8.185906663332718"><ele>243.39999999999998</ele><time>2026-04-08T08:37:33.999Z</time></trkpt><trkpt lat="34.33537692081459" lon="8.185803027087232"><ele>244.0</ele><time>2026-04-08T08:37:35.999Z</time></trkpt><trkpt lat="34.335471804371544" lon="8.185825218278678"><ele>244.0</ele><time>2026-04-08T08:37:38.999Z</time></trkpt><trkpt lat="34.33549263923681" lon="8.18591086010672"><ele>243.99999999999997</ele><time>2026-04-08T08:37:39.999Z</time></trkpt><trkpt lat="34.33547661346554" lon="8.186025014897382"><ele>243.99999999999997</ele><time>2026-04-08T08:37:40.999Z</time></trkpt><trkpt lat="34.33544932158809" lon="8.186122517803792"><ele>244.0</ele><time>2026-04-08T08:37:41.999Z</time></trkpt><trkpt lat="34.33545397587464" lon="8.186229485558925"><ele>244.0</ele><time>2026-04-08T08:37:43.999Z</time></trkpt><trkpt lat="34.33559835872228" lon="8.18617339515334"><ele>244.2</ele><time>2026-04-08T08:37:47.999Z</time></trkpt><trkpt lat="34.335612150132285" lon="8.186038974161727"><ele>244.39999999999998</ele><time>2026-04-08T08:37:48.999Z</time></trkpt><trkpt lat="34.335637101068585" lon="8.185912239015895"><ele>244.6</ele><time>2026-04-08T08:37:49.999Z</time></trkpt><trkpt lat="34.3356741926702" lon="8.185806410464295"><ele>244.8</ele><time>2026-04-08T08:37:50.999Z</time></trkpt><trkpt lat="34.33569814781941" lon="8.185731258655972"><ele>245.0</ele><time>2026-04-08T08:37:51.999Z</time></trkpt><trkpt lat="34.335720304522496" lon="8.185643849146912"><ele>249.00000000000003</ele><time>2026-04-08T08:37:52.999Z</time></trkpt><trkpt lat="34.335742205668" lon="8.185560744081414"><ele>253.0</ele><time>2026-04-08T08:37:53.999Z</time></trkpt><trkpt lat="34.33576652977874" lon="8.18546606019283"><ele>257.0</ele><time>2026-04-08T08:37:54.999Z</time></trkpt><trkpt lat="34.335797946454456" lon="8.185371333541749"><ele>261.0</ele><time>2026-04-08T08:37:55.999Z</time></trkpt><trkpt lat="34.33582728401531" lon="8.185278080066254"><ele>265.0</ele><time>2026-04-08T08:37:56.999Z</time></trkpt><trkpt lat="34.33585884958149" lon="8.185186906506075"><ele>269.0</ele><time>2026-04-08T08:37:57.999Z</time></trkpt><trkpt lat="34.33589328145261" lon="8.185095799466467"><ele>269.0</ele><time>2026-04-08T08:37:58.999Z</time></trkpt><trkpt lat="34.33593467078512" lon="8.185009959508445"><ele>269.0</ele><time>2026-04-08T08:37:59.999Z</time></trkpt><trkpt lat="34.3359767759857" lon="8.184936016540012"><ele>269.0</ele><time>2026-04-08T08:38:00.999Z</time></trkpt><trkpt lat="34.33601472945341" lon="8.184867648266454"><ele>269.0</ele><time>2026-04-08T08:38:01.999Z</time></trkpt><trkpt lat="34.33603797197235" lon="8.184779224370935"><ele>269.0</ele><time>2026-04-08T08:38:02.999Z</time></trkpt><trkpt lat="34.33606090052454" lon="8.184670176896832"><ele>269.0</ele><time>2026-04-08T08:38:03.999Z</time></trkpt><trkpt lat="34.3360725959408" lon="8.184568367062674"><ele>269.59999999999997</ele><time>2026-04-08T08:38:04.999Z</time></trkpt><trkpt lat="34.33608125504236" lon="8.184457503123207"><ele>270.2</ele><time>2026-04-08T08:38:05.999Z</time></trkpt><trkpt lat="34.33609964252323" lon="8.18433169409995"><ele>270.79999999999995</ele><time>2026-04-08T08:38:06.999Z</time></trkpt><trkpt lat="34.33612808254962" lon="8.184185200655127"><ele>271.4</ele><time>2026-04-08T08:38:07.999Z</time></trkpt><trkpt lat="34.33615281453563" lon="8.184070926123296"><ele>272.0</ele><time>2026-04-08T08:38:08.999Z</time></trkpt><trkpt lat="34.336170504828175" lon="8.18397879133172"><ele>272.0</ele><time>2026-04-08T08:38:09.999Z</time></trkpt><trkpt lat="34.336192038022794" lon="8.183903328945112"><ele>272.0</ele><time>2026-04-08T08:38:10.999Z</time></trkpt><trkpt lat="34.336231300439934" lon="8.183802315018298"><ele>272.0</ele><time>2026-04-08T08:38:12.999Z</time></trkpt><trkpt lat="34.33624526906869" lon="8.18369216840901"><ele>272.0</ele><time>2026-04-08T08:38:55Z</time></trkpt><trkpt lat="34.336297349038134" lon="8.183574885131241"><ele>272.0</ele><time>2026-04-08T08:38:57Z</time></trkpt><trkpt lat="34.33634725995468" lon="8.183476303140464"><ele>277.2</ele><time>2026-04-08T08:38:58Z</time></trkpt><trkpt lat="34.33640241117307" lon="8.183322009319049"><ele>282.4</ele><time>2026-04-08T08:38:59Z</time></trkpt><trkpt lat="34.336448461667544" lon="8.183184568836245"><ele>287.6</ele><time>2026-04-08T08:39:00Z</time></trkpt><trkpt lat="34.33648065179705" lon="8.18310715199931"><ele>292.8</ele><time>2026-04-08T08:39:01Z</time></trkpt><trkpt lat="34.33655343157751" lon="8.183055442735784"><ele>298.0</ele><time>2026-04-08T08:39:03Z</time></trkpt><trkpt lat="34.336626537157095" lon="8.183161278279972"><ele>298.2</ele><time>2026-04-08T08:39:05Z</time></trkpt><trkpt lat="34.33660768924011" lon="8.183263642694753"><ele>298.4</ele><time>2026-04-08T08:39:06Z</time></trkpt><trkpt lat="34.33656821702543" lon="8.183413222023514"><ele>298.59999999999997</ele><time>2026-04-08T08:39:07Z</time></trkpt><trkpt lat="34.33654597576718" lon="8.183564436802357"><ele>298.8</ele><time>2026-04-08T08:39:08Z</time></trkpt><trkpt lat="34.336540534308675" lon="8.183682630308143"><ele>299.0</ele><time>2026-04-08T08:39:09Z</time></trkpt><trkpt lat="34.33655724266249" lon="8.18381274275862"><ele>299.0</ele><time>2026-04-08T08:39:11Z</time></trkpt><trkpt lat="34.336640410527345" lon="8.183849808822888"><ele>299.0</ele><time>2026-04-08T08:39:13Z</time></trkpt><trkpt lat="34.33669477613046" lon="8.1838033334592"><ele>299.0</ele><time>2026-04-08T08:39:14Z</time></trkpt><trkpt lat="34.3367403655333" lon="8.18370648254722"><ele>299.0</ele><time>2026-04-08T08:39:14.999Z</time></trkpt><trkpt lat="34.336780447268026" lon="8.18356417926556"><ele>299.0</ele><time>2026-04-08T08:39:15.999Z</time></trkpt><trkpt lat="34.33683610644746" lon="8.183408479916437"><ele>299.0</ele><time>2026-04-08T08:39:16.999Z</time></trkpt><trkpt lat="34.336904592797" lon="8.183234258832986"><ele>299.0</ele><time>2026-04-08T08:39:17.999Z</time></trkpt><trkpt lat="34.336986858020566" lon="8.183051063811625"><ele>299.0</ele><time>2026-04-08T08:39:18.999Z</time></trkpt><trkpt lat="34.33707086482334" lon="8.182923143138908"><ele>298.8</ele><time>2026-04-08T08:39:19.999Z</time></trkpt><trkpt lat="34.33714525501836" lon="8.18280180266278"><ele>298.59999999999997</ele><time>2026-04-08T08:39:20.999Z</time></trkpt><trkpt lat="34.33718614933131" lon="8.18266847312995"><ele>298.4</ele><time>2026-04-08T08:39:21.999Z</time></trkpt><trkpt lat="34.337211839474705" lon="8.182539040130154"><ele>298.2</ele><time>2026-04-08T08:39:22.999Z</time></trkpt><trkpt lat="34.33724675531707" lon="8.182430155358103"><ele>298.0</ele><time>2026-04-08T08:39:23.999Z</time></trkpt><trkpt lat="34.33733441048347" lon="8.182346611668072"><ele>302.6</ele><time>2026-04-08T08:39:24.999Z</time></trkpt><trkpt lat="34.33741404007866" lon="8.1822172685026"><ele>307.20000000000005</ele><time>2026-04-08T08:39:25.999Z</time></trkpt><trkpt lat="34.33745202458377" lon="8.182100786727013"><ele>311.8</ele><time>2026-04-08T08:39:26.999Z</time></trkpt><trkpt lat="34.337514931319056" lon="8.1820196865777"><ele>316.40000000000003</ele><time>2026-04-08T08:39:27.999Z</time></trkpt><trkpt lat="34.33759389429767" lon="8.181980699190468"><ele>321.0</ele><time>2026-04-08T08:39:28.999Z</time></trkpt><trkpt lat="34.337692048357916" lon="8.181965937158122"><ele>321.0</ele><time>2026-04-08T08:39:29.999Z</time></trkpt><trkpt lat="34.33777120955265" lon="8.18195035411661"><ele>321.0</ele><time>2026-04-08T08:39:30.999Z</time></trkpt><trkpt lat="34.3378117504151" lon="8.181841851135937"><ele>321.0</ele><time>2026-04-08T08:39:32.999Z</time></trkpt><trkpt lat="34.3377954596913" lon="8.18173674272618"><ele>321.0</ele><time>2026-04-08T08:39:33.999Z</time></trkpt><trkpt lat="34.33777891176553" lon="8.181616041600083"><ele>321.0</ele><time>2026-04-08T08:39:34.999Z</time></trkpt><trkpt lat="34.337785147249214" lon="8.181491374880506"><ele>322.0</ele><time>2026-04-08T08:39:35.999Z</time></trkpt><trkpt lat="34.337809533565185" lon="8.181369467064032"><ele>323.0</ele><time>2026-04-08T08:39:36.999Z</time></trkpt><trkpt lat="34.33786209474413" lon="8.181239369106502"><ele>324.0</ele><time>2026-04-08T08:39:37.999Z</time></trkpt><trkpt lat="34.337917758393516" lon="8.181110195440914"><ele>325.0</ele><time>2026-04-08T08:39:38.999Z</time></trkpt><trkpt lat="34.33797931262219" lon="8.18098139144338"><ele>325.0</ele><time>2026-04-08T08:39:39.999Z</time></trkpt><trkpt lat="34.33805028425465" lon="8.180856661688475"><ele>325.0</ele><time>2026-04-08T08:39:40.999Z</time></trkpt><trkpt lat="34.33812452669583" lon="8.180739216895914"><ele>325.0</ele><time>2026-04-08T08:39:41.999Z</time></trkpt><trkpt lat="34.33821081868263" lon="8.180619796740565"><ele>325.0</ele><time>2026-04-08T08:39:42.999Z</time></trkpt><trkpt lat="34.33829785726046" lon="8.180499306160605"><ele>329.75</ele><time>2026-04-08T08:39:43.999Z</time></trkpt><trkpt lat="34.338387299823204" lon="8.180375664303797"><ele>334.5</ele><time>2026-04-08T08:39:44.999Z</time></trkpt><trkpt lat="34.338469169897536" lon="8.180256052103978"><ele>339.25</ele><time>2026-04-08T08:39:45.999Z</time></trkpt><trkpt lat="34.33855987585036" lon="8.180149318649338"><ele>344.0</ele><time>2026-04-08T08:39:46.999Z</time></trkpt><trkpt lat="34.33862801122675" lon="8.180081630416712"><ele>344.0</ele><time>2026-04-08T08:39:47.999Z</time></trkpt><trkpt lat="34.338704634699226" lon="8.180068052755914"><ele>344.0</ele><time>2026-04-08T08:39:49.999Z</time></trkpt><trkpt lat="34.33876929792902" lon="8.18019306994401"><ele>344.0</ele><time>2026-04-08T08:39:51.999Z</time></trkpt><trkpt lat="34.33878239966092" lon="8.180331457542998"><ele>344.0</ele><time>2026-04-08T08:39:52.999Z</time></trkpt><trkpt lat="34.33880432044339" lon="8.18049457465805"><ele>344.0</ele><time>2026-04-08T08:39:53.999Z</time></trkpt><trkpt lat="34.33883863576736" lon="8.180668392482966"><ele>344.0</ele><time>2026-04-08T08:39:54.999Z</time></trkpt><trkpt lat="34.338855765114545" lon="8.180809190608679"><ele>344.0</ele><time>2026-04-08T08:39:55.999Z</time></trkpt><trkpt lat="34.338875431098685" lon="8.18090830552811"><ele>344.0</ele><time>2026-04-08T08:39:56.999Z</time></trkpt><trkpt lat="34.338923086869414" lon="8.180989661416994"><ele>344.0</ele><time>2026-04-08T08:39:57.999Z</time></trkpt><trkpt lat="34.33899901850684" lon="8.181076160732626"><ele>348.4</ele><time>2026-04-08T08:39:58.999Z</time></trkpt><trkpt lat="34.33906083181494" lon="8.181162017258188"><ele>352.79999999999995</ele><time>2026-04-08T08:39:59.999Z</time></trkpt><trkpt lat="34.33907719137203" lon="8.181253247398063"><ele>357.20000000000005</ele><time>2026-04-08T08:40:00.999Z</time></trkpt><trkpt lat="34.33906101288369" lon="8.181379826908858"><ele>361.6</ele><time>2026-04-08T08:40:01.999Z</time></trkpt><trkpt lat="34.33904127477863" lon="8.181516820014595"><ele>366.0</ele><time>2026-04-08T08:40:02.999Z</time></trkpt><trkpt lat="34.339046068082475" lon="8.181678461139974"><ele>367.75</ele><time>2026-04-08T08:40:03.999Z</time></trkpt><trkpt lat="34.33907164499594" lon="8.18186368188191"><ele>369.5</ele><time>2026-04-08T08:40:04.999Z</time></trkpt><trkpt lat="34.3391092738797" lon="8.18199533573685"><ele>371.25</ele><time>2026-04-08T08:40:05.999Z</time></trkpt><trkpt lat="34.339169797865786" lon="8.182142938451548"><ele>373.0</ele><time>2026-04-08T08:40:06.999Z</time></trkpt><trkpt lat="34.339231031949744" lon="8.182250540810664"><ele>373.0</ele><time>2026-04-08T08:40:07.999Z</time></trkpt><trkpt lat="34.33928221452443" lon="8.182318921313621"><ele>373.0</ele><time>2026-04-08T08:40:08.999Z</time></trkpt><trkpt lat="34.33939016561538" lon="8.182343906753308"><ele>373.0</ele><time>2026-04-08T08:40:10.999Z</time></trkpt><trkpt lat="34.339459155034156" lon="8.182287882241091"><ele>373.0</ele><time>2026-04-08T08:40:11.999Z</time></trkpt><trkpt lat="34.33951476146543" lon="8.182187943147587"><ele>373.0</ele><time>2026-04-08T08:40:12.999Z</time></trkpt><trkpt lat="34.33956189987347" lon="8.18204520389955"><ele>373.0</ele><time>2026-04-08T08:40:13.999Z</time></trkpt><trkpt lat="34.33959694700712" lon="8.181929493518256"><ele>373.0</ele><time>2026-04-08T08:40:14.999Z</time></trkpt><trkpt lat="34.339604229927225" lon="8.181843668681854"><ele>373.0</ele><time>2026-04-08T08:40:17.999Z</time></trkpt><trkpt lat="34.33959396337694" lon="8.181919482556856"><ele>373.0</ele><time>2026-04-08T08:44:15.999Z</time></trkpt><trkpt lat="34.33962058957704" lon="8.182004726721487"><ele>373.0</ele><time>2026-04-08T08:44:22.999Z</time></trkpt><trkpt lat="34.3396831879915" lon="8.182030942024237"><ele>373.0</ele><time>2026-04-08T08:44:29.999Z</time></trkpt><trkpt lat="34.33973526457619" lon="8.182100084359712"><ele>372.7142857142857</ele><time>2026-04-08T08:44:34.999Z</time></trkpt><trkpt lat="34.339737894150865" lon="8.182180915978739"><ele>372.42857142857144</ele><time>2026-04-08T08:44:40.999Z</time></trkpt><trkpt lat="34.3397493451216" lon="8.182259532202742"><ele>372.1428571428571</ele><time>2026-04-08T08:44:48.999Z</time></trkpt><trkpt lat="34.33979687073167" lon="8.182313860332778"><ele>371.8571428571429</ele><time>2026-04-08T08:44:54.999Z</time></trkpt><trkpt lat="34.339845972280855" lon="8.182364496531225"><ele>371.57142857142856</ele><time>2026-04-08T08:45:05Z</time></trkpt><trkpt lat="34.33989870036882" lon="8.182423985240312"><ele>371.2857142857143</ele><time>2026-04-08T08:45:12Z</time></trkpt><trkpt lat="34.33994355189543" lon="8.182483399367547"><ele>371.0</ele><time>2026-04-08T08:45:18Z</time></trkpt><trkpt lat="34.339980413709206" lon="8.182555671513276"><ele>371.0</ele><time>2026-04-08T08:45:27Z</time></trkpt><trkpt lat="34.33993735022478" lon="8.182498728419628"><ele>371.0</ele><time>2026-04-08T08:49:25.998Z</time></trkpt><trkpt lat="34.33991146433662" lon="8.182422450308078"><ele>371.0</ele><time>2026-04-08T08:49:58.999Z</time></trkpt><trkpt lat="34.33987872513691" lon="8.182351473143804"><ele>371.0</ele><time>2026-04-08T08:50:18.999Z</time></trkpt><trkpt lat="34.33984474861803" lon="8.182284334984956"><ele>371.0</ele><time>2026-04-08T08:50:25.999Z</time></trkpt><trkpt lat="34.33980168986042" lon="8.182220498266007"><ele>371.0</ele><time>2026-04-08T08:50:31.999Z</time></trkpt><trkpt lat="34.33975572863237" lon="8.18216313751059"><ele>371.0</ele><time>2026-04-08T08:50:37.999Z</time></trkpt><trkpt lat="34.33972443538495" lon="8.182080663187364"><ele>371.33333333333337</ele><time>2026-04-08T08:50:43.999Z</time></trkpt><trkpt lat="34.33969179113028" lon="8.182005991667664"><ele>371.6666666666667</ele><time>2026-04-08T08:50:49.999Z</time></trkpt><trkpt lat="34.339653263489424" lon="8.181944946456625"><ele>372.0</ele><time>2026-04-08T08:50:56.999Z</time></trkpt><trkpt lat="34.33961215265483" lon="8.181874945453327"><ele>372.3333333333333</ele><time>2026-04-08T08:51:46.999Z</time></trkpt><trkpt lat="34.33964846856395" lon="8.181781459395294"><ele>372.66666666666663</ele><time>2026-04-08T08:54:36Z</time></trkpt><trkpt lat="34.33968973748339" lon="8.181670241504944"><ele>373.0</ele><time>2026-04-08T08:54:37Z</time></trkpt><trkpt lat="34.339756045912395" lon="8.181502471325864"><ele>377.25</ele><time>2026-04-08T08:54:38Z</time></trkpt><trkpt lat="34.3398295133152" lon="8.181335465652365"><ele>381.5</ele><time>2026-04-08T08:54:39Z</time></trkpt><trkpt lat="34.339893226952896" lon="8.181217150090749"><ele>385.75</ele><time>2026-04-08T08:54:40Z</time></trkpt><trkpt lat="34.339976308285344" lon="8.181107960572998"><ele>390.0</ele><time>2026-04-08T08:54:41Z</time></trkpt><trkpt lat="34.34008824647564" lon="8.180986767648081"><ele>390.0</ele><time>2026-04-08T08:54:42Z</time></trkpt><trkpt lat="34.3401888251378" lon="8.1808856332572"><ele>390.0</ele><time>2026-04-08T08:54:43Z</time></trkpt><trkpt lat="34.34025686182678" lon="8.18080197565432"><ele>390.0</ele><time>2026-04-08T08:54:44Z</time></trkpt><trkpt lat="34.34031850729268" lon="8.180720227223157"><ele>390.0</ele><time>2026-04-08T08:54:45Z</time></trkpt><trkpt lat="34.3403920983219" lon="8.180627715982904"><ele>390.0</ele><time>2026-04-08T08:54:46Z</time></trkpt><trkpt lat="34.34047404636285" lon="8.180547545820216"><ele>392.75</ele><time>2026-04-08T08:54:47Z</time></trkpt><trkpt lat="34.34059684367932" lon="8.180470182676983"><ele>395.5</ele><time>2026-04-08T08:54:48Z</time></trkpt><trkpt lat="34.340722182017075" lon="8.180375228610915"><ele>398.25</ele><time>2026-04-08T08:54:49Z</time></trkpt><trkpt lat="34.34083236801941" lon="8.180289297247551"><ele>401.0</ele><time>2026-04-08T08:54:50Z</time></trkpt><trkpt lat="34.34091842240669" lon="8.180227504536395"><ele>401.0</ele><time>2026-04-08T08:54:51Z</time></trkpt><trkpt lat="34.34099702688461" lon="8.180171029591769"><ele>401.0</ele><time>2026-04-08T08:54:52Z</time></trkpt><trkpt lat="34.34107513339222" lon="8.180104100201056"><ele>401.0</ele><time>2026-04-08T08:54:53Z</time></trkpt><trkpt lat="34.34113288742695" lon="8.180025595717273"><ele>401.0</ele><time>2026-04-08T08:54:54Z</time></trkpt><trkpt lat="34.341174545164" lon="8.179933254040469"><ele>401.0</ele><time>2026-04-08T08:54:55Z</time></trkpt><trkpt lat="34.34119476084597" lon="8.17982426825377"><ele>402.20000000000005</ele><time>2026-04-08T08:54:56Z</time></trkpt><trkpt lat="34.34119307373354" lon="8.179699812609126"><ele>403.40000000000003</ele><time>2026-04-08T08:54:57Z</time></trkpt><trkpt lat="34.34117235886617" lon="8.179556269798018"><ele>404.6</ele><time>2026-04-08T08:54:58Z</time></trkpt><trkpt lat="34.34114503725729" lon="8.17941971913635"><ele>405.8</ele><time>2026-04-08T08:54:59Z</time></trkpt><trkpt lat="34.341133923929824" lon="8.179305174631105"><ele>407.0</ele><time>2026-04-08T08:55:00Z</time></trkpt><trkpt lat="34.34114226265199" lon="8.179177837295242"><ele>407.0</ele><time>2026-04-08T08:55:01Z</time></trkpt><trkpt lat="34.341168707441895" lon="8.179032634089479"><ele>407.0</ele><time>2026-04-08T08:55:02Z</time></trkpt><trkpt lat="34.34121564685695" lon="8.17888083556467"><ele>407.0</ele><time>2026-04-08T08:55:03Z</time></trkpt><trkpt lat="34.3412649077877" lon="8.178743894889632"><ele>407.0</ele><time>2026-04-08T08:55:04Z</time></trkpt><trkpt lat="34.341313629380146" lon="8.178625532360277"><ele>406.8</ele><time>2026-04-08T08:55:05Z</time></trkpt><trkpt lat="34.341364327460646" lon="8.178533215579906"><ele>406.6</ele><time>2026-04-08T08:55:06Z</time></trkpt><trkpt lat="34.34143023097841" lon="8.178459463022207"><ele>406.40000000000003</ele><time>2026-04-08T08:55:07Z</time></trkpt><trkpt lat="34.341509599743524" lon="8.17839551089075"><ele>406.20000000000005</ele><time>2026-04-08T08:55:08Z</time></trkpt><trkpt lat="34.34160716537298" lon="8.17833047739872"><ele>406.0</ele><time>2026-04-08T08:55:09Z</time></trkpt><trkpt lat="34.341706852257126" lon="8.178275467256352"><ele>409.25</ele><time>2026-04-08T08:55:10Z</time></trkpt><trkpt lat="34.34181198973266" lon="8.178223710629384"><ele>412.5</ele><time>2026-04-08T08:55:11Z</time></trkpt><trkpt lat="34.34191956721974" lon="8.17817515328567"><ele>415.75</ele><time>2026-04-08T08:55:12Z</time></trkpt><trkpt lat="34.342033846025934" lon="8.178101274117399"><ele>419.0</ele><time>2026-04-08T08:55:13Z</time></trkpt><trkpt lat="34.342154924179674" lon="8.17799317730621"><ele>423.25</ele><time>2026-04-08T08:55:14Z</time></trkpt><trkpt lat="34.342253884204716" lon="8.1778921293034"><ele>427.5</ele><time>2026-04-08T08:55:15Z</time></trkpt><trkpt lat="34.34234003015673" lon="8.17778999711382"><ele>431.75</ele><time>2026-04-08T08:55:16Z</time></trkpt><trkpt lat="34.34241009068003" lon="8.177690670376162"><ele>436.0</ele><time>2026-04-08T08:55:17Z</time></trkpt><trkpt lat="34.342450766658125" lon="8.177581408572719"><ele>436.0</ele><time>2026-04-08T08:55:18Z</time></trkpt><trkpt lat="34.342472825758094" lon="8.177456532791796"><ele>436.0</ele><time>2026-04-08T08:55:19Z</time></trkpt><trkpt lat="34.34247852128429" lon="8.177317309592691"><ele>436.0</ele><time>2026-04-08T08:55:20Z</time></trkpt><trkpt lat="34.342490107469295" lon="8.177197573087437"><ele>436.0</ele><time>2026-04-08T08:55:21Z</time></trkpt><trkpt lat="34.342515497857086" lon="8.177103344393363"><ele>436.0</ele><time>2026-04-08T08:55:22Z</time></trkpt><trkpt lat="34.342557841599614" lon="8.17700980510163"><ele>436.0</ele><time>2026-04-08T08:55:23Z</time></trkpt><trkpt lat="34.34261595137057" lon="8.176889622063973"><ele>436.0</ele><time>2026-04-08T08:55:24Z</time></trkpt><trkpt lat="34.34267365071938" lon="8.176756038880447"><ele>436.0</ele><time>2026-04-08T08:55:25Z</time></trkpt><trkpt lat="34.34273639186451" lon="8.176616149210908"><ele>436.0</ele><time>2026-04-08T08:55:26Z</time></trkpt><trkpt lat="34.34280939682077" lon="8.176483222667544"><ele>436.6</ele><time>2026-04-08T08:55:27Z</time></trkpt><trkpt lat="34.34287182524638" lon="8.176338764186458"><ele>437.20000000000005</ele><time>2026-04-08T08:55:28Z</time></trkpt><trkpt lat="34.34291276669246" lon="8.176201511705711"><ele>437.79999999999995</ele><time>2026-04-08T08:55:29.001Z</time></trkpt><trkpt lat="34.34294382148238" lon="8.176088169139193"><ele>438.4</ele><time>2026-04-08T08:55:30.001Z</time></trkpt><trkpt lat="34.34297585893381" lon="8.17599304628551"><ele>439.0</ele><time>2026-04-08T08:55:31.001Z</time></trkpt><trkpt lat="34.342995869239154" lon="8.175905442025142"><ele>439.0</ele><time>2026-04-08T08:55:32.001Z</time></trkpt><trkpt lat="34.343017385484806" lon="8.175823805014874"><ele>439.0</ele><time>2026-04-08T08:55:33.001Z</time></trkpt><trkpt lat="34.3430642364712" lon="8.175710252044535"><ele>439.0</ele><time>2026-04-08T08:55:35.001Z</time></trkpt><trkpt lat="34.34311363564928" lon="8.175655596328916"><ele>439.0</ele><time>2026-04-08T08:55:37.001Z</time></trkpt><trkpt lat="34.34320476335838" lon="8.17559352033778"><ele>439.0</ele><time>2026-04-08T08:55:40Z</time></trkpt><trkpt lat="34.34331544782805" lon="8.175559084261362"><ele>439.79999999999995</ele><time>2026-04-08T08:55:42Z</time></trkpt><trkpt lat="34.34342445731323" lon="8.175568021763898"><ele>440.59999999999997</ele><time>2026-04-08T08:55:44Z</time></trkpt><trkpt lat="34.34351960318651" lon="8.175615777169774"><ele>441.4</ele><time>2026-04-08T08:55:46Z</time></trkpt><trkpt lat="34.343620618336324" lon="8.175714703364376"><ele>442.2</ele><time>2026-04-08T08:55:48Z</time></trkpt><trkpt lat="34.34368409300055" lon="8.17579073172065"><ele>443.0</ele><time>2026-04-08T08:55:49Z</time></trkpt><trkpt lat="34.34376494681154" lon="8.17588427791701"><ele>443.0</ele><time>2026-04-08T08:55:50Z</time></trkpt><trkpt lat="34.343849616399844" lon="8.175983778990457"><ele>442.99999999999994</ele><time>2026-04-08T08:55:51Z</time></trkpt><trkpt lat="34.34392895122431" lon="8.176062106989137"><ele>442.99999999999994</ele><time>2026-04-08T08:55:52Z</time></trkpt><trkpt lat="34.343991018303186" lon="8.176127844333545"><ele>443.0</ele><time>2026-04-08T08:55:53Z</time></trkpt><trkpt lat="34.34405792622518" lon="8.17619171875587"><ele>443.0</ele><time>2026-04-08T08:55:54Z</time></trkpt><trkpt lat="34.34413560243012" lon="8.176265271034714"><ele>443.59999999999997</ele><time>2026-04-08T08:55:55Z</time></trkpt><trkpt lat="34.34421403511296" lon="8.176347417007696"><ele>444.19999999999993</ele><time>2026-04-08T08:55:56Z</time></trkpt><trkpt lat="34.34428533762397" lon="8.176426508399134"><ele>444.8</ele><time>2026-04-08T08:55:57Z</time></trkpt><trkpt lat="34.34433356006124" lon="8.176515767032301"><ele>445.4</ele><time>2026-04-08T08:55:58Z</time></trkpt><trkpt lat="34.34436790718667" lon="8.176618131818008"><ele>446.0</ele><time>2026-04-08T08:55:59Z</time></trkpt><trkpt lat="34.34439240213926" lon="8.176734375860418"><ele>446.0</ele><time>2026-04-08T08:56:00Z</time></trkpt><trkpt lat="34.34441198016249" lon="8.176866815893339"><ele>446.0</ele><time>2026-04-08T08:56:01Z</time></trkpt><trkpt lat="34.34444108908594" lon="8.177003434002915"><ele>446.0</ele><time>2026-04-08T08:56:02Z</time></trkpt><trkpt lat="34.34446857936623" lon="8.177123739746246"><ele>446.0</ele><time>2026-04-08T08:56:03Z</time></trkpt><trkpt lat="34.34448713882914" lon="8.177224122780403"><ele>446.0</ele><time>2026-04-08T08:56:04Z</time></trkpt><trkpt lat="34.34453424796875" lon="8.177366714260707"><ele>444.8</ele><time>2026-04-08T08:56:06Z</time></trkpt><trkpt lat="34.344614984389274" lon="8.17744271573473"><ele>443.6</ele><time>2026-04-08T08:56:08Z</time></trkpt><trkpt lat="34.344704714578874" lon="8.177389319926357"><ele>442.4</ele><time>2026-04-08T08:56:10Z</time></trkpt><trkpt lat="34.3447280316669" lon="8.177314639309785"><ele>441.2</ele><time>2026-04-08T08:56:11Z</time></trkpt><trkpt lat="34.34474248572993" lon="8.177171485248923"><ele>440.0</ele><time>2026-04-08T08:56:13Z</time></trkpt><trkpt lat="34.34476757068905" lon="8.177034195322078"><ele>443.2</ele><time>2026-04-08T08:56:15Z</time></trkpt><trkpt lat="34.34479073615196" lon="8.176921166119369"><ele>446.4</ele><time>2026-04-08T08:56:17Z</time></trkpt><trkpt lat="34.344809669549484" lon="8.176818953276646"><ele>449.6</ele><time>2026-04-08T08:56:20Z</time></trkpt><trkpt lat="34.34482074621186" lon="8.17668812440527"><ele>452.8</ele><time>2026-04-08T08:58:15Z</time></trkpt><trkpt lat="34.344846870684954" lon="8.17659044008714"><ele>456.0</ele><time>2026-04-08T08:58:16Z</time></trkpt><trkpt lat="34.344889615671235" lon="8.17646686696156"><ele>458.25</ele><time>2026-04-08T08:58:17Z</time></trkpt><trkpt lat="34.344952301060765" lon="8.176356112348188"><ele>460.5</ele><time>2026-04-08T08:58:18Z</time></trkpt><trkpt lat="34.345052978368706" lon="8.17623228341207"><ele>462.75</ele><time>2026-04-08T08:58:19Z</time></trkpt><trkpt lat="34.34518508389567" lon="8.17612645776498"><ele>465.0</ele><time>2026-04-08T08:58:20Z</time></trkpt><trkpt lat="34.345286857428825" lon="8.176074026996167"><ele>465.0</ele><time>2026-04-08T08:58:21Z</time></trkpt><trkpt lat="34.34535084292416" lon="8.17602470552893"><ele>465.0</ele><time>2026-04-08T08:58:22Z</time></trkpt><trkpt lat="34.34540443915727" lon="8.175930904053367"><ele>465.0</ele><time>2026-04-08T08:58:23Z</time></trkpt><trkpt lat="34.345481707867805" lon="8.175799811131235"><ele>465.0</ele><time>2026-04-08T08:58:24Z</time></trkpt><trkpt lat="34.345548347658124" lon="8.175685468188426"><ele>465.0</ele><time>2026-04-08T08:58:25Z</time></trkpt><trkpt lat="34.345624081882384" lon="8.17558945959944"><ele>468.75</ele><time>2026-04-08T08:58:26Z</time></trkpt><trkpt lat="34.34572939571096" lon="8.175496464848358"><ele>472.5</ele><time>2026-04-08T08:58:27Z</time></trkpt><trkpt lat="34.34582799359033" lon="8.17543923678919"><ele>476.25</ele><time>2026-04-08T08:58:28Z</time></trkpt><trkpt lat="34.345942537489876" lon="8.175403905734608"><ele>480.0</ele><time>2026-04-08T08:58:29Z</time></trkpt><trkpt lat="34.346066824203724" lon="8.175388107071557"><ele>480.0</ele><time>2026-04-08T08:58:30Z</time></trkpt><trkpt lat="34.34620799852412" lon="8.17539202982418"><ele>480.0</ele><time>2026-04-08T08:58:31Z</time></trkpt><trkpt lat="34.34636087038566" lon="8.175408899226175"><ele>480.0</ele><time>2026-04-08T08:58:32Z</time></trkpt><trkpt lat="34.34649202360426" lon="8.17544589356841"><ele>480.0</ele><time>2026-04-08T08:58:33Z</time></trkpt><trkpt lat="34.3465905110446" lon="8.175458261697834"><ele>480.4</ele><time>2026-04-08T08:58:34Z</time></trkpt><trkpt lat="34.34666682322723" lon="8.175482974442941"><ele>480.8</ele><time>2026-04-08T08:58:35Z</time></trkpt><trkpt lat="34.34673082378001" lon="8.17554646079184"><ele>481.20000000000005</ele><time>2026-04-08T08:58:36Z</time></trkpt><trkpt lat="34.346778568008205" lon="8.175648762234204"><ele>481.6</ele><time>2026-04-08T08:58:37Z</time></trkpt><trkpt lat="34.34680719613235" lon="8.175776978884091"><ele>482.0</ele><time>2026-04-08T08:58:38Z</time></trkpt><trkpt lat="34.346827572212845" lon="8.175915234705542"><ele>481.16666666666663</ele><time>2026-04-08T08:58:39Z</time></trkpt><trkpt lat="34.3468404562183" lon="8.176020635324017"><ele>480.3333333333333</ele><time>2026-04-08T08:58:40Z</time></trkpt><trkpt lat="34.346856001139685" lon="8.176121584187554"><ele>479.5</ele><time>2026-04-08T08:58:41Z</time></trkpt><trkpt lat="34.346874924390974" lon="8.176204062467916"><ele>478.66666666666663</ele><time>2026-04-08T08:58:42Z</time></trkpt><trkpt lat="34.34698345076454" lon="8.176274648035703"><ele>477.8333333333333</ele><time>2026-04-08T08:58:44Z</time></trkpt><trkpt lat="34.34706543028087" lon="8.176272373753804"><ele>477.0</ele><time>2026-04-08T08:58:45Z</time></trkpt><trkpt lat="34.3471296935393" lon="8.176237804198239"><ele>477.0</ele><time>2026-04-08T08:58:46Z</time></trkpt><trkpt lat="34.347195775124504" lon="8.17608573826307"><ele>477.0</ele><time>2026-04-08T08:58:48Z</time></trkpt><trkpt lat="34.34719645454861" lon="8.175923550840047"><ele>477.0</ele><time>2026-04-08T08:58:49Z</time></trkpt><trkpt lat="34.347190840580566" lon="8.175731124604743"><ele>477.0</ele><time>2026-04-08T08:58:50Z</time></trkpt><trkpt lat="34.34718842190399" lon="8.175536965680507"><ele>477.6</ele><time>2026-04-08T08:58:51Z</time></trkpt><trkpt lat="34.347186138584746" lon="8.17537309647732"><ele>478.20000000000005</ele><time>2026-04-08T08:58:52Z</time></trkpt><trkpt lat="34.347175482089014" lon="8.175247005686805"><ele>478.8</ele><time>2026-04-08T08:58:53Z</time></trkpt><trkpt lat="34.3471812684753" lon="8.175144394140931"><ele>479.4</ele><time>2026-04-08T08:58:54Z</time></trkpt><trkpt lat="34.34721532724838" lon="8.175039867633757"><ele>480.0</ele><time>2026-04-08T08:58:55Z</time></trkpt><trkpt lat="34.34728097669294" lon="8.174960088110108"><ele>480.0</ele><time>2026-04-08T08:58:56Z</time></trkpt><trkpt lat="34.34736527868922" lon="8.174899618022732"><ele>480.0</ele><time>2026-04-08T08:58:57Z</time></trkpt><trkpt lat="34.347466451332544" lon="8.17488044680977"><ele>480.0</ele><time>2026-04-08T08:58:58Z</time></trkpt><trkpt lat="34.347568198343005" lon="8.174892207650565"><ele>480.0</ele><time>2026-04-08T08:58:59Z</time></trkpt><trkpt lat="34.34766960504628" lon="8.17494691112331"><ele>480.0</ele><time>2026-04-08T08:59:00Z</time></trkpt><trkpt lat="34.34776397207838" lon="8.175044837762668"><ele>480.0</ele><time>2026-04-08T08:59:01Z</time></trkpt><trkpt lat="34.34785393624514" lon="8.175175874416922"><ele>480.0</ele><time>2026-04-08T08:59:02Z</time></trkpt><trkpt lat="34.34792872446758" lon="8.175304208318648"><ele>480.0</ele><time>2026-04-08T08:59:03Z</time></trkpt><trkpt lat="34.348002606790516" lon="8.175437679571427"><ele>480.0</ele><time>2026-04-08T08:59:04Z</time></trkpt><trkpt lat="34.348092505062695" lon="8.175573868293762"><ele>480.25</ele><time>2026-04-08T08:59:05Z</time></trkpt><trkpt lat="34.34819198060409" lon="8.175721658528266"><ele>480.5</ele><time>2026-04-08T08:59:06Z</time></trkpt><trkpt lat="34.3482961468333" lon="8.175853821585324"><ele>480.75</ele><time>2026-04-08T08:59:07Z</time></trkpt><trkpt lat="34.34839682296562" lon="8.175948920425434"><ele>481.0</ele><time>2026-04-08T08:59:08Z</time></trkpt><trkpt lat="34.34848802779051" lon="8.176036770862613"><ele>481.0</ele><time>2026-04-08T08:59:09Z</time></trkpt><trkpt lat="34.348560458384654" lon="8.176125088970423"><ele>481.0</ele><time>2026-04-08T08:59:10Z</time></trkpt><trkpt lat="34.348614069044814" lon="8.176219037968915"><ele>481.0</ele><time>2026-04-08T08:59:11Z</time></trkpt><trkpt lat="34.34864176234294" lon="8.176342125823895"><ele>481.0</ele><time>2026-04-08T08:59:12Z</time></trkpt><trkpt lat="34.348656452834256" lon="8.176511046172024"><ele>481.0</ele><time>2026-04-08T08:59:13Z</time></trkpt><trkpt lat="34.34864444658872" lon="8.176694261631175"><ele>479.25</ele><time>2026-04-08T08:59:14Z</time></trkpt><trkpt lat="34.34862299640132" lon="8.176869433852252"><ele>477.5</ele><time>2026-04-08T08:59:15Z</time></trkpt><trkpt lat="34.348602338984634" lon="8.177034737177177"><ele>475.75</ele><time>2026-04-08T08:59:16Z</time></trkpt><trkpt lat="34.34861305509682" lon="8.177211623122599"><ele>474.0</ele><time>2026-04-08T08:59:17Z</time></trkpt><trkpt lat="34.3486424376638" lon="8.17741093914872"><ele>473.0</ele><time>2026-04-08T08:59:18Z</time></trkpt><trkpt lat="34.348685906724704" lon="8.177625738945848"><ele>472.0</ele><time>2026-04-08T08:59:19Z</time></trkpt><trkpt lat="34.34873572139537" lon="8.177821929615368"><ele>471.0</ele><time>2026-04-08T08:59:20Z</time></trkpt><trkpt lat="34.34877457326801" lon="8.17798719235509"><ele>471.0</ele><time>2026-04-08T08:59:21Z</time></trkpt><trkpt lat="34.34880691225125" lon="8.178130281923506"><ele>471.0</ele><time>2026-04-08T08:59:22Z</time></trkpt><trkpt lat="34.34884029730815" lon="8.178256570698059"><ele>471.0</ele><time>2026-04-08T08:59:23Z</time></trkpt><trkpt lat="34.34888066581099" lon="8.178370818148174"><ele>471.0</ele><time>2026-04-08T08:59:24Z</time></trkpt><trkpt lat="34.348928216505826" lon="8.178468397351644"><ele>471.0</ele><time>2026-04-08T08:59:25Z</time></trkpt><trkpt lat="34.34897597176773" lon="8.178573018936483"><ele>470.75</ele><time>2026-04-08T08:59:26Z</time></trkpt><trkpt lat="34.34901133704581" lon="8.178700264030487"><ele>470.5</ele><time>2026-04-08T08:59:27Z</time></trkpt><trkpt lat="34.34903388076301" lon="8.178854998510541"><ele>470.25</ele><time>2026-04-08T08:59:28Z</time></trkpt><trkpt lat="34.349062970721214" lon="8.179041457708422"><ele>470.0</ele><time>2026-04-08T08:59:29Z</time></trkpt><trkpt lat="34.34910257506721" lon="8.179252693290946"><ele>470.0</ele><time>2026-04-08T08:59:30Z</time></trkpt><trkpt lat="34.349145458416444" lon="8.179460299814272"><ele>470.0</ele><time>2026-04-08T08:59:31Z</time></trkpt><trkpt lat="34.34919076782293" lon="8.179660320884887"><ele>470.0</ele><time>2026-04-08T08:59:32Z</time></trkpt><trkpt lat="34.34924912938866" lon="8.17986538578467"><ele>469.66666666666663</ele><time>2026-04-08T08:59:33Z</time></trkpt><trkpt lat="34.349334180754695" lon="8.180101550526661"><ele>469.33333333333337</ele><time>2026-04-08T08:59:34Z</time></trkpt><trkpt lat="34.349414795868036" lon="8.180315183563392"><ele>469.0</ele><time>2026-04-08T08:59:35Z</time></trkpt><trkpt lat="34.34949102219039" lon="8.180521090765865"><ele>468.6666666666667</ele><time>2026-04-08T08:59:36Z</time></trkpt><trkpt lat="34.349564049400996" lon="8.180725846839254"><ele>468.33333333333337</ele><time>2026-04-08T08:59:37Z</time></trkpt><trkpt lat="34.3496352255499" lon="8.180943765536485"><ele>468.0</ele><time>2026-04-08T08:59:38Z</time></trkpt><trkpt lat="34.349691702611736" lon="8.181157012582247"><ele>469.75</ele><time>2026-04-08T08:59:39Z</time></trkpt><trkpt lat="34.34973192285584" lon="8.181344956863025"><ele>471.5</ele><time>2026-04-08T08:59:40Z</time></trkpt><trkpt lat="34.349773688833174" lon="8.18150347739443"><ele>473.25</ele><time>2026-04-08T08:59:41Z</time></trkpt><trkpt lat="34.34980405036618" lon="8.181640958798335"><ele>475.0</ele><time>2026-04-08T08:59:42Z</time></trkpt><trkpt lat="34.349839671055626" lon="8.181754222903756"><ele>475.0</ele><time>2026-04-08T08:59:43Z</time></trkpt><trkpt lat="34.34989819480419" lon="8.18186169881961"><ele>475.0</ele><time>2026-04-08T08:59:44Z</time></trkpt><trkpt lat="34.34996027606808" lon="8.181954926811391"><ele>475.0</ele><time>2026-04-08T08:59:45Z</time></trkpt><trkpt lat="34.35002657605122" lon="8.182031605252433"><ele>475.0</ele><time>2026-04-08T08:59:46Z</time></trkpt><trkpt lat="34.35010693119656" lon="8.182106627598612"><ele>475.0</ele><time>2026-04-08T08:59:47Z</time></trkpt><trkpt lat="34.35017471552177" lon="8.182184854511462"><ele>475.00000000000006</ele><time>2026-04-08T08:59:48Z</time></trkpt><trkpt lat="34.3502196350117" lon="8.182253666857255"><ele>475.0</ele><time>2026-04-08T08:59:49Z</time></trkpt><trkpt lat="34.35026062178078" lon="8.182333112436611"><ele>475.0</ele><time>2026-04-08T08:59:50Z</time></trkpt><trkpt lat="34.35030154548617" lon="8.182422088109593"><ele>475.0</ele><time>2026-04-08T08:59:51Z</time></trkpt><trkpt lat="34.35033426739498" lon="8.182515446192703"><ele>475.00000000000006</ele><time>2026-04-08T08:59:52Z</time></trkpt><trkpt lat="34.35037372014704" lon="8.18260898286147"><ele>475.0</ele><time>2026-04-08T08:59:53Z</time></trkpt><trkpt lat="34.35043137669987" lon="8.18270116873193"><ele>474.6</ele><time>2026-04-08T08:59:54Z</time></trkpt><trkpt lat="34.35048287223795" lon="8.18277397618287"><ele>474.2</ele><time>2026-04-08T08:59:55Z</time></trkpt><trkpt lat="34.35058216691052" lon="8.1828121754237"><ele>473.79999999999995</ele><time>2026-04-08T08:59:57Z</time></trkpt><trkpt lat="34.35070161947505" lon="8.18275802943349"><ele>473.4</ele><time>2026-04-08T08:59:59Z</time></trkpt><trkpt lat="34.35079740314902" lon="8.182682816182593"><ele>473.0</ele><time>2026-04-08T09:00:00Z</time></trkpt><trkpt lat="34.35090756674109" lon="8.182581658844285"><ele>475.4</ele><time>2026-04-08T09:00:01Z</time></trkpt><trkpt lat="34.35099323985648" lon="8.18249948310899"><ele>477.79999999999995</ele><time>2026-04-08T09:00:02Z</time></trkpt><trkpt lat="34.351033034167635" lon="8.18241300062369"><ele>480.2</ele><time>2026-04-08T09:00:03Z</time></trkpt><trkpt lat="34.35106232641583" lon="8.182325058106267"><ele>482.6</ele><time>2026-04-08T09:00:04Z</time></trkpt><trkpt lat="34.35108147347978" lon="8.182206570975744"><ele>485.0</ele><time>2026-04-08T09:00:05Z</time></trkpt><trkpt lat="34.351097123136945" lon="8.182094700330413"><ele>485.49999999999994</ele><time>2026-04-08T09:00:06Z</time></trkpt><trkpt lat="34.35111564118209" lon="8.18199317916"><ele>486.0</ele><time>2026-04-08T09:00:07Z</time></trkpt><trkpt lat="34.351152314337476" lon="8.181895473197939"><ele>486.5</ele><time>2026-04-08T09:00:08Z</time></trkpt><trkpt lat="34.35120733568115" lon="8.181811514700389"><ele>487.0</ele><time>2026-04-08T09:00:09Z</time></trkpt><trkpt lat="34.35126334105717" lon="8.181734356181726"><ele>487.49999999999994</ele><time>2026-04-08T09:00:10Z</time></trkpt><trkpt lat="34.35132267889576" lon="8.181655950976845"><ele>488.0</ele><time>2026-04-08T09:00:11Z</time></trkpt><trkpt lat="34.35140403196277" lon="8.181607150416031"><ele>489.66666666666663</ele><time>2026-04-08T09:00:12Z</time></trkpt><trkpt lat="34.35147603159632" lon="8.181555290278133"><ele>491.3333333333333</ele><time>2026-04-08T09:00:13Z</time></trkpt><trkpt lat="34.3515330173964" lon="8.181480243958998"><ele>493.0</ele><time>2026-04-08T09:00:14Z</time></trkpt><trkpt lat="34.35158616887062" lon="8.18138303592936"><ele>494.66666666666663</ele><time>2026-04-08T09:00:15Z</time></trkpt><trkpt lat="34.351630341705565" lon="8.181290299770225"><ele>496.3333333333333</ele><time>2026-04-08T09:00:16Z</time></trkpt><trkpt lat="34.35167217193209" lon="8.18119388518471"><ele>498.0</ele><time>2026-04-08T09:00:17Z</time></trkpt><trkpt lat="34.3517120552182" lon="8.181066165386241"><ele>498.75</ele><time>2026-04-08T09:00:18Z</time></trkpt><trkpt lat="34.3517550526953" lon="8.180909401241326"><ele>499.5</ele><time>2026-04-08T09:00:19Z</time></trkpt><trkpt lat="34.351783553079976" lon="8.180723184625249"><ele>500.25</ele><time>2026-04-08T09:00:20Z</time></trkpt><trkpt lat="34.351811477134476" lon="8.180544121439437"><ele>501.0</ele><time>2026-04-08T09:00:21Z</time></trkpt><trkpt lat="34.351833684760564" lon="8.180389154957863"><ele>501.4</ele><time>2026-04-08T09:00:22Z</time></trkpt><trkpt lat="34.35185325271241" lon="8.180240829524864"><ele>501.8</ele><time>2026-04-08T09:00:23Z</time></trkpt><trkpt lat="34.35187895511113" lon="8.180109914473805"><ele>502.19999999999993</ele><time>2026-04-08T09:00:24Z</time></trkpt><trkpt lat="34.351898292478396" lon="8.179982743265331"><ele>502.59999999999997</ele><time>2026-04-08T09:00:25Z</time></trkpt><trkpt lat="34.35190147389499" lon="8.179874700930771"><ele>503.0</ele><time>2026-04-08T09:00:26Z</time></trkpt><trkpt lat="34.3519112081097" lon="8.179791311435839"><ele>504.4</ele><time>2026-04-08T09:00:27Z</time></trkpt><trkpt lat="34.35196959190815" lon="8.1797070035962"><ele>505.79999999999995</ele><time>2026-04-08T09:00:29Z</time></trkpt><trkpt lat="34.35206707955379" lon="8.179675831246385"><ele>507.2</ele><time>2026-04-08T09:00:31Z</time></trkpt><trkpt lat="34.352205203335686" lon="8.179669893983817"><ele>508.6</ele><time>2026-04-08T09:00:33Z</time></trkpt><trkpt lat="34.352294125915016" lon="8.179707772202223"><ele>510.0</ele><time>2026-04-08T09:00:34Z</time></trkpt><trkpt lat="34.352403240628306" lon="8.179773482526315"><ele>511.25</ele><time>2026-04-08T09:00:35Z</time></trkpt><trkpt lat="34.35252723644561" lon="8.179851845250365"><ele>512.5</ele><time>2026-04-08T09:00:36Z</time></trkpt><trkpt lat="34.35263185412047" lon="8.179942711318871"><ele>513.75</ele><time>2026-04-08T09:00:37Z</time></trkpt><trkpt lat="34.352721775625476" lon="8.1800470991906"><ele>515.0</ele><time>2026-04-08T09:00:38Z</time></trkpt><trkpt lat="34.352807353788116" lon="8.180140766363419"><ele>515.0</ele><time>2026-04-08T09:00:39Z</time></trkpt><trkpt lat="34.35288414249163" lon="8.180192345302714"><ele>515.0</ele><time>2026-04-08T09:00:40Z</time></trkpt><trkpt lat="34.352964947261576" lon="8.180199113222029"><ele>515.0</ele><time>2026-04-08T09:00:41Z</time></trkpt><trkpt lat="34.35304221629558" lon="8.180165432523143"><ele>515.0</ele><time>2026-04-08T09:00:42Z</time></trkpt><trkpt lat="34.35312302975521" lon="8.180096889454566"><ele>515.0</ele><time>2026-04-08T09:00:43Z</time></trkpt><trkpt lat="34.35324101114805" lon="8.18012172256292"><ele>517.2</ele><time>2026-04-08T09:00:45Z</time></trkpt><trkpt lat="34.353301542604406" lon="8.180194801905966"><ele>519.4</ele><time>2026-04-08T09:00:46Z</time></trkpt><trkpt lat="34.3533469205004" lon="8.180311831499543"><ele>521.6</ele><time>2026-04-08T09:00:47Z</time></trkpt><trkpt lat="34.353396177375366" lon="8.180455071968266"><ele>523.8</ele><time>2026-04-08T09:00:48Z</time></trkpt><trkpt lat="34.35343981101601" lon="8.180574588941926"><ele>526.0</ele><time>2026-04-08T09:00:49Z</time></trkpt><trkpt lat="34.353460706131074" lon="8.180709684545949"><ele>526.0</ele><time>2026-04-08T09:00:50Z</time></trkpt><trkpt lat="34.35347881311071" lon="8.180844090899802"><ele>526.0</ele><time>2026-04-08T09:00:51Z</time></trkpt><trkpt lat="34.35347916131878" lon="8.180954833031338"><ele>526.0</ele><time>2026-04-08T09:00:52Z</time></trkpt><trkpt lat="34.35347918716028" lon="8.181053629092567"><ele>526.0</ele><time>2026-04-08T09:00:53Z</time></trkpt><trkpt lat="34.35350476460173" lon="8.18112958262984"><ele>526.0</ele><time>2026-04-08T09:00:54Z</time></trkpt><trkpt lat="34.353558169320465" lon="8.181170403609418"><ele>526.0</ele><time>2026-04-08T09:00:55Z</time></trkpt><trkpt lat="34.353626510298504" lon="8.181180796033573"><ele>526.0</ele><time>2026-04-08T09:00:56Z</time></trkpt><trkpt lat="34.35369852741666" lon="8.18116008054478"><ele>526.0</ele><time>2026-04-08T09:00:57Z</time></trkpt><trkpt lat="34.35377574092437" lon="8.181103236389871"><ele>526.0</ele><time>2026-04-08T09:00:58Z</time></trkpt><trkpt lat="34.353830752437965" lon="8.181036408582306"><ele>526.0</ele><time>2026-04-08T09:00:59Z</time></trkpt><trkpt lat="34.35385086921781" lon="8.180955849289399"><ele>526.0</ele><time>2026-04-08T09:01:00Z</time></trkpt><trkpt lat="34.35384869823383" lon="8.180835553343899"><ele>526.0</ele><time>2026-04-08T09:01:01Z</time></trkpt><trkpt lat="34.353824085637676" lon="8.180689210074883"><ele>527.75</ele><time>2026-04-08T09:01:02Z</time></trkpt><trkpt lat="34.353786427115104" lon="8.180536072524058"><ele>529.5</ele><time>2026-04-08T09:01:03Z</time></trkpt><trkpt lat="34.3537465342999" lon="8.180374175197434"><ele>531.25</ele><time>2026-04-08T09:01:04Z</time></trkpt><trkpt lat="34.35370786976926" lon="8.180231126845984"><ele>533.0</ele><time>2026-04-08T09:01:05Z</time></trkpt><trkpt lat="34.35367137128754" lon="8.180090380719253"><ele>533.0</ele><time>2026-04-08T09:01:06Z</time></trkpt><trkpt lat="34.35365411201562" lon="8.179990002516975"><ele>533.0</ele><time>2026-04-08T09:01:07Z</time></trkpt><trkpt lat="34.353687104936206" lon="8.179826229682273"><ele>533.0</ele><time>2026-04-08T09:01:09Z</time></trkpt><trkpt lat="34.35373766357033" lon="8.179722508809096"><ele>533.0</ele><time>2026-04-08T09:01:10Z</time></trkpt><trkpt lat="34.35380527646813" lon="8.179606677691003"><ele>533.0</ele><time>2026-04-08T09:01:11Z</time></trkpt><trkpt lat="34.35388352084092" lon="8.179476618284392"><ele>535.0</ele><time>2026-04-08T09:01:12Z</time></trkpt><trkpt lat="34.35395259936819" lon="8.179386746290621"><ele>537.0</ele><time>2026-04-08T09:01:13Z</time></trkpt><trkpt lat="34.35399872911806" lon="8.179310343727414"><ele>539.0</ele><time>2026-04-08T09:01:14Z</time></trkpt><trkpt lat="34.354027572598454" lon="8.179236453285226"><ele>541.0</ele><time>2026-04-08T09:01:15Z</time></trkpt><trkpt lat="34.35404922673029" lon="8.179122310390426"><ele>543.0</ele><time>2026-04-08T09:01:17Z</time></trkpt><trkpt lat="34.35406581492268" lon="8.17904274239442"><ele>545.0</ele><time>2026-04-08T09:01:19Z</time></trkpt><trkpt lat="34.35411975747471" lon="8.178923872952636"><ele>545.0</ele><time>2026-04-08T09:01:21Z</time></trkpt><trkpt lat="34.35417851172047" lon="8.178829796127188"><ele>545.0</ele><time>2026-04-08T09:01:22Z</time></trkpt><trkpt lat="34.3542567888765" lon="8.17873520849779"><ele>545.0</ele><time>2026-04-08T09:01:23Z</time></trkpt><trkpt lat="34.35432640720558" lon="8.178651301642905"><ele>545.0</ele><time>2026-04-08T09:01:24Z</time></trkpt><trkpt lat="34.35438435180856" lon="8.178592800329136"><ele>545.0</ele><time>2026-04-08T09:01:25Z</time></trkpt><trkpt lat="34.354449836848104" lon="8.178536429820047"><ele>545.0</ele><time>2026-04-08T09:01:26Z</time></trkpt><trkpt lat="34.354533294603236" lon="8.17847783866483"><ele>545.0</ele><time>2026-04-08T09:01:27Z</time></trkpt><trkpt lat="34.354600779005445" lon="8.178419744404057"><ele>545.0</ele><time>2026-04-08T09:01:28Z</time></trkpt><trkpt lat="34.35465598759164" lon="8.178358154196824"><ele>545.0</ele><time>2026-04-08T09:01:29Z</time></trkpt><trkpt lat="34.35471430684358" lon="8.178272882069964"><ele>545.0</ele><time>2026-04-08T09:01:30Z</time></trkpt><trkpt lat="34.35477025686974" lon="8.178201218863947"><ele>545.0</ele><time>2026-04-08T09:01:31Z</time></trkpt><trkpt lat="34.35487018982005" lon="8.178123446176157"><ele>546.6666666666666</ele><time>2026-04-08T09:01:33Z</time></trkpt><trkpt lat="34.35493781261213" lon="8.178076325533308"><ele>548.3333333333333</ele><time>2026-04-08T09:01:34Z</time></trkpt><trkpt lat="34.355015405594145" lon="8.178035856684888"><ele>550.0</ele><time>2026-04-08T09:01:35Z</time></trkpt><trkpt lat="34.35510087365993" lon="8.177996876037188"><ele>551.6666666666666</ele><time>2026-04-08T09:01:36Z</time></trkpt><trkpt lat="34.355168489833865" lon="8.177942950635682"><ele>553.3333333333334</ele><time>2026-04-08T09:01:37Z</time></trkpt><trkpt lat="34.35521710976237" lon="8.177887059002419"><ele>555.0</ele><time>2026-04-08T09:01:38Z</time></trkpt><trkpt lat="34.3552618901914" lon="8.177822518551933"><ele>555.0</ele><time>2026-04-08T09:01:39Z</time></trkpt><trkpt lat="34.35531098665749" lon="8.17772284300776"><ele>555.0</ele><time>2026-04-08T09:01:40Z</time></trkpt><trkpt lat="34.355375256284425" lon="8.177614333703445"><ele>555.0</ele><time>2026-04-08T09:01:41Z</time></trkpt><trkpt lat="34.355415234512904" lon="8.17753389201462"><ele>555.0</ele><time>2026-04-08T09:01:42Z</time></trkpt><trkpt lat="34.355481161389065" lon="8.177440281739102"><ele>555.0</ele><time>2026-04-08T09:01:44Z</time></trkpt><trkpt lat="34.355542856861554" lon="8.177370911541287"><ele>555.0000000000001</ele><time>2026-04-08T09:01:47Z</time></trkpt><trkpt lat="34.355477064293595" lon="8.177353195545331"><ele>555.0</ele><time>2026-04-08T09:05:05Z</time></trkpt><trkpt lat="34.35548022626429" lon="8.177275810247066"><ele>555.0</ele><time>2026-04-08T09:05:46Z</time></trkpt><trkpt lat="34.35547346209917" lon="8.177184412324298"><ele>555.0</ele><time>2026-04-08T09:05:54Z</time></trkpt><trkpt lat="34.355451721663094" lon="8.177105273743976"><ele>555.0</ele><time>2026-04-08T09:06:00Z</time></trkpt><trkpt lat="34.35544458001218" lon="8.177025217814782"><ele>555.0000000000001</ele><time>2026-04-08T09:06:12Z</time></trkpt><trkpt lat="34.35543644162043" lon="8.176932932904878"><ele>555.0</ele><time>2026-04-08T09:06:18Z</time></trkpt><trkpt lat="34.35543482102004" lon="8.176852901934572"><ele>555.1428571428572</ele><time>2026-04-08T09:06:23Z</time></trkpt><trkpt lat="34.355445494384995" lon="8.176776226501143"><ele>555.2857142857143</ele><time>2026-04-08T09:06:35Z</time></trkpt><trkpt lat="34.3553710164576" lon="8.17674486520542"><ele>555.4285714285714</ele><time>2026-04-08T09:13:29.012Z</time></trkpt><trkpt lat="34.35539791487983" lon="8.176821415573825"><ele>555.5714285714287</ele><time>2026-04-08T09:13:48.014Z</time></trkpt><trkpt lat="34.35539798686983" lon="8.1769009395105"><ele>555.7142857142858</ele><time>2026-04-08T09:13:54.996Z</time></trkpt><trkpt lat="34.355423562308694" lon="8.176975953282355"><ele>555.8571428571429</ele><time>2026-04-08T09:14:00.997Z</time></trkpt><trkpt lat="34.355433821337776" lon="8.177052523511875"><ele>556.0</ele><time>2026-04-08T09:14:07.998Z</time></trkpt><trkpt lat="34.355448950900445" lon="8.177127798206028"><ele>556.0</ele><time>2026-04-08T09:14:16.998Z</time></trkpt><trkpt lat="34.355473634681964" lon="8.177213623284914"><ele>556.0</ele><time>2026-04-08T09:14:31.999Z</time></trkpt><trkpt lat="34.35544740350421" lon="8.177288803422039"><ele>556.0</ele><time>2026-04-08T09:14:38.999Z</time></trkpt><trkpt lat="34.35547067149171" lon="8.177374449846251"><ele>556.0</ele><time>2026-04-08T09:14:51.999Z</time></trkpt><trkpt lat="34.35553467028623" lon="8.177391563537922"><ele>556.0</ele><time>2026-04-08T09:14:59.999Z</time></trkpt><trkpt lat="34.355554457066766" lon="8.177315373096068"><ele>556.0</ele><time>2026-04-08T09:15:12.999Z</time></trkpt><trkpt lat="34.35564536968045" lon="8.177163739848616"><ele>560.6</ele><time>2026-04-08T09:17:20Z</time></trkpt><trkpt lat="34.35571373165501" lon="8.177101511047756"><ele>565.2</ele><time>2026-04-08T09:17:22Z</time></trkpt><trkpt lat="34.35583870649705" lon="8.17709255048034"><ele>569.8</ele><time>2026-04-08T09:17:25Z</time></trkpt><trkpt lat="34.355922506524884" lon="8.17706887938415"><ele>574.4</ele><time>2026-04-08T09:17:27Z</time></trkpt><trkpt lat="34.356022283867475" lon="8.177024518899358"><ele>579.0</ele><time>2026-04-08T09:17:29Z</time></trkpt><trkpt lat="34.35608998357945" lon="8.17700220619358"><ele>579.0</ele><time>2026-04-08T09:17:30Z</time></trkpt><trkpt lat="34.35615953506136" lon="8.176988424188238"><ele>579.0</ele><time>2026-04-08T09:17:31Z</time></trkpt><trkpt lat="34.356225059202934" lon="8.176967225391126"><ele>579.0</ele><time>2026-04-08T09:17:32Z</time></trkpt><trkpt lat="34.35629343097859" lon="8.176927063191346"><ele>579.0</ele><time>2026-04-08T09:17:33Z</time></trkpt><trkpt lat="34.35636562703009" lon="8.176884844364732"><ele>579.0</ele><time>2026-04-08T09:17:34Z</time></trkpt><trkpt lat="34.35643422899093" lon="8.176835346632876"><ele>579.0</ele><time>2026-04-08T09:17:35Z</time></trkpt><trkpt lat="34.356513242216735" lon="8.176761399035641"><ele>578.5</ele><time>2026-04-08T09:17:36Z</time></trkpt><trkpt lat="34.35660212670595" lon="8.17667273855784"><ele>578.0</ele><time>2026-04-08T09:17:37Z</time></trkpt><trkpt lat="34.35670184621618" lon="8.176572420079454"><ele>577.5</ele><time>2026-04-08T09:17:38Z</time></trkpt><trkpt lat="34.35681107173955" lon="8.176457042260711"><ele>577.0</ele><time>2026-04-08T09:17:39Z</time></trkpt><trkpt lat="34.35692649385526" lon="8.17634325931225"><ele>577.0</ele><time>2026-04-08T09:17:40Z</time></trkpt><trkpt lat="34.357044262406944" lon="8.176233428671319"><ele>577.0</ele><time>2026-04-08T09:17:41Z</time></trkpt><trkpt lat="34.357170896538115" lon="8.176117281127071"><ele>577.0</ele><time>2026-04-08T09:17:42Z</time></trkpt><trkpt lat="34.35729288163999" lon="8.176005166008935"><ele>577.0</ele><time>2026-04-08T09:17:43Z</time></trkpt><trkpt lat="34.357418204184846" lon="8.17589607055407"><ele>577.0</ele><time>2026-04-08T09:17:44Z</time></trkpt><trkpt lat="34.35755319775352" lon="8.175783850447354"><ele>577.0</ele><time>2026-04-08T09:17:45Z</time></trkpt><trkpt lat="34.357696003367835" lon="8.175674522145437"><ele>577.3333333333334</ele><time>2026-04-08T09:17:46Z</time></trkpt><trkpt lat="34.35784223092339" lon="8.175562802932461"><ele>577.6666666666666</ele><time>2026-04-08T09:17:47Z</time></trkpt><trkpt lat="34.357970424236" lon="8.175452352600423"><ele>578.0</ele><time>2026-04-08T09:17:48Z</time></trkpt><trkpt lat="34.358091900510765" lon="8.175353118712323"><ele>578.0</ele><time>2026-04-08T09:17:49Z</time></trkpt><trkpt lat="34.35820569643049" lon="8.175265016087698"><ele>578.0</ele><time>2026-04-08T09:17:50Z</time></trkpt><trkpt lat="34.35830519135786" lon="8.17518672789183"><ele>578.0</ele><time>2026-04-08T09:17:51Z</time></trkpt><trkpt lat="34.35840182038737" lon="8.175091251662227"><ele>578.0</ele><time>2026-04-08T09:17:52Z</time></trkpt><trkpt lat="34.35849579405228" lon="8.174987945393429"><ele>578.0</ele><time>2026-04-08T09:17:53Z</time></trkpt><trkpt lat="34.358566223461416" lon="8.174894425650333"><ele>578.0</ele><time>2026-04-08T09:17:54Z</time></trkpt><trkpt lat="34.35864074310279" lon="8.17480273711408"><ele>578.0</ele><time>2026-04-08T09:17:55Z</time></trkpt><trkpt lat="34.35872582579012" lon="8.174715007385046"><ele>578.0</ele><time>2026-04-08T09:17:56Z</time></trkpt><trkpt lat="34.358819510557794" lon="8.174629273910476"><ele>578.0</ele><time>2026-04-08T09:17:57Z</time></trkpt><trkpt lat="34.35892233369908" lon="8.174552533821192"><ele>579.8</ele><time>2026-04-08T09:17:58Z</time></trkpt><trkpt lat="34.35898383648455" lon="8.174466144568111"><ele>581.5999999999999</ele><time>2026-04-08T09:17:59Z</time></trkpt><trkpt lat="34.35906306998473" lon="8.174390116541547"><ele>583.4000000000001</ele><time>2026-04-08T09:18:00Z</time></trkpt><trkpt lat="34.359137656515166" lon="8.174330100754451"><ele>585.2</ele><time>2026-04-08T09:18:01Z</time></trkpt><trkpt lat="34.359200008504786" lon="8.174265231266007"><ele>587.0</ele><time>2026-04-08T09:18:02Z</time></trkpt><trkpt lat="34.35926754983613" lon="8.17418346072406"><ele>587.0</ele><time>2026-04-08T09:18:03Z</time></trkpt><trkpt lat="34.359339251444645" lon="8.174090888225441"><ele>587.0</ele><time>2026-04-08T09:18:04Z</time></trkpt><trkpt lat="34.359407331860794" lon="8.17399252074805"><ele>587.0</ele><time>2026-04-08T09:18:05Z</time></trkpt><trkpt lat="34.359465272561906" lon="8.173894568309613"><ele>587.0</ele><time>2026-04-08T09:18:06.001Z</time></trkpt><trkpt lat="34.35951471164613" lon="8.17380838251169"><ele>587.0</ele><time>2026-04-08T09:18:07.001Z</time></trkpt><trkpt lat="34.359559349877784" lon="8.173730579549211"><ele>587.8000000000001</ele><time>2026-04-08T09:18:08.001Z</time></trkpt><trkpt lat="34.359599384901074" lon="8.17366241647006"><ele>588.6</ele><time>2026-04-08T09:18:09.001Z</time></trkpt><trkpt lat="34.359673831741645" lon="8.173552701662034"><ele>589.4000000000001</ele><time>2026-04-08T09:18:11.001Z</time></trkpt><trkpt lat="34.359722484650554" lon="8.173477499082193"><ele>590.2</ele><time>2026-04-08T09:18:12.001Z</time></trkpt><trkpt lat="34.3598030419726" lon="8.173369267203503"><ele>591.0</ele><time>2026-04-08T09:18:13.001Z</time></trkpt><trkpt lat="34.359900698299064" lon="8.173260637080462"><ele>592.25</ele><time>2026-04-08T09:18:14Z</time></trkpt><trkpt lat="34.360000702806" lon="8.173156562895628"><ele>593.5</ele><time>2026-04-08T09:18:15Z</time></trkpt><trkpt lat="34.360094126591534" lon="8.173049268292779"><ele>594.75</ele><time>2026-04-08T09:18:16Z</time></trkpt><trkpt lat="34.36018764157587" lon="8.172948354145115"><ele>596.0</ele><time>2026-04-08T09:18:17Z</time></trkpt><trkpt lat="34.3602759783003" lon="8.172855447750996"><ele>596.0</ele><time>2026-04-08T09:18:18Z</time></trkpt><trkpt lat="34.36035528687925" lon="8.172753542732865"><ele>596.0</ele><time>2026-04-08T09:18:19Z</time></trkpt><trkpt lat="34.360426382073435" lon="8.172637728651798"><ele>596.0</ele><time>2026-04-08T09:18:20Z</time></trkpt><trkpt lat="34.360511587838275" lon="8.172522833149618"><ele>596.0</ele><time>2026-04-08T09:18:21Z</time></trkpt><trkpt lat="34.360606069065916" lon="8.172395480177713"><ele>594.3333333333333</ele><time>2026-04-08T09:18:22Z</time></trkpt><trkpt lat="34.360709645656684" lon="8.172239410917207"><ele>592.6666666666666</ele><time>2026-04-08T09:18:23Z</time></trkpt><trkpt lat="34.360807962272716" lon="8.172091861027843"><ele>591.0</ele><time>2026-04-08T09:18:24Z</time></trkpt><trkpt lat="34.36089769786514" lon="8.171964671836923"><ele>591.0</ele><time>2026-04-08T09:18:25Z</time></trkpt><trkpt lat="34.36098849863536" lon="8.17182722845996"><ele>591.0</ele><time>2026-04-08T09:18:26Z</time></trkpt><trkpt lat="34.36107577298561" lon="8.171678231904947"><ele>591.0</ele><time>2026-04-08T09:18:27Z</time></trkpt><trkpt lat="34.36116740289951" lon="8.17153577715636"><ele>591.0</ele><time>2026-04-08T09:18:28Z</time></trkpt><trkpt lat="34.36125804970262" lon="8.171404512591902"><ele>590.5</ele><time>2026-04-08T09:18:29Z</time></trkpt><trkpt lat="34.361351193558185" lon="8.171274925516727"><ele>590.0</ele><time>2026-04-08T09:18:30Z</time></trkpt><trkpt lat="34.36144733460443" lon="8.171148911634914"><ele>589.5</ele><time>2026-04-08T09:18:31Z</time></trkpt><trkpt lat="34.361537592249405" lon="8.17102178761392"><ele>589.0</ele><time>2026-04-08T09:18:32Z</time></trkpt><trkpt lat="34.36162192984675" lon="8.170910325417381"><ele>589.0</ele><time>2026-04-08T09:18:33Z</time></trkpt><trkpt lat="34.36169536275551" lon="8.170808782236906"><ele>589.0</ele><time>2026-04-08T09:18:34Z</time></trkpt><trkpt lat="34.36176161412757" lon="8.170705773640382"><ele>589.0</ele><time>2026-04-08T09:18:35Z</time></trkpt><trkpt lat="34.36181498180375" lon="8.170619081354495"><ele>589.0</ele><time>2026-04-08T09:18:36Z</time></trkpt><trkpt lat="34.361868232740804" lon="8.17054174121487"><ele>589.0</ele><time>2026-04-08T09:18:37Z</time></trkpt><trkpt lat="34.361919615374994" lon="8.170471451782957"><ele>589.2</ele><time>2026-04-08T09:18:38Z</time></trkpt><trkpt lat="34.36197028144434" lon="8.170404732523409"><ele>589.4</ele><time>2026-04-08T09:18:39Z</time></trkpt><trkpt lat="34.36202262737677" lon="8.170329057078652"><ele>589.6</ele><time>2026-04-08T09:18:40Z</time></trkpt><trkpt lat="34.36207874410085" lon="8.170247781081875"><ele>589.8</ele><time>2026-04-08T09:18:41Z</time></trkpt><trkpt lat="34.3621433694833" lon="8.170153152439623"><ele>590.0</ele><time>2026-04-08T09:18:42Z</time></trkpt><trkpt lat="34.36220912086813" lon="8.17004072809481"><ele>590.0</ele><time>2026-04-08T09:18:43Z</time></trkpt><trkpt lat="34.362263840413156" lon="8.169918656814493"><ele>590.0</ele><time>2026-04-08T09:18:44Z</time></trkpt><trkpt lat="34.36230718246386" lon="8.169809929201328"><ele>590.0</ele><time>2026-04-08T09:18:45Z</time></trkpt><trkpt lat="34.36234968082379" lon="8.16970919601856"><ele>590.0</ele><time>2026-04-08T09:18:46Z</time></trkpt><trkpt lat="34.36239678184093" lon="8.16960377104286"><ele>590.0</ele><time>2026-04-08T09:18:47Z</time></trkpt><trkpt lat="34.36245004426971" lon="8.16947427309012"><ele>589.75</ele><time>2026-04-08T09:18:48Z</time></trkpt><trkpt lat="34.36251331696082" lon="8.1693486875183"><ele>589.5</ele><time>2026-04-08T09:18:49Z</time></trkpt><trkpt lat="34.36257400141971" lon="8.169212260589184"><ele>589.25</ele><time>2026-04-08T09:18:50Z</time></trkpt><trkpt lat="34.36264084848044" lon="8.169078228515279"><ele>589.0</ele><time>2026-04-08T09:18:51Z</time></trkpt><trkpt lat="34.362713891753565" lon="8.168948098315026"><ele>589.5</ele><time>2026-04-08T09:18:52Z</time></trkpt><trkpt lat="34.362790295445215" lon="8.16881661714857"><ele>590.0</ele><time>2026-04-08T09:18:53Z</time></trkpt><trkpt lat="34.36286121811148" lon="8.168685257255158"><ele>590.5</ele><time>2026-04-08T09:18:54Z</time></trkpt><trkpt lat="34.36293116549916" lon="8.168574727370096"><ele>591.0</ele><time>2026-04-08T09:18:55Z</time></trkpt><trkpt lat="34.363002701651816" lon="8.168469459913391"><ele>591.25</ele><time>2026-04-08T09:18:56Z</time></trkpt><trkpt lat="34.36307983057336" lon="8.168363450260127"><ele>591.5</ele><time>2026-04-08T09:18:57Z</time></trkpt><trkpt lat="34.363160893207635" lon="8.168254953328551"><ele>591.75</ele><time>2026-04-08T09:18:58Z</time></trkpt><trkpt lat="34.36323943548229" lon="8.16813660898628"><ele>592.0</ele><time>2026-04-08T09:18:59Z</time></trkpt><trkpt lat="34.363314106243976" lon="8.168037390450666"><ele>593.0</ele><time>2026-04-08T09:19:00Z</time></trkpt><trkpt lat="34.36338241765853" lon="8.167956932425087"><ele>594.0</ele><time>2026-04-08T09:19:01Z</time></trkpt><trkpt lat="34.36346454730349" lon="8.167881252566485"><ele>595.0</ele><time>2026-04-08T09:19:02Z</time></trkpt><trkpt lat="34.36355673696871" lon="8.167808461602782"><ele>596.0</ele><time>2026-04-08T09:19:03Z</time></trkpt><trkpt lat="34.363659026382884" lon="8.16773389441559"><ele>597.0</ele><time>2026-04-08T09:19:04Z</time></trkpt><trkpt lat="34.36376792302191" lon="8.167661185921103"><ele>595.75</ele><time>2026-04-08T09:19:05Z</time></trkpt><trkpt lat="34.363883230167474" lon="8.167592552796448"><ele>594.5</ele><time>2026-04-08T09:19:06Z</time></trkpt><trkpt lat="34.363992930393024" lon="8.1675382996895"><ele>593.25</ele><time>2026-04-08T09:19:07Z</time></trkpt><trkpt lat="34.364098795380855" lon="8.167489065118053"><ele>592.0</ele><time>2026-04-08T09:19:08Z</time></trkpt><trkpt lat="34.36419481756627" lon="8.167442865993506"><ele>592.0</ele><time>2026-04-08T09:19:09Z</time></trkpt><trkpt lat="34.364296517162764" lon="8.16739913756234"><ele>592.0</ele><time>2026-04-08T09:19:10Z</time></trkpt><trkpt lat="34.36440094969035" lon="8.1673569128941"><ele>592.0</ele><time>2026-04-08T09:19:11Z</time></trkpt><trkpt lat="34.36450569782395" lon="8.167313671623802"><ele>592.0</ele><time>2026-04-08T09:19:12Z</time></trkpt><trkpt lat="34.36460631037791" lon="8.167270173931527"><ele>592.0</ele><time>2026-04-08T09:19:13Z</time></trkpt><trkpt lat="34.36470624210065" lon="8.167226044765725"><ele>590.8000000000001</ele><time>2026-04-08T09:19:14Z</time></trkpt><trkpt lat="34.3648023762199" lon="8.167188802343698"><ele>589.6</ele><time>2026-04-08T09:19:15Z</time></trkpt><trkpt lat="34.36490118910324" lon="8.167156218164877"><ele>588.4000000000001</ele><time>2026-04-08T09:19:16Z</time></trkpt><trkpt lat="34.36499795803301" lon="8.167131917870996"><ele>587.2</ele><time>2026-04-08T09:19:17Z</time></trkpt><trkpt lat="34.365090275993325" lon="8.16711862390624"><ele>586.0</ele><time>2026-04-08T09:19:18Z</time></trkpt><trkpt lat="34.36517372583139" lon="8.167116613017138"><ele>586.0</ele><time>2026-04-08T09:19:19Z</time></trkpt><trkpt lat="34.36525286815909" lon="8.167118321341034"><ele>586.0</ele><time>2026-04-08T09:19:20Z</time></trkpt><trkpt lat="34.36532471568116" lon="8.167118255654284"><ele>586.0</ele><time>2026-04-08T09:19:21Z</time></trkpt><trkpt lat="34.36539196266243" lon="8.167118862395535"><ele>586.0</ele><time>2026-04-08T09:19:22Z</time></trkpt><trkpt lat="34.36545781337602" lon="8.167121028370662"><ele>586.0</ele><time>2026-04-08T09:19:23Z</time></trkpt><trkpt lat="34.365589467384424" lon="8.16712753670556"><ele>586.0</ele><time>2026-04-08T09:19:25Z</time></trkpt><trkpt lat="34.365664127577936" lon="8.167126690104771"><ele>585.0</ele><time>2026-04-08T09:19:26Z</time></trkpt><trkpt lat="34.36573729667989" lon="8.167128328044388"><ele>584.0</ele><time>2026-04-08T09:19:27Z</time></trkpt><trkpt lat="34.3658156356599" lon="8.167129030817229"><ele>583.0</ele><time>2026-04-08T09:19:28Z</time></trkpt><trkpt lat="34.36590385125574" lon="8.167125423456813"><ele>582.0</ele><time>2026-04-08T09:19:29Z</time></trkpt><trkpt lat="34.36599822830358" lon="8.16712557300485"><ele>581.0</ele><time>2026-04-08T09:19:30Z</time></trkpt><trkpt lat="34.36610323750881" lon="8.167130747976028"><ele>580.0</ele><time>2026-04-08T09:19:31Z</time></trkpt><trkpt lat="34.36621130594619" lon="8.167133248832275"><ele>580.0</ele><time>2026-04-08T09:19:32Z</time></trkpt><trkpt lat="34.36631901792995" lon="8.167133869053547"><ele>580.0</ele><time>2026-04-08T09:19:33Z</time></trkpt><trkpt lat="34.36643184501063" lon="8.167136609658646"><ele>580.0</ele><time>2026-04-08T09:19:34Z</time></trkpt><trkpt lat="34.366543518879936" lon="8.16714410317753"><ele>580.0</ele><time>2026-04-08T09:19:35Z</time></trkpt><trkpt lat="34.36665275145812" lon="8.167147705368565"><ele>580.0</ele><time>2026-04-08T09:19:36Z</time></trkpt><trkpt lat="34.36675412086499" lon="8.16714125371552"><ele>578.5</ele><time>2026-04-08T09:19:37Z</time></trkpt><trkpt lat="34.366856618260336" lon="8.16714569522608"><ele>577.0</ele><time>2026-04-08T09:19:38Z</time></trkpt><trkpt lat="34.366965396870015" lon="8.16714701644244"><ele>575.5</ele><time>2026-04-08T09:19:39Z</time></trkpt><trkpt lat="34.36708729542136" lon="8.167147849721612"><ele>574.0</ele><time>2026-04-08T09:19:40Z</time></trkpt><trkpt lat="34.36721449409742" lon="8.167153435266872"><ele>572.5</ele><time>2026-04-08T09:19:41Z</time></trkpt><trkpt lat="34.36733431450207" lon="8.16715885170723"><ele>571.0</ele><time>2026-04-08T09:19:42Z</time></trkpt><trkpt lat="34.36745550920876" lon="8.167160520297578"><ele>569.5</ele><time>2026-04-08T09:19:43Z</time></trkpt><trkpt lat="34.36757661723631" lon="8.167162478180787"><ele>568.0</ele><time>2026-04-08T09:19:44Z</time></trkpt><trkpt lat="34.36770442364447" lon="8.167169041726288"><ele>568.0</ele><time>2026-04-08T09:19:45Z</time></trkpt><trkpt lat="34.36784111810153" lon="8.167169643894749"><ele>568.0</ele><time>2026-04-08T09:19:46Z</time></trkpt><trkpt lat="34.36798726578781" lon="8.167167513059232"><ele>568.0</ele><time>2026-04-08T09:19:47Z</time></trkpt><trkpt lat="34.36812557298676" lon="8.167168346118524"><ele>568.0</ele><time>2026-04-08T09:19:48Z</time></trkpt><trkpt lat="34.36826292533616" lon="8.167170725019943"><ele>566.5</ele><time>2026-04-08T09:19:49Z</time></trkpt><trkpt lat="34.368407317838134" lon="8.167174983186502"><ele>565.0</ele><time>2026-04-08T09:19:50Z</time></trkpt><trkpt lat="34.368546916753836" lon="8.167178196347363"><ele>563.5</ele><time>2026-04-08T09:19:51Z</time></trkpt><trkpt lat="34.36867603248798" lon="8.167183539377767"><ele>562.0</ele><time>2026-04-08T09:19:52Z</time></trkpt><trkpt lat="34.36879047899351" lon="8.167185249242653"><ele>563.4</ele><time>2026-04-08T09:19:53Z</time></trkpt><trkpt lat="34.36890210820419" lon="8.167189046273034"><ele>564.8000000000001</ele><time>2026-04-08T09:19:54Z</time></trkpt><trkpt lat="34.36900710155664" lon="8.167193722168998"><ele>566.2</ele><time>2026-04-08T09:19:55Z</time></trkpt><trkpt lat="34.369098332073044" lon="8.167193685794855"><ele>567.6</ele><time>2026-04-08T09:19:56Z</time></trkpt><trkpt lat="34.36918422060923" lon="8.167186549736535"><ele>569.0</ele><time>2026-04-08T09:19:57Z</time></trkpt><trkpt lat="34.369277323456565" lon="8.16718310309579"><ele>569.0</ele><time>2026-04-08T09:19:58Z</time></trkpt><trkpt lat="34.36937591833866" lon="8.16717175665552"><ele>569.0</ele><time>2026-04-08T09:19:59Z</time></trkpt><trkpt lat="34.36948555469878" lon="8.167146981280924"><ele>569.0</ele><time>2026-04-08T09:20:00Z</time></trkpt><trkpt lat="34.36959244360761" lon="8.16711775510445"><ele>569.0</ele><time>2026-04-08T09:20:01Z</time></trkpt><trkpt lat="34.369689726837585" lon="8.167088943625737"><ele>569.0</ele><time>2026-04-08T09:20:02Z</time></trkpt><trkpt lat="34.36977978514148" lon="8.167045781471144"><ele>570.2</ele><time>2026-04-08T09:20:03Z</time></trkpt><trkpt lat="34.36986914377802" lon="8.166979971662956"><ele>571.4</ele><time>2026-04-08T09:20:04Z</time></trkpt><trkpt lat="34.3699531942399" lon="8.166898440824626"><ele>572.6</ele><time>2026-04-08T09:20:05Z</time></trkpt><trkpt lat="34.37003268026114" lon="8.166801280718232"><ele>573.8</ele><time>2026-04-08T09:20:06Z</time></trkpt><trkpt lat="34.370111107394976" lon="8.166688375873347"><ele>575.0</ele><time>2026-04-08T09:20:07Z</time></trkpt><trkpt lat="34.37018792189666" lon="8.166583323651357"><ele>574.4</ele><time>2026-04-08T09:20:08Z</time></trkpt><trkpt lat="34.370262439089764" lon="8.16649093503309"><ele>573.8</ele><time>2026-04-08T09:20:09Z</time></trkpt><trkpt lat="34.370328327168245" lon="8.166386776737268"><ele>573.2</ele><time>2026-04-08T09:20:10Z</time></trkpt><trkpt lat="34.37039232577635" lon="8.166278488281014"><ele>572.6</ele><time>2026-04-08T09:20:11Z</time></trkpt><trkpt lat="34.37045116757435" lon="8.16618415486953"><ele>572.0</ele><time>2026-04-08T09:20:12.001Z</time></trkpt><trkpt lat="34.370514734967166" lon="8.166064375568334"><ele>572.6</ele><time>2026-04-08T09:20:13.001Z</time></trkpt><trkpt lat="34.37056567562693" lon="8.1659510416566"><ele>573.2</ele><time>2026-04-08T09:20:14.001Z</time></trkpt><trkpt lat="34.37061913158061" lon="8.16583163229263"><ele>573.8</ele><time>2026-04-08T09:20:15.001Z</time></trkpt><trkpt lat="34.370661707317105" lon="8.16571579038698"><ele>574.4</ele><time>2026-04-08T09:20:16.001Z</time></trkpt><trkpt lat="34.3706935778758" lon="8.165620233235025"><ele>575.0</ele><time>2026-04-08T09:20:17.001Z</time></trkpt><trkpt lat="34.37072241279143" lon="8.165548925241152"><ele>575.0</ele><time>2026-04-08T09:20:18.001Z</time></trkpt><trkpt lat="34.3707596124219" lon="8.165472871121931"><ele>575.0</ele><time>2026-04-08T09:20:20.001Z</time></trkpt><trkpt lat="34.370807501004954" lon="8.165401837079694"><ele>575.0</ele><time>2026-04-08T09:23:48Z</time></trkpt><trkpt lat="34.37084516415158" lon="8.165339946093898"><ele>575.0</ele><time>2026-04-08T09:23:50Z</time></trkpt><trkpt lat="34.37083471082557" lon="8.165197600716677"><ele>575.0</ele><time>2026-04-08T09:23:52Z</time></trkpt><trkpt lat="34.370858369910174" lon="8.1650728061457"><ele>575.0</ele><time>2026-04-08T09:23:54Z</time></trkpt><trkpt lat="34.3708896126236" lon="8.164984075412104"><ele>575.0</ele><time>2026-04-08T09:23:55Z</time></trkpt><trkpt lat="34.37091081384307" lon="8.1649090905879"><ele>575.0</ele><time>2026-04-08T09:23:56Z</time></trkpt><trkpt lat="34.37093918331004" lon="8.164804118842941"><ele>575.0</ele><time>2026-04-08T09:23:58Z</time></trkpt><trkpt lat="34.37096455000361" lon="8.164719249996743"><ele>575.0</ele><time>2026-04-08T09:24:00Z</time></trkpt><trkpt lat="34.370987012683116" lon="8.164621769392737"><ele>575.0</ele><time>2026-04-08T09:24:02Z</time></trkpt><trkpt lat="34.370993652375205" lon="8.164512308402351"><ele>575.0</ele><time>2026-04-08T09:24:04Z</time></trkpt><trkpt lat="34.37101195910675" lon="8.164433062418865"><ele>575.6</ele><time>2026-04-08T09:24:05Z</time></trkpt><trkpt lat="34.37104479333937" lon="8.164309040503246"><ele>576.2</ele><time>2026-04-08T09:24:07Z</time></trkpt><trkpt lat="34.37107866297687" lon="8.164198727914524"><ele>576.8</ele><time>2026-04-08T09:24:09Z</time></trkpt><trkpt lat="34.37111479099619" lon="8.16408843541473"><ele>577.4</ele><time>2026-04-08T09:24:11Z</time></trkpt><trkpt lat="34.37113844757493" lon="8.163970058986854"><ele>578.0</ele><time>2026-04-08T09:24:13Z</time></trkpt><trkpt lat="34.37118385260096" lon="8.163824394616263"><ele>578.4</ele><time>2026-04-08T09:24:15Z</time></trkpt><trkpt lat="34.371224396697755" lon="8.163733040734698"><ele>578.8</ele><time>2026-04-08T09:24:16Z</time></trkpt><trkpt lat="34.371250099139836" lon="8.163659198669295"><ele>579.2</ele><time>2026-04-08T09:24:17Z</time></trkpt><trkpt lat="34.37128499004326" lon="8.16358511406128"><ele>579.6</ele><time>2026-04-08T09:24:18Z</time></trkpt><trkpt lat="34.371355587094506" lon="8.163486829231475"><ele>580.0</ele><time>2026-04-08T09:24:20Z</time></trkpt><trkpt lat="34.37143847845022" lon="8.163375855587807"><ele>579.5</ele><time>2026-04-08T09:24:22Z</time></trkpt><trkpt lat="34.371477549812425" lon="8.163313816852327"><ele>579.0</ele><time>2026-04-08T09:24:23.001Z</time></trkpt><trkpt lat="34.37151684817862" lon="8.16325252898615"><ele>578.5</ele><time>2026-04-08T09:24:24.001Z</time></trkpt><trkpt lat="34.37159689891042" lon="8.163147044129149"><ele>578.0</ele><time>2026-04-08T09:24:26.001Z</time></trkpt><trkpt lat="34.37164855179161" lon="8.163097014828011"><ele>577.5</ele><time>2026-04-08T09:24:27.001Z</time></trkpt><trkpt lat="34.371736230587985" lon="8.163009678881785"><ele>577.0</ele><time>2026-04-08T09:24:29.001Z</time></trkpt><trkpt lat="34.37180037261413" lon="8.162951382338722"><ele>577.0</ele><time>2026-04-08T09:24:30.001Z</time></trkpt><trkpt lat="34.371877453401005" lon="8.162858363138092"><ele>577.0</ele><time>2026-04-08T09:24:31.001Z</time></trkpt><trkpt lat="34.37195234441087" lon="8.16272884799061"><ele>577.0</ele><time>2026-04-08T09:24:32.001Z</time></trkpt><trkpt lat="34.372026843509985" lon="8.162629799829514"><ele>577.0</ele><time>2026-04-08T09:24:33.001Z</time></trkpt><trkpt lat="34.37210811473993" lon="8.16253801718617"><ele>577.0</ele><time>2026-04-08T09:24:34Z</time></trkpt><trkpt lat="34.372187185700184" lon="8.162439766317378"><ele>577.0</ele><time>2026-04-08T09:24:35Z</time></trkpt><trkpt lat="34.372262097787036" lon="8.162348868266516"><ele>577.0</ele><time>2026-04-08T09:24:36Z</time></trkpt><trkpt lat="34.37233836327297" lon="8.162254437732686"><ele>577.0</ele><time>2026-04-08T09:24:37Z</time></trkpt><trkpt lat="34.3724116154065" lon="8.162156478203814"><ele>577.0</ele><time>2026-04-08T09:24:38Z</time></trkpt><trkpt lat="34.372480663680534" lon="8.162069248183354"><ele>575.2</ele><time>2026-04-08T09:24:39Z</time></trkpt><trkpt lat="34.372556173640234" lon="8.161978938888968"><ele>573.4000000000001</ele><time>2026-04-08T09:24:40Z</time></trkpt><trkpt lat="34.3726347649414" lon="8.161887665521839"><ele>571.5999999999999</ele><time>2026-04-08T09:24:41Z</time></trkpt><trkpt lat="34.3727134898458" lon="8.161799402024362"><ele>569.8</ele><time>2026-04-08T09:24:42Z</time></trkpt><trkpt lat="34.37278177023309" lon="8.16172062009581"><ele>568.0</ele><time>2026-04-08T09:24:43Z</time></trkpt><trkpt lat="34.37284019137746" lon="8.161652473576849"><ele>568.0</ele><time>2026-04-08T09:24:44Z</time></trkpt><trkpt lat="34.372897446805894" lon="8.161582081256721"><ele>568.0</ele><time>2026-04-08T09:24:45Z</time></trkpt><trkpt lat="34.37295397603692" lon="8.161503763996373"><ele>568.0</ele><time>2026-04-08T09:24:46Z</time></trkpt><trkpt lat="34.37301475017938" lon="8.161422375075984"><ele>568.0</ele><time>2026-04-08T09:24:47Z</time></trkpt><trkpt lat="34.37308042514864" lon="8.161339442367083"><ele>568.0</ele><time>2026-04-08T09:24:48Z</time></trkpt><trkpt lat="34.3731481584103" lon="8.161255234044521"><ele>568.0</ele><time>2026-04-08T09:24:49Z</time></trkpt><trkpt lat="34.37321440510718" lon="8.161165265198614"><ele>568.0</ele><time>2026-04-08T09:24:50Z</time></trkpt><trkpt lat="34.37328411971026" lon="8.16107605857757"><ele>568.0</ele><time>2026-04-08T09:24:51Z</time></trkpt><trkpt lat="34.37336415436333" lon="8.160984075897371"><ele>568.0</ele><time>2026-04-08T09:24:52Z</time></trkpt><trkpt lat="34.37344900447745" lon="8.160898544434975"><ele>568.0</ele><time>2026-04-08T09:24:53Z</time></trkpt><trkpt lat="34.37352992813727" lon="8.16082506875207"><ele>568.0</ele><time>2026-04-08T09:24:54Z</time></trkpt><trkpt lat="34.37361067683515" lon="8.160746810117425"><ele>568.0</ele><time>2026-04-08T09:24:55Z</time></trkpt><trkpt lat="34.37368895414203" lon="8.160664097867212"><ele>568.0</ele><time>2026-04-08T09:24:56Z</time></trkpt><trkpt lat="34.373770046069964" lon="8.1605805528285"><ele>568.0</ele><time>2026-04-08T09:24:57Z</time></trkpt><trkpt lat="34.3738531956161" lon="8.160501010451288"><ele>568.0</ele><time>2026-04-08T09:24:58Z</time></trkpt><trkpt lat="34.37394364468205" lon="8.160429645380358"><ele>567.6666666666667</ele><time>2026-04-08T09:24:59Z</time></trkpt><trkpt lat="34.37403874757479" lon="8.160366197337831"><ele>567.3333333333334</ele><time>2026-04-08T09:25:00Z</time></trkpt><trkpt lat="34.374123611544775" lon="8.160313277105212"><ele>567.0</ele><time>2026-04-08T09:25:01Z</time></trkpt><trkpt lat="34.37419845998963" lon="8.160268980214024"><ele>566.6666666666666</ele><time>2026-04-08T09:25:02Z</time></trkpt><trkpt lat="34.37426818122209" lon="8.160228424034148"><ele>566.3333333333333</ele><time>2026-04-08T09:25:03Z</time></trkpt><trkpt lat="34.37433666690715" lon="8.160192652340378"><ele>566.0</ele><time>2026-04-08T09:25:04Z</time></trkpt><trkpt lat="34.37441272741561" lon="8.160153923145145"><ele>566.0</ele><time>2026-04-08T09:25:05Z</time></trkpt><trkpt lat="34.37449554456687" lon="8.160104163894655"><ele>566.0</ele><time>2026-04-08T09:25:06Z</time></trkpt><trkpt lat="34.37458597797341" lon="8.160052393686351"><ele>566.0</ele><time>2026-04-08T09:25:07Z</time></trkpt><trkpt lat="34.37467176070764" lon="8.160015816119314"><ele>566.0</ele><time>2026-04-08T09:25:08Z</time></trkpt><trkpt lat="34.37476936188881" lon="8.1599816790784"><ele>566.0</ele><time>2026-04-08T09:25:09Z</time></trkpt><trkpt lat="34.37487127274752" lon="8.159946581627514"><ele>566.0</ele><time>2026-04-08T09:25:10Z</time></trkpt><trkpt lat="34.374971576498666" lon="8.159902727566418"><ele>566.0</ele><time>2026-04-08T09:25:11Z</time></trkpt><trkpt lat="34.37508198146623" lon="8.159850835027964"><ele>566.0</ele><time>2026-04-08T09:25:12Z</time></trkpt><trkpt lat="34.375201116697696" lon="8.159789578393243"><ele>566.0</ele><time>2026-04-08T09:25:13Z</time></trkpt><trkpt lat="34.37533476938737" lon="8.159719292991555"><ele>567.25</ele><time>2026-04-08T09:25:14Z</time></trkpt><trkpt lat="34.37546472650265" lon="8.159652457450694"><ele>568.5</ele><time>2026-04-08T09:25:15Z</time></trkpt><trkpt lat="34.37559372294596" lon="8.159582057821318"><ele>569.75</ele><time>2026-04-08T09:25:16Z</time></trkpt><trkpt lat="34.37571269807601" lon="8.159509917761179"><ele>571.0</ele><time>2026-04-08T09:25:17Z</time></trkpt><trkpt lat="34.375823922002105" lon="8.15943281194341"><ele>571.0</ele><time>2026-04-08T09:25:18Z</time></trkpt><trkpt lat="34.375934980779654" lon="8.159338376643614"><ele>571.0</ele><time>2026-04-08T09:25:19Z</time></trkpt><trkpt lat="34.37604487571356" lon="8.159220349922345"><ele>571.0</ele><time>2026-04-08T09:25:20Z</time></trkpt><trkpt lat="34.37614926988678" lon="8.159081319321153"><ele>571.0</ele><time>2026-04-08T09:25:21Z</time></trkpt><trkpt lat="34.37624923142323" lon="8.15893627868017"><ele>571.6666666666667</ele><time>2026-04-08T09:25:22Z</time></trkpt><trkpt lat="34.37634992451299" lon="8.158799368991755"><ele>572.3333333333334</ele><time>2026-04-08T09:25:23Z</time></trkpt><trkpt lat="34.37645198344251" lon="8.158659227033183"><ele>573.0</ele><time>2026-04-08T09:25:24Z</time></trkpt><trkpt lat="34.37655348254354" lon="8.158520442521295"><ele>572.6666666666666</ele><time>2026-04-08T09:25:25Z</time></trkpt><trkpt lat="34.37665403578611" lon="8.158380013803667"><ele>572.3333333333333</ele><time>2026-04-08T09:25:26Z</time></trkpt><trkpt lat="34.376752098800864" lon="8.158237871305374"><ele>572.0</ele><time>2026-04-08T09:25:27Z</time></trkpt><trkpt lat="34.376848079629184" lon="8.158096252796655"><ele>572.0</ele><time>2026-04-08T09:25:28Z</time></trkpt><trkpt lat="34.376943354304494" lon="8.157958732349373"><ele>572.0</ele><time>2026-04-08T09:25:29Z</time></trkpt><trkpt lat="34.37703710686109" lon="8.157823707148697"><ele>572.0</ele><time>2026-04-08T09:25:30Z</time></trkpt><trkpt lat="34.37713041825232" lon="8.157691258185421"><ele>572.0</ele><time>2026-04-08T09:25:31Z</time></trkpt><trkpt lat="34.377211600108154" lon="8.157574950946929"><ele>572.2</ele><time>2026-04-08T09:25:32Z</time></trkpt><trkpt lat="34.37728553429783" lon="8.157472588224882"><ele>572.4000000000001</ele><time>2026-04-08T09:25:33Z</time></trkpt><trkpt lat="34.37735855074479" lon="8.15736917327042"><ele>572.5999999999999</ele><time>2026-04-08T09:25:34Z</time></trkpt><trkpt lat="34.37743262275372" lon="8.15726622561594"><ele>572.8</ele><time>2026-04-08T09:25:35Z</time></trkpt><trkpt lat="34.37750899829952" lon="8.157166915236223"><ele>573.0</ele><time>2026-04-08T09:25:36Z</time></trkpt><trkpt lat="34.37758433089699" lon="8.157069715157558"><ele>573.4</ele><time>2026-04-08T09:25:37Z</time></trkpt><trkpt lat="34.37765735312058" lon="8.156971500463497"><ele>573.8</ele><time>2026-04-08T09:25:38Z</time></trkpt><trkpt lat="34.37772224531956" lon="8.156875656961695"><ele>574.2</ele><time>2026-04-08T09:25:39Z</time></trkpt><trkpt lat="34.37777644787453" lon="8.156798180703817"><ele>574.6</ele><time>2026-04-08T09:25:40Z</time></trkpt><trkpt lat="34.37782714261322" lon="8.15673267627663"><ele>575.0</ele><time>2026-04-08T09:25:41Z</time></trkpt><trkpt lat="34.37790472777936" lon="8.156627991677981"><ele>575.0</ele><time>2026-04-08T09:25:43Z</time></trkpt><trkpt lat="34.37794609128659" lon="8.15656655649543"><ele>575.0</ele><time>2026-04-08T09:25:44Z</time></trkpt><trkpt lat="34.377982729813404" lon="8.156486115110315"><ele>575.0</ele><time>2026-04-08T09:25:45Z</time></trkpt><trkpt lat="34.378022841591594" lon="8.156404346523697"><ele>575.0</ele><time>2026-04-08T09:25:46Z</time></trkpt><trkpt lat="34.37806040138696" lon="8.156313360620969"><ele>575.0</ele><time>2026-04-08T09:25:47Z</time></trkpt><trkpt lat="34.37811049819552" lon="8.156221995961271"><ele>575.0</ele><time>2026-04-08T09:25:48Z</time></trkpt><trkpt lat="34.3781607727045" lon="8.156132730113947"><ele>574.6</ele><time>2026-04-08T09:25:49Z</time></trkpt><trkpt lat="34.3782096805711" lon="8.156039750652143"><ele>574.2</ele><time>2026-04-08T09:25:50Z</time></trkpt><trkpt lat="34.37826186009517" lon="8.15594234924935"><ele>573.8</ele><time>2026-04-08T09:25:51Z</time></trkpt><trkpt lat="34.37831131534251" lon="8.155839904821775"><ele>573.4</ele><time>2026-04-08T09:25:52Z</time></trkpt><trkpt lat="34.37836216865922" lon="8.155729713855719"><ele>573.0</ele><time>2026-04-08T09:25:53Z</time></trkpt><trkpt lat="34.37841730405692" lon="8.155614217724528"><ele>572.4</ele><time>2026-04-08T09:25:54Z</time></trkpt><trkpt lat="34.37846648997361" lon="8.15550730548323"><ele>571.8</ele><time>2026-04-08T09:25:55Z</time></trkpt><trkpt lat="34.37851964325244" lon="8.155399960957197"><ele>571.2</ele><time>2026-04-08T09:25:56Z</time></trkpt><trkpt lat="34.378573036184925" lon="8.15528252281221"><ele>570.6</ele><time>2026-04-08T09:25:57Z</time></trkpt><trkpt lat="34.37862460666713" lon="8.155171153104275"><ele>570.0</ele><time>2026-04-08T09:25:58Z</time></trkpt><trkpt lat="34.37867501597781" lon="8.155069083047703"><ele>570.0</ele><time>2026-04-08T09:25:59Z</time></trkpt><trkpt lat="34.37872591012843" lon="8.154963760956562"><ele>570.0</ele><time>2026-04-08T09:26:00Z</time></trkpt><trkpt lat="34.3788026053401" lon="8.154835392216626"><ele>570.0</ele><time>2026-04-08T09:26:01Z</time></trkpt><trkpt lat="34.37888573239854" lon="8.154721132457988"><ele>570.0</ele><time>2026-04-08T09:26:02Z</time></trkpt><trkpt lat="34.378960661338084" lon="8.15462382214194"><ele>569.8333333333334</ele><time>2026-04-08T09:26:03Z</time></trkpt><trkpt lat="34.37903086745254" lon="8.154530272686786"><ele>569.6666666666666</ele><time>2026-04-08T09:26:04Z</time></trkpt><trkpt lat="34.379096778023026" lon="8.154448003427156"><ele>569.5</ele><time>2026-04-08T09:26:05Z</time></trkpt><trkpt lat="34.379151352053796" lon="8.15438228058306"><ele>569.3333333333333</ele><time>2026-04-08T09:26:06Z</time></trkpt><trkpt lat="34.37920069853539" lon="8.154320208707501"><ele>569.1666666666666</ele><time>2026-04-08T09:26:07Z</time></trkpt><trkpt lat="34.37924745556535" lon="8.154263618903908"><ele>569.0</ele><time>2026-04-08T09:26:08Z</time></trkpt><trkpt lat="34.37932207914694" lon="8.154158267591503"><ele>569.0</ele><time>2026-04-08T09:26:10Z</time></trkpt><trkpt lat="34.379383548668685" lon="8.154069466209444"><ele>569.0</ele><time>2026-04-08T09:26:12Z</time></trkpt><trkpt lat="34.37942852031264" lon="8.154011031863165"><ele>569.0</ele><time>2026-04-08T09:26:14Z</time></trkpt><trkpt lat="34.379487313894025" lon="8.153937675292775"><ele>569.0</ele><time>2026-04-08T09:26:16Z</time></trkpt><trkpt lat="34.37956716951895" lon="8.153831056289302"><ele>569.0</ele><time>2026-04-08T09:26:18Z</time></trkpt><trkpt lat="34.37961292518769" lon="8.153769885291878"><ele>569.0</ele><time>2026-04-08T09:26:19Z</time></trkpt><trkpt lat="34.37965833263538" lon="8.153704600499902"><ele>568.8</ele><time>2026-04-08T09:26:20Z</time></trkpt><trkpt lat="34.37974707800146" lon="8.15358808639405"><ele>568.5999999999999</ele><time>2026-04-08T09:26:22Z</time></trkpt><trkpt lat="34.37979289277247" lon="8.15351609157199"><ele>568.4</ele><time>2026-04-08T09:26:23Z</time></trkpt><trkpt lat="34.379838463690504" lon="8.15344875922128"><ele>568.1999999999999</ele><time>2026-04-08T09:26:24Z</time></trkpt><trkpt lat="34.37989786693509" lon="8.15336883703568"><ele>568.0</ele><time>2026-04-08T09:26:25Z</time></trkpt><trkpt lat="34.37995809719322" lon="8.15326933124953"><ele>568.0</ele><time>2026-04-08T09:26:26Z</time></trkpt><trkpt lat="34.38003108819237" lon="8.153175773355766"><ele>568.0</ele><time>2026-04-08T09:26:27Z</time></trkpt><trkpt lat="34.38009831229377" lon="8.153087826235778"><ele>568.0</ele><time>2026-04-08T09:26:28Z</time></trkpt><trkpt lat="34.380150379403545" lon="8.153002102026985"><ele>568.0</ele><time>2026-04-08T09:26:29Z</time></trkpt><trkpt lat="34.380191191331164" lon="8.152931537062791"><ele>568.0</ele><time>2026-04-08T09:26:30Z</time></trkpt><trkpt lat="34.38025652611251" lon="8.15281512162463"><ele>568.0</ele><time>2026-04-08T09:26:32Z</time></trkpt><trkpt lat="34.38031657616706" lon="8.152702752807816"><ele>568.0</ele><time>2026-04-08T09:26:34Z</time></trkpt><trkpt lat="34.38036886887494" lon="8.152601515730664"><ele>568.0</ele><time>2026-04-08T09:26:36Z</time></trkpt><trkpt lat="34.38040157953633" lon="8.15252829037356"><ele>568.0</ele><time>2026-04-08T09:26:39Z</time></trkpt><trkpt lat="34.38043499219157" lon="8.15246241074133"><ele>568.0</ele><time>2026-04-08T09:26:51Z</time></trkpt><trkpt lat="34.380478593477214" lon="8.15237861761226"><ele>568.0</ele><time>2026-04-08T09:26:54Z</time></trkpt><trkpt lat="34.38049754448734" lon="8.15230581533697"><ele>568.0</ele><time>2026-04-08T09:27:14Z</time></trkpt><trkpt lat="34.380519362823726" lon="8.152195477919943"><ele>568.0</ele><time>2026-04-08T09:27:16Z</time></trkpt><trkpt lat="34.38054794449289" lon="8.152093220411698"><ele>568.0</ele><time>2026-04-08T09:27:18Z</time></trkpt><trkpt lat="34.38058188231967" lon="8.151997749941135"><ele>568.0</ele><time>2026-04-08T09:27:20Z</time></trkpt><trkpt lat="34.38062346621529" lon="8.151864699641292"><ele>568.0</ele><time>2026-04-08T09:27:22Z</time></trkpt><trkpt lat="34.38064952632705" lon="8.151776420086266"><ele>568.0</ele><time>2026-04-08T09:27:23Z</time></trkpt><trkpt lat="34.380688592120734" lon="8.151632419382896"><ele>568.0</ele><time>2026-04-08T09:27:25Z</time></trkpt><trkpt lat="34.380715707583875" lon="8.1515614893441"><ele>568.0</ele><time>2026-04-08T09:27:26Z</time></trkpt><trkpt lat="34.38075800041945" lon="8.151458765614821"><ele>568.0</ele><time>2026-04-08T09:27:28Z</time></trkpt><trkpt lat="34.38079867796052" lon="8.15138121477853"><ele>568.0</ele><time>2026-04-08T09:27:30Z</time></trkpt><trkpt lat="34.38087762894402" lon="8.15136165624567"><ele>568.0</ele><time>2026-04-08T09:27:32Z</time></trkpt><trkpt lat="34.380997332336015" lon="8.151436215209548"><ele>568.0</ele><time>2026-04-08T09:27:34Z</time></trkpt><trkpt lat="34.38106412650998" lon="8.15149657397468"><ele>568.0</ele><time>2026-04-08T09:27:35Z</time></trkpt><trkpt lat="34.38114165625536" lon="8.151562527350238"><ele>568.0</ele><time>2026-04-08T09:27:36Z</time></trkpt><trkpt lat="34.38124211377172" lon="8.151642914044881"><ele>568.0</ele><time>2026-04-08T09:27:37Z</time></trkpt><trkpt lat="34.381329761978286" lon="8.151713365319193"><ele>568.0</ele><time>2026-04-08T09:27:38Z</time></trkpt><trkpt lat="34.38142238765406" lon="8.151780007612595"><ele>568.0</ele><time>2026-04-08T09:27:39Z</time></trkpt><trkpt lat="34.38152987958605" lon="8.151862176800249"><ele>568.0</ele><time>2026-04-08T09:27:40Z</time></trkpt><trkpt lat="34.38162612319863" lon="8.15194067441825"><ele>568.0</ele><time>2026-04-08T09:27:41Z</time></trkpt><trkpt lat="34.38172918504427" lon="8.152022470225058"><ele>568.0</ele><time>2026-04-08T09:27:42Z</time></trkpt><trkpt lat="34.38183089533185" lon="8.152091734868634"><ele>568.0</ele><time>2026-04-08T09:27:43Z</time></trkpt><trkpt lat="34.38192254123718" lon="8.152161038743657"><ele>568.0</ele><time>2026-04-08T09:27:44Z</time></trkpt><trkpt lat="34.382012625998904" lon="8.152228871618098"><ele>568.0</ele><time>2026-04-08T09:27:45Z</time></trkpt><trkpt lat="34.382104805253135" lon="8.152297399913456"><ele>568.0</ele><time>2026-04-08T09:27:46Z</time></trkpt><trkpt lat="34.38220041021563" lon="8.152371501597326"><ele>568.0</ele><time>2026-04-08T09:27:47Z</time></trkpt><trkpt lat="34.38229838361407" lon="8.152446527193062"><ele>567.75</ele><time>2026-04-08T09:27:48Z</time></trkpt><trkpt lat="34.3823976451263" lon="8.152524924213205"><ele>567.5</ele><time>2026-04-08T09:27:49Z</time></trkpt><trkpt lat="34.38249105327769" lon="8.152600534747252"><ele>567.25</ele><time>2026-04-08T09:27:50Z</time></trkpt><trkpt lat="34.38259073116672" lon="8.152679794722266"><ele>567.0</ele><time>2026-04-08T09:27:51Z</time></trkpt><trkpt lat="34.382689420705965" lon="8.152757456077824"><ele>567.0</ele><time>2026-04-08T09:27:52Z</time></trkpt><trkpt lat="34.382789284431674" lon="8.152833507525884"><ele>567.0</ele><time>2026-04-08T09:27:53Z</time></trkpt><trkpt lat="34.382891316118105" lon="8.15290837079267"><ele>567.0</ele><time>2026-04-08T09:27:54Z</time></trkpt><trkpt lat="34.38299657059628" lon="8.152982457053957"><ele>567.0</ele><time>2026-04-08T09:27:55Z</time></trkpt><trkpt lat="34.3830979876797" lon="8.15305270642953"><ele>567.0</ele><time>2026-04-08T09:27:56Z</time></trkpt><trkpt lat="34.38318734945367" lon="8.153122760468793"><ele>567.0</ele><time>2026-04-08T09:27:57Z</time></trkpt><trkpt lat="34.38327869748101" lon="8.153190676392073"><ele>567.0</ele><time>2026-04-08T09:27:58Z</time></trkpt><trkpt lat="34.38336702812119" lon="8.153254532601233"><ele>567.0</ele><time>2026-04-08T09:27:59Z</time></trkpt><trkpt lat="34.38345555721985" lon="8.15331975201199"><ele>567.0</ele><time>2026-04-08T09:28:00Z</time></trkpt><trkpt lat="34.38354267282464" lon="8.153384058137346"><ele>566.6</ele><time>2026-04-08T09:28:01Z</time></trkpt><trkpt lat="34.38363204594722" lon="8.153447031313586"><ele>566.2</ele><time>2026-04-08T09:28:02Z</time></trkpt><trkpt lat="34.38371781220513" lon="8.153504868749234"><ele>565.8</ele><time>2026-04-08T09:28:03Z</time></trkpt><trkpt lat="34.38378987790598" lon="8.153557095764006"><ele>565.4</ele><time>2026-04-08T09:28:04Z</time></trkpt><trkpt lat="34.383863663675655" lon="8.15361811541989"><ele>565.0</ele><time>2026-04-08T09:28:05Z</time></trkpt><trkpt lat="34.383938982001006" lon="8.15367359784884"><ele>565.5714285714286</ele><time>2026-04-08T09:28:06Z</time></trkpt><trkpt lat="34.38401457105266" lon="8.153721788431941"><ele>566.1428571428571</ele><time>2026-04-08T09:28:07Z</time></trkpt><trkpt lat="34.38407250648573" lon="8.153772416182353"><ele>566.7142857142858</ele><time>2026-04-08T09:28:08Z</time></trkpt><trkpt lat="34.38412707943702" lon="8.153824846193986"><ele>567.2857142857142</ele><time>2026-04-08T09:28:09Z</time></trkpt><trkpt lat="34.384186553562614" lon="8.153873250947232"><ele>567.8571428571429</ele><time>2026-04-08T09:28:10Z</time></trkpt><trkpt lat="34.384243856463904" lon="8.153919491686262"><ele>568.4285714285714</ele><time>2026-04-08T09:28:11Z</time></trkpt><trkpt lat="34.3842979214763" lon="8.153968433033125"><ele>569.0</ele><time>2026-04-08T09:28:11.999Z</time></trkpt><trkpt lat="34.38435456719339" lon="8.154021227913919"><ele>568.2</ele><time>2026-04-08T09:28:12.999Z</time></trkpt><trkpt lat="34.3844376169936" lon="8.154129874531458"><ele>567.4</ele><time>2026-04-08T09:28:14.999Z</time></trkpt><trkpt lat="34.384516775610415" lon="8.154229883749178"><ele>566.6</ele><time>2026-04-08T09:28:16.999Z</time></trkpt><trkpt lat="34.38457136969787" lon="8.154313610486899"><ele>565.8</ele><time>2026-04-08T09:28:18.999Z</time></trkpt><trkpt lat="34.38457176022072" lon="8.154403427054955"><ele>565.0</ele><time>2026-04-08T09:29:18Z</time></trkpt><trkpt lat="34.38465974506163" lon="8.154453501297741"><ele>565.25</ele><time>2026-04-08T09:29:36Z</time></trkpt><trkpt lat="34.38475839239583" lon="8.154587315054124"><ele>565.5</ele><time>2026-04-08T09:29:38Z</time></trkpt><trkpt lat="34.38485284262104" lon="8.15471044867542"><ele>565.75</ele><time>2026-04-08T09:29:39Z</time></trkpt><trkpt lat="34.38492543211818" lon="8.154820714907093"><ele>566.0</ele><time>2026-04-08T09:29:40Z</time></trkpt><trkpt lat="34.38499626104875" lon="8.154935037780993"><ele>565.25</ele><time>2026-04-08T09:29:41Z</time></trkpt><trkpt lat="34.385079873849" lon="8.155065053071112"><ele>564.5</ele><time>2026-04-08T09:29:42Z</time></trkpt><trkpt lat="34.38517733925933" lon="8.155220042266397"><ele>563.75</ele><time>2026-04-08T09:29:43Z</time></trkpt><trkpt lat="34.38525610488002" lon="8.155354540144549"><ele>563.0</ele><time>2026-04-08T09:29:44Z</time></trkpt><trkpt lat="34.385336113910455" lon="8.155479616762946"><ele>563.0</ele><time>2026-04-08T09:29:45Z</time></trkpt><trkpt lat="34.38542794415216" lon="8.155620541755816"><ele>563.0</ele><time>2026-04-08T09:29:46Z</time></trkpt><trkpt lat="34.385525432382195" lon="8.155760866447146"><ele>563.0</ele><time>2026-04-08T09:29:47Z</time></trkpt><trkpt lat="34.385617112183525" lon="8.155904034440614"><ele>563.0</ele><time>2026-04-08T09:29:48Z</time></trkpt><trkpt lat="34.38570514720489" lon="8.156047523460366"><ele>563.0</ele><time>2026-04-08T09:29:49Z</time></trkpt><trkpt lat="34.38579464828371" lon="8.156188236067928"><ele>563.0</ele><time>2026-04-08T09:29:50Z</time></trkpt><trkpt lat="34.38589279666584" lon="8.156343075396613"><ele>563.0</ele><time>2026-04-08T09:29:51Z</time></trkpt><trkpt lat="34.38597364444319" lon="8.156483042450843"><ele>563.0</ele><time>2026-04-08T09:29:52Z</time></trkpt><trkpt lat="34.38605463928689" lon="8.156612401395892"><ele>562.6</ele><time>2026-04-08T09:29:53Z</time></trkpt><trkpt lat="34.38612304017431" lon="8.156723582699533"><ele>562.1999999999999</ele><time>2026-04-08T09:29:54Z</time></trkpt><trkpt lat="34.38618027157258" lon="8.156825586070916"><ele>561.8</ele><time>2026-04-08T09:29:55Z</time></trkpt><trkpt lat="34.386228343198226" lon="8.156915543073069"><ele>561.4</ele><time>2026-04-08T09:29:56Z</time></trkpt><trkpt lat="34.3862636872429" lon="8.156989950845384"><ele>561.0</ele><time>2026-04-08T09:29:56.999Z</time></trkpt><trkpt lat="34.38629165327768" lon="8.15707568633138"><ele>561.0</ele><time>2026-04-08T09:29:58.999Z</time></trkpt><trkpt lat="34.38636365379419" lon="8.15704891845091"><ele>561.0</ele><time>2026-04-08T09:30:25.999Z</time></trkpt><trkpt lat="34.38637023848849" lon="8.156954902748884"><ele>561.0</ele><time>2026-04-08T09:30:29.999Z</time></trkpt><trkpt lat="34.38632294867854" lon="8.15686908089662"><ele>561.0</ele><time>2026-04-08T09:30:30.999Z</time></trkpt><trkpt lat="34.38624128334003" lon="8.156775122600399"><ele>561.0</ele><time>2026-04-08T09:30:31.999Z</time></trkpt><trkpt lat="34.386149237915504" lon="8.156662155594912"><ele>561.0</ele><time>2026-04-08T09:30:32.999Z</time></trkpt><trkpt lat="34.38607333162168" lon="8.156540970755794"><ele>561.0</ele><time>2026-04-08T09:30:33.999Z</time></trkpt><trkpt lat="34.386005949821566" lon="8.156421470954848"><ele>561.0</ele><time>2026-04-08T09:30:34.999Z</time></trkpt><trkpt lat="34.385934514309234" lon="8.156308205911877"><ele>561.0</ele><time>2026-04-08T09:30:35.999Z</time></trkpt><trkpt lat="34.38586352074134" lon="8.156202515094247"><ele>561.3333333333334</ele><time>2026-04-08T09:30:36.999Z</time></trkpt><trkpt lat="34.38580386526428" lon="8.156110048305928"><ele>561.6666666666666</ele><time>2026-04-08T09:30:37.999Z</time></trkpt><trkpt lat="34.38575686068081" lon="8.156036777044346"><ele>562.0</ele><time>2026-04-08T09:30:38.999Z</time></trkpt><trkpt lat="34.38570921383627" lon="8.155964410134809"><ele>562.3333333333333</ele><time>2026-04-08T09:30:39.999Z</time></trkpt><trkpt lat="34.3856592355036" lon="8.155883450072277"><ele>562.6666666666666</ele><time>2026-04-08T09:30:41Z</time></trkpt><trkpt lat="34.385607995710224" lon="8.155808355761353"><ele>563.0</ele><time>2026-04-08T09:30:42Z</time></trkpt><trkpt lat="34.385557653504456" lon="8.15573644756744"><ele>563.0</ele><time>2026-04-08T09:30:43Z</time></trkpt><trkpt lat="34.38550959588711" lon="8.155659929968454"><ele>563.0</ele><time>2026-04-08T09:30:44Z</time></trkpt><trkpt lat="34.38545441846951" lon="8.155578333462504"><ele>563.0</ele><time>2026-04-08T09:30:45Z</time></trkpt><trkpt lat="34.38539974331398" lon="8.155496329877693"><ele>563.0</ele><time>2026-04-08T09:30:46Z</time></trkpt><trkpt lat="34.38534543335023" lon="8.155409937939293"><ele>563.0</ele><time>2026-04-08T09:30:47Z</time></trkpt><trkpt lat="34.385291067672" lon="8.15531885823097"><ele>563.0</ele><time>2026-04-08T09:30:48Z</time></trkpt><trkpt lat="34.385235895195244" lon="8.155228868791504"><ele>563.0</ele><time>2026-04-08T09:30:49Z</time></trkpt><trkpt lat="34.38518133978012" lon="8.155141984013344"><ele>563.0</ele><time>2026-04-08T09:30:50Z</time></trkpt><trkpt lat="34.385132920520526" lon="8.155070613507176"><ele>563.0</ele><time>2026-04-08T09:30:51Z</time></trkpt><trkpt lat="34.385086339242505" lon="8.154996768908907"><ele>563.0</ele><time>2026-04-08T09:30:52Z</time></trkpt><trkpt lat="34.38503980746371" lon="8.154920164567947"><ele>563.0</ele><time>2026-04-08T09:30:53Z</time></trkpt><trkpt lat="34.384991414269486" lon="8.154844881495249"><ele>563.0</ele><time>2026-04-08T09:30:54Z</time></trkpt><trkpt lat="34.384942738170274" lon="8.154770061476887"><ele>563.3333333333333</ele><time>2026-04-08T09:30:55Z</time></trkpt><trkpt lat="34.38489420289355" lon="8.154694733029054"><ele>563.6666666666666</ele><time>2026-04-08T09:30:56Z</time></trkpt><trkpt lat="34.38484627588188" lon="8.154621250587683"><ele>564.0</ele><time>2026-04-08T09:30:57Z</time></trkpt><trkpt lat="34.38480644492547" lon="8.154558244847994"><ele>564.3333333333334</ele><time>2026-04-08T09:30:58Z</time></trkpt><trkpt lat="34.38474538297298" lon="8.154451878439003"><ele>564.6666666666667</ele><time>2026-04-08T09:31:00Z</time></trkpt><trkpt lat="34.384680639485644" lon="8.15441570569877"><ele>565.0</ele><time>2026-04-08T09:35:32.999Z</time></trkpt><trkpt lat="34.38462433810777" lon="8.154369815281353"><ele>565.0</ele><time>2026-04-08T09:35:39.999Z</time></trkpt><trkpt lat="34.3845657137756" lon="8.154341444638987"><ele>565.0</ele><time>2026-04-08T09:35:49.999Z</time></trkpt><trkpt lat="34.38449038673911" lon="8.154355104179755"><ele>565.0</ele><time>2026-04-08T09:36:22.999Z</time></trkpt><trkpt lat="34.38456372738814" lon="8.154358210368619"><ele>565.0</ele><time>2026-04-08T09:40:49.999Z</time></trkpt><trkpt lat="34.38468075005374" lon="8.154417450485024"><ele>565.0</ele><time>2026-04-08T10:10:15.999Z</time></trkpt><trkpt lat="34.384638720545986" lon="8.154310703017345"><ele>565.0</ele><time>2026-04-08T10:11:29.999Z</time></trkpt><trkpt lat="34.38456769530732" lon="8.154205476520685"><ele>565.0</ele><time>2026-04-08T10:11:31.999Z</time></trkpt><trkpt lat="34.384512871822395" lon="8.154091902785021"><ele>565.0</ele><time>2026-04-08T10:11:33.999Z</time></trkpt><trkpt lat="34.384509650017314" lon="8.15400941833632"><ele>565.0</ele><time>2026-04-08T10:11:35.999Z</time></trkpt><trkpt lat="34.3845148097858" lon="8.15392563002685"><ele>565.0</ele><time>2026-04-08T10:11:37.999Z</time></trkpt><trkpt lat="34.38449714187679" lon="8.153813459898934"><ele>565.0</ele><time>2026-04-08T10:11:39.999Z</time></trkpt><trkpt lat="34.38443515564279" lon="8.153731139950999"><ele>565.0</ele><time>2026-04-08T10:11:41.999Z</time></trkpt><trkpt lat="34.38433832686033" lon="8.153737546536565"><ele>565.0</ele><time>2026-04-08T10:11:43.999Z</time></trkpt><trkpt lat="34.38428535423657" lon="8.153821956602366"><ele>565.0</ele><time>2026-04-08T10:11:45.999Z</time></trkpt><trkpt lat="34.38430644723538" lon="8.153921426197703"><ele>565.0</ele><time>2026-04-08T10:11:47.999Z</time></trkpt><trkpt lat="34.384366789242435" lon="8.15400103422686"><ele>565.0</ele><time>2026-04-08T10:11:49.999Z</time></trkpt><trkpt lat="34.384448139549875" lon="8.154099164156015"><ele>565.0</ele><time>2026-04-08T10:11:51.999Z</time></trkpt><trkpt lat="34.38449236559839" lon="8.15415410989692"><ele>565.0</ele><time>2026-04-08T10:11:52.999Z</time></trkpt><trkpt lat="34.38453401363901" lon="8.154211328222946"><ele>565.0</ele><time>2026-04-08T10:11:53.999Z</time></trkpt><trkpt lat="34.384607278914686" lon="8.15432211701486"><ele>565.0</ele><time>2026-04-08T10:11:55.999Z</time></trkpt><trkpt lat="34.38465954228769" lon="8.154399640673452"><ele>565.0</ele><time>2026-04-08T10:11:57.999Z</time></trkpt><trkpt lat="34.384700907014796" lon="8.154457538129792"><ele>565.0</ele><time>2026-04-08T10:11:59.999Z</time></trkpt><trkpt lat="34.38476060877196" lon="8.154546244051781"><ele>565.0</ele><time>2026-04-08T10:12:02.999Z</time></trkpt><trkpt lat="34.38480336127651" lon="8.154613074740306"><ele>565.0</ele><time>2026-04-08T10:12:04.999Z</time></trkpt><trkpt lat="34.38484240117583" lon="8.154683170453476"><ele>565.1666666666667</ele><time>2026-04-08T10:12:06.999Z</time></trkpt><trkpt lat="34.38488549629993" lon="8.154761951132778"><ele>565.3333333333334</ele><time>2026-04-08T10:12:08.999Z</time></trkpt><trkpt lat="34.38493041851703" lon="8.154843129187643"><ele>565.5</ele><time>2026-04-08T10:12:10.999Z</time></trkpt><trkpt lat="34.38496627566547" lon="8.154932494782685"><ele>565.6666666666666</ele><time>2026-04-08T10:12:12.999Z</time></trkpt><trkpt lat="34.385002041502666" lon="8.155010756172667"><ele>565.8333333333333</ele><time>2026-04-08T10:12:15.999Z</time></trkpt><trkpt lat="34.38509695274993" lon="8.155090647245625"><ele>566.0</ele><time>2026-04-08T10:27:47Z</time></trkpt><trkpt lat="34.385149562152854" lon="8.155187252446018"><ele>565.25</ele><time>2026-04-08T10:27:48Z</time></trkpt><trkpt lat="34.38523758169197" lon="8.155329370660162"><ele>564.5</ele><time>2026-04-08T10:27:49Z</time></trkpt><trkpt lat="34.38531948630702" lon="8.155464312247284"><ele>563.75</ele><time>2026-04-08T10:27:50Z</time></trkpt><trkpt lat="34.385391011812025" lon="8.155579983602381"><ele>563.0</ele><time>2026-04-08T10:27:51Z</time></trkpt><trkpt lat="34.38546177607746" lon="8.155687745409457"><ele>563.0</ele><time>2026-04-08T10:27:52Z</time></trkpt><trkpt lat="34.385536480994446" lon="8.155794490898439"><ele>563.0</ele><time>2026-04-08T10:27:53Z</time></trkpt><trkpt lat="34.38560922795331" lon="8.155900410568643"><ele>563.0</ele><time>2026-04-08T10:27:54Z</time></trkpt><trkpt lat="34.385669155407456" lon="8.156001675667412"><ele>563.0</ele><time>2026-04-08T10:27:55Z</time></trkpt><trkpt lat="34.38571983820346" lon="8.15608070458456"><ele>563.0</ele><time>2026-04-08T10:27:56Z</time></trkpt><trkpt lat="34.38576336080218" lon="8.156151340914114"><ele>563.0</ele><time>2026-04-08T10:27:57Z</time></trkpt><trkpt lat="34.38581139811532" lon="8.15622462511089"><ele>563.0</ele><time>2026-04-08T10:27:58Z</time></trkpt><trkpt lat="34.38585809291798" lon="8.156298767728282"><ele>563.0</ele><time>2026-04-08T10:27:59Z</time></trkpt><trkpt lat="34.38590304800794" lon="8.15637418582173"><ele>563.0</ele><time>2026-04-08T10:28:00Z</time></trkpt><trkpt lat="34.38595111481845" lon="8.15644782847644"><ele>563.0</ele><time>2026-04-08T10:28:01Z</time></trkpt><trkpt lat="34.385997394631346" lon="8.156521954785083"><ele>563.0</ele><time>2026-04-08T10:28:02Z</time></trkpt><trkpt lat="34.386041543143634" lon="8.15658535549892"><ele>562.7142857142857</ele><time>2026-04-08T10:28:03Z</time></trkpt><trkpt lat="34.386088684897786" lon="8.156648582204532"><ele>562.4285714285714</ele><time>2026-04-08T10:28:04Z</time></trkpt><trkpt lat="34.38612466549638" lon="8.15672024795447"><ele>562.1428571428571</ele><time>2026-04-08T10:28:05Z</time></trkpt><trkpt lat="34.386160970582274" lon="8.156785661070504"><ele>561.8571428571429</ele><time>2026-04-08T10:28:06Z</time></trkpt><trkpt lat="34.38619910555791" lon="8.156851479923827"><ele>561.5714285714286</ele><time>2026-04-08T10:28:07Z</time></trkpt><trkpt lat="34.38623830144632" lon="8.156916708554801"><ele>561.2857142857142</ele><time>2026-04-08T10:28:08Z</time></trkpt><trkpt lat="34.38627993988011" lon="8.156980682325722"><ele>561.0</ele><time>2026-04-08T10:28:09Z</time></trkpt><trkpt lat="34.38632208596719" lon="8.157048882393982"><ele>560.8571428571429</ele><time>2026-04-08T10:28:10Z</time></trkpt><trkpt lat="34.386365191555015" lon="8.15711738377836"><ele>560.7142857142857</ele><time>2026-04-08T10:28:11Z</time></trkpt><trkpt lat="34.38640771188488" lon="8.157178778382074"><ele>560.5714285714286</ele><time>2026-04-08T10:28:12Z</time></trkpt><trkpt lat="34.38645134106151" lon="8.157234884263962"><ele>560.4285714285714</ele><time>2026-04-08T10:28:13Z</time></trkpt><trkpt lat="34.38649727131373" lon="8.1573013721486"><ele>560.2857142857142</ele><time>2026-04-08T10:28:13.999Z</time></trkpt><trkpt lat="34.38654378961251" lon="8.15737653604019"><ele>560.1428571428571</ele><time>2026-04-08T10:28:14.999Z</time></trkpt><trkpt lat="34.38659393337101" lon="8.15745112475203"><ele>560.0</ele><time>2026-04-08T10:28:15.999Z</time></trkpt><trkpt lat="34.386644821991304" lon="8.157526422665203"><ele>560.0</ele><time>2026-04-08T10:28:16.999Z</time></trkpt><trkpt lat="34.386696366929094" lon="8.157602885670538"><ele>560.0</ele><time>2026-04-08T10:28:17.999Z</time></trkpt><trkpt lat="34.38673696776164" lon="8.157670610825383"><ele>560.0</ele><time>2026-04-08T10:28:18.999Z</time></trkpt><trkpt lat="34.38677633688466" lon="8.157734882662453"><ele>560.0</ele><time>2026-04-08T10:28:19.999Z</time></trkpt><trkpt lat="34.386819571517414" lon="8.15779250627123"><ele>560.0</ele><time>2026-04-08T10:28:20.999Z</time></trkpt><trkpt lat="34.38686148995278" lon="8.157858539948212"><ele>560.0</ele><time>2026-04-08T10:28:21.999Z</time></trkpt><trkpt lat="34.386898671938" lon="8.157922823798708"><ele>560.0</ele><time>2026-04-08T10:28:22.999Z</time></trkpt><trkpt lat="34.386971407674984" lon="8.15803689221086"><ele>560.0</ele><time>2026-04-08T10:28:24.999Z</time></trkpt><trkpt lat="34.387008698628236" lon="8.1580995426318"><ele>560.0</ele><time>2026-04-08T10:28:25.999Z</time></trkpt><trkpt lat="34.38704746112366" lon="8.158165555882555"><ele>560.0</ele><time>2026-04-08T10:28:26.999Z</time></trkpt><trkpt lat="34.38709274792485" lon="8.158235771747226"><ele>560.0</ele><time>2026-04-08T10:28:27.999Z</time></trkpt><trkpt lat="34.387139784503205" lon="8.158310701625252"><ele>560.0</ele><time>2026-04-08T10:28:28.999Z</time></trkpt><trkpt lat="34.38718880553074" lon="8.158387178198572"><ele>560.0</ele><time>2026-04-08T10:28:29.999Z</time></trkpt><trkpt lat="34.38723681591429" lon="8.158459625111663"><ele>560.0</ele><time>2026-04-08T10:28:30.999Z</time></trkpt><trkpt lat="34.38728014374259" lon="8.158523745212618"><ele>560.8</ele><time>2026-04-08T10:28:31.999Z</time></trkpt><trkpt lat="34.38735509504044" lon="8.158636689132909"><ele>561.6</ele><time>2026-04-08T10:28:33.999Z</time></trkpt><trkpt lat="34.38740044414824" lon="8.158690952021406"><ele>562.4</ele><time>2026-04-08T10:28:34.999Z</time></trkpt><trkpt lat="34.38744707948674" lon="8.158753196930398"><ele>563.2</ele><time>2026-04-08T10:28:35.999Z</time></trkpt><trkpt lat="34.38751403913536" lon="8.158858165199435"><ele>564.0</ele><time>2026-04-08T10:28:37.999Z</time></trkpt><trkpt lat="34.38758543671145" lon="8.158978343136507"><ele>563.7142857142858</ele><time>2026-04-08T10:28:39.999Z</time></trkpt><trkpt lat="34.387624636034836" lon="8.159047401136464"><ele>563.4285714285714</ele><time>2026-04-08T10:28:40.999Z</time></trkpt><trkpt lat="34.38766652155212" lon="8.159114305526721"><ele>563.1428571428571</ele><time>2026-04-08T10:28:41.999Z</time></trkpt><trkpt lat="34.387711701832075" lon="8.15918137584066"><ele>562.8571428571429</ele><time>2026-04-08T10:28:42.999Z</time></trkpt><trkpt lat="34.38775938911425" lon="8.15924742152333"><ele>562.5714285714286</ele><time>2026-04-08T10:28:43.999Z</time></trkpt><trkpt lat="34.38780495566892" lon="8.159314773036462"><ele>562.2857142857143</ele><time>2026-04-08T10:28:44.999Z</time></trkpt><trkpt lat="34.387849957650715" lon="8.159385033797111"><ele>562.0</ele><time>2026-04-08T10:28:45.999Z</time></trkpt><trkpt lat="34.38791979465218" lon="8.159497331117407"><ele>562.0</ele><time>2026-04-08T10:28:47.999Z</time></trkpt><trkpt lat="34.38798893329897" lon="8.15960393611001"><ele>562.0</ele><time>2026-04-08T10:28:49.999Z</time></trkpt><trkpt lat="34.3880493157914" lon="8.159703352032233"><ele>562.0</ele><time>2026-04-08T10:28:51.999Z</time></trkpt><trkpt lat="34.38811953328654" lon="8.15981754757837"><ele>562.0</ele><time>2026-04-08T10:28:53.999Z</time></trkpt><trkpt lat="34.38819632779669" lon="8.159940917665548"><ele>561.8333333333334</ele><time>2026-04-08T10:28:55.999Z</time></trkpt><trkpt lat="34.38823852790229" lon="8.160011996054212"><ele>561.6666666666667</ele><time>2026-04-08T10:28:56.999Z</time></trkpt><trkpt lat="34.388283169545836" lon="8.160087979174381"><ele>561.5</ele><time>2026-04-08T10:28:57.999Z</time></trkpt><trkpt lat="34.3883293531687" lon="8.160162961663891"><ele>561.3333333333334</ele><time>2026-04-08T10:28:58.999Z</time></trkpt><trkpt lat="34.388381297390616" lon="8.160242223922006"><ele>561.1666666666666</ele><time>2026-04-08T10:28:59.999Z</time></trkpt><trkpt lat="34.38843059153324" lon="8.160317890446846"><ele>561.0</ele><time>2026-04-08T10:29:00.999Z</time></trkpt><trkpt lat="34.38847493959357" lon="8.16039517826555"><ele>561.0</ele><time>2026-04-08T10:29:01.999Z</time></trkpt><trkpt lat="34.388520115686944" lon="8.160465076755182"><ele>561.0</ele><time>2026-04-08T10:29:02.999Z</time></trkpt><trkpt lat="34.38856641972218" lon="8.160536927923413"><ele>561.0</ele><time>2026-04-08T10:29:03.999Z</time></trkpt><trkpt lat="34.388613019438736" lon="8.160612735930549"><ele>561.0</ele><time>2026-04-08T10:29:04.999Z</time></trkpt><trkpt lat="34.38865938836894" lon="8.16068608876894"><ele>561.0</ele><time>2026-04-08T10:29:05.999Z</time></trkpt><trkpt lat="34.38870816140503" lon="8.160762281155025"><ele>561.0</ele><time>2026-04-08T10:29:06.999Z</time></trkpt><trkpt lat="34.38875810816315" lon="8.160842068983738"><ele>560.8333333333334</ele><time>2026-04-08T10:29:07.999Z</time></trkpt><trkpt lat="34.38880660842548" lon="8.160925392236637"><ele>560.6666666666666</ele><time>2026-04-08T10:29:08.999Z</time></trkpt><trkpt lat="34.388855262877286" lon="8.161005082083939"><ele>560.5</ele><time>2026-04-08T10:29:09.999Z</time></trkpt><trkpt lat="34.38890695733416" lon="8.161089984222043"><ele>560.3333333333333</ele><time>2026-04-08T10:29:10.999Z</time></trkpt><trkpt lat="34.38896231541768" lon="8.16117463513909"><ele>560.1666666666666</ele><time>2026-04-08T10:29:11.999Z</time></trkpt><trkpt lat="34.38902106230863" lon="8.16126409593846"><ele>560.0</ele><time>2026-04-08T10:29:12.999Z</time></trkpt><trkpt lat="34.38907641666683" lon="8.161355632171473"><ele>560.2</ele><time>2026-04-08T10:29:13.999Z</time></trkpt><trkpt lat="34.389132604960416" lon="8.161448673916682"><ele>560.4</ele><time>2026-04-08T10:29:14.999Z</time></trkpt><trkpt lat="34.389193387677274" lon="8.161540645689044"><ele>560.6</ele><time>2026-04-08T10:29:15.999Z</time></trkpt><trkpt lat="34.38925592540051" lon="8.161634673612356"><ele>560.8</ele><time>2026-04-08T10:29:16.999Z</time></trkpt><trkpt lat="34.38931546830254" lon="8.161730228219785"><ele>561.0</ele><time>2026-04-08T10:29:17.999Z</time></trkpt><trkpt lat="34.38937570107168" lon="8.161822319366077"><ele>561.0</ele><time>2026-04-08T10:29:18.999Z</time></trkpt><trkpt lat="34.389434798704755" lon="8.161915306921694"><ele>561.0</ele><time>2026-04-08T10:29:19.999Z</time></trkpt><trkpt lat="34.38949354335002" lon="8.162011164935139"><ele>561.0</ele><time>2026-04-08T10:29:20.999Z</time></trkpt><trkpt lat="34.38955445138892" lon="8.162105149434687"><ele>561.0</ele><time>2026-04-08T10:29:21.999Z</time></trkpt><trkpt lat="34.389619639494946" lon="8.162200082836021"><ele>561.0</ele><time>2026-04-08T10:29:22.999Z</time></trkpt><trkpt lat="34.38968257016439" lon="8.16229550408842"><ele>561.4</ele><time>2026-04-08T10:29:23.999Z</time></trkpt><trkpt lat="34.38974329206488" lon="8.16238516977684"><ele>561.8</ele><time>2026-04-08T10:29:24.999Z</time></trkpt><trkpt lat="34.38979382097012" lon="8.162460842787693"><ele>562.1999999999999</ele><time>2026-04-08T10:29:25.999Z</time></trkpt><trkpt lat="34.38983725329325" lon="8.162525510500231"><ele>562.6</ele><time>2026-04-08T10:29:26.999Z</time></trkpt><trkpt lat="34.38990594070686" lon="8.162634178587835"><ele>563.0</ele><time>2026-04-08T10:29:28.999Z</time></trkpt><trkpt lat="34.38998574582772" lon="8.16275209153926"><ele>563.0</ele><time>2026-04-08T10:29:30.999Z</time></trkpt><trkpt lat="34.39003294362703" lon="8.162829000263933"><ele>563.0</ele><time>2026-04-08T10:29:31.999Z</time></trkpt><trkpt lat="34.390082019834686" lon="8.162909231340604"><ele>563.0</ele><time>2026-04-08T10:29:32.999Z</time></trkpt><trkpt lat="34.39013156080215" lon="8.162986288894496"><ele>563.0</ele><time>2026-04-08T10:29:33.999Z</time></trkpt><trkpt lat="34.39018130665362" lon="8.163054086169145"><ele>563.0</ele><time>2026-04-08T10:29:34.999Z</time></trkpt><trkpt lat="34.39023002119108" lon="8.163120340113974"><ele>563.0</ele><time>2026-04-08T10:29:35.999Z</time></trkpt><trkpt lat="34.39028039457227" lon="8.163187441241663"><ele>563.0</ele><time>2026-04-08T10:29:36.999Z</time></trkpt><trkpt lat="34.390334406924005" lon="8.163255459171335"><ele>563.0</ele><time>2026-04-08T10:29:37.999Z</time></trkpt><trkpt lat="34.39038220298115" lon="8.163323363480048"><ele>563.0</ele><time>2026-04-08T10:29:38.999Z</time></trkpt><trkpt lat="34.390423981533736" lon="8.163385191334454"><ele>563.0</ele><time>2026-04-08T10:29:39.999Z</time></trkpt><trkpt lat="34.39049894985185" lon="8.163488679462947"><ele>563.0</ele><time>2026-04-08T10:29:41.999Z</time></trkpt><trkpt lat="34.390587567890385" lon="8.163594676568056"><ele>563.3333333333333</ele><time>2026-04-08T10:29:43.999Z</time></trkpt><trkpt lat="34.3906303411029" lon="8.16365296840817"><ele>563.6666666666666</ele><time>2026-04-08T10:29:44.999Z</time></trkpt><trkpt lat="34.39067372691297" lon="8.163718136320213"><ele>564.0</ele><time>2026-04-08T10:29:45.999Z</time></trkpt><trkpt lat="34.390720114274515" lon="8.163784722594139"><ele>564.3333333333334</ele><time>2026-04-08T10:29:46.999Z</time></trkpt><trkpt lat="34.39077118379402" lon="8.163854999868311"><ele>564.6666666666667</ele><time>2026-04-08T10:29:47.999Z</time></trkpt><trkpt lat="34.39082336225944" lon="8.163932366027494"><ele>565.0</ele><time>2026-04-08T10:29:48.999Z</time></trkpt><trkpt lat="34.39087965063687" lon="8.164011715729076"><ele>564.8</ele><time>2026-04-08T10:29:49.999Z</time></trkpt><trkpt lat="34.390940448642446" lon="8.164095687535994"><ele>564.6</ele><time>2026-04-08T10:29:50.999Z</time></trkpt><trkpt lat="34.391001893597355" lon="8.164180741348378"><ele>564.4</ele><time>2026-04-08T10:29:51.999Z</time></trkpt><trkpt lat="34.39106304533694" lon="8.164268489948215"><ele>564.2</ele><time>2026-04-08T10:29:52.999Z</time></trkpt><trkpt lat="34.39112444288856" lon="8.164362885110656"><ele>564.0</ele><time>2026-04-08T10:29:53.999Z</time></trkpt><trkpt lat="34.39118608997338" lon="8.164458771007634"><ele>564.0</ele><time>2026-04-08T10:29:54.999Z</time></trkpt><trkpt lat="34.39125478284658" lon="8.164555462461182"><ele>564.0</ele><time>2026-04-08T10:29:55.999Z</time></trkpt><trkpt lat="34.39132455430852" lon="8.16464538654869"><ele>564.0</ele><time>2026-04-08T10:29:56.999Z</time></trkpt><trkpt lat="34.391386137125565" lon="8.164728790964249"><ele>564.0</ele><time>2026-04-08T10:29:57.999Z</time></trkpt><trkpt lat="34.39144040533802" lon="8.164806407982983"><ele>564.0</ele><time>2026-04-08T10:29:58.999Z</time></trkpt><trkpt lat="34.39148981304654" lon="8.16488237872112"><ele>564.3333333333334</ele><time>2026-04-08T10:29:59.999Z</time></trkpt><trkpt lat="34.39154236227478" lon="8.164962095234326"><ele>564.6666666666666</ele><time>2026-04-08T10:30:00.999Z</time></trkpt><trkpt lat="34.391596638899955" lon="8.165040798043284"><ele>565.0</ele><time>2026-04-08T10:30:01.999Z</time></trkpt><trkpt lat="34.391647076873426" lon="8.165114984573044"><ele>565.3333333333333</ele><time>2026-04-08T10:30:02.999Z</time></trkpt><trkpt lat="34.391695900989596" lon="8.165186418396248"><ele>565.6666666666666</ele><time>2026-04-08T10:30:03.999Z</time></trkpt><trkpt lat="34.39174938492527" lon="8.165263898732501"><ele>566.0</ele><time>2026-04-08T10:30:04.999Z</time></trkpt><trkpt lat="34.39180429453807" lon="8.165346846543294"><ele>566.0</ele><time>2026-04-08T10:30:05.999Z</time></trkpt><trkpt lat="34.39185882038481" lon="8.165431462634833"><ele>566.0</ele><time>2026-04-08T10:30:06.999Z</time></trkpt><trkpt lat="34.39191393591376" lon="8.16551495783907"><ele>566.0</ele><time>2026-04-08T10:30:07.999Z</time></trkpt><trkpt lat="34.391964681595184" lon="8.165591032621336"><ele>566.0</ele><time>2026-04-08T10:30:08.999Z</time></trkpt><trkpt lat="34.392014238033994" lon="8.165671970166247"><ele>566.0</ele><time>2026-04-08T10:30:09.999Z</time></trkpt><trkpt lat="34.39206927988352" lon="8.165760139782915"><ele>566.0</ele><time>2026-04-08T10:30:10.999Z</time></trkpt><trkpt lat="34.39212616413452" lon="8.16585032785632"><ele>565.8</ele><time>2026-04-08T10:30:11.999Z</time></trkpt><trkpt lat="34.39218392768378" lon="8.16594675285532"><ele>565.6</ele><time>2026-04-08T10:30:12.999Z</time></trkpt><trkpt lat="34.39224595481452" lon="8.166043649080489"><ele>565.4</ele><time>2026-04-08T10:30:13.999Z</time></trkpt><trkpt lat="34.39231424436017" lon="8.166135898849122"><ele>565.2</ele><time>2026-04-08T10:30:14.999Z</time></trkpt><trkpt lat="34.39238110353854" lon="8.166231234800959"><ele>565.0</ele><time>2026-04-08T10:30:15.999Z</time></trkpt><trkpt lat="34.3924438176262" lon="8.166325580243168"><ele>565.0</ele><time>2026-04-08T10:30:16.999Z</time></trkpt><trkpt lat="34.39250387680111" lon="8.166424805914025"><ele>565.0</ele><time>2026-04-08T10:30:17.999Z</time></trkpt><trkpt lat="34.39256843488347" lon="8.166529956395879"><ele>565.0</ele><time>2026-04-08T10:30:18.999Z</time></trkpt><trkpt lat="34.39263639763401" lon="8.166637454449061"><ele>565.0</ele><time>2026-04-08T10:30:19.999Z</time></trkpt><trkpt lat="34.39270776645805" lon="8.166744543637531"><ele>565.0</ele><time>2026-04-08T10:30:20.999Z</time></trkpt><trkpt lat="34.39278265554803" lon="8.166851965032166"><ele>564.75</ele><time>2026-04-08T10:30:21.999Z</time></trkpt><trkpt lat="34.39285676787657" lon="8.166962285463308"><ele>564.5</ele><time>2026-04-08T10:30:22.999Z</time></trkpt><trkpt lat="34.39293297382896" lon="8.167074875557795"><ele>564.25</ele><time>2026-04-08T10:30:23.999Z</time></trkpt><trkpt lat="34.39300963849328" lon="8.167190554944007"><ele>564.0</ele><time>2026-04-08T10:30:24.999Z</time></trkpt><trkpt lat="34.393081082631184" lon="8.167301640286636"><ele>563.6</ele><time>2026-04-08T10:30:25.999Z</time></trkpt><trkpt lat="34.39314753789298" lon="8.167404689912358"><ele>563.2</ele><time>2026-04-08T10:30:26.999Z</time></trkpt><trkpt lat="34.393213772263714" lon="8.16750666147218"><ele>562.8000000000001</ele><time>2026-04-08T10:30:27.999Z</time></trkpt><trkpt lat="34.39328012882193" lon="8.167609844185964"><ele>562.4</ele><time>2026-04-08T10:30:28.999Z</time></trkpt><trkpt lat="34.393344820877154" lon="8.167711849686375"><ele>562.0</ele><time>2026-04-08T10:30:29.999Z</time></trkpt><trkpt lat="34.39341115484674" lon="8.167812947489752"><ele>562.0</ele><time>2026-04-08T10:30:30.999Z</time></trkpt><trkpt lat="34.39347916516887" lon="8.167916244636768"><ele>562.0</ele><time>2026-04-08T10:30:31.999Z</time></trkpt><trkpt lat="34.39354667164346" lon="8.168021753604885"><ele>562.0</ele><time>2026-04-08T10:30:32.999Z</time></trkpt><trkpt lat="34.3936125372011" lon="8.168127713589616"><ele>562.0</ele><time>2026-04-08T10:30:33.999Z</time></trkpt><trkpt lat="34.39368112435405" lon="8.16823334706954"><ele>562.0</ele><time>2026-04-08T10:30:34.999Z</time></trkpt><trkpt lat="34.39375231983584" lon="8.168337701682136"><ele>561.4</ele><time>2026-04-08T10:30:35.999Z</time></trkpt><trkpt lat="34.393825786679514" lon="8.168441028756536"><ele>560.8000000000001</ele><time>2026-04-08T10:30:36.999Z</time></trkpt><trkpt lat="34.39390354045198" lon="8.168542507133639"><ele>560.2</ele><time>2026-04-08T10:30:37.999Z</time></trkpt><trkpt lat="34.393982369464375" lon="8.168627808275623"><ele>559.6</ele><time>2026-04-08T10:30:38.999Z</time></trkpt><trkpt lat="34.39406118188509" lon="8.168707427747238"><ele>559.0</ele><time>2026-04-08T10:30:39.999Z</time></trkpt><trkpt lat="34.39414120855743" lon="8.168789825149465"><ele>558.8</ele><time>2026-04-08T10:30:40.999Z</time></trkpt><trkpt lat="34.394223822727405" lon="8.168874989305532"><ele>558.5999999999999</ele><time>2026-04-08T10:30:41.999Z</time></trkpt><trkpt lat="34.39431229683081" lon="8.168952487865806"><ele>558.4</ele><time>2026-04-08T10:30:42.999Z</time></trkpt><trkpt lat="34.394402185169206" lon="8.169028814361587"><ele>558.1999999999999</ele><time>2026-04-08T10:30:43.999Z</time></trkpt><trkpt lat="34.394491725025226" lon="8.169106318978109"><ele>558.0</ele><time>2026-04-08T10:30:44.999Z</time></trkpt><trkpt lat="34.3945815734673" lon="8.169182613227886"><ele>557.6</ele><time>2026-04-08T10:30:45.999Z</time></trkpt><trkpt lat="34.3946755416406" lon="8.169252724585203"><ele>557.1999999999999</ele><time>2026-04-08T10:30:46.999Z</time></trkpt><trkpt lat="34.39476863023793" lon="8.16931779294965"><ele>556.8</ele><time>2026-04-08T10:30:47.999Z</time></trkpt><trkpt lat="34.394858336058036" lon="8.169377684629787"><ele>556.4</ele><time>2026-04-08T10:30:48.999Z</time></trkpt><trkpt lat="34.39495126018638" lon="8.169436429987632"><ele>556.0</ele><time>2026-04-08T10:30:49.999Z</time></trkpt><trkpt lat="34.39504974488736" lon="8.16948867188054"><ele>556.0</ele><time>2026-04-08T10:30:50.999Z</time></trkpt><trkpt lat="34.39515271087197" lon="8.169534389873583"><ele>556.0</ele><time>2026-04-08T10:30:51.999Z</time></trkpt><trkpt lat="34.39524954337727" lon="8.169577789003005"><ele>556.0</ele><time>2026-04-08T10:30:52.999Z</time></trkpt><trkpt lat="34.39534035960306" lon="8.169619261353098"><ele>556.0</ele><time>2026-04-08T10:30:53.999Z</time></trkpt><trkpt lat="34.39542626902496" lon="8.169656932014112"><ele>556.0</ele><time>2026-04-08T10:30:54.999Z</time></trkpt><trkpt lat="34.39551243031231" lon="8.169696306047001"><ele>555.8</ele><time>2026-04-08T10:30:55.999Z</time></trkpt><trkpt lat="34.39559889116417" lon="8.169735967011801"><ele>555.6</ele><time>2026-04-08T10:30:56.999Z</time></trkpt><trkpt lat="34.395688361960055" lon="8.16977050193282"><ele>555.4</ele><time>2026-04-08T10:30:57.999Z</time></trkpt><trkpt lat="34.3957781897099" lon="8.169805411950538"><ele>555.2</ele><time>2026-04-08T10:30:58.999Z</time></trkpt><trkpt lat="34.395870014399435" lon="8.169842235069488"><ele>555.0</ele><time>2026-04-08T10:30:59.999Z</time></trkpt><trkpt lat="34.39596329430888" lon="8.169880321976677"><ele>554.0</ele><time>2026-04-08T10:31:00.999Z</time></trkpt><trkpt lat="34.39605996243705" lon="8.169916235293698"><ele>553.0</ele><time>2026-04-08T10:31:01.999Z</time></trkpt><trkpt lat="34.39615565968563" lon="8.169956662188872"><ele>552.0</ele><time>2026-04-08T10:31:02.999Z</time></trkpt><trkpt lat="34.39625588540717" lon="8.169998083009474"><ele>551.0</ele><time>2026-04-08T10:31:03.999Z</time></trkpt><trkpt lat="34.39635948079759" lon="8.170034712342495"><ele>550.0</ele><time>2026-04-08T10:31:04.999Z</time></trkpt><trkpt lat="34.39646504898329" lon="8.170071074882207"><ele>549.6</ele><time>2026-04-08T10:31:05.999Z</time></trkpt><trkpt lat="34.39657071380648" lon="8.170110626888281"><ele>549.2</ele><time>2026-04-08T10:31:06.999Z</time></trkpt><trkpt lat="34.39667606366987" lon="8.170154324704285"><ele>548.8</ele><time>2026-04-08T10:31:07.999Z</time></trkpt><trkpt lat="34.39678312596526" lon="8.170199795489342"><ele>548.4</ele><time>2026-04-08T10:31:08.999Z</time></trkpt><trkpt lat="34.39689092833247" lon="8.170243697019105"><ele>548.0</ele><time>2026-04-08T10:31:09.999Z</time></trkpt><trkpt lat="34.39700012008938" lon="8.170285564705951"><ele>548.0</ele><time>2026-04-08T10:31:10.999Z</time></trkpt><trkpt lat="34.39711269393586" lon="8.170322528156776"><ele>548.0</ele><time>2026-04-08T10:31:11.999Z</time></trkpt><trkpt lat="34.39722258181462" lon="8.170365092883822"><ele>548.0</ele><time>2026-04-08T10:31:12.999Z</time></trkpt><trkpt lat="34.39732642566363" lon="8.17040986953892"><ele>548.0</ele><time>2026-04-08T10:31:13.999Z</time></trkpt><trkpt lat="34.39742524133047" lon="8.17044946403842"><ele>548.0</ele><time>2026-04-08T10:31:14.999Z</time></trkpt><trkpt lat="34.39751559546839" lon="8.170486796564195"><ele>547.6666666666666</ele><time>2026-04-08T10:31:15.999Z</time></trkpt><trkpt lat="34.39759980528249" lon="8.17052163985168"><ele>547.3333333333333</ele><time>2026-04-08T10:31:16.999Z</time></trkpt><trkpt lat="34.3976759514827" lon="8.170555145822187"><ele>547.0</ele><time>2026-04-08T10:31:17.999Z</time></trkpt><trkpt lat="34.397735714156696" lon="8.17058132704574"><ele>546.6666666666666</ele><time>2026-04-08T10:31:18.999Z</time></trkpt><trkpt lat="34.397854865078706" lon="8.170627724771908"><ele>546.3333333333334</ele><time>2026-04-08T10:31:20.999Z</time></trkpt><trkpt lat="34.39792006519561" lon="8.170653151880016"><ele>546.0</ele><time>2026-04-08T10:31:21.999Z</time></trkpt><trkpt lat="34.39799756862267" lon="8.17068208106402"><ele>545.1666666666666</ele><time>2026-04-08T10:31:22.999Z</time></trkpt><trkpt lat="34.39808469833982" lon="8.170711825023906"><ele>544.3333333333334</ele><time>2026-04-08T10:31:23.999Z</time></trkpt><trkpt lat="34.39817319268478" lon="8.170746279657164"><ele>543.5</ele><time>2026-04-08T10:31:24.999Z</time></trkpt><trkpt lat="34.39825515368033" lon="8.170781170783041"><ele>542.6666666666667</ele><time>2026-04-08T10:31:25.999Z</time></trkpt><trkpt lat="34.3983276209463" lon="8.170812288333067"><ele>541.8333333333334</ele><time>2026-04-08T10:31:26.998Z</time></trkpt><trkpt lat="34.39839387287384" lon="8.170836430491356"><ele>541.0</ele><time>2026-04-08T10:31:27.998Z</time></trkpt><trkpt lat="34.398464665077626" lon="8.170864289164486"><ele>541.0</ele><time>2026-04-08T10:31:28.998Z</time></trkpt><trkpt lat="34.39854305202679" lon="8.170895582374566"><ele>541.0</ele><time>2026-04-08T10:31:29.998Z</time></trkpt><trkpt lat="34.398627227060516" lon="8.170924989511681"><ele>541.0</ele><time>2026-04-08T10:31:30.998Z</time></trkpt><trkpt lat="34.39871684520406" lon="8.170949791627496"><ele>541.0</ele><time>2026-04-08T10:31:31.998Z</time></trkpt><trkpt lat="34.39880983740373" lon="8.170981760927766"><ele>541.0</ele><time>2026-04-08T10:31:32.998Z</time></trkpt><trkpt lat="34.39890675250476" lon="8.171025477962308"><ele>540.0</ele><time>2026-04-08T10:31:33.998Z</time></trkpt><trkpt lat="34.39900919494412" lon="8.171069051074898"><ele>539.0</ele><time>2026-04-08T10:31:34.998Z</time></trkpt><trkpt lat="34.399115476006806" lon="8.171110885261184"><ele>538.0</ele><time>2026-04-08T10:31:35.998Z</time></trkpt><trkpt lat="34.39922497370551" lon="8.171150332859678"><ele>537.0</ele><time>2026-04-08T10:31:36.998Z</time></trkpt><trkpt lat="34.39933694492314" lon="8.171189638041504"><ele>537.0</ele><time>2026-04-08T10:31:37.998Z</time></trkpt><trkpt lat="34.399454197412346" lon="8.171230650938643"><ele>537.0</ele><time>2026-04-08T10:31:38.998Z</time></trkpt><trkpt lat="34.399571002087995" lon="8.171275844386825"><ele>537.0</ele><time>2026-04-08T10:31:39.998Z</time></trkpt><trkpt lat="34.39968958411636" lon="8.1713235242781"><ele>537.0</ele><time>2026-04-08T10:31:40.998Z</time></trkpt><trkpt lat="34.39981352798481" lon="8.171371505833392"><ele>536.5</ele><time>2026-04-08T10:31:41.999Z</time></trkpt><trkpt lat="34.39994558427606" lon="8.1714229051206"><ele>536.0</ele><time>2026-04-08T10:31:42.999Z</time></trkpt><trkpt lat="34.40007962108923" lon="8.171475151640532"><ele>535.5</ele><time>2026-04-08T10:31:43.999Z</time></trkpt><trkpt lat="34.40021332085716" lon="8.171526791817046"><ele>535.0</ele><time>2026-04-08T10:31:44.999Z</time></trkpt><trkpt lat="34.40034285750968" lon="8.171575053241055"><ele>535.0</ele><time>2026-04-08T10:31:45.999Z</time></trkpt><trkpt lat="34.400465288699614" lon="8.17162126773869"><ele>535.0</ele><time>2026-04-08T10:31:46.999Z</time></trkpt><trkpt lat="34.40058112337981" lon="8.171664494613719"><ele>535.0</ele><time>2026-04-08T10:31:47.999Z</time></trkpt><trkpt lat="34.40069318007531" lon="8.171705213669766"><ele>535.0</ele><time>2026-04-08T10:31:48.999Z</time></trkpt><trkpt lat="34.400805205893306" lon="8.171750166713286"><ele>535.2</ele><time>2026-04-08T10:31:49.999Z</time></trkpt><trkpt lat="34.40091599595968" lon="8.171792566569808"><ele>535.4</ele><time>2026-04-08T10:31:50.999Z</time></trkpt><trkpt lat="34.4010265798395" lon="8.171836549286635"><ele>535.6</ele><time>2026-04-08T10:31:51.999Z</time></trkpt><trkpt lat="34.40113367260007" lon="8.171875910705378"><ele>535.8</ele><time>2026-04-08T10:31:52.999Z</time></trkpt><trkpt lat="34.40123371793263" lon="8.171913432709164"><ele>536.0</ele><time>2026-04-08T10:31:53.999Z</time></trkpt><trkpt lat="34.40132740280415" lon="8.171949795869065"><ele>536.6</ele><time>2026-04-08T10:31:54.999Z</time></trkpt><trkpt lat="34.40142162524876" lon="8.171987436452481"><ele>537.2</ele><time>2026-04-08T10:31:55.999Z</time></trkpt><trkpt lat="34.401515525568286" lon="8.17202507255166"><ele>537.8</ele><time>2026-04-08T10:31:56.999Z</time></trkpt><trkpt lat="34.4016106608275" lon="8.17206126613815"><ele>538.4</ele><time>2026-04-08T10:31:57.999Z</time></trkpt><trkpt lat="34.40170486126021" lon="8.172096993686404"><ele>539.0</ele><time>2026-04-08T10:31:58.999Z</time></trkpt><trkpt lat="34.401798161507365" lon="8.17213633952979"><ele>539.0</ele><time>2026-04-08T10:31:59.999Z</time></trkpt><trkpt lat="34.40189297796676" lon="8.172173916262595"><ele>539.0</ele><time>2026-04-08T10:32:00.999Z</time></trkpt><trkpt lat="34.4019884963137" lon="8.172212695138215"><ele>539.0</ele><time>2026-04-08T10:32:01.999Z</time></trkpt><trkpt lat="34.40208380096734" lon="8.172248965744721"><ele>539.0</ele><time>2026-04-08T10:32:02.999Z</time></trkpt><trkpt lat="34.40217693516364" lon="8.17228603306179"><ele>539.0</ele><time>2026-04-08T10:32:03.999Z</time></trkpt><trkpt lat="34.402269924307944" lon="8.172323134809636"><ele>538.8</ele><time>2026-04-08T10:32:04.999Z</time></trkpt><trkpt lat="34.40236482859096" lon="8.172359902575607"><ele>538.5999999999999</ele><time>2026-04-08T10:32:05.999Z</time></trkpt><trkpt lat="34.40245920918621" lon="8.17239654701857"><ele>538.4</ele><time>2026-04-08T10:32:06.999Z</time></trkpt><trkpt lat="34.40255530257769" lon="8.172435656553757"><ele>538.1999999999999</ele><time>2026-04-08T10:32:07.999Z</time></trkpt><trkpt lat="34.402649867246446" lon="8.172471374427444"><ele>538.0</ele><time>2026-04-08T10:32:08.999Z</time></trkpt><trkpt lat="34.402730056721005" lon="8.172500273367147"><ele>538.0</ele><time>2026-04-08T10:32:09.999Z</time></trkpt><trkpt lat="34.40279898723731" lon="8.172526703427867"><ele>538.0</ele><time>2026-04-08T10:32:10.999Z</time></trkpt><trkpt lat="34.40287114124612" lon="8.172558736443724"><ele>538.0</ele><time>2026-04-08T10:32:11.999Z</time></trkpt><trkpt lat="34.402953515899824" lon="8.172591818764468"><ele>538.0</ele><time>2026-04-08T10:32:12.999Z</time></trkpt><trkpt lat="34.40303956887241" lon="8.172622208172205"><ele>538.0</ele><time>2026-04-08T10:32:13.999Z</time></trkpt><trkpt lat="34.40312245121681" lon="8.17265728154282"><ele>538.0</ele><time>2026-04-08T10:32:14.999Z</time></trkpt><trkpt lat="34.40320518706289" lon="8.172690331355879"><ele>537.8333333333334</ele><time>2026-04-08T10:32:15.999Z</time></trkpt><trkpt lat="34.403289525447526" lon="8.172727963487935"><ele>537.6666666666667</ele><time>2026-04-08T10:32:16.999Z</time></trkpt><trkpt lat="34.40337393354209" lon="8.17276388756335"><ele>537.5</ele><time>2026-04-08T10:32:17.999Z</time></trkpt><trkpt lat="34.403454656109" lon="8.172797260526218"><ele>537.3333333333334</ele><time>2026-04-08T10:32:18.999Z</time></trkpt><trkpt lat="34.40353301822817" lon="8.172830136236609"><ele>537.1666666666666</ele><time>2026-04-08T10:32:19.999Z</time></trkpt><trkpt lat="34.40361391846338" lon="8.17285999529486"><ele>537.0</ele><time>2026-04-08T10:32:20.999Z</time></trkpt><trkpt lat="34.403700687613934" lon="8.172896169545552"><ele>537.0</ele><time>2026-04-08T10:32:21.999Z</time></trkpt><trkpt lat="34.4037924414801" lon="8.172932494298097"><ele>537.0</ele><time>2026-04-08T10:32:22.999Z</time></trkpt><trkpt lat="34.40389159204421" lon="8.172969865529288"><ele>537.0</ele><time>2026-04-08T10:32:23.999Z</time></trkpt><trkpt lat="34.40400059658812" lon="8.173006237242001"><ele>537.0</ele><time>2026-04-08T10:32:24.999Z</time></trkpt><trkpt lat="34.404121985800195" lon="8.17304668158591"><ele>537.0</ele><time>2026-04-08T10:32:25.999Z</time></trkpt><trkpt lat="34.4042661214559" lon="8.17309390533708"><ele>537.3333333333334</ele><time>2026-04-08T10:32:26.999Z</time></trkpt><trkpt lat="34.40444989916275" lon="8.173160784193904"><ele>537.6666666666667</ele><time>2026-04-08T10:32:27.999Z</time></trkpt><trkpt lat="34.404660912053146" lon="8.173257906204089"><ele>538.0</ele><time>2026-04-08T10:32:28.999Z</time></trkpt><trkpt lat="34.40487673102135" lon="8.173355903684397"><ele>539.6666666666667</ele><time>2026-04-08T10:32:29.999Z</time></trkpt><trkpt lat="34.40506821787096" lon="8.173428527065283"><ele>541.3333333333334</ele><time>2026-04-08T10:32:30.999Z</time></trkpt><trkpt lat="34.405221080300166" lon="8.173481697685004"><ele>543.0</ele><time>2026-04-08T10:32:31.999Z</time></trkpt><trkpt lat="34.405337380144644" lon="8.173527596920298"><ele>543.0</ele><time>2026-04-08T10:32:32.999Z</time></trkpt><trkpt lat="34.405437617712806" lon="8.173566757392136"><ele>543.0</ele><time>2026-04-08T10:32:33.999Z</time></trkpt><trkpt lat="34.40553711460458" lon="8.173605793056677"><ele>543.0</ele><time>2026-04-08T10:32:34.999Z</time></trkpt><trkpt lat="34.40564499797332" lon="8.173649501734154"><ele>543.0</ele><time>2026-04-08T10:32:35.999Z</time></trkpt><trkpt lat="34.405758898042954" lon="8.173693976208533"><ele>543.0</ele><time>2026-04-08T10:32:36.999Z</time></trkpt><trkpt lat="34.40588028152097" lon="8.17374485867416"><ele>544.0</ele><time>2026-04-08T10:32:37.999Z</time></trkpt><trkpt lat="34.40600307537048" lon="8.17379761377601"><ele>545.0</ele><time>2026-04-08T10:32:38.999Z</time></trkpt><trkpt lat="34.406130761369496" lon="8.173847050884044"><ele>546.0</ele><time>2026-04-08T10:32:39.999Z</time></trkpt><trkpt lat="34.40623568345807" lon="8.173882905670304"><ele>547.0</ele><time>2026-04-08T10:32:40.999Z</time></trkpt><trkpt lat="34.40632219032061" lon="8.173913043540816"><ele>547.2</ele><time>2026-04-08T10:32:41.999Z</time></trkpt><trkpt lat="34.406397196424514" lon="8.173942537546727"><ele>547.4000000000001</ele><time>2026-04-08T10:32:42.999Z</time></trkpt><trkpt lat="34.40647697864938" lon="8.173975783500248"><ele>547.5999999999999</ele><time>2026-04-08T10:32:43.999Z</time></trkpt><trkpt lat="34.40656518306274" lon="8.17401428673592"><ele>547.8</ele><time>2026-04-08T10:32:44.999Z</time></trkpt><trkpt lat="34.40665770602169" lon="8.174053522487545"><ele>548.0</ele><time>2026-04-08T10:32:45.999Z</time></trkpt><trkpt lat="34.40675491621121" lon="8.174092587250929"><ele>548.0</ele><time>2026-04-08T10:32:46.999Z</time></trkpt><trkpt lat="34.40685592063613" lon="8.17413518325882"><ele>548.0</ele><time>2026-04-08T10:32:47.999Z</time></trkpt><trkpt lat="34.40695942978758" lon="8.174178623913754"><ele>548.0</ele><time>2026-04-08T10:32:48.999Z</time></trkpt><trkpt lat="34.407065884150306" lon="8.174225832665106"><ele>548.0</ele><time>2026-04-08T10:32:49.999Z</time></trkpt><trkpt lat="34.40717676288783" lon="8.174275415802807"><ele>548.0</ele><time>2026-04-08T10:32:50.999Z</time></trkpt><trkpt lat="34.407291242751214" lon="8.174332777845247"><ele>548.25</ele><time>2026-04-08T10:32:51.999Z</time></trkpt><trkpt lat="34.40741216128923" lon="8.174397386805332"><ele>548.5</ele><time>2026-04-08T10:32:52.999Z</time></trkpt><trkpt lat="34.40753879330179" lon="8.17446361287644"><ele>548.75</ele><time>2026-04-08T10:32:53.999Z</time></trkpt><trkpt lat="34.40767137037988" lon="8.174538561431321"><ele>549.0</ele><time>2026-04-08T10:32:54.999Z</time></trkpt><trkpt lat="34.40781251363418" lon="8.174622140291984"><ele>549.0</ele><time>2026-04-08T10:32:55.999Z</time></trkpt><trkpt lat="34.40796731585337" lon="8.174717254329305"><ele>549.0</ele><time>2026-04-08T10:32:56.999Z</time></trkpt><trkpt lat="34.408130586507674" lon="8.174823827834272"><ele>549.0</ele><time>2026-04-08T10:32:57.999Z</time></trkpt><trkpt lat="34.40829700612074" lon="8.174936839031382"><ele>548.3333333333334</ele><time>2026-04-08T10:32:58.999Z</time></trkpt><trkpt lat="34.408460500401965" lon="8.175057368933333"><ele>547.6666666666667</ele><time>2026-04-08T10:32:59.999Z</time></trkpt><trkpt lat="34.40862071695773" lon="8.175181526184147"><ele>547.0</ele><time>2026-04-08T10:33:00.999Z</time></trkpt><trkpt lat="34.408779055695206" lon="8.175308770892068"><ele>545.6666666666667</ele><time>2026-04-08T10:33:01.999Z</time></trkpt><trkpt lat="34.408935606851756" lon="8.175442573162908"><ele>544.3333333333334</ele><time>2026-04-08T10:33:02.999Z</time></trkpt><trkpt lat="34.40908933538221" lon="8.175581592464317"><ele>543.0</ele><time>2026-04-08T10:33:03.999Z</time></trkpt><trkpt lat="34.40923959262236" lon="8.175723066905242"><ele>543.0</ele><time>2026-04-08T10:33:04.999Z</time></trkpt><trkpt lat="34.40938514231817" lon="8.175865977200234"><ele>543.0</ele><time>2026-04-08T10:33:05.999Z</time></trkpt><trkpt lat="34.40952797646394" lon="8.176016373246387"><ele>543.0</ele><time>2026-04-08T10:33:06.999Z</time></trkpt><trkpt lat="34.40966969833189" lon="8.176170911857572"><ele>542.3333333333334</ele><time>2026-04-08T10:33:07.999Z</time></trkpt><trkpt lat="34.40981194705686" lon="8.176323770631223"><ele>541.6666666666667</ele><time>2026-04-08T10:33:08.999Z</time></trkpt><trkpt lat="34.409959729723475" lon="8.176475735879785"><ele>541.0</ele><time>2026-04-08T10:33:09.999Z</time></trkpt><trkpt lat="34.410105085524876" lon="8.176630635791598"><ele>541.0</ele><time>2026-04-08T10:33:10.999Z</time></trkpt><trkpt lat="34.41025088851592" lon="8.176794326986315"><ele>541.0</ele><time>2026-04-08T10:33:11.999Z</time></trkpt><trkpt lat="34.41039874515833" lon="8.176957395928296"><ele>541.0</ele><time>2026-04-08T10:33:12.999Z</time></trkpt><trkpt lat="34.410552134029494" lon="8.177121757679451"><ele>540.6666666666667</ele><time>2026-04-08T10:33:13.999Z</time></trkpt><trkpt lat="34.41070704556754" lon="8.17728847321087"><ele>540.3333333333334</ele><time>2026-04-08T10:33:14.999Z</time></trkpt><trkpt lat="34.410864787072114" lon="8.177458421301706"><ele>540.0</ele><time>2026-04-08T10:33:15.999Z</time></trkpt><trkpt lat="34.41102253481642" lon="8.177628540019084"><ele>539.3333333333334</ele><time>2026-04-08T10:33:16.999Z</time></trkpt><trkpt lat="34.41117828396125" lon="8.177797009681276"><ele>538.6666666666667</ele><time>2026-04-08T10:33:17.999Z</time></trkpt><trkpt lat="34.41133512590493" lon="8.1779607387658"><ele>538.0</ele><time>2026-04-08T10:33:18.999Z</time></trkpt><trkpt lat="34.411491611956265" lon="8.178125592324307"><ele>536.0</ele><time>2026-04-08T10:33:19.999Z</time></trkpt><trkpt lat="34.41164379284218" lon="8.178292241586023"><ele>534.0</ele><time>2026-04-08T10:33:20.999Z</time></trkpt><trkpt lat="34.41180104767243" lon="8.17846470417691"><ele>532.0</ele><time>2026-04-08T10:33:21.999Z</time></trkpt><trkpt lat="34.41196370973887" lon="8.178638752961895"><ele>532.0</ele><time>2026-04-08T10:33:22.999Z</time></trkpt><trkpt lat="34.41213108379977" lon="8.178820285751375"><ele>532.0</ele><time>2026-04-08T10:33:23.999Z</time></trkpt><trkpt lat="34.41229988814423" lon="8.179000080253457"><ele>532.0</ele><time>2026-04-08T10:33:24.999Z</time></trkpt><trkpt lat="34.41247618396728" lon="8.179184985333913"><ele>528.0</ele><time>2026-04-08T10:33:25.999Z</time></trkpt><trkpt lat="34.41265055125453" lon="8.179368975407332"><ele>524.0</ele><time>2026-04-08T10:33:26.999Z</time></trkpt><trkpt lat="34.41282640873144" lon="8.179553630343733"><ele>522.5</ele><time>2026-04-08T10:33:27.999Z</time></trkpt><trkpt lat="34.41299962953765" lon="8.179740543581081"><ele>521.0</ele><time>2026-04-08T10:33:28.999Z</time></trkpt><trkpt lat="34.41316891665552" lon="8.179927047349006"><ele>519.5</ele><time>2026-04-08T10:33:29.999Z</time></trkpt><trkpt lat="34.413337141558266" lon="8.180112867911145"><ele>518.0</ele><time>2026-04-08T10:33:30.999Z</time></trkpt><trkpt lat="34.41351272322269" lon="8.180290906870356"><ele>518.0</ele><time>2026-04-08T10:33:31.999Z</time></trkpt><trkpt lat="34.413690495026984" lon="8.180470276747878"><ele>518.0</ele><time>2026-04-08T10:33:32.999Z</time></trkpt><trkpt lat="34.41386850076272" lon="8.1806564907162"><ele>515.5</ele><time>2026-04-08T10:33:33.999Z</time></trkpt><trkpt lat="34.414044715740644" lon="8.180842294969741"><ele>513.0</ele><time>2026-04-08T10:33:34.999Z</time></trkpt><trkpt lat="34.41422254461093" lon="8.181027196345486"><ele>513.0</ele><time>2026-04-08T10:33:35.999Z</time></trkpt><trkpt lat="34.41439932535041" lon="8.18121079073534"><ele>513.0</ele><time>2026-04-08T10:33:36.999Z</time></trkpt><trkpt lat="34.4145743288458" lon="8.18139448509341"><ele>511.5</ele><time>2026-04-08T10:33:37.999Z</time></trkpt><trkpt lat="34.414749465797755" lon="8.181580730097206"><ele>510.0</ele><time>2026-04-08T10:33:38.999Z</time></trkpt><trkpt lat="34.41492247895519" lon="8.181764546924352"><ele>510.0</ele><time>2026-04-08T10:33:39.999Z</time></trkpt><trkpt lat="34.415096868207044" lon="8.181952463004361"><ele>510.0</ele><time>2026-04-08T10:33:40.999Z</time></trkpt><trkpt lat="34.415273607292214" lon="8.182135309675475"><ele>510.0</ele><time>2026-04-08T10:33:41.999Z</time></trkpt><trkpt lat="34.41545103390208" lon="8.182321192880803"><ele>510.0</ele><time>2026-04-08T10:33:42.999Z</time></trkpt><trkpt lat="34.41562710679465" lon="8.18251538923292"><ele>508.5</ele><time>2026-04-08T10:33:43.999Z</time></trkpt><trkpt lat="34.41580768533367" lon="8.182711985582863"><ele>507.0</ele><time>2026-04-08T10:33:44.999Z</time></trkpt><trkpt lat="34.415989896451336" lon="8.182904684631314"><ele>507.0</ele><time>2026-04-08T10:33:45.999Z</time></trkpt><trkpt lat="34.41617117849405" lon="8.183105239499413"><ele>507.0</ele><time>2026-04-08T10:33:46.999Z</time></trkpt><trkpt lat="34.41635691647545" lon="8.18330400057051"><ele>506.5</ele><time>2026-04-08T10:33:47.999Z</time></trkpt><trkpt lat="34.416555454610354" lon="8.183514813595542"><ele>506.0</ele><time>2026-04-08T10:33:48.999Z</time></trkpt><trkpt lat="34.41676916937423" lon="8.183742309913566"><ele>506.0</ele><time>2026-04-08T10:33:49.999Z</time></trkpt><trkpt lat="34.41698872956031" lon="8.18397634024317"><ele>506.0</ele><time>2026-04-08T10:33:50.999Z</time></trkpt><trkpt lat="34.417205628422835" lon="8.184204349042197"><ele>508.0</ele><time>2026-04-08T10:33:51.999Z</time></trkpt><trkpt lat="34.4174148942795" lon="8.184425955259872"><ele>510.0</ele><time>2026-04-08T10:33:52.999Z</time></trkpt><trkpt lat="34.41761878714777" lon="8.18464180870809"><ele>511.0</ele><time>2026-04-08T10:33:53.999Z</time></trkpt><trkpt lat="34.417820423039274" lon="8.184855887937301"><ele>512.0</ele><time>2026-04-08T10:33:54.999Z</time></trkpt><trkpt lat="34.41802061223895" lon="8.185069112539741"><ele>513.0</ele><time>2026-04-08T10:33:55.999Z</time></trkpt><trkpt lat="34.41821927793157" lon="8.185281452759204"><ele>514.0</ele><time>2026-04-08T10:33:56.999Z</time></trkpt><trkpt lat="34.41841776282381" lon="8.18548852890727"><ele>514.5</ele><time>2026-04-08T10:33:57.999Z</time></trkpt><trkpt lat="34.418614692823084" lon="8.1856942918152"><ele>515.0</ele><time>2026-04-08T10:33:58.999Z</time></trkpt><trkpt lat="34.41881095964471" lon="8.185897990616256"><ele>516.0</ele><time>2026-04-08T10:33:59.999Z</time></trkpt><trkpt lat="34.41900793849858" lon="8.186106623786163"><ele>517.0</ele><time>2026-04-08T10:34:00.999Z</time></trkpt><trkpt lat="34.41920598915836" lon="8.186317349750384"><ele>518.0</ele><time>2026-04-08T10:34:01.999Z</time></trkpt><trkpt lat="34.41940249518938" lon="8.186523434205261"><ele>519.0</ele><time>2026-04-08T10:34:02.999Z</time></trkpt><trkpt lat="34.41959659194632" lon="8.186729881527691"><ele>519.0</ele><time>2026-04-08T10:34:03.999Z</time></trkpt><trkpt lat="34.419784758898906" lon="8.186934144059217"><ele>519.0</ele><time>2026-04-08T10:34:04.999Z</time></trkpt><trkpt lat="34.41997244009441" lon="8.187134551068485"><ele>519.0</ele><time>2026-04-08T10:34:05.999Z</time></trkpt><trkpt lat="34.42016354460229" lon="8.187335147382372"><ele>519.0</ele><time>2026-04-08T10:34:06.999Z</time></trkpt><trkpt lat="34.4203558890921" lon="8.187533140915484"><ele>518.0</ele><time>2026-04-08T10:34:07.999Z</time></trkpt><trkpt lat="34.420549115275605" lon="8.187730260003404"><ele>517.0</ele><time>2026-04-08T10:34:08.999Z</time></trkpt><trkpt lat="34.42074235233511" lon="8.187928165580963"><ele>517.0</ele><time>2026-04-08T10:34:09.999Z</time></trkpt><trkpt lat="34.4209334971762" lon="8.188129199605415"><ele>517.0</ele><time>2026-04-08T10:34:10.999Z</time></trkpt><trkpt lat="34.42111516930348" lon="8.188341208582978"><ele>515.5</ele><time>2026-04-08T10:34:11.999Z</time></trkpt><trkpt lat="34.42128311529472" lon="8.188572975839508"><ele>514.0</ele><time>2026-04-08T10:34:12.999Z</time></trkpt><trkpt lat="34.42142387551899" lon="8.188822277338083"><ele>512.5</ele><time>2026-04-08T10:34:13.999Z</time></trkpt><trkpt lat="34.42153739968778" lon="8.189089832469262"><ele>511.0</ele><time>2026-04-08T10:34:14.999Z</time></trkpt><trkpt lat="34.42163250750823" lon="8.189373014070485"><ele>511.0</ele><time>2026-04-08T10:34:15.999Z</time></trkpt><trkpt lat="34.421710592950554" lon="8.18966368361949"><ele>511.0</ele><time>2026-04-08T10:34:16.999Z</time></trkpt><trkpt lat="34.42176808144083" lon="8.189958092459408"><ele>510.0</ele><time>2026-04-08T10:34:17.999Z</time></trkpt><trkpt lat="34.421804415595666" lon="8.19025273759466"><ele>509.0</ele><time>2026-04-08T10:34:18.999Z</time></trkpt><trkpt lat="34.42181508725817" lon="8.19054828926987"><ele>509.5</ele><time>2026-04-08T10:34:19.999Z</time></trkpt><trkpt lat="34.421802794343904" lon="8.190838811098699"><ele>510.0</ele><time>2026-04-08T10:34:20.999Z</time></trkpt><trkpt lat="34.42176653955852" lon="8.191132437131467"><ele>510.0</ele><time>2026-04-08T10:34:21.999Z</time></trkpt><trkpt lat="34.421714324240135" lon="8.191422411541039"><ele>510.0</ele><time>2026-04-08T10:34:22.999Z</time></trkpt><trkpt lat="34.421635756626614" lon="8.191708847127423"><ele>511.5</ele><time>2026-04-08T10:34:23.999Z</time></trkpt><trkpt lat="34.4215393595063" lon="8.191991648348111"><ele>513.0</ele><time>2026-04-08T10:34:24.999Z</time></trkpt><trkpt lat="34.421425751381044" lon="8.192262216066213"><ele>512.0</ele><time>2026-04-08T10:34:25.999Z</time></trkpt><trkpt lat="34.42130025491377" lon="8.19251610179646"><ele>511.0</ele><time>2026-04-08T10:34:26.999Z</time></trkpt><trkpt lat="34.42116798504244" lon="8.192753109803705"><ele>511.0</ele><time>2026-04-08T10:34:27.999Z</time></trkpt><trkpt lat="34.421039670970366" lon="8.192980463854642"><ele>511.0</ele><time>2026-04-08T10:34:28.999Z</time></trkpt><trkpt lat="34.420916980544" lon="8.193198993794775"><ele>511.0</ele><time>2026-04-08T10:34:29.999Z</time></trkpt><trkpt lat="34.42080097695678" lon="8.193416634261446"><ele>511.0</ele><time>2026-04-08T10:34:30.999Z</time></trkpt><trkpt lat="34.42069076841081" lon="8.193638957008408"><ele>511.0</ele><time>2026-04-08T10:34:31.999Z</time></trkpt><trkpt lat="34.42057868666481" lon="8.193858733440202"><ele>511.0</ele><time>2026-04-08T10:34:32.999Z</time></trkpt><trkpt lat="34.42046593424633" lon="8.194078335747951"><ele>510.6666666666667</ele><time>2026-04-08T10:34:33.999Z</time></trkpt><trkpt lat="34.42035395285004" lon="8.19430099615431"><ele>510.33333333333337</ele><time>2026-04-08T10:34:34.999Z</time></trkpt><trkpt lat="34.42023784968364" lon="8.194524442353037"><ele>510.0</ele><time>2026-04-08T10:34:35.999Z</time></trkpt><trkpt lat="34.42012040680366" lon="8.194750336611975"><ele>509.0</ele><time>2026-04-08T10:34:36.999Z</time></trkpt><trkpt lat="34.420000750419696" lon="8.194983877885758"><ele>508.0</ele><time>2026-04-08T10:34:37.999Z</time></trkpt><trkpt lat="34.41988055063665" lon="8.195217448996338"><ele>508.0</ele><time>2026-04-08T10:34:38.999Z</time></trkpt><trkpt lat="34.41976060373687" lon="8.195449753062988"><ele>508.0</ele><time>2026-04-08T10:34:39.999Z</time></trkpt><trkpt lat="34.41964965445439" lon="8.19567718701493"><ele>508.0</ele><time>2026-04-08T10:34:40.999Z</time></trkpt><trkpt lat="34.419549243343646" lon="8.195895357398104"><ele>506.6666666666667</ele><time>2026-04-08T10:34:41.999Z</time></trkpt><trkpt lat="34.41945819162082" lon="8.196113964866424"><ele>505.33333333333337</ele><time>2026-04-08T10:34:42.999Z</time></trkpt><trkpt lat="34.419376679090355" lon="8.196336466678673"><ele>504.0</ele><time>2026-04-08T10:34:43.999Z</time></trkpt><trkpt lat="34.41930449644307" lon="8.196569074723804"><ele>503.66666666666663</ele><time>2026-04-08T10:34:44.999Z</time></trkpt><trkpt lat="34.419242853077535" lon="8.196811953031155"><ele>503.3333333333333</ele><time>2026-04-08T10:34:45.999Z</time></trkpt><trkpt lat="34.41919185625748" lon="8.197063066381379"><ele>503.0</ele><time>2026-04-08T10:34:46.999Z</time></trkpt><trkpt lat="34.41915259634974" lon="8.197323551359052"><ele>503.0</ele><time>2026-04-08T10:34:47.999Z</time></trkpt><trkpt lat="34.41912539122938" lon="8.197588501811497"><ele>503.0</ele><time>2026-04-08T10:34:48.999Z</time></trkpt><trkpt lat="34.41910940458636" lon="8.197857454240387"><ele>503.0</ele><time>2026-04-08T10:34:49.999Z</time></trkpt><trkpt lat="34.419107885529634" lon="8.198127031302992"><ele>501.5</ele><time>2026-04-08T10:34:50.999Z</time></trkpt><trkpt lat="34.41911841739452" lon="8.19839800678091"><ele>500.0</ele><time>2026-04-08T10:34:51.999Z</time></trkpt><trkpt lat="34.419144699616275" lon="8.198671370416285"><ele>500.0</ele><time>2026-04-08T10:34:52.999Z</time></trkpt><trkpt lat="34.41918277786537" lon="8.1989499107646"><ele>500.0</ele><time>2026-04-08T10:34:53.999Z</time></trkpt><trkpt lat="34.419235111448394" lon="8.19922770581124"><ele>498.5</ele><time>2026-04-08T10:34:54.999Z</time></trkpt><trkpt lat="34.419299713128005" lon="8.199503224187145"><ele>497.0</ele><time>2026-04-08T10:34:55.999Z</time></trkpt><trkpt lat="34.4193754710636" lon="8.199776804651151"><ele>496.0</ele><time>2026-04-08T10:34:56.999Z</time></trkpt><trkpt lat="34.419453126829985" lon="8.200048546434303"><ele>495.0</ele><time>2026-04-08T10:34:57.999Z</time></trkpt><trkpt lat="34.41953253587687" lon="8.200318529404564"><ele>495.0</ele><time>2026-04-08T10:34:58.999Z</time></trkpt><trkpt lat="34.419610172541006" lon="8.200590826685366"><ele>495.0</ele><time>2026-04-08T10:34:59.999Z</time></trkpt><trkpt lat="34.41968474088331" lon="8.200865102268093"><ele>494.0</ele><time>2026-04-08T10:35:00.999Z</time></trkpt><trkpt lat="34.419758364978954" lon="8.201143214106827"><ele>493.0</ele><time>2026-04-08T10:35:01.999Z</time></trkpt><trkpt lat="34.419832250688984" lon="8.201419066811205"><ele>492.0</ele><time>2026-04-08T10:35:03Z</time></trkpt><trkpt lat="34.41990891659382" lon="8.201697919816647"><ele>491.0</ele><time>2026-04-08T10:35:04Z</time></trkpt><trkpt lat="34.4199895888176" lon="8.201973291820728"><ele>491.0</ele><time>2026-04-08T10:35:05Z</time></trkpt><trkpt lat="34.42006993636665" lon="8.202252734194168"><ele>491.0</ele><time>2026-04-08T10:35:06Z</time></trkpt><trkpt lat="34.42014931677393" lon="8.202537827895396"><ele>490.5</ele><time>2026-04-08T10:35:07Z</time></trkpt><trkpt lat="34.42022859680706" lon="8.202818429344138"><ele>490.0</ele><time>2026-04-08T10:35:08Z</time></trkpt><trkpt lat="34.4203041252586" lon="8.203097312536539"><ele>489.0</ele><time>2026-04-08T10:35:09Z</time></trkpt><trkpt lat="34.42037479634727" lon="8.203371249111447"><ele>488.0</ele><time>2026-04-08T10:35:10Z</time></trkpt><trkpt lat="34.420446489742034" lon="8.203643477295543"><ele>487.5</ele><time>2026-04-08T10:35:11Z</time></trkpt><trkpt lat="34.42051917835813" lon="8.20391213178051"><ele>487.0</ele><time>2026-04-08T10:35:12Z</time></trkpt><trkpt lat="34.42059273154162" lon="8.204182083466561"><ele>485.5</ele><time>2026-04-08T10:35:13Z</time></trkpt><trkpt lat="34.42067016641068" lon="8.204449908442019"><ele>484.0</ele><time>2026-04-08T10:35:14Z</time></trkpt><trkpt lat="34.42075742445007" lon="8.204718766041276"><ele>482.5</ele><time>2026-04-08T10:35:15Z</time></trkpt><trkpt lat="34.420855149240886" lon="8.204978692945774"><ele>481.0</ele><time>2026-04-08T10:35:16Z</time></trkpt><trkpt lat="34.42096718352866" lon="8.205232550091928"><ele>481.0</ele><time>2026-04-08T10:35:17Z</time></trkpt><trkpt lat="34.42109178140651" lon="8.20548216995456"><ele>481.0</ele><time>2026-04-08T10:35:18Z</time></trkpt><trkpt lat="34.421228369719714" lon="8.205720999517158"><ele>479.5</ele><time>2026-04-08T10:35:19Z</time></trkpt><trkpt lat="34.42137762852471" lon="8.205950343699147"><ele>478.0</ele><time>2026-04-08T10:35:20Z</time></trkpt><trkpt lat="34.42154093442221" lon="8.206167985366585"><ele>478.0</ele><time>2026-04-08T10:35:21Z</time></trkpt><trkpt lat="34.42171627701341" lon="8.20636719224628"><ele>478.0</ele><time>2026-04-08T10:35:22Z</time></trkpt><trkpt lat="34.42190155155739" lon="8.206559836873058"><ele>478.0</ele><time>2026-04-08T10:35:23Z</time></trkpt><trkpt lat="34.42209521119771" lon="8.206733223646228"><ele>478.0</ele><time>2026-04-08T10:35:24Z</time></trkpt><trkpt lat="34.42229871130529" lon="8.206893890395946"><ele>479.0</ele><time>2026-04-08T10:35:25Z</time></trkpt><trkpt lat="34.42250948529923" lon="8.207047283921572"><ele>480.0</ele><time>2026-04-08T10:35:26Z</time></trkpt><trkpt lat="34.42272721783886" lon="8.207184598225004"><ele>480.0</ele><time>2026-04-08T10:35:27Z</time></trkpt><trkpt lat="34.42295328262568" lon="8.207307815874934"><ele>480.0</ele><time>2026-04-08T10:35:28Z</time></trkpt><trkpt lat="34.42318254343555" lon="8.207422869245953"><ele>479.0</ele><time>2026-04-08T10:35:29Z</time></trkpt><trkpt lat="34.42341338270606" lon="8.20753600127271"><ele>478.0</ele><time>2026-04-08T10:35:30Z</time></trkpt><trkpt lat="34.42364194283156" lon="8.207654006142382"><ele>477.5</ele><time>2026-04-08T10:35:31Z</time></trkpt><trkpt lat="34.42387000884473" lon="8.207773549908982"><ele>477.0</ele><time>2026-04-08T10:35:32Z</time></trkpt><trkpt lat="34.424093841518456" lon="8.20789190424956"><ele>477.0</ele><time>2026-04-08T10:35:33Z</time></trkpt><trkpt lat="34.4243179290791" lon="8.208012127535603"><ele>477.0</ele><time>2026-04-08T10:35:34Z</time></trkpt><trkpt lat="34.424540238248184" lon="8.208132323147439"><ele>475.5</ele><time>2026-04-08T10:35:35Z</time></trkpt><trkpt lat="34.42476538594249" lon="8.208252746232276"><ele>474.0</ele><time>2026-04-08T10:35:36Z</time></trkpt><trkpt lat="34.42499265407442" lon="8.208375322221118"><ele>474.0</ele><time>2026-04-08T10:35:37Z</time></trkpt><trkpt lat="34.42521522262984" lon="8.208491928361859"><ele>474.0</ele><time>2026-04-08T10:35:38Z</time></trkpt><trkpt lat="34.42543804533906" lon="8.208608975858928"><ele>472.5</ele><time>2026-04-08T10:35:39Z</time></trkpt><trkpt lat="34.4256567160897" lon="8.208723001571608"><ele>471.0</ele><time>2026-04-08T10:35:40Z</time></trkpt><trkpt lat="34.42587365465671" lon="8.208841558253914"><ele>471.0</ele><time>2026-04-08T10:35:41Z</time></trkpt><trkpt lat="34.426091801042" lon="8.20896047761625"><ele>471.0</ele><time>2026-04-08T10:35:42Z</time></trkpt><trkpt lat="34.426309820042285" lon="8.209076991252259"><ele>471.5</ele><time>2026-04-08T10:35:43Z</time></trkpt><trkpt lat="34.426533281366545" lon="8.209187521892321"><ele>472.0</ele><time>2026-04-08T10:35:44Z</time></trkpt><trkpt lat="34.426754392130256" lon="8.20929827560487"><ele>472.0</ele><time>2026-04-08T10:35:45Z</time></trkpt><trkpt lat="34.42697602859765" lon="8.209413257634253"><ele>472.0</ele><time>2026-04-08T10:35:46Z</time></trkpt><trkpt lat="34.42719580656787" lon="8.209530388390885"><ele>471.0</ele><time>2026-04-08T10:35:47Z</time></trkpt><trkpt lat="34.42741692052936" lon="8.209647740241005"><ele>470.0</ele><time>2026-04-08T10:35:48Z</time></trkpt><trkpt lat="34.427638444823714" lon="8.209763790344427"><ele>468.5</ele><time>2026-04-08T10:35:49Z</time></trkpt><trkpt lat="34.4278595961629" lon="8.209878633834062"><ele>467.0</ele><time>2026-04-08T10:35:50Z</time></trkpt><trkpt lat="34.42807799161973" lon="8.209991899312033"><ele>465.5</ele><time>2026-04-08T10:35:51Z</time></trkpt><trkpt lat="34.42829874291294" lon="8.210107208872127"><ele>464.0</ele><time>2026-04-08T10:35:52Z</time></trkpt><trkpt lat="34.428519519536984" lon="8.21022481128681"><ele>464.0</ele><time>2026-04-08T10:35:53Z</time></trkpt><trkpt lat="34.428739296365066" lon="8.210343117692224"><ele>464.0</ele><time>2026-04-08T10:35:54Z</time></trkpt><trkpt lat="34.42896399123883" lon="8.210464280997655"><ele>464.0</ele><time>2026-04-08T10:35:55Z</time></trkpt><trkpt lat="34.429196417969095" lon="8.210588107063252"><ele>464.0</ele><time>2026-04-08T10:35:56Z</time></trkpt><trkpt lat="34.429437776005" lon="8.210712801122845"><ele>463.0</ele><time>2026-04-08T10:35:57Z</time></trkpt><trkpt lat="34.42968435054907" lon="8.210839920332903"><ele>462.0</ele><time>2026-04-08T10:35:58Z</time></trkpt><trkpt lat="34.42992630184583" lon="8.210966259673565"><ele>462.0</ele><time>2026-04-08T10:35:59Z</time></trkpt><trkpt lat="34.43015609807777" lon="8.21108565951679"><ele>462.0</ele><time>2026-04-08T10:36:00Z</time></trkpt><trkpt lat="34.43037937509186" lon="8.21120650623509"><ele>460.5</ele><time>2026-04-08T10:36:01Z</time></trkpt><trkpt lat="34.43060051229761" lon="8.211326590587129"><ele>459.0</ele><time>2026-04-08T10:36:02Z</time></trkpt><trkpt lat="34.430825082602546" lon="8.211448158624577"><ele>459.5</ele><time>2026-04-08T10:36:03Z</time></trkpt><trkpt lat="34.431051280337606" lon="8.211567540299248"><ele>460.0</ele><time>2026-04-08T10:36:04Z</time></trkpt><trkpt lat="34.43127886546319" lon="8.211687978595966"><ele>459.5</ele><time>2026-04-08T10:36:05Z</time></trkpt><trkpt lat="34.43150577318276" lon="8.211809096718762"><ele>459.0</ele><time>2026-04-08T10:36:06Z</time></trkpt><trkpt lat="34.43173108815701" lon="8.21193032469344"><ele>459.0</ele><time>2026-04-08T10:36:07Z</time></trkpt><trkpt lat="34.43195466438126" lon="8.21204885296088"><ele>459.0</ele><time>2026-04-08T10:36:08Z</time></trkpt><trkpt lat="34.43217814962414" lon="8.212169268013426"><ele>458.0</ele><time>2026-04-08T10:36:09Z</time></trkpt><trkpt lat="34.43239909706378" lon="8.212285906574044"><ele>457.0</ele><time>2026-04-08T10:36:10Z</time></trkpt><trkpt lat="34.4326188052485" lon="8.212406622694626"><ele>457.0</ele><time>2026-04-08T10:36:11Z</time></trkpt><trkpt lat="34.43283733762215" lon="8.21252092744275"><ele>457.0</ele><time>2026-04-08T10:36:12Z</time></trkpt><trkpt lat="34.4330562255794" lon="8.212639018658297"><ele>455.5</ele><time>2026-04-08T10:36:13Z</time></trkpt><trkpt lat="34.4332742607937" lon="8.212758320759354"><ele>454.0</ele><time>2026-04-08T10:36:14Z</time></trkpt><trkpt lat="34.433494286994055" lon="8.212872552027578"><ele>454.0</ele><time>2026-04-08T10:36:15Z</time></trkpt><trkpt lat="34.43371591071228" lon="8.21298450686897"><ele>454.0</ele><time>2026-04-08T10:36:16Z</time></trkpt><trkpt lat="34.433935537135724" lon="8.213100281845826"><ele>453.0</ele><time>2026-04-08T10:36:17Z</time></trkpt><trkpt lat="34.43415381202733" lon="8.213218341520554"><ele>452.0</ele><time>2026-04-08T10:36:18Z</time></trkpt><trkpt lat="34.43437273938623" lon="8.213338019545132"><ele>452.0</ele><time>2026-04-08T10:36:19Z</time></trkpt><trkpt lat="34.434592340764034" lon="8.213456601082386"><ele>452.0</ele><time>2026-04-08T10:36:20Z</time></trkpt><trkpt lat="34.43481108698964" lon="8.213575916648159"><ele>451.5</ele><time>2026-04-08T10:36:21Z</time></trkpt><trkpt lat="34.43503065711039" lon="8.213697037606705"><ele>451.0</ele><time>2026-04-08T10:36:22Z</time></trkpt><trkpt lat="34.43525179697419" lon="8.213811646769331"><ele>450.5</ele><time>2026-04-08T10:36:23Z</time></trkpt><trkpt lat="34.43547432652407" lon="8.21392433002241"><ele>450.0</ele><time>2026-04-08T10:36:24Z</time></trkpt><trkpt lat="34.43569424527992" lon="8.21404040072475"><ele>449.0</ele><time>2026-04-08T10:36:25Z</time></trkpt><trkpt lat="34.4359125525517" lon="8.214159450907927"><ele>448.0</ele><time>2026-04-08T10:36:26Z</time></trkpt><trkpt lat="34.436131283301485" lon="8.214277479388087"><ele>447.0</ele><time>2026-04-08T10:36:27Z</time></trkpt><trkpt lat="34.43635142323492" lon="8.214394888572453"><ele>446.0</ele><time>2026-04-08T10:36:28Z</time></trkpt><trkpt lat="34.43656989493795" lon="8.214512388201456"><ele>446.0</ele><time>2026-04-08T10:36:29Z</time></trkpt><trkpt lat="34.43679033628229" lon="8.214629713632549"><ele>446.0</ele><time>2026-04-08T10:36:30Z</time></trkpt><trkpt lat="34.43701109563304" lon="8.214743384205947"><ele>445.0</ele><time>2026-04-08T10:36:31Z</time></trkpt><trkpt lat="34.43723326436447" lon="8.214854474242596"><ele>444.0</ele><time>2026-04-08T10:36:32Z</time></trkpt><trkpt lat="34.43745429851605" lon="8.214967661680014"><ele>444.0</ele><time>2026-04-08T10:36:33Z</time></trkpt><trkpt lat="34.43767434869315" lon="8.215083745543408"><ele>444.0</ele><time>2026-04-08T10:36:34Z</time></trkpt><trkpt lat="34.437895182480716" lon="8.21520031825372"><ele>444.0</ele><time>2026-04-08T10:36:35Z</time></trkpt><trkpt lat="34.438112876229496" lon="8.21531707624829"><ele>444.0</ele><time>2026-04-08T10:36:36Z</time></trkpt><trkpt lat="34.43833211397189" lon="8.215437842097222"><ele>444.0</ele><time>2026-04-08T10:36:37Z</time></trkpt><trkpt lat="34.43855161483286" lon="8.215555897930216"><ele>444.0</ele><time>2026-04-08T10:36:38Z</time></trkpt><trkpt lat="34.43877576107346" lon="8.21567454653084"><ele>443.5</ele><time>2026-04-08T10:36:39Z</time></trkpt><trkpt lat="34.43900063615714" lon="8.21579541646002"><ele>443.0</ele><time>2026-04-08T10:36:40Z</time></trkpt><trkpt lat="34.43922424108491" lon="8.215919029462396"><ele>443.0</ele><time>2026-04-08T10:36:41Z</time></trkpt><trkpt lat="34.43944787881611" lon="8.216039189543947"><ele>443.0</ele><time>2026-04-08T10:36:42Z</time></trkpt><trkpt lat="34.43967188255452" lon="8.216157415985904"><ele>442.0</ele><time>2026-04-08T10:36:43Z</time></trkpt><trkpt lat="34.43989736298793" lon="8.21627479645929"><ele>441.0</ele><time>2026-04-08T10:36:44Z</time></trkpt><trkpt lat="34.440122030327586" lon="8.216390579029856"><ele>441.0</ele><time>2026-04-08T10:36:45Z</time></trkpt><trkpt lat="34.440347157577825" lon="8.216507928056883"><ele>441.0</ele><time>2026-04-08T10:36:46Z</time></trkpt><trkpt lat="34.44056838295963" lon="8.21662242665047"><ele>442.0</ele><time>2026-04-08T10:36:47Z</time></trkpt><trkpt lat="34.4407932120253" lon="8.216742666543128"><ele>443.0</ele><time>2026-04-08T10:36:48Z</time></trkpt><trkpt lat="34.44101295115179" lon="8.21685882137101"><ele>443.0</ele><time>2026-04-08T10:36:49Z</time></trkpt><trkpt lat="34.44124048193993" lon="8.216976409419047"><ele>443.0</ele><time>2026-04-08T10:36:50Z</time></trkpt><trkpt lat="34.44146782092599" lon="8.217091133442716"><ele>442.5</ele><time>2026-04-08T10:36:51Z</time></trkpt><trkpt lat="34.441693861697146" lon="8.217208258571489"><ele>442.0</ele><time>2026-04-08T10:36:52Z</time></trkpt><trkpt lat="34.44191757756652" lon="8.217328384317646"><ele>442.5</ele><time>2026-04-08T10:36:53Z</time></trkpt><trkpt lat="34.44214041096206" lon="8.217450600009855"><ele>443.0</ele><time>2026-04-08T10:36:54Z</time></trkpt><trkpt lat="34.44236450487367" lon="8.21757239194429"><ele>443.0</ele><time>2026-04-08T10:36:55Z</time></trkpt><trkpt lat="34.44258966557496" lon="8.21769213962628"><ele>443.0</ele><time>2026-04-08T10:36:56Z</time></trkpt><trkpt lat="34.442813918464275" lon="8.217811420465098"><ele>444.0</ele><time>2026-04-08T10:36:57Z</time></trkpt><trkpt lat="34.44303843247441" lon="8.217933754884031"><ele>445.0</ele><time>2026-04-08T10:36:58Z</time></trkpt><trkpt lat="34.443262689888506" lon="8.21805851846328"><ele>444.0</ele><time>2026-04-08T10:36:59Z</time></trkpt><trkpt lat="34.44348554949748" lon="8.218183653025305"><ele>443.0</ele><time>2026-04-08T10:37:00Z</time></trkpt><trkpt lat="34.44370874725063" lon="8.218310484727953"><ele>442.5</ele><time>2026-04-08T10:37:01Z</time></trkpt><trkpt lat="34.44393074453222" lon="8.218440740587573"><ele>442.0</ele><time>2026-04-08T10:37:02Z</time></trkpt><trkpt lat="34.44415076525551" lon="8.218574622427779"><ele>442.0</ele><time>2026-04-08T10:37:03Z</time></trkpt><trkpt lat="34.444371128535614" lon="8.218714086027536"><ele>442.0</ele><time>2026-04-08T10:37:04Z</time></trkpt><trkpt lat="34.44458854624875" lon="8.218859639023396"><ele>439.0</ele><time>2026-04-08T10:37:05Z</time></trkpt><trkpt lat="34.44480340768446" lon="8.219009572304948"><ele>436.0</ele><time>2026-04-08T10:37:06Z</time></trkpt><trkpt lat="34.445014931186186" lon="8.219162280369396"><ele>436.0</ele><time>2026-04-08T10:37:07Z</time></trkpt><trkpt lat="34.445224851702925" lon="8.219315591787089"><ele>436.0</ele><time>2026-04-08T10:37:08Z</time></trkpt><trkpt lat="34.44543975773954" lon="8.219469954352585"><ele>435.0</ele><time>2026-04-08T10:37:09Z</time></trkpt><trkpt lat="34.445656797942824" lon="8.219628138148293"><ele>434.0</ele><time>2026-04-08T10:37:10Z</time></trkpt><trkpt lat="34.445873894945144" lon="8.219788543874161"><ele>433.0</ele><time>2026-04-08T10:37:11Z</time></trkpt><trkpt lat="34.44609314022805" lon="8.219951012910277"><ele>432.0</ele><time>2026-04-08T10:37:12Z</time></trkpt><trkpt lat="34.44630910030137" lon="8.220113280191656"><ele>431.5</ele><time>2026-04-08T10:37:13Z</time></trkpt><trkpt lat="34.44652328838915" lon="8.220274219539903"><ele>431.0</ele><time>2026-04-08T10:37:14Z</time></trkpt><trkpt lat="34.446737855056384" lon="8.220432307794692"><ele>431.0</ele><time>2026-04-08T10:37:15Z</time></trkpt><trkpt lat="34.446953555165734" lon="8.220588251380438"><ele>431.0</ele><time>2026-04-08T10:37:16Z</time></trkpt><trkpt lat="34.447168868407616" lon="8.220744659498838"><ele>430.0</ele><time>2026-04-08T10:37:17Z</time></trkpt><trkpt lat="34.44738273489164" lon="8.220903488256395"><ele>429.0</ele><time>2026-04-08T10:37:18Z</time></trkpt><trkpt lat="34.44759578898733" lon="8.221066029856738"><ele>429.0</ele><time>2026-04-08T10:37:19Z</time></trkpt><trkpt lat="34.447808286308174" lon="8.221228973490817"><ele>429.0</ele><time>2026-04-08T10:37:20Z</time></trkpt><trkpt lat="34.44802060220955" lon="8.22139272326321"><ele>428.0</ele><time>2026-04-08T10:37:21Z</time></trkpt><trkpt lat="34.44823457784497" lon="8.221554059954961"><ele>427.0</ele><time>2026-04-08T10:37:22Z</time></trkpt><trkpt lat="34.44844894655642" lon="8.221713366481266"><ele>427.0</ele><time>2026-04-08T10:37:23Z</time></trkpt><trkpt lat="34.448664303586206" lon="8.221871474661528"><ele>427.0</ele><time>2026-04-08T10:37:24Z</time></trkpt><trkpt lat="34.44888170626469" lon="8.222028339319841"><ele>427.5</ele><time>2026-04-08T10:37:25Z</time></trkpt><trkpt lat="34.449098669422895" lon="8.22218391334455"><ele>428.0</ele><time>2026-04-08T10:37:26Z</time></trkpt><trkpt lat="34.4493151533287" lon="8.222342109926423"><ele>427.5</ele><time>2026-04-08T10:37:27Z</time></trkpt><trkpt lat="34.44953016280502" lon="8.222504153948487"><ele>427.0</ele><time>2026-04-08T10:37:28Z</time></trkpt><trkpt lat="34.44974482257922" lon="8.222664837336872"><ele>427.0</ele><time>2026-04-08T10:37:29Z</time></trkpt><trkpt lat="34.44995850350279" lon="8.222826172872201"><ele>427.0</ele><time>2026-04-08T10:37:30Z</time></trkpt><trkpt lat="34.450173426189494" lon="8.222985405459465"><ele>427.0</ele><time>2026-04-08T10:37:31Z</time></trkpt><trkpt lat="34.45038869274158" lon="8.223145449288221"><ele>427.0</ele><time>2026-04-08T10:37:32Z</time></trkpt><trkpt lat="34.450604406245894" lon="8.223304432246058"><ele>428.0</ele><time>2026-04-08T10:37:33Z</time></trkpt><trkpt lat="34.450821504063825" lon="8.223462601188622"><ele>429.0</ele><time>2026-04-08T10:37:34Z</time></trkpt><trkpt lat="34.45103787755848" lon="8.223619548056408"><ele>429.0</ele><time>2026-04-08T10:37:35Z</time></trkpt><trkpt lat="34.451252306546586" lon="8.223777494081101"><ele>429.0</ele><time>2026-04-08T10:37:36Z</time></trkpt><trkpt lat="34.45146860374146" lon="8.223938244338186"><ele>430.0</ele><time>2026-04-08T10:37:37Z</time></trkpt><trkpt lat="34.45168481659029" lon="8.224098098731718"><ele>431.0</ele><time>2026-04-08T10:37:38Z</time></trkpt><trkpt lat="34.451897308547416" lon="8.224255994299497"><ele>431.0</ele><time>2026-04-08T10:37:39Z</time></trkpt><trkpt lat="34.452111933689224" lon="8.224412324824025"><ele>431.0</ele><time>2026-04-08T10:37:40Z</time></trkpt><trkpt lat="34.45232706325628" lon="8.22457120840972"><ele>430.5</ele><time>2026-04-08T10:37:41Z</time></trkpt><trkpt lat="34.45254277444971" lon="8.224728698135433"><ele>430.0</ele><time>2026-04-08T10:37:42Z</time></trkpt><trkpt lat="34.45275966612373" lon="8.224883387191436"><ele>429.5</ele><time>2026-04-08T10:37:43Z</time></trkpt><trkpt lat="34.45297809250394" lon="8.225035952673169"><ele>429.0</ele><time>2026-04-08T10:37:44Z</time></trkpt><trkpt lat="34.4532004153807" lon="8.225180305646571"><ele>429.0</ele><time>2026-04-08T10:37:45Z</time></trkpt><trkpt lat="34.45342581163007" lon="8.225317240645376"><ele>429.0</ele><time>2026-04-08T10:37:46Z</time></trkpt><trkpt lat="34.45365816666356" lon="8.225442293043022"><ele>431.0</ele><time>2026-04-08T10:37:47Z</time></trkpt><trkpt lat="34.45389329055768" lon="8.225550721834136"><ele>433.0</ele><time>2026-04-08T10:37:48Z</time></trkpt><trkpt lat="34.454133727434716" lon="8.225644898362571"><ele>431.5</ele><time>2026-04-08T10:37:49Z</time></trkpt><trkpt lat="34.45437101131352" lon="8.225728242192112"><ele>430.0</ele><time>2026-04-08T10:37:50Z</time></trkpt><trkpt lat="34.454614440331575" lon="8.225798620380534"><ele>431.5</ele><time>2026-04-08T10:37:51Z</time></trkpt><trkpt lat="34.45486073127189" lon="8.225852017798786"><ele>433.0</ele><time>2026-04-08T10:37:52Z</time></trkpt><trkpt lat="34.45510798967435" lon="8.225892001146216"><ele>433.0</ele><time>2026-04-08T10:37:53Z</time></trkpt><trkpt lat="34.455361098674786" lon="8.225931359041352"><ele>433.0</ele><time>2026-04-08T10:37:54Z</time></trkpt><trkpt lat="34.45561140404967" lon="8.225980873242442"><ele>435.5</ele><time>2026-04-08T10:37:55Z</time></trkpt><trkpt lat="34.455860438327754" lon="8.226043100439759"><ele>438.0</ele><time>2026-04-08T10:37:56Z</time></trkpt><trkpt lat="34.45610732813594" lon="8.2261222105048"><ele>437.5</ele><time>2026-04-08T10:37:57Z</time></trkpt><trkpt lat="34.4563505814866" lon="8.226215943353978"><ele>437.0</ele><time>2026-04-08T10:37:58Z</time></trkpt><trkpt lat="34.45658825736761" lon="8.22632263273772"><ele>437.0</ele><time>2026-04-08T10:37:59Z</time></trkpt><trkpt lat="34.456821143083204" lon="8.22644279962683"><ele>437.0</ele><time>2026-04-08T10:38:00Z</time></trkpt><trkpt lat="34.45704847910893" lon="8.226578696493908"><ele>438.0</ele><time>2026-04-08T10:38:01Z</time></trkpt><trkpt lat="34.45726972708797" lon="8.226725258628212"><ele>439.0</ele><time>2026-04-08T10:38:02Z</time></trkpt><trkpt lat="34.457485963824325" lon="8.226882092727202"><ele>439.0</ele><time>2026-04-08T10:38:03Z</time></trkpt><trkpt lat="34.45769768233186" lon="8.227051104204792"><ele>439.0</ele><time>2026-04-08T10:38:04Z</time></trkpt><trkpt lat="34.457901394851746" lon="8.227229760805617"><ele>438.5</ele><time>2026-04-08T10:38:05Z</time></trkpt><trkpt lat="34.45810032809262" lon="8.227415759956099"><ele>438.0</ele><time>2026-04-08T10:38:06Z</time></trkpt><trkpt lat="34.4582937011941" lon="8.227614173399525"><ele>438.0</ele><time>2026-04-08T10:38:07Z</time></trkpt><trkpt lat="34.45848358616091" lon="8.227820633362494"><ele>438.0</ele><time>2026-04-08T10:38:08Z</time></trkpt><trkpt lat="34.45866462764767" lon="8.228032785668107"><ele>438.0</ele><time>2026-04-08T10:38:09Z</time></trkpt><trkpt lat="34.45883523493308" lon="8.22826003743047"><ele>438.0</ele><time>2026-04-08T10:38:10Z</time></trkpt><trkpt lat="34.45899315031436" lon="8.22849919287519"><ele>438.0</ele><time>2026-04-08T10:38:11Z</time></trkpt><trkpt lat="34.459137033177925" lon="8.228749760551777"><ele>438.0</ele><time>2026-04-08T10:38:12Z</time></trkpt><trkpt lat="34.459269865759964" lon="8.229012585215399"><ele>439.5</ele><time>2026-04-08T10:38:13Z</time></trkpt><trkpt lat="34.459387830222035" lon="8.229281384420148"><ele>441.0</ele><time>2026-04-08T10:38:14Z</time></trkpt><trkpt lat="34.45949080230299" lon="8.22955984279704"><ele>441.0</ele><time>2026-04-08T10:38:15Z</time></trkpt><trkpt lat="34.459577790140756" lon="8.229846500857581"><ele>441.0</ele><time>2026-04-08T10:38:16Z</time></trkpt><trkpt lat="34.45964869855901" lon="8.230137811085656"><ele>441.0</ele><time>2026-04-08T10:38:17Z</time></trkpt><trkpt lat="34.45969991382662" lon="8.230412729988833"><ele>441.0</ele><time>2026-04-08T10:38:18Z</time></trkpt><trkpt lat="34.459739527042444" lon="8.230663778885798"><ele>441.0</ele><time>2026-04-08T10:38:19Z</time></trkpt><trkpt lat="34.45978095798281" lon="8.230913607760852"><ele>440.66666666666663</ele><time>2026-04-08T10:38:20Z</time></trkpt><trkpt lat="34.459834312228566" lon="8.231173599696309"><ele>440.3333333333333</ele><time>2026-04-08T10:38:21Z</time></trkpt><trkpt lat="34.45989479421409" lon="8.231440804034069"><ele>440.0</ele><time>2026-04-08T10:38:22Z</time></trkpt><trkpt lat="34.45996177446535" lon="8.231713126638436"><ele>439.5</ele><time>2026-04-08T10:38:23Z</time></trkpt><trkpt lat="34.460038110564696" lon="8.23199200105956"><ele>439.0</ele><time>2026-04-08T10:38:24Z</time></trkpt><trkpt lat="34.46012363636129" lon="8.23227277986271"><ele>437.0</ele><time>2026-04-08T10:38:25Z</time></trkpt><trkpt lat="34.4602145260203" lon="8.232557271636002"><ele>435.0</ele><time>2026-04-08T10:38:26Z</time></trkpt><trkpt lat="34.46030780144022" lon="8.23284020163239"><ele>435.0</ele><time>2026-04-08T10:38:27Z</time></trkpt><trkpt lat="34.46040508825919" lon="8.233116748470627"><ele>435.0</ele><time>2026-04-08T10:38:28Z</time></trkpt><trkpt lat="34.460505854711045" lon="8.233389434417388"><ele>435.0</ele><time>2026-04-08T10:38:29Z</time></trkpt><trkpt lat="34.46060314827083" lon="8.233659322794328"><ele>435.0</ele><time>2026-04-08T10:38:30Z</time></trkpt><trkpt lat="34.46069698720085" lon="8.233928885823095"><ele>434.5</ele><time>2026-04-08T10:38:31Z</time></trkpt><trkpt lat="34.46079482773856" lon="8.234191698877865"><ele>434.0</ele><time>2026-04-08T10:38:32Z</time></trkpt><trkpt lat="34.460892216732006" lon="8.234453134664529"><ele>434.0</ele><time>2026-04-08T10:38:33Z</time></trkpt><trkpt lat="34.46098808429751" lon="8.234716626808853"><ele>434.0</ele><time>2026-04-08T10:38:34Z</time></trkpt><trkpt lat="34.461083182734896" lon="8.234979750019658"><ele>433.5</ele><time>2026-04-08T10:38:35Z</time></trkpt><trkpt lat="34.461175479774" lon="8.23523777723928"><ele>433.0</ele><time>2026-04-08T10:38:36Z</time></trkpt><trkpt lat="34.46126886228248" lon="8.2355076535553"><ele>432.0</ele><time>2026-04-08T10:38:37Z</time></trkpt><trkpt lat="34.46136234890956" lon="8.235784083164944"><ele>431.0</ele><time>2026-04-08T10:38:38Z</time></trkpt><trkpt lat="34.46146281575662" lon="8.23606300967104"><ele>431.0</ele><time>2026-04-08T10:38:39Z</time></trkpt><trkpt lat="34.4615668797728" lon="8.236347183621499"><ele>431.0</ele><time>2026-04-08T10:38:40Z</time></trkpt><trkpt lat="34.46167192187901" lon="8.23663321603795"><ele>430.0</ele><time>2026-04-08T10:38:41Z</time></trkpt><trkpt lat="34.46177439296507" lon="8.236918653971712"><ele>429.0</ele><time>2026-04-08T10:38:42Z</time></trkpt><trkpt lat="34.46187732842801" lon="8.237201255616595"><ele>427.5</ele><time>2026-04-08T10:38:43Z</time></trkpt><trkpt lat="34.46199101364038" lon="8.237479744970628"><ele>426.0</ele><time>2026-04-08T10:38:44Z</time></trkpt><trkpt lat="34.46211791251085" lon="8.23774883053425"><ele>427.0</ele><time>2026-04-08T10:38:45Z</time></trkpt><trkpt lat="34.46225538692675" lon="8.2380046509181"><ele>428.0</ele><time>2026-04-08T10:38:46Z</time></trkpt><trkpt lat="34.46239772358" lon="8.238241334768652"><ele>428.0</ele><time>2026-04-08T10:38:47Z</time></trkpt><trkpt lat="34.46254316043244" lon="8.238472083711558"><ele>428.0</ele><time>2026-04-08T10:38:48Z</time></trkpt><trkpt lat="34.46270267399808" lon="8.238690904275101"><ele>428.0</ele><time>2026-04-08T10:38:49Z</time></trkpt><trkpt lat="34.462859576771024" lon="8.238883619340854"><ele>428.0</ele><time>2026-04-08T10:38:50Z</time></trkpt><trkpt lat="34.46300647961977" lon="8.239056375147618"><ele>428.0</ele><time>2026-04-08T10:38:51Z</time></trkpt><trkpt lat="34.46315065076077" lon="8.239222707104341"><ele>427.3333333333333</ele><time>2026-04-08T10:38:52Z</time></trkpt><trkpt lat="34.46330380731578" lon="8.239389942536185"><ele>426.66666666666663</ele><time>2026-04-08T10:38:53Z</time></trkpt><trkpt lat="34.46347651120811" lon="8.239562724560917"><ele>426.0</ele><time>2026-04-08T10:38:54Z</time></trkpt><trkpt lat="34.46367145083294" lon="8.239741503391574"><ele>423.5</ele><time>2026-04-08T10:38:55Z</time></trkpt><trkpt lat="34.46387732044175" lon="8.239943800663058"><ele>421.0</ele><time>2026-04-08T10:38:56Z</time></trkpt><trkpt lat="34.464081797007296" lon="8.240171747823366"><ele>421.0</ele><time>2026-04-08T10:38:57Z</time></trkpt><trkpt lat="34.464286716137174" lon="8.240398597475162"><ele>421.0</ele><time>2026-04-08T10:38:58Z</time></trkpt><trkpt lat="34.46449330310905" lon="8.240609648609222"><ele>419.5</ele><time>2026-04-08T10:38:59Z</time></trkpt><trkpt lat="34.464700078710884" lon="8.240811996057413"><ele>418.0</ele><time>2026-04-08T10:39:00Z</time></trkpt><trkpt lat="34.46490246440079" lon="8.24101655574311"><ele>418.0</ele><time>2026-04-08T10:39:01Z</time></trkpt><trkpt lat="34.46510321331137" lon="8.241218724687757"><ele>418.0</ele><time>2026-04-08T10:39:02Z</time></trkpt><trkpt lat="34.465300313182844" lon="8.241414545425078"><ele>417.0</ele><time>2026-04-08T10:39:03Z</time></trkpt><trkpt lat="34.465492406701266" lon="8.241606729228982"><ele>416.0</ele><time>2026-04-08T10:39:04Z</time></trkpt><trkpt lat="34.46567715824645" lon="8.241793598092512"><ele>416.0</ele><time>2026-04-08T10:39:05Z</time></trkpt><trkpt lat="34.46585437233846" lon="8.241974429205323"><ele>416.0</ele><time>2026-04-08T10:39:06Z</time></trkpt><trkpt lat="34.46603318138257" lon="8.242154944865751"><ele>416.0</ele><time>2026-04-08T10:39:07Z</time></trkpt><trkpt lat="34.46621214844282" lon="8.242334576617312"><ele>416.0</ele><time>2026-04-08T10:39:08Z</time></trkpt><trkpt lat="34.46638974366349" lon="8.24251337580278"><ele>417.0</ele><time>2026-04-08T10:39:09Z</time></trkpt><trkpt lat="34.46656639081515" lon="8.242691149736034"><ele>418.0</ele><time>2026-04-08T10:39:10Z</time></trkpt><trkpt lat="34.466744037634584" lon="8.242870220402096"><ele>418.0</ele><time>2026-04-08T10:39:11Z</time></trkpt><trkpt lat="34.46692415536426" lon="8.24305057509474"><ele>418.0</ele><time>2026-04-08T10:39:12Z</time></trkpt><trkpt lat="34.46710165105259" lon="8.243227696736328"><ele>419.0</ele><time>2026-04-08T10:39:13Z</time></trkpt><trkpt lat="34.46727636723994" lon="8.243403751370465"><ele>420.0</ele><time>2026-04-08T10:39:14Z</time></trkpt><trkpt lat="34.46745113815254" lon="8.243577578584642"><ele>420.0</ele><time>2026-04-08T10:39:15Z</time></trkpt><trkpt lat="34.46762382761933" lon="8.243749332934607"><ele>420.0</ele><time>2026-04-08T10:39:16Z</time></trkpt><trkpt lat="34.46779597029567" lon="8.243923226624297"><ele>420.0</ele><time>2026-04-08T10:39:17Z</time></trkpt><trkpt lat="34.46796990646705" lon="8.24409482100015"><ele>420.0</ele><time>2026-04-08T10:39:18Z</time></trkpt><trkpt lat="34.46814320988574" lon="8.244267086640711"><ele>420.0</ele><time>2026-04-08T10:39:19Z</time></trkpt><trkpt lat="34.468316000412294" lon="8.244441462255583"><ele>420.0</ele><time>2026-04-08T10:39:20Z</time></trkpt><trkpt lat="34.46849073677845" lon="8.244614647573831"><ele>420.0</ele><time>2026-04-08T10:39:21Z</time></trkpt><trkpt lat="34.468667081613056" lon="8.244782633068063"><ele>420.0</ele><time>2026-04-08T10:39:22Z</time></trkpt><trkpt lat="34.46883849521332" lon="8.244947798048452"><ele>420.0</ele><time>2026-04-08T10:39:23Z</time></trkpt><trkpt lat="34.469008359824144" lon="8.245114638660365"><ele>421.33333333333337</ele><time>2026-04-08T10:39:24Z</time></trkpt><trkpt lat="34.469178994358415" lon="8.245285722532405"><ele>422.6666666666667</ele><time>2026-04-08T10:39:25Z</time></trkpt><trkpt lat="34.46935010023574" lon="8.245457251715857"><ele>424.0</ele><time>2026-04-08T10:39:26Z</time></trkpt><trkpt lat="34.4695207438723" lon="8.245625880839233"><ele>424.33333333333337</ele><time>2026-04-08T10:39:27Z</time></trkpt><trkpt lat="34.46969521249094" lon="8.245792912580335"><ele>424.66666666666663</ele><time>2026-04-08T10:39:28Z</time></trkpt><trkpt lat="34.46987249665623" lon="8.245957711569785"><ele>425.0</ele><time>2026-04-08T10:39:29Z</time></trkpt><trkpt lat="34.47005153705646" lon="8.246121789481736"><ele>425.0</ele><time>2026-04-08T10:39:30Z</time></trkpt><trkpt lat="34.47023049347392" lon="8.24628760114355"><ele>425.0</ele><time>2026-04-08T10:39:31Z</time></trkpt><trkpt lat="34.470408851766805" lon="8.24645514490207"><ele>425.5</ele><time>2026-04-08T10:39:32Z</time></trkpt><trkpt lat="34.47058494113251" lon="8.24662474161997"><ele>426.0</ele><time>2026-04-08T10:39:33Z</time></trkpt><trkpt lat="34.47076320077495" lon="8.246793312247346"><ele>426.0</ele><time>2026-04-08T10:39:34Z</time></trkpt><trkpt lat="34.470943900064874" lon="8.24695923584388"><ele>426.0</ele><time>2026-04-08T10:39:35Z</time></trkpt><trkpt lat="34.47112382474046" lon="8.247129186818816"><ele>426.5</ele><time>2026-04-08T10:39:36Z</time></trkpt><trkpt lat="34.47130493697171" lon="8.247305781115083"><ele>427.0</ele><time>2026-04-08T10:39:37Z</time></trkpt><trkpt lat="34.471487267338155" lon="8.247480680081994"><ele>427.0</ele><time>2026-04-08T10:39:38Z</time></trkpt><trkpt lat="34.47167352359869" lon="8.247654072925775"><ele>427.0</ele><time>2026-04-08T10:39:39Z</time></trkpt><trkpt lat="34.471859817760034" lon="8.247831324125489"><ele>427.0</ele><time>2026-04-08T10:39:40Z</time></trkpt><trkpt lat="34.472047320727874" lon="8.248009913933915"><ele>427.0</ele><time>2026-04-08T10:39:41Z</time></trkpt><trkpt lat="34.472234593139696" lon="8.2481880939619"><ele>426.0</ele><time>2026-04-08T10:39:42Z</time></trkpt><trkpt lat="34.47242253310918" lon="8.248366384709271"><ele>425.0</ele><time>2026-04-08T10:39:43Z</time></trkpt><trkpt lat="34.47261343422306" lon="8.248543349434446"><ele>425.0</ele><time>2026-04-08T10:39:44Z</time></trkpt><trkpt lat="34.47280571699269" lon="8.248723594780166"><ele>425.0</ele><time>2026-04-08T10:39:45Z</time></trkpt><trkpt lat="34.47299522875804" lon="8.248905017453076"><ele>427.0</ele><time>2026-04-08T10:39:46Z</time></trkpt><trkpt lat="34.47318699836175" lon="8.249091552162684"><ele>429.0</ele><time>2026-04-08T10:39:47Z</time></trkpt><trkpt lat="34.47338299093259" lon="8.24927265558344"><ele>429.0</ele><time>2026-04-08T10:39:48Z</time></trkpt><trkpt lat="34.4735795422279" lon="8.249458945001896"><ele>429.0</ele><time>2026-04-08T10:39:49Z</time></trkpt><trkpt lat="34.47377446119259" lon="8.249647764885164"><ele>428.5</ele><time>2026-04-08T10:39:50Z</time></trkpt><trkpt lat="34.473970653077515" lon="8.249836665783358"><ele>428.0</ele><time>2026-04-08T10:39:51Z</time></trkpt><trkpt lat="34.47416979558436" lon="8.250023732162635"><ele>428.0</ele><time>2026-04-08T10:39:52Z</time></trkpt><trkpt lat="34.47436958898923" lon="8.250208778510792"><ele>428.0</ele><time>2026-04-08T10:39:53Z</time></trkpt><trkpt lat="34.47457041220896" lon="8.250396721495624"><ele>428.0</ele><time>2026-04-08T10:39:54Z</time></trkpt><trkpt lat="34.474770768481854" lon="8.250586761501575"><ele>428.0</ele><time>2026-04-08T10:39:55Z</time></trkpt><trkpt lat="34.4749697979518" lon="8.250780171476748"><ele>428.0</ele><time>2026-04-08T10:39:56Z</time></trkpt><trkpt lat="34.475168106777325" lon="8.250975754217995"><ele>428.0</ele><time>2026-04-08T10:39:57Z</time></trkpt><trkpt lat="34.47536748744467" lon="8.251169444861711"><ele>429.0</ele><time>2026-04-08T10:39:58Z</time></trkpt><trkpt lat="34.475568294005605" lon="8.251358841206722"><ele>430.0</ele><time>2026-04-08T10:39:59Z</time></trkpt><trkpt lat="34.47576788294197" lon="8.251549009016633"><ele>432.5</ele><time>2026-04-08T10:40:00Z</time></trkpt><trkpt lat="34.47596870106078" lon="8.25174280768979"><ele>435.0</ele><time>2026-04-08T10:40:01Z</time></trkpt><trkpt lat="34.47617273301867" lon="8.251941813912143"><ele>435.0</ele><time>2026-04-08T10:40:02Z</time></trkpt><trkpt lat="34.47639137897663" lon="8.252154374643652"><ele>435.0</ele><time>2026-04-08T10:40:03Z</time></trkpt><trkpt lat="34.476609748630615" lon="8.252363196325616"><ele>437.0</ele><time>2026-04-08T10:40:04Z</time></trkpt><trkpt lat="34.47682270036045" lon="8.252561690809362"><ele>439.0</ele><time>2026-04-08T10:40:05Z</time></trkpt><trkpt lat="34.4770358974585" lon="8.252762062469621"><ele>439.5</ele><time>2026-04-08T10:40:06Z</time></trkpt><trkpt lat="34.47725438355863" lon="8.252971688367152"><ele>440.0</ele><time>2026-04-08T10:40:07Z</time></trkpt><trkpt lat="34.47747556772716" lon="8.253186667019403"><ele>440.5</ele><time>2026-04-08T10:40:08Z</time></trkpt><trkpt lat="34.477709223228025" lon="8.253414669830002"><ele>441.0</ele><time>2026-04-08T10:40:09Z</time></trkpt><trkpt lat="34.47794052817596" lon="8.253640119798915"><ele>441.0</ele><time>2026-04-08T10:40:10Z</time></trkpt><trkpt lat="34.478160665865" lon="8.253852099890203"><ele>441.0</ele><time>2026-04-08T10:40:11Z</time></trkpt><trkpt lat="34.47837182365833" lon="8.254051558921267"><ele>441.0</ele><time>2026-04-08T10:40:12Z</time></trkpt><trkpt lat="34.47858173498527" lon="8.254244371179464"><ele>441.0</ele><time>2026-04-08T10:40:13Z</time></trkpt><trkpt lat="34.47879908709396" lon="8.254442105645353"><ele>441.0</ele><time>2026-04-08T10:40:14Z</time></trkpt><trkpt lat="34.47899964897885" lon="8.254628838565658"><ele>441.0</ele><time>2026-04-08T10:40:15Z</time></trkpt><trkpt lat="34.479166928681465" lon="8.254791939186026"><ele>441.66666666666663</ele><time>2026-04-08T10:40:16Z</time></trkpt><trkpt lat="34.47930327474359" lon="8.254922531806402"><ele>442.3333333333333</ele><time>2026-04-08T10:40:17Z</time></trkpt><trkpt lat="34.479421237297856" lon="8.255037941459529"><ele>443.0</ele><time>2026-04-08T10:40:18Z</time></trkpt><trkpt lat="34.479530049499196" lon="8.25514670318507"><ele>442.5</ele><time>2026-04-08T10:40:19Z</time></trkpt><trkpt lat="34.47963900154768" lon="8.255252976430178"><ele>442.0</ele><time>2026-04-08T10:40:20Z</time></trkpt><trkpt lat="34.47974321678509" lon="8.255355076528339"><ele>441.5</ele><time>2026-04-08T10:40:21Z</time></trkpt><trkpt lat="34.479842811485405" lon="8.25545188131196"><ele>441.0</ele><time>2026-04-08T10:40:22Z</time></trkpt><trkpt lat="34.47994302454067" lon="8.25554940411081"><ele>441.0</ele><time>2026-04-08T10:40:23Z</time></trkpt><trkpt lat="34.48004757818546" lon="8.255649859866015"><ele>441.0</ele><time>2026-04-08T10:40:24Z</time></trkpt><trkpt lat="34.48015529756956" lon="8.255756239704292"><ele>441.0</ele><time>2026-04-08T10:40:25Z</time></trkpt><trkpt lat="34.480266388373906" lon="8.255869219153993"><ele>441.0</ele><time>2026-04-08T10:40:26Z</time></trkpt><trkpt lat="34.48038314627222" lon="8.255981034974567"><ele>441.0</ele><time>2026-04-08T10:40:27Z</time></trkpt><trkpt lat="34.48050566756078" lon="8.256097517157071"><ele>441.0</ele><time>2026-04-08T10:40:28Z</time></trkpt><trkpt lat="34.48062131588475" lon="8.256214392432474"><ele>441.0</ele><time>2026-04-08T10:40:29Z</time></trkpt><trkpt lat="34.48073560531059" lon="8.25632704178827"><ele>441.0</ele><time>2026-04-08T10:40:30Z</time></trkpt><trkpt lat="34.4808415154415" lon="8.25643099433086"><ele>441.0</ele><time>2026-04-08T10:40:31Z</time></trkpt><trkpt lat="34.48093636087196" lon="8.25652206946719"><ele>441.0</ele><time>2026-04-08T10:40:32Z</time></trkpt><trkpt lat="34.481030749063805" lon="8.256609476100826"><ele>441.0</ele><time>2026-04-08T10:40:33Z</time></trkpt><trkpt lat="34.481123423283776" lon="8.25669832255448"><ele>441.20000000000005</ele><time>2026-04-08T10:40:34Z</time></trkpt><trkpt lat="34.481214045126" lon="8.256783058868026"><ele>441.40000000000003</ele><time>2026-04-08T10:40:35Z</time></trkpt><trkpt lat="34.48129574686878" lon="8.256865822208715"><ele>441.6</ele><time>2026-04-08T10:40:36Z</time></trkpt><trkpt lat="34.48137240478575" lon="8.256940210934747"><ele>441.8</ele><time>2026-04-08T10:40:37Z</time></trkpt><trkpt lat="34.481446455089305" lon="8.257008006987574"><ele>442.0</ele><time>2026-04-08T10:40:38Z</time></trkpt><trkpt lat="34.481520430712685" lon="8.257075130684079"><ele>442.00000000000006</ele><time>2026-04-08T10:40:39Z</time></trkpt><trkpt lat="34.48159092233476" lon="8.257145345658065"><ele>442.0</ele><time>2026-04-08T10:40:40Z</time></trkpt><trkpt lat="34.48165484689806" lon="8.257210650147966"><ele>442.0</ele><time>2026-04-08T10:40:41Z</time></trkpt><trkpt lat="34.481715507643266" lon="8.257268904952628"><ele>442.0</ele><time>2026-04-08T10:40:42Z</time></trkpt><trkpt lat="34.48177616491067" lon="8.257322195571778"><ele>442.00000000000006</ele><time>2026-04-08T10:40:43Z</time></trkpt><trkpt lat="34.48183457583746" lon="8.257375671741269"><ele>442.0</ele><time>2026-04-08T10:40:44Z</time></trkpt><trkpt lat="34.481888884483936" lon="8.2574275142975"><ele>442.00000000000006</ele><time>2026-04-08T10:40:45Z</time></trkpt><trkpt lat="34.48194606720308" lon="8.257482239715998"><ele>442.0</ele><time>2026-04-08T10:40:46Z</time></trkpt><trkpt lat="34.482003274748145" lon="8.257537450718578"><ele>442.0</ele><time>2026-04-08T10:40:47Z</time></trkpt><trkpt lat="34.48206167488246" lon="8.257596008359531"><ele>442.0</ele><time>2026-04-08T10:40:48Z</time></trkpt><trkpt lat="34.48212145561506" lon="8.257653572757366"><ele>442.0</ele><time>2026-04-08T10:40:49Z</time></trkpt><trkpt lat="34.48218256844349" lon="8.257700228774873"><ele>442.00000000000006</ele><time>2026-04-08T10:40:50Z</time></trkpt><trkpt lat="34.48224476316144" lon="8.257755844471712"><ele>442.0</ele><time>2026-04-08T10:40:51Z</time></trkpt><trkpt lat="34.48230861203285" lon="8.257827109995088"><ele>442.40000000000003</ele><time>2026-04-08T10:40:52Z</time></trkpt><trkpt lat="34.482377131731546" lon="8.257896949384797"><ele>442.80000000000007</ele><time>2026-04-08T10:40:53Z</time></trkpt><trkpt lat="34.482446231656134" lon="8.25796572722232"><ele>443.2</ele><time>2026-04-08T10:40:54Z</time></trkpt><trkpt lat="34.482516582335755" lon="8.258045512371766"><ele>443.6</ele><time>2026-04-08T10:40:55Z</time></trkpt><trkpt lat="34.48259286378719" lon="8.258131016736714"><ele>444.0</ele><time>2026-04-08T10:40:56Z</time></trkpt><trkpt lat="34.482683400898075" lon="8.258224318113177"><ele>444.0</ele><time>2026-04-08T10:40:57Z</time></trkpt><trkpt lat="34.4827811247314" lon="8.258316172633528"><ele>444.0</ele><time>2026-04-08T10:40:58Z</time></trkpt><trkpt lat="34.48287861511024" lon="8.258407633901173"><ele>444.0</ele><time>2026-04-08T10:40:59Z</time></trkpt><trkpt lat="34.48297989431335" lon="8.258501632316674"><ele>444.0</ele><time>2026-04-08T10:41:00Z</time></trkpt><trkpt lat="34.48308520100718" lon="8.258600064898271"><ele>444.5</ele><time>2026-04-08T10:41:01Z</time></trkpt><trkpt lat="34.4831918919168" lon="8.258701461853454"><ele>445.0</ele><time>2026-04-08T10:41:02Z</time></trkpt><trkpt lat="34.48329822595339" lon="8.25880237791473"><ele>445.5</ele><time>2026-04-08T10:41:03Z</time></trkpt><trkpt lat="34.48339392385282" lon="8.258896436526014"><ele>446.0</ele><time>2026-04-08T10:41:04Z</time></trkpt><trkpt lat="34.483484312708086" lon="8.258981133396745"><ele>446.20000000000005</ele><time>2026-04-08T10:41:05Z</time></trkpt><trkpt lat="34.48356800739223" lon="8.2590632331004"><ele>446.40000000000003</ele><time>2026-04-08T10:41:06Z</time></trkpt><trkpt lat="34.4836471091381" lon="8.25914055062159"><ele>446.6</ele><time>2026-04-08T10:41:07Z</time></trkpt><trkpt lat="34.48372470999998" lon="8.259212819760908"><ele>446.8</ele><time>2026-04-08T10:41:08Z</time></trkpt><trkpt lat="34.48380253063217" lon="8.259290731798393"><ele>447.0</ele><time>2026-04-08T10:41:09Z</time></trkpt><trkpt lat="34.48388259831658" lon="8.259366664745752"><ele>447.20000000000005</ele><time>2026-04-08T10:41:10Z</time></trkpt><trkpt lat="34.48396232886515" lon="8.259445804440235"><ele>447.40000000000003</ele><time>2026-04-08T10:41:11Z</time></trkpt><trkpt lat="34.48404433451666" lon="8.259524116522805"><ele>447.59999999999997</ele><time>2026-04-08T10:41:12Z</time></trkpt><trkpt lat="34.48412259742982" lon="8.259596323240197"><ele>447.79999999999995</ele><time>2026-04-08T10:41:13Z</time></trkpt><trkpt lat="34.48419210926337" lon="8.25966600208416"><ele>448.0</ele><time>2026-04-08T10:41:14Z</time></trkpt><trkpt lat="34.48425936660258" lon="8.259736391016155"><ele>448.0</ele><time>2026-04-08T10:41:15Z</time></trkpt><trkpt lat="34.48432696456113" lon="8.259803967187796"><ele>447.99999999999994</ele><time>2026-04-08T10:41:16Z</time></trkpt><trkpt lat="34.484390450629384" lon="8.259862871517507"><ele>447.99999999999994</ele><time>2026-04-08T10:41:17Z</time></trkpt><trkpt lat="34.48447865717889" lon="8.259936004210585"><ele>448.0</ele><time>2026-04-08T10:41:19Z</time></trkpt><trkpt lat="34.48454294024239" lon="8.259999094776747"><ele>448.0</ele><time>2026-04-08T10:41:21Z</time></trkpt><trkpt lat="34.48462807680685" lon="8.260076271628389"><ele>448.1666666666667</ele><time>2026-04-08T10:41:23Z</time></trkpt><trkpt lat="34.48467948497522" lon="8.260124408945032"><ele>448.33333333333337</ele><time>2026-04-08T10:41:24Z</time></trkpt><trkpt lat="34.4847403946815" lon="8.26018288244142"><ele>448.5</ele><time>2026-04-08T10:41:25Z</time></trkpt><trkpt lat="34.48480491287519" lon="8.260248638021018"><ele>448.66666666666663</ele><time>2026-04-08T10:41:26Z</time></trkpt><trkpt lat="34.4848692622985" lon="8.260317421515346"><ele>448.8333333333333</ele><time>2026-04-08T10:41:27Z</time></trkpt><trkpt lat="34.484937475840994" lon="8.260386617336346"><ele>449.0</ele><time>2026-04-08T10:41:28Z</time></trkpt><trkpt lat="34.4850131316606" lon="8.260459794655137"><ele>449.0</ele><time>2026-04-08T10:41:29Z</time></trkpt><trkpt lat="34.485088340557795" lon="8.260530094895257"><ele>449.0</ele><time>2026-04-08T10:41:30Z</time></trkpt><trkpt lat="34.48515255874225" lon="8.260592917713316"><ele>449.0</ele><time>2026-04-08T10:41:31Z</time></trkpt><trkpt lat="34.48520608415043" lon="8.260650752555229"><ele>449.0</ele><time>2026-04-08T10:41:32Z</time></trkpt><trkpt lat="34.485295454950915" lon="8.260750566159064"><ele>449.0</ele><time>2026-04-08T10:41:34Z</time></trkpt><trkpt lat="34.48539382399321" lon="8.260839501362094"><ele>449.3333333333333</ele><time>2026-04-08T10:41:36Z</time></trkpt><trkpt lat="34.4854458235432" lon="8.260892398661882"><ele>449.66666666666663</ele><time>2026-04-08T10:41:37Z</time></trkpt><trkpt lat="34.4854968125245" lon="8.260953147735624"><ele>450.0</ele><time>2026-04-08T10:41:38Z</time></trkpt><trkpt lat="34.48555156114258" lon="8.261020578751532"><ele>450.33333333333337</ele><time>2026-04-08T10:41:39Z</time></trkpt><trkpt lat="34.48561339790932" lon="8.261087990351017"><ele>450.6666666666667</ele><time>2026-04-08T10:41:40Z</time></trkpt><trkpt lat="34.485675804139966" lon="8.261158442765138"><ele>451.0</ele><time>2026-04-08T10:41:41Z</time></trkpt><trkpt lat="34.48573361752068" lon="8.261229295343972"><ele>451.00000000000006</ele><time>2026-04-08T10:41:42Z</time></trkpt><trkpt lat="34.485776810618944" lon="8.261288451582493"><ele>451.0</ele><time>2026-04-08T10:41:43Z</time></trkpt><trkpt lat="34.485846875585395" lon="8.26138986045793"><ele>451.0</ele><time>2026-04-08T10:41:45Z</time></trkpt><trkpt lat="34.48591477904727" lon="8.261480728956828"><ele>451.0</ele><time>2026-04-08T10:41:47Z</time></trkpt><trkpt lat="34.48596083591372" lon="8.2615345222522"><ele>451.00000000000006</ele><time>2026-04-08T10:41:48Z</time></trkpt><trkpt lat="34.48600408007831" lon="8.261595322792813"><ele>451.0</ele><time>2026-04-08T10:41:49Z</time></trkpt><trkpt lat="34.486053175725715" lon="8.261661297908997"><ele>451.00000000000006</ele><time>2026-04-08T10:41:50Z</time></trkpt><trkpt lat="34.48610472604348" lon="8.261734859757992"><ele>451.0</ele><time>2026-04-08T10:41:51Z</time></trkpt><trkpt lat="34.486156995706466" lon="8.261809030692353"><ele>451.0</ele><time>2026-04-08T10:41:52Z</time></trkpt><trkpt lat="34.486211506793595" lon="8.261889414758121"><ele>451.0</ele><time>2026-04-08T10:41:53Z</time></trkpt><trkpt lat="34.48626452312024" lon="8.26196868565003"><ele>451.00000000000006</ele><time>2026-04-08T10:41:54Z</time></trkpt><trkpt lat="34.486311390432775" lon="8.262038588484568"><ele>451.0</ele><time>2026-04-08T10:41:55Z</time></trkpt><trkpt lat="34.48635795869016" lon="8.262103419167927"><ele>451.0</ele><time>2026-04-08T10:41:56Z</time></trkpt><trkpt lat="34.48640514066436" lon="8.262171917991198"><ele>451.0</ele><time>2026-04-08T10:41:57Z</time></trkpt><trkpt lat="34.48644901234318" lon="8.262236669242634"><ele>451.0</ele><time>2026-04-08T10:41:58Z</time></trkpt><trkpt lat="34.48649243750496" lon="8.26230137598897"><ele>451.0</ele><time>2026-04-08T10:41:59Z</time></trkpt><trkpt lat="34.48653860171884" lon="8.262367828976858"><ele>451.0</ele><time>2026-04-08T10:42:00Z</time></trkpt><trkpt lat="34.48658905337236" lon="8.262436842309823"><ele>451.0</ele><time>2026-04-08T10:42:01Z</time></trkpt><trkpt lat="34.486641331112516" lon="8.262503718971692"><ele>451.0</ele><time>2026-04-08T10:42:02Z</time></trkpt><trkpt lat="34.486692759388" lon="8.262569541248634"><ele>451.1666666666667</ele><time>2026-04-08T10:42:03Z</time></trkpt><trkpt lat="34.48674304754455" lon="8.262641801896093"><ele>451.33333333333337</ele><time>2026-04-08T10:42:04Z</time></trkpt><trkpt lat="34.48679468207713" lon="8.262722725750555"><ele>451.5</ele><time>2026-04-08T10:42:05Z</time></trkpt><trkpt lat="34.486845945769716" lon="8.262797861509995"><ele>451.66666666666663</ele><time>2026-04-08T10:42:06Z</time></trkpt><trkpt lat="34.48689824690936" lon="8.262862568887876"><ele>451.8333333333333</ele><time>2026-04-08T10:42:07Z</time></trkpt><trkpt lat="34.486951163791105" lon="8.262926706211319"><ele>452.0</ele><time>2026-04-08T10:42:08Z</time></trkpt><trkpt lat="34.48699479152193" lon="8.262986950996122"><ele>452.0</ele><time>2026-04-08T10:42:09Z</time></trkpt><trkpt lat="34.487039517939124" lon="8.263048032510994"><ele>452.0</ele><time>2026-04-08T10:42:10Z</time></trkpt><trkpt lat="34.48708475019915" lon="8.263110316123782"><ele>452.0</ele><time>2026-04-08T10:42:11Z</time></trkpt><trkpt lat="34.487124484098125" lon="8.263173584822907"><ele>452.0</ele><time>2026-04-08T10:42:12Z</time></trkpt><trkpt lat="34.48716215428775" lon="8.263236266022206"><ele>452.0</ele><time>2026-04-08T10:42:13Z</time></trkpt><trkpt lat="34.487209392550355" lon="8.263306091813254"><ele>452.0</ele><time>2026-04-08T10:42:14Z</time></trkpt><trkpt lat="34.48727272515873" lon="8.263391926464521"><ele>452.0</ele><time>2026-04-08T10:42:15Z</time></trkpt><trkpt lat="34.4873450732828" lon="8.263485748498272"><ele>452.20000000000005</ele><time>2026-04-08T10:42:16Z</time></trkpt><trkpt lat="34.4874175915915" lon="8.263587561817987"><ele>452.40000000000003</ele><time>2026-04-08T10:42:17Z</time></trkpt><trkpt lat="34.48748613842129" lon="8.263681125294392"><ele>452.59999999999997</ele><time>2026-04-08T10:42:18Z</time></trkpt><trkpt lat="34.487546856586974" lon="8.263761480833672"><ele>452.79999999999995</ele><time>2026-04-08T10:42:19Z</time></trkpt><trkpt lat="34.48760194065819" lon="8.263837905971137"><ele>453.0</ele><time>2026-04-08T10:42:20Z</time></trkpt><trkpt lat="34.48765712677764" lon="8.263914407437307"><ele>453.3333333333333</ele><time>2026-04-08T10:42:21Z</time></trkpt><trkpt lat="34.48771530782591" lon="8.263991458522836"><ele>453.66666666666663</ele><time>2026-04-08T10:42:22Z</time></trkpt><trkpt lat="34.48777068094621" lon="8.264068702958546"><ele>454.0</ele><time>2026-04-08T10:42:23Z</time></trkpt><trkpt lat="34.487826255021375" lon="8.264145451390274"><ele>454.3333333333333</ele><time>2026-04-08T10:42:24Z</time></trkpt><trkpt lat="34.487882704071296" lon="8.264222977345165"><ele>454.66666666666663</ele><time>2026-04-08T10:42:25Z</time></trkpt><trkpt lat="34.48794140852714" lon="8.264301314624852"><ele>455.0</ele><time>2026-04-08T10:42:26Z</time></trkpt><trkpt lat="34.487999570732875" lon="8.264378001166147"><ele>455.2857142857143</ele><time>2026-04-08T10:42:27Z</time></trkpt><trkpt lat="34.488058372979566" lon="8.264453840774793"><ele>455.57142857142856</ele><time>2026-04-08T10:42:28Z</time></trkpt><trkpt lat="34.488115041900734" lon="8.264528796172511"><ele>455.8571428571429</ele><time>2026-04-08T10:42:29Z</time></trkpt><trkpt lat="34.48816638596077" lon="8.264592590339296"><ele>456.14285714285717</ele><time>2026-04-08T10:42:30Z</time></trkpt><trkpt lat="34.48821708057254" lon="8.26464883653457"><ele>456.42857142857144</ele><time>2026-04-08T10:42:31Z</time></trkpt><trkpt lat="34.48826743582165" lon="8.264704615309874"><ele>456.7142857142858</ele><time>2026-04-08T10:42:32Z</time></trkpt><trkpt lat="34.48831644198856" lon="8.264755412321247"><ele>457.00000000000006</ele><time>2026-04-08T10:42:33Z</time></trkpt><trkpt lat="34.48836940875073" lon="8.26480311457451"><ele>457.00000000000006</ele><time>2026-04-08T10:42:34Z</time></trkpt><trkpt lat="34.4884221882704" lon="8.264854752761485"><ele>457.0</ele><time>2026-04-08T10:42:35Z</time></trkpt><trkpt lat="34.488477726965634" lon="8.264908702913312"><ele>457.0</ele><time>2026-04-08T10:42:36Z</time></trkpt><trkpt lat="34.488541223295854" lon="8.264962980718993"><ele>457.0</ele><time>2026-04-08T10:42:37Z</time></trkpt><trkpt lat="34.488608503433035" lon="8.26502191099506"><ele>457.00000000000006</ele><time>2026-04-08T10:42:38Z</time></trkpt><trkpt lat="34.488690489207535" lon="8.265076170142818"><ele>457.0</ele><time>2026-04-08T10:42:39Z</time></trkpt><trkpt lat="34.488766205856535" lon="8.265132993270594"><ele>457.33333333333337</ele><time>2026-04-08T10:42:40Z</time></trkpt><trkpt lat="34.488835287748806" lon="8.26518499759696"><ele>457.6666666666667</ele><time>2026-04-08T10:42:41Z</time></trkpt><trkpt lat="34.48890655350757" lon="8.265236917517317"><ele>458.0</ele><time>2026-04-08T10:42:42Z</time></trkpt><trkpt lat="34.48898000760537" lon="8.265288515706857"><ele>458.33333333333337</ele><time>2026-04-08T10:42:43Z</time></trkpt><trkpt lat="34.489056663536374" lon="8.265344365379592"><ele>458.6666666666667</ele><time>2026-04-08T10:42:44Z</time></trkpt><trkpt lat="34.489131246283115" lon="8.265399481479951"><ele>459.0</ele><time>2026-04-08T10:42:45Z</time></trkpt><trkpt lat="34.4892075515952" lon="8.265456145850385"><ele>459.0</ele><time>2026-04-08T10:42:46Z</time></trkpt><trkpt lat="34.48928565151522" lon="8.265513265256102"><ele>459.0</ele><time>2026-04-08T10:42:47Z</time></trkpt><trkpt lat="34.4893636054534" lon="8.265571983611203"><ele>459.0</ele><time>2026-04-08T10:42:48Z</time></trkpt><trkpt lat="34.48944286395227" lon="8.265630881289187"><ele>459.0</ele><time>2026-04-08T10:42:49Z</time></trkpt><trkpt lat="34.48952060990016" lon="8.26568495240523"><ele>459.0</ele><time>2026-04-08T10:42:50Z</time></trkpt><trkpt lat="34.48960040591408" lon="8.265737347294777"><ele>458.8333333333333</ele><time>2026-04-08T10:42:51Z</time></trkpt><trkpt lat="34.48967846652199" lon="8.265787799755026"><ele>458.66666666666663</ele><time>2026-04-08T10:42:52Z</time></trkpt><trkpt lat="34.489754356051385" lon="8.265839686940925"><ele>458.5</ele><time>2026-04-08T10:42:53Z</time></trkpt><trkpt lat="34.48982196787243" lon="8.26588781172115"><ele>458.3333333333333</ele><time>2026-04-08T10:42:54Z</time></trkpt><trkpt lat="34.4898874209643" lon="8.265934206759118"><ele>458.16666666666663</ele><time>2026-04-08T10:42:55Z</time></trkpt><trkpt lat="34.48994330974926" lon="8.265975654248635"><ele>458.0</ele><time>2026-04-08T10:42:56Z</time></trkpt><trkpt lat="34.490045154864454" lon="8.266052275623965"><ele>457.99999999999994</ele><time>2026-04-08T10:42:58Z</time></trkpt><trkpt lat="34.49014640365367" lon="8.266118203577657"><ele>458.0</ele><time>2026-04-08T10:43:00Z</time></trkpt><trkpt lat="34.49025686085007" lon="8.26618931859089"><ele>458.0</ele><time>2026-04-08T10:43:02Z</time></trkpt><trkpt lat="34.49031079895486" lon="8.266234301727792"><ele>458.0</ele><time>2026-04-08T10:43:03Z</time></trkpt><trkpt lat="34.49036829971102" lon="8.266277108764045"><ele>457.99999999999994</ele><time>2026-04-08T10:43:04Z</time></trkpt><trkpt lat="34.490426965347034" lon="8.266326659748705"><ele>458.0</ele><time>2026-04-08T10:43:05Z</time></trkpt><trkpt lat="34.49048007630265" lon="8.266378135354403"><ele>458.2857142857143</ele><time>2026-04-08T10:43:06Z</time></trkpt><trkpt lat="34.4905385699584" lon="8.266426735251995"><ele>458.57142857142856</ele><time>2026-04-08T10:43:07Z</time></trkpt><trkpt lat="34.490602339074904" lon="8.266465948706353"><ele>458.85714285714283</ele><time>2026-04-08T10:43:08Z</time></trkpt><trkpt lat="34.49066566239627" lon="8.26650685172292"><ele>459.1428571428571</ele><time>2026-04-08T10:43:09Z</time></trkpt><trkpt lat="34.49072593389806" lon="8.26655213237547"><ele>459.42857142857144</ele><time>2026-04-08T10:43:10Z</time></trkpt><trkpt lat="34.49078287264965" lon="8.266602531593042"><ele>459.71428571428567</ele><time>2026-04-08T10:43:11Z</time></trkpt><trkpt lat="34.49083315742199" lon="8.26666069434686"><ele>459.99999999999994</ele><time>2026-04-08T10:43:12Z</time></trkpt><trkpt lat="34.490880754473864" lon="8.266721026984733"><ele>460.2</ele><time>2026-04-08T10:43:13Z</time></trkpt><trkpt lat="34.49093034735533" lon="8.266774713582466"><ele>460.4</ele><time>2026-04-08T10:43:14Z</time></trkpt><trkpt lat="34.49100680651326" lon="8.266889322219301"><ele>460.6</ele><time>2026-04-08T10:43:16Z</time></trkpt><trkpt lat="34.491071828045804" lon="8.267017925457518"><ele>460.8</ele><time>2026-04-08T10:43:18Z</time></trkpt><trkpt lat="34.491106779593515" lon="8.267082321581519"><ele>461.0</ele><time>2026-04-08T10:43:19Z</time></trkpt><trkpt lat="34.49116461515585" lon="8.267213578287476"><ele>460.99999999999994</ele><time>2026-04-08T10:43:21Z</time></trkpt><trkpt lat="34.49122776274204" lon="8.267336839938961"><ele>461.0</ele><time>2026-04-08T10:43:23Z</time></trkpt><trkpt lat="34.491265335080506" lon="8.267473643286175"><ele>461.0</ele><time>2026-04-08T10:43:25Z</time></trkpt><trkpt lat="34.491277452325065" lon="8.267550316213564"><ele>461.0</ele><time>2026-04-08T10:43:26Z</time></trkpt><trkpt lat="34.49128588489913" lon="8.26762955955502"><ele>460.99999999999994</ele><time>2026-04-08T10:43:27Z</time></trkpt><trkpt lat="34.49129423290149" lon="8.267709866616284"><ele>461.0</ele><time>2026-04-08T10:43:28Z</time></trkpt><trkpt lat="34.491302065536885" lon="8.267793368051265"><ele>461.49999999999994</ele><time>2026-04-08T10:43:29Z</time></trkpt><trkpt lat="34.49130782514043" lon="8.267877769947845"><ele>462.0</ele><time>2026-04-08T10:43:30Z</time></trkpt><trkpt lat="34.49130991825325" lon="8.268022928571643"><ele>462.5</ele><time>2026-04-08T10:43:32Z</time></trkpt><trkpt lat="34.491309863817804" lon="8.268139737597686"><ele>463.0</ele><time>2026-04-08T10:43:34Z</time></trkpt><trkpt lat="34.491308048855295" lon="8.268244046931887"><ele>463.49999999999994</ele><time>2026-04-08T10:43:36Z</time></trkpt><trkpt lat="34.49131345684888" lon="8.268337782841199"><ele>464.0</ele><time>2026-04-08T10:43:38Z</time></trkpt><trkpt lat="34.49132439829956" lon="8.268423271038326"><ele>464.16666666666663</ele><time>2026-04-08T10:43:40Z</time></trkpt><trkpt lat="34.491324214195245" lon="8.268525150382773"><ele>464.3333333333333</ele><time>2026-04-08T10:43:49Z</time></trkpt><trkpt lat="34.4913286244702" lon="8.268633380570535"><ele>464.5</ele><time>2026-04-08T10:43:51Z</time></trkpt><trkpt lat="34.491341725450795" lon="8.268742747802888"><ele>464.66666666666663</ele><time>2026-04-08T10:43:53Z</time></trkpt><trkpt lat="34.491342845427646" lon="8.268826730882752"><ele>464.8333333333333</ele><time>2026-04-08T10:43:55Z</time></trkpt><trkpt lat="34.49134792646692" lon="8.268936277950198"><ele>465.0</ele><time>2026-04-08T10:43:57Z</time></trkpt><trkpt lat="34.491350312585745" lon="8.269071738266518"><ele>464.6666666666667</ele><time>2026-04-08T10:43:59Z</time></trkpt><trkpt lat="34.49135382304185" lon="8.269227101642386"><ele>464.33333333333337</ele><time>2026-04-08T10:44:01Z</time></trkpt><trkpt lat="34.49135226134868" lon="8.269312166431865"><ele>464.0</ele><time>2026-04-08T10:44:02Z</time></trkpt><trkpt lat="34.49135277356379" lon="8.269401701623039"><ele>463.6666666666667</ele><time>2026-04-08T10:44:03Z</time></trkpt><trkpt lat="34.49135100376543" lon="8.269492753720481"><ele>463.33333333333337</ele><time>2026-04-08T10:44:04Z</time></trkpt><trkpt lat="34.4913542569997" lon="8.269585209788403"><ele>463.0</ele><time>2026-04-08T10:44:05Z</time></trkpt><trkpt lat="34.49136240706771" lon="8.269679702363256"><ele>463.00000000000006</ele><time>2026-04-08T10:44:06Z</time></trkpt><trkpt lat="34.49136773398796" lon="8.269774045722416"><ele>463.0</ele><time>2026-04-08T10:44:07Z</time></trkpt><trkpt lat="34.49136746097317" lon="8.269871288049613"><ele>463.0</ele><time>2026-04-08T10:44:08Z</time></trkpt><trkpt lat="34.491366265888786" lon="8.2699717808772"><ele>463.0</ele><time>2026-04-08T10:44:09Z</time></trkpt><trkpt lat="34.49136669141115" lon="8.270076052744992"><ele>463.00000000000006</ele><time>2026-04-08T10:44:10Z</time></trkpt><trkpt lat="34.491368694557025" lon="8.270186428229762"><ele>463.0</ele><time>2026-04-08T10:44:11Z</time></trkpt><trkpt lat="34.491371131224426" lon="8.270303142167032"><ele>462.59999999999997</ele><time>2026-04-08T10:44:12Z</time></trkpt><trkpt lat="34.49137527420357" lon="8.270426732878777"><ele>462.19999999999993</ele><time>2026-04-08T10:44:13Z</time></trkpt><trkpt lat="34.49138120552157" lon="8.270555960853505"><ele>461.8</ele><time>2026-04-08T10:44:14Z</time></trkpt><trkpt lat="34.491387858264005" lon="8.270684928025666"><ele>461.4</ele><time>2026-04-08T10:44:15Z</time></trkpt><trkpt lat="34.49138666374608" lon="8.270808068027954"><ele>461.0</ele><time>2026-04-08T10:44:16Z</time></trkpt><trkpt lat="34.49138634062894" lon="8.270931839321978"><ele>460.8</ele><time>2026-04-08T10:44:17Z</time></trkpt><trkpt lat="34.49139206276899" lon="8.271056882370445"><ele>460.6</ele><time>2026-04-08T10:44:18Z</time></trkpt><trkpt lat="34.49139576767841" lon="8.271181651979642"><ele>460.4</ele><time>2026-04-08T10:44:19Z</time></trkpt><trkpt lat="34.49139473517098" lon="8.271297166653937"><ele>460.2</ele><time>2026-04-08T10:44:20Z</time></trkpt><trkpt lat="34.49139930237238" lon="8.271406706274485"><ele>460.0</ele><time>2026-04-08T10:44:21Z</time></trkpt><trkpt lat="34.49140079112692" lon="8.271511859912348"><ele>460.00000000000006</ele><time>2026-04-08T10:44:22Z</time></trkpt><trkpt lat="34.49140251962095" lon="8.271618308561866"><ele>460.0</ele><time>2026-04-08T10:44:23Z</time></trkpt><trkpt lat="34.491407484033985" lon="8.271724297403058"><ele>460.0</ele><time>2026-04-08T10:44:24Z</time></trkpt><trkpt lat="34.491413429755426" lon="8.271822934406673"><ele>460.0</ele><time>2026-04-08T10:44:25Z</time></trkpt><trkpt lat="34.49141545880771" lon="8.271916485119299"><ele>460.00000000000006</ele><time>2026-04-08T10:44:26Z</time></trkpt><trkpt lat="34.49141518720458" lon="8.27200586814622"><ele>460.0</ele><time>2026-04-08T10:44:27Z</time></trkpt><trkpt lat="34.49141839359964" lon="8.272091200531237"><ele>460.00000000000006</ele><time>2026-04-08T10:44:28Z</time></trkpt><trkpt lat="34.49142144099418" lon="8.272175338289784"><ele>460.0</ele><time>2026-04-08T10:44:29Z</time></trkpt><trkpt lat="34.49142270748635" lon="8.272260203828337"><ele>460.0</ele><time>2026-04-08T10:44:30Z</time></trkpt><trkpt lat="34.49142348836005" lon="8.272339567441366"><ele>460.0</ele><time>2026-04-08T10:44:31Z</time></trkpt><trkpt lat="34.49142889240903" lon="8.272416640316054"><ele>460.00000000000006</ele><time>2026-04-08T10:44:32Z</time></trkpt><trkpt lat="34.49143402669725" lon="8.272575901907171"><ele>460.0</ele><time>2026-04-08T10:44:34Z</time></trkpt><trkpt lat="34.49142772650767" lon="8.272665407888974"><ele>459.83333333333337</ele><time>2026-04-08T10:44:35Z</time></trkpt><trkpt lat="34.49142996028624" lon="8.27275907225472"><ele>459.6666666666667</ele><time>2026-04-08T10:44:36Z</time></trkpt><trkpt lat="34.49143478398984" lon="8.272855285226347"><ele>459.5</ele><time>2026-04-08T10:44:37Z</time></trkpt><trkpt lat="34.49143574479436" lon="8.27295323470903"><ele>459.33333333333337</ele><time>2026-04-08T10:44:38Z</time></trkpt><trkpt lat="34.49143689590766" lon="8.273045251047124"><ele>459.1666666666667</ele><time>2026-04-08T10:44:39Z</time></trkpt><trkpt lat="34.49143722442034" lon="8.273133163630531"><ele>459.0</ele><time>2026-04-08T10:44:40Z</time></trkpt><trkpt lat="34.49143627182064" lon="8.2732742100648"><ele>459.0</ele><time>2026-04-08T10:44:42Z</time></trkpt><trkpt lat="34.49143929320747" lon="8.273427439347486"><ele>459.0</ele><time>2026-04-08T10:44:44Z</time></trkpt><trkpt lat="34.491443880448976" lon="8.273509434594356"><ele>459.0</ele><time>2026-04-08T10:44:45Z</time></trkpt><trkpt lat="34.491452423391124" lon="8.273588406139027"><ele>459.0</ele><time>2026-04-08T10:44:46Z</time></trkpt><trkpt lat="34.49146122141185" lon="8.273669129527603"><ele>459.0</ele><time>2026-04-08T10:44:47Z</time></trkpt><trkpt lat="34.4914644022599" lon="8.273748905617914"><ele>459.0</ele><time>2026-04-08T10:44:48Z</time></trkpt><trkpt lat="34.49146275383912" lon="8.273830289675628"><ele>459.0</ele><time>2026-04-08T10:44:49Z</time></trkpt><trkpt lat="34.491460292747284" lon="8.273916376364909"><ele>459.0</ele><time>2026-04-08T10:44:50Z</time></trkpt><trkpt lat="34.49146295719443" lon="8.27400599849644"><ele>459.0</ele><time>2026-04-08T10:44:51Z</time></trkpt><trkpt lat="34.49146732254899" lon="8.274097649885837"><ele>459.0</ele><time>2026-04-08T10:44:52Z</time></trkpt><trkpt lat="34.491470202995686" lon="8.274188748212929"><ele>459.0</ele><time>2026-04-08T10:44:53Z</time></trkpt><trkpt lat="34.491468738310566" lon="8.274281430600071"><ele>459.0</ele><time>2026-04-08T10:44:54Z</time></trkpt><trkpt lat="34.49146553002531" lon="8.274375919701887"><ele>459.0</ele><time>2026-04-08T10:44:55Z</time></trkpt><trkpt lat="34.491466860716606" lon="8.274462987284641"><ele>459.0</ele><time>2026-04-08T10:44:56Z</time></trkpt><trkpt lat="34.49146906018651" lon="8.274543087280353"><ele>459.0</ele><time>2026-04-08T10:44:57Z</time></trkpt><trkpt lat="34.49147802984375" lon="8.274619275002882"><ele>459.0</ele><time>2026-04-08T10:44:58Z</time></trkpt><trkpt lat="34.49148412793014" lon="8.274695878520486"><ele>459.0</ele><time>2026-04-08T10:44:59Z</time></trkpt><trkpt lat="34.49149156762115" lon="8.274836258391367"><ele>459.0</ele><time>2026-04-08T10:45:01Z</time></trkpt><trkpt lat="34.491495962905546" lon="8.274955469448827"><ele>458.79999999999995</ele><time>2026-04-08T10:45:03Z</time></trkpt><trkpt lat="34.49149330627648" lon="8.275075789347966"><ele>458.59999999999997</ele><time>2026-04-08T10:45:05Z</time></trkpt><trkpt lat="34.49150001655834" lon="8.275218225155726"><ele>458.4</ele><time>2026-04-08T10:45:07Z</time></trkpt><trkpt lat="34.491502148114016" lon="8.275365971359765"><ele>458.2</ele><time>2026-04-08T10:45:09Z</time></trkpt><trkpt lat="34.49150446690809" lon="8.275449155556567"><ele>458.0</ele><time>2026-04-08T10:45:10Z</time></trkpt><trkpt lat="34.49150572902919" lon="8.27553333881197"><ele>457.49999999999994</ele><time>2026-04-08T10:45:11Z</time></trkpt><trkpt lat="34.49150871053478" lon="8.275621920533288"><ele>457.0</ele><time>2026-04-08T10:45:12Z</time></trkpt><trkpt lat="34.491513964917594" lon="8.275714343300885"><ele>456.5</ele><time>2026-04-08T10:45:13Z</time></trkpt><trkpt lat="34.49151765897425" lon="8.275814564807511"><ele>456.0</ele><time>2026-04-08T10:45:14Z</time></trkpt><trkpt lat="34.49151671491308" lon="8.275917653997343"><ele>455.49999999999994</ele><time>2026-04-08T10:45:15Z</time></trkpt><trkpt lat="34.49151516264758" lon="8.276024024244292"><ele>455.0</ele><time>2026-04-08T10:45:16Z</time></trkpt><trkpt lat="34.49151487038629" lon="8.27613309392014"><ele>455.0</ele><time>2026-04-08T10:45:17Z</time></trkpt><trkpt lat="34.49151751141631" lon="8.27624407101059"><ele>455.0</ele><time>2026-04-08T10:45:18Z</time></trkpt><trkpt lat="34.49151911016444" lon="8.276356693264082"><ele>455.0</ele><time>2026-04-08T10:45:19Z</time></trkpt><trkpt lat="34.49151932629032" lon="8.276467713003187"><ele>455.0</ele><time>2026-04-08T10:45:20Z</time></trkpt><trkpt lat="34.491526354086794" lon="8.276578491328968"><ele>455.0</ele><time>2026-04-08T10:45:21Z</time></trkpt><trkpt lat="34.491530663377965" lon="8.27668648850986"><ele>455.1428571428571</ele><time>2026-04-08T10:45:22Z</time></trkpt><trkpt lat="34.49153090956061" lon="8.276790404049393"><ele>455.2857142857143</ele><time>2026-04-08T10:45:23Z</time></trkpt><trkpt lat="34.49153391083778" lon="8.276884689943625"><ele>455.42857142857144</ele><time>2026-04-08T10:45:24Z</time></trkpt><trkpt lat="34.4915391256136" lon="8.276971924147437"><ele>455.57142857142856</ele><time>2026-04-08T10:45:25Z</time></trkpt><trkpt lat="34.49154424269549" lon="8.277054365657259"><ele>455.71428571428567</ele><time>2026-04-08T10:45:26Z</time></trkpt><trkpt lat="34.49154807939728" lon="8.277137190357287"><ele>455.85714285714283</ele><time>2026-04-08T10:45:27Z</time></trkpt><trkpt lat="34.491549773750876" lon="8.277222885686994"><ele>456.0</ele><time>2026-04-08T10:45:28Z</time></trkpt><trkpt lat="34.491550840562894" lon="8.27730959010766"><ele>456.0</ele><time>2026-04-08T10:45:29Z</time></trkpt><trkpt lat="34.49154913141838" lon="8.277396603977481"><ele>456.0</ele><time>2026-04-08T10:45:30Z</time></trkpt><trkpt lat="34.49155128709297" lon="8.27748177152347"><ele>456.0</ele><time>2026-04-08T10:45:31Z</time></trkpt><trkpt lat="34.491556771455116" lon="8.27756981884087"><ele>456.0</ele><time>2026-04-08T10:45:32Z</time></trkpt><trkpt lat="34.49156430380112" lon="8.277660230880755"><ele>456.0</ele><time>2026-04-08T10:45:33Z</time></trkpt><trkpt lat="34.49156359027289" lon="8.277756138304866"><ele>456.0</ele><time>2026-04-08T10:45:34Z</time></trkpt><trkpt lat="34.491561559544344" lon="8.27785718333402"><ele>456.0</ele><time>2026-04-08T10:45:35Z</time></trkpt><trkpt lat="34.491562578200686" lon="8.277954914363887"><ele>456.0</ele><time>2026-04-08T10:45:36Z</time></trkpt><trkpt lat="34.49156478049788" lon="8.278053587533247"><ele>456.0</ele><time>2026-04-08T10:45:37Z</time></trkpt><trkpt lat="34.49156730287921" lon="8.278155708168978"><ele>456.0</ele><time>2026-04-08T10:45:38Z</time></trkpt><trkpt lat="34.49157371187726" lon="8.278258879963033"><ele>456.0</ele><time>2026-04-08T10:45:39Z</time></trkpt><trkpt lat="34.4915772846521" lon="8.278362897702989"><ele>456.0</ele><time>2026-04-08T10:45:40Z</time></trkpt><trkpt lat="34.4915779615924" lon="8.27846150871474"><ele>455.8333333333333</ele><time>2026-04-08T10:45:41Z</time></trkpt><trkpt lat="34.491578831808944" lon="8.278555126340342"><ele>455.66666666666663</ele><time>2026-04-08T10:45:42Z</time></trkpt><trkpt lat="34.491582036308486" lon="8.27865252323949"><ele>455.5</ele><time>2026-04-08T10:45:43Z</time></trkpt><trkpt lat="34.49158336376208" lon="8.27875556362825"><ele>455.3333333333333</ele><time>2026-04-08T10:45:44Z</time></trkpt><trkpt lat="34.49158636945759" lon="8.278860041885066"><ele>455.16666666666663</ele><time>2026-04-08T10:45:45Z</time></trkpt><trkpt lat="34.49159190954394" lon="8.278965034726648"><ele>455.0</ele><time>2026-04-08T10:45:46Z</time></trkpt><trkpt lat="34.49159526612355" lon="8.279073146983622"><ele>454.8</ele><time>2026-04-08T10:45:47Z</time></trkpt><trkpt lat="34.49159870158145" lon="8.279183783380885"><ele>454.6</ele><time>2026-04-08T10:45:48Z</time></trkpt><trkpt lat="34.49160412035791" lon="8.279295682695176"><ele>454.4</ele><time>2026-04-08T10:45:49Z</time></trkpt><trkpt lat="34.491610259849196" lon="8.279407019431948"><ele>454.2</ele><time>2026-04-08T10:45:50Z</time></trkpt><trkpt lat="34.491616281356684" lon="8.279525079064781"><ele>454.0</ele><time>2026-04-08T10:45:51Z</time></trkpt><trkpt lat="34.49162999420162" lon="8.279643192201977"><ele>454.0</ele><time>2026-04-08T10:45:52Z</time></trkpt><trkpt lat="34.49164923541013" lon="8.279761765203466"><ele>454.0</ele><time>2026-04-08T10:45:53Z</time></trkpt><trkpt lat="34.491671009133455" lon="8.279882204060684"><ele>454.0</ele><time>2026-04-08T10:45:54Z</time></trkpt><trkpt lat="34.49169531481428" lon="8.280002351255728"><ele>454.0</ele><time>2026-04-08T10:45:55Z</time></trkpt><trkpt lat="34.49172068288472" lon="8.280123735235067"><ele>454.0</ele><time>2026-04-08T10:45:56Z</time></trkpt><trkpt lat="34.49174457085145" lon="8.280247487550495"><ele>453.6</ele><time>2026-04-08T10:45:57Z</time></trkpt><trkpt lat="34.491766371391954" lon="8.2803712364913"><ele>453.2</ele><time>2026-04-08T10:45:58Z</time></trkpt><trkpt lat="34.49179214765187" lon="8.280493748063192"><ele>452.80000000000007</ele><time>2026-04-08T10:45:59Z</time></trkpt><trkpt lat="34.49182483414877" lon="8.280615501313825"><ele>452.40000000000003</ele><time>2026-04-08T10:46:00Z</time></trkpt><trkpt lat="34.49185523421066" lon="8.280736625300113"><ele>452.0</ele><time>2026-04-08T10:46:01Z</time></trkpt><trkpt lat="34.491884548548526" lon="8.280857351431099"><ele>451.8</ele><time>2026-04-08T10:46:02Z</time></trkpt><trkpt lat="34.491917699191696" lon="8.280977529934495"><ele>451.6</ele><time>2026-04-08T10:46:03Z</time></trkpt><trkpt lat="34.49195023377184" lon="8.281097353494847"><ele>451.40000000000003</ele><time>2026-04-08T10:46:04Z</time></trkpt><trkpt lat="34.49198105398404" lon="8.281219523031474"><ele>451.20000000000005</ele><time>2026-04-08T10:46:05Z</time></trkpt><trkpt lat="34.49201103028296" lon="8.281341841429276"><ele>451.0</ele><time>2026-04-08T10:46:06Z</time></trkpt><trkpt lat="34.49203262698962" lon="8.281467732437417"><ele>451.0</ele><time>2026-04-08T10:46:07Z</time></trkpt><trkpt lat="34.49204013503917" lon="8.281598039331975"><ele>451.0</ele><time>2026-04-08T10:46:08Z</time></trkpt><trkpt lat="34.49203900979076" lon="8.281728244904492"><ele>451.0</ele><time>2026-04-08T10:46:09Z</time></trkpt><trkpt lat="34.492018812469595" lon="8.281846683649913"><ele>451.0</ele><time>2026-04-08T10:46:10Z</time></trkpt><trkpt lat="34.49197765923416" lon="8.281954572295252"><ele>451.0</ele><time>2026-04-08T10:46:11Z</time></trkpt><trkpt lat="34.491916921493605" lon="8.282052834923952"><ele>451.0</ele><time>2026-04-08T10:46:12Z</time></trkpt><trkpt lat="34.49184147589053" lon="8.282136087920268"><ele>451.0</ele><time>2026-04-08T10:46:13Z</time></trkpt><trkpt lat="34.49176818617204" lon="8.282212085554336"><ele>451.0</ele><time>2026-04-08T10:46:14Z</time></trkpt><trkpt lat="34.49169518037007" lon="8.282282100404133"><ele>451.0</ele><time>2026-04-08T10:46:15Z</time></trkpt><trkpt lat="34.49161515528783" lon="8.282337903373143"><ele>451.0</ele><time>2026-04-08T10:46:16Z</time></trkpt><trkpt lat="34.49152887740393" lon="8.282371653582368"><ele>450.6</ele><time>2026-04-08T10:46:17Z</time></trkpt><trkpt lat="34.49144898345829" lon="8.282376520261192"><ele>450.20000000000005</ele><time>2026-04-08T10:46:18Z</time></trkpt><trkpt lat="34.49135839229335" lon="8.282360198843019"><ele>449.79999999999995</ele><time>2026-04-08T10:46:19Z</time></trkpt><trkpt lat="34.49126275337107" lon="8.28232621388176"><ele>449.4</ele><time>2026-04-08T10:46:20Z</time></trkpt><trkpt lat="34.49116186036126" lon="8.28228185116707"><ele>449.0</ele><time>2026-04-08T10:46:21Z</time></trkpt><trkpt lat="34.49106136718744" lon="8.282229127745476"><ele>449.0</ele><time>2026-04-08T10:46:22Z</time></trkpt><trkpt lat="34.49096026125054" lon="8.282177242595711"><ele>449.0</ele><time>2026-04-08T10:46:23Z</time></trkpt><trkpt lat="34.490858054560135" lon="8.282121074788098"><ele>449.0</ele><time>2026-04-08T10:46:24Z</time></trkpt><trkpt lat="34.49075416054139" lon="8.282056004547249"><ele>449.0</ele><time>2026-04-08T10:46:25Z</time></trkpt><trkpt lat="34.490646515524894" lon="8.281992928152897"><ele>449.0</ele><time>2026-04-08T10:46:26Z</time></trkpt><trkpt lat="34.490531280487794" lon="8.281948647910335"><ele>449.0</ele><time>2026-04-08T10:46:27Z</time></trkpt><trkpt lat="34.49040843362214" lon="8.281918988191913"><ele>449.0</ele><time>2026-04-08T10:46:28Z</time></trkpt><trkpt lat="34.49027920203835" lon="8.281908610378782"><ele>449.0</ele><time>2026-04-08T10:46:29Z</time></trkpt><trkpt lat="34.490149332759515" lon="8.281915720448518"><ele>448.75</ele><time>2026-04-08T10:46:30Z</time></trkpt><trkpt lat="34.49002390302906" lon="8.281941316653773"><ele>448.5</ele><time>2026-04-08T10:46:31Z</time></trkpt><trkpt lat="34.489899221245366" lon="8.281984145536038"><ele>448.25</ele><time>2026-04-08T10:46:32Z</time></trkpt><trkpt lat="34.489775290243465" lon="8.282043877906602"><ele>448.0</ele><time>2026-04-08T10:46:33Z</time></trkpt><trkpt lat="34.48965183353225" lon="8.28209785349921"><ele>447.75</ele><time>2026-04-08T10:46:34Z</time></trkpt><trkpt lat="34.4895255916218" lon="8.282144871088308"><ele>447.5</ele><time>2026-04-08T10:46:35Z</time></trkpt><trkpt lat="34.48940786088913" lon="8.282190950222525"><ele>447.25</ele><time>2026-04-08T10:46:36Z</time></trkpt><trkpt lat="34.48929655984552" lon="8.282234323501983"><ele>447.0</ele><time>2026-04-08T10:46:37Z</time></trkpt><trkpt lat="34.48919248451439" lon="8.282277537060034"><ele>447.0</ele><time>2026-04-08T10:46:38Z</time></trkpt><trkpt lat="34.48909138695485" lon="8.282319192779905"><ele>447.00000000000006</ele><time>2026-04-08T10:46:39Z</time></trkpt><trkpt lat="34.48899919508198" lon="8.282357578629789"><ele>447.00000000000006</ele><time>2026-04-08T10:46:40Z</time></trkpt><trkpt lat="34.48891430730137" lon="8.282392137143662"><ele>447.0</ele><time>2026-04-08T10:46:41Z</time></trkpt><trkpt lat="34.48883351072496" lon="8.282426708253881"><ele>447.0</ele><time>2026-04-08T10:46:42Z</time></trkpt><trkpt lat="34.48875312861089" lon="8.28245988435065"><ele>446.8333333333333</ele><time>2026-04-08T10:46:43Z</time></trkpt><trkpt lat="34.48866877911364" lon="8.282490246608882"><ele>446.66666666666663</ele><time>2026-04-08T10:46:44Z</time></trkpt><trkpt lat="34.48858738198693" lon="8.282522856771935"><ele>446.5</ele><time>2026-04-08T10:46:45Z</time></trkpt><trkpt lat="34.48851107059662" lon="8.28255946023291"><ele>446.3333333333333</ele><time>2026-04-08T10:46:46Z</time></trkpt><trkpt lat="34.48843435597973" lon="8.282594213958465"><ele>446.16666666666663</ele><time>2026-04-08T10:46:47Z</time></trkpt><trkpt lat="34.48835451494196" lon="8.282625695367926"><ele>446.0</ele><time>2026-04-08T10:46:48Z</time></trkpt><trkpt lat="34.488273138201755" lon="8.282662556884828"><ele>446.0</ele><time>2026-04-08T10:46:49Z</time></trkpt><trkpt lat="34.488197306270145" lon="8.282695115284138"><ele>446.0</ele><time>2026-04-08T10:46:50Z</time></trkpt><trkpt lat="34.488123495538154" lon="8.282723623271893"><ele>446.0</ele><time>2026-04-08T10:46:51Z</time></trkpt><trkpt lat="34.48805800388039" lon="8.282748686510553"><ele>446.0</ele><time>2026-04-08T10:46:52Z</time></trkpt><trkpt lat="34.48794682260322" lon="8.28279655242358"><ele>446.0</ele><time>2026-04-08T10:46:54Z</time></trkpt><trkpt lat="34.48784026934027" lon="8.282837583117404"><ele>445.49999999999994</ele><time>2026-04-08T10:46:56Z</time></trkpt><trkpt lat="34.487775893984114" lon="8.282866318653204"><ele>445.0</ele><time>2026-04-08T10:46:57Z</time></trkpt><trkpt lat="34.48770716135213" lon="8.282895384923696"><ele>444.5</ele><time>2026-04-08T10:46:58Z</time></trkpt><trkpt lat="34.48763490918637" lon="8.282924333788156"><ele>444.0</ele><time>2026-04-08T10:46:59Z</time></trkpt><trkpt lat="34.48756191885673" lon="8.282952630687326"><ele>443.49999999999994</ele><time>2026-04-08T10:47:00Z</time></trkpt><trkpt lat="34.487487720484495" lon="8.282983109074717"><ele>443.0</ele><time>2026-04-08T10:47:01Z</time></trkpt><trkpt lat="34.48741249275017" lon="8.283013501773931"><ele>442.99999999999994</ele><time>2026-04-08T10:47:02Z</time></trkpt><trkpt lat="34.487343677322976" lon="8.28304046148235"><ele>443.0</ele><time>2026-04-08T10:47:03Z</time></trkpt><trkpt lat="34.487280662760185" lon="8.283065842151094"><ele>443.0</ele><time>2026-04-08T10:47:04Z</time></trkpt><trkpt lat="34.48722132739843" lon="8.28309149963119"><ele>443.0</ele><time>2026-04-08T10:47:05Z</time></trkpt><trkpt lat="34.48711076196197" lon="8.28314054984541"><ele>442.99999999999994</ele><time>2026-04-08T10:47:07Z</time></trkpt><trkpt lat="34.48700200091914" lon="8.283184982213815"><ele>443.0</ele><time>2026-04-08T10:47:09Z</time></trkpt><trkpt lat="34.48691306121929" lon="8.28322038726253"><ele>443.2</ele><time>2026-04-08T10:47:11Z</time></trkpt><trkpt lat="34.48680737833927" lon="8.283266589395089"><ele>443.4</ele><time>2026-04-08T10:47:13Z</time></trkpt><trkpt lat="34.486734422682574" lon="8.283296720767103"><ele>443.59999999999997</ele><time>2026-04-08T10:47:14Z</time></trkpt><trkpt lat="34.48664117598185" lon="8.283336232688939"><ele>443.79999999999995</ele><time>2026-04-08T10:47:15Z</time></trkpt><trkpt lat="34.486529176847235" lon="8.283378839445755"><ele>444.0</ele><time>2026-04-08T10:47:16Z</time></trkpt><trkpt lat="34.486413417694706" lon="8.283425226003748"><ele>444.0</ele><time>2026-04-08T10:47:17Z</time></trkpt><trkpt lat="34.486299663530616" lon="8.283474811308041"><ele>444.0</ele><time>2026-04-08T10:47:18Z</time></trkpt><trkpt lat="34.48618836410361" lon="8.283524982386506"><ele>444.0</ele><time>2026-04-08T10:47:19Z</time></trkpt><trkpt lat="34.486076845502915" lon="8.283574178122038"><ele>444.0</ele><time>2026-04-08T10:47:20Z</time></trkpt><trkpt lat="34.485966283566775" lon="8.2836237155615"><ele>443.25</ele><time>2026-04-08T10:47:21Z</time></trkpt><trkpt lat="34.485858024263656" lon="8.28367834282579"><ele>442.5</ele><time>2026-04-08T10:47:22Z</time></trkpt><trkpt lat="34.48575331008198" lon="8.283739261083202"><ele>441.75</ele><time>2026-04-08T10:47:23Z</time></trkpt><trkpt lat="34.485654074562134" lon="8.283802358361058"><ele>441.0</ele><time>2026-04-08T10:47:24Z</time></trkpt><trkpt lat="34.48555501605025" lon="8.283871708242781"><ele>440.75</ele><time>2026-04-08T10:47:25Z</time></trkpt><trkpt lat="34.48545713019945" lon="8.283949467364797"><ele>440.5</ele><time>2026-04-08T10:47:26Z</time></trkpt><trkpt lat="34.48535974706442" lon="8.284031743175543"><ele>440.25</ele><time>2026-04-08T10:47:27Z</time></trkpt><trkpt lat="34.48526362493031" lon="8.284116143931282"><ele>440.0</ele><time>2026-04-08T10:47:28Z</time></trkpt><trkpt lat="34.48517981628866" lon="8.284203240116513"><ele>440.0</ele><time>2026-04-08T10:47:29Z</time></trkpt><trkpt lat="34.48510194528941" lon="8.284288571318871"><ele>440.0</ele><time>2026-04-08T10:47:30Z</time></trkpt><trkpt lat="34.48502924101084" lon="8.284375146999873"><ele>440.0</ele><time>2026-04-08T10:47:31Z</time></trkpt><trkpt lat="34.484958008916344" lon="8.284458776942216"><ele>440.0</ele><time>2026-04-08T10:47:32Z</time></trkpt><trkpt lat="34.484894595461725" lon="8.284531892123713"><ele>440.0</ele><time>2026-04-08T10:47:33Z</time></trkpt><trkpt lat="34.48484349847973" lon="8.284595099372348"><ele>440.0</ele><time>2026-04-08T10:47:34Z</time></trkpt><trkpt lat="34.484758468224086" lon="8.28470866921655"><ele>440.0</ele><time>2026-04-08T10:47:36Z</time></trkpt><trkpt lat="34.484707273170066" lon="8.284785532417397"><ele>440.0</ele><time>2026-04-08T10:47:37Z</time></trkpt><trkpt lat="34.48465497738123" lon="8.284876162347595"><ele>440.0</ele><time>2026-04-08T10:47:38Z</time></trkpt><trkpt lat="34.48460263485781" lon="8.284976432657409"><ele>440.0</ele><time>2026-04-08T10:47:39Z</time></trkpt><trkpt lat="34.4845482128755" lon="8.285077934824367"><ele>439.8</ele><time>2026-04-08T10:47:40Z</time></trkpt><trkpt lat="34.484496970530266" lon="8.285189307402977"><ele>439.6</ele><time>2026-04-08T10:47:41Z</time></trkpt><trkpt lat="34.48445136109559" lon="8.285305040141"><ele>439.4</ele><time>2026-04-08T10:47:42Z</time></trkpt><trkpt lat="34.484409077548136" lon="8.285418778778284"><ele>439.2</ele><time>2026-04-08T10:47:43Z</time></trkpt><trkpt lat="34.48437210876234" lon="8.285525935922328"><ele>439.0</ele><time>2026-04-08T10:47:44Z</time></trkpt><trkpt lat="34.484339766441565" lon="8.285626583920745"><ele>439.00000000000006</ele><time>2026-04-08T10:47:45Z</time></trkpt><trkpt lat="34.48431230527106" lon="8.285717379966222"><ele>439.0</ele><time>2026-04-08T10:47:46Z</time></trkpt><trkpt lat="34.484290392195106" lon="8.285803838015672"><ele>439.0</ele><time>2026-04-08T10:47:47Z</time></trkpt><trkpt lat="34.48426941349015" lon="8.285891410640199"><ele>439.0</ele><time>2026-04-08T10:47:48Z</time></trkpt><trkpt lat="34.48425300524096" lon="8.285977540031292"><ele>439.00000000000006</ele><time>2026-04-08T10:47:49Z</time></trkpt><trkpt lat="34.484240491925256" lon="8.286067284670011"><ele>439.0</ele><time>2026-04-08T10:47:50Z</time></trkpt><trkpt lat="34.48422806974754" lon="8.286161175659863"><ele>439.00000000000006</ele><time>2026-04-08T10:47:51Z</time></trkpt><trkpt lat="34.48421490762745" lon="8.286254146981785"><ele>439.0</ele><time>2026-04-08T10:47:52Z</time></trkpt><trkpt lat="34.484201415103456" lon="8.286345375727127"><ele>439.0</ele><time>2026-04-08T10:47:53Z</time></trkpt><trkpt lat="34.484187220410384" lon="8.28643894793645"><ele>439.0</ele><time>2026-04-08T10:47:54Z</time></trkpt><trkpt lat="34.484170950631274" lon="8.28653645239705"><ele>439.00000000000006</ele><time>2026-04-08T10:47:55Z</time></trkpt><trkpt lat="34.48415800540615" lon="8.286634814000047"><ele>439.0</ele><time>2026-04-08T10:47:56Z</time></trkpt><trkpt lat="34.48414299938654" lon="8.286739197426387"><ele>438.85714285714283</ele><time>2026-04-08T10:47:57Z</time></trkpt><trkpt lat="34.48412651657053" lon="8.286837746151324"><ele>438.71428571428567</ele><time>2026-04-08T10:47:58Z</time></trkpt><trkpt lat="34.48410812518509" lon="8.28692455704001"><ele>438.57142857142856</ele><time>2026-04-08T10:47:59Z</time></trkpt><trkpt lat="34.48409252043991" lon="8.287005575246454"><ele>438.42857142857144</ele><time>2026-04-08T10:48:00Z</time></trkpt><trkpt lat="34.48407788888609" lon="8.28708826793076"><ele>438.2857142857143</ele><time>2026-04-08T10:48:01Z</time></trkpt><trkpt lat="34.48406178372245" lon="8.287172967250024"><ele>438.14285714285717</ele><time>2026-04-08T10:48:02Z</time></trkpt><trkpt lat="34.484048194601364" lon="8.287268677690129"><ele>438.0</ele><time>2026-04-08T10:48:03Z</time></trkpt><trkpt lat="34.484034625743455" lon="8.287369443234473"><ele>437.6666666666667</ele><time>2026-04-08T10:48:04Z</time></trkpt><trkpt lat="34.48401975514658" lon="8.28747260859085"><ele>437.33333333333337</ele><time>2026-04-08T10:48:05Z</time></trkpt><trkpt lat="34.484001341722" lon="8.287578445547481"><ele>437.0</ele><time>2026-04-08T10:48:06Z</time></trkpt><trkpt lat="34.48398409488437" lon="8.2876829371704"><ele>436.6666666666667</ele><time>2026-04-08T10:48:07Z</time></trkpt><trkpt lat="34.483972449394145" lon="8.287790778557556"><ele>436.33333333333337</ele><time>2026-04-08T10:48:08Z</time></trkpt><trkpt lat="34.4839611051094" lon="8.287900948014608"><ele>436.0</ele><time>2026-04-08T10:48:09Z</time></trkpt><trkpt lat="34.48394714690638" lon="8.288010341154576"><ele>435.8</ele><time>2026-04-08T10:48:10Z</time></trkpt><trkpt lat="34.483928484857884" lon="8.288120695686722"><ele>435.6</ele><time>2026-04-08T10:48:10.999Z</time></trkpt><trkpt lat="34.48391044641455" lon="8.28823432864114"><ele>435.4</ele><time>2026-04-08T10:48:11.999Z</time></trkpt><trkpt lat="34.48389136768929" lon="8.288348637518398"><ele>435.2</ele><time>2026-04-08T10:48:12.999Z</time></trkpt><trkpt lat="34.4838699509815" lon="8.28846490575638"><ele>435.0</ele><time>2026-04-08T10:48:13.999Z</time></trkpt><trkpt lat="34.483851836775955" lon="8.288581696855553"><ele>435.0</ele><time>2026-04-08T10:48:15Z</time></trkpt><trkpt lat="34.48383590172909" lon="8.288697061414274"><ele>435.0</ele><time>2026-04-08T10:48:16Z</time></trkpt><trkpt lat="34.48381892624746" lon="8.288810730003602"><ele>435.0</ele><time>2026-04-08T10:48:17Z</time></trkpt><trkpt lat="34.483803325771284" lon="8.288922575994295"><ele>435.0</ele><time>2026-04-08T10:48:18Z</time></trkpt><trkpt lat="34.483789043669134" lon="8.289036149316038"><ele>435.0</ele><time>2026-04-08T10:48:19Z</time></trkpt><trkpt lat="34.48377248027741" lon="8.289147784560807"><ele>434.8</ele><time>2026-04-08T10:48:20Z</time></trkpt><trkpt lat="34.48375735992973" lon="8.289260193219297"><ele>434.6</ele><time>2026-04-08T10:48:21Z</time></trkpt><trkpt lat="34.48374167833656" lon="8.289374614167434"><ele>434.4</ele><time>2026-04-08T10:48:22Z</time></trkpt><trkpt lat="34.48372392464734" lon="8.289488215549857"><ele>434.2</ele><time>2026-04-08T10:48:23Z</time></trkpt><trkpt lat="34.48370477882942" lon="8.28959762309936"><ele>434.0</ele><time>2026-04-08T10:48:24Z</time></trkpt><trkpt lat="34.48368981693381" lon="8.289702710918261"><ele>434.0</ele><time>2026-04-08T10:48:25Z</time></trkpt><trkpt lat="34.48367776185994" lon="8.28980368593727"><ele>434.0</ele><time>2026-04-08T10:48:26Z</time></trkpt><trkpt lat="34.48366641226192" lon="8.289893613691763"><ele>434.0</ele><time>2026-04-08T10:48:27Z</time></trkpt><trkpt lat="34.48365168820989" lon="8.289977222411038"><ele>434.0</ele><time>2026-04-08T10:48:28Z</time></trkpt><trkpt lat="34.483639351559184" lon="8.29005676313824"><ele>434.0</ele><time>2026-04-08T10:48:29Z</time></trkpt><trkpt lat="34.48362919744588" lon="8.290138570483927"><ele>434.0</ele><time>2026-04-08T10:48:30Z</time></trkpt><trkpt lat="34.483619631580275" lon="8.290222653722767"><ele>434.0</ele><time>2026-04-08T10:48:31Z</time></trkpt><trkpt lat="34.48360844771018" lon="8.290308798953937"><ele>433.99999999999994</ele><time>2026-04-08T10:48:32Z</time></trkpt><trkpt lat="34.48359094010887" lon="8.290400006729957"><ele>434.0</ele><time>2026-04-08T10:48:33Z</time></trkpt><trkpt lat="34.48357038144866" lon="8.2904956664445"><ele>434.0</ele><time>2026-04-08T10:48:34Z</time></trkpt><trkpt lat="34.483552381410504" lon="8.290593980664061"><ele>434.0</ele><time>2026-04-08T10:48:35Z</time></trkpt><trkpt lat="34.48353570050035" lon="8.290697654934418"><ele>433.99999999999994</ele><time>2026-04-08T10:48:36Z</time></trkpt><trkpt lat="34.483525299508756" lon="8.290806740985092"><ele>434.0</ele><time>2026-04-08T10:48:37Z</time></trkpt><trkpt lat="34.48351060943507" lon="8.29092105099785"><ele>434.4</ele><time>2026-04-08T10:48:38Z</time></trkpt><trkpt lat="34.48349127881257" lon="8.291042194234118"><ele>434.79999999999995</ele><time>2026-04-08T10:48:39Z</time></trkpt><trkpt lat="34.483473896627686" lon="8.291165997987619"><ele>435.20000000000005</ele><time>2026-04-08T10:48:40Z</time></trkpt><trkpt lat="34.48345427091968" lon="8.291293330702853"><ele>435.6</ele><time>2026-04-08T10:48:41Z</time></trkpt><trkpt lat="34.48343444477488" lon="8.291421628184969"><ele>436.0</ele><time>2026-04-08T10:48:42Z</time></trkpt><trkpt lat="34.483416721814756" lon="8.29155243026716"><ele>436.25</ele><time>2026-04-08T10:48:43Z</time></trkpt><trkpt lat="34.483399303176476" lon="8.29168425496218"><ele>436.5</ele><time>2026-04-08T10:48:44Z</time></trkpt><trkpt lat="34.483380804199065" lon="8.291820249728033"><ele>436.75</ele><time>2026-04-08T10:48:45Z</time></trkpt><trkpt lat="34.48336006417521" lon="8.291956916840375"><ele>437.0</ele><time>2026-04-08T10:48:46Z</time></trkpt><trkpt lat="34.483336376173256" lon="8.29209522413568"><ele>437.0</ele><time>2026-04-08T10:48:47Z</time></trkpt><trkpt lat="34.48331359904889" lon="8.292235376630787"><ele>437.0</ele><time>2026-04-08T10:48:48Z</time></trkpt><trkpt lat="34.48329222155679" lon="8.292377052419036"><ele>437.0</ele><time>2026-04-08T10:48:49Z</time></trkpt><trkpt lat="34.48327108565782" lon="8.2925182778133"><ele>437.0</ele><time>2026-04-08T10:48:50Z</time></trkpt><trkpt lat="34.48324908345583" lon="8.292660238408514"><ele>437.0</ele><time>2026-04-08T10:48:51Z</time></trkpt><trkpt lat="34.48322903547081" lon="8.292802321090498"><ele>437.0</ele><time>2026-04-08T10:48:52Z</time></trkpt><trkpt lat="34.483206856068676" lon="8.292946600677483"><ele>437.0</ele><time>2026-04-08T10:48:53Z</time></trkpt><trkpt lat="34.48318804689772" lon="8.293087900029674"><ele>437.0</ele><time>2026-04-08T10:48:54Z</time></trkpt><trkpt lat="34.4831677181706" lon="8.293229965127441"><ele>437.0</ele><time>2026-04-08T10:48:55Z</time></trkpt><trkpt lat="34.48314681316857" lon="8.29337030960563"><ele>437.0</ele><time>2026-04-08T10:48:56Z</time></trkpt><trkpt lat="34.483125650329846" lon="8.293508768887348"><ele>437.0</ele><time>2026-04-08T10:48:57Z</time></trkpt><trkpt lat="34.48310449724554" lon="8.293650609820107"><ele>437.0</ele><time>2026-04-08T10:48:58Z</time></trkpt><trkpt lat="34.48308600085046" lon="8.293785880490127"><ele>437.0</ele><time>2026-04-08T10:48:59Z</time></trkpt><trkpt lat="34.48306871422013" lon="8.293916686536846"><ele>437.00000000000006</ele><time>2026-04-08T10:49:00Z</time></trkpt><trkpt lat="34.48305012974631" lon="8.294041398607195"><ele>437.00000000000006</ele><time>2026-04-08T10:49:01Z</time></trkpt><trkpt lat="34.483033147241635" lon="8.294155702297385"><ele>437.0</ele><time>2026-04-08T10:49:02Z</time></trkpt><trkpt lat="34.483018917484905" lon="8.294250333298429"><ele>437.0</ele><time>2026-04-08T10:49:03Z</time></trkpt><trkpt lat="34.48300981964557" lon="8.294328908487323"><ele>437.16666666666663</ele><time>2026-04-08T10:49:04Z</time></trkpt><trkpt lat="34.48299767951293" lon="8.294413641204628"><ele>437.3333333333333</ele><time>2026-04-08T10:49:05Z</time></trkpt><trkpt lat="34.482984790024275" lon="8.294505537980926"><ele>437.5</ele><time>2026-04-08T10:49:06Z</time></trkpt><trkpt lat="34.482968246911454" lon="8.294605727084218"><ele>437.66666666666663</ele><time>2026-04-08T10:49:07Z</time></trkpt><trkpt lat="34.482949832292526" lon="8.294707155175297"><ele>437.8333333333333</ele><time>2026-04-08T10:49:08Z</time></trkpt><trkpt lat="34.48293324174552" lon="8.294814404958538"><ele>438.0</ele><time>2026-04-08T10:49:09Z</time></trkpt><trkpt lat="34.48291937753983" lon="8.294927581415669"><ele>437.4</ele><time>2026-04-08T10:49:10Z</time></trkpt><trkpt lat="34.482907341329344" lon="8.29504840810397"><ele>436.79999999999995</ele><time>2026-04-08T10:49:11Z</time></trkpt><trkpt lat="34.482893726429204" lon="8.295178292076098"><ele>436.2</ele><time>2026-04-08T10:49:12Z</time></trkpt><trkpt lat="34.48287494549186" lon="8.295311876703606"><ele>435.6</ele><time>2026-04-08T10:49:13Z</time></trkpt><trkpt lat="34.48285018084596" lon="8.295454252157107"><ele>435.0</ele><time>2026-04-08T10:49:14Z</time></trkpt><trkpt lat="34.48282449677372" lon="8.295601246213472"><ele>435.0</ele><time>2026-04-08T10:49:15Z</time></trkpt><trkpt lat="34.48280273533023" lon="8.295749138523894"><ele>435.0</ele><time>2026-04-08T10:49:16Z</time></trkpt><trkpt lat="34.482783727952594" lon="8.29589853319035"><ele>435.0</ele><time>2026-04-08T10:49:17Z</time></trkpt><trkpt lat="34.48276393270827" lon="8.296044076436464"><ele>435.0</ele><time>2026-04-08T10:49:18Z</time></trkpt><trkpt lat="34.48274415079534" lon="8.296190194102456"><ele>435.0</ele><time>2026-04-08T10:49:19Z</time></trkpt><trkpt lat="34.48272356529304" lon="8.296336662432488"><ele>435.0</ele><time>2026-04-08T10:49:20Z</time></trkpt><trkpt lat="34.48270056548506" lon="8.296482618410295"><ele>435.0</ele><time>2026-04-08T10:49:21Z</time></trkpt><trkpt lat="34.482676772324865" lon="8.29663028331972"><ele>435.0</ele><time>2026-04-08T10:49:22Z</time></trkpt><trkpt lat="34.482654255970324" lon="8.296783851431906"><ele>435.0</ele><time>2026-04-08T10:49:23Z</time></trkpt><trkpt lat="34.48263057623821" lon="8.296941285601878"><ele>435.0</ele><time>2026-04-08T10:49:24Z</time></trkpt><trkpt lat="34.48260553470746" lon="8.297101732809274"><ele>435.0</ele><time>2026-04-08T10:49:25Z</time></trkpt><trkpt lat="34.482580222942794" lon="8.297267119795961"><ele>435.0</ele><time>2026-04-08T10:49:26Z</time></trkpt><trkpt lat="34.482555600076" lon="8.297431109311228"><ele>435.75</ele><time>2026-04-08T10:49:27Z</time></trkpt><trkpt lat="34.48253068412604" lon="8.29759541660573"><ele>436.5</ele><time>2026-04-08T10:49:28Z</time></trkpt><trkpt lat="34.4825060479234" lon="8.297761187431995"><ele>437.25</ele><time>2026-04-08T10:49:29Z</time></trkpt><trkpt lat="34.48248338799563" lon="8.297925079097626"><ele>438.0</ele><time>2026-04-08T10:49:30Z</time></trkpt><trkpt lat="34.482461303081564" lon="8.298078576591925"><ele>438.0</ele><time>2026-04-08T10:49:31Z</time></trkpt><trkpt lat="34.48244154240332" lon="8.298223862445305"><ele>438.0</ele><time>2026-04-08T10:49:32Z</time></trkpt><trkpt lat="34.4824225171947" lon="8.298366574465074"><ele>438.0</ele><time>2026-04-08T10:49:33Z</time></trkpt><trkpt lat="34.48240108874056" lon="8.29851067433431"><ele>438.0</ele><time>2026-04-08T10:49:34Z</time></trkpt><trkpt lat="34.48237990517118" lon="8.298655846359686"><ele>438.0</ele><time>2026-04-08T10:49:35Z</time></trkpt><trkpt lat="34.48235873291876" lon="8.298804963343905"><ele>438.0</ele><time>2026-04-08T10:49:36Z</time></trkpt><trkpt lat="34.482333483933665" lon="8.298953589386961"><ele>438.0</ele><time>2026-04-08T10:49:37Z</time></trkpt><trkpt lat="34.48231081631234" lon="8.299106471117806"><ele>438.0</ele><time>2026-04-08T10:49:38Z</time></trkpt><trkpt lat="34.4822882669284" lon="8.299259975147663"><ele>437.75</ele><time>2026-04-08T10:49:39Z</time></trkpt><trkpt lat="34.482265255817936" lon="8.299416492439061"><ele>437.5</ele><time>2026-04-08T10:49:40Z</time></trkpt><trkpt lat="34.48224181605987" lon="8.299572354863873"><ele>437.25</ele><time>2026-04-08T10:49:41Z</time></trkpt><trkpt lat="34.48221913631401" lon="8.299731500062782"><ele>437.0</ele><time>2026-04-08T10:49:42Z</time></trkpt><trkpt lat="34.482198020971445" lon="8.299892242709614"><ele>436.75</ele><time>2026-04-08T10:49:43Z</time></trkpt><trkpt lat="34.48217226855136" lon="8.300060882911563"><ele>436.5</ele><time>2026-04-08T10:49:44Z</time></trkpt><trkpt lat="34.48214673790309" lon="8.30023331123248"><ele>436.25</ele><time>2026-04-08T10:49:45Z</time></trkpt><trkpt lat="34.482124430199136" lon="8.30041021769336"><ele>436.0</ele><time>2026-04-08T10:49:46Z</time></trkpt><trkpt lat="34.48209903481567" lon="8.30058937028257"><ele>436.0</ele><time>2026-04-08T10:49:46.999Z</time></trkpt><trkpt lat="34.482065506535484" lon="8.300784283832417"><ele>436.0</ele><time>2026-04-08T10:49:47.999Z</time></trkpt><trkpt lat="34.4820339472319" lon="8.300991494557545"><ele>436.0</ele><time>2026-04-08T10:49:48.999Z</time></trkpt><trkpt lat="34.48200313790844" lon="8.301221083836062"><ele>436.0</ele><time>2026-04-08T10:49:49.999Z</time></trkpt><trkpt lat="34.481972407702926" lon="8.301455110948028"><ele>436.0</ele><time>2026-04-08T10:49:50.999Z</time></trkpt><trkpt lat="34.481938019458255" lon="8.301685866472175"><ele>436.0</ele><time>2026-04-08T10:49:51.999Z</time></trkpt><trkpt lat="34.48190383182719" lon="8.301911993528236"><ele>436.0</ele><time>2026-04-08T10:49:52.999Z</time></trkpt><trkpt lat="34.4818682693702" lon="8.30213554716584"><ele>436.0</ele><time>2026-04-08T10:49:53.999Z</time></trkpt><trkpt lat="34.48183099746402" lon="8.30236396309586"><ele>436.0</ele><time>2026-04-08T10:49:54.999Z</time></trkpt><trkpt lat="34.4817970812399" lon="8.302590869123847"><ele>436.0</ele><time>2026-04-08T10:49:55.999Z</time></trkpt><trkpt lat="34.481763832949945" lon="8.302817645371602"><ele>436.0</ele><time>2026-04-08T10:49:56.999Z</time></trkpt><trkpt lat="34.481729709753566" lon="8.30304586838693"><ele>436.0</ele><time>2026-04-08T10:49:57.999Z</time></trkpt><trkpt lat="34.48169746953432" lon="8.303277340167957"><ele>436.0</ele><time>2026-04-08T10:49:58.999Z</time></trkpt><trkpt lat="34.48166770299707" lon="8.3035087197322"><ele>436.0</ele><time>2026-04-08T10:49:59.999Z</time></trkpt><trkpt lat="34.4816341088485" lon="8.303742239833852"><ele>436.0</ele><time>2026-04-08T10:50:00.999Z</time></trkpt><trkpt lat="34.48159447221989" lon="8.30397775846635"><ele>435.0</ele><time>2026-04-08T10:50:01.999Z</time></trkpt><trkpt lat="34.48155740311523" lon="8.304218923982692"><ele>434.0</ele><time>2026-04-08T10:50:02.999Z</time></trkpt><trkpt lat="34.481524171619306" lon="8.3044633020993"><ele>433.0</ele><time>2026-04-08T10:50:03.999Z</time></trkpt><trkpt lat="34.48148889401129" lon="8.304709826090399"><ele>433.0</ele><time>2026-04-08T10:50:04.999Z</time></trkpt><trkpt lat="34.481457664614815" lon="8.30495689598736"><ele>433.0</ele><time>2026-04-08T10:50:05.999Z</time></trkpt><trkpt lat="34.48142223806604" lon="8.305203983965713"><ele>433.0</ele><time>2026-04-08T10:50:06.999Z</time></trkpt><trkpt lat="34.48137746517388" lon="8.305450540017624"><ele>432.6666666666667</ele><time>2026-04-08T10:50:07.999Z</time></trkpt><trkpt lat="34.481334403979986" lon="8.305700348757103"><ele>432.33333333333337</ele><time>2026-04-08T10:50:08.999Z</time></trkpt><trkpt lat="34.481288368889885" lon="8.305952687730773"><ele>432.0</ele><time>2026-04-08T10:50:09.999Z</time></trkpt><trkpt lat="34.481235839841574" lon="8.306202893691477"><ele>431.66666666666663</ele><time>2026-04-08T10:50:10.999Z</time></trkpt><trkpt lat="34.481175570443334" lon="8.306455460368452"><ele>431.3333333333333</ele><time>2026-04-08T10:50:11.999Z</time></trkpt><trkpt lat="34.48110572643485" lon="8.306709009531993"><ele>431.0</ele><time>2026-04-08T10:50:12.999Z</time></trkpt><trkpt lat="34.481026341681854" lon="8.30695942377344"><ele>431.0</ele><time>2026-04-08T10:50:13.999Z</time></trkpt><trkpt lat="34.48094046872483" lon="8.307206068951546"><ele>431.0</ele><time>2026-04-08T10:50:14.999Z</time></trkpt><trkpt lat="34.48084960096329" lon="8.30745540632815"><ele>431.0</ele><time>2026-04-08T10:50:15.999Z</time></trkpt><trkpt lat="34.480756951023835" lon="8.307703511141659"><ele>431.0</ele><time>2026-04-08T10:50:16.999Z</time></trkpt><trkpt lat="34.480657286549345" lon="8.307948723007254"><ele>431.0</ele><time>2026-04-08T10:50:17.999Z</time></trkpt><trkpt lat="34.48055135723828" lon="8.308194750053415"><ele>430.0</ele><time>2026-04-08T10:50:18.999Z</time></trkpt><trkpt lat="34.48044152540954" lon="8.308444657259994"><ele>429.0</ele><time>2026-04-08T10:50:19.999Z</time></trkpt><trkpt lat="34.48031870714281" lon="8.30870751718775"><ele>428.0</ele><time>2026-04-08T10:50:21Z</time></trkpt><trkpt lat="34.48018784642105" lon="8.308985990342508"><ele>427.0</ele><time>2026-04-08T10:50:22Z</time></trkpt><trkpt lat="34.4800520695649" lon="8.30928234878369"><ele>427.0</ele><time>2026-04-08T10:50:23Z</time></trkpt><trkpt lat="34.479915236421995" lon="8.309580845734276"><ele>427.0</ele><time>2026-04-08T10:50:24Z</time></trkpt><trkpt lat="34.47978221180111" lon="8.309873789759862"><ele>427.5</ele><time>2026-04-08T10:50:25Z</time></trkpt><trkpt lat="34.47965322960249" lon="8.310161105385655"><ele>428.0</ele><time>2026-04-08T10:50:26Z</time></trkpt><trkpt lat="34.47952574009474" lon="8.310443835809279"><ele>427.5</ele><time>2026-04-08T10:50:27Z</time></trkpt><trkpt lat="34.47939755918475" lon="8.310726533200132"><ele>427.0</ele><time>2026-04-08T10:50:28Z</time></trkpt><trkpt lat="34.47926897832655" lon="8.31100901745056"><ele>427.0</ele><time>2026-04-08T10:50:29Z</time></trkpt><trkpt lat="34.47913765888435" lon="8.311293248340654"><ele>427.0</ele><time>2026-04-08T10:50:30Z</time></trkpt><trkpt lat="34.479007733358195" lon="8.311576754951092"><ele>427.0</ele><time>2026-04-08T10:50:31Z</time></trkpt><trkpt lat="34.47888341929673" lon="8.311863644292192"><ele>427.0</ele><time>2026-04-08T10:50:32Z</time></trkpt><trkpt lat="34.478760605562044" lon="8.312143007786288"><ele>427.0</ele><time>2026-04-08T10:50:33Z</time></trkpt><trkpt lat="34.47863363998366" lon="8.312419547485252"><ele>427.0</ele><time>2026-04-08T10:50:34Z</time></trkpt><trkpt lat="34.478507834991284" lon="8.312695527809362"><ele>427.0</ele><time>2026-04-08T10:50:35Z</time></trkpt><trkpt lat="34.47838941140642" lon="8.31297865228211"><ele>427.0</ele><time>2026-04-08T10:50:36Z</time></trkpt><trkpt lat="34.47828533828738" lon="8.313270864778069"><ele>426.0</ele><time>2026-04-08T10:50:37Z</time></trkpt><trkpt lat="34.47819347286617" lon="8.313571065491548"><ele>425.0</ele><time>2026-04-08T10:50:38Z</time></trkpt><trkpt lat="34.47811418024605" lon="8.313875993139078"><ele>424.5</ele><time>2026-04-08T10:50:39Z</time></trkpt><trkpt lat="34.478043972898" lon="8.314187897069957"><ele>424.0</ele><time>2026-04-08T10:50:40Z</time></trkpt><trkpt lat="34.47799079656285" lon="8.314508548202383"><ele>424.0</ele><time>2026-04-08T10:50:41Z</time></trkpt><trkpt lat="34.47795142047831" lon="8.314835254116996"><ele>424.0</ele><time>2026-04-08T10:50:42Z</time></trkpt><trkpt lat="34.47792418865141" lon="8.31516378006433"><ele>423.0</ele><time>2026-04-08T10:50:43Z</time></trkpt><trkpt lat="34.47789844861696" lon="8.31549513341751"><ele>422.0</ele><time>2026-04-08T10:50:44Z</time></trkpt><trkpt lat="34.477876007702136" lon="8.315825445546935"><ele>422.0</ele><time>2026-04-08T10:50:45Z</time></trkpt><trkpt lat="34.477856706987424" lon="8.316159002249227"><ele>422.0</ele><time>2026-04-08T10:50:46Z</time></trkpt><trkpt lat="34.47783998303772" lon="8.31648996764159"><ele>421.5</ele><time>2026-04-08T10:50:47Z</time></trkpt><trkpt lat="34.47781963630553" lon="8.316820029422061"><ele>421.0</ele><time>2026-04-08T10:50:48Z</time></trkpt><trkpt lat="34.477797483132235" lon="8.317149376027922"><ele>421.5</ele><time>2026-04-08T10:50:49Z</time></trkpt><trkpt lat="34.477779887556885" lon="8.317481698211528"><ele>422.0</ele><time>2026-04-08T10:50:50Z</time></trkpt><trkpt lat="34.47776192601787" lon="8.317817915101415"><ele>421.5</ele><time>2026-04-08T10:50:51Z</time></trkpt><trkpt lat="34.47774168408273" lon="8.318155797043367"><ele>421.0</ele><time>2026-04-08T10:50:52Z</time></trkpt><trkpt lat="34.47772356724068" lon="8.318493023387424"><ele>421.0</ele><time>2026-04-08T10:50:53Z</time></trkpt><trkpt lat="34.47770693809427" lon="8.318828191595495"><ele>421.0</ele><time>2026-04-08T10:50:54Z</time></trkpt><trkpt lat="34.47769155043948" lon="8.319160886751238"><ele>421.5</ele><time>2026-04-08T10:50:55Z</time></trkpt><trkpt lat="34.47767785591246" lon="8.319492045958828"><ele>422.0</ele><time>2026-04-08T10:50:56Z</time></trkpt><trkpt lat="34.477660639054804" lon="8.319823678476212"><ele>422.0</ele><time>2026-04-08T10:50:57Z</time></trkpt><trkpt lat="34.47764138891371" lon="8.320152456115009"><ele>422.0</ele><time>2026-04-08T10:50:58Z</time></trkpt><trkpt lat="34.47761818059097" lon="8.32048076361408"><ele>421.0</ele><time>2026-04-08T10:50:59Z</time></trkpt><trkpt lat="34.47759781394111" lon="8.320810098510677"><ele>420.0</ele><time>2026-04-08T10:51:00Z</time></trkpt><trkpt lat="34.47757929887623" lon="8.321141255962617"><ele>419.5</ele><time>2026-04-08T10:51:01Z</time></trkpt><trkpt lat="34.47755982914762" lon="8.321473094245594"><ele>419.0</ele><time>2026-04-08T10:51:02Z</time></trkpt><trkpt lat="34.47754081407583" lon="8.321804996794"><ele>419.0</ele><time>2026-04-08T10:51:03Z</time></trkpt><trkpt lat="34.47752338411019" lon="8.322136664276375"><ele>419.0</ele><time>2026-04-08T10:51:04Z</time></trkpt><trkpt lat="34.477507722684024" lon="8.322459861623518"><ele>419.5</ele><time>2026-04-08T10:51:05Z</time></trkpt><trkpt lat="34.477490479085084" lon="8.3227661172126"><ele>420.0</ele><time>2026-04-08T10:51:06Z</time></trkpt><trkpt lat="34.477475711547214" lon="8.323045705237577"><ele>420.0</ele><time>2026-04-08T10:51:07Z</time></trkpt><trkpt lat="34.4774615834405" lon="8.323316270786563"><ele>420.0</ele><time>2026-04-08T10:51:08Z</time></trkpt><trkpt lat="34.477447827559175" lon="8.323586520014436"><ele>420.0</ele><time>2026-04-08T10:51:09Z</time></trkpt><trkpt lat="34.477432857995574" lon="8.323855748473322"><ele>420.33333333333337</ele><time>2026-04-08T10:51:10Z</time></trkpt><trkpt lat="34.47741466053262" lon="8.324125557541667"><ele>420.6666666666667</ele><time>2026-04-08T10:51:11Z</time></trkpt><trkpt lat="34.477396201288954" lon="8.324394536439248"><ele>421.0</ele><time>2026-04-08T10:51:12Z</time></trkpt><trkpt lat="34.47737998533918" lon="8.324663521697126"><ele>420.0</ele><time>2026-04-08T10:51:13Z</time></trkpt><trkpt lat="34.47736465114628" lon="8.324932843016095"><ele>419.0</ele><time>2026-04-08T10:51:14Z</time></trkpt><trkpt lat="34.47735003824906" lon="8.32520307464789"><ele>418.0</ele><time>2026-04-08T10:51:15Z</time></trkpt><trkpt lat="34.47733774300535" lon="8.325472753820787"><ele>418.5</ele><time>2026-04-08T10:51:16Z</time></trkpt><trkpt lat="34.47732631856782" lon="8.325745296050789"><ele>419.0</ele><time>2026-04-08T10:51:17Z</time></trkpt><trkpt lat="34.47731653751601" lon="8.326020170818444"><ele>419.0</ele><time>2026-04-08T10:51:18Z</time></trkpt><trkpt lat="34.47731250099249" lon="8.32629406190198"><ele>419.0</ele><time>2026-04-08T10:51:19Z</time></trkpt><trkpt lat="34.477312355049136" lon="8.326565801481602"><ele>418.5</ele><time>2026-04-08T10:51:20Z</time></trkpt><trkpt lat="34.477309035935164" lon="8.326839165895983"><ele>418.0</ele><time>2026-04-08T10:51:21Z</time></trkpt><trkpt lat="34.477309568995494" lon="8.327114686974106"><ele>418.0</ele><time>2026-04-08T10:51:22Z</time></trkpt><trkpt lat="34.477316763411054" lon="8.32739429929057"><ele>418.0</ele><time>2026-04-08T10:51:23Z</time></trkpt><trkpt lat="34.4773258735939" lon="8.327675140541979"><ele>418.0</ele><time>2026-04-08T10:51:24Z</time></trkpt><trkpt lat="34.47733529252893" lon="8.327958082920786"><ele>418.0</ele><time>2026-04-08T10:51:25Z</time></trkpt><trkpt lat="34.47734780393024" lon="8.328245902081637"><ele>417.5</ele><time>2026-04-08T10:51:26Z</time></trkpt><trkpt lat="34.47736128527027" lon="8.328534176041344"><ele>417.0</ele><time>2026-04-08T10:51:27Z</time></trkpt><trkpt lat="34.477375227604774" lon="8.328822608744872"><ele>416.5</ele><time>2026-04-08T10:51:28Z</time></trkpt><trkpt lat="34.47739053737044" lon="8.329110829827025"><ele>416.0</ele><time>2026-04-08T10:51:29Z</time></trkpt><trkpt lat="34.47740635165484" lon="8.329398168599058"><ele>416.0</ele><time>2026-04-08T10:51:29.999Z</time></trkpt><trkpt lat="34.477422136925846" lon="8.329691112156496"><ele>416.0</ele><time>2026-04-08T10:51:30.999Z</time></trkpt><trkpt lat="34.47744112790637" lon="8.329985342983946"><ele>416.0</ele><time>2026-04-08T10:51:31.999Z</time></trkpt><trkpt lat="34.47746095975931" lon="8.330282501550423"><ele>416.0</ele><time>2026-04-08T10:51:32.999Z</time></trkpt><trkpt lat="34.47748074880881" lon="8.33058175821406"><ele>416.0</ele><time>2026-04-08T10:51:33.999Z</time></trkpt><trkpt lat="34.477494849024424" lon="8.330883534037588"><ele>416.0</ele><time>2026-04-08T10:51:34.999Z</time></trkpt><trkpt lat="34.47750732814022" lon="8.331185116080999"><ele>415.0</ele><time>2026-04-08T10:51:35.999Z</time></trkpt><trkpt lat="34.477524269505494" lon="8.33148830336068"><ele>414.0</ele><time>2026-04-08T10:51:36.999Z</time></trkpt><trkpt lat="34.47754407365273" lon="8.331793758728626"><ele>414.0</ele><time>2026-04-08T10:51:37.999Z</time></trkpt><trkpt lat="34.47756305717074" lon="8.332098531578195"><ele>414.0</ele><time>2026-04-08T10:51:38.999Z</time></trkpt><trkpt lat="34.47758147057234" lon="8.332402345532158"><ele>413.5</ele><time>2026-04-08T10:51:39.999Z</time></trkpt><trkpt lat="34.47759934156885" lon="8.332706830258248"><ele>413.0</ele><time>2026-04-08T10:51:40.999Z</time></trkpt><trkpt lat="34.47761646607826" lon="8.333012798000352"><ele>414.0</ele><time>2026-04-08T10:51:41.999Z</time></trkpt><trkpt lat="34.47763419507244" lon="8.333317821086398"><ele>415.0</ele><time>2026-04-08T10:51:42.999Z</time></trkpt><trkpt lat="34.47764829832844" lon="8.333622113509618"><ele>413.5</ele><time>2026-04-08T10:51:43.999Z</time></trkpt><trkpt lat="34.47766141724171" lon="8.333926810635017"><ele>412.0</ele><time>2026-04-08T10:51:44.999Z</time></trkpt><trkpt lat="34.47767719885793" lon="8.334230488883142"><ele>412.0</ele><time>2026-04-08T10:51:45.999Z</time></trkpt><trkpt lat="34.47769431579018" lon="8.334532656621063"><ele>412.0</ele><time>2026-04-08T10:51:46.999Z</time></trkpt><trkpt lat="34.477711210077935" lon="8.334834035097218"><ele>412.5</ele><time>2026-04-08T10:51:47.999Z</time></trkpt><trkpt lat="34.47772749280346" lon="8.33513820574851"><ele>413.0</ele><time>2026-04-08T10:51:48.999Z</time></trkpt><trkpt lat="34.477744353647836" lon="8.335440942253715"><ele>412.5</ele><time>2026-04-08T10:51:49.999Z</time></trkpt><trkpt lat="34.477760838665326" lon="8.335745845879732"><ele>412.0</ele><time>2026-04-08T10:51:50.999Z</time></trkpt><trkpt lat="34.47777880750081" lon="8.336049664477573"><ele>412.0</ele><time>2026-04-08T10:51:51.999Z</time></trkpt><trkpt lat="34.47779446735155" lon="8.336354979602195"><ele>412.0</ele><time>2026-04-08T10:51:52.999Z</time></trkpt><trkpt lat="34.47780845981743" lon="8.33665880023128"><ele>411.5</ele><time>2026-04-08T10:51:53.999Z</time></trkpt><trkpt lat="34.47782450594707" lon="8.336962572557935"><ele>411.0</ele><time>2026-04-08T10:51:54.999Z</time></trkpt><trkpt lat="34.47784066122172" lon="8.337265814527674"><ele>411.0</ele><time>2026-04-08T10:51:55.999Z</time></trkpt><trkpt lat="34.47785977578439" lon="8.337570578883714"><ele>411.0</ele><time>2026-04-08T10:51:56.999Z</time></trkpt><trkpt lat="34.47787940796557" lon="8.337873639730509"><ele>411.0</ele><time>2026-04-08T10:51:57.999Z</time></trkpt><trkpt lat="34.4778964723903" lon="8.338176871590935"><ele>411.0</ele><time>2026-04-08T10:51:58.999Z</time></trkpt><trkpt lat="34.47791101009582" lon="8.338481017962318"><ele>411.0</ele><time>2026-04-08T10:51:59.999Z</time></trkpt><trkpt lat="34.477926351177594" lon="8.33878399837044"><ele>411.0</ele><time>2026-04-08T10:52:00.999Z</time></trkpt><trkpt lat="34.47794146879247" lon="8.339088862033742"><ele>410.5</ele><time>2026-04-08T10:52:01.999Z</time></trkpt><trkpt lat="34.477956224542574" lon="8.339394798396677"><ele>410.0</ele><time>2026-04-08T10:52:02.999Z</time></trkpt><trkpt lat="34.47797141389898" lon="8.339704677684434"><ele>411.0</ele><time>2026-04-08T10:52:03.999Z</time></trkpt><trkpt lat="34.47798903533225" lon="8.340018561656601"><ele>412.0</ele><time>2026-04-08T10:52:04.999Z</time></trkpt><trkpt lat="34.47800781912104" lon="8.340336732291252"><ele>412.0</ele><time>2026-04-08T10:52:05.999Z</time></trkpt><trkpt lat="34.47802651553865" lon="8.340658417214307"><ele>412.0</ele><time>2026-04-08T10:52:06.999Z</time></trkpt><trkpt lat="34.478045118251075" lon="8.34097893668125"><ele>412.0</ele><time>2026-04-08T10:52:07.999Z</time></trkpt><trkpt lat="34.47806556006168" lon="8.341300506918632"><ele>412.0</ele><time>2026-04-08T10:52:08.999Z</time></trkpt><trkpt lat="34.478085517192724" lon="8.341622550194412"><ele>412.0</ele><time>2026-04-08T10:52:09.999Z</time></trkpt><trkpt lat="34.478104351944765" lon="8.341945058336353"><ele>412.0</ele><time>2026-04-08T10:52:10.999Z</time></trkpt><trkpt lat="34.478122284550246" lon="8.342266501524325"><ele>411.5</ele><time>2026-04-08T10:52:11.999Z</time></trkpt><trkpt lat="34.47814064487278" lon="8.342588562676676"><ele>411.0</ele><time>2026-04-08T10:52:12.999Z</time></trkpt><trkpt lat="34.4781596391112" lon="8.342908421532783"><ele>411.0</ele><time>2026-04-08T10:52:13.999Z</time></trkpt><trkpt lat="34.4781767048652" lon="8.343230158716667"><ele>411.0</ele><time>2026-04-08T10:52:14.999Z</time></trkpt><trkpt lat="34.47819367902346" lon="8.343549538848967"><ele>411.0</ele><time>2026-04-08T10:52:15.999Z</time></trkpt><trkpt lat="34.478208915010406" lon="8.343869291021223"><ele>411.0</ele><time>2026-04-08T10:52:16.999Z</time></trkpt><trkpt lat="34.47822371022756" lon="8.344189714469898"><ele>410.5</ele><time>2026-04-08T10:52:17.999Z</time></trkpt><trkpt lat="34.47823998759024" lon="8.344511530146045"><ele>410.0</ele><time>2026-04-08T10:52:18.999Z</time></trkpt><trkpt lat="34.47825708323917" lon="8.344839455004704"><ele>409.5</ele><time>2026-04-08T10:52:19.999Z</time></trkpt><trkpt lat="34.478275354028845" lon="8.345170601336248"><ele>409.0</ele><time>2026-04-08T10:52:20.999Z</time></trkpt><trkpt lat="34.47829585256774" lon="8.345504388380935"><ele>409.0</ele><time>2026-04-08T10:52:21.999Z</time></trkpt><trkpt lat="34.47831745947187" lon="8.345836171622167"><ele>409.0</ele><time>2026-04-08T10:52:22.999Z</time></trkpt><trkpt lat="34.47833736233085" lon="8.346170270128647"><ele>407.5</ele><time>2026-04-08T10:52:23.999Z</time></trkpt><trkpt lat="34.478355230811154" lon="8.34650306243975"><ele>406.0</ele><time>2026-04-08T10:52:24.999Z</time></trkpt><trkpt lat="34.4783795216492" lon="8.346836258818794"><ele>406.0</ele><time>2026-04-08T10:52:25.999Z</time></trkpt><trkpt lat="34.47840370162532" lon="8.34716276432325"><ele>406.0</ele><time>2026-04-08T10:52:27Z</time></trkpt><trkpt lat="34.47842374413412" lon="8.34749544393891"><ele>406.0</ele><time>2026-04-08T10:52:28Z</time></trkpt><trkpt lat="34.47844012146553" lon="8.347828199279128"><ele>406.0</ele><time>2026-04-08T10:52:29Z</time></trkpt><trkpt lat="34.478453303497034" lon="8.348155499549039"><ele>407.0</ele><time>2026-04-08T10:52:30Z</time></trkpt><trkpt lat="34.478465508888874" lon="8.348479475342709"><ele>408.0</ele><time>2026-04-08T10:52:31Z</time></trkpt><trkpt lat="34.47848058603603" lon="8.348798991653059"><ele>407.0</ele><time>2026-04-08T10:52:32Z</time></trkpt><trkpt lat="34.478496489156974" lon="8.349115500697472"><ele>406.0</ele><time>2026-04-08T10:52:33Z</time></trkpt><trkpt lat="34.47851003383249" lon="8.349430758074682"><ele>405.5</ele><time>2026-04-08T10:52:34Z</time></trkpt><trkpt lat="34.47852185502155" lon="8.349737898361214"><ele>405.0</ele><time>2026-04-08T10:52:35Z</time></trkpt><trkpt lat="34.478535524824515" lon="8.350027510828504"><ele>405.0</ele><time>2026-04-08T10:52:36Z</time></trkpt><trkpt lat="34.4785484450774" lon="8.350312727441219"><ele>405.0</ele><time>2026-04-08T10:52:37Z</time></trkpt><trkpt lat="34.47856210891547" lon="8.350599449786532"><ele>405.0</ele><time>2026-04-08T10:52:38Z</time></trkpt><trkpt lat="34.47857619786882" lon="8.350890733615362"><ele>405.0</ele><time>2026-04-08T10:52:39Z</time></trkpt><trkpt lat="34.47859005036123" lon="8.351178820186643"><ele>405.0</ele><time>2026-04-08T10:52:40Z</time></trkpt><trkpt lat="34.47860386225796" lon="8.351461588779266"><ele>405.0</ele><time>2026-04-08T10:52:41Z</time></trkpt><trkpt lat="34.47861872800317" lon="8.351738635918993"><ele>405.0</ele><time>2026-04-08T10:52:42Z</time></trkpt><trkpt lat="34.47863360444512" lon="8.352010796954147"><ele>405.0</ele><time>2026-04-08T10:52:43Z</time></trkpt><trkpt lat="34.478648811579845" lon="8.352280656783748"><ele>405.0</ele><time>2026-04-08T10:52:44Z</time></trkpt><trkpt lat="34.47866344274556" lon="8.352547621108313"><ele>404.66666666666663</ele><time>2026-04-08T10:52:45Z</time></trkpt><trkpt lat="34.47867760783176" lon="8.352817388926495"><ele>404.3333333333333</ele><time>2026-04-08T10:52:46Z</time></trkpt><trkpt lat="34.47869288387487" lon="8.35308816093248"><ele>404.0</ele><time>2026-04-08T10:52:47Z</time></trkpt><trkpt lat="34.47870896111608" lon="8.35336082928958"><ele>404.0</ele><time>2026-04-08T10:52:48Z</time></trkpt><trkpt lat="34.478725099084805" lon="8.353631530427348"><ele>404.0</ele><time>2026-04-08T10:52:49Z</time></trkpt><trkpt lat="34.4787372314379" lon="8.353900093035373"><ele>404.0</ele><time>2026-04-08T10:52:50Z</time></trkpt><trkpt lat="34.478742119266855" lon="8.354168690166532"><ele>403.3333333333333</ele><time>2026-04-08T10:52:51Z</time></trkpt><trkpt lat="34.478742655282886" lon="8.354439012696103"><ele>402.66666666666663</ele><time>2026-04-08T10:52:52Z</time></trkpt><trkpt lat="34.47873429111457" lon="8.354712267731731"><ele>402.0</ele><time>2026-04-08T10:52:53Z</time></trkpt><trkpt lat="34.4787171956187" lon="8.354984360908224"><ele>402.0</ele><time>2026-04-08T10:52:54Z</time></trkpt><trkpt lat="34.47869361893801" lon="8.35525430950732"><ele>402.0</ele><time>2026-04-08T10:52:55Z</time></trkpt><trkpt lat="34.47867512178241" lon="8.355527156671327"><ele>402.0</ele><time>2026-04-08T10:52:56Z</time></trkpt><trkpt lat="34.478675774707916" lon="8.355801223113819"><ele>402.0</ele><time>2026-04-08T10:52:57Z</time></trkpt><trkpt lat="34.47869633764113" lon="8.3560735265209"><ele>402.0</ele><time>2026-04-08T10:52:58Z</time></trkpt><trkpt lat="34.47873447819208" lon="8.356339061002357"><ele>402.0</ele><time>2026-04-08T10:52:59Z</time></trkpt><trkpt lat="34.478790215586166" lon="8.35659490649875"><ele>402.0</ele><time>2026-04-08T10:53:00Z</time></trkpt><trkpt lat="34.47884925695086" lon="8.35684641820584"><ele>402.0</ele><time>2026-04-08T10:53:01Z</time></trkpt><trkpt lat="34.47891818549869" lon="8.3570927830547"><ele>402.0</ele><time>2026-04-08T10:53:02Z</time></trkpt><trkpt lat="34.478992979247536" lon="8.357337636323765"><ele>401.33333333333337</ele><time>2026-04-08T10:53:03Z</time></trkpt><trkpt lat="34.47906982080887" lon="8.357580723773276"><ele>400.6666666666667</ele><time>2026-04-08T10:53:04Z</time></trkpt><trkpt lat="34.47914644242581" lon="8.35782380530604"><ele>400.0</ele><time>2026-04-08T10:53:05Z</time></trkpt><trkpt lat="34.47922279661133" lon="8.358064875484963"><ele>399.33333333333337</ele><time>2026-04-08T10:53:06Z</time></trkpt><trkpt lat="34.47929494881794" lon="8.35830769608518"><ele>398.66666666666663</ele><time>2026-04-08T10:53:07Z</time></trkpt><trkpt lat="34.479365939949744" lon="8.358555272988053"><ele>398.0</ele><time>2026-04-08T10:53:08Z</time></trkpt><trkpt lat="34.47943612411122" lon="8.35879993299425"><ele>398.0</ele><time>2026-04-08T10:53:09Z</time></trkpt><trkpt lat="34.47950312876862" lon="8.359056240877084"><ele>398.0</ele><time>2026-04-08T10:53:10Z</time></trkpt><trkpt lat="34.479567736457355" lon="8.359310695278946"><ele>398.0</ele><time>2026-04-08T10:53:11Z</time></trkpt><trkpt lat="34.47963204098966" lon="8.359564580197954"><ele>400.5</ele><time>2026-04-08T10:53:12Z</time></trkpt><trkpt lat="34.479698274598846" lon="8.35982420681811"><ele>403.0</ele><time>2026-04-08T10:53:13Z</time></trkpt><trkpt lat="34.479767187455884" lon="8.360087555607258"><ele>403.0</ele><time>2026-04-08T10:53:14Z</time></trkpt><trkpt lat="34.47984020771042" lon="8.360358107370885"><ele>403.0</ele><time>2026-04-08T10:53:15Z</time></trkpt><trkpt lat="34.47991580179056" lon="8.360640997156054"><ele>404.0</ele><time>2026-04-08T10:53:16Z</time></trkpt><trkpt lat="34.47999454244514" lon="8.360933272590124"><ele>405.0</ele><time>2026-04-08T10:53:17Z</time></trkpt><trkpt lat="34.48007357212287" lon="8.36122267659568"><ele>403.5</ele><time>2026-04-08T10:53:18Z</time></trkpt><trkpt lat="34.480152396561785" lon="8.361507473082654"><ele>402.0</ele><time>2026-04-08T10:53:19Z</time></trkpt><trkpt lat="34.48023106660062" lon="8.361792371647212"><ele>402.0</ele><time>2026-04-08T10:53:20Z</time></trkpt><trkpt lat="34.48030909641959" lon="8.362068574896977"><ele>402.0</ele><time>2026-04-08T10:53:21Z</time></trkpt><trkpt lat="34.48038365893845" lon="8.362342478103663"><ele>401.5</ele><time>2026-04-08T10:53:22Z</time></trkpt><trkpt lat="34.48045785459525" lon="8.362610914100678"><ele>401.0</ele><time>2026-04-08T10:53:23Z</time></trkpt><trkpt lat="34.48053160468768" lon="8.362882338476686"><ele>400.5</ele><time>2026-04-08T10:53:24Z</time></trkpt><trkpt lat="34.48060527886252" lon="8.363149855477591"><ele>400.0</ele><time>2026-04-08T10:53:25Z</time></trkpt><trkpt lat="34.48067775071708" lon="8.363412569201872"><ele>400.0</ele><time>2026-04-08T10:53:26Z</time></trkpt><trkpt lat="34.480747458877254" lon="8.363667932619808"><ele>400.0</ele><time>2026-04-08T10:53:27Z</time></trkpt><trkpt lat="34.48081833751012" lon="8.363911877111104"><ele>400.0</ele><time>2026-04-08T10:53:28Z</time></trkpt><trkpt lat="34.48088510468662" lon="8.364149664446776"><ele>400.33333333333337</ele><time>2026-04-08T10:53:29Z</time></trkpt><trkpt lat="34.480949614161425" lon="8.364392896731049"><ele>400.66666666666663</ele><time>2026-04-08T10:53:30Z</time></trkpt><trkpt lat="34.481004298583784" lon="8.364643733476445"><ele>401.0</ele><time>2026-04-08T10:53:31Z</time></trkpt><trkpt lat="34.48104479602929" lon="8.364898168185823"><ele>401.0</ele><time>2026-04-08T10:53:31.999Z</time></trkpt><trkpt lat="34.48107468282733" lon="8.365154374994333"><ele>401.0</ele><time>2026-04-08T10:53:32.999Z</time></trkpt><trkpt lat="34.481093639900095" lon="8.365412703987804"><ele>401.0</ele><time>2026-04-08T10:53:33.999Z</time></trkpt><trkpt lat="34.48110303930919" lon="8.36565845457572"><ele>401.0</ele><time>2026-04-08T10:53:34.999Z</time></trkpt><trkpt lat="34.48110931204079" lon="8.36589369337159"><ele>401.0</ele><time>2026-04-08T10:53:35.999Z</time></trkpt><trkpt lat="34.48112242309307" lon="8.366121906233984"><ele>401.0</ele><time>2026-04-08T10:53:36.999Z</time></trkpt><trkpt lat="34.48113869797588" lon="8.366353831302822"><ele>401.0</ele><time>2026-04-08T10:53:37.999Z</time></trkpt><trkpt lat="34.48114928511228" lon="8.366597251545125"><ele>401.0</ele><time>2026-04-08T10:53:38.999Z</time></trkpt><trkpt lat="34.4811529347283" lon="8.366851172087292"><ele>401.0</ele><time>2026-04-08T10:53:39.999Z</time></trkpt><trkpt lat="34.48114573825429" lon="8.367107327846343"><ele>401.3333333333333</ele><time>2026-04-08T10:53:40.999Z</time></trkpt><trkpt lat="34.48112566658732" lon="8.367350025083864"><ele>401.66666666666663</ele><time>2026-04-08T10:53:41.999Z</time></trkpt><trkpt lat="34.48108678065754" lon="8.367574535608991"><ele>402.0</ele><time>2026-04-08T10:53:42.999Z</time></trkpt><trkpt lat="34.481044937584244" lon="8.36780104552007"><ele>402.0</ele><time>2026-04-08T10:53:43.999Z</time></trkpt><trkpt lat="34.481009811999236" lon="8.368039136509392"><ele>402.0</ele><time>2026-04-08T10:53:44.999Z</time></trkpt><trkpt lat="34.48097167488755" lon="8.368281619834232"><ele>402.0</ele><time>2026-04-08T10:53:45.999Z</time></trkpt><trkpt lat="34.48093301136437" lon="8.368530257178458"><ele>402.0</ele><time>2026-04-08T10:53:46.999Z</time></trkpt><trkpt lat="34.48089396181627" lon="8.368779224412616"><ele>402.0</ele><time>2026-04-08T10:53:47.999Z</time></trkpt><trkpt lat="34.48085609335567" lon="8.369028999748512"><ele>402.0</ele><time>2026-04-08T10:53:48.999Z</time></trkpt><trkpt lat="34.48081964574614" lon="8.369282810472935"><ele>402.33333333333337</ele><time>2026-04-08T10:53:49.999Z</time></trkpt><trkpt lat="34.480780524643755" lon="8.369538918221233"><ele>402.6666666666667</ele><time>2026-04-08T10:53:50.999Z</time></trkpt><trkpt lat="34.48073966612229" lon="8.36979433689932"><ele>403.0</ele><time>2026-04-08T10:53:51.999Z</time></trkpt><trkpt lat="34.48069947201173" lon="8.370053200012478"><ele>402.6666666666667</ele><time>2026-04-08T10:53:52.999Z</time></trkpt><trkpt lat="34.48065972529898" lon="8.370316970968654"><ele>402.33333333333337</ele><time>2026-04-08T10:53:53.999Z</time></trkpt><trkpt lat="34.48061685883752" lon="8.370584979833602"><ele>402.0</ele><time>2026-04-08T10:53:54.999Z</time></trkpt><trkpt lat="34.480574180203455" lon="8.37085507742264"><ele>402.0</ele><time>2026-04-08T10:53:55.999Z</time></trkpt><trkpt lat="34.48053007708625" lon="8.37112953308786"><ele>402.0</ele><time>2026-04-08T10:53:56.999Z</time></trkpt><trkpt lat="34.48048535637885" lon="8.371402718286062"><ele>402.5</ele><time>2026-04-08T10:53:57.999Z</time></trkpt><trkpt lat="34.480440535836486" lon="8.371681289001089"><ele>403.0</ele><time>2026-04-08T10:53:58.999Z</time></trkpt><trkpt lat="34.48039747321199" lon="8.371962490525453"><ele>401.5</ele><time>2026-04-08T10:53:59.999Z</time></trkpt><trkpt lat="34.480352739231414" lon="8.372242345687441"><ele>400.0</ele><time>2026-04-08T10:54:00.999Z</time></trkpt><trkpt lat="34.48030436518919" lon="8.372521604883074"><ele>400.0</ele><time>2026-04-08T10:54:01.999Z</time></trkpt><trkpt lat="34.480257648047925" lon="8.372801367923607"><ele>400.0</ele><time>2026-04-08T10:54:02.999Z</time></trkpt><trkpt lat="34.48020744004044" lon="8.373083064022586"><ele>400.0</ele><time>2026-04-08T10:54:03.999Z</time></trkpt><trkpt lat="34.48015580690481" lon="8.373364561400154"><ele>400.0</ele><time>2026-04-08T10:54:04.999Z</time></trkpt><trkpt lat="34.48010424557247" lon="8.373650323222453"><ele>400.5</ele><time>2026-04-08T10:54:05.999Z</time></trkpt><trkpt lat="34.48005634150484" lon="8.373935206479857"><ele>401.0</ele><time>2026-04-08T10:54:06.999Z</time></trkpt><trkpt lat="34.480006267418865" lon="8.374224286032854"><ele>401.0</ele><time>2026-04-08T10:54:07.999Z</time></trkpt><trkpt lat="34.47995471527679" lon="8.374513586898798"><ele>401.0</ele><time>2026-04-08T10:54:08.999Z</time></trkpt><trkpt lat="34.47990244305692" lon="8.37480226098924"><ele>401.0</ele><time>2026-04-08T10:54:09.999Z</time></trkpt><trkpt lat="34.47984871982102" lon="8.375092208318737"><ele>401.0</ele><time>2026-04-08T10:54:10.999Z</time></trkpt><trkpt lat="34.479793088223936" lon="8.37538073538831"><ele>400.5</ele><time>2026-04-08T10:54:11.999Z</time></trkpt><trkpt lat="34.47973699127057" lon="8.375668037782088"><ele>400.0</ele><time>2026-04-08T10:54:12.999Z</time></trkpt><trkpt lat="34.479688349352045" lon="8.375951606308577"><ele>400.0</ele><time>2026-04-08T10:54:13.999Z</time></trkpt><trkpt lat="34.479641802861764" lon="8.376231009329121"><ele>400.0</ele><time>2026-04-08T10:54:14.999Z</time></trkpt><trkpt lat="34.47958734397663" lon="8.3765038871136"><ele>399.5</ele><time>2026-04-08T10:54:15.999Z</time></trkpt><trkpt lat="34.47953555126935" lon="8.376782952165795"><ele>399.0</ele><time>2026-04-08T10:54:16.999Z</time></trkpt><trkpt lat="34.47948458719452" lon="8.377060150042391"><ele>399.5</ele><time>2026-04-08T10:54:17.999Z</time></trkpt><trkpt lat="34.47942942576968" lon="8.37732975602441"><ele>400.0</ele><time>2026-04-08T10:54:18.999Z</time></trkpt><trkpt lat="34.479376159571785" lon="8.377600126561953"><ele>400.0</ele><time>2026-04-08T10:54:19.999Z</time></trkpt><trkpt lat="34.479328135541664" lon="8.377871542493246"><ele>400.0</ele><time>2026-04-08T10:54:20.999Z</time></trkpt><trkpt lat="34.47927856674052" lon="8.37813981685951"><ele>400.0</ele><time>2026-04-08T10:54:21.999Z</time></trkpt><trkpt lat="34.479227602236826" lon="8.378408380481753"><ele>400.0</ele><time>2026-04-08T10:54:22.999Z</time></trkpt><trkpt lat="34.47917743619405" lon="8.378676770638096"><ele>400.0</ele><time>2026-04-08T10:54:23.999Z</time></trkpt><trkpt lat="34.479126433157894" lon="8.378941957031287"><ele>400.0</ele><time>2026-04-08T10:54:24.999Z</time></trkpt><trkpt lat="34.47907636523148" lon="8.379209070041048"><ele>400.0</ele><time>2026-04-08T10:54:25.999Z</time></trkpt><trkpt lat="34.479027917911075" lon="8.37947542707886"><ele>400.0</ele><time>2026-04-08T10:54:26.999Z</time></trkpt><trkpt lat="34.478975322428916" lon="8.379740903712644"><ele>400.0</ele><time>2026-04-08T10:54:27.999Z</time></trkpt><trkpt lat="34.478925044630664" lon="8.380007531146562"><ele>400.0</ele><time>2026-04-08T10:54:28.999Z</time></trkpt><trkpt lat="34.47887756540265" lon="8.38027271778964"><ele>400.0</ele><time>2026-04-08T10:54:29.999Z</time></trkpt><trkpt lat="34.47882787727956" lon="8.380540402746062"><ele>400.0</ele><time>2026-04-08T10:54:30.999Z</time></trkpt><trkpt lat="34.47878259566099" lon="8.380810803727082"><ele>400.0</ele><time>2026-04-08T10:54:31.999Z</time></trkpt><trkpt lat="34.478738192962794" lon="8.381090584474586"><ele>399.5</ele><time>2026-04-08T10:54:33Z</time></trkpt><trkpt lat="34.47869658964218" lon="8.381376134530944"><ele>399.0</ele><time>2026-04-08T10:54:34Z</time></trkpt><trkpt lat="34.47865871002441" lon="8.381674774660876"><ele>399.0</ele><time>2026-04-08T10:54:35Z</time></trkpt><trkpt lat="34.478626544679734" lon="8.38198627119148"><ele>399.0</ele><time>2026-04-08T10:54:36Z</time></trkpt><trkpt lat="34.47860021328936" lon="8.38230805880685"><ele>398.5</ele><time>2026-04-08T10:54:37Z</time></trkpt><trkpt lat="34.478576017894795" lon="8.382630080869001"><ele>398.0</ele><time>2026-04-08T10:54:38Z</time></trkpt><trkpt lat="34.47855302891992" lon="8.382949629064719"><ele>398.0</ele><time>2026-04-08T10:54:39Z</time></trkpt><trkpt lat="34.478528417291386" lon="8.383269573252923"><ele>398.0</ele><time>2026-04-08T10:54:40Z</time></trkpt><trkpt lat="34.47850539008193" lon="8.383591036469769"><ele>399.0</ele><time>2026-04-08T10:54:41Z</time></trkpt><trkpt lat="34.4784835943916" lon="8.383910392326497"><ele>400.0</ele><time>2026-04-08T10:54:42Z</time></trkpt><trkpt lat="34.47846015394485" lon="8.384228863997725"><ele>400.0</ele><time>2026-04-08T10:54:43Z</time></trkpt><trkpt lat="34.47843267930584" lon="8.384545380568277"><ele>400.0</ele><time>2026-04-08T10:54:44Z</time></trkpt><trkpt lat="34.478406741984706" lon="8.384859875897329"><ele>399.5</ele><time>2026-04-08T10:54:45Z</time></trkpt><trkpt lat="34.47838164098034" lon="8.385174593580114"><ele>399.0</ele><time>2026-04-08T10:54:46Z</time></trkpt><trkpt lat="34.47835649361922" lon="8.38548863447125"><ele>399.5</ele><time>2026-04-08T10:54:47Z</time></trkpt><trkpt lat="34.47833028398407" lon="8.385800186658884"><ele>400.0</ele><time>2026-04-08T10:54:48Z</time></trkpt><trkpt lat="34.47830488971923" lon="8.386113005342851"><ele>400.5</ele><time>2026-04-08T10:54:49Z</time></trkpt><trkpt lat="34.478276263104846" lon="8.386428045264921"><ele>401.0</ele><time>2026-04-08T10:54:50Z</time></trkpt><trkpt lat="34.47824025330255" lon="8.386740549841447"><ele>401.0</ele><time>2026-04-08T10:54:51Z</time></trkpt><trkpt lat="34.47818902215352" lon="8.387045919679224"><ele>401.0</ele><time>2026-04-08T10:54:52Z</time></trkpt><trkpt lat="34.4781227382156" lon="8.387343029736357"><ele>400.0</ele><time>2026-04-08T10:54:53Z</time></trkpt><trkpt lat="34.47804343701697" lon="8.387639088244297"><ele>399.0</ele><time>2026-04-08T10:54:54Z</time></trkpt><trkpt lat="34.477951659880944" lon="8.38793139461132"><ele>397.0</ele><time>2026-04-08T10:54:55Z</time></trkpt><trkpt lat="34.47784891773943" lon="8.388217286918811"><ele>395.0</ele><time>2026-04-08T10:54:56Z</time></trkpt><trkpt lat="34.47773605570734" lon="8.388493053955282"><ele>395.0</ele><time>2026-04-08T10:54:57Z</time></trkpt><trkpt lat="34.477607282821715" lon="8.388764011887435"><ele>395.0</ele><time>2026-04-08T10:54:58Z</time></trkpt><trkpt lat="34.47746394270067" lon="8.389033179701912"><ele>395.5</ele><time>2026-04-08T10:54:59Z</time></trkpt><trkpt lat="34.47730881204937" lon="8.389301100451428"><ele>396.0</ele><time>2026-04-08T10:55:00Z</time></trkpt><trkpt lat="34.47714700042719" lon="8.389568092946702"><ele>397.5</ele><time>2026-04-08T10:55:01Z</time></trkpt><trkpt lat="34.476981528485084" lon="8.38983069022218"><ele>399.0</ele><time>2026-04-08T10:55:02Z</time></trkpt><trkpt lat="34.476817362229404" lon="8.390090249518165"><ele>399.0</ele><time>2026-04-08T10:55:03Z</time></trkpt><trkpt lat="34.47665718703912" lon="8.39034795250157"><ele>399.0</ele><time>2026-04-08T10:55:04Z</time></trkpt><trkpt lat="34.476498459707265" lon="8.390603174836714"><ele>399.0</ele><time>2026-04-08T10:55:05Z</time></trkpt><trkpt lat="34.47633991785411" lon="8.39085641358271"><ele>399.0</ele><time>2026-04-08T10:55:06Z</time></trkpt><trkpt lat="34.47618309484881" lon="8.391107524172657"><ele>399.0</ele><time>2026-04-08T10:55:07Z</time></trkpt><trkpt lat="34.476027542336446" lon="8.391354722531348"><ele>399.0</ele><time>2026-04-08T10:55:08Z</time></trkpt><trkpt lat="34.47586874336103" lon="8.391601812279575"><ele>399.0</ele><time>2026-04-08T10:55:09Z</time></trkpt><trkpt lat="34.47570891703181" lon="8.391855422709275"><ele>399.0</ele><time>2026-04-08T10:55:10Z</time></trkpt><trkpt lat="34.475551567605166" lon="8.392111415441114"><ele>398.0</ele><time>2026-04-08T10:55:11Z</time></trkpt><trkpt lat="34.4753943987872" lon="8.392365664625256"><ele>397.0</ele><time>2026-04-08T10:55:12Z</time></trkpt><trkpt lat="34.47523927520958" lon="8.392615291640244"><ele>397.0</ele><time>2026-04-08T10:55:13Z</time></trkpt><trkpt lat="34.47508942285735" lon="8.392861013096857"><ele>397.0</ele><time>2026-04-08T10:55:14Z</time></trkpt><trkpt lat="34.47494234486476" lon="8.393100078063199"><ele>396.5</ele><time>2026-04-08T10:55:15Z</time></trkpt><trkpt lat="34.474793520823596" lon="8.393335703715977"><ele>396.0</ele><time>2026-04-08T10:55:16Z</time></trkpt><trkpt lat="34.474644967373855" lon="8.39356946257182"><ele>397.5</ele><time>2026-04-08T10:55:17Z</time></trkpt><trkpt lat="34.474499178668076" lon="8.393806992729887"><ele>399.0</ele><time>2026-04-08T10:55:18Z</time></trkpt><trkpt lat="34.474351674008496" lon="8.39404176768118"><ele>399.5</ele><time>2026-04-08T10:55:19Z</time></trkpt><trkpt lat="34.47420413574102" lon="8.394273197179723"><ele>400.0</ele><time>2026-04-08T10:55:20Z</time></trkpt><trkpt lat="34.47406316989182" lon="8.39451170268214"><ele>400.0</ele><time>2026-04-08T10:55:21Z</time></trkpt><trkpt lat="34.47391848997064" lon="8.394744739033587"><ele>400.0</ele><time>2026-04-08T10:55:22Z</time></trkpt><trkpt lat="34.47377043882576" lon="8.394977317630136"><ele>399.5</ele><time>2026-04-08T10:55:23Z</time></trkpt><trkpt lat="34.473625944577314" lon="8.395213403553546"><ele>399.0</ele><time>2026-04-08T10:55:24Z</time></trkpt><trkpt lat="34.473480109651994" lon="8.395450445807704"><ele>400.0</ele><time>2026-04-08T10:55:25Z</time></trkpt><trkpt lat="34.473335407074885" lon="8.395688613978278"><ele>401.0</ele><time>2026-04-08T10:55:26Z</time></trkpt><trkpt lat="34.47318829855551" lon="8.39592483234433"><ele>401.0</ele><time>2026-04-08T10:55:27Z</time></trkpt><trkpt lat="34.47304222438738" lon="8.3961622531346"><ele>401.0</ele><time>2026-04-08T10:55:28Z</time></trkpt><trkpt lat="34.47289843111731" lon="8.396399548322641"><ele>401.5</ele><time>2026-04-08T10:55:29Z</time></trkpt><trkpt lat="34.472752433410086" lon="8.396636635373213"><ele>402.0</ele><time>2026-04-08T10:55:30Z</time></trkpt><trkpt lat="34.4726078836772" lon="8.396868215781822"><ele>402.0</ele><time>2026-04-08T10:55:31Z</time></trkpt><trkpt lat="34.472460456871076" lon="8.397098183941706"><ele>402.0</ele><time>2026-04-08T10:55:32Z</time></trkpt><trkpt lat="34.472318319188815" lon="8.397327472836968"><ele>401.5</ele><time>2026-04-08T10:55:33Z</time></trkpt><trkpt lat="34.47217465625728" lon="8.397555221227858"><ele>401.0</ele><time>2026-04-08T10:55:34Z</time></trkpt><trkpt lat="34.47203208867858" lon="8.39778337133305"><ele>400.5</ele><time>2026-04-08T10:55:35Z</time></trkpt><trkpt lat="34.4718922762974" lon="8.398014797005663"><ele>400.0</ele><time>2026-04-08T10:55:36Z</time></trkpt><trkpt lat="34.471752366577675" lon="8.398243607036642"><ele>400.0</ele><time>2026-04-08T10:55:37Z</time></trkpt><trkpt lat="34.471612569088165" lon="8.398470340347"><ele>400.0</ele><time>2026-04-08T10:55:38Z</time></trkpt><trkpt lat="34.47147450310197" lon="8.398695418527636"><ele>400.0</ele><time>2026-04-08T10:55:39Z</time></trkpt><trkpt lat="34.47133565475347" lon="8.398918785658548"><ele>400.0</ele><time>2026-04-08T10:55:40Z</time></trkpt><trkpt lat="34.47119767066173" lon="8.39913943461552"><ele>400.0</ele><time>2026-04-08T10:55:41Z</time></trkpt><trkpt lat="34.47105991622272" lon="8.399356259675523"><ele>400.0</ele><time>2026-04-08T10:55:42Z</time></trkpt><trkpt lat="34.47092458013394" lon="8.399575110224838"><ele>400.0</ele><time>2026-04-08T10:55:42.999Z</time></trkpt><trkpt lat="34.470789593514" lon="8.399793441644471"><ele>400.0</ele><time>2026-04-08T10:55:43.999Z</time></trkpt><trkpt lat="34.47065532272968" lon="8.40001113926416"><ele>400.0</ele><time>2026-04-08T10:55:44.999Z</time></trkpt><trkpt lat="34.470520508150834" lon="8.400229224329355"><ele>400.0</ele><time>2026-04-08T10:55:45.999Z</time></trkpt><trkpt lat="34.47038439448366" lon="8.40044872992346"><ele>400.0</ele><time>2026-04-08T10:55:46.999Z</time></trkpt><trkpt lat="34.47024658815331" lon="8.400673363792448"><ele>400.0</ele><time>2026-04-08T10:55:47.999Z</time></trkpt><trkpt lat="34.47010294946114" lon="8.40090339197372"><ele>400.0</ele><time>2026-04-08T10:55:48.999Z</time></trkpt><trkpt lat="34.46995673222082" lon="8.40113863658669"><ele>399.0</ele><time>2026-04-08T10:55:49.999Z</time></trkpt><trkpt lat="34.46980756463516" lon="8.401376982790119"><ele>398.0</ele><time>2026-04-08T10:55:50.999Z</time></trkpt><trkpt lat="34.46966058672114" lon="8.40161827889827"><ele>399.0</ele><time>2026-04-08T10:55:51.999Z</time></trkpt><trkpt lat="34.46951261640875" lon="8.40186069887908"><ele>400.0</ele><time>2026-04-08T10:55:52.999Z</time></trkpt><trkpt lat="34.4693630824301" lon="8.402105488922597"><ele>401.0</ele><time>2026-04-08T10:55:53.999Z</time></trkpt><trkpt lat="34.469211153617245" lon="8.402353038923692"><ele>402.0</ele><time>2026-04-08T10:55:54.999Z</time></trkpt><trkpt lat="34.469055463454644" lon="8.402604062913943"><ele>402.0</ele><time>2026-04-08T10:55:55.999Z</time></trkpt><trkpt lat="34.468899591599474" lon="8.402856014755846"><ele>402.0</ele><time>2026-04-08T10:55:56.999Z</time></trkpt><trkpt lat="34.46874473348379" lon="8.40310850634435"><ele>402.5</ele><time>2026-04-08T10:55:57.999Z</time></trkpt><trkpt lat="34.46858928470235" lon="8.403365621506236"><ele>403.0</ele><time>2026-04-08T10:55:58.999Z</time></trkpt><trkpt lat="34.46843159664789" lon="8.403625416029104"><ele>402.5</ele><time>2026-04-08T10:55:59.999Z</time></trkpt><trkpt lat="34.46827125750619" lon="8.403886028990904"><ele>402.0</ele><time>2026-04-08T10:56:00.999Z</time></trkpt><trkpt lat="34.46810852364873" lon="8.404146265131084"><ele>402.0</ele><time>2026-04-08T10:56:01.999Z</time></trkpt><trkpt lat="34.46794421720742" lon="8.404410114924229"><ele>402.0</ele><time>2026-04-08T10:56:02.999Z</time></trkpt><trkpt lat="34.46777833502506" lon="8.404678044000493"><ele>402.0</ele><time>2026-04-08T10:56:03.999Z</time></trkpt><trkpt lat="34.46760611347021" lon="8.40495657901762"><ele>402.0</ele><time>2026-04-08T10:56:04.999Z</time></trkpt><trkpt lat="34.467427829961025" lon="8.405245201572532"><ele>402.0</ele><time>2026-04-08T10:56:05.999Z</time></trkpt><trkpt lat="34.46723912770869" lon="8.40554750321785"><ele>402.0</ele><time>2026-04-08T10:56:06.999Z</time></trkpt><trkpt lat="34.46704528343855" lon="8.40585638700861"><ele>403.0</ele><time>2026-04-08T10:56:07.999Z</time></trkpt><trkpt lat="34.46686247132497" lon="8.406151523850534"><ele>404.0</ele><time>2026-04-08T10:56:08.999Z</time></trkpt><trkpt lat="34.466691346473354" lon="8.40643194731793"><ele>404.0</ele><time>2026-04-08T10:56:09.999Z</time></trkpt><trkpt lat="34.466525947193524" lon="8.406700277717514"><ele>404.0</ele><time>2026-04-08T10:56:10.999Z</time></trkpt><trkpt lat="34.46636897017796" lon="8.406955787140982"><ele>403.5</ele><time>2026-04-08T10:56:11.999Z</time></trkpt><trkpt lat="34.46621182195991" lon="8.407208110688533"><ele>403.0</ele><time>2026-04-08T10:56:12.999Z</time></trkpt><trkpt lat="34.46605725593234" lon="8.407454093267042"><ele>403.0</ele><time>2026-04-08T10:56:13.999Z</time></trkpt><trkpt lat="34.465908930069205" lon="8.407692854945681"><ele>403.0</ele><time>2026-04-08T10:56:14.999Z</time></trkpt><trkpt lat="34.465763918590994" lon="8.407928006141598"><ele>403.0</ele><time>2026-04-08T10:56:15.999Z</time></trkpt><trkpt lat="34.46561718217773" lon="8.40816135161895"><ele>403.0</ele><time>2026-04-08T10:56:16.999Z</time></trkpt><trkpt lat="34.465473850157906" lon="8.408394063772697"><ele>403.0</ele><time>2026-04-08T10:56:17.999Z</time></trkpt><trkpt lat="34.46533342266356" lon="8.408627895451893"><ele>403.0</ele><time>2026-04-08T10:56:18.999Z</time></trkpt><trkpt lat="34.46519111914609" lon="8.4088657325402"><ele>403.0</ele><time>2026-04-08T10:56:19.999Z</time></trkpt><trkpt lat="34.46503914610702" lon="8.409109356766619"><ele>403.0</ele><time>2026-04-08T10:56:20.999Z</time></trkpt><trkpt lat="34.46488713580225" lon="8.409356865095658"><ele>403.0</ele><time>2026-04-08T10:56:21.999Z</time></trkpt><trkpt lat="34.46473083673144" lon="8.409608432117304"><ele>403.0</ele><time>2026-04-08T10:56:22.999Z</time></trkpt><trkpt lat="34.46457574329896" lon="8.409859490500617"><ele>404.0</ele><time>2026-04-08T10:56:23.999Z</time></trkpt><trkpt lat="34.46442334815402" lon="8.410108767667383"><ele>405.0</ele><time>2026-04-08T10:56:24.999Z</time></trkpt><trkpt lat="34.46426983805763" lon="8.410357178634229"><ele>404.5</ele><time>2026-04-08T10:56:25.999Z</time></trkpt><trkpt lat="34.46411859225773" lon="8.41060423867803"><ele>404.0</ele><time>2026-04-08T10:56:26.999Z</time></trkpt><trkpt lat="34.463966071423435" lon="8.410851541473562"><ele>404.0</ele><time>2026-04-08T10:56:27.999Z</time></trkpt><trkpt lat="34.463811733019725" lon="8.411095714297243"><ele>404.0</ele><time>2026-04-08T10:56:28.999Z</time></trkpt><trkpt lat="34.46365723231729" lon="8.411338481999968"><ele>403.0</ele><time>2026-04-08T10:56:29.999Z</time></trkpt><trkpt lat="34.46350517732171" lon="8.411582879351158"><ele>402.0</ele><time>2026-04-08T10:56:30.999Z</time></trkpt><trkpt lat="34.46335666184167" lon="8.411827921757508"><ele>402.0</ele><time>2026-04-08T10:56:31.999Z</time></trkpt><trkpt lat="34.46320813514661" lon="8.412073058939706"><ele>402.0</ele><time>2026-04-08T10:56:32.999Z</time></trkpt><trkpt lat="34.46305886854806" lon="8.412318382217999"><ele>402.5</ele><time>2026-04-08T10:56:33.999Z</time></trkpt><trkpt lat="34.46290930189488" lon="8.412564358645389"><ele>403.0</ele><time>2026-04-08T10:56:34.999Z</time></trkpt><trkpt lat="34.4627574367933" lon="8.412808831921817"><ele>402.5</ele><time>2026-04-08T10:56:35.999Z</time></trkpt><trkpt lat="34.462605452517884" lon="8.413050439191112"><ele>402.0</ele><time>2026-04-08T10:56:36.999Z</time></trkpt><trkpt lat="34.462452915837055" lon="8.413291843585185"><ele>402.0</ele><time>2026-04-08T10:56:37.999Z</time></trkpt><trkpt lat="34.46229587379236" lon="8.413537856667439"><ele>402.0</ele><time>2026-04-08T10:56:39Z</time></trkpt><trkpt lat="34.462140403362966" lon="8.413785532820025"><ele>401.5</ele><time>2026-04-08T10:56:40Z</time></trkpt><trkpt lat="34.46198465287344" lon="8.414036333808944"><ele>401.0</ele><time>2026-04-08T10:56:41Z</time></trkpt><trkpt lat="34.461830596023894" lon="8.414287262064292"><ele>401.0</ele><time>2026-04-08T10:56:42Z</time></trkpt><trkpt lat="34.46167914890378" lon="8.414540069863179"><ele>401.0</ele><time>2026-04-08T10:56:43Z</time></trkpt><trkpt lat="34.46152586539147" lon="8.414791366296466"><ele>401.5</ele><time>2026-04-08T10:56:44Z</time></trkpt><trkpt lat="34.46137467379814" lon="8.415039681549027"><ele>402.0</ele><time>2026-04-08T10:56:45Z</time></trkpt><trkpt lat="34.46122203731119" lon="8.415288064964397"><ele>403.0</ele><time>2026-04-08T10:56:46Z</time></trkpt><trkpt lat="34.46106739248079" lon="8.415534078887461"><ele>404.0</ele><time>2026-04-08T10:56:47Z</time></trkpt><trkpt lat="34.46091426830463" lon="8.415780934166335"><ele>404.0</ele><time>2026-04-08T10:56:48Z</time></trkpt><trkpt lat="34.46076181416771" lon="8.416031188449953"><ele>404.0</ele><time>2026-04-08T10:56:49Z</time></trkpt><trkpt lat="34.460608152273444" lon="8.416280790968786"><ele>404.0</ele><time>2026-04-08T10:56:50Z</time></trkpt><trkpt lat="34.46045160694054" lon="8.416528544617996"><ele>404.0</ele><time>2026-04-08T10:56:51Z</time></trkpt><trkpt lat="34.4602975154946" lon="8.416775962403095"><ele>403.5</ele><time>2026-04-08T10:56:52Z</time></trkpt><trkpt lat="34.46014479367366" lon="8.41702831760777"><ele>403.0</ele><time>2026-04-08T10:56:53Z</time></trkpt><trkpt lat="34.45999228605976" lon="8.417278512336376"><ele>404.0</ele><time>2026-04-08T10:56:54Z</time></trkpt><trkpt lat="34.45983691218054" lon="8.417526348743829"><ele>405.0</ele><time>2026-04-08T10:56:55Z</time></trkpt><trkpt lat="34.45967837524185" lon="8.417770908719458"><ele>404.5</ele><time>2026-04-08T10:56:56Z</time></trkpt><trkpt lat="34.45951952518769" lon="8.418018645834223"><ele>404.0</ele><time>2026-04-08T10:56:57Z</time></trkpt><trkpt lat="34.459363534021314" lon="8.41826694091764"><ele>404.0</ele><time>2026-04-08T10:56:58Z</time></trkpt><trkpt lat="34.459208127625075" lon="8.418516058268786"><ele>404.0</ele><time>2026-04-08T10:56:59Z</time></trkpt><trkpt lat="34.4590536849278" lon="8.418764652915161"><ele>404.5</ele><time>2026-04-08T10:57:00Z</time></trkpt><trkpt lat="34.45890081742565" lon="8.419014930505694"><ele>405.0</ele><time>2026-04-08T10:57:01Z</time></trkpt><trkpt lat="34.45875003426239" lon="8.419265816731926"><ele>405.5</ele><time>2026-04-08T10:57:02Z</time></trkpt><trkpt lat="34.45859565787294" lon="8.419517975337902"><ele>406.0</ele><time>2026-04-08T10:57:03Z</time></trkpt><trkpt lat="34.45844074878807" lon="8.419765416316418"><ele>406.0</ele><time>2026-04-08T10:57:04Z</time></trkpt><trkpt lat="34.45828280201628" lon="8.420011537136281"><ele>406.0</ele><time>2026-04-08T10:57:05Z</time></trkpt><trkpt lat="34.45812515424968" lon="8.420258718602131"><ele>405.0</ele><time>2026-04-08T10:57:06Z</time></trkpt><trkpt lat="34.45797072669223" lon="8.42050755244534"><ele>404.0</ele><time>2026-04-08T10:57:07Z</time></trkpt><trkpt lat="34.4578175915523" lon="8.420759355711064"><ele>403.0</ele><time>2026-04-08T10:57:08Z</time></trkpt><trkpt lat="34.45766313446005" lon="8.421010875154058"><ele>402.0</ele><time>2026-04-08T10:57:09Z</time></trkpt><trkpt lat="34.457510571932204" lon="8.421261722786191"><ele>402.0</ele><time>2026-04-08T10:57:10Z</time></trkpt><trkpt lat="34.45735669053433" lon="8.421513266541202"><ele>402.0</ele><time>2026-04-08T10:57:11Z</time></trkpt><trkpt lat="34.45720252811867" lon="8.421764322547123"><ele>402.5</ele><time>2026-04-08T10:57:12Z</time></trkpt><trkpt lat="34.45704832923558" lon="8.422014474215805"><ele>403.0</ele><time>2026-04-08T10:57:13Z</time></trkpt><trkpt lat="34.45689301727521" lon="8.422264493586766"><ele>403.5</ele><time>2026-04-08T10:57:14Z</time></trkpt><trkpt lat="34.45673770729294" lon="8.422514544571351"><ele>404.0</ele><time>2026-04-08T10:57:15Z</time></trkpt><trkpt lat="34.45658295106414" lon="8.422763931813037"><ele>403.0</ele><time>2026-04-08T10:57:16Z</time></trkpt><trkpt lat="34.4564281779934" lon="8.42301319843888"><ele>402.0</ele><time>2026-04-08T10:57:17Z</time></trkpt><trkpt lat="34.456271414959204" lon="8.423263006823147"><ele>401.5</ele><time>2026-04-08T10:57:18Z</time></trkpt><trkpt lat="34.45611431803173" lon="8.423511345203979"><ele>401.0</ele><time>2026-04-08T10:57:19Z</time></trkpt><trkpt lat="34.4559579349976" lon="8.423758707183504"><ele>400.0</ele><time>2026-04-08T10:57:20Z</time></trkpt><trkpt lat="34.45579968466682" lon="8.424003342310685"><ele>399.0</ele><time>2026-04-08T10:57:21Z</time></trkpt><trkpt lat="34.4556391153721" lon="8.42424630311443"><ele>399.0</ele><time>2026-04-08T10:57:22Z</time></trkpt><trkpt lat="34.45548442527382" lon="8.424491201722576"><ele>399.0</ele><time>2026-04-08T10:57:23Z</time></trkpt><trkpt lat="34.45533025898166" lon="8.424739245264734"><ele>399.5</ele><time>2026-04-08T10:57:24Z</time></trkpt><trkpt lat="34.45517745668301" lon="8.424986707856378"><ele>400.0</ele><time>2026-04-08T10:57:25Z</time></trkpt><trkpt lat="34.45502591439775" lon="8.42523551273309"><ele>400.5</ele><time>2026-04-08T10:57:26Z</time></trkpt><trkpt lat="34.45487417504986" lon="8.425482959648553"><ele>401.0</ele><time>2026-04-08T10:57:27Z</time></trkpt><trkpt lat="34.4547207904233" lon="8.425733873486577"><ele>401.5</ele><time>2026-04-08T10:57:28Z</time></trkpt><trkpt lat="34.45456889407999" lon="8.425986458351305"><ele>402.0</ele><time>2026-04-08T10:57:29Z</time></trkpt><trkpt lat="34.45441782408679" lon="8.426239427784019"><ele>400.5</ele><time>2026-04-08T10:57:30Z</time></trkpt><trkpt lat="34.454265018003625" lon="8.426488803066633"><ele>399.0</ele><time>2026-04-08T10:57:31Z</time></trkpt><trkpt lat="34.45410977240182" lon="8.426737903380758"><ele>399.0</ele><time>2026-04-08T10:57:32Z</time></trkpt><trkpt lat="34.45395443147144" lon="8.426986882065291"><ele>399.0</ele><time>2026-04-08T10:57:33Z</time></trkpt><trkpt lat="34.45379809513716" lon="8.42723498993855"><ele>399.5</ele><time>2026-04-08T10:57:34Z</time></trkpt><trkpt lat="34.453642282872984" lon="8.427482004567583"><ele>400.0</ele><time>2026-04-08T10:57:35Z</time></trkpt><trkpt lat="34.45348402251397" lon="8.427729592562757"><ele>400.0</ele><time>2026-04-08T10:57:36Z</time></trkpt><trkpt lat="34.45333147150113" lon="8.42797635283783"><ele>400.0</ele><time>2026-04-08T10:57:37Z</time></trkpt><trkpt lat="34.453178038731885" lon="8.428222581356126"><ele>400.0</ele><time>2026-04-08T10:57:38Z</time></trkpt><trkpt lat="34.4530232723858" lon="8.42846766005431"><ele>400.0</ele><time>2026-04-08T10:57:39Z</time></trkpt><trkpt lat="34.45286635750993" lon="8.4287126684029"><ele>399.5</ele><time>2026-04-08T10:57:39.999Z</time></trkpt><trkpt lat="34.452711101421016" lon="8.428961210129028"><ele>399.0</ele><time>2026-04-08T10:57:40.999Z</time></trkpt><trkpt lat="34.452557460715944" lon="8.429207975947898"><ele>399.0</ele><time>2026-04-08T10:57:41.999Z</time></trkpt><trkpt lat="34.45240296270508" lon="8.4294540809895"><ele>399.0</ele><time>2026-04-08T10:57:42.999Z</time></trkpt><trkpt lat="34.45224823093386" lon="8.42970239035053"><ele>399.0</ele><time>2026-04-08T10:57:43.999Z</time></trkpt><trkpt lat="34.45209562679345" lon="8.429952875037701"><ele>399.0</ele><time>2026-04-08T10:57:44.999Z</time></trkpt><trkpt lat="34.45194501628402" lon="8.430203724458295"><ele>399.0</ele><time>2026-04-08T10:57:45.999Z</time></trkpt><trkpt lat="34.45179374443842" lon="8.430453890864094"><ele>399.0</ele><time>2026-04-08T10:57:46.999Z</time></trkpt><trkpt lat="34.45164297664004" lon="8.430705450460254"><ele>399.5</ele><time>2026-04-08T10:57:47.999Z</time></trkpt><trkpt lat="34.451486476987306" lon="8.430952943502689"><ele>400.0</ele><time>2026-04-08T10:57:48.999Z</time></trkpt><trkpt lat="34.451327192682214" lon="8.431195637566361"><ele>399.5</ele><time>2026-04-08T10:57:49.999Z</time></trkpt><trkpt lat="34.45116724121607" lon="8.431441158937734"><ele>399.0</ele><time>2026-04-08T10:57:50.999Z</time></trkpt><trkpt lat="34.451011369471594" lon="8.431689585796807"><ele>399.0</ele><time>2026-04-08T10:57:51.999Z</time></trkpt><trkpt lat="34.450856716016325" lon="8.431939531037022"><ele>399.0</ele><time>2026-04-08T10:57:52.999Z</time></trkpt><trkpt lat="34.45070274076033" lon="8.432189045983781"><ele>398.0</ele><time>2026-04-08T10:57:53.999Z</time></trkpt><trkpt lat="34.45055059279176" lon="8.432436405115897"><ele>397.0</ele><time>2026-04-08T10:57:54.999Z</time></trkpt><trkpt lat="34.45039564072675" lon="8.432683591279662"><ele>396.5</ele><time>2026-04-08T10:57:55.999Z</time></trkpt><trkpt lat="34.45024003680989" lon="8.432930487322064"><ele>396.0</ele><time>2026-04-08T10:57:56.999Z</time></trkpt><trkpt lat="34.45008299941006" lon="8.433177673807712"><ele>396.0</ele><time>2026-04-08T10:57:57.999Z</time></trkpt><trkpt lat="34.449927829967805" lon="8.433425992696241"><ele>396.0</ele><time>2026-04-08T10:57:58.999Z</time></trkpt><trkpt lat="34.44977328431678" lon="8.43367578623458"><ele>396.5</ele><time>2026-04-08T10:57:59.999Z</time></trkpt><trkpt lat="34.44961708447962" lon="8.433926828758823"><ele>397.0</ele><time>2026-04-08T10:58:00.999Z</time></trkpt><trkpt lat="34.449462304504564" lon="8.434175135332064"><ele>397.0</ele><time>2026-04-08T10:58:01.999Z</time></trkpt><trkpt lat="34.4493077273388" lon="8.434424736315336"><ele>397.0</ele><time>2026-04-08T10:58:02.999Z</time></trkpt><trkpt lat="34.44915261679339" lon="8.434674765476478"><ele>397.0</ele><time>2026-04-08T10:58:03.999Z</time></trkpt><trkpt lat="34.448998475585825" lon="8.434923588774884"><ele>397.0</ele><time>2026-04-08T10:58:04.999Z</time></trkpt><trkpt lat="34.44884427173776" lon="8.435173758804162"><ele>396.0</ele><time>2026-04-08T10:58:05.999Z</time></trkpt><trkpt lat="34.448688553812254" lon="8.43542764415797"><ele>395.0</ele><time>2026-04-08T10:58:06.999Z</time></trkpt><trkpt lat="34.44852955383746" lon="8.435684717547696"><ele>394.0</ele><time>2026-04-08T10:58:07.999Z</time></trkpt><trkpt lat="34.44836868292288" lon="8.435942423555051"><ele>393.0</ele><time>2026-04-08T10:58:08.999Z</time></trkpt><trkpt lat="34.448208771530645" lon="8.43619896088194"><ele>392.5</ele><time>2026-04-08T10:58:09.999Z</time></trkpt><trkpt lat="34.44804899974819" lon="8.43645523069939"><ele>392.0</ele><time>2026-04-08T10:58:10.999Z</time></trkpt><trkpt lat="34.447891397221454" lon="8.436712604907608"><ele>393.0</ele><time>2026-04-08T10:58:11.999Z</time></trkpt><trkpt lat="34.44773352689124" lon="8.436969970609818"><ele>394.0</ele><time>2026-04-08T10:58:12.999Z</time></trkpt><trkpt lat="34.44757184577741" lon="8.437226072059948"><ele>394.0</ele><time>2026-04-08T10:58:13.999Z</time></trkpt><trkpt lat="34.447410494654726" lon="8.437478830163935"><ele>394.0</ele><time>2026-04-08T10:58:14.999Z</time></trkpt><trkpt lat="34.447248235197165" lon="8.437734336249358"><ele>392.5</ele><time>2026-04-08T10:58:15.999Z</time></trkpt><trkpt lat="34.4470873959879" lon="8.43798950120803"><ele>391.0</ele><time>2026-04-08T10:58:16.999Z</time></trkpt><trkpt lat="34.44692803638845" lon="8.438245236942544"><ele>391.0</ele><time>2026-04-08T10:58:17.999Z</time></trkpt><trkpt lat="34.446770211096414" lon="8.438503554633172"><ele>391.0</ele><time>2026-04-08T10:58:18.999Z</time></trkpt><trkpt lat="34.44661136194982" lon="8.438758235676165"><ele>390.5</ele><time>2026-04-08T10:58:19.999Z</time></trkpt><trkpt lat="34.44645283708947" lon="8.43901344305538"><ele>390.0</ele><time>2026-04-08T10:58:20.999Z</time></trkpt><trkpt lat="34.44629444727789" lon="8.439267874590065"><ele>389.5</ele><time>2026-04-08T10:58:21.999Z</time></trkpt><trkpt lat="34.446136479123915" lon="8.439523984800813"><ele>389.0</ele><time>2026-04-08T10:58:22.999Z</time></trkpt><trkpt lat="34.4459791589738" lon="8.43977724646341"><ele>389.0</ele><time>2026-04-08T10:58:23.999Z</time></trkpt><trkpt lat="34.445818359122335" lon="8.440031035048683"><ele>389.0</ele><time>2026-04-08T10:58:24.999Z</time></trkpt><trkpt lat="34.44565824456744" lon="8.440285453319245"><ele>389.0</ele><time>2026-04-08T10:58:25.999Z</time></trkpt><trkpt lat="34.44549902861252" lon="8.440539900049682"><ele>389.0</ele><time>2026-04-08T10:58:26.999Z</time></trkpt><trkpt lat="34.44533912443243" lon="8.440795673862134"><ele>389.0</ele><time>2026-04-08T10:58:27.999Z</time></trkpt><trkpt lat="34.44518072008984" lon="8.441048811740185"><ele>389.0</ele><time>2026-04-08T10:58:28.999Z</time></trkpt><trkpt lat="34.44502019837389" lon="8.441305496945418"><ele>388.0</ele><time>2026-04-08T10:58:29.999Z</time></trkpt><trkpt lat="34.44486099098702" lon="8.441560356737853"><ele>387.0</ele><time>2026-04-08T10:58:30.999Z</time></trkpt><trkpt lat="34.44470264314749" lon="8.441815197352085"><ele>387.5</ele><time>2026-04-08T10:58:31.999Z</time></trkpt><trkpt lat="34.44454274249787" lon="8.442070873323678"><ele>388.0</ele><time>2026-04-08T10:58:32.999Z</time></trkpt><trkpt lat="34.44438252158161" lon="8.442325887260779"><ele>388.0</ele><time>2026-04-08T10:58:33.999Z</time></trkpt><trkpt lat="34.44422261378454" lon="8.442580753356273"><ele>388.0</ele><time>2026-04-08T10:58:34.999Z</time></trkpt><trkpt lat="34.44406444750253" lon="8.442838836974786"><ele>388.5</ele><time>2026-04-08T10:58:35.999Z</time></trkpt><trkpt lat="34.44390625738027" lon="8.443097203840578"><ele>389.0</ele><time>2026-04-08T10:58:36.999Z</time></trkpt><trkpt lat="34.44374500630593" lon="8.443351533385824"><ele>389.0</ele><time>2026-04-08T10:58:37.999Z</time></trkpt><trkpt lat="34.44358501321837" lon="8.443605963469537"><ele>389.0</ele><time>2026-04-08T10:58:38.999Z</time></trkpt><trkpt lat="34.44342349800411" lon="8.443861808832134"><ele>388.5</ele><time>2026-04-08T10:58:39.999Z</time></trkpt><trkpt lat="34.443262826543084" lon="8.444115045275867"><ele>388.0</ele><time>2026-04-08T10:58:40.999Z</time></trkpt><trkpt lat="34.44310224653582" lon="8.444371699619106"><ele>388.0</ele><time>2026-04-08T10:58:41.999Z</time></trkpt><trkpt lat="34.442945849894734" lon="8.444630115921868"><ele>388.0</ele><time>2026-04-08T10:58:42.999Z</time></trkpt><trkpt lat="34.44279006059694" lon="8.44488751322169"><ele>388.0</ele><time>2026-04-08T10:58:43.999Z</time></trkpt><trkpt lat="34.44263220823692" lon="8.445145731937462"><ele>388.0</ele><time>2026-04-08T10:58:45Z</time></trkpt><trkpt lat="34.44247620117623" lon="8.445398953846796"><ele>387.5</ele><time>2026-04-08T10:58:46Z</time></trkpt><trkpt lat="34.44231718170146" lon="8.445652127747238"><ele>387.0</ele><time>2026-04-08T10:58:47Z</time></trkpt><trkpt lat="34.442157444779" lon="8.445905406365592"><ele>387.5</ele><time>2026-04-08T10:58:48Z</time></trkpt><trkpt lat="34.44200181165894" lon="8.446163047575595"><ele>388.0</ele><time>2026-04-08T10:58:49Z</time></trkpt><trkpt lat="34.44184574519863" lon="8.44641928444746"><ele>388.0</ele><time>2026-04-08T10:58:50Z</time></trkpt><trkpt lat="34.44168816560987" lon="8.446674301788498"><ele>388.0</ele><time>2026-04-08T10:58:51Z</time></trkpt><trkpt lat="34.44153097378186" lon="8.446933332294199"><ele>388.5</ele><time>2026-04-08T10:58:52Z</time></trkpt><trkpt lat="34.44137615042032" lon="8.44719349599414"><ele>389.0</ele><time>2026-04-08T10:58:53Z</time></trkpt><trkpt lat="34.44121797957847" lon="8.447450492179202"><ele>388.5</ele><time>2026-04-08T10:58:54Z</time></trkpt><trkpt lat="34.441057642115666" lon="8.44770621366342"><ele>388.0</ele><time>2026-04-08T10:58:55Z</time></trkpt><trkpt lat="34.44089749574687" lon="8.447961979256444"><ele>388.0</ele><time>2026-04-08T10:58:56Z</time></trkpt><trkpt lat="34.440737242918225" lon="8.448218736013901"><ele>388.0</ele><time>2026-04-08T10:58:57Z</time></trkpt><trkpt lat="34.440579009357336" lon="8.448474517322932"><ele>388.5</ele><time>2026-04-08T10:58:58Z</time></trkpt><trkpt lat="34.44042090106256" lon="8.448731629475324"><ele>389.0</ele><time>2026-04-08T10:58:59Z</time></trkpt><trkpt lat="34.44026074348158" lon="8.448985097768272"><ele>389.0</ele><time>2026-04-08T10:59:00Z</time></trkpt><trkpt lat="34.44009978443216" lon="8.44923769272556"><ele>389.0</ele><time>2026-04-08T10:59:01Z</time></trkpt><trkpt lat="34.43993885662761" lon="8.44949147570706"><ele>389.0</ele><time>2026-04-08T10:59:02Z</time></trkpt><trkpt lat="34.439777318030124" lon="8.44974667006906"><ele>389.0</ele><time>2026-04-08T10:59:03Z</time></trkpt><trkpt lat="34.439626189449996" lon="8.44998475888436"><ele>389.5</ele><time>2026-04-08T10:59:04Z</time></trkpt><trkpt lat="34.439477256434984" lon="8.450209691160712"><ele>390.0</ele><time>2026-04-08T10:59:05Z</time></trkpt><trkpt lat="34.43932979087191" lon="8.45043822604999"><ele>389.5</ele><time>2026-04-08T10:59:06Z</time></trkpt><trkpt lat="34.43918644325982" lon="8.450670356626595"><ele>389.0</ele><time>2026-04-08T10:59:07Z</time></trkpt><trkpt lat="34.43904280611867" lon="8.450907734790732"><ele>389.0</ele><time>2026-04-08T10:59:08Z</time></trkpt><trkpt lat="34.43889936533121" lon="8.451145451582112"><ele>389.0</ele><time>2026-04-08T10:59:09Z</time></trkpt><trkpt lat="34.438752655963114" lon="8.451385460969695"><ele>391.0</ele><time>2026-04-08T10:59:10Z</time></trkpt><trkpt lat="34.43860418552095" lon="8.451630956254304"><ele>393.0</ele><time>2026-04-08T10:59:11Z</time></trkpt><trkpt lat="34.438451903961" lon="8.451878871413191"><ele>392.5</ele><time>2026-04-08T10:59:12Z</time></trkpt><trkpt lat="34.43829337827469" lon="8.452124463264097"><ele>392.0</ele><time>2026-04-08T10:59:13Z</time></trkpt><trkpt lat="34.438137166220066" lon="8.45237067798331"><ele>392.0</ele><time>2026-04-08T10:59:14Z</time></trkpt><trkpt lat="34.43798691127244" lon="8.452621860419626"><ele>392.0</ele><time>2026-04-08T10:59:15Z</time></trkpt><trkpt lat="34.4378331318766" lon="8.452865590580984"><ele>392.5</ele><time>2026-04-08T10:59:16Z</time></trkpt><trkpt lat="34.43767398808516" lon="8.453112866972482"><ele>393.0</ele><time>2026-04-08T10:59:17Z</time></trkpt><trkpt lat="34.43751458074466" lon="8.4533665685979"><ele>393.0</ele><time>2026-04-08T10:59:18Z</time></trkpt><trkpt lat="34.4373537258206" lon="8.453626359371524"><ele>393.0</ele><time>2026-04-08T10:59:19Z</time></trkpt><trkpt lat="34.43719287450977" lon="8.453887876312175"><ele>394.0</ele><time>2026-04-08T10:59:20Z</time></trkpt><trkpt lat="34.43703190319023" lon="8.45415302590369"><ele>395.0</ele><time>2026-04-08T10:59:21Z</time></trkpt><trkpt lat="34.4368701806461" lon="8.454416170133989"><ele>395.0</ele><time>2026-04-08T10:59:22Z</time></trkpt><trkpt lat="34.43670805566496" lon="8.45467669809732"><ele>395.0</ele><time>2026-04-08T10:59:23Z</time></trkpt><trkpt lat="34.43654218599903" lon="8.454942660402997"><ele>395.0</ele><time>2026-04-08T10:59:24Z</time></trkpt><trkpt lat="34.436378606839355" lon="8.45521403527966"><ele>395.0</ele><time>2026-04-08T10:59:25Z</time></trkpt><trkpt lat="34.43621620603155" lon="8.455487758365061"><ele>395.5</ele><time>2026-04-08T10:59:26Z</time></trkpt><trkpt lat="34.43605188995057" lon="8.455762538152117"><ele>396.0</ele><time>2026-04-08T10:59:27Z</time></trkpt><trkpt lat="34.43588487443186" lon="8.456034072709375"><ele>395.5</ele><time>2026-04-08T10:59:28Z</time></trkpt><trkpt lat="34.43571522007211" lon="8.456301649674986"><ele>395.0</ele><time>2026-04-08T10:59:29Z</time></trkpt><trkpt lat="34.43554420001355" lon="8.456567848021669"><ele>395.5</ele><time>2026-04-08T10:59:30Z</time></trkpt><trkpt lat="34.43537180179071" lon="8.456835302469775"><ele>396.0</ele><time>2026-04-08T10:59:31Z</time></trkpt><trkpt lat="34.4352095613507" lon="8.457105123194486"><ele>396.5</ele><time>2026-04-08T10:59:32Z</time></trkpt><trkpt lat="34.43504560414106" lon="8.457378036001886"><ele>397.0</ele><time>2026-04-08T10:59:33Z</time></trkpt><trkpt lat="34.43488097424706" lon="8.457649193873813"><ele>397.0</ele><time>2026-04-08T10:59:34Z</time></trkpt><trkpt lat="34.43471057401306" lon="8.457918728322126"><ele>397.0</ele><time>2026-04-08T10:59:35Z</time></trkpt><trkpt lat="34.43453709762625" lon="8.458178736041061"><ele>397.5</ele><time>2026-04-08T10:59:36Z</time></trkpt><trkpt lat="34.434370580247176" lon="8.458434607677578"><ele>398.0</ele><time>2026-04-08T10:59:37Z</time></trkpt><trkpt lat="34.43421000898631" lon="8.458695576415844"><ele>398.0</ele><time>2026-04-08T10:59:38Z</time></trkpt><trkpt lat="34.43405020203029" lon="8.458961317518733"><ele>398.0</ele><time>2026-04-08T10:59:39Z</time></trkpt><trkpt lat="34.43388999397541" lon="8.459221836761584"><ele>398.5</ele><time>2026-04-08T10:59:39.999Z</time></trkpt><trkpt lat="34.43372870924484" lon="8.459481554303553"><ele>399.0</ele><time>2026-04-08T10:59:40.999Z</time></trkpt><trkpt lat="34.43356348395614" lon="8.459737552737932"><ele>399.0</ele><time>2026-04-08T10:59:41.999Z</time></trkpt><trkpt lat="34.4333963148678" lon="8.459986979111598"><ele>399.0</ele><time>2026-04-08T10:59:42.999Z</time></trkpt><trkpt lat="34.433231295845225" lon="8.460234569948712"><ele>398.5</ele><time>2026-04-08T10:59:43.999Z</time></trkpt><trkpt lat="34.43307248869219" lon="8.460487009758912"><ele>398.0</ele><time>2026-04-08T10:59:44.999Z</time></trkpt><trkpt lat="34.432918149352886" lon="8.460736505133099"><ele>399.5</ele><time>2026-04-08T10:59:45.999Z</time></trkpt><trkpt lat="34.43276576368752" lon="8.460984925248017"><ele>401.0</ele><time>2026-04-08T10:59:46.999Z</time></trkpt><trkpt lat="34.432616241368066" lon="8.461229184874536"><ele>400.5</ele><time>2026-04-08T10:59:47.999Z</time></trkpt><trkpt lat="34.43246878212826" lon="8.461474189023585"><ele>400.0</ele><time>2026-04-08T10:59:48.999Z</time></trkpt><trkpt lat="34.432320421656954" lon="8.461719837795359"><ele>400.0</ele><time>2026-04-08T10:59:49.999Z</time></trkpt><trkpt lat="34.43216861171314" lon="8.461962658961887"><ele>400.0</ele><time>2026-04-08T10:59:50.999Z</time></trkpt><trkpt lat="34.43201689495774" lon="8.462206122233642"><ele>400.5</ele><time>2026-04-08T10:59:51.999Z</time></trkpt><trkpt lat="34.43186324212251" lon="8.462454702511053"><ele>401.0</ele><time>2026-04-08T10:59:52.999Z</time></trkpt><trkpt lat="34.4317083966313" lon="8.462705629019727"><ele>401.0</ele><time>2026-04-08T10:59:53.999Z</time></trkpt><trkpt lat="34.43155199201359" lon="8.462958623354764"><ele>401.0</ele><time>2026-04-08T10:59:54.999Z</time></trkpt><trkpt lat="34.43139538041946" lon="8.463214485028448"><ele>404.0</ele><time>2026-04-08T10:59:55.999Z</time></trkpt><trkpt lat="34.43124282757644" lon="8.463466364366669"><ele>407.0</ele><time>2026-04-08T10:59:56.999Z</time></trkpt><trkpt lat="34.43109174374308" lon="8.463711256134252"><ele>406.0</ele><time>2026-04-08T10:59:57.999Z</time></trkpt><trkpt lat="34.43094779285288" lon="8.463942225634527"><ele>405.0</ele><time>2026-04-08T10:59:58.999Z</time></trkpt><trkpt lat="34.43080649614703" lon="8.464167652871021"><ele>405.0</ele><time>2026-04-08T10:59:59.999Z</time></trkpt><trkpt lat="34.43066344361554" lon="8.464389332374314"><ele>405.0</ele><time>2026-04-08T11:00:00.999Z</time></trkpt><trkpt lat="34.43051721301402" lon="8.464610538530422"><ele>404.5</ele><time>2026-04-08T11:00:01.999Z</time></trkpt><trkpt lat="34.43036784999495" lon="8.464830941926778"><ele>404.0</ele><time>2026-04-08T11:00:02.999Z</time></trkpt><trkpt lat="34.4302217120978" lon="8.465045386565789"><ele>404.0</ele><time>2026-04-08T11:00:03.999Z</time></trkpt><trkpt lat="34.43007755700237" lon="8.465262962388984"><ele>404.0</ele><time>2026-04-08T11:00:04.999Z</time></trkpt><trkpt lat="34.42993685870544" lon="8.465474127269358"><ele>404.3333333333333</ele><time>2026-04-08T11:00:05.999Z</time></trkpt><trkpt lat="34.42980543934216" lon="8.465676292391036"><ele>404.66666666666663</ele><time>2026-04-08T11:00:06.999Z</time></trkpt><trkpt lat="34.429678621566396" lon="8.465876582149289"><ele>405.0</ele><time>2026-04-08T11:00:07.999Z</time></trkpt><trkpt lat="34.42954929067969" lon="8.46607970128042"><ele>407.33333333333337</ele><time>2026-04-08T11:00:08.999Z</time></trkpt><trkpt lat="34.42941922531276" lon="8.466289926665059"><ele>409.6666666666667</ele><time>2026-04-08T11:00:09.999Z</time></trkpt><trkpt lat="34.429289459528206" lon="8.466502135085964"><ele>412.0</ele><time>2026-04-08T11:00:10.999Z</time></trkpt><trkpt lat="34.42916188198081" lon="8.466710342940596"><ele>412.0</ele><time>2026-04-08T11:00:11.999Z</time></trkpt><trkpt lat="34.42904036601379" lon="8.466916039881811"><ele>412.0</ele><time>2026-04-08T11:00:12.999Z</time></trkpt><trkpt lat="34.428920831572896" lon="8.46712089370376"><ele>412.0</ele><time>2026-04-08T11:00:13.999Z</time></trkpt><trkpt lat="34.42880269400369" lon="8.46732150449136"><ele>411.6666666666667</ele><time>2026-04-08T11:00:14.999Z</time></trkpt><trkpt lat="34.428682950665866" lon="8.467521834989913"><ele>411.33333333333337</ele><time>2026-04-08T11:00:15.999Z</time></trkpt><trkpt lat="34.42855975178279" lon="8.467728703754329"><ele>411.0</ele><time>2026-04-08T11:00:16.999Z</time></trkpt><trkpt lat="34.428435258354035" lon="8.467941569300194"><ele>410.66666666666663</ele><time>2026-04-08T11:00:17.999Z</time></trkpt><trkpt lat="34.42831052948852" lon="8.468154097730611"><ele>410.3333333333333</ele><time>2026-04-08T11:00:18.999Z</time></trkpt><trkpt lat="34.428185014118974" lon="8.468365128109513"><ele>410.0</ele><time>2026-04-08T11:00:19.999Z</time></trkpt><trkpt lat="34.42805867263936" lon="8.468575690011557"><ele>410.3333333333333</ele><time>2026-04-08T11:00:20.999Z</time></trkpt><trkpt lat="34.42793170295155" lon="8.468785804032375"><ele>410.66666666666663</ele><time>2026-04-08T11:00:21.999Z</time></trkpt><trkpt lat="34.42780550356463" lon="8.468998602869894"><ele>411.0</ele><time>2026-04-08T11:00:22.999Z</time></trkpt><trkpt lat="34.42767711576459" lon="8.469213358676551"><ele>411.0</ele><time>2026-04-08T11:00:23.999Z</time></trkpt><trkpt lat="34.42754179218615" lon="8.469430813969455"><ele>411.0</ele><time>2026-04-08T11:00:24.999Z</time></trkpt><trkpt lat="34.42740288530871" lon="8.469654708778668"><ele>411.0</ele><time>2026-04-08T11:00:25.999Z</time></trkpt><trkpt lat="34.427268338119035" lon="8.469879898729648"><ele>411.0</ele><time>2026-04-08T11:00:26.999Z</time></trkpt><trkpt lat="34.42714318262219" lon="8.470096640463913"><ele>411.0</ele><time>2026-04-08T11:00:27.999Z</time></trkpt><trkpt lat="34.427014191274246" lon="8.47031155940557"><ele>410.33333333333337</ele><time>2026-04-08T11:00:28.999Z</time></trkpt><trkpt lat="34.42688781451372" lon="8.470510812928305"><ele>409.6666666666667</ele><time>2026-04-08T11:00:29.999Z</time></trkpt><trkpt lat="34.42675838018359" lon="8.47070080238248"><ele>409.0</ele><time>2026-04-08T11:00:30.999Z</time></trkpt><trkpt lat="34.42662735611954" lon="8.470900897164961"><ele>409.0</ele><time>2026-04-08T11:00:31.999Z</time></trkpt><trkpt lat="34.42649715150573" lon="8.471105192393582"><ele>409.0</ele><time>2026-04-08T11:00:33Z</time></trkpt><trkpt lat="34.426366553588636" lon="8.471313794244638"><ele>409.0</ele><time>2026-04-08T11:00:34Z</time></trkpt><trkpt lat="34.426239338766" lon="8.471519310320698"><ele>410.0</ele><time>2026-04-08T11:00:35Z</time></trkpt><trkpt lat="34.42611512304941" lon="8.471725777997246"><ele>411.0</ele><time>2026-04-08T11:00:36Z</time></trkpt><trkpt lat="34.425995447600606" lon="8.47192111462261"><ele>412.0</ele><time>2026-04-08T11:00:37Z</time></trkpt><trkpt lat="34.425879101638564" lon="8.47210182963698"><ele>412.33333333333337</ele><time>2026-04-08T11:00:38Z</time></trkpt><trkpt lat="34.425756596354994" lon="8.472285905331448"><ele>412.66666666666663</ele><time>2026-04-08T11:00:39Z</time></trkpt><trkpt lat="34.4256324792391" lon="8.472483263706472"><ele>413.0</ele><time>2026-04-08T11:00:40Z</time></trkpt><trkpt lat="34.425505417429676" lon="8.472689035563253"><ele>412.66666666666663</ele><time>2026-04-08T11:00:41Z</time></trkpt><trkpt lat="34.42537676399118" lon="8.472892653659564"><ele>412.33333333333337</ele><time>2026-04-08T11:00:42Z</time></trkpt><trkpt lat="34.425248240929655" lon="8.473097146421106"><ele>412.0</ele><time>2026-04-08T11:00:43Z</time></trkpt><trkpt lat="34.42511976116365" lon="8.47330312420346"><ele>412.0</ele><time>2026-04-08T11:00:44Z</time></trkpt><trkpt lat="34.42498882322441" lon="8.473512444984802"><ele>412.0</ele><time>2026-04-08T11:00:45Z</time></trkpt><trkpt lat="34.42486035885096" lon="8.473724615213548"><ele>412.0</ele><time>2026-04-08T11:00:46Z</time></trkpt><trkpt lat="34.42472707587366" lon="8.473946079551881"><ele>412.0</ele><time>2026-04-08T11:00:47Z</time></trkpt><trkpt lat="34.424588630427806" lon="8.474175375063428"><ele>412.0</ele><time>2026-04-08T11:00:48Z</time></trkpt><trkpt lat="34.42444694920629" lon="8.47440965496593"><ele>413.5</ele><time>2026-04-08T11:00:49Z</time></trkpt><trkpt lat="34.42430199091057" lon="8.474649535058756"><ele>415.0</ele><time>2026-04-08T11:00:50Z</time></trkpt><trkpt lat="34.424157818932215" lon="8.474886040133638"><ele>415.0</ele><time>2026-04-08T11:00:51.001Z</time></trkpt><trkpt lat="34.42400796742131" lon="8.475125632345748"><ele>415.0</ele><time>2026-04-08T11:00:52.001Z</time></trkpt><trkpt lat="34.42385600065187" lon="8.475368517737165"><ele>416.5</ele><time>2026-04-08T11:00:53.001Z</time></trkpt><trkpt lat="34.423695433679846" lon="8.475615859360396"><ele>418.0</ele><time>2026-04-08T11:00:54.001Z</time></trkpt><trkpt lat="34.423533935336685" lon="8.475865355663379"><ele>418.0</ele><time>2026-04-08T11:00:55.001Z</time></trkpt><trkpt lat="34.42337383698449" lon="8.476120819734216"><ele>418.0</ele><time>2026-04-08T11:00:56.001Z</time></trkpt><trkpt lat="34.42321787886884" lon="8.476376881799261"><ele>416.5</ele><time>2026-04-08T11:00:57.001Z</time></trkpt><trkpt lat="34.42305987189872" lon="8.476634903371615"><ele>415.0</ele><time>2026-04-08T11:00:58.001Z</time></trkpt><trkpt lat="34.422898842378004" lon="8.476892704613443"><ele>414.5</ele><time>2026-04-08T11:00:59.001Z</time></trkpt><trkpt lat="34.42273783487834" lon="8.477152416529801"><ele>414.0</ele><time>2026-04-08T11:01:00.001Z</time></trkpt><trkpt lat="34.42257665857569" lon="8.477414247408301"><ele>414.0</ele><time>2026-04-08T11:01:01.001Z</time></trkpt><trkpt lat="34.42241561542183" lon="8.477675794577518"><ele>414.0</ele><time>2026-04-08T11:01:02.001Z</time></trkpt><trkpt lat="34.42225059560147" lon="8.477934877787602"><ele>412.5</ele><time>2026-04-08T11:01:03.001Z</time></trkpt><trkpt lat="34.42208717803437" lon="8.478197116371877"><ele>411.0</ele><time>2026-04-08T11:01:04.001Z</time></trkpt><trkpt lat="34.42192503185645" lon="8.478461185448566"><ele>411.0</ele><time>2026-04-08T11:01:05.001Z</time></trkpt><trkpt lat="34.421760861700356" lon="8.478723899868928"><ele>411.0</ele><time>2026-04-08T11:01:06.001Z</time></trkpt><trkpt lat="34.42158902041975" lon="8.478990652150364"><ele>412.5</ele><time>2026-04-08T11:01:07.001Z</time></trkpt><trkpt lat="34.42140740755461" lon="8.47926217781624"><ele>414.0</ele><time>2026-04-08T11:01:08.001Z</time></trkpt><trkpt lat="34.42121317212855" lon="8.479537102033316"><ele>416.5</ele><time>2026-04-08T11:01:09.001Z</time></trkpt><trkpt lat="34.421018029438386" lon="8.479809095723327"><ele>419.0</ele><time>2026-04-08T11:01:10.001Z</time></trkpt><trkpt lat="34.420823380021965" lon="8.480081311395354"><ele>419.0</ele><time>2026-04-08T11:01:11.001Z</time></trkpt><trkpt lat="34.420624945566246" lon="8.480359642670818"><ele>419.0</ele><time>2026-04-08T11:01:12.001Z</time></trkpt><trkpt lat="34.42042114367309" lon="8.480646130200286"><ele>414.0</ele><time>2026-04-08T11:01:13.001Z</time></trkpt><trkpt lat="34.420211747605386" lon="8.480938825144948"><ele>409.0</ele><time>2026-04-08T11:01:14.001Z</time></trkpt><trkpt lat="34.419994398899846" lon="8.48125301551982"><ele>409.5</ele><time>2026-04-08T11:01:15.001Z</time></trkpt><trkpt lat="34.419772471163895" lon="8.481584126107714"><ele>410.0</ele><time>2026-04-08T11:01:16.001Z</time></trkpt><trkpt lat="34.41955005886314" lon="8.481930024142136"><ele>412.5</ele><time>2026-04-08T11:01:17.001Z</time></trkpt><trkpt lat="34.419346445936434" lon="8.482273083407089"><ele>415.0</ele><time>2026-04-08T11:01:18.001Z</time></trkpt><trkpt lat="34.4191648386813" lon="8.482589261265167"><ele>415.0</ele><time>2026-04-08T11:01:19.001Z</time></trkpt><trkpt lat="34.41899955294719" lon="8.482884112399242"><ele>415.0</ele><time>2026-04-08T11:01:20.001Z</time></trkpt><trkpt lat="34.418843808320375" lon="8.48316282567526"><ele>417.0</ele><time>2026-04-08T11:01:21.001Z</time></trkpt><trkpt lat="34.41869629349111" lon="8.483425609347114"><ele>419.0</ele><time>2026-04-08T11:01:22.001Z</time></trkpt><trkpt lat="34.41854708732279" lon="8.483692992529956"><ele>418.5</ele><time>2026-04-08T11:01:23.001Z</time></trkpt><trkpt lat="34.4184009083488" lon="8.483962963890894"><ele>418.0</ele><time>2026-04-08T11:01:24.001Z</time></trkpt><trkpt lat="34.41825935581166" lon="8.484229092695406"><ele>418.0</ele><time>2026-04-08T11:01:25.001Z</time></trkpt><trkpt lat="34.418125410734085" lon="8.484478956895286"><ele>418.0</ele><time>2026-04-08T11:01:26.001Z</time></trkpt><trkpt lat="34.41799758953071" lon="8.484714051717132"><ele>419.5</ele><time>2026-04-08T11:01:27.001Z</time></trkpt><trkpt lat="34.41786854518504" lon="8.484951773071833"><ele>421.0</ele><time>2026-04-08T11:01:28.001Z</time></trkpt><trkpt lat="34.4177416236658" lon="8.485189174888985"><ele>421.0</ele><time>2026-04-08T11:01:29.001Z</time></trkpt><trkpt lat="34.417614099479394" lon="8.48542557397016"><ele>421.0</ele><time>2026-04-08T11:01:30.001Z</time></trkpt><trkpt lat="34.417486431908216" lon="8.485662420156267"><ele>423.5</ele><time>2026-04-08T11:01:31.001Z</time></trkpt><trkpt lat="34.41735573983656" lon="8.485903964129124"><ele>426.0</ele><time>2026-04-08T11:01:32.001Z</time></trkpt><trkpt lat="34.41722185890103" lon="8.486146710608358"><ele>431.0</ele><time>2026-04-08T11:01:33.001Z</time></trkpt><trkpt lat="34.41708938997356" lon="8.486387171127063"><ele>436.0</ele><time>2026-04-08T11:01:34Z</time></trkpt><trkpt lat="34.416955513602765" lon="8.486626930419309"><ele>436.0</ele><time>2026-04-08T11:01:35Z</time></trkpt><trkpt lat="34.41682137225954" lon="8.486867492472042"><ele>436.0</ele><time>2026-04-08T11:01:36Z</time></trkpt><trkpt lat="34.41668714072267" lon="8.487111791399137"><ele>432.5</ele><time>2026-04-08T11:01:37Z</time></trkpt><trkpt lat="34.416551586764264" lon="8.487363112093778"><ele>429.0</ele><time>2026-04-08T11:01:38Z</time></trkpt><trkpt lat="34.41640975273362" lon="8.487623040389185"><ele>428.0</ele><time>2026-04-08T11:01:39Z</time></trkpt><trkpt lat="34.41626378591232" lon="8.487893071163702"><ele>427.0</ele><time>2026-04-08T11:01:40Z</time></trkpt><trkpt lat="34.41611475085954" lon="8.48817005259617"><ele>426.0</ele><time>2026-04-08T11:01:41Z</time></trkpt><trkpt lat="34.415967222439676" lon="8.48844773176513"><ele>425.0</ele><time>2026-04-08T11:01:42Z</time></trkpt><trkpt lat="34.415822638896095" lon="8.488715712167513"><ele>424.5</ele><time>2026-04-08T11:01:43Z</time></trkpt><trkpt lat="34.41567834250482" lon="8.488972533194909"><ele>424.0</ele><time>2026-04-08T11:01:44Z</time></trkpt><trkpt lat="34.41553846530158" lon="8.489223736282119"><ele>425.0</ele><time>2026-04-08T11:01:45Z</time></trkpt><trkpt lat="34.415404264851844" lon="8.489471654021841"><ele>426.0</ele><time>2026-04-08T11:01:46Z</time></trkpt><trkpt lat="34.41527810877448" lon="8.489690757983595"><ele>426.66666666666663</ele><time>2026-04-08T11:01:47Z</time></trkpt><trkpt lat="34.41515224774727" lon="8.489894420021933"><ele>427.3333333333333</ele><time>2026-04-08T11:01:48Z</time></trkpt><trkpt lat="34.41502451834555" lon="8.490089910058543"><ele>428.0</ele><time>2026-04-08T11:01:49Z</time></trkpt><trkpt lat="34.41488693435877" lon="8.490295270732874"><ele>428.0</ele><time>2026-04-08T11:01:50Z</time></trkpt><trkpt lat="34.41474605700298" lon="8.49050311997571"><ele>428.0</ele><time>2026-04-08T11:01:51Z</time></trkpt><trkpt lat="34.41460551424504" lon="8.490702473420162"><ele>428.0</ele><time>2026-04-08T11:01:52Z</time></trkpt><trkpt lat="34.414471671657004" lon="8.490885391301214"><ele>428.0</ele><time>2026-04-08T11:01:53Z</time></trkpt><trkpt lat="34.414343330415456" lon="8.491051614564048"><ele>428.0</ele><time>2026-04-08T11:01:54Z</time></trkpt><trkpt lat="34.414207278361204" lon="8.491213781637814"><ele>428.0</ele><time>2026-04-08T11:01:55Z</time></trkpt><trkpt lat="34.41406418513764" lon="8.491374997402787"><ele>426.66666666666663</ele><time>2026-04-08T11:01:56Z</time></trkpt><trkpt lat="34.413909585856956" lon="8.491535709507726"><ele>425.33333333333337</ele><time>2026-04-08T11:01:57Z</time></trkpt><trkpt lat="34.4137467016059" lon="8.491695441226499"><ele>424.0</ele><time>2026-04-08T11:01:58Z</time></trkpt><trkpt lat="34.41358250500266" lon="8.491856272739494"><ele>424.0</ele><time>2026-04-08T11:01:59Z</time></trkpt><trkpt lat="34.41340998974363" lon="8.492022438543726"><ele>424.0</ele><time>2026-04-08T11:02:00Z</time></trkpt><trkpt lat="34.41323759887111" lon="8.4921833241863"><ele>424.0</ele><time>2026-04-08T11:02:01Z</time></trkpt><trkpt lat="34.413055586779336" lon="8.492340938777483"><ele>423.0</ele><time>2026-04-08T11:02:02Z</time></trkpt><trkpt lat="34.41286400182259" lon="8.49249617692652"><ele>422.0</ele><time>2026-04-08T11:02:03Z</time></trkpt><trkpt lat="34.41265633912262" lon="8.49264139713704"><ele>422.0</ele><time>2026-04-08T11:02:04Z</time></trkpt><trkpt lat="34.41243930693728" lon="8.49278325362763"><ele>422.0</ele><time>2026-04-08T11:02:05Z</time></trkpt><trkpt lat="34.412219354429766" lon="8.492921064722887"><ele>425.0</ele><time>2026-04-08T11:02:06Z</time></trkpt><trkpt lat="34.41199800661289" lon="8.493059031515408"><ele>428.0</ele><time>2026-04-08T11:02:07Z</time></trkpt><trkpt lat="34.4117753627594" lon="8.493196901035105"><ele>428.0</ele><time>2026-04-08T11:02:08Z</time></trkpt><trkpt lat="34.41155205481012" lon="8.493330942026294"><ele>428.0</ele><time>2026-04-08T11:02:09Z</time></trkpt><trkpt lat="34.41133091015581" lon="8.493463777738992"><ele>429.0</ele><time>2026-04-08T11:02:10Z</time></trkpt><trkpt lat="34.41111570908155" lon="8.493591240818056"><ele>430.0</ele><time>2026-04-08T11:02:11Z</time></trkpt><trkpt lat="34.410919507321495" lon="8.493710334481143"><ele>430.33333333333337</ele><time>2026-04-08T11:02:12Z</time></trkpt><trkpt lat="34.41074170788285" lon="8.493830644114531"><ele>430.66666666666663</ele><time>2026-04-08T11:02:13Z</time></trkpt><trkpt lat="34.410575268784775" lon="8.49396513625942"><ele>431.0</ele><time>2026-04-08T11:02:14Z</time></trkpt><trkpt lat="34.41040908799947" lon="8.49411803583591"><ele>431.0</ele><time>2026-04-08T11:02:15Z</time></trkpt><trkpt lat="34.41024786303719" lon="8.494286069793798"><ele>431.0</ele><time>2026-04-08T11:02:16Z</time></trkpt><trkpt lat="34.41009438462702" lon="8.494465952106049"><ele>431.0</ele><time>2026-04-08T11:02:17Z</time></trkpt><trkpt lat="34.40995021943387" lon="8.494652154136013"><ele>431.0</ele><time>2026-04-08T11:02:18Z</time></trkpt><trkpt lat="34.409825553865545" lon="8.49484305467801"><ele>431.0</ele><time>2026-04-08T11:02:19Z</time></trkpt><trkpt lat="34.40970621312797" lon="8.495040851786445"><ele>431.0</ele><time>2026-04-08T11:02:20Z</time></trkpt><trkpt lat="34.40959597867194" lon="8.495237944149105"><ele>432.3333333333333</ele><time>2026-04-08T11:02:21Z</time></trkpt><trkpt lat="34.409483534783824" lon="8.495429380894448"><ele>433.66666666666663</ele><time>2026-04-08T11:02:22Z</time></trkpt><trkpt lat="34.40937664253981" lon="8.49560404753463"><ele>435.0</ele><time>2026-04-08T11:02:23Z</time></trkpt><trkpt lat="34.40927420709374" lon="8.495772991683"><ele>435.0</ele><time>2026-04-08T11:02:24Z</time></trkpt><trkpt lat="34.409169792453945" lon="8.495940812912462"><ele>435.0</ele><time>2026-04-08T11:02:25Z</time></trkpt><trkpt lat="34.40906787579308" lon="8.496109628768775"><ele>435.0</ele><time>2026-04-08T11:02:26Z</time></trkpt><trkpt lat="34.408964396067596" lon="8.496279967707633"><ele>435.0</ele><time>2026-04-08T11:02:27Z</time></trkpt><trkpt lat="34.408862387598774" lon="8.496449685711717"><ele>435.0</ele><time>2026-04-08T11:02:28Z</time></trkpt><trkpt lat="34.408760857425044" lon="8.496619357656373"><ele>435.0</ele><time>2026-04-08T11:02:29Z</time></trkpt><trkpt lat="34.40865620744499" lon="8.496787983844731"><ele>435.0</ele><time>2026-04-08T11:02:30Z</time></trkpt><trkpt lat="34.408553807019885" lon="8.496955362870713"><ele>435.0</ele><time>2026-04-08T11:02:31Z</time></trkpt><trkpt lat="34.408450656533766" lon="8.497127103429412"><ele>435.0</ele><time>2026-04-08T11:02:32Z</time></trkpt><trkpt lat="34.408340952440014" lon="8.497310811409191"><ele>435.33333333333337</ele><time>2026-04-08T11:02:33Z</time></trkpt><trkpt lat="34.40822787884492" lon="8.497497653893307"><ele>435.6666666666667</ele><time>2026-04-08T11:02:34Z</time></trkpt><trkpt lat="34.40810831090088" lon="8.497688619174012"><ele>436.0</ele><time>2026-04-08T11:02:35Z</time></trkpt><trkpt lat="34.40799007779279" lon="8.497877030848796"><ele>436.33333333333337</ele><time>2026-04-08T11:02:36Z</time></trkpt><trkpt lat="34.407864622764265" lon="8.498070482455345"><ele>436.66666666666663</ele><time>2026-04-08T11:02:37Z</time></trkpt><trkpt lat="34.40773001614544" lon="8.498269158622216"><ele>437.0</ele><time>2026-04-08T11:02:38Z</time></trkpt><trkpt lat="34.407592823541634" lon="8.498467227704099"><ele>437.0</ele><time>2026-04-08T11:02:39Z</time></trkpt><trkpt lat="34.407455707296926" lon="8.498671467784023"><ele>437.0</ele><time>2026-04-08T11:02:40Z</time></trkpt><trkpt lat="34.40731275148485" lon="8.498885651914161"><ele>437.0</ele><time>2026-04-08T11:02:41Z</time></trkpt><trkpt lat="34.407172283486815" lon="8.49910317147779"><ele>435.5</ele><time>2026-04-08T11:02:42Z</time></trkpt><trkpt lat="34.40702146350484" lon="8.499329371602121"><ele>434.0</ele><time>2026-04-08T11:02:43Z</time></trkpt><trkpt lat="34.406865761723445" lon="8.499557220470871"><ele>433.0</ele><time>2026-04-08T11:02:44Z</time></trkpt><trkpt lat="34.40671142303044" lon="8.499785705976056"><ele>432.0</ele><time>2026-04-08T11:02:45Z</time></trkpt><trkpt lat="34.40654909286657" lon="8.500017762769863"><ele>432.0</ele><time>2026-04-08T11:02:46Z</time></trkpt><trkpt lat="34.40638735706719" lon="8.5002551349819"><ele>432.0</ele><time>2026-04-08T11:02:47Z</time></trkpt><trkpt lat="34.406225773965026" lon="8.500494205532972"><ele>430.5</ele><time>2026-04-08T11:02:48Z</time></trkpt><trkpt lat="34.406065901300195" lon="8.500736747960449"><ele>429.0</ele><time>2026-04-08T11:02:49Z</time></trkpt><trkpt lat="34.40590882306137" lon="8.500976829746794"><ele>429.0</ele><time>2026-04-08T11:02:50Z</time></trkpt><trkpt lat="34.40575844641594" lon="8.5012064285926"><ele>429.0</ele><time>2026-04-08T11:02:51Z</time></trkpt><trkpt lat="34.40560585510142" lon="8.50144004212476"><ele>429.5</ele><time>2026-04-08T11:02:52Z</time></trkpt><trkpt lat="34.40545128165504" lon="8.501678421033274"><ele>430.0</ele><time>2026-04-08T11:02:53Z</time></trkpt><trkpt lat="34.40529607591455" lon="8.501915959912168"><ele>430.0</ele><time>2026-04-08T11:02:54Z</time></trkpt><trkpt lat="34.40513839398542" lon="8.502154444175941"><ele>430.0</ele><time>2026-04-08T11:02:55Z</time></trkpt><trkpt lat="34.40498205805564" lon="8.502392510176625"><ele>430.0</ele><time>2026-04-08T11:02:56Z</time></trkpt><trkpt lat="34.40482643578317" lon="8.502631661454544"><ele>430.0</ele><time>2026-04-08T11:02:57.001Z</time></trkpt><trkpt lat="34.404675196532835" lon="8.50286500852481"><ele>432.5</ele><time>2026-04-08T11:02:58.001Z</time></trkpt><trkpt lat="34.404530588625356" lon="8.503083084428745"><ele>435.0</ele><time>2026-04-08T11:02:59.001Z</time></trkpt><trkpt lat="34.40438927728371" lon="8.50329252349019"><ele>435.0</ele><time>2026-04-08T11:03:00.001Z</time></trkpt><trkpt lat="34.40425055538733" lon="8.503498448309681"><ele>435.0</ele><time>2026-04-08T11:03:01.001Z</time></trkpt><trkpt lat="34.40411927732544" lon="8.50369714732455"><ele>435.0</ele><time>2026-04-08T11:03:02.001Z</time></trkpt><trkpt lat="34.403989391340275" lon="8.503891056230476"><ele>435.66666666666663</ele><time>2026-04-08T11:03:03.001Z</time></trkpt><trkpt lat="34.40385741239122" lon="8.504086017430113"><ele>436.3333333333333</ele><time>2026-04-08T11:03:04.001Z</time></trkpt><trkpt lat="34.403725347760215" lon="8.504278310932936"><ele>437.0</ele><time>2026-04-08T11:03:05.001Z</time></trkpt><trkpt lat="34.40359535030586" lon="8.504466916438426"><ele>439.66666666666663</ele><time>2026-04-08T11:03:06.001Z</time></trkpt><trkpt lat="34.40346227142454" lon="8.504654699600296"><ele>442.33333333333337</ele><time>2026-04-08T11:03:07.001Z</time></trkpt><trkpt lat="34.40332762300086" lon="8.504833826017158"><ele>445.0</ele><time>2026-04-08T11:03:08.001Z</time></trkpt><trkpt lat="34.40318756937882" lon="8.505005386582203"><ele>445.0</ele><time>2026-04-08T11:03:09.001Z</time></trkpt><trkpt lat="34.40303991338798" lon="8.505161797399808"><ele>445.0</ele><time>2026-04-08T11:03:10.001Z</time></trkpt><trkpt lat="34.4028857104242" lon="8.505304701078419"><ele>445.0</ele><time>2026-04-08T11:03:11.001Z</time></trkpt><trkpt lat="34.40272420814462" lon="8.505445781486673"><ele>447.33333333333337</ele><time>2026-04-08T11:03:12.001Z</time></trkpt><trkpt lat="34.40255843836718" lon="8.505591006688237"><ele>449.66666666666663</ele><time>2026-04-08T11:03:13.001Z</time></trkpt><trkpt lat="34.40239532469968" lon="8.505735011861596"><ele>452.0</ele><time>2026-04-08T11:03:14.001Z</time></trkpt><trkpt lat="34.402230752267215" lon="8.50588076390378"><ele>451.66666666666663</ele><time>2026-04-08T11:03:15.001Z</time></trkpt><trkpt lat="34.40206843705014" lon="8.50602963100851"><ele>451.33333333333337</ele><time>2026-04-08T11:03:16.001Z</time></trkpt><trkpt lat="34.40190333079685" lon="8.506176562368802"><ele>451.0</ele><time>2026-04-08T11:03:17.001Z</time></trkpt><trkpt lat="34.40173458101603" lon="8.506323538966285"><ele>452.33333333333337</ele><time>2026-04-08T11:03:18.001Z</time></trkpt><trkpt lat="34.40156501812788" lon="8.50647406463463"><ele>453.66666666666663</ele><time>2026-04-08T11:03:19.001Z</time></trkpt><trkpt lat="34.401387343073786" lon="8.506635886911967"><ele>455.0</ele><time>2026-04-08T11:03:20.001Z</time></trkpt><trkpt lat="34.40120991880741" lon="8.506790933253226"><ele>455.3333333333333</ele><time>2026-04-08T11:03:21.001Z</time></trkpt><trkpt lat="34.401041048202934" lon="8.506932227940771"><ele>455.66666666666663</ele><time>2026-04-08T11:03:22.001Z</time></trkpt><trkpt lat="34.40087762109838" lon="8.507073353587431"><ele>456.0</ele><time>2026-04-08T11:03:23.001Z</time></trkpt><trkpt lat="34.400715301118105" lon="8.507223017158138"><ele>457.66666666666663</ele><time>2026-04-08T11:03:24.001Z</time></trkpt><trkpt lat="34.40055807313198" lon="8.507379875731361"><ele>459.3333333333333</ele><time>2026-04-08T11:03:25.001Z</time></trkpt><trkpt lat="34.4004079562922" lon="8.5075481421892"><ele>461.0</ele><time>2026-04-08T11:03:26.001Z</time></trkpt><trkpt lat="34.40026643208216" lon="8.50772777241675"><ele>462.0</ele><time>2026-04-08T11:03:27.001Z</time></trkpt><trkpt lat="34.40013170701596" lon="8.507919567988973"><ele>463.0</ele><time>2026-04-08T11:03:28.001Z</time></trkpt><trkpt lat="34.40000930624185" lon="8.508120694543383"><ele>464.0</ele><time>2026-04-08T11:03:29.001Z</time></trkpt><trkpt lat="34.39989700694753" lon="8.50833355418586"><ele>464.0</ele><time>2026-04-08T11:03:30.001Z</time></trkpt><trkpt lat="34.39979492554397" lon="8.508563226297222"><ele>464.0</ele><time>2026-04-08T11:03:31.001Z</time></trkpt><trkpt lat="34.39969913552783" lon="8.508811891266673"><ele>464.0</ele><time>2026-04-08T11:03:32.001Z</time></trkpt><trkpt lat="34.399614701391" lon="8.509074158429003"><ele>467.0</ele><time>2026-04-08T11:03:33Z</time></trkpt><trkpt lat="34.39954080400801" lon="8.509344483787784"><ele>470.0</ele><time>2026-04-08T11:03:34Z</time></trkpt><trkpt lat="34.39946991445466" lon="8.50961099256322"><ele>470.66666666666663</ele><time>2026-04-08T11:03:35Z</time></trkpt><trkpt lat="34.39940533042365" lon="8.509849480373443"><ele>471.33333333333337</ele><time>2026-04-08T11:03:36Z</time></trkpt><trkpt lat="34.39934314693753" lon="8.510071950473986"><ele>472.0</ele><time>2026-04-08T11:03:37Z</time></trkpt><trkpt lat="34.399281676499974" lon="8.51027935931665"><ele>473.0</ele><time>2026-04-08T11:03:38Z</time></trkpt><trkpt lat="34.399219177573876" lon="8.510483523047943"><ele>474.0</ele><time>2026-04-08T11:03:39Z</time></trkpt><trkpt lat="34.39915839784378" lon="8.510684093746283"><ele>475.0</ele><time>2026-04-08T11:03:40Z</time></trkpt><trkpt lat="34.39910454655763" lon="8.510878860907257"><ele>475.0</ele><time>2026-04-08T11:03:41Z</time></trkpt><trkpt lat="34.399055944668284" lon="8.511064142333074"><ele>475.0</ele><time>2026-04-08T11:03:42Z</time></trkpt><trkpt lat="34.399008006261816" lon="8.51124553369638"><ele>475.0</ele><time>2026-04-08T11:03:43Z</time></trkpt><trkpt lat="34.398961720457784" lon="8.511433742718227"><ele>475.33333333333337</ele><time>2026-04-08T11:03:44Z</time></trkpt><trkpt lat="34.39892165715913" lon="8.511632245819936"><ele>475.66666666666663</ele><time>2026-04-08T11:03:45Z</time></trkpt><trkpt lat="34.3988922100387" lon="8.511837575289444"><ele>476.0</ele><time>2026-04-08T11:03:46Z</time></trkpt><trkpt lat="34.39887733044185" lon="8.512047392759092"><ele>476.66666666666663</ele><time>2026-04-08T11:03:47Z</time></trkpt><trkpt lat="34.39887428212121" lon="8.512258160793957"><ele>477.33333333333337</ele><time>2026-04-08T11:03:48Z</time></trkpt><trkpt lat="34.398881948209564" lon="8.512467529415234"><ele>478.0</ele><time>2026-04-08T11:03:49Z</time></trkpt><trkpt lat="34.398900084209195" lon="8.512670266717066"><ele>478.0</ele><time>2026-04-08T11:03:50Z</time></trkpt><trkpt lat="34.398927373694505" lon="8.512870885324656"><ele>478.0</ele><time>2026-04-08T11:03:51Z</time></trkpt><trkpt lat="34.39896273304243" lon="8.513074161270458"><ele>478.0</ele><time>2026-04-08T11:03:52Z</time></trkpt><trkpt lat="34.39901521031266" lon="8.51327945555481"><ele>479.0</ele><time>2026-04-08T11:03:53Z</time></trkpt><trkpt lat="34.39908311454312" lon="8.513487704451654"><ele>480.0</ele><time>2026-04-08T11:03:54Z</time></trkpt><trkpt lat="34.399158722233196" lon="8.513692490185568"><ele>481.0</ele><time>2026-04-08T11:03:55Z</time></trkpt><trkpt lat="34.399243981959955" lon="8.513898796579518"><ele>481.0</ele><time>2026-04-08T11:03:56Z</time></trkpt><trkpt lat="34.399343556146825" lon="8.514099014472285"><ele>481.0</ele><time>2026-04-08T11:03:57Z</time></trkpt><trkpt lat="34.39946367815807" lon="8.514295982252607"><ele>481.0</ele><time>2026-04-08T11:03:58Z</time></trkpt><trkpt lat="34.399600595241964" lon="8.514481451766873"><ele>481.6666666666667</ele><time>2026-04-08T11:03:59Z</time></trkpt><trkpt lat="34.39974767479112" lon="8.514652331305369"><ele>482.33333333333337</ele><time>2026-04-08T11:04:00Z</time></trkpt><trkpt lat="34.39989487951773" lon="8.514804262793787"><ele>483.0</ele><time>2026-04-08T11:04:01Z</time></trkpt><trkpt lat="34.4000439647675" lon="8.514939077462936"><ele>483.0</ele><time>2026-04-08T11:04:02Z</time></trkpt><trkpt lat="34.400195423086345" lon="8.515059019123887"><ele>483.0</ele><time>2026-04-08T11:04:03Z</time></trkpt><trkpt lat="34.400346781635825" lon="8.515168296612261"><ele>483.0</ele><time>2026-04-08T11:04:04Z</time></trkpt><trkpt lat="34.40048725037897" lon="8.515263455271647"><ele>483.0</ele><time>2026-04-08T11:04:05Z</time></trkpt><trkpt lat="34.40061648710974" lon="8.51535937207838"><ele>483.0</ele><time>2026-04-08T11:04:06Z</time></trkpt><trkpt lat="34.40073642978149" lon="8.515450220618884"><ele>483.0</ele><time>2026-04-08T11:04:07Z</time></trkpt><trkpt lat="34.4008547097354" lon="8.515539241299198"><ele>483.0</ele><time>2026-04-08T11:04:08Z</time></trkpt><trkpt lat="34.400967516896316" lon="8.515623631038382"><ele>484.25</ele><time>2026-04-08T11:04:09Z</time></trkpt><trkpt lat="34.40107241501736" lon="8.515701903242348"><ele>485.5</ele><time>2026-04-08T11:04:10Z</time></trkpt><trkpt lat="34.40116611906084" lon="8.515769904229805"><ele>486.75</ele><time>2026-04-08T11:04:11Z</time></trkpt><trkpt lat="34.40126081394657" lon="8.515835303086316"><ele>488.0</ele><time>2026-04-08T11:04:12Z</time></trkpt><trkpt lat="34.40135634650322" lon="8.515897372888436"><ele>488.0</ele><time>2026-04-08T11:04:13Z</time></trkpt><trkpt lat="34.40145434402366" lon="8.515966753631789"><ele>488.0</ele><time>2026-04-08T11:04:14Z</time></trkpt><trkpt lat="34.40155623911353" lon="8.516044167147683"><ele>488.0</ele><time>2026-04-08T11:04:15Z</time></trkpt><trkpt lat="34.401662542140734" lon="8.516124215634653"><ele>488.0</ele><time>2026-04-08T11:04:16Z</time></trkpt><trkpt lat="34.4017740067774" lon="8.516207150799282"><ele>487.75</ele><time>2026-04-08T11:04:17Z</time></trkpt><trkpt lat="34.40189258682494" lon="8.516295538064737"><ele>487.5</ele><time>2026-04-08T11:04:18Z</time></trkpt><trkpt lat="34.402019548782576" lon="8.51639174577715"><ele>487.25</ele><time>2026-04-08T11:04:19Z</time></trkpt><trkpt lat="34.40215444485508" lon="8.516491848755878"><ele>487.0</ele><time>2026-04-08T11:04:20Z</time></trkpt><trkpt lat="34.402299610353545" lon="8.516598918381439"><ele>487.6666666666667</ele><time>2026-04-08T11:04:21Z</time></trkpt><trkpt lat="34.4024545962007" lon="8.516715859083787"><ele>488.33333333333337</ele><time>2026-04-08T11:04:22Z</time></trkpt><trkpt lat="34.40261655508803" lon="8.516838655894958"><ele>489.0</ele><time>2026-04-08T11:04:23Z</time></trkpt><trkpt lat="34.402785139116745" lon="8.516962669619739"><ele>489.66666666666663</ele><time>2026-04-08T11:04:24Z</time></trkpt><trkpt lat="34.40296146465347" lon="8.517090856134425"><ele>490.3333333333333</ele><time>2026-04-08T11:04:25Z</time></trkpt><trkpt lat="34.40314217685733" lon="8.517218195532376"><ele>491.0</ele><time>2026-04-08T11:04:26Z</time></trkpt><trkpt lat="34.40331454450123" lon="8.517343413744767"><ele>491.66666666666663</ele><time>2026-04-08T11:04:27Z</time></trkpt><trkpt lat="34.40348259615108" lon="8.517469070172277"><ele>492.33333333333337</ele><time>2026-04-08T11:04:28Z</time></trkpt><trkpt lat="34.40364935045201" lon="8.517594869580769"><ele>493.0</ele><time>2026-04-08T11:04:29Z</time></trkpt><trkpt lat="34.40381846933335" lon="8.517720293217806"><ele>493.0</ele><time>2026-04-08T11:04:30Z</time></trkpt><trkpt lat="34.403988037461275" lon="8.517843140110022"><ele>493.0</ele><time>2026-04-08T11:04:31Z</time></trkpt><trkpt lat="34.404159664397774" lon="8.517967063452549"><ele>493.0</ele><time>2026-04-08T11:04:32Z</time></trkpt><trkpt lat="34.404333287660094" lon="8.518093146420508"><ele>492.6666666666667</ele><time>2026-04-08T11:04:33Z</time></trkpt><trkpt lat="34.40451070683142" lon="8.518224143844842"><ele>492.33333333333337</ele><time>2026-04-08T11:04:34Z</time></trkpt><trkpt lat="34.40468919945894" lon="8.518360450818234"><ele>492.0</ele><time>2026-04-08T11:04:35Z</time></trkpt><trkpt lat="34.40486573513055" lon="8.518512056663534"><ele>492.0</ele><time>2026-04-08T11:04:36Z</time></trkpt><trkpt lat="34.40503750416828" lon="8.518677657205522"><ele>492.0</ele><time>2026-04-08T11:04:37Z</time></trkpt><trkpt lat="34.40520424277842" lon="8.518859171744431"><ele>492.0</ele><time>2026-04-08T11:04:38Z</time></trkpt><trkpt lat="34.40536157708452" lon="8.519057484817466"><ele>492.5</ele><time>2026-04-08T11:04:39Z</time></trkpt><trkpt lat="34.40551316049281" lon="8.519267507726719"><ele>493.0</ele><time>2026-04-08T11:04:40Z</time></trkpt><trkpt lat="34.405659329908325" lon="8.519487916821952"><ele>493.5</ele><time>2026-04-08T11:04:41Z</time></trkpt><trkpt lat="34.40579851757277" lon="8.519716591940805"><ele>494.0</ele><time>2026-04-08T11:04:42Z</time></trkpt><trkpt lat="34.40593077294185" lon="8.519955855958239"><ele>494.0</ele><time>2026-04-08T11:04:43Z</time></trkpt><trkpt lat="34.406052406267136" lon="8.52020285236522"><ele>494.0</ele><time>2026-04-08T11:04:44Z</time></trkpt><trkpt lat="34.4061583174098" lon="8.520457265745486"><ele>494.0</ele><time>2026-04-08T11:04:45Z</time></trkpt><trkpt lat="34.40624527716743" lon="8.520714681542996"><ele>494.0</ele><time>2026-04-08T11:04:46Z</time></trkpt><trkpt lat="34.4063103744035" lon="8.520965186383565"><ele>494.0</ele><time>2026-04-08T11:04:47Z</time></trkpt><trkpt lat="34.4063648005383" lon="8.521220344270086"><ele>494.0</ele><time>2026-04-08T11:04:48Z</time></trkpt><trkpt lat="34.40641239510324" lon="8.521484637147925"><ele>494.0</ele><time>2026-04-08T11:04:49Z</time></trkpt><trkpt lat="34.406452678374954" lon="8.521749828770135"><ele>494.0</ele><time>2026-04-08T11:04:50Z</time></trkpt><trkpt lat="34.40648003900442" lon="8.522005543665559"><ele>493.0</ele><time>2026-04-08T11:04:51Z</time></trkpt><trkpt lat="34.4064960665526" lon="8.52222092582547"><ele>492.0</ele><time>2026-04-08T11:04:52Z</time></trkpt><trkpt lat="34.406507020629896" lon="8.522428379072075"><ele>491.0</ele><time>2026-04-08T11:04:53Z</time></trkpt><trkpt lat="34.406509187933494" lon="8.522644079823307"><ele>491.0</ele><time>2026-04-08T11:04:54Z</time></trkpt><trkpt lat="34.40650663988709" lon="8.522866265898646"><ele>491.0</ele><time>2026-04-08T11:04:55Z</time></trkpt><trkpt lat="34.4065050300534" lon="8.523097178239714"><ele>491.0</ele><time>2026-04-08T11:04:56Z</time></trkpt><trkpt lat="34.40650160394339" lon="8.523337443691956"><ele>490.66666666666663</ele><time>2026-04-08T11:04:57Z</time></trkpt><trkpt lat="34.40649687244196" lon="8.523588206739516"><ele>490.33333333333337</ele><time>2026-04-08T11:04:58Z</time></trkpt><trkpt lat="34.40648742659986" lon="8.523843588364727"><ele>490.0</ele><time>2026-04-08T11:04:59Z</time></trkpt><trkpt lat="34.40646736577613" lon="8.524101226505643"><ele>489.0</ele><time>2026-04-08T11:05:00Z</time></trkpt><trkpt lat="34.40643549893882" lon="8.524361026464971"><ele>488.0</ele><time>2026-04-08T11:05:01Z</time></trkpt><trkpt lat="34.406391141859025" lon="8.524621890039516"><ele>487.0</ele><time>2026-04-08T11:05:02.001Z</time></trkpt><trkpt lat="34.406336314401365" lon="8.524881859588255"><ele>486.33333333333337</ele><time>2026-04-08T11:05:03.001Z</time></trkpt><trkpt lat="34.406273110470295" lon="8.525140655627524"><ele>485.66666666666663</ele><time>2026-04-08T11:05:04.001Z</time></trkpt><trkpt lat="34.40619924189403" lon="8.525392049211433"><ele>485.0</ele><time>2026-04-08T11:05:05.001Z</time></trkpt><trkpt lat="34.40612286011819" lon="8.525625198106477"><ele>484.3333333333333</ele><time>2026-04-08T11:05:06.001Z</time></trkpt><trkpt lat="34.40604250090238" lon="8.52584160630949"><ele>483.66666666666663</ele><time>2026-04-08T11:05:07.001Z</time></trkpt><trkpt lat="34.40596335556088" lon="8.526043148125941"><ele>483.0</ele><time>2026-04-08T11:05:08.001Z</time></trkpt><trkpt lat="34.40588517508255" lon="8.526227789610445"><ele>483.0</ele><time>2026-04-08T11:05:09.001Z</time></trkpt><trkpt lat="34.40580105868183" lon="8.526397915266555"><ele>483.0</ele><time>2026-04-08T11:05:10.001Z</time></trkpt><trkpt lat="34.405704708270235" lon="8.526569444881085"><ele>483.0</ele><time>2026-04-08T11:05:11.001Z</time></trkpt><trkpt lat="34.405600627425414" lon="8.526743896380566"><ele>482.0</ele><time>2026-04-08T11:05:12.001Z</time></trkpt><trkpt lat="34.40549363635406" lon="8.526917186606623"><ele>481.0</ele><time>2026-04-08T11:05:13.001Z</time></trkpt><trkpt lat="34.40538638329746" lon="8.527088246531726"><ele>480.0</ele><time>2026-04-08T11:05:14.001Z</time></trkpt><trkpt lat="34.40527596021753" lon="8.527253832222339"><ele>479.66666666666663</ele><time>2026-04-08T11:05:15.001Z</time></trkpt><trkpt lat="34.40515841952315" lon="8.527416487616572"><ele>479.3333333333333</ele><time>2026-04-08T11:05:16.001Z</time></trkpt><trkpt lat="34.40503301531137" lon="8.527578372839978"><ele>479.0</ele><time>2026-04-08T11:05:17.001Z</time></trkpt><trkpt lat="34.40489948620383" lon="8.527748823786228"><ele>478.3333333333333</ele><time>2026-04-08T11:05:18.001Z</time></trkpt><trkpt lat="34.40476921933223" lon="8.527922601718467"><ele>477.66666666666663</ele><time>2026-04-08T11:05:19.001Z</time></trkpt><trkpt lat="34.40464264145767" lon="8.528099613604766"><ele>477.0</ele><time>2026-04-08T11:05:20.001Z</time></trkpt><trkpt lat="34.40451224662166" lon="8.528277874369685"><ele>477.0</ele><time>2026-04-08T11:05:21.001Z</time></trkpt><trkpt lat="34.40438043296444" lon="8.528450482779073"><ele>477.0</ele><time>2026-04-08T11:05:22.001Z</time></trkpt><trkpt lat="34.40424838431721" lon="8.5286229927923"><ele>477.0</ele><time>2026-04-08T11:05:23.001Z</time></trkpt><trkpt lat="34.4041137535309" lon="8.528799494399758"><ele>476.66666666666663</ele><time>2026-04-08T11:05:24.001Z</time></trkpt><trkpt lat="34.40397585981264" lon="8.528981662211285"><ele>476.3333333333333</ele><time>2026-04-08T11:05:25.001Z</time></trkpt><trkpt lat="34.403840321559365" lon="8.529171200809198"><ele>476.0</ele><time>2026-04-08T11:05:26.001Z</time></trkpt><trkpt lat="34.40370028658711" lon="8.529362361346017"><ele>475.3333333333333</ele><time>2026-04-08T11:05:27.001Z</time></trkpt><trkpt lat="34.40355451178091" lon="8.529552316997366"><ele>474.66666666666663</ele><time>2026-04-08T11:05:28.001Z</time></trkpt><trkpt lat="34.40340658272928" lon="8.529740426099302"><ele>474.0</ele><time>2026-04-08T11:05:29.001Z</time></trkpt><trkpt lat="34.403263364347666" lon="8.52992399380186"><ele>473.33333333333337</ele><time>2026-04-08T11:05:30Z</time></trkpt><trkpt lat="34.403134003976064" lon="8.53009454481286"><ele>472.6666666666667</ele><time>2026-04-08T11:05:31Z</time></trkpt><trkpt lat="34.40301777545616" lon="8.530258291584289"><ele>472.0</ele><time>2026-04-08T11:05:32Z</time></trkpt><trkpt lat="34.402908941825764" lon="8.530426401670152"><ele>470.33333333333337</ele><time>2026-04-08T11:05:33Z</time></trkpt><trkpt lat="34.402805906510984" lon="8.530602809035052"><ele>468.66666666666663</ele><time>2026-04-08T11:05:34Z</time></trkpt><trkpt lat="34.40271203721812" lon="8.530790737215895"><ele>467.0</ele><time>2026-04-08T11:05:35Z</time></trkpt><trkpt lat="34.402631810149416" lon="8.530991797436787"><ele>467.0</ele><time>2026-04-08T11:05:36Z</time></trkpt><trkpt lat="34.40256369679627" lon="8.531203131223764"><ele>467.0</ele><time>2026-04-08T11:05:37Z</time></trkpt><trkpt lat="34.40251191123576" lon="8.531421474989198"><ele>467.0</ele><time>2026-04-08T11:05:38Z</time></trkpt><trkpt lat="34.4024743331248" lon="8.531642380922573"><ele>465.3333333333333</ele><time>2026-04-08T11:05:39Z</time></trkpt><trkpt lat="34.40245201290581" lon="8.531870853248622"><ele>463.66666666666663</ele><time>2026-04-08T11:05:40Z</time></trkpt><trkpt lat="34.40244763542959" lon="8.53210682365643"><ele>462.0</ele><time>2026-04-08T11:05:41Z</time></trkpt><trkpt lat="34.402463517334965" lon="8.532344056320598"><ele>459.66666666666663</ele><time>2026-04-08T11:05:42Z</time></trkpt><trkpt lat="34.40249626623412" lon="8.532584202355471"><ele>457.3333333333333</ele><time>2026-04-08T11:05:43Z</time></trkpt><trkpt lat="34.4025468466081" lon="8.532818082578169"><ele>455.0</ele><time>2026-04-08T11:05:44Z</time></trkpt><trkpt lat="34.4026141933509" lon="8.533037192244644"><ele>453.3333333333333</ele><time>2026-04-08T11:05:45Z</time></trkpt><trkpt lat="34.40269827859551" lon="8.533246493309026"><ele>451.66666666666663</ele><time>2026-04-08T11:05:46Z</time></trkpt><trkpt lat="34.402793043679715" lon="8.533446720686698"><ele>450.0</ele><time>2026-04-08T11:05:47Z</time></trkpt><trkpt lat="34.402881156580065" lon="8.533635861013726"><ele>448.66666666666663</ele><time>2026-04-08T11:05:48Z</time></trkpt><trkpt lat="34.40295972749125" lon="8.533823131700943"><ele>447.3333333333333</ele><time>2026-04-08T11:05:49Z</time></trkpt><trkpt lat="34.4030269643816" lon="8.534009360242242"><ele>446.0</ele><time>2026-04-08T11:05:50Z</time></trkpt><trkpt lat="34.40307966233844" lon="8.534199216701989"><ele>445.66666666666663</ele><time>2026-04-08T11:05:51Z</time></trkpt><trkpt lat="34.403118788701974" lon="8.534397307405841"><ele>445.33333333333337</ele><time>2026-04-08T11:05:52Z</time></trkpt><trkpt lat="34.40313864436991" lon="8.534601697941449"><ele>445.0</ele><time>2026-04-08T11:05:53Z</time></trkpt><trkpt lat="34.40315052497298" lon="8.534803866748934"><ele>443.33333333333337</ele><time>2026-04-08T11:05:54Z</time></trkpt><trkpt lat="34.40316984995195" lon="8.535003043260737"><ele>441.66666666666663</ele><time>2026-04-08T11:05:55Z</time></trkpt><trkpt lat="34.40319203803642" lon="8.535199585815398"><ele>440.0</ele><time>2026-04-08T11:05:56Z</time></trkpt><trkpt lat="34.403213701619705" lon="8.535397366739403"><ele>438.0</ele><time>2026-04-08T11:05:57Z</time></trkpt><trkpt lat="34.4032354209716" lon="8.53559335015352"><ele>436.0</ele><time>2026-04-08T11:05:58Z</time></trkpt><trkpt lat="34.403257015765085" lon="8.535789355340862"><ele>434.0</ele><time>2026-04-08T11:05:59Z</time></trkpt><trkpt lat="34.403282579157384" lon="8.53598991628834"><ele>434.0</ele><time>2026-04-08T11:06:00Z</time></trkpt><trkpt lat="34.403323928656555" lon="8.536191803246474"><ele>434.0</ele><time>2026-04-08T11:06:01Z</time></trkpt><trkpt lat="34.40338820983734" lon="8.536392013048161"><ele>434.0</ele><time>2026-04-08T11:06:02Z</time></trkpt><trkpt lat="34.40346643707814" lon="8.536589630509544"><ele>432.0</ele><time>2026-04-08T11:06:03Z</time></trkpt><trkpt lat="34.40354945808123" lon="8.536788538832134"><ele>430.0</ele><time>2026-04-08T11:06:04Z</time></trkpt><trkpt lat="34.40363368155052" lon="8.536985320420454"><ele>428.0</ele><time>2026-04-08T11:06:05Z</time></trkpt><trkpt lat="34.40371862098058" lon="8.53718688685279"><ele>425.66666666666663</ele><time>2026-04-08T11:06:06Z</time></trkpt><trkpt lat="34.40380777794692" lon="8.537394086527032"><ele>423.33333333333337</ele><time>2026-04-08T11:06:07Z</time></trkpt><trkpt lat="34.40390256959839" lon="8.537604685501702"><ele>421.0</ele><time>2026-04-08T11:06:08Z</time></trkpt><trkpt lat="34.40400581298703" lon="8.537818736065862"><ele>419.0</ele><time>2026-04-08T11:06:09Z</time></trkpt><trkpt lat="34.4041106646786" lon="8.538036422392846"><ele>417.0</ele><time>2026-04-08T11:06:10Z</time></trkpt><trkpt lat="34.404213585718665" lon="8.538248186032504"><ele>415.0</ele><time>2026-04-08T11:06:11Z</time></trkpt><trkpt lat="34.404311146535434" lon="8.538459034872732"><ele>415.0</ele><time>2026-04-08T11:06:12Z</time></trkpt><trkpt lat="34.40440761662529" lon="8.538666943929849"><ele>415.0</ele><time>2026-04-08T11:06:13Z</time></trkpt><trkpt lat="34.40451136380242" lon="8.538867865322107"><ele>415.0</ele><time>2026-04-08T11:06:14Z</time></trkpt><trkpt lat="34.40462934407868" lon="8.539055002514726"><ele>412.0</ele><time>2026-04-08T11:06:15Z</time></trkpt><trkpt lat="34.4047552139774" lon="8.539231776723392"><ele>409.0</ele><time>2026-04-08T11:06:16Z</time></trkpt><trkpt lat="34.40488331587342" lon="8.539402847142908"><ele>406.0</ele><time>2026-04-08T11:06:17Z</time></trkpt><trkpt lat="34.4050072053626" lon="8.539579467676868"><ele>404.33333333333337</ele><time>2026-04-08T11:06:18Z</time></trkpt><trkpt lat="34.405127451399046" lon="8.53975230903517"><ele>402.66666666666663</ele><time>2026-04-08T11:06:19Z</time></trkpt><trkpt lat="34.4052448557176" lon="8.539913144577083"><ele>401.0</ele><time>2026-04-08T11:06:20Z</time></trkpt><trkpt lat="34.40536252842126" lon="8.540074569190764"><ele>401.0</ele><time>2026-04-08T11:06:21Z</time></trkpt><trkpt lat="34.40547537643477" lon="8.540239536288341"><ele>401.0</ele><time>2026-04-08T11:06:22Z</time></trkpt><trkpt lat="34.40558743653843" lon="8.540406046224593"><ele>401.0</ele><time>2026-04-08T11:06:23Z</time></trkpt><trkpt lat="34.40569915601257" lon="8.540576309236542"><ele>397.3333333333333</ele><time>2026-04-08T11:06:24Z</time></trkpt><trkpt lat="34.40580279066614" lon="8.540748587618857"><ele>393.66666666666663</ele><time>2026-04-08T11:06:25Z</time></trkpt><trkpt lat="34.40589693263542" lon="8.540929854204128"><ele>390.0</ele><time>2026-04-08T11:06:26Z</time></trkpt><trkpt lat="34.405980603061884" lon="8.541114232982933"><ele>388.66666666666663</ele><time>2026-04-08T11:06:27Z</time></trkpt><trkpt lat="34.40605453089185" lon="8.541295566901963"><ele>387.3333333333333</ele><time>2026-04-08T11:06:28Z</time></trkpt><trkpt lat="34.40611095869408" lon="8.541466030528461"><ele>386.0</ele><time>2026-04-08T11:06:29Z</time></trkpt><trkpt lat="34.40614083890911" lon="8.541636911793299"><ele>386.0</ele><time>2026-04-08T11:06:30Z</time></trkpt><trkpt lat="34.406142805689385" lon="8.541818332258135"><ele>386.0</ele><time>2026-04-08T11:06:31Z</time></trkpt><trkpt lat="34.40611336925097" lon="8.54200615558861"><ele>386.0</ele><time>2026-04-08T11:06:32Z</time></trkpt><trkpt lat="34.406059208127445" lon="8.542187929805799"><ele>383.25</ele><time>2026-04-08T11:06:33Z</time></trkpt><trkpt lat="34.405993317561354" lon="8.542357250727205"><ele>380.5</ele><time>2026-04-08T11:06:34Z</time></trkpt><trkpt lat="34.40593554796814" lon="8.54251828093626"><ele>377.75</ele><time>2026-04-08T11:06:35Z</time></trkpt><trkpt lat="34.40590156941238" lon="8.54269008693676"><ele>375.0</ele><time>2026-04-08T11:06:36Z</time></trkpt><trkpt lat="34.405895635324285" lon="8.542867626037118"><ele>370.3333333333333</ele><time>2026-04-08T11:06:37Z</time></trkpt><trkpt lat="34.405916653954286" lon="8.543048636972541"><ele>365.66666666666663</ele><time>2026-04-08T11:06:38Z</time></trkpt><trkpt lat="34.40596364500376" lon="8.543231399329587"><ele>361.0</ele><time>2026-04-08T11:06:39Z</time></trkpt><trkpt lat="34.40604155240991" lon="8.54340523114511"><ele>361.0</ele><time>2026-04-08T11:06:40Z</time></trkpt><trkpt lat="34.406150775296425" lon="8.543564287038167"><ele>361.0</ele><time>2026-04-08T11:06:41Z</time></trkpt><trkpt lat="34.40628641856081" lon="8.543712936851234"><ele>361.0</ele><time>2026-04-08T11:06:42Z</time></trkpt><trkpt lat="34.40643048129609" lon="8.543848480036786"><ele>360.0</ele><time>2026-04-08T11:06:43Z</time></trkpt><trkpt lat="34.406569848567585" lon="8.543984447343346"><ele>359.0</ele><time>2026-04-08T11:06:44Z</time></trkpt><trkpt lat="34.406697121874245" lon="8.54413486062729"><ele>358.0</ele><time>2026-04-08T11:06:45Z</time></trkpt><trkpt lat="34.40680216606637" lon="8.544291234203818"><ele>358.0</ele><time>2026-04-08T11:06:46Z</time></trkpt><trkpt lat="34.4068741501723" lon="8.544455485636822"><ele>358.0</ele><time>2026-04-08T11:06:47Z</time></trkpt><trkpt lat="34.406917009349165" lon="8.544617399094733"><ele>358.0</ele><time>2026-04-08T11:06:48Z</time></trkpt><trkpt lat="34.40692990934707" lon="8.544787852028746"><ele>358.0</ele><time>2026-04-08T11:06:49Z</time></trkpt><trkpt lat="34.406909611491926" lon="8.544970745329696"><ele>355.75</ele><time>2026-04-08T11:06:50Z</time></trkpt><trkpt lat="34.40685905000341" lon="8.545153795122493"><ele>353.5</ele><time>2026-04-08T11:06:51Z</time></trkpt><trkpt lat="34.40679800938006" lon="8.545316475645649"><ele>351.25</ele><time>2026-04-08T11:06:52Z</time></trkpt><trkpt lat="34.406750101690115" lon="8.545459290503956"><ele>349.0</ele><time>2026-04-08T11:06:53Z</time></trkpt><trkpt lat="34.406716915869744" lon="8.54559707328022"><ele>346.0</ele><time>2026-04-08T11:06:54Z</time></trkpt><trkpt lat="34.40669981144509" lon="8.545747578406106"><ele>343.0</ele><time>2026-04-08T11:06:55Z</time></trkpt><trkpt lat="34.40670036138613" lon="8.545914779896746"><ele>340.0</ele><time>2026-04-08T11:06:56Z</time></trkpt><trkpt lat="34.40672497710504" lon="8.546090955705017"><ele>337.0</ele><time>2026-04-08T11:06:57Z</time></trkpt><trkpt lat="34.40677706680813" lon="8.546262193869795"><ele>334.0</ele><time>2026-04-08T11:06:58Z</time></trkpt><trkpt lat="34.406857102618844" lon="8.546423237488723"><ele>331.0</ele><time>2026-04-08T11:06:59Z</time></trkpt><trkpt lat="34.406959374586485" lon="8.546573527559751"><ele>328.0</ele><time>2026-04-08T11:07:00Z</time></trkpt><trkpt lat="34.407075198578774" lon="8.546706502209075"><ele>327.66666666666663</ele><time>2026-04-08T11:07:01Z</time></trkpt><trkpt lat="34.407202082548864" lon="8.546821143347973"><ele>327.3333333333333</ele><time>2026-04-08T11:07:02Z</time></trkpt><trkpt lat="34.407329293518" lon="8.54693588108009"><ele>327.0</ele><time>2026-04-08T11:07:03Z</time></trkpt><trkpt lat="34.40744090320233" lon="8.547071550836593"><ele>324.3333333333333</ele><time>2026-04-08T11:07:04Z</time></trkpt><trkpt lat="34.40753247347238" lon="8.547232772996713"><ele>321.66666666666663</ele><time>2026-04-08T11:07:05Z</time></trkpt><trkpt lat="34.40759720396082" lon="8.54741403377188"><ele>319.0</ele><time>2026-04-08T11:07:06Z</time></trkpt><trkpt lat="34.40763236692481" lon="8.547604595047293"><ele>319.0</ele><time>2026-04-08T11:07:07Z</time></trkpt><trkpt lat="34.40763301706909" lon="8.547797756102701"><ele>319.0</ele><time>2026-04-08T11:07:08.001Z</time></trkpt><trkpt lat="34.40760579578751" lon="8.547993226984099"><ele>319.0</ele><time>2026-04-08T11:07:09.001Z</time></trkpt><trkpt lat="34.40756029270407" lon="8.548185624882386"><ele>317.0</ele><time>2026-04-08T11:07:10.001Z</time></trkpt><trkpt lat="34.407496394018615" lon="8.548362562614196"><ele>315.0</ele><time>2026-04-08T11:07:11.001Z</time></trkpt><trkpt lat="34.407417441737614" lon="8.548520860740974"><ele>313.0</ele><time>2026-04-08T11:07:12.001Z</time></trkpt><trkpt lat="34.40734793964848" lon="8.5486734312496"><ele>311.25</ele><time>2026-04-08T11:07:13.001Z</time></trkpt><trkpt lat="34.407301650651014" lon="8.548836871561454"><ele>309.5</ele><time>2026-04-08T11:07:14.001Z</time></trkpt><trkpt lat="34.40727421712663" lon="8.549010823124139"><ele>307.75</ele><time>2026-04-08T11:07:15.001Z</time></trkpt><trkpt lat="34.407271021067025" lon="8.549192460666418"><ele>306.0</ele><time>2026-04-08T11:07:16.001Z</time></trkpt><trkpt lat="34.40730383257739" lon="8.549372007718382"><ele>303.6666666666667</ele><time>2026-04-08T11:07:17.001Z</time></trkpt><trkpt lat="34.407355651202465" lon="8.549550683753443"><ele>301.33333333333337</ele><time>2026-04-08T11:07:18.001Z</time></trkpt><trkpt lat="34.40742221209136" lon="8.54973791019309"><ele>299.0</ele><time>2026-04-08T11:07:19.001Z</time></trkpt><trkpt lat="34.40749352388797" lon="8.549935211354365"><ele>299.0</ele><time>2026-04-08T11:07:20.001Z</time></trkpt><trkpt lat="34.40758262430014" lon="8.550135337119306"><ele>299.0</ele><time>2026-04-08T11:07:21.001Z</time></trkpt><trkpt lat="34.40771098336217" lon="8.550342053485826"><ele>299.0</ele><time>2026-04-08T11:07:22.001Z</time></trkpt><trkpt lat="34.40787213237945" lon="8.550538731992035"><ele>295.5</ele><time>2026-04-08T11:07:23.001Z</time></trkpt><trkpt lat="34.40806550029876" lon="8.550729809332864"><ele>292.0</ele><time>2026-04-08T11:07:24.001Z</time></trkpt><trkpt lat="34.40827148945666" lon="8.550900913246723"><ele>292.0</ele><time>2026-04-08T11:07:25.001Z</time></trkpt><trkpt lat="34.4084662879069" lon="8.551072654563159"><ele>292.0</ele><time>2026-04-08T11:07:26Z</time></trkpt><trkpt lat="34.40864955497035" lon="8.55124273497924"><ele>290.0</ele><time>2026-04-08T11:07:27Z</time></trkpt><trkpt lat="34.408828450179875" lon="8.55140935937691"><ele>288.0</ele><time>2026-04-08T11:07:28Z</time></trkpt><trkpt lat="34.40900399811437" lon="8.551569270186814"><ele>286.0</ele><time>2026-04-08T11:07:29Z</time></trkpt><trkpt lat="34.40917253535233" lon="8.551726491868468"><ele>286.0</ele><time>2026-04-08T11:07:30Z</time></trkpt><trkpt lat="34.409333292972896" lon="8.551898255511563"><ele>286.0</ele><time>2026-04-08T11:07:31Z</time></trkpt><trkpt lat="34.409479137364194" lon="8.552094853070024"><ele>286.0</ele><time>2026-04-08T11:07:32Z</time></trkpt><trkpt lat="34.409604207059004" lon="8.552317091497132"><ele>284.5</ele><time>2026-04-08T11:07:33Z</time></trkpt><trkpt lat="34.40970869850561" lon="8.55256814419346"><ele>283.0</ele><time>2026-04-08T11:07:34Z</time></trkpt><trkpt lat="34.409795774522955" lon="8.552852696245788"><ele>281.0</ele><time>2026-04-08T11:07:35Z</time></trkpt><trkpt lat="34.40987335452021" lon="8.553161348806233"><ele>279.0</ele><time>2026-04-08T11:07:36Z</time></trkpt><trkpt lat="34.40993928395715" lon="8.55349504213086"><ele>276.0</ele><time>2026-04-08T11:07:37Z</time></trkpt><trkpt lat="34.409998220169925" lon="8.55380838559609"><ele>273.0</ele><time>2026-04-08T11:07:38Z</time></trkpt><trkpt lat="34.41005786210342" lon="8.55410901569614"><ele>273.0</ele><time>2026-04-08T11:07:39Z</time></trkpt><trkpt lat="34.41012065703711" lon="8.554395489542683"><ele>273.0</ele><time>2026-04-08T11:07:40Z</time></trkpt><trkpt lat="34.410182655340904" lon="8.55466357721142"><ele>272.6666666666667</ele><time>2026-04-08T11:07:41Z</time></trkpt><trkpt lat="34.41024093337852" lon="8.554914116124532"><ele>272.33333333333337</ele><time>2026-04-08T11:07:42Z</time></trkpt><trkpt lat="34.41029837270786" lon="8.555158363980688"><ele>272.0</ele><time>2026-04-08T11:07:43Z</time></trkpt><trkpt lat="34.41036140344425" lon="8.555395569468761"><ele>272.0</ele><time>2026-04-08T11:07:44Z</time></trkpt><trkpt lat="34.41043114403653" lon="8.555623622186841"><ele>272.0</ele><time>2026-04-08T11:07:45Z</time></trkpt><trkpt lat="34.410509637527326" lon="8.55584777083975"><ele>272.0</ele><time>2026-04-08T11:07:46Z</time></trkpt><trkpt lat="34.41060276548206" lon="8.556067835465177"><ele>270.6666666666667</ele><time>2026-04-08T11:07:47Z</time></trkpt><trkpt lat="34.410707918388695" lon="8.556279188815882"><ele>269.3333333333333</ele><time>2026-04-08T11:07:48Z</time></trkpt><trkpt lat="34.410816031949736" lon="8.556485724238705"><ele>268.0</ele><time>2026-04-08T11:07:49Z</time></trkpt><trkpt lat="34.41091493931961" lon="8.55668826720337"><ele>268.0</ele><time>2026-04-08T11:07:50Z</time></trkpt><trkpt lat="34.411006156934704" lon="8.556891756285887"><ele>268.0</ele><time>2026-04-08T11:07:51Z</time></trkpt><trkpt lat="34.41109705456699" lon="8.55709585103721"><ele>268.0</ele><time>2026-04-08T11:07:52Z</time></trkpt><trkpt lat="34.411190223841544" lon="8.557294096746077"><ele>266.3333333333333</ele><time>2026-04-08T11:07:53Z</time></trkpt><trkpt lat="34.41128418848431" lon="8.557485916865003"><ele>264.6666666666667</ele><time>2026-04-08T11:07:54Z</time></trkpt><trkpt lat="34.41137757863261" lon="8.557680233454036"><ele>263.0</ele><time>2026-04-08T11:07:55Z</time></trkpt><trkpt lat="34.411464477746954" lon="8.557885976880348"><ele>260.33333333333337</ele><time>2026-04-08T11:07:56Z</time></trkpt><trkpt lat="34.41153714541059" lon="8.558106788653625"><ele>257.6666666666667</ele><time>2026-04-08T11:07:57Z</time></trkpt><trkpt lat="34.41159747451645" lon="8.558342843587733"><ele>255.0</ele><time>2026-04-08T11:07:58Z</time></trkpt><trkpt lat="34.41164761778353" lon="8.558587312424578"><ele>254.0</ele><time>2026-04-08T11:07:59Z</time></trkpt><trkpt lat="34.41168987169257" lon="8.558828456006344"><ele>253.0</ele><time>2026-04-08T11:08:00Z</time></trkpt><trkpt lat="34.41172297976796" lon="8.559067355093724"><ele>252.0</ele><time>2026-04-08T11:08:01Z</time></trkpt><trkpt lat="34.411759212550244" lon="8.55930599662123"><ele>250.66666666666669</ele><time>2026-04-08T11:08:02Z</time></trkpt><trkpt lat="34.41180778460572" lon="8.559544983357608"><ele>249.33333333333334</ele><time>2026-04-08T11:08:03Z</time></trkpt><trkpt lat="34.411869182832966" lon="8.559783602690954"><ele>248.0</ele><time>2026-04-08T11:08:04Z</time></trkpt><trkpt lat="34.411934610738534" lon="8.560010999171677"><ele>248.0</ele><time>2026-04-08T11:08:05Z</time></trkpt><trkpt lat="34.41199973213453" lon="8.560234561575975"><ele>248.0</ele><time>2026-04-08T11:08:06Z</time></trkpt><trkpt lat="34.41206657251287" lon="8.560457074647577"><ele>248.0</ele><time>2026-04-08T11:08:07Z</time></trkpt><trkpt lat="34.4121350950665" lon="8.560688639761498"><ele>247.66666666666669</ele><time>2026-04-08T11:08:08Z</time></trkpt><trkpt lat="34.41220466230222" lon="8.560917025302464"><ele>247.33333333333331</ele><time>2026-04-08T11:08:09Z</time></trkpt><trkpt lat="34.41227461100378" lon="8.56114322141862"><ele>247.0</ele><time>2026-04-08T11:08:10Z</time></trkpt><trkpt lat="34.412349933348885" lon="8.561364623485026"><ele>247.66666666666666</ele><time>2026-04-08T11:08:11Z</time></trkpt><trkpt lat="34.412436881759774" lon="8.561576219754306"><ele>248.33333333333331</ele><time>2026-04-08T11:08:12Z</time></trkpt><trkpt lat="34.41253542718259" lon="8.5617708564673"><ele>249.0</ele><time>2026-04-08T11:08:13Z</time></trkpt><trkpt lat="34.41264891664736" lon="8.561957356091876"><ele>250.0</ele><time>2026-04-08T11:08:14Z</time></trkpt><trkpt lat="34.41277621230534" lon="8.562138348677694"><ele>251.0</ele><time>2026-04-08T11:08:15Z</time></trkpt><trkpt lat="34.41291643446796" lon="8.562318025899875"><ele>252.0</ele><time>2026-04-08T11:08:16Z</time></trkpt><trkpt lat="34.41306600179646" lon="8.56249876536031"><ele>253.0</ele><time>2026-04-08T11:08:17Z</time></trkpt><trkpt lat="34.413222136895804" lon="8.562684879211858"><ele>254.0</ele><time>2026-04-08T11:08:18Z</time></trkpt><trkpt lat="34.41338646250032" lon="8.56288116281215"><ele>255.0</ele><time>2026-04-08T11:08:19Z</time></trkpt><trkpt lat="34.413552630447185" lon="8.563081406990449"><ele>256.0</ele><time>2026-04-08T11:08:20Z</time></trkpt><trkpt lat="34.4137048265083" lon="8.563273617764692"><ele>254.66666666666666</ele><time>2026-04-08T11:08:21Z</time></trkpt><trkpt lat="34.413850298833665" lon="8.56345613820796"><ele>253.33333333333331</ele><time>2026-04-08T11:08:22Z</time></trkpt><trkpt lat="34.41399545171029" lon="8.56363849379035"><ele>252.0</ele><time>2026-04-08T11:08:23Z</time></trkpt><trkpt lat="34.4141381807583" lon="8.563823356963074"><ele>251.66666666666669</ele><time>2026-04-08T11:08:24Z</time></trkpt><trkpt lat="34.414277026952654" lon="8.564012798250976"><ele>251.33333333333334</ele><time>2026-04-08T11:08:25Z</time></trkpt><trkpt lat="34.41441204982124" lon="8.564208905156262"><ele>251.0</ele><time>2026-04-08T11:08:26Z</time></trkpt><trkpt lat="34.41454259161725" lon="8.564410993549245"><ele>250.0</ele><time>2026-04-08T11:08:27Z</time></trkpt><trkpt lat="34.4146724935346" lon="8.564626841514723"><ele>249.0</ele><time>2026-04-08T11:08:28Z</time></trkpt><trkpt lat="34.41480190174166" lon="8.564853479257035"><ele>248.0</ele><time>2026-04-08T11:08:29Z</time></trkpt><trkpt lat="34.41493020523993" lon="8.565083309167191"><ele>248.0</ele><time>2026-04-08T11:08:30Z</time></trkpt><trkpt lat="34.415055613807134" lon="8.56531888682582"><ele>248.0</ele><time>2026-04-08T11:08:31Z</time></trkpt><trkpt lat="34.41517472925458" lon="8.565562140236821"><ele>248.5</ele><time>2026-04-08T11:08:32Z</time></trkpt><trkpt lat="34.41528781146679" lon="8.565814758818435"><ele>249.0</ele><time>2026-04-08T11:08:33Z</time></trkpt><trkpt lat="34.41539443544281" lon="8.56606943013535"><ele>248.0</ele><time>2026-04-08T11:08:34Z</time></trkpt><trkpt lat="34.4154948239834" lon="8.566318836980509"><ele>247.0</ele><time>2026-04-08T11:08:35Z</time></trkpt><trkpt lat="34.41558714562439" lon="8.566562317843998"><ele>247.0</ele><time>2026-04-08T11:08:36Z</time></trkpt><trkpt lat="34.41567728806975" lon="8.566804548526443"><ele>247.0</ele><time>2026-04-08T11:08:37Z</time></trkpt><trkpt lat="34.4157743128005" lon="8.567039930481208"><ele>247.0</ele><time>2026-04-08T11:08:38Z</time></trkpt><trkpt lat="34.41587925641141" lon="8.567274316489558"><ele>248.0</ele><time>2026-04-08T11:08:39Z</time></trkpt><trkpt lat="34.41598504079052" lon="8.567507176744092"><ele>249.0</ele><time>2026-04-08T11:08:40Z</time></trkpt><trkpt lat="34.416092678340995" lon="8.567733966121883"><ele>250.0</ele><time>2026-04-08T11:08:41Z</time></trkpt><trkpt lat="34.416204767374886" lon="8.567959789490775"><ele>252.0</ele><time>2026-04-08T11:08:42Z</time></trkpt><trkpt lat="34.416318876419176" lon="8.568184217413298"><ele>254.0</ele><time>2026-04-08T11:08:43Z</time></trkpt><trkpt lat="34.4164363703786" lon="8.56841035724879"><ele>256.0</ele><time>2026-04-08T11:08:44Z</time></trkpt><trkpt lat="34.416557798825885" lon="8.568637012994317"><ele>253.33333333333331</ele><time>2026-04-08T11:08:45Z</time></trkpt><trkpt lat="34.416679701378136" lon="8.56885614691953"><ele>250.66666666666669</ele><time>2026-04-08T11:08:46Z</time></trkpt><trkpt lat="34.41679981664461" lon="8.569065274560566"><ele>248.0</ele><time>2026-04-08T11:08:47Z</time></trkpt><trkpt lat="34.4169202710682" lon="8.569269801241868"><ele>248.0</ele><time>2026-04-08T11:08:48Z</time></trkpt><trkpt lat="34.4170401942796" lon="8.56947703051596"><ele>248.0</ele><time>2026-04-08T11:08:49Z</time></trkpt><trkpt lat="34.41715975569038" lon="8.56968421258599"><ele>248.0</ele><time>2026-04-08T11:08:50Z</time></trkpt><trkpt lat="34.41727329281437" lon="8.569894886659888"><ele>245.33333333333334</ele><time>2026-04-08T11:08:51Z</time></trkpt><trkpt lat="34.417371716339325" lon="8.57012035267615"><ele>242.66666666666669</ele><time>2026-04-08T11:08:52Z</time></trkpt><trkpt lat="34.417455409551216" lon="8.570362935265631"><ele>240.0</ele><time>2026-04-08T11:08:53Z</time></trkpt><trkpt lat="34.41753309408647" lon="8.570626550948779"><ele>240.0</ele><time>2026-04-08T11:08:54Z</time></trkpt><trkpt lat="34.41760521723011" lon="8.570905987138724"><ele>240.0</ele><time>2026-04-08T11:08:55Z</time></trkpt><trkpt lat="34.41765799539823" lon="8.571180630434732"><ele>239.0</ele><time>2026-04-08T11:08:56Z</time></trkpt><trkpt lat="34.4176993299291" lon="8.571441439246588"><ele>238.0</ele><time>2026-04-08T11:08:57Z</time></trkpt><trkpt lat="34.417738477429836" lon="8.57169294281719"><ele>237.0</ele><time>2026-04-08T11:08:58Z</time></trkpt><trkpt lat="34.41777855498603" lon="8.571935528864858"><ele>237.66666666666669</ele><time>2026-04-08T11:08:59Z</time></trkpt><trkpt lat="34.41782251200753" lon="8.572169340786118"><ele>238.33333333333334</ele><time>2026-04-08T11:09:00Z</time></trkpt><trkpt lat="34.417865146912725" lon="8.572400227792327"><ele>239.0</ele><time>2026-04-08T11:09:01Z</time></trkpt><trkpt lat="34.417907656120285" lon="8.572635572339886"><ele>238.66666666666669</ele><time>2026-04-08T11:09:02Z</time></trkpt><trkpt lat="34.417949410954755" lon="8.572870775149344"><ele>238.33333333333331</ele><time>2026-04-08T11:09:03Z</time></trkpt><trkpt lat="34.41799166162006" lon="8.573106417289035"><ele>238.0</ele><time>2026-04-08T11:09:04Z</time></trkpt><trkpt lat="34.418031892843636" lon="8.57334318024897"><ele>236.66666666666666</ele><time>2026-04-08T11:09:05Z</time></trkpt><trkpt lat="34.4180732341313" lon="8.573579419670818"><ele>235.33333333333331</ele><time>2026-04-08T11:09:06Z</time></trkpt><trkpt lat="34.418111689421686" lon="8.573820226889763"><ele>234.0</ele><time>2026-04-08T11:09:07Z</time></trkpt><trkpt lat="34.418142926565395" lon="8.574066693892116"><ele>234.0</ele><time>2026-04-08T11:09:08Z</time></trkpt><trkpt lat="34.41815812467099" lon="8.574316851270412"><ele>234.0</ele><time>2026-04-08T11:09:09Z</time></trkpt><trkpt lat="34.41815670740531" lon="8.574570897439289"><ele>234.0</ele><time>2026-04-08T11:09:10Z</time></trkpt><trkpt lat="34.41814535263625" lon="8.574823192013131"><ele>233.33333333333331</ele><time>2026-04-08T11:09:11Z</time></trkpt><trkpt lat="34.418132640460605" lon="8.575074023103877"><ele>232.66666666666666</ele><time>2026-04-08T11:09:12Z</time></trkpt><trkpt lat="34.41812452166642" lon="8.57532107234889"><ele>232.0</ele><time>2026-04-08T11:09:13Z</time></trkpt><trkpt lat="34.41812615523235" lon="8.57556617531473"><ele>231.66666666666666</ele><time>2026-04-08T11:09:14Z</time></trkpt><trkpt lat="34.41814378361783" lon="8.575809656605983"><ele>231.33333333333331</ele><time>2026-04-08T11:09:15Z</time></trkpt><trkpt lat="34.41818115732887" lon="8.576052369900923"><ele>231.0</ele><time>2026-04-08T11:09:16Z</time></trkpt><trkpt lat="34.41823439716926" lon="8.57629532584873"><ele>232.0</ele><time>2026-04-08T11:09:17Z</time></trkpt><trkpt lat="34.418296917269984" lon="8.576536770034473"><ele>233.0</ele><time>2026-04-08T11:09:18Z</time></trkpt><trkpt lat="34.4183645638748" lon="8.576775689008153"><ele>234.0</ele><time>2026-04-08T11:09:19Z</time></trkpt><trkpt lat="34.418443392499825" lon="8.577013131232194"><ele>235.33333333333331</ele><time>2026-04-08T11:09:20Z</time></trkpt><trkpt lat="34.41853608949857" lon="8.577240622758541"><ele>236.66666666666666</ele><time>2026-04-08T11:09:21Z</time></trkpt><trkpt lat="34.41863959849124" lon="8.577462135447353"><ele>238.0</ele><time>2026-04-08T11:09:22Z</time></trkpt><trkpt lat="34.41874997050141" lon="8.577680572656252"><ele>235.0</ele><time>2026-04-08T11:09:23Z</time></trkpt><trkpt lat="34.41886291059811" lon="8.577898932514602"><ele>232.0</ele><time>2026-04-08T11:09:24Z</time></trkpt><trkpt lat="34.418977922344425" lon="8.57810492203646"><ele>229.0</ele><time>2026-04-08T11:09:25Z</time></trkpt><trkpt lat="34.41909530261092" lon="8.578299324841103"><ele>229.0</ele><time>2026-04-08T11:09:26Z</time></trkpt><trkpt lat="34.41920984286087" lon="8.578489604402415"><ele>229.0</ele><time>2026-04-08T11:09:27Z</time></trkpt><trkpt lat="34.419323807653726" lon="8.578680322249179"><ele>229.0</ele><time>2026-04-08T11:09:28Z</time></trkpt><trkpt lat="34.41943051224876" lon="8.578880599484846"><ele>228.66666666666666</ele><time>2026-04-08T11:09:29Z</time></trkpt><trkpt lat="34.41952525151624" lon="8.579089535344337"><ele>228.33333333333331</ele><time>2026-04-08T11:09:30Z</time></trkpt><trkpt lat="34.41960481927011" lon="8.579311441357511"><ele>228.0</ele><time>2026-04-08T11:09:31Z</time></trkpt><trkpt lat="34.4196670674563" lon="8.579544965083834"><ele>227.33333333333331</ele><time>2026-04-08T11:09:32Z</time></trkpt><trkpt lat="34.419718867043656" lon="8.579779187814657"><ele>226.66666666666666</ele><time>2026-04-08T11:09:33Z</time></trkpt><trkpt lat="34.41975661285638" lon="8.580023800129627"><ele>226.0</ele><time>2026-04-08T11:09:34Z</time></trkpt><trkpt lat="34.419781335463334" lon="8.580273333589293"><ele>225.66666666666666</ele><time>2026-04-08T11:09:35Z</time></trkpt><trkpt lat="34.41979385217269" lon="8.580525944235905"><ele>225.33333333333331</ele><time>2026-04-08T11:09:36Z</time></trkpt><trkpt lat="34.41979085116263" lon="8.580779562019163"><ele>225.0</ele><time>2026-04-08T11:09:37Z</time></trkpt><trkpt lat="34.41976938281367" lon="8.581037516414874"><ele>224.66666666666669</ele><time>2026-04-08T11:09:38Z</time></trkpt><trkpt lat="34.41973018304934" lon="8.58129400325626"><ele>224.33333333333334</ele><time>2026-04-08T11:09:39Z</time></trkpt><trkpt lat="34.419674530688695" lon="8.581547474266262"><ele>224.0</ele><time>2026-04-08T11:09:40Z</time></trkpt><trkpt lat="34.419603903990684" lon="8.581794421710201"><ele>222.66666666666669</ele><time>2026-04-08T11:09:41Z</time></trkpt><trkpt lat="34.41951735623557" lon="8.582041704631077"><ele>221.33333333333331</ele><time>2026-04-08T11:09:42Z</time></trkpt><trkpt lat="34.41941506924368" lon="8.582280776129384"><ele>220.0</ele><time>2026-04-08T11:09:43Z</time></trkpt><trkpt lat="34.41929236178833" lon="8.582521040666942"><ele>220.0</ele><time>2026-04-08T11:09:44Z</time></trkpt><trkpt lat="34.419159180214926" lon="8.582754474154367"><ele>220.0</ele><time>2026-04-08T11:09:45Z</time></trkpt><trkpt lat="34.41903084538671" lon="8.582974047090532"><ele>220.0</ele><time>2026-04-08T11:09:46Z</time></trkpt><trkpt lat="34.41891044653595" lon="8.583182597002054"><ele>220.0</ele><time>2026-04-08T11:09:47Z</time></trkpt><trkpt lat="34.418791717608556" lon="8.583388691671981"><ele>220.0</ele><time>2026-04-08T11:09:48Z</time></trkpt><trkpt lat="34.418671452362894" lon="8.583595082876945"><ele>220.33333333333331</ele><time>2026-04-08T11:09:49Z</time></trkpt><trkpt lat="34.41855431622465" lon="8.583797904765683"><ele>220.66666666666669</ele><time>2026-04-08T11:09:50Z</time></trkpt><trkpt lat="34.41843694474118" lon="8.58400433774109"><ele>221.0</ele><time>2026-04-08T11:09:51Z</time></trkpt><trkpt lat="34.41832088945333" lon="8.584208576264132"><ele>221.0</ele><time>2026-04-08T11:09:52Z</time></trkpt><trkpt lat="34.4182029793143" lon="8.584412627536086"><ele>221.0</ele><time>2026-04-08T11:09:53Z</time></trkpt><trkpt lat="34.418088163638394" lon="8.584614538746026"><ele>221.0</ele><time>2026-04-08T11:09:54Z</time></trkpt><trkpt lat="34.41797774314426" lon="8.584817232704026"><ele>221.66666666666669</ele><time>2026-04-08T11:09:55Z</time></trkpt><trkpt lat="34.41787487120977" lon="8.585022887329144"><ele>222.33333333333331</ele><time>2026-04-08T11:09:56Z</time></trkpt><trkpt lat="34.41778917319171" lon="8.58523575792829"><ele>223.0</ele><time>2026-04-08T11:09:57Z</time></trkpt><trkpt lat="34.41771496610482" lon="8.58545625093352"><ele>223.0</ele><time>2026-04-08T11:09:58Z</time></trkpt><trkpt lat="34.41765294544348" lon="8.58567461977715"><ele>223.0</ele><time>2026-04-08T11:09:59Z</time></trkpt><trkpt lat="34.4175974215683" lon="8.5858966922473"><ele>223.0</ele><time>2026-04-08T11:10:00Z</time></trkpt><trkpt lat="34.417546673504546" lon="8.586122365339355"><ele>222.0</ele><time>2026-04-08T11:10:01Z</time></trkpt><trkpt lat="34.41749765024491" lon="8.586354255910884"><ele>221.0</ele><time>2026-04-08T11:10:02Z</time></trkpt><trkpt lat="34.41745012264722" lon="8.58657876195075"><ele>220.0</ele><time>2026-04-08T11:10:03Z</time></trkpt><trkpt lat="34.41739917376918" lon="8.586800274350006"><ele>219.33333333333331</ele><time>2026-04-08T11:10:04Z</time></trkpt><trkpt lat="34.41735130874789" lon="8.587022556004332"><ele>218.66666666666669</ele><time>2026-04-08T11:10:05Z</time></trkpt><trkpt lat="34.41730208513276" lon="8.587235707601808"><ele>218.0</ele><time>2026-04-08T11:10:06Z</time></trkpt><trkpt lat="34.41725119916989" lon="8.587444919382797"><ele>218.0</ele><time>2026-04-08T11:10:07Z</time></trkpt><trkpt lat="34.417202143020496" lon="8.587656388022323"><ele>218.0</ele><time>2026-04-08T11:10:08Z</time></trkpt><trkpt lat="34.417155346799156" lon="8.587869023323915"><ele>218.0</ele><time>2026-04-08T11:10:09Z</time></trkpt><trkpt lat="34.417111711049266" lon="8.588079865421735"><ele>217.66666666666669</ele><time>2026-04-08T11:10:10Z</time></trkpt><trkpt lat="34.417064964247814" lon="8.588292396759098"><ele>217.33333333333331</ele><time>2026-04-08T11:10:11Z</time></trkpt><trkpt lat="34.41702193609614" lon="8.588507357117276"><ele>217.0</ele><time>2026-04-08T11:10:12Z</time></trkpt><trkpt lat="34.416992918767704" lon="8.588730496315547"><ele>216.33333333333331</ele><time>2026-04-08T11:10:13Z</time></trkpt><trkpt lat="34.41697601442655" lon="8.588962409205816"><ele>215.66666666666669</ele><time>2026-04-08T11:10:14Z</time></trkpt><trkpt lat="34.41697329740604" lon="8.589206150466284"><ele>215.0</ele><time>2026-04-08T11:10:15Z</time></trkpt><trkpt lat="34.41698650763455" lon="8.58946102255236"><ele>214.0</ele><time>2026-04-08T11:10:16Z</time></trkpt><trkpt lat="34.41701715948511" lon="8.589729352764484"><ele>213.0</ele><time>2026-04-08T11:10:17Z</time></trkpt><trkpt lat="34.41706153557721" lon="8.590004054735026"><ele>213.0</ele><time>2026-04-08T11:10:18Z</time></trkpt><trkpt lat="34.41711763221884" lon="8.590267745176554"><ele>213.0</ele><time>2026-04-08T11:10:19Z</time></trkpt><trkpt lat="34.41717107593985" lon="8.590518291121503"><ele>213.0</ele><time>2026-04-08T11:10:20Z</time></trkpt><trkpt lat="34.4172155208604" lon="8.590759916660868"><ele>211.66666666666669</ele><time>2026-04-08T11:10:21Z</time></trkpt><trkpt lat="34.41725757489229" lon="8.59099348321923"><ele>210.33333333333334</ele><time>2026-04-08T11:10:22Z</time></trkpt><trkpt lat="34.41729532524431" lon="8.59121193749203"><ele>209.0</ele><time>2026-04-08T11:10:23Z</time></trkpt><trkpt lat="34.417330256559474" lon="8.591406615177483"><ele>208.75</ele><time>2026-04-08T11:10:24Z</time></trkpt><trkpt lat="34.417361283287754" lon="8.591577960703185"><ele>208.5</ele><time>2026-04-08T11:10:25Z</time></trkpt><trkpt lat="34.41738906834871" lon="8.591746820756274"><ele>208.25</ele><time>2026-04-08T11:10:26Z</time></trkpt><trkpt lat="34.417424023888756" lon="8.591924942334682"><ele>208.0</ele><time>2026-04-08T11:10:27Z</time></trkpt><trkpt lat="34.41746127304187" lon="8.592112198859716"><ele>207.66666666666666</ele><time>2026-04-08T11:10:28Z</time></trkpt><trkpt lat="34.41749781055132" lon="8.59230575640612"><ele>207.33333333333331</ele><time>2026-04-08T11:10:29Z</time></trkpt><trkpt lat="34.417538951186664" lon="8.592502676186724"><ele>207.0</ele><time>2026-04-08T11:10:30Z</time></trkpt><trkpt lat="34.41758218618726" lon="8.592697080438516"><ele>207.25</ele><time>2026-04-08T11:10:31Z</time></trkpt><trkpt lat="34.41762822240628" lon="8.59287364318388"><ele>207.5</ele><time>2026-04-08T11:10:32Z</time></trkpt><trkpt lat="34.417669581448294" lon="8.593027376468346"><ele>207.75</ele><time>2026-04-08T11:10:33Z</time></trkpt><trkpt lat="34.41770284914365" lon="8.593158883208527"><ele>208.0</ele><time>2026-04-08T11:10:34Z</time></trkpt><trkpt lat="34.41773160202015" lon="8.593266751829379"><ele>208.0</ele><time>2026-04-08T11:10:35Z</time></trkpt><trkpt lat="34.41776036913856" lon="8.59335694249346"><ele>208.0</ele><time>2026-04-08T11:10:36Z</time></trkpt><trkpt lat="34.4177879606972" lon="8.593440041507712"><ele>208.0</ele><time>2026-04-08T11:10:37Z</time></trkpt><trkpt lat="34.417818919165384" lon="8.59351441223995"><ele>208.0</ele><time>2026-04-08T11:10:38Z</time></trkpt><trkpt lat="34.41785271091645" lon="8.593586306444282"><ele>208.0</ele><time>2026-04-08T11:10:39Z</time></trkpt><trkpt lat="34.41788899583226" lon="8.59366134524995"><ele>208.0</ele><time>2026-04-08T11:10:40Z</time></trkpt><trkpt lat="34.41792972787906" lon="8.593738460495803"><ele>208.0</ele><time>2026-04-08T11:10:41Z</time></trkpt><trkpt lat="34.41797126583378" lon="8.593808387357585"><ele>208.4</ele><time>2026-04-08T11:10:42Z</time></trkpt><trkpt lat="34.41801533557902" lon="8.593884175370139"><ele>208.8</ele><time>2026-04-08T11:10:43Z</time></trkpt><trkpt lat="34.41807064845782" lon="8.593967266837456"><ele>209.2</ele><time>2026-04-08T11:10:44Z</time></trkpt><trkpt lat="34.418137658670496" lon="8.594052973150164"><ele>209.6</ele><time>2026-04-08T11:10:45Z</time></trkpt><trkpt lat="34.418205760376864" lon="8.594146491638849"><ele>210.0</ele><time>2026-04-08T11:10:46Z</time></trkpt><trkpt lat="34.418270861442295" lon="8.59424811665666"><ele>210.0</ele><time>2026-04-08T11:10:47Z</time></trkpt><trkpt lat="34.41833806840764" lon="8.594353083425904"><ele>210.0</ele><time>2026-04-08T11:10:48Z</time></trkpt><trkpt lat="34.4184105492216" lon="8.594459260348154"><ele>210.0</ele><time>2026-04-08T11:10:49Z</time></trkpt><trkpt lat="34.418486231232166" lon="8.594566765161153"><ele>210.0</ele><time>2026-04-08T11:10:50Z</time></trkpt><trkpt lat="34.4185547306896" lon="8.59467119316278"><ele>209.6</ele><time>2026-04-08T11:10:51Z</time></trkpt><trkpt lat="34.41861736286626" lon="8.594767896898766"><ele>209.2</ele><time>2026-04-08T11:10:52Z</time></trkpt><trkpt lat="34.41867913568397" lon="8.594857231744609"><ele>208.8</ele><time>2026-04-08T11:10:53Z</time></trkpt><trkpt lat="34.41873840256709" lon="8.594942143035006"><ele>208.4</ele><time>2026-04-08T11:10:54Z</time></trkpt><trkpt lat="34.41879370857656" lon="8.595023276468606"><ele>208.0</ele><time>2026-04-08T11:10:55Z</time></trkpt><trkpt lat="34.41884612584767" lon="8.595098117029393"><ele>208.0</ele><time>2026-04-08T11:10:56Z</time></trkpt><trkpt lat="34.418902712187595" lon="8.595180075265471"><ele>208.0</ele><time>2026-04-08T11:10:57Z</time></trkpt><trkpt lat="34.41896488903142" lon="8.595273655838481"><ele>208.0</ele><time>2026-04-08T11:10:58Z</time></trkpt><trkpt lat="34.41903251882727" lon="8.595369344604663"><ele>208.0</ele><time>2026-04-08T11:10:59Z</time></trkpt><trkpt lat="34.4191033656534" lon="8.595471107404105"><ele>208.0</ele><time>2026-04-08T11:11:00Z</time></trkpt><trkpt lat="34.41917705670608" lon="8.595580835687441"><ele>207.75</ele><time>2026-04-08T11:11:01Z</time></trkpt><trkpt lat="34.419253721523305" lon="8.595695842039815"><ele>207.5</ele><time>2026-04-08T11:11:02Z</time></trkpt><trkpt lat="34.41933363799219" lon="8.595813397932998"><ele>207.25</ele><time>2026-04-08T11:11:03Z</time></trkpt><trkpt lat="34.41941845002293" lon="8.595935196468625"><ele>207.0</ele><time>2026-04-08T11:11:04Z</time></trkpt><trkpt lat="34.419507888226356" lon="8.596057325826644"><ele>206.75</ele><time>2026-04-08T11:11:05Z</time></trkpt><trkpt lat="34.41959838415843" lon="8.596188101905241"><ele>206.5</ele><time>2026-04-08T11:11:06Z</time></trkpt><trkpt lat="34.419690514642426" lon="8.596325223675827"><ele>206.25</ele><time>2026-04-08T11:11:07Z</time></trkpt><trkpt lat="34.419788775873755" lon="8.596470961585604"><ele>206.0</ele><time>2026-04-08T11:11:08Z</time></trkpt><trkpt lat="34.4198976529856" lon="8.596629284453378"><ele>205.66666666666669</ele><time>2026-04-08T11:11:09Z</time></trkpt><trkpt lat="34.420017261814685" lon="8.59679961124285"><ele>205.33333333333331</ele><time>2026-04-08T11:11:10Z</time></trkpt><trkpt lat="34.42014198414631" lon="8.596982757790586"><ele>205.0</ele><time>2026-04-08T11:11:11Z</time></trkpt><trkpt lat="34.42026780600061" lon="8.597175557177756"><ele>204.0</ele><time>2026-04-08T11:11:12Z</time></trkpt><trkpt lat="34.42039453830897" lon="8.597372326928982"><ele>203.0</ele><time>2026-04-08T11:11:13Z</time></trkpt><trkpt lat="34.420523968715536" lon="8.597570867867493"><ele>202.0</ele><time>2026-04-08T11:11:14Z</time></trkpt><trkpt lat="34.42065614469239" lon="8.597772056853229"><ele>201.33333333333331</ele><time>2026-04-08T11:11:15Z</time></trkpt><trkpt lat="34.4207913121075" lon="8.597976771513542"><ele>200.66666666666669</ele><time>2026-04-08T11:11:16Z</time></trkpt><trkpt lat="34.42092835092286" lon="8.59818008069516"><ele>200.0</ele><time>2026-04-08T11:11:17Z</time></trkpt><trkpt lat="34.42106060339046" lon="8.598378629497908"><ele>200.0</ele><time>2026-04-08T11:11:18Z</time></trkpt><trkpt lat="34.42118519126808" lon="8.598570385154344"><ele>200.0</ele><time>2026-04-08T11:11:19Z</time></trkpt><trkpt lat="34.42130970431141" lon="8.598759466951675"><ele>200.0</ele><time>2026-04-08T11:11:20Z</time></trkpt><trkpt lat="34.42143176987636" lon="8.598945276044239"><ele>200.66666666666669</ele><time>2026-04-08T11:11:21Z</time></trkpt><trkpt lat="34.42155408299307" lon="8.599130478917319"><ele>201.33333333333331</ele><time>2026-04-08T11:11:22Z</time></trkpt><trkpt lat="34.42167498442005" lon="8.599313395100411"><ele>202.0</ele><time>2026-04-08T11:11:23Z</time></trkpt><trkpt lat="34.42179515110553" lon="8.59949774928842"><ele>202.33333333333331</ele><time>2026-04-08T11:11:24Z</time></trkpt><trkpt lat="34.421918569811005" lon="8.599682151770327"><ele>202.66666666666669</ele><time>2026-04-08T11:11:25Z</time></trkpt><trkpt lat="34.42205063759592" lon="8.599877702216897"><ele>203.0</ele><time>2026-04-08T11:11:26Z</time></trkpt><trkpt lat="34.42218703659794" lon="8.600080182793999"><ele>203.0</ele><time>2026-04-08T11:11:27Z</time></trkpt><trkpt lat="34.42232323348626" lon="8.600286468998883"><ele>203.0</ele><time>2026-04-08T11:11:28Z</time></trkpt><trkpt lat="34.422464268582935" lon="8.60049663277685"><ele>203.0</ele><time>2026-04-08T11:11:29Z</time></trkpt><trkpt lat="34.42260935719578" lon="8.600713608997792"><ele>202.0</ele><time>2026-04-08T11:11:30Z</time></trkpt><trkpt lat="34.42275912766031" lon="8.60093450428865"><ele>201.0</ele><time>2026-04-08T11:11:31Z</time></trkpt><trkpt lat="34.422906973036994" lon="8.601157242565526"><ele>201.0</ele><time>2026-04-08T11:11:32Z</time></trkpt><trkpt lat="34.42305344861812" lon="8.60138086065774"><ele>201.0</ele><time>2026-04-08T11:11:33Z</time></trkpt><trkpt lat="34.42319574864261" lon="8.601601288946078"><ele>201.0</ele><time>2026-04-08T11:11:34Z</time></trkpt><trkpt lat="34.42332709904309" lon="8.60181777353537"><ele>201.0</ele><time>2026-04-08T11:11:35Z</time></trkpt><trkpt lat="34.423444370419666" lon="8.602023356376902"><ele>201.0</ele><time>2026-04-08T11:11:36Z</time></trkpt><trkpt lat="34.42355771200834" lon="8.602220645913297"><ele>201.0</ele><time>2026-04-08T11:11:37Z</time></trkpt><trkpt lat="34.423668013868465" lon="8.602411142017651"><ele>201.0</ele><time>2026-04-08T11:11:38Z</time></trkpt><trkpt lat="34.4237782224512" lon="8.60260280519245"><ele>201.0</ele><time>2026-04-08T11:11:39Z</time></trkpt><trkpt lat="34.42388876402166" lon="8.602791764554228"><ele>201.66666666666669</ele><time>2026-04-08T11:11:40Z</time></trkpt><trkpt lat="34.42400037790862" lon="8.602979527412604"><ele>202.33333333333334</ele><time>2026-04-08T11:11:41Z</time></trkpt><trkpt lat="34.42411143960686" lon="8.603168608077489"><ele>203.0</ele><time>2026-04-08T11:11:42Z</time></trkpt><trkpt lat="34.42422362564979" lon="8.603360915972884"><ele>203.0</ele><time>2026-04-08T11:11:43Z</time></trkpt><trkpt lat="34.424334049053904" lon="8.603556619132904"><ele>203.0</ele><time>2026-04-08T11:11:44Z</time></trkpt><trkpt lat="34.42444611621086" lon="8.603752017943126"><ele>203.0</ele><time>2026-04-08T11:11:45Z</time></trkpt><trkpt lat="34.42456247998489" lon="8.60394740863345"><ele>203.0</ele><time>2026-04-08T11:11:46Z</time></trkpt><trkpt lat="34.42467917798283" lon="8.604142742910412"><ele>203.0</ele><time>2026-04-08T11:11:47Z</time></trkpt><trkpt lat="34.42479578886392" lon="8.604339219715522"><ele>203.0</ele><time>2026-04-08T11:11:48Z</time></trkpt><trkpt lat="34.424913242959306" lon="8.604543513308604"><ele>202.66666666666669</ele><time>2026-04-08T11:11:49Z</time></trkpt><trkpt lat="34.42503011897735" lon="8.60474957235431"><ele>202.33333333333331</ele><time>2026-04-08T11:11:50Z</time></trkpt><trkpt lat="34.42515061604531" lon="8.604956667276033"><ele>202.0</ele><time>2026-04-08T11:11:51Z</time></trkpt><trkpt lat="34.42527429485154" lon="8.605163595703308"><ele>203.0</ele><time>2026-04-08T11:11:52Z</time></trkpt><trkpt lat="34.42539603506596" lon="8.605374761173817"><ele>204.0</ele><time>2026-04-08T11:11:53Z</time></trkpt><trkpt lat="34.42551942770033" lon="8.605589538136242"><ele>205.0</ele><time>2026-04-08T11:11:54Z</time></trkpt><trkpt lat="34.42564377844058" lon="8.605804993891722"><ele>205.33333333333331</ele><time>2026-04-08T11:11:55Z</time></trkpt><trkpt lat="34.42576983479128" lon="8.606020961463352"><ele>205.66666666666669</ele><time>2026-04-08T11:11:56Z</time></trkpt><trkpt lat="34.42589964369616" lon="8.606242282844859"><ele>206.0</ele><time>2026-04-08T11:11:57Z</time></trkpt><trkpt lat="34.426031174546246" lon="8.606473144285028"><ele>204.5</ele><time>2026-04-08T11:11:58Z</time></trkpt><trkpt lat="34.42616748128565" lon="8.606710798886638"><ele>203.0</ele><time>2026-04-08T11:11:59Z</time></trkpt><trkpt lat="34.426306974527506" lon="8.606956997766698"><ele>207.0</ele><time>2026-04-08T11:12:00Z</time></trkpt><trkpt lat="34.426441641783924" lon="8.607205996588648"><ele>211.0</ele><time>2026-04-08T11:12:01Z</time></trkpt><trkpt lat="34.42656684525373" lon="8.60745361224515"><ele>211.0</ele><time>2026-04-08T11:12:02Z</time></trkpt><trkpt lat="34.426682866835364" lon="8.607697702278973"><ele>211.0</ele><time>2026-04-08T11:12:03Z</time></trkpt><trkpt lat="34.42678073992892" lon="8.607908750611633"><ele>211.0</ele><time>2026-04-08T11:12:04Z</time></trkpt><trkpt lat="34.42685516864434" lon="8.608070018653821"><ele>210.25</ele><time>2026-04-08T11:12:05Z</time></trkpt><trkpt lat="34.426925559370915" lon="8.608225488861803"><ele>209.5</ele><time>2026-04-08T11:12:06Z</time></trkpt><trkpt lat="34.426987402816" lon="8.60838618262817"><ele>208.75</ele><time>2026-04-08T11:12:07Z</time></trkpt><trkpt lat="34.427047991406255" lon="8.60854512412524"><ele>208.0</ele><time>2026-04-08T11:12:08Z</time></trkpt><trkpt lat="34.42711591863302" lon="8.60870268707184"><ele>207.66666666666666</ele><time>2026-04-08T11:12:09Z</time></trkpt><trkpt lat="34.42718873587441" lon="8.608861282305515"><ele>207.33333333333331</ele><time>2026-04-08T11:12:10Z</time></trkpt><trkpt lat="34.427265066548856" lon="8.609020083633304"><ele>207.0</ele><time>2026-04-08T11:12:11Z</time></trkpt><trkpt lat="34.42734323933519" lon="8.609185053703488"><ele>207.0</ele><time>2026-04-08T11:12:12Z</time></trkpt><trkpt lat="34.42742434156154" lon="8.609350635527166"><ele>207.0</ele><time>2026-04-08T11:12:13Z</time></trkpt><trkpt lat="34.42750796806478" lon="8.609525450432148"><ele>207.0</ele><time>2026-04-08T11:12:14Z</time></trkpt><trkpt lat="34.42759617243762" lon="8.60970029003597"><ele>207.0</ele><time>2026-04-08T11:12:15Z</time></trkpt><trkpt lat="34.42769353022545" lon="8.609874928276442"><ele>207.0</ele><time>2026-04-08T11:12:16Z</time></trkpt><trkpt lat="34.42779714831559" lon="8.610049684404766"><ele>207.0</ele><time>2026-04-08T11:12:17Z</time></trkpt><trkpt lat="34.42790194944765" lon="8.61022519940131"><ele>207.33333333333331</ele><time>2026-04-08T11:12:18Z</time></trkpt><trkpt lat="34.428005749167866" lon="8.610399981757608"><ele>207.66666666666666</ele><time>2026-04-08T11:12:19Z</time></trkpt><trkpt lat="34.42810959934202" lon="8.610577449348053"><ele>208.0</ele><time>2026-04-08T11:12:20Z</time></trkpt><trkpt lat="34.428210070631934" lon="8.610761548880953"><ele>208.0</ele><time>2026-04-08T11:12:21Z</time></trkpt><trkpt lat="34.42830674504188" lon="8.610944743287918"><ele>208.0</ele><time>2026-04-08T11:12:22Z</time></trkpt><trkpt lat="34.42840338432477" lon="8.61112687927298"><ele>208.0</ele><time>2026-04-08T11:12:23Z</time></trkpt><trkpt lat="34.42850226533589" lon="8.611309113185953"><ele>208.66666666666666</ele><time>2026-04-08T11:12:24Z</time></trkpt><trkpt lat="34.428604096747144" lon="8.611492900800778"><ele>209.33333333333331</ele><time>2026-04-08T11:12:25Z</time></trkpt><trkpt lat="34.42870611268296" lon="8.611678859891875"><ele>210.0</ele><time>2026-04-08T11:12:26Z</time></trkpt><trkpt lat="34.42880838207225" lon="8.611869560501518"><ele>208.66666666666669</ele><time>2026-04-08T11:12:27Z</time></trkpt><trkpt lat="34.428910882686104" lon="8.61205942316334"><ele>207.33333333333334</ele><time>2026-04-08T11:12:28Z</time></trkpt><trkpt lat="34.429012683740126" lon="8.612246787817655"><ele>206.0</ele><time>2026-04-08T11:12:29Z</time></trkpt><trkpt lat="34.42911353079512" lon="8.612431047316809"><ele>206.0</ele><time>2026-04-08T11:12:30Z</time></trkpt><trkpt lat="34.42920743334914" lon="8.612599587703393"><ele>206.0</ele><time>2026-04-08T11:12:31Z</time></trkpt><trkpt lat="34.429294855423144" lon="8.612760261501268"><ele>206.0</ele><time>2026-04-08T11:12:32Z</time></trkpt><trkpt lat="34.42937608710317" lon="8.612911410253425"><ele>206.0</ele><time>2026-04-08T11:12:33Z</time></trkpt><trkpt lat="34.42945444052976" lon="8.613061390117718"><ele>206.0</ele><time>2026-04-08T11:12:34Z</time></trkpt><trkpt lat="34.42953278333063" lon="8.613207134262556"><ele>206.0</ele><time>2026-04-08T11:12:35Z</time></trkpt><trkpt lat="34.42961690240542" lon="8.613355363871792"><ele>206.0</ele><time>2026-04-08T11:12:36Z</time></trkpt><trkpt lat="34.429706203011555" lon="8.613512947187637"><ele>207.0</ele><time>2026-04-08T11:12:37Z</time></trkpt><trkpt lat="34.429797833968784" lon="8.613676052661372"><ele>208.0</ele><time>2026-04-08T11:12:38Z</time></trkpt><trkpt lat="34.429892796110856" lon="8.613849147178009"><ele>209.0</ele><time>2026-04-08T11:12:39Z</time></trkpt><trkpt lat="34.42999245063785" lon="8.614030798864189"><ele>209.0</ele><time>2026-04-08T11:12:40Z</time></trkpt><trkpt lat="34.43009234672659" lon="8.614212757111153"><ele>209.0</ele><time>2026-04-08T11:12:41Z</time></trkpt><trkpt lat="34.43019429117167" lon="8.614401255423848"><ele>209.0</ele><time>2026-04-08T11:12:42Z</time></trkpt><trkpt lat="34.430298843653205" lon="8.61459455241255"><ele>209.33333333333334</ele><time>2026-04-08T11:12:43Z</time></trkpt><trkpt lat="34.43041225855081" lon="8.614795892705967"><ele>209.66666666666669</ele><time>2026-04-08T11:12:44Z</time></trkpt><trkpt lat="34.43052893136155" lon="8.615004754455763"><ele>210.0</ele><time>2026-04-08T11:12:45Z</time></trkpt><trkpt lat="34.43064853467197" lon="8.6152182415952"><ele>210.0</ele><time>2026-04-08T11:12:46Z</time></trkpt><trkpt lat="34.430771491438136" lon="8.615441533379592"><ele>210.0</ele><time>2026-04-08T11:12:47Z</time></trkpt><trkpt lat="34.43089970580801" lon="8.615674666403281"><ele>210.0</ele><time>2026-04-08T11:12:48Z</time></trkpt><trkpt lat="34.431033497019804" lon="8.615919326171353"><ele>210.0</ele><time>2026-04-08T11:12:49Z</time></trkpt><trkpt lat="34.431168634663294" lon="8.616167132847307"><ele>210.5</ele><time>2026-04-08T11:12:50Z</time></trkpt><trkpt lat="34.43130471193089" lon="8.616416469098857"><ele>211.0</ele><time>2026-04-08T11:12:51Z</time></trkpt><trkpt lat="34.431442785694664" lon="8.616669396092574"><ele>209.0</ele><time>2026-04-08T11:12:52Z</time></trkpt><trkpt lat="34.43158213544645" lon="8.61691979832212"><ele>207.0</ele><time>2026-04-08T11:12:53Z</time></trkpt><trkpt lat="34.43172157295405" lon="8.617169468706225"><ele>206.5</ele><time>2026-04-08T11:12:54Z</time></trkpt><trkpt lat="34.43186224061943" lon="8.617414405164466"><ele>206.0</ele><time>2026-04-08T11:12:55Z</time></trkpt><trkpt lat="34.432004427388115" lon="8.617661331781019"><ele>207.5</ele><time>2026-04-08T11:12:56Z</time></trkpt><trkpt lat="34.43214779341" lon="8.617908652553018"><ele>209.0</ele><time>2026-04-08T11:12:57Z</time></trkpt><trkpt lat="34.43229067436844" lon="8.618153426232308"><ele>209.0</ele><time>2026-04-08T11:12:58Z</time></trkpt><trkpt lat="34.432432944440784" lon="8.61839545857829"><ele>209.0</ele><time>2026-04-08T11:12:59Z</time></trkpt><trkpt lat="34.432574496371515" lon="8.61863799960124"><ele>208.5</ele><time>2026-04-08T11:13:00Z</time></trkpt><trkpt lat="34.432713537906395" lon="8.618880102564766"><ele>208.0</ele><time>2026-04-08T11:13:01Z</time></trkpt><trkpt lat="34.43285268576626" lon="8.619124652795314"><ele>208.0</ele><time>2026-04-08T11:13:02Z</time></trkpt><trkpt lat="34.43299231105154" lon="8.619365098623629"><ele>208.0</ele><time>2026-04-08T11:13:03Z</time></trkpt><trkpt lat="34.43313235202855" lon="8.619608956455563"><ele>208.0</ele><time>2026-04-08T11:13:04Z</time></trkpt><trkpt lat="34.433273831424174" lon="8.619850973502206"><ele>208.0</ele><time>2026-04-08T11:13:05Z</time></trkpt><trkpt lat="34.433414412532464" lon="8.620091128999881"><ele>207.0</ele><time>2026-04-08T11:13:06Z</time></trkpt><trkpt lat="34.43355230420328" lon="8.62032727412373"><ele>206.0</ele><time>2026-04-08T11:13:07Z</time></trkpt><trkpt lat="34.433689859323586" lon="8.620564738990446"><ele>206.5</ele><time>2026-04-08T11:13:08Z</time></trkpt><trkpt lat="34.43382792612291" lon="8.620799891943651"><ele>207.0</ele><time>2026-04-08T11:13:09Z</time></trkpt><trkpt lat="34.43396796395132" lon="8.621030251186376"><ele>206.5</ele><time>2026-04-08T11:13:10Z</time></trkpt><trkpt lat="34.43411128189615" lon="8.621262754589168"><ele>206.0</ele><time>2026-04-08T11:13:11Z</time></trkpt><trkpt lat="34.434253053251666" lon="8.621494409516274"><ele>206.0</ele><time>2026-04-08T11:13:12Z</time></trkpt><trkpt lat="34.43439525824483" lon="8.62172886470025"><ele>206.0</ele><time>2026-04-08T11:13:13Z</time></trkpt><trkpt lat="34.43453477318176" lon="8.621960573781934"><ele>206.0</ele><time>2026-04-08T11:13:14Z</time></trkpt><trkpt lat="34.434671997112474" lon="8.62218519948311"><ele>206.0</ele><time>2026-04-08T11:13:15Z</time></trkpt><trkpt lat="34.434806938299296" lon="8.622410350542062"><ele>206.0</ele><time>2026-04-08T11:13:16Z</time></trkpt><trkpt lat="34.43494219444682" lon="8.622633126958243"><ele>206.0</ele><time>2026-04-08T11:13:17Z</time></trkpt><trkpt lat="34.43507673349387" lon="8.622852530053184"><ele>205.33333333333334</ele><time>2026-04-08T11:13:18Z</time></trkpt><trkpt lat="34.43520904959457" lon="8.623073892166442"><ele>204.66666666666669</ele><time>2026-04-08T11:13:19Z</time></trkpt><trkpt lat="34.43533848436677" lon="8.623287728331622"><ele>204.0</ele><time>2026-04-08T11:13:20Z</time></trkpt><trkpt lat="34.435465923643555" lon="8.623497422504371"><ele>204.66666666666669</ele><time>2026-04-08T11:13:21Z</time></trkpt><trkpt lat="34.43559148410359" lon="8.623707877284525"><ele>205.33333333333334</ele><time>2026-04-08T11:13:22Z</time></trkpt><trkpt lat="34.43571379214143" lon="8.623918920933145"><ele>206.0</ele><time>2026-04-08T11:13:23Z</time></trkpt><trkpt lat="34.43583704006903" lon="8.624129725955122"><ele>206.0</ele><time>2026-04-08T11:13:24Z</time></trkpt><trkpt lat="34.43596181193037" lon="8.624339645754974"><ele>206.0</ele><time>2026-04-08T11:13:25Z</time></trkpt><trkpt lat="34.436088689971086" lon="8.624549888241187"><ele>206.0</ele><time>2026-04-08T11:13:26Z</time></trkpt><trkpt lat="34.43621527643218" lon="8.624757183901075"><ele>205.66666666666669</ele><time>2026-04-08T11:13:27Z</time></trkpt><trkpt lat="34.4363427438496" lon="8.624967065853253"><ele>205.33333333333331</ele><time>2026-04-08T11:13:28Z</time></trkpt><trkpt lat="34.43647029424788" lon="8.625174983164799"><ele>205.0</ele><time>2026-04-08T11:13:29Z</time></trkpt><trkpt lat="34.436601050106134" lon="8.625383492179544"><ele>205.0</ele><time>2026-04-08T11:13:30Z</time></trkpt><trkpt lat="34.4367303335636" lon="8.625591957864406"><ele>205.0</ele><time>2026-04-08T11:13:31Z</time></trkpt><trkpt lat="34.436858136393525" lon="8.625800777984086"><ele>205.0</ele><time>2026-04-08T11:13:32Z</time></trkpt><trkpt lat="34.43698556883606" lon="8.62601090625742"><ele>204.66666666666666</ele><time>2026-04-08T11:13:33Z</time></trkpt><trkpt lat="34.43711501321486" lon="8.626224300120061"><ele>204.33333333333331</ele><time>2026-04-08T11:13:34Z</time></trkpt><trkpt lat="34.437242803668134" lon="8.626436935699715"><ele>204.0</ele><time>2026-04-08T11:13:35Z</time></trkpt><trkpt lat="34.43737206343411" lon="8.626654238976412"><ele>204.0</ele><time>2026-04-08T11:13:36Z</time></trkpt><trkpt lat="34.43750389951453" lon="8.626867728580805"><ele>204.0</ele><time>2026-04-08T11:13:37Z</time></trkpt><trkpt lat="34.43763708213885" lon="8.627085903516454"><ele>204.0</ele><time>2026-04-08T11:13:38Z</time></trkpt><trkpt lat="34.43776585562471" lon="8.627303494809881"><ele>204.0</ele><time>2026-04-08T11:13:39Z</time></trkpt><trkpt lat="34.43789208146985" lon="8.627518072314533"><ele>204.0</ele><time>2026-04-08T11:13:40Z</time></trkpt><trkpt lat="34.438018060938134" lon="8.627726583176516"><ele>204.0</ele><time>2026-04-08T11:13:41Z</time></trkpt><trkpt lat="34.438143634705014" lon="8.627931114142745"><ele>203.66666666666669</ele><time>2026-04-08T11:13:42Z</time></trkpt><trkpt lat="34.43827040520997" lon="8.628136100294258"><ele>203.33333333333334</ele><time>2026-04-08T11:13:43Z</time></trkpt><trkpt lat="34.438397423596875" lon="8.62833803211075"><ele>203.0</ele><time>2026-04-08T11:13:44Z</time></trkpt><trkpt lat="34.438520675058925" lon="8.62854080803822"><ele>202.66666666666669</ele><time>2026-04-08T11:13:45Z</time></trkpt><trkpt lat="34.43864505853635" lon="8.628747854088735"><ele>202.33333333333331</ele><time>2026-04-08T11:13:46Z</time></trkpt><trkpt lat="34.43876222830542" lon="8.628944036442899"><ele>202.0</ele><time>2026-04-08T11:13:47Z</time></trkpt><trkpt lat="34.43886681233915" lon="8.629111407013147"><ele>202.0</ele><time>2026-04-08T11:13:48Z</time></trkpt><trkpt lat="34.4389640048975" lon="8.62926506174587"><ele>202.0</ele><time>2026-04-08T11:13:49Z</time></trkpt><trkpt lat="34.439057568621365" lon="8.629411323140895"><ele>202.0</ele><time>2026-04-08T11:13:50Z</time></trkpt><trkpt lat="34.439148881728116" lon="8.629559661201213"><ele>202.25</ele><time>2026-04-08T11:13:51Z</time></trkpt><trkpt lat="34.43923576684892" lon="8.629704181933333"><ele>202.5</ele><time>2026-04-08T11:13:52Z</time></trkpt><trkpt lat="34.439314022543506" lon="8.629834032064403"><ele>202.75</ele><time>2026-04-08T11:13:53Z</time></trkpt><trkpt lat="34.43938632983453" lon="8.629947762258277"><ele>203.0</ele><time>2026-04-08T11:13:54Z</time></trkpt><trkpt lat="34.43944626250923" lon="8.63004943497204"><ele>203.0</ele><time>2026-04-08T11:13:55Z</time></trkpt><trkpt lat="34.4394941913102" lon="8.63013447300869"><ele>203.0</ele><time>2026-04-08T11:13:56Z</time></trkpt><trkpt lat="34.439536240854395" lon="8.630205432929367"><ele>203.0</ele><time>2026-04-08T11:13:57Z</time></trkpt><trkpt lat="34.43960859265698" lon="8.630316124683624"><ele>203.0</ele><time>2026-04-08T11:13:59Z</time></trkpt><trkpt lat="34.43967552413288" lon="8.63042602445066"><ele>203.0</ele><time>2026-04-08T11:14:01Z</time></trkpt><trkpt lat="34.439751573738725" lon="8.630553399244356"><ele>202.4</ele><time>2026-04-08T11:14:03Z</time></trkpt><trkpt lat="34.439796952092024" lon="8.630628353265488"><ele>201.8</ele><time>2026-04-08T11:14:04Z</time></trkpt><trkpt lat="34.43984958862662" lon="8.630713897836573"><ele>201.2</ele><time>2026-04-08T11:14:05Z</time></trkpt><trkpt lat="34.43990441138976" lon="8.630809001448393"><ele>200.6</ele><time>2026-04-08T11:14:06Z</time></trkpt><trkpt lat="34.439967464692394" lon="8.630914114474646"><ele>200.0</ele><time>2026-04-08T11:14:07Z</time></trkpt><trkpt lat="34.440034705428744" lon="8.631017446692056"><ele>200.00000000000003</ele><time>2026-04-08T11:14:08Z</time></trkpt><trkpt lat="34.440094111293206" lon="8.631106029813754"><ele>200.0</ele><time>2026-04-08T11:14:09Z</time></trkpt><trkpt lat="34.44014569474353" lon="8.631186430756252"><ele>200.0</ele><time>2026-04-08T11:14:10Z</time></trkpt><trkpt lat="34.4401912842377" lon="8.631263726479514"><ele>200.0</ele><time>2026-04-08T11:14:11Z</time></trkpt><trkpt lat="34.440233648188624" lon="8.631337744356346"><ele>200.00000000000003</ele><time>2026-04-08T11:14:12Z</time></trkpt><trkpt lat="34.44027547986193" lon="8.631406464818388"><ele>200.0</ele><time>2026-04-08T11:14:13Z</time></trkpt><trkpt lat="34.44031787567178" lon="8.63147544505725"><ele>200.0</ele><time>2026-04-08T11:14:14Z</time></trkpt><trkpt lat="34.44037161480311" lon="8.631564915938563"><ele>200.0</ele><time>2026-04-08T11:14:15Z</time></trkpt><trkpt lat="34.4404317598586" lon="8.631661871253076"><ele>200.0</ele><time>2026-04-08T11:14:16Z</time></trkpt><trkpt lat="34.440501101118905" lon="8.631766513345516"><ele>200.0</ele><time>2026-04-08T11:14:17Z</time></trkpt><trkpt lat="34.4405759298677" lon="8.631880863006204"><ele>200.0</ele><time>2026-04-08T11:14:18Z</time></trkpt><trkpt lat="34.44065298127966" lon="8.63200683439432"><ele>199.25</ele><time>2026-04-08T11:14:19Z</time></trkpt><trkpt lat="34.44073253476163" lon="8.63214206490823"><ele>198.5</ele><time>2026-04-08T11:14:20Z</time></trkpt><trkpt lat="34.44081437719385" lon="8.632278752084941"><ele>197.75</ele><time>2026-04-08T11:14:21Z</time></trkpt><trkpt lat="34.44090258335117" lon="8.632415645142277"><ele>197.0</ele><time>2026-04-08T11:14:22Z</time></trkpt><trkpt lat="34.4409939033592" lon="8.632556090166975"><ele>197.0</ele><time>2026-04-08T11:14:23Z</time></trkpt><trkpt lat="34.441083264125865" lon="8.632702408747527"><ele>197.0</ele><time>2026-04-08T11:14:24Z</time></trkpt><trkpt lat="34.441171822747926" lon="8.632850797704103"><ele>197.0</ele><time>2026-04-08T11:14:25Z</time></trkpt><trkpt lat="34.44126143079426" lon="8.632994961798271"><ele>197.33333333333334</ele><time>2026-04-08T11:14:26Z</time></trkpt><trkpt lat="34.441351635375646" lon="8.633141208029011"><ele>197.66666666666669</ele><time>2026-04-08T11:14:27Z</time></trkpt><trkpt lat="34.44144198479606" lon="8.633286776794096"><ele>198.0</ele><time>2026-04-08T11:14:28Z</time></trkpt><trkpt lat="34.44153276854258" lon="8.63343226667576"><ele>198.0</ele><time>2026-04-08T11:14:29Z</time></trkpt><trkpt lat="34.44162563965107" lon="8.633578413513241"><ele>198.0</ele><time>2026-04-08T11:14:30Z</time></trkpt><trkpt lat="34.44171981417235" lon="8.633726107674732"><ele>198.0</ele><time>2026-04-08T11:14:31Z</time></trkpt><trkpt lat="34.441814690153464" lon="8.63387818540327"><ele>197.33333333333331</ele><time>2026-04-08T11:14:32Z</time></trkpt><trkpt lat="34.44191297336346" lon="8.634036739326042"><ele>196.66666666666666</ele><time>2026-04-08T11:14:33Z</time></trkpt><trkpt lat="34.44201549191354" lon="8.63419740719958"><ele>196.0</ele><time>2026-04-08T11:14:34Z</time></trkpt><trkpt lat="34.44212039074983" lon="8.634362624598898"><ele>197.0</ele><time>2026-04-08T11:14:35Z</time></trkpt><trkpt lat="34.44222946513807" lon="8.634535725665346"><ele>198.0</ele><time>2026-04-08T11:14:36Z</time></trkpt><trkpt lat="34.442344489018424" lon="8.63471605379504"><ele>199.0</ele><time>2026-04-08T11:14:37Z</time></trkpt><trkpt lat="34.44246442369105" lon="8.634902159448561"><ele>199.0</ele><time>2026-04-08T11:14:38Z</time></trkpt><trkpt lat="34.44258186093818" lon="8.635085323594005"><ele>199.0</ele><time>2026-04-08T11:14:39Z</time></trkpt><trkpt lat="34.4426994627701" lon="8.635266814898994"><ele>199.0</ele><time>2026-04-08T11:14:40Z</time></trkpt><trkpt lat="34.442819160831306" lon="8.635452264319325"><ele>198.0</ele><time>2026-04-08T11:14:41Z</time></trkpt><trkpt lat="34.44294434167427" lon="8.635647061562459"><ele>197.0</ele><time>2026-04-08T11:14:42Z</time></trkpt><trkpt lat="34.443071706762815" lon="8.635846166520698"><ele>196.0</ele><time>2026-04-08T11:14:43Z</time></trkpt><trkpt lat="34.44319575984985" lon="8.636037206915603"><ele>195.33333333333331</ele><time>2026-04-08T11:14:44Z</time></trkpt><trkpt lat="34.44331691186161" lon="8.636228481289253"><ele>194.66666666666669</ele><time>2026-04-08T11:14:45Z</time></trkpt><trkpt lat="34.443433011061245" lon="8.636417007895547"><ele>194.0</ele><time>2026-04-08T11:14:46Z</time></trkpt><trkpt lat="34.443539370819074" lon="8.63660792886132"><ele>194.0</ele><time>2026-04-08T11:14:47Z</time></trkpt><trkpt lat="34.4436346915952" lon="8.636801480756013"><ele>194.0</ele><time>2026-04-08T11:14:48Z</time></trkpt><trkpt lat="34.44372035781498" lon="8.636997144374815"><ele>194.0</ele><time>2026-04-08T11:14:49Z</time></trkpt><trkpt lat="34.4437981568926" lon="8.63720292098992"><ele>194.66666666666669</ele><time>2026-04-08T11:14:50Z</time></trkpt><trkpt lat="34.4438639267754" lon="8.637418992102726"><ele>195.33333333333331</ele><time>2026-04-08T11:14:51Z</time></trkpt><trkpt lat="34.443917794824536" lon="8.637638266078774"><ele>196.0</ele><time>2026-04-08T11:14:52Z</time></trkpt><trkpt lat="34.443957677553314" lon="8.637863775247057"><ele>196.0</ele><time>2026-04-08T11:14:53Z</time></trkpt><trkpt lat="34.44398652794561" lon="8.638092028972617"><ele>196.0</ele><time>2026-04-08T11:14:54Z</time></trkpt><trkpt lat="34.44400204228185" lon="8.638335450650905"><ele>196.0</ele><time>2026-04-08T11:14:55Z</time></trkpt><trkpt lat="34.44400833291203" lon="8.638589018645455"><ele>195.33333333333331</ele><time>2026-04-08T11:14:56Z</time></trkpt><trkpt lat="34.444008729728345" lon="8.638855539250196"><ele>194.66666666666669</ele><time>2026-04-08T11:14:57Z</time></trkpt><trkpt lat="34.444010906104225" lon="8.639115409390774"><ele>194.0</ele><time>2026-04-08T11:14:58Z</time></trkpt><trkpt lat="34.44401006997803" lon="8.639373084008954"><ele>194.33333333333334</ele><time>2026-04-08T11:14:59Z</time></trkpt><trkpt lat="34.44401379293714" lon="8.639630973120799"><ele>194.66666666666669</ele><time>2026-04-08T11:15:00Z</time></trkpt><trkpt lat="34.444018504836436" lon="8.639894176527536"><ele>195.0</ele><time>2026-04-08T11:15:01Z</time></trkpt><trkpt lat="34.444021467663255" lon="8.640158637429247"><ele>195.0</ele><time>2026-04-08T11:15:02Z</time></trkpt><trkpt lat="34.44402711803769" lon="8.64042135898861"><ele>195.0</ele><time>2026-04-08T11:15:03Z</time></trkpt><trkpt lat="34.444032905599954" lon="8.640680680166332"><ele>195.0</ele><time>2026-04-08T11:15:04Z</time></trkpt><trkpt lat="34.444039062255555" lon="8.640937269349202"><ele>195.33333333333331</ele><time>2026-04-08T11:15:05Z</time></trkpt><trkpt lat="34.444046761918635" lon="8.641190641119598"><ele>195.66666666666666</ele><time>2026-04-08T11:15:06Z</time></trkpt><trkpt lat="34.44405658365273" lon="8.641445827800723"><ele>196.0</ele><time>2026-04-08T11:15:07Z</time></trkpt><trkpt lat="34.44406939752977" lon="8.641695741803085"><ele>196.0</ele><time>2026-04-08T11:15:08Z</time></trkpt><trkpt lat="34.44408143865281" lon="8.641946592353413"><ele>196.0</ele><time>2026-04-08T11:15:09Z</time></trkpt><trkpt lat="34.444091464758735" lon="8.642196104986803"><ele>196.0</ele><time>2026-04-08T11:15:10Z</time></trkpt><trkpt lat="34.44410159591436" lon="8.642444473282751"><ele>196.0</ele><time>2026-04-08T11:15:11Z</time></trkpt><trkpt lat="34.44411179399184" lon="8.642689814248456"><ele>196.0</ele><time>2026-04-08T11:15:12Z</time></trkpt><trkpt lat="34.44411953355236" lon="8.642936600509927"><ele>196.0</ele><time>2026-04-08T11:15:13Z</time></trkpt><trkpt lat="34.444129788440065" lon="8.643180259266915"><ele>196.0</ele><time>2026-04-08T11:15:14Z</time></trkpt><trkpt lat="34.44414052255954" lon="8.643423431940214"><ele>196.0</ele><time>2026-04-08T11:15:15Z</time></trkpt><trkpt lat="34.4441516471952" lon="8.643668570075917"><ele>196.0</ele><time>2026-04-08T11:15:16Z</time></trkpt><trkpt lat="34.44416478172252" lon="8.643911476235868"><ele>196.0</ele><time>2026-04-08T11:15:17Z</time></trkpt><trkpt lat="34.44417911024859" lon="8.644154683255511"><ele>196.0</ele><time>2026-04-08T11:15:18Z</time></trkpt><trkpt lat="34.44419299758968" lon="8.644400388502161"><ele>196.0</ele><time>2026-04-08T11:15:19Z</time></trkpt><trkpt lat="34.444205198441274" lon="8.64464317176968"><ele>196.33333333333331</ele><time>2026-04-08T11:15:20Z</time></trkpt><trkpt lat="34.444218849728074" lon="8.644887745385493"><ele>196.66666666666669</ele><time>2026-04-08T11:15:21Z</time></trkpt><trkpt lat="34.444232385997196" lon="8.645132544804296"><ele>197.0</ele><time>2026-04-08T11:15:22Z</time></trkpt><trkpt lat="34.444245291603025" lon="8.645377986656731"><ele>197.66666666666669</ele><time>2026-04-08T11:15:23Z</time></trkpt><trkpt lat="34.44426093907585" lon="8.645622804452238"><ele>198.33333333333331</ele><time>2026-04-08T11:15:24Z</time></trkpt><trkpt lat="34.44427462592284" lon="8.645865775793748"><ele>199.0</ele><time>2026-04-08T11:15:25Z</time></trkpt><trkpt lat="34.444286977360974" lon="8.646112467135808"><ele>198.33333333333331</ele><time>2026-04-08T11:15:26Z</time></trkpt><trkpt lat="34.44429863266974" lon="8.646359861352643"><ele>197.66666666666669</ele><time>2026-04-08T11:15:27Z</time></trkpt><trkpt lat="34.444310245061224" lon="8.646611103851845"><ele>197.0</ele><time>2026-04-08T11:15:28Z</time></trkpt><trkpt lat="34.44432288574212" lon="8.646861580459852"><ele>197.33333333333334</ele><time>2026-04-08T11:15:29Z</time></trkpt><trkpt lat="34.44433715955406" lon="8.647112263387658"><ele>197.66666666666669</ele><time>2026-04-08T11:15:30Z</time></trkpt><trkpt lat="34.44435426554653" lon="8.647362238858939"><ele>198.0</ele><time>2026-04-08T11:15:31Z</time></trkpt><trkpt lat="34.44437214684771" lon="8.647613895089995"><ele>198.33333333333331</ele><time>2026-04-08T11:15:32Z</time></trkpt><trkpt lat="34.44438956135057" lon="8.647862847089648"><ele>198.66666666666666</ele><time>2026-04-08T11:15:33Z</time></trkpt><trkpt lat="34.44440092568551" lon="8.648111580484587"><ele>199.0</ele><time>2026-04-08T11:15:34Z</time></trkpt><trkpt lat="34.444411272102016" lon="8.648360230906395"><ele>199.0</ele><time>2026-04-08T11:15:35Z</time></trkpt><trkpt lat="34.4444270327217" lon="8.64861098359745"><ele>199.0</ele><time>2026-04-08T11:15:36Z</time></trkpt><trkpt lat="34.44444555851575" lon="8.648862142667571"><ele>199.0</ele><time>2026-04-08T11:15:37Z</time></trkpt><trkpt lat="34.444461390922854" lon="8.649113264034327"><ele>199.0</ele><time>2026-04-08T11:15:38Z</time></trkpt><trkpt lat="34.44447601572168" lon="8.649366214096368"><ele>199.0</ele><time>2026-04-08T11:15:39Z</time></trkpt><trkpt lat="34.4444921740121" lon="8.64962814547519"><ele>199.0</ele><time>2026-04-08T11:15:40Z</time></trkpt><trkpt lat="34.44451169866039" lon="8.649890184825153"><ele>199.66666666666666</ele><time>2026-04-08T11:15:41Z</time></trkpt><trkpt lat="34.444531673695835" lon="8.650158247316234"><ele>200.33333333333331</ele><time>2026-04-08T11:15:42Z</time></trkpt><trkpt lat="34.44455013902278" lon="8.650426876168565"><ele>201.0</ele><time>2026-04-08T11:15:43Z</time></trkpt><trkpt lat="34.44456700781098" lon="8.650698873074397"><ele>201.33333333333331</ele><time>2026-04-08T11:15:44Z</time></trkpt><trkpt lat="34.44458340708965" lon="8.650963621381889"><ele>201.66666666666666</ele><time>2026-04-08T11:15:45Z</time></trkpt><trkpt lat="34.44459815760391" lon="8.651231558047263"><ele>202.0</ele><time>2026-04-08T11:15:46Z</time></trkpt><trkpt lat="34.444618094708936" lon="8.651502953167807"><ele>202.0</ele><time>2026-04-08T11:15:47Z</time></trkpt><trkpt lat="34.44463513859859" lon="8.651786678258937"><ele>202.0</ele><time>2026-04-08T11:15:48Z</time></trkpt><trkpt lat="34.4446513483868" lon="8.652085051113547"><ele>202.0</ele><time>2026-04-08T11:15:49Z</time></trkpt><trkpt lat="34.44466941563942" lon="8.652402696902097"><ele>202.0</ele><time>2026-04-08T11:15:50Z</time></trkpt><trkpt lat="34.44468975685336" lon="8.652735565594508"><ele>203.0</ele><time>2026-04-08T11:15:51Z</time></trkpt><trkpt lat="34.44471165716058" lon="8.653078913071152"><ele>204.0</ele><time>2026-04-08T11:15:52Z</time></trkpt><trkpt lat="34.444733988444064" lon="8.653433473104412"><ele>204.5</ele><time>2026-04-08T11:15:53Z</time></trkpt><trkpt lat="34.44475883355955" lon="8.653777369440084"><ele>205.0</ele><time>2026-04-08T11:15:54Z</time></trkpt><trkpt lat="34.44478047837045" lon="8.654120202555633"><ele>204.5</ele><time>2026-04-08T11:15:55Z</time></trkpt><trkpt lat="34.444804542829914" lon="8.654468947949834"><ele>204.0</ele><time>2026-04-08T11:15:56Z</time></trkpt><trkpt lat="34.44482951570866" lon="8.654816568700126"><ele>204.0</ele><time>2026-04-08T11:15:57Z</time></trkpt><trkpt lat="34.44485212934143" lon="8.655165850282941"><ele>204.0</ele><time>2026-04-08T11:15:58Z</time></trkpt><trkpt lat="34.44487781653829" lon="8.655514381588794"><ele>204.5</ele><time>2026-04-08T11:15:59Z</time></trkpt><trkpt lat="34.44490363456321" lon="8.655863817645995"><ele>205.0</ele><time>2026-04-08T11:16:00Z</time></trkpt><trkpt lat="34.444928395356776" lon="8.65621340976818"><ele>204.0</ele><time>2026-04-08T11:16:01Z</time></trkpt><trkpt lat="34.444953472319725" lon="8.656560810693398"><ele>203.0</ele><time>2026-04-08T11:16:02Z</time></trkpt><trkpt lat="34.444977925388805" lon="8.65690877559243"><ele>203.0</ele><time>2026-04-08T11:16:03Z</time></trkpt><trkpt lat="34.445006560309835" lon="8.657259227787769"><ele>203.0</ele><time>2026-04-08T11:16:04Z</time></trkpt><trkpt lat="34.445036501590955" lon="8.657605074026238"><ele>203.5</ele><time>2026-04-08T11:16:05Z</time></trkpt><trkpt lat="34.44506470524796" lon="8.657951748639642"><ele>204.0</ele><time>2026-04-08T11:16:06Z</time></trkpt><trkpt lat="34.44509212570688" lon="8.658300411129588"><ele>204.0</ele><time>2026-04-08T11:16:07Z</time></trkpt><trkpt lat="34.44511935113236" lon="8.658649673871903"><ele>204.0</ele><time>2026-04-08T11:16:08Z</time></trkpt><trkpt lat="34.44514713494439" lon="8.658997345576639"><ele>204.0</ele><time>2026-04-08T11:16:09Z</time></trkpt><trkpt lat="34.44517466635611" lon="8.659345929478544"><ele>204.0</ele><time>2026-04-08T11:16:10Z</time></trkpt><trkpt lat="34.445204839104505" lon="8.659692715403366"><ele>203.5</ele><time>2026-04-08T11:16:11Z</time></trkpt><trkpt lat="34.44523677532767" lon="8.66003967637001"><ele>203.0</ele><time>2026-04-08T11:16:12Z</time></trkpt><trkpt lat="34.44526871844343" lon="8.660387807230626"><ele>203.0</ele><time>2026-04-08T11:16:13Z</time></trkpt><trkpt lat="34.44530040512154" lon="8.660739911980196"><ele>203.0</ele><time>2026-04-08T11:16:14Z</time></trkpt><trkpt lat="34.44533114707257" lon="8.661086516327254"><ele>204.0</ele><time>2026-04-08T11:16:15Z</time></trkpt><trkpt lat="34.44536177657982" lon="8.661428206818593"><ele>205.0</ele><time>2026-04-08T11:16:16Z</time></trkpt><trkpt lat="34.44539394964604" lon="8.66176885028884"><ele>205.5</ele><time>2026-04-08T11:16:17Z</time></trkpt><trkpt lat="34.4454243651355" lon="8.662107585778502"><ele>206.0</ele><time>2026-04-08T11:16:18Z</time></trkpt><trkpt lat="34.44545382960371" lon="8.66244652353249"><ele>206.0</ele><time>2026-04-08T11:16:19Z</time></trkpt><trkpt lat="34.44548172001245" lon="8.662784446942513"><ele>206.0</ele><time>2026-04-08T11:16:20Z</time></trkpt><trkpt lat="34.445509378244026" lon="8.663118015739032"><ele>206.0</ele><time>2026-04-08T11:16:21Z</time></trkpt><trkpt lat="34.445538365821946" lon="8.663445757683752"><ele>206.0</ele><time>2026-04-08T11:16:22Z</time></trkpt><trkpt lat="34.445566896326206" lon="8.663765983772944"><ele>206.0</ele><time>2026-04-08T11:16:23Z</time></trkpt><trkpt lat="34.44559411383365" lon="8.664081523309669"><ele>206.0</ele><time>2026-04-08T11:16:24Z</time></trkpt><trkpt lat="34.44561972030353" lon="8.664390837131979"><ele>205.5</ele><time>2026-04-08T11:16:25Z</time></trkpt><trkpt lat="34.44564617549332" lon="8.664694165678549"><ele>205.0</ele><time>2026-04-08T11:16:26Z</time></trkpt><trkpt lat="34.44567331899112" lon="8.664987747200357"><ele>205.0</ele><time>2026-04-08T11:16:27Z</time></trkpt><trkpt lat="34.44570137184624" lon="8.665271997334077"><ele>205.0</ele><time>2026-04-08T11:16:28Z</time></trkpt><trkpt lat="34.445727090973165" lon="8.66555044634616"><ele>205.33333333333331</ele><time>2026-04-08T11:16:29Z</time></trkpt><trkpt lat="34.445753678019734" lon="8.665817232265562"><ele>205.66666666666669</ele><time>2026-04-08T11:16:30Z</time></trkpt><trkpt lat="34.445782694623574" lon="8.666071358927777"><ele>206.0</ele><time>2026-04-08T11:16:31Z</time></trkpt><trkpt lat="34.445813302853615" lon="8.666318921172243"><ele>206.33333333333334</ele><time>2026-04-08T11:16:32Z</time></trkpt><trkpt lat="34.44584234761905" lon="8.666569035595149"><ele>206.66666666666669</ele><time>2026-04-08T11:16:33Z</time></trkpt><trkpt lat="34.44587381605972" lon="8.6668244279618"><ele>207.0</ele><time>2026-04-08T11:16:34Z</time></trkpt><trkpt lat="34.4459089640461" lon="8.667093639972824"><ele>205.5</ele><time>2026-04-08T11:16:35Z</time></trkpt><trkpt lat="34.44594766375603" lon="8.667371296523218"><ele>204.0</ele><time>2026-04-08T11:16:36Z</time></trkpt><trkpt lat="34.44598487205498" lon="8.66764276358197"><ele>204.0</ele><time>2026-04-08T11:16:37Z</time></trkpt><trkpt lat="34.44601973456985" lon="8.66791735765442"><ele>204.0</ele><time>2026-04-08T11:16:38Z</time></trkpt><trkpt lat="34.44605622933065" lon="8.66819284183082"><ele>204.0</ele><time>2026-04-08T11:16:39Z</time></trkpt><trkpt lat="34.44609512669958" lon="8.668465424174206"><ele>204.0</ele><time>2026-04-08T11:16:40Z</time></trkpt><trkpt lat="34.44613486846857" lon="8.66873727904484"><ele>203.5</ele><time>2026-04-08T11:16:41Z</time></trkpt><trkpt lat="34.44617448055504" lon="8.66900765862409"><ele>203.0</ele><time>2026-04-08T11:16:42Z</time></trkpt><trkpt lat="34.4462133205576" lon="8.669278943387702"><ele>203.5</ele><time>2026-04-08T11:16:43Z</time></trkpt><trkpt lat="34.44625519954848" lon="8.669546642716833"><ele>204.0</ele><time>2026-04-08T11:16:44Z</time></trkpt><trkpt lat="34.44629903019122" lon="8.669815473617923"><ele>204.5</ele><time>2026-04-08T11:16:45Z</time></trkpt><trkpt lat="34.44634269353326" lon="8.670083698667677"><ele>205.0</ele><time>2026-04-08T11:16:46Z</time></trkpt><trkpt lat="34.44638658482679" lon="8.670351284519114"><ele>205.5</ele><time>2026-04-08T11:16:47Z</time></trkpt><trkpt lat="34.44643162142731" lon="8.67062004953257"><ele>206.0</ele><time>2026-04-08T11:16:48Z</time></trkpt><trkpt lat="34.446474869054164" lon="8.670892580976204"><ele>207.0</ele><time>2026-04-08T11:16:49Z</time></trkpt><trkpt lat="34.44651597344563" lon="8.671169450997128"><ele>208.0</ele><time>2026-04-08T11:16:50Z</time></trkpt><trkpt lat="34.4465578274995" lon="8.671447768458298"><ele>208.0</ele><time>2026-04-08T11:16:51Z</time></trkpt><trkpt lat="34.44660027723817" lon="8.67172663235413"><ele>208.0</ele><time>2026-04-08T11:16:52Z</time></trkpt><trkpt lat="34.446640509892816" lon="8.672006361567993"><ele>208.0</ele><time>2026-04-08T11:16:53Z</time></trkpt><trkpt lat="34.44668253258313" lon="8.672284619775567"><ele>208.0</ele><time>2026-04-08T11:16:54Z</time></trkpt><trkpt lat="34.44672622310906" lon="8.672562987436372"><ele>208.5</ele><time>2026-04-08T11:16:55Z</time></trkpt><trkpt lat="34.446768993091396" lon="8.672840642982665"><ele>209.0</ele><time>2026-04-08T11:16:56Z</time></trkpt><trkpt lat="34.44680793959285" lon="8.673120248788342"><ele>209.0</ele><time>2026-04-08T11:16:57Z</time></trkpt><trkpt lat="34.44684852452724" lon="8.673396266456399"><ele>209.0</ele><time>2026-04-08T11:16:58Z</time></trkpt><trkpt lat="34.44689157723332" lon="8.67367230155255"><ele>208.5</ele><time>2026-04-08T11:16:59Z</time></trkpt><trkpt lat="34.4469387475637" lon="8.673948135060206"><ele>208.0</ele><time>2026-04-08T11:17:00Z</time></trkpt><trkpt lat="34.446987749462245" lon="8.674223161039814"><ele>207.0</ele><time>2026-04-08T11:17:01Z</time></trkpt><trkpt lat="34.447039696399166" lon="8.674497349740555"><ele>206.0</ele><time>2026-04-08T11:17:02Z</time></trkpt><trkpt lat="34.44709296153296" lon="8.674775809122359"><ele>206.0</ele><time>2026-04-08T11:17:03Z</time></trkpt><trkpt lat="34.447148492827964" lon="8.675052442146992"><ele>206.0</ele><time>2026-04-08T11:17:04Z</time></trkpt><trkpt lat="34.44721294868172" lon="8.67532578832006"><ele>206.0</ele><time>2026-04-08T11:17:05Z</time></trkpt><trkpt lat="34.44728642756096" lon="8.67559657213834"><ele>206.0</ele><time>2026-04-08T11:17:06Z</time></trkpt><trkpt lat="34.44735989592721" lon="8.675868723484495"><ele>206.0</ele><time>2026-04-08T11:17:07Z</time></trkpt><trkpt lat="34.447424214228555" lon="8.676143730266675"><ele>206.0</ele><time>2026-04-08T11:17:08Z</time></trkpt><trkpt lat="34.44748781176341" lon="8.676416383842483"><ele>206.0</ele><time>2026-04-08T11:17:09Z</time></trkpt><trkpt lat="34.44755777574247" lon="8.676689626888455"><ele>206.0</ele><time>2026-04-08T11:17:10Z</time></trkpt><trkpt lat="34.44763013987081" lon="8.676960007865224"><ele>205.5</ele><time>2026-04-08T11:17:11Z</time></trkpt><trkpt lat="34.44769705039301" lon="8.67723382942547"><ele>205.0</ele><time>2026-04-08T11:17:12Z</time></trkpt><trkpt lat="34.447760767128045" lon="8.67750726580017"><ele>204.5</ele><time>2026-04-08T11:17:13Z</time></trkpt><trkpt lat="34.4478257884489" lon="8.677782964876307"><ele>204.0</ele><time>2026-04-08T11:17:14Z</time></trkpt><trkpt lat="34.44789316617243" lon="8.678061884165661"><ele>204.5</ele><time>2026-04-08T11:17:15Z</time></trkpt><trkpt lat="34.44796079828034" lon="8.678341853993722"><ele>205.0</ele><time>2026-04-08T11:17:16Z</time></trkpt><trkpt lat="34.448027511362916" lon="8.678621115633288"><ele>205.0</ele><time>2026-04-08T11:17:17Z</time></trkpt><trkpt lat="34.44809349555892" lon="8.678904028211388"><ele>205.0</ele><time>2026-04-08T11:17:18Z</time></trkpt><trkpt lat="34.44816236719109" lon="8.679177199970162"><ele>205.0</ele><time>2026-04-08T11:17:19Z</time></trkpt><trkpt lat="34.448231821177394" lon="8.679450420942903"><ele>205.0</ele><time>2026-04-08T11:17:20Z</time></trkpt><trkpt lat="34.44829890076419" lon="8.679721501632098"><ele>205.0</ele><time>2026-04-08T11:17:21Z</time></trkpt><trkpt lat="34.448360746777546" lon="8.679999259914606"><ele>205.0</ele><time>2026-04-08T11:17:22Z</time></trkpt><trkpt lat="34.448424904602874" lon="8.680274543548071"><ele>205.5</ele><time>2026-04-08T11:17:23Z</time></trkpt><trkpt lat="34.44849335608869" lon="8.680549052263538"><ele>206.0</ele><time>2026-04-08T11:17:24Z</time></trkpt><trkpt lat="34.44856205133459" lon="8.68082249728198"><ele>206.0</ele><time>2026-04-08T11:17:25Z</time></trkpt><trkpt lat="34.448628419861464" lon="8.68109733377197"><ele>206.0</ele><time>2026-04-08T11:17:26Z</time></trkpt><trkpt lat="34.44869418755733" lon="8.681370649110292"><ele>206.33333333333334</ele><time>2026-04-08T11:17:27Z</time></trkpt><trkpt lat="34.448760456601775" lon="8.68163280433294"><ele>206.66666666666669</ele><time>2026-04-08T11:17:28Z</time></trkpt><trkpt lat="34.44882136592109" lon="8.681876720754714"><ele>207.0</ele><time>2026-04-08T11:17:29Z</time></trkpt><trkpt lat="34.44887677855642" lon="8.682106520672937"><ele>207.0</ele><time>2026-04-08T11:17:30Z</time></trkpt><trkpt lat="34.44892853748806" lon="8.682323748511163"><ele>207.0</ele><time>2026-04-08T11:17:31Z</time></trkpt><trkpt lat="34.448979095334856" lon="8.682534659174697"><ele>207.0</ele><time>2026-04-08T11:17:32Z</time></trkpt><trkpt lat="34.449029024355475" lon="8.682746444095809"><ele>207.0</ele><time>2026-04-08T11:17:33Z</time></trkpt><trkpt lat="34.44907919855054" lon="8.68295937554154"><ele>207.0</ele><time>2026-04-08T11:17:34Z</time></trkpt><trkpt lat="34.44912973320436" lon="8.683171912391435"><ele>207.0</ele><time>2026-04-08T11:17:35Z</time></trkpt><trkpt lat="34.44917900170018" lon="8.683384998241635"><ele>208.0</ele><time>2026-04-08T11:17:36Z</time></trkpt><trkpt lat="34.44922772388039" lon="8.683601639404039"><ele>209.0</ele><time>2026-04-08T11:17:37Z</time></trkpt><trkpt lat="34.44928098450132" lon="8.683817506933083"><ele>210.0</ele><time>2026-04-08T11:17:38Z</time></trkpt><trkpt lat="34.449332975820425" lon="8.684028627548868"><ele>210.0</ele><time>2026-04-08T11:17:39Z</time></trkpt><trkpt lat="34.44938052697322" lon="8.684230569283699"><ele>210.0</ele><time>2026-04-08T11:17:40Z</time></trkpt><trkpt lat="34.44942834285358" lon="8.684418210198318"><ele>210.0</ele><time>2026-04-08T11:17:41Z</time></trkpt><trkpt lat="34.44947728336571" lon="8.684601227867798"><ele>209.75</ele><time>2026-04-08T11:17:42Z</time></trkpt><trkpt lat="34.449520779047425" lon="8.684777647405907"><ele>209.5</ele><time>2026-04-08T11:17:43Z</time></trkpt><trkpt lat="34.4495535669961" lon="8.684947210983337"><ele>209.25</ele><time>2026-04-08T11:17:44Z</time></trkpt><trkpt lat="34.44957852337174" lon="8.68511896290921"><ele>209.0</ele><time>2026-04-08T11:17:45Z</time></trkpt><trkpt lat="34.44959857603403" lon="8.68529672173787"><ele>208.66666666666669</ele><time>2026-04-08T11:17:46Z</time></trkpt><trkpt lat="34.44961159704359" lon="8.68547926318626"><ele>208.33333333333331</ele><time>2026-04-08T11:17:47Z</time></trkpt><trkpt lat="34.449617363350555" lon="8.685662737338115"><ele>208.0</ele><time>2026-04-08T11:17:48Z</time></trkpt><trkpt lat="34.449617976619436" lon="8.685845944297773"><ele>208.0</ele><time>2026-04-08T11:17:49Z</time></trkpt><trkpt lat="34.44961444094739" lon="8.686033704183219"><ele>208.0</ele><time>2026-04-08T11:17:50Z</time></trkpt><trkpt lat="34.44959788079377" lon="8.686224755479241"><ele>208.0</ele><time>2026-04-08T11:17:51Z</time></trkpt><trkpt lat="34.44956724570407" lon="8.68641214206433"><ele>208.33333333333331</ele><time>2026-04-08T11:17:52Z</time></trkpt><trkpt lat="34.44953246965311" lon="8.686608319886737"><ele>208.66666666666669</ele><time>2026-04-08T11:17:53Z</time></trkpt><trkpt lat="34.44949180782387" lon="8.686812329536016"><ele>209.0</ele><time>2026-04-08T11:17:54Z</time></trkpt><trkpt lat="34.449432874069096" lon="8.687032377750738"><ele>209.33333333333334</ele><time>2026-04-08T11:17:55Z</time></trkpt><trkpt lat="34.44935696294475" lon="8.68726848732898"><ele>209.66666666666669</ele><time>2026-04-08T11:17:56Z</time></trkpt><trkpt lat="34.44926508047446" lon="8.687510873935345"><ele>210.0</ele><time>2026-04-08T11:17:57Z</time></trkpt><trkpt lat="34.44916104108768" lon="8.687741472416775"><ele>210.0</ele><time>2026-04-08T11:17:58Z</time></trkpt><trkpt lat="34.449050996569774" lon="8.687952243826029"><ele>210.0</ele><time>2026-04-08T11:17:59Z</time></trkpt><trkpt lat="34.44894684874443" lon="8.68816640178214"><ele>210.0</ele><time>2026-04-08T11:18:00Z</time></trkpt><trkpt lat="34.448843234662355" lon="8.688385961257676"><ele>210.66666666666669</ele><time>2026-04-08T11:18:01Z</time></trkpt><trkpt lat="34.448733936301565" lon="8.68861335141539"><ele>211.33333333333334</ele><time>2026-04-08T11:18:02Z</time></trkpt><trkpt lat="34.44863326904224" lon="8.688834836658998"><ele>212.0</ele><time>2026-04-08T11:18:03Z</time></trkpt><trkpt lat="34.44853806684046" lon="8.68904046876336"><ele>212.0</ele><time>2026-04-08T11:18:04Z</time></trkpt><trkpt lat="34.44844698870618" lon="8.689232282074776"><ele>212.0</ele><time>2026-04-08T11:18:05Z</time></trkpt><trkpt lat="34.44835753764215" lon="8.689424202521435"><ele>212.0</ele><time>2026-04-08T11:18:06Z</time></trkpt><trkpt lat="34.448270571135595" lon="8.689615280018035"><ele>212.33333333333334</ele><time>2026-04-08T11:18:07Z</time></trkpt><trkpt lat="34.4481853439314" lon="8.689801905158951"><ele>212.66666666666669</ele><time>2026-04-08T11:18:08Z</time></trkpt><trkpt lat="34.44809993276865" lon="8.689985150987358"><ele>213.0</ele><time>2026-04-08T11:18:09Z</time></trkpt><trkpt lat="34.44801062514437" lon="8.690166815406888"><ele>213.33333333333331</ele><time>2026-04-08T11:18:10Z</time></trkpt><trkpt lat="34.44792126881511" lon="8.690347422566258"><ele>213.66666666666666</ele><time>2026-04-08T11:18:11Z</time></trkpt><trkpt lat="34.44783260602869" lon="8.690529336214155"><ele>214.0</ele><time>2026-04-08T11:18:12Z</time></trkpt><trkpt lat="34.44774809996372" lon="8.690706759668519"><ele>214.0</ele><time>2026-04-08T11:18:13Z</time></trkpt><trkpt lat="34.44766841110303" lon="8.69088435407888"><ele>214.0</ele><time>2026-04-08T11:18:14Z</time></trkpt><trkpt lat="34.447585999814194" lon="8.691062447717673"><ele>214.0</ele><time>2026-04-08T11:18:15Z</time></trkpt><trkpt lat="34.44750086503344" lon="8.691237404973892"><ele>214.66666666666666</ele><time>2026-04-08T11:18:16Z</time></trkpt><trkpt lat="34.447406707274304" lon="8.691416311427059"><ele>215.33333333333331</ele><time>2026-04-08T11:18:17Z</time></trkpt><trkpt lat="34.44731094834871" lon="8.691596882455931"><ele>216.0</ele><time>2026-04-08T11:18:18Z</time></trkpt><trkpt lat="34.44721893430104" lon="8.691773369400149"><ele>216.33333333333331</ele><time>2026-04-08T11:18:19Z</time></trkpt><trkpt lat="34.44712533730346" lon="8.69194831904936"><ele>216.66666666666666</ele><time>2026-04-08T11:18:20Z</time></trkpt><trkpt lat="34.44703555489821" lon="8.692120977823176"><ele>217.0</ele><time>2026-04-08T11:18:21Z</time></trkpt><trkpt lat="34.446948488673954" lon="8.69228966812329"><ele>217.0</ele><time>2026-04-08T11:18:22Z</time></trkpt><trkpt lat="34.446866190026114" lon="8.692447846298771"><ele>217.0</ele><time>2026-04-08T11:18:23Z</time></trkpt><trkpt lat="34.446781644288585" lon="8.692612864627026"><ele>217.0</ele><time>2026-04-08T11:18:24Z</time></trkpt><trkpt lat="34.44669438549822" lon="8.692793139685946"><ele>217.66666666666666</ele><time>2026-04-08T11:18:25Z</time></trkpt><trkpt lat="34.44660026511233" lon="8.692985568584115"><ele>218.33333333333331</ele><time>2026-04-08T11:18:26Z</time></trkpt><trkpt lat="34.446500573429034" lon="8.693189290487629"><ele>219.0</ele><time>2026-04-08T11:18:27Z</time></trkpt><trkpt lat="34.446394350916144" lon="8.69341046160421"><ele>218.66666666666669</ele><time>2026-04-08T11:18:28Z</time></trkpt><trkpt lat="34.44628493072039" lon="8.693634340628684"><ele>218.33333333333334</ele><time>2026-04-08T11:18:29Z</time></trkpt><trkpt lat="34.44617349199799" lon="8.693861567222378"><ele>218.0</ele><time>2026-04-08T11:18:30Z</time></trkpt><trkpt lat="34.44606350900255" lon="8.694090249685921"><ele>218.0</ele><time>2026-04-08T11:18:31Z</time></trkpt><trkpt lat="34.445952765231524" lon="8.694318046457482"><ele>218.0</ele><time>2026-04-08T11:18:32Z</time></trkpt><trkpt lat="34.4458379505778" lon="8.694547873547736"><ele>218.0</ele><time>2026-04-08T11:18:33Z</time></trkpt><trkpt lat="34.44572641596642" lon="8.694773134417316"><ele>218.0</ele><time>2026-04-08T11:18:34Z</time></trkpt><trkpt lat="34.445616983910135" lon="8.695000728829456"><ele>218.0</ele><time>2026-04-08T11:18:35Z</time></trkpt><trkpt lat="34.44550799002503" lon="8.69522959746491"><ele>218.0</ele><time>2026-04-08T11:18:36Z</time></trkpt><trkpt lat="34.445399400386705" lon="8.695460558106493"><ele>218.0</ele><time>2026-04-08T11:18:37Z</time></trkpt><trkpt lat="34.44529244112557" lon="8.695688145463757"><ele>218.0</ele><time>2026-04-08T11:18:38Z</time></trkpt><trkpt lat="34.44518284029961" lon="8.695920638528644"><ele>218.0</ele><time>2026-04-08T11:18:39Z</time></trkpt><trkpt lat="34.44508017517492" lon="8.696153662648266"><ele>218.66666666666669</ele><time>2026-04-08T11:18:40Z</time></trkpt><trkpt lat="34.44498236819337" lon="8.69638839017188"><ele>219.33333333333331</ele><time>2026-04-08T11:18:41Z</time></trkpt><trkpt lat="34.44488753689653" lon="8.696624075449254"><ele>220.0</ele><time>2026-04-08T11:18:42Z</time></trkpt><trkpt lat="34.444795344463664" lon="8.696857670597133"><ele>219.33333333333331</ele><time>2026-04-08T11:18:43Z</time></trkpt><trkpt lat="34.444704223847125" lon="8.697092704939818"><ele>218.66666666666669</ele><time>2026-04-08T11:18:44Z</time></trkpt><trkpt lat="34.44461698058131" lon="8.69732590737145"><ele>218.0</ele><time>2026-04-08T11:18:45Z</time></trkpt><trkpt lat="34.444533175022165" lon="8.697565775881804"><ele>218.33333333333334</ele><time>2026-04-08T11:18:46Z</time></trkpt><trkpt lat="34.44445427458788" lon="8.697810556056437"><ele>218.66666666666669</ele><time>2026-04-08T11:18:47Z</time></trkpt><trkpt lat="34.4443765663565" lon="8.698064421457605"><ele>219.0</ele><time>2026-04-08T11:18:48Z</time></trkpt><trkpt lat="34.44430331325054" lon="8.698310337321551"><ele>219.0</ele><time>2026-04-08T11:18:49Z</time></trkpt><trkpt lat="34.444235373373736" lon="8.698538861355873"><ele>219.0</ele><time>2026-04-08T11:18:50Z</time></trkpt><trkpt lat="34.44416294232695" lon="8.698772133569067"><ele>219.0</ele><time>2026-04-08T11:18:51Z</time></trkpt><trkpt lat="34.44408869431802" lon="8.699013312685391"><ele>220.0</ele><time>2026-04-08T11:18:52Z</time></trkpt><trkpt lat="34.44401525936886" lon="8.699248160411454"><ele>221.0</ele><time>2026-04-08T11:18:53Z</time></trkpt><trkpt lat="34.443939184370734" lon="8.699489014115375"><ele>222.0</ele><time>2026-04-08T11:18:54Z</time></trkpt><trkpt lat="34.443860833126735" lon="8.69972914074905"><ele>221.66666666666669</ele><time>2026-04-08T11:18:55Z</time></trkpt><trkpt lat="34.443782188600224" lon="8.699954760975803"><ele>221.33333333333334</ele><time>2026-04-08T11:18:56Z</time></trkpt><trkpt lat="34.443703011717034" lon="8.700172862406523"><ele>221.0</ele><time>2026-04-08T11:18:57Z</time></trkpt><trkpt lat="34.443632216865666" lon="8.700393030781349"><ele>222.0</ele><time>2026-04-08T11:18:58Z</time></trkpt><trkpt lat="34.44356145996247" lon="8.700617205303363"><ele>223.0</ele><time>2026-04-08T11:18:59Z</time></trkpt><trkpt lat="34.443494132428285" lon="8.700842795923784"><ele>224.0</ele><time>2026-04-08T11:19:00Z</time></trkpt><trkpt lat="34.443428600683525" lon="8.701074173025106"><ele>224.66666666666669</ele><time>2026-04-08T11:19:01Z</time></trkpt><trkpt lat="34.44336392469876" lon="8.701311576524908"><ele>225.33333333333331</ele><time>2026-04-08T11:19:02Z</time></trkpt><trkpt lat="34.4433030298493" lon="8.701552977886411"><ele>226.0</ele><time>2026-04-08T11:19:03Z</time></trkpt><trkpt lat="34.443245745532124" lon="8.701797962183518"><ele>227.0</ele><time>2026-04-08T11:19:04Z</time></trkpt><trkpt lat="34.44318763981049" lon="8.702054362631387"><ele>228.0</ele><time>2026-04-08T11:19:05Z</time></trkpt><trkpt lat="34.44311711830902" lon="8.702327368171794"><ele>228.0</ele><time>2026-04-08T11:19:06Z</time></trkpt><trkpt lat="34.44303019873638" lon="8.702617051611936"><ele>228.0</ele><time>2026-04-08T11:19:07Z</time></trkpt><trkpt lat="34.44293542232077" lon="8.702913372723849"><ele>226.0</ele><time>2026-04-08T11:19:08Z</time></trkpt><trkpt lat="34.442842646219574" lon="8.703186412594368"><ele>224.0</ele><time>2026-04-08T11:19:09Z</time></trkpt><trkpt lat="34.44275795354681" lon="8.703439332840066"><ele>223.66666666666669</ele><time>2026-04-08T11:19:10Z</time></trkpt><trkpt lat="34.44268276754954" lon="8.703684636565953"><ele>223.33333333333331</ele><time>2026-04-08T11:19:11Z</time></trkpt><trkpt lat="34.44261502535698" lon="8.703942165114936"><ele>223.0</ele><time>2026-04-08T11:19:12Z</time></trkpt><trkpt lat="34.44255440075799" lon="8.704216289177714"><ele>224.0</ele><time>2026-04-08T11:19:13Z</time></trkpt><trkpt lat="34.442493576698695" lon="8.704494394566469"><ele>225.0</ele><time>2026-04-08T11:19:14Z</time></trkpt><trkpt lat="34.44242951906612" lon="8.704769783463242"><ele>225.0</ele><time>2026-04-08T11:19:15Z</time></trkpt><trkpt lat="34.442362248957345" lon="8.705043981432112"><ele>225.0</ele><time>2026-04-08T11:19:16Z</time></trkpt><trkpt lat="34.44229740346584" lon="8.705313336354617"><ele>225.33333333333331</ele><time>2026-04-08T11:19:17Z</time></trkpt><trkpt lat="34.44223486029294" lon="8.705574577355563"><ele>225.66666666666666</ele><time>2026-04-08T11:19:18Z</time></trkpt><trkpt lat="34.4421789278408" lon="8.705824525471378"><ele>226.0</ele><time>2026-04-08T11:19:19Z</time></trkpt><trkpt lat="34.44212395494007" lon="8.706074741714197"><ele>225.33333333333331</ele><time>2026-04-08T11:19:20Z</time></trkpt><trkpt lat="34.44206168242649" lon="8.706326683914885"><ele>224.66666666666669</ele><time>2026-04-08T11:19:21Z</time></trkpt><trkpt lat="34.44199518213222" lon="8.706579662525684"><ele>224.0</ele><time>2026-04-08T11:19:22Z</time></trkpt><trkpt lat="34.44192353851022" lon="8.706836918872584"><ele>224.0</ele><time>2026-04-08T11:19:23Z</time></trkpt><trkpt lat="34.44184277166748" lon="8.707089915789563"><ele>224.0</ele><time>2026-04-08T11:19:24Z</time></trkpt><trkpt lat="34.441759301515084" lon="8.707347217959892"><ele>224.0</ele><time>2026-04-08T11:19:25Z</time></trkpt><trkpt lat="34.44167985811086" lon="8.707609431503828"><ele>224.0</ele><time>2026-04-08T11:19:26Z</time></trkpt><trkpt lat="34.44159897322721" lon="8.707874537882955"><ele>224.0</ele><time>2026-04-08T11:19:27Z</time></trkpt><trkpt lat="34.44151273937404" lon="8.708139596005887"><ele>224.0</ele><time>2026-04-08T11:19:28Z</time></trkpt><trkpt lat="34.441427029243755" lon="8.708401951390682"><ele>224.5</ele><time>2026-04-08T11:19:29Z</time></trkpt><trkpt lat="34.44134547845734" lon="8.708664791676238"><ele>225.0</ele><time>2026-04-08T11:19:30Z</time></trkpt><trkpt lat="34.44127120759557" lon="8.708914315259419"><ele>224.0</ele><time>2026-04-08T11:19:31Z</time></trkpt><trkpt lat="34.44119419827448" lon="8.70914739426637"><ele>223.0</ele><time>2026-04-08T11:19:32Z</time></trkpt><trkpt lat="34.44111791868964" lon="8.70937262861779"><ele>222.0</ele><time>2026-04-08T11:19:33Z</time></trkpt><trkpt lat="34.4410465732146" lon="8.709600798146269"><ele>221.66666666666669</ele><time>2026-04-08T11:19:34Z</time></trkpt><trkpt lat="34.44097748788168" lon="8.709832401412571"><ele>221.33333333333334</ele><time>2026-04-08T11:19:35Z</time></trkpt><trkpt lat="34.4409076197231" lon="8.710069222824124"><ele>221.0</ele><time>2026-04-08T11:19:36Z</time></trkpt><trkpt lat="34.44083640493542" lon="8.710308189409142"><ele>221.0</ele><time>2026-04-08T11:19:37Z</time></trkpt><trkpt lat="34.44076357117862" lon="8.710545081595127"><ele>221.0</ele><time>2026-04-08T11:19:38Z</time></trkpt><trkpt lat="34.44069187123532" lon="8.710780212576642"><ele>221.0</ele><time>2026-04-08T11:19:39Z</time></trkpt><trkpt lat="34.44062074234363" lon="8.711012978271254"><ele>222.0</ele><time>2026-04-08T11:19:40Z</time></trkpt><trkpt lat="34.440543351332494" lon="8.711247580728715"><ele>223.0</ele><time>2026-04-08T11:19:41Z</time></trkpt><trkpt lat="34.44046353057712" lon="8.711478824543942"><ele>224.0</ele><time>2026-04-08T11:19:42Z</time></trkpt><trkpt lat="34.44038860825489" lon="8.71169959874873"><ele>223.0</ele><time>2026-04-08T11:19:43Z</time></trkpt><trkpt lat="34.44031574216046" lon="8.711913871265272"><ele>222.0</ele><time>2026-04-08T11:19:44Z</time></trkpt><trkpt lat="34.44024328940898" lon="8.712121231820142"><ele>221.0</ele><time>2026-04-08T11:19:45Z</time></trkpt><trkpt lat="34.44017748117857" lon="8.712317752678524"><ele>221.0</ele><time>2026-04-08T11:19:46Z</time></trkpt><trkpt lat="34.440115268390265" lon="8.71250754877667"><ele>221.0</ele><time>2026-04-08T11:19:47Z</time></trkpt><trkpt lat="34.44005474527136" lon="8.712696877004221"><ele>221.0</ele><time>2026-04-08T11:19:48Z</time></trkpt><trkpt lat="34.43999175485906" lon="8.712887675596892"><ele>222.33333333333334</ele><time>2026-04-08T11:19:49Z</time></trkpt><trkpt lat="34.439930711195736" lon="8.713080502632753"><ele>223.66666666666669</ele><time>2026-04-08T11:19:50Z</time></trkpt><trkpt lat="34.43986296060834" lon="8.713285552180105"><ele>225.0</ele><time>2026-04-08T11:19:51Z</time></trkpt><trkpt lat="34.439793174790296" lon="8.713488428958867"><ele>225.0</ele><time>2026-04-08T11:19:52Z</time></trkpt><trkpt lat="34.43971952675683" lon="8.713698217781422"><ele>225.0</ele><time>2026-04-08T11:19:53Z</time></trkpt><trkpt lat="34.43964510776011" lon="8.713914681687266"><ele>225.0</ele><time>2026-04-08T11:19:54Z</time></trkpt><trkpt lat="34.43957246593074" lon="8.714131418055885"><ele>225.0</ele><time>2026-04-08T11:19:55Z</time></trkpt><trkpt lat="34.439495760050725" lon="8.714355727211084"><ele>225.0</ele><time>2026-04-08T11:19:56Z</time></trkpt><trkpt lat="34.439419232585934" lon="8.714585877808895"><ele>225.0</ele><time>2026-04-08T11:19:57Z</time></trkpt><trkpt lat="34.439342164359324" lon="8.714823301004477"><ele>225.0</ele><time>2026-04-08T11:19:58Z</time></trkpt><trkpt lat="34.43926996882356" lon="8.715067339471304"><ele>225.0</ele><time>2026-04-08T11:19:59Z</time></trkpt><trkpt lat="34.439200669560115" lon="8.715318113118432"><ele>225.0</ele><time>2026-04-08T11:20:00Z</time></trkpt><trkpt lat="34.439131324419826" lon="8.71557254976982"><ele>225.0</ele><time>2026-04-08T11:20:01Z</time></trkpt><trkpt lat="34.43906261975861" lon="8.715833080554349"><ele>225.0</ele><time>2026-04-08T11:20:02Z</time></trkpt><trkpt lat="34.43899440294222" lon="8.71609605207651"><ele>225.5</ele><time>2026-04-08T11:20:03Z</time></trkpt><trkpt lat="34.43892599564302" lon="8.716358241194616"><ele>226.0</ele><time>2026-04-08T11:20:04Z</time></trkpt><trkpt lat="34.43885499498764" lon="8.71661847461432"><ele>226.0</ele><time>2026-04-08T11:20:05Z</time></trkpt><trkpt lat="34.43878236876081" lon="8.716878071617808"><ele>226.0</ele><time>2026-04-08T11:20:06Z</time></trkpt><trkpt lat="34.43871140427165" lon="8.717134470331862"><ele>226.0</ele><time>2026-04-08T11:20:07Z</time></trkpt><trkpt lat="34.438640989716355" lon="8.717396682250378"><ele>226.0</ele><time>2026-04-08T11:20:08Z</time></trkpt><trkpt lat="34.43856847543389" lon="8.717660640326983"><ele>226.0</ele><time>2026-04-08T11:20:09Z</time></trkpt><trkpt lat="34.43849015634632" lon="8.717925293279913"><ele>225.5</ele><time>2026-04-08T11:20:10Z</time></trkpt><trkpt lat="34.43840816088114" lon="8.718193565995465"><ele>225.0</ele><time>2026-04-08T11:20:11Z</time></trkpt><trkpt lat="34.43832803492141" lon="8.718464662458636"><ele>226.0</ele><time>2026-04-08T11:20:12Z</time></trkpt><trkpt lat="34.43825161127885" lon="8.718739617162553"><ele>227.0</ele><time>2026-04-08T11:20:13Z</time></trkpt><trkpt lat="34.438179908089026" lon="8.719013672763129"><ele>227.0</ele><time>2026-04-08T11:20:14Z</time></trkpt><trkpt lat="34.43810762812567" lon="8.719286303093446"><ele>227.0</ele><time>2026-04-08T11:20:15Z</time></trkpt><trkpt lat="34.438031348342854" lon="8.719557139440495"><ele>226.5</ele><time>2026-04-08T11:20:16Z</time></trkpt><trkpt lat="34.43794762056843" lon="8.719833209946229"><ele>226.0</ele><time>2026-04-08T11:20:17Z</time></trkpt><trkpt lat="34.43785100691746" lon="8.7201003886951"><ele>226.33333333333331</ele><time>2026-04-08T11:20:18Z</time></trkpt><trkpt lat="34.43775840472802" lon="8.720352901919165"><ele>226.66666666666669</ele><time>2026-04-08T11:20:19Z</time></trkpt><trkpt lat="34.43767629871482" lon="8.72059448032702"><ele>227.0</ele><time>2026-04-08T11:20:20Z</time></trkpt><trkpt lat="34.43759872782871" lon="8.720830248757597"><ele>227.66666666666669</ele><time>2026-04-08T11:20:21Z</time></trkpt><trkpt lat="34.437523553691975" lon="8.721071779587616"><ele>228.33333333333331</ele><time>2026-04-08T11:20:22Z</time></trkpt><trkpt lat="34.437451010824454" lon="8.721313751809049"><ele>229.0</ele><time>2026-04-08T11:20:23Z</time></trkpt><trkpt lat="34.43737607427853" lon="8.721560771849468"><ele>229.0</ele><time>2026-04-08T11:20:24Z</time></trkpt><trkpt lat="34.43729783253021" lon="8.721805639865593"><ele>229.0</ele><time>2026-04-08T11:20:25Z</time></trkpt><trkpt lat="34.43721904882681" lon="8.722051602286381"><ele>229.0</ele><time>2026-04-08T11:20:26Z</time></trkpt><trkpt lat="34.43714088476221" lon="8.72229691841409"><ele>229.0</ele><time>2026-04-08T11:20:27Z</time></trkpt><trkpt lat="34.437061748724" lon="8.722532588857067"><ele>229.0</ele><time>2026-04-08T11:20:28Z</time></trkpt><trkpt lat="34.43698490942252" lon="8.72275907975023"><ele>229.0</ele><time>2026-04-08T11:20:29Z</time></trkpt><trkpt lat="34.43690907364189" lon="8.722975967126827"><ele>229.0</ele><time>2026-04-08T11:20:30Z</time></trkpt><trkpt lat="34.43683351868991" lon="8.723192176466869"><ele>229.0</ele><time>2026-04-08T11:20:31Z</time></trkpt><trkpt lat="34.436760088234436" lon="8.723407212687082"><ele>229.0</ele><time>2026-04-08T11:20:32Z</time></trkpt><trkpt lat="34.43668653727368" lon="8.723620384540222"><ele>229.0</ele><time>2026-04-08T11:20:33Z</time></trkpt><trkpt lat="34.43661177059055" lon="8.723834563868929"><ele>229.0</ele><time>2026-04-08T11:20:34Z</time></trkpt><trkpt lat="34.43653796092077" lon="8.724052341596739"><ele>229.0</ele><time>2026-04-08T11:20:35Z</time></trkpt><trkpt lat="34.436465651985955" lon="8.724278790758817"><ele>229.0</ele><time>2026-04-08T11:20:36Z</time></trkpt><trkpt lat="34.43639122012171" lon="8.724505870591827"><ele>229.0</ele><time>2026-04-08T11:20:37Z</time></trkpt><trkpt lat="34.43630850233102" lon="8.724732481566843"><ele>229.0</ele><time>2026-04-08T11:20:38Z</time></trkpt><trkpt lat="34.43622697669356" lon="8.724951308083487"><ele>229.0</ele><time>2026-04-08T11:20:39Z</time></trkpt><trkpt lat="34.43614564619918" lon="8.725176574947696"><ele>229.0</ele><time>2026-04-08T11:20:40Z</time></trkpt><trkpt lat="34.43606234556454" lon="8.72540205973899"><ele>229.0</ele><time>2026-04-08T11:20:41Z</time></trkpt><trkpt lat="34.4359790247748" lon="8.725628395242438"><ele>229.33333333333331</ele><time>2026-04-08T11:20:42Z</time></trkpt><trkpt lat="34.435896545379464" lon="8.725855537111816"><ele>229.66666666666669</ele><time>2026-04-08T11:20:43Z</time></trkpt><trkpt lat="34.43581310120437" lon="8.726086917544777"><ele>230.0</ele><time>2026-04-08T11:20:44Z</time></trkpt><trkpt lat="34.4357315077066" lon="8.726317512700037"><ele>231.0</ele><time>2026-04-08T11:20:45Z</time></trkpt><trkpt lat="34.43565045804653" lon="8.72654724714656"><ele>232.0</ele><time>2026-04-08T11:20:46Z</time></trkpt><trkpt lat="34.43556906331551" lon="8.726774635099881"><ele>233.0</ele><time>2026-04-08T11:20:47Z</time></trkpt><trkpt lat="34.43548855767749" lon="8.72700085928634"><ele>232.66666666666669</ele><time>2026-04-08T11:20:48Z</time></trkpt><trkpt lat="34.4354073702738" lon="8.727226824166406"><ele>232.33333333333331</ele><time>2026-04-08T11:20:49Z</time></trkpt><trkpt lat="34.4353230322747" lon="8.727455325622675"><ele>232.0</ele><time>2026-04-08T11:20:50Z</time></trkpt><trkpt lat="34.4352416983697" lon="8.727682603988324"><ele>232.33333333333331</ele><time>2026-04-08T11:20:51Z</time></trkpt><trkpt lat="34.43516135523008" lon="8.727911500946341"><ele>232.66666666666669</ele><time>2026-04-08T11:20:52Z</time></trkpt><trkpt lat="34.43507951611227" lon="8.728142659658266"><ele>233.0</ele><time>2026-04-08T11:20:53Z</time></trkpt><trkpt lat="34.43500157965929" lon="8.728369328077854"><ele>234.0</ele><time>2026-04-08T11:20:54Z</time></trkpt><trkpt lat="34.43492119428993" lon="8.72860276207745"><ele>235.0</ele><time>2026-04-08T11:20:55Z</time></trkpt><trkpt lat="34.43484248901813" lon="8.728833092908742"><ele>236.0</ele><time>2026-04-08T11:20:56Z</time></trkpt><trkpt lat="34.434763615019364" lon="8.729063686695316"><ele>236.0</ele><time>2026-04-08T11:20:57Z</time></trkpt><trkpt lat="34.4346814393312" lon="8.729294972930976"><ele>236.0</ele><time>2026-04-08T11:20:58Z</time></trkpt><trkpt lat="34.434598255388686" lon="8.72952576011431"><ele>236.0</ele><time>2026-04-08T11:20:59Z</time></trkpt><trkpt lat="34.434517232450794" lon="8.729756444870599"><ele>236.0</ele><time>2026-04-08T11:21:00Z</time></trkpt><trkpt lat="34.434436027963955" lon="8.72998641923849"><ele>236.0</ele><time>2026-04-08T11:21:01Z</time></trkpt><trkpt lat="34.43435336501471" lon="8.730217394680887"><ele>236.0</ele><time>2026-04-08T11:21:02Z</time></trkpt><trkpt lat="34.434270549879024" lon="8.73044858512112"><ele>236.66666666666669</ele><time>2026-04-08T11:21:03Z</time></trkpt><trkpt lat="34.43419064544623" lon="8.730680802395751"><ele>237.33333333333331</ele><time>2026-04-08T11:21:04Z</time></trkpt><trkpt lat="34.43411032967323" lon="8.730914231340494"><ele>238.0</ele><time>2026-04-08T11:21:05Z</time></trkpt><trkpt lat="34.43403034648571" lon="8.731148440655453"><ele>238.0</ele><time>2026-04-08T11:21:06Z</time></trkpt><trkpt lat="34.4339495916382" lon="8.731378966964973"><ele>238.0</ele><time>2026-04-08T11:21:07Z</time></trkpt><trkpt lat="34.43386656764234" lon="8.731612188594392"><ele>238.0</ele><time>2026-04-08T11:21:08Z</time></trkpt><trkpt lat="34.433785377706144" lon="8.73184350858679"><ele>238.0</ele><time>2026-04-08T11:21:09Z</time></trkpt><trkpt lat="34.43361688864744" lon="8.732301697542137"><ele>238.0</ele><time>2026-04-08T11:21:11Z</time></trkpt><trkpt lat="34.43353573261611" lon="8.732530351472255"><ele>238.66666666666666</ele><time>2026-04-08T11:21:12Z</time></trkpt><trkpt lat="34.43345571153064" lon="8.732760143157007"><ele>239.33333333333331</ele><time>2026-04-08T11:21:13Z</time></trkpt><trkpt lat="34.433373397842004" lon="8.732990324257052"><ele>240.0</ele><time>2026-04-08T11:21:14Z</time></trkpt><trkpt lat="34.43329006405237" lon="8.73322045548699"><ele>240.0</ele><time>2026-04-08T11:21:15Z</time></trkpt><trkpt lat="34.43320846995298" lon="8.733449207964075"><ele>240.0</ele><time>2026-04-08T11:21:16Z</time></trkpt><trkpt lat="34.433125687694144" lon="8.73368125648254"><ele>240.0</ele><time>2026-04-08T11:21:17Z</time></trkpt><trkpt lat="34.43304531160123" lon="8.733909872638142"><ele>240.66666666666669</ele><time>2026-04-08T11:21:18Z</time></trkpt><trkpt lat="34.432961874784404" lon="8.73413972666576"><ele>241.33333333333334</ele><time>2026-04-08T11:21:19Z</time></trkpt><trkpt lat="34.43287843439756" lon="8.73437000911255"><ele>242.0</ele><time>2026-04-08T11:21:20Z</time></trkpt><trkpt lat="34.43279296977287" lon="8.73459872230595"><ele>242.0</ele><time>2026-04-08T11:21:21Z</time></trkpt><trkpt lat="34.43270970069742" lon="8.734828113157045"><ele>242.0</ele><time>2026-04-08T11:21:22Z</time></trkpt><trkpt lat="34.43263076922489" lon="8.735058873491282"><ele>242.0</ele><time>2026-04-08T11:21:23Z</time></trkpt><trkpt lat="34.43255268089628" lon="8.735291903408584"><ele>242.33333333333334</ele><time>2026-04-08T11:21:24Z</time></trkpt><trkpt lat="34.43247193933849" lon="8.73552074442161"><ele>242.66666666666669</ele><time>2026-04-08T11:21:25Z</time></trkpt><trkpt lat="34.43239248389237" lon="8.735752440327207"><ele>243.0</ele><time>2026-04-08T11:21:26Z</time></trkpt><trkpt lat="34.43231446536573" lon="8.735986388747607"><ele>243.0</ele><time>2026-04-08T11:21:27Z</time></trkpt><trkpt lat="34.432236772346464" lon="8.736218232958814"><ele>243.0</ele><time>2026-04-08T11:21:28Z</time></trkpt><trkpt lat="34.43215454049854" lon="8.736453152786993"><ele>243.0</ele><time>2026-04-08T11:21:29Z</time></trkpt><trkpt lat="34.43207203552995" lon="8.736691880429284"><ele>243.0</ele><time>2026-04-08T11:21:30Z</time></trkpt><trkpt lat="34.4319906009839" lon="8.736939507316947"><ele>243.0</ele><time>2026-04-08T11:21:31Z</time></trkpt><trkpt lat="34.43190613922705" lon="8.737192635186277"><ele>243.0</ele><time>2026-04-08T11:21:32Z</time></trkpt><trkpt lat="34.43181827274866" lon="8.73745331318618"><ele>243.0</ele><time>2026-04-08T11:21:33Z</time></trkpt><trkpt lat="34.43172806300067" lon="8.737705577497975"><ele>243.0</ele><time>2026-04-08T11:21:34Z</time></trkpt><trkpt lat="34.43163845020054" lon="8.737962071492118"><ele>243.5</ele><time>2026-04-08T11:21:35Z</time></trkpt><trkpt lat="34.43154593611188" lon="8.738219948674653"><ele>244.0</ele><time>2026-04-08T11:21:36Z</time></trkpt><trkpt lat="34.431454686758954" lon="8.738474776715677"><ele>243.66666666666666</ele><time>2026-04-08T11:21:37Z</time></trkpt><trkpt lat="34.43136586549038" lon="8.73872383831414"><ele>243.33333333333331</ele><time>2026-04-08T11:21:38Z</time></trkpt><trkpt lat="34.43127879910153" lon="8.738969808477288"><ele>243.0</ele><time>2026-04-08T11:21:39Z</time></trkpt><trkpt lat="34.43119268122361" lon="8.739209848406343"><ele>244.33333333333331</ele><time>2026-04-08T11:21:40Z</time></trkpt><trkpt lat="34.43110682257067" lon="8.739445851280278"><ele>245.66666666666666</ele><time>2026-04-08T11:21:41Z</time></trkpt><trkpt lat="34.43102552786857" lon="8.739681825859266"><ele>247.0</ele><time>2026-04-08T11:21:42Z</time></trkpt><trkpt lat="34.43094575974653" lon="8.739916033221933"><ele>247.0</ele><time>2026-04-08T11:21:43Z</time></trkpt><trkpt lat="34.43086596168832" lon="8.74015258954017"><ele>247.0</ele><time>2026-04-08T11:21:44Z</time></trkpt><trkpt lat="34.43078484833067" lon="8.740388478153037"><ele>247.0</ele><time>2026-04-08T11:21:45Z</time></trkpt><trkpt lat="34.43070063152901" lon="8.740628004248128"><ele>247.33333333333331</ele><time>2026-04-08T11:21:46Z</time></trkpt><trkpt lat="34.43061857285352" lon="8.740866714847632"><ele>247.66666666666669</ele><time>2026-04-08T11:21:47Z</time></trkpt><trkpt lat="34.4305372023064" lon="8.741107942007028"><ele>248.0</ele><time>2026-04-08T11:21:48Z</time></trkpt><trkpt lat="34.43045763651286" lon="8.741346508643662"><ele>248.33333333333334</ele><time>2026-04-08T11:21:49Z</time></trkpt><trkpt lat="34.43037696197744" lon="8.741576818273789"><ele>248.66666666666669</ele><time>2026-04-08T11:21:50Z</time></trkpt><trkpt lat="34.43030300217779" lon="8.741787789601743"><ele>249.0</ele><time>2026-04-08T11:21:51Z</time></trkpt><trkpt lat="34.43023357673341" lon="8.741988019030039"><ele>249.66666666666669</ele><time>2026-04-08T11:21:52Z</time></trkpt><trkpt lat="34.430170847427966" lon="8.742179155560953"><ele>250.33333333333334</ele><time>2026-04-08T11:21:53Z</time></trkpt><trkpt lat="34.43011420514223" lon="8.742361927987565"><ele>251.0</ele><time>2026-04-08T11:21:54Z</time></trkpt><trkpt lat="34.430058863925396" lon="8.742533325849983"><ele>251.0</ele><time>2026-04-08T11:21:55Z</time></trkpt><trkpt lat="34.43000207421231" lon="8.742690414540979"><ele>251.0</ele><time>2026-04-08T11:21:56Z</time></trkpt><trkpt lat="34.429943876178065" lon="8.742835566458783"><ele>251.0</ele><time>2026-04-08T11:21:57Z</time></trkpt><trkpt lat="34.42989133066461" lon="8.742972172202505"><ele>251.0</ele><time>2026-04-08T11:21:58Z</time></trkpt><trkpt lat="34.42984683315112" lon="8.7430996569957"><ele>251.0</ele><time>2026-04-08T11:21:59Z</time></trkpt><trkpt lat="34.42980356812782" lon="8.743224018375638"><ele>251.00000000000003</ele><time>2026-04-08T11:22:00Z</time></trkpt><trkpt lat="34.42976350929705" lon="8.743346783470876"><ele>251.00000000000003</ele><time>2026-04-08T11:22:01Z</time></trkpt><trkpt lat="34.42971997522109" lon="8.74347244627824"><ele>251.0</ele><time>2026-04-08T11:22:02Z</time></trkpt><trkpt lat="34.42967779324417" lon="8.743593739500712"><ele>251.0</ele><time>2026-04-08T11:22:03Z</time></trkpt><trkpt lat="34.42963614610924" lon="8.743711495197209"><ele>251.4</ele><time>2026-04-08T11:22:04Z</time></trkpt><trkpt lat="34.429596758493474" lon="8.743822693618688"><ele>251.8</ele><time>2026-04-08T11:22:05Z</time></trkpt><trkpt lat="34.42956236721744" lon="8.743927470194853"><ele>252.20000000000002</ele><time>2026-04-08T11:22:06Z</time></trkpt><trkpt lat="34.429530088164434" lon="8.744029478578724"><ele>252.60000000000002</ele><time>2026-04-08T11:22:07Z</time></trkpt><trkpt lat="34.42949589459103" lon="8.74412751790486"><ele>253.0</ele><time>2026-04-08T11:22:08Z</time></trkpt><trkpt lat="34.429466662389935" lon="8.74421702413631"><ele>253.0</ele><time>2026-04-08T11:22:09Z</time></trkpt><trkpt lat="34.429444989844505" lon="8.744288726901003"><ele>253.0</ele><time>2026-04-08T11:22:10Z</time></trkpt><trkpt lat="34.429406836058774" lon="8.744407823301536"><ele>253.0</ele><time>2026-04-08T11:22:12Z</time></trkpt><trkpt lat="34.4293691414184" lon="8.744535138409306"><ele>253.0</ele><time>2026-04-08T11:22:14Z</time></trkpt><trkpt lat="34.42932970263596" lon="8.744643304960793"><ele>253.0</ele><time>2026-04-08T11:22:16Z</time></trkpt><trkpt lat="34.429290775194794" lon="8.744735821863694"><ele>253.60000000000002</ele><time>2026-04-08T11:22:18Z</time></trkpt><trkpt lat="34.42926505916072" lon="8.744836659258784"><ele>254.20000000000002</ele><time>2026-04-08T11:22:20Z</time></trkpt><trkpt lat="34.42923379564781" lon="8.744935806725248"><ele>254.8</ele><time>2026-04-08T11:22:22Z</time></trkpt><trkpt lat="34.42918881513123" lon="8.745040665621712"><ele>255.4</ele><time>2026-04-08T11:22:24Z</time></trkpt><trkpt lat="34.42914886868545" lon="8.74517101314098"><ele>256.0</ele><time>2026-04-08T11:22:26Z</time></trkpt><trkpt lat="34.429109100913074" lon="8.745306051764702"><ele>256.40000000000003</ele><time>2026-04-08T11:22:28Z</time></trkpt><trkpt lat="34.42906189835769" lon="8.745411161825357"><ele>256.8</ele><time>2026-04-08T11:22:30Z</time></trkpt><trkpt lat="34.429031436421276" lon="8.745498214440387"><ele>257.20000000000005</ele><time>2026-04-08T11:22:32Z</time></trkpt><trkpt lat="34.429005518593904" lon="8.745590629986456"><ele>257.6</ele><time>2026-04-08T11:22:34Z</time></trkpt><trkpt lat="34.42895775052975" lon="8.745690757167932"><ele>258.0</ele><time>2026-04-08T11:22:36Z</time></trkpt><trkpt lat="34.428908477236874" lon="8.745797394158435"><ele>258.0</ele><time>2026-04-08T11:22:38Z</time></trkpt><trkpt lat="34.428866680400276" lon="8.74592686280928"><ele>258.0</ele><time>2026-04-08T11:22:40Z</time></trkpt><trkpt lat="34.42883210898817" lon="8.746067749978426"><ele>258.0</ele><time>2026-04-08T11:22:42Z</time></trkpt><trkpt lat="34.42878499266813" lon="8.746189256052611"><ele>258.0</ele><time>2026-04-08T11:22:44Z</time></trkpt><trkpt lat="34.42873514889759" lon="8.746294985043543"><ele>258.0</ele><time>2026-04-08T11:22:46Z</time></trkpt><trkpt lat="34.42869273671763" lon="8.746428573444701"><ele>258.25</ele><time>2026-04-08T11:22:48Z</time></trkpt><trkpt lat="34.428645178776705" lon="8.746562062022079"><ele>258.5</ele><time>2026-04-08T11:22:50Z</time></trkpt><trkpt lat="34.42860336217812" lon="8.746675292426207"><ele>258.75</ele><time>2026-04-08T11:22:52Z</time></trkpt><trkpt lat="34.428559768080966" lon="8.74680595361267"><ele>259.0</ele><time>2026-04-08T11:22:54Z</time></trkpt><trkpt lat="34.428511577442194" lon="8.746941772883964"><ele>259.16666666666663</ele><time>2026-04-08T11:22:56Z</time></trkpt><trkpt lat="34.42846863280637" lon="8.747075901637613"><ele>259.3333333333333</ele><time>2026-04-08T11:22:58Z</time></trkpt><trkpt lat="34.42842286638488" lon="8.747210463141517"><ele>259.5</ele><time>2026-04-08T11:23:00Z</time></trkpt><trkpt lat="34.42839765003786" lon="8.747282059862634"><ele>259.6666666666667</ele><time>2026-04-08T11:23:01Z</time></trkpt><trkpt lat="34.428371193276675" lon="8.747352234658779"><ele>259.83333333333337</ele><time>2026-04-08T11:23:02Z</time></trkpt><trkpt lat="34.42834492153411" lon="8.747425016845957"><ele>260.0</ele><time>2026-04-08T11:23:03Z</time></trkpt><trkpt lat="34.428321029638646" lon="8.747499113451523"><ele>260.00000000000006</ele><time>2026-04-08T11:23:04Z</time></trkpt><trkpt lat="34.42829729859704" lon="8.74757323421895"><ele>260.0</ele><time>2026-04-08T11:23:05Z</time></trkpt><trkpt lat="34.42827568581392" lon="8.74764714841725"><ele>260.0</ele><time>2026-04-08T11:23:06Z</time></trkpt><trkpt lat="34.42825196285251" lon="8.747722176853072"><ele>260.0</ele><time>2026-04-08T11:23:07Z</time></trkpt><trkpt lat="34.428225833601545" lon="8.747795890003514"><ele>260.0</ele><time>2026-04-08T11:23:08Z</time></trkpt><trkpt lat="34.428203249781525" lon="8.747871424727284"><ele>260.00000000000006</ele><time>2026-04-08T11:23:09Z</time></trkpt><trkpt lat="34.428181192826074" lon="8.747944654789919"><ele>260.0</ele><time>2026-04-08T11:23:10Z</time></trkpt><trkpt lat="34.42813774045601" lon="8.748060243118324"><ele>260.25</ele><time>2026-04-08T11:23:12Z</time></trkpt><trkpt lat="34.42809395229573" lon="8.748174244159125"><ele>260.5</ele><time>2026-04-08T11:23:14Z</time></trkpt><trkpt lat="34.42805270608881" lon="8.748304438711795"><ele>260.75</ele><time>2026-04-08T11:23:16Z</time></trkpt><trkpt lat="34.42801048703632" lon="8.748438403760868"><ele>261.0</ele><time>2026-04-08T11:23:18Z</time></trkpt><trkpt lat="34.427959923523154" lon="8.748577169125426"><ele>261.0</ele><time>2026-04-08T11:23:20Z</time></trkpt><trkpt lat="34.42793422489543" lon="8.748650887028688"><ele>261.0</ele><time>2026-04-08T11:23:21Z</time></trkpt><trkpt lat="34.4279128113617" lon="8.748731320934697"><ele>261.0</ele><time>2026-04-08T11:23:22Z</time></trkpt><trkpt lat="34.4278898341703" lon="8.74883032284782"><ele>261.0</ele><time>2026-04-08T11:23:23Z</time></trkpt><trkpt lat="34.42785542403637" lon="8.748937074768504"><ele>261.0</ele><time>2026-04-08T11:23:24Z</time></trkpt><trkpt lat="34.427820134375544" lon="8.749054011052552"><ele>261.0</ele><time>2026-04-08T11:23:25Z</time></trkpt><trkpt lat="34.42777742596266" lon="8.749180879204443"><ele>261.0</ele><time>2026-04-08T11:23:26Z</time></trkpt><trkpt lat="34.42773214146636" lon="8.74932221582863"><ele>261.0</ele><time>2026-04-08T11:23:27Z</time></trkpt><trkpt lat="34.4276864659622" lon="8.749470988052755"><ele>261.0</ele><time>2026-04-08T11:23:28Z</time></trkpt><trkpt lat="34.42763716509385" lon="8.749622934764755"><ele>261.0</ele><time>2026-04-08T11:23:29Z</time></trkpt><trkpt lat="34.42758477422207" lon="8.749770101071734"><ele>261.0</ele><time>2026-04-08T11:23:30Z</time></trkpt><trkpt lat="34.42753330524292" lon="8.749901473436665"><ele>261.0</ele><time>2026-04-08T11:23:31Z</time></trkpt><trkpt lat="34.42748246531985" lon="8.750029750502767"><ele>261.0</ele><time>2026-04-08T11:23:32Z</time></trkpt><trkpt lat="34.427436850549114" lon="8.750162473467643"><ele>261.0</ele><time>2026-04-08T11:23:33Z</time></trkpt><trkpt lat="34.42739469125877" lon="8.750292471799195"><ele>261.40000000000003</ele><time>2026-04-08T11:23:34Z</time></trkpt><trkpt lat="34.42734928249659" lon="8.750412914127844"><ele>261.8</ele><time>2026-04-08T11:23:35Z</time></trkpt><trkpt lat="34.4273086337678" lon="8.75052731487083"><ele>262.20000000000005</ele><time>2026-04-08T11:23:36Z</time></trkpt><trkpt lat="34.42726643374034" lon="8.750645067275679"><ele>262.6</ele><time>2026-04-08T11:23:37Z</time></trkpt><trkpt lat="34.427222605932386" lon="8.75076035055208"><ele>263.0</ele><time>2026-04-08T11:23:38Z</time></trkpt><trkpt lat="34.427180705428015" lon="8.750868425108441"><ele>263.0</ele><time>2026-04-08T11:23:39Z</time></trkpt><trkpt lat="34.42714651335902" lon="8.750967181240329"><ele>263.0</ele><time>2026-04-08T11:23:40Z</time></trkpt><trkpt lat="34.427116464185374" lon="8.751060112473738"><ele>263.0</ele><time>2026-04-08T11:23:41Z</time></trkpt><trkpt lat="34.42708209870983" lon="8.751152390314994"><ele>263.0</ele><time>2026-04-08T11:23:42Z</time></trkpt><trkpt lat="34.42704537210263" lon="8.75124426346199"><ele>263.0</ele><time>2026-04-08T11:23:43Z</time></trkpt><trkpt lat="34.42700980118473" lon="8.751341406184551"><ele>263.0</ele><time>2026-04-08T11:23:44Z</time></trkpt><trkpt lat="34.42697503801255" lon="8.751437323766613"><ele>263.5</ele><time>2026-04-08T11:23:45Z</time></trkpt><trkpt lat="34.4269364311104" lon="8.751535275629863"><ele>264.0</ele><time>2026-04-08T11:23:46Z</time></trkpt><trkpt lat="34.42690111116074" lon="8.751636144740182"><ele>264.5</ele><time>2026-04-08T11:23:47Z</time></trkpt><trkpt lat="34.42686691470567" lon="8.751740015348577"><ele>265.0</ele><time>2026-04-08T11:23:48Z</time></trkpt><trkpt lat="34.42683703292839" lon="8.751845485179851"><ele>265.5</ele><time>2026-04-08T11:23:49Z</time></trkpt><trkpt lat="34.42681126041224" lon="8.751941476698875"><ele>266.0</ele><time>2026-04-08T11:23:50Z</time></trkpt><trkpt lat="34.426780554841194" lon="8.752023015856949"><ele>266.2</ele><time>2026-04-08T11:23:51Z</time></trkpt><trkpt lat="34.426749014310374" lon="8.752094789583376"><ele>266.40000000000003</ele><time>2026-04-08T11:23:52Z</time></trkpt><trkpt lat="34.42669901504854" lon="8.75222646862095"><ele>266.6</ele><time>2026-04-08T11:23:54Z</time></trkpt><trkpt lat="34.4266439386305" lon="8.752374410200636"><ele>266.8</ele><time>2026-04-08T11:23:55.999Z</time></trkpt><trkpt lat="34.426618880849354" lon="8.75245923921984"><ele>267.0</ele><time>2026-04-08T11:23:56.999Z</time></trkpt><trkpt lat="34.42659409179413" lon="8.752547691785386"><ele>267.0</ele><time>2026-04-08T11:23:57.999Z</time></trkpt><trkpt lat="34.426565542814394" lon="8.752640849345859"><ele>267.0</ele><time>2026-04-08T11:23:58.999Z</time></trkpt><trkpt lat="34.426531967787405" lon="8.752728931447814"><ele>267.0</ele><time>2026-04-08T11:23:59.999Z</time></trkpt><trkpt lat="34.42648971549899" lon="8.75282255681553"><ele>267.0</ele><time>2026-04-08T11:24:00.999Z</time></trkpt><trkpt lat="34.42645223446073" lon="8.75291824695445"><ele>267.0</ele><time>2026-04-08T11:24:01.999Z</time></trkpt><trkpt lat="34.42641748889373" lon="8.75301711499172"><ele>267.0</ele><time>2026-04-08T11:24:02.999Z</time></trkpt><trkpt lat="34.42638228897413" lon="8.753119174634898"><ele>267.3333333333333</ele><time>2026-04-08T11:24:03.999Z</time></trkpt><trkpt lat="34.42634759949083" lon="8.753221469933289"><ele>267.6666666666667</ele><time>2026-04-08T11:24:04.999Z</time></trkpt><trkpt lat="34.42631603342034" lon="8.753320335228016"><ele>268.0</ele><time>2026-04-08T11:24:06Z</time></trkpt><trkpt lat="34.42628649906403" lon="8.753411417477702"><ele>268.33333333333337</ele><time>2026-04-08T11:24:07Z</time></trkpt><trkpt lat="34.426254706314005" lon="8.753503001833032"><ele>268.6666666666667</ele><time>2026-04-08T11:24:08Z</time></trkpt><trkpt lat="34.42622418070019" lon="8.753596308259436"><ele>269.0</ele><time>2026-04-08T11:24:09Z</time></trkpt><trkpt lat="34.42619308857419" lon="8.753689445236379"><ele>269.1666666666667</ele><time>2026-04-08T11:24:10Z</time></trkpt><trkpt lat="34.42615705532936" lon="8.753784337071673"><ele>269.33333333333337</ele><time>2026-04-08T11:24:11Z</time></trkpt><trkpt lat="34.42611893616513" lon="8.753877378305454"><ele>269.5</ele><time>2026-04-08T11:24:12Z</time></trkpt><trkpt lat="34.42607983499577" lon="8.753971662137445"><ele>269.6666666666667</ele><time>2026-04-08T11:24:13Z</time></trkpt><trkpt lat="34.426042935836634" lon="8.754069528532781"><ele>269.8333333333333</ele><time>2026-04-08T11:24:14Z</time></trkpt><trkpt lat="34.42600983445357" lon="8.754173311993092"><ele>270.0</ele><time>2026-04-08T11:24:15Z</time></trkpt><trkpt lat="34.42597470727505" lon="8.754281564808926"><ele>269.8</ele><time>2026-04-08T11:24:16Z</time></trkpt><trkpt lat="34.4259346954372" lon="8.754390651851773"><ele>269.6</ele><time>2026-04-08T11:24:17Z</time></trkpt><trkpt lat="34.425892925144666" lon="8.754503328862185"><ele>269.4</ele><time>2026-04-08T11:24:18Z</time></trkpt><trkpt lat="34.42585091142588" lon="8.754620996131406"><ele>269.2</ele><time>2026-04-08T11:24:19Z</time></trkpt><trkpt lat="34.42580815554233" lon="8.754739596880242"><ele>269.0</ele><time>2026-04-08T11:24:20Z</time></trkpt><trkpt lat="34.425762938380295" lon="8.754863570480461"><ele>269.0</ele><time>2026-04-08T11:24:21Z</time></trkpt><trkpt lat="34.425719443640276" lon="8.754991602667214"><ele>269.0</ele><time>2026-04-08T11:24:22Z</time></trkpt><trkpt lat="34.42567647738471" lon="8.75511763800353"><ele>269.0</ele><time>2026-04-08T11:24:23Z</time></trkpt><trkpt lat="34.42563224222239" lon="8.755242150743797"><ele>269.0</ele><time>2026-04-08T11:24:24Z</time></trkpt><trkpt lat="34.42558832985003" lon="8.755362157877858"><ele>269.0</ele><time>2026-04-08T11:24:25Z</time></trkpt><trkpt lat="34.42554514546011" lon="8.75548088006586"><ele>270.0</ele><time>2026-04-08T11:24:26Z</time></trkpt><trkpt lat="34.425502662413976" lon="8.755603204800163"><ele>271.0</ele><time>2026-04-08T11:24:27Z</time></trkpt><trkpt lat="34.425461179513384" lon="8.755731340294881"><ele>272.0</ele><time>2026-04-08T11:24:28Z</time></trkpt><trkpt lat="34.42542158041406" lon="8.755862354710528"><ele>273.0</ele><time>2026-04-08T11:24:29Z</time></trkpt><trkpt lat="34.42537631695533" lon="8.755989750533425"><ele>273.2</ele><time>2026-04-08T11:24:30Z</time></trkpt><trkpt lat="34.42532998781985" lon="8.75610854282248"><ele>273.4</ele><time>2026-04-08T11:24:31Z</time></trkpt><trkpt lat="34.4252868101196" lon="8.756217396795401"><ele>273.59999999999997</ele><time>2026-04-08T11:24:32Z</time></trkpt><trkpt lat="34.42524634167111" lon="8.756331016938603"><ele>273.8</ele><time>2026-04-08T11:24:33Z</time></trkpt><trkpt lat="34.42520655710783" lon="8.756448621540624"><ele>274.0</ele><time>2026-04-08T11:24:34Z</time></trkpt><trkpt lat="34.425168367012006" lon="8.756566984605733"><ele>274.0</ele><time>2026-04-08T11:24:35Z</time></trkpt><trkpt lat="34.42512803801783" lon="8.75668628425032"><ele>274.0</ele><time>2026-04-08T11:24:36Z</time></trkpt><trkpt lat="34.425087746651194" lon="8.756804966531137"><ele>274.0</ele><time>2026-04-08T11:24:37Z</time></trkpt><trkpt lat="34.42504643983312" lon="8.756923661765699"><ele>274.0</ele><time>2026-04-08T11:24:38Z</time></trkpt><trkpt lat="34.4250069966103" lon="8.757041018243966"><ele>274.0</ele><time>2026-04-08T11:24:39Z</time></trkpt><trkpt lat="34.42497447875189" lon="8.757147021555603"><ele>274.16666666666663</ele><time>2026-04-08T11:24:40Z</time></trkpt><trkpt lat="34.42494145271711" lon="8.757245665542333"><ele>274.3333333333333</ele><time>2026-04-08T11:24:41Z</time></trkpt><trkpt lat="34.42490832735705" lon="8.75734210337042"><ele>274.5</ele><time>2026-04-08T11:24:42Z</time></trkpt><trkpt lat="34.424878007032966" lon="8.757440938871556"><ele>274.6666666666667</ele><time>2026-04-08T11:24:43Z</time></trkpt><trkpt lat="34.42484976233366" lon="8.757539512717248"><ele>274.83333333333337</ele><time>2026-04-08T11:24:44Z</time></trkpt><trkpt lat="34.42482074903725" lon="8.757639371186878"><ele>275.0</ele><time>2026-04-08T11:24:45Z</time></trkpt><trkpt lat="34.42479161867241" lon="8.757728065335126"><ele>274.83333333333337</ele><time>2026-04-08T11:24:46Z</time></trkpt><trkpt lat="34.42476501117974" lon="8.75780793146651"><ele>274.6666666666667</ele><time>2026-04-08T11:24:47Z</time></trkpt><trkpt lat="34.42474009398081" lon="8.757878522322626"><ele>274.5</ele><time>2026-04-08T11:24:48Z</time></trkpt><trkpt lat="34.42469272437566" lon="8.758016117973186"><ele>274.3333333333333</ele><time>2026-04-08T11:24:50Z</time></trkpt><trkpt lat="34.42466010542307" lon="8.75810869020606"><ele>274.16666666666663</ele><time>2026-04-08T11:24:52Z</time></trkpt><trkpt lat="34.42462920954823" lon="8.758193580068218"><ele>274.0</ele><time>2026-04-08T11:24:55Z</time></trkpt><trkpt lat="34.42460114868232" lon="8.758283371530938"><ele>274.0</ele><time>2026-04-08T11:24:58Z</time></trkpt><trkpt lat="34.42456588670516" lon="8.758370981536565"><ele>274.0</ele><time>2026-04-08T11:25:01Z</time></trkpt><trkpt lat="34.42453024185388" lon="8.75844250216241"><ele>274.0</ele><time>2026-04-08T11:25:03Z</time></trkpt><trkpt lat="34.42447981170554" lon="8.758574646711203"><ele>274.0</ele><time>2026-04-08T11:25:05Z</time></trkpt><trkpt lat="34.42444169287785" lon="8.758691957934017"><ele>274.0</ele><time>2026-04-08T11:25:07Z</time></trkpt><trkpt lat="34.424408261128974" lon="8.758776478017312"><ele>274.5</ele><time>2026-04-08T11:25:09Z</time></trkpt><trkpt lat="34.42437738922446" lon="8.758886496070357"><ele>275.0</ele><time>2026-04-08T11:25:11Z</time></trkpt><trkpt lat="34.42441850661954" lon="8.7590060336659"><ele>275.5</ele><time>2026-04-08T11:25:13Z</time></trkpt><trkpt lat="34.424459466291765" lon="8.759065902695065"><ele>276.0</ele><time>2026-04-08T11:25:14Z</time></trkpt><trkpt lat="34.42450375191442" lon="8.75912460390547"><ele>276.5</ele><time>2026-04-08T11:25:15Z</time></trkpt><trkpt lat="34.42454848827372" lon="8.759185547697623"><ele>277.0</ele><time>2026-04-08T11:25:16Z</time></trkpt><trkpt lat="34.42461827752025" lon="8.759287312589402"><ele>277.2</ele><time>2026-04-08T11:25:18Z</time></trkpt><trkpt lat="34.4246853600802" lon="8.759386987690528"><ele>277.4</ele><time>2026-04-08T11:25:20Z</time></trkpt><trkpt lat="34.42474976345395" lon="8.759477407793488"><ele>277.6</ele><time>2026-04-08T11:25:22Z</time></trkpt><trkpt lat="34.42480945823696" lon="8.759557401197211"><ele>277.8</ele><time>2026-04-08T11:25:24Z</time></trkpt><trkpt lat="34.42486371920366" lon="8.759631874801407"><ele>278.0</ele><time>2026-04-08T11:25:26Z</time></trkpt><trkpt lat="34.42491890054417" lon="8.759716411143186"><ele>278.0</ele><time>2026-04-08T11:25:28Z</time></trkpt><trkpt lat="34.42497841003833" lon="8.759789824366555"><ele>278.0</ele><time>2026-04-08T11:25:30Z</time></trkpt><trkpt lat="34.42505326420507" lon="8.759843959125028"><ele>278.0</ele><time>2026-04-08T11:25:32Z</time></trkpt><trkpt lat="34.4251652403796" lon="8.759912519829188"><ele>278.0</ele><time>2026-04-08T11:25:34Z</time></trkpt><trkpt lat="34.425215390253236" lon="8.759967463229655"><ele>278.0</ele><time>2026-04-08T11:25:35Z</time></trkpt><trkpt lat="34.4252568315672" lon="8.760034455585824"><ele>278.0</ele><time>2026-04-08T11:25:36Z</time></trkpt><trkpt lat="34.42529416397129" lon="8.760111781930247"><ele>278.0</ele><time>2026-04-08T11:25:37Z</time></trkpt><trkpt lat="34.42533324633614" lon="8.760190214863771"><ele>278.0</ele><time>2026-04-08T11:25:38Z</time></trkpt><trkpt lat="34.42537446186928" lon="8.76026673320596"><ele>278.0</ele><time>2026-04-08T11:25:39Z</time></trkpt><trkpt lat="34.42541986960395" lon="8.760343413166176"><ele>278.0</ele><time>2026-04-08T11:25:40Z</time></trkpt><trkpt lat="34.42547029225281" lon="8.760418018448094"><ele>278.0</ele><time>2026-04-08T11:25:41Z</time></trkpt><trkpt lat="34.425515930175436" lon="8.760497284518312"><ele>278.0</ele><time>2026-04-08T11:25:42Z</time></trkpt><trkpt lat="34.425561698122216" lon="8.760581695978036"><ele>278.0</ele><time>2026-04-08T11:25:43Z</time></trkpt><trkpt lat="34.42561033777559" lon="8.760666167072854"><ele>278.0</ele><time>2026-04-08T11:25:44Z</time></trkpt><trkpt lat="34.42565983524437" lon="8.76075119137586"><ele>278.0</ele><time>2026-04-08T11:25:45Z</time></trkpt><trkpt lat="34.4257133226901" lon="8.760836494891322"><ele>278.0</ele><time>2026-04-08T11:25:46Z</time></trkpt><trkpt lat="34.42576622464051" lon="8.760923932374894"><ele>278.0</ele><time>2026-04-08T11:25:47Z</time></trkpt><trkpt lat="34.425817740535265" lon="8.761008115785861"><ele>278.0</ele><time>2026-04-08T11:25:48Z</time></trkpt><trkpt lat="34.425871526673724" lon="8.761092537358978"><ele>278.33333333333337</ele><time>2026-04-08T11:25:49Z</time></trkpt><trkpt lat="34.42592255310844" lon="8.761177672576656"><ele>278.6666666666667</ele><time>2026-04-08T11:25:50Z</time></trkpt><trkpt lat="34.42597119617812" lon="8.761264903818113"><ele>279.0</ele><time>2026-04-08T11:25:51Z</time></trkpt><trkpt lat="34.42601990261922" lon="8.761352878297673"><ele>279.3333333333333</ele><time>2026-04-08T11:25:52Z</time></trkpt><trkpt lat="34.426073477124966" lon="8.76143885879658"><ele>279.66666666666663</ele><time>2026-04-08T11:25:53Z</time></trkpt><trkpt lat="34.42612716921273" lon="8.761527748113128"><ele>280.0</ele><time>2026-04-08T11:25:54Z</time></trkpt><trkpt lat="34.426178416674155" lon="8.761620195375297"><ele>280.0</ele><time>2026-04-08T11:25:55Z</time></trkpt><trkpt lat="34.42622909004898" lon="8.761713430825061"><ele>280.0</ele><time>2026-04-08T11:25:56Z</time></trkpt><trkpt lat="34.426280871933486" lon="8.761808519100008"><ele>280.0</ele><time>2026-04-08T11:25:57Z</time></trkpt><trkpt lat="34.42633808663191" lon="8.761903383465159"><ele>280.0</ele><time>2026-04-08T11:25:58Z</time></trkpt><trkpt lat="34.42639603120747" lon="8.76199726473423"><ele>280.0</ele><time>2026-04-08T11:25:59Z</time></trkpt><trkpt lat="34.42645346271658" lon="8.762095267059575"><ele>280.2</ele><time>2026-04-08T11:26:00Z</time></trkpt><trkpt lat="34.42651217031333" lon="8.762194529358789"><ele>280.4</ele><time>2026-04-08T11:26:00.999Z</time></trkpt><trkpt lat="34.42657439735415" lon="8.762293305240185"><ele>280.6</ele><time>2026-04-08T11:26:01.999Z</time></trkpt><trkpt lat="34.42663433049778" lon="8.762396149087664"><ele>280.8</ele><time>2026-04-08T11:26:02.999Z</time></trkpt><trkpt lat="34.42668951017159" lon="8.76250238272623"><ele>281.0</ele><time>2026-04-08T11:26:03.999Z</time></trkpt><trkpt lat="34.426746874942" lon="8.762604904846299"><ele>281.6</ele><time>2026-04-08T11:26:04.999Z</time></trkpt><trkpt lat="34.42680906238255" lon="8.762702445054474"><ele>282.20000000000005</ele><time>2026-04-08T11:26:05.999Z</time></trkpt><trkpt lat="34.42686978388626" lon="8.762801600299078"><ele>282.79999999999995</ele><time>2026-04-08T11:26:06.999Z</time></trkpt><trkpt lat="34.42692549460516" lon="8.762896683621861"><ele>283.4</ele><time>2026-04-08T11:26:07.999Z</time></trkpt><trkpt lat="34.42697459646041" lon="8.762987245947873"><ele>284.0</ele><time>2026-04-08T11:26:08.999Z</time></trkpt><trkpt lat="34.427014706337246" lon="8.763069675427426"><ele>284.0</ele><time>2026-04-08T11:26:09.999Z</time></trkpt><trkpt lat="34.42704900622728" lon="8.763158417973829"><ele>284.0</ele><time>2026-04-08T11:26:10.999Z</time></trkpt><trkpt lat="34.42707937537814" lon="8.763248475798637"><ele>284.0</ele><time>2026-04-08T11:26:11.999Z</time></trkpt><trkpt lat="34.42710778763167" lon="8.763328283433117"><ele>284.0</ele><time>2026-04-08T11:26:12.999Z</time></trkpt><trkpt lat="34.42714867894107" lon="8.763403999520422"><ele>284.0</ele><time>2026-04-08T11:26:14Z</time></trkpt><trkpt lat="34.42720516649552" lon="8.763479525287702"><ele>284.0</ele><time>2026-04-08T11:26:15Z</time></trkpt><trkpt lat="34.427265999749245" lon="8.763571535652593"><ele>285.25</ele><time>2026-04-08T11:26:16Z</time></trkpt><trkpt lat="34.42732253314264" lon="8.763673191769172"><ele>286.5</ele><time>2026-04-08T11:26:17Z</time></trkpt><trkpt lat="34.42737685272439" lon="8.763797089364164"><ele>287.75</ele><time>2026-04-08T11:26:18Z</time></trkpt><trkpt lat="34.42743092520121" lon="8.76394445211612"><ele>289.0</ele><time>2026-04-08T11:26:19Z</time></trkpt><trkpt lat="34.42749700222316" lon="8.764119882305318"><ele>289.0</ele><time>2026-04-08T11:26:20Z</time></trkpt><trkpt lat="34.42757292521453" lon="8.764310634528195"><ele>289.0</ele><time>2026-04-08T11:26:21Z</time></trkpt><trkpt lat="34.427649982152644" lon="8.764503610177234"><ele>289.0</ele><time>2026-04-08T11:26:22Z</time></trkpt><trkpt lat="34.42772520478587" lon="8.764680471961382"><ele>288.75</ele><time>2026-04-08T11:26:23Z</time></trkpt><trkpt lat="34.42779412112392" lon="8.764843581798488"><ele>288.5</ele><time>2026-04-08T11:26:24Z</time></trkpt><trkpt lat="34.42785904519041" lon="8.764995889579035"><ele>288.25</ele><time>2026-04-08T11:26:25Z</time></trkpt><trkpt lat="34.42792192586729" lon="8.76514344382457"><ele>288.0</ele><time>2026-04-08T11:26:26Z</time></trkpt><trkpt lat="34.42798607384772" lon="8.765296321349902"><ele>287.75</ele><time>2026-04-08T11:26:27Z</time></trkpt><trkpt lat="34.428050991735404" lon="8.765452382545627"><ele>287.5</ele><time>2026-04-08T11:26:28Z</time></trkpt><trkpt lat="34.428116167546335" lon="8.765607270977496"><ele>287.25</ele><time>2026-04-08T11:26:29Z</time></trkpt><trkpt lat="34.42818182930962" lon="8.765759591085924"><ele>287.0</ele><time>2026-04-08T11:26:30Z</time></trkpt><trkpt lat="34.428246226839676" lon="8.765913038024971"><ele>287.0</ele><time>2026-04-08T11:26:31Z</time></trkpt><trkpt lat="34.42831227704889" lon="8.766060616037285"><ele>287.0</ele><time>2026-04-08T11:26:32Z</time></trkpt><trkpt lat="34.42837698054011" lon="8.76619333794116"><ele>287.0</ele><time>2026-04-08T11:26:33Z</time></trkpt><trkpt lat="34.42843612704679" lon="8.766315708456393"><ele>287.0</ele><time>2026-04-08T11:26:34Z</time></trkpt><trkpt lat="34.42848280969526" lon="8.766423047136389"><ele>287.0</ele><time>2026-04-08T11:26:35Z</time></trkpt><trkpt lat="34.42852275210299" lon="8.76651744601271"><ele>287.0</ele><time>2026-04-08T11:26:36Z</time></trkpt><trkpt lat="34.42855914748949" lon="8.766601818885972"><ele>287.0</ele><time>2026-04-08T11:26:37Z</time></trkpt><trkpt lat="34.428588768812" lon="8.766680199592713"><ele>287.0</ele><time>2026-04-08T11:26:38Z</time></trkpt><trkpt lat="34.42862226960705" lon="8.766816411489462"><ele>287.0</ele><time>2026-04-08T11:26:40Z</time></trkpt><trkpt lat="34.42862304515016" lon="8.766905784472062"><ele>287.0</ele><time>2026-04-08T11:26:43Z</time></trkpt><trkpt lat="34.42863683456936" lon="8.766998333946663"><ele>287.4</ele><time>2026-04-08T11:26:45Z</time></trkpt><trkpt lat="34.42873496447451" lon="8.767094039834822"><ele>287.79999999999995</ele><time>2026-04-08T11:26:47Z</time></trkpt><trkpt lat="34.428806589364854" lon="8.767129811341317"><ele>288.2</ele><time>2026-04-08T11:26:48Z</time></trkpt><trkpt lat="34.42888936378996" lon="8.767175133708719"><ele>288.59999999999997</ele><time>2026-04-08T11:26:49Z</time></trkpt><trkpt lat="34.428994797542124" lon="8.767252525423997"><ele>289.0</ele><time>2026-04-08T11:26:50Z</time></trkpt><trkpt lat="34.429120717359254" lon="8.767363070865146"><ele>289.66666666666663</ele><time>2026-04-08T11:26:51Z</time></trkpt><trkpt lat="34.42926062400041" lon="8.767501800757879"><ele>290.3333333333333</ele><time>2026-04-08T11:26:52Z</time></trkpt><trkpt lat="34.42942286432807" lon="8.767661109339649"><ele>291.0</ele><time>2026-04-08T11:26:53Z</time></trkpt><trkpt lat="34.429608301064675" lon="8.767842141935521"><ele>292.0</ele><time>2026-04-08T11:26:54Z</time></trkpt><trkpt lat="34.42980503748298" lon="8.768031437037052"><ele>293.0</ele><time>2026-04-08T11:26:55Z</time></trkpt><trkpt lat="34.429986449546334" lon="8.768217764198527"><ele>293.0</ele><time>2026-04-08T11:26:56Z</time></trkpt><trkpt lat="34.43014741075029" lon="8.768395641429654"><ele>293.0</ele><time>2026-04-08T11:26:57Z</time></trkpt><trkpt lat="34.43029818611765" lon="8.768579903708535"><ele>293.0</ele><time>2026-04-08T11:26:58Z</time></trkpt><trkpt lat="34.43044242855009" lon="8.768769161070875"><ele>294.33333333333337</ele><time>2026-04-08T11:26:59Z</time></trkpt><trkpt lat="34.43057354946961" lon="8.768956891610962"><ele>295.6666666666667</ele><time>2026-04-08T11:27:00Z</time></trkpt><trkpt lat="34.430689813275244" lon="8.769139996428942"><ele>297.0</ele><time>2026-04-08T11:27:01Z</time></trkpt><trkpt lat="34.430789872493165" lon="8.769312554059228"><ele>297.6666666666667</ele><time>2026-04-08T11:27:02Z</time></trkpt><trkpt lat="34.43087779115617" lon="8.769475124546865"><ele>298.33333333333337</ele><time>2026-04-08T11:27:03Z</time></trkpt><trkpt lat="34.430959274744886" lon="8.769629059939163"><ele>299.0</ele><time>2026-04-08T11:27:04Z</time></trkpt><trkpt lat="34.431037787767515" lon="8.76978095068334"><ele>299.0</ele><time>2026-04-08T11:27:05Z</time></trkpt><trkpt lat="34.431117818313794" lon="8.769931917905236"><ele>299.0</ele><time>2026-04-08T11:27:06Z</time></trkpt><trkpt lat="34.431201676549406" lon="8.77008253793175"><ele>299.0</ele><time>2026-04-08T11:27:07Z</time></trkpt><trkpt lat="34.43128758565055" lon="8.770232451152669"><ele>299.0</ele><time>2026-04-08T11:27:08Z</time></trkpt><trkpt lat="34.43137289084804" lon="8.770389635699983"><ele>300.33333333333337</ele><time>2026-04-08T11:27:09Z</time></trkpt><trkpt lat="34.43145745745967" lon="8.770557932509009"><ele>301.6666666666667</ele><time>2026-04-08T11:27:10Z</time></trkpt><trkpt lat="34.431542376303454" lon="8.770726605617241"><ele>303.0</ele><time>2026-04-08T11:27:11Z</time></trkpt><trkpt lat="34.43163015448143" lon="8.770900363697425"><ele>301.3333333333333</ele><time>2026-04-08T11:27:12Z</time></trkpt><trkpt lat="34.43171930652787" lon="8.771072349887467"><ele>299.66666666666663</ele><time>2026-04-08T11:27:13Z</time></trkpt><trkpt lat="34.4318077601146" lon="8.771243346844168"><ele>298.0</ele><time>2026-04-08T11:27:14Z</time></trkpt><trkpt lat="34.43189342466302" lon="8.771409979543902"><ele>298.0</ele><time>2026-04-08T11:27:15Z</time></trkpt><trkpt lat="34.431979694780885" lon="8.771569802884233"><ele>298.0</ele><time>2026-04-08T11:27:16Z</time></trkpt><trkpt lat="34.43206732317571" lon="8.771734573029784"><ele>298.0</ele><time>2026-04-08T11:27:17Z</time></trkpt><trkpt lat="34.43216074760213" lon="8.771905259746477"><ele>301.0</ele><time>2026-04-08T11:27:18Z</time></trkpt><trkpt lat="34.43225798338082" lon="8.772081960407986"><ele>304.0</ele><time>2026-04-08T11:27:19Z</time></trkpt><trkpt lat="34.43235700332385" lon="8.772258445690944"><ele>307.0</ele><time>2026-04-08T11:27:20Z</time></trkpt><trkpt lat="34.43245260742254" lon="8.77243170156589"><ele>307.0</ele><time>2026-04-08T11:27:21Z</time></trkpt><trkpt lat="34.43254818740815" lon="8.772609051137662"><ele>307.0</ele><time>2026-04-08T11:27:22Z</time></trkpt><trkpt lat="34.43264009716304" lon="8.772781979073725"><ele>307.0</ele><time>2026-04-08T11:27:23Z</time></trkpt><trkpt lat="34.432726550286866" lon="8.772947202703955"><ele>306.25</ele><time>2026-04-08T11:27:24Z</time></trkpt><trkpt lat="34.432792442101494" lon="8.77308602922581"><ele>305.5</ele><time>2026-04-08T11:27:25Z</time></trkpt><trkpt lat="34.43284782029423" lon="8.773200752267412"><ele>304.75</ele><time>2026-04-08T11:27:26Z</time></trkpt><trkpt lat="34.43290960303563" lon="8.773316448710991"><ele>304.0</ele><time>2026-04-08T11:27:27Z</time></trkpt><trkpt lat="34.432973269852994" lon="8.773436682487127"><ele>306.0</ele><time>2026-04-08T11:27:28Z</time></trkpt><trkpt lat="34.43304085059286" lon="8.773561746444228"><ele>308.0</ele><time>2026-04-08T11:27:29Z</time></trkpt><trkpt lat="34.43311327434292" lon="8.7736904376014"><ele>310.0</ele><time>2026-04-08T11:27:30Z</time></trkpt><trkpt lat="34.433185617888505" lon="8.773822280381989"><ele>312.0</ele><time>2026-04-08T11:27:31Z</time></trkpt><trkpt lat="34.43325973378414" lon="8.77396307758076"><ele>312.0</ele><time>2026-04-08T11:27:32Z</time></trkpt><trkpt lat="34.43333844081554" lon="8.774105439339422"><ele>312.0</ele><time>2026-04-08T11:27:33Z</time></trkpt><trkpt lat="34.433424418424295" lon="8.77424793944033"><ele>312.0</ele><time>2026-04-08T11:27:34Z</time></trkpt><trkpt lat="34.433516246365414" lon="8.774389736512097"><ele>312.0</ele><time>2026-04-08T11:27:35Z</time></trkpt><trkpt lat="34.433618863621085" lon="8.774528739077622"><ele>312.6666666666667</ele><time>2026-04-08T11:27:36Z</time></trkpt><trkpt lat="34.43373433609117" lon="8.77465590491995"><ele>313.33333333333337</ele><time>2026-04-08T11:27:37Z</time></trkpt><trkpt lat="34.43386693290978" lon="8.774772342803347"><ele>314.0</ele><time>2026-04-08T11:27:38Z</time></trkpt><trkpt lat="34.43400951667348" lon="8.774868029738974"><ele>314.0</ele><time>2026-04-08T11:27:39Z</time></trkpt><trkpt lat="34.43416317488384" lon="8.774944625660172"><ele>314.0</ele><time>2026-04-08T11:27:40Z</time></trkpt><trkpt lat="34.43432612058385" lon="8.775005395735198"><ele>314.0</ele><time>2026-04-08T11:27:41Z</time></trkpt><trkpt lat="34.434494677021256" lon="8.775051347112601"><ele>314.6666666666667</ele><time>2026-04-08T11:27:42Z</time></trkpt><trkpt lat="34.434671404282234" lon="8.775088333824762"><ele>315.3333333333333</ele><time>2026-04-08T11:27:43Z</time></trkpt><trkpt lat="34.43484799559853" lon="8.775119347705541"><ele>316.0</ele><time>2026-04-08T11:27:44Z</time></trkpt><trkpt lat="34.43502819898178" lon="8.775146341370101"><ele>316.0</ele><time>2026-04-08T11:27:45Z</time></trkpt><trkpt lat="34.43521446557184" lon="8.775167324889427"><ele>316.0</ele><time>2026-04-08T11:27:46Z</time></trkpt><trkpt lat="34.435409702030604" lon="8.775182112116738"><ele>316.0</ele><time>2026-04-08T11:27:47Z</time></trkpt><trkpt lat="34.43561046332022" lon="8.77518983013516"><ele>316.0</ele><time>2026-04-08T11:27:48Z</time></trkpt><trkpt lat="34.435811686950444" lon="8.77518947136072"><ele>316.0</ele><time>2026-04-08T11:27:49Z</time></trkpt><trkpt lat="34.43601821946867" lon="8.775184577892468"><ele>316.0</ele><time>2026-04-08T11:27:50Z</time></trkpt><trkpt lat="34.43622614219589" lon="8.775179120362244"><ele>316.0</ele><time>2026-04-08T11:27:51Z</time></trkpt><trkpt lat="34.43643442895623" lon="8.775177929871715"><ele>316.0</ele><time>2026-04-08T11:27:52Z</time></trkpt><trkpt lat="34.43664245674928" lon="8.775183562426847"><ele>316.0</ele><time>2026-04-08T11:27:53Z</time></trkpt><trkpt lat="34.43684324555084" lon="8.775190277431362"><ele>316.0</ele><time>2026-04-08T11:27:54Z</time></trkpt><trkpt lat="34.437038991923764" lon="8.775192419746395"><ele>316.0</ele><time>2026-04-08T11:27:55Z</time></trkpt><trkpt lat="34.437231629000905" lon="8.775190341337977"><ele>316.0</ele><time>2026-04-08T11:27:56Z</time></trkpt><trkpt lat="34.437419984147844" lon="8.775182529409319"><ele>317.3333333333333</ele><time>2026-04-08T11:27:57Z</time></trkpt><trkpt lat="34.43761143675356" lon="8.775176676393485"><ele>318.6666666666667</ele><time>2026-04-08T11:27:58Z</time></trkpt><trkpt lat="34.437793736817596" lon="8.775169564721438"><ele>320.0</ele><time>2026-04-08T11:27:59Z</time></trkpt><trkpt lat="34.437974521885856" lon="8.7751576648588"><ele>320.0</ele><time>2026-04-08T11:28:00Z</time></trkpt><trkpt lat="34.43815146119381" lon="8.775136467114677"><ele>320.0</ele><time>2026-04-08T11:28:01Z</time></trkpt><trkpt lat="34.438329747223655" lon="8.775113626628762"><ele>320.0</ele><time>2026-04-08T11:28:02Z</time></trkpt><trkpt lat="34.43850303420611" lon="8.775090776461"><ele>320.0</ele><time>2026-04-08T11:28:03Z</time></trkpt><trkpt lat="34.438675139405625" lon="8.775062576443718"><ele>320.0</ele><time>2026-04-08T11:28:04Z</time></trkpt><trkpt lat="34.438846770478115" lon="8.775029126434495"><ele>320.0</ele><time>2026-04-08T11:28:05Z</time></trkpt><trkpt lat="34.439019555897424" lon="8.774994067517234"><ele>321.0</ele><time>2026-04-08T11:28:06Z</time></trkpt><trkpt lat="34.43919235977067" lon="8.774955616914008"><ele>322.0</ele><time>2026-04-08T11:28:06.999Z</time></trkpt><trkpt lat="34.43936686574228" lon="8.774912129256542"><ele>323.0</ele><time>2026-04-08T11:28:07.999Z</time></trkpt><trkpt lat="34.43954216640686" lon="8.774860388463608"><ele>323.33333333333337</ele><time>2026-04-08T11:28:08.999Z</time></trkpt><trkpt lat="34.439717342200176" lon="8.774803289059323"><ele>323.6666666666667</ele><time>2026-04-08T11:28:09.999Z</time></trkpt><trkpt lat="34.439892543169975" lon="8.77473740847907"><ele>324.0</ele><time>2026-04-08T11:28:10.999Z</time></trkpt><trkpt lat="34.44006528859401" lon="8.77466325094101"><ele>324.0</ele><time>2026-04-08T11:28:11.999Z</time></trkpt><trkpt lat="34.44023713773473" lon="8.774591280069478"><ele>324.0</ele><time>2026-04-08T11:28:12.999Z</time></trkpt><trkpt lat="34.44040638453936" lon="8.774524890791227"><ele>324.0</ele><time>2026-04-08T11:28:13.999Z</time></trkpt><trkpt lat="34.440572120893755" lon="8.774455043769573"><ele>324.0</ele><time>2026-04-08T11:28:14.999Z</time></trkpt><trkpt lat="34.44073399683682" lon="8.774380104166374"><ele>324.0</ele><time>2026-04-08T11:28:15.999Z</time></trkpt><trkpt lat="34.44089321091006" lon="8.77430637479958"><ele>324.0</ele><time>2026-04-08T11:28:16.999Z</time></trkpt><trkpt lat="34.4410513638357" lon="8.77423145228231"><ele>324.3333333333333</ele><time>2026-04-08T11:28:17.999Z</time></trkpt><trkpt lat="34.441209983230074" lon="8.774157788294362"><ele>324.66666666666663</ele><time>2026-04-08T11:28:18.999Z</time></trkpt><trkpt lat="34.44137072941286" lon="8.774084105923103"><ele>325.0</ele><time>2026-04-08T11:28:19.999Z</time></trkpt><trkpt lat="34.44153186350296" lon="8.774011342022504"><ele>326.0</ele><time>2026-04-08T11:28:20.999Z</time></trkpt><trkpt lat="34.441695664644534" lon="8.77393134997059"><ele>327.0</ele><time>2026-04-08T11:28:21.999Z</time></trkpt><trkpt lat="34.44185723443895" lon="8.773850760456794"><ele>328.0</ele><time>2026-04-08T11:28:23Z</time></trkpt><trkpt lat="34.442016872695106" lon="8.773767253304962"><ele>329.0</ele><time>2026-04-08T11:28:24Z</time></trkpt><trkpt lat="34.44217532395939" lon="8.773689071795983"><ele>330.0</ele><time>2026-04-08T11:28:25Z</time></trkpt><trkpt lat="34.44233085818722" lon="8.773616116950247"><ele>331.0</ele><time>2026-04-08T11:28:26Z</time></trkpt><trkpt lat="34.44248361008357" lon="8.77354510345849"><ele>331.0</ele><time>2026-04-08T11:28:27Z</time></trkpt><trkpt lat="34.44263000320178" lon="8.773477551782936"><ele>331.0</ele><time>2026-04-08T11:28:28Z</time></trkpt><trkpt lat="34.442766816115046" lon="8.773411400246255"><ele>331.0</ele><time>2026-04-08T11:28:29Z</time></trkpt><trkpt lat="34.44288881436576" lon="8.773342617242657"><ele>331.0</ele><time>2026-04-08T11:28:30Z</time></trkpt><trkpt lat="34.44300045541858" lon="8.7732804961813"><ele>331.8</ele><time>2026-04-08T11:28:31Z</time></trkpt><trkpt lat="34.443101929714295" lon="8.77323012613031"><ele>332.6</ele><time>2026-04-08T11:28:32Z</time></trkpt><trkpt lat="34.44319873212365" lon="8.773182582530385"><ele>333.4</ele><time>2026-04-08T11:28:33Z</time></trkpt><trkpt lat="34.44328897381866" lon="8.77315088396838"><ele>334.2</ele><time>2026-04-08T11:28:34Z</time></trkpt><trkpt lat="34.4433783546514" lon="8.773132931659532"><ele>335.0</ele><time>2026-04-08T11:28:35Z</time></trkpt><trkpt lat="34.443469777326854" lon="8.773113625333194"><ele>335.0</ele><time>2026-04-08T11:28:36Z</time></trkpt><trkpt lat="34.44355655091449" lon="8.773083349853456"><ele>335.0</ele><time>2026-04-08T11:28:37Z</time></trkpt><trkpt lat="34.443641393986006" lon="8.773027615361848"><ele>335.0</ele><time>2026-04-08T11:28:38Z</time></trkpt><trkpt lat="34.443735375754024" lon="8.772954395739626"><ele>335.0</ele><time>2026-04-08T11:28:39Z</time></trkpt><trkpt lat="34.44385823897581" lon="8.772885866897983"><ele>335.0</ele><time>2026-04-08T11:28:40Z</time></trkpt><trkpt lat="34.444004618896265" lon="8.772824178779752"><ele>335.33333333333337</ele><time>2026-04-08T11:28:41Z</time></trkpt><trkpt lat="34.4441676721469" lon="8.772762362737456"><ele>335.6666666666667</ele><time>2026-04-08T11:28:42Z</time></trkpt><trkpt lat="34.444343648221384" lon="8.772700035871996"><ele>336.0</ele><time>2026-04-08T11:28:43Z</time></trkpt><trkpt lat="34.444523033214544" lon="8.772640424044292"><ele>335.3333333333333</ele><time>2026-04-08T11:28:44Z</time></trkpt><trkpt lat="34.44470199869628" lon="8.772586986659682"><ele>334.66666666666663</ele><time>2026-04-08T11:28:45Z</time></trkpt><trkpt lat="34.44488188192385" lon="8.772542414300124"><ele>334.0</ele><time>2026-04-08T11:28:46Z</time></trkpt><trkpt lat="34.4450597965532" lon="8.772505688609437"><ele>334.0</ele><time>2026-04-08T11:28:47Z</time></trkpt><trkpt lat="34.44523670974245" lon="8.772471992524144"><ele>334.0</ele><time>2026-04-08T11:28:48Z</time></trkpt><trkpt lat="34.44541582008271" lon="8.772443817632864"><ele>334.0</ele><time>2026-04-08T11:28:49Z</time></trkpt><trkpt lat="34.445600156003195" lon="8.772422793821965"><ele>335.66666666666663</ele><time>2026-04-08T11:28:50Z</time></trkpt><trkpt lat="34.44579043866883" lon="8.772409990776227"><ele>337.3333333333333</ele><time>2026-04-08T11:28:51Z</time></trkpt><trkpt lat="34.445988335531574" lon="8.772408880171287"><ele>339.0</ele><time>2026-04-08T11:28:52Z</time></trkpt><trkpt lat="34.44619059918167" lon="8.772419735985453"><ele>338.6666666666667</ele><time>2026-04-08T11:28:53Z</time></trkpt><trkpt lat="34.44639577678459" lon="8.772445606383021"><ele>338.33333333333337</ele><time>2026-04-08T11:28:54Z</time></trkpt><trkpt lat="34.44659790543765" lon="8.772478452178218"><ele>338.0</ele><time>2026-04-08T11:28:55Z</time></trkpt><trkpt lat="34.44679169392212" lon="8.772511402677926"><ele>338.0</ele><time>2026-04-08T11:28:56Z</time></trkpt><trkpt lat="34.446971756690075" lon="8.772544360213102"><ele>338.0</ele><time>2026-04-08T11:28:57Z</time></trkpt><trkpt lat="34.4471351692066" lon="8.772574864379319"><ele>338.0</ele><time>2026-04-08T11:28:58Z</time></trkpt><trkpt lat="34.447277599659984" lon="8.772601164927847"><ele>339.0</ele><time>2026-04-08T11:28:59Z</time></trkpt><trkpt lat="34.44741350626914" lon="8.772624486673232"><ele>340.0</ele><time>2026-04-08T11:29:00Z</time></trkpt><trkpt lat="34.447542501974986" lon="8.772647306662996"><ele>341.0</ele><time>2026-04-08T11:29:01Z</time></trkpt><trkpt lat="34.44767004674885" lon="8.772669920708353"><ele>342.0</ele><time>2026-04-08T11:29:02Z</time></trkpt><trkpt lat="34.447797137173545" lon="8.772692723911259"><ele>342.20000000000005</ele><time>2026-04-08T11:29:03Z</time></trkpt><trkpt lat="34.447917222955006" lon="8.772715292273265"><ele>342.4</ele><time>2026-04-08T11:29:04Z</time></trkpt><trkpt lat="34.448027882506416" lon="8.77273549681931"><ele>342.6</ele><time>2026-04-08T11:29:05Z</time></trkpt><trkpt lat="34.448124837709386" lon="8.772752082723649"><ele>342.79999999999995</ele><time>2026-04-08T11:29:06Z</time></trkpt><trkpt lat="34.44821400463042" lon="8.772767271704451"><ele>343.0</ele><time>2026-04-08T11:29:07Z</time></trkpt><trkpt lat="34.44829531635257" lon="8.772782942487831"><ele>343.2</ele><time>2026-04-08T11:29:08Z</time></trkpt><trkpt lat="34.44836726822652" lon="8.77279769534333"><ele>343.4</ele><time>2026-04-08T11:29:09Z</time></trkpt><trkpt lat="34.4484738236527" lon="8.772815844275085"><ele>343.59999999999997</ele><time>2026-04-08T11:29:11Z</time></trkpt><trkpt lat="34.4485590616794" lon="8.772828115265462"><ele>343.79999999999995</ele><time>2026-04-08T11:29:13Z</time></trkpt><trkpt lat="34.44865581568984" lon="8.772849899727312"><ele>344.0</ele><time>2026-04-08T11:29:15Z</time></trkpt><trkpt lat="34.448762092138494" lon="8.772883975249137"><ele>344.5</ele><time>2026-04-08T11:29:17Z</time></trkpt><trkpt lat="34.448820444985195" lon="8.772931605833193"><ele>345.0</ele><time>2026-04-08T11:29:19Z</time></trkpt><trkpt lat="34.448883222411816" lon="8.77297962072197"><ele>345.5</ele><time>2026-04-08T11:29:22Z</time></trkpt><trkpt lat="34.4489752366948" lon="8.773011859708031"><ele>346.0</ele><time>2026-04-08T11:29:24Z</time></trkpt><trkpt lat="34.44908227097448" lon="8.772979365560834"><ele>346.5</ele><time>2026-04-08T11:29:26Z</time></trkpt><trkpt lat="34.44914398800396" lon="8.772952427065167"><ele>347.0</ele><time>2026-04-08T11:29:27Z</time></trkpt><trkpt lat="34.449217406638816" lon="8.77293943767752"><ele>347.0</ele><time>2026-04-08T11:29:28Z</time></trkpt><trkpt lat="34.44930183013191" lon="8.77293901867008"><ele>347.0</ele><time>2026-04-08T11:29:29Z</time></trkpt><trkpt lat="34.44939499796038" lon="8.772950893379377"><ele>347.0</ele><time>2026-04-08T11:29:30Z</time></trkpt><trkpt lat="34.44948627124147" lon="8.772974350176087"><ele>347.0</ele><time>2026-04-08T11:29:31Z</time></trkpt><trkpt lat="34.44956411680213" lon="8.772994871300968"><ele>347.0</ele><time>2026-04-08T11:29:32Z</time></trkpt><trkpt lat="34.449639115347665" lon="8.773009733142038"><ele>347.0</ele><time>2026-04-08T11:29:33Z</time></trkpt><trkpt lat="34.44971597734907" lon="8.773025889642643"><ele>347.6</ele><time>2026-04-08T11:29:34Z</time></trkpt><trkpt lat="34.44979911951216" lon="8.773048358543116"><ele>348.20000000000005</ele><time>2026-04-08T11:29:35Z</time></trkpt><trkpt lat="34.44988436350612" lon="8.7730762967091"><ele>348.8</ele><time>2026-04-08T11:29:36Z</time></trkpt><trkpt lat="34.449973896069615" lon="8.773109638675821"><ele>349.4</ele><time>2026-04-08T11:29:37Z</time></trkpt><trkpt lat="34.45006752538586" lon="8.773155117980753"><ele>350.0</ele><time>2026-04-08T11:29:38Z</time></trkpt><trkpt lat="34.450166247065134" lon="8.77321041574979"><ele>350.0</ele><time>2026-04-08T11:29:39Z</time></trkpt><trkpt lat="34.450276400188386" lon="8.773275238843262"><ele>350.0</ele><time>2026-04-08T11:29:40Z</time></trkpt><trkpt lat="34.4503933136231" lon="8.773348123390226"><ele>350.0</ele><time>2026-04-08T11:29:41Z</time></trkpt><trkpt lat="34.45051433904115" lon="8.77344163816369"><ele>350.0</ele><time>2026-04-08T11:29:42Z</time></trkpt><trkpt lat="34.45063594583744" lon="8.773550767676324"><ele>348.6666666666667</ele><time>2026-04-08T11:29:43Z</time></trkpt><trkpt lat="34.45075752410216" lon="8.773673815267664"><ele>347.3333333333333</ele><time>2026-04-08T11:29:44Z</time></trkpt><trkpt lat="34.450875821367525" lon="8.773810762766928"><ele>346.0</ele><time>2026-04-08T11:29:45Z</time></trkpt><trkpt lat="34.45098696550996" lon="8.773966967706285"><ele>346.0</ele><time>2026-04-08T11:29:46Z</time></trkpt><trkpt lat="34.45109664419784" lon="8.774143666121326"><ele>346.0</ele><time>2026-04-08T11:29:47Z</time></trkpt><trkpt lat="34.45119633195863" lon="8.774333336724935"><ele>346.0</ele><time>2026-04-08T11:29:48Z</time></trkpt><trkpt lat="34.45127865754989" lon="8.7745423047928"><ele>346.3333333333333</ele><time>2026-04-08T11:29:49Z</time></trkpt><trkpt lat="34.4513478577916" lon="8.774757666545577"><ele>346.6666666666667</ele><time>2026-04-08T11:29:50Z</time></trkpt><trkpt lat="34.45139737107217" lon="8.77496453282212"><ele>347.0</ele><time>2026-04-08T11:29:51Z</time></trkpt><trkpt lat="34.45144094107607" lon="8.77516086296358"><ele>346.5</ele><time>2026-04-08T11:29:52Z</time></trkpt><trkpt lat="34.451484143991195" lon="8.775341083638546"><ele>346.0</ele><time>2026-04-08T11:29:53Z</time></trkpt><trkpt lat="34.45152404473161" lon="8.775511746360332"><ele>345.5</ele><time>2026-04-08T11:29:54Z</time></trkpt><trkpt lat="34.45156059398763" lon="8.775664417569024"><ele>345.0</ele><time>2026-04-08T11:29:55Z</time></trkpt><trkpt lat="34.45159446424458" lon="8.775799126038029"><ele>345.0</ele><time>2026-04-08T11:29:56Z</time></trkpt><trkpt lat="34.451623218175065" lon="8.7759141281718"><ele>345.0</ele><time>2026-04-08T11:29:57Z</time></trkpt><trkpt lat="34.45164575700677" lon="8.776012772102275"><ele>345.0</ele><time>2026-04-08T11:29:58Z</time></trkpt><trkpt lat="34.45166395760879" lon="8.776094215083072"><ele>345.0</ele><time>2026-04-08T11:29:59Z</time></trkpt><trkpt lat="34.451684895315736" lon="8.77621727008242"><ele>345.0</ele><time>2026-04-08T11:30:01Z</time></trkpt><trkpt lat="34.45168086019159" lon="8.776307585398316"><ele>345.0</ele><time>2026-04-08T11:30:03Z</time></trkpt><trkpt lat="34.451667973154365" lon="8.776391987399215"><ele>344.6</ele><time>2026-04-08T11:30:05Z</time></trkpt><trkpt lat="34.45167857854221" lon="8.776500216127426"><ele>344.2</ele><time>2026-04-08T11:30:07Z</time></trkpt><trkpt lat="34.45174763350084" lon="8.776615433176506"><ele>343.79999999999995</ele><time>2026-04-08T11:30:09Z</time></trkpt><trkpt lat="34.45179846945885" lon="8.776701969404726"><ele>343.4</ele><time>2026-04-08T11:30:10Z</time></trkpt><trkpt lat="34.451840108938654" lon="8.77680550586647"><ele>343.0</ele><time>2026-04-08T11:30:11Z</time></trkpt><trkpt lat="34.45187518117551" lon="8.776926278751244"><ele>343.0</ele><time>2026-04-08T11:30:12Z</time></trkpt><trkpt lat="34.451910193279225" lon="8.777066213412121"><ele>343.0</ele><time>2026-04-08T11:30:12.999Z</time></trkpt><trkpt lat="34.45194637718592" lon="8.777209293380713"><ele>343.0</ele><time>2026-04-08T11:30:13.999Z</time></trkpt><trkpt lat="34.45198244744025" lon="8.777372032393913"><ele>343.0</ele><time>2026-04-08T11:30:14.999Z</time></trkpt><trkpt lat="34.45200840466693" lon="8.77754970501352"><ele>342.66666666666663</ele><time>2026-04-08T11:30:15.999Z</time></trkpt><trkpt lat="34.45202490738381" lon="8.77774122901711"><ele>342.3333333333333</ele><time>2026-04-08T11:30:16.999Z</time></trkpt><trkpt lat="34.45203237420986" lon="8.777956977439551"><ele>342.0</ele><time>2026-04-08T11:30:17.999Z</time></trkpt><trkpt lat="34.45202846573524" lon="8.778197971050316"><ele>342.0</ele><time>2026-04-08T11:30:18.999Z</time></trkpt><trkpt lat="34.452009203562035" lon="8.778425864850007"><ele>342.0</ele><time>2026-04-08T11:30:19.999Z</time></trkpt><trkpt lat="34.451970678499535" lon="8.778630675878476"><ele>342.0</ele><time>2026-04-08T11:30:20.999Z</time></trkpt><trkpt lat="34.45191370256303" lon="8.778817118769721"><ele>342.25</ele><time>2026-04-08T11:30:21.999Z</time></trkpt><trkpt lat="34.451848543606474" lon="8.778985581662932"><ele>342.5</ele><time>2026-04-08T11:30:22.999Z</time></trkpt><trkpt lat="34.45177949716638" lon="8.77913561020125"><ele>342.75</ele><time>2026-04-08T11:30:23.999Z</time></trkpt><trkpt lat="34.45170291252116" lon="8.77928305944429"><ele>343.0</ele><time>2026-04-08T11:30:24.999Z</time></trkpt><trkpt lat="34.451615689217505" lon="8.779437166090153"><ele>345.66666666666663</ele><time>2026-04-08T11:30:25.999Z</time></trkpt><trkpt lat="34.45151752356706" lon="8.779605615953821"><ele>348.3333333333333</ele><time>2026-04-08T11:30:26.999Z</time></trkpt><trkpt lat="34.45140928216842" lon="8.779779232332304"><ele>351.0</ele><time>2026-04-08T11:30:28Z</time></trkpt><trkpt lat="34.45130428890163" lon="8.779940016320722"><ele>349.75</ele><time>2026-04-08T11:30:29Z</time></trkpt><trkpt lat="34.45120611536519" lon="8.78008879916439"><ele>348.5</ele><time>2026-04-08T11:30:30Z</time></trkpt><trkpt lat="34.451116267668894" lon="8.780231358142716"><ele>347.25</ele><time>2026-04-08T11:30:31Z</time></trkpt><trkpt lat="34.451031396027375" lon="8.780370065903696"><ele>346.0</ele><time>2026-04-08T11:30:32Z</time></trkpt><trkpt lat="34.45094652467473" lon="8.780503273423548"><ele>346.0</ele><time>2026-04-08T11:30:33Z</time></trkpt><trkpt lat="34.450859621131926" lon="8.780634318845983"><ele>346.0</ele><time>2026-04-08T11:30:34Z</time></trkpt><trkpt lat="34.450768462373" lon="8.780767218894747"><ele>346.0</ele><time>2026-04-08T11:30:35Z</time></trkpt><trkpt lat="34.45067442572094" lon="8.780899391583196"><ele>346.0</ele><time>2026-04-08T11:30:36Z</time></trkpt><trkpt lat="34.450579582227604" lon="8.781031002715705"><ele>345.5</ele><time>2026-04-08T11:30:37Z</time></trkpt><trkpt lat="34.45048340607212" lon="8.78116232835802"><ele>345.0</ele><time>2026-04-08T11:30:38Z</time></trkpt><trkpt lat="34.45038867976965" lon="8.781295235245597"><ele>344.5</ele><time>2026-04-08T11:30:39Z</time></trkpt><trkpt lat="34.45029215224184" lon="8.78143054045586"><ele>344.0</ele><time>2026-04-08T11:30:40Z</time></trkpt><trkpt lat="34.45018767913826" lon="8.781575143339627"><ele>344.0</ele><time>2026-04-08T11:30:41Z</time></trkpt><trkpt lat="34.45007166032736" lon="8.781735861412974"><ele>344.0</ele><time>2026-04-08T11:30:42Z</time></trkpt><trkpt lat="34.44994660953297" lon="8.781910101214281"><ele>344.0</ele><time>2026-04-08T11:30:43Z</time></trkpt><trkpt lat="34.449819010659745" lon="8.782084635635327"><ele>343.6666666666667</ele><time>2026-04-08T11:30:44Z</time></trkpt><trkpt lat="34.449688038831994" lon="8.782265184273557"><ele>343.3333333333333</ele><time>2026-04-08T11:30:45Z</time></trkpt><trkpt lat="34.4495486582103" lon="8.782455287161065"><ele>343.0</ele><time>2026-04-08T11:30:46Z</time></trkpt><trkpt lat="34.449409048918454" lon="8.78264954759206"><ele>345.3333333333333</ele><time>2026-04-08T11:30:47Z</time></trkpt><trkpt lat="34.44926854569718" lon="8.782846500856984"><ele>347.6666666666667</ele><time>2026-04-08T11:30:48Z</time></trkpt><trkpt lat="34.4491271327393" lon="8.783042385085425"><ele>350.0</ele><time>2026-04-08T11:30:49Z</time></trkpt><trkpt lat="34.448982747234474" lon="8.783235872208873"><ele>350.0</ele><time>2026-04-08T11:30:50Z</time></trkpt><trkpt lat="34.448837779633344" lon="8.783427383866885"><ele>350.0</ele><time>2026-04-08T11:30:51Z</time></trkpt><trkpt lat="34.448694789112935" lon="8.78361645523612"><ele>350.0</ele><time>2026-04-08T11:30:52Z</time></trkpt><trkpt lat="34.448557294666905" lon="8.783800784753167"><ele>349.0</ele><time>2026-04-08T11:30:53Z</time></trkpt><trkpt lat="34.44842600998268" lon="8.783975122773578"><ele>348.0</ele><time>2026-04-08T11:30:54Z</time></trkpt><trkpt lat="34.448298088210805" lon="8.784143158881834"><ele>347.0</ele><time>2026-04-08T11:30:55Z</time></trkpt><trkpt lat="34.448172282309834" lon="8.784310919975864"><ele>348.33333333333337</ele><time>2026-04-08T11:30:56Z</time></trkpt><trkpt lat="34.44804714318364" lon="8.784475217190003"><ele>349.6666666666667</ele><time>2026-04-08T11:30:57Z</time></trkpt><trkpt lat="34.447920531408954" lon="8.784638587365233"><ele>351.0</ele><time>2026-04-08T11:30:58Z</time></trkpt><trkpt lat="34.4477959173892" lon="8.784800781931443"><ele>350.3333333333333</ele><time>2026-04-08T11:30:59Z</time></trkpt><trkpt lat="34.44766771358842" lon="8.784964226061089"><ele>349.66666666666663</ele><time>2026-04-08T11:31:00Z</time></trkpt><trkpt lat="34.447536450089224" lon="8.785126318195536"><ele>349.0</ele><time>2026-04-08T11:31:01Z</time></trkpt><trkpt lat="34.447403871399224" lon="8.78528544135024"><ele>349.0</ele><time>2026-04-08T11:31:02Z</time></trkpt><trkpt lat="34.44726596615619" lon="8.785447187374869"><ele>349.0</ele><time>2026-04-08T11:31:03Z</time></trkpt><trkpt lat="34.44712859676382" lon="8.785609094276573"><ele>349.0</ele><time>2026-04-08T11:31:04Z</time></trkpt><trkpt lat="34.44699439466521" lon="8.785768542111377"><ele>349.3333333333333</ele><time>2026-04-08T11:31:05Z</time></trkpt><trkpt lat="34.44686123989274" lon="8.78592820721659"><ele>349.6666666666667</ele><time>2026-04-08T11:31:06Z</time></trkpt><trkpt lat="34.44673211516561" lon="8.786084856048076"><ele>350.0</ele><time>2026-04-08T11:31:07Z</time></trkpt><trkpt lat="34.44659774043829" lon="8.786244783331439"><ele>350.0</ele><time>2026-04-08T11:31:08Z</time></trkpt><trkpt lat="34.44646424570736" lon="8.786403832102314"><ele>350.0</ele><time>2026-04-08T11:31:09Z</time></trkpt><trkpt lat="34.44633040933288" lon="8.786562463332931"><ele>350.0</ele><time>2026-04-08T11:31:10Z</time></trkpt><trkpt lat="34.44618915690399" lon="8.786719679687598"><ele>348.33333333333337</ele><time>2026-04-08T11:31:11Z</time></trkpt><trkpt lat="34.44604795071644" lon="8.786874784686152"><ele>346.6666666666667</ele><time>2026-04-08T11:31:12Z</time></trkpt><trkpt lat="34.445909010433795" lon="8.787033325497818"><ele>345.0</ele><time>2026-04-08T11:31:13Z</time></trkpt><trkpt lat="34.4457737858758" lon="8.78718946341601"><ele>345.0</ele><time>2026-04-08T11:31:14Z</time></trkpt><trkpt lat="34.44564245595523" lon="8.78733991790756"><ele>345.0</ele><time>2026-04-08T11:31:15Z</time></trkpt><trkpt lat="34.44551832197436" lon="8.787483462087161"><ele>345.0</ele><time>2026-04-08T11:31:16Z</time></trkpt><trkpt lat="34.44540643591908" lon="8.787611083908436"><ele>343.75</ele><time>2026-04-08T11:31:17Z</time></trkpt><trkpt lat="34.445306924679834" lon="8.787719747004438"><ele>342.5</ele><time>2026-04-08T11:31:18Z</time></trkpt><trkpt lat="34.44521840457095" lon="8.787813293327705"><ele>341.25</ele><time>2026-04-08T11:31:19Z</time></trkpt><trkpt lat="34.445138771107274" lon="8.78789966392285"><ele>340.0</ele><time>2026-04-08T11:31:20Z</time></trkpt><trkpt lat="34.44506758301544" lon="8.787975474255283"><ele>340.0</ele><time>2026-04-08T11:31:21Z</time></trkpt><trkpt lat="34.44500396121264" lon="8.788041366729592"><ele>340.0</ele><time>2026-04-08T11:31:22Z</time></trkpt><trkpt lat="34.44494033376825" lon="8.788099254639024"><ele>340.0</ele><time>2026-04-08T11:31:23Z</time></trkpt><trkpt lat="34.44487210805869" lon="8.78814843905449"><ele>340.0</ele><time>2026-04-08T11:31:24Z</time></trkpt><trkpt lat="34.444804737699805" lon="8.788185398039237"><ele>340.0</ele><time>2026-04-08T11:31:25Z</time></trkpt><trkpt lat="34.4447430552484" lon="8.788221967353783"><ele>340.0</ele><time>2026-04-08T11:31:26Z</time></trkpt><trkpt lat="34.444691701142006" lon="8.788273895064147"><ele>340.0</ele><time>2026-04-08T11:31:27Z</time></trkpt><trkpt lat="34.444651694545605" lon="8.78836002587225"><ele>340.0</ele><time>2026-04-08T11:31:28Z</time></trkpt><trkpt lat="34.444601784085656" lon="8.788466345063073"><ele>340.0</ele><time>2026-04-08T11:31:29Z</time></trkpt><trkpt lat="34.44452441069405" lon="8.788570014163701"><ele>340.0</ele><time>2026-04-08T11:31:30Z</time></trkpt><trkpt lat="34.44442488988055" lon="8.788675058003305"><ele>340.0</ele><time>2026-04-08T11:31:31Z</time></trkpt><trkpt lat="34.44430908594381" lon="8.788789448144824"><ele>338.66666666666663</ele><time>2026-04-08T11:31:32Z</time></trkpt><trkpt lat="34.444180471008266" lon="8.788917160709497"><ele>337.3333333333333</ele><time>2026-04-08T11:31:33Z</time></trkpt><trkpt lat="34.4440361677381" lon="8.789060409892187"><ele>336.0</ele><time>2026-04-08T11:31:34Z</time></trkpt><trkpt lat="34.44388059501112" lon="8.789213222085266"><ele>336.6666666666667</ele><time>2026-04-08T11:31:35Z</time></trkpt><trkpt lat="34.44372213471767" lon="8.789369883795228"><ele>337.33333333333337</ele><time>2026-04-08T11:31:36Z</time></trkpt><trkpt lat="34.443567262872044" lon="8.78952400929164"><ele>338.0</ele><time>2026-04-08T11:31:37Z</time></trkpt><trkpt lat="34.44341603378245" lon="8.789670334241773"><ele>338.0</ele><time>2026-04-08T11:31:38Z</time></trkpt><trkpt lat="34.44326518961712" lon="8.789816788482574"><ele>338.0</ele><time>2026-04-08T11:31:39Z</time></trkpt><trkpt lat="34.4431068411714" lon="8.789969520859168"><ele>338.0</ele><time>2026-04-08T11:31:40Z</time></trkpt><trkpt lat="34.44294705340394" lon="8.79012209034945"><ele>338.33333333333337</ele><time>2026-04-08T11:31:41Z</time></trkpt><trkpt lat="34.442783701222524" lon="8.790274314921678"><ele>338.6666666666667</ele><time>2026-04-08T11:31:42Z</time></trkpt><trkpt lat="34.44261878007288" lon="8.79042094524425"><ele>339.0</ele><time>2026-04-08T11:31:43Z</time></trkpt><trkpt lat="34.442454182511945" lon="8.790558906127803"><ele>339.0</ele><time>2026-04-08T11:31:44Z</time></trkpt><trkpt lat="34.44228216846656" lon="8.79069347295612"><ele>339.0</ele><time>2026-04-08T11:31:45Z</time></trkpt><trkpt lat="34.442103850507394" lon="8.790829644003143"><ele>339.0</ele><time>2026-04-08T11:31:46Z</time></trkpt><trkpt lat="34.441928049639046" lon="8.790965590754737"><ele>342.0</ele><time>2026-04-08T11:31:47Z</time></trkpt><trkpt lat="34.44175649196328" lon="8.791094662658319"><ele>345.0</ele><time>2026-04-08T11:31:48Z</time></trkpt><trkpt lat="34.44158308121415" lon="8.791213950839671"><ele>348.0</ele><time>2026-04-08T11:31:49Z</time></trkpt><trkpt lat="34.441410794438646" lon="8.79132209710441"><ele>343.6666666666667</ele><time>2026-04-08T11:31:50Z</time></trkpt><trkpt lat="34.44123952972551" lon="8.791426327325816"><ele>339.33333333333337</ele><time>2026-04-08T11:31:51Z</time></trkpt><trkpt lat="34.44107132881411" lon="8.791530774212733"><ele>335.0</ele><time>2026-04-08T11:31:52Z</time></trkpt><trkpt lat="34.44090194983301" lon="8.791634115128272"><ele>335.0</ele><time>2026-04-08T11:31:53Z</time></trkpt><trkpt lat="34.440729801347004" lon="8.79174113369005"><ele>335.0</ele><time>2026-04-08T11:31:54Z</time></trkpt><trkpt lat="34.440558908646615" lon="8.791850058653925"><ele>335.0</ele><time>2026-04-08T11:31:55Z</time></trkpt><trkpt lat="34.44038750168786" lon="8.791956992315532"><ele>337.0</ele><time>2026-04-08T11:31:56Z</time></trkpt><trkpt lat="34.44021591573735" lon="8.79206465017647"><ele>339.0</ele><time>2026-04-08T11:31:57Z</time></trkpt><trkpt lat="34.44004373874048" lon="8.792175111402132"><ele>341.0</ele><time>2026-04-08T11:31:58Z</time></trkpt><trkpt lat="34.439871954660994" lon="8.792285842532683"><ele>341.0</ele><time>2026-04-08T11:31:59Z</time></trkpt><trkpt lat="34.439697775224865" lon="8.79239692843195"><ele>341.0</ele><time>2026-04-08T11:32:00Z</time></trkpt><trkpt lat="34.43952239256302" lon="8.792505605623273"><ele>341.0</ele><time>2026-04-08T11:32:01Z</time></trkpt><trkpt lat="34.43934306276084" lon="8.792616743667068"><ele>344.6666666666667</ele><time>2026-04-08T11:32:02Z</time></trkpt><trkpt lat="34.439172594103205" lon="8.792724799234449"><ele>348.3333333333333</ele><time>2026-04-08T11:32:03Z</time></trkpt><trkpt lat="34.43900984737985" lon="8.792828667897824"><ele>352.0</ele><time>2026-04-08T11:32:04Z</time></trkpt><trkpt lat="34.43884773669163" lon="8.79293091043411"><ele>348.0</ele><time>2026-04-08T11:32:05Z</time></trkpt><trkpt lat="34.438684026250584" lon="8.793036222862158"><ele>344.0</ele><time>2026-04-08T11:32:06Z</time></trkpt><trkpt lat="34.43851448680462" lon="8.793141510096284"><ele>340.0</ele><time>2026-04-08T11:32:07Z</time></trkpt><trkpt lat="34.43834193294414" lon="8.793247403995117"><ele>340.0</ele><time>2026-04-08T11:32:08.001Z</time></trkpt><trkpt lat="34.43816707084565" lon="8.793356922736937"><ele>340.0</ele><time>2026-04-08T11:32:09.001Z</time></trkpt><trkpt lat="34.437991621861485" lon="8.79346775148295"><ele>340.0</ele><time>2026-04-08T11:32:10.001Z</time></trkpt><trkpt lat="34.43781392524364" lon="8.793579921366558"><ele>341.66666666666663</ele><time>2026-04-08T11:32:11.001Z</time></trkpt><trkpt lat="34.437642496385486" lon="8.79369024598221"><ele>343.3333333333333</ele><time>2026-04-08T11:32:12.001Z</time></trkpt><trkpt lat="34.437471099529176" lon="8.793799694510056"><ele>345.0</ele><time>2026-04-08T11:32:13.001Z</time></trkpt><trkpt lat="34.43730500215022" lon="8.793905915076989"><ele>345.0</ele><time>2026-04-08T11:32:14.001Z</time></trkpt><trkpt lat="34.437136915113555" lon="8.794011835497491"><ele>345.0</ele><time>2026-04-08T11:32:15.001Z</time></trkpt><trkpt lat="34.43697166165571" lon="8.794116836861045"><ele>345.0</ele><time>2026-04-08T11:32:16.001Z</time></trkpt><trkpt lat="34.436804165354964" lon="8.794223402413694"><ele>345.3333333333333</ele><time>2026-04-08T11:32:17.001Z</time></trkpt><trkpt lat="34.436639776678454" lon="8.79432397191258"><ele>345.66666666666663</ele><time>2026-04-08T11:32:18.001Z</time></trkpt><trkpt lat="34.436466965301335" lon="8.794416415932938"><ele>346.0</ele><time>2026-04-08T11:32:19Z</time></trkpt><trkpt lat="34.43629454500791" lon="8.794498850581267"><ele>346.0</ele><time>2026-04-08T11:32:20Z</time></trkpt><trkpt lat="34.4361176551134" lon="8.79457707716879"><ele>346.0</ele><time>2026-04-08T11:32:21Z</time></trkpt><trkpt lat="34.43594006366446" lon="8.794652274778867"><ele>346.0</ele><time>2026-04-08T11:32:22Z</time></trkpt><trkpt lat="34.435760894385" lon="8.794723295786325"><ele>346.0</ele><time>2026-04-08T11:32:23Z</time></trkpt><trkpt lat="34.43558079609685" lon="8.794792925079284"><ele>346.0</ele><time>2026-04-08T11:32:24Z</time></trkpt><trkpt lat="34.43540404439502" lon="8.79486460895954"><ele>346.0</ele><time>2026-04-08T11:32:25Z</time></trkpt><trkpt lat="34.435231054953555" lon="8.794935417856497"><ele>343.0</ele><time>2026-04-08T11:32:26Z</time></trkpt><trkpt lat="34.43506765927805" lon="8.795000390754229"><ele>340.0</ele><time>2026-04-08T11:32:27Z</time></trkpt><trkpt lat="34.434916592769234" lon="8.79506758145214"><ele>337.0</ele><time>2026-04-08T11:32:28Z</time></trkpt><trkpt lat="34.43476859646849" lon="8.795134537916839"><ele>340.0</ele><time>2026-04-08T11:32:29Z</time></trkpt><trkpt lat="34.434619123313354" lon="8.795208489792682"><ele>343.0</ele><time>2026-04-08T11:32:30Z</time></trkpt><trkpt lat="34.434469483951325" lon="8.795294736007849"><ele>346.0</ele><time>2026-04-08T11:32:31Z</time></trkpt><trkpt lat="34.43432028040396" lon="8.7954004408934"><ele>346.0</ele><time>2026-04-08T11:32:32Z</time></trkpt><trkpt lat="34.43417619310593" lon="8.795531111074261"><ele>346.0</ele><time>2026-04-08T11:32:33Z</time></trkpt><trkpt lat="34.43404143398698" lon="8.795683720848011"><ele>346.0</ele><time>2026-04-08T11:32:34Z</time></trkpt><trkpt lat="34.433914916581315" lon="8.795858436756182"><ele>346.0</ele><time>2026-04-08T11:32:35Z</time></trkpt><trkpt lat="34.4337999472504" lon="8.796051961307267"><ele>346.0</ele><time>2026-04-08T11:32:36Z</time></trkpt><trkpt lat="34.4336931618078" lon="8.796262914891456"><ele>346.0</ele><time>2026-04-08T11:32:37Z</time></trkpt><trkpt lat="34.4335955678888" lon="8.796487921376904"><ele>346.0</ele><time>2026-04-08T11:32:38Z</time></trkpt><trkpt lat="34.43351002529678" lon="8.796721339768728"><ele>346.0</ele><time>2026-04-08T11:32:39Z</time></trkpt><trkpt lat="34.433430475572415" lon="8.796954128623165"><ele>346.0</ele><time>2026-04-08T11:32:40Z</time></trkpt><trkpt lat="34.43335982380758" lon="8.79717947837348"><ele>344.0</ele><time>2026-04-08T11:32:41Z</time></trkpt><trkpt lat="34.43329812423587" lon="8.797399972746579"><ele>342.0</ele><time>2026-04-08T11:32:42Z</time></trkpt><trkpt lat="34.43324595275275" lon="8.797623282986045"><ele>340.0</ele><time>2026-04-08T11:32:43Z</time></trkpt><trkpt lat="34.43320868025389" lon="8.79784165342836"><ele>339.0</ele><time>2026-04-08T11:32:44Z</time></trkpt><trkpt lat="34.43318708304739" lon="8.798048341433647"><ele>338.0</ele><time>2026-04-08T11:32:45Z</time></trkpt><trkpt lat="34.433182719555774" lon="8.798252773799959"><ele>337.0</ele><time>2026-04-08T11:32:46Z</time></trkpt><trkpt lat="34.433201683856964" lon="8.798457214911421"><ele>333.0</ele><time>2026-04-08T11:32:47Z</time></trkpt><trkpt lat="34.433250222519604" lon="8.798660527687792"><ele>329.0</ele><time>2026-04-08T11:32:48Z</time></trkpt><trkpt lat="34.43332211361401" lon="8.798855824080297"><ele>325.0</ele><time>2026-04-08T11:32:49Z</time></trkpt><trkpt lat="34.433403634814134" lon="8.799037107455149"><ele>325.0</ele><time>2026-04-08T11:32:50Z</time></trkpt><trkpt lat="34.433476985991994" lon="8.799208763186469"><ele>325.0</ele><time>2026-04-08T11:32:51Z</time></trkpt><trkpt lat="34.43354458791988" lon="8.79937555877593"><ele>325.0</ele><time>2026-04-08T11:32:52Z</time></trkpt><trkpt lat="34.433607114185754" lon="8.79953821308877"><ele>323.25</ele><time>2026-04-08T11:32:53Z</time></trkpt><trkpt lat="34.4336656688501" lon="8.799692147773888"><ele>321.5</ele><time>2026-04-08T11:32:54Z</time></trkpt><trkpt lat="34.433723979339646" lon="8.799843081132183"><ele>319.75</ele><time>2026-04-08T11:32:55Z</time></trkpt><trkpt lat="34.433785805818154" lon="8.799992096882548"><ele>318.0</ele><time>2026-04-08T11:32:56Z</time></trkpt><trkpt lat="34.43384766985187" lon="8.800144014236935"><ele>316.25</ele><time>2026-04-08T11:32:57Z</time></trkpt><trkpt lat="34.433907522728376" lon="8.800305070131316"><ele>314.5</ele><time>2026-04-08T11:32:58Z</time></trkpt><trkpt lat="34.433962813745396" lon="8.800473236540777"><ele>312.75</ele><time>2026-04-08T11:32:59Z</time></trkpt><trkpt lat="34.43401159606621" lon="8.800648562545394"><ele>311.0</ele><time>2026-04-08T11:33:00Z</time></trkpt><trkpt lat="34.43405569833186" lon="8.800830815003728"><ele>310.33333333333337</ele><time>2026-04-08T11:33:01Z</time></trkpt><trkpt lat="34.43409514287073" lon="8.801016643307893"><ele>309.6666666666667</ele><time>2026-04-08T11:33:02Z</time></trkpt><trkpt lat="34.434126069946174" lon="8.801206608263819"><ele>309.0</ele><time>2026-04-08T11:33:03Z</time></trkpt><trkpt lat="34.434142253902834" lon="8.801396053694821"><ele>309.0</ele><time>2026-04-08T11:33:04Z</time></trkpt><trkpt lat="34.4341446987847" lon="8.80159136405696"><ele>309.0</ele><time>2026-04-08T11:33:05Z</time></trkpt><trkpt lat="34.4341372317708" lon="8.801790566999772"><ele>309.0</ele><time>2026-04-08T11:33:06Z</time></trkpt><trkpt lat="34.43411813539601" lon="8.801989897677702"><ele>308.6666666666667</ele><time>2026-04-08T11:33:07Z</time></trkpt><trkpt lat="34.43408908197786" lon="8.802198860477647"><ele>308.33333333333337</ele><time>2026-04-08T11:33:08Z</time></trkpt><trkpt lat="34.43405627586572" lon="8.802417108199606"><ele>308.0</ele><time>2026-04-08T11:33:09Z</time></trkpt><trkpt lat="34.434021800909406" lon="8.802646543462496"><ele>308.0</ele><time>2026-04-08T11:33:10Z</time></trkpt><trkpt lat="34.4339887681576" lon="8.802881681141445"><ele>308.0</ele><time>2026-04-08T11:33:11Z</time></trkpt><trkpt lat="34.433957665046314" lon="8.80311528715429"><ele>308.0</ele><time>2026-04-08T11:33:12Z</time></trkpt><trkpt lat="34.433924977930744" lon="8.80334342692004"><ele>308.6666666666667</ele><time>2026-04-08T11:33:13Z</time></trkpt><trkpt lat="34.43389528238425" lon="8.803569742480468"><ele>309.3333333333333</ele><time>2026-04-08T11:33:14Z</time></trkpt><trkpt lat="34.43386768695648" lon="8.803794074090428"><ele>310.0</ele><time>2026-04-08T11:33:15Z</time></trkpt><trkpt lat="34.43383782709782" lon="8.804019209233008"><ele>309.0</ele><time>2026-04-08T11:33:16Z</time></trkpt><trkpt lat="34.43380383556865" lon="8.804252049243468"><ele>308.0</ele><time>2026-04-08T11:33:17Z</time></trkpt><trkpt lat="34.43377019701752" lon="8.8044827779712"><ele>307.0</ele><time>2026-04-08T11:33:18Z</time></trkpt><trkpt lat="34.43374065736297" lon="8.804710710780443"><ele>307.0</ele><time>2026-04-08T11:33:19Z</time></trkpt><trkpt lat="34.43370978766662" lon="8.804940131709191"><ele>307.0</ele><time>2026-04-08T11:33:20Z</time></trkpt><trkpt lat="34.43367927915811" lon="8.805168487931212"><ele>307.0</ele><time>2026-04-08T11:33:21Z</time></trkpt><trkpt lat="34.43365070907565" lon="8.8053953228082"><ele>307.0</ele><time>2026-04-08T11:33:22Z</time></trkpt><trkpt lat="34.43362050979876" lon="8.805623867557971"><ele>307.0</ele><time>2026-04-08T11:33:23Z</time></trkpt><trkpt lat="34.43358873264566" lon="8.805849769372852"><ele>307.0</ele><time>2026-04-08T11:33:24Z</time></trkpt><trkpt lat="34.43355298058136" lon="8.806075269528744"><ele>306.66666666666663</ele><time>2026-04-08T11:33:25Z</time></trkpt><trkpt lat="34.43352133400825" lon="8.806303187768151"><ele>306.3333333333333</ele><time>2026-04-08T11:33:26Z</time></trkpt><trkpt lat="34.433488470838924" lon="8.806532852828576"><ele>306.0</ele><time>2026-04-08T11:33:27Z</time></trkpt><trkpt lat="34.433453706632214" lon="8.806772902805069"><ele>305.3333333333333</ele><time>2026-04-08T11:33:28Z</time></trkpt><trkpt lat="34.43342164194595" lon="8.807014013363204"><ele>304.66666666666663</ele><time>2026-04-08T11:33:29Z</time></trkpt><trkpt lat="34.433390834123195" lon="8.807254475255878"><ele>304.0</ele><time>2026-04-08T11:33:30Z</time></trkpt><trkpt lat="34.43336121429389" lon="8.807490848305546"><ele>305.0</ele><time>2026-04-08T11:33:31Z</time></trkpt><trkpt lat="34.433330432252966" lon="8.807729839305225"><ele>306.0</ele><time>2026-04-08T11:33:32Z</time></trkpt><trkpt lat="34.43329948101565" lon="8.807967939500687"><ele>307.0</ele><time>2026-04-08T11:33:33Z</time></trkpt><trkpt lat="34.43326953893241" lon="8.808201665813952"><ele>307.0</ele><time>2026-04-08T11:33:34Z</time></trkpt><trkpt lat="34.43323797352913" lon="8.808442222746502"><ele>307.0</ele><time>2026-04-08T11:33:35Z</time></trkpt><trkpt lat="34.43320510925121" lon="8.808680768729308"><ele>307.0</ele><time>2026-04-08T11:33:36Z</time></trkpt><trkpt lat="34.433173822743896" lon="8.808915702282153"><ele>308.66666666666663</ele><time>2026-04-08T11:33:37Z</time></trkpt><trkpt lat="34.43314207542627" lon="8.809154365874553"><ele>310.3333333333333</ele><time>2026-04-08T11:33:38Z</time></trkpt><trkpt lat="34.433114367871326" lon="8.809387623697296"><ele>312.0</ele><time>2026-04-08T11:33:39Z</time></trkpt><trkpt lat="34.4330825658499" lon="8.809621477793229"><ele>314.0</ele><time>2026-04-08T11:33:40Z</time></trkpt><trkpt lat="34.43304928300299" lon="8.809857614140586"><ele>316.0</ele><time>2026-04-08T11:33:41.001Z</time></trkpt><trkpt lat="34.43301516024615" lon="8.810089890537354"><ele>318.0</ele><time>2026-04-08T11:33:42.001Z</time></trkpt><trkpt lat="34.43298195463573" lon="8.81032418721212"><ele>318.6666666666667</ele><time>2026-04-08T11:33:43.001Z</time></trkpt><trkpt lat="34.432946855681365" lon="8.81056112358336"><ele>319.33333333333337</ele><time>2026-04-08T11:33:44.001Z</time></trkpt><trkpt lat="34.432906776601754" lon="8.810797287245716"><ele>320.0</ele><time>2026-04-08T11:33:45.001Z</time></trkpt><trkpt lat="34.43286089327732" lon="8.811033118279704"><ele>321.33333333333337</ele><time>2026-04-08T11:33:46.001Z</time></trkpt><trkpt lat="34.43280960579026" lon="8.811266394695824"><ele>322.6666666666667</ele><time>2026-04-08T11:33:47.001Z</time></trkpt><trkpt lat="34.43275765812247" lon="8.811498183632118"><ele>324.0</ele><time>2026-04-08T11:33:48.001Z</time></trkpt><trkpt lat="34.43270545103624" lon="8.811731487054217"><ele>324.6666666666667</ele><time>2026-04-08T11:33:49.001Z</time></trkpt><trkpt lat="34.432649084179054" lon="8.811964229850497"><ele>325.33333333333337</ele><time>2026-04-08T11:33:50.001Z</time></trkpt><trkpt lat="34.432587737060864" lon="8.812194381079065"><ele>326.0</ele><time>2026-04-08T11:33:51.001Z</time></trkpt><trkpt lat="34.432525547782724" lon="8.812427284137694"><ele>324.6666666666667</ele><time>2026-04-08T11:33:52.001Z</time></trkpt><trkpt lat="34.43245649734618" lon="8.812659985871855"><ele>323.3333333333333</ele><time>2026-04-08T11:33:53.001Z</time></trkpt><trkpt lat="34.432377013643176" lon="8.812893359496185"><ele>322.0</ele><time>2026-04-08T11:33:54.001Z</time></trkpt><trkpt lat="34.43229309026322" lon="8.81312283032891"><ele>322.0</ele><time>2026-04-08T11:33:55.001Z</time></trkpt><trkpt lat="34.43219984473379" lon="8.813362674497824"><ele>322.0</ele><time>2026-04-08T11:33:56.001Z</time></trkpt><trkpt lat="34.43209921535073" lon="8.81360789889296"><ele>322.0</ele><time>2026-04-08T11:33:57.001Z</time></trkpt><trkpt lat="34.43199146050074" lon="8.813851441718198"><ele>321.3333333333333</ele><time>2026-04-08T11:33:58.001Z</time></trkpt><trkpt lat="34.43188043049296" lon="8.81408551086345"><ele>320.6666666666667</ele><time>2026-04-08T11:33:59.001Z</time></trkpt><trkpt lat="34.43176389172054" lon="8.814310425110143"><ele>320.0</ele><time>2026-04-08T11:34:00.001Z</time></trkpt><trkpt lat="34.43165307720905" lon="8.814517775150227"><ele>320.0</ele><time>2026-04-08T11:34:01.001Z</time></trkpt><trkpt lat="34.43154681940718" lon="8.814712495589843"><ele>320.0</ele><time>2026-04-08T11:34:02.001Z</time></trkpt><trkpt lat="34.431445552151516" lon="8.8148970297886"><ele>320.0</ele><time>2026-04-08T11:34:03.001Z</time></trkpt><trkpt lat="34.431350223495734" lon="8.815070463612445"><ele>320.0</ele><time>2026-04-08T11:34:04.001Z</time></trkpt><trkpt lat="34.431261983085385" lon="8.815232799080869"><ele>320.0</ele><time>2026-04-08T11:34:05.001Z</time></trkpt><trkpt lat="34.43117999696347" lon="8.81538534899516"><ele>320.0</ele><time>2026-04-08T11:34:06.001Z</time></trkpt><trkpt lat="34.43110090222589" lon="8.815527449587899"><ele>320.0</ele><time>2026-04-08T11:34:07.001Z</time></trkpt><trkpt lat="34.43102688874562" lon="8.81566108814405"><ele>320.0</ele><time>2026-04-08T11:34:08.001Z</time></trkpt><trkpt lat="34.4309599152288" lon="8.815784261661102"><ele>320.0</ele><time>2026-04-08T11:34:09.001Z</time></trkpt><trkpt lat="34.43089722215687" lon="8.815895813840728"><ele>320.0</ele><time>2026-04-08T11:34:10.001Z</time></trkpt><trkpt lat="34.43083754173701" lon="8.815998821117535"><ele>320.6666666666667</ele><time>2026-04-08T11:34:11.001Z</time></trkpt><trkpt lat="34.43078618392577" lon="8.816092240162256"><ele>321.33333333333337</ele><time>2026-04-08T11:34:12.001Z</time></trkpt><trkpt lat="34.43073981542864" lon="8.816175988497967"><ele>322.0</ele><time>2026-04-08T11:34:13.001Z</time></trkpt><trkpt lat="34.430700101439825" lon="8.816251389686302"><ele>322.6666666666667</ele><time>2026-04-08T11:34:14.001Z</time></trkpt><trkpt lat="34.43064653654329" lon="8.816353310215625"><ele>323.3333333333333</ele><time>2026-04-08T11:34:16.001Z</time></trkpt><trkpt lat="34.43059611965436" lon="8.81643571053603"><ele>324.0</ele><time>2026-04-08T11:34:22.001Z</time></trkpt><trkpt lat="34.43051838188069" lon="8.816512396709989"><ele>324.0</ele><time>2026-04-08T11:34:25Z</time></trkpt><trkpt lat="34.430439145802694" lon="8.816559298997984"><ele>324.0</ele><time>2026-04-08T11:34:27Z</time></trkpt><trkpt lat="34.43036133745806" lon="8.816586851658695"><ele>324.0</ele><time>2026-04-08T11:34:29Z</time></trkpt><trkpt lat="34.4303058057129" lon="8.816626476723854"><ele>324.0</ele><time>2026-04-08T11:34:31Z</time></trkpt><trkpt lat="34.43026040018782" lon="8.816688982347975"><ele>324.0</ele><time>2026-04-08T11:34:33Z</time></trkpt><trkpt lat="34.43022937046512" lon="8.816769229631689"><ele>324.0</ele><time>2026-04-08T11:34:35Z</time></trkpt><trkpt lat="34.430225361366375" lon="8.816845970837987"><ele>324.0</ele><time>2026-04-08T11:34:37Z</time></trkpt><trkpt lat="34.430243247259874" lon="8.816951643738168"><ele>324.0</ele><time>2026-04-08T11:34:39Z</time></trkpt><trkpt lat="34.43030997304769" lon="8.817041349569156"><ele>324.0</ele><time>2026-04-08T11:34:41Z</time></trkpt><trkpt lat="34.43041421883982" lon="8.817082135853255"><ele>324.0</ele><time>2026-04-08T11:34:43Z</time></trkpt><trkpt lat="34.43053193701806" lon="8.817090742112963"><ele>324.0</ele><time>2026-04-08T11:34:45Z</time></trkpt><trkpt lat="34.430658009780075" lon="8.81709710005719"><ele>324.4</ele><time>2026-04-08T11:34:47Z</time></trkpt><trkpt lat="34.43072775359522" lon="8.81711452102646"><ele>324.79999999999995</ele><time>2026-04-08T11:34:48Z</time></trkpt><trkpt lat="34.43081604193062" lon="8.817149871204542"><ele>325.20000000000005</ele><time>2026-04-08T11:34:49Z</time></trkpt><trkpt lat="34.43091658038924" lon="8.817195487290515"><ele>325.6</ele><time>2026-04-08T11:34:50Z</time></trkpt><trkpt lat="34.43102816744631" lon="8.817252102481996"><ele>326.0</ele><time>2026-04-08T11:34:51Z</time></trkpt><trkpt lat="34.43114144670741" lon="8.817314531369627"><ele>326.0</ele><time>2026-04-08T11:34:52Z</time></trkpt><trkpt lat="34.43126727769086" lon="8.817394356694516"><ele>326.0</ele><time>2026-04-08T11:34:53Z</time></trkpt><trkpt lat="34.43139944823227" lon="8.817477728911893"><ele>326.0</ele><time>2026-04-08T11:34:54Z</time></trkpt><trkpt lat="34.43154129894013" lon="8.81756026498359"><ele>326.0</ele><time>2026-04-08T11:34:55Z</time></trkpt><trkpt lat="34.431684062038826" lon="8.817641718472728"><ele>326.0</ele><time>2026-04-08T11:34:56Z</time></trkpt><trkpt lat="34.43182192095069" lon="8.817724894928485"><ele>326.0</ele><time>2026-04-08T11:34:57Z</time></trkpt><trkpt lat="34.43195522980331" lon="8.817810815710445"><ele>326.0</ele><time>2026-04-08T11:34:58Z</time></trkpt><trkpt lat="34.43207844969757" lon="8.817891085285265"><ele>326.0</ele><time>2026-04-08T11:34:59Z</time></trkpt><trkpt lat="34.43219906872093" lon="8.81796957281608"><ele>326.0</ele><time>2026-04-08T11:35:00Z</time></trkpt><trkpt lat="34.43231924993061" lon="8.818046783215664"><ele>326.0</ele><time>2026-04-08T11:35:01Z</time></trkpt><trkpt lat="34.43243505461902" lon="8.818117890633047"><ele>326.0</ele><time>2026-04-08T11:35:02.001Z</time></trkpt><trkpt lat="34.43254323716774" lon="8.81818933929488"><ele>326.0</ele><time>2026-04-08T11:35:03.001Z</time></trkpt><trkpt lat="34.432644889640954" lon="8.81825869955829"><ele>326.0</ele><time>2026-04-08T11:35:04.001Z</time></trkpt><trkpt lat="34.432744327857066" lon="8.81832801707719"><ele>326.0</ele><time>2026-04-08T11:35:05.001Z</time></trkpt><trkpt lat="34.43283868572285" lon="8.818390081810982"><ele>326.0</ele><time>2026-04-08T11:35:06.001Z</time></trkpt><trkpt lat="34.43293445864146" lon="8.818453116047612"><ele>326.0</ele><time>2026-04-08T11:35:07.001Z</time></trkpt><trkpt lat="34.43303390801843" lon="8.818513022360664"><ele>326.0</ele><time>2026-04-08T11:35:08.001Z</time></trkpt><trkpt lat="34.43313338587669" lon="8.818576012779532"><ele>326.75</ele><time>2026-04-08T11:35:09.001Z</time></trkpt><trkpt lat="34.43323028485388" lon="8.81864179422395"><ele>327.5</ele><time>2026-04-08T11:35:10.001Z</time></trkpt><trkpt lat="34.43332967419588" lon="8.818705645988262"><ele>328.25</ele><time>2026-04-08T11:35:11.001Z</time></trkpt><trkpt lat="34.43343197256709" lon="8.818767390666235"><ele>329.0</ele><time>2026-04-08T11:35:12.001Z</time></trkpt><trkpt lat="34.4335411005537" lon="8.818831448411085"><ele>329.0</ele><time>2026-04-08T11:35:13.001Z</time></trkpt><trkpt lat="34.433657244067845" lon="8.818904056043824"><ele>329.0</ele><time>2026-04-08T11:35:14.001Z</time></trkpt><trkpt lat="34.43377863700707" lon="8.818982110891358"><ele>329.0</ele><time>2026-04-08T11:35:15.001Z</time></trkpt><trkpt lat="34.43389885995581" lon="8.819057301945175"><ele>329.0</ele><time>2026-04-08T11:35:16.001Z</time></trkpt><trkpt lat="34.434020636520394" lon="8.819129412847207"><ele>329.25</ele><time>2026-04-08T11:35:17.001Z</time></trkpt><trkpt lat="34.43414601774227" lon="8.819204312751598"><ele>329.5</ele><time>2026-04-08T11:35:18.001Z</time></trkpt><trkpt lat="34.434271041394204" lon="8.819281167387464"><ele>329.75</ele><time>2026-04-08T11:35:19.001Z</time></trkpt><trkpt lat="34.434395121243256" lon="8.819360324964789"><ele>330.0</ele><time>2026-04-08T11:35:20.001Z</time></trkpt><trkpt lat="34.434521574485" lon="8.819442376392944"><ele>330.0</ele><time>2026-04-08T11:35:21.001Z</time></trkpt><trkpt lat="34.434648678772085" lon="8.81952274908138"><ele>330.0</ele><time>2026-04-08T11:35:22.001Z</time></trkpt><trkpt lat="34.434776364192786" lon="8.819599161039527"><ele>330.0</ele><time>2026-04-08T11:35:23.001Z</time></trkpt><trkpt lat="34.43490135451913" lon="8.8196736952016"><ele>330.0</ele><time>2026-04-08T11:35:24.001Z</time></trkpt><trkpt lat="34.43502764851369" lon="8.81974988111108"><ele>330.0</ele><time>2026-04-08T11:35:25.001Z</time></trkpt><trkpt lat="34.43515501539532" lon="8.819829812461014"><ele>330.0</ele><time>2026-04-08T11:35:26.001Z</time></trkpt><trkpt lat="34.435276630792224" lon="8.819905642767077"><ele>330.0</ele><time>2026-04-08T11:35:27.001Z</time></trkpt><trkpt lat="34.43538241329657" lon="8.819974089320455"><ele>330.0</ele><time>2026-04-08T11:35:28.001Z</time></trkpt><trkpt lat="34.43547669372551" lon="8.820035045876226"><ele>330.0</ele><time>2026-04-08T11:35:29.001Z</time></trkpt><trkpt lat="34.43556505644502" lon="8.820093988798261"><ele>330.0</ele><time>2026-04-08T11:35:30.001Z</time></trkpt><trkpt lat="34.43565770343287" lon="8.820153000451803"><ele>330.0</ele><time>2026-04-08T11:35:31.001Z</time></trkpt><trkpt lat="34.43574814733499" lon="8.820206978775154"><ele>330.0</ele><time>2026-04-08T11:35:32.001Z</time></trkpt><trkpt lat="34.43583082131274" lon="8.82025706418737"><ele>330.0</ele><time>2026-04-08T11:35:33.001Z</time></trkpt><trkpt lat="34.43591107501195" lon="8.820304023670095"><ele>330.0</ele><time>2026-04-08T11:35:34.001Z</time></trkpt><trkpt lat="34.43599029238668" lon="8.820351930650876"><ele>330.0</ele><time>2026-04-08T11:35:35.001Z</time></trkpt><trkpt lat="34.436069564260286" lon="8.820403471049456"><ele>330.0</ele><time>2026-04-08T11:35:36.001Z</time></trkpt><trkpt lat="34.43614986733186" lon="8.820456403385194"><ele>330.0</ele><time>2026-04-08T11:35:37.001Z</time></trkpt><trkpt lat="34.436231725793114" lon="8.820508420585577"><ele>330.0</ele><time>2026-04-08T11:35:38.001Z</time></trkpt><trkpt lat="34.436310651905885" lon="8.820556214144103"><ele>330.1666666666667</ele><time>2026-04-08T11:35:39.001Z</time></trkpt><trkpt lat="34.436385683779996" lon="8.82060170607051"><ele>330.3333333333333</ele><time>2026-04-08T11:35:40.001Z</time></trkpt><trkpt lat="34.436459037514965" lon="8.820646340922686"><ele>330.5</ele><time>2026-04-08T11:35:41.001Z</time></trkpt><trkpt lat="34.43653464105848" lon="8.82069070039554"><ele>330.66666666666663</ele><time>2026-04-08T11:35:42.001Z</time></trkpt><trkpt lat="34.43660664692497" lon="8.820737886586823"><ele>330.8333333333333</ele><time>2026-04-08T11:35:43.001Z</time></trkpt><trkpt lat="34.43667421356491" lon="8.820779190618687"><ele>331.0</ele><time>2026-04-08T11:35:44.001Z</time></trkpt><trkpt lat="34.43673886948413" lon="8.820819256461855"><ele>331.0</ele><time>2026-04-08T11:35:45.001Z</time></trkpt><trkpt lat="34.43679599030849" lon="8.820860502018746"><ele>331.0</ele><time>2026-04-08T11:35:46.001Z</time></trkpt><trkpt lat="34.43684771457422" lon="8.820911498016025"><ele>331.0</ele><time>2026-04-08T11:35:47.001Z</time></trkpt><trkpt lat="34.43690479157305" lon="8.820975491797945"><ele>331.0</ele><time>2026-04-08T11:35:48.001Z</time></trkpt><trkpt lat="34.436967025364" lon="8.821048380884303"><ele>331.0</ele><time>2026-04-08T11:35:49.001Z</time></trkpt><trkpt lat="34.4370275969292" lon="8.821117787677002"><ele>331.0</ele><time>2026-04-08T11:35:50.001Z</time></trkpt><trkpt lat="34.437095423121534" lon="8.821159407724327"><ele>331.4</ele><time>2026-04-08T11:35:51.001Z</time></trkpt><trkpt lat="34.43716960999001" lon="8.821162919921333"><ele>331.8</ele><time>2026-04-08T11:35:52.001Z</time></trkpt><trkpt lat="34.4372451063088" lon="8.821155123813007"><ele>332.2</ele><time>2026-04-08T11:35:53.001Z</time></trkpt><trkpt lat="34.437328261608556" lon="8.821174435982382"><ele>332.59999999999997</ele><time>2026-04-08T11:35:54.001Z</time></trkpt><trkpt lat="34.437432794627384" lon="8.821231723190394"><ele>333.0</ele><time>2026-04-08T11:35:55.001Z</time></trkpt><trkpt lat="34.43754847145106" lon="8.821309539345927"><ele>333.0</ele><time>2026-04-08T11:35:56.001Z</time></trkpt><trkpt lat="34.43767026098687" lon="8.821397218044874"><ele>333.0</ele><time>2026-04-08T11:35:57.001Z</time></trkpt><trkpt lat="34.43779793745715" lon="8.82148255850739"><ele>333.0</ele><time>2026-04-08T11:35:58.001Z</time></trkpt><trkpt lat="34.437932851012015" lon="8.821570235332576"><ele>333.0</ele><time>2026-04-08T11:35:59.001Z</time></trkpt><trkpt lat="34.43807141809306" lon="8.821660475328557"><ele>332.6666666666667</ele><time>2026-04-08T11:36:00.001Z</time></trkpt><trkpt lat="34.43821461676656" lon="8.821753283071006"><ele>332.33333333333337</ele><time>2026-04-08T11:36:01.001Z</time></trkpt><trkpt lat="34.43835603654227" lon="8.821845082311702"><ele>332.0</ele><time>2026-04-08T11:36:02.001Z</time></trkpt><trkpt lat="34.438487656318706" lon="8.821931767251057"><ele>332.5</ele><time>2026-04-08T11:36:03.001Z</time></trkpt><trkpt lat="34.438611194735905" lon="8.822012105636853"><ele>333.0</ele><time>2026-04-08T11:36:04.001Z</time></trkpt><trkpt lat="34.43872620063759" lon="8.822087588225624"><ele>333.5</ele><time>2026-04-08T11:36:05.001Z</time></trkpt><trkpt lat="34.43883486438118" lon="8.822160617756616"><ele>334.0</ele><time>2026-04-08T11:36:06.001Z</time></trkpt><trkpt lat="34.43893739123159" lon="8.822229896916909"><ele>334.0</ele><time>2026-04-08T11:36:07.001Z</time></trkpt><trkpt lat="34.43903379388979" lon="8.822293948532034"><ele>334.0</ele><time>2026-04-08T11:36:08.001Z</time></trkpt><trkpt lat="34.4391244756682" lon="8.822351519202709"><ele>334.0</ele><time>2026-04-08T11:36:09.001Z</time></trkpt><trkpt lat="34.4392104484535" lon="8.822406708122053"><ele>334.0</ele><time>2026-04-08T11:36:10.001Z</time></trkpt><trkpt lat="34.43928654472062" lon="8.822461164223155"><ele>334.0</ele><time>2026-04-08T11:36:11.001Z</time></trkpt><trkpt lat="34.439350432168716" lon="8.822505157887596"><ele>334.0</ele><time>2026-04-08T11:36:12.001Z</time></trkpt><trkpt lat="34.4394235068764" lon="8.822574966327611"><ele>334.0</ele><time>2026-04-08T11:36:14.001Z</time></trkpt><trkpt lat="34.43946793745422" lon="8.82264831027779"><ele>334.0</ele><time>2026-04-08T11:36:16.001Z</time></trkpt><trkpt lat="34.439515567613846" lon="8.82272131582739"><ele>334.0</ele><time>2026-04-08T11:36:18.001Z</time></trkpt><trkpt lat="34.43961564051563" lon="8.822784632759321"><ele>334.0</ele><time>2026-04-08T11:36:20.001Z</time></trkpt><trkpt lat="34.439689074746305" lon="8.82279330184563"><ele>334.0</ele><time>2026-04-08T11:36:21.001Z</time></trkpt><trkpt lat="34.439768711325186" lon="8.822799871972995"><ele>333.75</ele><time>2026-04-08T11:36:22.001Z</time></trkpt><trkpt lat="34.43985606330477" lon="8.822824711694448"><ele>333.5</ele><time>2026-04-08T11:36:23.001Z</time></trkpt><trkpt lat="34.439946253922216" lon="8.822869720958613"><ele>333.25</ele><time>2026-04-08T11:36:24.001Z</time></trkpt><trkpt lat="34.44005199169962" lon="8.82293491585188"><ele>333.0</ele><time>2026-04-08T11:36:25.001Z</time></trkpt><trkpt lat="34.44019214227549" lon="8.823028394363684"><ele>333.0</ele><time>2026-04-08T11:36:26.001Z</time></trkpt><trkpt lat="34.440373294210694" lon="8.823156840015814"><ele>333.0</ele><time>2026-04-08T11:36:27.001Z</time></trkpt><trkpt lat="34.44058083032496" lon="8.823304908466035"><ele>333.3333333333333</ele><time>2026-04-08T11:36:28.001Z</time></trkpt><trkpt lat="34.44078212126274" lon="8.823441683983287"><ele>333.66666666666663</ele><time>2026-04-08T11:36:29.001Z</time></trkpt><trkpt lat="34.44096340928857" lon="8.823560371466282"><ele>334.0</ele><time>2026-04-08T11:36:30.001Z</time></trkpt><trkpt lat="34.441128359154604" lon="8.823673657607808"><ele>334.0</ele><time>2026-04-08T11:36:31.001Z</time></trkpt><trkpt lat="34.44129096013577" lon="8.82378443489397"><ele>334.0</ele><time>2026-04-08T11:36:32.001Z</time></trkpt><trkpt lat="34.441454546239186" lon="8.823895015504268"><ele>334.0</ele><time>2026-04-08T11:36:33.001Z</time></trkpt><trkpt lat="34.44161511164669" lon="8.824001622887419"><ele>334.3333333333333</ele><time>2026-04-08T11:36:34.001Z</time></trkpt><trkpt lat="34.44176927053805" lon="8.824102488499719"><ele>334.6666666666667</ele><time>2026-04-08T11:36:35.001Z</time></trkpt><trkpt lat="34.44192230799501" lon="8.824203065987364"><ele>335.0</ele><time>2026-04-08T11:36:36.001Z</time></trkpt><trkpt lat="34.442070585718874" lon="8.824302497074182"><ele>335.6666666666667</ele><time>2026-04-08T11:36:37.001Z</time></trkpt><trkpt lat="34.44221896018567" lon="8.82440264855003"><ele>336.3333333333333</ele><time>2026-04-08T11:36:38.001Z</time></trkpt><trkpt lat="34.44236236926548" lon="8.824497859241948"><ele>337.0</ele><time>2026-04-08T11:36:39.001Z</time></trkpt><trkpt lat="34.442497032563075" lon="8.824583872360245"><ele>337.0</ele><time>2026-04-08T11:36:40.001Z</time></trkpt><trkpt lat="34.4426159717012" lon="8.824660328279045"><ele>337.0</ele><time>2026-04-08T11:36:41.001Z</time></trkpt><trkpt lat="34.442715176745125" lon="8.824727065075217"><ele>337.0</ele><time>2026-04-08T11:36:42.001Z</time></trkpt><trkpt lat="34.44279034989843" lon="8.824779977249445"><ele>337.0</ele><time>2026-04-08T11:36:43.001Z</time></trkpt><trkpt lat="34.442852924733685" lon="8.824824220361931"><ele>337.0</ele><time>2026-04-08T11:36:44.001Z</time></trkpt><trkpt lat="34.44295205983661" lon="8.82489023594167"><ele>337.5</ele><time>2026-04-08T11:36:46.001Z</time></trkpt><trkpt lat="34.443031553469474" lon="8.824944461346302"><ele>338.0</ele><time>2026-04-08T11:36:48.001Z</time></trkpt><trkpt lat="34.443093327139785" lon="8.824991672336038"><ele>338.5</ele><time>2026-04-08T11:36:50.001Z</time></trkpt><trkpt lat="34.44316788704116" lon="8.825030277184355"><ele>339.0</ele><time>2026-04-08T11:36:52.001Z</time></trkpt><trkpt lat="34.443281357848896" lon="8.825008961430978"><ele>339.5</ele><time>2026-04-08T11:36:54.001Z</time></trkpt><trkpt lat="34.44335400124999" lon="8.824986935125938"><ele>340.0</ele><time>2026-04-08T11:36:56.001Z</time></trkpt><trkpt lat="34.44341901151956" lon="8.824955889755286"><ele>340.0</ele><time>2026-04-08T11:36:59.001Z</time></trkpt><trkpt lat="34.443446998283996" lon="8.824879399573431"><ele>340.0</ele><time>2026-04-08T11:37:02.001Z</time></trkpt><trkpt lat="34.44339429465908" lon="8.82482688493878"><ele>340.0</ele><time>2026-04-08T11:37:05.001Z</time></trkpt></trkseg><trkseg><trkpt lat="34.44342325249499" lon="8.824765204872833"><ele>340.0</ele><time>2026-04-08T13:07:16Z</time></trkpt><trkpt lat="34.443437504876194" lon="8.824840617787123"><ele>340.0</ele><time>2026-04-08T13:07:18Z</time></trkpt><trkpt lat="34.443443893466096" lon="8.824962500824638"><ele>340.0</ele><time>2026-04-08T13:07:20Z</time></trkpt><trkpt lat="34.44338765633965" lon="8.825047068197147"><ele>340.0</ele><time>2026-04-08T13:07:22Z</time></trkpt><trkpt lat="34.44341857023705" lon="8.82514852975373"><ele>340.0</ele><time>2026-04-08T13:07:27Z</time></trkpt><trkpt lat="34.443462151241526" lon="8.825207994374654"><ele>340.0</ele><time>2026-04-08T13:07:28Z</time></trkpt><trkpt lat="34.44352337474845" lon="8.825257152817041"><ele>339.8333333333333</ele><time>2026-04-08T13:07:29Z</time></trkpt><trkpt lat="34.44359042297179" lon="8.825307877199851"><ele>339.66666666666663</ele><time>2026-04-08T13:07:30Z</time></trkpt><trkpt lat="34.44365788815582" lon="8.825358123275702"><ele>339.5</ele><time>2026-04-08T13:07:31Z</time></trkpt><trkpt lat="34.44372192955661" lon="8.825400838552676"><ele>339.3333333333333</ele><time>2026-04-08T13:07:32Z</time></trkpt><trkpt lat="34.44382263776163" lon="8.825465803890642"><ele>339.1666666666667</ele><time>2026-04-08T13:07:33Z</time></trkpt><trkpt lat="34.44389318196305" lon="8.825501054449813"><ele>339.0</ele><time>2026-04-08T13:07:34Z</time></trkpt><trkpt lat="34.44395584457195" lon="8.825537530701945"><ele>339.0</ele><time>2026-04-08T13:07:35Z</time></trkpt><trkpt lat="34.4440327443434" lon="8.825586281419076"><ele>339.0</ele><time>2026-04-08T13:07:36Z</time></trkpt><trkpt lat="34.444109132479284" lon="8.825646179052622"><ele>339.0</ele><time>2026-04-08T13:07:36.999Z</time></trkpt><trkpt lat="34.444209322233945" lon="8.825721969744041"><ele>339.0</ele><time>2026-04-08T13:07:37.999Z</time></trkpt><trkpt lat="34.444273884322975" lon="8.825765561643536"><ele>339.0</ele><time>2026-04-08T13:07:38.999Z</time></trkpt><trkpt lat="34.44434138477195" lon="8.825809519278867"><ele>339.0</ele><time>2026-04-08T13:07:39.999Z</time></trkpt><trkpt lat="34.444409637490935" lon="8.825852684484913"><ele>339.0</ele><time>2026-04-08T13:07:40.999Z</time></trkpt><trkpt lat="34.44447808654681" lon="8.825902574378668"><ele>339.0</ele><time>2026-04-08T13:07:41.999Z</time></trkpt><trkpt lat="34.4445516727557" lon="8.825955537592405"><ele>339.0</ele><time>2026-04-08T13:07:42.999Z</time></trkpt><trkpt lat="34.44463282227501" lon="8.825999420014686"><ele>339.0</ele><time>2026-04-08T13:07:43.999Z</time></trkpt><trkpt lat="34.44470664390277" lon="8.826038571705148"><ele>339.0</ele><time>2026-04-08T13:07:44.999Z</time></trkpt><trkpt lat="34.44476612821757" lon="8.826076852890688"><ele>339.0</ele><time>2026-04-08T13:07:45.999Z</time></trkpt><trkpt lat="34.44485731688167" lon="8.826149915483086"><ele>339.1666666666667</ele><time>2026-04-08T13:07:47.999Z</time></trkpt><trkpt lat="34.44495255057145" lon="8.826216714363694"><ele>339.3333333333333</ele><time>2026-04-08T13:07:49.999Z</time></trkpt><trkpt lat="34.445059912763824" lon="8.826286637893244"><ele>339.5</ele><time>2026-04-08T13:07:51.999Z</time></trkpt><trkpt lat="34.445119866375926" lon="8.826323981447445"><ele>339.66666666666663</ele><time>2026-04-08T13:07:52.999Z</time></trkpt><trkpt lat="34.44518198342148" lon="8.826364209736736"><ele>339.8333333333333</ele><time>2026-04-08T13:07:53.999Z</time></trkpt><trkpt lat="34.445243283805446" lon="8.826407427176015"><ele>340.0</ele><time>2026-04-08T13:07:54.999Z</time></trkpt><trkpt lat="34.4453067204797" lon="8.826448041613178"><ele>340.0</ele><time>2026-04-08T13:07:55.999Z</time></trkpt><trkpt lat="34.44537503953204" lon="8.826487335215127"><ele>340.0</ele><time>2026-04-08T13:07:56.999Z</time></trkpt><trkpt lat="34.44544364715582" lon="8.826528117598494"><ele>340.0</ele><time>2026-04-08T13:07:57.999Z</time></trkpt><trkpt lat="34.44550780744009" lon="8.826569571197885"><ele>340.0</ele><time>2026-04-08T13:07:58.999Z</time></trkpt><trkpt lat="34.44561071404361" lon="8.826636258315437"><ele>340.0</ele><time>2026-04-08T13:08:00.999Z</time></trkpt><trkpt lat="34.445705320717224" lon="8.826701000514737"><ele>339.8</ele><time>2026-04-08T13:08:02.999Z</time></trkpt><trkpt lat="34.44580941746942" lon="8.826776570631614"><ele>339.6</ele><time>2026-04-08T13:08:04.999Z</time></trkpt><trkpt lat="34.44586813318009" lon="8.826821952593585"><ele>339.4</ele><time>2026-04-08T13:08:05.999Z</time></trkpt><trkpt lat="34.445937682685546" lon="8.826872340040829"><ele>339.2</ele><time>2026-04-08T13:08:06.999Z</time></trkpt><trkpt lat="34.44601970991807" lon="8.82693106808401"><ele>339.0</ele><time>2026-04-08T13:08:07.999Z</time></trkpt><trkpt lat="34.44611153720568" lon="8.826995598559236"><ele>339.6</ele><time>2026-04-08T13:08:08.999Z</time></trkpt><trkpt lat="34.44621287560801" lon="8.827060934797895"><ele>340.2</ele><time>2026-04-08T13:08:09.999Z</time></trkpt><trkpt lat="34.44631193069983" lon="8.827124583448027"><ele>340.8</ele><time>2026-04-08T13:08:10.999Z</time></trkpt><trkpt lat="34.44640481960329" lon="8.827200755449567"><ele>341.40000000000003</ele><time>2026-04-08T13:08:11.999Z</time></trkpt><trkpt lat="34.44650087335498" lon="8.827261714304337"><ele>342.0</ele><time>2026-04-08T13:08:12.999Z</time></trkpt><trkpt lat="34.44659761569762" lon="8.8273165337718"><ele>342.0</ele><time>2026-04-08T13:08:13.999Z</time></trkpt><trkpt lat="34.44668820836987" lon="8.827390388117218"><ele>342.0</ele><time>2026-04-08T13:08:14.999Z</time></trkpt><trkpt lat="34.44678857820813" lon="8.827452563878566"><ele>342.0</ele><time>2026-04-08T13:08:15.999Z</time></trkpt><trkpt lat="34.44688824459058" lon="8.827521115917698"><ele>342.0</ele><time>2026-04-08T13:08:16.999Z</time></trkpt><trkpt lat="34.4469954081041" lon="8.827587952919817"><ele>342.0</ele><time>2026-04-08T13:08:17.999Z</time></trkpt><trkpt lat="34.44710008132682" lon="8.82766694401084"><ele>342.0</ele><time>2026-04-08T13:08:18.999Z</time></trkpt><trkpt lat="34.447210378007924" lon="8.827741124274189"><ele>342.0</ele><time>2026-04-08T13:08:19.999Z</time></trkpt><trkpt lat="34.44732260141555" lon="8.827814290633324"><ele>342.0</ele><time>2026-04-08T13:08:20.999Z</time></trkpt><trkpt lat="34.44743717744703" lon="8.827887052552166"><ele>341.25</ele><time>2026-04-08T13:08:21.999Z</time></trkpt><trkpt lat="34.447553652948706" lon="8.827970167075938"><ele>340.5</ele><time>2026-04-08T13:08:22.999Z</time></trkpt><trkpt lat="34.447674765527225" lon="8.828047847509458"><ele>339.75</ele><time>2026-04-08T13:08:23.999Z</time></trkpt><trkpt lat="34.44780002578355" lon="8.828131331353653"><ele>339.0</ele><time>2026-04-08T13:08:24.999Z</time></trkpt><trkpt lat="34.44793240442503" lon="8.828220482462669"><ele>339.0</ele><time>2026-04-08T13:08:25.999Z</time></trkpt><trkpt lat="34.448065863171955" lon="8.828309869006695"><ele>339.0</ele><time>2026-04-08T13:08:26.999Z</time></trkpt><trkpt lat="34.44819935649113" lon="8.828396874225753"><ele>339.0</ele><time>2026-04-08T13:08:27.999Z</time></trkpt><trkpt lat="34.44833257283796" lon="8.828485411004037"><ele>339.25</ele><time>2026-04-08T13:08:28.999Z</time></trkpt><trkpt lat="34.448462196561245" lon="8.828573004397315"><ele>339.5</ele><time>2026-04-08T13:08:29.999Z</time></trkpt><trkpt lat="34.44859311918825" lon="8.828659745613932"><ele>339.75</ele><time>2026-04-08T13:08:30.999Z</time></trkpt><trkpt lat="34.44872486390483" lon="8.82874402700036"><ele>340.0</ele><time>2026-04-08T13:08:31.999Z</time></trkpt><trkpt lat="34.44885816079202" lon="8.828830796474135"><ele>340.0</ele><time>2026-04-08T13:08:32.999Z</time></trkpt><trkpt lat="34.44899175822891" lon="8.828918209055386"><ele>340.0</ele><time>2026-04-08T13:08:33.999Z</time></trkpt><trkpt lat="34.4491255484337" lon="8.829006061607751"><ele>340.0</ele><time>2026-04-08T13:08:34.999Z</time></trkpt><trkpt lat="34.44925909359101" lon="8.829095519549584"><ele>340.0</ele><time>2026-04-08T13:08:35.999Z</time></trkpt><trkpt lat="34.44939376024776" lon="8.829186717625838"><ele>340.0</ele><time>2026-04-08T13:08:36.999Z</time></trkpt><trkpt lat="34.44953021536952" lon="8.829278396632875"><ele>340.0</ele><time>2026-04-08T13:08:37.999Z</time></trkpt><trkpt lat="34.449665980306605" lon="8.829367968779662"><ele>340.0</ele><time>2026-04-08T13:08:38.999Z</time></trkpt><trkpt lat="34.44980294624736" lon="8.829458945277159"><ele>340.0</ele><time>2026-04-08T13:08:39.999Z</time></trkpt><trkpt lat="34.44994095912754" lon="8.829549740734151"><ele>340.0</ele><time>2026-04-08T13:08:40.999Z</time></trkpt><trkpt lat="34.45008111632536" lon="8.82964140296612"><ele>340.0</ele><time>2026-04-08T13:08:41.999Z</time></trkpt><trkpt lat="34.450224953720806" lon="8.829739090458105"><ele>340.0</ele><time>2026-04-08T13:08:42.999Z</time></trkpt><trkpt lat="34.450370182904656" lon="8.829837735055786"><ele>340.0</ele><time>2026-04-08T13:08:43.999Z</time></trkpt><trkpt lat="34.4505168701521" lon="8.82993808510631"><ele>340.66666666666663</ele><time>2026-04-08T13:08:44.999Z</time></trkpt><trkpt lat="34.450662980131405" lon="8.830035331985913"><ele>341.3333333333333</ele><time>2026-04-08T13:08:45.999Z</time></trkpt><trkpt lat="34.45081084781081" lon="8.830133852509379"><ele>342.0</ele><time>2026-04-08T13:08:46.999Z</time></trkpt><trkpt lat="34.45095731191873" lon="8.83023556383195"><ele>342.3333333333333</ele><time>2026-04-08T13:08:47.999Z</time></trkpt><trkpt lat="34.451104729852226" lon="8.830336411013425"><ele>342.66666666666663</ele><time>2026-04-08T13:08:48.999Z</time></trkpt><trkpt lat="34.451252612112235" lon="8.830437523961491"><ele>343.0</ele><time>2026-04-08T13:08:49.999Z</time></trkpt><trkpt lat="34.45140004088901" lon="8.830536074125986"><ele>343.3333333333333</ele><time>2026-04-08T13:08:50.999Z</time></trkpt><trkpt lat="34.45154706891582" lon="8.83063543103176"><ele>343.6666666666667</ele><time>2026-04-08T13:08:51.999Z</time></trkpt><trkpt lat="34.45169591012698" lon="8.830738106157527"><ele>344.0</ele><time>2026-04-08T13:08:52.999Z</time></trkpt><trkpt lat="34.45184283036583" lon="8.830839772151098"><ele>344.0</ele><time>2026-04-08T13:08:53.999Z</time></trkpt><trkpt lat="34.4519866535745" lon="8.830938710095468"><ele>344.0</ele><time>2026-04-08T13:08:54.999Z</time></trkpt><trkpt lat="34.452132875134104" lon="8.831038279052182"><ele>344.0</ele><time>2026-04-08T13:08:55.999Z</time></trkpt><trkpt lat="34.452281076210646" lon="8.831134492614181"><ele>343.33333333333337</ele><time>2026-04-08T13:08:56.999Z</time></trkpt><trkpt lat="34.452429276517165" lon="8.831229188551266"><ele>342.6666666666667</ele><time>2026-04-08T13:08:57.999Z</time></trkpt><trkpt lat="34.45257645770063" lon="8.83132692306267"><ele>342.0</ele><time>2026-04-08T13:08:58.998Z</time></trkpt><trkpt lat="34.452723198990064" lon="8.831426685977133"><ele>342.0</ele><time>2026-04-08T13:08:59.998Z</time></trkpt><trkpt lat="34.45287067383629" lon="8.831524427898167"><ele>342.0</ele><time>2026-04-08T13:09:00.998Z</time></trkpt><trkpt lat="34.45301727445357" lon="8.831622220239158"><ele>342.0</ele><time>2026-04-08T13:09:01.998Z</time></trkpt><trkpt lat="34.45316438084547" lon="8.831719462710426"><ele>341.3333333333333</ele><time>2026-04-08T13:09:02.998Z</time></trkpt><trkpt lat="34.453312008337804" lon="8.831815307633015"><ele>340.66666666666663</ele><time>2026-04-08T13:09:03.998Z</time></trkpt><trkpt lat="34.4534604363641" lon="8.831911222157938"><ele>340.0</ele><time>2026-04-08T13:09:04.998Z</time></trkpt><trkpt lat="34.453606994348824" lon="8.832008273686773"><ele>340.0</ele><time>2026-04-08T13:09:05.998Z</time></trkpt><trkpt lat="34.453754560769504" lon="8.832108619681252"><ele>340.0</ele><time>2026-04-08T13:09:06.998Z</time></trkpt><trkpt lat="34.45390084891366" lon="8.832207743218776"><ele>340.0</ele><time>2026-04-08T13:09:07.998Z</time></trkpt><trkpt lat="34.45405145040521" lon="8.83230270584225"><ele>341.3333333333333</ele><time>2026-04-08T13:09:08.998Z</time></trkpt><trkpt lat="34.45419868790426" lon="8.832398098538349"><ele>342.6666666666667</ele><time>2026-04-08T13:09:09.998Z</time></trkpt><trkpt lat="34.45434131249254" lon="8.832502983977207"><ele>344.0</ele><time>2026-04-08T13:09:10.998Z</time></trkpt><trkpt lat="34.45448382474158" lon="8.832607996012419"><ele>344.33333333333337</ele><time>2026-04-08T13:09:11.998Z</time></trkpt><trkpt lat="34.45463190301504" lon="8.832703285881687"><ele>344.6666666666667</ele><time>2026-04-08T13:09:12.998Z</time></trkpt><trkpt lat="34.454778271153565" lon="8.832796028708797"><ele>345.0</ele><time>2026-04-08T13:09:13.998Z</time></trkpt><trkpt lat="34.454923849495195" lon="8.832895164271168"><ele>345.0</ele><time>2026-04-08T13:09:14.998Z</time></trkpt><trkpt lat="34.455070784342" lon="8.832994996419332"><ele>345.0</ele><time>2026-04-08T13:09:15.998Z</time></trkpt><trkpt lat="34.4552182746449" lon="8.833090825757246"><ele>345.0</ele><time>2026-04-08T13:09:16.998Z</time></trkpt><trkpt lat="34.45536506922883" lon="8.833188723029433"><ele>344.3333333333333</ele><time>2026-04-08T13:09:17.998Z</time></trkpt><trkpt lat="34.45550875419053" lon="8.833288242814803"><ele>343.66666666666663</ele><time>2026-04-08T13:09:18.998Z</time></trkpt><trkpt lat="34.45564973376446" lon="8.833386152991999"><ele>343.0</ele><time>2026-04-08T13:09:19.998Z</time></trkpt><trkpt lat="34.4557679251994" lon="8.833467839697898"><ele>342.79999999999995</ele><time>2026-04-08T13:09:20.998Z</time></trkpt><trkpt lat="34.455871621299565" lon="8.833535684928341"><ele>342.6</ele><time>2026-04-08T13:09:21.998Z</time></trkpt><trkpt lat="34.455961783101785" lon="8.833594549635366"><ele>342.4</ele><time>2026-04-08T13:09:22.998Z</time></trkpt><trkpt lat="34.456043816590075" lon="8.833650836712904"><ele>342.20000000000005</ele><time>2026-04-08T13:09:23.998Z</time></trkpt><trkpt lat="34.45612391058445" lon="8.833704692947709"><ele>342.0</ele><time>2026-04-08T13:09:24.999Z</time></trkpt><trkpt lat="34.45620910018882" lon="8.833761853150182"><ele>342.5</ele><time>2026-04-08T13:09:25.999Z</time></trkpt><trkpt lat="34.45629536891642" lon="8.833818589652022"><ele>343.0</ele><time>2026-04-08T13:09:26.999Z</time></trkpt><trkpt lat="34.45636879901067" lon="8.833869889264179"><ele>343.5</ele><time>2026-04-08T13:09:27.999Z</time></trkpt><trkpt lat="34.45643249297087" lon="8.833910862091123"><ele>344.0</ele><time>2026-04-08T13:09:28.999Z</time></trkpt><trkpt lat="34.456492687489956" lon="8.833944277477833"><ele>344.5</ele><time>2026-04-08T13:09:29.999Z</time></trkpt><trkpt lat="34.456582229718975" lon="8.834003663062184"><ele>345.0</ele><time>2026-04-08T13:09:31.999Z</time></trkpt><trkpt lat="34.45666034056794" lon="8.83405867797248"><ele>345.0</ele><time>2026-04-08T13:09:33.999Z</time></trkpt><trkpt lat="34.456780038027134" lon="8.834139053275212"><ele>345.0</ele><time>2026-04-08T13:09:35.999Z</time></trkpt><trkpt lat="34.45685333433736" lon="8.834190685870823"><ele>345.0</ele><time>2026-04-08T13:09:36.999Z</time></trkpt><trkpt lat="34.456938962775496" lon="8.834251933383145"><ele>345.0</ele><time>2026-04-08T13:09:37.999Z</time></trkpt><trkpt lat="34.45703420784916" lon="8.834314067221596"><ele>345.0</ele><time>2026-04-08T13:09:38.999Z</time></trkpt><trkpt lat="34.45713447845005" lon="8.834377527086199"><ele>346.25</ele><time>2026-04-08T13:09:39.999Z</time></trkpt><trkpt lat="34.45723732786799" lon="8.83444678088841"><ele>347.5</ele><time>2026-04-08T13:09:40.999Z</time></trkpt><trkpt lat="34.45734129865968" lon="8.834520991534864"><ele>348.75</ele><time>2026-04-08T13:09:41.999Z</time></trkpt><trkpt lat="34.45745032259045" lon="8.834593937283401"><ele>350.0</ele><time>2026-04-08T13:09:42.999Z</time></trkpt><trkpt lat="34.4575659628778" lon="8.834666252258865"><ele>350.0</ele><time>2026-04-08T13:09:43.999Z</time></trkpt><trkpt lat="34.45768043770338" lon="8.834743645058088"><ele>350.0</ele><time>2026-04-08T13:09:44.999Z</time></trkpt><trkpt lat="34.45779550483188" lon="8.834823849246728"><ele>350.0</ele><time>2026-04-08T13:09:45.999Z</time></trkpt><trkpt lat="34.457914882965746" lon="8.834905259753423"><ele>350.0</ele><time>2026-04-08T13:09:46.999Z</time></trkpt><trkpt lat="34.45803962800351" lon="8.834986981217607"><ele>350.0</ele><time>2026-04-08T13:09:47.999Z</time></trkpt><trkpt lat="34.45816826779487" lon="8.835070492619389"><ele>350.0</ele><time>2026-04-08T13:09:48.999Z</time></trkpt><trkpt lat="34.458298895095744" lon="8.835157734224387"><ele>350.0</ele><time>2026-04-08T13:09:49.999Z</time></trkpt><trkpt lat="34.45843428624508" lon="8.835250031842843"><ele>350.0</ele><time>2026-04-08T13:09:50.999Z</time></trkpt><trkpt lat="34.45857144695001" lon="8.835345773656096"><ele>350.0</ele><time>2026-04-08T13:09:51.999Z</time></trkpt><trkpt lat="34.458714061941556" lon="8.835444589505933"><ele>350.0</ele><time>2026-04-08T13:09:52.999Z</time></trkpt><trkpt lat="34.458860130484794" lon="8.835544922980935"><ele>349.33333333333337</ele><time>2026-04-08T13:09:53.999Z</time></trkpt><trkpt lat="34.459008777046364" lon="8.835648886820842"><ele>348.6666666666667</ele><time>2026-04-08T13:09:54.999Z</time></trkpt><trkpt lat="34.45916332890856" lon="8.835754044348997"><ele>348.0</ele><time>2026-04-08T13:09:55.999Z</time></trkpt><trkpt lat="34.45931499865838" lon="8.835856238429963"><ele>348.0</ele><time>2026-04-08T13:09:56.999Z</time></trkpt><trkpt lat="34.45946689428352" lon="8.83596138965725"><ele>348.0</ele><time>2026-04-08T13:09:57.999Z</time></trkpt><trkpt lat="34.45961692200945" lon="8.836067889127168"><ele>348.0</ele><time>2026-04-08T13:09:58.999Z</time></trkpt><trkpt lat="34.45976603702293" lon="8.836174159671287"><ele>347.3333333333333</ele><time>2026-04-08T13:09:59.999Z</time></trkpt><trkpt lat="34.45991499359901" lon="8.836277143210234"><ele>346.66666666666663</ele><time>2026-04-08T13:10:00.999Z</time></trkpt><trkpt lat="34.460066123234924" lon="8.836381895580743"><ele>346.0</ele><time>2026-04-08T13:10:01.999Z</time></trkpt><trkpt lat="34.46021761472759" lon="8.836485489609682"><ele>346.0</ele><time>2026-04-08T13:10:02.999Z</time></trkpt><trkpt lat="34.460377336795894" lon="8.836595365623563"><ele>346.0</ele><time>2026-04-08T13:10:03.999Z</time></trkpt><trkpt lat="34.46054115259601" lon="8.836715671122912"><ele>346.0</ele><time>2026-04-08T13:10:04.999Z</time></trkpt><trkpt lat="34.46071165270714" lon="8.836842874150127"><ele>346.0</ele><time>2026-04-08T13:10:05.999Z</time></trkpt><trkpt lat="34.46089008701612" lon="8.836978320869052"><ele>346.0</ele><time>2026-04-08T13:10:06.999Z</time></trkpt><trkpt lat="34.46107271327586" lon="8.837113525690896"><ele>346.0</ele><time>2026-04-08T13:10:07.999Z</time></trkpt><trkpt lat="34.461252161775086" lon="8.837250113434958"><ele>347.5</ele><time>2026-04-08T13:10:08.999Z</time></trkpt><trkpt lat="34.461436578914736" lon="8.837393743731363"><ele>349.0</ele><time>2026-04-08T13:10:09.999Z</time></trkpt><trkpt lat="34.46163860873198" lon="8.837550650350087"><ele>347.0</ele><time>2026-04-08T13:10:10.999Z</time></trkpt><trkpt lat="34.46185419651111" lon="8.837714973940026"><ele>345.0</ele><time>2026-04-08T13:10:11.999Z</time></trkpt><trkpt lat="34.46207025798122" lon="8.837876681865623"><ele>346.5</ele><time>2026-04-08T13:10:12.999Z</time></trkpt><trkpt lat="34.46227912229838" lon="8.838030485190403"><ele>348.0</ele><time>2026-04-08T13:10:13.999Z</time></trkpt><trkpt lat="34.46247739475548" lon="8.83817891686712"><ele>348.0</ele><time>2026-04-08T13:10:14.999Z</time></trkpt><trkpt lat="34.462670171109984" lon="8.838321640609413"><ele>348.0</ele><time>2026-04-08T13:10:15.999Z</time></trkpt><trkpt lat="34.462841687131416" lon="8.838449354748377"><ele>348.0</ele><time>2026-04-08T13:10:16.999Z</time></trkpt><trkpt lat="34.46300176676494" lon="8.838567990315337"><ele>348.0</ele><time>2026-04-08T13:10:17.999Z</time></trkpt><trkpt lat="34.46316225682267" lon="8.838691035115264"><ele>348.0</ele><time>2026-04-08T13:10:18.999Z</time></trkpt><trkpt lat="34.4633357185372" lon="8.838822061783606"><ele>348.0</ele><time>2026-04-08T13:10:19.999Z</time></trkpt><trkpt lat="34.46351522823746" lon="8.838953926473934"><ele>348.0</ele><time>2026-04-08T13:10:20.999Z</time></trkpt><trkpt lat="34.46369640268454" lon="8.839088444266961"><ele>348.0</ele><time>2026-04-08T13:10:21.999Z</time></trkpt><trkpt lat="34.46387449577911" lon="8.83922235811937"><ele>348.0</ele><time>2026-04-08T13:10:22.999Z</time></trkpt><trkpt lat="34.464052872675424" lon="8.83935836504156"><ele>348.3333333333333</ele><time>2026-04-08T13:10:23.999Z</time></trkpt><trkpt lat="34.464231443435686" lon="8.839493928522796"><ele>348.66666666666663</ele><time>2026-04-08T13:10:24.999Z</time></trkpt><trkpt lat="34.46441316245305" lon="8.83963044887738"><ele>349.0</ele><time>2026-04-08T13:10:25.999Z</time></trkpt><trkpt lat="34.46459322895156" lon="8.839764826381597"><ele>349.0</ele><time>2026-04-08T13:10:26.999Z</time></trkpt><trkpt lat="34.46477404728586" lon="8.839899097130235"><ele>349.0</ele><time>2026-04-08T13:10:27.999Z</time></trkpt><trkpt lat="34.46495589947562" lon="8.840031387874784"><ele>349.0</ele><time>2026-04-08T13:10:28.999Z</time></trkpt><trkpt lat="34.46513570264226" lon="8.84016321685629"><ele>349.0</ele><time>2026-04-08T13:10:29.999Z</time></trkpt><trkpt lat="34.465313576704986" lon="8.840295507534895"><ele>349.0</ele><time>2026-04-08T13:10:30.999Z</time></trkpt><trkpt lat="34.465486158886165" lon="8.840422732111824"><ele>349.0</ele><time>2026-04-08T13:10:31.999Z</time></trkpt><trkpt lat="34.46566102969206" lon="8.840550632269697"><ele>349.0</ele><time>2026-04-08T13:10:32.999Z</time></trkpt><trkpt lat="34.46583334896507" lon="8.840675788698825"><ele>349.0</ele><time>2026-04-08T13:10:33.999Z</time></trkpt><trkpt lat="34.46600867216904" lon="8.840805825405086"><ele>349.0</ele><time>2026-04-08T13:10:34.999Z</time></trkpt><trkpt lat="34.46617985130064" lon="8.840935884833273"><ele>349.3333333333333</ele><time>2026-04-08T13:10:35.999Z</time></trkpt><trkpt lat="34.46635144537745" lon="8.841068055181951"><ele>349.6666666666667</ele><time>2026-04-08T13:10:36.999Z</time></trkpt><trkpt lat="34.46652346369012" lon="8.841199187337013"><ele>350.0</ele><time>2026-04-08T13:10:37.999Z</time></trkpt><trkpt lat="34.4666994444621" lon="8.84132756505038"><ele>350.0</ele><time>2026-04-08T13:10:38.999Z</time></trkpt><trkpt lat="34.46687158129856" lon="8.841455158837434"><ele>350.0</ele><time>2026-04-08T13:10:39.999Z</time></trkpt><trkpt lat="34.46704887726592" lon="8.841585380047249"><ele>350.0</ele><time>2026-04-08T13:10:40.999Z</time></trkpt><trkpt lat="34.467224912350176" lon="8.841714141730424"><ele>349.33333333333337</ele><time>2026-04-08T13:10:41.999Z</time></trkpt><trkpt lat="34.467400350574785" lon="8.841843867313942"><ele>348.6666666666667</ele><time>2026-04-08T13:10:42.999Z</time></trkpt><trkpt lat="34.46757384871389" lon="8.841978578718305"><ele>348.0</ele><time>2026-04-08T13:10:43.999Z</time></trkpt><trkpt lat="34.46774445839326" lon="8.842119092654663"><ele>348.0</ele><time>2026-04-08T13:10:44.999Z</time></trkpt><trkpt lat="34.46791387030116" lon="8.842260853394432"><ele>348.0</ele><time>2026-04-08T13:10:45.999Z</time></trkpt><trkpt lat="34.46808279727084" lon="8.842406093706892"><ele>348.0</ele><time>2026-04-08T13:10:46.999Z</time></trkpt><trkpt lat="34.46825027722385" lon="8.842548629141229"><ele>348.6666666666667</ele><time>2026-04-08T13:10:47.999Z</time></trkpt><trkpt lat="34.46841834698631" lon="8.842693910966117"><ele>349.33333333333337</ele><time>2026-04-08T13:10:48.999Z</time></trkpt><trkpt lat="34.46858285542841" lon="8.842842677112502"><ele>350.0</ele><time>2026-04-08T13:10:49.999Z</time></trkpt><trkpt lat="34.46874685366737" lon="8.842991385328707"><ele>350.0</ele><time>2026-04-08T13:10:50.999Z</time></trkpt><trkpt lat="34.46890979666888" lon="8.843137827802783"><ele>350.0</ele><time>2026-04-08T13:10:51.999Z</time></trkpt><trkpt lat="34.46907736174834" lon="8.843281866870345"><ele>350.0</ele><time>2026-04-08T13:10:52.999Z</time></trkpt><trkpt lat="34.46924291921769" lon="8.843426975558959"><ele>350.33333333333337</ele><time>2026-04-08T13:10:53.999Z</time></trkpt><trkpt lat="34.46940480309424" lon="8.843571365796702"><ele>350.6666666666667</ele><time>2026-04-08T13:10:54.999Z</time></trkpt><trkpt lat="34.46956999291235" lon="8.84371569579216"><ele>351.0</ele><time>2026-04-08T13:10:55.999Z</time></trkpt><trkpt lat="34.4697357159291" lon="8.843860284446833"><ele>351.0</ele><time>2026-04-08T13:10:56.999Z</time></trkpt><trkpt lat="34.469898172934485" lon="8.844003122262324"><ele>351.0</ele><time>2026-04-08T13:10:57.999Z</time></trkpt><trkpt lat="34.470061990644915" lon="8.844151321256236"><ele>351.0</ele><time>2026-04-08T13:10:58.999Z</time></trkpt><trkpt lat="34.4702266080178" lon="8.844301623330246"><ele>350.6666666666667</ele><time>2026-04-08T13:10:59.999Z</time></trkpt><trkpt lat="34.47039183535142" lon="8.844451954149251"><ele>350.33333333333337</ele><time>2026-04-08T13:11:00.999Z</time></trkpt><trkpt lat="34.470558489273714" lon="8.84459867913531"><ele>350.0</ele><time>2026-04-08T13:11:01.999Z</time></trkpt><trkpt lat="34.47072851054624" lon="8.844744453003527"><ele>349.6666666666667</ele><time>2026-04-08T13:11:02.999Z</time></trkpt><trkpt lat="34.47089777087008" lon="8.844887316138767"><ele>349.3333333333333</ele><time>2026-04-08T13:11:03.999Z</time></trkpt><trkpt lat="34.47106965280892" lon="8.84503132730712"><ele>349.0</ele><time>2026-04-08T13:11:04.998Z</time></trkpt><trkpt lat="34.47123927544937" lon="8.845179614115423"><ele>350.3333333333333</ele><time>2026-04-08T13:11:05.998Z</time></trkpt><trkpt lat="34.47140789010795" lon="8.845333551730215"><ele>351.6666666666667</ele><time>2026-04-08T13:11:06.998Z</time></trkpt><trkpt lat="34.47157697617114" lon="8.845486528729689"><ele>353.0</ele><time>2026-04-08T13:11:07.998Z</time></trkpt><trkpt lat="34.47174819971858" lon="8.845637053479967"><ele>353.0</ele><time>2026-04-08T13:11:08.998Z</time></trkpt><trkpt lat="34.47191879654087" lon="8.845786778428387"><ele>353.0</ele><time>2026-04-08T13:11:09.998Z</time></trkpt><trkpt lat="34.47208773599582" lon="8.845940323986813"><ele>353.0</ele><time>2026-04-08T13:11:10.998Z</time></trkpt><trkpt lat="34.472256224651844" lon="8.846095699421475"><ele>353.6666666666667</ele><time>2026-04-08T13:11:11.998Z</time></trkpt><trkpt lat="34.47242398042381" lon="8.846249063715758"><ele>354.3333333333333</ele><time>2026-04-08T13:11:12.998Z</time></trkpt><trkpt lat="34.47259191344544" lon="8.846401242479727"><ele>355.0</ele><time>2026-04-08T13:11:13.998Z</time></trkpt><trkpt lat="34.472761029935874" lon="8.846550096438545"><ele>355.0</ele><time>2026-04-08T13:11:14.998Z</time></trkpt><trkpt lat="34.472932215560306" lon="8.84669602519449"><ele>355.0</ele><time>2026-04-08T13:11:15.998Z</time></trkpt><trkpt lat="34.473107203323636" lon="8.846837572413285"><ele>355.0</ele><time>2026-04-08T13:11:16.998Z</time></trkpt><trkpt lat="34.473286601669656" lon="8.846976005261963"><ele>355.3333333333333</ele><time>2026-04-08T13:11:17.998Z</time></trkpt><trkpt lat="34.47346657396113" lon="8.84711029081144"><ele>355.6666666666667</ele><time>2026-04-08T13:11:18.999Z</time></trkpt><trkpt lat="34.47364801259875" lon="8.847247242974658"><ele>356.0</ele><time>2026-04-08T13:11:19.999Z</time></trkpt><trkpt lat="34.473829371022894" lon="8.847380096831591"><ele>356.0</ele><time>2026-04-08T13:11:20.999Z</time></trkpt><trkpt lat="34.47401253181036" lon="8.847508542578804"><ele>356.0</ele><time>2026-04-08T13:11:21.999Z</time></trkpt><trkpt lat="34.47420224886627" lon="8.847638823905323"><ele>356.0</ele><time>2026-04-08T13:11:22.999Z</time></trkpt><trkpt lat="34.47439399953024" lon="8.847772690679836"><ele>356.0</ele><time>2026-04-08T13:11:23.999Z</time></trkpt><trkpt lat="34.474585400330994" lon="8.84790870730373"><ele>356.0</ele><time>2026-04-08T13:11:24.999Z</time></trkpt><trkpt lat="34.47477807509417" lon="8.848042600989418"><ele>356.0</ele><time>2026-04-08T13:11:25.999Z</time></trkpt><trkpt lat="34.47496917278182" lon="8.84817618459675"><ele>356.0</ele><time>2026-04-08T13:11:26.999Z</time></trkpt><trkpt lat="34.47515994627918" lon="8.848311278809927"><ele>356.0</ele><time>2026-04-08T13:11:27.999Z</time></trkpt><trkpt lat="34.4753472434033" lon="8.848446288499748"><ele>356.0</ele><time>2026-04-08T13:11:28.999Z</time></trkpt><trkpt lat="34.47553483999533" lon="8.84857969509875"><ele>355.6666666666667</ele><time>2026-04-08T13:11:29.999Z</time></trkpt><trkpt lat="34.47572959819781" lon="8.84871321827566"><ele>355.3333333333333</ele><time>2026-04-08T13:11:30.999Z</time></trkpt><trkpt lat="34.47592515507158" lon="8.848846917375605"><ele>355.0</ele><time>2026-04-08T13:11:31.999Z</time></trkpt><trkpt lat="34.4761146897962" lon="8.848975485741072"><ele>354.66666666666663</ele><time>2026-04-08T13:11:32.999Z</time></trkpt><trkpt lat="34.47630730226627" lon="8.849111937215648"><ele>354.3333333333333</ele><time>2026-04-08T13:11:33.999Z</time></trkpt><trkpt lat="34.47649486361212" lon="8.849249712441289"><ele>354.0</ele><time>2026-04-08T13:11:34.999Z</time></trkpt><trkpt lat="34.47668459724004" lon="8.849390942559232"><ele>353.6666666666667</ele><time>2026-04-08T13:11:35.999Z</time></trkpt><trkpt lat="34.47687336033243" lon="8.849527609970625"><ele>353.33333333333337</ele><time>2026-04-08T13:11:36.999Z</time></trkpt><trkpt lat="34.47706304453804" lon="8.84965720846777"><ele>353.0</ele><time>2026-04-08T13:11:37.999Z</time></trkpt><trkpt lat="34.47725652038734" lon="8.849786203479084"><ele>353.33333333333337</ele><time>2026-04-08T13:11:38.999Z</time></trkpt><trkpt lat="34.47744695523378" lon="8.849916105096472"><ele>353.6666666666667</ele><time>2026-04-08T13:11:39.999Z</time></trkpt><trkpt lat="34.47763790445917" lon="8.85004692608336"><ele>354.0</ele><time>2026-04-08T13:11:40.999Z</time></trkpt><trkpt lat="34.47783099280728" lon="8.850177852273537"><ele>355.6666666666667</ele><time>2026-04-08T13:11:41.999Z</time></trkpt><trkpt lat="34.47802602841991" lon="8.850307303217695"><ele>357.33333333333337</ele><time>2026-04-08T13:11:42.999Z</time></trkpt><trkpt lat="34.47821820556298" lon="8.850437104611656"><ele>359.0</ele><time>2026-04-08T13:11:43.999Z</time></trkpt><trkpt lat="34.478406100576606" lon="8.850571656025574"><ele>359.0</ele><time>2026-04-08T13:11:44.999Z</time></trkpt><trkpt lat="34.4785983774529" lon="8.850706092930611"><ele>359.0</ele><time>2026-04-08T13:11:45.999Z</time></trkpt><trkpt lat="34.4787902852311" lon="8.850842595652486"><ele>359.0</ele><time>2026-04-08T13:11:46.999Z</time></trkpt><trkpt lat="34.478982286292016" lon="8.850976462477767"><ele>358.33333333333337</ele><time>2026-04-08T13:11:47.999Z</time></trkpt><trkpt lat="34.47917537268656" lon="8.851110547724971"><ele>357.6666666666667</ele><time>2026-04-08T13:11:48.999Z</time></trkpt><trkpt lat="34.47936652032135" lon="8.851243577268217"><ele>357.0</ele><time>2026-04-08T13:11:49.999Z</time></trkpt><trkpt lat="34.479551483716534" lon="8.851376849515022"><ele>358.0</ele><time>2026-04-08T13:11:50.999Z</time></trkpt><trkpt lat="34.47974265569244" lon="8.851512334089353"><ele>359.0</ele><time>2026-04-08T13:11:51.999Z</time></trkpt><trkpt lat="34.47992747928827" lon="8.851647645667367"><ele>360.0</ele><time>2026-04-08T13:11:52.999Z</time></trkpt><trkpt lat="34.48011424696059" lon="8.851784805430984"><ele>359.3333333333333</ele><time>2026-04-08T13:11:53.999Z</time></trkpt><trkpt lat="34.48030422659167" lon="8.851919601333456"><ele>358.66666666666663</ele><time>2026-04-08T13:11:54.999Z</time></trkpt><trkpt lat="34.480494775365194" lon="8.852052027169067"><ele>358.0</ele><time>2026-04-08T13:11:55.999Z</time></trkpt><trkpt lat="34.480691893749054" lon="8.85218933025734"><ele>358.0</ele><time>2026-04-08T13:11:56.999Z</time></trkpt><trkpt lat="34.48089931257141" lon="8.852337692051416"><ele>358.0</ele><time>2026-04-08T13:11:57.999Z</time></trkpt><trkpt lat="34.48110781621178" lon="8.85249223321948"><ele>359.0</ele><time>2026-04-08T13:11:58.999Z</time></trkpt><trkpt lat="34.48131388149057" lon="8.852638309136335"><ele>360.0</ele><time>2026-04-08T13:11:59.999Z</time></trkpt><trkpt lat="34.481518777702625" lon="8.852789711194665"><ele>360.0</ele><time>2026-04-08T13:12:00.999Z</time></trkpt><trkpt lat="34.4817246966276" lon="8.85294422127633"><ele>360.0</ele><time>2026-04-08T13:12:01.999Z</time></trkpt><trkpt lat="34.481930074625794" lon="8.853096437270743"><ele>361.0</ele><time>2026-04-08T13:12:02.999Z</time></trkpt><trkpt lat="34.4821367636377" lon="8.853252398068598"><ele>362.0</ele><time>2026-04-08T13:12:03.999Z</time></trkpt><trkpt lat="34.48234082700629" lon="8.853404893138757"><ele>360.5</ele><time>2026-04-08T13:12:04.999Z</time></trkpt><trkpt lat="34.48254859085303" lon="8.853559099780645"><ele>359.0</ele><time>2026-04-08T13:12:05.999Z</time></trkpt><trkpt lat="34.48275135872668" lon="8.8537112504303"><ele>359.5</ele><time>2026-04-08T13:12:06.999Z</time></trkpt><trkpt lat="34.48295181198912" lon="8.853868832602691"><ele>360.0</ele><time>2026-04-08T13:12:07.999Z</time></trkpt><trkpt lat="34.48315078041354" lon="8.854019497923"><ele>360.0</ele><time>2026-04-08T13:12:08.999Z</time></trkpt><trkpt lat="34.483354794732065" lon="8.8541794317328"><ele>360.0</ele><time>2026-04-08T13:12:09.999Z</time></trkpt><trkpt lat="34.48355507139103" lon="8.854333338463976"><ele>359.0</ele><time>2026-04-08T13:12:10.999Z</time></trkpt><trkpt lat="34.483759468200795" lon="8.854489367551464"><ele>358.0</ele><time>2026-04-08T13:12:11.999Z</time></trkpt><trkpt lat="34.48396236236552" lon="8.854646675579511"><ele>361.0</ele><time>2026-04-08T13:12:12.999Z</time></trkpt><trkpt lat="34.48416570512371" lon="8.854798493281406"><ele>364.0</ele><time>2026-04-08T13:12:13.999Z</time></trkpt><trkpt lat="34.48437703100012" lon="8.854952233745973"><ele>364.0</ele><time>2026-04-08T13:12:14.999Z</time></trkpt><trkpt lat="34.48458163164929" lon="8.855098586723999"><ele>364.0</ele><time>2026-04-08T13:12:15.999Z</time></trkpt><trkpt lat="34.48478430129361" lon="8.855254802969526"><ele>362.5</ele><time>2026-04-08T13:12:16.999Z</time></trkpt><trkpt lat="34.484984221076544" lon="8.855414697872568"><ele>361.0</ele><time>2026-04-08T13:12:17.999Z</time></trkpt><trkpt lat="34.48518385811228" lon="8.855570840547738"><ele>361.0</ele><time>2026-04-08T13:12:18.999Z</time></trkpt><trkpt lat="34.48538958272912" lon="8.85572312958258"><ele>361.0</ele><time>2026-04-08T13:12:19.999Z</time></trkpt><trkpt lat="34.48559940951453" lon="8.855873675405231"><ele>363.0</ele><time>2026-04-08T13:12:20.999Z</time></trkpt><trkpt lat="34.48580758415895" lon="8.856026137767623"><ele>365.0</ele><time>2026-04-08T13:12:21.999Z</time></trkpt><trkpt lat="34.486010035419596" lon="8.85617862900485"><ele>365.0</ele><time>2026-04-08T13:12:22.999Z</time></trkpt><trkpt lat="34.48619833911375" lon="8.856324603731563"><ele>365.0</ele><time>2026-04-08T13:12:23.999Z</time></trkpt><trkpt lat="34.48638338531679" lon="8.856462516045658"><ele>365.0</ele><time>2026-04-08T13:12:24.999Z</time></trkpt><trkpt lat="34.486561253639664" lon="8.856599999331689"><ele>365.0</ele><time>2026-04-08T13:12:25.999Z</time></trkpt><trkpt lat="34.48673712502112" lon="8.856735788541998"><ele>365.0</ele><time>2026-04-08T13:12:26.999Z</time></trkpt><trkpt lat="34.48690061910496" lon="8.856859143590778"><ele>365.0</ele><time>2026-04-08T13:12:27.999Z</time></trkpt><trkpt lat="34.48706685112503" lon="8.85698351910411"><ele>365.33333333333337</ele><time>2026-04-08T13:12:28.999Z</time></trkpt><trkpt lat="34.48723313501915" lon="8.857110610635655"><ele>365.6666666666667</ele><time>2026-04-08T13:12:29.999Z</time></trkpt><trkpt lat="34.487397551045675" lon="8.857238272575271"><ele>366.0</ele><time>2026-04-08T13:12:30.999Z</time></trkpt><trkpt lat="34.48756880797692" lon="8.857370172626094"><ele>366.0</ele><time>2026-04-08T13:12:31.999Z</time></trkpt><trkpt lat="34.487741444619395" lon="8.857502100658593"><ele>366.0</ele><time>2026-04-08T13:12:32.999Z</time></trkpt><trkpt lat="34.48791941171116" lon="8.857638323641469"><ele>366.0</ele><time>2026-04-08T13:12:33.999Z</time></trkpt><trkpt lat="34.488101170947886" lon="8.857775793252745"><ele>365.0</ele><time>2026-04-08T13:12:34.999Z</time></trkpt><trkpt lat="34.48828437985447" lon="8.857914715661341"><ele>364.0</ele><time>2026-04-08T13:12:35.999Z</time></trkpt><trkpt lat="34.48846687508242" lon="8.85805189175136"><ele>363.0</ele><time>2026-04-08T13:12:36.999Z</time></trkpt><trkpt lat="34.488646077264" lon="8.858187263408492"><ele>362.6666666666667</ele><time>2026-04-08T13:12:37.999Z</time></trkpt><trkpt lat="34.48882658778161" lon="8.858325778287032"><ele>362.33333333333337</ele><time>2026-04-08T13:12:38.999Z</time></trkpt><trkpt lat="34.489002366850194" lon="8.858461180500832"><ele>362.0</ele><time>2026-04-08T13:12:39.999Z</time></trkpt><trkpt lat="34.4891827107325" lon="8.85859565344359"><ele>362.0</ele><time>2026-04-08T13:12:40.999Z</time></trkpt><trkpt lat="34.48936200156967" lon="8.858727504537962"><ele>362.0</ele><time>2026-04-08T13:12:41.999Z</time></trkpt><trkpt lat="34.48953912455486" lon="8.858860849137292"><ele>362.0</ele><time>2026-04-08T13:12:42.999Z</time></trkpt><trkpt lat="34.48971737298764" lon="8.858995674264063"><ele>362.33333333333337</ele><time>2026-04-08T13:12:43.999Z</time></trkpt><trkpt lat="34.48989651727187" lon="8.859129128491707"><ele>362.6666666666667</ele><time>2026-04-08T13:12:44.999Z</time></trkpt><trkpt lat="34.49007833278275" lon="8.859261620667986"><ele>363.0</ele><time>2026-04-08T13:12:45.999Z</time></trkpt><trkpt lat="34.49025439173948" lon="8.85939094841015"><ele>363.0</ele><time>2026-04-08T13:12:46.999Z</time></trkpt><trkpt lat="34.49043267667502" lon="8.859524657094143"><ele>363.0</ele><time>2026-04-08T13:12:47.999Z</time></trkpt><trkpt lat="34.49060933328126" lon="8.859659872542892"><ele>363.0</ele><time>2026-04-08T13:12:48.999Z</time></trkpt><trkpt lat="34.49078480126081" lon="8.859794835623074"><ele>363.0</ele><time>2026-04-08T13:12:49.999Z</time></trkpt><trkpt lat="34.49096749601298" lon="8.859928834496877"><ele>363.0</ele><time>2026-04-08T13:12:50.999Z</time></trkpt><trkpt lat="34.491150638958025" lon="8.860065702731747"><ele>363.0</ele><time>2026-04-08T13:12:51.999Z</time></trkpt><trkpt lat="34.49133400037565" lon="8.860200317592543"><ele>363.6666666666667</ele><time>2026-04-08T13:12:52.999Z</time></trkpt><trkpt lat="34.49151398909601" lon="8.860335337996732"><ele>364.33333333333337</ele><time>2026-04-08T13:12:53.999Z</time></trkpt><trkpt lat="34.491692581340786" lon="8.860470642855235"><ele>365.0</ele><time>2026-04-08T13:12:54.999Z</time></trkpt><trkpt lat="34.49186746047118" lon="8.860606804359554"><ele>365.0</ele><time>2026-04-08T13:12:55.999Z</time></trkpt><trkpt lat="34.49203847098041" lon="8.860739856426433"><ele>365.0</ele><time>2026-04-08T13:12:56.999Z</time></trkpt><trkpt lat="34.492212428029994" lon="8.860874654732822"><ele>365.0</ele><time>2026-04-08T13:12:57.999Z</time></trkpt><trkpt lat="34.492388639072786" lon="8.861009014804685"><ele>364.0</ele><time>2026-04-08T13:12:58.999Z</time></trkpt><trkpt lat="34.492566443299324" lon="8.861141788018925"><ele>363.0</ele><time>2026-04-08T13:12:59.999Z</time></trkpt><trkpt lat="34.49274580998669" lon="8.861277081175416"><ele>362.0</ele><time>2026-04-08T13:13:00.999Z</time></trkpt><trkpt lat="34.49310322433002" lon="8.86154505712695"><ele>361.6666666666667</ele><time>2026-04-08T13:13:02.999Z</time></trkpt><trkpt lat="34.493283022727496" lon="8.86168048022713"><ele>361.3333333333333</ele><time>2026-04-08T13:13:03.999Z</time></trkpt><trkpt lat="34.4934610168962" lon="8.861815339670933"><ele>361.0</ele><time>2026-04-08T13:13:04.999Z</time></trkpt><trkpt lat="34.49363835212783" lon="8.861953790875488"><ele>361.3333333333333</ele><time>2026-04-08T13:13:05.999Z</time></trkpt><trkpt lat="34.49381569607419" lon="8.862089633546523"><ele>361.6666666666667</ele><time>2026-04-08T13:13:06.999Z</time></trkpt><trkpt lat="34.49399438161955" lon="8.862224357645415"><ele>362.0</ele><time>2026-04-08T13:13:07.999Z</time></trkpt><trkpt lat="34.49417205573434" lon="8.862359867051028"><ele>362.0</ele><time>2026-04-08T13:13:08.999Z</time></trkpt><trkpt lat="34.49435512661456" lon="8.862496657178443"><ele>362.0</ele><time>2026-04-08T13:13:09.999Z</time></trkpt><trkpt lat="34.49453907865145" lon="8.86263663306325"><ele>362.0</ele><time>2026-04-08T13:13:10.998Z</time></trkpt><trkpt lat="34.49471991721173" lon="8.862778638329214"><ele>362.33333333333337</ele><time>2026-04-08T13:13:11.998Z</time></trkpt><trkpt lat="34.49490104860544" lon="8.862921468297197"><ele>362.6666666666667</ele><time>2026-04-08T13:13:12.998Z</time></trkpt><trkpt lat="34.49508316974476" lon="8.86306309100158"><ele>363.0</ele><time>2026-04-08T13:13:13.998Z</time></trkpt><trkpt lat="34.495267071044694" lon="8.863203887445092"><ele>363.3333333333333</ele><time>2026-04-08T13:13:14.998Z</time></trkpt><trkpt lat="34.49545208302662" lon="8.863344948532415"><ele>363.66666666666663</ele><time>2026-04-08T13:13:15.998Z</time></trkpt><trkpt lat="34.49563375594548" lon="8.863482903173724"><ele>364.0</ele><time>2026-04-08T13:13:16.998Z</time></trkpt><trkpt lat="34.49581779854385" lon="8.863620302573873"><ele>364.3333333333333</ele><time>2026-04-08T13:13:17.998Z</time></trkpt><trkpt lat="34.49600239019504" lon="8.86375721694977"><ele>364.6666666666667</ele><time>2026-04-08T13:13:18.998Z</time></trkpt><trkpt lat="34.49619041728642" lon="8.86389619974541"><ele>365.0</ele><time>2026-04-08T13:13:19.998Z</time></trkpt><trkpt lat="34.49638905655878" lon="8.864043970396194"><ele>365.5</ele><time>2026-04-08T13:13:20.998Z</time></trkpt><trkpt lat="34.49659236351618" lon="8.864194821380325"><ele>366.0</ele><time>2026-04-08T13:13:21.998Z</time></trkpt><trkpt lat="34.49679311592045" lon="8.864347411519466"><ele>365.0</ele><time>2026-04-08T13:13:22.998Z</time></trkpt><trkpt lat="34.49699017142155" lon="8.864493636797915"><ele>364.0</ele><time>2026-04-08T13:13:23.998Z</time></trkpt><trkpt lat="34.49718700890629" lon="8.864641087097278"><ele>363.5</ele><time>2026-04-08T13:13:24.999Z</time></trkpt><trkpt lat="34.49738660075323" lon="8.864793167140057"><ele>363.0</ele><time>2026-04-08T13:13:25.999Z</time></trkpt><trkpt lat="34.49758153217695" lon="8.864944043109075"><ele>363.0</ele><time>2026-04-08T13:13:26.999Z</time></trkpt><trkpt lat="34.49777947680141" lon="8.865094396635003"><ele>363.0</ele><time>2026-04-08T13:13:27.999Z</time></trkpt><trkpt lat="34.49797892713346" lon="8.865241623954079"><ele>364.5</ele><time>2026-04-08T13:13:28.999Z</time></trkpt><trkpt lat="34.49817566667732" lon="8.865391621243885"><ele>366.0</ele><time>2026-04-08T13:13:29.999Z</time></trkpt><trkpt lat="34.498372808881406" lon="8.865543558995057"><ele>366.0</ele><time>2026-04-08T13:13:30.999Z</time></trkpt><trkpt lat="34.49857055817392" lon="8.865697842223295"><ele>366.0</ele><time>2026-04-08T13:13:31.999Z</time></trkpt><trkpt lat="34.49876814905499" lon="8.865847726259982"><ele>364.5</ele><time>2026-04-08T13:13:32.999Z</time></trkpt><trkpt lat="34.49896715727806" lon="8.86599527312102"><ele>363.0</ele><time>2026-04-08T13:13:33.999Z</time></trkpt><trkpt lat="34.49916380898793" lon="8.86614469708985"><ele>363.0</ele><time>2026-04-08T13:13:34.999Z</time></trkpt><trkpt lat="34.49935992151702" lon="8.866296570522175"><ele>363.0</ele><time>2026-04-08T13:13:35.999Z</time></trkpt><trkpt lat="34.499557046473775" lon="8.86644693585455"><ele>365.0</ele><time>2026-04-08T13:13:36.999Z</time></trkpt><trkpt lat="34.499753335082005" lon="8.86659512188549"><ele>367.0</ele><time>2026-04-08T13:13:37.999Z</time></trkpt><trkpt lat="34.49995093464639" lon="8.86674373198025"><ele>369.0</ele><time>2026-04-08T13:13:38.999Z</time></trkpt><trkpt lat="34.50014584816967" lon="8.866891566809594"><ele>371.0</ele><time>2026-04-08T13:13:39.999Z</time></trkpt><trkpt lat="34.50034222610861" lon="8.867041607628408"><ele>370.0</ele><time>2026-04-08T13:13:40.999Z</time></trkpt><trkpt lat="34.50054042993203" lon="8.867187547195494"><ele>369.0</ele><time>2026-04-08T13:13:41.999Z</time></trkpt><trkpt lat="34.500737988077" lon="8.86733473821498"><ele>369.0</ele><time>2026-04-08T13:13:42.999Z</time></trkpt><trkpt lat="34.500937152853744" lon="8.86748603401886"><ele>369.0</ele><time>2026-04-08T13:13:43.999Z</time></trkpt><trkpt lat="34.50113338233328" lon="8.867639501891949"><ele>368.5</ele><time>2026-04-08T13:13:44.999Z</time></trkpt><trkpt lat="34.50132991352768" lon="8.867796746774262"><ele>368.0</ele><time>2026-04-08T13:13:45.999Z</time></trkpt><trkpt lat="34.50152371773078" lon="8.867955654752711"><ele>368.0</ele><time>2026-04-08T13:13:46.999Z</time></trkpt><trkpt lat="34.50172027615179" lon="8.86811486455075"><ele>368.0</ele><time>2026-04-08T13:13:47.999Z</time></trkpt><trkpt lat="34.501913951840706" lon="8.86827108812797"><ele>368.0</ele><time>2026-04-08T13:13:48.999Z</time></trkpt><trkpt lat="34.50210845995452" lon="8.868428472917042"><ele>368.0</ele><time>2026-04-08T13:13:49.999Z</time></trkpt><trkpt lat="34.5023029848538" lon="8.868586440937818"><ele>367.0</ele><time>2026-04-08T13:13:50.999Z</time></trkpt><trkpt lat="34.502498602342406" lon="8.868747394867771"><ele>366.0</ele><time>2026-04-08T13:13:51.999Z</time></trkpt><trkpt lat="34.50269725370196" lon="8.868916201642369"><ele>366.0</ele><time>2026-04-08T13:13:52.999Z</time></trkpt><trkpt lat="34.50289383128531" lon="8.869083753884025"><ele>366.0</ele><time>2026-04-08T13:13:53.999Z</time></trkpt><trkpt lat="34.50308955608976" lon="8.869254250139122"><ele>367.0</ele><time>2026-04-08T13:13:54.999Z</time></trkpt><trkpt lat="34.50328415139367" lon="8.869427539665594"><ele>368.0</ele><time>2026-04-08T13:13:55.999Z</time></trkpt><trkpt lat="34.50347425549741" lon="8.869606270500137"><ele>368.0</ele><time>2026-04-08T13:13:56.999Z</time></trkpt><trkpt lat="34.503659532789854" lon="8.869793173736003"><ele>368.0</ele><time>2026-04-08T13:13:57.999Z</time></trkpt><trkpt lat="34.50383634029616" lon="8.869985567562397"><ele>366.5</ele><time>2026-04-08T13:13:58.999Z</time></trkpt><trkpt lat="34.5040131473796" lon="8.870174462720229"><ele>365.0</ele><time>2026-04-08T13:13:59.999Z</time></trkpt><trkpt lat="34.50419342758554" lon="8.870371117590008"><ele>365.0</ele><time>2026-04-08T13:14:00.999Z</time></trkpt><trkpt lat="34.504375897156834" lon="8.87057287328016"><ele>365.0</ele><time>2026-04-08T13:14:01.999Z</time></trkpt><trkpt lat="34.50456165504466" lon="8.870774411231672"><ele>365.5</ele><time>2026-04-08T13:14:02.999Z</time></trkpt><trkpt lat="34.50474689885217" lon="8.870974503375162"><ele>366.0</ele><time>2026-04-08T13:14:03.999Z</time></trkpt><trkpt lat="34.504948953939255" lon="8.871194863684783"><ele>366.0</ele><time>2026-04-08T13:14:04.999Z</time></trkpt><trkpt lat="34.505169491278814" lon="8.87143278701948"><ele>366.0</ele><time>2026-04-08T13:14:05.999Z</time></trkpt><trkpt lat="34.505407538983704" lon="8.871685125776038"><ele>366.0</ele><time>2026-04-08T13:14:06.999Z</time></trkpt><trkpt lat="34.50565215159568" lon="8.871947679818529"><ele>366.0</ele><time>2026-04-08T13:14:07.999Z</time></trkpt><trkpt lat="34.50589360500693" lon="8.872207788911275"><ele>366.0</ele><time>2026-04-08T13:14:08.999Z</time></trkpt><trkpt lat="34.50612567402817" lon="8.872458443440577"><ele>366.0</ele><time>2026-04-08T13:14:09.999Z</time></trkpt><trkpt lat="34.5063531968195" lon="8.872705426332956"><ele>366.5</ele><time>2026-04-08T13:14:10.999Z</time></trkpt><trkpt lat="34.50658793710304" lon="8.872961709180592"><ele>367.0</ele><time>2026-04-08T13:14:11.999Z</time></trkpt><trkpt lat="34.506826184795194" lon="8.87322504062722"><ele>367.5</ele><time>2026-04-08T13:14:12.999Z</time></trkpt><trkpt lat="34.5070524526104" lon="8.87347492084272"><ele>368.0</ele><time>2026-04-08T13:14:13.999Z</time></trkpt><trkpt lat="34.50727558617218" lon="8.87371438071501"><ele>368.0</ele><time>2026-04-08T13:14:14.999Z</time></trkpt><trkpt lat="34.50748933981329" lon="8.873949471463444"><ele>368.0</ele><time>2026-04-08T13:14:15.999Z</time></trkpt><trkpt lat="34.50769046432777" lon="8.8741730221674"><ele>367.0</ele><time>2026-04-08T13:14:16.999Z</time></trkpt><trkpt lat="34.50788271564307" lon="8.874386098161049"><ele>366.0</ele><time>2026-04-08T13:14:17.999Z</time></trkpt><trkpt lat="34.50807806504429" lon="8.87459904436385"><ele>366.0</ele><time>2026-04-08T13:14:18.999Z</time></trkpt><trkpt lat="34.50827159698513" lon="8.874811630849976"><ele>366.0</ele><time>2026-04-08T13:14:19.999Z</time></trkpt><trkpt lat="34.50845738836107" lon="8.875011112109936"><ele>366.0</ele><time>2026-04-08T13:14:20.999Z</time></trkpt><trkpt lat="34.5086305568156" lon="8.875198257968822"><ele>366.0</ele><time>2026-04-08T13:14:21.999Z</time></trkpt><trkpt lat="34.508796177358086" lon="8.875378574134341"><ele>367.0</ele><time>2026-04-08T13:14:22.999Z</time></trkpt><trkpt lat="34.508948313028135" lon="8.87554527213773"><ele>368.0</ele><time>2026-04-08T13:14:23.999Z</time></trkpt><trkpt lat="34.509080265274044" lon="8.87569416900502"><ele>369.0</ele><time>2026-04-08T13:14:24.999Z</time></trkpt><trkpt lat="34.50918406026739" lon="8.875812502742145"><ele>369.0</ele><time>2026-04-08T13:14:25.999Z</time></trkpt><trkpt lat="34.50927331575809" lon="8.875917783973742"><ele>369.0</ele><time>2026-04-08T13:14:26.999Z</time></trkpt><trkpt lat="34.50935102571703" lon="8.87600348649261"><ele>369.0</ele><time>2026-04-08T13:14:27.999Z</time></trkpt><trkpt lat="34.50941477497338" lon="8.876070592182765"><ele>369.0</ele><time>2026-04-08T13:14:28.999Z</time></trkpt><trkpt lat="34.50946720740935" lon="8.876128360785117"><ele>369.0</ele><time>2026-04-08T13:14:29.999Z</time></trkpt><trkpt lat="34.50951646132805" lon="8.87618589807755"><ele>368.79999999999995</ele><time>2026-04-08T13:14:30.999Z</time></trkpt><trkpt lat="34.50956102856702" lon="8.876240804370985"><ele>368.59999999999997</ele><time>2026-04-08T13:14:31.999Z</time></trkpt><trkpt lat="34.50964360964959" lon="8.87633744139345"><ele>368.4</ele><time>2026-04-08T13:14:33.999Z</time></trkpt><trkpt lat="34.50971324121337" lon="8.876406205447738"><ele>368.2</ele><time>2026-04-08T13:14:36.999Z</time></trkpt><trkpt lat="34.50978942582767" lon="8.876478217512027"><ele>368.0</ele><time>2026-04-08T13:14:38.999Z</time></trkpt><trkpt lat="34.50989488817314" lon="8.876596435260138"><ele>368.0</ele><time>2026-04-08T13:14:40.999Z</time></trkpt><trkpt lat="34.50999344409127" lon="8.876697964932205"><ele>368.0</ele><time>2026-04-08T13:14:41.999Z</time></trkpt><trkpt lat="34.51010929437466" lon="8.876832413068694"><ele>368.0</ele><time>2026-04-08T13:14:42.999Z</time></trkpt><trkpt lat="34.51021187831069" lon="8.876963549506828"><ele>368.0</ele><time>2026-04-08T13:14:43.999Z</time></trkpt><trkpt lat="34.510301065748465" lon="8.8770655416542"><ele>367.83333333333337</ele><time>2026-04-08T13:14:44.999Z</time></trkpt><trkpt lat="34.510365271037294" lon="8.87713764399129"><ele>367.6666666666667</ele><time>2026-04-08T13:14:45.999Z</time></trkpt><trkpt lat="34.51041716136217" lon="8.877192280454722"><ele>367.5</ele><time>2026-04-08T13:14:46.999Z</time></trkpt><trkpt lat="34.510469964453996" lon="8.877246849219373"><ele>367.3333333333333</ele><time>2026-04-08T13:14:47.999Z</time></trkpt><trkpt lat="34.510528773125856" lon="8.877315907298744"><ele>367.16666666666663</ele><time>2026-04-08T13:14:48.999Z</time></trkpt><trkpt lat="34.510605531264645" lon="8.877403944278164"><ele>367.0</ele><time>2026-04-08T13:14:49.999Z</time></trkpt><trkpt lat="34.510715083845376" lon="8.877527712651439"><ele>366.0</ele><time>2026-04-08T13:14:50.999Z</time></trkpt><trkpt lat="34.5108544656994" lon="8.877679394449098"><ele>365.0</ele><time>2026-04-08T13:14:51.999Z</time></trkpt><trkpt lat="34.51100726259091" lon="8.87784360610133"><ele>364.0</ele><time>2026-04-08T13:14:52.999Z</time></trkpt><trkpt lat="34.51114530480774" lon="8.877994500544395"><ele>364.3333333333333</ele><time>2026-04-08T13:14:53.999Z</time></trkpt><trkpt lat="34.51129650555761" lon="8.878162522204137"><ele>364.6666666666667</ele><time>2026-04-08T13:14:54.999Z</time></trkpt><trkpt lat="34.5114562998899" lon="8.878342183387124"><ele>365.0</ele><time>2026-04-08T13:14:55.999Z</time></trkpt><trkpt lat="34.5116097336075" lon="8.878513293285067"><ele>365.0</ele><time>2026-04-08T13:14:56.999Z</time></trkpt><trkpt lat="34.51175977460151" lon="8.87867854208436"><ele>365.0</ele><time>2026-04-08T13:14:57.999Z</time></trkpt><trkpt lat="34.51191510042055" lon="8.87885230018773"><ele>365.0</ele><time>2026-04-08T13:14:58.999Z</time></trkpt><trkpt lat="34.512066815216514" lon="8.879023584909408"><ele>365.33333333333337</ele><time>2026-04-08T13:14:59.999Z</time></trkpt><trkpt lat="34.512222095362354" lon="8.879199709165738"><ele>365.6666666666667</ele><time>2026-04-08T13:15:00.999Z</time></trkpt><trkpt lat="34.512380530970034" lon="8.879377057383055"><ele>366.0</ele><time>2026-04-08T13:15:01.999Z</time></trkpt><trkpt lat="34.512543388220955" lon="8.879562283352556"><ele>366.0</ele><time>2026-04-08T13:15:02.999Z</time></trkpt><trkpt lat="34.51270961159493" lon="8.879751380329461"><ele>366.0</ele><time>2026-04-08T13:15:03.999Z</time></trkpt><trkpt lat="34.5128790833495" lon="8.87994429081461"><ele>365.5</ele><time>2026-04-08T13:15:04.999Z</time></trkpt><trkpt lat="34.51305148471299" lon="8.880138212166868"><ele>365.0</ele><time>2026-04-08T13:15:05.999Z</time></trkpt><trkpt lat="34.51322997127739" lon="8.88033785200683"><ele>365.0</ele><time>2026-04-08T13:15:06.999Z</time></trkpt><trkpt lat="34.51341078667577" lon="8.880535640469628"><ele>365.0</ele><time>2026-04-08T13:15:07.999Z</time></trkpt><trkpt lat="34.51359074068928" lon="8.880731032997367"><ele>366.0</ele><time>2026-04-08T13:15:08.999Z</time></trkpt><trkpt lat="34.51378289730775" lon="8.880928843826863"><ele>367.0</ele><time>2026-04-08T13:15:09.999Z</time></trkpt><trkpt lat="34.51399893387352" lon="8.881138725482892"><ele>367.5</ele><time>2026-04-08T13:15:10.999Z</time></trkpt><trkpt lat="34.51424274043795" lon="8.881354286258146"><ele>368.0</ele><time>2026-04-08T13:15:11.999Z</time></trkpt><trkpt lat="34.514500155188585" lon="8.881566742155396"><ele>367.0</ele><time>2026-04-08T13:15:12.999Z</time></trkpt><trkpt lat="34.51474483014041" lon="8.88177107774192"><ele>366.0</ele><time>2026-04-08T13:15:13.999Z</time></trkpt><trkpt lat="34.51496562067624" lon="8.88195778776764"><ele>366.0</ele><time>2026-04-08T13:15:14.999Z</time></trkpt><trkpt lat="34.51518161834896" lon="8.882135295382003"><ele>366.0</ele><time>2026-04-08T13:15:15.999Z</time></trkpt><trkpt lat="34.51539763969908" lon="8.882304902150135"><ele>366.5</ele><time>2026-04-08T13:15:16.998Z</time></trkpt><trkpt lat="34.51560923797267" lon="8.882470742302209"><ele>367.0</ele><time>2026-04-08T13:15:17.998Z</time></trkpt><trkpt lat="34.5158166967823" lon="8.882639114353243"><ele>366.0</ele><time>2026-04-08T13:15:18.998Z</time></trkpt><trkpt lat="34.51601919149366" lon="8.882809459931686"><ele>365.0</ele><time>2026-04-08T13:15:19.998Z</time></trkpt><trkpt lat="34.516221493366864" lon="8.882975899422844"><ele>365.0</ele><time>2026-04-08T13:15:20.998Z</time></trkpt><trkpt lat="34.51643160184348" lon="8.88314607261015"><ele>365.0</ele><time>2026-04-08T13:15:21.998Z</time></trkpt><trkpt lat="34.51663864640451" lon="8.883315712638375"><ele>364.5</ele><time>2026-04-08T13:15:22.998Z</time></trkpt><trkpt lat="34.516844440625256" lon="8.883484733066014"><ele>364.0</ele><time>2026-04-08T13:15:23.998Z</time></trkpt><trkpt lat="34.51705113331625" lon="8.883655091077538"><ele>364.0</ele><time>2026-04-08T13:15:24.998Z</time></trkpt><trkpt lat="34.51726081554436" lon="8.883827011419005"><ele>364.0</ele><time>2026-04-08T13:15:25.998Z</time></trkpt><trkpt lat="34.51746650355138" lon="8.883995963251522"><ele>364.0</ele><time>2026-04-08T13:15:26.998Z</time></trkpt><trkpt lat="34.51767061008796" lon="8.884161933649045"><ele>364.0</ele><time>2026-04-08T13:15:27.998Z</time></trkpt><trkpt lat="34.51787375999048" lon="8.884331163234908"><ele>363.0</ele><time>2026-04-08T13:15:28.998Z</time></trkpt><trkpt lat="34.518078463907266" lon="8.88449910129401"><ele>362.0</ele><time>2026-04-08T13:15:29.998Z</time></trkpt><trkpt lat="34.51828282150632" lon="8.884666742757634"><ele>362.0</ele><time>2026-04-08T13:15:30.998Z</time></trkpt><trkpt lat="34.51848858873442" lon="8.88483616859951"><ele>362.0</ele><time>2026-04-08T13:15:31.999Z</time></trkpt><trkpt lat="34.51869291253851" lon="8.885004032649356"><ele>361.5</ele><time>2026-04-08T13:15:32.999Z</time></trkpt><trkpt lat="34.51889888395064" lon="8.88517591286518"><ele>361.0</ele><time>2026-04-08T13:15:33.999Z</time></trkpt><trkpt lat="34.51910446153431" lon="8.885343794799944"><ele>361.0</ele><time>2026-04-08T13:15:34.999Z</time></trkpt><trkpt lat="34.51930796648663" lon="8.885513149663764"><ele>361.0</ele><time>2026-04-08T13:15:35.999Z</time></trkpt><trkpt lat="34.5195111600075" lon="8.885685507560888"><ele>361.5</ele><time>2026-04-08T13:15:36.999Z</time></trkpt><trkpt lat="34.519714028791014" lon="8.885860821550256"><ele>362.0</ele><time>2026-04-08T13:15:37.999Z</time></trkpt><trkpt lat="34.51991201387727" lon="8.886036692342376"><ele>362.5</ele><time>2026-04-08T13:15:38.999Z</time></trkpt><trkpt lat="34.52010947495956" lon="8.88621476156603"><ele>363.0</ele><time>2026-04-08T13:15:39.999Z</time></trkpt><trkpt lat="34.520301478554714" lon="8.886395080949871"><ele>364.0</ele><time>2026-04-08T13:15:40.999Z</time></trkpt><trkpt lat="34.52048459277291" lon="8.886580254030088"><ele>365.0</ele><time>2026-04-08T13:15:41.999Z</time></trkpt><trkpt lat="34.520666438006295" lon="8.886776480340396"><ele>365.0</ele><time>2026-04-08T13:15:42.999Z</time></trkpt><trkpt lat="34.52084076653466" lon="8.8869811015725"><ele>365.0</ele><time>2026-04-08T13:15:43.999Z</time></trkpt><trkpt lat="34.521010185084016" lon="8.887191027119064"><ele>365.0</ele><time>2026-04-08T13:15:44.999Z</time></trkpt><trkpt lat="34.52117577745346" lon="8.887408076279225"><ele>365.0</ele><time>2026-04-08T13:15:45.999Z</time></trkpt><trkpt lat="34.52134254227488" lon="8.887623547395853"><ele>365.5</ele><time>2026-04-08T13:15:46.999Z</time></trkpt><trkpt lat="34.52150979598742" lon="8.887836046249472"><ele>366.0</ele><time>2026-04-08T13:15:47.999Z</time></trkpt><trkpt lat="34.521681180110754" lon="8.888044936008056"><ele>366.0</ele><time>2026-04-08T13:15:48.999Z</time></trkpt><trkpt lat="34.52185117725005" lon="8.888256676785657"><ele>366.0</ele><time>2026-04-08T13:15:49.999Z</time></trkpt><trkpt lat="34.52202289672521" lon="8.88847123982661"><ele>366.0</ele><time>2026-04-08T13:15:50.999Z</time></trkpt><trkpt lat="34.52219669897188" lon="8.888684536547379"><ele>366.0</ele><time>2026-04-08T13:15:51.999Z</time></trkpt><trkpt lat="34.52237136792366" lon="8.888894778968078"><ele>366.0</ele><time>2026-04-08T13:15:52.999Z</time></trkpt><trkpt lat="34.52254620838257" lon="8.889103205595193"><ele>366.0</ele><time>2026-04-08T13:15:53.999Z</time></trkpt><trkpt lat="34.52271790036114" lon="8.889311851858743"><ele>365.5</ele><time>2026-04-08T13:15:54.999Z</time></trkpt><trkpt lat="34.52289326700524" lon="8.889516080439387"><ele>365.0</ele><time>2026-04-08T13:15:55.999Z</time></trkpt><trkpt lat="34.52307601907908" lon="8.889713928504971"><ele>364.5</ele><time>2026-04-08T13:15:56.999Z</time></trkpt><trkpt lat="34.523264572489246" lon="8.889904118853869"><ele>364.0</ele><time>2026-04-08T13:15:57.999Z</time></trkpt><trkpt lat="34.52345923596867" lon="8.89008413509613"><ele>364.5</ele><time>2026-04-08T13:15:58.999Z</time></trkpt><trkpt lat="34.523654533345244" lon="8.890259254582391"><ele>365.0</ele><time>2026-04-08T13:15:59.999Z</time></trkpt><trkpt lat="34.52384946707335" lon="8.890438276800658"><ele>365.0</ele><time>2026-04-08T13:16:00.999Z</time></trkpt><trkpt lat="34.52404507284807" lon="8.890616319504783"><ele>365.0</ele><time>2026-04-08T13:16:01.999Z</time></trkpt><trkpt lat="34.524244088409944" lon="8.890792298804715"><ele>362.5</ele><time>2026-04-08T13:16:02.999Z</time></trkpt><trkpt lat="34.52444309051517" lon="8.8909687995317"><ele>360.0</ele><time>2026-04-08T13:16:03.999Z</time></trkpt><trkpt lat="34.52464529777913" lon="8.89114806995281"><ele>360.0</ele><time>2026-04-08T13:16:04.999Z</time></trkpt><trkpt lat="34.52484897711465" lon="8.891327812152676"><ele>360.0</ele><time>2026-04-08T13:16:05.999Z</time></trkpt><trkpt lat="34.52505727896601" lon="8.89150811409453"><ele>360.0</ele><time>2026-04-08T13:16:06.999Z</time></trkpt><trkpt lat="34.525263516838976" lon="8.89169086257587"><ele>360.0</ele><time>2026-04-08T13:16:07.999Z</time></trkpt><trkpt lat="34.52546590107247" lon="8.89187538061369"><ele>360.0</ele><time>2026-04-08T13:16:08.999Z</time></trkpt><trkpt lat="34.52566969790661" lon="8.892056610345815"><ele>360.0</ele><time>2026-04-08T13:16:09.999Z</time></trkpt><trkpt lat="34.52586982757357" lon="8.892240098894476"><ele>360.0</ele><time>2026-04-08T13:16:10.999Z</time></trkpt><trkpt lat="34.52607219170645" lon="8.892421523152585"><ele>360.0</ele><time>2026-04-08T13:16:11.999Z</time></trkpt><trkpt lat="34.52627553112501" lon="8.892603223367994"><ele>360.5</ele><time>2026-04-08T13:16:12.999Z</time></trkpt><trkpt lat="34.52648057099073" lon="8.892783800133481"><ele>361.0</ele><time>2026-04-08T13:16:13.999Z</time></trkpt><trkpt lat="34.52669040381251" lon="8.89296954124124"><ele>361.0</ele><time>2026-04-08T13:16:14.999Z</time></trkpt><trkpt lat="34.5269016036702" lon="8.893153977094366"><ele>361.0</ele><time>2026-04-08T13:16:15.999Z</time></trkpt><trkpt lat="34.52710893850871" lon="8.893342256347948"><ele>361.0</ele><time>2026-04-08T13:16:16.999Z</time></trkpt><trkpt lat="34.52731923491658" lon="8.893528089051747"><ele>361.0</ele><time>2026-04-08T13:16:17.999Z</time></trkpt><trkpt lat="34.527532101302654" lon="8.893709198716737"><ele>361.0</ele><time>2026-04-08T13:16:18.999Z</time></trkpt><trkpt lat="34.527740826374696" lon="8.89389220937622"><ele>361.0</ele><time>2026-04-08T13:16:19.999Z</time></trkpt><trkpt lat="34.52794367660541" lon="8.894083397654592"><ele>360.0</ele><time>2026-04-08T13:16:20.999Z</time></trkpt><trkpt lat="34.52814524447849" lon="8.894274543939204"><ele>359.0</ele><time>2026-04-08T13:16:21.999Z</time></trkpt><trkpt lat="34.52836084020068" lon="8.894453270612413"><ele>359.0</ele><time>2026-04-08T13:16:22.999Z</time></trkpt><trkpt lat="34.528569709208085" lon="8.89463398059949"><ele>359.0</ele><time>2026-04-08T13:16:23.999Z</time></trkpt><trkpt lat="34.528770685251644" lon="8.894823112598623"><ele>359.0</ele><time>2026-04-08T13:16:24.999Z</time></trkpt><trkpt lat="34.52897608092497" lon="8.895013342533366"><ele>359.0</ele><time>2026-04-08T13:16:25.999Z</time></trkpt><trkpt lat="34.52918288597026" lon="8.895198344133442"><ele>359.5</ele><time>2026-04-08T13:16:26.999Z</time></trkpt><trkpt lat="34.52939130363635" lon="8.895383004307234"><ele>360.0</ele><time>2026-04-08T13:16:27.999Z</time></trkpt><trkpt lat="34.52959824059737" lon="8.895568739476984"><ele>360.5</ele><time>2026-04-08T13:16:28.999Z</time></trkpt><trkpt lat="34.52980400139994" lon="8.895754180941195"><ele>361.0</ele><time>2026-04-08T13:16:29.999Z</time></trkpt><trkpt lat="34.530009582084894" lon="8.895939180107458"><ele>361.0</ele><time>2026-04-08T13:16:30.999Z</time></trkpt><trkpt lat="34.53021866462071" lon="8.896123886744542"><ele>361.0</ele><time>2026-04-08T13:16:31.999Z</time></trkpt><trkpt lat="34.530427245252746" lon="8.896309265760474"><ele>364.0</ele><time>2026-04-08T13:16:32.999Z</time></trkpt><trkpt lat="34.53063346751734" lon="8.89649260260533"><ele>367.0</ele><time>2026-04-08T13:16:33.999Z</time></trkpt><trkpt lat="34.53084016191752" lon="8.89667719926789"><ele>365.5</ele><time>2026-04-08T13:16:34.999Z</time></trkpt><trkpt lat="34.53104658516963" lon="8.896864135553814"><ele>364.0</ele><time>2026-04-08T13:16:35.999Z</time></trkpt><trkpt lat="34.53125295432402" lon="8.897050418420081"><ele>363.5</ele><time>2026-04-08T13:16:36.999Z</time></trkpt><trkpt lat="34.531456832671296" lon="8.89723382758676"><ele>363.0</ele><time>2026-04-08T13:16:37.999Z</time></trkpt><trkpt lat="34.531664654022066" lon="8.897420576857359"><ele>363.5</ele><time>2026-04-08T13:16:38.999Z</time></trkpt><trkpt lat="34.53187267567448" lon="8.89760540314274"><ele>364.0</ele><time>2026-04-08T13:16:39.999Z</time></trkpt><trkpt lat="34.53208005318121" lon="8.897792517674572"><ele>364.5</ele><time>2026-04-08T13:16:40.999Z</time></trkpt><trkpt lat="34.53228568173603" lon="8.89797611698311"><ele>365.0</ele><time>2026-04-08T13:16:41.999Z</time></trkpt><trkpt lat="34.53247880190108" lon="8.898146000642297"><ele>365.0</ele><time>2026-04-08T13:16:42.999Z</time></trkpt><trkpt lat="34.53265151112626" lon="8.898299769083469"><ele>365.0</ele><time>2026-04-08T13:16:43.999Z</time></trkpt><trkpt lat="34.532812055011725" lon="8.898443394681118"><ele>365.0</ele><time>2026-04-08T13:16:44.999Z</time></trkpt><trkpt lat="34.53296411603096" lon="8.898581380534575"><ele>365.0</ele><time>2026-04-08T13:16:45.999Z</time></trkpt><trkpt lat="34.53311045800796" lon="8.898713669479294"><ele>365.0</ele><time>2026-04-08T13:16:46.999Z</time></trkpt><trkpt lat="34.533251202974405" lon="8.898837096850032"><ele>365.0</ele><time>2026-04-08T13:16:47.999Z</time></trkpt><trkpt lat="34.53338949050689" lon="8.898957547650857"><ele>365.0</ele><time>2026-04-08T13:16:48.999Z</time></trkpt><trkpt lat="34.53352863315808" lon="8.899078987626593"><ele>365.0</ele><time>2026-04-08T13:16:49.999Z</time></trkpt><trkpt lat="34.53365893215285" lon="8.899191697449705"><ele>365.0</ele><time>2026-04-08T13:16:50.999Z</time></trkpt><trkpt lat="34.5337836676231" lon="8.899302758579672"><ele>366.0</ele><time>2026-04-08T13:16:51.999Z</time></trkpt><trkpt lat="34.533901891908066" lon="8.899411234135322"><ele>367.0</ele><time>2026-04-08T13:16:52.999Z</time></trkpt><trkpt lat="34.53401806706018" lon="8.8995151547873"><ele>368.0</ele><time>2026-04-08T13:16:53.999Z</time></trkpt><trkpt lat="34.53413294237748" lon="8.899619761860729"><ele>369.0</ele><time>2026-04-08T13:16:54.999Z</time></trkpt><trkpt lat="34.534247616513426" lon="8.899723025755334"><ele>369.0</ele><time>2026-04-08T13:16:55.999Z</time></trkpt><trkpt lat="34.53436321907157" lon="8.899828271143154"><ele>369.0</ele><time>2026-04-08T13:16:56.999Z</time></trkpt><trkpt lat="34.534481222673364" lon="8.899935008201547"><ele>369.0</ele><time>2026-04-08T13:16:57.999Z</time></trkpt><trkpt lat="34.53459775130883" lon="8.900040194727675"><ele>369.0</ele><time>2026-04-08T13:16:58.999Z</time></trkpt><trkpt lat="34.53471868381254" lon="8.90014533855534"><ele>368.6666666666667</ele><time>2026-04-08T13:16:59.999Z</time></trkpt><trkpt lat="34.5348383140193" lon="8.900252421215589"><ele>368.33333333333337</ele><time>2026-04-08T13:17:00.999Z</time></trkpt><trkpt lat="34.53496025093299" lon="8.90036170281571"><ele>368.0</ele><time>2026-04-08T13:17:01.999Z</time></trkpt><trkpt lat="34.535082177964675" lon="8.90046934632991"><ele>368.0</ele><time>2026-04-08T13:17:02.999Z</time></trkpt><trkpt lat="34.535202624830625" lon="8.900577273535959"><ele>368.0</ele><time>2026-04-08T13:17:03.999Z</time></trkpt><trkpt lat="34.535320161481415" lon="8.900682541517378"><ele>368.0</ele><time>2026-04-08T13:17:04.999Z</time></trkpt><trkpt lat="34.53543554545181" lon="8.900787397127129"><ele>368.0</ele><time>2026-04-08T13:17:05.999Z</time></trkpt><trkpt lat="34.535543607637265" lon="8.900885564042646"><ele>368.75</ele><time>2026-04-08T13:17:06.999Z</time></trkpt><trkpt lat="34.53564719987952" lon="8.900978365079977"><ele>369.5</ele><time>2026-04-08T13:17:08Z</time></trkpt><trkpt lat="34.53574104124928" lon="8.9010629580872"><ele>370.25</ele><time>2026-04-08T13:17:09Z</time></trkpt><trkpt lat="34.53582856771445" lon="8.901142328694286"><ele>371.0</ele><time>2026-04-08T13:17:10Z</time></trkpt><trkpt lat="34.53590978319115" lon="8.901215677874251"><ele>371.0</ele><time>2026-04-08T13:17:11Z</time></trkpt><trkpt lat="34.5359854211854" lon="8.901285506442507"><ele>371.0</ele><time>2026-04-08T13:17:12Z</time></trkpt><trkpt lat="34.536055316553075" lon="8.90134872321746"><ele>371.0</ele><time>2026-04-08T13:17:13Z</time></trkpt><trkpt lat="34.536116055224944" lon="8.901405873281385"><ele>371.0</ele><time>2026-04-08T13:17:14Z</time></trkpt><trkpt lat="34.53617881586668" lon="8.901459684572036"><ele>371.0</ele><time>2026-04-08T13:17:15Z</time></trkpt><trkpt lat="34.536244823943605" lon="8.901513253546904"><ele>371.0</ele><time>2026-04-08T13:17:16Z</time></trkpt><trkpt lat="34.53631085861695" lon="8.901569793420096"><ele>371.20000000000005</ele><time>2026-04-08T13:17:17Z</time></trkpt><trkpt lat="34.5363763024959" lon="8.90163099809154"><ele>371.40000000000003</ele><time>2026-04-08T13:17:18Z</time></trkpt><trkpt lat="34.536448802194464" lon="8.901694863428256"><ele>371.6</ele><time>2026-04-08T13:17:19Z</time></trkpt><trkpt lat="34.53652912726654" lon="8.90176409344718"><ele>371.8</ele><time>2026-04-08T13:17:20Z</time></trkpt><trkpt lat="34.536615177263606" lon="8.901838110755893"><ele>372.0</ele><time>2026-04-08T13:17:21Z</time></trkpt><trkpt lat="34.5367083074989" lon="8.901914004677046"><ele>372.0</ele><time>2026-04-08T13:17:22Z</time></trkpt><trkpt lat="34.536807866976396" lon="8.901990050876634"><ele>372.0</ele><time>2026-04-08T13:17:22.999Z</time></trkpt><trkpt lat="34.53690990318323" lon="8.902075844006461"><ele>372.0</ele><time>2026-04-08T13:17:23.999Z</time></trkpt><trkpt lat="34.53701100900119" lon="8.902176321815489"><ele>372.0</ele><time>2026-04-08T13:17:24.999Z</time></trkpt><trkpt lat="34.53710440230073" lon="8.902271676788835"><ele>372.0</ele><time>2026-04-08T13:17:25.999Z</time></trkpt><trkpt lat="34.53719756942634" lon="8.902355822220835"><ele>372.0</ele><time>2026-04-08T13:17:26.999Z</time></trkpt><trkpt lat="34.53728545026329" lon="8.902433966514236"><ele>372.0</ele><time>2026-04-08T13:17:27.999Z</time></trkpt><trkpt lat="34.53736950473695" lon="8.902509919499105"><ele>372.0</ele><time>2026-04-08T13:17:28.999Z</time></trkpt><trkpt lat="34.53744924195926" lon="8.902579865172628"><ele>372.0</ele><time>2026-04-08T13:17:29.999Z</time></trkpt><trkpt lat="34.53752594842626" lon="8.902650642374201"><ele>371.75</ele><time>2026-04-08T13:17:30.999Z</time></trkpt><trkpt lat="34.537611791352326" lon="8.902729422896051"><ele>371.5</ele><time>2026-04-08T13:17:31.999Z</time></trkpt><trkpt lat="34.5377067796023" lon="8.902818753726272"><ele>371.25</ele><time>2026-04-08T13:17:32.999Z</time></trkpt><trkpt lat="34.537810599371646" lon="8.9029137081746"><ele>371.0</ele><time>2026-04-08T13:17:33.999Z</time></trkpt><trkpt lat="34.53792788837325" lon="8.903012479081308"><ele>371.0</ele><time>2026-04-08T13:17:34.999Z</time></trkpt><trkpt lat="34.538055230127746" lon="8.90312263152409"><ele>371.0</ele><time>2026-04-08T13:17:35.999Z</time></trkpt><trkpt lat="34.538187313558176" lon="8.903247053178525"><ele>371.0</ele><time>2026-04-08T13:17:36.999Z</time></trkpt><trkpt lat="34.53832945082155" lon="8.90337766868027"><ele>371.33333333333337</ele><time>2026-04-08T13:17:37.999Z</time></trkpt><trkpt lat="34.53847693116747" lon="8.903513270749087"><ele>371.6666666666667</ele><time>2026-04-08T13:17:38.999Z</time></trkpt><trkpt lat="34.538618689113626" lon="8.90363912704266"><ele>372.0</ele><time>2026-04-08T13:17:39.999Z</time></trkpt><trkpt lat="34.538751079805344" lon="8.903753770872914"><ele>372.0</ele><time>2026-04-08T13:17:40.999Z</time></trkpt><trkpt lat="34.53888208441818" lon="8.9038687323948"><ele>372.0</ele><time>2026-04-08T13:17:41.999Z</time></trkpt><trkpt lat="34.53901461118539" lon="8.903985458535809"><ele>372.0</ele><time>2026-04-08T13:17:42.999Z</time></trkpt><trkpt lat="34.53915015958868" lon="8.90410046130862"><ele>372.0</ele><time>2026-04-08T13:17:43.999Z</time></trkpt><trkpt lat="34.53928689105835" lon="8.904215996338628"><ele>372.0</ele><time>2026-04-08T13:17:44.999Z</time></trkpt><trkpt lat="34.53941718023743" lon="8.904333394666136"><ele>372.0</ele><time>2026-04-08T13:17:45.999Z</time></trkpt><trkpt lat="34.5395448550851" lon="8.904451357817159"><ele>371.75</ele><time>2026-04-08T13:17:46.999Z</time></trkpt><trkpt lat="34.53966638464241" lon="8.904556118372094"><ele>371.5</ele><time>2026-04-08T13:17:47.999Z</time></trkpt><trkpt lat="34.53977821844091" lon="8.904656818218097"><ele>371.25</ele><time>2026-04-08T13:17:48.999Z</time></trkpt><trkpt lat="34.53988733205262" lon="8.904757636369629"><ele>371.0</ele><time>2026-04-08T13:17:49.999Z</time></trkpt><trkpt lat="34.54000099560565" lon="8.904858592747509"><ele>371.0</ele><time>2026-04-08T13:17:50.999Z</time></trkpt><trkpt lat="34.54011811161951" lon="8.904956465529759"><ele>371.0</ele><time>2026-04-08T13:17:51.999Z</time></trkpt><trkpt lat="34.54023060598373" lon="8.905054928629502"><ele>371.0</ele><time>2026-04-08T13:17:52.999Z</time></trkpt><trkpt lat="34.54033904539806" lon="8.90514994642263"><ele>371.0</ele><time>2026-04-08T13:17:53.999Z</time></trkpt><trkpt lat="34.54045103132748" lon="8.905248088818594"><ele>371.5</ele><time>2026-04-08T13:17:54.999Z</time></trkpt><trkpt lat="34.54057021926266" lon="8.905355360312893"><ele>372.0</ele><time>2026-04-08T13:17:55.999Z</time></trkpt><trkpt lat="34.540691046782754" lon="8.905462647677085"><ele>372.5</ele><time>2026-04-08T13:17:56.999Z</time></trkpt><trkpt lat="34.540811767736486" lon="8.90557320884108"><ele>373.0</ele><time>2026-04-08T13:17:57.999Z</time></trkpt><trkpt lat="34.54093325717467" lon="8.905682239643841"><ele>373.0</ele><time>2026-04-08T13:17:58.999Z</time></trkpt><trkpt lat="34.54104836942937" lon="8.905784803127727"><ele>373.0</ele><time>2026-04-08T13:17:59.999Z</time></trkpt><trkpt lat="34.54116018519602" lon="8.905886113308641"><ele>373.0</ele><time>2026-04-08T13:18:00.999Z</time></trkpt><trkpt lat="34.54127510807412" lon="8.905986665127491"><ele>373.0</ele><time>2026-04-08T13:18:01.999Z</time></trkpt><trkpt lat="34.541396891744924" lon="8.906094765436896"><ele>372.3333333333333</ele><time>2026-04-08T13:18:02.999Z</time></trkpt><trkpt lat="34.541523357043694" lon="8.906208184580358"><ele>371.6666666666667</ele><time>2026-04-08T13:18:03.999Z</time></trkpt><trkpt lat="34.541650305786426" lon="8.90632424505064"><ele>371.0</ele><time>2026-04-08T13:18:04.999Z</time></trkpt><trkpt lat="34.54178307122492" lon="8.906443510218537"><ele>371.0</ele><time>2026-04-08T13:18:05.999Z</time></trkpt><trkpt lat="34.54192329872441" lon="8.9065680052134"><ele>371.0</ele><time>2026-04-08T13:18:06.999Z</time></trkpt><trkpt lat="34.54206818297584" lon="8.906698382806534"><ele>371.0</ele><time>2026-04-08T13:18:07.999Z</time></trkpt><trkpt lat="34.542216501147585" lon="8.906834009967662"><ele>371.0</ele><time>2026-04-08T13:18:08.999Z</time></trkpt><trkpt lat="34.54237013942664" lon="8.906977040606746"><ele>371.0</ele><time>2026-04-08T13:18:09.999Z</time></trkpt><trkpt lat="34.5425253576145" lon="8.90711982500518"><ele>371.0</ele><time>2026-04-08T13:18:10.999Z</time></trkpt><trkpt lat="34.54269037534449" lon="8.907268665810687"><ele>371.0</ele><time>2026-04-08T13:18:11.999Z</time></trkpt><trkpt lat="34.54285197139286" lon="8.907412173235421"><ele>371.0</ele><time>2026-04-08T13:18:12.999Z</time></trkpt><trkpt lat="34.54301792155821" lon="8.90755713707559"><ele>371.0</ele><time>2026-04-08T13:18:13.999Z</time></trkpt><trkpt lat="34.543184160456036" lon="8.907702329816455"><ele>371.0</ele><time>2026-04-08T13:18:15Z</time></trkpt><trkpt lat="34.543357812916184" lon="8.907855246470202"><ele>371.0</ele><time>2026-04-08T13:18:16Z</time></trkpt><trkpt lat="34.543548245997485" lon="8.908017569738403"><ele>371.0</ele><time>2026-04-08T13:18:17Z</time></trkpt><trkpt lat="34.543757718523885" lon="8.908190853412334"><ele>371.0</ele><time>2026-04-08T13:18:18Z</time></trkpt><trkpt lat="34.543956213000186" lon="8.908367197552202"><ele>371.0</ele><time>2026-04-08T13:18:19Z</time></trkpt><trkpt lat="34.54414109353891" lon="8.908546630299785"><ele>372.0</ele><time>2026-04-08T13:18:20Z</time></trkpt><trkpt lat="34.54432444909078" lon="8.908732683152246"><ele>373.0</ele><time>2026-04-08T13:18:21Z</time></trkpt><trkpt lat="34.544501927636304" lon="8.9089009531451"><ele>373.66666666666663</ele><time>2026-04-08T13:18:22Z</time></trkpt><trkpt lat="34.54467736424231" lon="8.90906065279824"><ele>374.3333333333333</ele><time>2026-04-08T13:18:23Z</time></trkpt><trkpt lat="34.54484564571981" lon="8.909211496251148"><ele>375.0</ele><time>2026-04-08T13:18:24Z</time></trkpt><trkpt lat="34.54500492331299" lon="8.909348728765295"><ele>376.0</ele><time>2026-04-08T13:18:25Z</time></trkpt><trkpt lat="34.54515304121547" lon="8.909476925348773"><ele>377.0</ele><time>2026-04-08T13:18:26Z</time></trkpt><trkpt lat="34.5453011506625" lon="8.909607697415746"><ele>378.0</ele><time>2026-04-08T13:18:27Z</time></trkpt><trkpt lat="34.54545039312518" lon="8.909738377360707"><ele>377.0</ele><time>2026-04-08T13:18:28Z</time></trkpt><trkpt lat="34.54560536531374" lon="8.9098781815381"><ele>376.0</ele><time>2026-04-08T13:18:29Z</time></trkpt><trkpt lat="34.54575876198537" lon="8.910017960965924"><ele>375.0</ele><time>2026-04-08T13:18:30Z</time></trkpt><trkpt lat="34.54591446025324" lon="8.910158116966832"><ele>375.0</ele><time>2026-04-08T13:18:31Z</time></trkpt><trkpt lat="34.546075991625" lon="8.910302128196664"><ele>375.0</ele><time>2026-04-08T13:18:32Z</time></trkpt><trkpt lat="34.54624060510877" lon="8.91044806583979"><ele>375.0</ele><time>2026-04-08T13:18:33Z</time></trkpt><trkpt lat="34.54640884072511" lon="8.9105970329658"><ele>375.0</ele><time>2026-04-08T13:18:34Z</time></trkpt><trkpt lat="34.54658226201813" lon="8.910750314201051"><ele>375.0</ele><time>2026-04-08T13:18:35Z</time></trkpt><trkpt lat="34.546760243153166" lon="8.910907231968544"><ele>375.0</ele><time>2026-04-08T13:18:36Z</time></trkpt><trkpt lat="34.54693951325883" lon="8.911067362069785"><ele>374.6666666666667</ele><time>2026-04-08T13:18:37Z</time></trkpt><trkpt lat="34.54711506261367" lon="8.911224942093316"><ele>374.33333333333337</ele><time>2026-04-08T13:18:38Z</time></trkpt><trkpt lat="34.54729386882734" lon="8.91138309955301"><ele>374.0</ele><time>2026-04-08T13:18:39Z</time></trkpt><trkpt lat="34.547469803195256" lon="8.911541459137888"><ele>374.0</ele><time>2026-04-08T13:18:40Z</time></trkpt><trkpt lat="34.54764604819051" lon="8.911699817853002"><ele>374.0</ele><time>2026-04-08T13:18:41Z</time></trkpt><trkpt lat="34.54782314844343" lon="8.911859966276559"><ele>374.0</ele><time>2026-04-08T13:18:42Z</time></trkpt><trkpt lat="34.54800120916493" lon="8.912017040824997"><ele>375.6666666666667</ele><time>2026-04-08T13:18:43Z</time></trkpt><trkpt lat="34.5481777558502" lon="8.912176476356018"><ele>377.3333333333333</ele><time>2026-04-08T13:18:44Z</time></trkpt><trkpt lat="34.54835197776643" lon="8.91233821816171"><ele>379.0</ele><time>2026-04-08T13:18:45Z</time></trkpt><trkpt lat="34.548521221368205" lon="8.91249693989709"><ele>379.3333333333333</ele><time>2026-04-08T13:18:46Z</time></trkpt><trkpt lat="34.54869869669336" lon="8.912658623613032"><ele>379.6666666666667</ele><time>2026-04-08T13:18:47Z</time></trkpt><trkpt lat="34.5488756972743" lon="8.912819226680606"><ele>380.0</ele><time>2026-04-08T13:18:48Z</time></trkpt><trkpt lat="34.54905130085582" lon="8.91298127697375"><ele>379.33333333333337</ele><time>2026-04-08T13:18:49Z</time></trkpt><trkpt lat="34.54922799827512" lon="8.913145791971196"><ele>378.6666666666667</ele><time>2026-04-08T13:18:50Z</time></trkpt><trkpt lat="34.54940296948122" lon="8.913309339228645"><ele>378.0</ele><time>2026-04-08T13:18:51Z</time></trkpt><trkpt lat="34.54956283908908" lon="8.913461477511209"><ele>378.0</ele><time>2026-04-08T13:18:52Z</time></trkpt><trkpt lat="34.549710158876735" lon="8.913603573589622"><ele>378.0</ele><time>2026-04-08T13:18:53Z</time></trkpt><trkpt lat="34.54985050517693" lon="8.913737150148025"><ele>378.0</ele><time>2026-04-08T13:18:54Z</time></trkpt><trkpt lat="34.54998731144235" lon="8.91386594525968"><ele>378.0</ele><time>2026-04-08T13:18:55Z</time></trkpt><trkpt lat="34.550118707484174" lon="8.913987248679101"><ele>378.0</ele><time>2026-04-08T13:18:56Z</time></trkpt><trkpt lat="34.550245270712104" lon="8.91410187200363"><ele>378.0</ele><time>2026-04-08T13:18:57Z</time></trkpt><trkpt lat="34.55036693912974" lon="8.914211626425676"><ele>377.5</ele><time>2026-04-08T13:18:58Z</time></trkpt><trkpt lat="34.550479454956545" lon="8.914314285979536"><ele>377.0</ele><time>2026-04-08T13:18:59Z</time></trkpt><trkpt lat="34.55058168211767" lon="8.914408917655457"><ele>376.5</ele><time>2026-04-08T13:19:00Z</time></trkpt><trkpt lat="34.550673541914264" lon="8.914496312301651"><ele>376.0</ele><time>2026-04-08T13:19:01Z</time></trkpt><trkpt lat="34.55075536850791" lon="8.914573681229307"><ele>376.0</ele><time>2026-04-08T13:19:02Z</time></trkpt><trkpt lat="34.550832072646756" lon="8.914647141016236"><ele>376.0</ele><time>2026-04-08T13:19:03Z</time></trkpt><trkpt lat="34.550899472000665" lon="8.914710102344094"><ele>376.0</ele><time>2026-04-08T13:19:04Z</time></trkpt><trkpt lat="34.5509583352061" lon="8.914761521046247"><ele>376.0</ele><time>2026-04-08T13:19:05Z</time></trkpt><trkpt lat="34.55101251575056" lon="8.914809632245762"><ele>376.0</ele><time>2026-04-08T13:19:06Z</time></trkpt><trkpt lat="34.551066250762" lon="8.914860679766651"><ele>376.0</ele><time>2026-04-08T13:19:07Z</time></trkpt><trkpt lat="34.55112229283606" lon="8.914915200172006"><ele>376.0</ele><time>2026-04-08T13:19:08Z</time></trkpt><trkpt lat="34.55118028930348" lon="8.914968724833557"><ele>376.0</ele><time>2026-04-08T13:19:09Z</time></trkpt><trkpt lat="34.551243825726374" lon="8.915027135525921"><ele>376.0</ele><time>2026-04-08T13:19:10Z</time></trkpt><trkpt lat="34.551314207224586" lon="8.915090083966613"><ele>376.0</ele><time>2026-04-08T13:19:11Z</time></trkpt><trkpt lat="34.551394934509254" lon="8.915162872365105"><ele>376.0</ele><time>2026-04-08T13:19:12Z</time></trkpt><trkpt lat="34.55148463754262" lon="8.915249509432952"><ele>375.75</ele><time>2026-04-08T13:19:13Z</time></trkpt><trkpt lat="34.55158411016938" lon="8.915350370894515"><ele>375.5</ele><time>2026-04-08T13:19:14Z</time></trkpt><trkpt lat="34.55168797151091" lon="8.91545256248703"><ele>375.25</ele><time>2026-04-08T13:19:15Z</time></trkpt><trkpt lat="34.55178492544509" lon="8.915543685472732"><ele>375.0</ele><time>2026-04-08T13:19:16Z</time></trkpt><trkpt lat="34.5518720271254" lon="8.915624433188992"><ele>375.0</ele><time>2026-04-08T13:19:17Z</time></trkpt><trkpt lat="34.55195664604555" lon="8.91570272663087"><ele>375.0</ele><time>2026-04-08T13:19:18Z</time></trkpt><trkpt lat="34.55203802029383" lon="8.915776645686455"><ele>375.0</ele><time>2026-04-08T13:19:19Z</time></trkpt><trkpt lat="34.5521017641336" lon="8.915835586374161"><ele>375.0</ele><time>2026-04-08T13:19:20Z</time></trkpt><trkpt lat="34.55215324236291" lon="8.915883232817428"><ele>375.0</ele><time>2026-04-08T13:19:21Z</time></trkpt><trkpt lat="34.55224641139632" lon="8.915979663692147"><ele>375.0</ele><time>2026-04-08T13:19:23Z</time></trkpt><trkpt lat="34.5522996948937" lon="8.916030878378391"><ele>375.0</ele><time>2026-04-08T13:19:24Z</time></trkpt><trkpt lat="34.55236322882109" lon="8.916091565954298"><ele>375.0</ele><time>2026-04-08T13:19:25Z</time></trkpt><trkpt lat="34.55242912848318" lon="8.916157852048716"><ele>375.0</ele><time>2026-04-08T13:19:26Z</time></trkpt><trkpt lat="34.552508676310474" lon="8.91622893969631"><ele>375.0</ele><time>2026-04-08T13:19:27Z</time></trkpt><trkpt lat="34.552601987802646" lon="8.916311497163752"><ele>375.0</ele><time>2026-04-08T13:19:28Z</time></trkpt><trkpt lat="34.552694301743834" lon="8.916394313261412"><ele>375.0</ele><time>2026-04-08T13:19:28.999Z</time></trkpt><trkpt lat="34.552780354960085" lon="8.916471164612162"><ele>375.0</ele><time>2026-04-08T13:19:29.999Z</time></trkpt><trkpt lat="34.552868809258484" lon="8.916555551714062"><ele>375.0</ele><time>2026-04-08T13:19:30.999Z</time></trkpt><trkpt lat="34.552972494335066" lon="8.9166562339544"><ele>375.0</ele><time>2026-04-08T13:19:31.999Z</time></trkpt><trkpt lat="34.553092571260926" lon="8.916768548380135"><ele>373.0</ele><time>2026-04-08T13:19:32.999Z</time></trkpt><trkpt lat="34.55322415902183" lon="8.916890254815646"><ele>371.0</ele><time>2026-04-08T13:19:33.999Z</time></trkpt><trkpt lat="34.55336167116355" lon="8.917020148488064"><ele>369.0</ele><time>2026-04-08T13:19:34.999Z</time></trkpt><trkpt lat="34.55349380186876" lon="8.917146836527841"><ele>369.0</ele><time>2026-04-08T13:19:35.999Z</time></trkpt><trkpt lat="34.55362923616588" lon="8.917275851875186"><ele>369.0</ele><time>2026-04-08T13:19:36.999Z</time></trkpt><trkpt lat="34.55376959137138" lon="8.917405159027435"><ele>369.0</ele><time>2026-04-08T13:19:37.999Z</time></trkpt><trkpt lat="34.55391526221316" lon="8.91753703755256"><ele>369.3333333333333</ele><time>2026-04-08T13:19:38.999Z</time></trkpt><trkpt lat="34.55406157895151" lon="8.91767176901989"><ele>369.66666666666663</ele><time>2026-04-08T13:19:39.999Z</time></trkpt><trkpt lat="34.55420736359258" lon="8.91780439786606"><ele>370.0</ele><time>2026-04-08T13:19:40.999Z</time></trkpt><trkpt lat="34.55435301461886" lon="8.917947729160092"><ele>370.0</ele><time>2026-04-08T13:19:41.999Z</time></trkpt><trkpt lat="34.554496871580675" lon="8.918095535935237"><ele>370.0</ele><time>2026-04-08T13:19:42.999Z</time></trkpt><trkpt lat="34.55464552498538" lon="8.918238019651646"><ele>370.0</ele><time>2026-04-08T13:19:43.999Z</time></trkpt><trkpt lat="34.55479982530154" lon="8.918374389130861"><ele>370.3333333333333</ele><time>2026-04-08T13:19:44.999Z</time></trkpt><trkpt lat="34.55493631982278" lon="8.918507975007579"><ele>370.6666666666667</ele><time>2026-04-08T13:19:45.999Z</time></trkpt><trkpt lat="34.55507265664087" lon="8.918636865543814"><ele>371.0</ele><time>2026-04-08T13:19:46.999Z</time></trkpt><trkpt lat="34.55521778122893" lon="8.918769117864016"><ele>371.0</ele><time>2026-04-08T13:19:47.999Z</time></trkpt><trkpt lat="34.55535804653383" lon="8.91891338159883"><ele>371.0</ele><time>2026-04-08T13:19:48.999Z</time></trkpt><trkpt lat="34.55549932249611" lon="8.919061414498081"><ele>371.0</ele><time>2026-04-08T13:19:50Z</time></trkpt><trkpt lat="34.555640208612516" lon="8.919205465799172"><ele>372.0</ele><time>2026-04-08T13:19:51Z</time></trkpt><trkpt lat="34.55578078166516" lon="8.919357687168693"><ele>373.0</ele><time>2026-04-08T13:19:52Z</time></trkpt><trkpt lat="34.55592086888662" lon="8.919514976997718"><ele>374.0</ele><time>2026-04-08T13:19:53Z</time></trkpt><trkpt lat="34.556057663646165" lon="8.91967529160937"><ele>374.0</ele><time>2026-04-08T13:19:54Z</time></trkpt><trkpt lat="34.55619915868378" lon="8.919839875357777"><ele>374.0</ele><time>2026-04-08T13:19:55Z</time></trkpt><trkpt lat="34.55634585514196" lon="8.920010503102194"><ele>374.0</ele><time>2026-04-08T13:19:56Z</time></trkpt><trkpt lat="34.556490873495406" lon="8.920176777164171"><ele>374.0</ele><time>2026-04-08T13:19:57Z</time></trkpt><trkpt lat="34.556638220382595" lon="8.920352616828682"><ele>374.0</ele><time>2026-04-08T13:19:58Z</time></trkpt><trkpt lat="34.55679139605503" lon="8.92053051806855"><ele>374.0</ele><time>2026-04-08T13:19:59Z</time></trkpt><trkpt lat="34.55694922024776" lon="8.920713051717453"><ele>373.6666666666667</ele><time>2026-04-08T13:20:00Z</time></trkpt><trkpt lat="34.55710675673001" lon="8.920895228815365"><ele>373.3333333333333</ele><time>2026-04-08T13:20:01Z</time></trkpt><trkpt lat="34.55726670426424" lon="8.921083085066757"><ele>373.0</ele><time>2026-04-08T13:20:02Z</time></trkpt><trkpt lat="34.55742395908497" lon="8.921264793349911"><ele>373.0</ele><time>2026-04-08T13:20:03Z</time></trkpt><trkpt lat="34.557585543629635" lon="8.921451861878346"><ele>373.0</ele><time>2026-04-08T13:20:04Z</time></trkpt><trkpt lat="34.557748611313734" lon="8.921639303193087"><ele>373.0</ele><time>2026-04-08T13:20:05Z</time></trkpt><trkpt lat="34.557903775859224" lon="8.921822780356088"><ele>373.0</ele><time>2026-04-08T13:20:06Z</time></trkpt><trkpt lat="34.55805963449738" lon="8.922006131464157"><ele>373.0</ele><time>2026-04-08T13:20:07Z</time></trkpt><trkpt lat="34.55821460283056" lon="8.9221888809719"><ele>373.0</ele><time>2026-04-08T13:20:08Z</time></trkpt><trkpt lat="34.558369905291016" lon="8.922372614871437"><ele>373.0</ele><time>2026-04-08T13:20:09Z</time></trkpt><trkpt lat="34.558529097819715" lon="8.922557736655678"><ele>373.0</ele><time>2026-04-08T13:20:10Z</time></trkpt><trkpt lat="34.55868751376226" lon="8.922743033963041"><ele>373.0</ele><time>2026-04-08T13:20:11Z</time></trkpt><trkpt lat="34.55884677549074" lon="8.922928420438634"><ele>373.0</ele><time>2026-04-08T13:20:12Z</time></trkpt><trkpt lat="34.55900605849145" lon="8.923117099841"><ele>373.0</ele><time>2026-04-08T13:20:13Z</time></trkpt><trkpt lat="34.55916482703016" lon="8.923301535870328"><ele>373.0</ele><time>2026-04-08T13:20:14Z</time></trkpt><trkpt lat="34.55932441399964" lon="8.923483319363847"><ele>373.0</ele><time>2026-04-08T13:20:15Z</time></trkpt><trkpt lat="34.55948084980132" lon="8.923661888884283"><ele>373.0</ele><time>2026-04-08T13:20:16Z</time></trkpt><trkpt lat="34.55963492083833" lon="8.923835970912817"><ele>373.0</ele><time>2026-04-08T13:20:17Z</time></trkpt><trkpt lat="34.55977855807737" lon="8.924000208575514"><ele>373.0</ele><time>2026-04-08T13:20:18Z</time></trkpt><trkpt lat="34.55991768618129" lon="8.924158516350904"><ele>373.0</ele><time>2026-04-08T13:20:19Z</time></trkpt><trkpt lat="34.560048058296026" lon="8.92430632589543"><ele>373.0</ele><time>2026-04-08T13:20:20Z</time></trkpt><trkpt lat="34.560164506960156" lon="8.924442477574235"><ele>372.75</ele><time>2026-04-08T13:20:21Z</time></trkpt><trkpt lat="34.56026420841619" lon="8.924560090116012"><ele>372.5</ele><time>2026-04-08T13:20:22Z</time></trkpt><trkpt lat="34.56035610838139" lon="8.924669241976924"><ele>372.25</ele><time>2026-04-08T13:20:23Z</time></trkpt><trkpt lat="34.56044551890954" lon="8.924771265699224"><ele>372.0</ele><time>2026-04-08T13:20:24Z</time></trkpt><trkpt lat="34.560531428678956" lon="8.924868480554133"><ele>372.0</ele><time>2026-04-08T13:20:25Z</time></trkpt><trkpt lat="34.560612035446404" lon="8.924964476124345"><ele>372.0</ele><time>2026-04-08T13:20:26Z</time></trkpt><trkpt lat="34.56068951923224" lon="8.925060448867427"><ele>372.0</ele><time>2026-04-08T13:20:27Z</time></trkpt><trkpt lat="34.56076868457923" lon="8.925154908015948"><ele>372.0</ele><time>2026-04-08T13:20:28Z</time></trkpt><trkpt lat="34.56084937293746" lon="8.925245725159806"><ele>372.0</ele><time>2026-04-08T13:20:29Z</time></trkpt><trkpt lat="34.56092281919661" lon="8.925324604289038"><ele>371.8333333333333</ele><time>2026-04-08T13:20:30Z</time></trkpt><trkpt lat="34.56099033133987" lon="8.925399208348754"><ele>371.6666666666667</ele><time>2026-04-08T13:20:31Z</time></trkpt><trkpt lat="34.56105041099634" lon="8.92546950326705"><ele>371.5</ele><time>2026-04-08T13:20:32Z</time></trkpt><trkpt lat="34.56110699691784" lon="8.925537516666408"><ele>371.33333333333337</ele><time>2026-04-08T13:20:33Z</time></trkpt><trkpt lat="34.56115990748518" lon="8.925598297041457"><ele>371.1666666666667</ele><time>2026-04-08T13:20:34Z</time></trkpt><trkpt lat="34.56121385080021" lon="8.925656946332433"><ele>371.0</ele><time>2026-04-08T13:20:35Z</time></trkpt><trkpt lat="34.561271034580365" lon="8.925719861520037"><ele>371.33333333333337</ele><time>2026-04-08T13:20:36Z</time></trkpt><trkpt lat="34.56132663799565" lon="8.925782701443765"><ele>371.6666666666667</ele><time>2026-04-08T13:20:37Z</time></trkpt><trkpt lat="34.56138545714105" lon="8.925851640137507"><ele>372.0</ele><time>2026-04-08T13:20:38Z</time></trkpt><trkpt lat="34.5614457604304" lon="8.925922379943017"><ele>372.3333333333333</ele><time>2026-04-08T13:20:39Z</time></trkpt><trkpt lat="34.56150857266997" lon="8.925996247195219"><ele>372.66666666666663</ele><time>2026-04-08T13:20:40Z</time></trkpt><trkpt lat="34.56157476371118" lon="8.92607547755903"><ele>373.0</ele><time>2026-04-08T13:20:41Z</time></trkpt><trkpt lat="34.561640225424874" lon="8.926150123453873"><ele>373.0</ele><time>2026-04-08T13:20:42Z</time></trkpt><trkpt lat="34.56170814284889" lon="8.926227219397175"><ele>373.0</ele><time>2026-04-08T13:20:43Z</time></trkpt><trkpt lat="34.56177515130402" lon="8.926307945563659"><ele>373.0</ele><time>2026-04-08T13:20:44Z</time></trkpt><trkpt lat="34.56184457453203" lon="8.926391116650572"><ele>373.0</ele><time>2026-04-08T13:20:45Z</time></trkpt><trkpt lat="34.56191728052381" lon="8.926474483608231"><ele>373.0</ele><time>2026-04-08T13:20:46Z</time></trkpt><trkpt lat="34.56199227351429" lon="8.926558450113395"><ele>373.0</ele><time>2026-04-08T13:20:47Z</time></trkpt><trkpt lat="34.562068787665716" lon="8.926648837053317"><ele>373.0</ele><time>2026-04-08T13:20:48Z</time></trkpt><trkpt lat="34.56214779315702" lon="8.926742988338365"><ele>373.0</ele><time>2026-04-08T13:20:49Z</time></trkpt><trkpt lat="34.562231101577616" lon="8.926842330759586"><ele>373.0</ele><time>2026-04-08T13:20:50Z</time></trkpt><trkpt lat="34.56231599126041" lon="8.926944316125045"><ele>373.0</ele><time>2026-04-08T13:20:51Z</time></trkpt><trkpt lat="34.56239393765474" lon="8.927034777192729"><ele>373.0</ele><time>2026-04-08T13:20:52Z</time></trkpt><trkpt lat="34.56246451222587" lon="8.92711664833776"><ele>373.0</ele><time>2026-04-08T13:20:53Z</time></trkpt><trkpt lat="34.56252976513236" lon="8.92719202271173"><ele>373.0</ele><time>2026-04-08T13:20:54Z</time></trkpt><trkpt lat="34.562591837807076" lon="8.927263795758721"><ele>373.0</ele><time>2026-04-08T13:20:55Z</time></trkpt><trkpt lat="34.56265507502262" lon="8.927329273511862"><ele>373.0</ele><time>2026-04-08T13:20:56Z</time></trkpt><trkpt lat="34.56271818668514" lon="8.927394265556595"><ele>373.0</ele><time>2026-04-08T13:20:57Z</time></trkpt><trkpt lat="34.56277790634149" lon="8.92746106465943"><ele>373.0</ele><time>2026-04-08T13:20:58Z</time></trkpt><trkpt lat="34.56284342280426" lon="8.927540291005256"><ele>373.0</ele><time>2026-04-08T13:20:59Z</time></trkpt><trkpt lat="34.56291726254798" lon="8.927632229010328"><ele>373.0</ele><time>2026-04-08T13:21:00Z</time></trkpt><trkpt lat="34.56299799843143" lon="8.927731769846249"><ele>372.75</ele><time>2026-04-08T13:21:01Z</time></trkpt><trkpt lat="34.56308085875098" lon="8.927843201725718"><ele>372.5</ele><time>2026-04-08T13:21:02Z</time></trkpt><trkpt lat="34.56317155843235" lon="8.927958339611825"><ele>372.25</ele><time>2026-04-08T13:21:03Z</time></trkpt><trkpt lat="34.56327270754917" lon="8.928079778568685"><ele>372.0</ele><time>2026-04-08T13:21:04Z</time></trkpt><trkpt lat="34.5633815231433" lon="8.928204840773358"><ele>372.0</ele><time>2026-04-08T13:21:05Z</time></trkpt><trkpt lat="34.56349160777936" lon="8.928336893741955"><ele>372.0</ele><time>2026-04-08T13:21:06Z</time></trkpt><trkpt lat="34.56360459169622" lon="8.928479431764767"><ele>372.0</ele><time>2026-04-08T13:21:07Z</time></trkpt><trkpt lat="34.56372019240812" lon="8.928624525070006"><ele>371.6666666666667</ele><time>2026-04-08T13:21:08Z</time></trkpt><trkpt lat="34.56384135177612" lon="8.928772635177094"><ele>371.33333333333337</ele><time>2026-04-08T13:21:09Z</time></trkpt><trkpt lat="34.563968746410886" lon="8.928934581371168"><ele>371.0</ele><time>2026-04-08T13:21:10Z</time></trkpt><trkpt lat="34.56410174027679" lon="8.929099432955372"><ele>371.0</ele><time>2026-04-08T13:21:11Z</time></trkpt><trkpt lat="34.56422949752251" lon="8.929253575802313"><ele>371.0</ele><time>2026-04-08T13:21:12Z</time></trkpt><trkpt lat="34.564346791053794" lon="8.929399692784779"><ele>371.0</ele><time>2026-04-08T13:21:13Z</time></trkpt><trkpt lat="34.56446391829487" lon="8.929544948052856"><ele>371.0</ele><time>2026-04-08T13:21:14Z</time></trkpt><trkpt lat="34.56458650253603" lon="8.929696682730272"><ele>371.0</ele><time>2026-04-08T13:21:15Z</time></trkpt><trkpt lat="34.56471257285123" lon="8.929850446315873"><ele>371.0</ele><time>2026-04-08T13:21:16Z</time></trkpt><trkpt lat="34.56484204677664" lon="8.930008644180875"><ele>371.33333333333337</ele><time>2026-04-08T13:21:17Z</time></trkpt><trkpt lat="34.56497316872561" lon="8.930169482485892"><ele>371.6666666666667</ele><time>2026-04-08T13:21:18Z</time></trkpt><trkpt lat="34.565106108002574" lon="8.930336619692664"><ele>372.0</ele><time>2026-04-08T13:21:19Z</time></trkpt><trkpt lat="34.565243188952685" lon="8.930503768938824"><ele>372.0</ele><time>2026-04-08T13:21:20Z</time></trkpt><trkpt lat="34.56538705663168" lon="8.93066998500076"><ele>372.0</ele><time>2026-04-08T13:21:21Z</time></trkpt><trkpt lat="34.5655343059555" lon="8.930842510601062"><ele>372.0</ele><time>2026-04-08T13:21:22Z</time></trkpt><trkpt lat="34.56568327762759" lon="8.931023304936007"><ele>372.0</ele><time>2026-04-08T13:21:23Z</time></trkpt><trkpt lat="34.56583237104244" lon="8.931206941933848"><ele>372.0</ele><time>2026-04-08T13:21:24Z</time></trkpt><trkpt lat="34.5659818536173" lon="8.931399300435519"><ele>372.0</ele><time>2026-04-08T13:21:25Z</time></trkpt><trkpt lat="34.566133263257385" lon="8.931594623677078"><ele>373.5</ele><time>2026-04-08T13:21:26Z</time></trkpt><trkpt lat="34.56628968665798" lon="8.931792082152182"><ele>375.0</ele><time>2026-04-08T13:21:27Z</time></trkpt><trkpt lat="34.566449954870414" lon="8.93198735255813"><ele>375.0</ele><time>2026-04-08T13:21:28Z</time></trkpt><trkpt lat="34.56661378231599" lon="8.93218344865528"><ele>375.0</ele><time>2026-04-08T13:21:29Z</time></trkpt><trkpt lat="34.566776668607694" lon="8.932380637844798"><ele>373.0</ele><time>2026-04-08T13:21:30Z</time></trkpt><trkpt lat="34.56693679389301" lon="8.932576065616027"><ele>371.0</ele><time>2026-04-08T13:21:31Z</time></trkpt><trkpt lat="34.56709711855988" lon="8.93277740844114"><ele>371.0</ele><time>2026-04-08T13:21:32Z</time></trkpt><trkpt lat="34.56726049730891" lon="8.932982342626477"><ele>371.0</ele><time>2026-04-08T13:21:33Z</time></trkpt><trkpt lat="34.567418530236274" lon="8.933182958079644"><ele>371.0</ele><time>2026-04-08T13:21:34Z</time></trkpt><trkpt lat="34.56758028569716" lon="8.93338283474544"><ele>371.0</ele><time>2026-04-08T13:21:34.999Z</time></trkpt><trkpt lat="34.56774703478361" lon="8.93358307221265"><ele>371.5</ele><time>2026-04-08T13:21:35.999Z</time></trkpt><trkpt lat="34.567915795095324" lon="8.933780643941637"><ele>372.0</ele><time>2026-04-08T13:21:36.999Z</time></trkpt><trkpt lat="34.56808292324442" lon="8.933981611732852"><ele>372.0</ele><time>2026-04-08T13:21:37.999Z</time></trkpt><trkpt lat="34.56824752069365" lon="8.934182569121644"><ele>372.0</ele><time>2026-04-08T13:21:38.999Z</time></trkpt><trkpt lat="34.56841388325145" lon="8.934388279478812"><ele>372.5</ele><time>2026-04-08T13:21:39.999Z</time></trkpt><trkpt lat="34.56857871800425" lon="8.934594885841278"><ele>373.0</ele><time>2026-04-08T13:21:40.999Z</time></trkpt><trkpt lat="34.56874595533616" lon="8.934799468665389"><ele>373.0</ele><time>2026-04-08T13:21:41.999Z</time></trkpt><trkpt lat="34.56891307600784" lon="8.935004743002876"><ele>373.0</ele><time>2026-04-08T13:21:42.999Z</time></trkpt><trkpt lat="34.56908063237041" lon="8.935210392928209"><ele>372.5</ele><time>2026-04-08T13:21:43.999Z</time></trkpt><trkpt lat="34.56925210472455" lon="8.935416743887425"><ele>372.0</ele><time>2026-04-08T13:21:44.999Z</time></trkpt><trkpt lat="34.569425217228385" lon="8.935619939589195"><ele>372.0</ele><time>2026-04-08T13:21:45.999Z</time></trkpt><trkpt lat="34.56959484948418" lon="8.935823285715232"><ele>372.0</ele><time>2026-04-08T13:21:46.999Z</time></trkpt><trkpt lat="34.569759284862165" lon="8.936026528573331"><ele>373.0</ele><time>2026-04-08T13:21:47.999Z</time></trkpt><trkpt lat="34.56992223449104" lon="8.936233473969114"><ele>374.0</ele><time>2026-04-08T13:21:48.999Z</time></trkpt><trkpt lat="34.57008274914564" lon="8.936439378084861"><ele>374.0</ele><time>2026-04-08T13:21:49.999Z</time></trkpt><trkpt lat="34.57024339669535" lon="8.936642852351971"><ele>374.0</ele><time>2026-04-08T13:21:50.999Z</time></trkpt><trkpt lat="34.570407556074414" lon="8.936845430844025"><ele>374.0</ele><time>2026-04-08T13:21:51.999Z</time></trkpt><trkpt lat="34.57057303320167" lon="8.937044301629006"><ele>374.0</ele><time>2026-04-08T13:21:52.999Z</time></trkpt><trkpt lat="34.57073866589539" lon="8.937240709249764"><ele>374.0</ele><time>2026-04-08T13:21:53.999Z</time></trkpt><trkpt lat="34.57090523100653" lon="8.93743568952235"><ele>374.0</ele><time>2026-04-08T13:21:54.999Z</time></trkpt><trkpt lat="34.571071024570294" lon="8.937632257219724"><ele>374.5</ele><time>2026-04-08T13:21:55.999Z</time></trkpt><trkpt lat="34.57123483390461" lon="8.937828402449789"><ele>375.0</ele><time>2026-04-08T13:21:56.999Z</time></trkpt><trkpt lat="34.57139324825955" lon="8.938021331670855"><ele>375.0</ele><time>2026-04-08T13:21:57.999Z</time></trkpt><trkpt lat="34.571548612510156" lon="8.938211942867513"><ele>375.0</ele><time>2026-04-08T13:21:58.999Z</time></trkpt><trkpt lat="34.571703406074214" lon="8.93840225984365"><ele>375.0</ele><time>2026-04-08T13:21:59.999Z</time></trkpt><trkpt lat="34.57185630599429" lon="8.938588176309604"><ele>375.0</ele><time>2026-04-08T13:22:00.999Z</time></trkpt><trkpt lat="34.57200854905738" lon="8.938771893569204"><ele>375.0</ele><time>2026-04-08T13:22:02Z</time></trkpt><trkpt lat="34.57216227520442" lon="8.938955288135919"><ele>375.0</ele><time>2026-04-08T13:22:03Z</time></trkpt><trkpt lat="34.57231304170566" lon="8.939134111588178"><ele>375.0</ele><time>2026-04-08T13:22:04Z</time></trkpt><trkpt lat="34.57245703896519" lon="8.93930133001651"><ele>375.0</ele><time>2026-04-08T13:22:05Z</time></trkpt><trkpt lat="34.57259207117899" lon="8.939467898981636"><ele>375.0</ele><time>2026-04-08T13:22:06Z</time></trkpt><trkpt lat="34.572723625427116" lon="8.939637241094813"><ele>375.0</ele><time>2026-04-08T13:22:07Z</time></trkpt><trkpt lat="34.572850624681735" lon="8.939798202773682"><ele>375.0</ele><time>2026-04-08T13:22:08Z</time></trkpt><trkpt lat="34.57297958418378" lon="8.939955808375025"><ele>375.0</ele><time>2026-04-08T13:22:09Z</time></trkpt><trkpt lat="34.57311174620021" lon="8.940114731087958"><ele>375.3333333333333</ele><time>2026-04-08T13:22:10Z</time></trkpt><trkpt lat="34.57324629103258" lon="8.940278686064689"><ele>375.66666666666663</ele><time>2026-04-08T13:22:11Z</time></trkpt><trkpt lat="34.57338357061885" lon="8.940443803969368"><ele>376.0</ele><time>2026-04-08T13:22:12Z</time></trkpt><trkpt lat="34.57352489016383" lon="8.940614127103547"><ele>376.0</ele><time>2026-04-08T13:22:13Z</time></trkpt><trkpt lat="34.57367646983581" lon="8.940789592468963"><ele>376.0</ele><time>2026-04-08T13:22:14Z</time></trkpt><trkpt lat="34.5738363764162" lon="8.940972777162479"><ele>376.0</ele><time>2026-04-08T13:22:15Z</time></trkpt><trkpt lat="34.574001776849876" lon="8.941152155535674"><ele>375.5</ele><time>2026-04-08T13:22:16Z</time></trkpt><trkpt lat="34.574176857926375" lon="8.941334024687542"><ele>375.0</ele><time>2026-04-08T13:22:17Z</time></trkpt><trkpt lat="34.5743544462777" lon="8.941514154924414"><ele>373.5</ele><time>2026-04-08T13:22:18Z</time></trkpt><trkpt lat="34.57453554788488" lon="8.941693983171637"><ele>372.0</ele><time>2026-04-08T13:22:19Z</time></trkpt><trkpt lat="34.57471878738618" lon="8.941872747359488"><ele>372.0</ele><time>2026-04-08T13:22:20Z</time></trkpt><trkpt lat="34.57490291820316" lon="8.94205320286299"><ele>372.0</ele><time>2026-04-08T13:22:21Z</time></trkpt><trkpt lat="34.575087360906096" lon="8.94223405355362"><ele>372.0</ele><time>2026-04-08T13:22:22Z</time></trkpt><trkpt lat="34.57527219110663" lon="8.942412213956775"><ele>372.0</ele><time>2026-04-08T13:22:23Z</time></trkpt><trkpt lat="34.57545980051102" lon="8.942590750976676"><ele>372.0</ele><time>2026-04-08T13:22:24Z</time></trkpt><trkpt lat="34.57564556289917" lon="8.942771844036692"><ele>372.0</ele><time>2026-04-08T13:22:25Z</time></trkpt><trkpt lat="34.57583054208575" lon="8.942956223468913"><ele>372.0</ele><time>2026-04-08T13:22:26Z</time></trkpt><trkpt lat="34.57601306672306" lon="8.943137192098844"><ele>372.0</ele><time>2026-04-08T13:22:27Z</time></trkpt><trkpt lat="34.576199308492654" lon="8.943321972128842"><ele>371.5</ele><time>2026-04-08T13:22:28Z</time></trkpt><trkpt lat="34.576387095721024" lon="8.943507748954978"><ele>371.0</ele><time>2026-04-08T13:22:29Z</time></trkpt><trkpt lat="34.576581042774436" lon="8.943698042682039"><ele>371.0</ele><time>2026-04-08T13:22:30Z</time></trkpt><trkpt lat="34.57677351892145" lon="8.943886198258951"><ele>371.0</ele><time>2026-04-08T13:22:31Z</time></trkpt><trkpt lat="34.57696604955434" lon="8.944076464291955"><ele>372.0</ele><time>2026-04-08T13:22:32Z</time></trkpt><trkpt lat="34.57717349824106" lon="8.944281470509285"><ele>373.0</ele><time>2026-04-08T13:22:33Z</time></trkpt><trkpt lat="34.577397979697494" lon="8.944501793066584"><ele>373.0</ele><time>2026-04-08T13:22:34Z</time></trkpt><trkpt lat="34.57761065841829" lon="8.944706782559118"><ele>373.0</ele><time>2026-04-08T13:22:35Z</time></trkpt><trkpt lat="34.5778112985237" lon="8.944900019265997"><ele>374.5</ele><time>2026-04-08T13:22:36Z</time></trkpt><trkpt lat="34.578002978766776" lon="8.945084009111994"><ele>376.0</ele><time>2026-04-08T13:22:37Z</time></trkpt><trkpt lat="34.57818144351261" lon="8.945254780944563"><ele>376.0</ele><time>2026-04-08T13:22:38Z</time></trkpt><trkpt lat="34.57835847889978" lon="8.945428034482154"><ele>376.0</ele><time>2026-04-08T13:22:39Z</time></trkpt><trkpt lat="34.578532922504095" lon="8.945601463958909"><ele>375.0</ele><time>2026-04-08T13:22:40Z</time></trkpt><trkpt lat="34.57870457714638" lon="8.94577118878715"><ele>374.0</ele><time>2026-04-08T13:22:41Z</time></trkpt><trkpt lat="34.57887559861825" lon="8.945939630583014"><ele>373.0</ele><time>2026-04-08T13:22:42Z</time></trkpt><trkpt lat="34.57904895179261" lon="8.946101539093148"><ele>373.0</ele><time>2026-04-08T13:22:43Z</time></trkpt><trkpt lat="34.579224433734225" lon="8.946266265496885"><ele>373.0</ele><time>2026-04-08T13:22:44Z</time></trkpt><trkpt lat="34.5794040711558" lon="8.94643745943467"><ele>373.0</ele><time>2026-04-08T13:22:45Z</time></trkpt><trkpt lat="34.579586336847" lon="8.946609984511813"><ele>373.0</ele><time>2026-04-08T13:22:46Z</time></trkpt><trkpt lat="34.57976707859327" lon="8.946780685410328"><ele>373.3333333333333</ele><time>2026-04-08T13:22:47Z</time></trkpt><trkpt lat="34.5799430361644" lon="8.946945209609199"><ele>373.6666666666667</ele><time>2026-04-08T13:22:48Z</time></trkpt><trkpt lat="34.5801198181417" lon="8.947107595690335"><ele>374.0</ele><time>2026-04-08T13:22:49Z</time></trkpt><trkpt lat="34.5802980546934" lon="8.947265821328221"><ele>374.33333333333337</ele><time>2026-04-08T13:22:50Z</time></trkpt><trkpt lat="34.58048325025125" lon="8.947416379331797"><ele>374.6666666666667</ele><time>2026-04-08T13:22:51Z</time></trkpt><trkpt lat="34.5806733198025" lon="8.947557119051124"><ele>375.0</ele><time>2026-04-08T13:22:52Z</time></trkpt><trkpt lat="34.580872109451754" lon="8.947687090622793"><ele>375.0</ele><time>2026-04-08T13:22:53Z</time></trkpt><trkpt lat="34.581074364698466" lon="8.947809227076885"><ele>375.0</ele><time>2026-04-08T13:22:54Z</time></trkpt><trkpt lat="34.581279858037576" lon="8.94792973930107"><ele>376.0</ele><time>2026-04-08T13:22:55Z</time></trkpt><trkpt lat="34.58148190880954" lon="8.948050678819339"><ele>377.0</ele><time>2026-04-08T13:22:56Z</time></trkpt><trkpt lat="34.581685781751396" lon="8.948174178681777"><ele>377.0</ele><time>2026-04-08T13:22:57Z</time></trkpt><trkpt lat="34.58188561981875" lon="8.948298178568551"><ele>377.0</ele><time>2026-04-08T13:22:58Z</time></trkpt><trkpt lat="34.58208583204939" lon="8.94841902210697"><ele>377.0</ele><time>2026-04-08T13:22:59Z</time></trkpt><trkpt lat="34.582285276509964" lon="8.948539555029885"><ele>378.0</ele><time>2026-04-08T13:23:00Z</time></trkpt><trkpt lat="34.582489462841245" lon="8.948660812683773"><ele>379.0</ele><time>2026-04-08T13:23:01Z</time></trkpt><trkpt lat="34.58269452445819" lon="8.948781066606552"><ele>377.0</ele><time>2026-04-08T13:23:02Z</time></trkpt><trkpt lat="34.582899826096565" lon="8.94890709430064"><ele>375.0</ele><time>2026-04-08T13:23:03Z</time></trkpt><trkpt lat="34.583103032910174" lon="8.949030599102198"><ele>375.0</ele><time>2026-04-08T13:23:04Z</time></trkpt><trkpt lat="34.583311384237746" lon="8.949157858856639"><ele>375.0</ele><time>2026-04-08T13:23:05Z</time></trkpt><trkpt lat="34.58351758812729" lon="8.949283884493846"><ele>375.5</ele><time>2026-04-08T13:23:06Z</time></trkpt><trkpt lat="34.58373396268368" lon="8.949416205237462"><ele>376.0</ele><time>2026-04-08T13:23:07Z</time></trkpt><trkpt lat="34.58395955976825" lon="8.949553079539717"><ele>376.0</ele><time>2026-04-08T13:23:08Z</time></trkpt><trkpt lat="34.58419798834238" lon="8.949696256204648"><ele>376.0</ele><time>2026-04-08T13:23:09Z</time></trkpt><trkpt lat="34.58445145313823" lon="8.94984735575675"><ele>376.0</ele><time>2026-04-08T13:23:10Z</time></trkpt><trkpt lat="34.58471142866714" lon="8.950003006407792"><ele>376.0</ele><time>2026-04-08T13:23:11Z</time></trkpt><trkpt lat="34.584983561490255" lon="8.950165908232334"><ele>376.0</ele><time>2026-04-08T13:23:12Z</time></trkpt><trkpt lat="34.58524633374048" lon="8.95031992853434"><ele>376.0</ele><time>2026-04-08T13:23:13Z</time></trkpt><trkpt lat="34.58549159073182" lon="8.950464148712122"><ele>376.0</ele><time>2026-04-08T13:23:14Z</time></trkpt><trkpt lat="34.58573189105634" lon="8.950609470850067"><ele>376.0</ele><time>2026-04-08T13:23:15Z</time></trkpt><trkpt lat="34.58597111084989" lon="8.95075227659069"><ele>377.5</ele><time>2026-04-08T13:23:16Z</time></trkpt><trkpt lat="34.586203396594826" lon="8.950892419121056"><ele>379.0</ele><time>2026-04-08T13:23:17Z</time></trkpt><trkpt lat="34.586425489170395" lon="8.951026392289204"><ele>379.0</ele><time>2026-04-08T13:23:18Z</time></trkpt><trkpt lat="34.58664292659016" lon="8.951161064800838"><ele>379.0</ele><time>2026-04-08T13:23:19Z</time></trkpt><trkpt lat="34.586859248071676" lon="8.951291398425631"><ele>378.5</ele><time>2026-04-08T13:23:20Z</time></trkpt><trkpt lat="34.587077427112376" lon="8.951426056031718"><ele>378.0</ele><time>2026-04-08T13:23:21Z</time></trkpt><trkpt lat="34.58729154496269" lon="8.95155593382528"><ele>378.0</ele><time>2026-04-08T13:23:22Z</time></trkpt><trkpt lat="34.58750227192256" lon="8.951683556859518"><ele>378.0</ele><time>2026-04-08T13:23:23Z</time></trkpt><trkpt lat="34.58771521212089" lon="8.951815402166687"><ele>379.5</ele><time>2026-04-08T13:23:24Z</time></trkpt><trkpt lat="34.587923956180624" lon="8.95194533738584"><ele>381.0</ele><time>2026-04-08T13:23:25Z</time></trkpt><trkpt lat="34.58813568992666" lon="8.95207061718235"><ele>381.0</ele><time>2026-04-08T13:23:26Z</time></trkpt><trkpt lat="34.58833999382047" lon="8.952190560042185"><ele>381.0</ele><time>2026-04-08T13:23:27Z</time></trkpt><trkpt lat="34.58853811651055" lon="8.952306376660804"><ele>381.0</ele><time>2026-04-08T13:23:28Z</time></trkpt><trkpt lat="34.588738828815664" lon="8.952432422043344"><ele>379.5</ele><time>2026-04-08T13:23:29Z</time></trkpt><trkpt lat="34.58895527612146" lon="8.952564271319316"><ele>378.0</ele><time>2026-04-08T13:23:30Z</time></trkpt><trkpt lat="34.58918407509302" lon="8.952699301732904"><ele>378.0</ele><time>2026-04-08T13:23:31Z</time></trkpt><trkpt lat="34.589416689647166" lon="8.952835579767129"><ele>378.0</ele><time>2026-04-08T13:23:32Z</time></trkpt><trkpt lat="34.589643712455576" lon="8.952967962143218"><ele>379.0</ele><time>2026-04-08T13:23:33Z</time></trkpt><trkpt lat="34.58986875738506" lon="8.953102041825103"><ele>380.0</ele><time>2026-04-08T13:23:34Z</time></trkpt><trkpt lat="34.590090847353615" lon="8.953233324714727"><ele>380.0</ele><time>2026-04-08T13:23:35Z</time></trkpt><trkpt lat="34.59030923762282" lon="8.953362176898827"><ele>380.0</ele><time>2026-04-08T13:23:36Z</time></trkpt><trkpt lat="34.59052358190552" lon="8.95348527664183"><ele>379.0</ele><time>2026-04-08T13:23:37Z</time></trkpt><trkpt lat="34.59073341884023" lon="8.953602250207531"><ele>378.0</ele><time>2026-04-08T13:23:38Z</time></trkpt><trkpt lat="34.59093873625094" lon="8.95371867274444"><ele>378.0</ele><time>2026-04-08T13:23:39Z</time></trkpt><trkpt lat="34.59113121476409" lon="8.953830131613781"><ele>378.0</ele><time>2026-04-08T13:23:40Z</time></trkpt><trkpt lat="34.59132786779646" lon="8.953946739062669"><ele>378.0</ele><time>2026-04-08T13:23:40.999Z</time></trkpt><trkpt lat="34.59153012310922" lon="8.954067839849348"><ele>378.0</ele><time>2026-04-08T13:23:41.999Z</time></trkpt><trkpt lat="34.59173587083578" lon="8.954190123814778"><ele>378.0</ele><time>2026-04-08T13:23:42.999Z</time></trkpt><trkpt lat="34.591936819017775" lon="8.954313866785537"><ele>378.5</ele><time>2026-04-08T13:23:43.999Z</time></trkpt><trkpt lat="34.59213616617005" lon="8.954444561254991"><ele>379.0</ele><time>2026-04-08T13:23:44.999Z</time></trkpt><trkpt lat="34.5923337284282" lon="8.954583526930321"><ele>379.0</ele><time>2026-04-08T13:23:45.999Z</time></trkpt><trkpt lat="34.59252861589312" lon="8.954730159967253"><ele>379.0</ele><time>2026-04-08T13:23:46.999Z</time></trkpt><trkpt lat="34.59272458525403" lon="8.95488882317316"><ele>379.5</ele><time>2026-04-08T13:23:47.999Z</time></trkpt><trkpt lat="34.592919314874045" lon="8.95505136542366"><ele>380.0</ele><time>2026-04-08T13:23:48.999Z</time></trkpt><trkpt lat="34.59310692913957" lon="8.955212119912398"><ele>380.0</ele><time>2026-04-08T13:23:49.999Z</time></trkpt><trkpt lat="34.59330005116525" lon="8.955375837821718"><ele>380.0</ele><time>2026-04-08T13:23:50.999Z</time></trkpt><trkpt lat="34.5935013749858" lon="8.95553229107087"><ele>377.5</ele><time>2026-04-08T13:23:51.999Z</time></trkpt><trkpt lat="34.59370757100087" lon="8.955690216258464"><ele>375.0</ele><time>2026-04-08T13:23:52.999Z</time></trkpt><trkpt lat="34.59391182928142" lon="8.95585022247427"><ele>378.0</ele><time>2026-04-08T13:23:53.999Z</time></trkpt><trkpt lat="34.59411626739023" lon="8.956021797721077"><ele>381.0</ele><time>2026-04-08T13:23:54.999Z</time></trkpt><trkpt lat="34.59432001231225" lon="8.956199072064125"><ele>379.5</ele><time>2026-04-08T13:23:55.999Z</time></trkpt><trkpt lat="34.594525329982204" lon="8.956377806134928"><ele>378.0</ele><time>2026-04-08T13:23:56.999Z</time></trkpt><trkpt lat="34.59472564368632" lon="8.956550956502902"><ele>378.0</ele><time>2026-04-08T13:23:58Z</time></trkpt><trkpt lat="34.59492797082668" lon="8.956726533211825"><ele>378.0</ele><time>2026-04-08T13:23:59Z</time></trkpt><trkpt lat="34.595130469752775" lon="8.956902232406575"><ele>378.0</ele><time>2026-04-08T13:24:00Z</time></trkpt><trkpt lat="34.59533142599406" lon="8.957075071351209"><ele>378.0</ele><time>2026-04-08T13:24:01Z</time></trkpt><trkpt lat="34.59553789448203" lon="8.957251805048529"><ele>378.0</ele><time>2026-04-08T13:24:02Z</time></trkpt><trkpt lat="34.59575757245891" lon="8.957435175384523"><ele>378.0</ele><time>2026-04-08T13:24:03Z</time></trkpt><trkpt lat="34.59599497816356" lon="8.957628996059952"><ele>377.0</ele><time>2026-04-08T13:24:04Z</time></trkpt><trkpt lat="34.596244311244625" lon="8.957839185585161"><ele>376.0</ele><time>2026-04-08T13:24:05Z</time></trkpt><trkpt lat="34.59650945568944" lon="8.958065625410894"><ele>376.0</ele><time>2026-04-08T13:24:06Z</time></trkpt><trkpt lat="34.596787738876415" lon="8.958303552359663"><ele>376.0</ele><time>2026-04-08T13:24:07Z</time></trkpt><trkpt lat="34.597069350448535" lon="8.958538842565893"><ele>377.5</ele><time>2026-04-08T13:24:08Z</time></trkpt><trkpt lat="34.59733146910082" lon="8.958757274406025"><ele>379.0</ele><time>2026-04-08T13:24:09Z</time></trkpt><trkpt lat="34.597590811294246" lon="8.958974718758608"><ele>378.5</ele><time>2026-04-08T13:24:10Z</time></trkpt><trkpt lat="34.597845108706835" lon="8.95919033763616"><ele>378.0</ele><time>2026-04-08T13:24:11Z</time></trkpt><trkpt lat="34.598084505859966" lon="8.959399197926729"><ele>377.5</ele><time>2026-04-08T13:24:12Z</time></trkpt><trkpt lat="34.59831319643516" lon="8.959606523917659"><ele>377.0</ele><time>2026-04-08T13:24:13Z</time></trkpt><trkpt lat="34.598541819990764" lon="8.959809973224454"><ele>377.5</ele><time>2026-04-08T13:24:14Z</time></trkpt><trkpt lat="34.59877593165984" lon="8.960011963247434"><ele>378.0</ele><time>2026-04-08T13:24:15Z</time></trkpt><trkpt lat="34.59900659923043" lon="8.960207508432338"><ele>378.0</ele><time>2026-04-08T13:24:16Z</time></trkpt><trkpt lat="34.599233629305786" lon="8.960398427896354"><ele>378.0</ele><time>2026-04-08T13:24:17Z</time></trkpt><trkpt lat="34.59946061843224" lon="8.960587348786987"><ele>378.0</ele><time>2026-04-08T13:24:18Z</time></trkpt><trkpt lat="34.59968697415332" lon="8.960774716534317"><ele>378.0</ele><time>2026-04-08T13:24:19Z</time></trkpt><trkpt lat="34.59991374123715" lon="8.96096448097201"><ele>378.0</ele><time>2026-04-08T13:24:20Z</time></trkpt><trkpt lat="34.60014384779676" lon="8.961156141135051"><ele>378.0</ele><time>2026-04-08T13:24:21Z</time></trkpt><trkpt lat="34.600374044894004" lon="8.961347272341015"><ele>378.0</ele><time>2026-04-08T13:24:22Z</time></trkpt><trkpt lat="34.60060287525072" lon="8.961539127770639"><ele>378.0</ele><time>2026-04-08T13:24:23Z</time></trkpt><trkpt lat="34.600830906477206" lon="8.961731181155791"><ele>378.0</ele><time>2026-04-08T13:24:24Z</time></trkpt><trkpt lat="34.601055276016574" lon="8.961919317048666"><ele>378.0</ele><time>2026-04-08T13:24:25Z</time></trkpt><trkpt lat="34.60127325950724" lon="8.962105961960576"><ele>378.0</ele><time>2026-04-08T13:24:26Z</time></trkpt><trkpt lat="34.601489446334824" lon="8.962292872218873"><ele>378.0</ele><time>2026-04-08T13:24:27Z</time></trkpt><trkpt lat="34.6017072794791" lon="8.96247895910161"><ele>378.5</ele><time>2026-04-08T13:24:28Z</time></trkpt><trkpt lat="34.60192732243553" lon="8.962665658767483"><ele>379.0</ele><time>2026-04-08T13:24:29Z</time></trkpt><trkpt lat="34.6021517552328" lon="8.962854148931424"><ele>379.5</ele><time>2026-04-08T13:24:30Z</time></trkpt><trkpt lat="34.60237029805372" lon="8.963037691956288"><ele>380.0</ele><time>2026-04-08T13:24:31Z</time></trkpt><trkpt lat="34.602589987240165" lon="8.963225101227927"><ele>380.5</ele><time>2026-04-08T13:24:32Z</time></trkpt><trkpt lat="34.602808696073055" lon="8.963412536279712"><ele>381.0</ele><time>2026-04-08T13:24:33Z</time></trkpt><trkpt lat="34.60303440728324" lon="8.963605363729636"><ele>381.0</ele><time>2026-04-08T13:24:34Z</time></trkpt><trkpt lat="34.603260117316715" lon="8.963791833544345"><ele>381.0</ele><time>2026-04-08T13:24:35Z</time></trkpt><trkpt lat="34.60348891082029" lon="8.963980748246897"><ele>382.0</ele><time>2026-04-08T13:24:36Z</time></trkpt><trkpt lat="34.60371673201162" lon="8.964169309577969"><ele>383.0</ele><time>2026-04-08T13:24:37Z</time></trkpt><trkpt lat="34.60394066505547" lon="8.964360275283347"><ele>383.0</ele><time>2026-04-08T13:24:38Z</time></trkpt><trkpt lat="34.6041667505426" lon="8.96455244830052"><ele>383.0</ele><time>2026-04-08T13:24:39Z</time></trkpt><trkpt lat="34.604397763581396" lon="8.964745224342606"><ele>383.0</ele><time>2026-04-08T13:24:40Z</time></trkpt><trkpt lat="34.60462588356873" lon="8.964934618155201"><ele>383.0</ele><time>2026-04-08T13:24:41Z</time></trkpt><trkpt lat="34.60485118819791" lon="8.965121049171792"><ele>383.0</ele><time>2026-04-08T13:24:42Z</time></trkpt><trkpt lat="34.605072615002314" lon="8.965306312632377"><ele>383.0</ele><time>2026-04-08T13:24:43Z</time></trkpt><trkpt lat="34.6052900177487" lon="8.965490278295437"><ele>383.5</ele><time>2026-04-08T13:24:44Z</time></trkpt><trkpt lat="34.60550321543651" lon="8.965671852035898"><ele>384.0</ele><time>2026-04-08T13:24:45Z</time></trkpt><trkpt lat="34.60571975928614" lon="8.965851793938066"><ele>383.0</ele><time>2026-04-08T13:24:46Z</time></trkpt><trkpt lat="34.60593139940272" lon="8.966032175313673"><ele>382.0</ele><time>2026-04-08T13:24:47Z</time></trkpt><trkpt lat="34.60614547711339" lon="8.966211021616946"><ele>383.0</ele><time>2026-04-08T13:24:48Z</time></trkpt><trkpt lat="34.60635290261106" lon="8.966385694311514"><ele>384.0</ele><time>2026-04-08T13:24:49Z</time></trkpt><trkpt lat="34.60655610906973" lon="8.966559084532644"><ele>383.5</ele><time>2026-04-08T13:24:50Z</time></trkpt><trkpt lat="34.6067576219742" lon="8.966732242677612"><ele>383.0</ele><time>2026-04-08T13:24:51Z</time></trkpt><trkpt lat="34.60696342572061" lon="8.966909403384225"><ele>383.5</ele><time>2026-04-08T13:24:52Z</time></trkpt><trkpt lat="34.60716970239101" lon="8.967090654847501"><ele>384.0</ele><time>2026-04-08T13:24:53Z</time></trkpt><trkpt lat="34.60737941196045" lon="8.967277319190066"><ele>384.0</ele><time>2026-04-08T13:24:54Z</time></trkpt><trkpt lat="34.607595469029505" lon="8.967469257445583"><ele>384.0</ele><time>2026-04-08T13:24:55Z</time></trkpt><trkpt lat="34.60781943680148" lon="8.967671240643481"><ele>384.0</ele><time>2026-04-08T13:24:56Z</time></trkpt><trkpt lat="34.608049798826265" lon="8.967874439989375"><ele>384.0</ele><time>2026-04-08T13:24:57Z</time></trkpt><trkpt lat="34.60828782654327" lon="8.968084536545348"><ele>384.0</ele><time>2026-04-08T13:24:58Z</time></trkpt><trkpt lat="34.6085407440075" lon="8.968307276852428"><ele>384.0</ele><time>2026-04-08T13:24:59Z</time></trkpt><trkpt lat="34.608796413053234" lon="8.968529664470129"><ele>385.0</ele><time>2026-04-08T13:25:00Z</time></trkpt><trkpt lat="34.60904187664837" lon="8.96874454209996"><ele>386.0</ele><time>2026-04-08T13:25:01Z</time></trkpt><trkpt lat="34.60927489698336" lon="8.968955328030892"><ele>386.0</ele><time>2026-04-08T13:25:02Z</time></trkpt><trkpt lat="34.609502566242725" lon="8.96916541673415"><ele>386.0</ele><time>2026-04-08T13:25:03Z</time></trkpt><trkpt lat="34.60973074727905" lon="8.969369833218162"><ele>386.0</ele><time>2026-04-08T13:25:04Z</time></trkpt><trkpt lat="34.60995635842405" lon="8.969567453975964"><ele>386.0</ele><time>2026-04-08T13:25:05Z</time></trkpt><trkpt lat="34.610170192436705" lon="8.96975824810856"><ele>385.5</ele><time>2026-04-08T13:25:06Z</time></trkpt><trkpt lat="34.61037883723382" lon="8.969948013825956"><ele>385.0</ele><time>2026-04-08T13:25:07Z</time></trkpt><trkpt lat="34.61059287431025" lon="8.970142519500738"><ele>386.0</ele><time>2026-04-08T13:25:08Z</time></trkpt><trkpt lat="34.610810000475894" lon="8.97033956479395"><ele>387.0</ele><time>2026-04-08T13:25:09Z</time></trkpt><trkpt lat="34.61102830790031" lon="8.97053841434858"><ele>386.5</ele><time>2026-04-08T13:25:10Z</time></trkpt><trkpt lat="34.6112444049687" lon="8.97073478090853"><ele>386.0</ele><time>2026-04-08T13:25:11Z</time></trkpt><trkpt lat="34.61147413550455" lon="8.970938456770252"><ele>386.0</ele><time>2026-04-08T13:25:12Z</time></trkpt><trkpt lat="34.61171696527419" lon="8.971151626360324"><ele>386.0</ele><time>2026-04-08T13:25:13Z</time></trkpt><trkpt lat="34.61196230668501" lon="8.971365284336496"><ele>387.5</ele><time>2026-04-08T13:25:14Z</time></trkpt><trkpt lat="34.61219440124277" lon="8.97156728069082"><ele>389.0</ele><time>2026-04-08T13:25:15Z</time></trkpt><trkpt lat="34.61242699931846" lon="8.971772900730898"><ele>389.0</ele><time>2026-04-08T13:25:16Z</time></trkpt><trkpt lat="34.61264824171355" lon="8.97197872809623"><ele>389.0</ele><time>2026-04-08T13:25:17Z</time></trkpt><trkpt lat="34.612868932906274" lon="8.972179634452367"><ele>389.0</ele><time>2026-04-08T13:25:18Z</time></trkpt><trkpt lat="34.613092053230005" lon="8.97237891494022"><ele>389.0</ele><time>2026-04-08T13:25:19Z</time></trkpt><trkpt lat="34.61331536972711" lon="8.972581844949566"><ele>389.0</ele><time>2026-04-08T13:25:20Z</time></trkpt><trkpt lat="34.613534550517485" lon="8.972780582284976"><ele>389.0</ele><time>2026-04-08T13:25:21Z</time></trkpt><trkpt lat="34.6137621125997" lon="8.972980418043916"><ele>389.0</ele><time>2026-04-08T13:25:22Z</time></trkpt><trkpt lat="34.61398723221446" lon="8.973178440747022"><ele>389.0</ele><time>2026-04-08T13:25:23Z</time></trkpt><trkpt lat="34.6142126817853" lon="8.97338187346037"><ele>390.0</ele><time>2026-04-08T13:25:24Z</time></trkpt><trkpt lat="34.61444114323376" lon="8.973585740839264"><ele>391.0</ele><time>2026-04-08T13:25:25Z</time></trkpt><trkpt lat="34.614663545222335" lon="8.97378671351576"><ele>391.5</ele><time>2026-04-08T13:25:26Z</time></trkpt><trkpt lat="34.61488217361494" lon="8.973978820613556"><ele>392.0</ele><time>2026-04-08T13:25:27Z</time></trkpt><trkpt lat="34.615099195625184" lon="8.974166283392949"><ele>392.0</ele><time>2026-04-08T13:25:28Z</time></trkpt><trkpt lat="34.615320904639724" lon="8.974361665406397"><ele>392.0</ele><time>2026-04-08T13:25:29Z</time></trkpt><trkpt lat="34.61554774109223" lon="8.974563246865655"><ele>392.0</ele><time>2026-04-08T13:25:30Z</time></trkpt><trkpt lat="34.61577821018423" lon="8.974767352259926"><ele>392.0</ele><time>2026-04-08T13:25:31Z</time></trkpt><trkpt lat="34.61600738973823" lon="8.9749674870961"><ele>393.0</ele><time>2026-04-08T13:25:32Z</time></trkpt><trkpt lat="34.61623589613374" lon="8.975174375950532"><ele>394.0</ele><time>2026-04-08T13:25:33Z</time></trkpt><trkpt lat="34.61645988703048" lon="8.975379648262765"><ele>394.0</ele><time>2026-04-08T13:25:34Z</time></trkpt><trkpt lat="34.61668716622269" lon="8.975585140933891"><ele>394.0</ele><time>2026-04-08T13:25:35Z</time></trkpt><trkpt lat="34.61691594581206" lon="8.975787054200717"><ele>394.5</ele><time>2026-04-08T13:25:36Z</time></trkpt><trkpt lat="34.617144177211095" lon="8.975989100300007"><ele>395.0</ele><time>2026-04-08T13:25:37Z</time></trkpt><trkpt lat="34.61737096657553" lon="8.976191682439158"><ele>395.0</ele><time>2026-04-08T13:25:38.001Z</time></trkpt><trkpt lat="34.617595988218255" lon="8.976391190900532"><ele>395.0</ele><time>2026-04-08T13:25:39.001Z</time></trkpt><trkpt lat="34.617815292466055" lon="8.976585785809059"><ele>395.0</ele><time>2026-04-08T13:25:40.001Z</time></trkpt><trkpt lat="34.6180295443941" lon="8.97677460914068"><ele>395.0</ele><time>2026-04-08T13:25:41.001Z</time></trkpt><trkpt lat="34.61823977444782" lon="8.97696396744063"><ele>395.0</ele><time>2026-04-08T13:25:42.001Z</time></trkpt><trkpt lat="34.61845251963961" lon="8.977156573268497"><ele>395.0</ele><time>2026-04-08T13:25:43.001Z</time></trkpt><trkpt lat="34.61866317729817" lon="8.977347545305513"><ele>394.5</ele><time>2026-04-08T13:25:44.001Z</time></trkpt><trkpt lat="34.61887642705949" lon="8.977543182643233"><ele>394.0</ele><time>2026-04-08T13:25:45.001Z</time></trkpt><trkpt lat="34.61908980786744" lon="8.977738472459654"><ele>394.0</ele><time>2026-04-08T13:25:46.001Z</time></trkpt><trkpt lat="34.61930419821021" lon="8.977931873848446"><ele>394.0</ele><time>2026-04-08T13:25:47Z</time></trkpt><trkpt lat="34.61952125304513" lon="8.978125057733019"><ele>394.0</ele><time>2026-04-08T13:25:48Z</time></trkpt><trkpt lat="34.6197383886135" lon="8.978312335604"><ele>394.0</ele><time>2026-04-08T13:25:49Z</time></trkpt><trkpt lat="34.61995530644286" lon="8.97850525595227"><ele>393.5</ele><time>2026-04-08T13:25:50Z</time></trkpt><trkpt lat="34.620168548138885" lon="8.978697328300685"><ele>393.0</ele><time>2026-04-08T13:25:51Z</time></trkpt><trkpt lat="34.62038452950509" lon="8.97888750786215"><ele>393.0</ele><time>2026-04-08T13:25:52Z</time></trkpt><trkpt lat="34.620602447430336" lon="8.979077240553186"><ele>393.0</ele><time>2026-04-08T13:25:53Z</time></trkpt><trkpt lat="34.62081896194859" lon="8.979265995811732"><ele>394.5</ele><time>2026-04-08T13:25:54Z</time></trkpt><trkpt lat="34.62103592086789" lon="8.97945587207087"><ele>396.0</ele><time>2026-04-08T13:25:55Z</time></trkpt><trkpt lat="34.62124946721532" lon="8.979642932460676"><ele>396.5</ele><time>2026-04-08T13:25:56Z</time></trkpt><trkpt lat="34.62144097905969" lon="8.979815893675939"><ele>397.0</ele><time>2026-04-08T13:25:57Z</time></trkpt><trkpt lat="34.621627504520774" lon="8.97998184327146"><ele>397.5</ele><time>2026-04-08T13:25:58Z</time></trkpt><trkpt lat="34.62181193365458" lon="8.980146228002559"><ele>398.0</ele><time>2026-04-08T13:25:59Z</time></trkpt><trkpt lat="34.62200077926032" lon="8.980316388546262"><ele>397.0</ele><time>2026-04-08T13:26:00Z</time></trkpt><trkpt lat="34.62219109549486" lon="8.980490450138165"><ele>396.0</ele><time>2026-04-08T13:26:01Z</time></trkpt><trkpt lat="34.62239037202629" lon="8.980672173144178"><ele>396.5</ele><time>2026-04-08T13:26:02Z</time></trkpt><trkpt lat="34.62259375742003" lon="8.98085414742537"><ele>397.0</ele><time>2026-04-08T13:26:03Z</time></trkpt><trkpt lat="34.62279990527118" lon="8.981039277734501"><ele>398.0</ele><time>2026-04-08T13:26:04Z</time></trkpt><trkpt lat="34.623008850236225" lon="8.981227291545478"><ele>399.0</ele><time>2026-04-08T13:26:05Z</time></trkpt><trkpt lat="34.623220453157735" lon="8.981412034863617"><ele>399.0</ele><time>2026-04-08T13:26:06Z</time></trkpt><trkpt lat="34.62343625080016" lon="8.981598333062026"><ele>399.0</ele><time>2026-04-08T13:26:07Z</time></trkpt><trkpt lat="34.623657355185934" lon="8.981789214171345"><ele>399.5</ele><time>2026-04-08T13:26:08Z</time></trkpt><trkpt lat="34.623874007722705" lon="8.981979307597122"><ele>400.0</ele><time>2026-04-08T13:26:09Z</time></trkpt><trkpt lat="34.62409174304072" lon="8.982172457927867"><ele>400.0</ele><time>2026-04-08T13:26:10Z</time></trkpt><trkpt lat="34.6243059326953" lon="8.98236755156083"><ele>400.0</ele><time>2026-04-08T13:26:11Z</time></trkpt><trkpt lat="34.6245190318318" lon="8.982560139423926"><ele>401.0</ele><time>2026-04-08T13:26:12Z</time></trkpt><trkpt lat="34.62473676693438" lon="8.982753156155965"><ele>402.0</ele><time>2026-04-08T13:26:13Z</time></trkpt><trkpt lat="34.62495087605315" lon="8.982945280162008"><ele>402.0</ele><time>2026-04-08T13:26:14Z</time></trkpt><trkpt lat="34.62516948173246" lon="8.983142823598044"><ele>402.0</ele><time>2026-04-08T13:26:15Z</time></trkpt><trkpt lat="34.62538778135002" lon="8.98334274933653"><ele>402.0</ele><time>2026-04-08T13:26:16Z</time></trkpt><trkpt lat="34.625609524898834" lon="8.983542423746075"><ele>402.0</ele><time>2026-04-08T13:26:17Z</time></trkpt><trkpt lat="34.625830387573906" lon="8.983740663873133"><ele>402.0</ele><time>2026-04-08T13:26:18Z</time></trkpt><trkpt lat="34.626049444195296" lon="8.983937636809213"><ele>402.0</ele><time>2026-04-08T13:26:19Z</time></trkpt><trkpt lat="34.62626966795862" lon="8.984136411371788"><ele>402.5</ele><time>2026-04-08T13:26:20Z</time></trkpt><trkpt lat="34.626488516716655" lon="8.984335674384925"><ele>403.0</ele><time>2026-04-08T13:26:21Z</time></trkpt><trkpt lat="34.62670680265698" lon="8.984537008507997"><ele>403.0</ele><time>2026-04-08T13:26:22Z</time></trkpt><trkpt lat="34.62692357491416" lon="8.984740991893212"><ele>403.0</ele><time>2026-04-08T13:26:23Z</time></trkpt><trkpt lat="34.62714004263665" lon="8.984941159749049"><ele>404.0</ele><time>2026-04-08T13:26:24Z</time></trkpt><trkpt lat="34.62736119423569" lon="8.98514259534936"><ele>405.0</ele><time>2026-04-08T13:26:25Z</time></trkpt><trkpt lat="34.62758496766159" lon="8.985344642095285"><ele>404.5</ele><time>2026-04-08T13:26:26Z</time></trkpt><trkpt lat="34.62781372936991" lon="8.985554203586815"><ele>404.0</ele><time>2026-04-08T13:26:27Z</time></trkpt><trkpt lat="34.628043461069716" lon="8.985768753077132"><ele>403.5</ele><time>2026-04-08T13:26:28Z</time></trkpt><trkpt lat="34.62827518038595" lon="8.985985096221736"><ele>403.0</ele><time>2026-04-08T13:26:29Z</time></trkpt><trkpt lat="34.628502472286065" lon="8.986199944183436"><ele>403.0</ele><time>2026-04-08T13:26:30Z</time></trkpt><trkpt lat="34.62872603160806" lon="8.986407526132231"><ele>403.0</ele><time>2026-04-08T13:26:31Z</time></trkpt><trkpt lat="34.62895072417941" lon="8.986612674563638"><ele>402.5</ele><time>2026-04-08T13:26:32Z</time></trkpt><trkpt lat="34.62917455119322" lon="8.986814511574726"><ele>402.0</ele><time>2026-04-08T13:26:33Z</time></trkpt><trkpt lat="34.62939339087926" lon="8.987013101578567"><ele>402.0</ele><time>2026-04-08T13:26:34Z</time></trkpt><trkpt lat="34.629612603460416" lon="8.987212437333438"><ele>402.0</ele><time>2026-04-08T13:26:35Z</time></trkpt><trkpt lat="34.629830928155926" lon="8.98741135294728"><ele>402.0</ele><time>2026-04-08T13:26:36Z</time></trkpt><trkpt lat="34.63004990682299" lon="8.987612574031877"><ele>402.0</ele><time>2026-04-08T13:26:37Z</time></trkpt><trkpt lat="34.63026736386252" lon="8.987813539140015"><ele>403.0</ele><time>2026-04-08T13:26:38Z</time></trkpt><trkpt lat="34.63048068560785" lon="8.988019262913957"><ele>404.0</ele><time>2026-04-08T13:26:39Z</time></trkpt><trkpt lat="34.63069160035406" lon="8.988233679826562"><ele>404.0</ele><time>2026-04-08T13:26:40Z</time></trkpt><trkpt lat="34.63089795795815" lon="8.988452886787025"><ele>404.0</ele><time>2026-04-08T13:26:41Z</time></trkpt><trkpt lat="34.631105115045926" lon="8.988681798106311"><ele>405.0</ele><time>2026-04-08T13:26:42Z</time></trkpt><trkpt lat="34.631308077853184" lon="8.988914372590086"><ele>406.0</ele><time>2026-04-08T13:26:43Z</time></trkpt><trkpt lat="34.6315116164212" lon="8.98915581001832"><ele>406.0</ele><time>2026-04-08T13:26:44Z</time></trkpt><trkpt lat="34.63171038180347" lon="8.989403043337724"><ele>406.0</ele><time>2026-04-08T13:26:45Z</time></trkpt><trkpt lat="34.63191211081333" lon="8.989659742954776"><ele>406.0</ele><time>2026-04-08T13:26:46Z</time></trkpt><trkpt lat="34.63211424426519" lon="8.989912075206053"><ele>406.0</ele><time>2026-04-08T13:26:47Z</time></trkpt><trkpt lat="34.63231986061613" lon="8.990168022645024"><ele>405.5</ele><time>2026-04-08T13:26:48Z</time></trkpt><trkpt lat="34.632527262710646" lon="8.99042477125671"><ele>405.0</ele><time>2026-04-08T13:26:49Z</time></trkpt><trkpt lat="34.63273280234373" lon="8.990680466663925"><ele>404.5</ele><time>2026-04-08T13:26:50Z</time></trkpt><trkpt lat="34.63293780087386" lon="8.990931341124105"><ele>404.0</ele><time>2026-04-08T13:26:51Z</time></trkpt><trkpt lat="34.63314313494563" lon="8.991180693153883"><ele>404.0</ele><time>2026-04-08T13:26:52Z</time></trkpt><trkpt lat="34.63335019012435" lon="8.99143120727054"><ele>404.0</ele><time>2026-04-08T13:26:53Z</time></trkpt><trkpt lat="34.633552507699385" lon="8.991681750817284"><ele>404.5</ele><time>2026-04-08T13:26:54Z</time></trkpt><trkpt lat="34.63375576046753" lon="8.991935561351005"><ele>405.0</ele><time>2026-04-08T13:26:55Z</time></trkpt><trkpt lat="34.63396019308897" lon="8.992190237614576"><ele>405.0</ele><time>2026-04-08T13:26:56Z</time></trkpt><trkpt lat="34.63417028686467" lon="8.992449483576978"><ele>405.0</ele><time>2026-04-08T13:26:57Z</time></trkpt><trkpt lat="34.63438123384115" lon="8.99271031237986"><ele>406.5</ele><time>2026-04-08T13:26:58Z</time></trkpt><trkpt lat="34.63459221827212" lon="8.992971185223862"><ele>408.0</ele><time>2026-04-08T13:26:59Z</time></trkpt><trkpt lat="34.6348049982693" lon="8.993235899799867"><ele>408.0</ele><time>2026-04-08T13:27:00Z</time></trkpt><trkpt lat="34.63502241393913" lon="8.993502103319239"><ele>408.0</ele><time>2026-04-08T13:27:01Z</time></trkpt><trkpt lat="34.63524430262445" lon="8.993774620533348"><ele>408.5</ele><time>2026-04-08T13:27:02Z</time></trkpt><trkpt lat="34.63547275384601" lon="8.994057895452208"><ele>409.0</ele><time>2026-04-08T13:27:03Z</time></trkpt><trkpt lat="34.63571745869276" lon="8.994351250837553"><ele>409.0</ele><time>2026-04-08T13:27:04Z</time></trkpt><trkpt lat="34.63598123710145" lon="8.994649992783268"><ele>409.0</ele><time>2026-04-08T13:27:05Z</time></trkpt><trkpt lat="34.63625694960303" lon="8.99494522156829"><ele>409.5</ele><time>2026-04-08T13:27:06Z</time></trkpt><trkpt lat="34.636527306159444" lon="8.995224313188826"><ele>410.0</ele><time>2026-04-08T13:27:07Z</time></trkpt><trkpt lat="34.636793316416835" lon="8.995495485450748"><ele>410.5</ele><time>2026-04-08T13:27:08Z</time></trkpt><trkpt lat="34.63705823879123" lon="8.995770484111619"><ele>411.0</ele><time>2026-04-08T13:27:09Z</time></trkpt><trkpt lat="34.63731727932193" lon="8.996041640080882"><ele>411.0</ele><time>2026-04-08T13:27:10Z</time></trkpt><trkpt lat="34.637568778418185" lon="8.996305492978959"><ele>411.0</ele><time>2026-04-08T13:27:11Z</time></trkpt><trkpt lat="34.63781361350142" lon="8.996560877800734"><ele>411.5</ele><time>2026-04-08T13:27:12Z</time></trkpt><trkpt lat="34.63805319820332" lon="8.996813118876405"><ele>412.0</ele><time>2026-04-08T13:27:13Z</time></trkpt><trkpt lat="34.638281331696646" lon="8.997055392737003"><ele>412.0</ele><time>2026-04-08T13:27:14Z</time></trkpt><trkpt lat="34.638504136266526" lon="8.997291257680596"><ele>412.0</ele><time>2026-04-08T13:27:15Z</time></trkpt><trkpt lat="34.638732985120534" lon="8.99752041058094"><ele>410.0</ele><time>2026-04-08T13:27:16Z</time></trkpt><trkpt lat="34.63896006784642" lon="8.99774910914259"><ele>408.0</ele><time>2026-04-08T13:27:17Z</time></trkpt><trkpt lat="34.639181954645366" lon="8.99798375681018"><ele>408.0</ele><time>2026-04-08T13:27:18Z</time></trkpt><trkpt lat="34.639406559842975" lon="8.998222852793134"><ele>408.0</ele><time>2026-04-08T13:27:19Z</time></trkpt><trkpt lat="34.639630473723855" lon="8.998457698220834"><ele>410.5</ele><time>2026-04-08T13:27:20.001Z</time></trkpt><trkpt lat="34.63985666693054" lon="8.998692695547527"><ele>413.0</ele><time>2026-04-08T13:27:21.001Z</time></trkpt><trkpt lat="34.64008392929307" lon="8.998930796461538"><ele>411.5</ele><time>2026-04-08T13:27:22.001Z</time></trkpt><trkpt lat="34.64030833141426" lon="8.999168587833408"><ele>410.0</ele><time>2026-04-08T13:27:23.001Z</time></trkpt><trkpt lat="34.64053551002549" lon="8.9994079037435"><ele>410.0</ele><time>2026-04-08T13:27:24.001Z</time></trkpt><trkpt lat="34.64076296676027" lon="8.99964785874863"><ele>410.0</ele><time>2026-04-08T13:27:25.001Z</time></trkpt><trkpt lat="34.64098890353165" lon="8.999884707337648"><ele>411.5</ele><time>2026-04-08T13:27:26.001Z</time></trkpt><trkpt lat="34.6412141912168" lon="9.000121404231201"><ele>413.0</ele><time>2026-04-08T13:27:27.001Z</time></trkpt><trkpt lat="34.641441068767335" lon="9.000357756452027"><ele>413.0</ele><time>2026-04-08T13:27:28.001Z</time></trkpt><trkpt lat="34.64167164974749" lon="9.000594731408002"><ele>413.0</ele><time>2026-04-08T13:27:29.001Z</time></trkpt><trkpt lat="34.641901954293495" lon="9.000826633180049"><ele>413.5</ele><time>2026-04-08T13:27:30.001Z</time></trkpt><trkpt lat="34.642132358798" lon="9.001061866948316"><ele>414.0</ele><time>2026-04-08T13:27:31.001Z</time></trkpt><trkpt lat="34.64236028422475" lon="9.00129671034169"><ele>414.0</ele><time>2026-04-08T13:27:32.001Z</time></trkpt><trkpt lat="34.64258692943366" lon="9.001534268567173"><ele>414.0</ele><time>2026-04-08T13:27:33.001Z</time></trkpt><trkpt lat="34.64281587607909" lon="9.00177307272814"><ele>412.5</ele><time>2026-04-08T13:27:34.001Z</time></trkpt><trkpt lat="34.643044117819684" lon="9.002008577057364"><ele>411.0</ele><time>2026-04-08T13:27:35.001Z</time></trkpt><trkpt lat="34.643275607115115" lon="9.00224550794487"><ele>411.0</ele><time>2026-04-08T13:27:36.001Z</time></trkpt><trkpt lat="34.643505246842125" lon="9.002483863814359"><ele>411.0</ele><time>2026-04-08T13:27:37.001Z</time></trkpt><trkpt lat="34.643734445644235" lon="9.002723480857975"><ele>411.0</ele><time>2026-04-08T13:27:38.001Z</time></trkpt><trkpt lat="34.643962352885744" lon="9.002965336034777"><ele>411.0</ele><time>2026-04-08T13:27:39.001Z</time></trkpt><trkpt lat="34.64418926374399" lon="9.003207344598328"><ele>410.5</ele><time>2026-04-08T13:27:40.001Z</time></trkpt><trkpt lat="34.64441338135089" lon="9.003448503949917"><ele>410.0</ele><time>2026-04-08T13:27:41.001Z</time></trkpt><trkpt lat="34.64463945610603" lon="9.00369396225664"><ele>410.0</ele><time>2026-04-08T13:27:42.001Z</time></trkpt><trkpt lat="34.64486814712984" lon="9.003935246658344"><ele>410.0</ele><time>2026-04-08T13:27:43.001Z</time></trkpt><trkpt lat="34.645101557733234" lon="9.004172459192745"><ele>409.0</ele><time>2026-04-08T13:27:44.001Z</time></trkpt><trkpt lat="34.645329008505605" lon="9.004410535507258"><ele>408.0</ele><time>2026-04-08T13:27:45.001Z</time></trkpt><trkpt lat="34.645555241196554" lon="9.004651333786123"><ele>408.0</ele><time>2026-04-08T13:27:46.001Z</time></trkpt><trkpt lat="34.645788758097964" lon="9.004884451695304"><ele>408.0</ele><time>2026-04-08T13:27:47.001Z</time></trkpt><trkpt lat="34.64601607673998" lon="9.005123972332834"><ele>409.0</ele><time>2026-04-08T13:27:48.001Z</time></trkpt><trkpt lat="34.64623461588217" lon="9.005374163164474"><ele>410.0</ele><time>2026-04-08T13:27:49.001Z</time></trkpt><trkpt lat="34.64646371319563" lon="9.005611848320994"><ele>410.5</ele><time>2026-04-08T13:27:50.001Z</time></trkpt><trkpt lat="34.646698918285814" lon="9.005841418178077"><ele>411.0</ele><time>2026-04-08T13:27:51.001Z</time></trkpt><trkpt lat="34.64692477439094" lon="9.006080568348262"><ele>411.5</ele><time>2026-04-08T13:27:52.001Z</time></trkpt><trkpt lat="34.6471496904773" lon="9.006325760176367"><ele>412.0</ele><time>2026-04-08T13:27:53Z</time></trkpt><trkpt lat="34.647377026328684" lon="9.006568911567404"><ele>412.0</ele><time>2026-04-08T13:27:54Z</time></trkpt><trkpt lat="34.64760647135933" lon="9.006809177250549"><ele>412.0</ele><time>2026-04-08T13:27:55Z</time></trkpt><trkpt lat="34.647834954291866" lon="9.007046889570947"><ele>412.0</ele><time>2026-04-08T13:27:56Z</time></trkpt><trkpt lat="34.64806568465607" lon="9.007288595283354"><ele>412.0</ele><time>2026-04-08T13:27:57Z</time></trkpt><trkpt lat="34.64829548642696" lon="9.007527454777756"><ele>412.0</ele><time>2026-04-08T13:27:58Z</time></trkpt><trkpt lat="34.64852602602905" lon="9.00776585019411"><ele>412.0</ele><time>2026-04-08T13:27:59Z</time></trkpt><trkpt lat="34.648754216027896" lon="9.007999876106442"><ele>412.0</ele><time>2026-04-08T13:28:00Z</time></trkpt><trkpt lat="34.64896678905439" lon="9.008221245923622"><ele>412.0</ele><time>2026-04-08T13:28:01Z</time></trkpt><trkpt lat="34.64917083274524" lon="9.008430914504768"><ele>412.5</ele><time>2026-04-08T13:28:02Z</time></trkpt><trkpt lat="34.64936479850337" lon="9.008633166712226"><ele>413.0</ele><time>2026-04-08T13:28:03Z</time></trkpt><trkpt lat="34.64955213238455" lon="9.008831100864583"><ele>413.0</ele><time>2026-04-08T13:28:04Z</time></trkpt><trkpt lat="34.64974201680875" lon="9.009033972760573"><ele>413.0</ele><time>2026-04-08T13:28:05Z</time></trkpt><trkpt lat="34.649936860050204" lon="9.009239280277916"><ele>413.0</ele><time>2026-04-08T13:28:06Z</time></trkpt><trkpt lat="34.650132854030474" lon="9.009443638732272"><ele>413.0</ele><time>2026-04-08T13:28:07Z</time></trkpt><trkpt lat="34.65032714419027" lon="9.009643276905612"><ele>413.0</ele><time>2026-04-08T13:28:08Z</time></trkpt><trkpt lat="34.65052225164309" lon="9.009847595004702"><ele>413.0</ele><time>2026-04-08T13:28:09Z</time></trkpt><trkpt lat="34.650723540550935" lon="9.010058699566763"><ele>413.5</ele><time>2026-04-08T13:28:10Z</time></trkpt><trkpt lat="34.65092800783565" lon="9.01027140434676"><ele>414.0</ele><time>2026-04-08T13:28:11Z</time></trkpt><trkpt lat="34.65113520077289" lon="9.0104893594734"><ele>414.5</ele><time>2026-04-08T13:28:12Z</time></trkpt><trkpt lat="34.65134593134497" lon="9.01071122819972"><ele>415.0</ele><time>2026-04-08T13:28:13Z</time></trkpt><trkpt lat="34.65155562081699" lon="9.010930121948233"><ele>415.5</ele><time>2026-04-08T13:28:14Z</time></trkpt><trkpt lat="34.651764449845764" lon="9.011149790412723"><ele>416.0</ele><time>2026-04-08T13:28:15Z</time></trkpt><trkpt lat="34.651975457201" lon="9.011368989717946"><ele>416.0</ele><time>2026-04-08T13:28:16Z</time></trkpt><trkpt lat="34.652185060474615" lon="9.011591143934057"><ele>416.0</ele><time>2026-04-08T13:28:17Z</time></trkpt><trkpt lat="34.652398648807456" lon="9.011820382173402"><ele>416.5</ele><time>2026-04-08T13:28:18Z</time></trkpt><trkpt lat="34.65261179921104" lon="9.012049632932806"><ele>417.0</ele><time>2026-04-08T13:28:19Z</time></trkpt><trkpt lat="34.652824864059674" lon="9.012281515501341"><ele>417.5</ele><time>2026-04-08T13:28:20Z</time></trkpt><trkpt lat="34.653040679554216" lon="9.01250994167679"><ele>418.0</ele><time>2026-04-08T13:28:21Z</time></trkpt><trkpt lat="34.653259319910966" lon="9.012731862330766"><ele>418.0</ele><time>2026-04-08T13:28:22Z</time></trkpt><trkpt lat="34.6534742009917" lon="9.012949510504422"><ele>418.0</ele><time>2026-04-08T13:28:23Z</time></trkpt><trkpt lat="34.65367714835456" lon="9.0131616285576"><ele>418.5</ele><time>2026-04-08T13:28:24Z</time></trkpt><trkpt lat="34.65387363306922" lon="9.01336894518383"><ele>419.0</ele><time>2026-04-08T13:28:25Z</time></trkpt><trkpt lat="34.65406184225658" lon="9.01356762487704"><ele>419.0</ele><time>2026-04-08T13:28:26Z</time></trkpt><trkpt lat="34.65424173653019" lon="9.013761800232587"><ele>419.0</ele><time>2026-04-08T13:28:27Z</time></trkpt><trkpt lat="34.65441591607752" lon="9.013947255138035"><ele>419.0</ele><time>2026-04-08T13:28:28Z</time></trkpt><trkpt lat="34.65459237214172" lon="9.014136073780561"><ele>419.0</ele><time>2026-04-08T13:28:29Z</time></trkpt><trkpt lat="34.65477250089569" lon="9.0143243304661"><ele>419.5</ele><time>2026-04-08T13:28:30Z</time></trkpt><trkpt lat="34.654961744196996" lon="9.014517049329415"><ele>420.0</ele><time>2026-04-08T13:28:31Z</time></trkpt><trkpt lat="34.65515819773935" lon="9.014718495453044"><ele>420.0</ele><time>2026-04-08T13:28:32Z</time></trkpt><trkpt lat="34.65536034360731" lon="9.014925028312378"><ele>420.0</ele><time>2026-04-08T13:28:33Z</time></trkpt><trkpt lat="34.655564452778776" lon="9.015140150086957"><ele>420.5</ele><time>2026-04-08T13:28:34Z</time></trkpt><trkpt lat="34.65577410068116" lon="9.01535951104176"><ele>421.0</ele><time>2026-04-08T13:28:35Z</time></trkpt><trkpt lat="34.655986628018546" lon="9.015578577809816"><ele>421.5</ele><time>2026-04-08T13:28:36Z</time></trkpt><trkpt lat="34.65619358110254" lon="9.015792673364075"><ele>422.0</ele><time>2026-04-08T13:28:37Z</time></trkpt><trkpt lat="34.65639716688803" lon="9.016010156634778"><ele>422.0</ele><time>2026-04-08T13:28:38Z</time></trkpt><trkpt lat="34.656595250244166" lon="9.016226230486796"><ele>422.0</ele><time>2026-04-08T13:28:39Z</time></trkpt><trkpt lat="34.65678680146328" lon="9.016433590619348"><ele>422.0</ele><time>2026-04-08T13:28:40Z</time></trkpt><trkpt lat="34.65697289273846" lon="9.016630256619615"><ele>422.0</ele><time>2026-04-08T13:28:41Z</time></trkpt><trkpt lat="34.65715437756897" lon="9.01682106501659"><ele>421.0</ele><time>2026-04-08T13:28:42Z</time></trkpt><trkpt lat="34.657344236940304" lon="9.017016249956344"><ele>420.0</ele><time>2026-04-08T13:28:43Z</time></trkpt><trkpt lat="34.65754398893654" lon="9.017220813073422"><ele>420.0</ele><time>2026-04-08T13:28:44Z</time></trkpt><trkpt lat="34.65774542274142" lon="9.017428792982937"><ele>420.0</ele><time>2026-04-08T13:28:45Z</time></trkpt><trkpt lat="34.6579439167949" lon="9.017635254110086"><ele>419.5</ele><time>2026-04-08T13:28:46Z</time></trkpt><trkpt lat="34.65813644996545" lon="9.017839771561105"><ele>419.0</ele><time>2026-04-08T13:28:47Z</time></trkpt><trkpt lat="34.65832937391247" lon="9.018042486706928"><ele>419.0</ele><time>2026-04-08T13:28:48Z</time></trkpt><trkpt lat="34.65852460534047" lon="9.018247774384486"><ele>419.0</ele><time>2026-04-08T13:28:49Z</time></trkpt><trkpt lat="34.65872062430686" lon="9.01844927278026"><ele>420.0</ele><time>2026-04-08T13:28:50Z</time></trkpt><trkpt lat="34.65891720811603" lon="9.018649658829228"><ele>421.0</ele><time>2026-04-08T13:28:51Z</time></trkpt><trkpt lat="34.65911263044917" lon="9.018843812452555"><ele>421.0</ele><time>2026-04-08T13:28:52Z</time></trkpt><trkpt lat="34.65930254919563" lon="9.019025014784377"><ele>421.0</ele><time>2026-04-08T13:28:53Z</time></trkpt><trkpt lat="34.65949194497031" lon="9.019198460485109"><ele>421.5</ele><time>2026-04-08T13:28:54Z</time></trkpt><trkpt lat="34.65967915068232" lon="9.01936561139821"><ele>422.0</ele><time>2026-04-08T13:28:55Z</time></trkpt><trkpt lat="34.65987011453968" lon="9.019528933002315"><ele>422.0</ele><time>2026-04-08T13:28:56Z</time></trkpt><trkpt lat="34.660073439728485" lon="9.019688869422616"><ele>422.0</ele><time>2026-04-08T13:28:57Z</time></trkpt><trkpt lat="34.66028108530144" lon="9.019835195630339"><ele>422.0</ele><time>2026-04-08T13:28:58Z</time></trkpt><trkpt lat="34.66049298048636" lon="9.01996522440209"><ele>422.0</ele><time>2026-04-08T13:28:59Z</time></trkpt><trkpt lat="34.66070610306006" lon="9.02007994863114"><ele>422.66666666666663</ele><time>2026-04-08T13:29:00Z</time></trkpt><trkpt lat="34.660907651627454" lon="9.020181399850445"><ele>423.33333333333337</ele><time>2026-04-08T13:29:01Z</time></trkpt><trkpt lat="34.66110573523704" lon="9.020284939392782"><ele>424.0</ele><time>2026-04-08T13:29:02Z</time></trkpt><trkpt lat="34.66129926769655" lon="9.020391007751394"><ele>424.33333333333337</ele><time>2026-04-08T13:29:03Z</time></trkpt><trkpt lat="34.66149614572372" lon="9.020498430118337"><ele>424.66666666666663</ele><time>2026-04-08T13:29:04Z</time></trkpt><trkpt lat="34.66170005183783" lon="9.020604029381268"><ele>425.0</ele><time>2026-04-08T13:29:05Z</time></trkpt><trkpt lat="34.66190200311836" lon="9.020708138142805"><ele>425.0</ele><time>2026-04-08T13:29:06Z</time></trkpt><trkpt lat="34.66210538301851" lon="9.020812808704227"><ele>425.0</ele><time>2026-04-08T13:29:07.001Z</time></trkpt><trkpt lat="34.662311489955776" lon="9.020921146844142"><ele>425.0</ele><time>2026-04-08T13:29:08.001Z</time></trkpt><trkpt lat="34.66251757240587" lon="9.021031517777724"><ele>425.0</ele><time>2026-04-08T13:29:09.001Z</time></trkpt><trkpt lat="34.66272693627499" lon="9.021146083881899"><ele>425.0</ele><time>2026-04-08T13:29:10.001Z</time></trkpt><trkpt lat="34.66292559597891" lon="9.021252668482298"><ele>425.0</ele><time>2026-04-08T13:29:11.001Z</time></trkpt><trkpt lat="34.66311634326096" lon="9.021351731611354"><ele>425.0</ele><time>2026-04-08T13:29:12.001Z</time></trkpt><trkpt lat="34.66330433288599" lon="9.02145225923692"><ele>425.0</ele><time>2026-04-08T13:29:13.001Z</time></trkpt><trkpt lat="34.66349190693996" lon="9.021557059408476"><ele>425.0</ele><time>2026-04-08T13:29:14.001Z</time></trkpt><trkpt lat="34.66368406499435" lon="9.021663843531531"><ele>425.3333333333333</ele><time>2026-04-08T13:29:15.001Z</time></trkpt><trkpt lat="34.66387980056991" lon="9.021771024730299"><ele>425.66666666666663</ele><time>2026-04-08T13:29:16.001Z</time></trkpt><trkpt lat="34.664078114631764" lon="9.021874314452605"><ele>426.0</ele><time>2026-04-08T13:29:17.001Z</time></trkpt><trkpt lat="34.66428013350914" lon="9.021981820554599"><ele>425.33333333333337</ele><time>2026-04-08T13:29:18.001Z</time></trkpt><trkpt lat="34.6644826411117" lon="9.022090270914461"><ele>424.6666666666667</ele><time>2026-04-08T13:29:19.001Z</time></trkpt><trkpt lat="34.66468401491396" lon="9.022202023395502"><ele>424.0</ele><time>2026-04-08T13:29:20.001Z</time></trkpt><trkpt lat="34.66487355452237" lon="9.022307372287749"><ele>424.0</ele><time>2026-04-08T13:29:21.001Z</time></trkpt><trkpt lat="34.66506325696324" lon="9.022415356236557"><ele>424.0</ele><time>2026-04-08T13:29:22.001Z</time></trkpt><trkpt lat="34.66525070659172" lon="9.022522786799804"><ele>424.0</ele><time>2026-04-08T13:29:23.001Z</time></trkpt><trkpt lat="34.665437537053634" lon="9.022632696747223"><ele>424.33333333333337</ele><time>2026-04-08T13:29:24.001Z</time></trkpt><trkpt lat="34.665626984853105" lon="9.022748700390371"><ele>424.66666666666663</ele><time>2026-04-08T13:29:25.001Z</time></trkpt><trkpt lat="34.66581865413356" lon="9.022872119446376"><ele>425.0</ele><time>2026-04-08T13:29:26.001Z</time></trkpt><trkpt lat="34.66601079942243" lon="9.022999014781607"><ele>425.0</ele><time>2026-04-08T13:29:27.001Z</time></trkpt><trkpt lat="34.66620299790604" lon="9.023117376198613"><ele>425.0</ele><time>2026-04-08T13:29:28.001Z</time></trkpt><trkpt lat="34.66640011354617" lon="9.023236509065743"><ele>425.0</ele><time>2026-04-08T13:29:29.001Z</time></trkpt><trkpt lat="34.66660020144291" lon="9.023353573331908"><ele>424.5</ele><time>2026-04-08T13:29:30.001Z</time></trkpt><trkpt lat="34.66680246836073" lon="9.023472575514486"><ele>424.0</ele><time>2026-04-08T13:29:31.001Z</time></trkpt><trkpt lat="34.667012901194376" lon="9.023593246624378"><ele>425.0</ele><time>2026-04-08T13:29:32.001Z</time></trkpt><trkpt lat="34.66723238907319" lon="9.023720452401383"><ele>426.0</ele><time>2026-04-08T13:29:33.001Z</time></trkpt><trkpt lat="34.66745807536738" lon="9.02385285238356"><ele>426.0</ele><time>2026-04-08T13:29:34.001Z</time></trkpt><trkpt lat="34.667686156920745" lon="9.023986554228387"><ele>426.0</ele><time>2026-04-08T13:29:35.001Z</time></trkpt><trkpt lat="34.667913080665734" lon="9.024120978174569"><ele>427.5</ele><time>2026-04-08T13:29:36.001Z</time></trkpt><trkpt lat="34.66814139674769" lon="9.024260135515563"><ele>429.0</ele><time>2026-04-08T13:29:37.001Z</time></trkpt><trkpt lat="34.66836872597213" lon="9.02440122916129"><ele>429.0</ele><time>2026-04-08T13:29:38.001Z</time></trkpt><trkpt lat="34.66859016131557" lon="9.024540072006678"><ele>429.0</ele><time>2026-04-08T13:29:39.001Z</time></trkpt><trkpt lat="34.668808573250864" lon="9.024676059305296"><ele>429.0</ele><time>2026-04-08T13:29:40.001Z</time></trkpt><trkpt lat="34.66902713187748" lon="9.024808345049722"><ele>429.0</ele><time>2026-04-08T13:29:41.001Z</time></trkpt><trkpt lat="34.669237468764706" lon="9.02493448823973"><ele>428.5</ele><time>2026-04-08T13:29:42.001Z</time></trkpt><trkpt lat="34.66944572555173" lon="9.02505503938111"><ele>428.0</ele><time>2026-04-08T13:29:43.001Z</time></trkpt><trkpt lat="34.66964501877843" lon="9.025171482098187"><ele>428.0</ele><time>2026-04-08T13:29:44.001Z</time></trkpt><trkpt lat="34.66985080029581" lon="9.025289647806623"><ele>428.0</ele><time>2026-04-08T13:29:45.001Z</time></trkpt><trkpt lat="34.67005496740508" lon="9.025405241833809"><ele>428.0</ele><time>2026-04-08T13:29:46.001Z</time></trkpt><trkpt lat="34.67026320572668" lon="9.025519720423494"><ele>428.0</ele><time>2026-04-08T13:29:47.001Z</time></trkpt><trkpt lat="34.6704752966995" lon="9.025633576856121"><ele>428.0</ele><time>2026-04-08T13:29:48.001Z</time></trkpt><trkpt lat="34.670690179138" lon="9.025752587782623"><ele>428.0</ele><time>2026-04-08T13:29:49.001Z</time></trkpt><trkpt lat="34.67090028427662" lon="9.02587660447154"><ele>429.0</ele><time>2026-04-08T13:29:50.001Z</time></trkpt><trkpt lat="34.671115687563464" lon="9.02600424703451"><ele>430.0</ele><time>2026-04-08T13:29:51.001Z</time></trkpt><trkpt lat="34.671332595529925" lon="9.026127588742618"><ele>430.0</ele><time>2026-04-08T13:29:52.001Z</time></trkpt><trkpt lat="34.67154864878187" lon="9.026247901013074"><ele>430.0</ele><time>2026-04-08T13:29:53.001Z</time></trkpt><trkpt lat="34.67176344677044" lon="9.026369209813895"><ele>430.0</ele><time>2026-04-08T13:29:54.001Z</time></trkpt><trkpt lat="34.67197886058901" lon="9.026492831312964"><ele>430.0</ele><time>2026-04-08T13:29:55.001Z</time></trkpt><trkpt lat="34.67219199044542" lon="9.026616486945162"><ele>430.0</ele><time>2026-04-08T13:29:56.001Z</time></trkpt><trkpt lat="34.67240431522436" lon="9.026740325963656"><ele>430.0</ele><time>2026-04-08T13:29:57.001Z</time></trkpt><trkpt lat="34.67261365991381" lon="9.02686447180435"><ele>431.0</ele><time>2026-04-08T13:29:58.001Z</time></trkpt><trkpt lat="34.67282833262306" lon="9.026988298274397"><ele>432.0</ele><time>2026-04-08T13:29:59.001Z</time></trkpt><trkpt lat="34.673037254887994" lon="9.027108979575415"><ele>432.0</ele><time>2026-04-08T13:30:00.001Z</time></trkpt><trkpt lat="34.67324200071892" lon="9.027224676587535"><ele>432.0</ele><time>2026-04-08T13:30:01.001Z</time></trkpt><trkpt lat="34.67344147701437" lon="9.027338193584049"><ele>432.0</ele><time>2026-04-08T13:30:02.001Z</time></trkpt><trkpt lat="34.67363980722257" lon="9.027450186141085"><ele>431.66666666666663</ele><time>2026-04-08T13:30:03.001Z</time></trkpt><trkpt lat="34.67384192377782" lon="9.027564788779793"><ele>431.3333333333333</ele><time>2026-04-08T13:30:04.001Z</time></trkpt><trkpt lat="34.67403657414741" lon="9.027673102323103"><ele>431.0</ele><time>2026-04-08T13:30:05.001Z</time></trkpt><trkpt lat="34.67423222516503" lon="9.027789840630822"><ele>431.0</ele><time>2026-04-08T13:30:06.001Z</time></trkpt><trkpt lat="34.674430424769625" lon="9.02790670960965"><ele>431.0</ele><time>2026-04-08T13:30:07.001Z</time></trkpt><trkpt lat="34.674629610235996" lon="9.028023708636029"><ele>431.0</ele><time>2026-04-08T13:30:08.001Z</time></trkpt><trkpt lat="34.67482627702527" lon="9.028139182738734"><ele>431.0</ele><time>2026-04-08T13:30:09.001Z</time></trkpt><trkpt lat="34.675028521693186" lon="9.028255468632999"><ele>431.0</ele><time>2026-04-08T13:30:10.001Z</time></trkpt><trkpt lat="34.67523164229265" lon="9.028373016190342"><ele>431.0</ele><time>2026-04-08T13:30:11.001Z</time></trkpt><trkpt lat="34.675445108859364" lon="9.02849344450254"><ele>432.0</ele><time>2026-04-08T13:30:12.001Z</time></trkpt><trkpt lat="34.675662137894086" lon="9.028613558807205"><ele>433.0</ele><time>2026-04-08T13:30:13.001Z</time></trkpt><trkpt lat="34.67587782964245" lon="9.028733985115489"><ele>432.0</ele><time>2026-04-08T13:30:14.001Z</time></trkpt><trkpt lat="34.67610387660942" lon="9.028858138781432"><ele>431.0</ele><time>2026-04-08T13:30:15.001Z</time></trkpt><trkpt lat="34.67633068712584" lon="9.028983022053707"><ele>431.0</ele><time>2026-04-08T13:30:16.001Z</time></trkpt><trkpt lat="34.676566059823486" lon="9.029114933908588"><ele>431.0</ele><time>2026-04-08T13:30:17.001Z</time></trkpt><trkpt lat="34.6768045622698" lon="9.029256206733617"><ele>433.0</ele><time>2026-04-08T13:30:18.001Z</time></trkpt><trkpt lat="34.67704629648547" lon="9.02940140234288"><ele>435.0</ele><time>2026-04-08T13:30:19.001Z</time></trkpt><trkpt lat="34.67729519075053" lon="9.029548663115534"><ele>435.0</ele><time>2026-04-08T13:30:20.001Z</time></trkpt><trkpt lat="34.677540594419945" lon="9.029691798630061"><ele>435.0</ele><time>2026-04-08T13:30:21.001Z</time></trkpt><trkpt lat="34.67776875664672" lon="9.029818193532284"><ele>434.0</ele><time>2026-04-08T13:30:22.001Z</time></trkpt><trkpt lat="34.677985765454785" lon="9.029941076267015"><ele>433.0</ele><time>2026-04-08T13:30:23.001Z</time></trkpt><trkpt lat="34.678196919596964" lon="9.030063275131589"><ele>432.5</ele><time>2026-04-08T13:30:24.001Z</time></trkpt><trkpt lat="34.67840386378933" lon="9.030182741352423"><ele>432.0</ele><time>2026-04-08T13:30:25.001Z</time></trkpt><trkpt lat="34.67860932872985" lon="9.030304297997564"><ele>432.0</ele><time>2026-04-08T13:30:26.001Z</time></trkpt><trkpt lat="34.67881768476679" lon="9.03042496855909"><ele>432.0</ele><time>2026-04-08T13:30:27.001Z</time></trkpt><trkpt lat="34.679028455243746" lon="9.030541682413348"><ele>432.0</ele><time>2026-04-08T13:30:28.001Z</time></trkpt><trkpt lat="34.67924189548237" lon="9.030659319443648"><ele>432.0</ele><time>2026-04-08T13:30:29.001Z</time></trkpt><trkpt lat="34.67946195556897" lon="9.030778216148136"><ele>432.0</ele><time>2026-04-08T13:30:30.001Z</time></trkpt><trkpt lat="34.67968693086296" lon="9.030896458616196"><ele>432.0</ele><time>2026-04-08T13:30:31.001Z</time></trkpt><trkpt lat="34.679928435008996" lon="9.03102266667954"><ele>432.0</ele><time>2026-04-08T13:30:32.001Z</time></trkpt><trkpt lat="34.680195198255504" lon="9.031169556826"><ele>432.0</ele><time>2026-04-08T13:30:33.001Z</time></trkpt><trkpt lat="34.680473270746475" lon="9.031329327854992"><ele>432.5</ele><time>2026-04-08T13:30:34.001Z</time></trkpt><trkpt lat="34.68076291797899" lon="9.031504838705786"><ele>433.0</ele><time>2026-04-08T13:30:35.001Z</time></trkpt><trkpt lat="34.681036576091486" lon="9.031673195456447"><ele>432.5</ele><time>2026-04-08T13:30:36.001Z</time></trkpt><trkpt lat="34.681291784793245" lon="9.0318272262387"><ele>432.0</ele><time>2026-04-08T13:30:37.001Z</time></trkpt><trkpt lat="34.681538656575476" lon="9.031972344052924"><ele>432.0</ele><time>2026-04-08T13:30:38.001Z</time></trkpt><trkpt lat="34.68179177451556" lon="9.032116801688895"><ele>432.0</ele><time>2026-04-08T13:30:39.001Z</time></trkpt><trkpt lat="34.68204817118171" lon="9.032261595656884"><ele>432.5</ele><time>2026-04-08T13:30:40.001Z</time></trkpt><trkpt lat="34.68230188540977" lon="9.03240385161307"><ele>433.0</ele><time>2026-04-08T13:30:41.001Z</time></trkpt><trkpt lat="34.68255699726945" lon="9.03254968181607"><ele>432.5</ele><time>2026-04-08T13:30:42.001Z</time></trkpt><trkpt lat="34.6828103895998" lon="9.032695161119138"><ele>432.0</ele><time>2026-04-08T13:30:43.001Z</time></trkpt><trkpt lat="34.683065777982826" lon="9.032841338995752"><ele>432.0</ele><time>2026-04-08T13:30:44.001Z</time></trkpt><trkpt lat="34.68331872438503" lon="9.032984516541616"><ele>432.0</ele><time>2026-04-08T13:30:45.001Z</time></trkpt><trkpt lat="34.683570433636426" lon="9.033128493450395"><ele>432.5</ele><time>2026-04-08T13:30:46.001Z</time></trkpt><trkpt lat="34.68381176961871" lon="9.033268131510196"><ele>433.0</ele><time>2026-04-08T13:30:47.001Z</time></trkpt><trkpt lat="34.68403652375793" lon="9.033399218210569"><ele>433.0</ele><time>2026-04-08T13:30:48.001Z</time></trkpt><trkpt lat="34.68425613019102" lon="9.033531297460575"><ele>433.0</ele><time>2026-04-08T13:30:49.001Z</time></trkpt><trkpt lat="34.684476536170614" lon="9.033662991857481"><ele>433.0</ele><time>2026-04-08T13:30:50.001Z</time></trkpt><trkpt lat="34.684700801591575" lon="9.033789790260201"><ele>433.0</ele><time>2026-04-08T13:30:51.001Z</time></trkpt><trkpt lat="34.684923417667086" lon="9.033912837273423"><ele>433.0</ele><time>2026-04-08T13:30:52.001Z</time></trkpt><trkpt lat="34.68515006737778" lon="9.034039871868275"><ele>433.0</ele><time>2026-04-08T13:30:53.001Z</time></trkpt><trkpt lat="34.6853818602968" lon="9.034171843892072"><ele>433.5</ele><time>2026-04-08T13:30:54.001Z</time></trkpt><trkpt lat="34.68561796948192" lon="9.034306185726308"><ele>434.0</ele><time>2026-04-08T13:30:55.001Z</time></trkpt><trkpt lat="34.68585442375369" lon="9.034440929591426"><ele>434.0</ele><time>2026-04-08T13:30:56.001Z</time></trkpt><trkpt lat="34.68609101510981" lon="9.034576353995343"><ele>434.0</ele><time>2026-04-08T13:30:57.001Z</time></trkpt><trkpt lat="34.6863327727754" lon="9.034715194273444"><ele>433.0</ele><time>2026-04-08T13:30:58.001Z</time></trkpt><trkpt lat="34.68657494474322" lon="9.034854133296832"><ele>432.0</ele><time>2026-04-08T13:30:59.001Z</time></trkpt><trkpt lat="34.686812255412406" lon="9.034991018826647"><ele>431.0</ele><time>2026-04-08T13:31:00.001Z</time></trkpt><trkpt lat="34.68704419027844" lon="9.035122943431206"><ele>430.0</ele><time>2026-04-08T13:31:01.001Z</time></trkpt><trkpt lat="34.68727735564426" lon="9.035257226481187"><ele>430.0</ele><time>2026-04-08T13:31:02.001Z</time></trkpt><trkpt lat="34.687512702214995" lon="9.035391516168787"><ele>430.0</ele><time>2026-04-08T13:31:03.001Z</time></trkpt><trkpt lat="34.687755250042564" lon="9.035524710749131"><ele>430.0</ele><time>2026-04-08T13:31:04.001Z</time></trkpt><trkpt lat="34.688005155809904" lon="9.035663873566216"><ele>430.0</ele><time>2026-04-08T13:31:05.001Z</time></trkpt><trkpt lat="34.68826194810738" lon="9.035808409740651"><ele>430.5</ele><time>2026-04-08T13:31:06.001Z</time></trkpt><trkpt lat="34.68851927100943" lon="9.035954323623063"><ele>431.0</ele><time>2026-04-08T13:31:07.001Z</time></trkpt><trkpt lat="34.68878246343473" lon="9.036106593162762"><ele>431.0</ele><time>2026-04-08T13:31:08.001Z</time></trkpt><trkpt lat="34.689050951392545" lon="9.036255172650398"><ele>431.0</ele><time>2026-04-08T13:31:09.001Z</time></trkpt><trkpt lat="34.689314633084905" lon="9.03639450833782"><ele>433.0</ele><time>2026-04-08T13:31:10.001Z</time></trkpt><trkpt lat="34.68957332528617" lon="9.036533022843056"><ele>435.0</ele><time>2026-04-08T13:31:11.001Z</time></trkpt><trkpt lat="34.689812125132725" lon="9.036672155826457"><ele>435.5</ele><time>2026-04-08T13:31:12.001Z</time></trkpt><trkpt lat="34.690034053364435" lon="9.036808598613927"><ele>436.0</ele><time>2026-04-08T13:31:13.001Z</time></trkpt><trkpt lat="34.69024772345446" lon="9.036936925306714"><ele>436.5</ele><time>2026-04-08T13:31:14.001Z</time></trkpt><trkpt lat="34.69045561617883" lon="9.037051955658608"><ele>437.0</ele><time>2026-04-08T13:31:15.001Z</time></trkpt><trkpt lat="34.69066948344115" lon="9.037173359703415"><ele>437.0</ele><time>2026-04-08T13:31:16.001Z</time></trkpt><trkpt lat="34.69088632180806" lon="9.037300599311505"><ele>437.0</ele><time>2026-04-08T13:31:17.001Z</time></trkpt><trkpt lat="34.69110521787156" lon="9.037428410874577"><ele>437.0</ele><time>2026-04-08T13:31:18.001Z</time></trkpt><trkpt lat="34.69132914395986" lon="9.037559142599935"><ele>437.0</ele><time>2026-04-08T13:31:19.001Z</time></trkpt><trkpt lat="34.69155907938939" lon="9.03769206586205"><ele>437.0</ele><time>2026-04-08T13:31:20.001Z</time></trkpt><trkpt lat="34.6917892113267" lon="9.037820292848865"><ele>437.0</ele><time>2026-04-08T13:31:21.001Z</time></trkpt><trkpt lat="34.69201832210836" lon="9.037948904525555"><ele>437.0</ele><time>2026-04-08T13:31:22.001Z</time></trkpt><trkpt lat="34.69224666796892" lon="9.038074542383002"><ele>437.0</ele><time>2026-04-08T13:31:23.001Z</time></trkpt><trkpt lat="34.69247899943049" lon="9.038201516477189"><ele>437.0</ele><time>2026-04-08T13:31:24.001Z</time></trkpt><trkpt lat="34.69270946408997" lon="9.038328362304707"><ele>437.0</ele><time>2026-04-08T13:31:25.001Z</time></trkpt><trkpt lat="34.692941937240455" lon="9.038464122835594"><ele>437.0</ele><time>2026-04-08T13:31:26.001Z</time></trkpt><trkpt lat="34.6931743277054" lon="9.038604788006928"><ele>437.0</ele><time>2026-04-08T13:31:27.001Z</time></trkpt><trkpt lat="34.693411548078466" lon="9.038753013060266"><ele>439.0</ele><time>2026-04-08T13:31:28.001Z</time></trkpt><trkpt lat="34.693638026571776" lon="9.03889349439451"><ele>441.0</ele><time>2026-04-08T13:31:29.001Z</time></trkpt><trkpt lat="34.69385871164997" lon="9.0390257831653"><ele>440.5</ele><time>2026-04-08T13:31:30.001Z</time></trkpt><trkpt lat="34.69408503519926" lon="9.039157477535415"><ele>440.0</ele><time>2026-04-08T13:31:31.001Z</time></trkpt><trkpt lat="34.69431126016885" lon="9.039283015118095"><ele>441.5</ele><time>2026-04-08T13:31:32.001Z</time></trkpt><trkpt lat="34.69453603623253" lon="9.03940652661007"><ele>443.0</ele><time>2026-04-08T13:31:33.001Z</time></trkpt><trkpt lat="34.694757040933894" lon="9.039529534478627"><ele>443.0</ele><time>2026-04-08T13:31:34.001Z</time></trkpt><trkpt lat="34.69497008133444" lon="9.039650674627813"><ele>443.0</ele><time>2026-04-08T13:31:35.001Z</time></trkpt><trkpt lat="34.69518187584969" lon="9.039773924335483"><ele>443.0</ele><time>2026-04-08T13:31:36.001Z</time></trkpt><trkpt lat="34.69539267218081" lon="9.039893769940706"><ele>443.0</ele><time>2026-04-08T13:31:37.001Z</time></trkpt><trkpt lat="34.695605182918435" lon="9.040013114628435"><ele>442.5</ele><time>2026-04-08T13:31:38.001Z</time></trkpt><trkpt lat="34.6958186678087" lon="9.040133652595172"><ele>442.0</ele><time>2026-04-08T13:31:39.001Z</time></trkpt><trkpt lat="34.6960469924234" lon="9.040263939209684"><ele>442.5</ele><time>2026-04-08T13:31:40.001Z</time></trkpt><trkpt lat="34.69627790550851" lon="9.040397791102526"><ele>443.0</ele><time>2026-04-08T13:31:41.001Z</time></trkpt><trkpt lat="34.69649984613373" lon="9.040524489365119"><ele>443.0</ele><time>2026-04-08T13:31:42.001Z</time></trkpt><trkpt lat="34.696711063518784" lon="9.040644486649274"><ele>443.0</ele><time>2026-04-08T13:31:43.001Z</time></trkpt><trkpt lat="34.69690864471271" lon="9.04075386850825"><ele>442.3333333333333</ele><time>2026-04-08T13:31:44.001Z</time></trkpt><trkpt lat="34.69709654620521" lon="9.040859217280955"><ele>441.66666666666663</ele><time>2026-04-08T13:31:45.001Z</time></trkpt><trkpt lat="34.69725966740424" lon="9.040950977693335"><ele>441.0</ele><time>2026-04-08T13:31:46.001Z</time></trkpt><trkpt lat="34.69741836861775" lon="9.041044032830833"><ele>441.0</ele><time>2026-04-08T13:31:47.001Z</time></trkpt><trkpt lat="34.697574893087896" lon="9.04113355349887"><ele>441.0</ele><time>2026-04-08T13:31:48.001Z</time></trkpt><trkpt lat="34.69772420016921" lon="9.041217858290846"><ele>441.0</ele><time>2026-04-08T13:31:49.001Z</time></trkpt><trkpt lat="34.69786230174942" lon="9.041303995774063"><ele>441.5</ele><time>2026-04-08T13:31:50.001Z</time></trkpt><trkpt lat="34.69799349452672" lon="9.041392831376708"><ele>442.0</ele><time>2026-04-08T13:31:51.001Z</time></trkpt><trkpt lat="34.698120077857205" lon="9.041472702022828"><ele>442.5</ele><time>2026-04-08T13:31:52.001Z</time></trkpt><trkpt lat="34.69824972346237" lon="9.041540905164382"><ele>443.0</ele><time>2026-04-08T13:31:53.001Z</time></trkpt><trkpt lat="34.69838613695678" lon="9.04160817038372"><ele>441.75</ele><time>2026-04-08T13:31:54.001Z</time></trkpt><trkpt lat="34.69851867022652" lon="9.041683477368991"><ele>440.5</ele><time>2026-04-08T13:31:55.001Z</time></trkpt><trkpt lat="34.698644038734045" lon="9.04175947307417"><ele>439.25</ele><time>2026-04-08T13:31:56.001Z</time></trkpt><trkpt lat="34.698770709394616" lon="9.041832644821948"><ele>438.0</ele><time>2026-04-08T13:31:57.001Z</time></trkpt><trkpt lat="34.69889350764378" lon="9.041903068018122"><ele>438.0</ele><time>2026-04-08T13:31:58.001Z</time></trkpt><trkpt lat="34.699005512615415" lon="9.041968448038253"><ele>438.0</ele><time>2026-04-08T13:31:59.001Z</time></trkpt><trkpt lat="34.69911366661729" lon="9.042029662048488"><ele>438.0</ele><time>2026-04-08T13:32:00.001Z</time></trkpt><trkpt lat="34.6992297188579" lon="9.042089310080263"><ele>438.0</ele><time>2026-04-08T13:32:01.001Z</time></trkpt><trkpt lat="34.69935148225352" lon="9.042151560754416"><ele>439.5</ele><time>2026-04-08T13:32:02.001Z</time></trkpt><trkpt lat="34.699477210796005" lon="9.042220602429236"><ele>441.0</ele><time>2026-04-08T13:32:03.001Z</time></trkpt><trkpt lat="34.69960796678097" lon="9.042297310163306"><ele>442.5</ele><time>2026-04-08T13:32:04.001Z</time></trkpt><trkpt lat="34.699744951599214" lon="9.04237938459538"><ele>444.0</ele><time>2026-04-08T13:32:05.001Z</time></trkpt><trkpt lat="34.69989532218916" lon="9.04246395090776"><ele>444.0</ele><time>2026-04-08T13:32:06.001Z</time></trkpt><trkpt lat="34.70007021982768" lon="9.042550672954846"><ele>444.0</ele><time>2026-04-08T13:32:07.001Z</time></trkpt><trkpt lat="34.70027904397857" lon="9.042652343572987"><ele>444.0</ele><time>2026-04-08T13:32:08.001Z</time></trkpt><trkpt lat="34.700483789727045" lon="9.042772808643265"><ele>444.0</ele><time>2026-04-08T13:32:09.001Z</time></trkpt><trkpt lat="34.700657458077224" lon="9.042892088727982"><ele>444.0</ele><time>2026-04-08T13:32:10.001Z</time></trkpt><trkpt lat="34.700817548271004" lon="9.043001175283761"><ele>444.0</ele><time>2026-04-08T13:32:11.001Z</time></trkpt><trkpt lat="34.700964697316834" lon="9.04309314030487"><ele>444.0</ele><time>2026-04-08T13:32:12.001Z</time></trkpt><trkpt lat="34.701101776200666" lon="9.043169923196185"><ele>444.0</ele><time>2026-04-08T13:32:13.001Z</time></trkpt><trkpt lat="34.70123469560955" lon="9.043243867456189"><ele>444.0</ele><time>2026-04-08T13:32:14.001Z</time></trkpt><trkpt lat="34.70136266162227" lon="9.043319141794441"><ele>444.0</ele><time>2026-04-08T13:32:15.001Z</time></trkpt><trkpt lat="34.70149549201488" lon="9.04339283598461"><ele>443.75</ele><time>2026-04-08T13:32:16.001Z</time></trkpt><trkpt lat="34.70162680082178" lon="9.043465376153652"><ele>443.5</ele><time>2026-04-08T13:32:17.001Z</time></trkpt><trkpt lat="34.70175188026072" lon="9.043533890243744"><ele>443.25</ele><time>2026-04-08T13:32:18.001Z</time></trkpt><trkpt lat="34.70186726713926" lon="9.043597606362075"><ele>443.0</ele><time>2026-04-08T13:32:19.001Z</time></trkpt><trkpt lat="34.70197963946395" lon="9.043665449019315"><ele>443.0</ele><time>2026-04-08T13:32:20.001Z</time></trkpt><trkpt lat="34.70209721302867" lon="9.04373584087088"><ele>443.0</ele><time>2026-04-08T13:32:21.001Z</time></trkpt><trkpt lat="34.70221937227031" lon="9.043804833497827"><ele>443.0</ele><time>2026-04-08T13:32:22.001Z</time></trkpt><trkpt lat="34.70234062145976" lon="9.043875535032845"><ele>443.0</ele><time>2026-04-08T13:32:23.001Z</time></trkpt><trkpt lat="34.70246089522839" lon="9.043945861940808"><ele>443.0</ele><time>2026-04-08T13:32:24.001Z</time></trkpt><trkpt lat="34.70258034151492" lon="9.044013948279408"><ele>443.0</ele><time>2026-04-08T13:32:25.001Z</time></trkpt><trkpt lat="34.70270049316396" lon="9.044079029462308"><ele>443.0</ele><time>2026-04-08T13:32:26.001Z</time></trkpt><trkpt lat="34.70281946446465" lon="9.044144213102049"><ele>443.0</ele><time>2026-04-08T13:32:27.001Z</time></trkpt><trkpt lat="34.70293540885253" lon="9.044208375586074"><ele>442.75</ele><time>2026-04-08T13:32:28.001Z</time></trkpt><trkpt lat="34.70304755481999" lon="9.044274473657014"><ele>442.5</ele><time>2026-04-08T13:32:29.001Z</time></trkpt><trkpt lat="34.70315260005569" lon="9.044337495701564"><ele>442.25</ele><time>2026-04-08T13:32:30.001Z</time></trkpt><trkpt lat="34.70324981325938" lon="9.044400721767436"><ele>442.0</ele><time>2026-04-08T13:32:31.001Z</time></trkpt><trkpt lat="34.70334178486798" lon="9.044455407980339"><ele>442.00000000000006</ele><time>2026-04-08T13:32:32.001Z</time></trkpt><trkpt lat="34.703430732619246" lon="9.044503143906116"><ele>442.0</ele><time>2026-04-08T13:32:33.001Z</time></trkpt><trkpt lat="34.70351380513529" lon="9.04454684293944"><ele>442.0</ele><time>2026-04-08T13:32:34.001Z</time></trkpt><trkpt lat="34.70359056663351" lon="9.044589674792343"><ele>442.0</ele><time>2026-04-08T13:32:35.001Z</time></trkpt><trkpt lat="34.70365813503684" lon="9.044630938264888"><ele>442.00000000000006</ele><time>2026-04-08T13:32:36.001Z</time></trkpt><trkpt lat="34.70372305467374" lon="9.044672552845267"><ele>442.0</ele><time>2026-04-08T13:32:37.001Z</time></trkpt><trkpt lat="34.70379653545637" lon="9.044717913544636"><ele>442.40000000000003</ele><time>2026-04-08T13:32:38.001Z</time></trkpt><trkpt lat="34.7038844055681" lon="9.044767494587061"><ele>442.80000000000007</ele><time>2026-04-08T13:32:39.001Z</time></trkpt><trkpt lat="34.7039823774332" lon="9.044820365559568"><ele>443.2</ele><time>2026-04-08T13:32:40.001Z</time></trkpt><trkpt lat="34.70408642305031" lon="9.044883111254112"><ele>443.6</ele><time>2026-04-08T13:32:41.001Z</time></trkpt><trkpt lat="34.70420047067839" lon="9.04494162786107"><ele>444.0</ele><time>2026-04-08T13:32:42.001Z</time></trkpt><trkpt lat="34.70431756213775" lon="9.044997910083639"><ele>444.1666666666667</ele><time>2026-04-08T13:32:43.001Z</time></trkpt><trkpt lat="34.70440906295989" lon="9.045054933395805"><ele>444.33333333333337</ele><time>2026-04-08T13:32:44.001Z</time></trkpt><trkpt lat="34.70448318327018" lon="9.045111263461187"><ele>444.5</ele><time>2026-04-08T13:32:45.001Z</time></trkpt><trkpt lat="34.70455459014143" lon="9.045153598764225"><ele>444.6666666666667</ele><time>2026-04-08T13:32:46.001Z</time></trkpt><trkpt lat="34.70462687643492" lon="9.045193004298072"><ele>444.83333333333337</ele><time>2026-04-08T13:32:47.001Z</time></trkpt><trkpt lat="34.704700209697585" lon="9.045236274517839"><ele>445.0</ele><time>2026-04-08T13:32:48.001Z</time></trkpt><trkpt lat="34.70477165413922" lon="9.045280113059324"><ele>445.2</ele><time>2026-04-08T13:32:49.001Z</time></trkpt><trkpt lat="34.70485715815806" lon="9.045327910365405"><ele>445.4</ele><time>2026-04-08T13:32:50.001Z</time></trkpt><trkpt lat="34.704964230944654" lon="9.045387682174411"><ele>445.6</ele><time>2026-04-08T13:32:51.001Z</time></trkpt><trkpt lat="34.70507242175205" lon="9.045451027125246"><ele>445.8</ele><time>2026-04-08T13:32:52.001Z</time></trkpt><trkpt lat="34.70516674929128" lon="9.045510181811748"><ele>446.0</ele><time>2026-04-08T13:32:53.001Z</time></trkpt><trkpt lat="34.705265324188304" lon="9.04556597189752"><ele>446.25</ele><time>2026-04-08T13:32:54.001Z</time></trkpt><trkpt lat="34.7053763705926" lon="9.04562212861759"><ele>446.5</ele><time>2026-04-08T13:32:55.001Z</time></trkpt><trkpt lat="34.70549494524124" lon="9.04568259291095"><ele>446.75</ele><time>2026-04-08T13:32:56.001Z</time></trkpt><trkpt lat="34.70561464694588" lon="9.045749221207315"><ele>447.0</ele><time>2026-04-08T13:32:57.001Z</time></trkpt><trkpt lat="34.705721577194836" lon="9.04582035554641"><ele>446.5</ele><time>2026-04-08T13:32:58.001Z</time></trkpt><trkpt lat="34.705810133776396" lon="9.045880913666272"><ele>446.0</ele><time>2026-04-08T13:32:59.001Z</time></trkpt><trkpt lat="34.705883511085226" lon="9.045920923652252"><ele>445.5</ele><time>2026-04-08T13:33:00.001Z</time></trkpt><trkpt lat="34.705944916682526" lon="9.045952384631804"><ele>445.0</ele><time>2026-04-08T13:33:01.001Z</time></trkpt><trkpt lat="34.706004122222886" lon="9.045986964068133"><ele>444.5</ele><time>2026-04-08T13:33:02.001Z</time></trkpt><trkpt lat="34.70607081987528" lon="9.046028098150309"><ele>444.0</ele><time>2026-04-08T13:33:03.001Z</time></trkpt><trkpt lat="34.70614437268098" lon="9.046068860214376"><ele>444.0</ele><time>2026-04-08T13:33:04.001Z</time></trkpt><trkpt lat="34.70622513302557" lon="9.046113085383286"><ele>444.0</ele><time>2026-04-08T13:33:05.001Z</time></trkpt><trkpt lat="34.70631033595343" lon="9.04616000598825"><ele>444.0</ele><time>2026-04-08T13:33:06.001Z</time></trkpt><trkpt lat="34.706403337238626" lon="9.046211176186544"><ele>444.0</ele><time>2026-04-08T13:33:07.001Z</time></trkpt><trkpt lat="34.70650618621349" lon="9.046264276775974"><ele>444.0</ele><time>2026-04-08T13:33:08.001Z</time></trkpt><trkpt lat="34.70661664287919" lon="9.046320491009338"><ele>444.0</ele><time>2026-04-08T13:33:09.001Z</time></trkpt><trkpt lat="34.706733913061605" lon="9.046385914345352"><ele>444.0</ele><time>2026-04-08T13:33:10.001Z</time></trkpt><trkpt lat="34.70685488985058" lon="9.04645562106245"><ele>444.0</ele><time>2026-04-08T13:33:11.001Z</time></trkpt><trkpt lat="34.706979098501485" lon="9.046529596520251"><ele>444.0</ele><time>2026-04-08T13:33:12.001Z</time></trkpt><trkpt lat="34.70710463463462" lon="9.046603025567201"><ele>443.75</ele><time>2026-04-08T13:33:13.001Z</time></trkpt><trkpt lat="34.70723124751041" lon="9.046674707594294"><ele>443.5</ele><time>2026-04-08T13:33:14.001Z</time></trkpt><trkpt lat="34.70735895655461" lon="9.046744916803869"><ele>443.25</ele><time>2026-04-08T13:33:15.001Z</time></trkpt><trkpt lat="34.70748072675306" lon="9.046816321614582"><ele>443.0</ele><time>2026-04-08T13:33:16.001Z</time></trkpt><trkpt lat="34.70760775604871" lon="9.046897386060786"><ele>443.0</ele><time>2026-04-08T13:33:17.001Z</time></trkpt><trkpt lat="34.707738861884614" lon="9.046980089940115"><ele>443.0</ele><time>2026-04-08T13:33:18.001Z</time></trkpt><trkpt lat="34.70787354675522" lon="9.047066098329802"><ele>443.0</ele><time>2026-04-08T13:33:19.001Z</time></trkpt><trkpt lat="34.70801277653733" lon="9.047160154374263"><ele>443.0</ele><time>2026-04-08T13:33:20.001Z</time></trkpt><trkpt lat="34.708157293382264" lon="9.047266317520622"><ele>443.0</ele><time>2026-04-08T13:33:21.001Z</time></trkpt><trkpt lat="34.70830757586897" lon="9.047392822165486"><ele>443.0</ele><time>2026-04-08T13:33:22.001Z</time></trkpt><trkpt lat="34.708459975071584" lon="9.04754127341282"><ele>443.3333333333333</ele><time>2026-04-08T13:33:23.001Z</time></trkpt><trkpt lat="34.70861357653565" lon="9.047709680808637"><ele>443.66666666666663</ele><time>2026-04-08T13:33:24.001Z</time></trkpt><trkpt lat="34.70877179015968" lon="9.047886851045833"><ele>444.0</ele><time>2026-04-08T13:33:25.001Z</time></trkpt><trkpt lat="34.70893444818002" lon="9.048060299314491"><ele>444.0</ele><time>2026-04-08T13:33:26.001Z</time></trkpt><trkpt lat="34.709094459684636" lon="9.04822154682247"><ele>444.0</ele><time>2026-04-08T13:33:27.001Z</time></trkpt><trkpt lat="34.70925250841848" lon="9.048380600572086"><ele>444.0</ele><time>2026-04-08T13:33:28.001Z</time></trkpt><trkpt lat="34.70940777100236" lon="9.048539550588877"><ele>443.66666666666663</ele><time>2026-04-08T13:33:29.001Z</time></trkpt><trkpt lat="34.70956325543022" lon="9.048699928223323"><ele>443.3333333333333</ele><time>2026-04-08T13:33:30.001Z</time></trkpt><trkpt lat="34.70972104466249" lon="9.048858589867761"><ele>443.0</ele><time>2026-04-08T13:33:31.001Z</time></trkpt><trkpt lat="34.70988424364595" lon="9.049020056280623"><ele>443.66666666666663</ele><time>2026-04-08T13:33:32.001Z</time></trkpt><trkpt lat="34.71005136933027" lon="9.049184571710162"><ele>444.33333333333337</ele><time>2026-04-08T13:33:33.001Z</time></trkpt><trkpt lat="34.710220813237186" lon="9.049354689166032"><ele>445.0</ele><time>2026-04-08T13:33:34.001Z</time></trkpt><trkpt lat="34.71039011962888" lon="9.049530576151847"><ele>446.5</ele><time>2026-04-08T13:33:35.001Z</time></trkpt><trkpt lat="34.710559435936325" lon="9.04970990819124"><ele>448.0</ele><time>2026-04-08T13:33:36.001Z</time></trkpt><trkpt lat="34.7107393746411" lon="9.0498950083642"><ele>448.5</ele><time>2026-04-08T13:33:37.001Z</time></trkpt><trkpt lat="34.710920775690305" lon="9.050078466060135"><ele>449.0</ele><time>2026-04-08T13:33:38.001Z</time></trkpt><trkpt lat="34.71110242990539" lon="9.050262053808142"><ele>449.0</ele><time>2026-04-08T13:33:39.001Z</time></trkpt><trkpt lat="34.71128460187347" lon="9.050446671482778"><ele>449.0</ele><time>2026-04-08T13:33:40.001Z</time></trkpt><trkpt lat="34.71147095944965" lon="9.050634597269772"><ele>447.0</ele><time>2026-04-08T13:33:41.001Z</time></trkpt><trkpt lat="34.71165734651091" lon="9.050827701156804"><ele>445.0</ele><time>2026-04-08T13:33:42.001Z</time></trkpt><trkpt lat="34.71184224509244" lon="9.051017127949585"><ele>446.5</ele><time>2026-04-08T13:33:43.001Z</time></trkpt><trkpt lat="34.7120234588432" lon="9.051202833048414"><ele>448.0</ele><time>2026-04-08T13:33:44.001Z</time></trkpt><trkpt lat="34.71220448331396" lon="9.05139173891217"><ele>448.0</ele><time>2026-04-08T13:33:45.001Z</time></trkpt><trkpt lat="34.71238610042314" lon="9.051579013415045"><ele>448.0</ele><time>2026-04-08T13:33:46.001Z</time></trkpt><trkpt lat="34.71256693663135" lon="9.051757390682242"><ele>448.0</ele><time>2026-04-08T13:33:47.001Z</time></trkpt><trkpt lat="34.71273804298599" lon="9.051931466467973"><ele>448.0</ele><time>2026-04-08T13:33:48.001Z</time></trkpt><trkpt lat="34.7129071801772" lon="9.052104991200002"><ele>448.0</ele><time>2026-04-08T13:33:49.001Z</time></trkpt><trkpt lat="34.71307272618609" lon="9.052275715877741"><ele>448.0</ele><time>2026-04-08T13:33:50.001Z</time></trkpt><trkpt lat="34.713236412716974" lon="9.052444499838879"><ele>448.0</ele><time>2026-04-08T13:33:51.001Z</time></trkpt><trkpt lat="34.713402581536265" lon="9.052612018973074"><ele>448.0</ele><time>2026-04-08T13:33:52.001Z</time></trkpt><trkpt lat="34.71357364251709" lon="9.052783749196104"><ele>448.5</ele><time>2026-04-08T13:33:53.001Z</time></trkpt><trkpt lat="34.71374651947322" lon="9.052958701017292"><ele>449.0</ele><time>2026-04-08T13:33:54.001Z</time></trkpt><trkpt lat="34.71392285116487" lon="9.05313784847285"><ele>449.5</ele><time>2026-04-08T13:33:55.001Z</time></trkpt><trkpt lat="34.71410422751596" lon="9.053321952306684"><ele>450.0</ele><time>2026-04-08T13:33:56.001Z</time></trkpt><trkpt lat="34.71428703168199" lon="9.053509560299682"><ele>450.5</ele><time>2026-04-08T13:33:57.001Z</time></trkpt><trkpt lat="34.71447237731845" lon="9.053698972702524"><ele>451.0</ele><time>2026-04-08T13:33:58.001Z</time></trkpt><trkpt lat="34.714661258973635" lon="9.053889578920064"><ele>451.0</ele><time>2026-04-08T13:33:59.001Z</time></trkpt><trkpt lat="34.71484448533948" lon="9.05407932869761"><ele>451.0</ele><time>2026-04-08T13:34:00.001Z</time></trkpt><trkpt lat="34.71501821265405" lon="9.054260498398522"><ele>451.33333333333337</ele><time>2026-04-08T13:34:01.001Z</time></trkpt><trkpt lat="34.71518636717329" lon="9.05444244684396"><ele>451.66666666666663</ele><time>2026-04-08T13:34:02.001Z</time></trkpt><trkpt lat="34.71534591696127" lon="9.054631994340633"><ele>452.0</ele><time>2026-04-08T13:34:03.001Z</time></trkpt><trkpt lat="34.71550029118111" lon="9.054834377052295"><ele>451.0</ele><time>2026-04-08T13:34:04.001Z</time></trkpt><trkpt lat="34.71565209578842" lon="9.055052204551759"><ele>450.0</ele><time>2026-04-08T13:34:05.001Z</time></trkpt><trkpt lat="34.71580105336348" lon="9.055293089642939"><ele>450.0</ele><time>2026-04-08T13:34:06.001Z</time></trkpt><trkpt lat="34.71594295887061" lon="9.055552961127391"><ele>450.0</ele><time>2026-04-08T13:34:07.001Z</time></trkpt><trkpt lat="34.716074462097396" lon="9.05582748978369"><ele>449.0</ele><time>2026-04-08T13:34:08.001Z</time></trkpt><trkpt lat="34.71619388467219" lon="9.05610934411289"><ele>448.0</ele><time>2026-04-08T13:34:09.001Z</time></trkpt><trkpt lat="34.716298910827305" lon="9.056376196382415"><ele>448.33333333333337</ele><time>2026-04-08T13:34:10.001Z</time></trkpt><trkpt lat="34.71640325846742" lon="9.05662491940348"><ele>448.66666666666663</ele><time>2026-04-08T13:34:11.001Z</time></trkpt><trkpt lat="34.716510095950426" lon="9.056858193317073"><ele>449.0</ele><time>2026-04-08T13:34:12.001Z</time></trkpt><trkpt lat="34.71661692210622" lon="9.057080187161178"><ele>449.0</ele><time>2026-04-08T13:34:13.001Z</time></trkpt><trkpt lat="34.716723592670704" lon="9.057301671271658"><ele>449.0</ele><time>2026-04-08T13:34:14.001Z</time></trkpt><trkpt lat="34.71683394157071" lon="9.0575202654156"><ele>449.0</ele><time>2026-04-08T13:34:15.001Z</time></trkpt><trkpt lat="34.716952084781695" lon="9.057719600564115"><ele>449.66666666666663</ele><time>2026-04-08T13:34:16.001Z</time></trkpt><trkpt lat="34.71708218038206" lon="9.057902051265964"><ele>450.33333333333337</ele><time>2026-04-08T13:34:17.001Z</time></trkpt><trkpt lat="34.717217758455966" lon="9.058052946599942"><ele>451.0</ele><time>2026-04-08T13:34:18.001Z</time></trkpt><trkpt lat="34.71734932706464" lon="9.058183741792874"><ele>450.6666666666667</ele><time>2026-04-08T13:34:19.001Z</time></trkpt><trkpt lat="34.71747370768238" lon="9.058306557568411"><ele>450.33333333333337</ele><time>2026-04-08T13:34:20.001Z</time></trkpt><trkpt lat="34.71760306778451" lon="9.058424388468108"><ele>450.0</ele><time>2026-04-08T13:34:21.001Z</time></trkpt><trkpt lat="34.717738333383636" lon="9.05853819403368"><ele>450.0</ele><time>2026-04-08T13:34:22.001Z</time></trkpt><trkpt lat="34.71787356156814" lon="9.058651698740029"><ele>450.0</ele><time>2026-04-08T13:34:23.001Z</time></trkpt><trkpt lat="34.71801040119065" lon="9.058766811458058"><ele>450.0</ele><time>2026-04-08T13:34:24.001Z</time></trkpt><trkpt lat="34.71814603761314" lon="9.058882833463171"><ele>450.0</ele><time>2026-04-08T13:34:25.001Z</time></trkpt><trkpt lat="34.71828408097255" lon="9.05899617742799"><ele>450.0</ele><time>2026-04-08T13:34:26.001Z</time></trkpt><trkpt lat="34.71842512715644" lon="9.059104495652182"><ele>450.0</ele><time>2026-04-08T13:34:27.001Z</time></trkpt><trkpt lat="34.71856516184167" lon="9.05920801443247"><ele>450.0</ele><time>2026-04-08T13:34:28.001Z</time></trkpt><trkpt lat="34.71870526573728" lon="9.059309494807634"><ele>450.0</ele><time>2026-04-08T13:34:29.001Z</time></trkpt><trkpt lat="34.718846224099266" lon="9.059407846249469"><ele>450.0</ele><time>2026-04-08T13:34:30.001Z</time></trkpt><trkpt lat="34.71898857432767" lon="9.059499154804767"><ele>450.0</ele><time>2026-04-08T13:34:31.001Z</time></trkpt><trkpt lat="34.719132867848366" lon="9.059584903453285"><ele>450.0</ele><time>2026-04-08T13:34:32.001Z</time></trkpt><trkpt lat="34.71927775536542" lon="9.059667387899431"><ele>450.0</ele><time>2026-04-08T13:34:33.001Z</time></trkpt><trkpt lat="34.71942767733035" lon="9.059750543900249"><ele>451.0</ele><time>2026-04-08T13:34:34.001Z</time></trkpt><trkpt lat="34.71957926131454" lon="9.059829321084706"><ele>452.0</ele><time>2026-04-08T13:34:35.001Z</time></trkpt><trkpt lat="34.71973751360263" lon="9.059906518909562"><ele>453.0</ele><time>2026-04-08T13:34:36.001Z</time></trkpt><trkpt lat="34.71989871758232" lon="9.059983711587769"><ele>453.0</ele><time>2026-04-08T13:34:37.001Z</time></trkpt><trkpt lat="34.72006012324663" lon="9.060062371131867"><ele>453.0</ele><time>2026-04-08T13:34:38.001Z</time></trkpt><trkpt lat="34.72022361927565" lon="9.06014442735836"><ele>453.0</ele><time>2026-04-08T13:34:39.001Z</time></trkpt><trkpt lat="34.7203864384935" lon="9.06022174086311"><ele>452.66666666666663</ele><time>2026-04-08T13:34:40.001Z</time></trkpt><trkpt lat="34.72053937158522" lon="9.060289738565785"><ele>452.3333333333333</ele><time>2026-04-08T13:34:41.001Z</time></trkpt><trkpt lat="34.72068680482944" lon="9.060358227477508"><ele>452.0</ele><time>2026-04-08T13:34:42.001Z</time></trkpt><trkpt lat="34.720833978860504" lon="9.060428957613784"><ele>452.0</ele><time>2026-04-08T13:34:43.001Z</time></trkpt><trkpt lat="34.720979945490654" lon="9.060492186042266"><ele>452.0</ele><time>2026-04-08T13:34:44.001Z</time></trkpt><trkpt lat="34.721131876947105" lon="9.060555032850857"><ele>452.0</ele><time>2026-04-08T13:34:45Z</time></trkpt><trkpt lat="34.721278797373614" lon="9.060626944878457"><ele>451.66666666666663</ele><time>2026-04-08T13:34:46Z</time></trkpt><trkpt lat="34.72143194244162" lon="9.060697208723285"><ele>451.33333333333337</ele><time>2026-04-08T13:34:47Z</time></trkpt><trkpt lat="34.721585999029436" lon="9.060765224788218"><ele>451.0</ele><time>2026-04-08T13:34:48Z</time></trkpt><trkpt lat="34.72174205448335" lon="9.060839820850275"><ele>452.0</ele><time>2026-04-08T13:34:49Z</time></trkpt><trkpt lat="34.72189542038905" lon="9.060912763198992"><ele>453.0</ele><time>2026-04-08T13:34:50Z</time></trkpt><trkpt lat="34.72204801411709" lon="9.060985381000553"><ele>454.0</ele><time>2026-04-08T13:34:51Z</time></trkpt><trkpt lat="34.722203011197045" lon="9.06105688718518"><ele>454.0</ele><time>2026-04-08T13:34:52Z</time></trkpt><trkpt lat="34.72235472532906" lon="9.061130133769703"><ele>454.0</ele><time>2026-04-08T13:34:53Z</time></trkpt><trkpt lat="34.72250055683917" lon="9.06120389262281"><ele>454.0</ele><time>2026-04-08T13:34:54Z</time></trkpt><trkpt lat="34.722643350608195" lon="9.061280280407633"><ele>453.0</ele><time>2026-04-08T13:34:55Z</time></trkpt><trkpt lat="34.72278358502364" lon="9.061360601027907"><ele>452.0</ele><time>2026-04-08T13:34:56Z</time></trkpt><trkpt lat="34.72292590253394" lon="9.061443448772806"><ele>451.0</ele><time>2026-04-08T13:34:57Z</time></trkpt><trkpt lat="34.72307430721108" lon="9.061527668400053"><ele>451.0</ele><time>2026-04-08T13:34:58Z</time></trkpt><trkpt lat="34.72322188068078" lon="9.061607976631437"><ele>451.0</ele><time>2026-04-08T13:34:59Z</time></trkpt><trkpt lat="34.72336513231172" lon="9.061693142982447"><ele>451.0</ele><time>2026-04-08T13:35:00Z</time></trkpt><trkpt lat="34.723509548948925" lon="9.06177670039583"><ele>451.33333333333337</ele><time>2026-04-08T13:35:01Z</time></trkpt><trkpt lat="34.72365097511938" lon="9.061865214175285"><ele>451.66666666666663</ele><time>2026-04-08T13:35:02Z</time></trkpt><trkpt lat="34.7237904919818" lon="9.061966475706035"><ele>452.0</ele><time>2026-04-08T13:35:03Z</time></trkpt><trkpt lat="34.72392849373875" lon="9.062074104741619"><ele>452.0</ele><time>2026-04-08T13:35:04Z</time></trkpt><trkpt lat="34.7240643331515" lon="9.062195048316305"><ele>452.0</ele><time>2026-04-08T13:35:05Z</time></trkpt><trkpt lat="34.72419344230345" lon="9.062323120900729"><ele>452.0</ele><time>2026-04-08T13:35:06Z</time></trkpt><trkpt lat="34.724306495592444" lon="9.062450493311337"><ele>453.3333333333333</ele><time>2026-04-08T13:35:07Z</time></trkpt><trkpt lat="34.72441188603084" lon="9.06257781861693"><ele>454.66666666666663</ele><time>2026-04-08T13:35:08Z</time></trkpt><trkpt lat="34.72452344908986" lon="9.062710121920453"><ele>456.0</ele><time>2026-04-08T13:35:09Z</time></trkpt><trkpt lat="34.724628663530524" lon="9.06284288391298"><ele>456.0</ele><time>2026-04-08T13:35:10Z</time></trkpt><trkpt lat="34.72473095963454" lon="9.062973000412425"><ele>456.0</ele><time>2026-04-08T13:35:11Z</time></trkpt><trkpt lat="34.72483788779463" lon="9.063096384541007"><ele>456.0</ele><time>2026-04-08T13:35:12Z</time></trkpt><trkpt lat="34.724942347415734" lon="9.063224439592588"><ele>456.0</ele><time>2026-04-08T13:35:13Z</time></trkpt><trkpt lat="34.7250494434867" lon="9.063341840934843"><ele>456.5</ele><time>2026-04-08T13:35:14Z</time></trkpt><trkpt lat="34.72516432493047" lon="9.063455625705778"><ele>457.0</ele><time>2026-04-08T13:35:15Z</time></trkpt><trkpt lat="34.72528249503038" lon="9.063562350479852"><ele>457.5</ele><time>2026-04-08T13:35:16Z</time></trkpt><trkpt lat="34.72540570397785" lon="9.063660581301196"><ele>458.0</ele><time>2026-04-08T13:35:17Z</time></trkpt><trkpt lat="34.725530643370135" lon="9.063760665772804"><ele>458.25</ele><time>2026-04-08T13:35:18Z</time></trkpt><trkpt lat="34.725658269107996" lon="9.063852851381615"><ele>458.5</ele><time>2026-04-08T13:35:19Z</time></trkpt><trkpt lat="34.72578978556442" lon="9.063936998799743"><ele>458.75</ele><time>2026-04-08T13:35:20Z</time></trkpt><trkpt lat="34.72592141452866" lon="9.064024786070831"><ele>459.0</ele><time>2026-04-08T13:35:21Z</time></trkpt><trkpt lat="34.72604856544589" lon="9.064108537915224"><ele>459.25</ele><time>2026-04-08T13:35:22Z</time></trkpt><trkpt lat="34.72617409279468" lon="9.064191566677737"><ele>459.5</ele><time>2026-04-08T13:35:23Z</time></trkpt><trkpt lat="34.72630352484816" lon="9.06427512537012"><ele>459.75</ele><time>2026-04-08T13:35:24Z</time></trkpt><trkpt lat="34.72643422489123" lon="9.064353858281844"><ele>460.0</ele><time>2026-04-08T13:35:25Z</time></trkpt><trkpt lat="34.72656629000823" lon="9.064434032434853"><ele>460.0</ele><time>2026-04-08T13:35:26Z</time></trkpt><trkpt lat="34.726686616469706" lon="9.064516946901602"><ele>460.0</ele><time>2026-04-08T13:35:27Z</time></trkpt><trkpt lat="34.726808724997035" lon="9.064592916554334"><ele>460.0</ele><time>2026-04-08T13:35:28Z</time></trkpt><trkpt lat="34.726934711429315" lon="9.064666363697645"><ele>460.0</ele><time>2026-04-08T13:35:29Z</time></trkpt><trkpt lat="34.72705882121558" lon="9.064746571373604"><ele>460.0</ele><time>2026-04-08T13:35:30Z</time></trkpt><trkpt lat="34.7271869852553" lon="9.064822474614283"><ele>460.0</ele><time>2026-04-08T13:35:31Z</time></trkpt><trkpt lat="34.72731565256267" lon="9.064904866556507"><ele>460.0</ele><time>2026-04-08T13:35:32Z</time></trkpt><trkpt lat="34.727446222415075" lon="9.064986775221401"><ele>460.0</ele><time>2026-04-08T13:35:33Z</time></trkpt><trkpt lat="34.72758221346088" lon="9.065066430344958"><ele>460.0</ele><time>2026-04-08T13:35:34Z</time></trkpt><trkpt lat="34.727712314333644" lon="9.065157386618067"><ele>460.0</ele><time>2026-04-08T13:35:35Z</time></trkpt><trkpt lat="34.727843657580436" lon="9.065244543654442"><ele>460.0</ele><time>2026-04-08T13:35:36Z</time></trkpt><trkpt lat="34.72797117516639" lon="9.06531823669378"><ele>460.0</ele><time>2026-04-08T13:35:37Z</time></trkpt><trkpt lat="34.72809396878943" lon="9.065396889998711"><ele>459.25</ele><time>2026-04-08T13:35:38Z</time></trkpt><trkpt lat="34.72822023863795" lon="9.065478914678557"><ele>458.5</ele><time>2026-04-08T13:35:39Z</time></trkpt><trkpt lat="34.728351392065186" lon="9.06555928423905"><ele>457.75</ele><time>2026-04-08T13:35:40Z</time></trkpt><trkpt lat="34.72848437311498" lon="9.065641522164102"><ele>457.0</ele><time>2026-04-08T13:35:41Z</time></trkpt><trkpt lat="34.72861992260856" lon="9.06572623951013"><ele>457.6666666666667</ele><time>2026-04-08T13:35:42Z</time></trkpt><trkpt lat="34.728759564210385" lon="9.065813247287608"><ele>458.33333333333337</ele><time>2026-04-08T13:35:43Z</time></trkpt><trkpt lat="34.72890498795015" lon="9.065902226717755"><ele>459.0</ele><time>2026-04-08T13:35:44Z</time></trkpt><trkpt lat="34.72905310039498" lon="9.065996040782135"><ele>459.0</ele><time>2026-04-08T13:35:45Z</time></trkpt><trkpt lat="34.72920130613563" lon="9.066093896573584"><ele>459.0</ele><time>2026-04-08T13:35:46Z</time></trkpt><trkpt lat="34.72935371681552" lon="9.066194456760991"><ele>459.0</ele><time>2026-04-08T13:35:47Z</time></trkpt><trkpt lat="34.729510299807146" lon="9.066291747835292"><ele>458.66666666666663</ele><time>2026-04-08T13:35:48Z</time></trkpt><trkpt lat="34.72967178256909" lon="9.066385579934153"><ele>458.3333333333333</ele><time>2026-04-08T13:35:49Z</time></trkpt><trkpt lat="34.72984204819256" lon="9.066483906729273"><ele>458.0</ele><time>2026-04-08T13:35:50Z</time></trkpt><trkpt lat="34.730015851545915" lon="9.066587270840163"><ele>458.0</ele><time>2026-04-08T13:35:51Z</time></trkpt><trkpt lat="34.73019138460941" lon="9.066695906284268"><ele>458.0</ele><time>2026-04-08T13:35:52Z</time></trkpt><trkpt lat="34.73036991250816" lon="9.066809727299313"><ele>458.0</ele><time>2026-04-08T13:35:53Z</time></trkpt><trkpt lat="34.730550778131374" lon="9.06692769434953"><ele>458.0</ele><time>2026-04-08T13:35:54Z</time></trkpt><trkpt lat="34.73073303877209" lon="9.067046159124143"><ele>458.0</ele><time>2026-04-08T13:35:55Z</time></trkpt><trkpt lat="34.73091552533279" lon="9.067165060610325"><ele>458.0</ele><time>2026-04-08T13:35:56Z</time></trkpt><trkpt lat="34.731101640299315" lon="9.06728108838778"><ele>456.5</ele><time>2026-04-08T13:35:57Z</time></trkpt><trkpt lat="34.73129141509841" lon="9.067390554495086"><ele>455.0</ele><time>2026-04-08T13:35:58Z</time></trkpt><trkpt lat="34.73151036550824" lon="9.067511896302415"><ele>455.0</ele><time>2026-04-08T13:35:59Z</time></trkpt><trkpt lat="34.73174383968505" lon="9.067665199076394"><ele>455.0</ele><time>2026-04-08T13:36:00Z</time></trkpt><trkpt lat="34.73194895771661" lon="9.067827452140833"><ele>455.66666666666663</ele><time>2026-04-08T13:36:01Z</time></trkpt><trkpt lat="34.73214419278935" lon="9.067962613747792"><ele>456.33333333333337</ele><time>2026-04-08T13:36:02Z</time></trkpt><trkpt lat="34.73233207440161" lon="9.068076413956568"><ele>457.0</ele><time>2026-04-08T13:36:03Z</time></trkpt><trkpt lat="34.73251661435862" lon="9.06819073498095"><ele>457.0</ele><time>2026-04-08T13:36:04.001Z</time></trkpt><trkpt lat="34.73270250768993" lon="9.068305769496028"><ele>457.0</ele><time>2026-04-08T13:36:05.001Z</time></trkpt><trkpt lat="34.73288655573892" lon="9.068422604144441"><ele>457.0</ele><time>2026-04-08T13:36:06.001Z</time></trkpt><trkpt lat="34.73307331290597" lon="9.068541699524966"><ele>457.33333333333337</ele><time>2026-04-08T13:36:07.001Z</time></trkpt><trkpt lat="34.73326525678561" lon="9.068662518014898"><ele>457.66666666666663</ele><time>2026-04-08T13:36:08.001Z</time></trkpt><trkpt lat="34.73346236912671" lon="9.06878161558408"><ele>458.0</ele><time>2026-04-08T13:36:09.001Z</time></trkpt><trkpt lat="34.733667690387875" lon="9.068907713747535"><ele>458.0</ele><time>2026-04-08T13:36:10.001Z</time></trkpt><trkpt lat="34.73388098488028" lon="9.06904346779718"><ele>458.0</ele><time>2026-04-08T13:36:11.001Z</time></trkpt><trkpt lat="34.734099703863166" lon="9.069179045911254"><ele>458.0</ele><time>2026-04-08T13:36:12.001Z</time></trkpt><trkpt lat="34.734314848103054" lon="9.06931271119852"><ele>458.0</ele><time>2026-04-08T13:36:13.001Z</time></trkpt><trkpt lat="34.734530102525056" lon="9.069451640920377"><ele>459.5</ele><time>2026-04-08T13:36:14.001Z</time></trkpt><trkpt lat="34.73475041343282" lon="9.069586286917374"><ele>461.0</ele><time>2026-04-08T13:36:15.001Z</time></trkpt><trkpt lat="34.7349686768942" lon="9.069718101096958"><ele>461.0</ele><time>2026-04-08T13:36:16.001Z</time></trkpt><trkpt lat="34.73518801321067" lon="9.069854636400908"><ele>461.0</ele><time>2026-04-08T13:36:17.001Z</time></trkpt><trkpt lat="34.7354020297789" lon="9.0699924013173"><ele>459.0</ele><time>2026-04-08T13:36:18.001Z</time></trkpt><trkpt lat="34.73561783786012" lon="9.070130980261215"><ele>457.0</ele><time>2026-04-08T13:36:19.001Z</time></trkpt><trkpt lat="34.735833581635596" lon="9.070268518631197"><ele>457.0</ele><time>2026-04-08T13:36:20.001Z</time></trkpt><trkpt lat="34.73605161178168" lon="9.070404732104627"><ele>457.0</ele><time>2026-04-08T13:36:21.001Z</time></trkpt><trkpt lat="34.73626922965646" lon="9.07054021479877"><ele>457.0</ele><time>2026-04-08T13:36:22.001Z</time></trkpt><trkpt lat="34.736485253841025" lon="9.07067570351407"><ele>457.0</ele><time>2026-04-08T13:36:23.001Z</time></trkpt><trkpt lat="34.73670173758782" lon="9.070817087456982"><ele>456.0</ele><time>2026-04-08T13:36:24.001Z</time></trkpt><trkpt lat="34.736917831475374" lon="9.07095808289593"><ele>455.0</ele><time>2026-04-08T13:36:25.001Z</time></trkpt><trkpt lat="34.73713353954132" lon="9.071092085792106"><ele>455.0</ele><time>2026-04-08T13:36:26.001Z</time></trkpt><trkpt lat="34.73734891375846" lon="9.071227529663602"><ele>455.0</ele><time>2026-04-08T13:36:27.001Z</time></trkpt><trkpt lat="34.73756477452385" lon="9.071363258807667"><ele>456.5</ele><time>2026-04-08T13:36:28.001Z</time></trkpt><trkpt lat="34.73778014503772" lon="9.07150150169176"><ele>458.0</ele><time>2026-04-08T13:36:29.001Z</time></trkpt><trkpt lat="34.73799532521268" lon="9.071638037950624"><ele>458.5</ele><time>2026-04-08T13:36:30.001Z</time></trkpt><trkpt lat="34.73821144878087" lon="9.071774520251957"><ele>459.0</ele><time>2026-04-08T13:36:31.001Z</time></trkpt><trkpt lat="34.73842663757601" lon="9.071909341349453"><ele>459.0</ele><time>2026-04-08T13:36:32.001Z</time></trkpt><trkpt lat="34.738641236412924" lon="9.072044461786696"><ele>459.0</ele><time>2026-04-08T13:36:33.001Z</time></trkpt><trkpt lat="34.73885954086166" lon="9.072183541219433"><ele>459.0</ele><time>2026-04-08T13:36:34.001Z</time></trkpt><trkpt lat="34.739068882932685" lon="9.072318619038297"><ele>459.0</ele><time>2026-04-08T13:36:35Z</time></trkpt><trkpt lat="34.73926868118725" lon="9.072447210037621"><ele>459.33333333333337</ele><time>2026-04-08T13:36:36Z</time></trkpt><trkpt lat="34.73945561243976" lon="9.07256712103031"><ele>459.6666666666667</ele><time>2026-04-08T13:36:37Z</time></trkpt><trkpt lat="34.739634944559455" lon="9.072678683547922"><ele>460.0</ele><time>2026-04-08T13:36:38Z</time></trkpt><trkpt lat="34.73981879156145" lon="9.072792449882652"><ele>460.0</ele><time>2026-04-08T13:36:39Z</time></trkpt><trkpt lat="34.73999850406523" lon="9.072901217485423"><ele>460.0</ele><time>2026-04-08T13:36:40Z</time></trkpt><trkpt lat="34.74018050305048" lon="9.073011786437476"><ele>460.0</ele><time>2026-04-08T13:36:41Z</time></trkpt><trkpt lat="34.74036389149598" lon="9.073130772325296"><ele>459.6666666666667</ele><time>2026-04-08T13:36:42Z</time></trkpt><trkpt lat="34.74054275707403" lon="9.073249583914876"><ele>459.33333333333337</ele><time>2026-04-08T13:36:43Z</time></trkpt><trkpt lat="34.740730975888816" lon="9.073366664803048"><ele>459.0</ele><time>2026-04-08T13:36:44Z</time></trkpt><trkpt lat="34.74092064910707" lon="9.073484911832836"><ele>459.33333333333337</ele><time>2026-04-08T13:36:45Z</time></trkpt><trkpt lat="34.74109490678896" lon="9.07359872064483"><ele>459.6666666666667</ele><time>2026-04-08T13:36:46Z</time></trkpt><trkpt lat="34.741262241792505" lon="9.073705938894479"><ele>460.0</ele><time>2026-04-08T13:36:47Z</time></trkpt><trkpt lat="34.741430207476334" lon="9.073812880067102"><ele>460.0</ele><time>2026-04-08T13:36:48Z</time></trkpt><trkpt lat="34.74159598722973" lon="9.073918733731537"><ele>460.0</ele><time>2026-04-08T13:36:49Z</time></trkpt><trkpt lat="34.74176147102815" lon="9.074025434333164"><ele>460.0</ele><time>2026-04-08T13:36:50Z</time></trkpt><trkpt lat="34.74192627596581" lon="9.074131091151342"><ele>459.6666666666667</ele><time>2026-04-08T13:36:51Z</time></trkpt><trkpt lat="34.7420969217793" lon="9.074236442917577"><ele>459.33333333333337</ele><time>2026-04-08T13:36:52Z</time></trkpt><trkpt lat="34.74225689243344" lon="9.074335478625393"><ele>459.0</ele><time>2026-04-08T13:36:53Z</time></trkpt><trkpt lat="34.74240558697199" lon="9.074429697137026"><ele>459.0</ele><time>2026-04-08T13:36:54Z</time></trkpt><trkpt lat="34.74254742127055" lon="9.074520815878753"><ele>459.0</ele><time>2026-04-08T13:36:55Z</time></trkpt><trkpt lat="34.74268306400224" lon="9.074607129143121"><ele>459.0</ele><time>2026-04-08T13:36:56Z</time></trkpt><trkpt lat="34.74280984412659" lon="9.074687001830894"><ele>459.2</ele><time>2026-04-08T13:36:57Z</time></trkpt><trkpt lat="34.74292453359254" lon="9.074758586353742"><ele>459.4</ele><time>2026-04-08T13:36:58Z</time></trkpt><trkpt lat="34.74303026076675" lon="9.074823544817741"><ele>459.6</ele><time>2026-04-08T13:36:59Z</time></trkpt><trkpt lat="34.74312209583134" lon="9.07488122360325"><ele>459.8</ele><time>2026-04-08T13:37:00Z</time></trkpt><trkpt lat="34.74319515213454" lon="9.074926212149037"><ele>460.0</ele><time>2026-04-08T13:37:01Z</time></trkpt><trkpt lat="34.743296697991916" lon="9.074988503071197"><ele>460.00000000000006</ele><time>2026-04-08T13:37:03Z</time></trkpt><trkpt lat="34.74339462809545" lon="9.075050314129056"><ele>460.0</ele><time>2026-04-08T13:37:05Z</time></trkpt><trkpt lat="34.74345194967134" lon="9.075083770208957"><ele>460.0</ele><time>2026-04-08T13:37:06Z</time></trkpt><trkpt lat="34.743528009844084" lon="9.07512915823464"><ele>460.0</ele><time>2026-04-08T13:37:07Z</time></trkpt><trkpt lat="34.74361246035017" lon="9.075183227304056"><ele>460.00000000000006</ele><time>2026-04-08T13:37:08Z</time></trkpt><trkpt lat="34.743691668468635" lon="9.075233751344602"><ele>460.0</ele><time>2026-04-08T13:37:09Z</time></trkpt><trkpt lat="34.74377111646716" lon="9.075288916490903"><ele>460.4</ele><time>2026-04-08T13:37:10Z</time></trkpt><trkpt lat="34.74385360401998" lon="9.075343284951783"><ele>460.8</ele><time>2026-04-08T13:37:11Z</time></trkpt><trkpt lat="34.74394085883475" lon="9.075398546576679"><ele>461.20000000000005</ele><time>2026-04-08T13:37:12Z</time></trkpt><trkpt lat="34.74403411722129" lon="9.07545423116789"><ele>461.6</ele><time>2026-04-08T13:37:13Z</time></trkpt><trkpt lat="34.7441329525503" lon="9.075514507189325"><ele>462.0</ele><time>2026-04-08T13:37:14Z</time></trkpt><trkpt lat="34.744233167770524" lon="9.075580262379532"><ele>462.0</ele><time>2026-04-08T13:37:15Z</time></trkpt><trkpt lat="34.74433576418473" lon="9.075645964601692"><ele>462.0</ele><time>2026-04-08T13:37:16Z</time></trkpt><trkpt lat="34.744441710629644" lon="9.07570936387954"><ele>462.0</ele><time>2026-04-08T13:37:17Z</time></trkpt><trkpt lat="34.74454258667242" lon="9.075773903262073"><ele>462.0</ele><time>2026-04-08T13:37:18Z</time></trkpt><trkpt lat="34.744637397048336" lon="9.075836377675369"><ele>462.0</ele><time>2026-04-08T13:37:19Z</time></trkpt><trkpt lat="34.744724372610335" lon="9.075894408200039"><ele>462.00000000000006</ele><time>2026-04-08T13:37:20Z</time></trkpt><trkpt lat="34.744798278351894" lon="9.075944139907516"><ele>462.00000000000006</ele><time>2026-04-08T13:37:21Z</time></trkpt><trkpt lat="34.74489325776724" lon="9.075999953780407"><ele>462.0</ele><time>2026-04-08T13:37:23Z</time></trkpt><trkpt lat="34.744975271300625" lon="9.07605338103766"><ele>462.0</ele><time>2026-04-08T13:37:25Z</time></trkpt><trkpt lat="34.745101683774195" lon="9.076137172364284"><ele>462.0</ele><time>2026-04-08T13:37:27Z</time></trkpt><trkpt lat="34.745179949545545" lon="9.076187648081739"><ele>462.0</ele><time>2026-04-08T13:37:28Z</time></trkpt><trkpt lat="34.745255713002685" lon="9.076228708894984"><ele>462.0</ele><time>2026-04-08T13:37:29Z</time></trkpt><trkpt lat="34.745333206371185" lon="9.076271617973468"><ele>462.0</ele><time>2026-04-08T13:37:30Z</time></trkpt><trkpt lat="34.74540852311549" lon="9.076322306096849"><ele>462.0</ele><time>2026-04-08T13:37:31Z</time></trkpt><trkpt lat="34.74549028284176" lon="9.076378736031382"><ele>462.0</ele><time>2026-04-08T13:37:32Z</time></trkpt><trkpt lat="34.74557889405599" lon="9.076437727752683"><ele>462.0</ele><time>2026-04-08T13:37:33Z</time></trkpt><trkpt lat="34.74568074285045" lon="9.0765040773644"><ele>462.0</ele><time>2026-04-08T13:37:34Z</time></trkpt><trkpt lat="34.74581327719985" lon="9.076591096028414"><ele>462.0</ele><time>2026-04-08T13:37:35Z</time></trkpt><trkpt lat="34.74593471572731" lon="9.076669109234667"><ele>462.0</ele><time>2026-04-08T13:37:36Z</time></trkpt><trkpt lat="34.74603844793325" lon="9.076732930162628"><ele>462.0</ele><time>2026-04-08T13:37:37Z</time></trkpt><trkpt lat="34.74612670656382" lon="9.076787959765594"><ele>462.00000000000006</ele><time>2026-04-08T13:37:38Z</time></trkpt><trkpt lat="34.74619994448414" lon="9.076834015983565"><ele>462.00000000000006</ele><time>2026-04-08T13:37:39Z</time></trkpt><trkpt lat="34.74626222221991" lon="9.076869605524097"><ele>462.0</ele><time>2026-04-08T13:37:40Z</time></trkpt><trkpt lat="34.74636857414621" lon="9.076935789602528"><ele>462.0</ele><time>2026-04-08T13:37:42Z</time></trkpt><trkpt lat="34.74646901190891" lon="9.077011063758516"><ele>462.0</ele><time>2026-04-08T13:37:44Z</time></trkpt><trkpt lat="34.74652599826385" lon="9.07705345188053"><ele>462.0</ele><time>2026-04-08T13:37:45Z</time></trkpt><trkpt lat="34.746589675672595" lon="9.077094031045778"><ele>462.0</ele><time>2026-04-08T13:37:46Z</time></trkpt><trkpt lat="34.74665906245537" lon="9.077136557208595"><ele>462.0</ele><time>2026-04-08T13:37:47Z</time></trkpt><trkpt lat="34.746732446957175" lon="9.077178584552119"><ele>462.0</ele><time>2026-04-08T13:37:48Z</time></trkpt><trkpt lat="34.746816240168414" lon="9.077229775244305"><ele>462.0</ele><time>2026-04-08T13:37:49Z</time></trkpt><trkpt lat="34.746900789224135" lon="9.077283220326802"><ele>462.25</ele><time>2026-04-08T13:37:50Z</time></trkpt><trkpt lat="34.746991644798904" lon="9.077343206060462"><ele>462.5</ele><time>2026-04-08T13:37:51Z</time></trkpt><trkpt lat="34.747092001709206" lon="9.077407311705514"><ele>462.75</ele><time>2026-04-08T13:37:52Z</time></trkpt><trkpt lat="34.747206144667416" lon="9.077475071524475"><ele>463.0</ele><time>2026-04-08T13:37:53Z</time></trkpt><trkpt lat="34.74734212283516" lon="9.077555180583268"><ele>463.0</ele><time>2026-04-08T13:37:54Z</time></trkpt><trkpt lat="34.74746297200045" lon="9.07763278320897"><ele>463.0</ele><time>2026-04-08T13:37:55Z</time></trkpt><trkpt lat="34.74757143244442" lon="9.077703978341606"><ele>463.0</ele><time>2026-04-08T13:37:56Z</time></trkpt><trkpt lat="34.74768120066069" lon="9.077771412262946"><ele>463.0</ele><time>2026-04-08T13:37:57Z</time></trkpt><trkpt lat="34.74779538304091" lon="9.077844984215142"><ele>463.0</ele><time>2026-04-08T13:37:58Z</time></trkpt><trkpt lat="34.747914292619136" lon="9.077918683850315"><ele>463.0</ele><time>2026-04-08T13:37:59Z</time></trkpt><trkpt lat="34.74804557726552" lon="9.077995627386423"><ele>463.0</ele><time>2026-04-08T13:38:00Z</time></trkpt><trkpt lat="34.748183131390974" lon="9.078084958283274"><ele>463.0</ele><time>2026-04-08T13:38:01Z</time></trkpt><trkpt lat="34.748328224705915" lon="9.07818031291133"><ele>463.33333333333337</ele><time>2026-04-08T13:38:02Z</time></trkpt><trkpt lat="34.74848126885885" lon="9.078271254543456"><ele>463.66666666666663</ele><time>2026-04-08T13:38:03Z</time></trkpt><trkpt lat="34.748639483942384" lon="9.078365630828605"><ele>464.0</ele><time>2026-04-08T13:38:04Z</time></trkpt><trkpt lat="34.74879748000106" lon="9.078466161220115"><ele>463.3333333333333</ele><time>2026-04-08T13:38:05Z</time></trkpt><trkpt lat="34.7489605557307" lon="9.078571268848648"><ele>462.66666666666663</ele><time>2026-04-08T13:38:06Z</time></trkpt><trkpt lat="34.74913033413527" lon="9.078678350078494"><ele>462.0</ele><time>2026-04-08T13:38:07Z</time></trkpt><trkpt lat="34.749315182362515" lon="9.078780721351928"><ele>462.0</ele><time>2026-04-08T13:38:08Z</time></trkpt><trkpt lat="34.749514516570834" lon="9.078888924463001"><ele>462.0</ele><time>2026-04-08T13:38:09Z</time></trkpt><trkpt lat="34.74970439372264" lon="9.079006553706257"><ele>462.0</ele><time>2026-04-08T13:38:10Z</time></trkpt><trkpt lat="34.74988394564775" lon="9.079130696890015"><ele>462.33333333333337</ele><time>2026-04-08T13:38:11Z</time></trkpt><trkpt lat="34.75005829092191" lon="9.079257973758807"><ele>462.6666666666667</ele><time>2026-04-08T13:38:12Z</time></trkpt><trkpt lat="34.75023742936936" lon="9.07938613963881"><ele>463.0</ele><time>2026-04-08T13:38:13Z</time></trkpt><trkpt lat="34.750425441053196" lon="9.079509009463695"><ele>463.0</ele><time>2026-04-08T13:38:14Z</time></trkpt><trkpt lat="34.75062342345517" lon="9.079629115816694"><ele>463.0</ele><time>2026-04-08T13:38:15Z</time></trkpt><trkpt lat="34.75082908881539" lon="9.079748836487916"><ele>463.0</ele><time>2026-04-08T13:38:16Z</time></trkpt><trkpt lat="34.75104121041251" lon="9.07987475609837"><ele>463.5</ele><time>2026-04-08T13:38:17Z</time></trkpt><trkpt lat="34.75125721852588" lon="9.080005986163512"><ele>464.0</ele><time>2026-04-08T13:38:18Z</time></trkpt><trkpt lat="34.75147734124829" lon="9.080138494132994"><ele>464.0</ele><time>2026-04-08T13:38:19Z</time></trkpt><trkpt lat="34.751695612304054" lon="9.08026146320965"><ele>464.0</ele><time>2026-04-08T13:38:20Z</time></trkpt><trkpt lat="34.751913885346234" lon="9.080388436687041"><ele>464.5</ele><time>2026-04-08T13:38:21Z</time></trkpt><trkpt lat="34.7521277896476" lon="9.080525879046643"><ele>465.0</ele><time>2026-04-08T13:38:22Z</time></trkpt><trkpt lat="34.752348529721885" lon="9.080670341146469"><ele>465.0</ele><time>2026-04-08T13:38:23Z</time></trkpt><trkpt lat="34.752570139408085" lon="9.080813389660344"><ele>465.0</ele><time>2026-04-08T13:38:24Z</time></trkpt><trkpt lat="34.75278599071754" lon="9.08095206285436"><ele>465.0</ele><time>2026-04-08T13:38:25Z</time></trkpt><trkpt lat="34.75300480338593" lon="9.081091100395694"><ele>465.0</ele><time>2026-04-08T13:38:26Z</time></trkpt><trkpt lat="34.753228289445936" lon="9.081233192550792"><ele>465.0</ele><time>2026-04-08T13:38:27Z</time></trkpt><trkpt lat="34.75345517469432" lon="9.08137804763174"><ele>465.0</ele><time>2026-04-08T13:38:28Z</time></trkpt><trkpt lat="34.753691111849015" lon="9.08152768249485"><ele>465.5</ele><time>2026-04-08T13:38:29Z</time></trkpt><trkpt lat="34.753941574436205" lon="9.081686276315114"><ele>466.0</ele><time>2026-04-08T13:38:30Z</time></trkpt><trkpt lat="34.75419709089231" lon="9.081855084065745"><ele>466.0</ele><time>2026-04-08T13:38:31Z</time></trkpt><trkpt lat="34.7544382011717" lon="9.082016559146192"><ele>466.0</ele><time>2026-04-08T13:38:32Z</time></trkpt><trkpt lat="34.75467309594449" lon="9.082172465829068"><ele>466.0</ele><time>2026-04-08T13:38:33Z</time></trkpt><trkpt lat="34.75491500102945" lon="9.08233289208848"><ele>466.0</ele><time>2026-04-08T13:38:34Z</time></trkpt><trkpt lat="34.755161294779874" lon="9.082493227516784"><ele>467.5</ele><time>2026-04-08T13:38:35Z</time></trkpt><trkpt lat="34.7554187690507" lon="9.082659400065369"><ele>469.0</ele><time>2026-04-08T13:38:36Z</time></trkpt><trkpt lat="34.755691225572" lon="9.082830539218756"><ele>469.0</ele><time>2026-04-08T13:38:37Z</time></trkpt><trkpt lat="34.75596146265991" lon="9.082996149920822"><ele>469.0</ele><time>2026-04-08T13:38:38Z</time></trkpt><trkpt lat="34.75622926652049" lon="9.083163453991173"><ele>469.5</ele><time>2026-04-08T13:38:39Z</time></trkpt><trkpt lat="34.75649421627676" lon="9.083331739105088"><ele>470.0</ele><time>2026-04-08T13:38:40Z</time></trkpt><trkpt lat="34.7567516814633" lon="9.083495735655678"><ele>469.5</ele><time>2026-04-08T13:38:41Z</time></trkpt><trkpt lat="34.757007694511266" lon="9.083659458617817"><ele>469.0</ele><time>2026-04-08T13:38:42Z</time></trkpt><trkpt lat="34.7572643722048" lon="9.083822903881707"><ele>469.0</ele><time>2026-04-08T13:38:43Z</time></trkpt><trkpt lat="34.75752478964998" lon="9.08398621942024"><ele>469.0</ele><time>2026-04-08T13:38:44Z</time></trkpt><trkpt lat="34.75778674377796" lon="9.084150423489971"><ele>469.5</ele><time>2026-04-08T13:38:45Z</time></trkpt><trkpt lat="34.758051971363614" lon="9.084314231249904"><ele>470.0</ele><time>2026-04-08T13:38:46Z</time></trkpt><trkpt lat="34.75832173306504" lon="9.084471385304019"><ele>470.0</ele><time>2026-04-08T13:38:47Z</time></trkpt><trkpt lat="34.75859097278749" lon="9.08462917087783"><ele>470.0</ele><time>2026-04-08T13:38:48Z</time></trkpt><trkpt lat="34.758859906108704" lon="9.084801203973424"><ele>469.5</ele><time>2026-04-08T13:38:49Z</time></trkpt><trkpt lat="34.75913277404758" lon="9.08497917762104"><ele>469.0</ele><time>2026-04-08T13:38:50Z</time></trkpt><trkpt lat="34.75941314020679" lon="9.085160455808941"><ele>469.0</ele><time>2026-04-08T13:38:51Z</time></trkpt><trkpt lat="34.75969503039177" lon="9.085358610349664"><ele>469.0</ele><time>2026-04-08T13:38:52Z</time></trkpt><trkpt lat="34.75997466209676" lon="9.08555022068475"><ele>469.0</ele><time>2026-04-08T13:38:53Z</time></trkpt><trkpt lat="34.760243760289505" lon="9.085715607512334"><ele>469.0</ele><time>2026-04-08T13:38:54Z</time></trkpt><trkpt lat="34.76050714972376" lon="9.08587541124261"><ele>469.0</ele><time>2026-04-08T13:38:55Z</time></trkpt><trkpt lat="34.760770427445784" lon="9.086041666865631"><ele>469.0</ele><time>2026-04-08T13:38:56Z</time></trkpt><trkpt lat="34.76103706787558" lon="9.086212049960452"><ele>469.0</ele><time>2026-04-08T13:38:57Z</time></trkpt><trkpt lat="34.76130693903428" lon="9.086385504508998"><ele>469.0</ele><time>2026-04-08T13:38:58Z</time></trkpt><trkpt lat="34.76157839600572" lon="9.086559793974793"><ele>469.0</ele><time>2026-04-08T13:38:59Z</time></trkpt><trkpt lat="34.76184843561243" lon="9.08673006181552"><ele>469.0</ele><time>2026-04-08T13:39:00Z</time></trkpt><trkpt lat="34.76212054930942" lon="9.086901069685025"><ele>468.5</ele><time>2026-04-08T13:39:01Z</time></trkpt><trkpt lat="34.76239093998487" lon="9.087075671301898"><ele>468.0</ele><time>2026-04-08T13:39:02Z</time></trkpt><trkpt lat="34.76266078640737" lon="9.087246286489709"><ele>468.5</ele><time>2026-04-08T13:39:03Z</time></trkpt><trkpt lat="34.76293585650353" lon="9.087413860067787"><ele>469.0</ele><time>2026-04-08T13:39:04Z</time></trkpt><trkpt lat="34.763208393522454" lon="9.0875792917626"><ele>469.0</ele><time>2026-04-08T13:39:05Z</time></trkpt><trkpt lat="34.76347848172706" lon="9.087749768153675"><ele>469.0</ele><time>2026-04-08T13:39:06Z</time></trkpt><trkpt lat="34.763747483408046" lon="9.087924842585918"><ele>468.0</ele><time>2026-04-08T13:39:07Z</time></trkpt><trkpt lat="34.76401649270031" lon="9.088097132878582"><ele>467.0</ele><time>2026-04-08T13:39:08Z</time></trkpt><trkpt lat="34.76428551761598" lon="9.088267717667941"><ele>467.5</ele><time>2026-04-08T13:39:09Z</time></trkpt><trkpt lat="34.76455685133541" lon="9.08844035737652"><ele>468.0</ele><time>2026-04-08T13:39:10Z</time></trkpt><trkpt lat="34.76482962464352" lon="9.088612262709109"><ele>468.0</ele><time>2026-04-08T13:39:11Z</time></trkpt><trkpt lat="34.76509922280931" lon="9.088783094891038"><ele>468.0</ele><time>2026-04-08T13:39:12Z</time></trkpt><trkpt lat="34.7653700318804" lon="9.088956018234535"><ele>467.0</ele><time>2026-04-08T13:39:13Z</time></trkpt><trkpt lat="34.7656419531403" lon="9.08913037491482"><ele>466.0</ele><time>2026-04-08T13:39:14Z</time></trkpt><trkpt lat="34.765915272157955" lon="9.089304013198065"><ele>467.0</ele><time>2026-04-08T13:39:15Z</time></trkpt><trkpt lat="34.76619074501168" lon="9.089475466195394"><ele>468.0</ele><time>2026-04-08T13:39:16Z</time></trkpt><trkpt lat="34.76646804602301" lon="9.089650080617549"><ele>468.0</ele><time>2026-04-08T13:39:17Z</time></trkpt><trkpt lat="34.766739898169085" lon="9.0898222380438"><ele>468.0</ele><time>2026-04-08T13:39:18Z</time></trkpt><trkpt lat="34.76701654942903" lon="9.089997680515237"><ele>468.0</ele><time>2026-04-08T13:39:19Z</time></trkpt><trkpt lat="34.76729019207466" lon="9.090171694738254"><ele>468.0</ele><time>2026-04-08T13:39:20Z</time></trkpt><trkpt lat="34.76756431058069" lon="9.09034803693591"><ele>468.5</ele><time>2026-04-08T13:39:21Z</time></trkpt><trkpt lat="34.76783662752686" lon="9.090522762888146"><ele>469.0</ele><time>2026-04-08T13:39:22Z</time></trkpt><trkpt lat="34.76811147404876" lon="9.090697326707282"><ele>467.5</ele><time>2026-04-08T13:39:23Z</time></trkpt><trkpt lat="34.76838667822602" lon="9.09087027694175"><ele>466.0</ele><time>2026-04-08T13:39:24Z</time></trkpt><trkpt lat="34.76866374276722" lon="9.091043434264128"><ele>466.0</ele><time>2026-04-08T13:39:25Z</time></trkpt><trkpt lat="34.76893821356509" lon="9.09121567809924"><ele>466.0</ele><time>2026-04-08T13:39:26Z</time></trkpt><trkpt lat="34.76921271502779" lon="9.091391600109937"><ele>466.0</ele><time>2026-04-08T13:39:27Z</time></trkpt><trkpt lat="34.769478028539815" lon="9.091559632014786"><ele>466.0</ele><time>2026-04-08T13:39:28Z</time></trkpt><trkpt lat="34.769738971159065" lon="9.09172497822076"><ele>466.0</ele><time>2026-04-08T13:39:29Z</time></trkpt><trkpt lat="34.770000635819294" lon="9.091891856222803"><ele>466.0</ele><time>2026-04-08T13:39:30Z</time></trkpt><trkpt lat="34.77026068836769" lon="9.092057742240877"><ele>467.0</ele><time>2026-04-08T13:39:31Z</time></trkpt><trkpt lat="34.770503741708495" lon="9.092212532731828"><ele>468.0</ele><time>2026-04-08T13:39:32Z</time></trkpt><trkpt lat="34.77072389220903" lon="9.092352319897843"><ele>468.0</ele><time>2026-04-08T13:39:33Z</time></trkpt><trkpt lat="34.77093642951036" lon="9.092487955243426"><ele>468.0</ele><time>2026-04-08T13:39:34Z</time></trkpt><trkpt lat="34.77114215208094" lon="9.092620683068562"><ele>468.0</ele><time>2026-04-08T13:39:35Z</time></trkpt><trkpt lat="34.77133517124638" lon="9.09274457144506"><ele>468.0</ele><time>2026-04-08T13:39:36Z</time></trkpt><trkpt lat="34.77152329279755" lon="9.09286412859994"><ele>468.0</ele><time>2026-04-08T13:39:37Z</time></trkpt><trkpt lat="34.77171130739036" lon="9.092983338763917"><ele>467.66666666666663</ele><time>2026-04-08T13:39:38Z</time></trkpt><trkpt lat="34.77190225318626" lon="9.093102352246094"><ele>467.3333333333333</ele><time>2026-04-08T13:39:39Z</time></trkpt><trkpt lat="34.77210072601282" lon="9.09322675678722"><ele>467.0</ele><time>2026-04-08T13:39:40Z</time></trkpt><trkpt lat="34.77230169436464" lon="9.093354283294557"><ele>467.0</ele><time>2026-04-08T13:39:41Z</time></trkpt><trkpt lat="34.77250348022775" lon="9.09348333799334"><ele>467.0</ele><time>2026-04-08T13:39:42Z</time></trkpt><trkpt lat="34.772706181476835" lon="9.093613528201058"><ele>465.5</ele><time>2026-04-08T13:39:43Z</time></trkpt><trkpt lat="34.772909750787576" lon="9.093742761156966"><ele>464.0</ele><time>2026-04-08T13:39:44Z</time></trkpt><trkpt lat="34.773112964316" lon="9.093872618179084"><ele>464.0</ele><time>2026-04-08T13:39:45Z</time></trkpt><trkpt lat="34.77331475686689" lon="9.09400086807409"><ele>464.0</ele><time>2026-04-08T13:39:46Z</time></trkpt><trkpt lat="34.77351606384172" lon="9.09412938613004"><ele>464.5</ele><time>2026-04-08T13:39:47Z</time></trkpt><trkpt lat="34.77371648109855" lon="9.09425880445"><ele>465.0</ele><time>2026-04-08T13:39:48Z</time></trkpt><trkpt lat="34.77391942902667" lon="9.0943902482091"><ele>465.0</ele><time>2026-04-08T13:39:49Z</time></trkpt><trkpt lat="34.77412799133461" lon="9.094524086143398"><ele>465.0</ele><time>2026-04-08T13:39:50Z</time></trkpt><trkpt lat="34.77434326629157" lon="9.094663560817503"><ele>464.5</ele><time>2026-04-08T13:39:51Z</time></trkpt><trkpt lat="34.77455285090383" lon="9.094795815165751"><ele>464.0</ele><time>2026-04-08T13:39:52Z</time></trkpt><trkpt lat="34.774753933326075" lon="9.094922618322961"><ele>464.0</ele><time>2026-04-08T13:39:53Z</time></trkpt><trkpt lat="34.77494905279848" lon="9.095046146194818"><ele>464.0</ele><time>2026-04-08T13:39:54Z</time></trkpt><trkpt lat="34.775143865918" lon="9.095171055362961"><ele>464.0</ele><time>2026-04-08T13:39:55Z</time></trkpt><trkpt lat="34.77533854178" lon="9.095295346728923"><ele>464.0</ele><time>2026-04-08T13:39:56Z</time></trkpt><trkpt lat="34.77553424942168" lon="9.09541827882519"><ele>464.0</ele><time>2026-04-08T13:39:57Z</time></trkpt><trkpt lat="34.77572593758742" lon="9.095536971112256"><ele>464.0</ele><time>2026-04-08T13:39:58Z</time></trkpt><trkpt lat="34.7759163818591" lon="9.095654373954911"><ele>463.66666666666663</ele><time>2026-04-08T13:39:59Z</time></trkpt><trkpt lat="34.77610149750998" lon="9.095770381982181"><ele>463.33333333333337</ele><time>2026-04-08T13:40:00Z</time></trkpt><trkpt lat="34.776288441534035" lon="9.09588763925898"><ele>463.0</ele><time>2026-04-08T13:40:01Z</time></trkpt><trkpt lat="34.77647738316939" lon="9.096009826281167"><ele>463.0</ele><time>2026-04-08T13:40:02Z</time></trkpt><trkpt lat="34.77667117459655" lon="9.096133127683355"><ele>463.0</ele><time>2026-04-08T13:40:03Z</time></trkpt><trkpt lat="34.77686530451625" lon="9.096255202604983"><ele>463.0</ele><time>2026-04-08T13:40:04Z</time></trkpt><trkpt lat="34.77706221192085" lon="9.096377257162588"><ele>463.0</ele><time>2026-04-08T13:40:05Z</time></trkpt><trkpt lat="34.777270504722736" lon="9.096505618921087"><ele>463.0</ele><time>2026-04-08T13:40:06Z</time></trkpt><trkpt lat="34.777485111844406" lon="9.096639597724486"><ele>463.0</ele><time>2026-04-08T13:40:07Z</time></trkpt><trkpt lat="34.77769795108183" lon="9.096774855325602"><ele>463.0</ele><time>2026-04-08T13:40:08Z</time></trkpt><trkpt lat="34.777908931253265" lon="9.096907860936987"><ele>463.0</ele><time>2026-04-08T13:40:09Z</time></trkpt><trkpt lat="34.778123193045886" lon="9.097043413147889"><ele>463.0</ele><time>2026-04-08T13:40:10Z</time></trkpt><trkpt lat="34.7783429768096" lon="9.097181526378144"><ele>463.5</ele><time>2026-04-08T13:40:11Z</time></trkpt><trkpt lat="34.77857184429636" lon="9.097326735630478"><ele>464.0</ele><time>2026-04-08T13:40:12Z</time></trkpt><trkpt lat="34.778809324788625" lon="9.097474337775623"><ele>463.0</ele><time>2026-04-08T13:40:13Z</time></trkpt><trkpt lat="34.77905298576914" lon="9.097624083928196"><ele>462.0</ele><time>2026-04-08T13:40:14Z</time></trkpt><trkpt lat="34.77929410623722" lon="9.097777757151668"><ele>462.5</ele><time>2026-04-08T13:40:15Z</time></trkpt><trkpt lat="34.77951726310671" lon="9.097925385563686"><ele>463.0</ele><time>2026-04-08T13:40:16Z</time></trkpt><trkpt lat="34.77972923795405" lon="9.098066539504183"><ele>463.0</ele><time>2026-04-08T13:40:17Z</time></trkpt><trkpt lat="34.77994245196163" lon="9.098205227699099"><ele>463.0</ele><time>2026-04-08T13:40:18Z</time></trkpt><trkpt lat="34.78016554730535" lon="9.09834710852789"><ele>462.5</ele><time>2026-04-08T13:40:19Z</time></trkpt><trkpt lat="34.78039584809516" lon="9.098490855839682"><ele>462.0</ele><time>2026-04-08T13:40:20Z</time></trkpt><trkpt lat="34.780632485042744" lon="9.098637049255903"><ele>462.0</ele><time>2026-04-08T13:40:21Z</time></trkpt><trkpt lat="34.78087306582305" lon="9.098789779522125"><ele>462.0</ele><time>2026-04-08T13:40:22Z</time></trkpt><trkpt lat="34.78111492662315" lon="9.098946441080109"><ele>460.5</ele><time>2026-04-08T13:40:23Z</time></trkpt><trkpt lat="34.78135584981326" lon="9.099100000249484"><ele>459.0</ele><time>2026-04-08T13:40:24Z</time></trkpt><trkpt lat="34.781597318492835" lon="9.099252834974974"><ele>459.0</ele><time>2026-04-08T13:40:25Z</time></trkpt><trkpt lat="34.78183789456402" lon="9.099406108947262"><ele>459.0</ele><time>2026-04-08T13:40:26Z</time></trkpt><trkpt lat="34.78207994832025" lon="9.09955972514161"><ele>460.0</ele><time>2026-04-08T13:40:27Z</time></trkpt><trkpt lat="34.782322225893935" lon="9.099712910173103"><ele>461.0</ele><time>2026-04-08T13:40:28Z</time></trkpt><trkpt lat="34.78255879388325" lon="9.099865287245091"><ele>460.5</ele><time>2026-04-08T13:40:29Z</time></trkpt><trkpt lat="34.782799350572766" lon="9.100019982284058"><ele>460.0</ele><time>2026-04-08T13:40:30Z</time></trkpt><trkpt lat="34.783041336676405" lon="9.100172022184369"><ele>460.0</ele><time>2026-04-08T13:40:31Z</time></trkpt><trkpt lat="34.78328327865257" lon="9.100322285377844"><ele>460.0</ele><time>2026-04-08T13:40:32Z</time></trkpt><trkpt lat="34.78352235678006" lon="9.100472955608112"><ele>460.0</ele><time>2026-04-08T13:40:33Z</time></trkpt><trkpt lat="34.78376118516431" lon="9.100627828095345"><ele>460.0</ele><time>2026-04-08T13:40:34Z</time></trkpt><trkpt lat="34.78400176362251" lon="9.100780574805864"><ele>459.5</ele><time>2026-04-08T13:40:35Z</time></trkpt><trkpt lat="34.784242774413954" lon="9.100931221100174"><ele>459.0</ele><time>2026-04-08T13:40:36Z</time></trkpt><trkpt lat="34.784484505497495" lon="9.10108317047764"><ele>460.0</ele><time>2026-04-08T13:40:37Z</time></trkpt><trkpt lat="34.784727158417205" lon="9.10123814571818"><ele>461.0</ele><time>2026-04-08T13:40:38Z</time></trkpt><trkpt lat="34.78496719673595" lon="9.101391691213436"><ele>460.0</ele><time>2026-04-08T13:40:39Z</time></trkpt><trkpt lat="34.78520764142274" lon="9.101546150071854"><ele>459.0</ele><time>2026-04-08T13:40:40Z</time></trkpt><trkpt lat="34.785453280391536" lon="9.101700232699168"><ele>459.0</ele><time>2026-04-08T13:40:41Z</time></trkpt><trkpt lat="34.78569288891659" lon="9.10185284535829"><ele>459.0</ele><time>2026-04-08T13:40:42Z</time></trkpt><trkpt lat="34.785932140104876" lon="9.102007628267483"><ele>459.0</ele><time>2026-04-08T13:40:43Z</time></trkpt><trkpt lat="34.78617309117784" lon="9.102164195951271"><ele>459.0</ele><time>2026-04-08T13:40:44Z</time></trkpt><trkpt lat="34.786414004047025" lon="9.102320360436728"><ele>459.0</ele><time>2026-04-08T13:40:45Z</time></trkpt><trkpt lat="34.786657903793184" lon="9.102475878682592"><ele>459.0</ele><time>2026-04-08T13:40:46Z</time></trkpt><trkpt lat="34.78689947116674" lon="9.102628853512792"><ele>459.0</ele><time>2026-04-08T13:40:47Z</time></trkpt><trkpt lat="34.78714002685937" lon="9.102781139367686"><ele>459.0</ele><time>2026-04-08T13:40:48Z</time></trkpt><trkpt lat="34.78738289062384" lon="9.102933237859789"><ele>459.0</ele><time>2026-04-08T13:40:49Z</time></trkpt><trkpt lat="34.7876252786615" lon="9.10308267106538"><ele>459.0</ele><time>2026-04-08T13:40:50Z</time></trkpt><trkpt lat="34.78786758500097" lon="9.103232313401175"><ele>458.5</ele><time>2026-04-08T13:40:51Z</time></trkpt><trkpt lat="34.788105890452414" lon="9.103383763020862"><ele>458.0</ele><time>2026-04-08T13:40:52Z</time></trkpt><trkpt lat="34.788346037899345" lon="9.10353703589026"><ele>458.5</ele><time>2026-04-08T13:40:53Z</time></trkpt><trkpt lat="34.78858691756146" lon="9.10369258381892"><ele>459.0</ele><time>2026-04-08T13:40:54Z</time></trkpt><trkpt lat="34.788831208915234" lon="9.103846355027844"><ele>459.0</ele><time>2026-04-08T13:40:55Z</time></trkpt><trkpt lat="34.789073787494424" lon="9.103997056694729"><ele>459.0</ele><time>2026-04-08T13:40:56Z</time></trkpt><trkpt lat="34.78931692373981" lon="9.104146026121432"><ele>457.0</ele><time>2026-04-08T13:40:57Z</time></trkpt><trkpt lat="34.78956083518407" lon="9.104293213861576"><ele>455.0</ele><time>2026-04-08T13:40:58Z</time></trkpt><trkpt lat="34.78980493504563" lon="9.104439239493647"><ele>455.0</ele><time>2026-04-08T13:40:59Z</time></trkpt><trkpt lat="34.79004806811472" lon="9.104585516679082"><ele>455.0</ele><time>2026-04-08T13:41:00Z</time></trkpt><trkpt lat="34.79028925505453" lon="9.104734093302255"><ele>456.0</ele><time>2026-04-08T13:41:01Z</time></trkpt><trkpt lat="34.79053198488845" lon="9.104891273045343"><ele>457.0</ele><time>2026-04-08T13:41:02Z</time></trkpt><trkpt lat="34.79078941337196" lon="9.105066758677527"><ele>456.0</ele><time>2026-04-08T13:41:03Z</time></trkpt><trkpt lat="34.791050417692944" lon="9.10525179377647"><ele>455.0</ele><time>2026-04-08T13:41:04Z</time></trkpt><trkpt lat="34.79130401390508" lon="9.10542443636706"><ele>455.0</ele><time>2026-04-08T13:41:05Z</time></trkpt><trkpt lat="34.79156039043379" lon="9.105591464158286"><ele>455.0</ele><time>2026-04-08T13:41:06Z</time></trkpt><trkpt lat="34.791820889555744" lon="9.10575262626615"><ele>454.5</ele><time>2026-04-08T13:41:07Z</time></trkpt><trkpt lat="34.79207962822988" lon="9.105912144011484"><ele>454.0</ele><time>2026-04-08T13:41:08Z</time></trkpt><trkpt lat="34.79233824675096" lon="9.106073580958462"><ele>454.0</ele><time>2026-04-08T13:41:09Z</time></trkpt><trkpt lat="34.792596009479816" lon="9.106236998773817"><ele>454.0</ele><time>2026-04-08T13:41:10Z</time></trkpt><trkpt lat="34.792850732957305" lon="9.106399983223106"><ele>454.5</ele><time>2026-04-08T13:41:11Z</time></trkpt><trkpt lat="34.79310510022968" lon="9.106561895240715"><ele>455.0</ele><time>2026-04-08T13:41:12Z</time></trkpt><trkpt lat="34.793360810281854" lon="9.106727455553703"><ele>454.5</ele><time>2026-04-08T13:41:13Z</time></trkpt><trkpt lat="34.79360593516019" lon="9.10688262588148"><ele>454.0</ele><time>2026-04-08T13:41:14Z</time></trkpt><trkpt lat="34.79384795268915" lon="9.107036542924256"><ele>454.0</ele><time>2026-04-08T13:41:15Z</time></trkpt><trkpt lat="34.794084203162114" lon="9.107186986759928"><ele>454.0</ele><time>2026-04-08T13:41:16Z</time></trkpt><trkpt lat="34.79431912810189" lon="9.107338312181863"><ele>454.0</ele><time>2026-04-08T13:41:17Z</time></trkpt><trkpt lat="34.79455222372119" lon="9.1074860451776"><ele>454.0</ele><time>2026-04-08T13:41:18Z</time></trkpt><trkpt lat="34.794785557031766" lon="9.107632863202294"><ele>454.0</ele><time>2026-04-08T13:41:19Z</time></trkpt><trkpt lat="34.79502153032804" lon="9.107782863822427"><ele>454.0</ele><time>2026-04-08T13:41:20Z</time></trkpt><trkpt lat="34.79525426273361" lon="9.10793196106596"><ele>453.5</ele><time>2026-04-08T13:41:21Z</time></trkpt><trkpt lat="34.79548530082047" lon="9.108078191171527"><ele>453.0</ele><time>2026-04-08T13:41:22Z</time></trkpt><trkpt lat="34.79570695578599" lon="9.108220555798328"><ele>452.5</ele><time>2026-04-08T13:41:23Z</time></trkpt><trkpt lat="34.7959136758509" lon="9.10835433597046"><ele>452.0</ele><time>2026-04-08T13:41:24Z</time></trkpt><trkpt lat="34.79611218745474" lon="9.108483092957396"><ele>452.0</ele><time>2026-04-08T13:41:25Z</time></trkpt><trkpt lat="34.796306918674745" lon="9.108610738097576"><ele>452.0</ele><time>2026-04-08T13:41:26Z</time></trkpt><trkpt lat="34.796503817828274" lon="9.108735654663677"><ele>452.0</ele><time>2026-04-08T13:41:27Z</time></trkpt><trkpt lat="34.79670750909152" lon="9.108859515533952"><ele>452.0</ele><time>2026-04-08T13:41:28Z</time></trkpt><trkpt lat="34.796908262336665" lon="9.108983095249357"><ele>452.0</ele><time>2026-04-08T13:41:29Z</time></trkpt><trkpt lat="34.79710922804677" lon="9.109108201268691"><ele>452.0</ele><time>2026-04-08T13:41:30Z</time></trkpt><trkpt lat="34.79730682749032" lon="9.109232578637384"><ele>452.0</ele><time>2026-04-08T13:41:31Z</time></trkpt><trkpt lat="34.7975019630368" lon="9.109360080805361"><ele>452.0</ele><time>2026-04-08T13:41:32Z</time></trkpt><trkpt lat="34.797695332398845" lon="9.109487188003152"><ele>452.3333333333333</ele><time>2026-04-08T13:41:33Z</time></trkpt><trkpt lat="34.797891851932505" lon="9.10961420182784"><ele>452.66666666666663</ele><time>2026-04-08T13:41:34Z</time></trkpt><trkpt lat="34.7980885266727" lon="9.109737312847798"><ele>453.0</ele><time>2026-04-08T13:41:35Z</time></trkpt><trkpt lat="34.79828747081768" lon="9.10986262592425"><ele>453.0</ele><time>2026-04-08T13:41:36Z</time></trkpt><trkpt lat="34.798488884325344" lon="9.109991011589733"><ele>453.0</ele><time>2026-04-08T13:41:37Z</time></trkpt><trkpt lat="34.79869091139078" lon="9.110119428356565"><ele>453.0</ele><time>2026-04-08T13:41:38Z</time></trkpt><trkpt lat="34.79889802545308" lon="9.110249809583921"><ele>453.0</ele><time>2026-04-08T13:41:39Z</time></trkpt><trkpt lat="34.799111252507615" lon="9.110383447954144"><ele>453.0</ele><time>2026-04-08T13:41:40Z</time></trkpt><trkpt lat="34.799325543586576" lon="9.110518218018026"><ele>453.0</ele><time>2026-04-08T13:41:41Z</time></trkpt><trkpt lat="34.79954339793482" lon="9.110655153021929"><ele>453.5</ele><time>2026-04-08T13:41:42Z</time></trkpt><trkpt lat="34.79976033978892" lon="9.110786614642496"><ele>454.0</ele><time>2026-04-08T13:41:43Z</time></trkpt><trkpt lat="34.79998024505121" lon="9.110924168764106"><ele>453.5</ele><time>2026-04-08T13:41:44Z</time></trkpt><trkpt lat="34.80020110348932" lon="9.111063041954111"><ele>453.0</ele><time>2026-04-08T13:41:45Z</time></trkpt><trkpt lat="34.80042665223146" lon="9.111202345156766"><ele>453.0</ele><time>2026-04-08T13:41:46Z</time></trkpt><trkpt lat="34.800654864618544" lon="9.111341758508805"><ele>453.0</ele><time>2026-04-08T13:41:47Z</time></trkpt><trkpt lat="34.80086452541096" lon="9.111470061580828"><ele>453.0</ele><time>2026-04-08T13:41:48Z</time></trkpt><trkpt lat="34.80105216350476" lon="9.111590987862066"><ele>453.0</ele><time>2026-04-08T13:41:49Z</time></trkpt><trkpt lat="34.80123386766193" lon="9.111709196998577"><ele>453.0</ele><time>2026-04-08T13:41:50Z</time></trkpt><trkpt lat="34.801432669672046" lon="9.111828133405274"><ele>453.0</ele><time>2026-04-08T13:41:51Z</time></trkpt><trkpt lat="34.80165712836542" lon="9.11196296187089"><ele>453.0</ele><time>2026-04-08T13:41:52Z</time></trkpt><trkpt lat="34.80189457616995" lon="9.112127336501255"><ele>452.5</ele><time>2026-04-08T13:41:53Z</time></trkpt><trkpt lat="34.80213481327957" lon="9.112302522191817"><ele>452.0</ele><time>2026-04-08T13:41:54Z</time></trkpt><trkpt lat="34.802381555281904" lon="9.11247699664377"><ele>452.0</ele><time>2026-04-08T13:41:55Z</time></trkpt><trkpt lat="34.80262491207663" lon="9.112648600425269"><ele>452.0</ele><time>2026-04-08T13:41:56Z</time></trkpt><trkpt lat="34.80286750868279" lon="9.112823128575466"><ele>453.0</ele><time>2026-04-08T13:41:57Z</time></trkpt><trkpt lat="34.80310966749464" lon="9.112995962471182"><ele>454.0</ele><time>2026-04-08T13:41:58Z</time></trkpt><trkpt lat="34.8033536747558" lon="9.113169426883212"><ele>453.5</ele><time>2026-04-08T13:41:59Z</time></trkpt><trkpt lat="34.80359285002771" lon="9.113341362467242"><ele>453.0</ele><time>2026-04-08T13:42:00Z</time></trkpt><trkpt lat="34.80382312689728" lon="9.113510074905859"><ele>453.0</ele><time>2026-04-08T13:42:01Z</time></trkpt><trkpt lat="34.80404068228768" lon="9.113668793774455"><ele>453.0</ele><time>2026-04-08T13:42:02Z</time></trkpt><trkpt lat="34.80424514451231" lon="9.113819535504577"><ele>453.0</ele><time>2026-04-08T13:42:03Z</time></trkpt><trkpt lat="34.80445257033834" lon="9.11397013840143"><ele>453.0</ele><time>2026-04-08T13:42:04Z</time></trkpt><trkpt lat="34.80466497575311" lon="9.114123739525425"><ele>452.5</ele><time>2026-04-08T13:42:05Z</time></trkpt><trkpt lat="34.80488530971295" lon="9.114283239835745"><ele>452.0</ele><time>2026-04-08T13:42:06Z</time></trkpt><trkpt lat="34.80511294602125" lon="9.114448030616854"><ele>451.5</ele><time>2026-04-08T13:42:07Z</time></trkpt><trkpt lat="34.80534492041415" lon="9.114614335362516"><ele>451.0</ele><time>2026-04-08T13:42:08Z</time></trkpt><trkpt lat="34.80557837890656" lon="9.114784597011589"><ele>451.0</ele><time>2026-04-08T13:42:09Z</time></trkpt><trkpt lat="34.80581709054958" lon="9.114957672264133"><ele>451.0</ele><time>2026-04-08T13:42:10Z</time></trkpt><trkpt lat="34.80605703698647" lon="9.11512948431874"><ele>451.0</ele><time>2026-04-08T13:42:11Z</time></trkpt><trkpt lat="34.80630242853832" lon="9.115301860332748"><ele>451.0</ele><time>2026-04-08T13:42:12Z</time></trkpt><trkpt lat="34.8065423005463" lon="9.115470722459037"><ele>451.0</ele><time>2026-04-08T13:42:13Z</time></trkpt><trkpt lat="34.80677135954455" lon="9.115625796289278"><ele>451.0</ele><time>2026-04-08T13:42:14Z</time></trkpt><trkpt lat="34.80697170023882" lon="9.115764695985483"><ele>451.33333333333337</ele><time>2026-04-08T13:42:15Z</time></trkpt><trkpt lat="34.807143661041614" lon="9.115885346436912"><ele>451.66666666666663</ele><time>2026-04-08T13:42:16Z</time></trkpt><trkpt lat="34.80729591294335" lon="9.115988173083435"><ele>452.0</ele><time>2026-04-08T13:42:17Z</time></trkpt><trkpt lat="34.80742897352846" lon="9.116075119830775"><ele>452.0</ele><time>2026-04-08T13:42:18Z</time></trkpt><trkpt lat="34.807539700328704" lon="9.116146471485303"><ele>452.00000000000006</ele><time>2026-04-08T13:42:19Z</time></trkpt><trkpt lat="34.80762785979947" lon="9.116201289133045"><ele>452.00000000000006</ele><time>2026-04-08T13:42:20Z</time></trkpt><trkpt lat="34.8077069116546" lon="9.116249646348592"><ele>452.0</ele><time>2026-04-08T13:42:21Z</time></trkpt><trkpt lat="34.80777956268045" lon="9.116292855869705"><ele>452.0</ele><time>2026-04-08T13:42:22Z</time></trkpt><trkpt lat="34.807837189428966" lon="9.116327968300032"><ele>452.20000000000005</ele><time>2026-04-08T13:42:23Z</time></trkpt><trkpt lat="34.807946825446834" lon="9.116393643470948"><ele>452.40000000000003</ele><time>2026-04-08T13:42:25Z</time></trkpt><trkpt lat="34.80801188723708" lon="9.116438158267012"><ele>452.59999999999997</ele><time>2026-04-08T13:42:26Z</time></trkpt><trkpt lat="34.808094678977625" lon="9.116493338641535"><ele>452.79999999999995</ele><time>2026-04-08T13:42:27Z</time></trkpt><trkpt lat="34.808183368165786" lon="9.11654845603524"><ele>453.0</ele><time>2026-04-08T13:42:28Z</time></trkpt><trkpt lat="34.80827089874416" lon="9.116602198622386"><ele>453.0</ele><time>2026-04-08T13:42:29Z</time></trkpt><trkpt lat="34.80834447458753" lon="9.116650289420793"><ele>453.0</ele><time>2026-04-08T13:42:30Z</time></trkpt><trkpt lat="34.80841032801064" lon="9.116693767191812"><ele>453.0</ele><time>2026-04-08T13:42:31Z</time></trkpt><trkpt lat="34.80847576297221" lon="9.116734661372695"><ele>453.0</ele><time>2026-04-08T13:42:32Z</time></trkpt><trkpt lat="34.80856242509798" lon="9.11678791007744"><ele>453.0</ele><time>2026-04-08T13:42:33Z</time></trkpt><trkpt lat="34.808648799372115" lon="9.116844708556952"><ele>453.0</ele><time>2026-04-08T13:42:34Z</time></trkpt><trkpt lat="34.80872613617361" lon="9.116894369980026"><ele>453.0</ele><time>2026-04-08T13:42:35Z</time></trkpt><trkpt lat="34.80880751120881" lon="9.116946747527997"><ele>452.99999999999994</ele><time>2026-04-08T13:42:36Z</time></trkpt><trkpt lat="34.808896088689295" lon="9.11700426732589"><ele>452.99999999999994</ele><time>2026-04-08T13:42:37Z</time></trkpt><trkpt lat="34.80899437170217" lon="9.117067658866423"><ele>453.0</ele><time>2026-04-08T13:42:38Z</time></trkpt><trkpt lat="34.80910260533784" lon="9.117138274883782"><ele>453.0</ele><time>2026-04-08T13:42:39Z</time></trkpt><trkpt lat="34.80921566642446" lon="9.11721076643304"><ele>452.75</ele><time>2026-04-08T13:42:40Z</time></trkpt><trkpt lat="34.809330125668716" lon="9.11728238143382"><ele>452.5</ele><time>2026-04-08T13:42:41Z</time></trkpt><trkpt lat="34.80945168045527" lon="9.11736086172393"><ele>452.25</ele><time>2026-04-08T13:42:42Z</time></trkpt><trkpt lat="34.80957772629467" lon="9.117439982981136"><ele>452.0</ele><time>2026-04-08T13:42:43Z</time></trkpt><trkpt lat="34.809709629629516" lon="9.117522216650897"><ele>452.66666666666663</ele><time>2026-04-08T13:42:44Z</time></trkpt><trkpt lat="34.809843631792575" lon="9.117607411598156"><ele>453.33333333333337</ele><time>2026-04-08T13:42:45Z</time></trkpt><trkpt lat="34.80998428468888" lon="9.117696357971708"><ele>454.0</ele><time>2026-04-08T13:42:46Z</time></trkpt><trkpt lat="34.8101339427889" lon="9.117789703549322"><ele>453.6666666666667</ele><time>2026-04-08T13:42:47Z</time></trkpt><trkpt lat="34.81029185558662" lon="9.117888871798078"><ele>453.33333333333337</ele><time>2026-04-08T13:42:48Z</time></trkpt><trkpt lat="34.81045615314799" lon="9.117999819062238"><ele>453.0</ele><time>2026-04-08T13:42:49Z</time></trkpt><trkpt lat="34.81062739890986" lon="9.118115445549565"><ele>453.0</ele><time>2026-04-08T13:42:50Z</time></trkpt><trkpt lat="34.810813426130416" lon="9.118220517869434"><ele>453.0</ele><time>2026-04-08T13:42:51Z</time></trkpt><trkpt lat="34.81099849666622" lon="9.118338845733273"><ele>453.0</ele><time>2026-04-08T13:42:52Z</time></trkpt><trkpt lat="34.81118683531449" lon="9.118469599134423"><ele>453.0</ele><time>2026-04-08T13:42:53Z</time></trkpt><trkpt lat="34.81138705193232" lon="9.118588562667606"><ele>453.0</ele><time>2026-04-08T13:42:54Z</time></trkpt><trkpt lat="34.81158618744606" lon="9.118713563403258"><ele>453.0</ele><time>2026-04-08T13:42:55Z</time></trkpt><trkpt lat="34.81178303617816" lon="9.118838800618848"><ele>453.33333333333337</ele><time>2026-04-08T13:42:56Z</time></trkpt><trkpt lat="34.811978215785594" lon="9.118961070476043"><ele>453.6666666666667</ele><time>2026-04-08T13:42:57Z</time></trkpt><trkpt lat="34.81217026615909" lon="9.119079686105318"><ele>454.0</ele><time>2026-04-08T13:42:58Z</time></trkpt><trkpt lat="34.81236117084968" lon="9.119201305379185"><ele>454.0</ele><time>2026-04-08T13:42:59Z</time></trkpt><trkpt lat="34.81254701396841" lon="9.119319971278504"><ele>454.0</ele><time>2026-04-08T13:43:00Z</time></trkpt><trkpt lat="34.812735407192335" lon="9.119438112699036"><ele>454.0</ele><time>2026-04-08T13:43:01Z</time></trkpt><trkpt lat="34.81292630933845" lon="9.119559012913848"><ele>454.0</ele><time>2026-04-08T13:43:02Z</time></trkpt><trkpt lat="34.813113304585684" lon="9.11967556389948"><ele>454.0</ele><time>2026-04-08T13:43:03Z</time></trkpt><trkpt lat="34.81329844170502" lon="9.119792033633361"><ele>454.0</ele><time>2026-04-08T13:43:04Z</time></trkpt><trkpt lat="34.813489316080435" lon="9.119913381894008"><ele>454.0</ele><time>2026-04-08T13:43:05Z</time></trkpt><trkpt lat="34.81369223816779" lon="9.120042827031073"><ele>454.0</ele><time>2026-04-08T13:43:06Z</time></trkpt><trkpt lat="34.81390995651801" lon="9.120179523909577"><ele>454.0</ele><time>2026-04-08T13:43:07Z</time></trkpt><trkpt lat="34.81413776304898" lon="9.120321652580786"><ele>454.0</ele><time>2026-04-08T13:43:08Z</time></trkpt><trkpt lat="34.814375244118565" lon="9.120474510639859"><ele>454.0</ele><time>2026-04-08T13:43:09Z</time></trkpt><trkpt lat="34.81460134766321" lon="9.120618275621647"><ele>454.0</ele><time>2026-04-08T13:43:10Z</time></trkpt><trkpt lat="34.81482149976047" lon="9.120751935057175"><ele>454.0</ele><time>2026-04-08T13:43:11Z</time></trkpt><trkpt lat="34.81503769446644" lon="9.120883489956386"><ele>454.0</ele><time>2026-04-08T13:43:12Z</time></trkpt><trkpt lat="34.815249395889346" lon="9.121014851432246"><ele>454.0</ele><time>2026-04-08T13:43:13Z</time></trkpt><trkpt lat="34.81546274246549" lon="9.121150728107322"><ele>454.0</ele><time>2026-04-08T13:43:14Z</time></trkpt><trkpt lat="34.81567443192603" lon="9.121288855610102"><ele>454.0</ele><time>2026-04-08T13:43:15Z</time></trkpt><trkpt lat="34.8158860306306" lon="9.121428513772674"><ele>454.0</ele><time>2026-04-08T13:43:16Z</time></trkpt><trkpt lat="34.81609332432228" lon="9.121561528118725"><ele>455.0</ele><time>2026-04-08T13:43:17Z</time></trkpt><trkpt lat="34.816297712516295" lon="9.121688871861737"><ele>456.0</ele><time>2026-04-08T13:43:18Z</time></trkpt><trkpt lat="34.81650457747793" lon="9.121822732239142"><ele>456.0</ele><time>2026-04-08T13:43:19Z</time></trkpt><trkpt lat="34.8167164361275" lon="9.121959643855776"><ele>456.0</ele><time>2026-04-08T13:43:20Z</time></trkpt><trkpt lat="34.81693573933801" lon="9.122091172604694"><ele>456.5</ele><time>2026-04-08T13:43:21Z</time></trkpt><trkpt lat="34.81715252968425" lon="9.122222029723334"><ele>457.0</ele><time>2026-04-08T13:43:22Z</time></trkpt><trkpt lat="34.81736590400949" lon="9.122361412374481"><ele>457.0</ele><time>2026-04-08T13:43:23Z</time></trkpt><trkpt lat="34.81757932616433" lon="9.122500481298973"><ele>457.0</ele><time>2026-04-08T13:43:24Z</time></trkpt><trkpt lat="34.81779396648037" lon="9.12263458701125"><ele>457.0</ele><time>2026-04-08T13:43:25Z</time></trkpt><trkpt lat="34.81800539428252" lon="9.122767259607354"><ele>457.0</ele><time>2026-04-08T13:43:26Z</time></trkpt><trkpt lat="34.818215165459804" lon="9.122900544098608"><ele>457.0</ele><time>2026-04-08T13:43:27Z</time></trkpt><trkpt lat="34.818424891856786" lon="9.123034480884433"><ele>457.0</ele><time>2026-04-08T13:43:28Z</time></trkpt><trkpt lat="34.818636436453296" lon="9.123165606104818"><ele>457.0</ele><time>2026-04-08T13:43:29Z</time></trkpt><trkpt lat="34.81884958275592" lon="9.123294769329998"><ele>457.0</ele><time>2026-04-08T13:43:30Z</time></trkpt><trkpt lat="34.81905749213673" lon="9.123423321861543"><ele>457.0</ele><time>2026-04-08T13:43:31Z</time></trkpt><trkpt lat="34.81926722994271" lon="9.123557941887247"><ele>457.0</ele><time>2026-04-08T13:43:32Z</time></trkpt><trkpt lat="34.819475584535255" lon="9.123693144596265"><ele>457.0</ele><time>2026-04-08T13:43:33Z</time></trkpt><trkpt lat="34.81968867575491" lon="9.123831906080154"><ele>457.0</ele><time>2026-04-08T13:43:34Z</time></trkpt><trkpt lat="34.81990403214274" lon="9.123968644472791"><ele>457.5</ele><time>2026-04-08T13:43:35Z</time></trkpt><trkpt lat="34.82011798338631" lon="9.124103950869166"><ele>458.0</ele><time>2026-04-08T13:43:36Z</time></trkpt><trkpt lat="34.82032823920865" lon="9.124235701945617"><ele>456.5</ele><time>2026-04-08T13:43:37Z</time></trkpt><trkpt lat="34.82054094522582" lon="9.124367674339002"><ele>455.0</ele><time>2026-04-08T13:43:38Z</time></trkpt><trkpt lat="34.8207511265798" lon="9.124499685020536"><ele>455.0</ele><time>2026-04-08T13:43:39Z</time></trkpt><trkpt lat="34.82095750828573" lon="9.124631004704232"><ele>455.0</ele><time>2026-04-08T13:43:40Z</time></trkpt><trkpt lat="34.82116070346382" lon="9.124762498394137"><ele>456.0</ele><time>2026-04-08T13:43:41Z</time></trkpt><trkpt lat="34.82135951407182" lon="9.124889944212466"><ele>457.0</ele><time>2026-04-08T13:43:42Z</time></trkpt><trkpt lat="34.82155419381074" lon="9.12501270653133"><ele>458.0</ele><time>2026-04-08T13:43:43Z</time></trkpt><trkpt lat="34.8217526599675" lon="9.125133663303796"><ele>458.0</ele><time>2026-04-08T13:43:44Z</time></trkpt><trkpt lat="34.82195102281774" lon="9.125250170807762"><ele>458.0</ele><time>2026-04-08T13:43:45Z</time></trkpt><trkpt lat="34.822149110309766" lon="9.125370753813034"><ele>458.0</ele><time>2026-04-08T13:43:46Z</time></trkpt><trkpt lat="34.822345086732675" lon="9.125500476700429"><ele>458.0</ele><time>2026-04-08T13:43:47Z</time></trkpt><trkpt lat="34.82253540901555" lon="9.125633892698307"><ele>458.0</ele><time>2026-04-08T13:43:48Z</time></trkpt><trkpt lat="34.82272885989591" lon="9.125762819864217"><ele>458.0</ele><time>2026-04-08T13:43:49Z</time></trkpt><trkpt lat="34.82292197726561" lon="9.125883447180135"><ele>458.0</ele><time>2026-04-08T13:43:50Z</time></trkpt><trkpt lat="34.823111389354224" lon="9.125996925971243"><ele>458.0</ele><time>2026-04-08T13:43:51Z</time></trkpt><trkpt lat="34.82329472608008" lon="9.126107123397153"><ele>458.0</ele><time>2026-04-08T13:43:52Z</time></trkpt><trkpt lat="34.823482667654524" lon="9.12622111718512"><ele>458.0</ele><time>2026-04-08T13:43:53Z</time></trkpt><trkpt lat="34.82367262912823" lon="9.126340272399723"><ele>458.0</ele><time>2026-04-08T13:43:54Z</time></trkpt><trkpt lat="34.8238609870672" lon="9.126458233781776"><ele>458.0</ele><time>2026-04-08T13:43:55Z</time></trkpt><trkpt lat="34.82404373749836" lon="9.126576030578372"><ele>458.0</ele><time>2026-04-08T13:43:56Z</time></trkpt><trkpt lat="34.82422690460612" lon="9.126695449967086"><ele>458.0</ele><time>2026-04-08T13:43:57Z</time></trkpt><trkpt lat="34.824413441367085" lon="9.126815055175674"><ele>458.0</ele><time>2026-04-08T13:43:58Z</time></trkpt><trkpt lat="34.82460600777207" lon="9.126939621258519"><ele>458.0</ele><time>2026-04-08T13:43:59Z</time></trkpt><trkpt lat="34.82479478202275" lon="9.12705938426627"><ele>458.0</ele><time>2026-04-08T13:44:00Z</time></trkpt><trkpt lat="34.82497624447264" lon="9.127174167178714"><ele>458.0</ele><time>2026-04-08T13:44:01Z</time></trkpt><trkpt lat="34.82515011799678" lon="9.127284925462739"><ele>458.3333333333333</ele><time>2026-04-08T13:44:02Z</time></trkpt><trkpt lat="34.82531965607807" lon="9.127391412121712"><ele>458.66666666666663</ele><time>2026-04-08T13:44:03Z</time></trkpt><trkpt lat="34.82548748392761" lon="9.127497731463372"><ele>459.0</ele><time>2026-04-08T13:44:04Z</time></trkpt><trkpt lat="34.825654802961374" lon="9.127602264963851"><ele>459.33333333333337</ele><time>2026-04-08T13:44:05Z</time></trkpt><trkpt lat="34.82582260058888" lon="9.127705172605106"><ele>459.6666666666667</ele><time>2026-04-08T13:44:06Z</time></trkpt><trkpt lat="34.825989658412475" lon="9.12781077001904"><ele>460.0</ele><time>2026-04-08T13:44:07Z</time></trkpt><trkpt lat="34.826157601637085" lon="9.127917416431584"><ele>460.0</ele><time>2026-04-08T13:44:08Z</time></trkpt><trkpt lat="34.82632191749651" lon="9.128021880301553"><ele>460.0</ele><time>2026-04-08T13:44:09Z</time></trkpt><trkpt lat="34.826481810451995" lon="9.128123232881723"><ele>460.0</ele><time>2026-04-08T13:44:10Z</time></trkpt><trkpt lat="34.82663582829802" lon="9.128220117092598"><ele>460.33333333333337</ele><time>2026-04-08T13:44:11Z</time></trkpt><trkpt lat="34.82678963720377" lon="9.128317798138884"><ele>460.66666666666663</ele><time>2026-04-08T13:44:12Z</time></trkpt><trkpt lat="34.82694190178714" lon="9.128412572379982"><ele>461.0</ele><time>2026-04-08T13:44:13Z</time></trkpt><trkpt lat="34.82709338504018" lon="9.128506955381054"><ele>460.3333333333333</ele><time>2026-04-08T13:44:14Z</time></trkpt><trkpt lat="34.82724724288861" lon="9.12860307733463"><ele>459.66666666666663</ele><time>2026-04-08T13:44:15Z</time></trkpt><trkpt lat="34.82740376888104" lon="9.128700893423389"><ele>459.0</ele><time>2026-04-08T13:44:16Z</time></trkpt><trkpt lat="34.827561256553274" lon="9.128799257002372"><ele>459.0</ele><time>2026-04-08T13:44:17Z</time></trkpt><trkpt lat="34.82771810926035" lon="9.12890301269668"><ele>459.0</ele><time>2026-04-08T13:44:18Z</time></trkpt><trkpt lat="34.82787502117584" lon="9.12900623659178"><ele>459.0</ele><time>2026-04-08T13:44:19Z</time></trkpt><trkpt lat="34.8280433397767" lon="9.129112795724323"><ele>459.0</ele><time>2026-04-08T13:44:20Z</time></trkpt><trkpt lat="34.82821664282863" lon="9.129220249178262"><ele>459.0</ele><time>2026-04-08T13:44:21Z</time></trkpt><trkpt lat="34.82839622922653" lon="9.129329505952246"><ele>459.0</ele><time>2026-04-08T13:44:22Z</time></trkpt><trkpt lat="34.8285812393517" lon="9.129440331736392"><ele>459.0</ele><time>2026-04-08T13:44:23Z</time></trkpt><trkpt lat="34.828771524198935" lon="9.129553266766866"><ele>459.0</ele><time>2026-04-08T13:44:24Z</time></trkpt><trkpt lat="34.828968827696194" lon="9.129669427301781"><ele>459.0</ele><time>2026-04-08T13:44:25Z</time></trkpt><trkpt lat="34.82916888561998" lon="9.129787555821684"><ele>460.0</ele><time>2026-04-08T13:44:26Z</time></trkpt><trkpt lat="34.82937041886682" lon="9.129913659610356"><ele>461.0</ele><time>2026-04-08T13:44:27Z</time></trkpt><trkpt lat="34.82957245620417" lon="9.130051781359835"><ele>461.0</ele><time>2026-04-08T13:44:28Z</time></trkpt><trkpt lat="34.829774174605824" lon="9.130192836289241"><ele>461.0</ele><time>2026-04-08T13:44:29Z</time></trkpt><trkpt lat="34.82997958642768" lon="9.13033613337258"><ele>461.0</ele><time>2026-04-08T13:44:30Z</time></trkpt><trkpt lat="34.830189530679604" lon="9.130477169100743"><ele>461.0</ele><time>2026-04-08T13:44:31Z</time></trkpt><trkpt lat="34.830402359648204" lon="9.130611845042846"><ele>461.5</ele><time>2026-04-08T13:44:32Z</time></trkpt><trkpt lat="34.8306176682223" lon="9.130745483475444"><ele>462.0</ele><time>2026-04-08T13:44:33Z</time></trkpt><trkpt lat="34.830835420136744" lon="9.130880590796655"><ele>461.5</ele><time>2026-04-08T13:44:34Z</time></trkpt><trkpt lat="34.831057155419636" lon="9.13102378487406"><ele>461.0</ele><time>2026-04-08T13:44:35Z</time></trkpt><trkpt lat="34.831280781474426" lon="9.131164679321175"><ele>461.0</ele><time>2026-04-08T13:44:36Z</time></trkpt><trkpt lat="34.83150440263859" lon="9.131305508994947"><ele>461.0</ele><time>2026-04-08T13:44:37Z</time></trkpt><trkpt lat="34.831727018356204" lon="9.131444739734356"><ele>461.0</ele><time>2026-04-08T13:44:38Z</time></trkpt><trkpt lat="34.83195137530589" lon="9.131585677932554"><ele>461.0</ele><time>2026-04-08T13:44:39Z</time></trkpt><trkpt lat="34.83217437413323" lon="9.131726452272918"><ele>461.0</ele><time>2026-04-08T13:44:40Z</time></trkpt><trkpt lat="34.832395224459674" lon="9.131866108319459"><ele>461.0</ele><time>2026-04-08T13:44:41Z</time></trkpt><trkpt lat="34.83261603572831" lon="9.132006700553204"><ele>461.0</ele><time>2026-04-08T13:44:42Z</time></trkpt><trkpt lat="34.83283621943957" lon="9.132148394077188"><ele>461.0</ele><time>2026-04-08T13:44:43Z</time></trkpt><trkpt lat="34.83305666273294" lon="9.13228870634871"><ele>461.5</ele><time>2026-04-08T13:44:44Z</time></trkpt><trkpt lat="34.83327805397176" lon="9.132429082382037"><ele>462.0</ele><time>2026-04-08T13:44:45Z</time></trkpt><trkpt lat="34.83350018320081" lon="9.132566736217306"><ele>461.0</ele><time>2026-04-08T13:44:46Z</time></trkpt><trkpt lat="34.83372226464556" lon="9.132704380496968"><ele>460.0</ele><time>2026-04-08T13:44:47Z</time></trkpt><trkpt lat="34.83394489807153" lon="9.132842290128124"><ele>460.0</ele><time>2026-04-08T13:44:48Z</time></trkpt><trkpt lat="34.83416990314189" lon="9.132980248102019"><ele>460.0</ele><time>2026-04-08T13:44:49Z</time></trkpt><trkpt lat="34.83439999189207" lon="9.133122544260049"><ele>459.5</ele><time>2026-04-08T13:44:50Z</time></trkpt><trkpt lat="34.83463162644634" lon="9.133269926522171"><ele>459.0</ele><time>2026-04-08T13:44:51Z</time></trkpt><trkpt lat="34.83486201184514" lon="9.133419191686178"><ele>459.0</ele><time>2026-04-08T13:44:52Z</time></trkpt><trkpt lat="34.83509032617309" lon="9.133566687623375"><ele>459.0</ele><time>2026-04-08T13:44:53Z</time></trkpt><trkpt lat="34.83531811522071" lon="9.133712228290321"><ele>459.5</ele><time>2026-04-08T13:44:54Z</time></trkpt><trkpt lat="34.835545935283264" lon="9.133858445109412"><ele>460.0</ele><time>2026-04-08T13:44:55Z</time></trkpt><trkpt lat="34.83576965365294" lon="9.134001222589902"><ele>460.5</ele><time>2026-04-08T13:44:56Z</time></trkpt><trkpt lat="34.83598153732103" lon="9.134130246869823"><ele>461.0</ele><time>2026-04-08T13:44:57Z</time></trkpt><trkpt lat="34.83618084046378" lon="9.13425406403176"><ele>461.0</ele><time>2026-04-08T13:44:58Z</time></trkpt><trkpt lat="34.83636740706539" lon="9.134371149883066"><ele>461.0</ele><time>2026-04-08T13:44:59Z</time></trkpt><trkpt lat="34.83654889286908" lon="9.134488987685875"><ele>461.0</ele><time>2026-04-08T13:45:00Z</time></trkpt><trkpt lat="34.836725657607545" lon="9.134605446918686"><ele>460.66666666666663</ele><time>2026-04-08T13:45:01Z</time></trkpt><trkpt lat="34.836905671430216" lon="9.134721919985646"><ele>460.33333333333337</ele><time>2026-04-08T13:45:02Z</time></trkpt><trkpt lat="34.83708698207544" lon="9.134833165767937"><ele>460.0</ele><time>2026-04-08T13:45:03Z</time></trkpt><trkpt lat="34.837260761706425" lon="9.134936344519337"><ele>460.0</ele><time>2026-04-08T13:45:04Z</time></trkpt><trkpt lat="34.83743092039374" lon="9.135043278921438"><ele>460.0</ele><time>2026-04-08T13:45:05Z</time></trkpt><trkpt lat="34.83759914204805" lon="9.135151724638403"><ele>460.0</ele><time>2026-04-08T13:45:06Z</time></trkpt><trkpt lat="34.837767246943535" lon="9.135259188164179"><ele>460.0</ele><time>2026-04-08T13:45:07Z</time></trkpt><trkpt lat="34.83793335459192" lon="9.135362781137243"><ele>460.0</ele><time>2026-04-08T13:45:08Z</time></trkpt><trkpt lat="34.83809221321009" lon="9.13546314676099"><ele>460.0</ele><time>2026-04-08T13:45:09Z</time></trkpt><trkpt lat="34.838246617948734" lon="9.135561587796632"><ele>460.0</ele><time>2026-04-08T13:45:10Z</time></trkpt><trkpt lat="34.83840648210521" lon="9.13566539489783"><ele>460.0</ele><time>2026-04-08T13:45:11Z</time></trkpt><trkpt lat="34.83857740694042" lon="9.135774522055826"><ele>460.0</ele><time>2026-04-08T13:45:12Z</time></trkpt><trkpt lat="34.83874530704723" lon="9.135879121868783"><ele>460.33333333333337</ele><time>2026-04-08T13:45:13Z</time></trkpt><trkpt lat="34.838911935031284" lon="9.135983951839208"><ele>460.66666666666663</ele><time>2026-04-08T13:45:14Z</time></trkpt><trkpt lat="34.83907574940577" lon="9.136088399415495"><ele>461.0</ele><time>2026-04-08T13:45:15Z</time></trkpt><trkpt lat="34.83924028450722" lon="9.136196585692485"><ele>461.0</ele><time>2026-04-08T13:45:16Z</time></trkpt><trkpt lat="34.83940521956597" lon="9.13630132927501"><ele>461.0</ele><time>2026-04-08T13:45:17Z</time></trkpt><trkpt lat="34.83956974037766" lon="9.136401290498437"><ele>461.0</ele><time>2026-04-08T13:45:18Z</time></trkpt><trkpt lat="34.839727362217204" lon="9.136496369157692"><ele>460.66666666666663</ele><time>2026-04-08T13:45:19Z</time></trkpt><trkpt lat="34.839875962866145" lon="9.136590562864235"><ele>460.33333333333337</ele><time>2026-04-08T13:45:20Z</time></trkpt><trkpt lat="34.84001959685053" lon="9.136685589787122"><ele>460.0</ele><time>2026-04-08T13:45:21Z</time></trkpt><trkpt lat="34.84016593133948" lon="9.136780128020206"><ele>460.6666666666667</ele><time>2026-04-08T13:45:22Z</time></trkpt><trkpt lat="34.84031222367585" lon="9.136871480086304"><ele>461.33333333333337</ele><time>2026-04-08T13:45:23Z</time></trkpt><trkpt lat="34.840449477637414" lon="9.136954540095768"><ele>462.0</ele><time>2026-04-08T13:45:24Z</time></trkpt><trkpt lat="34.84058682644736" lon="9.137037815652745"><ele>462.0</ele><time>2026-04-08T13:45:25Z</time></trkpt><trkpt lat="34.84072068049608" lon="9.137124379982398"><ele>462.0</ele><time>2026-04-08T13:45:26Z</time></trkpt><trkpt lat="34.84085212890453" lon="9.137214294715214"><ele>462.0</ele><time>2026-04-08T13:45:27Z</time></trkpt><trkpt lat="34.840975645672565" lon="9.137301594417718"><ele>462.0</ele><time>2026-04-08T13:45:28Z</time></trkpt><trkpt lat="34.8410750565444" lon="9.137368502917877"><ele>462.0</ele><time>2026-04-08T13:45:29Z</time></trkpt><trkpt lat="34.84114618643618" lon="9.13741564196029"><ele>462.00000000000006</ele><time>2026-04-08T13:45:30Z</time></trkpt><trkpt lat="34.84124356801432" lon="9.137478738206445"><ele>462.00000000000006</ele><time>2026-04-08T13:45:32Z</time></trkpt><trkpt lat="34.841340279406616" lon="9.137539921327049"><ele>462.0</ele><time>2026-04-08T13:45:34Z</time></trkpt><trkpt lat="34.84141590432644" lon="9.13759112352798"><ele>462.0</ele><time>2026-04-08T13:45:35Z</time></trkpt><trkpt lat="34.841490941240835" lon="9.13763847117971"><ele>462.0</ele><time>2026-04-08T13:45:36Z</time></trkpt><trkpt lat="34.84156246046704" lon="9.13767918335976"><ele>462.00000000000006</ele><time>2026-04-08T13:45:37Z</time></trkpt><trkpt lat="34.8416357528885" lon="9.137726507663897"><ele>462.00000000000006</ele><time>2026-04-08T13:45:38Z</time></trkpt><trkpt lat="34.84171834161356" lon="9.137781900627802"><ele>462.0</ele><time>2026-04-08T13:45:39Z</time></trkpt><trkpt lat="34.841811264736855" lon="9.137841035003044"><ele>462.0</ele><time>2026-04-08T13:45:40Z</time></trkpt><trkpt lat="34.84191161461051" lon="9.137901020938074"><ele>461.75</ele><time>2026-04-08T13:45:41Z</time></trkpt><trkpt lat="34.842015918354164" lon="9.137963286815623"><ele>461.5</ele><time>2026-04-08T13:45:42Z</time></trkpt><trkpt lat="34.84212215685486" lon="9.138028300905077"><ele>461.25</ele><time>2026-04-08T13:45:43Z</time></trkpt><trkpt lat="34.84223301870331" lon="9.138099453389511"><ele>461.0</ele><time>2026-04-08T13:45:44Z</time></trkpt><trkpt lat="34.84234373979961" lon="9.138171008142038"><ele>460.75</ele><time>2026-04-08T13:45:45Z</time></trkpt><trkpt lat="34.8424558100789" lon="9.138245183324079"><ele>460.5</ele><time>2026-04-08T13:45:46Z</time></trkpt><trkpt lat="34.84256911847846" lon="9.138315901041342"><ele>460.25</ele><time>2026-04-08T13:45:47Z</time></trkpt><trkpt lat="34.84268351239983" lon="9.138381917387099"><ele>460.0</ele><time>2026-04-08T13:45:48Z</time></trkpt><trkpt lat="34.84279644987837" lon="9.138451482800683"><ele>460.5</ele><time>2026-04-08T13:45:49Z</time></trkpt><trkpt lat="34.8429066092457" lon="9.138523676686388"><ele>461.0</ele><time>2026-04-08T13:45:50Z</time></trkpt><trkpt lat="34.84301073240059" lon="9.138594683833011"><ele>461.5</ele><time>2026-04-08T13:45:51Z</time></trkpt><trkpt lat="34.84310639160602" lon="9.138659421877541"><ele>462.0</ele><time>2026-04-08T13:45:52Z</time></trkpt><trkpt lat="34.84319611916023" lon="9.13872297166026"><ele>462.0</ele><time>2026-04-08T13:45:53Z</time></trkpt><trkpt lat="34.84328576553918" lon="9.13879829675197"><ele>462.0</ele><time>2026-04-08T13:45:54Z</time></trkpt><trkpt lat="34.84337644519237" lon="9.138882546713168"><ele>462.0</ele><time>2026-04-08T13:45:55Z</time></trkpt><trkpt lat="34.843478785357156" lon="9.138957121098386"><ele>462.0</ele><time>2026-04-08T13:45:56Z</time></trkpt><trkpt lat="34.84360758404799" lon="9.139020838326488"><ele>461.8</ele><time>2026-04-08T13:45:57Z</time></trkpt><trkpt lat="34.84373811096703" lon="9.139080176398464"><ele>461.6</ele><time>2026-04-08T13:45:58Z</time></trkpt><trkpt lat="34.84383109433217" lon="9.139132854635541"><ele>461.40000000000003</ele><time>2026-04-08T13:45:59Z</time></trkpt><trkpt lat="34.84389365549308" lon="9.139173537278557"><ele>461.20000000000005</ele><time>2026-04-08T13:46:00Z</time></trkpt><trkpt lat="34.84396734548187" lon="9.139224767138693"><ele>461.0</ele><time>2026-04-08T13:46:01Z</time></trkpt><trkpt lat="34.844054461490586" lon="9.13927641003186"><ele>461.0</ele><time>2026-04-08T13:46:02Z</time></trkpt><trkpt lat="34.8441386975089" lon="9.139330047734324"><ele>461.0</ele><time>2026-04-08T13:46:03Z</time></trkpt><trkpt lat="34.8442245989675" lon="9.139383044058215"><ele>461.0</ele><time>2026-04-08T13:46:04Z</time></trkpt><trkpt lat="34.84432064795256" lon="9.139438301622112"><ele>461.0</ele><time>2026-04-08T13:46:05Z</time></trkpt><trkpt lat="34.84441724341364" lon="9.139493110775875"><ele>461.0</ele><time>2026-04-08T13:46:06Z</time></trkpt><trkpt lat="34.84451706392813" lon="9.13954835550747"><ele>460.5</ele><time>2026-04-08T13:46:07Z</time></trkpt><trkpt lat="34.84462007743107" lon="9.139610009427305"><ele>460.0</ele><time>2026-04-08T13:46:08Z</time></trkpt><trkpt lat="34.84472152493701" lon="9.13967614940442"><ele>459.5</ele><time>2026-04-08T13:46:09Z</time></trkpt><trkpt lat="34.84482292729643" lon="9.139743023794319"><ele>459.0</ele><time>2026-04-08T13:46:10Z</time></trkpt><trkpt lat="34.84492960455197" lon="9.139810778151801"><ele>459.0</ele><time>2026-04-08T13:46:11Z</time></trkpt><trkpt lat="34.84503845804685" lon="9.139879051754903"><ele>459.0</ele><time>2026-04-08T13:46:12Z</time></trkpt><trkpt lat="34.84514206536582" lon="9.139945348417948"><ele>459.0</ele><time>2026-04-08T13:46:13Z</time></trkpt><trkpt lat="34.8452352002092" lon="9.140006285438444"><ele>459.0</ele><time>2026-04-08T13:46:14Z</time></trkpt><trkpt lat="34.84531519901724" lon="9.14005606516337"><ele>459.0</ele><time>2026-04-08T13:46:15Z</time></trkpt><trkpt lat="34.84537807713112" lon="9.140096222291104"><ele>459.4</ele><time>2026-04-08T13:46:16Z</time></trkpt><trkpt lat="34.84543386286049" lon="9.140132404255022"><ele>459.79999999999995</ele><time>2026-04-08T13:46:17Z</time></trkpt><trkpt lat="34.84551889109951" lon="9.140188433222999"><ele>460.20000000000005</ele><time>2026-04-08T13:46:18Z</time></trkpt><trkpt lat="34.84561019819857" lon="9.14025013875444"><ele>460.6</ele><time>2026-04-08T13:46:19Z</time></trkpt><trkpt lat="34.84569049100516" lon="9.14030003388248"><ele>461.0</ele><time>2026-04-08T13:46:20Z</time></trkpt><trkpt lat="34.84577609737875" lon="9.140354799150934"><ele>461.0</ele><time>2026-04-08T13:46:21Z</time></trkpt><trkpt lat="34.84586913061035" lon="9.140412830217102"><ele>461.0</ele><time>2026-04-08T13:46:22Z</time></trkpt><trkpt lat="34.84596537365353" lon="9.140469906155259"><ele>461.0</ele><time>2026-04-08T13:46:23Z</time></trkpt><trkpt lat="34.84606443399971" lon="9.14052622094643"><ele>461.0</ele><time>2026-04-08T13:46:24Z</time></trkpt><trkpt lat="34.8461662126697" lon="9.140585583154138"><ele>461.0</ele><time>2026-04-08T13:46:25Z</time></trkpt><trkpt lat="34.84627677903541" lon="9.14064954352247"><ele>461.25</ele><time>2026-04-08T13:46:26Z</time></trkpt><trkpt lat="34.846391822665524" lon="9.140716459730537"><ele>461.5</ele><time>2026-04-08T13:46:27Z</time></trkpt><trkpt lat="34.8465122650791" lon="9.14079058401809"><ele>461.75</ele><time>2026-04-08T13:46:28Z</time></trkpt><trkpt lat="34.84663666705673" lon="9.140872999751933"><ele>462.0</ele><time>2026-04-08T13:46:29Z</time></trkpt><trkpt lat="34.846765407613915" lon="9.14095455644547"><ele>461.75</ele><time>2026-04-08T13:46:30Z</time></trkpt><trkpt lat="34.84689790681286" lon="9.141031006464797"><ele>461.5</ele><time>2026-04-08T13:46:31Z</time></trkpt><trkpt lat="34.84702793183891" lon="9.141115527689973"><ele>461.25</ele><time>2026-04-08T13:46:32Z</time></trkpt><trkpt lat="34.847154652207536" lon="9.141201752642822"><ele>461.0</ele><time>2026-04-08T13:46:33Z</time></trkpt><trkpt lat="34.84727200602899" lon="9.141278291453343"><ele>461.0</ele><time>2026-04-08T13:46:34Z</time></trkpt><trkpt lat="34.847386266008876" lon="9.141348822385753"><ele>461.0</ele><time>2026-04-08T13:46:35Z</time></trkpt><trkpt lat="34.84751099956085" lon="9.141421655671548"><ele>461.0</ele><time>2026-04-08T13:46:36Z</time></trkpt><trkpt lat="34.84764218488699" lon="9.141503511804457"><ele>461.0</ele><time>2026-04-08T13:46:37Z</time></trkpt><trkpt lat="34.84777559674151" lon="9.141589607388177"><ele>461.0</ele><time>2026-04-08T13:46:38Z</time></trkpt><trkpt lat="34.847909101731" lon="9.141677397444246"><ele>461.0</ele><time>2026-04-08T13:46:39Z</time></trkpt><trkpt lat="34.84804335903479" lon="9.1417666656078"><ele>461.0</ele><time>2026-04-08T13:46:40Z</time></trkpt><trkpt lat="34.84817978521833" lon="9.14185790548724"><ele>461.0</ele><time>2026-04-08T13:46:41Z</time></trkpt><trkpt lat="34.848317947067535" lon="9.141947547967378"><ele>461.0</ele><time>2026-04-08T13:46:42Z</time></trkpt><trkpt lat="34.848458256554935" lon="9.142036116949983"><ele>461.0</ele><time>2026-04-08T13:46:43Z</time></trkpt><trkpt lat="34.84859698903574" lon="9.142123776990449"><ele>461.25</ele><time>2026-04-08T13:46:44Z</time></trkpt><trkpt lat="34.84872076126781" lon="9.14220293782401"><ele>461.5</ele><time>2026-04-08T13:46:45Z</time></trkpt><trkpt lat="34.84883655527108" lon="9.142276151286405"><ele>461.75</ele><time>2026-04-08T13:46:45.999Z</time></trkpt><trkpt lat="34.84894507416655" lon="9.142341664857536"><ele>462.0</ele><time>2026-04-08T13:46:47Z</time></trkpt><trkpt lat="34.8490456745408" lon="9.142404166475476"><ele>462.0</ele><time>2026-04-08T13:46:48Z</time></trkpt><trkpt lat="34.849125410299784" lon="9.14245640365195"><ele>462.0</ele><time>2026-04-08T13:46:49Z</time></trkpt><trkpt lat="34.84918637008454" lon="9.142495659517433"><ele>462.0</ele><time>2026-04-08T13:46:50Z</time></trkpt><trkpt lat="34.84928068516496" lon="9.142564454385388"><ele>462.0</ele><time>2026-04-08T13:46:52Z</time></trkpt><trkpt lat="34.84934844277789" lon="9.142611188998"><ele>462.0</ele><time>2026-04-08T13:46:53Z</time></trkpt><trkpt lat="34.84940927715082" lon="9.142649785670098"><ele>462.0</ele><time>2026-04-08T13:46:54Z</time></trkpt><trkpt lat="34.8495247701331" lon="9.142719452153107"><ele>462.0</ele><time>2026-04-08T13:46:56Z</time></trkpt><trkpt lat="34.84959222895561" lon="9.14275695001735"><ele>462.00000000000006</ele><time>2026-04-08T13:46:57Z</time></trkpt><trkpt lat="34.84967062678824" lon="9.142805471206659"><ele>462.00000000000006</ele><time>2026-04-08T13:46:58Z</time></trkpt><trkpt lat="34.84976503276087" lon="9.142864706954061"><ele>462.0</ele><time>2026-04-08T13:46:59Z</time></trkpt><trkpt lat="34.84987141151809" lon="9.142931483091443"><ele>462.0</ele><time>2026-04-08T13:47:00Z</time></trkpt><trkpt lat="34.84999791056559" lon="9.143012098692502"><ele>462.0</ele><time>2026-04-08T13:47:01Z</time></trkpt><trkpt lat="34.850150858223344" lon="9.143106775876959"><ele>462.0</ele><time>2026-04-08T13:47:02Z</time></trkpt><trkpt lat="34.85028800600634" lon="9.14319125871587"><ele>462.0</ele><time>2026-04-08T13:47:03Z</time></trkpt><trkpt lat="34.850407735473254" lon="9.143265125977276"><ele>462.0</ele><time>2026-04-08T13:47:04Z</time></trkpt><trkpt lat="34.85052549095943" lon="9.143341906732477"><ele>462.0</ele><time>2026-04-08T13:47:05Z</time></trkpt><trkpt lat="34.850646080567415" lon="9.143416423549596"><ele>462.0</ele><time>2026-04-08T13:47:06Z</time></trkpt><trkpt lat="34.850763725649784" lon="9.14349299894716"><ele>462.0</ele><time>2026-04-08T13:47:07Z</time></trkpt><trkpt lat="34.850877989479116" lon="9.143569859972349"><ele>462.0</ele><time>2026-04-08T13:47:08Z</time></trkpt><trkpt lat="34.85099207258317" lon="9.14364271124731"><ele>462.0</ele><time>2026-04-08T13:47:09Z</time></trkpt><trkpt lat="34.8510984560013" lon="9.14371096172029"><ele>462.0</ele><time>2026-04-08T13:47:10Z</time></trkpt><trkpt lat="34.8511975465354" lon="9.143774980296357"><ele>462.0</ele><time>2026-04-08T13:47:11Z</time></trkpt><trkpt lat="34.85129689801354" lon="9.143839828998338"><ele>462.0</ele><time>2026-04-08T13:47:12Z</time></trkpt><trkpt lat="34.85139889786669" lon="9.14390378780572"><ele>462.0</ele><time>2026-04-08T13:47:13Z</time></trkpt><trkpt lat="34.85150092832579" lon="9.14396306054253"><ele>462.0</ele><time>2026-04-08T13:47:14Z</time></trkpt><trkpt lat="34.85160257793473" lon="9.144019521060532"><ele>462.0</ele><time>2026-04-08T13:47:15Z</time></trkpt><trkpt lat="34.851701998703646" lon="9.144078009856628"><ele>462.0</ele><time>2026-04-08T13:47:16Z</time></trkpt><trkpt lat="34.85179475109123" lon="9.144133009597688"><ele>462.00000000000006</ele><time>2026-04-08T13:47:17Z</time></trkpt><trkpt lat="34.85188612391544" lon="9.144189745716979"><ele>462.00000000000006</ele><time>2026-04-08T13:47:18Z</time></trkpt><trkpt lat="34.851969919156346" lon="9.144242825899273"><ele>462.0</ele><time>2026-04-08T13:47:19Z</time></trkpt><trkpt lat="34.85204871557984" lon="9.144290129181654"><ele>462.0</ele><time>2026-04-08T13:47:20Z</time></trkpt><trkpt lat="34.85212182882503" lon="9.144336216825325"><ele>462.0</ele><time>2026-04-08T13:47:21Z</time></trkpt><trkpt lat="34.85218873552494" lon="9.144383002727439"><ele>462.0</ele><time>2026-04-08T13:47:22Z</time></trkpt><trkpt lat="34.85225270070788" lon="9.144430677065323"><ele>462.0</ele><time>2026-04-08T13:47:23Z</time></trkpt><trkpt lat="34.85230935495739" lon="9.144477120261884"><ele>462.0</ele><time>2026-04-08T13:47:24Z</time></trkpt><trkpt lat="34.85236340576366" lon="9.144522752137794"><ele>462.0</ele><time>2026-04-08T13:47:25Z</time></trkpt><trkpt lat="34.85245317299471" lon="9.144589416826022"><ele>462.0</ele><time>2026-04-08T13:47:27Z</time></trkpt><trkpt lat="34.85255506725991" lon="9.144631715864962"><ele>462.0</ele><time>2026-04-08T13:47:29Z</time></trkpt><trkpt lat="34.852617627867104" lon="9.144655775696497"><ele>462.0</ele><time>2026-04-08T13:47:30Z</time></trkpt><trkpt lat="34.85268327518454" lon="9.144685612012712"><ele>462.0</ele><time>2026-04-08T13:47:31Z</time></trkpt><trkpt lat="34.85275547715967" lon="9.144719250334818"><ele>462.0</ele><time>2026-04-08T13:47:32Z</time></trkpt><trkpt lat="34.852834761826884" lon="9.14476455625612"><ele>462.0</ele><time>2026-04-08T13:47:33Z</time></trkpt><trkpt lat="34.85292029337704" lon="9.144821741008922"><ele>462.0</ele><time>2026-04-08T13:47:34Z</time></trkpt><trkpt lat="34.85301900550278" lon="9.144889760900364"><ele>462.0</ele><time>2026-04-08T13:47:35Z</time></trkpt><trkpt lat="34.85311654355771" lon="9.14495301733714"><ele>462.00000000000006</ele><time>2026-04-08T13:47:36Z</time></trkpt><trkpt lat="34.853202475114244" lon="9.145007836950606"><ele>462.00000000000006</ele><time>2026-04-08T13:47:37Z</time></trkpt><trkpt lat="34.85328855761283" lon="9.145061522147994"><ele>462.0</ele><time>2026-04-08T13:47:38Z</time></trkpt><trkpt lat="34.85337609307868" lon="9.14511673860655"><ele>462.0</ele><time>2026-04-08T13:47:39Z</time></trkpt><trkpt lat="34.85346726114828" lon="9.145177699841321"><ele>462.0</ele><time>2026-04-08T13:47:40Z</time></trkpt><trkpt lat="34.853559174608066" lon="9.145242891017036"><ele>462.0</ele><time>2026-04-08T13:47:41Z</time></trkpt><trkpt lat="34.853659476818905" lon="9.14531271608507"><ele>462.0</ele><time>2026-04-08T13:47:42Z</time></trkpt><trkpt lat="34.85377025339868" lon="9.145383778292434"><ele>462.0</ele><time>2026-04-08T13:47:43Z</time></trkpt><trkpt lat="34.85388971845189" lon="9.145458551442385"><ele>462.0</ele><time>2026-04-08T13:47:44Z</time></trkpt><trkpt lat="34.85401600062115" lon="9.145540317510862"><ele>462.0</ele><time>2026-04-08T13:47:45Z</time></trkpt><trkpt lat="34.85414245288854" lon="9.145620982899294"><ele>462.0</ele><time>2026-04-08T13:47:46Z</time></trkpt><trkpt lat="34.85426987946882" lon="9.145701833784631"><ele>462.0</ele><time>2026-04-08T13:47:47Z</time></trkpt><trkpt lat="34.85439540704151" lon="9.14578779913478"><ele>461.5</ele><time>2026-04-08T13:47:48Z</time></trkpt><trkpt lat="34.854517099811616" lon="9.145870067020702"><ele>461.0</ele><time>2026-04-08T13:47:49Z</time></trkpt><trkpt lat="34.854634762135305" lon="9.145941210974154"><ele>460.5</ele><time>2026-04-08T13:47:50Z</time></trkpt><trkpt lat="34.85474351188862" lon="9.14600639642373"><ele>460.0</ele><time>2026-04-08T13:47:51Z</time></trkpt><trkpt lat="34.85484934680747" lon="9.146072591984032"><ele>460.0</ele><time>2026-04-08T13:47:52Z</time></trkpt><trkpt lat="34.85495040827215" lon="9.146136485592695"><ele>460.0</ele><time>2026-04-08T13:47:53Z</time></trkpt><trkpt lat="34.85504345659749" lon="9.146197076153168"><ele>460.0</ele><time>2026-04-08T13:47:54Z</time></trkpt><trkpt lat="34.85512864379376" lon="9.146253920320179"><ele>460.0</ele><time>2026-04-08T13:47:55Z</time></trkpt><trkpt lat="34.855211750645616" lon="9.146306285068533"><ele>460.0</ele><time>2026-04-08T13:47:56Z</time></trkpt><trkpt lat="34.85529166439212" lon="9.146354026325984"><ele>460.00000000000006</ele><time>2026-04-08T13:47:57Z</time></trkpt><trkpt lat="34.85536845311765" lon="9.146398046024062"><ele>460.0</ele><time>2026-04-08T13:47:58Z</time></trkpt><trkpt lat="34.85544149091122" lon="9.146443841007118"><ele>460.0</ele><time>2026-04-08T13:47:59Z</time></trkpt><trkpt lat="34.85550841138121" lon="9.146490351790426"><ele>460.0</ele><time>2026-04-08T13:48:00Z</time></trkpt><trkpt lat="34.85557021461175" lon="9.146534006512276"><ele>460.00000000000006</ele><time>2026-04-08T13:48:01Z</time></trkpt><trkpt lat="34.85566234125343" lon="9.146594610841444"><ele>460.0</ele><time>2026-04-08T13:48:03Z</time></trkpt><trkpt lat="34.85572302091937" lon="9.146634359350996"><ele>459.8</ele><time>2026-04-08T13:48:04Z</time></trkpt><trkpt lat="34.85582691780385" lon="9.14669274709223"><ele>459.6</ele><time>2026-04-08T13:48:06Z</time></trkpt><trkpt lat="34.85589545405863" lon="9.146736102574431"><ele>459.4</ele><time>2026-04-08T13:48:07Z</time></trkpt><trkpt lat="34.85597982639604" lon="9.146789637180715"><ele>459.2</ele><time>2026-04-08T13:48:08Z</time></trkpt><trkpt lat="34.85607601317022" lon="9.146850188981789"><ele>459.0</ele><time>2026-04-08T13:48:09Z</time></trkpt><trkpt lat="34.85618067138862" lon="9.146915581891333"><ele>459.0</ele><time>2026-04-08T13:48:10Z</time></trkpt><trkpt lat="34.856286862187154" lon="9.14698977110077"><ele>459.0</ele><time>2026-04-08T13:48:11Z</time></trkpt><trkpt lat="34.85639120008272" lon="9.147072152458822"><ele>459.0</ele><time>2026-04-08T13:48:12Z</time></trkpt><trkpt lat="34.85649772023061" lon="9.147150056923135"><ele>459.0</ele><time>2026-04-08T13:48:13Z</time></trkpt><trkpt lat="34.856611811930655" lon="9.147221603075334"><ele>459.0</ele><time>2026-04-08T13:48:14Z</time></trkpt><trkpt lat="34.8567413422752" lon="9.147292230578477"><ele>459.0</ele><time>2026-04-08T13:48:15Z</time></trkpt><trkpt lat="34.85688837091217" lon="9.147370708141947"><ele>459.0</ele><time>2026-04-08T13:48:16Z</time></trkpt><trkpt lat="34.85701388802916" lon="9.147444172181574"><ele>459.0</ele><time>2026-04-08T13:48:17Z</time></trkpt><trkpt lat="34.857117154551915" lon="9.14751026346355"><ele>458.8333333333333</ele><time>2026-04-08T13:48:18Z</time></trkpt><trkpt lat="34.85718849404776" lon="9.147555889618618"><ele>458.66666666666663</ele><time>2026-04-08T13:48:19Z</time></trkpt><trkpt lat="34.85726609012955" lon="9.14760937720148"><ele>458.5</ele><time>2026-04-08T13:48:21Z</time></trkpt><trkpt lat="34.85733425909855" lon="9.147652114871292"><ele>458.3333333333333</ele><time>2026-04-08T13:48:22Z</time></trkpt><trkpt lat="34.857424057651954" lon="9.147706945391025"><ele>458.16666666666663</ele><time>2026-04-08T13:48:23Z</time></trkpt><trkpt lat="34.85751256559176" lon="9.147761424091634"><ele>458.0</ele><time>2026-04-08T13:48:24Z</time></trkpt><trkpt lat="34.857602960507336" lon="9.14781742204533"><ele>457.75</ele><time>2026-04-08T13:48:25Z</time></trkpt><trkpt lat="34.85769983143097" lon="9.147876072914347"><ele>457.5</ele><time>2026-04-08T13:48:26Z</time></trkpt><trkpt lat="34.85780041304975" lon="9.14793731069823"><ele>457.25</ele><time>2026-04-08T13:48:27Z</time></trkpt><trkpt lat="34.85790622146748" lon="9.14800532107096"><ele>457.0</ele><time>2026-04-08T13:48:28Z</time></trkpt><trkpt lat="34.8580162709429" lon="9.148076094573693"><ele>457.0</ele><time>2026-04-08T13:48:29Z</time></trkpt><trkpt lat="34.85813244283769" lon="9.148151736612428"><ele>457.0</ele><time>2026-04-08T13:48:30Z</time></trkpt><trkpt lat="34.8582568121214" lon="9.148231307093495"><ele>457.0</ele><time>2026-04-08T13:48:31Z</time></trkpt><trkpt lat="34.858390500326394" lon="9.148315743697628"><ele>457.0</ele><time>2026-04-08T13:48:32Z</time></trkpt><trkpt lat="34.85852998072426" lon="9.148401885681325"><ele>457.6666666666667</ele><time>2026-04-08T13:48:33Z</time></trkpt><trkpt lat="34.858670475330186" lon="9.148495791636773"><ele>458.33333333333337</ele><time>2026-04-08T13:48:34Z</time></trkpt><trkpt lat="34.85881879535989" lon="9.148593787925922"><ele>459.0</ele><time>2026-04-08T13:48:35Z</time></trkpt><trkpt lat="34.85896910284405" lon="9.148688027085003"><ele>459.0</ele><time>2026-04-08T13:48:36Z</time></trkpt><trkpt lat="34.859121900680165" lon="9.148783995166117"><ele>459.0</ele><time>2026-04-08T13:48:36.999Z</time></trkpt><trkpt lat="34.85927859888796" lon="9.148884002332622"><ele>459.0</ele><time>2026-04-08T13:48:37.999Z</time></trkpt><trkpt lat="34.85944044753954" lon="9.148981521238937"><ele>458.66666666666663</ele><time>2026-04-08T13:48:38.999Z</time></trkpt><trkpt lat="34.8596042082067" lon="9.149081294801528"><ele>458.3333333333333</ele><time>2026-04-08T13:48:39.999Z</time></trkpt><trkpt lat="34.85976078268253" lon="9.149180047460593"><ele>458.0</ele><time>2026-04-08T13:48:40.999Z</time></trkpt><trkpt lat="34.85991684276976" lon="9.1492771451932"><ele>458.0</ele><time>2026-04-08T13:48:41.999Z</time></trkpt><trkpt lat="34.860080050279734" lon="9.14937704046389"><ele>458.0</ele><time>2026-04-08T13:48:42.999Z</time></trkpt><trkpt lat="34.860251931847415" lon="9.149480665653057"><ele>458.0</ele><time>2026-04-08T13:48:43.999Z</time></trkpt><trkpt lat="34.8604331564211" lon="9.149590653537711"><ele>458.0</ele><time>2026-04-08T13:48:44.999Z</time></trkpt><trkpt lat="34.86063425883541" lon="9.14970594761951"><ele>458.0</ele><time>2026-04-08T13:48:45.999Z</time></trkpt><trkpt lat="34.8608378415218" lon="9.149829173751703"><ele>457.66666666666663</ele><time>2026-04-08T13:48:46.999Z</time></trkpt><trkpt lat="34.86102135025532" lon="9.149954395296222"><ele>457.33333333333337</ele><time>2026-04-08T13:48:47.999Z</time></trkpt><trkpt lat="34.86119709055885" lon="9.15008120381111"><ele>457.0</ele><time>2026-04-08T13:48:48.999Z</time></trkpt><trkpt lat="34.861372272292854" lon="9.150198329182713"><ele>457.0</ele><time>2026-04-08T13:48:49.999Z</time></trkpt><trkpt lat="34.861558773911966" lon="9.15031647186334"><ele>457.0</ele><time>2026-04-08T13:48:50.999Z</time></trkpt><trkpt lat="34.86174981513636" lon="9.150435807167979"><ele>457.0</ele><time>2026-04-08T13:48:51.999Z</time></trkpt><trkpt lat="34.86193303511522" lon="9.150552105085078"><ele>457.0</ele><time>2026-04-08T13:48:53Z</time></trkpt><trkpt lat="34.86210230777609" lon="9.15066274862693"><ele>457.0</ele><time>2026-04-08T13:48:54Z</time></trkpt><trkpt lat="34.86225270324421" lon="9.150762943727935"><ele>457.0</ele><time>2026-04-08T13:48:55Z</time></trkpt><trkpt lat="34.86238742433432" lon="9.15085153719165"><ele>457.25</ele><time>2026-04-08T13:48:56Z</time></trkpt><trkpt lat="34.86251702291819" lon="9.150936920224908"><ele>457.5</ele><time>2026-04-08T13:48:57Z</time></trkpt><trkpt lat="34.862641125016495" lon="9.151016229796397"><ele>457.75</ele><time>2026-04-08T13:48:58Z</time></trkpt><trkpt lat="34.862752061829056" lon="9.15108654779555"><ele>458.0</ele><time>2026-04-08T13:48:59Z</time></trkpt><trkpt lat="34.862833676272466" lon="9.151140847326706"><ele>458.0</ele><time>2026-04-08T13:49:00Z</time></trkpt><trkpt lat="34.862943342890624" lon="9.151206675253547"><ele>457.99999999999994</ele><time>2026-04-08T13:49:02Z</time></trkpt><trkpt lat="34.86300119952781" lon="9.1512469100701"><ele>457.99999999999994</ele><time>2026-04-08T13:49:03Z</time></trkpt><trkpt lat="34.86306997722025" lon="9.151289719858264"><ele>458.0</ele><time>2026-04-08T13:49:04Z</time></trkpt><trkpt lat="34.8631521022758" lon="9.151338980177373"><ele>458.0</ele><time>2026-04-08T13:49:05Z</time></trkpt><trkpt lat="34.86324993816855" lon="9.151400911980248"><ele>458.0</ele><time>2026-04-08T13:49:06Z</time></trkpt><trkpt lat="34.863359286971246" lon="9.151463435485379"><ele>458.0</ele><time>2026-04-08T13:49:07Z</time></trkpt><trkpt lat="34.86347376538085" lon="9.151532083405542"><ele>458.0</ele><time>2026-04-08T13:49:08Z</time></trkpt><trkpt lat="34.86359219055131" lon="9.151609333479646"><ele>458.0</ele><time>2026-04-08T13:49:09Z</time></trkpt><trkpt lat="34.863717413640984" lon="9.15168546676955"><ele>458.3333333333333</ele><time>2026-04-08T13:49:10Z</time></trkpt><trkpt lat="34.863845645880446" lon="9.151761339334689"><ele>458.66666666666663</ele><time>2026-04-08T13:49:11Z</time></trkpt><trkpt lat="34.86398219325778" lon="9.15184544058003"><ele>459.0</ele><time>2026-04-08T13:49:12Z</time></trkpt><trkpt lat="34.86412197137335" lon="9.1519373527591"><ele>459.0</ele><time>2026-04-08T13:49:13Z</time></trkpt><trkpt lat="34.86427221725917" lon="9.152033608379595"><ele>459.0</ele><time>2026-04-08T13:49:14Z</time></trkpt><trkpt lat="34.86442098302138" lon="9.152126892649639"><ele>459.0</ele><time>2026-04-08T13:49:15Z</time></trkpt><trkpt lat="34.864556561677375" lon="9.152211250378288"><ele>458.0</ele><time>2026-04-08T13:49:16Z</time></trkpt><trkpt lat="34.86468440394947" lon="9.15229310293512"><ele>457.0</ele><time>2026-04-08T13:49:17Z</time></trkpt><trkpt lat="34.86481919156216" lon="9.152371848909493"><ele>456.0</ele><time>2026-04-08T13:49:18Z</time></trkpt><trkpt lat="34.864965011260814" lon="9.152461552500887"><ele>456.0</ele><time>2026-04-08T13:49:19Z</time></trkpt><trkpt lat="34.86511384975479" lon="9.152556982064725"><ele>456.0</ele><time>2026-04-08T13:49:20Z</time></trkpt><trkpt lat="34.86527446148669" lon="9.152652405031047"><ele>456.0</ele><time>2026-04-08T13:49:21Z</time></trkpt><trkpt lat="34.865447587973556" lon="9.152758533582842"><ele>456.0</ele><time>2026-04-08T13:49:22Z</time></trkpt><trkpt lat="34.86562762535004" lon="9.152870391725708"><ele>456.0</ele><time>2026-04-08T13:49:23Z</time></trkpt><trkpt lat="34.86581151435384" lon="9.152986960040167"><ele>456.0</ele><time>2026-04-08T13:49:24Z</time></trkpt><trkpt lat="34.865997321720485" lon="9.153103536703945"><ele>455.66666666666663</ele><time>2026-04-08T13:49:25Z</time></trkpt><trkpt lat="34.86617519080683" lon="9.153215321479262"><ele>455.3333333333333</ele><time>2026-04-08T13:49:26Z</time></trkpt><trkpt lat="34.866351627377966" lon="9.153328356202215"><ele>455.0</ele><time>2026-04-08T13:49:27Z</time></trkpt><trkpt lat="34.86652869345609" lon="9.153440853477607"><ele>455.0</ele><time>2026-04-08T13:49:28Z</time></trkpt><trkpt lat="34.86670719106044" lon="9.153551502826643"><ele>455.0</ele><time>2026-04-08T13:49:29Z</time></trkpt><trkpt lat="34.86689357455455" lon="9.153669306848027"><ele>455.0</ele><time>2026-04-08T13:49:30Z</time></trkpt><trkpt lat="34.86708375962101" lon="9.153792804910644"><ele>454.66666666666663</ele><time>2026-04-08T13:49:31Z</time></trkpt><trkpt lat="34.86728007047732" lon="9.153919933530307"><ele>454.33333333333337</ele><time>2026-04-08T13:49:32Z</time></trkpt><trkpt lat="34.867479883821815" lon="9.154044591352482"><ele>454.0</ele><time>2026-04-08T13:49:33Z</time></trkpt><trkpt lat="34.86767660724217" lon="9.154170707740281"><ele>454.0</ele><time>2026-04-08T13:49:34Z</time></trkpt><trkpt lat="34.86787267975952" lon="9.15429784223262"><ele>454.0</ele><time>2026-04-08T13:49:35Z</time></trkpt><trkpt lat="34.868073033123096" lon="9.15442884902246"><ele>454.0</ele><time>2026-04-08T13:49:36Z</time></trkpt><trkpt lat="34.86827731593989" lon="9.154557107669756"><ele>453.5</ele><time>2026-04-08T13:49:37Z</time></trkpt><trkpt lat="34.8684918271478" lon="9.154687496232775"><ele>453.0</ele><time>2026-04-08T13:49:38Z</time></trkpt><trkpt lat="34.86872163713416" lon="9.154827042517343"><ele>453.0</ele><time>2026-04-08T13:49:39Z</time></trkpt><trkpt lat="34.86894589482101" lon="9.154968979576799"><ele>453.0</ele><time>2026-04-08T13:49:40Z</time></trkpt><trkpt lat="34.869154116288904" lon="9.15510324125939"><ele>453.5</ele><time>2026-04-08T13:49:41Z</time></trkpt><trkpt lat="34.86935412651697" lon="9.15523109148968"><ele>454.0</ele><time>2026-04-08T13:49:42Z</time></trkpt><trkpt lat="34.86955536880428" lon="9.155354153585838"><ele>454.0</ele><time>2026-04-08T13:49:43Z</time></trkpt><trkpt lat="34.86975207299964" lon="9.155476717818146"><ele>454.0</ele><time>2026-04-08T13:49:44Z</time></trkpt><trkpt lat="34.869946609936605" lon="9.15560229103689"><ele>454.0</ele><time>2026-04-08T13:49:45Z</time></trkpt><trkpt lat="34.87014089960229" lon="9.155725411047207"><ele>453.6666666666667</ele><time>2026-04-08T13:49:46Z</time></trkpt><trkpt lat="34.870334928424974" lon="9.155846141873328"><ele>453.33333333333337</ele><time>2026-04-08T13:49:47Z</time></trkpt><trkpt lat="34.87052644062195" lon="9.15596613355822"><ele>453.0</ele><time>2026-04-08T13:49:48Z</time></trkpt><trkpt lat="34.87071322734817" lon="9.156084875144982"><ele>453.0</ele><time>2026-04-08T13:49:49Z</time></trkpt><trkpt lat="34.87090290798285" lon="9.156205967621366"><ele>453.0</ele><time>2026-04-08T13:49:50Z</time></trkpt><trkpt lat="34.87110209834504" lon="9.156328071256553"><ele>453.0</ele><time>2026-04-08T13:49:51Z</time></trkpt><trkpt lat="34.87131070704866" lon="9.156450906544153"><ele>453.0</ele><time>2026-04-08T13:49:52Z</time></trkpt><trkpt lat="34.87152933636646" lon="9.156581140114142"><ele>453.0</ele><time>2026-04-08T13:49:53Z</time></trkpt><trkpt lat="34.87176120509963" lon="9.156716949752386"><ele>452.5</ele><time>2026-04-08T13:49:54Z</time></trkpt><trkpt lat="34.87199924049897" lon="9.15685783447212"><ele>452.0</ele><time>2026-04-08T13:49:55Z</time></trkpt><trkpt lat="34.87224117388565" lon="9.157005617515608"><ele>452.0</ele><time>2026-04-08T13:49:56Z</time></trkpt><trkpt lat="34.87247757855629" lon="9.157154977771278"><ele>452.0</ele><time>2026-04-08T13:49:57Z</time></trkpt><trkpt lat="34.8727039117984" lon="9.157304202408062"><ele>450.5</ele><time>2026-04-08T13:49:58Z</time></trkpt><trkpt lat="34.872920322549106" lon="9.157451044544468"><ele>449.0</ele><time>2026-04-08T13:49:59Z</time></trkpt><trkpt lat="34.87314206752673" lon="9.15759868263363"><ele>449.0</ele><time>2026-04-08T13:50:00Z</time></trkpt><trkpt lat="34.87337053135438" lon="9.157752508089624"><ele>449.0</ele><time>2026-04-08T13:50:01Z</time></trkpt><trkpt lat="34.87359858907665" lon="9.157902376662346"><ele>449.5</ele><time>2026-04-08T13:50:02Z</time></trkpt><trkpt lat="34.873818890407684" lon="9.158045269017615"><ele>450.0</ele><time>2026-04-08T13:50:03Z</time></trkpt><trkpt lat="34.87402834217152" lon="9.158178943535523"><ele>450.0</ele><time>2026-04-08T13:50:04Z</time></trkpt><trkpt lat="34.874227121705175" lon="9.15830569791185"><ele>450.0</ele><time>2026-04-08T13:50:05Z</time></trkpt><trkpt lat="34.87441986801659" lon="9.158429423911201"><ele>450.0</ele><time>2026-04-08T13:50:06Z</time></trkpt><trkpt lat="34.87460403175778" lon="9.158546642289348"><ele>450.0</ele><time>2026-04-08T13:50:07Z</time></trkpt><trkpt lat="34.87478742055366" lon="9.158661099159811"><ele>450.0</ele><time>2026-04-08T13:50:08Z</time></trkpt><trkpt lat="34.87497142438156" lon="9.15877809228135"><ele>450.0</ele><time>2026-04-08T13:50:09Z</time></trkpt><trkpt lat="34.875156642578965" lon="9.158897929414477"><ele>450.0</ele><time>2026-04-08T13:50:10Z</time></trkpt><trkpt lat="34.87533852136891" lon="9.159013485242772"><ele>450.0</ele><time>2026-04-08T13:50:11Z</time></trkpt><trkpt lat="34.87552223416444" lon="9.15912754820976"><ele>450.0</ele><time>2026-04-08T13:50:12Z</time></trkpt><trkpt lat="34.87570299758352" lon="9.159237792034444"><ele>449.66666666666663</ele><time>2026-04-08T13:50:13Z</time></trkpt><trkpt lat="34.875877592348544" lon="9.15934819143372"><ele>449.3333333333333</ele><time>2026-04-08T13:50:14Z</time></trkpt><trkpt lat="34.876047702590796" lon="9.159462507030701"><ele>449.0</ele><time>2026-04-08T13:50:15Z</time></trkpt><trkpt lat="34.87621837043319" lon="9.159577560530108"><ele>449.0</ele><time>2026-04-08T13:50:16Z</time></trkpt><trkpt lat="34.87639445124622" lon="9.159685977844852"><ele>449.0</ele><time>2026-04-08T13:50:16.999Z</time></trkpt><trkpt lat="34.87657484629983" lon="9.159795796539443"><ele>449.0</ele><time>2026-04-08T13:50:17.999Z</time></trkpt><trkpt lat="34.87676767454516" lon="9.159909027595996"><ele>450.5</ele><time>2026-04-08T13:50:18.999Z</time></trkpt><trkpt lat="34.87697340290223" lon="9.160026037568107"><ele>452.0</ele><time>2026-04-08T13:50:19.999Z</time></trkpt><trkpt lat="34.87717796087195" lon="9.160142207703265"><ele>452.0</ele><time>2026-04-08T13:50:20.999Z</time></trkpt><trkpt lat="34.87738178435171" lon="9.160274537074876"><ele>452.0</ele><time>2026-04-08T13:50:21.999Z</time></trkpt><trkpt lat="34.877582751020924" lon="9.160421204401535"><ele>451.0</ele><time>2026-04-08T13:50:22.999Z</time></trkpt><trkpt lat="34.87778487476571" lon="9.160561191180124"><ele>450.0</ele><time>2026-04-08T13:50:23.999Z</time></trkpt><trkpt lat="34.87798933969893" lon="9.160694380792076"><ele>449.5</ele><time>2026-04-08T13:50:24.999Z</time></trkpt><trkpt lat="34.878196658624475" lon="9.160827265765963"><ele>449.0</ele><time>2026-04-08T13:50:25.999Z</time></trkpt><trkpt lat="34.87840709291516" lon="9.16095847791464"><ele>448.5</ele><time>2026-04-08T13:50:26.999Z</time></trkpt><trkpt lat="34.878618030247644" lon="9.161091028559818"><ele>448.0</ele><time>2026-04-08T13:50:27.999Z</time></trkpt><trkpt lat="34.87882681352654" lon="9.161223603536717"><ele>448.0</ele><time>2026-04-08T13:50:28.999Z</time></trkpt><trkpt lat="34.87903638223964" lon="9.161354414342131"><ele>448.0</ele><time>2026-04-08T13:50:29.999Z</time></trkpt><trkpt lat="34.879250611974555" lon="9.161489608858485"><ele>446.5</ele><time>2026-04-08T13:50:30.999Z</time></trkpt><trkpt lat="34.879472410320936" lon="9.161630733739868"><ele>445.0</ele><time>2026-04-08T13:50:31.999Z</time></trkpt><trkpt lat="34.879698117710824" lon="9.161771723499639"><ele>445.0</ele><time>2026-04-08T13:50:32.999Z</time></trkpt><trkpt lat="34.879928441649355" lon="9.161915182562197"><ele>445.0</ele><time>2026-04-08T13:50:33.999Z</time></trkpt><trkpt lat="34.88015745608304" lon="9.162059995698803"><ele>445.5</ele><time>2026-04-08T13:50:34.999Z</time></trkpt><trkpt lat="34.8803820470887" lon="9.162204089636482"><ele>446.0</ele><time>2026-04-08T13:50:35.999Z</time></trkpt><trkpt lat="34.88059719549139" lon="9.162340331536752"><ele>446.0</ele><time>2026-04-08T13:50:36.999Z</time></trkpt><trkpt lat="34.88080750792348" lon="9.162469019571288"><ele>446.0</ele><time>2026-04-08T13:50:37.999Z</time></trkpt><trkpt lat="34.881003330016576" lon="9.162589913401185"><ele>446.3333333333333</ele><time>2026-04-08T13:50:38.999Z</time></trkpt><trkpt lat="34.88119290755011" lon="9.162706778410046"><ele>446.66666666666663</ele><time>2026-04-08T13:50:39.999Z</time></trkpt><trkpt lat="34.88137958691914" lon="9.162822669810993"><ele>447.0</ele><time>2026-04-08T13:50:40.999Z</time></trkpt><trkpt lat="34.88156592506068" lon="9.162936884080956"><ele>447.0</ele><time>2026-04-08T13:50:41.999Z</time></trkpt><trkpt lat="34.881744634282214" lon="9.163048716008316"><ele>447.0</ele><time>2026-04-08T13:50:42.999Z</time></trkpt><trkpt lat="34.88191680674189" lon="9.163160207459939"><ele>447.0</ele><time>2026-04-08T13:50:43.999Z</time></trkpt><trkpt lat="34.88208712751152" lon="9.163268272828853"><ele>447.0</ele><time>2026-04-08T13:50:44.999Z</time></trkpt><trkpt lat="34.882256230959705" lon="9.163374656225576"><ele>447.0</ele><time>2026-04-08T13:50:45.999Z</time></trkpt><trkpt lat="34.882422676850645" lon="9.16348030374357"><ele>447.0</ele><time>2026-04-08T13:50:46.999Z</time></trkpt><trkpt lat="34.88258785823544" lon="9.163585600144076"><ele>446.33333333333337</ele><time>2026-04-08T13:50:47.999Z</time></trkpt><trkpt lat="34.88275549786073" lon="9.163692861531953"><ele>445.6666666666667</ele><time>2026-04-08T13:50:48.999Z</time></trkpt><trkpt lat="34.882911072390314" lon="9.163790635027738"><ele>445.0</ele><time>2026-04-08T13:50:49.999Z</time></trkpt><trkpt lat="34.883040481957444" lon="9.163871564804975"><ele>445.0</ele><time>2026-04-08T13:50:50.999Z</time></trkpt><trkpt lat="34.88315005004587" lon="9.163941826744614"><ele>445.0</ele><time>2026-04-08T13:50:51.999Z</time></trkpt><trkpt lat="34.8832496477373" lon="9.164003125632371"><ele>445.0</ele><time>2026-04-08T13:50:52.999Z</time></trkpt><trkpt lat="34.88333308623223" lon="9.164055575750504"><ele>445.0</ele><time>2026-04-08T13:50:53.999Z</time></trkpt><trkpt lat="34.883393891434146" lon="9.164093141783457"><ele>445.0</ele><time>2026-04-08T13:50:54.999Z</time></trkpt><trkpt lat="34.88348748827068" lon="9.16415150893699"><ele>445.0</ele><time>2026-04-08T13:50:56.999Z</time></trkpt><trkpt lat="34.88357218110918" lon="9.164201808324895"><ele>445.0</ele><time>2026-04-08T13:50:57.999Z</time></trkpt><trkpt lat="34.88366195535211" lon="9.164259734499993"><ele>445.0</ele><time>2026-04-08T13:50:59Z</time></trkpt><trkpt lat="34.883743185822404" lon="9.164313363392912"><ele>445.0</ele><time>2026-04-08T13:51:00Z</time></trkpt><trkpt lat="34.88383336276135" lon="9.164371020632947"><ele>445.0</ele><time>2026-04-08T13:51:01Z</time></trkpt><trkpt lat="34.8839358666428" lon="9.164434473980828"><ele>445.0</ele><time>2026-04-08T13:51:02Z</time></trkpt><trkpt lat="34.88404701988453" lon="9.164504618611995"><ele>445.0</ele><time>2026-04-08T13:51:03Z</time></trkpt><trkpt lat="34.88416661232388" lon="9.16458113477427"><ele>445.0</ele><time>2026-04-08T13:51:04Z</time></trkpt><trkpt lat="34.88429493356745" lon="9.16466210489497"><ele>445.0</ele><time>2026-04-08T13:51:05Z</time></trkpt><trkpt lat="34.884430249084396" lon="9.164749257350795"><ele>444.6666666666667</ele><time>2026-04-08T13:51:06Z</time></trkpt><trkpt lat="34.88457262631276" lon="9.164841844455601"><ele>444.33333333333337</ele><time>2026-04-08T13:51:07Z</time></trkpt><trkpt lat="34.88471358478389" lon="9.164933595151506"><ele>444.0</ele><time>2026-04-08T13:51:08Z</time></trkpt><trkpt lat="34.884858217716435" lon="9.165027931053634"><ele>444.0</ele><time>2026-04-08T13:51:09Z</time></trkpt><trkpt lat="34.88500095590745" lon="9.165120891824639"><ele>444.0</ele><time>2026-04-08T13:51:10Z</time></trkpt><trkpt lat="34.88514121878681" lon="9.165212610297779"><ele>444.0</ele><time>2026-04-08T13:51:11Z</time></trkpt><trkpt lat="34.88527712707999" lon="9.165302759416358"><ele>443.6</ele><time>2026-04-08T13:51:12Z</time></trkpt><trkpt lat="34.885384638855626" lon="9.165376776441457"><ele>443.2</ele><time>2026-04-08T13:51:13Z</time></trkpt><trkpt lat="34.885470133731" lon="9.165431750514166"><ele>442.80000000000007</ele><time>2026-04-08T13:51:14Z</time></trkpt><trkpt lat="34.88553216608262" lon="9.165469403880756"><ele>442.40000000000003</ele><time>2026-04-08T13:51:15Z</time></trkpt><trkpt lat="34.88562856549764" lon="9.165535676029808"><ele>442.0</ele><time>2026-04-08T13:51:17Z</time></trkpt><trkpt lat="34.88570430367488" lon="9.165582541306227"><ele>442.0</ele><time>2026-04-08T13:51:18Z</time></trkpt><trkpt lat="34.88578073721747" lon="9.165624041828355"><ele>442.00000000000006</ele><time>2026-04-08T13:51:19Z</time></trkpt><trkpt lat="34.8858682274767" lon="9.165677617207358"><ele>442.00000000000006</ele><time>2026-04-08T13:51:20Z</time></trkpt><trkpt lat="34.88596243803814" lon="9.165738279149142"><ele>442.0</ele><time>2026-04-08T13:51:21Z</time></trkpt><trkpt lat="34.88606645999711" lon="9.165802716537424"><ele>442.0</ele><time>2026-04-08T13:51:22Z</time></trkpt><trkpt lat="34.886179362461796" lon="9.165872374844696"><ele>442.0</ele><time>2026-04-08T13:51:23Z</time></trkpt><trkpt lat="34.88629814713372" lon="9.165949426253873"><ele>442.0</ele><time>2026-04-08T13:51:24Z</time></trkpt><trkpt lat="34.88642166709365" lon="9.16602944490849"><ele>442.0</ele><time>2026-04-08T13:51:25Z</time></trkpt><trkpt lat="34.886552489374246" lon="9.166113477270049"><ele>442.0</ele><time>2026-04-08T13:51:26Z</time></trkpt><trkpt lat="34.88669096450392" lon="9.166201050816243"><ele>442.6666666666667</ele><time>2026-04-08T13:51:27Z</time></trkpt><trkpt lat="34.886834097334656" lon="9.16629465201967"><ele>443.33333333333337</ele><time>2026-04-08T13:51:28Z</time></trkpt><trkpt lat="34.886986341149054" lon="9.166389852065732"><ele>444.0</ele><time>2026-04-08T13:51:29Z</time></trkpt><trkpt lat="34.887141322631734" lon="9.166483528895537"><ele>444.0</ele><time>2026-04-08T13:51:30Z</time></trkpt><trkpt lat="34.88730070473922" lon="9.166580000517621"><ele>444.0</ele><time>2026-04-08T13:51:31Z</time></trkpt><trkpt lat="34.887462987704815" lon="9.166679132341557"><ele>444.0</ele><time>2026-04-08T13:51:32Z</time></trkpt><trkpt lat="34.88762552789448" lon="9.166783139068029"><ele>444.0</ele><time>2026-04-08T13:51:33Z</time></trkpt><trkpt lat="34.88779344451398" lon="9.166893992427797"><ele>444.0</ele><time>2026-04-08T13:51:34Z</time></trkpt><trkpt lat="34.88796732150284" lon="9.167006924730865"><ele>444.0</ele><time>2026-04-08T13:51:35Z</time></trkpt><trkpt lat="34.88814723724191" lon="9.16711964483919"><ele>444.0</ele><time>2026-04-08T13:51:36Z</time></trkpt><trkpt lat="34.88833125009993" lon="9.167232459593851"><ele>444.0</ele><time>2026-04-08T13:51:37Z</time></trkpt><trkpt lat="34.88851993896165" lon="9.167349249226373"><ele>444.0</ele><time>2026-04-08T13:51:38Z</time></trkpt><trkpt lat="34.88870921504556" lon="9.167472583997023"><ele>444.0</ele><time>2026-04-08T13:51:39Z</time></trkpt><trkpt lat="34.88890175267232" lon="9.167597436772093"><ele>444.0</ele><time>2026-04-08T13:51:40Z</time></trkpt><trkpt lat="34.88909745812774" lon="9.16771950427427"><ele>444.0</ele><time>2026-04-08T13:51:41Z</time></trkpt><trkpt lat="34.88929230973288" lon="9.16784860896925"><ele>444.0</ele><time>2026-04-08T13:51:42Z</time></trkpt><trkpt lat="34.889492258959976" lon="9.167978720582047"><ele>444.0</ele><time>2026-04-08T13:51:43Z</time></trkpt><trkpt lat="34.88969964233094" lon="9.16810693888398"><ele>443.5</ele><time>2026-04-08T13:51:44Z</time></trkpt><trkpt lat="34.88990991757332" lon="9.168235432421232"><ele>443.0</ele><time>2026-04-08T13:51:45Z</time></trkpt><trkpt lat="34.89012178299946" lon="9.168367575011837"><ele>443.0</ele><time>2026-04-08T13:51:46Z</time></trkpt><trkpt lat="34.89033314337496" lon="9.168501963582022"><ele>443.0</ele><time>2026-04-08T13:51:47Z</time></trkpt><trkpt lat="34.89054535045133" lon="9.168641279670728"><ele>443.0</ele><time>2026-04-08T13:51:48Z</time></trkpt><trkpt lat="34.8907581447064" lon="9.168778492621545"><ele>443.0</ele><time>2026-04-08T13:51:49Z</time></trkpt><trkpt lat="34.89096997817036" lon="9.168907211827051"><ele>442.5</ele><time>2026-04-08T13:51:50Z</time></trkpt><trkpt lat="34.89117691254899" lon="9.169031603999663"><ele>442.0</ele><time>2026-04-08T13:51:51Z</time></trkpt><trkpt lat="34.8913791089361" lon="9.169159871062298"><ele>442.0</ele><time>2026-04-08T13:51:52Z</time></trkpt><trkpt lat="34.891576661859574" lon="9.169289706069849"><ele>442.0</ele><time>2026-04-08T13:51:53Z</time></trkpt><trkpt lat="34.89177195303821" lon="9.169414671742574"><ele>442.0</ele><time>2026-04-08T13:51:54Z</time></trkpt><trkpt lat="34.891972658499256" lon="9.169541904159658"><ele>441.0</ele><time>2026-04-08T13:51:55Z</time></trkpt><trkpt lat="34.89217758216495" lon="9.169671849926345"><ele>440.0</ele><time>2026-04-08T13:51:56Z</time></trkpt><trkpt lat="34.89238611703853" lon="9.169806129761268"><ele>441.0</ele><time>2026-04-08T13:51:57Z</time></trkpt><trkpt lat="34.8925990354118" lon="9.1699425222546"><ele>442.0</ele><time>2026-04-08T13:51:58Z</time></trkpt><trkpt lat="34.89281331659946" lon="9.170079168927336"><ele>442.0</ele><time>2026-04-08T13:51:59Z</time></trkpt><trkpt lat="34.89303256002563" lon="9.170214336089773"><ele>442.0</ele><time>2026-04-08T13:52:00Z</time></trkpt><trkpt lat="34.893255307494755" lon="9.170350413798193"><ele>441.5</ele><time>2026-04-08T13:52:01Z</time></trkpt><trkpt lat="34.893481688087924" lon="9.170487305451164"><ele>441.0</ele><time>2026-04-08T13:52:02Z</time></trkpt><trkpt lat="34.893709968316564" lon="9.170627646192294"><ele>441.5</ele><time>2026-04-08T13:52:03Z</time></trkpt><trkpt lat="34.893932549411716" lon="9.170768821749558"><ele>442.0</ele><time>2026-04-08T13:52:04Z</time></trkpt><trkpt lat="34.89415406447741" lon="9.170912669203226"><ele>441.5</ele><time>2026-04-08T13:52:05Z</time></trkpt><trkpt lat="34.894376643172464" lon="9.171057023391084"><ele>441.0</ele><time>2026-04-08T13:52:06Z</time></trkpt><trkpt lat="34.89460493358359" lon="9.171202350691864"><ele>441.0</ele><time>2026-04-08T13:52:07Z</time></trkpt><trkpt lat="34.894834394440934" lon="9.171347182528834"><ele>441.0</ele><time>2026-04-08T13:52:08Z</time></trkpt><trkpt lat="34.89506445385486" lon="9.171492319181406"><ele>440.0</ele><time>2026-04-08T13:52:09Z</time></trkpt><trkpt lat="34.895294161833306" lon="9.171637654801089"><ele>439.0</ele><time>2026-04-08T13:52:10Z</time></trkpt><trkpt lat="34.89552406448756" lon="9.171786377065535"><ele>439.0</ele><time>2026-04-08T13:52:11Z</time></trkpt><trkpt lat="34.895752252043486" lon="9.17193579102511"><ele>439.0</ele><time>2026-04-08T13:52:12Z</time></trkpt><trkpt lat="34.89598141095515" lon="9.172083404598263"><ele>439.0</ele><time>2026-04-08T13:52:12.999Z</time></trkpt><trkpt lat="34.89621563534075" lon="9.172229556441671"><ele>439.0</ele><time>2026-04-08T13:52:13.999Z</time></trkpt><trkpt lat="34.896452147399714" lon="9.17237352687719"><ele>439.5</ele><time>2026-04-08T13:52:14.999Z</time></trkpt><trkpt lat="34.896683545375716" lon="9.172516599392267"><ele>440.0</ele><time>2026-04-08T13:52:16Z</time></trkpt><trkpt lat="34.89691564658661" lon="9.172663200927373"><ele>440.0</ele><time>2026-04-08T13:52:16.999Z</time></trkpt><trkpt lat="34.8971446386748" lon="9.172808951314803"><ele>440.0</ele><time>2026-04-08T13:52:17.999Z</time></trkpt><trkpt lat="34.89737280894869" lon="9.172954188229474"><ele>439.5</ele><time>2026-04-08T13:52:18.999Z</time></trkpt><trkpt lat="34.89759781231695" lon="9.173098114871925"><ele>439.0</ele><time>2026-04-08T13:52:19.999Z</time></trkpt><trkpt lat="34.897819025426465" lon="9.173236761223562"><ele>439.0</ele><time>2026-04-08T13:52:20.999Z</time></trkpt><trkpt lat="34.89804332624928" lon="9.173377305571506"><ele>439.0</ele><time>2026-04-08T13:52:21.999Z</time></trkpt><trkpt lat="34.89826754250009" lon="9.173518203258721"><ele>439.5</ele><time>2026-04-08T13:52:22.999Z</time></trkpt><trkpt lat="34.8984896180928" lon="9.17365839291051"><ele>440.0</ele><time>2026-04-08T13:52:23.999Z</time></trkpt><trkpt lat="34.898714029033904" lon="9.173799327372414"><ele>440.0</ele><time>2026-04-08T13:52:24.999Z</time></trkpt><trkpt lat="34.89893802641756" lon="9.173937368932837"><ele>440.0</ele><time>2026-04-08T13:52:25.999Z</time></trkpt><trkpt lat="34.89916835436251" lon="9.174081888473262"><ele>439.0</ele><time>2026-04-08T13:52:26.999Z</time></trkpt><trkpt lat="34.89940179526751" lon="9.174230174871113"><ele>438.0</ele><time>2026-04-08T13:52:27.999Z</time></trkpt><trkpt lat="34.899638294159324" lon="9.174382332201278"><ele>438.0</ele><time>2026-04-08T13:52:28.999Z</time></trkpt><trkpt lat="34.899872597719636" lon="9.174536390229028"><ele>438.0</ele><time>2026-04-08T13:52:29.999Z</time></trkpt><trkpt lat="34.90010985709416" lon="9.174690477034519"><ele>437.5</ele><time>2026-04-08T13:52:30.999Z</time></trkpt><trkpt lat="34.900346856733044" lon="9.174836357303725"><ele>437.0</ele><time>2026-04-08T13:52:31.999Z</time></trkpt><trkpt lat="34.90059376063849" lon="9.174983160135122"><ele>437.0</ele><time>2026-04-08T13:52:32.999Z</time></trkpt><trkpt lat="34.90084518461576" lon="9.17513710738981"><ele>437.0</ele><time>2026-04-08T13:52:33.999Z</time></trkpt><trkpt lat="34.90110906379148" lon="9.175308237509816"><ele>437.5</ele><time>2026-04-08T13:52:34.999Z</time></trkpt><trkpt lat="34.901390964479674" lon="9.175491906708867"><ele>438.0</ele><time>2026-04-08T13:52:35.999Z</time></trkpt><trkpt lat="34.901687711172684" lon="9.175678948613058"><ele>437.0</ele><time>2026-04-08T13:52:36.999Z</time></trkpt><trkpt lat="34.90196255549235" lon="9.17585191229291"><ele>436.0</ele><time>2026-04-08T13:52:37.999Z</time></trkpt><trkpt lat="34.90221410479969" lon="9.176013529190056"><ele>436.0</ele><time>2026-04-08T13:52:38.999Z</time></trkpt><trkpt lat="34.90245206329196" lon="9.176165963723703"><ele>436.0</ele><time>2026-04-08T13:52:39.999Z</time></trkpt><trkpt lat="34.902692705042696" lon="9.176321038376944"><ele>436.0</ele><time>2026-04-08T13:52:40.999Z</time></trkpt><trkpt lat="34.90293768539257" lon="9.176476161069287"><ele>436.0</ele><time>2026-04-08T13:52:41.999Z</time></trkpt><trkpt lat="34.90318821274224" lon="9.176628126334428"><ele>436.0</ele><time>2026-04-08T13:52:42.999Z</time></trkpt><trkpt lat="34.903433846915334" lon="9.176781812537739"><ele>436.0</ele><time>2026-04-08T13:52:43.999Z</time></trkpt><trkpt lat="34.903677616502534" lon="9.176938560180044"><ele>436.0</ele><time>2026-04-08T13:52:44.999Z</time></trkpt><trkpt lat="34.90391477998292" lon="9.177085198213213"><ele>436.0</ele><time>2026-04-08T13:52:45.999Z</time></trkpt><trkpt lat="34.90415233712192" lon="9.177233186235105"><ele>435.5</ele><time>2026-04-08T13:52:46.999Z</time></trkpt><trkpt lat="34.90438574335561" lon="9.17738418376624"><ele>435.0</ele><time>2026-04-08T13:52:47.999Z</time></trkpt><trkpt lat="34.90461739914546" lon="9.177535921801292"><ele>435.0</ele><time>2026-04-08T13:52:48.999Z</time></trkpt><trkpt lat="34.9048532465492" lon="9.177690713121379"><ele>435.0</ele><time>2026-04-08T13:52:49.999Z</time></trkpt><trkpt lat="34.90508760005302" lon="9.177840092375346"><ele>436.5</ele><time>2026-04-08T13:52:50.999Z</time></trkpt><trkpt lat="34.90532601714108" lon="9.177990155708027"><ele>438.0</ele><time>2026-04-08T13:52:51.999Z</time></trkpt><trkpt lat="34.90556152283664" lon="9.178135431472455"><ele>438.5</ele><time>2026-04-08T13:52:52.999Z</time></trkpt><trkpt lat="34.90579212315995" lon="9.178284293162754"><ele>439.0</ele><time>2026-04-08T13:52:53.999Z</time></trkpt><trkpt lat="34.90602039735101" lon="9.178434252307952"><ele>437.0</ele><time>2026-04-08T13:52:54.999Z</time></trkpt><trkpt lat="34.90624911437829" lon="9.178574425017583"><ele>435.0</ele><time>2026-04-08T13:52:55.999Z</time></trkpt><trkpt lat="34.906475355107695" lon="9.17871097606627"><ele>435.0</ele><time>2026-04-08T13:52:56.999Z</time></trkpt><trkpt lat="34.9066994431643" lon="9.178855251168873"><ele>435.0</ele><time>2026-04-08T13:52:57.999Z</time></trkpt><trkpt lat="34.906924650300695" lon="9.179003155764038"><ele>435.0</ele><time>2026-04-08T13:52:58.999Z</time></trkpt><trkpt lat="34.907147564159295" lon="9.179150252773535"><ele>435.0</ele><time>2026-04-08T13:52:59.999Z</time></trkpt><trkpt lat="34.90736914018748" lon="9.179294559601109"><ele>435.5</ele><time>2026-04-08T13:53:00.999Z</time></trkpt><trkpt lat="34.90759660717443" lon="9.179439724561368"><ele>436.0</ele><time>2026-04-08T13:53:01.999Z</time></trkpt><trkpt lat="34.907825766329566" lon="9.179584339232642"><ele>436.0</ele><time>2026-04-08T13:53:02.999Z</time></trkpt><trkpt lat="34.90805526594848" lon="9.179728309627302"><ele>436.0</ele><time>2026-04-08T13:53:03.999Z</time></trkpt><trkpt lat="34.908285292241935" lon="9.179872149683037"><ele>435.0</ele><time>2026-04-08T13:53:05Z</time></trkpt><trkpt lat="34.90851477826972" lon="9.18001783394678"><ele>434.0</ele><time>2026-04-08T13:53:06Z</time></trkpt><trkpt lat="34.90874309616437" lon="9.18016329922729"><ele>434.0</ele><time>2026-04-08T13:53:07Z</time></trkpt><trkpt lat="34.90897394976902" lon="9.18030969121972"><ele>434.0</ele><time>2026-04-08T13:53:08Z</time></trkpt><trkpt lat="34.90920212886686" lon="9.180453405701035"><ele>434.5</ele><time>2026-04-08T13:53:09Z</time></trkpt><trkpt lat="34.90942467431118" lon="9.18059325880484"><ele>435.0</ele><time>2026-04-08T13:53:10Z</time></trkpt><trkpt lat="34.9096421139523" lon="9.180730092396551"><ele>435.5</ele><time>2026-04-08T13:53:11Z</time></trkpt><trkpt lat="34.90985889987332" lon="9.180865374990221"><ele>436.0</ele><time>2026-04-08T13:53:12Z</time></trkpt><trkpt lat="34.91007549673442" lon="9.180998812621967"><ele>436.0</ele><time>2026-04-08T13:53:13Z</time></trkpt><trkpt lat="34.91028914910381" lon="9.181131743776865"><ele>436.0</ele><time>2026-04-08T13:53:14Z</time></trkpt><trkpt lat="34.91049933552534" lon="9.181264673100193"><ele>436.0</ele><time>2026-04-08T13:53:15Z</time></trkpt><trkpt lat="34.9107007095774" lon="9.181390851073536"><ele>436.0</ele><time>2026-04-08T13:53:16Z</time></trkpt><trkpt lat="34.91089806418063" lon="9.18151435100435"><ele>436.0</ele><time>2026-04-08T13:53:17Z</time></trkpt><trkpt lat="34.91108346001823" lon="9.181630664865557"><ele>435.33333333333337</ele><time>2026-04-08T13:53:18Z</time></trkpt><trkpt lat="34.911259025719666" lon="9.181742371890364"><ele>434.66666666666663</ele><time>2026-04-08T13:53:19Z</time></trkpt><trkpt lat="34.911425334287685" lon="9.181847264830116"><ele>434.0</ele><time>2026-04-08T13:53:20Z</time></trkpt><trkpt lat="34.91158794813009" lon="9.181950517114776"><ele>434.0</ele><time>2026-04-08T13:53:21Z</time></trkpt><trkpt lat="34.91175244855654" lon="9.182052159864984"><ele>434.0</ele><time>2026-04-08T13:53:22Z</time></trkpt><trkpt lat="34.911922215160466" lon="9.182156862947512"><ele>434.0</ele><time>2026-04-08T13:53:23Z</time></trkpt><trkpt lat="34.91209028608908" lon="9.182265215761154"><ele>433.66666666666663</ele><time>2026-04-08T13:53:24Z</time></trkpt><trkpt lat="34.91226169712557" lon="9.182372496208071"><ele>433.33333333333337</ele><time>2026-04-08T13:53:25Z</time></trkpt><trkpt lat="34.912435438812686" lon="9.182480239970891"><ele>433.0</ele><time>2026-04-08T13:53:26Z</time></trkpt><trkpt lat="34.9126060003463" lon="9.182589401837534"><ele>434.0</ele><time>2026-04-08T13:53:27Z</time></trkpt><trkpt lat="34.912778617383275" lon="9.182700491291207"><ele>435.0</ele><time>2026-04-08T13:53:28Z</time></trkpt><trkpt lat="34.91294902455978" lon="9.182809253571353"><ele>436.0</ele><time>2026-04-08T13:53:29Z</time></trkpt><trkpt lat="34.91312800447523" lon="9.182920806439432"><ele>436.0</ele><time>2026-04-08T13:53:30Z</time></trkpt><trkpt lat="34.9133047347514" lon="9.183029576395795"><ele>436.0</ele><time>2026-04-08T13:53:31Z</time></trkpt><trkpt lat="34.91348891182069" lon="9.183141791227431"><ele>436.0</ele><time>2026-04-08T13:53:32Z</time></trkpt><trkpt lat="34.91367005260207" lon="9.183257492403722"><ele>436.0</ele><time>2026-04-08T13:53:33Z</time></trkpt><trkpt lat="34.91385269381809" lon="9.18337310559975"><ele>436.0</ele><time>2026-04-08T13:53:34Z</time></trkpt><trkpt lat="34.91403635669438" lon="9.183491219373026"><ele>436.0</ele><time>2026-04-08T13:53:35Z</time></trkpt><trkpt lat="34.91421856909419" lon="9.18360634978298"><ele>436.33333333333337</ele><time>2026-04-08T13:53:36Z</time></trkpt><trkpt lat="34.91440024951886" lon="9.183717159546879"><ele>436.66666666666663</ele><time>2026-04-08T13:53:37Z</time></trkpt><trkpt lat="34.91458153277129" lon="9.183830794859466"><ele>437.0</ele><time>2026-04-08T13:53:38Z</time></trkpt><trkpt lat="34.914758772224495" lon="9.183944933642278"><ele>437.0</ele><time>2026-04-08T13:53:39Z</time></trkpt><trkpt lat="34.914936942620095" lon="9.184059407504467"><ele>437.0</ele><time>2026-04-08T13:53:40Z</time></trkpt><trkpt lat="34.915107640135844" lon="9.184172846867607"><ele>437.0</ele><time>2026-04-08T13:53:41Z</time></trkpt><trkpt lat="34.91528318911911" lon="9.184282966782936"><ele>437.0</ele><time>2026-04-08T13:53:42Z</time></trkpt><trkpt lat="34.91546057438141" lon="9.184388375300994"><ele>437.0</ele><time>2026-04-08T13:53:43Z</time></trkpt><trkpt lat="34.91563775384136" lon="9.184500763832936"><ele>437.0</ele><time>2026-04-08T13:53:44Z</time></trkpt><trkpt lat="34.915807995772" lon="9.184610061379514"><ele>436.66666666666663</ele><time>2026-04-08T13:53:45Z</time></trkpt><trkpt lat="34.91596798605048" lon="9.184704468371322"><ele>436.33333333333337</ele><time>2026-04-08T13:53:46Z</time></trkpt><trkpt lat="34.916113200758396" lon="9.184795818597173"><ele>436.0</ele><time>2026-04-08T13:53:47Z</time></trkpt><trkpt lat="34.91624063663928" lon="9.1848789587997"><ele>436.0</ele><time>2026-04-08T13:53:48Z</time></trkpt><trkpt lat="34.91635450636842" lon="9.18495185033705"><ele>436.0</ele><time>2026-04-08T13:53:49Z</time></trkpt><trkpt lat="34.91645280043528" lon="9.185014435482984"><ele>436.0</ele><time>2026-04-08T13:53:50Z</time></trkpt><trkpt lat="34.91653819872192" lon="9.185068349279678"><ele>436.0</ele><time>2026-04-08T13:53:51Z</time></trkpt><trkpt lat="34.9166064936161" lon="9.185111160937476"><ele>436.0</ele><time>2026-04-08T13:53:52Z</time></trkpt><trkpt lat="34.91666500584885" lon="9.18514760140297"><ele>436.0</ele><time>2026-04-08T13:53:53Z</time></trkpt><trkpt lat="34.91672435693235" lon="9.185188065551623"><ele>436.0</ele><time>2026-04-08T13:53:54Z</time></trkpt><trkpt lat="34.91682424535022" lon="9.185254734371782"><ele>436.0</ele><time>2026-04-08T13:53:55Z</time></trkpt><trkpt lat="34.916943805525214" lon="9.185323929909714"><ele>436.0</ele><time>2026-04-08T13:53:56Z</time></trkpt><trkpt lat="34.917056262105675" lon="9.185386003469857"><ele>436.0</ele><time>2026-04-08T13:53:57Z</time></trkpt><trkpt lat="34.917158285256185" lon="9.185448177643794"><ele>435.75</ele><time>2026-04-08T13:53:58Z</time></trkpt><trkpt lat="34.91726211499581" lon="9.18551476911521"><ele>435.5</ele><time>2026-04-08T13:53:59Z</time></trkpt><trkpt lat="34.91737206318086" lon="9.185584501188966"><ele>435.25</ele><time>2026-04-08T13:54:00Z</time></trkpt><trkpt lat="34.91748701763016" lon="9.18565709275623"><ele>435.0</ele><time>2026-04-08T13:54:01Z</time></trkpt><trkpt lat="34.91760557720952" lon="9.185734324541738"><ele>434.75</ele><time>2026-04-08T13:54:02Z</time></trkpt><trkpt lat="34.91772694940952" lon="9.185808865928786"><ele>434.5</ele><time>2026-04-08T13:54:03Z</time></trkpt><trkpt lat="34.917844457240065" lon="9.185878408753654"><ele>434.25</ele><time>2026-04-08T13:54:04Z</time></trkpt><trkpt lat="34.91795807153086" lon="9.18594773789099"><ele>434.0</ele><time>2026-04-08T13:54:05Z</time></trkpt><trkpt lat="34.91806104693697" lon="9.18601509213274"><ele>434.0</ele><time>2026-04-08T13:54:06Z</time></trkpt><trkpt lat="34.91815862187692" lon="9.186079058336501"><ele>434.0</ele><time>2026-04-08T13:54:06.999Z</time></trkpt><trkpt lat="34.91824833464453" lon="9.186135165823732"><ele>434.0</ele><time>2026-04-08T13:54:07.999Z</time></trkpt><trkpt lat="34.91833166985673" lon="9.186188715665013"><ele>434.0</ele><time>2026-04-08T13:54:08.999Z</time></trkpt><trkpt lat="34.91841043704524" lon="9.186235453457185"><ele>434.0</ele><time>2026-04-08T13:54:09.999Z</time></trkpt><trkpt lat="34.918473420874584" lon="9.186272678308367"><ele>434.16666666666663</ele><time>2026-04-08T13:54:10.999Z</time></trkpt><trkpt lat="34.918532817686746" lon="9.186307951775962"><ele>434.3333333333333</ele><time>2026-04-08T13:54:11.999Z</time></trkpt><trkpt lat="34.9185930273198" lon="9.186346043599427"><ele>434.5</ele><time>2026-04-08T13:54:12.999Z</time></trkpt><trkpt lat="34.918656669522" lon="9.186388626516555"><ele>434.66666666666663</ele><time>2026-04-08T13:54:13.999Z</time></trkpt><trkpt lat="34.91872617275703" lon="9.186434845679827"><ele>434.8333333333333</ele><time>2026-04-08T13:54:14.999Z</time></trkpt><trkpt lat="34.91880399209714" lon="9.186485570260633"><ele>435.0</ele><time>2026-04-08T13:54:15.999Z</time></trkpt><trkpt lat="34.918887946905926" lon="9.186542771954457"><ele>435.0</ele><time>2026-04-08T13:54:16.999Z</time></trkpt><trkpt lat="34.91897773649844" lon="9.186602598613035"><ele>435.0</ele><time>2026-04-08T13:54:17.999Z</time></trkpt><trkpt lat="34.919076264998644" lon="9.186662140781728"><ele>435.0</ele><time>2026-04-08T13:54:18.999Z</time></trkpt><trkpt lat="34.919179067405096" lon="9.18672913663924"><ele>435.0</ele><time>2026-04-08T13:54:19.999Z</time></trkpt><trkpt lat="34.91928858228737" lon="9.18680002518829"><ele>435.0</ele><time>2026-04-08T13:54:20.999Z</time></trkpt><trkpt lat="34.91939951651333" lon="9.186870312402787"><ele>435.0</ele><time>2026-04-08T13:54:21.999Z</time></trkpt><trkpt lat="34.91951398075828" lon="9.186943562597852"><ele>435.0</ele><time>2026-04-08T13:54:22.999Z</time></trkpt><trkpt lat="34.91963119322553" lon="9.187015381474094"><ele>435.0</ele><time>2026-04-08T13:54:23.999Z</time></trkpt><trkpt lat="34.91974932419566" lon="9.1870879508175"><ele>435.0</ele><time>2026-04-08T13:54:24.999Z</time></trkpt><trkpt lat="34.91986980567679" lon="9.187158073398619"><ele>435.0</ele><time>2026-04-08T13:54:25.999Z</time></trkpt><trkpt lat="34.91999080963596" lon="9.1872317382999"><ele>435.0</ele><time>2026-04-08T13:54:26.999Z</time></trkpt><trkpt lat="34.92011407850541" lon="9.187311399194874"><ele>435.0</ele><time>2026-04-08T13:54:27.999Z</time></trkpt><trkpt lat="34.92023842392574" lon="9.187395703512149"><ele>435.0</ele><time>2026-04-08T13:54:28.999Z</time></trkpt><trkpt lat="34.92036771760044" lon="9.18747457822037"><ele>435.0</ele><time>2026-04-08T13:54:29.999Z</time></trkpt><trkpt lat="34.9204962146513" lon="9.187559181271563"><ele>435.0</ele><time>2026-04-08T13:54:30.999Z</time></trkpt><trkpt lat="34.92062328731145" lon="9.187642607347149"><ele>435.0</ele><time>2026-04-08T13:54:31.999Z</time></trkpt><trkpt lat="34.920747142687276" lon="9.187720422415932"><ele>435.0</ele><time>2026-04-08T13:54:32.999Z</time></trkpt><trkpt lat="34.92086850798339" lon="9.1877968313364"><ele>435.0</ele><time>2026-04-08T13:54:33.999Z</time></trkpt><trkpt lat="34.920981177341176" lon="9.187869994435047"><ele>435.0</ele><time>2026-04-08T13:54:34.999Z</time></trkpt><trkpt lat="34.921072260781735" lon="9.187927710711213"><ele>435.0</ele><time>2026-04-08T13:54:35.999Z</time></trkpt><trkpt lat="34.92115724052589" lon="9.18797994821531"><ele>434.8333333333333</ele><time>2026-04-08T13:54:36.999Z</time></trkpt><trkpt lat="34.921236262836054" lon="9.188031996386849"><ele>434.66666666666663</ele><time>2026-04-08T13:54:37.999Z</time></trkpt><trkpt lat="34.92131301750002" lon="9.188081834713193"><ele>434.5</ele><time>2026-04-08T13:54:38.999Z</time></trkpt><trkpt lat="34.921384274048656" lon="9.18812967697458"><ele>434.3333333333333</ele><time>2026-04-08T13:54:39.999Z</time></trkpt><trkpt lat="34.9214474752521" lon="9.188169312006044"><ele>434.16666666666663</ele><time>2026-04-08T13:54:40.999Z</time></trkpt><trkpt lat="34.92154379046242" lon="9.188217752054015"><ele>434.0</ele><time>2026-04-08T13:54:42.999Z</time></trkpt><trkpt lat="34.921619738887195" lon="9.188271123890948"><ele>434.16666666666663</ele><time>2026-04-08T13:54:44.999Z</time></trkpt><trkpt lat="34.92173423198554" lon="9.188341586717574"><ele>434.3333333333333</ele><time>2026-04-08T13:54:46.999Z</time></trkpt><trkpt lat="34.92179374137056" lon="9.188382908158694"><ele>434.5</ele><time>2026-04-08T13:54:47.999Z</time></trkpt><trkpt lat="34.921853145173465" lon="9.188423263888197"><ele>434.66666666666663</ele><time>2026-04-08T13:54:48.999Z</time></trkpt><trkpt lat="34.92191589886336" lon="9.188465779434654"><ele>434.8333333333333</ele><time>2026-04-08T13:54:49.999Z</time></trkpt><trkpt lat="34.921978881768126" lon="9.188503275127266"><ele>435.0</ele><time>2026-04-08T13:54:50.999Z</time></trkpt><trkpt lat="34.92204243515063" lon="9.188541692745499"><ele>435.00000000000006</ele><time>2026-04-08T13:54:51.999Z</time></trkpt><trkpt lat="34.92210943768965" lon="9.188583749820951"><ele>435.0</ele><time>2026-04-08T13:54:52.999Z</time></trkpt><trkpt lat="34.92217539447207" lon="9.188628916929222"><ele>435.0</ele><time>2026-04-08T13:54:53.999Z</time></trkpt><trkpt lat="34.92223804930894" lon="9.188671902068812"><ele>435.0</ele><time>2026-04-08T13:54:54.999Z</time></trkpt><trkpt lat="34.92229575392748" lon="9.188705642234623"><ele>435.0</ele><time>2026-04-08T13:54:55.999Z</time></trkpt><trkpt lat="34.92235194091023" lon="9.188744321197438"><ele>435.00000000000006</ele><time>2026-04-08T13:54:56.999Z</time></trkpt><trkpt lat="34.92241171522729" lon="9.188787699715117"><ele>435.0</ele><time>2026-04-08T13:54:57.999Z</time></trkpt><trkpt lat="34.92247748702386" lon="9.188834127728867"><ele>435.0</ele><time>2026-04-08T13:54:58.999Z</time></trkpt><trkpt lat="34.92255294131461" lon="9.188883255961592"><ele>435.0</ele><time>2026-04-08T13:54:59.999Z</time></trkpt><trkpt lat="34.92263689273476" lon="9.188934733671395"><ele>435.0</ele><time>2026-04-08T13:55:00.999Z</time></trkpt><trkpt lat="34.92272533992086" lon="9.18899153509044"><ele>435.0</ele><time>2026-04-08T13:55:01.999Z</time></trkpt><trkpt lat="34.92282079810845" lon="9.189052746803505"><ele>435.0</ele><time>2026-04-08T13:55:02.999Z</time></trkpt><trkpt lat="34.92292948013831" lon="9.189120246630042"><ele>435.0</ele><time>2026-04-08T13:55:03.999Z</time></trkpt><trkpt lat="34.92304800271653" lon="9.18919479857909"><ele>435.0</ele><time>2026-04-08T13:55:04.999Z</time></trkpt><trkpt lat="34.923167379298846" lon="9.189273387515755"><ele>435.0</ele><time>2026-04-08T13:55:05.999Z</time></trkpt><trkpt lat="34.92328596977452" lon="9.18935291788181"><ele>435.0</ele><time>2026-04-08T13:55:06.999Z</time></trkpt><trkpt lat="34.923406137126065" lon="9.189434046211614"><ele>435.0</ele><time>2026-04-08T13:55:07.999Z</time></trkpt><trkpt lat="34.9235266453795" lon="9.189511687807364"><ele>435.0</ele><time>2026-04-08T13:55:08.999Z</time></trkpt><trkpt lat="34.92365082832436" lon="9.189589253182266"><ele>435.0</ele><time>2026-04-08T13:55:09.999Z</time></trkpt><trkpt lat="34.923774544457146" lon="9.189664614815028"><ele>435.0</ele><time>2026-04-08T13:55:11Z</time></trkpt><trkpt lat="34.923899279870184" lon="9.189743051291458"><ele>435.0</ele><time>2026-04-08T13:55:12Z</time></trkpt><trkpt lat="34.92402136071738" lon="9.189824191258563"><ele>435.0</ele><time>2026-04-08T13:55:13Z</time></trkpt><trkpt lat="34.92414410145393" lon="9.1898993663358"><ele>435.0</ele><time>2026-04-08T13:55:14Z</time></trkpt><trkpt lat="34.92426278062255" lon="9.189968954184929"><ele>435.0</ele><time>2026-04-08T13:55:15Z</time></trkpt><trkpt lat="34.92437871803783" lon="9.19004060356645"><ele>435.5</ele><time>2026-04-08T13:55:16Z</time></trkpt><trkpt lat="34.9244935732545" lon="9.19011526033579"><ele>436.0</ele><time>2026-04-08T13:55:17Z</time></trkpt><trkpt lat="34.924606409156354" lon="9.190188493201912"><ele>436.5</ele><time>2026-04-08T13:55:18Z</time></trkpt><trkpt lat="34.924714092353526" lon="9.190256056594908"><ele>437.0</ele><time>2026-04-08T13:55:19Z</time></trkpt><trkpt lat="34.92481405774652" lon="9.19031804046087"><ele>437.0</ele><time>2026-04-08T13:55:20Z</time></trkpt><trkpt lat="34.92490979340212" lon="9.190379589959282"><ele>437.00000000000006</ele><time>2026-04-08T13:55:21Z</time></trkpt><trkpt lat="34.925002905302826" lon="9.190441394329163"><ele>437.00000000000006</ele><time>2026-04-08T13:55:22Z</time></trkpt><trkpt lat="34.925091064907896" lon="9.190499884257889"><ele>437.0</ele><time>2026-04-08T13:55:23Z</time></trkpt><trkpt lat="34.92517739952641" lon="9.190553857549425"><ele>437.0</ele><time>2026-04-08T13:55:24Z</time></trkpt><trkpt lat="34.92526237932756" lon="9.190604047130734"><ele>436.99999999999994</ele><time>2026-04-08T13:55:25Z</time></trkpt><trkpt lat="34.92534623667058" lon="9.190658023311935"><ele>437.0</ele><time>2026-04-08T13:55:26Z</time></trkpt><trkpt lat="34.925420619739775" lon="9.190711799744015"><ele>437.0</ele><time>2026-04-08T13:55:27Z</time></trkpt><trkpt lat="34.92549422633248" lon="9.190760496104366"><ele>437.0</ele><time>2026-04-08T13:55:28Z</time></trkpt><trkpt lat="34.925563427923294" lon="9.190799903575193"><ele>436.99999999999994</ele><time>2026-04-08T13:55:29Z</time></trkpt><trkpt lat="34.925630791914145" lon="9.19084097037269"><ele>437.0</ele><time>2026-04-08T13:55:30Z</time></trkpt><trkpt lat="34.92569246448137" lon="9.190885709608745"><ele>436.99999999999994</ele><time>2026-04-08T13:55:31Z</time></trkpt><trkpt lat="34.925751140359964" lon="9.190929392467257"><ele>437.0</ele><time>2026-04-08T13:55:32Z</time></trkpt><trkpt lat="34.92580720790675" lon="9.190973768944469"><ele>437.0</ele><time>2026-04-08T13:55:33Z</time></trkpt><trkpt lat="34.92590840504428" lon="9.191042806575847"><ele>437.0</ele><time>2026-04-08T13:55:35Z</time></trkpt><trkpt lat="34.92596808797726" lon="9.191074962446265"><ele>436.99999999999994</ele><time>2026-04-08T13:55:36Z</time></trkpt><trkpt lat="34.92603215011148" lon="9.191109836301273"><ele>437.0</ele><time>2026-04-08T13:55:37Z</time></trkpt><trkpt lat="34.926101266222005" lon="9.19114812302643"><ele>437.0</ele><time>2026-04-08T13:55:38Z</time></trkpt><trkpt lat="34.92617046131346" lon="9.191189789071927"><ele>437.00000000000006</ele><time>2026-04-08T13:55:39Z</time></trkpt><trkpt lat="34.92624652214553" lon="9.19123639871211"><ele>437.00000000000006</ele><time>2026-04-08T13:55:40Z</time></trkpt><trkpt lat="34.92632593497018" lon="9.191288392249724"><ele>437.0</ele><time>2026-04-08T13:55:41Z</time></trkpt><trkpt lat="34.926412548852525" lon="9.191350748837003"><ele>437.0</ele><time>2026-04-08T13:55:42Z</time></trkpt><trkpt lat="34.92650071111486" lon="9.191412285523217"><ele>437.0</ele><time>2026-04-08T13:55:43Z</time></trkpt><trkpt lat="34.926588174410554" lon="9.191478113939237"><ele>437.00000000000006</ele><time>2026-04-08T13:55:44Z</time></trkpt><trkpt lat="34.926674098903575" lon="9.191545988965833"><ele>437.00000000000006</ele><time>2026-04-08T13:55:45Z</time></trkpt><trkpt lat="34.926761583889" lon="9.191614833734954"><ele>437.0</ele><time>2026-04-08T13:55:46Z</time></trkpt><trkpt lat="34.92684178512325" lon="9.191676352214154"><ele>437.0</ele><time>2026-04-08T13:55:47Z</time></trkpt><trkpt lat="34.92691961241775" lon="9.191729255323175"><ele>437.16666666666663</ele><time>2026-04-08T13:55:48Z</time></trkpt><trkpt lat="34.92698963572368" lon="9.191785282574775"><ele>437.3333333333333</ele><time>2026-04-08T13:55:49Z</time></trkpt><trkpt lat="34.92705404189366" lon="9.191842989150937"><ele>437.5</ele><time>2026-04-08T13:55:50Z</time></trkpt><trkpt lat="34.92711214545988" lon="9.19190098791361"><ele>437.66666666666663</ele><time>2026-04-08T13:55:51Z</time></trkpt><trkpt lat="34.92718030228847" lon="9.191953051014329"><ele>437.8333333333333</ele><time>2026-04-08T13:55:52Z</time></trkpt><trkpt lat="34.92725614148885" lon="9.192000836431417"><ele>438.0</ele><time>2026-04-08T13:55:53Z</time></trkpt><trkpt lat="34.92733048790418" lon="9.192057122966453"><ele>438.0</ele><time>2026-04-08T13:55:54Z</time></trkpt><trkpt lat="34.92739759510539" lon="9.192114239749921"><ele>438.0</ele><time>2026-04-08T13:55:55Z</time></trkpt><trkpt lat="34.927458099934206" lon="9.192163696100936"><ele>438.0</ele><time>2026-04-08T13:55:56Z</time></trkpt><trkpt lat="34.927515252185195" lon="9.19220761482909"><ele>438.0</ele><time>2026-04-08T13:55:57Z</time></trkpt><trkpt lat="34.927567807117896" lon="9.192250905403766"><ele>438.0</ele><time>2026-04-08T13:55:58Z</time></trkpt><trkpt lat="34.927660404536965" lon="9.192329990513771"><ele>438.0</ele><time>2026-04-08T13:56:00Z</time></trkpt><trkpt lat="34.92774869814001" lon="9.192392306537146"><ele>437.6666666666667</ele><time>2026-04-08T13:56:02Z</time></trkpt><trkpt lat="34.9278112122316" lon="9.192442644740295"><ele>437.33333333333337</ele><time>2026-04-08T13:56:04Z</time></trkpt><trkpt lat="34.92786956438946" lon="9.192495740682704"><ele>437.0</ele><time>2026-04-08T13:56:07Z</time></trkpt><trkpt lat="34.92794903358276" lon="9.192556268906847"><ele>436.6666666666667</ele><time>2026-04-08T13:56:10Z</time></trkpt><trkpt lat="34.92803419380455" lon="9.192608655154306"><ele>436.33333333333337</ele><time>2026-04-08T13:56:12Z</time></trkpt><trkpt lat="34.92811123835443" lon="9.19267203353631"><ele>436.0</ele><time>2026-04-08T13:56:14Z</time></trkpt><trkpt lat="34.928196263075634" lon="9.192753674860478"><ele>436.00000000000006</ele><time>2026-04-08T13:56:16Z</time></trkpt><trkpt lat="34.92825724442849" lon="9.19281106538127"><ele>436.0</ele><time>2026-04-08T13:56:17Z</time></trkpt><trkpt lat="34.928326443705096" lon="9.192872673101348"><ele>436.0</ele><time>2026-04-08T13:56:18Z</time></trkpt><trkpt lat="34.928398296981456" lon="9.19293131519277"><ele>436.0</ele><time>2026-04-08T13:56:18.999Z</time></trkpt><trkpt lat="34.928471381845476" lon="9.192987798598567"><ele>436.00000000000006</ele><time>2026-04-08T13:56:19.999Z</time></trkpt><trkpt lat="34.92854074002031" lon="9.193039236560967"><ele>436.0</ele><time>2026-04-08T13:56:20.999Z</time></trkpt><trkpt lat="34.92860753096086" lon="9.19309387300132"><ele>436.14285714285717</ele><time>2026-04-08T13:56:21.999Z</time></trkpt><trkpt lat="34.92867332473962" lon="9.193146155612029"><ele>436.28571428571433</ele><time>2026-04-08T13:56:22.999Z</time></trkpt><trkpt lat="34.928735916799724" lon="9.193197966348018"><ele>436.42857142857144</ele><time>2026-04-08T13:56:23.999Z</time></trkpt><trkpt lat="34.92879328129732" lon="9.193244073352306"><ele>436.57142857142856</ele><time>2026-04-08T13:56:24.999Z</time></trkpt><trkpt lat="34.92884413650851" lon="9.193290688305456"><ele>436.7142857142857</ele><time>2026-04-08T13:56:25.999Z</time></trkpt><trkpt lat="34.928900510263475" lon="9.19334135130612"><ele>436.85714285714283</ele><time>2026-04-08T13:56:26.999Z</time></trkpt><trkpt lat="34.92895998841634" lon="9.193388445018694"><ele>437.0</ele><time>2026-04-08T13:56:27.999Z</time></trkpt><trkpt lat="34.92905420684354" lon="9.19346127960293"><ele>436.75</ele><time>2026-04-08T13:56:29.999Z</time></trkpt><trkpt lat="34.929119493424444" lon="9.193519399195273"><ele>436.5</ele><time>2026-04-08T13:56:32.999Z</time></trkpt><trkpt lat="34.929192456913825" lon="9.19357976710832"><ele>436.25</ele><time>2026-04-08T13:56:41.999Z</time></trkpt><trkpt lat="34.92931844490608" lon="9.193695997576146"><ele>436.0</ele><time>2026-04-08T13:56:43.999Z</time></trkpt><trkpt lat="34.92942447469169" lon="9.19377771230455"><ele>436.0</ele><time>2026-04-08T13:56:44.999Z</time></trkpt><trkpt lat="34.929554039415436" lon="9.193875765286567"><ele>436.0</ele><time>2026-04-08T13:56:45.999Z</time></trkpt><trkpt lat="34.929661193010766" lon="9.193958163574159"><ele>436.0</ele><time>2026-04-08T13:56:46.999Z</time></trkpt><trkpt lat="34.92975011863824" lon="9.194023994191719"><ele>436.0</ele><time>2026-04-08T13:56:47.999Z</time></trkpt><trkpt lat="34.929830425330294" lon="9.19408377404503"><ele>436.00000000000006</ele><time>2026-04-08T13:56:48.999Z</time></trkpt><trkpt lat="34.92990180425652" lon="9.194136187646553"><ele>436.0</ele><time>2026-04-08T13:56:49.999Z</time></trkpt><trkpt lat="34.92996430904056" lon="9.194187677580755"><ele>436.0</ele><time>2026-04-08T13:56:50.999Z</time></trkpt><trkpt lat="34.9300179996842" lon="9.194230529537618"><ele>436.0</ele><time>2026-04-08T13:56:51.999Z</time></trkpt><trkpt lat="34.93010424258395" lon="9.194297502493852"><ele>436.00000000000006</ele><time>2026-04-08T13:56:53.999Z</time></trkpt><trkpt lat="34.930178010214675" lon="9.194353281160337"><ele>436.0</ele><time>2026-04-08T13:56:55.999Z</time></trkpt><trkpt lat="34.930246506536626" lon="9.194406934446478"><ele>436.00000000000006</ele><time>2026-04-08T13:56:57.999Z</time></trkpt><trkpt lat="34.93030625342892" lon="9.194449657427565"><ele>436.0</ele><time>2026-04-08T13:57:05.999Z</time></trkpt><trkpt lat="34.930368016254526" lon="9.194491268164464"><ele>436.0</ele><time>2026-04-08T13:57:10.999Z</time></trkpt><trkpt lat="34.930436147495094" lon="9.194529657044471"><ele>436.0</ele><time>2026-04-08T13:57:12.999Z</time></trkpt><trkpt lat="34.930514218795274" lon="9.194615484125455"><ele>436.00000000000006</ele><time>2026-04-08T13:57:14.999Z</time></trkpt><trkpt lat="34.93058288940009" lon="9.194673731811646"><ele>436.0</ele><time>2026-04-08T13:57:16.999Z</time></trkpt><trkpt lat="34.93065644736904" lon="9.19472665190364"><ele>436.0</ele><time>2026-04-08T13:57:18.999Z</time></trkpt><trkpt lat="34.93073600810153" lon="9.194789363753657"><ele>436.0</ele><time>2026-04-08T13:57:20.999Z</time></trkpt><trkpt lat="34.93080607407445" lon="9.194842309472442"><ele>436.0</ele><time>2026-04-08T13:57:22.999Z</time></trkpt><trkpt lat="34.93089090221884" lon="9.194906443239711"><ele>436.0</ele><time>2026-04-08T13:57:24.999Z</time></trkpt><trkpt lat="34.930996970943646" lon="9.194987846165157"><ele>436.0</ele><time>2026-04-08T13:57:26.999Z</time></trkpt><trkpt lat="34.931062171106184" lon="9.195038303711716"><ele>435.50000000000006</ele><time>2026-04-08T13:57:27.999Z</time></trkpt><trkpt lat="34.93113591403056" lon="9.19510261502805"><ele>435.0</ele><time>2026-04-08T13:57:28.999Z</time></trkpt><trkpt lat="34.93120836918692" lon="9.195171039210058"><ele>434.5</ele><time>2026-04-08T13:57:29.999Z</time></trkpt><trkpt lat="34.93127562490968" lon="9.195236532635827"><ele>434.0</ele><time>2026-04-08T13:57:30.999Z</time></trkpt><trkpt lat="34.931340681944846" lon="9.195292078848269"><ele>433.50000000000006</ele><time>2026-04-08T13:57:31.999Z</time></trkpt><trkpt lat="34.931401016724905" lon="9.195346913117474"><ele>433.0</ele><time>2026-04-08T13:57:32.999Z</time></trkpt><trkpt lat="34.93145753436365" lon="9.195394676562334"><ele>433.00000000000006</ele><time>2026-04-08T13:57:33.999Z</time></trkpt><trkpt lat="34.93152026181556" lon="9.19544782632161"><ele>433.0</ele><time>2026-04-08T13:57:34.999Z</time></trkpt><trkpt lat="34.93158514810803" lon="9.195507275915531"><ele>433.0</ele><time>2026-04-08T13:57:35.999Z</time></trkpt><trkpt lat="34.93165205964806" lon="9.1955703643257"><ele>433.0</ele><time>2026-04-08T13:57:36.999Z</time></trkpt><trkpt lat="34.93171453463391" lon="9.195641397630226"><ele>433.00000000000006</ele><time>2026-04-08T13:57:37.999Z</time></trkpt><trkpt lat="34.93177332090579" lon="9.19570842746139"><ele>433.0</ele><time>2026-04-08T13:57:38.999Z</time></trkpt><trkpt lat="34.93183782503848" lon="9.195777415743658"><ele>432.99999999999994</ele><time>2026-04-08T13:57:39.999Z</time></trkpt><trkpt lat="34.931900768807814" lon="9.195844433449546"><ele>433.0</ele><time>2026-04-08T13:57:40.999Z</time></trkpt><trkpt lat="34.93195271107072" lon="9.195909122651157"><ele>433.0</ele><time>2026-04-08T13:57:42Z</time></trkpt><trkpt lat="34.93200019231441" lon="9.195966095357743"><ele>433.0</ele><time>2026-04-08T13:57:43Z</time></trkpt><trkpt lat="34.93205089467655" lon="9.196016383834612"><ele>433.0</ele><time>2026-04-08T13:57:44Z</time></trkpt><trkpt lat="34.932110651106534" lon="9.196053306415958"><ele>432.99999999999994</ele><time>2026-04-08T13:57:45Z</time></trkpt><trkpt lat="34.93217587183534" lon="9.196073758065337"><ele>433.0</ele><time>2026-04-08T13:57:46Z</time></trkpt><trkpt lat="34.9322421669704" lon="9.196089290299922"><ele>433.00000000000006</ele><time>2026-04-08T13:57:47Z</time></trkpt><trkpt lat="34.932305482470795" lon="9.196116679531418"><ele>433.0</ele><time>2026-04-08T13:57:48Z</time></trkpt><trkpt lat="34.9323738847237" lon="9.196160367829764"><ele>433.0</ele><time>2026-04-08T13:57:49Z</time></trkpt><trkpt lat="34.93244176104389" lon="9.196213294807372"><ele>433.0</ele><time>2026-04-08T13:57:50Z</time></trkpt><trkpt lat="34.93250899486059" lon="9.196263041652422"><ele>433.00000000000006</ele><time>2026-04-08T13:57:51Z</time></trkpt><trkpt lat="34.93257429223812" lon="9.196311598712958"><ele>433.0</ele><time>2026-04-08T13:57:52Z</time></trkpt><trkpt lat="34.932645961669934" lon="9.19636893694415"><ele>433.1666666666667</ele><time>2026-04-08T13:57:53Z</time></trkpt><trkpt lat="34.93271426362746" lon="9.196427385874015"><ele>433.33333333333337</ele><time>2026-04-08T13:57:54Z</time></trkpt><trkpt lat="34.93278650582979" lon="9.19648256946382"><ele>433.5</ele><time>2026-04-08T13:57:55Z</time></trkpt><trkpt lat="34.93285445242365" lon="9.196530428735754"><ele>433.66666666666663</ele><time>2026-04-08T13:57:56Z</time></trkpt><trkpt lat="34.932926747961965" lon="9.196585193084305"><ele>433.8333333333333</ele><time>2026-04-08T13:57:57Z</time></trkpt><trkpt lat="34.93299687808742" lon="9.196638463324346"><ele>434.0</ele><time>2026-04-08T13:57:58Z</time></trkpt><trkpt lat="34.93306060076071" lon="9.196689032835618"><ele>434.0</ele><time>2026-04-08T13:57:59Z</time></trkpt><trkpt lat="34.93311636383346" lon="9.196738027204825"><ele>434.0</ele><time>2026-04-08T13:58:00Z</time></trkpt><trkpt lat="34.933176648705" lon="9.196790123863888"><ele>434.0</ele><time>2026-04-08T13:58:01Z</time></trkpt><trkpt lat="34.93323907027232" lon="9.196843248107063"><ele>434.0</ele><time>2026-04-08T13:58:02Z</time></trkpt><trkpt lat="34.933302652139545" lon="9.196892406288615"><ele>434.0</ele><time>2026-04-08T13:58:03Z</time></trkpt><trkpt lat="34.93336804233705" lon="9.196942241709843"><ele>434.0</ele><time>2026-04-08T13:58:04Z</time></trkpt><trkpt lat="34.93343205774151" lon="9.196993941494"><ele>434.0</ele><time>2026-04-08T13:58:05Z</time></trkpt><trkpt lat="34.93350587217931" lon="9.197050321537384"><ele>434.0</ele><time>2026-04-08T13:58:06Z</time></trkpt><trkpt lat="34.93358329880532" lon="9.197110665346736"><ele>434.0</ele><time>2026-04-08T13:58:07Z</time></trkpt><trkpt lat="34.93365901048122" lon="9.197169662725322"><ele>434.0</ele><time>2026-04-08T13:58:07.999Z</time></trkpt><trkpt lat="34.93372983034029" lon="9.197234553093871"><ele>434.0</ele><time>2026-04-08T13:58:08.999Z</time></trkpt><trkpt lat="34.933805516329336" lon="9.197297873451003"><ele>434.0</ele><time>2026-04-08T13:58:09.999Z</time></trkpt><trkpt lat="34.93388274864846" lon="9.197357478135082"><ele>434.0</ele><time>2026-04-08T13:58:10.999Z</time></trkpt><trkpt lat="34.93396099963631" lon="9.197419907549465"><ele>434.0</ele><time>2026-04-08T13:58:11.999Z</time></trkpt><trkpt lat="34.93404033326885" lon="9.197492758636672"><ele>434.0</ele><time>2026-04-08T13:58:12.999Z</time></trkpt><trkpt lat="34.934127616739" lon="9.197563537093055"><ele>434.0</ele><time>2026-04-08T13:58:13.999Z</time></trkpt><trkpt lat="34.934213206387255" lon="9.197631977592561"><ele>434.0</ele><time>2026-04-08T13:58:14.999Z</time></trkpt><trkpt lat="34.93429811157926" lon="9.197700481367395"><ele>434.49999999999994</ele><time>2026-04-08T13:58:15.999Z</time></trkpt><trkpt lat="34.93437639008319" lon="9.197766779206228"><ele>435.0</ele><time>2026-04-08T13:58:16.999Z</time></trkpt><trkpt lat="34.934442367955604" lon="9.19783222607297"><ele>435.5</ele><time>2026-04-08T13:58:17.999Z</time></trkpt><trkpt lat="34.934507278438915" lon="9.197895044808568"><ele>436.0</ele><time>2026-04-08T13:58:18.999Z</time></trkpt><trkpt lat="34.93458347729616" lon="9.197946103124684"><ele>436.49999999999994</ele><time>2026-04-08T13:58:19.999Z</time></trkpt><trkpt lat="34.93466364455725" lon="9.197985786859812"><ele>437.0</ele><time>2026-04-08T13:58:20.999Z</time></trkpt><trkpt lat="34.93473435752332" lon="9.198044616551606"><ele>436.99999999999994</ele><time>2026-04-08T13:58:21.999Z</time></trkpt><trkpt lat="34.93479458742981" lon="9.198109027786865"><ele>437.0</ele><time>2026-04-08T13:58:22.999Z</time></trkpt><trkpt lat="34.934858145629725" lon="9.198169738429991"><ele>437.0</ele><time>2026-04-08T13:58:23.999Z</time></trkpt><trkpt lat="34.934930201775266" lon="9.198234499836207"><ele>437.0</ele><time>2026-04-08T13:58:24.999Z</time></trkpt><trkpt lat="34.93501322283745" lon="9.198297546358683"><ele>436.99999999999994</ele><time>2026-04-08T13:58:25.999Z</time></trkpt><trkpt lat="34.93509622381385" lon="9.198363603025841"><ele>437.0</ele><time>2026-04-08T13:58:26.999Z</time></trkpt><trkpt lat="34.93518030918058" lon="9.198434408668804"><ele>436.75</ele><time>2026-04-08T13:58:27.999Z</time></trkpt><trkpt lat="34.93527279398136" lon="9.198508914640225"><ele>436.5</ele><time>2026-04-08T13:58:28.999Z</time></trkpt><trkpt lat="34.93537468458628" lon="9.1985899321593"><ele>436.25</ele><time>2026-04-08T13:58:29.999Z</time></trkpt><trkpt lat="34.93548433708384" lon="9.198676218074445"><ele>436.0</ele><time>2026-04-08T13:58:30.999Z</time></trkpt><trkpt lat="34.93559430450663" lon="9.198774841943278"><ele>436.0</ele><time>2026-04-08T13:58:31.999Z</time></trkpt><trkpt lat="34.93570912382503" lon="9.198872511495857"><ele>436.0</ele><time>2026-04-08T13:58:32.999Z</time></trkpt><trkpt lat="34.93582782916238" lon="9.198968159185721"><ele>436.0</ele><time>2026-04-08T13:58:33.999Z</time></trkpt><trkpt lat="34.93594327377144" lon="9.199060722719137"><ele>436.0</ele><time>2026-04-08T13:58:34.999Z</time></trkpt><trkpt lat="34.936049310619154" lon="9.199151983521842"><ele>436.25</ele><time>2026-04-08T13:58:35.999Z</time></trkpt><trkpt lat="34.936152234514104" lon="9.199234934392186"><ele>436.5</ele><time>2026-04-08T13:58:36.999Z</time></trkpt><trkpt lat="34.936256065275415" lon="9.199317471746886"><ele>436.75</ele><time>2026-04-08T13:58:37.999Z</time></trkpt><trkpt lat="34.93635702669959" lon="9.19940041676174"><ele>437.0</ele><time>2026-04-08T13:58:38.999Z</time></trkpt><trkpt lat="34.9364515775216" lon="9.199483939539968"><ele>436.99999999999994</ele><time>2026-04-08T13:58:39.999Z</time></trkpt><trkpt lat="34.936532633838105" lon="9.199556589829115"><ele>437.0</ele><time>2026-04-08T13:58:40.999Z</time></trkpt><trkpt lat="34.93660173391091" lon="9.199614977607379"><ele>437.0</ele><time>2026-04-08T13:58:41.999Z</time></trkpt><trkpt lat="34.93666056144516" lon="9.199665793975088"><ele>437.0</ele><time>2026-04-08T13:58:42.999Z</time></trkpt><trkpt lat="34.93671415493936" lon="9.199711317776783"><ele>436.99999999999994</ele><time>2026-04-08T13:58:43.999Z</time></trkpt><trkpt lat="34.93676470511303" lon="9.199758060793936"><ele>437.0</ele><time>2026-04-08T13:58:44.999Z</time></trkpt><trkpt lat="34.936870528892" lon="9.199841913143334"><ele>436.8333333333333</ele><time>2026-04-08T13:58:46.999Z</time></trkpt><trkpt lat="34.93693218386105" lon="9.199889576825102"><ele>436.66666666666663</ele><time>2026-04-08T13:58:47.999Z</time></trkpt><trkpt lat="34.93699427023604" lon="9.199941598040633"><ele>436.5</ele><time>2026-04-08T13:58:48.999Z</time></trkpt><trkpt lat="34.937060439515555" lon="9.200000078294028"><ele>436.33333333333337</ele><time>2026-04-08T13:58:49.999Z</time></trkpt><trkpt lat="34.937142907016096" lon="9.200067825463822"><ele>436.1666666666667</ele><time>2026-04-08T13:58:50.999Z</time></trkpt><trkpt lat="34.937234275283416" lon="9.200140446154101"><ele>436.0</ele><time>2026-04-08T13:58:51.999Z</time></trkpt><trkpt lat="34.937329583787516" lon="9.200216384114402"><ele>436.0</ele><time>2026-04-08T13:58:52.999Z</time></trkpt><trkpt lat="34.93743070306986" lon="9.200290480413152"><ele>436.0</ele><time>2026-04-08T13:58:53.999Z</time></trkpt><trkpt lat="34.93752569422308" lon="9.200356807728966"><ele>436.0</ele><time>2026-04-08T13:58:54.999Z</time></trkpt><trkpt lat="34.93761518556443" lon="9.200427206346768"><ele>436.0</ele><time>2026-04-08T13:58:55.999Z</time></trkpt><trkpt lat="34.93770172994031" lon="9.200504413311275"><ele>436.0</ele><time>2026-04-08T13:58:56.999Z</time></trkpt><trkpt lat="34.93779299804127" lon="9.20058330877924"><ele>435.83333333333337</ele><time>2026-04-08T13:58:57.999Z</time></trkpt><trkpt lat="34.93788222146581" lon="9.20066037781289"><ele>435.6666666666667</ele><time>2026-04-08T13:58:58.999Z</time></trkpt><trkpt lat="34.93796360943175" lon="9.20072947339616"><ele>435.5</ele><time>2026-04-08T13:58:59.999Z</time></trkpt><trkpt lat="34.93803713391198" lon="9.200787967552147"><ele>435.33333333333337</ele><time>2026-04-08T13:59:00.999Z</time></trkpt><trkpt lat="34.93810259841317" lon="9.200836649971736"><ele>435.1666666666667</ele><time>2026-04-08T13:59:01.999Z</time></trkpt><trkpt lat="34.938159948028044" lon="9.200883032489122"><ele>435.0</ele><time>2026-04-08T13:59:02.999Z</time></trkpt><trkpt lat="34.93821673250945" lon="9.200931082169255"><ele>435.0</ele><time>2026-04-08T13:59:03.999Z</time></trkpt><trkpt lat="34.93831475015654" lon="9.201010446292322"><ele>435.0</ele><time>2026-04-08T13:59:05.999Z</time></trkpt><trkpt lat="34.9384135660424" lon="9.201102720983224"><ele>435.0</ele><time>2026-04-08T13:59:07.999Z</time></trkpt><trkpt lat="34.93848285343372" lon="9.201160113465916"><ele>435.0</ele><time>2026-04-08T13:59:08.999Z</time></trkpt><trkpt lat="34.93856087230994" lon="9.201222698064518"><ele>435.0</ele><time>2026-04-08T13:59:09.999Z</time></trkpt><trkpt lat="34.93864625982064" lon="9.201285595108326"><ele>435.0</ele><time>2026-04-08T13:59:10.999Z</time></trkpt><trkpt lat="34.93873213838691" lon="9.201349567611715"><ele>435.0</ele><time>2026-04-08T13:59:11.999Z</time></trkpt><trkpt lat="34.93881319517435" lon="9.20141603010518"><ele>435.0</ele><time>2026-04-08T13:59:12.999Z</time></trkpt><trkpt lat="34.9388971389239" lon="9.20148278691244"><ele>435.0</ele><time>2026-04-08T13:59:13.999Z</time></trkpt><trkpt lat="34.938978294864754" lon="9.201546405860057"><ele>435.0</ele><time>2026-04-08T13:59:14.999Z</time></trkpt><trkpt lat="34.93905811041654" lon="9.201612410270704"><ele>435.0</ele><time>2026-04-08T13:59:15.999Z</time></trkpt><trkpt lat="34.939144044109874" lon="9.20169134367049"><ele>435.0</ele><time>2026-04-08T13:59:16.999Z</time></trkpt><trkpt lat="34.939240112091255" lon="9.20177624545405"><ele>435.0</ele><time>2026-04-08T13:59:17.999Z</time></trkpt><trkpt lat="34.93934266919246" lon="9.201866119708905"><ele>435.0</ele><time>2026-04-08T13:59:18.999Z</time></trkpt><trkpt lat="34.939442621669535" lon="9.201959188247852"><ele>435.0</ele><time>2026-04-08T13:59:19.999Z</time></trkpt><trkpt lat="34.939546248884454" lon="9.202048030374785"><ele>435.0</ele><time>2026-04-08T13:59:20.999Z</time></trkpt><trkpt lat="34.93964944187179" lon="9.202134094447976"><ele>435.0</ele><time>2026-04-08T13:59:21.999Z</time></trkpt><trkpt lat="34.93975246499312" lon="9.202219003967922"><ele>435.0</ele><time>2026-04-08T13:59:22.999Z</time></trkpt><trkpt lat="34.93984785515059" lon="9.202304104287748"><ele>434.8333333333333</ele><time>2026-04-08T13:59:23.999Z</time></trkpt><trkpt lat="34.93993298600533" lon="9.202378138461361"><ele>434.66666666666663</ele><time>2026-04-08T13:59:24.999Z</time></trkpt><trkpt lat="34.94000050770051" lon="9.202434017521561"><ele>434.5</ele><time>2026-04-08T13:59:25.999Z</time></trkpt><trkpt lat="34.940050316156764" lon="9.202482036956667"><ele>434.3333333333333</ele><time>2026-04-08T13:59:26.999Z</time></trkpt><trkpt lat="34.94012775038517" lon="9.202560439977445"><ele>434.16666666666663</ele><time>2026-04-08T13:59:28.999Z</time></trkpt><trkpt lat="34.940198787241286" lon="9.20261626564869"><ele>434.0</ele><time>2026-04-08T13:59:30.999Z</time></trkpt><trkpt lat="34.940274915950184" lon="9.202671987745958"><ele>433.99999999999994</ele><time>2026-04-08T13:59:32.999Z</time></trkpt><trkpt lat="34.94033850297328" lon="9.202735927381728"><ele>434.0</ele><time>2026-04-08T13:59:34.999Z</time></trkpt><trkpt lat="34.94040569632433" lon="9.202789220819461"><ele>434.0</ele><time>2026-04-08T13:59:36.999Z</time></trkpt><trkpt lat="34.94047739656036" lon="9.202852786749034"><ele>434.0</ele><time>2026-04-08T13:59:38.999Z</time></trkpt><trkpt lat="34.9405483893829" lon="9.202912261102323"><ele>433.99999999999994</ele><time>2026-04-08T13:59:40.999Z</time></trkpt><trkpt lat="34.940638199146896" lon="9.202990375875837"><ele>434.0</ele><time>2026-04-08T13:59:42.999Z</time></trkpt><trkpt lat="34.94070484607594" lon="9.203047742476949"><ele>433.99999999999994</ele><time>2026-04-08T13:59:43.999Z</time></trkpt><trkpt lat="34.94077022997997" lon="9.20310599976174"><ele>434.0</ele><time>2026-04-08T13:59:44.999Z</time></trkpt><trkpt lat="34.940831484096734" lon="9.20316017123153"><ele>434.0</ele><time>2026-04-08T13:59:45.999Z</time></trkpt><trkpt lat="34.94089124290464" lon="9.203204671190228"><ele>434.0</ele><time>2026-04-08T13:59:46.999Z</time></trkpt><trkpt lat="34.9409905243928" lon="9.203280169069012"><ele>433.99999999999994</ele><time>2026-04-08T13:59:48.999Z</time></trkpt><trkpt lat="34.94104588801144" lon="9.203330113733163"><ele>434.0</ele><time>2026-04-08T13:59:49.999Z</time></trkpt><trkpt lat="34.94110868848338" lon="9.20338830797984"><ele>433.79999999999995</ele><time>2026-04-08T13:59:50.999Z</time></trkpt><trkpt lat="34.94117487078771" lon="9.203453064956033"><ele>433.59999999999997</ele><time>2026-04-08T13:59:51.999Z</time></trkpt><trkpt lat="34.94125478892624" lon="9.203525704778103"><ele>433.4</ele><time>2026-04-08T13:59:52.999Z</time></trkpt><trkpt lat="34.94135115765848" lon="9.203615704880834"><ele>433.2</ele><time>2026-04-08T13:59:53.999Z</time></trkpt><trkpt lat="34.94145289726702" lon="9.203710605202563"><ele>433.0</ele><time>2026-04-08T13:59:54.999Z</time></trkpt><trkpt lat="34.941557102959315" lon="9.203800670143709"><ele>433.0</ele><time>2026-04-08T13:59:55.999Z</time></trkpt><trkpt lat="34.94166208939043" lon="9.20389630962402"><ele>433.0</ele><time>2026-04-08T13:59:56.999Z</time></trkpt><trkpt lat="34.94177582978726" lon="9.204001662212685"><ele>433.0</ele><time>2026-04-08T13:59:57.999Z</time></trkpt><trkpt lat="34.94190235689387" lon="9.20411338540312"><ele>433.0</ele><time>2026-04-08T13:59:58.999Z</time></trkpt><trkpt lat="34.94204862073393" lon="9.204231328079524"><ele>432.6666666666667</ele><time>2026-04-08T13:59:59.999Z</time></trkpt><trkpt lat="34.9421906918021" lon="9.204348810492872"><ele>432.33333333333337</ele><time>2026-04-08T14:00:00.999Z</time></trkpt><trkpt lat="34.94231529899759" lon="9.204458507527352"><ele>432.0</ele><time>2026-04-08T14:00:01.999Z</time></trkpt><trkpt lat="34.94243551484397" lon="9.204570487134708"><ele>431.66666666666663</ele><time>2026-04-08T14:00:02.999Z</time></trkpt><trkpt lat="34.942556563272746" lon="9.204683077334346"><ele>431.3333333333333</ele><time>2026-04-08T14:00:03.999Z</time></trkpt><trkpt lat="34.94268938600104" lon="9.204796753823466"><ele>431.0</ele><time>2026-04-08T14:00:04.999Z</time></trkpt><trkpt lat="34.94282957019641" lon="9.204914104630593"><ele>430.3333333333333</ele><time>2026-04-08T14:00:05.999Z</time></trkpt><trkpt lat="34.942970862564756" lon="9.205040595759352"><ele>429.66666666666663</ele><time>2026-04-08T14:00:06.999Z</time></trkpt><trkpt lat="34.943111905904544" lon="9.20517018365313"><ele>429.0</ele><time>2026-04-08T14:00:07.999Z</time></trkpt><trkpt lat="34.943250844847775" lon="9.205292149362954"><ele>429.0</ele><time>2026-04-08T14:00:08.999Z</time></trkpt><trkpt lat="34.94339342344272" lon="9.205417258670117"><ele>429.0</ele><time>2026-04-08T14:00:09.999Z</time></trkpt><trkpt lat="34.94353240075719" lon="9.205544005644061"><ele>429.0</ele><time>2026-04-08T14:00:10.999Z</time></trkpt><trkpt lat="34.94367604076011" lon="9.205673314045079"><ele>429.0</ele><time>2026-04-08T14:00:11.999Z</time></trkpt><trkpt lat="34.94382604259356" lon="9.205806392569292"><ele>429.0</ele><time>2026-04-08T14:00:12.999Z</time></trkpt><trkpt lat="34.94397679037827" lon="9.205939669499534"><ele>429.0</ele><time>2026-04-08T14:00:13.999Z</time></trkpt><trkpt lat="34.94413517157544" lon="9.206075460370005"><ele>429.66666666666663</ele><time>2026-04-08T14:00:14.999Z</time></trkpt><trkpt lat="34.94429881311939" lon="9.206204961632816"><ele>430.3333333333333</ele><time>2026-04-08T14:00:15.999Z</time></trkpt><trkpt lat="34.94445924976511" lon="9.2063420013965"><ele>431.0</ele><time>2026-04-08T14:00:16.999Z</time></trkpt><trkpt lat="34.94461304342968" lon="9.206487006432843"><ele>430.0</ele><time>2026-04-08T14:00:17.999Z</time></trkpt><trkpt lat="34.94477274972745" lon="9.206630454272018"><ele>429.0</ele><time>2026-04-08T14:00:18.999Z</time></trkpt><trkpt lat="34.94493386069031" lon="9.206766674410883"><ele>428.0</ele><time>2026-04-08T14:00:19.999Z</time></trkpt><trkpt lat="34.94509144619545" lon="9.206911847426035"><ele>428.0</ele><time>2026-04-08T14:00:20.999Z</time></trkpt><trkpt lat="34.94524523081669" lon="9.207061628780316"><ele>428.0</ele><time>2026-04-08T14:00:21.999Z</time></trkpt><trkpt lat="34.9454040823665" lon="9.207208837894962"><ele>428.0</ele><time>2026-04-08T14:00:22.999Z</time></trkpt><trkpt lat="34.945561771277774" lon="9.207346628312637"><ele>427.0</ele><time>2026-04-08T14:00:23.999Z</time></trkpt><trkpt lat="34.94572041684401" lon="9.207484738800604"><ele>426.0</ele><time>2026-04-08T14:00:24.999Z</time></trkpt><trkpt lat="34.94587827032265" lon="9.207625026025845"><ele>425.0</ele><time>2026-04-08T14:00:25.999Z</time></trkpt><trkpt lat="34.94603509861479" lon="9.207768032425102"><ele>424.66666666666663</ele><time>2026-04-08T14:00:26.999Z</time></trkpt><trkpt lat="34.94619546081755" lon="9.207914080111449"><ele>424.33333333333337</ele><time>2026-04-08T14:00:27.999Z</time></trkpt><trkpt lat="34.94635807321831" lon="9.20805813234003"><ele>424.0</ele><time>2026-04-08T14:00:28.999Z</time></trkpt><trkpt lat="34.94652023798767" lon="9.208199376681039"><ele>423.6666666666667</ele><time>2026-04-08T14:00:29.999Z</time></trkpt><trkpt lat="34.94668362370858" lon="9.208342428554822"><ele>423.33333333333337</ele><time>2026-04-08T14:00:30.999Z</time></trkpt><trkpt lat="34.94685206660302" lon="9.208491946947861"><ele>423.0</ele><time>2026-04-08T14:00:31.999Z</time></trkpt><trkpt lat="34.94702130057628" lon="9.208642388187139"><ele>423.0</ele><time>2026-04-08T14:00:32.999Z</time></trkpt><trkpt lat="34.94718818531433" lon="9.208785793583457"><ele>423.0</ele><time>2026-04-08T14:00:33.999Z</time></trkpt><trkpt lat="34.94735989435205" lon="9.20893381447575"><ele>423.0</ele><time>2026-04-08T14:00:34.999Z</time></trkpt><trkpt lat="34.94752614554896" lon="9.20908626818383"><ele>423.66666666666663</ele><time>2026-04-08T14:00:35.999Z</time></trkpt><trkpt lat="34.94769285643952" lon="9.209241189012392"><ele>424.3333333333333</ele><time>2026-04-08T14:00:36.999Z</time></trkpt><trkpt lat="34.94786683368062" lon="9.20939864148142"><ele>425.0</ele><time>2026-04-08T14:00:37.999Z</time></trkpt><trkpt lat="34.948041866168246" lon="9.209551236715706"><ele>425.0</ele><time>2026-04-08T14:00:38.999Z</time></trkpt><trkpt lat="34.94822367057609" lon="9.20970522196221"><ele>425.0</ele><time>2026-04-08T14:00:39.999Z</time></trkpt><trkpt lat="34.948402632268426" lon="9.20986244655027"><ele>425.0</ele><time>2026-04-08T14:00:40.999Z</time></trkpt><trkpt lat="34.94857925081849" lon="9.210019671609553"><ele>424.0</ele><time>2026-04-08T14:00:41.999Z</time></trkpt><trkpt lat="34.948757129666426" lon="9.210181122157397"><ele>423.0</ele><time>2026-04-08T14:00:42.999Z</time></trkpt><trkpt lat="34.94893445785928" lon="9.210338903664518"><ele>422.0</ele><time>2026-04-08T14:00:43.999Z</time></trkpt><trkpt lat="34.94911187448558" lon="9.210492646459903"><ele>422.3333333333333</ele><time>2026-04-08T14:00:44.999Z</time></trkpt><trkpt lat="34.94928683128856" lon="9.210645060751231"><ele>422.66666666666663</ele><time>2026-04-08T14:00:45.999Z</time></trkpt><trkpt lat="34.94945813630913" lon="9.2107997321753"><ele>423.0</ele><time>2026-04-08T14:00:46.999Z</time></trkpt><trkpt lat="34.94962292032989" lon="9.210943583804394"><ele>423.0</ele><time>2026-04-08T14:00:47.999Z</time></trkpt><trkpt lat="34.94978363945345" lon="9.211083112125584"><ele>423.0</ele><time>2026-04-08T14:00:48.999Z</time></trkpt><trkpt lat="34.949950590640675" lon="9.211229465464779"><ele>423.0</ele><time>2026-04-08T14:00:49.999Z</time></trkpt><trkpt lat="34.950117282495185" lon="9.211379904907794"><ele>422.33333333333337</ele><time>2026-04-08T14:00:50.999Z</time></trkpt><trkpt lat="34.950284780396" lon="9.21153467451106"><ele>421.6666666666667</ele><time>2026-04-08T14:00:51.999Z</time></trkpt><trkpt lat="34.95045071255987" lon="9.211685492819079"><ele>421.0</ele><time>2026-04-08T14:00:52.999Z</time></trkpt><trkpt lat="34.95061957034766" lon="9.211834617402133"><ele>421.0</ele><time>2026-04-08T14:00:53.999Z</time></trkpt><trkpt lat="34.95078469142091" lon="9.211985361282913"><ele>421.0</ele><time>2026-04-08T14:00:54.999Z</time></trkpt><trkpt lat="34.95095013279427" lon="9.212133653199205"><ele>421.0</ele><time>2026-04-08T14:00:55.999Z</time></trkpt><trkpt lat="34.951116958943715" lon="9.212279001820866"><ele>421.33333333333337</ele><time>2026-04-08T14:00:56.999Z</time></trkpt><trkpt lat="34.951286888727424" lon="9.212423636758105"><ele>421.66666666666663</ele><time>2026-04-08T14:00:57.999Z</time></trkpt><trkpt lat="34.95145856021047" lon="9.212571427111374"><ele>422.0</ele><time>2026-04-08T14:00:58.999Z</time></trkpt><trkpt lat="34.951624112410876" lon="9.212719740284069"><ele>421.66666666666663</ele><time>2026-04-08T14:00:59.999Z</time></trkpt><trkpt lat="34.951788586739426" lon="9.212872069717083"><ele>421.33333333333337</ele><time>2026-04-08T14:01:00.999Z</time></trkpt><trkpt lat="34.951953541375346" lon="9.213026175408574"><ele>421.0</ele><time>2026-04-08T14:01:01.999Z</time></trkpt><trkpt lat="34.952120994305375" lon="9.213178049239728"><ele>421.0</ele><time>2026-04-08T14:01:02.999Z</time></trkpt><trkpt lat="34.952290595085564" lon="9.213324455420675"><ele>421.0</ele><time>2026-04-08T14:01:03.999Z</time></trkpt><trkpt lat="34.952459786537574" lon="9.213474608157577"><ele>421.0</ele><time>2026-04-08T14:01:04.999Z</time></trkpt><trkpt lat="34.95263052978364" lon="9.213624112791688"><ele>421.0</ele><time>2026-04-08T14:01:05.999Z</time></trkpt><trkpt lat="34.9528065596" lon="9.213778587004285"><ele>421.0</ele><time>2026-04-08T14:01:06.999Z</time></trkpt><trkpt lat="34.95298410456094" lon="9.213930904987368"><ele>421.0</ele><time>2026-04-08T14:01:07.999Z</time></trkpt><trkpt lat="34.95316319586545" lon="9.214087656183624"><ele>420.33333333333337</ele><time>2026-04-08T14:01:08.999Z</time></trkpt><trkpt lat="34.95333955977332" lon="9.214250712015046"><ele>419.66666666666663</ele><time>2026-04-08T14:01:09.999Z</time></trkpt><trkpt lat="34.9535145493749" lon="9.214419607814223"><ele>419.0</ele><time>2026-04-08T14:01:10.999Z</time></trkpt><trkpt lat="34.95369908417423" lon="9.214584843068032"><ele>419.0</ele><time>2026-04-08T14:01:11.999Z</time></trkpt><trkpt lat="34.95388971615136" lon="9.214746214198879"><ele>419.0</ele><time>2026-04-08T14:01:12.999Z</time></trkpt><trkpt lat="34.95408546571792" lon="9.214912460228563"><ele>418.5</ele><time>2026-04-08T14:01:13.999Z</time></trkpt><trkpt lat="34.95427824486949" lon="9.21508444246703"><ele>418.0</ele><time>2026-04-08T14:01:14.999Z</time></trkpt><trkpt lat="34.9544746928505" lon="9.21526444967891"><ele>418.0</ele><time>2026-04-08T14:01:15.999Z</time></trkpt><trkpt lat="34.95467989720671" lon="9.215449937263438"><ele>418.0</ele><time>2026-04-08T14:01:16.999Z</time></trkpt><trkpt lat="34.954889878235285" lon="9.215632952780805"><ele>417.5</ele><time>2026-04-08T14:01:17.999Z</time></trkpt><trkpt lat="34.955106681306845" lon="9.215823277336774"><ele>417.0</ele><time>2026-04-08T14:01:18.999Z</time></trkpt><trkpt lat="34.95532573285255" lon="9.21601474518104"><ele>417.0</ele><time>2026-04-08T14:01:19.999Z</time></trkpt><trkpt lat="34.955549732672" lon="9.216211735722778"><ele>417.0</ele><time>2026-04-08T14:01:20.999Z</time></trkpt><trkpt lat="34.95578634742555" lon="9.21642069632651"><ele>415.5</ele><time>2026-04-08T14:01:21.999Z</time></trkpt><trkpt lat="34.95603688339403" lon="9.216644316408352"><ele>414.0</ele><time>2026-04-08T14:01:22.999Z</time></trkpt><trkpt lat="34.95629547410586" lon="9.216873559985585"><ele>414.0</ele><time>2026-04-08T14:01:23.999Z</time></trkpt><trkpt lat="34.95656321623482" lon="9.217108853624252"><ele>414.0</ele><time>2026-04-08T14:01:24.999Z</time></trkpt><trkpt lat="34.95683556274283" lon="9.21735077549965"><ele>414.0</ele><time>2026-04-08T14:01:25.999Z</time></trkpt><trkpt lat="34.95709804715608" lon="9.217582214446905"><ele>414.0</ele><time>2026-04-08T14:01:26.999Z</time></trkpt><trkpt lat="34.957342383903764" lon="9.217797903376914"><ele>414.0</ele><time>2026-04-08T14:01:27.999Z</time></trkpt><trkpt lat="34.95757923493882" lon="9.218009278801189"><ele>414.0</ele><time>2026-04-08T14:01:28.999Z</time></trkpt><trkpt lat="34.957819266253125" lon="9.21822421427757"><ele>413.5</ele><time>2026-04-08T14:01:29.999Z</time></trkpt><trkpt lat="34.95806319609444" lon="9.218442012804324"><ele>413.0</ele><time>2026-04-08T14:01:30.999Z</time></trkpt><trkpt lat="34.95830839937157" lon="9.21865704197493"><ele>412.5</ele><time>2026-04-08T14:01:31.999Z</time></trkpt><trkpt lat="34.95855271213479" lon="9.218873993472624"><ele>412.0</ele><time>2026-04-08T14:01:32.999Z</time></trkpt><trkpt lat="34.95879700864145" lon="9.21908515306181"><ele>412.0</ele><time>2026-04-08T14:01:33.999Z</time></trkpt><trkpt lat="34.959042729566974" lon="9.219296456359634"><ele>412.0</ele><time>2026-04-08T14:01:34.999Z</time></trkpt><trkpt lat="34.95927434017767" lon="9.219501932835199"><ele>412.0</ele><time>2026-04-08T14:01:35.999Z</time></trkpt><trkpt lat="34.95949490856369" lon="9.219701298726797"><ele>412.0</ele><time>2026-04-08T14:01:36.999Z</time></trkpt><trkpt lat="34.95970590163872" lon="9.219890318032057"><ele>411.5</ele><time>2026-04-08T14:01:37.999Z</time></trkpt><trkpt lat="34.959917564435194" lon="9.22007730115359"><ele>411.0</ele><time>2026-04-08T14:01:38.999Z</time></trkpt><trkpt lat="34.960127311602285" lon="9.220261799761644"><ele>410.0</ele><time>2026-04-08T14:01:39.999Z</time></trkpt><trkpt lat="34.9603283941068" lon="9.220441025710473"><ele>409.0</ele><time>2026-04-08T14:01:40.999Z</time></trkpt><trkpt lat="34.96052775772931" lon="9.220621092634133"><ele>409.0</ele><time>2026-04-08T14:01:41.999Z</time></trkpt><trkpt lat="34.96073040905229" lon="9.220805816610934"><ele>409.0</ele><time>2026-04-08T14:01:42.999Z</time></trkpt><trkpt lat="34.96092704094407" lon="9.220986116327747"><ele>408.5</ele><time>2026-04-08T14:01:43.999Z</time></trkpt><trkpt lat="34.96113020922375" lon="9.221169647172298"><ele>408.0</ele><time>2026-04-08T14:01:44.999Z</time></trkpt><trkpt lat="34.961334501454914" lon="9.221354678116674"><ele>408.0</ele><time>2026-04-08T14:01:45.999Z</time></trkpt><trkpt lat="34.96154047374515" lon="9.22153904029638"><ele>408.0</ele><time>2026-04-08T14:01:46.999Z</time></trkpt><trkpt lat="34.961751367635685" lon="9.221730944663445"><ele>407.0</ele><time>2026-04-08T14:01:47.999Z</time></trkpt><trkpt lat="34.9619623614618" lon="9.221918497183921"><ele>406.0</ele><time>2026-04-08T14:01:48.999Z</time></trkpt><trkpt lat="34.962169019791716" lon="9.222101017514712"><ele>406.0</ele><time>2026-04-08T14:01:49.999Z</time></trkpt><trkpt lat="34.9623766569626" lon="9.222280593359478"><ele>406.0</ele><time>2026-04-08T14:01:50.999Z</time></trkpt><trkpt lat="34.96258489406396" lon="9.222458969848727"><ele>406.5</ele><time>2026-04-08T14:01:51.999Z</time></trkpt><trkpt lat="34.962795622954964" lon="9.222644075384924"><ele>407.0</ele><time>2026-04-08T14:01:52.999Z</time></trkpt><trkpt lat="34.96300900390559" lon="9.2228326209446"><ele>407.0</ele><time>2026-04-08T14:01:53.999Z</time></trkpt><trkpt lat="34.96322092911189" lon="9.223018607182562"><ele>407.0</ele><time>2026-04-08T14:01:54.999Z</time></trkpt><trkpt lat="34.96343472941794" lon="9.223207925757771"><ele>406.5</ele><time>2026-04-08T14:01:55.999Z</time></trkpt><trkpt lat="34.96364764508588" lon="9.223394996118216"><ele>406.0</ele><time>2026-04-08T14:01:56.999Z</time></trkpt><trkpt lat="34.96385938767492" lon="9.223583233685162"><ele>406.0</ele><time>2026-04-08T14:01:57.999Z</time></trkpt><trkpt lat="34.96406427602093" lon="9.22376531369916"><ele>406.0</ele><time>2026-04-08T14:01:58.999Z</time></trkpt><trkpt lat="34.96426108470609" lon="9.223942747913645"><ele>407.0</ele><time>2026-04-08T14:01:59.999Z</time></trkpt><trkpt lat="34.96445846409081" lon="9.224119886575552"><ele>408.0</ele><time>2026-04-08T14:02:00.999Z</time></trkpt><trkpt lat="34.964660148672" lon="9.2243003979728"><ele>408.0</ele><time>2026-04-08T14:02:01.999Z</time></trkpt><trkpt lat="34.96486218983108" lon="9.224479236684402"><ele>408.0</ele><time>2026-04-08T14:02:02.999Z</time></trkpt><trkpt lat="34.96506418352401" lon="9.224658318309297"><ele>407.5</ele><time>2026-04-08T14:02:03.999Z</time></trkpt><trkpt lat="34.965266969072445" lon="9.22483870942565"><ele>407.0</ele><time>2026-04-08T14:02:04.999Z</time></trkpt><trkpt lat="34.9654698347241" lon="9.225016429528699"><ele>407.0</ele><time>2026-04-08T14:02:05.999Z</time></trkpt><trkpt lat="34.96567450600299" lon="9.22519687439962"><ele>407.0</ele><time>2026-04-08T14:02:06.999Z</time></trkpt><trkpt lat="34.965876716084445" lon="9.225373702107744"><ele>407.0</ele><time>2026-04-08T14:02:07.999Z</time></trkpt><trkpt lat="34.96608042017242" lon="9.225554484335797"><ele>407.0</ele><time>2026-04-08T14:02:08.999Z</time></trkpt><trkpt lat="34.966281881788326" lon="9.225735524180548"><ele>406.5</ele><time>2026-04-08T14:02:09.999Z</time></trkpt><trkpt lat="34.96648123861689" lon="9.225916746645252"><ele>406.0</ele><time>2026-04-08T14:02:10.999Z</time></trkpt><trkpt lat="34.966681455667945" lon="9.226096942570694"><ele>406.5</ele><time>2026-04-08T14:02:11.999Z</time></trkpt><trkpt lat="34.96688197522363" lon="9.226276856395728"><ele>407.0</ele><time>2026-04-08T14:02:12.999Z</time></trkpt><trkpt lat="34.967083828697135" lon="9.22646008809047"><ele>406.5</ele><time>2026-04-08T14:02:13.999Z</time></trkpt><trkpt lat="34.96728422549156" lon="9.226642174291655"><ele>406.0</ele><time>2026-04-08T14:02:14.999Z</time></trkpt><trkpt lat="34.96748554537985" lon="9.226821125040123"><ele>406.5</ele><time>2026-04-08T14:02:15.999Z</time></trkpt><trkpt lat="34.96768994853097" lon="9.226997819310006"><ele>407.0</ele><time>2026-04-08T14:02:16.999Z</time></trkpt><trkpt lat="34.96789247262284" lon="9.227170634628472"><ele>407.5</ele><time>2026-04-08T14:02:17.999Z</time></trkpt><trkpt lat="34.96809572848112" lon="9.227344485072223"><ele>408.0</ele><time>2026-04-08T14:02:18.999Z</time></trkpt><trkpt lat="34.96828106236492" lon="9.227506074500935"><ele>408.0</ele><time>2026-04-08T14:02:19.999Z</time></trkpt><trkpt lat="34.96845166863702" lon="9.227661939068607"><ele>408.0</ele><time>2026-04-08T14:02:20.999Z</time></trkpt><trkpt lat="34.96861319641401" lon="9.22781047492237"><ele>408.0</ele><time>2026-04-08T14:02:21.999Z</time></trkpt><trkpt lat="34.96877108552941" lon="9.227954234888774"><ele>408.0</ele><time>2026-04-08T14:02:22.999Z</time></trkpt><trkpt lat="34.96893212151731" lon="9.228098439800334"><ele>408.0</ele><time>2026-04-08T14:02:23.999Z</time></trkpt><trkpt lat="34.96909387293672" lon="9.228240992510793"><ele>408.0</ele><time>2026-04-08T14:02:24.999Z</time></trkpt><trkpt lat="34.96925116150372" lon="9.228378987532857"><ele>408.66666666666663</ele><time>2026-04-08T14:02:25.999Z</time></trkpt><trkpt lat="34.9694101286201" lon="9.22851460123552"><ele>409.3333333333333</ele><time>2026-04-08T14:02:26.999Z</time></trkpt><trkpt lat="34.969557879895866" lon="9.228644239690853"><ele>410.0</ele><time>2026-04-08T14:02:27.999Z</time></trkpt><trkpt lat="34.96970269510418" lon="9.22877986986389"><ele>410.0</ele><time>2026-04-08T14:02:28.999Z</time></trkpt><trkpt lat="34.96985535634397" lon="9.228924085974969"><ele>410.0</ele><time>2026-04-08T14:02:29.999Z</time></trkpt><trkpt lat="34.97001916391354" lon="9.229066718613042"><ele>410.0</ele><time>2026-04-08T14:02:30.999Z</time></trkpt><trkpt lat="34.9701892866761" lon="9.229207401790775"><ele>410.0</ele><time>2026-04-08T14:02:31.999Z</time></trkpt><trkpt lat="34.97035244143573" lon="9.229348316916843"><ele>410.0</ele><time>2026-04-08T14:02:32.999Z</time></trkpt><trkpt lat="34.97049840665927" lon="9.229484185335107"><ele>410.0</ele><time>2026-04-08T14:02:33.999Z</time></trkpt><trkpt lat="34.97063395838566" lon="9.229615515105124"><ele>410.0</ele><time>2026-04-08T14:02:34.999Z</time></trkpt><trkpt lat="34.97076150351649" lon="9.22973704511123"><ele>410.0</ele><time>2026-04-08T14:02:35.999Z</time></trkpt><trkpt lat="34.97086953287229" lon="9.229841277942715"><ele>410.0</ele><time>2026-04-08T14:02:36.999Z</time></trkpt><trkpt lat="34.97095962336504" lon="9.2299250966913"><ele>410.0</ele><time>2026-04-08T14:02:37.999Z</time></trkpt><trkpt lat="34.97103248873446" lon="9.229988920160961"><ele>409.99999999999994</ele><time>2026-04-08T14:02:38.999Z</time></trkpt><trkpt lat="34.97109388890778" lon="9.23003920330952"><ele>410.0</ele><time>2026-04-08T14:02:39.999Z</time></trkpt><trkpt lat="34.971189265707366" lon="9.230126807420174"><ele>410.0</ele><time>2026-04-08T14:02:41.999Z</time></trkpt><trkpt lat="34.97124316787344" lon="9.230173741249697"><ele>410.0</ele><time>2026-04-08T14:02:42.999Z</time></trkpt><trkpt lat="34.971301681780275" lon="9.23022694740981"><ele>409.99999999999994</ele><time>2026-04-08T14:02:43.999Z</time></trkpt><trkpt lat="34.97137622881107" lon="9.230289002036974"><ele>410.0</ele><time>2026-04-08T14:02:44.999Z</time></trkpt><trkpt lat="34.97145704263193" lon="9.230355179204897"><ele>410.0</ele><time>2026-04-08T14:02:45.999Z</time></trkpt><trkpt lat="34.971549706479564" lon="9.23043197503056"><ele>410.0</ele><time>2026-04-08T14:02:46.999Z</time></trkpt><trkpt lat="34.97164714571412" lon="9.230518305447664"><ele>410.0</ele><time>2026-04-08T14:02:47.999Z</time></trkpt><trkpt lat="34.97174766027727" lon="9.230614390862131"><ele>410.0</ele><time>2026-04-08T14:02:48.999Z</time></trkpt><trkpt lat="34.97185270294112" lon="9.230711468501639"><ele>410.25</ele><time>2026-04-08T14:02:49.999Z</time></trkpt><trkpt lat="34.971960515281566" lon="9.230804182288374"><ele>410.5</ele><time>2026-04-08T14:02:50.999Z</time></trkpt><trkpt lat="34.972066679979605" lon="9.230896418370243"><ele>410.75</ele><time>2026-04-08T14:02:51.999Z</time></trkpt><trkpt lat="34.972171060617356" lon="9.230990958569393"><ele>411.0</ele><time>2026-04-08T14:02:52.999Z</time></trkpt><trkpt lat="34.972275659408865" lon="9.231084908191809"><ele>411.0</ele><time>2026-04-08T14:02:53.999Z</time></trkpt><trkpt lat="34.97238141707873" lon="9.231180780236045"><ele>411.0</ele><time>2026-04-08T14:02:54.999Z</time></trkpt><trkpt lat="34.97249230129402" lon="9.231277831079732"><ele>411.0</ele><time>2026-04-08T14:02:55.999Z</time></trkpt><trkpt lat="34.972606768061496" lon="9.231373639451142"><ele>411.0</ele><time>2026-04-08T14:02:56.999Z</time></trkpt><trkpt lat="34.97272172393137" lon="9.23147380413185"><ele>410.75</ele><time>2026-04-08T14:02:57.999Z</time></trkpt><trkpt lat="34.97283683103297" lon="9.23157801387474"><ele>410.5</ele><time>2026-04-08T14:02:58.999Z</time></trkpt><trkpt lat="34.97295046179313" lon="9.231678225238353"><ele>410.25</ele><time>2026-04-08T14:02:59.999Z</time></trkpt><trkpt lat="34.97305673095953" lon="9.23176784321084"><ele>410.0</ele><time>2026-04-08T14:03:00.999Z</time></trkpt><trkpt lat="34.973149351225075" lon="9.231850532677653"><ele>410.0</ele><time>2026-04-08T14:03:01.999Z</time></trkpt><trkpt lat="34.97323318809577" lon="9.231926350153536"><ele>410.0</ele><time>2026-04-08T14:03:02.999Z</time></trkpt><trkpt lat="34.9732989250823" lon="9.231986375322963"><ele>410.0</ele><time>2026-04-08T14:03:03.999Z</time></trkpt><trkpt lat="34.973395147203576" lon="9.232074255197364"><ele>410.0</ele><time>2026-04-08T14:03:05.999Z</time></trkpt><trkpt lat="34.97350019020027" lon="9.232162851746795"><ele>410.0</ele><time>2026-04-08T14:03:07.999Z</time></trkpt><trkpt lat="34.97356203359761" lon="9.232224422137232"><ele>410.2</ele><time>2026-04-08T14:03:08.999Z</time></trkpt><trkpt lat="34.973635466670444" lon="9.23229600909004"><ele>410.4</ele><time>2026-04-08T14:03:09.999Z</time></trkpt><trkpt lat="34.97372312308761" lon="9.232364918007537"><ele>410.6</ele><time>2026-04-08T14:03:10.999Z</time></trkpt><trkpt lat="34.9738130571932" lon="9.232444275574517"><ele>410.8</ele><time>2026-04-08T14:03:11.999Z</time></trkpt><trkpt lat="34.973907270370084" lon="9.232530880404049"><ele>411.0</ele><time>2026-04-08T14:03:12.999Z</time></trkpt><trkpt lat="34.974000534901656" lon="9.232618728049632"><ele>411.0</ele><time>2026-04-08T14:03:13.999Z</time></trkpt><trkpt lat="34.974099132646124" lon="9.23271037596041"><ele>411.0</ele><time>2026-04-08T14:03:14.999Z</time></trkpt><trkpt lat="34.97420455390673" lon="9.232805188218402"><ele>411.0</ele><time>2026-04-08T14:03:15.999Z</time></trkpt><trkpt lat="34.974312418395535" lon="9.232900225639154"><ele>411.0</ele><time>2026-04-08T14:03:16.999Z</time></trkpt><trkpt lat="34.97442496452225" lon="9.232998914283197"><ele>411.0</ele><time>2026-04-08T14:03:17.999Z</time></trkpt><trkpt lat="34.97452969018568" lon="9.233096662885085"><ele>411.0</ele><time>2026-04-08T14:03:18.999Z</time></trkpt><trkpt lat="34.97463403992472" lon="9.233189127392503"><ele>411.0</ele><time>2026-04-08T14:03:19.999Z</time></trkpt><trkpt lat="34.97473561120966" lon="9.233277972724956"><ele>411.0</ele><time>2026-04-08T14:03:20.999Z</time></trkpt><trkpt lat="34.97482825248196" lon="9.233360343058125"><ele>410.8</ele><time>2026-04-08T14:03:21.999Z</time></trkpt><trkpt lat="34.97491202626864" lon="9.233434316160842"><ele>410.6</ele><time>2026-04-08T14:03:22.999Z</time></trkpt><trkpt lat="34.97499132337457" lon="9.233503700748068"><ele>410.4</ele><time>2026-04-08T14:03:23.999Z</time></trkpt><trkpt lat="34.97505997756809" lon="9.233565087876222"><ele>410.2</ele><time>2026-04-08T14:03:24.999Z</time></trkpt><trkpt lat="34.97511451199581" lon="9.233615503870766"><ele>410.0</ele><time>2026-04-08T14:03:25.999Z</time></trkpt><trkpt lat="34.975228981789996" lon="9.233706445907757"><ele>410.0</ele><time>2026-04-08T14:03:27.999Z</time></trkpt><trkpt lat="34.975301935379484" lon="9.233768918508158"><ele>410.0</ele><time>2026-04-08T14:03:28.999Z</time></trkpt><trkpt lat="34.97537872913912" lon="9.233843883150525"><ele>410.0</ele><time>2026-04-08T14:03:29.999Z</time></trkpt><trkpt lat="34.97547312335208" lon="9.233933992969275"><ele>410.0</ele><time>2026-04-08T14:03:30.999Z</time></trkpt><trkpt lat="34.975599085900676" lon="9.234044871027113"><ele>410.0</ele><time>2026-04-08T14:03:31.999Z</time></trkpt><trkpt lat="34.97570779398177" lon="9.234135742704634"><ele>410.0</ele><time>2026-04-08T14:03:32.999Z</time></trkpt><trkpt lat="34.975796818024286" lon="9.234214989864178"><ele>410.0</ele><time>2026-04-08T14:03:33.999Z</time></trkpt><trkpt lat="34.97590323515154" lon="9.234315181214061"><ele>410.0</ele><time>2026-04-08T14:03:35Z</time></trkpt><trkpt lat="34.97602666137516" lon="9.234428703986588"><ele>410.0</ele><time>2026-04-08T14:03:36Z</time></trkpt><trkpt lat="34.97613809993069" lon="9.234528522705933"><ele>410.0</ele><time>2026-04-08T14:03:37Z</time></trkpt><trkpt lat="34.97624731214588" lon="9.234627991444928"><ele>410.0</ele><time>2026-04-08T14:03:38Z</time></trkpt><trkpt lat="34.97636370367258" lon="9.234730027439223"><ele>410.0</ele><time>2026-04-08T14:03:39Z</time></trkpt><trkpt lat="34.976483832154365" lon="9.234836911448076"><ele>410.0</ele><time>2026-04-08T14:03:40Z</time></trkpt><trkpt lat="34.97661059620517" lon="9.234948913926948"><ele>410.0</ele><time>2026-04-08T14:03:41Z</time></trkpt><trkpt lat="34.97674139878667" lon="9.235061411225285"><ele>410.0</ele><time>2026-04-08T14:03:42Z</time></trkpt><trkpt lat="34.97687704459747" lon="9.235180540605583"><ele>409.3333333333333</ele><time>2026-04-08T14:03:43Z</time></trkpt><trkpt lat="34.977024947746706" lon="9.235314101271141"><ele>408.66666666666663</ele><time>2026-04-08T14:03:44Z</time></trkpt><trkpt lat="34.977215742571865" lon="9.235483862340452"><ele>408.0</ele><time>2026-04-08T14:03:45Z</time></trkpt><trkpt lat="34.97743825010867" lon="9.235680477031917"><ele>409.5</ele><time>2026-04-08T14:03:46Z</time></trkpt><trkpt lat="34.977687180044065" lon="9.235901668278204"><ele>411.0</ele><time>2026-04-08T14:03:47Z</time></trkpt><trkpt lat="34.97791072133681" lon="9.236103558005121"><ele>411.0</ele><time>2026-04-08T14:03:48Z</time></trkpt><trkpt lat="34.97809915810607" lon="9.236275552787111"><ele>411.0</ele><time>2026-04-08T14:03:49Z</time></trkpt><trkpt lat="34.97827744239593" lon="9.23643799227313"><ele>410.66666666666663</ele><time>2026-04-08T14:03:50Z</time></trkpt><trkpt lat="34.978448126765606" lon="9.236589527268114"><ele>410.3333333333333</ele><time>2026-04-08T14:03:51Z</time></trkpt><trkpt lat="34.978615497177216" lon="9.236734705901211"><ele>410.0</ele><time>2026-04-08T14:03:52Z</time></trkpt><trkpt lat="34.978783946630834" lon="9.236883203768153"><ele>410.0</ele><time>2026-04-08T14:03:53Z</time></trkpt><trkpt lat="34.9789567446635" lon="9.237039764656142"><ele>410.0</ele><time>2026-04-08T14:03:54Z</time></trkpt><trkpt lat="34.97913176467544" lon="9.2371991909458"><ele>410.0</ele><time>2026-04-08T14:03:55Z</time></trkpt><trkpt lat="34.97931026317105" lon="9.237358758527039"><ele>410.0</ele><time>2026-04-08T14:03:56Z</time></trkpt><trkpt lat="34.97948819953453" lon="9.237515923691554"><ele>410.0</ele><time>2026-04-08T14:03:57Z</time></trkpt><trkpt lat="34.979666622206196" lon="9.237668892805683"><ele>410.0</ele><time>2026-04-08T14:03:58Z</time></trkpt><trkpt lat="34.979851984076184" lon="9.237822282547118"><ele>410.0</ele><time>2026-04-08T14:03:59Z</time></trkpt><trkpt lat="34.98002709762998" lon="9.237981778000883"><ele>410.0</ele><time>2026-04-08T14:04:00Z</time></trkpt><trkpt lat="34.9802073725415" lon="9.23814620329146"><ele>410.0</ele><time>2026-04-08T14:04:01Z</time></trkpt><trkpt lat="34.98039625251609" lon="9.238306715144443"><ele>410.0</ele><time>2026-04-08T14:04:02Z</time></trkpt><trkpt lat="34.98058053190286" lon="9.238480713603748"><ele>410.0</ele><time>2026-04-08T14:04:03Z</time></trkpt><trkpt lat="34.98077550541077" lon="9.238651415421185"><ele>409.5</ele><time>2026-04-08T14:04:04Z</time></trkpt><trkpt lat="34.98096889732375" lon="9.238827513695005"><ele>409.0</ele><time>2026-04-08T14:04:05Z</time></trkpt><trkpt lat="34.98116265532703" lon="9.238998616776554"><ele>408.5</ele><time>2026-04-08T14:04:06Z</time></trkpt><trkpt lat="34.98135892134554" lon="9.239167667735734"><ele>408.0</ele><time>2026-04-08T14:04:07Z</time></trkpt><trkpt lat="34.98155438356085" lon="9.239342514204004"><ele>408.0</ele><time>2026-04-08T14:04:08Z</time></trkpt><trkpt lat="34.98174986967147" lon="9.239519610080132"><ele>408.0</ele><time>2026-04-08T14:04:09Z</time></trkpt><trkpt lat="34.98194512336487" lon="9.239693841777866"><ele>408.5</ele><time>2026-04-08T14:04:10Z</time></trkpt><trkpt lat="34.982134086984324" lon="9.239861923366572"><ele>409.0</ele><time>2026-04-08T14:04:11Z</time></trkpt><trkpt lat="34.982325245477845" lon="9.240032017733249"><ele>408.5</ele><time>2026-04-08T14:04:12Z</time></trkpt><trkpt lat="34.9825230566598" lon="9.240205701722362"><ele>408.0</ele><time>2026-04-08T14:04:13Z</time></trkpt><trkpt lat="34.982725350540065" lon="9.240383373465981"><ele>408.0</ele><time>2026-04-08T14:04:14Z</time></trkpt><trkpt lat="34.982927994002964" lon="9.240560880537954"><ele>408.0</ele><time>2026-04-08T14:04:15Z</time></trkpt><trkpt lat="34.9831285701935" lon="9.240734628646374"><ele>407.5</ele><time>2026-04-08T14:04:16Z</time></trkpt><trkpt lat="34.983329464753005" lon="9.240911548618646"><ele>407.0</ele><time>2026-04-08T14:04:17Z</time></trkpt><trkpt lat="34.98354922567548" lon="9.24110399122863"><ele>407.0</ele><time>2026-04-08T14:04:18Z</time></trkpt><trkpt lat="34.983792664605865" lon="9.241318397565248"><ele>407.0</ele><time>2026-04-08T14:04:19Z</time></trkpt><trkpt lat="34.98404547327022" lon="9.241538329642983"><ele>407.5</ele><time>2026-04-08T14:04:20Z</time></trkpt><trkpt lat="34.98429467893024" lon="9.24176104032991"><ele>408.0</ele><time>2026-04-08T14:04:21Z</time></trkpt><trkpt lat="34.98454205666964" lon="9.241981609508198"><ele>408.0</ele><time>2026-04-08T14:04:22Z</time></trkpt><trkpt lat="34.98477897195111" lon="9.242194512597168"><ele>408.0</ele><time>2026-04-08T14:04:23Z</time></trkpt><trkpt lat="34.98500257680045" lon="9.242394712161715"><ele>407.0</ele><time>2026-04-08T14:04:24Z</time></trkpt><trkpt lat="34.98521679802389" lon="9.242586399541187"><ele>406.0</ele><time>2026-04-08T14:04:25Z</time></trkpt><trkpt lat="34.985430864464604" lon="9.242775520022535"><ele>406.0</ele><time>2026-04-08T14:04:26Z</time></trkpt><trkpt lat="34.98564309420498" lon="9.242960092502932"><ele>406.0</ele><time>2026-04-08T14:04:27Z</time></trkpt><trkpt lat="34.98585817321534" lon="9.243148709932434"><ele>407.5</ele><time>2026-04-08T14:04:28Z</time></trkpt><trkpt lat="34.98608160458826" lon="9.243347611411055"><ele>409.0</ele><time>2026-04-08T14:04:29Z</time></trkpt><trkpt lat="34.986316421249946" lon="9.243557231425259"><ele>409.0</ele><time>2026-04-08T14:04:30Z</time></trkpt><trkpt lat="34.986571012063436" lon="9.243777855087364"><ele>409.0</ele><time>2026-04-08T14:04:31Z</time></trkpt><trkpt lat="34.98684867784568" lon="9.244020406911025"><ele>408.5</ele><time>2026-04-08T14:04:32Z</time></trkpt><trkpt lat="34.98714011112818" lon="9.244285147009803"><ele>408.0</ele><time>2026-04-08T14:04:33Z</time></trkpt><trkpt lat="34.98743213370982" lon="9.244555999996212"><ele>408.5</ele><time>2026-04-08T14:04:34Z</time></trkpt><trkpt lat="34.98770415238923" lon="9.244801911162607"><ele>409.0</ele><time>2026-04-08T14:04:35Z</time></trkpt><trkpt lat="34.9879595379376" lon="9.245028511228227"><ele>409.0</ele><time>2026-04-08T14:04:36Z</time></trkpt><trkpt lat="34.98820793512213" lon="9.245248338280556"><ele>409.0</ele><time>2026-04-08T14:04:37Z</time></trkpt><trkpt lat="34.98846074928074" lon="9.245472841299986"><ele>408.5</ele><time>2026-04-08T14:04:38Z</time></trkpt><trkpt lat="34.98870367655016" lon="9.245687573801932"><ele>408.0</ele><time>2026-04-08T14:04:39Z</time></trkpt><trkpt lat="34.98893309021048" lon="9.24589533479659"><ele>408.0</ele><time>2026-04-08T14:04:40Z</time></trkpt><trkpt lat="34.98915618974877" lon="9.246105045215696"><ele>408.0</ele><time>2026-04-08T14:04:41Z</time></trkpt><trkpt lat="34.989372888962095" lon="9.246302707078197"><ele>408.5</ele><time>2026-04-08T14:04:42Z</time></trkpt><trkpt lat="34.98957089661826" lon="9.24647980568052"><ele>409.0</ele><time>2026-04-08T14:04:43Z</time></trkpt><trkpt lat="34.98974778940271" lon="9.24663867419976"><ele>409.0</ele><time>2026-04-08T14:04:44Z</time></trkpt><trkpt lat="34.989895631634646" lon="9.246772427342167"><ele>409.0</ele><time>2026-04-08T14:04:45Z</time></trkpt><trkpt lat="34.99001863351812" lon="9.246885942655778"><ele>409.0</ele><time>2026-04-08T14:04:46Z</time></trkpt><trkpt lat="34.99012918739449" lon="9.246984265378352"><ele>409.0</ele><time>2026-04-08T14:04:47Z</time></trkpt><trkpt lat="34.99023792004239" lon="9.24707228623356"><ele>409.0</ele><time>2026-04-08T14:04:48Z</time></trkpt><trkpt lat="34.990338222180426" lon="9.247161946501274"><ele>409.0</ele><time>2026-04-08T14:04:49Z</time></trkpt><trkpt lat="34.99042919223488" lon="9.247242238044553"><ele>409.0</ele><time>2026-04-08T14:04:50Z</time></trkpt><trkpt lat="34.990504735574994" lon="9.247310207738876"><ele>409.0</ele><time>2026-04-08T14:04:51Z</time></trkpt><trkpt lat="34.990561105625574" lon="9.247362456164389"><ele>409.0</ele><time>2026-04-08T14:04:52Z</time></trkpt><trkpt lat="34.9906734393606" lon="9.247448283924395"><ele>409.0</ele><time>2026-04-08T14:04:54Z</time></trkpt><trkpt lat="34.99076836497844" lon="9.247539141697363"><ele>409.0</ele><time>2026-04-08T14:04:55Z</time></trkpt><trkpt lat="34.9908405283915" lon="9.247607699768633"><ele>409.0</ele><time>2026-04-08T14:04:56Z</time></trkpt><trkpt lat="34.99090665405557" lon="9.247669177470174"><ele>409.0</ele><time>2026-04-08T14:04:57Z</time></trkpt><trkpt lat="34.99098917386765" lon="9.247741089983284"><ele>409.0</ele><time>2026-04-08T14:04:58Z</time></trkpt><trkpt lat="34.991087096737694" lon="9.247827289276987"><ele>409.0</ele><time>2026-04-08T14:04:59Z</time></trkpt><trkpt lat="34.99119829767875" lon="9.247926213641968"><ele>409.0</ele><time>2026-04-08T14:05:00Z</time></trkpt><trkpt lat="34.991312939983324" lon="9.24802934960163"><ele>408.75</ele><time>2026-04-08T14:05:01Z</time></trkpt><trkpt lat="34.99142623132106" lon="9.24813153012085"><ele>408.5</ele><time>2026-04-08T14:05:02Z</time></trkpt><trkpt lat="34.991536609629485" lon="9.248229688798503"><ele>408.25</ele><time>2026-04-08T14:05:03Z</time></trkpt><trkpt lat="34.99163136218025" lon="9.248310213048311"><ele>408.0</ele><time>2026-04-08T14:05:04Z</time></trkpt><trkpt lat="34.99171515708963" lon="9.248380472818113"><ele>407.59999999999997</ele><time>2026-04-08T14:05:05Z</time></trkpt><trkpt lat="34.99177232927813" lon="9.248432472790869"><ele>407.2</ele><time>2026-04-08T14:05:06Z</time></trkpt><trkpt lat="34.991885027889495" lon="9.248537377080517"><ele>406.8</ele><time>2026-04-08T14:05:08Z</time></trkpt><trkpt lat="34.99197124436306" lon="9.248619444735388"><ele>406.4</ele><time>2026-04-08T14:05:09Z</time></trkpt><trkpt lat="34.99202593408737" lon="9.248668483550006"><ele>406.0</ele><time>2026-04-08T14:05:10Z</time></trkpt><trkpt lat="34.99208669499587" lon="9.248720479573278"><ele>406.0</ele><time>2026-04-08T14:05:11Z</time></trkpt><trkpt lat="34.99216256702426" lon="9.248782661186814"><ele>406.0</ele><time>2026-04-08T14:05:12Z</time></trkpt><trkpt lat="34.992260303975364" lon="9.24886833611001"><ele>406.0</ele><time>2026-04-08T14:05:13Z</time></trkpt><trkpt lat="34.99236758456664" lon="9.248968388840934"><ele>406.0</ele><time>2026-04-08T14:05:14Z</time></trkpt><trkpt lat="34.99248096520817" lon="9.249074144548274"><ele>406.0</ele><time>2026-04-08T14:05:15Z</time></trkpt><trkpt lat="34.992598269733655" lon="9.249177656569616"><ele>406.0</ele><time>2026-04-08T14:05:16Z</time></trkpt><trkpt lat="34.99271677534738" lon="9.249281269435299"><ele>406.0</ele><time>2026-04-08T14:05:17Z</time></trkpt><trkpt lat="34.99284020019344" lon="9.249391228824194"><ele>406.0</ele><time>2026-04-08T14:05:18Z</time></trkpt><trkpt lat="34.992970085983735" lon="9.24950890508281"><ele>406.0</ele><time>2026-04-08T14:05:19Z</time></trkpt><trkpt lat="34.993109425786066" lon="9.249631421766008"><ele>406.0</ele><time>2026-04-08T14:05:20Z</time></trkpt><trkpt lat="34.99326007703639" lon="9.249760966154254"><ele>406.0</ele><time>2026-04-08T14:05:21Z</time></trkpt><trkpt lat="34.9934160527736" lon="9.249897407579128"><ele>406.5</ele><time>2026-04-08T14:05:22Z</time></trkpt><trkpt lat="34.99358630824687" lon="9.25004239972411"><ele>407.0</ele><time>2026-04-08T14:05:23Z</time></trkpt><trkpt lat="34.99378868224638" lon="9.250212302689148"><ele>407.0</ele><time>2026-04-08T14:05:24Z</time></trkpt><trkpt lat="34.99402348623961" lon="9.250426645767885"><ele>407.0</ele><time>2026-04-08T14:05:25Z</time></trkpt><trkpt lat="34.99424089597377" lon="9.250632918039381"><ele>407.0</ele><time>2026-04-08T14:05:26Z</time></trkpt><trkpt lat="34.99442145665104" lon="9.250801009746937"><ele>407.0</ele><time>2026-04-08T14:05:27Z</time></trkpt><trkpt lat="34.99460422273648" lon="9.250959163256088"><ele>407.0</ele><time>2026-04-08T14:05:28Z</time></trkpt><trkpt lat="34.99479358010866" lon="9.251123932923106"><ele>407.0</ele><time>2026-04-08T14:05:29Z</time></trkpt><trkpt lat="34.99498186722668" lon="9.251294625570821"><ele>406.5</ele><time>2026-04-08T14:05:30Z</time></trkpt><trkpt lat="34.995170419763554" lon="9.251463294772856"><ele>406.0</ele><time>2026-04-08T14:05:31Z</time></trkpt><trkpt lat="34.99535866633303" lon="9.251631749066524"><ele>406.0</ele><time>2026-04-08T14:05:32Z</time></trkpt><trkpt lat="34.995554926812844" lon="9.251807107030022"><ele>406.0</ele><time>2026-04-08T14:05:33Z</time></trkpt><trkpt lat="34.99575411746531" lon="9.251982715731138"><ele>405.5</ele><time>2026-04-08T14:05:34Z</time></trkpt><trkpt lat="34.99595641715047" lon="9.252159676948477"><ele>405.0</ele><time>2026-04-08T14:05:35Z</time></trkpt><trkpt lat="34.99615645821649" lon="9.252337799648668"><ele>405.0</ele><time>2026-04-08T14:05:36Z</time></trkpt><trkpt lat="34.99635566015796" lon="9.2525144006953"><ele>405.0</ele><time>2026-04-08T14:05:37Z</time></trkpt><trkpt lat="34.99656529544542" lon="9.252693542252526"><ele>405.0</ele><time>2026-04-08T14:05:38Z</time></trkpt><trkpt lat="34.99677115916071" lon="9.252881197134965"><ele>405.0</ele><time>2026-04-08T14:05:39Z</time></trkpt><trkpt lat="34.99698211788046" lon="9.253069436065646"><ele>405.5</ele><time>2026-04-08T14:05:40Z</time></trkpt><trkpt lat="34.99719419663596" lon="9.253252967087343"><ele>406.0</ele><time>2026-04-08T14:05:41Z</time></trkpt><trkpt lat="34.99740033539678" lon="9.25343995708536"><ele>406.5</ele><time>2026-04-08T14:05:42Z</time></trkpt><trkpt lat="34.99760472839642" lon="9.25362412989768"><ele>407.0</ele><time>2026-04-08T14:05:43Z</time></trkpt><trkpt lat="34.99780873565423" lon="9.253802337749022"><ele>406.5</ele><time>2026-04-08T14:05:44Z</time></trkpt><trkpt lat="34.99800528560834" lon="9.253980517556437"><ele>406.0</ele><time>2026-04-08T14:05:45Z</time></trkpt><trkpt lat="34.99820597708581" lon="9.25416195172718"><ele>406.0</ele><time>2026-04-08T14:05:46Z</time></trkpt><trkpt lat="34.998406569115076" lon="9.25434054540698"><ele>406.0</ele><time>2026-04-08T14:05:47Z</time></trkpt><trkpt lat="34.99860960608827" lon="9.254519404304377"><ele>406.0</ele><time>2026-04-08T14:05:48Z</time></trkpt><trkpt lat="34.998809018213414" lon="9.254698787740951"><ele>406.0</ele><time>2026-04-08T14:05:49Z</time></trkpt><trkpt lat="34.999004533218034" lon="9.254877483397703"><ele>406.0</ele><time>2026-04-08T14:05:50Z</time></trkpt><trkpt lat="34.999197843458134" lon="9.255050381253755"><ele>406.0</ele><time>2026-04-08T14:05:51Z</time></trkpt><trkpt lat="34.9993885479858" lon="9.255222026473975"><ele>406.0</ele><time>2026-04-08T14:05:52Z</time></trkpt><trkpt lat="34.999574766009275" lon="9.255384085359443"><ele>406.0</ele><time>2026-04-08T14:05:53Z</time></trkpt><trkpt lat="34.9997557942804" lon="9.255542582799107"><ele>406.0</ele><time>2026-04-08T14:05:54Z</time></trkpt><trkpt lat="34.99993989566476" lon="9.255707650891246"><ele>406.0</ele><time>2026-04-08T14:05:55Z</time></trkpt><trkpt lat="35.000130909914624" lon="9.255877643356216"><ele>406.0</ele><time>2026-04-08T14:05:56Z</time></trkpt><trkpt lat="35.00031933357944" lon="9.256048107465604"><ele>406.0</ele><time>2026-04-08T14:05:57Z</time></trkpt><trkpt lat="35.00050701454313" lon="9.25621738779247"><ele>406.0</ele><time>2026-04-08T14:05:58Z</time></trkpt><trkpt lat="35.00069759607469" lon="9.256388502370996"><ele>406.0</ele><time>2026-04-08T14:05:59Z</time></trkpt><trkpt lat="35.00089373049529" lon="9.2565604558034"><ele>406.0</ele><time>2026-04-08T14:06:00Z</time></trkpt><trkpt lat="35.00109475202057" lon="9.25673581846464"><ele>406.0</ele><time>2026-04-08T14:06:01Z</time></trkpt><trkpt lat="35.00129959505664" lon="9.2569133682481"><ele>406.0</ele><time>2026-04-08T14:06:02Z</time></trkpt><trkpt lat="35.00149980683852" lon="9.257091020308348"><ele>406.0</ele><time>2026-04-08T14:06:03Z</time></trkpt><trkpt lat="35.00169723069716" lon="9.257267800110013"><ele>406.0</ele><time>2026-04-08T14:06:04Z</time></trkpt><trkpt lat="35.001896443935905" lon="9.257446391901205"><ele>406.0</ele><time>2026-04-08T14:06:05Z</time></trkpt><trkpt lat="35.00209459941366" lon="9.25762475325374"><ele>406.0</ele><time>2026-04-08T14:06:06Z</time></trkpt><trkpt lat="35.002292310542444" lon="9.257801364949719"><ele>406.0</ele><time>2026-04-08T14:06:07Z</time></trkpt><trkpt lat="35.002485824581704" lon="9.25797422000743"><ele>405.0</ele><time>2026-04-08T14:06:08Z</time></trkpt><trkpt lat="35.0026692192204" lon="9.258134171213921"><ele>404.0</ele><time>2026-04-08T14:06:09Z</time></trkpt><trkpt lat="35.00285206026286" lon="9.258295767832816"><ele>404.0</ele><time>2026-04-08T14:06:10Z</time></trkpt><trkpt lat="35.003034697968026" lon="9.258460807275947"><ele>404.0</ele><time>2026-04-08T14:06:11Z</time></trkpt><trkpt lat="35.003218775538166" lon="9.25862510820323"><ele>403.66666666666663</ele><time>2026-04-08T14:06:12Z</time></trkpt><trkpt lat="35.003402761891245" lon="9.258783581872361"><ele>403.33333333333337</ele><time>2026-04-08T14:06:13Z</time></trkpt><trkpt lat="35.00357367097432" lon="9.25893330725571"><ele>403.0</ele><time>2026-04-08T14:06:14Z</time></trkpt><trkpt lat="35.00373201143412" lon="9.259075253037123"><ele>403.0</ele><time>2026-04-08T14:06:15Z</time></trkpt><trkpt lat="35.00388476757803" lon="9.259212067155815"><ele>403.0</ele><time>2026-04-08T14:06:16Z</time></trkpt><trkpt lat="35.004029549877764" lon="9.25934106825375"><ele>403.0</ele><time>2026-04-08T14:06:17Z</time></trkpt><trkpt lat="35.004170918620474" lon="9.259464202021658"><ele>403.33333333333337</ele><time>2026-04-08T14:06:18Z</time></trkpt><trkpt lat="35.004311448898186" lon="9.259589171930134"><ele>403.66666666666663</ele><time>2026-04-08T14:06:19Z</time></trkpt><trkpt lat="35.00445090202131" lon="9.259715042239197"><ele>404.0</ele><time>2026-04-08T14:06:20Z</time></trkpt><trkpt lat="35.00458454893824" lon="9.259835184578764"><ele>404.25</ele><time>2026-04-08T14:06:21Z</time></trkpt><trkpt lat="35.0047152448223" lon="9.25994734349798"><ele>404.5</ele><time>2026-04-08T14:06:22Z</time></trkpt><trkpt lat="35.004838055585864" lon="9.26005380239909"><ele>404.75</ele><time>2026-04-08T14:06:23Z</time></trkpt><trkpt lat="35.00494074388843" lon="9.260143819144217"><ele>405.0</ele><time>2026-04-08T14:06:24Z</time></trkpt><trkpt lat="35.00502587613274" lon="9.260220738256534"><ele>405.0</ele><time>2026-04-08T14:06:25Z</time></trkpt><trkpt lat="35.00510164075975" lon="9.260289997533345"><ele>405.0</ele><time>2026-04-08T14:06:26Z</time></trkpt><trkpt lat="35.0051651962813" lon="9.26034578212137"><ele>405.0</ele><time>2026-04-08T14:06:27Z</time></trkpt><trkpt lat="35.00525831052352" lon="9.260427018854354"><ele>405.0</ele><time>2026-04-08T14:06:29Z</time></trkpt><trkpt lat="35.00530890344279" lon="9.260475901727984"><ele>405.0</ele><time>2026-04-08T14:06:30Z</time></trkpt><trkpt lat="35.00539912165148" lon="9.260568368843668"><ele>404.75</ele><time>2026-04-08T14:06:31Z</time></trkpt><trkpt lat="35.005517258344405" lon="9.260683014188709"><ele>404.5</ele><time>2026-04-08T14:06:32Z</time></trkpt><trkpt lat="35.005618967000146" lon="9.26077002370389"><ele>404.25</ele><time>2026-04-08T14:06:33Z</time></trkpt><trkpt lat="35.00570227718408" lon="9.260836459784995"><ele>404.0</ele><time>2026-04-08T14:06:34Z</time></trkpt><trkpt lat="35.00577865118405" lon="9.260898816370627"><ele>403.75</ele><time>2026-04-08T14:06:35Z</time></trkpt><trkpt lat="35.00586896103084" lon="9.260977564411116"><ele>403.5</ele><time>2026-04-08T14:06:36Z</time></trkpt><trkpt lat="35.005971277472945" lon="9.261068487789924"><ele>403.25</ele><time>2026-04-08T14:06:37Z</time></trkpt><trkpt lat="35.00608077515535" lon="9.261168657302955"><ele>403.0</ele><time>2026-04-08T14:06:38Z</time></trkpt><trkpt lat="35.006184946222255" lon="9.26126318009393"><ele>403.0</ele><time>2026-04-08T14:06:39Z</time></trkpt><trkpt lat="35.0062712828354" lon="9.261340125479059"><ele>403.0</ele><time>2026-04-08T14:06:40Z</time></trkpt><trkpt lat="35.006349776030305" lon="9.261407026567733"><ele>403.0</ele><time>2026-04-08T14:06:41Z</time></trkpt><trkpt lat="35.00641327252939" lon="9.261462765911748"><ele>403.0</ele><time>2026-04-08T14:06:42Z</time></trkpt><trkpt lat="35.00646541524545" lon="9.261509357690366"><ele>403.0</ele><time>2026-04-08T14:06:43Z</time></trkpt><trkpt lat="35.00655849559605" lon="9.261593384332848"><ele>403.00000000000006</ele><time>2026-04-08T14:06:45Z</time></trkpt><trkpt lat="35.00661135730581" lon="9.261639672542683"><ele>403.0</ele><time>2026-04-08T14:06:46Z</time></trkpt><trkpt lat="35.00666259165849" lon="9.261686454966938"><ele>403.0</ele><time>2026-04-08T14:06:47Z</time></trkpt><trkpt lat="35.00671905738643" lon="9.26173974344963"><ele>403.0</ele><time>2026-04-08T14:06:48Z</time></trkpt><trkpt lat="35.006785897773526" lon="9.261800519022179"><ele>403.00000000000006</ele><time>2026-04-08T14:06:49Z</time></trkpt><trkpt lat="35.00686277188089" lon="9.261866287730454"><ele>403.0</ele><time>2026-04-08T14:06:50Z</time></trkpt><trkpt lat="35.0069374865995" lon="9.261933988889336"><ele>403.1666666666667</ele><time>2026-04-08T14:06:51Z</time></trkpt><trkpt lat="35.00699699218198" lon="9.261989109566143"><ele>403.33333333333337</ele><time>2026-04-08T14:06:52Z</time></trkpt><trkpt lat="35.00704955402359" lon="9.262037340106133"><ele>403.5</ele><time>2026-04-08T14:06:53Z</time></trkpt><trkpt lat="35.00710148221143" lon="9.262082174718367"><ele>403.66666666666663</ele><time>2026-04-08T14:06:54Z</time></trkpt><trkpt lat="35.00720389207377" lon="9.262172778472117"><ele>403.8333333333333</ele><time>2026-04-08T14:06:56Z</time></trkpt><trkpt lat="35.00725749628712" lon="9.262220321401442"><ele>404.0</ele><time>2026-04-08T14:06:57Z</time></trkpt><trkpt lat="35.00734955686668" lon="9.26230130150095"><ele>404.0</ele><time>2026-04-08T14:06:59Z</time></trkpt><trkpt lat="35.00742829045667" lon="9.262372028471589"><ele>404.0</ele><time>2026-04-08T14:07:01Z</time></trkpt><trkpt lat="35.007498685825404" lon="9.262431241682151"><ele>404.0</ele><time>2026-04-08T14:07:03Z</time></trkpt><trkpt lat="35.00756540740942" lon="9.262487960020366"><ele>404.0</ele><time>2026-04-08T14:07:05Z</time></trkpt><trkpt lat="35.00764614323264" lon="9.26255866016894"><ele>404.0</ele><time>2026-04-08T14:07:07Z</time></trkpt><trkpt lat="35.00773926446471" lon="9.262643180077779"><ele>403.79999999999995</ele><time>2026-04-08T14:07:09Z</time></trkpt><trkpt lat="35.0078423357873" lon="9.262737153294726"><ele>403.59999999999997</ele><time>2026-04-08T14:07:11Z</time></trkpt><trkpt lat="35.00790024549362" lon="9.262790507438773"><ele>403.4</ele><time>2026-04-08T14:07:12Z</time></trkpt><trkpt lat="35.00797492028322" lon="9.262855484231594"><ele>403.2</ele><time>2026-04-08T14:07:13Z</time></trkpt><trkpt lat="35.00806219336696" lon="9.262929758907324"><ele>403.0</ele><time>2026-04-08T14:07:14Z</time></trkpt><trkpt lat="35.00815574148258" lon="9.263014598568274"><ele>403.0</ele><time>2026-04-08T14:07:15Z</time></trkpt><trkpt lat="35.00825749135063" lon="9.263104245935734"><ele>403.0</ele><time>2026-04-08T14:07:16Z</time></trkpt><trkpt lat="35.00835836859212" lon="9.263193676942903"><ele>403.0</ele><time>2026-04-08T14:07:17Z</time></trkpt><trkpt lat="35.00846046490013" lon="9.26328722831041"><ele>403.0</ele><time>2026-04-08T14:07:18Z</time></trkpt><trkpt lat="35.008570853685725" lon="9.263388515461697"><ele>402.33333333333337</ele><time>2026-04-08T14:07:19Z</time></trkpt><trkpt lat="35.00869190689483" lon="9.263497554929325"><ele>401.66666666666663</ele><time>2026-04-08T14:07:20Z</time></trkpt><trkpt lat="35.008817970938544" lon="9.263611269435629"><ele>401.0</ele><time>2026-04-08T14:07:21Z</time></trkpt><trkpt lat="35.00894839489668" lon="9.263727878464309"><ele>401.0</ele><time>2026-04-08T14:07:22Z</time></trkpt><trkpt lat="35.00909238639954" lon="9.263855093872268"><ele>401.0</ele><time>2026-04-08T14:07:23Z</time></trkpt><trkpt lat="35.009266392415405" lon="9.264003704528605"><ele>401.0</ele><time>2026-04-08T14:07:24Z</time></trkpt><trkpt lat="35.00945057969432" lon="9.264158250645684"><ele>401.0</ele><time>2026-04-08T14:07:25Z</time></trkpt><trkpt lat="35.009637910129804" lon="9.264306867462418"><ele>401.0</ele><time>2026-04-08T14:07:26Z</time></trkpt><trkpt lat="35.00983002345938" lon="9.264450819924754"><ele>401.0</ele><time>2026-04-08T14:07:27Z</time></trkpt><trkpt lat="35.0100284243786" lon="9.264586278640111"><ele>401.0</ele><time>2026-04-08T14:07:28Z</time></trkpt><trkpt lat="35.01023518528924" lon="9.264722371483913"><ele>401.0</ele><time>2026-04-08T14:07:29Z</time></trkpt><trkpt lat="35.010436893554484" lon="9.264856513663652"><ele>401.0</ele><time>2026-04-08T14:07:30Z</time></trkpt><trkpt lat="35.01064264267774" lon="9.264978621984566"><ele>401.0</ele><time>2026-04-08T14:07:31Z</time></trkpt><trkpt lat="35.01084371089553" lon="9.265100484008329"><ele>401.0</ele><time>2026-04-08T14:07:32Z</time></trkpt><trkpt lat="35.0110361127499" lon="9.265235807417492"><ele>401.0</ele><time>2026-04-08T14:07:33Z</time></trkpt><trkpt lat="35.01123342605005" lon="9.265349094471384"><ele>401.0</ele><time>2026-04-08T14:07:34Z</time></trkpt><trkpt lat="35.01142911061269" lon="9.265473740109943"><ele>401.0</ele><time>2026-04-08T14:07:35Z</time></trkpt><trkpt lat="35.01161858312038" lon="9.265600995721885"><ele>401.0</ele><time>2026-04-08T14:07:36Z</time></trkpt><trkpt lat="35.01181790517962" lon="9.265712743184903"><ele>401.0</ele><time>2026-04-08T14:07:37Z</time></trkpt><trkpt lat="35.01201568595319" lon="9.265846060891965"><ele>400.0</ele><time>2026-04-08T14:07:38Z</time></trkpt><trkpt lat="35.01222179792054" lon="9.26598186283699"><ele>399.0</ele><time>2026-04-08T14:07:39Z</time></trkpt><trkpt lat="35.01243898199123" lon="9.266114758779088"><ele>399.5</ele><time>2026-04-08T14:07:40Z</time></trkpt><trkpt lat="35.01265588214052" lon="9.26625005805333"><ele>400.0</ele><time>2026-04-08T14:07:41Z</time></trkpt><trkpt lat="35.01287297247132" lon="9.266385269186113"><ele>400.5</ele><time>2026-04-08T14:07:42Z</time></trkpt><trkpt lat="35.01308928913697" lon="9.26652306275599"><ele>401.0</ele><time>2026-04-08T14:07:43Z</time></trkpt><trkpt lat="35.013301898614756" lon="9.266655417512283"><ele>400.5</ele><time>2026-04-08T14:07:44Z</time></trkpt><trkpt lat="35.013518933285425" lon="9.266787789916577"><ele>400.0</ele><time>2026-04-08T14:07:45Z</time></trkpt><trkpt lat="35.013730319133884" lon="9.266923020600895"><ele>400.0</ele><time>2026-04-08T14:07:46Z</time></trkpt><trkpt lat="35.013938757310044" lon="9.267055311102704"><ele>400.0</ele><time>2026-04-08T14:07:47Z</time></trkpt><trkpt lat="35.014143756070915" lon="9.267181366703069"><ele>400.5</ele><time>2026-04-08T14:07:48Z</time></trkpt><trkpt lat="35.014350615103154" lon="9.267312614958522"><ele>401.0</ele><time>2026-04-08T14:07:49Z</time></trkpt><trkpt lat="35.014558296848854" lon="9.267444703514649"><ele>401.0</ele><time>2026-04-08T14:07:50Z</time></trkpt><trkpt lat="35.0147622877031" lon="9.267573758554077"><ele>401.0</ele><time>2026-04-08T14:07:51Z</time></trkpt><trkpt lat="35.014971030808844" lon="9.267705337083274"><ele>400.5</ele><time>2026-04-08T14:07:52Z</time></trkpt><trkpt lat="35.01518280427752" lon="9.267835355082658"><ele>400.0</ele><time>2026-04-08T14:07:53Z</time></trkpt><trkpt lat="35.01540091697958" lon="9.267957460338208"><ele>400.0</ele><time>2026-04-08T14:07:54Z</time></trkpt><trkpt lat="35.01562364966516" lon="9.268066354364827"><ele>400.0</ele><time>2026-04-08T14:07:55Z</time></trkpt><trkpt lat="35.01586058709101" lon="9.268164835596213"><ele>400.0</ele><time>2026-04-08T14:07:56Z</time></trkpt><trkpt lat="35.01611841842286" lon="9.268259727840068"><ele>400.0</ele><time>2026-04-08T14:07:57Z</time></trkpt><trkpt lat="35.01640909331724" lon="9.268352880656208"><ele>400.5</ele><time>2026-04-08T14:07:58Z</time></trkpt><trkpt lat="35.016714085802505" lon="9.268442291672246"><ele>401.0</ele><time>2026-04-08T14:07:59Z</time></trkpt><trkpt lat="35.01699414146617" lon="9.268519549824896"><ele>401.0</ele><time>2026-04-08T14:08:00Z</time></trkpt><trkpt lat="35.01724884327559" lon="9.268595184582338"><ele>401.0</ele><time>2026-04-08T14:08:01Z</time></trkpt><trkpt lat="35.017484185445376" lon="9.268670502808531"><ele>401.0</ele><time>2026-04-08T14:08:02Z</time></trkpt><trkpt lat="35.01770799045013" lon="9.268747894297885"><ele>401.0</ele><time>2026-04-08T14:08:03Z</time></trkpt><trkpt lat="35.01793052436467" lon="9.268823271104978"><ele>401.0</ele><time>2026-04-08T14:08:04Z</time></trkpt><trkpt lat="35.01815656467403" lon="9.268894859110283"><ele>401.0</ele><time>2026-04-08T14:08:05Z</time></trkpt><trkpt lat="35.018391653169544" lon="9.268964381120805"><ele>401.0</ele><time>2026-04-08T14:08:06Z</time></trkpt><trkpt lat="35.01862141394484" lon="9.269031549637058"><ele>401.0</ele><time>2026-04-08T14:08:07Z</time></trkpt><trkpt lat="35.01884858299092" lon="9.269098364513994"><ele>401.0</ele><time>2026-04-08T14:08:08Z</time></trkpt><trkpt lat="35.019083997173496" lon="9.269166637217285"><ele>401.0</ele><time>2026-04-08T14:08:09Z</time></trkpt><trkpt lat="35.01931657708973" lon="9.269237783747599"><ele>401.0</ele><time>2026-04-08T14:08:10Z</time></trkpt><trkpt lat="35.019550479274" lon="9.269309723449648"><ele>401.0</ele><time>2026-04-08T14:08:11Z</time></trkpt><trkpt lat="35.01978231834748" lon="9.269383143651245"><ele>400.0</ele><time>2026-04-08T14:08:12Z</time></trkpt><trkpt lat="35.02001204329659" lon="9.269452120165422"><ele>399.0</ele><time>2026-04-08T14:08:13Z</time></trkpt><trkpt lat="35.02024751982012" lon="9.269524640399903"><ele>399.0</ele><time>2026-04-08T14:08:14Z</time></trkpt><trkpt lat="35.020479388120755" lon="9.269595129099896"><ele>399.0</ele><time>2026-04-08T14:08:15Z</time></trkpt><trkpt lat="35.020710652296835" lon="9.269666219920996"><ele>399.5</ele><time>2026-04-08T14:08:16Z</time></trkpt><trkpt lat="35.02094072025905" lon="9.269739935015725"><ele>400.0</ele><time>2026-04-08T14:08:17Z</time></trkpt><trkpt lat="35.02117199543665" lon="9.269816023478981"><ele>400.0</ele><time>2026-04-08T14:08:18Z</time></trkpt><trkpt lat="35.021403103445785" lon="9.269890903913186"><ele>400.0</ele><time>2026-04-08T14:08:19Z</time></trkpt><trkpt lat="35.02163578689262" lon="9.269963072587103"><ele>400.5</ele><time>2026-04-08T14:08:20Z</time></trkpt><trkpt lat="35.02186841903087" lon="9.270034706786214"><ele>401.0</ele><time>2026-04-08T14:08:21Z</time></trkpt><trkpt lat="35.022100958829654" lon="9.27010562177733"><ele>401.0</ele><time>2026-04-08T14:08:22Z</time></trkpt><trkpt lat="35.02233505779712" lon="9.270174388960534"><ele>401.0</ele><time>2026-04-08T14:08:23Z</time></trkpt><trkpt lat="35.02256848447954" lon="9.270245353051227"><ele>401.5</ele><time>2026-04-08T14:08:24Z</time></trkpt><trkpt lat="35.022799470665255" lon="9.27031536316026"><ele>402.0</ele><time>2026-04-08T14:08:25Z</time></trkpt><trkpt lat="35.023026877467736" lon="9.270382728771988"><ele>402.0</ele><time>2026-04-08T14:08:26Z</time></trkpt><trkpt lat="35.0232589146879" lon="9.270451224287472"><ele>402.0</ele><time>2026-04-08T14:08:27Z</time></trkpt><trkpt lat="35.02349072718974" lon="9.27052086486127"><ele>401.5</ele><time>2026-04-08T14:08:28Z</time></trkpt><trkpt lat="35.023725211960056" lon="9.27059457874047"><ele>401.0</ele><time>2026-04-08T14:08:29Z</time></trkpt><trkpt lat="35.02396515796332" lon="9.270671793197875"><ele>401.5</ele><time>2026-04-08T14:08:30Z</time></trkpt><trkpt lat="35.02421010246903" lon="9.270752714291884"><ele>402.0</ele><time>2026-04-08T14:08:31Z</time></trkpt><trkpt lat="35.024453049829496" lon="9.270831000821415"><ele>402.0</ele><time>2026-04-08T14:08:32Z</time></trkpt><trkpt lat="35.024695726657185" lon="9.270906051117759"><ele>402.0</ele><time>2026-04-08T14:08:33Z</time></trkpt><trkpt lat="35.024937466007344" lon="9.270980922496323"><ele>402.0</ele><time>2026-04-08T14:08:34Z</time></trkpt><trkpt lat="35.025178481895416" lon="9.271055207482124"><ele>402.0</ele><time>2026-04-08T14:08:35Z</time></trkpt><trkpt lat="35.02541892052545" lon="9.271128820737703"><ele>402.0</ele><time>2026-04-08T14:08:36Z</time></trkpt><trkpt lat="35.025658948627886" lon="9.271201376863383"><ele>402.0</ele><time>2026-04-08T14:08:37Z</time></trkpt><trkpt lat="35.02589912478065" lon="9.27127265657121"><ele>402.0</ele><time>2026-04-08T14:08:38Z</time></trkpt><trkpt lat="35.02613989987619" lon="9.271340739376127"><ele>402.0</ele><time>2026-04-08T14:08:39Z</time></trkpt><trkpt lat="35.02639030434794" lon="9.271412927468342"><ele>401.0</ele><time>2026-04-08T14:08:40Z</time></trkpt><trkpt lat="35.02665117381444" lon="9.271491521891841"><ele>400.0</ele><time>2026-04-08T14:08:41Z</time></trkpt><trkpt lat="35.026923847347675" lon="9.271577827079046"><ele>400.0</ele><time>2026-04-08T14:08:42Z</time></trkpt><trkpt lat="35.02720834490834" lon="9.271666931677062"><ele>400.0</ele><time>2026-04-08T14:08:43Z</time></trkpt><trkpt lat="35.02750575909502" lon="9.271753471596588"><ele>400.0</ele><time>2026-04-08T14:08:44Z</time></trkpt><trkpt lat="35.02781718340934" lon="9.271839823518386"><ele>400.0</ele><time>2026-04-08T14:08:45Z</time></trkpt><trkpt lat="35.02812872564277" lon="9.27192882189604"><ele>400.5</ele><time>2026-04-08T14:08:46Z</time></trkpt><trkpt lat="35.02843862550719" lon="9.272026051402207"><ele>401.0</ele><time>2026-04-08T14:08:47Z</time></trkpt><trkpt lat="35.02875921317751" lon="9.272122412575138"><ele>401.0</ele><time>2026-04-08T14:08:48Z</time></trkpt><trkpt lat="35.02906565895408" lon="9.27221563357468"><ele>401.0</ele><time>2026-04-08T14:08:49Z</time></trkpt><trkpt lat="35.0293631903971" lon="9.272306766868509"><ele>400.5</ele><time>2026-04-08T14:08:50Z</time></trkpt><trkpt lat="35.02966341862291" lon="9.27239926584805"><ele>400.0</ele><time>2026-04-08T14:08:51Z</time></trkpt><trkpt lat="35.02996520361845" lon="9.272490481013245"><ele>399.5</ele><time>2026-04-08T14:08:52Z</time></trkpt><trkpt lat="35.03027991984594" lon="9.272584076948547"><ele>399.0</ele><time>2026-04-08T14:08:53Z</time></trkpt><trkpt lat="35.0306168712554" lon="9.272682553454684"><ele>399.5</ele><time>2026-04-08T14:08:54Z</time></trkpt><trkpt lat="35.03093287857316" lon="9.272774782279187"><ele>400.0</ele><time>2026-04-08T14:08:55Z</time></trkpt><trkpt lat="35.03123445014227" lon="9.272865388412399"><ele>400.0</ele><time>2026-04-08T14:08:56Z</time></trkpt><trkpt lat="35.03153321513564" lon="9.27296122824496"><ele>400.0</ele><time>2026-04-08T14:08:57Z</time></trkpt><trkpt lat="35.031837645266265" lon="9.273055591223079"><ele>398.5</ele><time>2026-04-08T14:08:58Z</time></trkpt><trkpt lat="35.032130414284865" lon="9.273142112452385"><ele>397.0</ele><time>2026-04-08T14:08:59Z</time></trkpt><trkpt lat="35.03240538570602" lon="9.27322417768975"><ele>397.0</ele><time>2026-04-08T14:09:00Z</time></trkpt><trkpt lat="35.03267664203687" lon="9.273304305054701"><ele>397.0</ele><time>2026-04-08T14:09:01Z</time></trkpt><trkpt lat="35.0329561487622" lon="9.273386469425693"><ele>397.0</ele><time>2026-04-08T14:09:02Z</time></trkpt><trkpt lat="35.03323859056814" lon="9.273471089506314"><ele>397.0</ele><time>2026-04-08T14:09:03Z</time></trkpt><trkpt lat="35.03352056185654" lon="9.273558686216354"><ele>397.0</ele><time>2026-04-08T14:09:04Z</time></trkpt><trkpt lat="35.03380210495658" lon="9.273646401745344"><ele>397.0</ele><time>2026-04-08T14:09:05Z</time></trkpt><trkpt lat="35.034074852650654" lon="9.273728495623885"><ele>397.5</ele><time>2026-04-08T14:09:06Z</time></trkpt><trkpt lat="35.03433714587983" lon="9.273805324844163"><ele>398.0</ele><time>2026-04-08T14:09:07Z</time></trkpt><trkpt lat="35.03460061177909" lon="9.27388363408079"><ele>398.5</ele><time>2026-04-08T14:09:08Z</time></trkpt><trkpt lat="35.034866954035195" lon="9.273963533392266"><ele>399.0</ele><time>2026-04-08T14:09:09Z</time></trkpt><trkpt lat="35.03513512767234" lon="9.274043331552507"><ele>399.0</ele><time>2026-04-08T14:09:10Z</time></trkpt><trkpt lat="35.0354002847834" lon="9.274115213592024"><ele>399.0</ele><time>2026-04-08T14:09:11Z</time></trkpt><trkpt lat="35.03566420934271" lon="9.274186497979505"><ele>398.0</ele><time>2026-04-08T14:09:12Z</time></trkpt><trkpt lat="35.03593840965001" lon="9.274264120047787"><ele>397.0</ele><time>2026-04-08T14:09:13Z</time></trkpt><trkpt lat="35.03620825378572" lon="9.274341359212986"><ele>397.0</ele><time>2026-04-08T14:09:14Z</time></trkpt><trkpt lat="35.036477470691366" lon="9.27442284709335"><ele>397.0</ele><time>2026-04-08T14:09:15Z</time></trkpt><trkpt lat="35.03674417681331" lon="9.274501472850714"><ele>396.5</ele><time>2026-04-08T14:09:16Z</time></trkpt><trkpt lat="35.03700749503539" lon="9.274580332742579"><ele>396.0</ele><time>2026-04-08T14:09:17Z</time></trkpt><trkpt lat="35.037262255565985" lon="9.27465897396521"><ele>396.0</ele><time>2026-04-08T14:09:18Z</time></trkpt><trkpt lat="35.03751723349824" lon="9.274740348086743"><ele>396.0</ele><time>2026-04-08T14:09:19Z</time></trkpt><trkpt lat="35.037773913375474" lon="9.274817403484453"><ele>396.5</ele><time>2026-04-08T14:09:20Z</time></trkpt><trkpt lat="35.038029494710926" lon="9.274889819445178"><ele>397.0</ele><time>2026-04-08T14:09:21Z</time></trkpt><trkpt lat="35.038288729953926" lon="9.27496920814614"><ele>397.0</ele><time>2026-04-08T14:09:22Z</time></trkpt><trkpt lat="35.03854185506867" lon="9.275050299332225"><ele>397.0</ele><time>2026-04-08T14:09:23Z</time></trkpt><trkpt lat="35.0388014593087" lon="9.27513264539823"><ele>397.0</ele><time>2026-04-08T14:09:24Z</time></trkpt><trkpt lat="35.03906311596633" lon="9.275213550235884"><ele>397.0</ele><time>2026-04-08T14:09:25Z</time></trkpt><trkpt lat="35.03932875647763" lon="9.27529116389747"><ele>397.0</ele><time>2026-04-08T14:09:26Z</time></trkpt><trkpt lat="35.03959585923181" lon="9.27537060336863"><ele>397.0</ele><time>2026-04-08T14:09:27Z</time></trkpt><trkpt lat="35.03985808252946" lon="9.275450113128521"><ele>396.5</ele><time>2026-04-08T14:09:28Z</time></trkpt><trkpt lat="35.0401224822318" lon="9.275531860666112"><ele>396.0</ele><time>2026-04-08T14:09:29Z</time></trkpt><trkpt lat="35.040379956965715" lon="9.275609465298578"><ele>396.0</ele><time>2026-04-08T14:09:30Z</time></trkpt><trkpt lat="35.04063719788857" lon="9.27568723166644"><ele>396.0</ele><time>2026-04-08T14:09:31Z</time></trkpt><trkpt lat="35.0408945015978" lon="9.27576526484573"><ele>396.5</ele><time>2026-04-08T14:09:32Z</time></trkpt><trkpt lat="35.04114248200102" lon="9.275838345210227"><ele>397.0</ele><time>2026-04-08T14:09:33Z</time></trkpt><trkpt lat="35.04137387867291" lon="9.275909346227008"><ele>397.0</ele><time>2026-04-08T14:09:34Z</time></trkpt><trkpt lat="35.041589879913744" lon="9.275973169882226"><ele>397.0</ele><time>2026-04-08T14:09:35Z</time></trkpt><trkpt lat="35.04179687988928" lon="9.276034439461059"><ele>397.0</ele><time>2026-04-08T14:09:36Z</time></trkpt><trkpt lat="35.04198973327431" lon="9.276092628651986"><ele>397.0</ele><time>2026-04-08T14:09:37Z</time></trkpt><trkpt lat="35.04218342474809" lon="9.276153872676137"><ele>397.0</ele><time>2026-04-08T14:09:38Z</time></trkpt><trkpt lat="35.042366253921244" lon="9.276207071299687"><ele>397.0</ele><time>2026-04-08T14:09:39Z</time></trkpt><trkpt lat="35.04254022907382" lon="9.276258506822318"><ele>397.0</ele><time>2026-04-08T14:09:40Z</time></trkpt><trkpt lat="35.042703253463785" lon="9.276307294342969"><ele>397.0</ele><time>2026-04-08T14:09:41Z</time></trkpt><trkpt lat="35.042854316535724" lon="9.276352228605765"><ele>397.0</ele><time>2026-04-08T14:09:42Z</time></trkpt><trkpt lat="35.04299735380423" lon="9.276393713381708"><ele>397.0</ele><time>2026-04-08T14:09:43Z</time></trkpt><trkpt lat="35.04313152082224" lon="9.276431540623461"><ele>397.0</ele><time>2026-04-08T14:09:44Z</time></trkpt><trkpt lat="35.04325761977995" lon="9.27646627225079"><ele>397.0</ele><time>2026-04-08T14:09:45Z</time></trkpt><trkpt lat="35.043377135984954" lon="9.276498085515755"><ele>397.0</ele><time>2026-04-08T14:09:46Z</time></trkpt><trkpt lat="35.04348734243432" lon="9.276530676175598"><ele>396.6</ele><time>2026-04-08T14:09:47Z</time></trkpt><trkpt lat="35.04358857303978" lon="9.276561111307132"><ele>396.20000000000005</ele><time>2026-04-08T14:09:48Z</time></trkpt><trkpt lat="35.04367973512793" lon="9.276587467583168"><ele>395.8</ele><time>2026-04-08T14:09:49Z</time></trkpt><trkpt lat="35.04376465968845" lon="9.276609806201375"><ele>395.4</ele><time>2026-04-08T14:09:50Z</time></trkpt><trkpt lat="35.04385767671694" lon="9.276638364201657"><ele>395.0</ele><time>2026-04-08T14:09:51Z</time></trkpt><trkpt lat="35.043979965140785" lon="9.276679159079"><ele>395.0</ele><time>2026-04-08T14:09:52Z</time></trkpt><trkpt lat="35.04410059023204" lon="9.276717390108583"><ele>395.0</ele><time>2026-04-08T14:09:53Z</time></trkpt><trkpt lat="35.04421164167735" lon="9.276751402231593"><ele>395.0</ele><time>2026-04-08T14:09:54Z</time></trkpt><trkpt lat="35.044324650826404" lon="9.276782970058528"><ele>395.0</ele><time>2026-04-08T14:09:55Z</time></trkpt><trkpt lat="35.04444200247679" lon="9.276816224665067"><ele>395.25</ele><time>2026-04-08T14:09:56Z</time></trkpt><trkpt lat="35.044560994385336" lon="9.276849958903616"><ele>395.5</ele><time>2026-04-08T14:09:57Z</time></trkpt><trkpt lat="35.04468683352505" lon="9.276884727028492"><ele>395.75</ele><time>2026-04-08T14:09:58Z</time></trkpt><trkpt lat="35.04482292577927" lon="9.276919952077055"><ele>396.0</ele><time>2026-04-08T14:09:59Z</time></trkpt><trkpt lat="35.044965623286046" lon="9.276965273626312"><ele>395.33333333333337</ele><time>2026-04-08T14:10:00Z</time></trkpt><trkpt lat="35.045114206922364" lon="9.277016296289844"><ele>394.6666666666667</ele><time>2026-04-08T14:10:01Z</time></trkpt><trkpt lat="35.04527632968405" lon="9.277062286981538"><ele>394.0</ele><time>2026-04-08T14:10:02Z</time></trkpt><trkpt lat="35.04544801952236" lon="9.277110528983053"><ele>394.0</ele><time>2026-04-08T14:10:03Z</time></trkpt><trkpt lat="35.045631333819934" lon="9.277164978193492"><ele>394.0</ele><time>2026-04-08T14:10:04Z</time></trkpt><trkpt lat="35.045820702690165" lon="9.277222929517464"><ele>394.0</ele><time>2026-04-08T14:10:05Z</time></trkpt><trkpt lat="35.04601832491471" lon="9.277279832861412"><ele>394.0</ele><time>2026-04-08T14:10:06Z</time></trkpt><trkpt lat="35.04622353238096" lon="9.277332035143964"><ele>394.0</ele><time>2026-04-08T14:10:07Z</time></trkpt><trkpt lat="35.04643206881426" lon="9.277391501335032"><ele>394.0</ele><time>2026-04-08T14:10:08Z</time></trkpt><trkpt lat="35.0466437801545" lon="9.277466853822006"><ele>394.0</ele><time>2026-04-08T14:10:09Z</time></trkpt><trkpt lat="35.046863947604116" lon="9.277537346253297"><ele>394.0</ele><time>2026-04-08T14:10:10Z</time></trkpt><trkpt lat="35.047088230752166" lon="9.277591542888157"><ele>394.0</ele><time>2026-04-08T14:10:11Z</time></trkpt><trkpt lat="35.04731456048195" lon="9.277651394701861"><ele>394.0</ele><time>2026-04-08T14:10:12Z</time></trkpt><trkpt lat="35.047533995579904" lon="9.277718043635092"><ele>395.5</ele><time>2026-04-08T14:10:13Z</time></trkpt><trkpt lat="35.04775176262676" lon="9.277784748703015"><ele>397.0</ele><time>2026-04-08T14:10:14Z</time></trkpt><trkpt lat="35.04797114652907" lon="9.277851931801028"><ele>397.0</ele><time>2026-04-08T14:10:15Z</time></trkpt><trkpt lat="35.048189975436486" lon="9.27791915954605"><ele>397.0</ele><time>2026-04-08T14:10:16Z</time></trkpt><trkpt lat="35.04841208745009" lon="9.277985416146405"><ele>396.5</ele><time>2026-04-08T14:10:17Z</time></trkpt><trkpt lat="35.04863515645563" lon="9.278049491016978"><ele>396.0</ele><time>2026-04-08T14:10:18Z</time></trkpt><trkpt lat="35.048857034614514" lon="9.278111470980312"><ele>395.5</ele><time>2026-04-08T14:10:19Z</time></trkpt><trkpt lat="35.049079852823965" lon="9.278175979778508"><ele>395.0</ele><time>2026-04-08T14:10:20Z</time></trkpt><trkpt lat="35.049300854880215" lon="9.27824297926114"><ele>395.0</ele><time>2026-04-08T14:10:21Z</time></trkpt><trkpt lat="35.04951849702499" lon="9.27830992537139"><ele>395.0</ele><time>2026-04-08T14:10:22Z</time></trkpt><trkpt lat="35.04973803248713" lon="9.278377849430894"><ele>395.0</ele><time>2026-04-08T14:10:23Z</time></trkpt><trkpt lat="35.0499563093564" lon="9.27844276600059"><ele>395.0</ele><time>2026-04-08T14:10:24Z</time></trkpt><trkpt lat="35.050179231697946" lon="9.278507216919166"><ele>394.0</ele><time>2026-04-08T14:10:25Z</time></trkpt><trkpt lat="35.05040111650498" lon="9.278569254104909"><ele>393.0</ele><time>2026-04-08T14:10:26Z</time></trkpt><trkpt lat="35.05062223239433" lon="9.278631082938874"><ele>393.5</ele><time>2026-04-08T14:10:27Z</time></trkpt><trkpt lat="35.05084424865608" lon="9.278694529369474"><ele>394.0</ele><time>2026-04-08T14:10:28Z</time></trkpt><trkpt lat="35.05106374376682" lon="9.278759360992868"><ele>394.0</ele><time>2026-04-08T14:10:29Z</time></trkpt><trkpt lat="35.05128229612216" lon="9.27882746016134"><ele>394.0</ele><time>2026-04-08T14:10:30Z</time></trkpt><trkpt lat="35.05150210044907" lon="9.278895611505359"><ele>393.0</ele><time>2026-04-08T14:10:31Z</time></trkpt><trkpt lat="35.05172291770265" lon="9.27896038055693"><ele>392.0</ele><time>2026-04-08T14:10:32Z</time></trkpt><trkpt lat="35.05194516430674" lon="9.279023354590077"><ele>392.0</ele><time>2026-04-08T14:10:33Z</time></trkpt><trkpt lat="35.05216856830041" lon="9.279088083666846"><ele>392.0</ele><time>2026-04-08T14:10:34Z</time></trkpt><trkpt lat="35.05238849349555" lon="9.27915274253114"><ele>392.5</ele><time>2026-04-08T14:10:35Z</time></trkpt><trkpt lat="35.05260927240448" lon="9.279213351378472"><ele>393.0</ele><time>2026-04-08T14:10:36Z</time></trkpt><trkpt lat="35.05283115467566" lon="9.279275718631972"><ele>393.0</ele><time>2026-04-08T14:10:37Z</time></trkpt><trkpt lat="35.05305207400244" lon="9.27934313923995"><ele>393.0</ele><time>2026-04-08T14:10:38Z</time></trkpt><trkpt lat="35.053272259370765" lon="9.279411099862232"><ele>393.0</ele><time>2026-04-08T14:10:39Z</time></trkpt><trkpt lat="35.05349244469636" lon="9.279476575843702"><ele>393.0</ele><time>2026-04-08T14:10:40Z</time></trkpt><trkpt lat="35.0537112195087" lon="9.279545663009312"><ele>393.0</ele><time>2026-04-08T14:10:41Z</time></trkpt><trkpt lat="35.05392924160016" lon="9.279613979800718"><ele>393.0</ele><time>2026-04-08T14:10:42Z</time></trkpt><trkpt lat="35.05414895619701" lon="9.279679575659667"><ele>393.5</ele><time>2026-04-08T14:10:43Z</time></trkpt><trkpt lat="35.054369338824095" lon="9.279743429109278"><ele>394.0</ele><time>2026-04-08T14:10:44Z</time></trkpt><trkpt lat="35.054590375742535" lon="9.279808468175075"><ele>393.5</ele><time>2026-04-08T14:10:45Z</time></trkpt><trkpt lat="35.05481078539712" lon="9.279874982904333"><ele>393.0</ele><time>2026-04-08T14:10:46Z</time></trkpt><trkpt lat="35.055030893100245" lon="9.27994247211327"><ele>393.0</ele><time>2026-04-08T14:10:47Z</time></trkpt><trkpt lat="35.05525672446481" lon="9.28000878156649"><ele>393.0</ele><time>2026-04-08T14:10:48Z</time></trkpt><trkpt lat="35.0554915523121" lon="9.280079671516315"><ele>393.0</ele><time>2026-04-08T14:10:49Z</time></trkpt><trkpt lat="35.05573733077795" lon="9.28015444047221"><ele>393.0</ele><time>2026-04-08T14:10:50Z</time></trkpt><trkpt lat="35.055980297980476" lon="9.280225551744214"><ele>393.0</ele><time>2026-04-08T14:10:51Z</time></trkpt><trkpt lat="35.05622075551828" lon="9.280297087631336"><ele>393.0</ele><time>2026-04-08T14:10:52Z</time></trkpt><trkpt lat="35.05646102034758" lon="9.280365789223458"><ele>393.0</ele><time>2026-04-08T14:10:53Z</time></trkpt><trkpt lat="35.056704137899" lon="9.280429044848745"><ele>393.0</ele><time>2026-04-08T14:10:54Z</time></trkpt><trkpt lat="35.05694988421674" lon="9.280492739409851"><ele>393.0</ele><time>2026-04-08T14:10:55Z</time></trkpt><trkpt lat="35.05719426959222" lon="9.28055674614969"><ele>393.0</ele><time>2026-04-08T14:10:56Z</time></trkpt><trkpt lat="35.057438012282" lon="9.280621104991283"><ele>392.5</ele><time>2026-04-08T14:10:57Z</time></trkpt><trkpt lat="35.057678753000395" lon="9.280689214794574"><ele>392.0</ele><time>2026-04-08T14:10:58Z</time></trkpt><trkpt lat="35.057918980454055" lon="9.280754873953265"><ele>392.0</ele><time>2026-04-08T14:10:59Z</time></trkpt><trkpt lat="35.05815914957146" lon="9.280822274848232"><ele>392.0</ele><time>2026-04-08T14:11:00Z</time></trkpt><trkpt lat="35.05840029736548" lon="9.280891098749795"><ele>392.0</ele><time>2026-04-08T14:11:01Z</time></trkpt><trkpt lat="35.05864095501517" lon="9.280957563633212"><ele>392.0</ele><time>2026-04-08T14:11:02Z</time></trkpt><trkpt lat="35.05888566951836" lon="9.281029477310618"><ele>392.5</ele><time>2026-04-08T14:11:03Z</time></trkpt><trkpt lat="35.05913975768202" lon="9.281108212966563"><ele>393.0</ele><time>2026-04-08T14:11:04Z</time></trkpt><trkpt lat="35.05940493265711" lon="9.28119389242915"><ele>393.0</ele><time>2026-04-08T14:11:05Z</time></trkpt><trkpt lat="35.05968060469383" lon="9.281287381200544"><ele>393.0</ele><time>2026-04-08T14:11:06Z</time></trkpt><trkpt lat="35.0599580683454" lon="9.281379151996374"><ele>393.0</ele><time>2026-04-08T14:11:07Z</time></trkpt><trkpt lat="35.06023231471598" lon="9.281463069568844"><ele>393.0</ele><time>2026-04-08T14:11:08Z</time></trkpt><trkpt lat="35.060504591880196" lon="9.281545427435608"><ele>393.0</ele><time>2026-04-08T14:11:09Z</time></trkpt><trkpt lat="35.060778335636414" lon="9.281633606709162"><ele>393.0</ele><time>2026-04-08T14:11:10Z</time></trkpt><trkpt lat="35.06105202810406" lon="9.281719333489294"><ele>393.5</ele><time>2026-04-08T14:11:11Z</time></trkpt><trkpt lat="35.0613265372833" lon="9.28180049998635"><ele>394.0</ele><time>2026-04-08T14:11:12Z</time></trkpt><trkpt lat="35.06160274829267" lon="9.281877381707787"><ele>394.5</ele><time>2026-04-08T14:11:13Z</time></trkpt><trkpt lat="35.06188015032705" lon="9.28195589044864"><ele>395.0</ele><time>2026-04-08T14:11:14Z</time></trkpt><trkpt lat="35.062155587960504" lon="9.282038657210025"><ele>395.0</ele><time>2026-04-08T14:11:15Z</time></trkpt><trkpt lat="35.06242627472257" lon="9.282124191392137"><ele>395.0</ele><time>2026-04-08T14:11:16Z</time></trkpt><trkpt lat="35.06268539720036" lon="9.2822077005693"><ele>394.5</ele><time>2026-04-08T14:11:17Z</time></trkpt><trkpt lat="35.06293316412148" lon="9.282290483339183"><ele>394.0</ele><time>2026-04-08T14:11:18Z</time></trkpt><trkpt lat="35.06318427808529" lon="9.282381085904671"><ele>394.0</ele><time>2026-04-08T14:11:19Z</time></trkpt><trkpt lat="35.06343203306521" lon="9.282474186180298"><ele>394.0</ele><time>2026-04-08T14:11:20Z</time></trkpt><trkpt lat="35.06367403429205" lon="9.282575110047933"><ele>394.0</ele><time>2026-04-08T14:11:21Z</time></trkpt><trkpt lat="35.063905963269086" lon="9.28269477010391"><ele>394.0</ele><time>2026-04-08T14:11:22Z</time></trkpt><trkpt lat="35.06413449707867" lon="9.282821651638264"><ele>394.0</ele><time>2026-04-08T14:11:23Z</time></trkpt><trkpt lat="35.06437267683029" lon="9.282952006436146"><ele>394.0</ele><time>2026-04-08T14:11:24Z</time></trkpt><trkpt lat="35.06460839293615" lon="9.283089727428337"><ele>394.0</ele><time>2026-04-08T14:11:25Z</time></trkpt><trkpt lat="35.064841626309985" lon="9.283234866386385"><ele>394.0</ele><time>2026-04-08T14:11:26Z</time></trkpt><trkpt lat="35.065059833063195" lon="9.28337884862959"><ele>395.0</ele><time>2026-04-08T14:11:27Z</time></trkpt><trkpt lat="35.06527674749599" lon="9.283528915118797"><ele>396.0</ele><time>2026-04-08T14:11:28Z</time></trkpt><trkpt lat="35.065493578090134" lon="9.28368442389683"><ele>396.0</ele><time>2026-04-08T14:11:29Z</time></trkpt><trkpt lat="35.06570773234307" lon="9.283853346284195"><ele>396.0</ele><time>2026-04-08T14:11:30Z</time></trkpt><trkpt lat="35.06591672757694" lon="9.284034113631826"><ele>396.5</ele><time>2026-04-08T14:11:31Z</time></trkpt><trkpt lat="35.06612803184436" lon="9.284215492278785"><ele>397.0</ele><time>2026-04-08T14:11:32Z</time></trkpt><trkpt lat="35.06633955434534" lon="9.284401059855378"><ele>397.0</ele><time>2026-04-08T14:11:33Z</time></trkpt><trkpt lat="35.06655128943324" lon="9.28459118473833"><ele>397.0</ele><time>2026-04-08T14:11:34Z</time></trkpt><trkpt lat="35.06676681166318" lon="9.284777447003567"><ele>395.5</ele><time>2026-04-08T14:11:35Z</time></trkpt><trkpt lat="35.06698574872796" lon="9.284965841048175"><ele>394.0</ele><time>2026-04-08T14:11:36Z</time></trkpt><trkpt lat="35.067204425188294" lon="9.285154773449193"><ele>394.0</ele><time>2026-04-08T14:11:37Z</time></trkpt><trkpt lat="35.06741890023402" lon="9.28534211914737"><ele>394.0</ele><time>2026-04-08T14:11:38Z</time></trkpt><trkpt lat="35.06763361239067" lon="9.285528539034487"><ele>392.5</ele><time>2026-04-08T14:11:39Z</time></trkpt><trkpt lat="35.06784479109464" lon="9.28571058242838"><ele>391.0</ele><time>2026-04-08T14:11:40Z</time></trkpt><trkpt lat="35.06805419601869" lon="9.285890664274854"><ele>391.0</ele><time>2026-04-08T14:11:41Z</time></trkpt><trkpt lat="35.06826807796748" lon="9.286071695591021"><ele>391.0</ele><time>2026-04-08T14:11:42Z</time></trkpt><trkpt lat="35.06848304830142" lon="9.286256728308226"><ele>391.0</ele><time>2026-04-08T14:11:43Z</time></trkpt><trkpt lat="35.06869935948898" lon="9.286444990263531"><ele>391.0</ele><time>2026-04-08T14:11:44Z</time></trkpt><trkpt lat="35.06892070717162" lon="9.286635433473382"><ele>391.5</ele><time>2026-04-08T14:11:45Z</time></trkpt><trkpt lat="35.069150779087686" lon="9.286832076625975"><ele>392.0</ele><time>2026-04-08T14:11:46Z</time></trkpt><trkpt lat="35.06938581221897" lon="9.287038233092641"><ele>392.0</ele><time>2026-04-08T14:11:47Z</time></trkpt><trkpt lat="35.06963755122476" lon="9.287243334962792"><ele>392.0</ele><time>2026-04-08T14:11:48Z</time></trkpt><trkpt lat="35.069907651510974" lon="9.287468451629831"><ele>391.0</ele><time>2026-04-08T14:11:49Z</time></trkpt><trkpt lat="35.07016611505979" lon="9.28771494171514"><ele>390.0</ele><time>2026-04-08T14:11:50Z</time></trkpt><trkpt lat="35.07040101227704" lon="9.287937619160642"><ele>390.0</ele><time>2026-04-08T14:11:51Z</time></trkpt><trkpt lat="35.07063179692423" lon="9.28813778951556"><ele>390.0</ele><time>2026-04-08T14:11:52Z</time></trkpt><trkpt lat="35.070867131556106" lon="9.288337380207025"><ele>390.0</ele><time>2026-04-08T14:11:53Z</time></trkpt><trkpt lat="35.07110031624508" lon="9.288538854066655"><ele>390.0</ele><time>2026-04-08T14:11:54Z</time></trkpt><trkpt lat="35.071330248594876" lon="9.288738852026505"><ele>389.5</ele><time>2026-04-08T14:11:55Z</time></trkpt><trkpt lat="35.071561468571275" lon="9.288943125624836"><ele>389.0</ele><time>2026-04-08T14:11:56Z</time></trkpt><trkpt lat="35.07179657996539" lon="9.28915117681962"><ele>390.0</ele><time>2026-04-08T14:11:57Z</time></trkpt><trkpt lat="35.07202452505938" lon="9.28934514808074"><ele>391.0</ele><time>2026-04-08T14:11:58Z</time></trkpt><trkpt lat="35.07223804158356" lon="9.289523854582486"><ele>391.0</ele><time>2026-04-08T14:11:59Z</time></trkpt><trkpt lat="35.072454485327675" lon="9.289717671516323"><ele>391.0</ele><time>2026-04-08T14:12:00Z</time></trkpt><trkpt lat="35.072671007535895" lon="9.289908769405425"><ele>391.0</ele><time>2026-04-08T14:12:01Z</time></trkpt><trkpt lat="35.07289307088616" lon="9.290100245500291"><ele>391.0</ele><time>2026-04-08T14:12:02Z</time></trkpt><trkpt lat="35.07311854581682" lon="9.290293065541972"><ele>392.5</ele><time>2026-04-08T14:12:03Z</time></trkpt><trkpt lat="35.07334432386668" lon="9.290488808760577"><ele>394.0</ele><time>2026-04-08T14:12:04Z</time></trkpt><trkpt lat="35.073571067133926" lon="9.290687967058673"><ele>394.0</ele><time>2026-04-08T14:12:05Z</time></trkpt><trkpt lat="35.07379604069256" lon="9.290885686180792"><ele>394.0</ele><time>2026-04-08T14:12:06Z</time></trkpt><trkpt lat="35.074022583446556" lon="9.291080217065364"><ele>394.0</ele><time>2026-04-08T14:12:07Z</time></trkpt><trkpt lat="35.07424715618493" lon="9.291272534492554"><ele>394.0</ele><time>2026-04-08T14:12:08Z</time></trkpt><trkpt lat="35.074465520711165" lon="9.291462094759064"><ele>394.0</ele><time>2026-04-08T14:12:09Z</time></trkpt><trkpt lat="35.07468163649769" lon="9.291653526578699"><ele>394.0</ele><time>2026-04-08T14:12:10Z</time></trkpt><trkpt lat="35.07489759934874" lon="9.291843532877094"><ele>394.0</ele><time>2026-04-08T14:12:11Z</time></trkpt><trkpt lat="35.07511761070595" lon="9.292035859281217"><ele>394.0</ele><time>2026-04-08T14:12:12Z</time></trkpt><trkpt lat="35.07533811693383" lon="9.292228248779326"><ele>393.5</ele><time>2026-04-08T14:12:13Z</time></trkpt><trkpt lat="35.075555709209596" lon="9.29241807871934"><ele>393.0</ele><time>2026-04-08T14:12:14Z</time></trkpt><trkpt lat="35.07577079569246" lon="9.292607679737744"><ele>394.0</ele><time>2026-04-08T14:12:15Z</time></trkpt><trkpt lat="35.07598585996657" lon="9.292793910196824"><ele>395.0</ele><time>2026-04-08T14:12:16Z</time></trkpt><trkpt lat="35.07620295001925" lon="9.292977690350234"><ele>395.0</ele><time>2026-04-08T14:12:17Z</time></trkpt><trkpt lat="35.07641859094716" lon="9.293163554192876"><ele>395.0</ele><time>2026-04-08T14:12:18Z</time></trkpt><trkpt lat="35.076635096836576" lon="9.2933495401458"><ele>395.0</ele><time>2026-04-08T14:12:19Z</time></trkpt><trkpt lat="35.076850978254356" lon="9.293533710441283"><ele>395.0</ele><time>2026-04-08T14:12:20Z</time></trkpt><trkpt lat="35.07707420382174" lon="9.29371474723321"><ele>395.0</ele><time>2026-04-08T14:12:21Z</time></trkpt><trkpt lat="35.077302097113886" lon="9.293887973158817"><ele>395.0</ele><time>2026-04-08T14:12:22Z</time></trkpt><trkpt lat="35.077536432734085" lon="9.294045484266388"><ele>394.5</ele><time>2026-04-08T14:12:23Z</time></trkpt><trkpt lat="35.07777520967159" lon="9.294187904270643"><ele>394.0</ele><time>2026-04-08T14:12:24Z</time></trkpt><trkpt lat="35.07801944783683" lon="9.29432390557799"><ele>394.0</ele><time>2026-04-08T14:12:25Z</time></trkpt><trkpt lat="35.07825892667239" lon="9.294457662072798"><ele>394.0</ele><time>2026-04-08T14:12:26Z</time></trkpt><trkpt lat="35.07849869553404" lon="9.294590288094032"><ele>394.0</ele><time>2026-04-08T14:12:27Z</time></trkpt><trkpt lat="35.07874186787372" lon="9.294723023707162"><ele>394.0</ele><time>2026-04-08T14:12:28Z</time></trkpt><trkpt lat="35.07898388959484" lon="9.29485259808682"><ele>393.5</ele><time>2026-04-08T14:12:29Z</time></trkpt><trkpt lat="35.07922995319507" lon="9.294988698608266"><ele>393.0</ele><time>2026-04-08T14:12:30Z</time></trkpt><trkpt lat="35.079473941444014" lon="9.295125547629745"><ele>393.0</ele><time>2026-04-08T14:12:31Z</time></trkpt><trkpt lat="35.07971790781268" lon="9.295258886476361"><ele>393.0</ele><time>2026-04-08T14:12:32Z</time></trkpt><trkpt lat="35.079962332672565" lon="9.29539072916103"><ele>393.0</ele><time>2026-04-08T14:12:33Z</time></trkpt><trkpt lat="35.08020590803183" lon="9.295521060978121"><ele>393.0</ele><time>2026-04-08T14:12:34Z</time></trkpt><trkpt lat="35.080447422512755" lon="9.295655739378885"><ele>393.0</ele><time>2026-04-08T14:12:35Z</time></trkpt><trkpt lat="35.080689560816666" lon="9.295789282154193"><ele>393.0</ele><time>2026-04-08T14:12:36Z</time></trkpt><trkpt lat="35.08092923440751" lon="9.295918806065377"><ele>394.0</ele><time>2026-04-08T14:12:37Z</time></trkpt><trkpt lat="35.08116721142353" lon="9.296049896032137"><ele>395.0</ele><time>2026-04-08T14:12:38Z</time></trkpt><trkpt lat="35.08140233394728" lon="9.296180342263202"><ele>395.5</ele><time>2026-04-08T14:12:39Z</time></trkpt><trkpt lat="35.08163535908654" lon="9.29630927134678"><ele>396.0</ele><time>2026-04-08T14:12:40Z</time></trkpt><trkpt lat="35.08187276586258" lon="9.296436656877036"><ele>395.0</ele><time>2026-04-08T14:12:41Z</time></trkpt><trkpt lat="35.08211179947" lon="9.296563762992655"><ele>394.0</ele><time>2026-04-08T14:12:42Z</time></trkpt><trkpt lat="35.082355165619546" lon="9.296696856337705"><ele>395.0</ele><time>2026-04-08T14:12:43Z</time></trkpt><trkpt lat="35.08260463486061" lon="9.296837833201321"><ele>396.0</ele><time>2026-04-08T14:12:44Z</time></trkpt><trkpt lat="35.08286509379307" lon="9.296987365021891"><ele>396.0</ele><time>2026-04-08T14:12:45Z</time></trkpt><trkpt lat="35.08313698385803" lon="9.297135611019582"><ele>396.0</ele><time>2026-04-08T14:12:46Z</time></trkpt><trkpt lat="35.08340904319649" lon="9.297282015871062"><ele>395.5</ele><time>2026-04-08T14:12:47Z</time></trkpt><trkpt lat="35.08366054524604" lon="9.297422471800058"><ele>395.0</ele><time>2026-04-08T14:12:48Z</time></trkpt><trkpt lat="35.083902645247385" lon="9.297561461229828"><ele>396.0</ele><time>2026-04-08T14:12:49Z</time></trkpt><trkpt lat="35.08414258313545" lon="9.297696120470176"><ele>397.0</ele><time>2026-04-08T14:12:50Z</time></trkpt><trkpt lat="35.08438245703759" lon="9.297825444355716"><ele>397.0</ele><time>2026-04-08T14:12:51Z</time></trkpt><trkpt lat="35.084630905348554" lon="9.297960169080428"><ele>397.0</ele><time>2026-04-08T14:12:52Z</time></trkpt><trkpt lat="35.08488400781568" lon="9.298094872996524"><ele>397.0</ele><time>2026-04-08T14:12:53Z</time></trkpt><trkpt lat="35.085138274764965" lon="9.298234060508438"><ele>397.0</ele><time>2026-04-08T14:12:54Z</time></trkpt><trkpt lat="35.08539139812307" lon="9.298376038995219"><ele>397.0</ele><time>2026-04-08T14:12:55Z</time></trkpt><trkpt lat="35.085646913477206" lon="9.298520278365787"><ele>397.0</ele><time>2026-04-08T14:12:56Z</time></trkpt><trkpt lat="35.08589787768439" lon="9.298655881520938"><ele>397.0</ele><time>2026-04-08T14:12:57Z</time></trkpt><trkpt lat="35.08613729534635" lon="9.29878187987346"><ele>397.0</ele><time>2026-04-08T14:12:58Z</time></trkpt><trkpt lat="35.08637709348764" lon="9.298913120724297"><ele>397.0</ele><time>2026-04-08T14:12:59Z</time></trkpt><trkpt lat="35.08661402284181" lon="9.299045318263731"><ele>397.0</ele><time>2026-04-08T14:13:00Z</time></trkpt><trkpt lat="35.08685141736169" lon="9.29917675204972"><ele>397.0</ele><time>2026-04-08T14:13:01Z</time></trkpt><trkpt lat="35.08708365197484" lon="9.299304197662948"><ele>397.0</ele><time>2026-04-08T14:13:02Z</time></trkpt><trkpt lat="35.087310199830505" lon="9.299433303043273"><ele>397.5</ele><time>2026-04-08T14:13:03Z</time></trkpt><trkpt lat="35.08754148237942" lon="9.29956339545212"><ele>398.0</ele><time>2026-04-08T14:13:04Z</time></trkpt><trkpt lat="35.08777215274635" lon="9.299691626178184"><ele>397.5</ele><time>2026-04-08T14:13:05Z</time></trkpt><trkpt lat="35.08800242066988" lon="9.299818718244733"><ele>397.0</ele><time>2026-04-08T14:13:06Z</time></trkpt><trkpt lat="35.08823172567287" lon="9.299945160406608"><ele>397.0</ele><time>2026-04-08T14:13:07Z</time></trkpt><trkpt lat="35.08844784860251" lon="9.30005949203156"><ele>397.0</ele><time>2026-04-08T14:13:08Z</time></trkpt><trkpt lat="35.08865501791118" lon="9.300172216958613"><ele>397.0</ele><time>2026-04-08T14:13:09Z</time></trkpt><trkpt lat="35.08886529379322" lon="9.300285751733142"><ele>397.0</ele><time>2026-04-08T14:13:10Z</time></trkpt><trkpt lat="35.08907826036434" lon="9.300397999226377"><ele>397.0</ele><time>2026-04-08T14:13:11Z</time></trkpt><trkpt lat="35.0892981088036" lon="9.300500117300698"><ele>397.0</ele><time>2026-04-08T14:13:12Z</time></trkpt><trkpt lat="35.08953215883715" lon="9.30058478555907"><ele>397.0</ele><time>2026-04-08T14:13:13Z</time></trkpt><trkpt lat="35.08976039694765" lon="9.300643377227582"><ele>397.0</ele><time>2026-04-08T14:13:14Z</time></trkpt><trkpt lat="35.08996846803662" lon="9.300691248221208"><ele>397.0</ele><time>2026-04-08T14:13:15Z</time></trkpt><trkpt lat="35.09015368606195" lon="9.300735232306124"><ele>397.6666666666667</ele><time>2026-04-08T14:13:16Z</time></trkpt><trkpt lat="35.090331782874394" lon="9.300780358237207"><ele>398.33333333333337</ele><time>2026-04-08T14:13:17Z</time></trkpt><trkpt lat="35.09051701868036" lon="9.300830680747232"><ele>399.0</ele><time>2026-04-08T14:13:18Z</time></trkpt><trkpt lat="35.090711207137126" lon="9.300883766681835"><ele>400.0</ele><time>2026-04-08T14:13:19Z</time></trkpt><trkpt lat="35.09091535991101" lon="9.300950787874056"><ele>401.0</ele><time>2026-04-08T14:13:20Z</time></trkpt><trkpt lat="35.091119243371466" lon="9.301034473891313"><ele>402.0</ele><time>2026-04-08T14:13:21Z</time></trkpt><trkpt lat="35.0913129216696" lon="9.301137819068138"><ele>402.0</ele><time>2026-04-08T14:13:22Z</time></trkpt><trkpt lat="35.0915012563341" lon="9.301269452925041"><ele>402.0</ele><time>2026-04-08T14:13:23Z</time></trkpt><trkpt lat="35.09168839824036" lon="9.301425963953132"><ele>402.0</ele><time>2026-04-08T14:13:24Z</time></trkpt><trkpt lat="35.09186935571729" lon="9.30161116579217"><ele>401.5</ele><time>2026-04-08T14:13:25Z</time></trkpt><trkpt lat="35.09204601827645" lon="9.301822864544915"><ele>401.0</ele><time>2026-04-08T14:13:26Z</time></trkpt><trkpt lat="35.09221536281076" lon="9.302054241478032"><ele>400.5</ele><time>2026-04-08T14:13:27Z</time></trkpt><trkpt lat="35.09236497135182" lon="9.302292265231056"><ele>400.0</ele><time>2026-04-08T14:13:28Z</time></trkpt><trkpt lat="35.09250123964198" lon="9.302539117891465"><ele>399.0</ele><time>2026-04-08T14:13:29Z</time></trkpt><trkpt lat="35.092631143830076" lon="9.30279431961184"><ele>398.0</ele><time>2026-04-08T14:13:30Z</time></trkpt><trkpt lat="35.0927577714085" lon="9.303040493177598"><ele>398.5</ele><time>2026-04-08T14:13:31Z</time></trkpt><trkpt lat="35.0928856680194" lon="9.303282234148531"><ele>399.0</ele><time>2026-04-08T14:13:32Z</time></trkpt><trkpt lat="35.09301727988331" lon="9.303526097619581"><ele>399.0</ele><time>2026-04-08T14:13:33Z</time></trkpt><trkpt lat="35.09315322533268" lon="9.303774634863991"><ele>399.0</ele><time>2026-04-08T14:13:34Z</time></trkpt><trkpt lat="35.09329206674244" lon="9.30402746285996"><ele>398.5</ele><time>2026-04-08T14:13:35Z</time></trkpt><trkpt lat="35.09343289403315" lon="9.304287429443304"><ele>398.0</ele><time>2026-04-08T14:13:36Z</time></trkpt><trkpt lat="35.093571221262955" lon="9.304543724087862"><ele>397.5</ele><time>2026-04-08T14:13:37Z</time></trkpt><trkpt lat="35.093711076133346" lon="9.304799879209162"><ele>397.0</ele><time>2026-04-08T14:13:38Z</time></trkpt><trkpt lat="35.093849727236936" lon="9.305056313168858"><ele>397.0</ele><time>2026-04-08T14:13:39Z</time></trkpt><trkpt lat="35.09398455557367" lon="9.305305118372011"><ele>397.0</ele><time>2026-04-08T14:13:40Z</time></trkpt><trkpt lat="35.09412257154521" lon="9.305558969107082"><ele>398.0</ele><time>2026-04-08T14:13:41Z</time></trkpt><trkpt lat="35.09426004284676" lon="9.305811363469878"><ele>399.0</ele><time>2026-04-08T14:13:42Z</time></trkpt><trkpt lat="35.09439394861941" lon="9.30606077584077"><ele>399.0</ele><time>2026-04-08T14:13:43Z</time></trkpt><trkpt lat="35.094528555181334" lon="9.306312435551426"><ele>399.0</ele><time>2026-04-08T14:13:44Z</time></trkpt><trkpt lat="35.094667801751925" lon="9.306572826791522"><ele>398.5</ele><time>2026-04-08T14:13:45Z</time></trkpt><trkpt lat="35.09480148483724" lon="9.306830439522754"><ele>398.0</ele><time>2026-04-08T14:13:46Z</time></trkpt><trkpt lat="35.094927242747424" lon="9.307077650134898"><ele>397.0</ele><time>2026-04-08T14:13:47Z</time></trkpt><trkpt lat="35.095043847708034" lon="9.307316033527336"><ele>396.0</ele><time>2026-04-08T14:13:48Z</time></trkpt><trkpt lat="35.095162510739826" lon="9.307560620047365"><ele>396.0</ele><time>2026-04-08T14:13:49Z</time></trkpt><trkpt lat="35.09528657430612" lon="9.307814263522172"><ele>396.0</ele><time>2026-04-08T14:13:50Z</time></trkpt><trkpt lat="35.095415895701024" lon="9.308076353146364"><ele>395.5</ele><time>2026-04-08T14:13:51Z</time></trkpt><trkpt lat="35.09554400489099" lon="9.308341849672914"><ele>395.0</ele><time>2026-04-08T14:13:52Z</time></trkpt><trkpt lat="35.09567506246655" lon="9.30861046728575"><ele>396.0</ele><time>2026-04-08T14:13:53Z</time></trkpt><trkpt lat="35.095807693602325" lon="9.308879759987335"><ele>397.0</ele><time>2026-04-08T14:13:54Z</time></trkpt><trkpt lat="35.09593916762107" lon="9.30914988530649"><ele>397.0</ele><time>2026-04-08T14:13:55Z</time></trkpt><trkpt lat="35.09607183502774" lon="9.309423424277316"><ele>397.0</ele><time>2026-04-08T14:13:56Z</time></trkpt><trkpt lat="35.096200218312035" lon="9.309693940480983"><ele>396.5</ele><time>2026-04-08T14:13:57Z</time></trkpt><trkpt lat="35.096327858031295" lon="9.309966515101719"><ele>396.0</ele><time>2026-04-08T14:13:58Z</time></trkpt><trkpt lat="35.09645604721305" lon="9.310240322526418"><ele>396.5</ele><time>2026-04-08T14:13:59Z</time></trkpt><trkpt lat="35.096588348413704" lon="9.310520843853615"><ele>397.0</ele><time>2026-04-08T14:14:00Z</time></trkpt><trkpt lat="35.09672405568259" lon="9.310807947141274"><ele>397.0</ele><time>2026-04-08T14:14:01Z</time></trkpt><trkpt lat="35.09685204393528" lon="9.311080253860494"><ele>397.0</ele><time>2026-04-08T14:14:02Z</time></trkpt><trkpt lat="35.096976652646156" lon="9.311342152335106"><ele>397.0</ele><time>2026-04-08T14:14:03Z</time></trkpt><trkpt lat="35.0971106617472" lon="9.311607300261171"><ele>397.0</ele><time>2026-04-08T14:14:04Z</time></trkpt><trkpt lat="35.097256448110286" lon="9.31186369806352"><ele>397.0</ele><time>2026-04-08T14:14:05Z</time></trkpt><trkpt lat="35.09741758208295" lon="9.312109876171313"><ele>397.0</ele><time>2026-04-08T14:14:06Z</time></trkpt><trkpt lat="35.09759534489454" lon="9.312345039473152"><ele>397.0</ele><time>2026-04-08T14:14:07Z</time></trkpt><trkpt lat="35.09778728474519" lon="9.312574709588402"><ele>397.0</ele><time>2026-04-08T14:14:08Z</time></trkpt><trkpt lat="35.0979818268769" lon="9.312784329650139"><ele>397.0</ele><time>2026-04-08T14:14:09Z</time></trkpt><trkpt lat="35.098168766461924" lon="9.312969104207408"><ele>397.0</ele><time>2026-04-08T14:14:10Z</time></trkpt><trkpt lat="35.09834603901118" lon="9.313133272584885"><ele>396.33333333333337</ele><time>2026-04-08T14:14:11Z</time></trkpt><trkpt lat="35.098516320166894" lon="9.31328575211366"><ele>395.66666666666663</ele><time>2026-04-08T14:14:12Z</time></trkpt><trkpt lat="35.098683698349575" lon="9.313434820951342"><ele>395.0</ele><time>2026-04-08T14:14:13Z</time></trkpt><trkpt lat="35.0988528961027" lon="9.31358454709644"><ele>395.0</ele><time>2026-04-08T14:14:14Z</time></trkpt><trkpt lat="35.09902346562807" lon="9.313737372963857"><ele>395.0</ele><time>2026-04-08T14:14:15Z</time></trkpt><trkpt lat="35.09919579178857" lon="9.313893591462385"><ele>395.0</ele><time>2026-04-08T14:14:16Z</time></trkpt><trkpt lat="35.09937086607213" lon="9.314060559420692"><ele>395.0</ele><time>2026-04-08T14:14:17Z</time></trkpt><trkpt lat="35.099543586768256" lon="9.314233933178867"><ele>395.0</ele><time>2026-04-08T14:14:18Z</time></trkpt><trkpt lat="35.09971275882514" lon="9.3144194083307"><ele>395.0</ele><time>2026-04-08T14:14:19Z</time></trkpt><trkpt lat="35.09987721389658" lon="9.314623129878404"><ele>395.0</ele><time>2026-04-08T14:14:20Z</time></trkpt><trkpt lat="35.10003130422533" lon="9.314833181180171"><ele>394.5</ele><time>2026-04-08T14:14:21Z</time></trkpt><trkpt lat="35.100174267765965" lon="9.31504997886776"><ele>394.0</ele><time>2026-04-08T14:14:22Z</time></trkpt><trkpt lat="35.10030404173912" lon="9.31527408911976"><ele>394.0</ele><time>2026-04-08T14:14:23Z</time></trkpt><trkpt lat="35.1004220666664" lon="9.31550111674575"><ele>394.0</ele><time>2026-04-08T14:14:24Z</time></trkpt><trkpt lat="35.10053153940692" lon="9.315736159317101"><ele>394.0</ele><time>2026-04-08T14:14:25Z</time></trkpt><trkpt lat="35.10062643102203" lon="9.315977728606349"><ele>394.0</ele><time>2026-04-08T14:14:26Z</time></trkpt><trkpt lat="35.10071110459186" lon="9.316227623033837"><ele>394.0</ele><time>2026-04-08T14:14:27Z</time></trkpt><trkpt lat="35.10078964662235" lon="9.316481760435316"><ele>394.0</ele><time>2026-04-08T14:14:28Z</time></trkpt><trkpt lat="35.10086140660922" lon="9.316738050613495"><ele>394.0</ele><time>2026-04-08T14:14:29Z</time></trkpt><trkpt lat="35.10093610701855" lon="9.316982109807826"><ele>394.0</ele><time>2026-04-08T14:14:30Z</time></trkpt><trkpt lat="35.101014973835326" lon="9.317224013796375"><ele>394.0</ele><time>2026-04-08T14:14:31Z</time></trkpt><trkpt lat="35.10109283934428" lon="9.317467912843796"><ele>393.6666666666667</ele><time>2026-04-08T14:14:32Z</time></trkpt><trkpt lat="35.101168642062184" lon="9.3177163879719"><ele>393.33333333333337</ele><time>2026-04-08T14:14:33Z</time></trkpt><trkpt lat="35.10124679811494" lon="9.317969990375596"><ele>393.0</ele><time>2026-04-08T14:14:34Z</time></trkpt><trkpt lat="35.10132870518567" lon="9.318221541208336"><ele>393.0</ele><time>2026-04-08T14:14:35Z</time></trkpt><trkpt lat="35.10141246372857" lon="9.31847302605807"><ele>393.0</ele><time>2026-04-08T14:14:36Z</time></trkpt><trkpt lat="35.10150391086774" lon="9.318719633869224"><ele>393.0</ele><time>2026-04-08T14:14:37Z</time></trkpt><trkpt lat="35.10160740488713" lon="9.31897185137233"><ele>392.5</ele><time>2026-04-08T14:14:38Z</time></trkpt><trkpt lat="35.10172973073096" lon="9.319222564986115"><ele>392.0</ele><time>2026-04-08T14:14:39Z</time></trkpt><trkpt lat="35.10187088993556" lon="9.319473413056766"><ele>392.0</ele><time>2026-04-08T14:14:40Z</time></trkpt><trkpt lat="35.10203424265948" lon="9.319727632766195"><ele>392.0</ele><time>2026-04-08T14:14:41Z</time></trkpt><trkpt lat="35.10221417684009" lon="9.3199848820885"><ele>391.0</ele><time>2026-04-08T14:14:42Z</time></trkpt><trkpt lat="35.102390530152434" lon="9.320222959397798"><ele>390.0</ele><time>2026-04-08T14:14:43Z</time></trkpt><trkpt lat="35.10255878854808" lon="9.320456310544985"><ele>389.0</ele><time>2026-04-08T14:14:44Z</time></trkpt><trkpt lat="35.10272362930075" lon="9.320684828346536"><ele>388.0</ele><time>2026-04-08T14:14:45Z</time></trkpt><trkpt lat="35.10289023570376" lon="9.32091325190013"><ele>388.0</ele><time>2026-04-08T14:14:46Z</time></trkpt><trkpt lat="35.10305631898074" lon="9.321138257820943"><ele>388.0</ele><time>2026-04-08T14:14:47Z</time></trkpt><trkpt lat="35.103219649277136" lon="9.321357605710318"><ele>388.0</ele><time>2026-04-08T14:14:48Z</time></trkpt><trkpt lat="35.1033728025692" lon="9.321564346888975"><ele>388.0</ele><time>2026-04-08T14:14:49Z</time></trkpt><trkpt lat="35.10352445225603" lon="9.321772622472347"><ele>388.0</ele><time>2026-04-08T14:14:50Z</time></trkpt><trkpt lat="35.10367777145742" lon="9.321986144157261"><ele>388.0</ele><time>2026-04-08T14:14:51Z</time></trkpt><trkpt lat="35.103825624416736" lon="9.322192194911484"><ele>388.0</ele><time>2026-04-08T14:14:52Z</time></trkpt><trkpt lat="35.10397265606549" lon="9.322390446368164"><ele>388.0</ele><time>2026-04-08T14:14:53Z</time></trkpt><trkpt lat="35.10411251172237" lon="9.322578163156829"><ele>388.0</ele><time>2026-04-08T14:14:54Z</time></trkpt><trkpt lat="35.10424266506106" lon="9.322759237982538"><ele>388.0</ele><time>2026-04-08T14:14:55Z</time></trkpt><trkpt lat="35.10436549796665" lon="9.3229301361202"><ele>388.0</ele><time>2026-04-08T14:14:56Z</time></trkpt><trkpt lat="35.10448026963509" lon="9.323089468390737"><ele>388.0</ele><time>2026-04-08T14:14:57Z</time></trkpt><trkpt lat="35.10459187924548" lon="9.323244620148904"><ele>388.0</ele><time>2026-04-08T14:14:58Z</time></trkpt><trkpt lat="35.104698588644034" lon="9.323389495007504"><ele>388.0</ele><time>2026-04-08T14:14:59Z</time></trkpt><trkpt lat="35.10480133556976" lon="9.323529357346313"><ele>388.0</ele><time>2026-04-08T14:15:00Z</time></trkpt><trkpt lat="35.104897377157855" lon="9.323658789027267"><ele>388.25</ele><time>2026-04-08T14:15:01Z</time></trkpt><trkpt lat="35.104991425818156" lon="9.323791122108089"><ele>388.5</ele><time>2026-04-08T14:15:02Z</time></trkpt><trkpt lat="35.10508550103442" lon="9.32391722278001"><ele>388.75</ele><time>2026-04-08T14:15:03Z</time></trkpt><trkpt lat="35.10518001683344" lon="9.32404231718272"><ele>389.0</ele><time>2026-04-08T14:15:04Z</time></trkpt><trkpt lat="35.10527305351779" lon="9.324166156087996"><ele>389.0</ele><time>2026-04-08T14:15:05Z</time></trkpt><trkpt lat="35.10536528817029" lon="9.324292454846661"><ele>389.0</ele><time>2026-04-08T14:15:06Z</time></trkpt><trkpt lat="35.105449249540854" lon="9.324408934191865"><ele>389.0</ele><time>2026-04-08T14:15:07Z</time></trkpt><trkpt lat="35.10551538720834" lon="9.324506206908568"><ele>389.0</ele><time>2026-04-08T14:15:08Z</time></trkpt><trkpt lat="35.10556315082011" lon="9.324576044748076"><ele>389.0</ele><time>2026-04-08T14:15:09Z</time></trkpt><trkpt lat="35.105655000379464" lon="9.324703722160857"><ele>389.0</ele><time>2026-04-08T14:15:11Z</time></trkpt><trkpt lat="35.10573953947064" lon="9.324816848980284"><ele>389.0</ele><time>2026-04-08T14:15:12Z</time></trkpt><trkpt lat="35.105828606839" lon="9.324943843541506"><ele>389.0</ele><time>2026-04-08T14:15:13Z</time></trkpt><trkpt lat="35.10590809570972" lon="9.325052254860674"><ele>389.0</ele><time>2026-04-08T14:15:14Z</time></trkpt><trkpt lat="35.1059923391888" lon="9.325163341495553"><ele>389.0</ele><time>2026-04-08T14:15:15Z</time></trkpt><trkpt lat="35.10607631735911" lon="9.325281396070986"><ele>389.0</ele><time>2026-04-08T14:15:16Z</time></trkpt><trkpt lat="35.10615470517019" lon="9.325386872993809"><ele>389.0</ele><time>2026-04-08T14:15:17Z</time></trkpt><trkpt lat="35.1062323155868" lon="9.325489069274353"><ele>389.0</ele><time>2026-04-08T14:15:18Z</time></trkpt><trkpt lat="35.10630936525643" lon="9.325592703102705"><ele>389.0</ele><time>2026-04-08T14:15:19Z</time></trkpt><trkpt lat="35.106388081093556" lon="9.325694324118555"><ele>389.0</ele><time>2026-04-08T14:15:20Z</time></trkpt><trkpt lat="35.106460300637515" lon="9.325786380881043"><ele>389.0</ele><time>2026-04-08T14:15:21Z</time></trkpt><trkpt lat="35.106526216714826" lon="9.325867989833037"><ele>389.0</ele><time>2026-04-08T14:15:22Z</time></trkpt><trkpt lat="35.10658266936147" lon="9.325940040279265"><ele>389.0</ele><time>2026-04-08T14:15:23Z</time></trkpt><trkpt lat="35.10663198078966" lon="9.32600412967103"><ele>389.0</ele><time>2026-04-08T14:15:24Z</time></trkpt><trkpt lat="35.106677211482854" lon="9.32606282526665"><ele>389.0</ele><time>2026-04-08T14:15:25Z</time></trkpt><trkpt lat="35.10675876304863" lon="9.3261686255604"><ele>389.0</ele><time>2026-04-08T14:15:26Z</time></trkpt><trkpt lat="35.10682816288322" lon="9.326264444691693"><ele>389.0</ele><time>2026-04-08T14:15:27Z</time></trkpt><trkpt lat="35.106892066426674" lon="9.326362731208052"><ele>389.0</ele><time>2026-04-08T14:15:28Z</time></trkpt><trkpt lat="35.10696215398149" lon="9.326460137485379"><ele>389.0</ele><time>2026-04-08T14:15:29Z</time></trkpt><trkpt lat="35.10704178296606" lon="9.326556396982152"><ele>389.0</ele><time>2026-04-08T14:15:30Z</time></trkpt><trkpt lat="35.107122701570496" lon="9.3266643219387"><ele>389.0</ele><time>2026-04-08T14:15:31Z</time></trkpt><trkpt lat="35.10721224850416" lon="9.326779378917296"><ele>389.0</ele><time>2026-04-08T14:15:32Z</time></trkpt><trkpt lat="35.10730380162755" lon="9.32689527701053"><ele>389.0</ele><time>2026-04-08T14:15:33Z</time></trkpt><trkpt lat="35.107405520610506" lon="9.327014662420288"><ele>389.0</ele><time>2026-04-08T14:15:34Z</time></trkpt><trkpt lat="35.10751603256944" lon="9.32714126350813"><ele>389.0</ele><time>2026-04-08T14:15:35Z</time></trkpt><trkpt lat="35.10763299694263" lon="9.32727445218225"><ele>388.66666666666663</ele><time>2026-04-08T14:15:36Z</time></trkpt><trkpt lat="35.10775799551072" lon="9.327412277645895"><ele>388.33333333333337</ele><time>2026-04-08T14:15:37Z</time></trkpt><trkpt lat="35.10789203134299" lon="9.3275551878341"><ele>388.0</ele><time>2026-04-08T14:15:38Z</time></trkpt><trkpt lat="35.10803685491832" lon="9.327703172526661"><ele>388.0</ele><time>2026-04-08T14:15:39Z</time></trkpt><trkpt lat="35.108187806106" lon="9.327851463639586"><ele>388.0</ele><time>2026-04-08T14:15:40Z</time></trkpt><trkpt lat="35.10834167914667" lon="9.328002608944018"><ele>388.0</ele><time>2026-04-08T14:15:41Z</time></trkpt><trkpt lat="35.10850628199044" lon="9.328158852355774"><ele>388.0</ele><time>2026-04-08T14:15:42Z</time></trkpt><trkpt lat="35.10867316865213" lon="9.328316162065484"><ele>388.0</ele><time>2026-04-08T14:15:43Z</time></trkpt><trkpt lat="35.1088459115127" lon="9.328475502118376"><ele>388.0</ele><time>2026-04-08T14:15:44Z</time></trkpt><trkpt lat="35.10902304180638" lon="9.328637304677303"><ele>388.33333333333337</ele><time>2026-04-08T14:15:45Z</time></trkpt><trkpt lat="35.10919642167681" lon="9.328799433412282"><ele>388.66666666666663</ele><time>2026-04-08T14:15:46Z</time></trkpt><trkpt lat="35.109372755131666" lon="9.328964711778449"><ele>389.0</ele><time>2026-04-08T14:15:47Z</time></trkpt><trkpt lat="35.1095502195711" lon="9.329132737947148"><ele>389.0</ele><time>2026-04-08T14:15:48Z</time></trkpt><trkpt lat="35.109731506141486" lon="9.329300649965754"><ele>389.0</ele><time>2026-04-08T14:15:49Z</time></trkpt><trkpt lat="35.109916166876516" lon="9.329468880197915"><ele>389.0</ele><time>2026-04-08T14:15:50Z</time></trkpt><trkpt lat="35.11010014767443" lon="9.329637936043744"><ele>389.0</ele><time>2026-04-08T14:15:51Z</time></trkpt><trkpt lat="35.110285604696756" lon="9.32981023401725"><ele>388.0</ele><time>2026-04-08T14:15:52Z</time></trkpt><trkpt lat="35.11046788254204" lon="9.329978770089438"><ele>387.0</ele><time>2026-04-08T14:15:53Z</time></trkpt><trkpt lat="35.11065212689029" lon="9.330147273562089"><ele>387.5</ele><time>2026-04-08T14:15:54Z</time></trkpt><trkpt lat="35.11083503374328" lon="9.330316046828798"><ele>388.0</ele><time>2026-04-08T14:15:55Z</time></trkpt><trkpt lat="35.11101594216769" lon="9.33048417060448"><ele>387.0</ele><time>2026-04-08T14:15:56Z</time></trkpt><trkpt lat="35.11119693361687" lon="9.33065349955061"><ele>386.0</ele><time>2026-04-08T14:15:57Z</time></trkpt><trkpt lat="35.111376833210215" lon="9.330820529788593"><ele>386.0</ele><time>2026-04-08T14:15:58Z</time></trkpt><trkpt lat="35.11155808809747" lon="9.33099069741068"><ele>386.0</ele><time>2026-04-08T14:15:59Z</time></trkpt><trkpt lat="35.11173477947219" lon="9.33116374428369"><ele>386.0</ele><time>2026-04-08T14:16:00Z</time></trkpt><trkpt lat="35.11190614399284" lon="9.331345370786137"><ele>386.0</ele><time>2026-04-08T14:16:01Z</time></trkpt><trkpt lat="35.1120723311208" lon="9.33153577006435"><ele>386.0</ele><time>2026-04-08T14:16:02Z</time></trkpt><trkpt lat="35.112235730187685" lon="9.331734005141227"><ele>386.0</ele><time>2026-04-08T14:16:03Z</time></trkpt><trkpt lat="35.11239525598879" lon="9.331936249898758"><ele>386.0</ele><time>2026-04-08T14:16:04Z</time></trkpt><trkpt lat="35.112554962236885" lon="9.33214203489309"><ele>386.0</ele><time>2026-04-08T14:16:05Z</time></trkpt><trkpt lat="35.11270770227846" lon="9.332349234227161"><ele>385.5</ele><time>2026-04-08T14:16:06Z</time></trkpt><trkpt lat="35.11285880812293" lon="9.33255939602371"><ele>385.0</ele><time>2026-04-08T14:16:07Z</time></trkpt><trkpt lat="35.11301102992245" lon="9.332772977491903"><ele>385.0</ele><time>2026-04-08T14:16:08Z</time></trkpt><trkpt lat="35.11317015488702" lon="9.3329927256434"><ele>385.0</ele><time>2026-04-08T14:16:09Z</time></trkpt><trkpt lat="35.11334331098673" lon="9.333222332940501"><ele>384.5</ele><time>2026-04-08T14:16:10Z</time></trkpt><trkpt lat="35.113525703093295" lon="9.333463272828908"><ele>384.0</ele><time>2026-04-08T14:16:11Z</time></trkpt><trkpt lat="35.113710580221735" lon="9.333712197737103"><ele>384.0</ele><time>2026-04-08T14:16:12Z</time></trkpt><trkpt lat="35.11389261315006" lon="9.333957774208917"><ele>384.0</ele><time>2026-04-08T14:16:13Z</time></trkpt><trkpt lat="35.11407456031045" lon="9.334204707186256"><ele>384.0</ele><time>2026-04-08T14:16:14Z</time></trkpt><trkpt lat="35.114256311293644" lon="9.334446945437293"><ele>384.0</ele><time>2026-04-08T14:16:15Z</time></trkpt><trkpt lat="35.11443806999213" lon="9.334691261513699"><ele>383.0</ele><time>2026-04-08T14:16:16Z</time></trkpt><trkpt lat="35.1146217198873" lon="9.334936399481151"><ele>382.0</ele><time>2026-04-08T14:16:17Z</time></trkpt><trkpt lat="35.11480528660977" lon="9.335179014254463"><ele>382.0</ele><time>2026-04-08T14:16:18Z</time></trkpt><trkpt lat="35.11499154375391" lon="9.335419979582667"><ele>382.0</ele><time>2026-04-08T14:16:19Z</time></trkpt><trkpt lat="35.115179642689945" lon="9.335659224142045"><ele>382.0</ele><time>2026-04-08T14:16:20Z</time></trkpt><trkpt lat="35.115366471456284" lon="9.335894773642266"><ele>382.0</ele><time>2026-04-08T14:16:21Z</time></trkpt><trkpt lat="35.115553877791136" lon="9.336129717124594"><ele>382.0</ele><time>2026-04-08T14:16:22Z</time></trkpt><trkpt lat="35.115742254899104" lon="9.336364919097383"><ele>382.0</ele><time>2026-04-08T14:16:23Z</time></trkpt><trkpt lat="35.11593143249753" lon="9.336597754912319"><ele>382.0</ele><time>2026-04-08T14:16:24Z</time></trkpt><trkpt lat="35.11612037116868" lon="9.336829484471723"><ele>382.0</ele><time>2026-04-08T14:16:25Z</time></trkpt><trkpt lat="35.11630775276491" lon="9.33706120201271"><ele>382.0</ele><time>2026-04-08T14:16:26Z</time></trkpt><trkpt lat="35.11649531702245" lon="9.337296394360427"><ele>382.0</ele><time>2026-04-08T14:16:27Z</time></trkpt><trkpt lat="35.116687205323046" lon="9.337531037616468"><ele>382.0</ele><time>2026-04-08T14:16:28Z</time></trkpt><trkpt lat="35.11688094579193" lon="9.337770289080662"><ele>382.0</ele><time>2026-04-08T14:16:29Z</time></trkpt><trkpt lat="35.11707511180931" lon="9.338008883500951"><ele>381.0</ele><time>2026-04-08T14:16:30Z</time></trkpt><trkpt lat="35.117269468421135" lon="9.338251200628786"><ele>380.0</ele><time>2026-04-08T14:16:31Z</time></trkpt><trkpt lat="35.11745751731937" lon="9.338491447182093"><ele>380.0</ele><time>2026-04-08T14:16:32Z</time></trkpt><trkpt lat="35.11764906906589" lon="9.33873709342143"><ele>380.0</ele><time>2026-04-08T14:16:33Z</time></trkpt><trkpt lat="35.117838368083625" lon="9.338984042693495"><ele>379.0</ele><time>2026-04-08T14:16:34Z</time></trkpt><trkpt lat="35.11802768302411" lon="9.339232868787956"><ele>378.0</ele><time>2026-04-08T14:16:35Z</time></trkpt><trkpt lat="35.118211745435026" lon="9.339482785517935"><ele>379.0</ele><time>2026-04-08T14:16:36Z</time></trkpt><trkpt lat="35.11838960535064" lon="9.339737732307842"><ele>380.0</ele><time>2026-04-08T14:16:37Z</time></trkpt><trkpt lat="35.11856161117813" lon="9.339999786149702"><ele>380.0</ele><time>2026-04-08T14:16:38Z</time></trkpt><trkpt lat="35.118728382309705" lon="9.34026280588526"><ele>380.0</ele><time>2026-04-08T14:16:39Z</time></trkpt><trkpt lat="35.11890140620981" lon="9.340521376206993"><ele>379.0</ele><time>2026-04-08T14:16:40Z</time></trkpt><trkpt lat="35.1190784275375" lon="9.340774783327417"><ele>378.0</ele><time>2026-04-08T14:16:41Z</time></trkpt><trkpt lat="35.11925406737348" lon="9.34103759764874"><ele>378.0</ele><time>2026-04-08T14:16:42Z</time></trkpt><trkpt lat="35.11942339190445" lon="9.341298353741672"><ele>378.0</ele><time>2026-04-08T14:16:43Z</time></trkpt><trkpt lat="35.119594646378495" lon="9.341562024725924"><ele>378.0</ele><time>2026-04-08T14:16:44Z</time></trkpt><trkpt lat="35.11976931806468" lon="9.341821717634224"><ele>378.0</ele><time>2026-04-08T14:16:45Z</time></trkpt><trkpt lat="35.1199435923196" lon="9.342079490664032"><ele>376.0</ele><time>2026-04-08T14:16:46Z</time></trkpt><trkpt lat="35.12011880328025" lon="9.342339261245296"><ele>374.0</ele><time>2026-04-08T14:16:47Z</time></trkpt><trkpt lat="35.12029358771634" lon="9.342599976850199"><ele>374.0</ele><time>2026-04-08T14:16:48Z</time></trkpt><trkpt lat="35.12046662235232" lon="9.342859671043758"><ele>374.0</ele><time>2026-04-08T14:16:49Z</time></trkpt><trkpt lat="35.12064083122007" lon="9.34312175089666"><ele>373.5</ele><time>2026-04-08T14:16:50Z</time></trkpt><trkpt lat="35.12081539690521" lon="9.343385388005396"><ele>373.0</ele><time>2026-04-08T14:16:51Z</time></trkpt><trkpt lat="35.12099178598719" lon="9.343649993203679"><ele>372.0</ele><time>2026-04-08T14:16:52Z</time></trkpt><trkpt lat="35.12117088083744" lon="9.343903494887481"><ele>371.0</ele><time>2026-04-08T14:16:53Z</time></trkpt><trkpt lat="35.12135408470214" lon="9.344145303430443"><ele>371.0</ele><time>2026-04-08T14:16:54Z</time></trkpt><trkpt lat="35.12154334950313" lon="9.344386833913953"><ele>371.0</ele><time>2026-04-08T14:16:55Z</time></trkpt><trkpt lat="35.12174216861166" lon="9.34461706091651"><ele>370.0</ele><time>2026-04-08T14:16:56Z</time></trkpt><trkpt lat="35.121947554535964" lon="9.344828597944113"><ele>369.0</ele><time>2026-04-08T14:16:57Z</time></trkpt><trkpt lat="35.12216252632831" lon="9.345045317037457"><ele>369.0</ele><time>2026-04-08T14:16:58Z</time></trkpt><trkpt lat="35.122374194424424" lon="9.345258103729291"><ele>369.0</ele><time>2026-04-08T14:16:59Z</time></trkpt><trkpt lat="35.12258180095324" lon="9.345476310046246"><ele>369.0</ele><time>2026-04-08T14:17:00Z</time></trkpt><trkpt lat="35.12278671684733" lon="9.345696958714559"><ele>369.0</ele><time>2026-04-08T14:17:01Z</time></trkpt><trkpt lat="35.12299326334188" lon="9.345919533199465"><ele>369.0</ele><time>2026-04-08T14:17:02Z</time></trkpt><trkpt lat="35.12319824271365" lon="9.346141401362878"><ele>369.0</ele><time>2026-04-08T14:17:03Z</time></trkpt><trkpt lat="35.123392019669055" lon="9.346349059677264"><ele>368.0</ele><time>2026-04-08T14:17:04Z</time></trkpt><trkpt lat="35.12358820249388" lon="9.346558099874484"><ele>367.0</ele><time>2026-04-08T14:17:05Z</time></trkpt><trkpt lat="35.12378463837395" lon="9.346774185741257"><ele>367.0</ele><time>2026-04-08T14:17:06Z</time></trkpt><trkpt lat="35.123986849743766" lon="9.346987422785048"><ele>367.0</ele><time>2026-04-08T14:17:07Z</time></trkpt><trkpt lat="35.124186652794336" lon="9.347201847472073"><ele>366.5</ele><time>2026-04-08T14:17:08Z</time></trkpt><trkpt lat="35.12438988809635" lon="9.347417165086565"><ele>366.0</ele><time>2026-04-08T14:17:09Z</time></trkpt><trkpt lat="35.124591934846144" lon="9.347636101966168"><ele>366.0</ele><time>2026-04-08T14:17:10Z</time></trkpt><trkpt lat="35.12479806160326" lon="9.347858129230248"><ele>366.0</ele><time>2026-04-08T14:17:11Z</time></trkpt><trkpt lat="35.125008537205545" lon="9.348078105451382"><ele>364.5</ele><time>2026-04-08T14:17:12Z</time></trkpt><trkpt lat="35.125217745948206" lon="9.348299858063383"><ele>363.0</ele><time>2026-04-08T14:17:13Z</time></trkpt><trkpt lat="35.12542571781653" lon="9.34852186750563"><ele>363.0</ele><time>2026-04-08T14:17:14Z</time></trkpt><trkpt lat="35.12563284666365" lon="9.348746029096713"><ele>363.0</ele><time>2026-04-08T14:17:15Z</time></trkpt><trkpt lat="35.125840443230715" lon="9.348973537374071"><ele>363.5</ele><time>2026-04-08T14:17:16Z</time></trkpt><trkpt lat="35.1260509271548" lon="9.349200165528154"><ele>364.0</ele><time>2026-04-08T14:17:17Z</time></trkpt><trkpt lat="35.12626156637029" lon="9.349421008377126"><ele>364.0</ele><time>2026-04-08T14:17:18Z</time></trkpt><trkpt lat="35.126470231186374" lon="9.349640204486098"><ele>364.0</ele><time>2026-04-08T14:17:19Z</time></trkpt><trkpt lat="35.12667643801094" lon="9.349856634319018"><ele>362.0</ele><time>2026-04-08T14:17:20Z</time></trkpt><trkpt lat="35.126879672849924" lon="9.350069823553717"><ele>360.0</ele><time>2026-04-08T14:17:21Z</time></trkpt><trkpt lat="35.127080016434135" lon="9.35027975076245"><ele>360.0</ele><time>2026-04-08T14:17:22Z</time></trkpt><trkpt lat="35.12727463743725" lon="9.350492641544767"><ele>360.0</ele><time>2026-04-08T14:17:23Z</time></trkpt><trkpt lat="35.12746696055767" lon="9.350702339888967"><ele>360.5</ele><time>2026-04-08T14:17:24Z</time></trkpt><trkpt lat="35.12766125856992" lon="9.35091389150306"><ele>361.0</ele><time>2026-04-08T14:17:25Z</time></trkpt><trkpt lat="35.1278538311706" lon="9.351124231202624"><ele>361.0</ele><time>2026-04-08T14:17:26Z</time></trkpt><trkpt lat="35.12804312715136" lon="9.351329596104318"><ele>361.0</ele><time>2026-04-08T14:17:27Z</time></trkpt><trkpt lat="35.12823637447954" lon="9.351536410555129"><ele>360.5</ele><time>2026-04-08T14:17:28Z</time></trkpt><trkpt lat="35.12842877819843" lon="9.35173962950524"><ele>360.0</ele><time>2026-04-08T14:17:29Z</time></trkpt><trkpt lat="35.12860659268381" lon="9.35192750558759"><ele>360.0</ele><time>2026-04-08T14:17:30Z</time></trkpt><trkpt lat="35.12877769499007" lon="9.35210993884905"><ele>360.0</ele><time>2026-04-08T14:17:31Z</time></trkpt><trkpt lat="35.128941199561446" lon="9.352285459379397"><ele>360.0</ele><time>2026-04-08T14:17:32Z</time></trkpt><trkpt lat="35.129101331761646" lon="9.352457747657771"><ele>359.3333333333333</ele><time>2026-04-08T14:17:33Z</time></trkpt><trkpt lat="35.129258446283416" lon="9.352622255731642"><ele>358.66666666666663</ele><time>2026-04-08T14:17:34Z</time></trkpt><trkpt lat="35.12941438484181" lon="9.35278805022744"><ele>358.0</ele><time>2026-04-08T14:17:35Z</time></trkpt><trkpt lat="35.1295703351631" lon="9.35295401465955"><ele>357.3333333333333</ele><time>2026-04-08T14:17:36Z</time></trkpt><trkpt lat="35.129731367724844" lon="9.353125183337541"><ele>356.6666666666667</ele><time>2026-04-08T14:17:37Z</time></trkpt><trkpt lat="35.12989574271116" lon="9.35329872891059"><ele>356.0</ele><time>2026-04-08T14:17:38Z</time></trkpt><trkpt lat="35.130060403697925" lon="9.353476861490615"><ele>356.0</ele><time>2026-04-08T14:17:39Z</time></trkpt><trkpt lat="35.130222541614735" lon="9.353652706635181"><ele>356.0</ele><time>2026-04-08T14:17:40Z</time></trkpt><trkpt lat="35.130392061917064" lon="9.353836933888804"><ele>356.0</ele><time>2026-04-08T14:17:41Z</time></trkpt><trkpt lat="35.13056036782804" lon="9.354018590751618"><ele>355.5</ele><time>2026-04-08T14:17:42Z</time></trkpt><trkpt lat="35.13073129835779" lon="9.354199836816646"><ele>355.0</ele><time>2026-04-08T14:17:43Z</time></trkpt><trkpt lat="35.130914904098475" lon="9.354387455199182"><ele>355.0</ele><time>2026-04-08T14:17:44Z</time></trkpt><trkpt lat="35.13110498041697" lon="9.354581805946642"><ele>355.0</ele><time>2026-04-08T14:17:45Z</time></trkpt><trkpt lat="35.131299567574096" lon="9.35477998314804"><ele>354.5</ele><time>2026-04-08T14:17:46Z</time></trkpt><trkpt lat="35.13149558251926" lon="9.35498484404844"><ele>354.0</ele><time>2026-04-08T14:17:47Z</time></trkpt><trkpt lat="35.13168700173423" lon="9.355190039167539"><ele>354.0</ele><time>2026-04-08T14:17:48Z</time></trkpt><trkpt lat="35.13188623662533" lon="9.35539767300295"><ele>354.0</ele><time>2026-04-08T14:17:49Z</time></trkpt><trkpt lat="35.132094028186145" lon="9.355606910260924"><ele>353.5</ele><time>2026-04-08T14:17:50Z</time></trkpt><trkpt lat="35.13230039361561" lon="9.355817140236438"><ele>353.0</ele><time>2026-04-08T14:17:51Z</time></trkpt><trkpt lat="35.13250152720543" lon="9.356028816271445"><ele>352.5</ele><time>2026-04-08T14:17:52Z</time></trkpt><trkpt lat="35.13269282180227" lon="9.356245834443762"><ele>352.0</ele><time>2026-04-08T14:17:53Z</time></trkpt><trkpt lat="35.13287715195191" lon="9.356465615180205"><ele>352.0</ele><time>2026-04-08T14:17:54Z</time></trkpt><trkpt lat="35.13305763565286" lon="9.35667307010491"><ele>352.0</ele><time>2026-04-08T14:17:55Z</time></trkpt><trkpt lat="35.13324871989027" lon="9.356880490053381"><ele>352.0</ele><time>2026-04-08T14:17:56Z</time></trkpt><trkpt lat="35.13344149179625" lon="9.357087653339713"><ele>352.0</ele><time>2026-04-08T14:17:57Z</time></trkpt><trkpt lat="35.13363676560935" lon="9.35729933465223"><ele>352.0</ele><time>2026-04-08T14:17:58Z</time></trkpt><trkpt lat="35.13383573383187" lon="9.357510690610892"><ele>352.0</ele><time>2026-04-08T14:17:59Z</time></trkpt><trkpt lat="35.13403651412841" lon="9.357721734153367"><ele>353.5</ele><time>2026-04-08T14:18:00Z</time></trkpt><trkpt lat="35.1342363515391" lon="9.35793470238627"><ele>355.0</ele><time>2026-04-08T14:18:01Z</time></trkpt><trkpt lat="35.13443716358397" lon="9.35814937931536"><ele>355.0</ele><time>2026-04-08T14:18:02Z</time></trkpt><trkpt lat="35.134633502550614" lon="9.358359740299905"><ele>355.0</ele><time>2026-04-08T14:18:03Z</time></trkpt><trkpt lat="35.13482806156809" lon="9.358562424010968"><ele>355.0</ele><time>2026-04-08T14:18:04Z</time></trkpt><trkpt lat="35.13501049928475" lon="9.35875620423887"><ele>355.0</ele><time>2026-04-08T14:18:05Z</time></trkpt><trkpt lat="35.13518274262723" lon="9.358939908959151"><ele>355.0</ele><time>2026-04-08T14:18:06Z</time></trkpt><trkpt lat="35.135357117180185" lon="9.359131678685142"><ele>355.0</ele><time>2026-04-08T14:18:07Z</time></trkpt><trkpt lat="35.13552916460225" lon="9.359320084283624"><ele>355.0</ele><time>2026-04-08T14:18:08Z</time></trkpt><trkpt lat="35.13569800201679" lon="9.359500837050371"><ele>355.0</ele><time>2026-04-08T14:18:09Z</time></trkpt><trkpt lat="35.13585839281805" lon="9.359666996950267"><ele>355.0</ele><time>2026-04-08T14:18:10Z</time></trkpt><trkpt lat="35.13601685211922" lon="9.359820088156098"><ele>355.3333333333333</ele><time>2026-04-08T14:18:11Z</time></trkpt><trkpt lat="35.13618464775013" lon="9.359964377236848"><ele>355.6666666666667</ele><time>2026-04-08T14:18:12Z</time></trkpt><trkpt lat="35.13636817030014" lon="9.360099182158324"><ele>356.0</ele><time>2026-04-08T14:18:13Z</time></trkpt><trkpt lat="35.13655803816702" lon="9.360218963228537"><ele>357.0</ele><time>2026-04-08T14:18:14Z</time></trkpt><trkpt lat="35.136747512655774" lon="9.360327707237488"><ele>358.0</ele><time>2026-04-08T14:18:15Z</time></trkpt><trkpt lat="35.1369411130075" lon="9.360428288682597"><ele>359.0</ele><time>2026-04-08T14:18:16Z</time></trkpt><trkpt lat="35.13714044424436" lon="9.36051872453146"><ele>358.6666666666667</ele><time>2026-04-08T14:18:17Z</time></trkpt><trkpt lat="35.13734072609669" lon="9.360595039291141"><ele>358.3333333333333</ele><time>2026-04-08T14:18:18Z</time></trkpt><trkpt lat="35.137531732554706" lon="9.360656699151301"><ele>358.0</ele><time>2026-04-08T14:18:19Z</time></trkpt><trkpt lat="35.13771464470568" lon="9.360708044130948"><ele>357.66666666666663</ele><time>2026-04-08T14:18:20Z</time></trkpt><trkpt lat="35.137892798414384" lon="9.360751579973456"><ele>357.3333333333333</ele><time>2026-04-08T14:18:21Z</time></trkpt><trkpt lat="35.138060130780474" lon="9.360786846258199"><ele>357.0</ele><time>2026-04-08T14:18:22Z</time></trkpt><trkpt lat="35.13821949292199" lon="9.360824363525905"><ele>357.0</ele><time>2026-04-08T14:18:23Z</time></trkpt><trkpt lat="35.13837400825597" lon="9.360864388099637"><ele>357.0</ele><time>2026-04-08T14:18:24Z</time></trkpt><trkpt lat="35.13851627484072" lon="9.360904774292992"><ele>357.0</ele><time>2026-04-08T14:18:25Z</time></trkpt><trkpt lat="35.13864769890291" lon="9.360943226173589"><ele>357.0</ele><time>2026-04-08T14:18:26Z</time></trkpt><trkpt lat="35.13876861453132" lon="9.36098215776398"><ele>357.0</ele><time>2026-04-08T14:18:27Z</time></trkpt><trkpt lat="35.138869426845986" lon="9.361014754217724"><ele>357.0</ele><time>2026-04-08T14:18:28Z</time></trkpt><trkpt lat="35.13895780074303" lon="9.361058854446549"><ele>357.0</ele><time>2026-04-08T14:18:30Z</time></trkpt><trkpt lat="35.139003484147665" lon="9.3611313118443"><ele>357.0</ele><time>2026-04-08T14:18:34Z</time></trkpt><trkpt lat="35.139107334241885" lon="9.361216053610454"><ele>357.0</ele><time>2026-04-08T14:18:36Z</time></trkpt><trkpt lat="35.13918264077671" lon="9.361238830697836"><ele>357.40000000000003</ele><time>2026-04-08T14:18:37Z</time></trkpt><trkpt lat="35.13927082400938" lon="9.361228099140456"><ele>357.8</ele><time>2026-04-08T14:18:38Z</time></trkpt><trkpt lat="35.139375247863626" lon="9.36119122768104"><ele>358.2</ele><time>2026-04-08T14:18:39Z</time></trkpt><trkpt lat="35.13948072265126" lon="9.361160836297477"><ele>358.6</ele><time>2026-04-08T14:18:40Z</time></trkpt><trkpt lat="35.13958649070393" lon="9.361176382777549"><ele>359.0</ele><time>2026-04-08T14:18:41Z</time></trkpt><trkpt lat="35.13972310135238" lon="9.361225786865159"><ele>359.0</ele><time>2026-04-08T14:18:42Z</time></trkpt><trkpt lat="35.13985881457769" lon="9.361273123906237"><ele>359.0</ele><time>2026-04-08T14:18:43Z</time></trkpt><trkpt lat="35.13998699583521" lon="9.361305840560298"><ele>359.0</ele><time>2026-04-08T14:18:44Z</time></trkpt><trkpt lat="35.1401189433673" lon="9.361336134193094"><ele>359.0</ele><time>2026-04-08T14:18:45Z</time></trkpt><trkpt lat="35.14025732320494" lon="9.361369573981568"><ele>358.33333333333337</ele><time>2026-04-08T14:18:46Z</time></trkpt><trkpt lat="35.14039983955217" lon="9.361406189981631"><ele>357.6666666666667</ele><time>2026-04-08T14:18:47Z</time></trkpt><trkpt lat="35.14054718835491" lon="9.361442790788052"><ele>357.0</ele><time>2026-04-08T14:18:48Z</time></trkpt><trkpt lat="35.14069867889099" lon="9.36147788011441"><ele>356.6666666666667</ele><time>2026-04-08T14:18:49Z</time></trkpt><trkpt lat="35.14085982850538" lon="9.361518308701593"><ele>356.33333333333337</ele><time>2026-04-08T14:18:50Z</time></trkpt><trkpt lat="35.141025825382435" lon="9.361561419921195"><ele>356.0</ele><time>2026-04-08T14:18:51Z</time></trkpt><trkpt lat="35.14118426088681" lon="9.361602707771041"><ele>356.0</ele><time>2026-04-08T14:18:52Z</time></trkpt><trkpt lat="35.14134725084376" lon="9.361648231212992"><ele>356.0</ele><time>2026-04-08T14:18:53Z</time></trkpt><trkpt lat="35.14152064211523" lon="9.361693475369833"><ele>356.0</ele><time>2026-04-08T14:18:54Z</time></trkpt><trkpt lat="35.141711306225034" lon="9.361742710186437"><ele>355.0</ele><time>2026-04-08T14:18:55Z</time></trkpt><trkpt lat="35.14190532751621" lon="9.361790946789862"><ele>354.0</ele><time>2026-04-08T14:18:56Z</time></trkpt><trkpt lat="35.1420946049682" lon="9.361835998593005"><ele>353.0</ele><time>2026-04-08T14:18:57Z</time></trkpt><trkpt lat="35.14228262588877" lon="9.361882291193137"><ele>352.33333333333337</ele><time>2026-04-08T14:18:58Z</time></trkpt><trkpt lat="35.142469156239926" lon="9.361931774925994"><ele>351.6666666666667</ele><time>2026-04-08T14:18:59Z</time></trkpt><trkpt lat="35.142655656737816" lon="9.361983300761185"><ele>351.0</ele><time>2026-04-08T14:19:00Z</time></trkpt><trkpt lat="35.14284191095438" lon="9.362037799571278"><ele>351.0</ele><time>2026-04-08T14:19:01Z</time></trkpt><trkpt lat="35.14302949626399" lon="9.362088457914977"><ele>351.0</ele><time>2026-04-08T14:19:02Z</time></trkpt><trkpt lat="35.14321435889297" lon="9.362135628030869"><ele>351.0</ele><time>2026-04-08T14:19:03Z</time></trkpt><trkpt lat="35.1433994679671" lon="9.362181734964915"><ele>350.6666666666667</ele><time>2026-04-08T14:19:04Z</time></trkpt><trkpt lat="35.143587222524395" lon="9.362228480014416"><ele>350.33333333333337</ele><time>2026-04-08T14:19:05Z</time></trkpt><trkpt lat="35.14377804480475" lon="9.362274227039688"><ele>350.0</ele><time>2026-04-08T14:19:06Z</time></trkpt><trkpt lat="35.14396741585982" lon="9.362322207751367"><ele>350.0</ele><time>2026-04-08T14:19:07Z</time></trkpt><trkpt lat="35.14415703986186" lon="9.362373680128629"><ele>350.0</ele><time>2026-04-08T14:19:08Z</time></trkpt><trkpt lat="35.14434448492593" lon="9.362425163387593"><ele>350.0</ele><time>2026-04-08T14:19:09Z</time></trkpt><trkpt lat="35.144535450384595" lon="9.362479702482748"><ele>350.0</ele><time>2026-04-08T14:19:10Z</time></trkpt><trkpt lat="35.14471393835823" lon="9.362528456316035"><ele>350.0</ele><time>2026-04-08T14:19:11Z</time></trkpt><trkpt lat="35.144880381963596" lon="9.362573314693098"><ele>350.0</ele><time>2026-04-08T14:19:12Z</time></trkpt><trkpt lat="35.14504079250963" lon="9.362616813904467"><ele>350.75</ele><time>2026-04-08T14:19:13Z</time></trkpt><trkpt lat="35.14519212387439" lon="9.36265766485334"><ele>351.5</ele><time>2026-04-08T14:19:14Z</time></trkpt><trkpt lat="35.14532955365896" lon="9.36269448107921"><ele>352.25</ele><time>2026-04-08T14:19:15Z</time></trkpt><trkpt lat="35.14546536454631" lon="9.362730501914497"><ele>353.0</ele><time>2026-04-08T14:19:16Z</time></trkpt><trkpt lat="35.14559208884091" lon="9.362766414995647"><ele>353.0</ele><time>2026-04-08T14:19:17Z</time></trkpt><trkpt lat="35.145719156613325" lon="9.36280498512684"><ele>353.0</ele><time>2026-04-08T14:19:18Z</time></trkpt><trkpt lat="35.14583930072831" lon="9.362840516157547"><ele>353.0</ele><time>2026-04-08T14:19:19Z</time></trkpt><trkpt lat="35.1459553490244" lon="9.362871701938241"><ele>353.0</ele><time>2026-04-08T14:19:20Z</time></trkpt><trkpt lat="35.14606839864173" lon="9.362902598643302"><ele>353.0</ele><time>2026-04-08T14:19:21Z</time></trkpt><trkpt lat="35.14618046783766" lon="9.362933030999216"><ele>353.0</ele><time>2026-04-08T14:19:22Z</time></trkpt><trkpt lat="35.14628150442423" lon="9.36295738510016"><ele>353.0</ele><time>2026-04-08T14:19:23Z</time></trkpt><trkpt lat="35.146373627894164" lon="9.362979268733534"><ele>353.0</ele><time>2026-04-08T14:19:24Z</time></trkpt><trkpt lat="35.146460863276" lon="9.363003620788632"><ele>353.0</ele><time>2026-04-08T14:19:25Z</time></trkpt><trkpt lat="35.14653454298994" lon="9.363021858160986"><ele>352.7142857142857</ele><time>2026-04-08T14:19:26Z</time></trkpt><trkpt lat="35.14661157004602" lon="9.36304199339749"><ele>352.42857142857144</ele><time>2026-04-08T14:19:27Z</time></trkpt><trkpt lat="35.14668466820333" lon="9.363062580237449"><ele>352.14285714285717</ele><time>2026-04-08T14:19:28Z</time></trkpt><trkpt lat="35.14674584410594" lon="9.363087712678418"><ele>351.8571428571429</ele><time>2026-04-08T14:19:29Z</time></trkpt><trkpt lat="35.146805960243384" lon="9.363115844668252"><ele>351.57142857142856</ele><time>2026-04-08T14:19:30Z</time></trkpt><trkpt lat="35.146864928206504" lon="9.363145401304326"><ele>351.28571428571433</ele><time>2026-04-08T14:19:31Z</time></trkpt><trkpt lat="35.14691836059485" lon="9.363187166548704"><ele>351.0</ele><time>2026-04-08T14:19:32Z</time></trkpt><trkpt lat="35.14696305559713" lon="9.363242273174599"><ele>351.0</ele><time>2026-04-08T14:19:33Z</time></trkpt><trkpt lat="35.14700929673166" lon="9.363295012876197"><ele>351.0</ele><time>2026-04-08T14:19:34Z</time></trkpt><trkpt lat="35.14711664942365" lon="9.363341342531397"><ele>351.0</ele><time>2026-04-08T14:19:36Z</time></trkpt><trkpt lat="35.14723271694777" lon="9.363315938590496"><ele>351.0</ele><time>2026-04-08T14:19:38Z</time></trkpt><trkpt lat="35.147308137863995" lon="9.363299022951647"><ele>351.0</ele><time>2026-04-08T14:19:39Z</time></trkpt><trkpt lat="35.14740127465632" lon="9.363291536040101"><ele>351.25</ele><time>2026-04-08T14:19:40Z</time></trkpt><trkpt lat="35.147515077391674" lon="9.363297149942262"><ele>351.5</ele><time>2026-04-08T14:19:41Z</time></trkpt><trkpt lat="35.14763672329371" lon="9.363310936768348"><ele>351.75</ele><time>2026-04-08T14:19:42Z</time></trkpt><trkpt lat="35.14776654602506" lon="9.363333057286114"><ele>352.0</ele><time>2026-04-08T14:19:43Z</time></trkpt><trkpt lat="35.147900746687796" lon="9.36335942685481"><ele>352.0</ele><time>2026-04-08T14:19:44Z</time></trkpt><trkpt lat="35.14803860941265" lon="9.363390555143415"><ele>352.0</ele><time>2026-04-08T14:19:45Z</time></trkpt><trkpt lat="35.148181924763776" lon="9.36342674141199"><ele>352.0</ele><time>2026-04-08T14:19:46Z</time></trkpt><trkpt lat="35.14832996580824" lon="9.363470886018048"><ele>352.0</ele><time>2026-04-08T14:19:47Z</time></trkpt><trkpt lat="35.14849927209463" lon="9.363522766997956"><ele>352.3333333333333</ele><time>2026-04-08T14:19:48Z</time></trkpt><trkpt lat="35.14868290637769" lon="9.363577918350138"><ele>352.6666666666667</ele><time>2026-04-08T14:19:49Z</time></trkpt><trkpt lat="35.14884815640252" lon="9.363616958555363"><ele>353.0</ele><time>2026-04-08T14:19:50Z</time></trkpt><trkpt lat="35.14900795061226" lon="9.363656028651343"><ele>352.6666666666667</ele><time>2026-04-08T14:19:51Z</time></trkpt><trkpt lat="35.14917344154287" lon="9.363700749562243"><ele>352.3333333333333</ele><time>2026-04-08T14:19:52Z</time></trkpt><trkpt lat="35.149345113464136" lon="9.363747161089425"><ele>352.0</ele><time>2026-04-08T14:19:53Z</time></trkpt><trkpt lat="35.14951820562586" lon="9.363795400507236"><ele>352.0</ele><time>2026-04-08T14:19:54Z</time></trkpt><trkpt lat="35.149693348808576" lon="9.363846965911488"><ele>352.0</ele><time>2026-04-08T14:19:55Z</time></trkpt><trkpt lat="35.14987400782484" lon="9.36390138205532"><ele>352.0</ele><time>2026-04-08T14:19:56Z</time></trkpt><trkpt lat="35.15005647829826" lon="9.363955107120315"><ele>351.3333333333333</ele><time>2026-04-08T14:19:57Z</time></trkpt><trkpt lat="35.15024264292288" lon="9.364007601324731"><ele>350.6666666666667</ele><time>2026-04-08T14:19:58Z</time></trkpt><trkpt lat="35.150430579678975" lon="9.36405886050215"><ele>350.0</ele><time>2026-04-08T14:19:59Z</time></trkpt><trkpt lat="35.15062030336694" lon="9.364109646779127"><ele>349.6666666666667</ele><time>2026-04-08T14:20:00Z</time></trkpt><trkpt lat="35.15081822936584" lon="9.364162344925937"><ele>349.3333333333333</ele><time>2026-04-08T14:20:00.999Z</time></trkpt><trkpt lat="35.1510125880752" lon="9.364213720902253"><ele>349.0</ele><time>2026-04-08T14:20:01.999Z</time></trkpt><trkpt lat="35.151201324234385" lon="9.364267187999152"><ele>349.0</ele><time>2026-04-08T14:20:02.999Z</time></trkpt><trkpt lat="35.15139192923133" lon="9.364320278461443"><ele>349.0</ele><time>2026-04-08T14:20:03.999Z</time></trkpt><trkpt lat="35.151585564698564" lon="9.364369525394187"><ele>349.0</ele><time>2026-04-08T14:20:04.999Z</time></trkpt><trkpt lat="35.151784212263344" lon="9.364419478244884"><ele>348.66666666666663</ele><time>2026-04-08T14:20:05.999Z</time></trkpt><trkpt lat="35.15199356601526" lon="9.364472748658564"><ele>348.3333333333333</ele><time>2026-04-08T14:20:06.999Z</time></trkpt><trkpt lat="35.15220546361415" lon="9.364527537596258"><ele>348.0</ele><time>2026-04-08T14:20:07.999Z</time></trkpt><trkpt lat="35.15242666728351" lon="9.364584104664146"><ele>348.0</ele><time>2026-04-08T14:20:08.999Z</time></trkpt><trkpt lat="35.15265851631885" lon="9.364647189605808"><ele>348.0</ele><time>2026-04-08T14:20:09.999Z</time></trkpt><trkpt lat="35.15290226025638" lon="9.364713910603195"><ele>347.5</ele><time>2026-04-08T14:20:10.999Z</time></trkpt><trkpt lat="35.153149862776274" lon="9.364778360599955"><ele>347.0</ele><time>2026-04-08T14:20:11.999Z</time></trkpt><trkpt lat="35.153401662134186" lon="9.364840033522478"><ele>347.0</ele><time>2026-04-08T14:20:12.999Z</time></trkpt><trkpt lat="35.15366082317762" lon="9.364909214610448"><ele>347.0</ele><time>2026-04-08T14:20:13.999Z</time></trkpt><trkpt lat="35.153927171098275" lon="9.3649867096513"><ele>348.5</ele><time>2026-04-08T14:20:14.999Z</time></trkpt><trkpt lat="35.15419300976754" lon="9.365067667841673"><ele>350.0</ele><time>2026-04-08T14:20:15.999Z</time></trkpt><trkpt lat="35.15445522017204" lon="9.365147096651903"><ele>350.0</ele><time>2026-04-08T14:20:16.999Z</time></trkpt><trkpt lat="35.154713446411385" lon="9.36522570935512"><ele>350.0</ele><time>2026-04-08T14:20:17.999Z</time></trkpt><trkpt lat="35.154964776608445" lon="9.365300696708548"><ele>349.5</ele><time>2026-04-08T14:20:18.999Z</time></trkpt><trkpt lat="35.15521190207494" lon="9.365375893797621"><ele>349.0</ele><time>2026-04-08T14:20:19.999Z</time></trkpt><trkpt lat="35.15546003852671" lon="9.36545272573791"><ele>349.0</ele><time>2026-04-08T14:20:20.999Z</time></trkpt><trkpt lat="35.15569858299056" lon="9.365527170656868"><ele>349.0</ele><time>2026-04-08T14:20:22Z</time></trkpt><trkpt lat="35.155935141833254" lon="9.365606168396415"><ele>349.0</ele><time>2026-04-08T14:20:23Z</time></trkpt><trkpt lat="35.156170536476665" lon="9.365683913317937"><ele>349.0</ele><time>2026-04-08T14:20:24Z</time></trkpt><trkpt lat="35.15641552863224" lon="9.365762618553289"><ele>348.5</ele><time>2026-04-08T14:20:25Z</time></trkpt><trkpt lat="35.15667183143899" lon="9.365844879593357"><ele>348.0</ele><time>2026-04-08T14:20:26Z</time></trkpt><trkpt lat="35.15691861529348" lon="9.365925737898905"><ele>348.0</ele><time>2026-04-08T14:20:27Z</time></trkpt><trkpt lat="35.1571534987925" lon="9.366004167267095"><ele>348.0</ele><time>2026-04-08T14:20:28Z</time></trkpt><trkpt lat="35.15738769632199" lon="9.366082227833216"><ele>347.5</ele><time>2026-04-08T14:20:29Z</time></trkpt><trkpt lat="35.157623071145224" lon="9.36616085972648"><ele>347.0</ele><time>2026-04-08T14:20:30Z</time></trkpt><trkpt lat="35.15785816368631" lon="9.366234947737025"><ele>347.0</ele><time>2026-04-08T14:20:31Z</time></trkpt><trkpt lat="35.15808713313226" lon="9.366307385881509"><ele>347.0</ele><time>2026-04-08T14:20:32Z</time></trkpt><trkpt lat="35.15831654774392" lon="9.366380788927962"><ele>347.5</ele><time>2026-04-08T14:20:33Z</time></trkpt><trkpt lat="35.15854683349719" lon="9.366454304614223"><ele>348.0</ele><time>2026-04-08T14:20:34Z</time></trkpt><trkpt lat="35.15879329833691" lon="9.366530152435235"><ele>348.5</ele><time>2026-04-08T14:20:35Z</time></trkpt><trkpt lat="35.159038425272975" lon="9.366608789185442"><ele>349.0</ele><time>2026-04-08T14:20:36Z</time></trkpt><trkpt lat="35.15927907329899" lon="9.36668500643878"><ele>349.0</ele><time>2026-04-08T14:20:37Z</time></trkpt><trkpt lat="35.15952187729711" lon="9.366758612341831"><ele>349.0</ele><time>2026-04-08T14:20:38Z</time></trkpt><trkpt lat="35.15976135060138" lon="9.366834574211481"><ele>348.5</ele><time>2026-04-08T14:20:39Z</time></trkpt><trkpt lat="35.160005370599066" lon="9.366913504033985"><ele>348.0</ele><time>2026-04-08T14:20:40Z</time></trkpt><trkpt lat="35.1602430506207" lon="9.366991298071495"><ele>348.0</ele><time>2026-04-08T14:20:41Z</time></trkpt><trkpt lat="35.16048093375464" lon="9.367068666287313"><ele>348.0</ele><time>2026-04-08T14:20:42Z</time></trkpt><trkpt lat="35.160715522471264" lon="9.36714502479752"><ele>346.5</ele><time>2026-04-08T14:20:43Z</time></trkpt><trkpt lat="35.16095018502442" lon="9.367219407838405"><ele>345.0</ele><time>2026-04-08T14:20:44Z</time></trkpt><trkpt lat="35.16118755348301" lon="9.367295500045001"><ele>345.0</ele><time>2026-04-08T14:20:45Z</time></trkpt><trkpt lat="35.16142580885208" lon="9.36737310497189"><ele>345.0</ele><time>2026-04-08T14:20:46Z</time></trkpt><trkpt lat="35.16166269228375" lon="9.36745057994719"><ele>345.0</ele><time>2026-04-08T14:20:47Z</time></trkpt><trkpt lat="35.16189791300269" lon="9.36752496360059"><ele>345.0</ele><time>2026-04-08T14:20:48Z</time></trkpt><trkpt lat="35.16213711511834" lon="9.367598412175523"><ele>345.0</ele><time>2026-04-08T14:20:49Z</time></trkpt><trkpt lat="35.162375108411204" lon="9.36767371170931"><ele>345.0</ele><time>2026-04-08T14:20:50Z</time></trkpt><trkpt lat="35.16261198837212" lon="9.367751670703882"><ele>345.0</ele><time>2026-04-08T14:20:51Z</time></trkpt><trkpt lat="35.16284664429222" lon="9.367828248334122"><ele>345.0</ele><time>2026-04-08T14:20:52Z</time></trkpt><trkpt lat="35.16307963491676" lon="9.367905565547781"><ele>345.0</ele><time>2026-04-08T14:20:53Z</time></trkpt><trkpt lat="35.1632964516901" lon="9.367979742364202"><ele>345.0</ele><time>2026-04-08T14:20:54Z</time></trkpt><trkpt lat="35.1635107603263" lon="9.36805541722758"><ele>345.0</ele><time>2026-04-08T14:20:55Z</time></trkpt><trkpt lat="35.16373071717109" lon="9.368131518891655"><ele>345.0</ele><time>2026-04-08T14:20:56Z</time></trkpt><trkpt lat="35.163952056913075" lon="9.368200666760936"><ele>345.0</ele><time>2026-04-08T14:20:57Z</time></trkpt><trkpt lat="35.164176113288924" lon="9.368271986459261"><ele>346.0</ele><time>2026-04-08T14:20:58Z</time></trkpt><trkpt lat="35.16440509898964" lon="9.368342895020767"><ele>347.0</ele><time>2026-04-08T14:20:59Z</time></trkpt><trkpt lat="35.16463559553057" lon="9.368416524379109"><ele>347.0</ele><time>2026-04-08T14:21:00Z</time></trkpt><trkpt lat="35.16486545947799" lon="9.368491738035386"><ele>347.0</ele><time>2026-04-08T14:21:01Z</time></trkpt><trkpt lat="35.16509290093851" lon="9.368567280115492"><ele>347.0</ele><time>2026-04-08T14:21:02Z</time></trkpt><trkpt lat="35.16531413189452" lon="9.368643163076154"><ele>347.0</ele><time>2026-04-08T14:21:03Z</time></trkpt><trkpt lat="35.16553734729513" lon="9.368718891045873"><ele>347.5</ele><time>2026-04-08T14:21:04Z</time></trkpt><trkpt lat="35.165762577556045" lon="9.368788134582756"><ele>348.0</ele><time>2026-04-08T14:21:05Z</time></trkpt><trkpt lat="35.16599176192539" lon="9.368854321451819"><ele>349.5</ele><time>2026-04-08T14:21:06Z</time></trkpt><trkpt lat="35.16622441989942" lon="9.368922582935419"><ele>351.0</ele><time>2026-04-08T14:21:07Z</time></trkpt><trkpt lat="35.16645908081583" lon="9.36899545329323"><ele>350.0</ele><time>2026-04-08T14:21:08Z</time></trkpt><trkpt lat="35.16669204460386" lon="9.369070512795036"><ele>349.0</ele><time>2026-04-08T14:21:09Z</time></trkpt><trkpt lat="35.166927269809506" lon="9.369146845284453"><ele>349.0</ele><time>2026-04-08T14:21:10Z</time></trkpt><trkpt lat="35.167167021862035" lon="9.369226260367785"><ele>349.0</ele><time>2026-04-08T14:21:11Z</time></trkpt><trkpt lat="35.16740733941629" lon="9.369308073031464"><ele>348.0</ele><time>2026-04-08T14:21:12Z</time></trkpt><trkpt lat="35.16764809137449" lon="9.36938936409747"><ele>347.0</ele><time>2026-04-08T14:21:13Z</time></trkpt><trkpt lat="35.16788974397281" lon="9.369465740693242"><ele>347.0</ele><time>2026-04-08T14:21:14Z</time></trkpt><trkpt lat="35.168131954362934" lon="9.3695364419514"><ele>347.0</ele><time>2026-04-08T14:21:15Z</time></trkpt><trkpt lat="35.168372690561526" lon="9.369610096332739"><ele>346.0</ele><time>2026-04-08T14:21:16Z</time></trkpt><trkpt lat="35.16861029552162" lon="9.369685878762931"><ele>345.0</ele><time>2026-04-08T14:21:17Z</time></trkpt><trkpt lat="35.16884456077034" lon="9.369764177716124"><ele>344.5</ele><time>2026-04-08T14:21:18Z</time></trkpt><trkpt lat="35.16907589654099" lon="9.369840381332509"><ele>344.0</ele><time>2026-04-08T14:21:19Z</time></trkpt><trkpt lat="35.16930655288426" lon="9.369915283458413"><ele>344.0</ele><time>2026-04-08T14:21:20Z</time></trkpt><trkpt lat="35.16953844868927" lon="9.369990849385731"><ele>344.0</ele><time>2026-04-08T14:21:21Z</time></trkpt><trkpt lat="35.16977215594082" lon="9.370065730266097"><ele>344.0</ele><time>2026-04-08T14:21:22Z</time></trkpt><trkpt lat="35.17000681886157" lon="9.370141396025963"><ele>344.0</ele><time>2026-04-08T14:21:23Z</time></trkpt><trkpt lat="35.170243463266935" lon="9.370220628887767"><ele>344.0</ele><time>2026-04-08T14:21:24Z</time></trkpt><trkpt lat="35.170483808016975" lon="9.370297014437101"><ele>344.0</ele><time>2026-04-08T14:21:25Z</time></trkpt><trkpt lat="35.17072546078377" lon="9.370373076185126"><ele>343.5</ele><time>2026-04-08T14:21:26Z</time></trkpt><trkpt lat="35.17096323744566" lon="9.37044737190046"><ele>343.0</ele><time>2026-04-08T14:21:27Z</time></trkpt><trkpt lat="35.17120514132049" lon="9.370523987249856"><ele>343.0</ele><time>2026-04-08T14:21:28Z</time></trkpt><trkpt lat="35.171446870763184" lon="9.370600539637513"><ele>343.0</ele><time>2026-04-08T14:21:29Z</time></trkpt><trkpt lat="35.17168636583823" lon="9.37067856005624"><ele>343.0</ele><time>2026-04-08T14:21:30Z</time></trkpt><trkpt lat="35.17192570965418" lon="9.370759884731829"><ele>343.0</ele><time>2026-04-08T14:21:31Z</time></trkpt><trkpt lat="35.17216588527255" lon="9.370839834581677"><ele>343.5</ele><time>2026-04-08T14:21:32Z</time></trkpt><trkpt lat="35.17240647377255" lon="9.370918433709589"><ele>344.0</ele><time>2026-04-08T14:21:33Z</time></trkpt><trkpt lat="35.1726451674326" lon="9.37099276697179"><ele>344.0</ele><time>2026-04-08T14:21:34Z</time></trkpt><trkpt lat="35.17288517747676" lon="9.371063770976786"><ele>344.0</ele><time>2026-04-08T14:21:35Z</time></trkpt><trkpt lat="35.17312715139818" lon="9.371138142316415"><ele>343.5</ele><time>2026-04-08T14:21:36Z</time></trkpt><trkpt lat="35.173366522654504" lon="9.371217437812883"><ele>343.0</ele><time>2026-04-08T14:21:37Z</time></trkpt><trkpt lat="35.173604122024905" lon="9.371298694460696"><ele>343.5</ele><time>2026-04-08T14:21:38Z</time></trkpt><trkpt lat="35.17384295062055" lon="9.371379340523134"><ele>344.0</ele><time>2026-04-08T14:21:39Z</time></trkpt><trkpt lat="35.17408449113409" lon="9.371456089029284"><ele>344.5</ele><time>2026-04-08T14:21:40Z</time></trkpt><trkpt lat="35.174324519952584" lon="9.371532891627982"><ele>345.0</ele><time>2026-04-08T14:21:41Z</time></trkpt><trkpt lat="35.17456541769135" lon="9.371609951443434"><ele>345.0</ele><time>2026-04-08T14:21:42Z</time></trkpt><trkpt lat="35.17480535929338" lon="9.371687482312344"><ele>345.0</ele><time>2026-04-08T14:21:43Z</time></trkpt><trkpt lat="35.1750453490274" lon="9.37176577879844"><ele>344.0</ele><time>2026-04-08T14:21:44Z</time></trkpt><trkpt lat="35.17528468672198" lon="9.371841147956339"><ele>343.0</ele><time>2026-04-08T14:21:45Z</time></trkpt><trkpt lat="35.175527909191636" lon="9.371917570911238"><ele>342.5</ele><time>2026-04-08T14:21:46Z</time></trkpt><trkpt lat="35.1757575736123" lon="9.371991175015836"><ele>342.0</ele><time>2026-04-08T14:21:47Z</time></trkpt><trkpt lat="35.17597758189599" lon="9.372058466307832"><ele>342.0</ele><time>2026-04-08T14:21:48Z</time></trkpt><trkpt lat="35.176193812368346" lon="9.372129772673668"><ele>342.0</ele><time>2026-04-08T14:21:49Z</time></trkpt><trkpt lat="35.17640661173151" lon="9.372199798313737"><ele>342.0</ele><time>2026-04-08T14:21:50Z</time></trkpt><trkpt lat="35.17661795038256" lon="9.372267476862765"><ele>342.3333333333333</ele><time>2026-04-08T14:21:50.999Z</time></trkpt><trkpt lat="35.176827821132726" lon="9.372326839433272"><ele>342.66666666666663</ele><time>2026-04-08T14:21:51.999Z</time></trkpt><trkpt lat="35.177037450782585" lon="9.372376353746901"><ele>343.0</ele><time>2026-04-08T14:21:52.999Z</time></trkpt><trkpt lat="35.1772480317464" lon="9.372419029909647"><ele>343.66666666666663</ele><time>2026-04-08T14:21:53.999Z</time></trkpt><trkpt lat="35.17746119712461" lon="9.372468110115472"><ele>344.3333333333333</ele><time>2026-04-08T14:21:54.999Z</time></trkpt><trkpt lat="35.17767618309245" lon="9.372514541903973"><ele>345.0</ele><time>2026-04-08T14:21:55.999Z</time></trkpt><trkpt lat="35.177897246992984" lon="9.372563648828255"><ele>345.0</ele><time>2026-04-08T14:21:56.999Z</time></trkpt><trkpt lat="35.17812388336399" lon="9.372612643672857"><ele>345.0</ele><time>2026-04-08T14:21:57.999Z</time></trkpt><trkpt lat="35.17835542063766" lon="9.372663879027112"><ele>345.0</ele><time>2026-04-08T14:21:58.999Z</time></trkpt><trkpt lat="35.17858989185342" lon="9.372716620302079"><ele>345.0</ele><time>2026-04-08T14:21:59.999Z</time></trkpt><trkpt lat="35.178822634024364" lon="9.372769073726424"><ele>344.0</ele><time>2026-04-08T14:22:00.999Z</time></trkpt><trkpt lat="35.17905429900386" lon="9.372818442882691"><ele>343.0</ele><time>2026-04-08T14:22:01.999Z</time></trkpt><trkpt lat="35.17929012719708" lon="9.372870290664224"><ele>343.0</ele><time>2026-04-08T14:22:02.999Z</time></trkpt><trkpt lat="35.17952945855297" lon="9.37292293967867"><ele>343.0</ele><time>2026-04-08T14:22:03.999Z</time></trkpt><trkpt lat="35.17977294649926" lon="9.372974593257851"><ele>343.0</ele><time>2026-04-08T14:22:04.999Z</time></trkpt><trkpt lat="35.18001700469555" lon="9.373019868215572"><ele>343.0</ele><time>2026-04-08T14:22:05.999Z</time></trkpt><trkpt lat="35.18026290985758" lon="9.373067861578127"><ele>343.0</ele><time>2026-04-08T14:22:06.999Z</time></trkpt><trkpt lat="35.18051154354477" lon="9.373122828546098"><ele>343.0</ele><time>2026-04-08T14:22:07.999Z</time></trkpt><trkpt lat="35.18077458131231" lon="9.373175986637374"><ele>342.5</ele><time>2026-04-08T14:22:08.999Z</time></trkpt><trkpt lat="35.18106816627925" lon="9.373232846703864"><ele>342.0</ele><time>2026-04-08T14:22:09.999Z</time></trkpt><trkpt lat="35.181378582154274" lon="9.373306824247516"><ele>341.5</ele><time>2026-04-08T14:22:10.999Z</time></trkpt><trkpt lat="35.181675351830044" lon="9.373385578462992"><ele>341.0</ele><time>2026-04-08T14:22:11.999Z</time></trkpt><trkpt lat="35.18195058055256" lon="9.373452332778754"><ele>341.0</ele><time>2026-04-08T14:22:12.999Z</time></trkpt><trkpt lat="35.182227149076226" lon="9.373521150716106"><ele>341.0</ele><time>2026-04-08T14:22:13.999Z</time></trkpt><trkpt lat="35.18250125285418" lon="9.37358727274382"><ele>342.0</ele><time>2026-04-08T14:22:14.999Z</time></trkpt><trkpt lat="35.182772128487954" lon="9.373647651969042"><ele>343.0</ele><time>2026-04-08T14:22:15.999Z</time></trkpt><trkpt lat="35.18304207150614" lon="9.373705673796755"><ele>342.5</ele><time>2026-04-08T14:22:16.999Z</time></trkpt><trkpt lat="35.18331402245914" lon="9.373764747536075"><ele>342.0</ele><time>2026-04-08T14:22:17.999Z</time></trkpt><trkpt lat="35.18358461240813" lon="9.373822499472992"><ele>342.5</ele><time>2026-04-08T14:22:18.999Z</time></trkpt><trkpt lat="35.183856025097334" lon="9.373883499265192"><ele>343.0</ele><time>2026-04-08T14:22:19.999Z</time></trkpt><trkpt lat="35.1841273510101" lon="9.373942970312203"><ele>343.0</ele><time>2026-04-08T14:22:20.999Z</time></trkpt><trkpt lat="35.184399609318945" lon="9.374002589869297"><ele>343.0</ele><time>2026-04-08T14:22:21.999Z</time></trkpt><trkpt lat="35.18467606025831" lon="9.374065732583654"><ele>343.0</ele><time>2026-04-08T14:22:22.999Z</time></trkpt><trkpt lat="35.18495564312335" lon="9.374124905954103"><ele>343.0</ele><time>2026-04-08T14:22:23.999Z</time></trkpt><trkpt lat="35.185239676782814" lon="9.374183436316674"><ele>343.0</ele><time>2026-04-08T14:22:24.999Z</time></trkpt><trkpt lat="35.185530294009986" lon="9.374246115282167"><ele>343.0</ele><time>2026-04-08T14:22:25.999Z</time></trkpt><trkpt lat="35.185825054531584" lon="9.374309969960771"><ele>343.0</ele><time>2026-04-08T14:22:26.999Z</time></trkpt><trkpt lat="35.18612394636065" lon="9.374376320583918"><ele>343.0</ele><time>2026-04-08T14:22:28Z</time></trkpt><trkpt lat="35.18641792371614" lon="9.374443378995036"><ele>342.5</ele><time>2026-04-08T14:22:29Z</time></trkpt><trkpt lat="35.18670197490394" lon="9.374511199622287"><ele>342.0</ele><time>2026-04-08T14:22:30Z</time></trkpt><trkpt lat="35.18697911296607" lon="9.374574499340259"><ele>342.0</ele><time>2026-04-08T14:22:31Z</time></trkpt><trkpt lat="35.1872603616158" lon="9.3746411567255"><ele>342.0</ele><time>2026-04-08T14:22:32Z</time></trkpt><trkpt lat="35.18754330116756" lon="9.374704794362696"><ele>342.5</ele><time>2026-04-08T14:22:33Z</time></trkpt><trkpt lat="35.18782797633569" lon="9.374771282110201"><ele>343.0</ele><time>2026-04-08T14:22:34Z</time></trkpt><trkpt lat="35.188119178624824" lon="9.37483669621535"><ele>342.5</ele><time>2026-04-08T14:22:35Z</time></trkpt><trkpt lat="35.18841373719908" lon="9.37490128658471"><ele>342.0</ele><time>2026-04-08T14:22:36Z</time></trkpt><trkpt lat="35.188711208252926" lon="9.374967656032934"><ele>342.0</ele><time>2026-04-08T14:22:37Z</time></trkpt><trkpt lat="35.189004782575445" lon="9.375035369635691"><ele>342.0</ele><time>2026-04-08T14:22:38Z</time></trkpt><trkpt lat="35.18929468371242" lon="9.37510153983746"><ele>342.5</ele><time>2026-04-08T14:22:39Z</time></trkpt><trkpt lat="35.189581887870794" lon="9.375167420686983"><ele>343.0</ele><time>2026-04-08T14:22:40Z</time></trkpt><trkpt lat="35.189865406527005" lon="9.37523109315762"><ele>343.0</ele><time>2026-04-08T14:22:41Z</time></trkpt><trkpt lat="35.19014642671403" lon="9.375293076439341"><ele>343.0</ele><time>2026-04-08T14:22:42Z</time></trkpt><trkpt lat="35.19042425431431" lon="9.3753544292062"><ele>343.5</ele><time>2026-04-08T14:22:43Z</time></trkpt><trkpt lat="35.19069990869051" lon="9.375417177440069"><ele>344.0</ele><time>2026-04-08T14:22:44Z</time></trkpt><trkpt lat="35.19097668007841" lon="9.37548005293237"><ele>344.0</ele><time>2026-04-08T14:22:45Z</time></trkpt><trkpt lat="35.19125300165241" lon="9.375541654016336"><ele>344.0</ele><time>2026-04-08T14:22:46Z</time></trkpt><trkpt lat="35.19153227422731" lon="9.375604266549148"><ele>344.0</ele><time>2026-04-08T14:22:47Z</time></trkpt><trkpt lat="35.191813618926915" lon="9.37566798936334"><ele>344.0</ele><time>2026-04-08T14:22:48Z</time></trkpt><trkpt lat="35.192092340763764" lon="9.375730034279421"><ele>342.5</ele><time>2026-04-08T14:22:49Z</time></trkpt><trkpt lat="35.19237007338004" lon="9.375793519143972"><ele>341.0</ele><time>2026-04-08T14:22:50Z</time></trkpt><trkpt lat="35.192648279294666" lon="9.375856440177895"><ele>341.0</ele><time>2026-04-08T14:22:51Z</time></trkpt><trkpt lat="35.19292611746175" lon="9.375919252868611"><ele>341.0</ele><time>2026-04-08T14:22:52Z</time></trkpt><trkpt lat="35.193203548144744" lon="9.375980532396008"><ele>341.0</ele><time>2026-04-08T14:22:53Z</time></trkpt><trkpt lat="35.193481490150155" lon="9.37604144742045"><ele>341.0</ele><time>2026-04-08T14:22:54Z</time></trkpt><trkpt lat="35.19376090790058" lon="9.376101928476059"><ele>341.5</ele><time>2026-04-08T14:22:55Z</time></trkpt><trkpt lat="35.1940423940141" lon="9.376164246337199"><ele>342.0</ele><time>2026-04-08T14:22:56Z</time></trkpt><trkpt lat="35.19432863674674" lon="9.376228703957144"><ele>342.0</ele><time>2026-04-08T14:22:57Z</time></trkpt><trkpt lat="35.1946183251723" lon="9.376294085378884"><ele>342.0</ele><time>2026-04-08T14:22:58Z</time></trkpt><trkpt lat="35.19490969401167" lon="9.376360877695033"><ele>341.5</ele><time>2026-04-08T14:22:59Z</time></trkpt><trkpt lat="35.19520286432055" lon="9.3764279922679"><ele>341.0</ele><time>2026-04-08T14:23:00Z</time></trkpt><trkpt lat="35.195490367996165" lon="9.376495986508335"><ele>342.0</ele><time>2026-04-08T14:23:01Z</time></trkpt><trkpt lat="35.195775662435885" lon="9.376564014467641"><ele>343.0</ele><time>2026-04-08T14:23:02Z</time></trkpt><trkpt lat="35.1960517603285" lon="9.376627690749848"><ele>343.0</ele><time>2026-04-08T14:23:03Z</time></trkpt><trkpt lat="35.19632071779216" lon="9.376687190696948"><ele>343.0</ele><time>2026-04-08T14:23:04Z</time></trkpt><trkpt lat="35.19659316241484" lon="9.376747211290192"><ele>342.0</ele><time>2026-04-08T14:23:05Z</time></trkpt><trkpt lat="35.196863144116364" lon="9.37680512614722"><ele>341.0</ele><time>2026-04-08T14:23:06Z</time></trkpt><trkpt lat="35.19713438492567" lon="9.376866642667396"><ele>341.5</ele><time>2026-04-08T14:23:07Z</time></trkpt><trkpt lat="35.19740957774867" lon="9.376933633681487"><ele>342.0</ele><time>2026-04-08T14:23:08Z</time></trkpt><trkpt lat="35.197692127712834" lon="9.377003609444019"><ele>342.0</ele><time>2026-04-08T14:23:09Z</time></trkpt><trkpt lat="35.19798080226606" lon="9.377071476419554"><ele>342.0</ele><time>2026-04-08T14:23:10Z</time></trkpt><trkpt lat="35.19827538172056" lon="9.377135854861555"><ele>342.0</ele><time>2026-04-08T14:23:11Z</time></trkpt><trkpt lat="35.1985714608492" lon="9.37719442350485"><ele>342.0</ele><time>2026-04-08T14:23:12Z</time></trkpt><trkpt lat="35.19886916215018" lon="9.377252945486878"><ele>342.5</ele><time>2026-04-08T14:23:13Z</time></trkpt><trkpt lat="35.19916937559116" lon="9.377316182962291"><ele>343.0</ele><time>2026-04-08T14:23:14Z</time></trkpt><trkpt lat="35.19947457409978" lon="9.377381791934454"><ele>343.0</ele><time>2026-04-08T14:23:15Z</time></trkpt><trkpt lat="35.19978484417281" lon="9.377448307570921"><ele>343.0</ele><time>2026-04-08T14:23:16Z</time></trkpt><trkpt lat="35.20010326848191" lon="9.37751727821993"><ele>343.0</ele><time>2026-04-08T14:23:17Z</time></trkpt><trkpt lat="35.20042341137193" lon="9.37758801440208"><ele>343.0</ele><time>2026-04-08T14:23:18Z</time></trkpt><trkpt lat="35.20073543913979" lon="9.37766103886525"><ele>343.0</ele><time>2026-04-08T14:23:19Z</time></trkpt><trkpt lat="35.20104180415191" lon="9.377734184400467"><ele>343.0</ele><time>2026-04-08T14:23:20Z</time></trkpt><trkpt lat="35.20135555312314" lon="9.377809384745168"><ele>342.0</ele><time>2026-04-08T14:23:21Z</time></trkpt><trkpt lat="35.20166981152446" lon="9.377883682244574"><ele>341.0</ele><time>2026-04-08T14:23:22Z</time></trkpt><trkpt lat="35.2019821592663" lon="9.377956835300049"><ele>341.0</ele><time>2026-04-08T14:23:23Z</time></trkpt><trkpt lat="35.202295484355595" lon="9.378028267387226"><ele>341.0</ele><time>2026-04-08T14:23:24Z</time></trkpt><trkpt lat="35.20260424906472" lon="9.37809476622833"><ele>342.0</ele><time>2026-04-08T14:23:25Z</time></trkpt><trkpt lat="35.20290874123186" lon="9.378158293977878"><ele>343.0</ele><time>2026-04-08T14:23:26Z</time></trkpt><trkpt lat="35.203212120555136" lon="9.378221288306255"><ele>343.0</ele><time>2026-04-08T14:23:27Z</time></trkpt><trkpt lat="35.203518096233516" lon="9.37828205782217"><ele>343.0</ele><time>2026-04-08T14:23:28Z</time></trkpt><trkpt lat="35.20382218739386" lon="9.378344280358771"><ele>341.5</ele><time>2026-04-08T14:23:29Z</time></trkpt><trkpt lat="35.20412178811275" lon="9.378410740690727"><ele>340.0</ele><time>2026-04-08T14:23:30Z</time></trkpt><trkpt lat="35.20442490797309" lon="9.378482023989356"><ele>340.0</ele><time>2026-04-08T14:23:31Z</time></trkpt><trkpt lat="35.20472063676951" lon="9.378546538973715"><ele>340.0</ele><time>2026-04-08T14:23:32Z</time></trkpt><trkpt lat="35.20500973246007" lon="9.378610997842511"><ele>341.5</ele><time>2026-04-08T14:23:33Z</time></trkpt><trkpt lat="35.20529446286336" lon="9.378675666744922"><ele>343.0</ele><time>2026-04-08T14:23:34Z</time></trkpt><trkpt lat="35.205563224363985" lon="9.378736506628348"><ele>343.5</ele><time>2026-04-08T14:23:35Z</time></trkpt><trkpt lat="35.205831563339196" lon="9.378796208270588"><ele>344.0</ele><time>2026-04-08T14:23:36Z</time></trkpt><trkpt lat="35.20608778432218" lon="9.378852974507705"><ele>344.5</ele><time>2026-04-08T14:23:37Z</time></trkpt><trkpt lat="35.20633802343621" lon="9.378908878853823"><ele>345.0</ele><time>2026-04-08T14:23:38Z</time></trkpt><trkpt lat="35.20659526446444" lon="9.378969111600313"><ele>345.5</ele><time>2026-04-08T14:23:39Z</time></trkpt><trkpt lat="35.20686251168279" lon="9.379030689448456"><ele>346.0</ele><time>2026-04-08T14:23:40Z</time></trkpt><trkpt lat="35.20713704181211" lon="9.379092378149496"><ele>346.0</ele><time>2026-04-08T14:23:41Z</time></trkpt><trkpt lat="35.20740896129282" lon="9.379153073649224"><ele>346.0</ele><time>2026-04-08T14:23:42Z</time></trkpt><trkpt lat="35.20765862524705" lon="9.379202361041022"><ele>346.0</ele><time>2026-04-08T14:23:43Z</time></trkpt><trkpt lat="35.207904820143625" lon="9.37925204855365"><ele>346.0</ele><time>2026-04-08T14:23:43.999Z</time></trkpt><trkpt lat="35.2081499331414" lon="9.37930693558942"><ele>345.0</ele><time>2026-04-08T14:23:44.999Z</time></trkpt><trkpt lat="35.20839662946805" lon="9.379364465255982"><ele>344.0</ele><time>2026-04-08T14:23:45.999Z</time></trkpt><trkpt lat="35.20865312481191" lon="9.379424371019397"><ele>344.0</ele><time>2026-04-08T14:23:46.999Z</time></trkpt><trkpt lat="35.208912151351676" lon="9.379483494294044"><ele>344.0</ele><time>2026-04-08T14:23:47.999Z</time></trkpt><trkpt lat="35.209173940004874" lon="9.379543476109031"><ele>344.5</ele><time>2026-04-08T14:23:48.999Z</time></trkpt><trkpt lat="35.20943361209949" lon="9.379599368191231"><ele>345.0</ele><time>2026-04-08T14:23:49.999Z</time></trkpt><trkpt lat="35.20969448940275" lon="9.379654837801711"><ele>346.5</ele><time>2026-04-08T14:23:50.999Z</time></trkpt><trkpt lat="35.209963350564216" lon="9.379706888220925"><ele>348.0</ele><time>2026-04-08T14:23:51.999Z</time></trkpt><trkpt lat="35.21024142974922" lon="9.379753163693584"><ele>348.0</ele><time>2026-04-08T14:23:52.999Z</time></trkpt><trkpt lat="35.21052877830354" lon="9.379797429282307"><ele>348.0</ele><time>2026-04-08T14:23:53.999Z</time></trkpt><trkpt lat="35.21080857491598" lon="9.379834856327538"><ele>347.5</ele><time>2026-04-08T14:23:54.999Z</time></trkpt><trkpt lat="35.2110786308382" lon="9.379868471646589"><ele>347.0</ele><time>2026-04-08T14:23:55.999Z</time></trkpt><trkpt lat="35.211337964297236" lon="9.379905607606863"><ele>347.0</ele><time>2026-04-08T14:23:56.999Z</time></trkpt><trkpt lat="35.211584709715055" lon="9.379941884034272"><ele>347.0</ele><time>2026-04-08T14:23:57.999Z</time></trkpt><trkpt lat="35.21183317179981" lon="9.379979015747825"><ele>347.0</ele><time>2026-04-08T14:23:58.999Z</time></trkpt><trkpt lat="35.21207926368239" lon="9.380011873958864"><ele>347.0</ele><time>2026-04-08T14:23:59.999Z</time></trkpt><trkpt lat="35.21233144073099" lon="9.380045245184972"><ele>347.5</ele><time>2026-04-08T14:24:00.999Z</time></trkpt><trkpt lat="35.2125910800182" lon="9.380081495818835"><ele>348.0</ele><time>2026-04-08T14:24:01.999Z</time></trkpt><trkpt lat="35.21286320825532" lon="9.380116410241207"><ele>348.0</ele><time>2026-04-08T14:24:02.999Z</time></trkpt><trkpt lat="35.21314267465549" lon="9.380151835690786"><ele>348.0</ele><time>2026-04-08T14:24:03.999Z</time></trkpt><trkpt lat="35.21342075407456" lon="9.38018851907191"><ele>348.0</ele><time>2026-04-08T14:24:04.999Z</time></trkpt><trkpt lat="35.213698256095945" lon="9.380224828346224"><ele>348.0</ele><time>2026-04-08T14:24:05.999Z</time></trkpt><trkpt lat="35.21398298275205" lon="9.380255426983137"><ele>348.5</ele><time>2026-04-08T14:24:06.999Z</time></trkpt><trkpt lat="35.21426525638065" lon="9.380286645820858"><ele>349.0</ele><time>2026-04-08T14:24:07.999Z</time></trkpt><trkpt lat="35.21454329252712" lon="9.380320449038694"><ele>348.5</ele><time>2026-04-08T14:24:08.999Z</time></trkpt><trkpt lat="35.21482715019197" lon="9.380359788199268"><ele>348.0</ele><time>2026-04-08T14:24:09.999Z</time></trkpt><trkpt lat="35.21511961421084" lon="9.3804010364105"><ele>348.0</ele><time>2026-04-08T14:24:10.999Z</time></trkpt><trkpt lat="35.215435056149886" lon="9.380443443694146"><ele>348.0</ele><time>2026-04-08T14:24:11.999Z</time></trkpt><trkpt lat="35.21575939637927" lon="9.380483600655385"><ele>349.5</ele><time>2026-04-08T14:24:12.999Z</time></trkpt><trkpt lat="35.21606583148084" lon="9.38052871527141"><ele>351.0</ele><time>2026-04-08T14:24:13.999Z</time></trkpt><trkpt lat="35.216342649063286" lon="9.380571408913095"><ele>351.0</ele><time>2026-04-08T14:24:14.999Z</time></trkpt><trkpt lat="35.216590797275465" lon="9.380608865369357"><ele>351.0</ele><time>2026-04-08T14:24:15.999Z</time></trkpt><trkpt lat="35.21682791154012" lon="9.380640364215548"><ele>351.0</ele><time>2026-04-08T14:24:16.999Z</time></trkpt><trkpt lat="35.217064529814365" lon="9.380680951036132"><ele>351.0</ele><time>2026-04-08T14:24:17.999Z</time></trkpt><trkpt lat="35.21731437450514" lon="9.380728159355881"><ele>351.5</ele><time>2026-04-08T14:24:18.999Z</time></trkpt><trkpt lat="35.21757181388507" lon="9.380768087904263"><ele>352.0</ele><time>2026-04-08T14:24:19.999Z</time></trkpt><trkpt lat="35.21782856816912" lon="9.380803674066161"><ele>352.0</ele><time>2026-04-08T14:24:20.999Z</time></trkpt><trkpt lat="35.218076424702275" lon="9.38083965181232"><ele>352.0</ele><time>2026-04-08T14:24:21.999Z</time></trkpt><trkpt lat="35.21832558201055" lon="9.380875866670765"><ele>352.5</ele><time>2026-04-08T14:24:22.999Z</time></trkpt><trkpt lat="35.218574151410294" lon="9.380911663847414"><ele>353.0</ele><time>2026-04-08T14:24:23.999Z</time></trkpt><trkpt lat="35.21882150931897" lon="9.380947287962513"><ele>352.5</ele><time>2026-04-08T14:24:24.999Z</time></trkpt><trkpt lat="35.21907045798844" lon="9.380984919644877"><ele>352.0</ele><time>2026-04-08T14:24:25.999Z</time></trkpt><trkpt lat="35.219317220078906" lon="9.38102253293922"><ele>352.0</ele><time>2026-04-08T14:24:26.999Z</time></trkpt><trkpt lat="35.21956244267825" lon="9.381057120695425"><ele>352.0</ele><time>2026-04-08T14:24:27.999Z</time></trkpt><trkpt lat="35.21981207326325" lon="9.381088628748277"><ele>352.0</ele><time>2026-04-08T14:24:28.999Z</time></trkpt><trkpt lat="35.22005834508188" lon="9.38112017235893"><ele>352.0</ele><time>2026-04-08T14:24:29.999Z</time></trkpt><trkpt lat="35.22030124911089" lon="9.38115285648152"><ele>352.0</ele><time>2026-04-08T14:24:30.999Z</time></trkpt><trkpt lat="35.22054682944681" lon="9.381188819028813"><ele>352.0</ele><time>2026-04-08T14:24:31.999Z</time></trkpt><trkpt lat="35.22078855533729" lon="9.381231242820103"><ele>351.5</ele><time>2026-04-08T14:24:32.999Z</time></trkpt><trkpt lat="35.221031385908155" lon="9.381282172486983"><ele>351.0</ele><time>2026-04-08T14:24:34Z</time></trkpt><trkpt lat="35.22127223319283" lon="9.381343808555195"><ele>353.0</ele><time>2026-04-08T14:24:35Z</time></trkpt><trkpt lat="35.22150797836135" lon="9.381409980068895"><ele>355.0</ele><time>2026-04-08T14:24:36Z</time></trkpt><trkpt lat="35.221743602261576" lon="9.381481918262272"><ele>355.0</ele><time>2026-04-08T14:24:37Z</time></trkpt><trkpt lat="35.2219775715044" lon="9.381558202226987"><ele>355.0</ele><time>2026-04-08T14:24:38Z</time></trkpt><trkpt lat="35.222207982030035" lon="9.381635960117704"><ele>354.5</ele><time>2026-04-08T14:24:39Z</time></trkpt><trkpt lat="35.22243570553403" lon="9.38171649615291"><ele>354.0</ele><time>2026-04-08T14:24:40Z</time></trkpt><trkpt lat="35.22266012506555" lon="9.381799104649042"><ele>354.0</ele><time>2026-04-08T14:24:41Z</time></trkpt><trkpt lat="35.22288753626739" lon="9.381879833928656"><ele>354.0</ele><time>2026-04-08T14:24:42Z</time></trkpt><trkpt lat="35.22311797422758" lon="9.381960380917894"><ele>352.0</ele><time>2026-04-08T14:24:43Z</time></trkpt><trkpt lat="35.22335128961576" lon="9.38204142652889"><ele>350.0</ele><time>2026-04-08T14:24:44Z</time></trkpt><trkpt lat="35.22358868803611" lon="9.38212392249443"><ele>349.5</ele><time>2026-04-08T14:24:45Z</time></trkpt><trkpt lat="35.22382625595818" lon="9.382209683893398"><ele>349.0</ele><time>2026-04-08T14:24:46Z</time></trkpt><trkpt lat="35.22406709393728" lon="9.382294437582123"><ele>348.5</ele><time>2026-04-08T14:24:47Z</time></trkpt><trkpt lat="35.2243066179174" lon="9.382381423405352"><ele>348.0</ele><time>2026-04-08T14:24:48Z</time></trkpt><trkpt lat="35.22455073813742" lon="9.3824669141536"><ele>348.0</ele><time>2026-04-08T14:24:49Z</time></trkpt><trkpt lat="35.22479300709845" lon="9.382551920681658"><ele>348.0</ele><time>2026-04-08T14:24:50Z</time></trkpt><trkpt lat="35.22503507895957" lon="9.382637054919224"><ele>350.5</ele><time>2026-04-08T14:24:51Z</time></trkpt><trkpt lat="35.225279500976114" lon="9.382726670225333"><ele>353.0</ele><time>2026-04-08T14:24:52Z</time></trkpt><trkpt lat="35.22551676406519" lon="9.382814874706957"><ele>353.5</ele><time>2026-04-08T14:24:53Z</time></trkpt><trkpt lat="35.22575868621004" lon="9.382898270770625"><ele>354.0</ele><time>2026-04-08T14:24:54Z</time></trkpt><trkpt lat="35.22599376911915" lon="9.382981250503047"><ele>354.0</ele><time>2026-04-08T14:24:55Z</time></trkpt><trkpt lat="35.226228110226735" lon="9.38306775774169"><ele>354.0</ele><time>2026-04-08T14:24:56Z</time></trkpt><trkpt lat="35.22646270100939" lon="9.383153284266882"><ele>355.0</ele><time>2026-04-08T14:24:57Z</time></trkpt><trkpt lat="35.226691127485246" lon="9.383233491368253"><ele>356.0</ele><time>2026-04-08T14:24:58Z</time></trkpt><trkpt lat="35.22691517181707" lon="9.383313535346463"><ele>356.0</ele><time>2026-04-08T14:24:59Z</time></trkpt><trkpt lat="35.22714240172188" lon="9.383394038102324"><ele>356.0</ele><time>2026-04-08T14:25:00Z</time></trkpt><trkpt lat="35.227369220746624" lon="9.38347527178876"><ele>354.0</ele><time>2026-04-08T14:25:01Z</time></trkpt><trkpt lat="35.22759675134344" lon="9.383557556560575"><ele>352.0</ele><time>2026-04-08T14:25:02Z</time></trkpt><trkpt lat="35.22782928404489" lon="9.383639467438453"><ele>352.0</ele><time>2026-04-08T14:25:03Z</time></trkpt><trkpt lat="35.22805928119334" lon="9.383725964880297"><ele>352.0</ele><time>2026-04-08T14:25:04Z</time></trkpt><trkpt lat="35.228293353939655" lon="9.383817147881814"><ele>353.0</ele><time>2026-04-08T14:25:05Z</time></trkpt><trkpt lat="35.228525689668366" lon="9.38391289215377"><ele>354.0</ele><time>2026-04-08T14:25:06Z</time></trkpt><trkpt lat="35.22876084143268" lon="9.384008163240498"><ele>354.0</ele><time>2026-04-08T14:25:07Z</time></trkpt><trkpt lat="35.22899287752305" lon="9.384105647370967"><ele>354.0</ele><time>2026-04-08T14:25:08Z</time></trkpt><trkpt lat="35.22922000986551" lon="9.38420527179526"><ele>354.0</ele><time>2026-04-08T14:25:09Z</time></trkpt><trkpt lat="35.22944719488602" lon="9.38430153985599"><ele>354.0</ele><time>2026-04-08T14:25:10Z</time></trkpt><trkpt lat="35.22967525781177" lon="9.384392342792806"><ele>353.0</ele><time>2026-04-08T14:25:11Z</time></trkpt><trkpt lat="35.22990180147649" lon="9.384485928342338"><ele>352.0</ele><time>2026-04-08T14:25:12Z</time></trkpt><trkpt lat="35.2301313759364" lon="9.384579869294452"><ele>352.0</ele><time>2026-04-08T14:25:13Z</time></trkpt><trkpt lat="35.23035944633816" lon="9.384673565015976"><ele>352.0</ele><time>2026-04-08T14:25:14Z</time></trkpt><trkpt lat="35.23058996664311" lon="9.384763458009962"><ele>353.0</ele><time>2026-04-08T14:25:15Z</time></trkpt><trkpt lat="35.230821889372166" lon="9.384850577922071"><ele>354.0</ele><time>2026-04-08T14:25:16Z</time></trkpt><trkpt lat="35.23105441644189" lon="9.384940677696372"><ele>354.0</ele><time>2026-04-08T14:25:17Z</time></trkpt><trkpt lat="35.23128370495407" lon="9.385038003519066"><ele>354.0</ele><time>2026-04-08T14:25:18Z</time></trkpt><trkpt lat="35.23151988710602" lon="9.385129786465793"><ele>353.5</ele><time>2026-04-08T14:25:19Z</time></trkpt><trkpt lat="35.23175300070351" lon="9.3852226647046"><ele>353.0</ele><time>2026-04-08T14:25:20Z</time></trkpt><trkpt lat="35.23198447736079" lon="9.385320492962627"><ele>353.0</ele><time>2026-04-08T14:25:21Z</time></trkpt><trkpt lat="35.23221764825424" lon="9.385419190202473"><ele>353.0</ele><time>2026-04-08T14:25:22Z</time></trkpt><trkpt lat="35.23245194050527" lon="9.385518217102574"><ele>353.0</ele><time>2026-04-08T14:25:23Z</time></trkpt><trkpt lat="35.23268113355204" lon="9.38562067627123"><ele>353.0</ele><time>2026-04-08T14:25:24Z</time></trkpt><trkpt lat="35.232906545560844" lon="9.385727066493693"><ele>353.0</ele><time>2026-04-08T14:25:25Z</time></trkpt><trkpt lat="35.23312769235203" lon="9.385836736492427"><ele>353.0</ele><time>2026-04-08T14:25:26Z</time></trkpt><trkpt lat="35.23334694164104" lon="9.385956270500177"><ele>352.5</ele><time>2026-04-08T14:25:27Z</time></trkpt><trkpt lat="35.23356428787788" lon="9.386084525963273"><ele>352.0</ele><time>2026-04-08T14:25:28Z</time></trkpt><trkpt lat="35.23377892404084" lon="9.386214718366325"><ele>351.5</ele><time>2026-04-08T14:25:29Z</time></trkpt><trkpt lat="35.23399161035885" lon="9.38634789157497"><ele>351.0</ele><time>2026-04-08T14:25:30Z</time></trkpt><trkpt lat="35.23420559973877" lon="9.386482863964329"><ele>351.0</ele><time>2026-04-08T14:25:31Z</time></trkpt><trkpt lat="35.23441638519625" lon="9.386624342728812"><ele>351.0</ele><time>2026-04-08T14:25:32Z</time></trkpt><trkpt lat="35.234627530398946" lon="9.386763321509608"><ele>351.5</ele><time>2026-04-08T14:25:33Z</time></trkpt><trkpt lat="35.234845942154486" lon="9.3868940818627"><ele>352.0</ele><time>2026-04-08T14:25:34Z</time></trkpt><trkpt lat="35.23506059121427" lon="9.387026823258825"><ele>352.0</ele><time>2026-04-08T14:25:35Z</time></trkpt><trkpt lat="35.23527208208396" lon="9.387163011391314"><ele>352.0</ele><time>2026-04-08T14:25:36Z</time></trkpt><trkpt lat="35.235483346939304" lon="9.387301106406069"><ele>352.5</ele><time>2026-04-08T14:25:37Z</time></trkpt><trkpt lat="35.235703392594615" lon="9.387435469716962"><ele>353.0</ele><time>2026-04-08T14:25:38Z</time></trkpt><trkpt lat="35.23592582412118" lon="9.387570523456283"><ele>353.0</ele><time>2026-04-08T14:25:39Z</time></trkpt><trkpt lat="35.23614145968445" lon="9.387709663930597"><ele>353.0</ele><time>2026-04-08T14:25:40Z</time></trkpt><trkpt lat="35.236356562369295" lon="9.387842943454984"><ele>352.5</ele><time>2026-04-08T14:25:41Z</time></trkpt><trkpt lat="35.236568223870336" lon="9.387977250924589"><ele>352.0</ele><time>2026-04-08T14:25:42Z</time></trkpt><trkpt lat="35.236781099347475" lon="9.388110246475003"><ele>352.0</ele><time>2026-04-08T14:25:43Z</time></trkpt><trkpt lat="35.23698886287821" lon="9.388242096208648"><ele>352.0</ele><time>2026-04-08T14:25:44Z</time></trkpt><trkpt lat="35.23719766037147" lon="9.388373208829904"><ele>352.0</ele><time>2026-04-08T14:25:45Z</time></trkpt><trkpt lat="35.23740275095599" lon="9.38850501981894"><ele>352.0</ele><time>2026-04-08T14:25:46Z</time></trkpt><trkpt lat="35.23761213131471" lon="9.388634344734852"><ele>352.0</ele><time>2026-04-08T14:25:47Z</time></trkpt><trkpt lat="35.23782389374112" lon="9.388766493955874"><ele>352.0</ele><time>2026-04-08T14:25:48Z</time></trkpt><trkpt lat="35.2380352421375" lon="9.38889571933115"><ele>352.0</ele><time>2026-04-08T14:25:49Z</time></trkpt><trkpt lat="35.23824833120449" lon="9.38902610784677"><ele>352.0</ele><time>2026-04-08T14:25:50Z</time></trkpt><trkpt lat="35.23845802863115" lon="9.38916127857581"><ele>352.0</ele><time>2026-04-08T14:25:51Z</time></trkpt><trkpt lat="35.238671552916955" lon="9.389294035951588"><ele>352.0</ele><time>2026-04-08T14:25:52Z</time></trkpt><trkpt lat="35.23888562389879" lon="9.38942954621591"><ele>350.5</ele><time>2026-04-08T14:25:53Z</time></trkpt><trkpt lat="35.23910111158636" lon="9.38956239721313"><ele>349.0</ele><time>2026-04-08T14:25:54Z</time></trkpt><trkpt lat="35.23931496876906" lon="9.389695241181885"><ele>349.0</ele><time>2026-04-08T14:25:55Z</time></trkpt><trkpt lat="35.239532499474926" lon="9.389823595711695"><ele>349.0</ele><time>2026-04-08T14:25:56Z</time></trkpt><trkpt lat="35.23974635612394" lon="9.389958546907664"><ele>350.0</ele><time>2026-04-08T14:25:57Z</time></trkpt><trkpt lat="35.23996119585932" lon="9.390096997456185"><ele>351.0</ele><time>2026-04-08T14:25:58Z</time></trkpt><trkpt lat="35.24017923632194" lon="9.390234555995107"><ele>351.0</ele><time>2026-04-08T14:25:59Z</time></trkpt><trkpt lat="35.24039510621532" lon="9.39037363994843"><ele>351.0</ele><time>2026-04-08T14:26:00Z</time></trkpt><trkpt lat="35.24061531452663" lon="9.390511608031979"><ele>350.5</ele><time>2026-04-08T14:26:01Z</time></trkpt><trkpt lat="35.24083428322623" lon="9.390654663849201"><ele>350.0</ele><time>2026-04-08T14:26:02Z</time></trkpt><trkpt lat="35.24105741119157" lon="9.390794969327914"><ele>350.0</ele><time>2026-04-08T14:26:03Z</time></trkpt><trkpt lat="35.24127858940059" lon="9.39094216308593"><ele>350.0</ele><time>2026-04-08T14:26:04Z</time></trkpt><trkpt lat="35.241498412315025" lon="9.391094178843863"><ele>349.5</ele><time>2026-04-08T14:26:05Z</time></trkpt><trkpt lat="35.241712119837" lon="9.39125278399142"><ele>349.0</ele><time>2026-04-08T14:26:06Z</time></trkpt><trkpt lat="35.24192782538646" lon="9.391415304866497"><ele>350.0</ele><time>2026-04-08T14:26:07Z</time></trkpt><trkpt lat="35.24213979546215" lon="9.391585532258942"><ele>351.0</ele><time>2026-04-08T14:26:08Z</time></trkpt><trkpt lat="35.2423483837223" lon="9.391763411919271"><ele>351.5</ele><time>2026-04-08T14:26:09Z</time></trkpt><trkpt lat="35.24256015327611" lon="9.391939115854838"><ele>352.0</ele><time>2026-04-08T14:26:10Z</time></trkpt><trkpt lat="35.24276723551033" lon="9.39211525183775"><ele>352.0</ele><time>2026-04-08T14:26:11Z</time></trkpt><trkpt lat="35.24297317840918" lon="9.392291380479243"><ele>352.0</ele><time>2026-04-08T14:26:12Z</time></trkpt><trkpt lat="35.243177528850254" lon="9.392464028723033"><ele>352.0</ele><time>2026-04-08T14:26:12.999Z</time></trkpt><trkpt lat="35.24338254532557" lon="9.392628351117857"><ele>352.0</ele><time>2026-04-08T14:26:13.999Z</time></trkpt><trkpt lat="35.24358494930198" lon="9.392794804974901"><ele>352.0</ele><time>2026-04-08T14:26:14.999Z</time></trkpt><trkpt lat="35.24378459090516" lon="9.3929572331109"><ele>352.0</ele><time>2026-04-08T14:26:15.999Z</time></trkpt><trkpt lat="35.243980623337826" lon="9.393118717425958"><ele>351.0</ele><time>2026-04-08T14:26:16.999Z</time></trkpt><trkpt lat="35.24417590415645" lon="9.393282829625281"><ele>350.0</ele><time>2026-04-08T14:26:17.999Z</time></trkpt><trkpt lat="35.24436624467999" lon="9.393442374997688"><ele>350.0</ele><time>2026-04-08T14:26:18.999Z</time></trkpt><trkpt lat="35.24455819630895" lon="9.39359595008545"><ele>350.0</ele><time>2026-04-08T14:26:19.999Z</time></trkpt><trkpt lat="35.244739418052696" lon="9.393745781944208"><ele>350.0</ele><time>2026-04-08T14:26:20.999Z</time></trkpt><trkpt lat="35.24491470357778" lon="9.393880150773708"><ele>350.0</ele><time>2026-04-08T14:26:21.999Z</time></trkpt><trkpt lat="35.24509907423559" lon="9.394031498293977"><ele>350.0</ele><time>2026-04-08T14:26:22.999Z</time></trkpt><trkpt lat="35.24528903959561" lon="9.394186087299012"><ele>350.0</ele><time>2026-04-08T14:26:23.999Z</time></trkpt><trkpt lat="35.245480908972475" lon="9.394341196717852"><ele>350.0</ele><time>2026-04-08T14:26:24.999Z</time></trkpt><trkpt lat="35.245673616834935" lon="9.394505572338122"><ele>350.0</ele><time>2026-04-08T14:26:25.999Z</time></trkpt><trkpt lat="35.245867603018596" lon="9.394673482949216"><ele>350.0</ele><time>2026-04-08T14:26:26.999Z</time></trkpt><trkpt lat="35.24606339714147" lon="9.394835659467141"><ele>350.0</ele><time>2026-04-08T14:26:27.999Z</time></trkpt><trkpt lat="35.24625320075209" lon="9.394983199104178"><ele>350.0</ele><time>2026-04-08T14:26:28.999Z</time></trkpt><trkpt lat="35.246439598528895" lon="9.3951207867368"><ele>350.0</ele><time>2026-04-08T14:26:29.999Z</time></trkpt><trkpt lat="35.24663318484537" lon="9.395251507120578"><ele>351.0</ele><time>2026-04-08T14:26:30.999Z</time></trkpt><trkpt lat="35.246835860096134" lon="9.395372486924238"><ele>352.0</ele><time>2026-04-08T14:26:31.999Z</time></trkpt><trkpt lat="35.2470481750447" lon="9.39548539417001"><ele>352.0</ele><time>2026-04-08T14:26:32.999Z</time></trkpt><trkpt lat="35.247268987970806" lon="9.395593929477299"><ele>352.0</ele><time>2026-04-08T14:26:33.999Z</time></trkpt><trkpt lat="35.24748549426869" lon="9.395695701547277"><ele>352.66666666666663</ele><time>2026-04-08T14:26:34.999Z</time></trkpt><trkpt lat="35.24769681008172" lon="9.395795421627406"><ele>353.3333333333333</ele><time>2026-04-08T14:26:35.999Z</time></trkpt><trkpt lat="35.24790571821754" lon="9.395889893145382"><ele>354.0</ele><time>2026-04-08T14:26:36.999Z</time></trkpt><trkpt lat="35.24811591496022" lon="9.395983253099223"><ele>353.0</ele><time>2026-04-08T14:26:37.999Z</time></trkpt><trkpt lat="35.24832494769161" lon="9.396075103988041"><ele>352.0</ele><time>2026-04-08T14:26:38.999Z</time></trkpt><trkpt lat="35.24853308271832" lon="9.39616745960108"><ele>351.0</ele><time>2026-04-08T14:26:40Z</time></trkpt><trkpt lat="35.24874112608492" lon="9.396261053864782"><ele>351.6666666666667</ele><time>2026-04-08T14:26:41Z</time></trkpt><trkpt lat="35.24894814889304" lon="9.396355790699895"><ele>352.33333333333337</ele><time>2026-04-08T14:26:42Z</time></trkpt><trkpt lat="35.24915867036124" lon="9.396449840504362"><ele>353.0</ele><time>2026-04-08T14:26:43Z</time></trkpt><trkpt lat="35.24937225935113" lon="9.396542162771832"><ele>353.5</ele><time>2026-04-08T14:26:44Z</time></trkpt><trkpt lat="35.249585889820345" lon="9.396635729724538"><ele>354.0</ele><time>2026-04-08T14:26:45Z</time></trkpt><trkpt lat="35.24979856208467" lon="9.396731374356138"><ele>353.0</ele><time>2026-04-08T14:26:46Z</time></trkpt><trkpt lat="35.25000974797836" lon="9.39682959316206"><ele>352.0</ele><time>2026-04-08T14:26:47Z</time></trkpt><trkpt lat="35.250219409050096" lon="9.396925949924569"><ele>352.0</ele><time>2026-04-08T14:26:48Z</time></trkpt><trkpt lat="35.25042865619281" lon="9.397019730128893"><ele>352.0</ele><time>2026-04-08T14:26:49Z</time></trkpt><trkpt lat="35.250638482704915" lon="9.397109896619405"><ele>352.0</ele><time>2026-04-08T14:26:50Z</time></trkpt><trkpt lat="35.250845151248505" lon="9.397199414143017"><ele>351.3333333333333</ele><time>2026-04-08T14:26:51Z</time></trkpt><trkpt lat="35.25104840873038" lon="9.397290622841133"><ele>350.6666666666667</ele><time>2026-04-08T14:26:52Z</time></trkpt><trkpt lat="35.251241553425714" lon="9.397376560365117"><ele>350.0</ele><time>2026-04-08T14:26:53Z</time></trkpt><trkpt lat="35.25142544362891" lon="9.397458429990897"><ele>349.0</ele><time>2026-04-08T14:26:54Z</time></trkpt><trkpt lat="35.25160572506878" lon="9.397539139561895"><ele>348.0</ele><time>2026-04-08T14:26:55Z</time></trkpt><trkpt lat="35.25177528662102" lon="9.39761420767535"><ele>347.0</ele><time>2026-04-08T14:26:56Z</time></trkpt><trkpt lat="35.251936801736754" lon="9.397683993177811"><ele>347.0</ele><time>2026-04-08T14:26:57Z</time></trkpt><trkpt lat="35.25209589222431" lon="9.397755204745073"><ele>347.0</ele><time>2026-04-08T14:26:58Z</time></trkpt><trkpt lat="35.252250265741196" lon="9.397823401160043"><ele>347.0</ele><time>2026-04-08T14:26:59Z</time></trkpt><trkpt lat="35.25239990985177" lon="9.39788873447728"><ele>346.33333333333337</ele><time>2026-04-08T14:27:00Z</time></trkpt><trkpt lat="35.25254950345778" lon="9.397957341958751"><ele>345.6666666666667</ele><time>2026-04-08T14:27:01Z</time></trkpt><trkpt lat="35.25268917551186" lon="9.398023296927237"><ele>345.0</ele><time>2026-04-08T14:27:02Z</time></trkpt><trkpt lat="35.25283108344922" lon="9.398089140653779"><ele>345.0</ele><time>2026-04-08T14:27:03Z</time></trkpt><trkpt lat="35.25297059785182" lon="9.39815249772968"><ele>345.0</ele><time>2026-04-08T14:27:04Z</time></trkpt><trkpt lat="35.25311453270483" lon="9.398218410869365"><ele>345.0</ele><time>2026-04-08T14:27:05Z</time></trkpt><trkpt lat="35.253261281761596" lon="9.398283383529863"><ele>346.3333333333333</ele><time>2026-04-08T14:27:06Z</time></trkpt><trkpt lat="35.25341295680703" lon="9.398347497034122"><ele>347.66666666666663</ele><time>2026-04-08T14:27:07Z</time></trkpt><trkpt lat="35.253572872610484" lon="9.398418580014013"><ele>349.0</ele><time>2026-04-08T14:27:08Z</time></trkpt><trkpt lat="35.253738065317535" lon="9.398494445769934"><ele>349.0</ele><time>2026-04-08T14:27:09Z</time></trkpt><trkpt lat="35.253911774774096" lon="9.398569879671394"><ele>349.0</ele><time>2026-04-08T14:27:10Z</time></trkpt><trkpt lat="35.25409195580339" lon="9.398647687247252"><ele>349.0</ele><time>2026-04-08T14:27:11Z</time></trkpt><trkpt lat="35.25427216737917" lon="9.398731503998098"><ele>349.3333333333333</ele><time>2026-04-08T14:27:12Z</time></trkpt><trkpt lat="35.25443684497964" lon="9.39881430032989"><ele>349.6666666666667</ele><time>2026-04-08T14:27:13Z</time></trkpt><trkpt lat="35.25459239852834" lon="9.398900955252097"><ele>350.0</ele><time>2026-04-08T14:27:14Z</time></trkpt><trkpt lat="35.25473820633312" lon="9.398985604348715"><ele>349.6666666666667</ele><time>2026-04-08T14:27:15Z</time></trkpt><trkpt lat="35.25488351523729" lon="9.399083117227235"><ele>349.3333333333333</ele><time>2026-04-08T14:27:16Z</time></trkpt><trkpt lat="35.25502407048515" lon="9.399189631013527"><ele>349.0</ele><time>2026-04-08T14:27:17Z</time></trkpt><trkpt lat="35.25516768244488" lon="9.399303388093115"><ele>349.0</ele><time>2026-04-08T14:27:18Z</time></trkpt><trkpt lat="35.255308905050185" lon="9.39941929640992"><ele>349.0</ele><time>2026-04-08T14:27:19Z</time></trkpt><trkpt lat="35.255448830480624" lon="9.399540799729815"><ele>349.0</ele><time>2026-04-08T14:27:20Z</time></trkpt><trkpt lat="35.25558797729414" lon="9.39966694681789"><ele>350.0</ele><time>2026-04-08T14:27:21Z</time></trkpt><trkpt lat="35.25572415059009" lon="9.399796031907748"><ele>351.0</ele><time>2026-04-08T14:27:22Z</time></trkpt><trkpt lat="35.25585580071219" lon="9.399926991207296"><ele>352.0</ele><time>2026-04-08T14:27:23Z</time></trkpt><trkpt lat="35.255985645792606" lon="9.400062864573922"><ele>352.0</ele><time>2026-04-08T14:27:24Z</time></trkpt><trkpt lat="35.25611158982541" lon="9.400200552817823"><ele>352.0</ele><time>2026-04-08T14:27:25Z</time></trkpt><trkpt lat="35.256240354362305" lon="9.400347940511802"><ele>352.0</ele><time>2026-04-08T14:27:26Z</time></trkpt><trkpt lat="35.256367773726474" lon="9.400496600044791"><ele>352.0</ele><time>2026-04-08T14:27:27Z</time></trkpt><trkpt lat="35.25649189630759" lon="9.400645002234631"><ele>352.0</ele><time>2026-04-08T14:27:28Z</time></trkpt><trkpt lat="35.2566190660606" lon="9.400796504763198"><ele>352.0</ele><time>2026-04-08T14:27:29Z</time></trkpt><trkpt lat="35.25674281951754" lon="9.40094592503905"><ele>352.0</ele><time>2026-04-08T14:27:30Z</time></trkpt><trkpt lat="35.25686466960224" lon="9.401085490095916"><ele>352.0</ele><time>2026-04-08T14:27:31Z</time></trkpt><trkpt lat="35.25698086696607" lon="9.401220124854593"><ele>352.0</ele><time>2026-04-08T14:27:32Z</time></trkpt><trkpt lat="35.25709595353881" lon="9.401356734972998"><ele>352.3333333333333</ele><time>2026-04-08T14:27:33Z</time></trkpt><trkpt lat="35.257213970746115" lon="9.401496904194632"><ele>352.6666666666667</ele><time>2026-04-08T14:27:34Z</time></trkpt><trkpt lat="35.257333566965556" lon="9.401639003098477"><ele>353.0</ele><time>2026-04-08T14:27:35Z</time></trkpt><trkpt lat="35.25745398476029" lon="9.401780493273149"><ele>352.0</ele><time>2026-04-08T14:27:36Z</time></trkpt><trkpt lat="35.25757657992384" lon="9.401919895073329"><ele>351.0</ele><time>2026-04-08T14:27:37Z</time></trkpt><trkpt lat="35.25769931400999" lon="9.402063724409373"><ele>350.0</ele><time>2026-04-08T14:27:38Z</time></trkpt><trkpt lat="35.25782301354471" lon="9.402211124033244"><ele>349.6666666666667</ele><time>2026-04-08T14:27:39Z</time></trkpt><trkpt lat="35.25794813270133" lon="9.402360282015863"><ele>349.3333333333333</ele><time>2026-04-08T14:27:40Z</time></trkpt><trkpt lat="35.258075555017506" lon="9.402515487756645"><ele>349.0</ele><time>2026-04-08T14:27:41Z</time></trkpt><trkpt lat="35.25820219582459" lon="9.402668291503689"><ele>349.0</ele><time>2026-04-08T14:27:42Z</time></trkpt><trkpt lat="35.258328112593695" lon="9.40281516065649"><ele>349.0</ele><time>2026-04-08T14:27:43Z</time></trkpt><trkpt lat="35.25844671030339" lon="9.402956061199168"><ele>349.0</ele><time>2026-04-08T14:27:44Z</time></trkpt><trkpt lat="35.25855343138553" lon="9.403083241383152"><ele>349.75</ele><time>2026-04-08T14:27:45Z</time></trkpt><trkpt lat="35.25865143047292" lon="9.40320202234024"><ele>350.5</ele><time>2026-04-08T14:27:46Z</time></trkpt><trkpt lat="35.25874085097095" lon="9.403313566079756"><ele>351.25</ele><time>2026-04-08T14:27:47Z</time></trkpt><trkpt lat="35.25882612380065" lon="9.403420778674612"><ele>352.0</ele><time>2026-04-08T14:27:48Z</time></trkpt><trkpt lat="35.25890485090766" lon="9.403515108420205"><ele>352.40000000000003</ele><time>2026-04-08T14:27:49Z</time></trkpt><trkpt lat="35.25898340135955" lon="9.403605869354491"><ele>352.8</ele><time>2026-04-08T14:27:50Z</time></trkpt><trkpt lat="35.259061075472665" lon="9.403699315293219"><ele>353.2</ele><time>2026-04-08T14:27:51Z</time></trkpt><trkpt lat="35.259138818979" lon="9.40379242104368"><ele>353.6</ele><time>2026-04-08T14:27:52Z</time></trkpt><trkpt lat="35.259215220724876" lon="9.403881842140738"><ele>354.0</ele><time>2026-04-08T14:27:53Z</time></trkpt><trkpt lat="35.25928643100763" lon="9.403963529486383"><ele>354.5</ele><time>2026-04-08T14:27:54Z</time></trkpt><trkpt lat="35.2593521000648" lon="9.404041409287009"><ele>355.0</ele><time>2026-04-08T14:27:55Z</time></trkpt><trkpt lat="35.25941535557726" lon="9.404116206719396"><ele>355.5</ele><time>2026-04-08T14:27:56Z</time></trkpt><trkpt lat="35.25946754759166" lon="9.404185340177138"><ele>356.0</ele><time>2026-04-08T14:27:57Z</time></trkpt><trkpt lat="35.25953554825154" lon="9.404274017333686"><ele>356.5</ele><time>2026-04-08T14:27:59Z</time></trkpt><trkpt lat="35.25959303904566" lon="9.404332052480386"><ele>357.0</ele><time>2026-04-08T14:28:01Z</time></trkpt><trkpt lat="35.259688656535694" lon="9.404445986586502"><ele>357.0</ele><time>2026-04-08T14:28:03Z</time></trkpt><trkpt lat="35.2597507174474" lon="9.404526475986241"><ele>357.0</ele><time>2026-04-08T14:28:04Z</time></trkpt><trkpt lat="35.259812531079135" lon="9.404600557352142"><ele>357.0</ele><time>2026-04-08T14:28:05Z</time></trkpt><trkpt lat="35.2598773630713" lon="9.404676312007004"><ele>357.0</ele><time>2026-04-08T14:28:06Z</time></trkpt><trkpt lat="35.259950374344214" lon="9.404760592436922"><ele>357.0</ele><time>2026-04-08T14:28:07Z</time></trkpt><trkpt lat="35.26002519844815" lon="9.404846016467577"><ele>357.25</ele><time>2026-04-08T14:28:08Z</time></trkpt><trkpt lat="35.26010494213311" lon="9.404938758602903"><ele>357.5</ele><time>2026-04-08T14:28:09Z</time></trkpt><trkpt lat="35.2601873329295" lon="9.405033807642202"><ele>357.75</ele><time>2026-04-08T14:28:10Z</time></trkpt><trkpt lat="35.26027341106255" lon="9.405135104254464"><ele>358.0</ele><time>2026-04-08T14:28:11Z</time></trkpt><trkpt lat="35.26036254483737" lon="9.405239096337747"><ele>358.0</ele><time>2026-04-08T14:28:12Z</time></trkpt><trkpt lat="35.26045589499415" lon="9.405351021768542"><ele>358.0</ele><time>2026-04-08T14:28:13Z</time></trkpt><trkpt lat="35.26055025803124" lon="9.405461043269977"><ele>358.0</ele><time>2026-04-08T14:28:14Z</time></trkpt><trkpt lat="35.26064230525624" lon="9.405575732549453"><ele>358.0</ele><time>2026-04-08T14:28:15Z</time></trkpt><trkpt lat="35.26073596884288" lon="9.40568604474123"><ele>358.75</ele><time>2026-04-08T14:28:16Z</time></trkpt><trkpt lat="35.260830828246824" lon="9.405789746855813"><ele>359.5</ele><time>2026-04-08T14:28:16.999Z</time></trkpt><trkpt lat="35.26092529338363" lon="9.405895015408213"><ele>360.25</ele><time>2026-04-08T14:28:17.999Z</time></trkpt><trkpt lat="35.26101732117995" lon="9.406005638429212"><ele>361.0</ele><time>2026-04-08T14:28:18.999Z</time></trkpt><trkpt lat="35.26110429551294" lon="9.406110859469734"><ele>361.0</ele><time>2026-04-08T14:28:19.999Z</time></trkpt><trkpt lat="35.26119452700576" lon="9.40621772071046"><ele>361.0</ele><time>2026-04-08T14:28:20.999Z</time></trkpt><trkpt lat="35.26128690779479" lon="9.406329835619562"><ele>361.0</ele><time>2026-04-08T14:28:21.999Z</time></trkpt><trkpt lat="35.261379256639614" lon="9.406441906794543"><ele>361.0</ele><time>2026-04-08T14:28:22.999Z</time></trkpt><trkpt lat="35.261476005648305" lon="9.406553670593338"><ele>360.5</ele><time>2026-04-08T14:28:23.999Z</time></trkpt><trkpt lat="35.26157343828534" lon="9.406668226379615"><ele>360.0</ele><time>2026-04-08T14:28:24.999Z</time></trkpt><trkpt lat="35.26166642260239" lon="9.406785857843598"><ele>359.5</ele><time>2026-04-08T14:28:25.999Z</time></trkpt><trkpt lat="35.26176298949176" lon="9.406903347700382"><ele>359.0</ele><time>2026-04-08T14:28:26.999Z</time></trkpt><trkpt lat="35.26186355648281" lon="9.407016782517134"><ele>359.0</ele><time>2026-04-08T14:28:27.999Z</time></trkpt><trkpt lat="35.261962736907876" lon="9.407130368495947"><ele>359.0</ele><time>2026-04-08T14:28:28.999Z</time></trkpt><trkpt lat="35.262058034211165" lon="9.407250041865442"><ele>359.0</ele><time>2026-04-08T14:28:29.999Z</time></trkpt><trkpt lat="35.26215684658654" lon="9.407366732225574"><ele>359.0</ele><time>2026-04-08T14:28:30.999Z</time></trkpt><trkpt lat="35.26225908366579" lon="9.407483482639739"><ele>359.5</ele><time>2026-04-08T14:28:31.999Z</time></trkpt><trkpt lat="35.26235585145459" lon="9.407609010312207"><ele>360.0</ele><time>2026-04-08T14:28:32.999Z</time></trkpt><trkpt lat="35.26245475488651" lon="9.407733808806562"><ele>360.5</ele><time>2026-04-08T14:28:33.999Z</time></trkpt><trkpt lat="35.262556102553255" lon="9.407851991922973"><ele>361.0</ele><time>2026-04-08T14:28:34.999Z</time></trkpt><trkpt lat="35.26264856925118" lon="9.407964098619043"><ele>361.0</ele><time>2026-04-08T14:28:35.999Z</time></trkpt><trkpt lat="35.262739482378755" lon="9.408082226424339"><ele>361.0</ele><time>2026-04-08T14:28:36.999Z</time></trkpt><trkpt lat="35.26283623194502" lon="9.408202078589179"><ele>361.0</ele><time>2026-04-08T14:28:37.999Z</time></trkpt><trkpt lat="35.26292746846087" lon="9.408322180346808"><ele>361.0</ele><time>2026-04-08T14:28:38.999Z</time></trkpt><trkpt lat="35.26300742885046" lon="9.408440589818284"><ele>361.0</ele><time>2026-04-08T14:28:39.999Z</time></trkpt><trkpt lat="35.26308439788573" lon="9.408553609906392"><ele>361.0</ele><time>2026-04-08T14:28:40.999Z</time></trkpt><trkpt lat="35.263163287456436" lon="9.408666208220616"><ele>361.0</ele><time>2026-04-08T14:28:41.999Z</time></trkpt><trkpt lat="35.26324162311767" lon="9.408780917535301"><ele>361.0</ele><time>2026-04-08T14:28:42.999Z</time></trkpt><trkpt lat="35.263317836976455" lon="9.408896958894001"><ele>361.25</ele><time>2026-04-08T14:28:43.999Z</time></trkpt><trkpt lat="35.26339552384625" lon="9.409014237111066"><ele>361.5</ele><time>2026-04-08T14:28:44.999Z</time></trkpt><trkpt lat="35.26347236239104" lon="9.409130387594008"><ele>361.75</ele><time>2026-04-08T14:28:46Z</time></trkpt><trkpt lat="35.26354851831781" lon="9.40924835228145"><ele>362.0</ele><time>2026-04-08T14:28:47Z</time></trkpt><trkpt lat="35.263622426938035" lon="9.409366672552105"><ele>362.0</ele><time>2026-04-08T14:28:48Z</time></trkpt><trkpt lat="35.263700024633366" lon="9.409488562164503"><ele>362.0</ele><time>2026-04-08T14:28:49Z</time></trkpt><trkpt lat="35.26378054417933" lon="9.409606876935381"><ele>362.0</ele><time>2026-04-08T14:28:50Z</time></trkpt><trkpt lat="35.26386356081183" lon="9.409726277021429"><ele>362.0</ele><time>2026-04-08T14:28:51Z</time></trkpt><trkpt lat="35.2639477721266" lon="9.409848088342216"><ele>362.0</ele><time>2026-04-08T14:28:52Z</time></trkpt><trkpt lat="35.26403108959843" lon="9.409972770969445"><ele>362.0</ele><time>2026-04-08T14:28:53Z</time></trkpt><trkpt lat="35.26411220451288" lon="9.410101109554695"><ele>362.0</ele><time>2026-04-08T14:28:54Z</time></trkpt><trkpt lat="35.26419326651277" lon="9.410226546287243"><ele>362.0</ele><time>2026-04-08T14:28:55Z</time></trkpt><trkpt lat="35.264276151240395" lon="9.410348709303962"><ele>362.0</ele><time>2026-04-08T14:28:56Z</time></trkpt><trkpt lat="35.264361046567466" lon="9.410475442207586"><ele>362.0</ele><time>2026-04-08T14:28:57Z</time></trkpt><trkpt lat="35.26444642682065" lon="9.410603025540405"><ele>362.0</ele><time>2026-04-08T14:28:58Z</time></trkpt><trkpt lat="35.26453156526625" lon="9.410733757777962"><ele>362.0</ele><time>2026-04-08T14:28:59Z</time></trkpt><trkpt lat="35.264619162510165" lon="9.410867531489176"><ele>361.75</ele><time>2026-04-08T14:29:00Z</time></trkpt><trkpt lat="35.26470613179086" lon="9.411000421997025"><ele>361.5</ele><time>2026-04-08T14:29:01Z</time></trkpt><trkpt lat="35.264792639486586" lon="9.411127825189242"><ele>361.25</ele><time>2026-04-08T14:29:02Z</time></trkpt><trkpt lat="35.26487859831305" lon="9.411257014049156"><ele>361.0</ele><time>2026-04-08T14:29:03Z</time></trkpt><trkpt lat="35.26496283338465" lon="9.411386819548994"><ele>361.0</ele><time>2026-04-08T14:29:04Z</time></trkpt><trkpt lat="35.26504661637576" lon="9.411516802117134"><ele>361.0</ele><time>2026-04-08T14:29:05Z</time></trkpt><trkpt lat="35.265130214972515" lon="9.411644190922608"><ele>361.0</ele><time>2026-04-08T14:29:06Z</time></trkpt><trkpt lat="35.26521828585814" lon="9.411772404831183"><ele>361.0</ele><time>2026-04-08T14:29:07Z</time></trkpt><trkpt lat="35.265302907306115" lon="9.411900831363264"><ele>361.0</ele><time>2026-04-08T14:29:08Z</time></trkpt><trkpt lat="35.265389400363475" lon="9.41203142098351"><ele>361.0</ele><time>2026-04-08T14:29:09Z</time></trkpt><trkpt lat="35.26547494137377" lon="9.41215953278875"><ele>361.0</ele><time>2026-04-08T14:29:10Z</time></trkpt><trkpt lat="35.26556010118871" lon="9.412286970098997"><ele>361.0</ele><time>2026-04-08T14:29:11Z</time></trkpt><trkpt lat="35.26562999722658" lon="9.412390021918267"><ele>361.4</ele><time>2026-04-08T14:29:12Z</time></trkpt><trkpt lat="35.265681118772356" lon="9.41246630951358"><ele>361.8</ele><time>2026-04-08T14:29:13Z</time></trkpt><trkpt lat="35.265760164906396" lon="9.41258741811035"><ele>362.2</ele><time>2026-04-08T14:29:15Z</time></trkpt><trkpt lat="35.26583826469294" lon="9.41270518807373"><ele>362.59999999999997</ele><time>2026-04-08T14:29:17Z</time></trkpt><trkpt lat="35.265882914971385" lon="9.412772726017819"><ele>363.0</ele><time>2026-04-08T14:29:18Z</time></trkpt><trkpt lat="35.26592442897183" lon="9.41283970869494"><ele>363.0</ele><time>2026-04-08T14:29:19Z</time></trkpt><trkpt lat="35.26597592031599" lon="9.412911894437242"><ele>363.0</ele><time>2026-04-08T14:29:20Z</time></trkpt><trkpt lat="35.26603276460315" lon="9.412991153269566"><ele>363.0</ele><time>2026-04-08T14:29:21Z</time></trkpt><trkpt lat="35.26608739892811" lon="9.413077281029922"><ele>363.0</ele><time>2026-04-08T14:29:22Z</time></trkpt><trkpt lat="35.2661426523482" lon="9.41316703074134"><ele>363.0</ele><time>2026-04-08T14:29:23Z</time></trkpt><trkpt lat="35.26620117291415" lon="9.41325757422571"><ele>363.0</ele><time>2026-04-08T14:29:24Z</time></trkpt><trkpt lat="35.26626150914325" lon="9.413347943672973"><ele>363.0</ele><time>2026-04-08T14:29:25Z</time></trkpt><trkpt lat="35.26632108029394" lon="9.413438535657823"><ele>363.0</ele><time>2026-04-08T14:29:26Z</time></trkpt><trkpt lat="35.26637366226334" lon="9.413514380337439"><ele>363.0</ele><time>2026-04-08T14:29:27Z</time></trkpt><trkpt lat="35.26642384013186" lon="9.413580328349832"><ele>363.0</ele><time>2026-04-08T14:29:28Z</time></trkpt><trkpt lat="35.26646745413397" lon="9.413644090239039"><ele>363.0</ele><time>2026-04-08T14:29:29Z</time></trkpt><trkpt lat="35.26654241674881" lon="9.413760208392281"><ele>363.0</ele><time>2026-04-08T14:29:31Z</time></trkpt><trkpt lat="35.26660860733471" lon="9.413862092560127"><ele>363.0</ele><time>2026-04-08T14:29:33Z</time></trkpt><trkpt lat="35.2666696624145" lon="9.413971786263492"><ele>363.0</ele><time>2026-04-08T14:29:35Z</time></trkpt><trkpt lat="35.2667071180448" lon="9.414037037870537"><ele>363.0</ele><time>2026-04-08T14:29:36Z</time></trkpt><trkpt lat="35.26676461982943" lon="9.414109967466938"><ele>363.0</ele><time>2026-04-08T14:29:37Z</time></trkpt><trkpt lat="35.26682371598787" lon="9.414194385653412"><ele>363.0</ele><time>2026-04-08T14:29:38Z</time></trkpt><trkpt lat="35.26688296944863" lon="9.414284966333483"><ele>363.0</ele><time>2026-04-08T14:29:39Z</time></trkpt><trkpt lat="35.26694378023398" lon="9.414377478109142"><ele>363.0</ele><time>2026-04-08T14:29:40Z</time></trkpt><trkpt lat="35.267005258252894" lon="9.414465731463098"><ele>363.0</ele><time>2026-04-08T14:29:41Z</time></trkpt><trkpt lat="35.26707064575755" lon="9.414554672061932"><ele>363.0</ele><time>2026-04-08T14:29:42Z</time></trkpt><trkpt lat="35.26713339630551" lon="9.414643394453032"><ele>363.0</ele><time>2026-04-08T14:29:43Z</time></trkpt><trkpt lat="35.26719308670293" lon="9.414733688347795"><ele>363.0</ele><time>2026-04-08T14:29:44Z</time></trkpt><trkpt lat="35.26725298933754" lon="9.414822082405424"><ele>363.4</ele><time>2026-04-08T14:29:45Z</time></trkpt><trkpt lat="35.2673149407651" lon="9.414911337439268"><ele>363.79999999999995</ele><time>2026-04-08T14:29:46Z</time></trkpt><trkpt lat="35.26738009828976" lon="9.415012234115924"><ele>364.2</ele><time>2026-04-08T14:29:47Z</time></trkpt><trkpt lat="35.26745017876735" lon="9.415119579896798"><ele>364.6</ele><time>2026-04-08T14:29:48Z</time></trkpt><trkpt lat="35.26751772076665" lon="9.415225049908521"><ele>365.0</ele><time>2026-04-08T14:29:49Z</time></trkpt><trkpt lat="35.267592258637" lon="9.415336293131924"><ele>365.0</ele><time>2026-04-08T14:29:50Z</time></trkpt><trkpt lat="35.26767603132478" lon="9.415457107585036"><ele>365.0</ele><time>2026-04-08T14:29:51Z</time></trkpt><trkpt lat="35.26775583172585" lon="9.415578437949879"><ele>365.0</ele><time>2026-04-08T14:29:52Z</time></trkpt><trkpt lat="35.26783260306367" lon="9.415700035094256"><ele>365.0</ele><time>2026-04-08T14:29:53Z</time></trkpt><trkpt lat="35.26790741555114" lon="9.415815819472458"><ele>365.25</ele><time>2026-04-08T14:29:54Z</time></trkpt><trkpt lat="35.26798285289433" lon="9.415933461934669"><ele>365.5</ele><time>2026-04-08T14:29:55Z</time></trkpt><trkpt lat="35.26805939031033" lon="9.416049453028803"><ele>365.75</ele><time>2026-04-08T14:29:56Z</time></trkpt><trkpt lat="35.26813805537702" lon="9.416166836020448"><ele>366.0</ele><time>2026-04-08T14:29:57Z</time></trkpt><trkpt lat="35.268214442786146" lon="9.416282317276002"><ele>366.25</ele><time>2026-04-08T14:29:58Z</time></trkpt><trkpt lat="35.268290763387505" lon="9.416399260778723"><ele>366.5</ele><time>2026-04-08T14:29:59Z</time></trkpt><trkpt lat="35.26836335076504" lon="9.416523156482437"><ele>366.75</ele><time>2026-04-08T14:30:00Z</time></trkpt><trkpt lat="35.26843749411538" lon="9.41663963707743"><ele>367.0</ele><time>2026-04-08T14:30:01Z</time></trkpt><trkpt lat="35.26850264139502" lon="9.416731556898627"><ele>367.0</ele><time>2026-04-08T14:30:02Z</time></trkpt><trkpt lat="35.26855370238094" lon="9.416798022313095"><ele>367.0</ele><time>2026-04-08T14:30:03Z</time></trkpt><trkpt lat="35.26859746232379" lon="9.416860976925133"><ele>367.0</ele><time>2026-04-08T14:30:04Z</time></trkpt><trkpt lat="35.26867081484147" lon="9.416961954117506"><ele>367.0</ele><time>2026-04-08T14:30:06Z</time></trkpt><trkpt lat="35.26874867065037" lon="9.417070311855882"><ele>367.0</ele><time>2026-04-08T14:30:08Z</time></trkpt><trkpt lat="35.26879380246276" lon="9.417129223503569"><ele>367.0</ele><time>2026-04-08T14:30:09Z</time></trkpt><trkpt lat="35.268838168916304" lon="9.417197816358684"><ele>367.0</ele><time>2026-04-08T14:30:10Z</time></trkpt><trkpt lat="35.26888404175954" lon="9.41727374344613"><ele>367.0</ele><time>2026-04-08T14:30:11Z</time></trkpt><trkpt lat="35.26892872066163" lon="9.417351625519272"><ele>367.0</ele><time>2026-04-08T14:30:12Z</time></trkpt><trkpt lat="35.26897470456464" lon="9.417433741794925"><ele>367.0</ele><time>2026-04-08T14:30:13Z</time></trkpt><trkpt lat="35.26902994699492" lon="9.417510661401751"><ele>367.0</ele><time>2026-04-08T14:30:14Z</time></trkpt><trkpt lat="35.269092104429504" lon="9.417588464811098"><ele>367.0</ele><time>2026-04-08T14:30:15Z</time></trkpt><trkpt lat="35.2691396759829" lon="9.417673500768196"><ele>367.0</ele><time>2026-04-08T14:30:16Z</time></trkpt><trkpt lat="35.269191670410876" lon="9.417756257707042"><ele>367.0</ele><time>2026-04-08T14:30:17Z</time></trkpt><trkpt lat="35.26924288058491" lon="9.417836622991883"><ele>367.0</ele><time>2026-04-08T14:30:18Z</time></trkpt><trkpt lat="35.26929127680156" lon="9.417906310219358"><ele>367.0</ele><time>2026-04-08T14:30:19Z</time></trkpt><trkpt lat="35.2693346785544" lon="9.417978048475788"><ele>367.0</ele><time>2026-04-08T14:30:20Z</time></trkpt><trkpt lat="35.2693780722118" lon="9.418056021672742"><ele>367.0</ele><time>2026-04-08T14:30:21Z</time></trkpt><trkpt lat="35.26943024938621" lon="9.418137148375614"><ele>367.0</ele><time>2026-04-08T14:30:22Z</time></trkpt><trkpt lat="35.26948406185163" lon="9.418211596294077"><ele>367.0</ele><time>2026-04-08T14:30:23Z</time></trkpt><trkpt lat="35.2695365262286" lon="9.418292748390318"><ele>367.0</ele><time>2026-04-08T14:30:23.999Z</time></trkpt><trkpt lat="35.269584020935014" lon="9.41835978887853"><ele>367.0</ele><time>2026-04-08T14:30:24.999Z</time></trkpt><trkpt lat="35.269643034587176" lon="9.418464846041529"><ele>367.0</ele><time>2026-04-08T14:30:26.999Z</time></trkpt><trkpt lat="35.269687025447176" lon="9.418591161834726"><ele>367.0</ele><time>2026-04-08T14:30:28.999Z</time></trkpt><trkpt lat="35.26974649978857" lon="9.418685839949797"><ele>367.0</ele><time>2026-04-08T14:30:30.999Z</time></trkpt><trkpt lat="35.26983267629169" lon="9.418737247893164"><ele>367.0</ele><time>2026-04-08T14:30:32.999Z</time></trkpt><trkpt lat="35.26995171403578" lon="9.418740657655462"><ele>367.0</ele><time>2026-04-08T14:30:34.999Z</time></trkpt><trkpt lat="35.27001925019111" lon="9.41874801166865"><ele>367.0</ele><time>2026-04-08T14:30:35.999Z</time></trkpt><trkpt lat="35.27008498523067" lon="9.418754423979708"><ele>367.0</ele><time>2026-04-08T14:30:36.999Z</time></trkpt><trkpt lat="35.27015386510221" lon="9.418769131978458"><ele>367.0</ele><time>2026-04-08T14:30:37.999Z</time></trkpt><trkpt lat="35.27023274066612" lon="9.418782968827424"><ele>367.0</ele><time>2026-04-08T14:30:38.999Z</time></trkpt><trkpt lat="35.27031525499487" lon="9.418801652635937"><ele>367.0</ele><time>2026-04-08T14:30:39.999Z</time></trkpt><trkpt lat="35.270398108570106" lon="9.418833891104113"><ele>367.0</ele><time>2026-04-08T14:30:40.999Z</time></trkpt><trkpt lat="35.27048765755713" lon="9.418874972890876"><ele>367.0</ele><time>2026-04-08T14:30:41.999Z</time></trkpt><trkpt lat="35.27058124448525" lon="9.418909274116984"><ele>367.0</ele><time>2026-04-08T14:30:42.999Z</time></trkpt><trkpt lat="35.27066633740268" lon="9.418930391450363"><ele>366.6</ele><time>2026-04-08T14:30:43.999Z</time></trkpt><trkpt lat="35.270741870757895" lon="9.418951904246004"><ele>366.20000000000005</ele><time>2026-04-08T14:30:44.999Z</time></trkpt><trkpt lat="35.270827245830176" lon="9.418981522298715"><ele>365.8</ele><time>2026-04-08T14:30:45.999Z</time></trkpt><trkpt lat="35.27091923257702" lon="9.419010144179513"><ele>365.4</ele><time>2026-04-08T14:30:46.999Z</time></trkpt><trkpt lat="35.27101542794906" lon="9.419025919635102"><ele>365.0</ele><time>2026-04-08T14:30:47.999Z</time></trkpt><trkpt lat="35.27111024802883" lon="9.419039255607826"><ele>365.0</ele><time>2026-04-08T14:30:48.999Z</time></trkpt><trkpt lat="35.27120959935539" lon="9.419049561574665"><ele>365.0</ele><time>2026-04-08T14:30:49.999Z</time></trkpt><trkpt lat="35.271307282487065" lon="9.419048937631205"><ele>365.0</ele><time>2026-04-08T14:30:50.999Z</time></trkpt><trkpt lat="35.27140565337234" lon="9.419045393313116"><ele>365.0</ele><time>2026-04-08T14:30:52Z</time></trkpt><trkpt lat="35.27150915932274" lon="9.419045845672564"><ele>365.0</ele><time>2026-04-08T14:30:53Z</time></trkpt><trkpt lat="35.27161478994325" lon="9.419041895901403"><ele>365.0</ele><time>2026-04-08T14:30:54Z</time></trkpt><trkpt lat="35.271715554735785" lon="9.419037066218555"><ele>365.0</ele><time>2026-04-08T14:30:55Z</time></trkpt><trkpt lat="35.27181472777948" lon="9.41903843224458"><ele>365.0</ele><time>2026-04-08T14:30:56Z</time></trkpt><trkpt lat="35.271912863554896" lon="9.4190408923758"><ele>365.0</ele><time>2026-04-08T14:30:57Z</time></trkpt><trkpt lat="35.27201108259298" lon="9.419033295190964"><ele>365.0</ele><time>2026-04-08T14:30:58Z</time></trkpt><trkpt lat="35.272108864674806" lon="9.419029001374067"><ele>365.0</ele><time>2026-04-08T14:30:59Z</time></trkpt><trkpt lat="35.272206030281865" lon="9.419026917849193"><ele>365.0</ele><time>2026-04-08T14:31:00Z</time></trkpt><trkpt lat="35.272303221985304" lon="9.419019966468227"><ele>365.0</ele><time>2026-04-08T14:31:01Z</time></trkpt><trkpt lat="35.272396105721164" lon="9.419012726878416"><ele>365.0</ele><time>2026-04-08T14:31:02Z</time></trkpt><trkpt lat="35.272480192273825" lon="9.419006621910015"><ele>365.0</ele><time>2026-04-08T14:31:03Z</time></trkpt><trkpt lat="35.27255357511915" lon="9.419007457261179"><ele>365.0</ele><time>2026-04-08T14:31:04Z</time></trkpt><trkpt lat="35.27262612175405" lon="9.419004757253305"><ele>365.0</ele><time>2026-04-08T14:31:05Z</time></trkpt><trkpt lat="35.27270646897772" lon="9.418993444903519"><ele>365.0</ele><time>2026-04-08T14:31:06Z</time></trkpt><trkpt lat="35.272799198037376" lon="9.41899793170011"><ele>365.0</ele><time>2026-04-08T14:31:07Z</time></trkpt><trkpt lat="35.272908237286124" lon="9.419009090471622"><ele>365.0</ele><time>2026-04-08T14:31:08Z</time></trkpt><trkpt lat="35.273015313903144" lon="9.419007315458831"><ele>365.0</ele><time>2026-04-08T14:31:09Z</time></trkpt><trkpt lat="35.273112986366094" lon="9.419000209194339"><ele>364.8</ele><time>2026-04-08T14:31:10Z</time></trkpt><trkpt lat="35.273207591296526" lon="9.418999757426795"><ele>364.6</ele><time>2026-04-08T14:31:11Z</time></trkpt><trkpt lat="35.27330262361815" lon="9.418998440405526"><ele>364.4</ele><time>2026-04-08T14:31:12Z</time></trkpt><trkpt lat="35.273398801921076" lon="9.418997101838501"><ele>364.2</ele><time>2026-04-08T14:31:13Z</time></trkpt><trkpt lat="35.273503413243226" lon="9.41899301647446"><ele>364.0</ele><time>2026-04-08T14:31:14Z</time></trkpt><trkpt lat="35.273610744722816" lon="9.418986965206367"><ele>364.0</ele><time>2026-04-08T14:31:15Z</time></trkpt><trkpt lat="35.27372409885928" lon="9.418985431927725"><ele>364.0</ele><time>2026-04-08T14:31:16Z</time></trkpt><trkpt lat="35.27383800359789" lon="9.418997251887653"><ele>364.0</ele><time>2026-04-08T14:31:17Z</time></trkpt><trkpt lat="35.273949834637804" lon="9.418998072308428"><ele>364.0</ele><time>2026-04-08T14:31:18Z</time></trkpt><trkpt lat="35.274061166467966" lon="9.418991087848875"><ele>364.4</ele><time>2026-04-08T14:31:19Z</time></trkpt><trkpt lat="35.274171956224855" lon="9.418994752713925"><ele>364.79999999999995</ele><time>2026-04-08T14:31:20Z</time></trkpt><trkpt lat="35.27428455383774" lon="9.418996166320113"><ele>365.20000000000005</ele><time>2026-04-08T14:31:21Z</time></trkpt><trkpt lat="35.274394648216905" lon="9.418991556204697"><ele>365.6</ele><time>2026-04-08T14:31:22Z</time></trkpt><trkpt lat="35.2745069967427" lon="9.418984436443433"><ele>366.0</ele><time>2026-04-08T14:31:23Z</time></trkpt><trkpt lat="35.27461893935402" lon="9.418982727186885"><ele>366.0</ele><time>2026-04-08T14:31:24Z</time></trkpt><trkpt lat="35.274730001345375" lon="9.41898381500282"><ele>366.0</ele><time>2026-04-08T14:31:25Z</time></trkpt><trkpt lat="35.27483729108083" lon="9.418983953576797"><ele>366.0</ele><time>2026-04-08T14:31:26Z</time></trkpt><trkpt lat="35.27494359319975" lon="9.418980193392006"><ele>366.0</ele><time>2026-04-08T14:31:27Z</time></trkpt><trkpt lat="35.275052363846186" lon="9.418976738928155"><ele>366.0</ele><time>2026-04-08T14:31:28Z</time></trkpt><trkpt lat="35.27515885102586" lon="9.418979012833102"><ele>366.0</ele><time>2026-04-08T14:31:29Z</time></trkpt><trkpt lat="35.275267521021604" lon="9.418979672549805"><ele>366.0</ele><time>2026-04-08T14:31:30Z</time></trkpt><trkpt lat="35.27537229634712" lon="9.418978851536375"><ele>366.0</ele><time>2026-04-08T14:31:31Z</time></trkpt><trkpt lat="35.275478438455615" lon="9.418973317796405"><ele>366.0</ele><time>2026-04-08T14:31:32Z</time></trkpt><trkpt lat="35.27558315468607" lon="9.418964190398206"><ele>366.0</ele><time>2026-04-08T14:31:33Z</time></trkpt><trkpt lat="35.27568623337176" lon="9.41896211364958"><ele>366.4</ele><time>2026-04-08T14:31:34Z</time></trkpt><trkpt lat="35.27578959031536" lon="9.418964540058827"><ele>366.8</ele><time>2026-04-08T14:31:35Z</time></trkpt><trkpt lat="35.275894605527085" lon="9.418962770468113"><ele>367.2</ele><time>2026-04-08T14:31:36Z</time></trkpt><trkpt lat="35.27599990994488" lon="9.418962807331372"><ele>367.59999999999997</ele><time>2026-04-08T14:31:37Z</time></trkpt><trkpt lat="35.276104284183106" lon="9.418965166009484"><ele>368.0</ele><time>2026-04-08T14:31:38Z</time></trkpt><trkpt lat="35.276208975782914" lon="9.418966196105224"><ele>368.0</ele><time>2026-04-08T14:31:39Z</time></trkpt><trkpt lat="35.27631757731856" lon="9.418964369453434"><ele>368.0</ele><time>2026-04-08T14:31:40Z</time></trkpt><trkpt lat="35.27642431204467" lon="9.418960711771943"><ele>368.0</ele><time>2026-04-08T14:31:41Z</time></trkpt><trkpt lat="35.276529552599165" lon="9.418956408579009"><ele>368.0</ele><time>2026-04-08T14:31:42Z</time></trkpt><trkpt lat="35.27663409181404" lon="9.41895142042288"><ele>368.0</ele><time>2026-04-08T14:31:43Z</time></trkpt><trkpt lat="35.27673895963874" lon="9.418949093164986"><ele>368.2</ele><time>2026-04-08T14:31:44Z</time></trkpt><trkpt lat="35.276844415465725" lon="9.41894752023977"><ele>368.4</ele><time>2026-04-08T14:31:45Z</time></trkpt><trkpt lat="35.27695181538762" lon="9.418945846112106"><ele>368.59999999999997</ele><time>2026-04-08T14:31:46Z</time></trkpt><trkpt lat="35.27705635768224" lon="9.418946348930266"><ele>368.79999999999995</ele><time>2026-04-08T14:31:47Z</time></trkpt><trkpt lat="35.27715547761508" lon="9.418942545453895"><ele>369.0</ele><time>2026-04-08T14:31:48Z</time></trkpt><trkpt lat="35.27723848475467" lon="9.418933526328752"><ele>369.1666666666667</ele><time>2026-04-08T14:31:49Z</time></trkpt><trkpt lat="35.27730655286663" lon="9.418930658288012"><ele>369.3333333333333</ele><time>2026-04-08T14:31:50Z</time></trkpt><trkpt lat="35.277421277209946" lon="9.418934020494351"><ele>369.5</ele><time>2026-04-08T14:31:52Z</time></trkpt><trkpt lat="35.27751059752845" lon="9.41893603925211"><ele>369.66666666666663</ele><time>2026-04-08T14:31:54Z</time></trkpt><trkpt lat="35.277618161378356" lon="9.418932511817207"><ele>369.8333333333333</ele><time>2026-04-08T14:31:56Z</time></trkpt><trkpt lat="35.277685515780306" lon="9.418928222809212"><ele>370.0</ele><time>2026-04-08T14:31:57Z</time></trkpt><trkpt lat="35.27775343565847" lon="9.418926662052769"><ele>370.0</ele><time>2026-04-08T14:31:58Z</time></trkpt><trkpt lat="35.27782413481159" lon="9.418920853543792"><ele>370.0</ele><time>2026-04-08T14:31:59Z</time></trkpt><trkpt lat="35.277910920371056" lon="9.418903502718157"><ele>370.0</ele><time>2026-04-08T14:32:00Z</time></trkpt><trkpt lat="35.2780431467792" lon="9.418897817941316"><ele>370.0</ele><time>2026-04-08T14:32:01Z</time></trkpt><trkpt lat="35.27817633626013" lon="9.418908668060558"><ele>370.0</ele><time>2026-04-08T14:32:02Z</time></trkpt><trkpt lat="35.27827124870337" lon="9.418918967367171"><ele>370.5</ele><time>2026-04-08T14:32:03Z</time></trkpt><trkpt lat="35.27834774261378" lon="9.418914675000856"><ele>371.0</ele><time>2026-04-08T14:32:04Z</time></trkpt><trkpt lat="35.27842179333169" lon="9.418908516011719"><ele>371.5</ele><time>2026-04-08T14:32:05Z</time></trkpt><trkpt lat="35.278487409888506" lon="9.418907247432097"><ele>372.0</ele><time>2026-04-08T14:32:06Z</time></trkpt><trkpt lat="35.278585092401414" lon="9.418903042123501"><ele>372.5</ele><time>2026-04-08T14:32:08Z</time></trkpt><trkpt lat="35.278693714973556" lon="9.418897873497807"><ele>373.0</ele><time>2026-04-08T14:32:10Z</time></trkpt><trkpt lat="35.27880572758666" lon="9.418898978144881"><ele>373.0</ele><time>2026-04-08T14:32:12Z</time></trkpt><trkpt lat="35.278933901625514" lon="9.418892015778479"><ele>373.0</ele><time>2026-04-08T14:32:14Z</time></trkpt><trkpt lat="35.278997930844604" lon="9.418888603954244"><ele>373.0</ele><time>2026-04-08T14:32:15Z</time></trkpt><trkpt lat="35.279063096195024" lon="9.418887703068345"><ele>373.0</ele><time>2026-04-08T14:32:16Z</time></trkpt><trkpt lat="35.279127068381484" lon="9.418887756890419"><ele>373.0</ele><time>2026-04-08T14:32:17Z</time></trkpt><trkpt lat="35.27919131365752" lon="9.418890981221066"><ele>373.0</ele><time>2026-04-08T14:32:18Z</time></trkpt><trkpt lat="35.27930534547789" lon="9.41889715445294"><ele>373.3333333333333</ele><time>2026-04-08T14:32:20Z</time></trkpt><trkpt lat="35.2793859888133" lon="9.418897031983006"><ele>373.66666666666663</ele><time>2026-04-08T14:32:22Z</time></trkpt><trkpt lat="35.27945432483137" lon="9.418887934261924"><ele>374.0</ele><time>2026-04-08T14:32:23.999Z</time></trkpt><trkpt lat="35.27952006518385" lon="9.418884554448448"><ele>374.3333333333333</ele><time>2026-04-08T14:32:25.999Z</time></trkpt><trkpt lat="35.279605393002974" lon="9.41885583407198"><ele>374.6666666666667</ele><time>2026-04-08T14:32:28.999Z</time></trkpt><trkpt lat="35.27962977646948" lon="9.418766771450485"><ele>375.0</ele><time>2026-04-08T14:32:31.999Z</time></trkpt><trkpt lat="35.27958864195158" lon="9.418689060195238"><ele>375.0</ele><time>2026-04-08T14:32:34.999Z</time></trkpt><trkpt lat="35.279521660698265" lon="9.418689876119668"><ele>375.0</ele><time>2026-04-08T14:32:40.999Z</time></trkpt><trkpt lat="35.27945968663773" lon="9.418753991504833"><ele>375.0</ele><time>2026-04-08T14:36:14Z</time></trkpt><trkpt lat="35.27937616632085" lon="9.418743413427922"><ele>375.0</ele><time>2026-04-08T14:36:17Z</time></trkpt><trkpt lat="35.27930265950927" lon="9.4187252583329"><ele>375.0</ele><time>2026-04-08T14:36:18.999Z</time></trkpt><trkpt lat="35.27925249271451" lon="9.418773773878055"><ele>375.0</ele><time>2026-04-08T14:38:34Z</time></trkpt><trkpt lat="35.27920827259315" lon="9.418833982089534"><ele>375.0</ele><time>2026-04-08T14:40:52Z</time></trkpt><trkpt lat="35.27913831688276" lon="9.418849119278383"><ele>375.0</ele><time>2026-04-08T14:41:02Z</time></trkpt><trkpt lat="35.27907100028358" lon="9.41902146434036"><ele>375.0</ele><time>2026-04-08T14:41:17Z</time></trkpt><trkpt lat="35.27899232596209" lon="9.418985284257873"><ele>375.0</ele><time>2026-04-08T14:41:27Z</time></trkpt><trkpt lat="35.278927382515434" lon="9.418979267186845"><ele>375.0</ele><time>2026-04-08T14:41:33Z</time></trkpt><trkpt lat="35.278850679274974" lon="9.41899598537458"><ele>375.0</ele><time>2026-04-08T14:41:38Z</time></trkpt><trkpt lat="35.27878784807547" lon="9.419045751072712"><ele>374.6</ele><time>2026-04-08T14:41:44Z</time></trkpt><trkpt lat="35.27874454600378" lon="9.419110334736475"><ele>374.2</ele><time>2026-04-08T14:41:49Z</time></trkpt><trkpt lat="35.27866232205698" lon="9.419032470610563"><ele>373.79999999999995</ele><time>2026-04-08T14:44:07.804Z</time></trkpt><trkpt lat="35.27877451366067" lon="9.41889506157848"><ele>373.4</ele><time>2026-04-08T14:44:18.011Z</time></trkpt><trkpt lat="35.27868779040987" lon="9.418848434825797"><ele>373.0</ele><time>2026-04-08T14:44:21.016Z</time></trkpt><trkpt lat="35.27871428708548" lon="9.418925307210174"><ele>373.0</ele><time>2026-04-08T14:44:22.015Z</time></trkpt><trkpt lat="35.27876610700698" lon="9.419010411147633"><ele>373.0</ele><time>2026-04-08T14:44:25.022Z</time></trkpt><trkpt lat="35.27881136613126" lon="9.418955318842011"><ele>373.0</ele><time>2026-04-08T14:44:29.018Z</time></trkpt><trkpt lat="35.27887998027601" lon="9.418933673340407"><ele>373.0</ele><time>2026-04-08T14:44:34.999Z</time></trkpt><trkpt lat="35.278937631235564" lon="9.41887132915069"><ele>373.0</ele><time>2026-04-08T14:44:39Z</time></trkpt><trkpt lat="35.27899130441558" lon="9.418819040259718"><ele>373.0</ele><time>2026-04-08T14:44:44Z</time></trkpt><trkpt lat="35.279057712765955" lon="9.41879725258592"><ele>373.0</ele><time>2026-04-08T14:44:49Z</time></trkpt><trkpt lat="35.2791300113901" lon="9.418775538399746"><ele>373.75</ele><time>2026-04-08T14:44:55Z</time></trkpt><trkpt lat="35.279200470880276" lon="9.418758152857125"><ele>374.5</ele><time>2026-04-08T14:45:01Z</time></trkpt><trkpt lat="35.27926380266278" lon="9.41872043061855"><ele>375.25</ele><time>2026-04-08T14:45:13Z</time></trkpt><trkpt lat="35.279258041816" lon="9.418797326739986"><ele>376.0</ele><time>2026-04-08T15:06:03.999Z</time></trkpt><trkpt lat="35.31964495117877" lon="9.404813711210718"><ele>388.75</ele><time>2026-04-08T15:10:41.999Z</time></trkpt><trkpt lat="35.319779827605224" lon="9.404749453629693"><ele>401.5</ele><time>2026-04-08T15:10:42.999Z</time></trkpt><trkpt lat="35.31991114045526" lon="9.404691828887374"><ele>414.25</ele><time>2026-04-08T15:10:43.999Z</time></trkpt><trkpt lat="35.32003999500627" lon="9.404635117214664"><ele>427.0</ele><time>2026-04-08T15:10:44.999Z</time></trkpt><trkpt lat="35.320169622787155" lon="9.404571336771994"><ele>427.25</ele><time>2026-04-08T15:10:45.999Z</time></trkpt><trkpt lat="35.32029878071684" lon="9.404506513916797"><ele>427.5</ele><time>2026-04-08T15:10:46.999Z</time></trkpt><trkpt lat="35.32042659742158" lon="9.404450901066323"><ele>427.75</ele><time>2026-04-08T15:10:47.999Z</time></trkpt><trkpt lat="35.320553266286126" lon="9.404396997717019"><ele>428.0</ele><time>2026-04-08T15:10:48.999Z</time></trkpt><trkpt lat="35.32067808193146" lon="9.4043408382547"><ele>428.25</ele><time>2026-04-08T15:10:49.999Z</time></trkpt><trkpt lat="35.32080145106005" lon="9.404286623437269"><ele>428.5</ele><time>2026-04-08T15:10:50.999Z</time></trkpt><trkpt lat="35.32091795590873" lon="9.404236295049474"><ele>428.75</ele><time>2026-04-08T15:10:51.999Z</time></trkpt><trkpt lat="35.32102735875804" lon="9.404185043792387"><ele>429.0</ele><time>2026-04-08T15:10:52.999Z</time></trkpt><trkpt lat="35.32114674480144" lon="9.404132405205118"><ele>429.0</ele><time>2026-04-08T15:10:53.999Z</time></trkpt><trkpt lat="35.32127638292669" lon="9.404078089960793"><ele>429.0</ele><time>2026-04-08T15:10:54.999Z</time></trkpt><trkpt lat="35.32139996908625" lon="9.404029601552267"><ele>429.0</ele><time>2026-04-08T15:10:55.999Z</time></trkpt><trkpt lat="35.321515094715174" lon="9.40397711922388"><ele>429.0</ele><time>2026-04-08T15:10:56.999Z</time></trkpt><trkpt lat="35.321631350585925" lon="9.403925321836358"><ele>428.66666666666663</ele><time>2026-04-08T15:10:57.999Z</time></trkpt><trkpt lat="35.32174529771094" lon="9.40387321326333"><ele>428.3333333333333</ele><time>2026-04-08T15:10:58.999Z</time></trkpt><trkpt lat="35.3218571815554" lon="9.403821600054702"><ele>428.0</ele><time>2026-04-08T15:10:59.999Z</time></trkpt><trkpt lat="35.32207139100599" lon="9.403713218348319"><ele>428.5</ele><time>2026-04-08T15:11:01.999Z</time></trkpt><trkpt lat="35.32218914704919" lon="9.403654314060573"><ele>429.0</ele><time>2026-04-08T15:11:02.999Z</time></trkpt><trkpt lat="35.32231094723458" lon="9.403599119236958"><ele>429.5</ele><time>2026-04-08T15:11:03.999Z</time></trkpt><trkpt lat="35.322437448156286" lon="9.403545551321171"><ele>430.0</ele><time>2026-04-08T15:11:04.999Z</time></trkpt><trkpt lat="35.32256465232531" lon="9.403489277960785"><ele>428.5</ele><time>2026-04-08T15:11:05.999Z</time></trkpt><trkpt lat="35.32269441886278" lon="9.403427593063885"><ele>427.0</ele><time>2026-04-08T15:11:06.999Z</time></trkpt><trkpt lat="35.32282774912351" lon="9.403364596937093"><ele>425.5</ele><time>2026-04-08T15:11:07.999Z</time></trkpt><trkpt lat="35.32297115614462" lon="9.403294504756898"><ele>424.0</ele><time>2026-04-08T15:11:08.999Z</time></trkpt><trkpt lat="35.32312313429198" lon="9.403222180829493"><ele>422.33333333333337</ele><time>2026-04-08T15:11:09.999Z</time></trkpt><trkpt lat="35.32328374595878" lon="9.403150795633968"><ele>420.66666666666663</ele><time>2026-04-08T15:11:10.999Z</time></trkpt><trkpt lat="35.32345396710961" lon="9.403082946822504"><ele>419.0</ele><time>2026-04-08T15:11:11.999Z</time></trkpt><trkpt lat="35.32362371479385" lon="9.403009782277344"><ele>420.0</ele><time>2026-04-08T15:11:12.999Z</time></trkpt><trkpt lat="35.32379333466725" lon="9.40292797502329"><ele>421.0</ele><time>2026-04-08T15:11:13.999Z</time></trkpt><trkpt lat="35.32396705815847" lon="9.40285053050932"><ele>422.0</ele><time>2026-04-08T15:11:14.999Z</time></trkpt><trkpt lat="35.32414082870496" lon="9.402773925853785"><ele>420.0</ele><time>2026-04-08T15:11:15.999Z</time></trkpt><trkpt lat="35.324312401132666" lon="9.402694351466089"><ele>418.0</ele><time>2026-04-08T15:11:16.999Z</time></trkpt><trkpt lat="35.32448286631266" lon="9.402614674661077"><ele>416.0</ele><time>2026-04-08T15:11:17.999Z</time></trkpt><trkpt lat="35.324654727354876" lon="9.402537061971628"><ele>415.66666666666663</ele><time>2026-04-08T15:11:18.999Z</time></trkpt><trkpt lat="35.32482841074118" lon="9.402460941448016"><ele>415.33333333333337</ele><time>2026-04-08T15:11:19.999Z</time></trkpt><trkpt lat="35.325004984581916" lon="9.402382236481941"><ele>415.0</ele><time>2026-04-08T15:11:20.999Z</time></trkpt><trkpt lat="35.325360044850015" lon="9.402224431692757"><ele>415.0</ele><time>2026-04-08T15:11:22.999Z</time></trkpt><trkpt lat="35.32553872369131" lon="9.402145036215193"><ele>415.0</ele><time>2026-04-08T15:11:23.999Z</time></trkpt><trkpt lat="35.32571600153319" lon="9.402065534522748"><ele>415.0</ele><time>2026-04-08T15:11:24.999Z</time></trkpt><trkpt lat="35.32589142740482" lon="9.401988685366385"><ele>414.0</ele><time>2026-04-08T15:11:25.999Z</time></trkpt><trkpt lat="35.32606364486107" lon="9.401909348665876"><ele>413.0</ele><time>2026-04-08T15:11:26.999Z</time></trkpt><trkpt lat="35.32623805543451" lon="9.401825659338387"><ele>412.0</ele><time>2026-04-08T15:11:27.999Z</time></trkpt><trkpt lat="35.32641027940991" lon="9.401746413012239"><ele>410.6666666666667</ele><time>2026-04-08T15:11:28.999Z</time></trkpt><trkpt lat="35.32658529153506" lon="9.401669378145263"><ele>409.33333333333337</ele><time>2026-04-08T15:11:29.999Z</time></trkpt><trkpt lat="35.32675626260076" lon="9.401594418031559"><ele>408.0</ele><time>2026-04-08T15:11:30.999Z</time></trkpt><trkpt lat="35.326928852922556" lon="9.401518040735594"><ele>408.0</ele><time>2026-04-08T15:11:31.999Z</time></trkpt><trkpt lat="35.32709800609815" lon="9.401439145548867"><ele>408.0</ele><time>2026-04-08T15:11:32.999Z</time></trkpt><trkpt lat="35.327266992328966" lon="9.401362640139547"><ele>408.0</ele><time>2026-04-08T15:11:33.999Z</time></trkpt><trkpt lat="35.32743766048511" lon="9.40128520660011"><ele>407.66666666666663</ele><time>2026-04-08T15:11:34.999Z</time></trkpt><trkpt lat="35.327608212365305" lon="9.401207368085688"><ele>407.3333333333333</ele><time>2026-04-08T15:11:35.999Z</time></trkpt><trkpt lat="35.32777626995705" lon="9.401130810869367"><ele>407.0</ele><time>2026-04-08T15:11:36.999Z</time></trkpt><trkpt lat="35.327942557478934" lon="9.401054578977455"><ele>406.3333333333333</ele><time>2026-04-08T15:11:37.999Z</time></trkpt><trkpt lat="35.328109397266296" lon="9.400981069822183"><ele>405.66666666666663</ele><time>2026-04-08T15:11:38.999Z</time></trkpt><trkpt lat="35.32828052302011" lon="9.400906812249676"><ele>405.0</ele><time>2026-04-08T15:11:39.999Z</time></trkpt><trkpt lat="35.32845174004217" lon="9.400831949958386"><ele>405.0</ele><time>2026-04-08T15:11:40.999Z</time></trkpt><trkpt lat="35.328618677572145" lon="9.40075654960833"><ele>405.0</ele><time>2026-04-08T15:11:41.999Z</time></trkpt><trkpt lat="35.32895100816568" lon="9.400598620208678"><ele>404.66666666666663</ele><time>2026-04-08T15:11:43.999Z</time></trkpt><trkpt lat="35.329118931301046" lon="9.40052161142289"><ele>404.3333333333333</ele><time>2026-04-08T15:11:44.999Z</time></trkpt><trkpt lat="35.329289281448695" lon="9.400447491062248"><ele>404.0</ele><time>2026-04-08T15:11:45.999Z</time></trkpt><trkpt lat="35.329461836199584" lon="9.400369806551303"><ele>404.0</ele><time>2026-04-08T15:11:46.999Z</time></trkpt><trkpt lat="35.329634409187875" lon="9.40029306047886"><ele>404.0</ele><time>2026-04-08T15:11:47.999Z</time></trkpt><trkpt lat="35.32980476019514" lon="9.40021235189696"><ele>404.0</ele><time>2026-04-08T15:11:48.999Z</time></trkpt><trkpt lat="35.32997122493902" lon="9.400132686598617"><ele>403.3333333333333</ele><time>2026-04-08T15:11:49.999Z</time></trkpt><trkpt lat="35.33012112795974" lon="9.400061493700733"><ele>402.66666666666663</ele><time>2026-04-08T15:11:50.999Z</time></trkpt><trkpt lat="35.33026461619985" lon="9.39999881676358"><ele>402.0</ele><time>2026-04-08T15:11:51.999Z</time></trkpt><trkpt lat="35.330400156642284" lon="9.399939472846336"><ele>402.0</ele><time>2026-04-08T15:11:52.999Z</time></trkpt><trkpt lat="35.33053096258471" lon="9.399874790832973"><ele>402.0</ele><time>2026-04-08T15:11:53.999Z</time></trkpt><trkpt lat="35.330656015736295" lon="9.399817574660865"><ele>402.0</ele><time>2026-04-08T15:11:54.999Z</time></trkpt><trkpt lat="35.33077196670163" lon="9.399768842612007"><ele>402.0</ele><time>2026-04-08T15:11:55.999Z</time></trkpt><trkpt lat="35.33087793415753" lon="9.399725738884753"><ele>402.0</ele><time>2026-04-08T15:11:56.999Z</time></trkpt><trkpt lat="35.3309778286262" lon="9.399691091131801"><ele>402.0</ele><time>2026-04-08T15:11:57.999Z</time></trkpt><trkpt lat="35.33107137993718" lon="9.39966625962007"><ele>402.0</ele><time>2026-04-08T15:11:58.999Z</time></trkpt><trkpt lat="35.33115920846288" lon="9.399647023672358"><ele>402.0</ele><time>2026-04-08T15:11:59.999Z</time></trkpt><trkpt lat="35.33124542626432" lon="9.399634179611347"><ele>402.0</ele><time>2026-04-08T15:12:00.999Z</time></trkpt><trkpt lat="35.33132251147625" lon="9.39963207224598"><ele>402.1666666666667</ele><time>2026-04-08T15:12:01.999Z</time></trkpt><trkpt lat="35.33139414849171" lon="9.39964171662385"><ele>402.33333333333337</ele><time>2026-04-08T15:12:02.999Z</time></trkpt><trkpt lat="35.33153896384726" lon="9.399671675882592"><ele>402.5</ele><time>2026-04-08T15:12:04.999Z</time></trkpt><trkpt lat="35.33160752128669" lon="9.399690158219958"><ele>402.6666666666667</ele><time>2026-04-08T15:12:05.999Z</time></trkpt><trkpt lat="35.33167315637869" lon="9.399717059812636"><ele>402.83333333333337</ele><time>2026-04-08T15:12:06.999Z</time></trkpt><trkpt lat="35.3317348773414" lon="9.399762831301892"><ele>403.0</ele><time>2026-04-08T15:12:07.999Z</time></trkpt><trkpt lat="35.33178986693339" lon="9.399827441585114"><ele>403.00000000000006</ele><time>2026-04-08T15:12:08.999Z</time></trkpt><trkpt lat="35.33184500460776" lon="9.399898265743857"><ele>403.0</ele><time>2026-04-08T15:12:09.999Z</time></trkpt><trkpt lat="35.33190263763147" lon="9.399971465701165"><ele>403.0</ele><time>2026-04-08T15:12:10.999Z</time></trkpt><trkpt lat="35.331963207071446" lon="9.400047281603031"><ele>403.0</ele><time>2026-04-08T15:12:11.999Z</time></trkpt><trkpt lat="35.332021582761676" lon="9.400127302593074"><ele>403.00000000000006</ele><time>2026-04-08T15:12:12.999Z</time></trkpt><trkpt lat="35.332077667578396" lon="9.400209778119056"><ele>403.0</ele><time>2026-04-08T15:12:13.999Z</time></trkpt><trkpt lat="35.33213435913019" lon="9.400294219469789"><ele>403.00000000000006</ele><time>2026-04-08T15:12:14.999Z</time></trkpt><trkpt lat="35.332186201518276" lon="9.400384695641202"><ele>403.0</ele><time>2026-04-08T15:12:15.999Z</time></trkpt><trkpt lat="35.33223372085648" lon="9.40047692449898"><ele>403.0</ele><time>2026-04-08T15:12:16.999Z</time></trkpt><trkpt lat="35.33227605441499" lon="9.400570703459325"><ele>403.0</ele><time>2026-04-08T15:12:17.999Z</time></trkpt><trkpt lat="35.3323158019659" lon="9.400659342658452"><ele>403.00000000000006</ele><time>2026-04-08T15:12:18.999Z</time></trkpt><trkpt lat="35.33235599714699" lon="9.400743761760939"><ele>403.0</ele><time>2026-04-08T15:12:19.999Z</time></trkpt><trkpt lat="35.3323910083751" lon="9.400817500286532"><ele>402.83333333333337</ele><time>2026-04-08T15:12:20.999Z</time></trkpt><trkpt lat="35.33244660522899" lon="9.400926159995722"><ele>402.6666666666667</ele><time>2026-04-08T15:12:22.999Z</time></trkpt><trkpt lat="35.33247805534989" lon="9.400994118191981"><ele>402.5</ele><time>2026-04-08T15:12:23.999Z</time></trkpt><trkpt lat="35.33255215368434" lon="9.401146290492969"><ele>402.33333333333337</ele><time>2026-04-08T15:12:25.999Z</time></trkpt><trkpt lat="35.33258269103973" lon="9.401219195743192"><ele>402.1666666666667</ele><time>2026-04-08T15:12:26.999Z</time></trkpt><trkpt lat="35.332613391790396" lon="9.401292489609055"><ele>402.0</ele><time>2026-04-08T15:12:27.999Z</time></trkpt><trkpt lat="35.332647322406686" lon="9.401367412434247"><ele>402.0</ele><time>2026-04-08T15:12:28.999Z</time></trkpt><trkpt lat="35.332685157844175" lon="9.401442070723018"><ele>402.0</ele><time>2026-04-08T15:12:29.999Z</time></trkpt><trkpt lat="35.33272200651028" lon="9.401515067002515"><ele>402.0</ele><time>2026-04-08T15:12:30.999Z</time></trkpt><trkpt lat="35.33275596282514" lon="9.401591284566829"><ele>402.0</ele><time>2026-04-08T15:12:31.999Z</time></trkpt><trkpt lat="35.33278845971869" lon="9.401666796530296"><ele>402.0</ele><time>2026-04-08T15:12:32.999Z</time></trkpt><trkpt lat="35.33282034962503" lon="9.401741285586775"><ele>402.0</ele><time>2026-04-08T15:12:33.999Z</time></trkpt><trkpt lat="35.332853504383436" lon="9.401818631947558"><ele>402.0</ele><time>2026-04-08T15:12:34.999Z</time></trkpt><trkpt lat="35.33288725896939" lon="9.401890799307047"><ele>402.0</ele><time>2026-04-08T15:12:35.999Z</time></trkpt><trkpt lat="35.332919908451146" lon="9.401964814217564"><ele>402.0</ele><time>2026-04-08T15:12:36.999Z</time></trkpt><trkpt lat="35.332952663780894" lon="9.402040364857157"><ele>402.0</ele><time>2026-04-08T15:12:37.999Z</time></trkpt><trkpt lat="35.332990773055094" lon="9.40211920481438"><ele>402.0</ele><time>2026-04-08T15:12:38.999Z</time></trkpt><trkpt lat="35.333035231264574" lon="9.402206644307475"><ele>402.0</ele><time>2026-04-08T15:12:39.999Z</time></trkpt><trkpt lat="35.33308176759144" lon="9.40229742665438"><ele>402.0</ele><time>2026-04-08T15:12:40.999Z</time></trkpt><trkpt lat="35.333126173724985" lon="9.40239313815542"><ele>402.25</ele><time>2026-04-08T15:12:41.999Z</time></trkpt><trkpt lat="35.333169818890376" lon="9.402494576102482"><ele>402.5</ele><time>2026-04-08T15:12:42.999Z</time></trkpt><trkpt lat="35.333215225033825" lon="9.402603997794774"><ele>402.75</ele><time>2026-04-08T15:12:43.999Z</time></trkpt><trkpt lat="35.333265137591745" lon="9.402719516987865"><ele>403.0</ele><time>2026-04-08T15:12:44.999Z</time></trkpt><trkpt lat="35.333381548558854" lon="9.402967971921976"><ele>402.75</ele><time>2026-04-08T15:12:46.999Z</time></trkpt><trkpt lat="35.33343942400897" lon="9.403097043789904"><ele>402.5</ele><time>2026-04-08T15:12:47.999Z</time></trkpt><trkpt lat="35.333500031446206" lon="9.403233799466825"><ele>402.25</ele><time>2026-04-08T15:12:48.999Z</time></trkpt><trkpt lat="35.33356259032573" lon="9.403374080459772"><ele>402.0</ele><time>2026-04-08T15:12:49.999Z</time></trkpt><trkpt lat="35.33362932642676" lon="9.403519684488693"><ele>402.0</ele><time>2026-04-08T15:12:50.999Z</time></trkpt><trkpt lat="35.33370099292404" lon="9.40367070261057"><ele>402.0</ele><time>2026-04-08T15:12:51.999Z</time></trkpt><trkpt lat="35.33377132925813" lon="9.403822732973492"><ele>402.0</ele><time>2026-04-08T15:12:52.999Z</time></trkpt><trkpt lat="35.33384302544411" lon="9.403978654923439"><ele>402.0</ele><time>2026-04-08T15:12:53.999Z</time></trkpt><trkpt lat="35.333913506567626" lon="9.404136578535873"><ele>401.25</ele><time>2026-04-08T15:12:54.999Z</time></trkpt><trkpt lat="35.33398505600059" lon="9.404293027607094"><ele>400.5</ele><time>2026-04-08T15:12:55.999Z</time></trkpt><trkpt lat="35.33405861558748" lon="9.40445429325246"><ele>399.75</ele><time>2026-04-08T15:12:56.999Z</time></trkpt><trkpt lat="35.334131279728986" lon="9.404615272152057"><ele>399.0</ele><time>2026-04-08T15:12:57.999Z</time></trkpt><trkpt lat="35.3342070200023" lon="9.404776246581216"><ele>399.0</ele><time>2026-04-08T15:12:58.999Z</time></trkpt><trkpt lat="35.33428470702671" lon="9.4049434029894"><ele>399.0</ele><time>2026-04-08T15:12:59.999Z</time></trkpt><trkpt lat="35.334367171847184" lon="9.405118709823023"><ele>399.0</ele><time>2026-04-08T15:13:00.999Z</time></trkpt><trkpt lat="35.33445253360078" lon="9.405305842731682"><ele>399.33333333333337</ele><time>2026-04-08T15:13:01.999Z</time></trkpt><trkpt lat="35.33454438847787" lon="9.40550105705806"><ele>399.6666666666667</ele><time>2026-04-08T15:13:02.999Z</time></trkpt><trkpt lat="35.3346439412214" lon="9.405706337253104"><ele>400.0</ele><time>2026-04-08T15:13:03.999Z</time></trkpt><trkpt lat="35.334745814393614" lon="9.405911698514629"><ele>400.0</ele><time>2026-04-08T15:13:04.999Z</time></trkpt><trkpt lat="35.334857592628126" lon="9.406118432654916"><ele>400.0</ele><time>2026-04-08T15:13:05.999Z</time></trkpt><trkpt lat="35.335096836664256" lon="9.406535350460956"><ele>399.0</ele><time>2026-04-08T15:13:07.999Z</time></trkpt><trkpt lat="35.33521698096949" lon="9.40674095948364"><ele>398.0</ele><time>2026-04-08T15:13:08.999Z</time></trkpt><trkpt lat="35.335335469644114" lon="9.406945411823115"><ele>397.0</ele><time>2026-04-08T15:13:09.999Z</time></trkpt><trkpt lat="35.335457065146564" lon="9.40714815251017"><ele>397.6666666666667</ele><time>2026-04-08T15:13:10.999Z</time></trkpt><trkpt lat="35.33557784481854" lon="9.407345996435929"><ele>398.33333333333337</ele><time>2026-04-08T15:13:11.999Z</time></trkpt><trkpt lat="35.335694899478284" lon="9.407543795156288"><ele>399.0</ele><time>2026-04-08T15:13:12.999Z</time></trkpt><trkpt lat="35.33581065324754" lon="9.407736951667184"><ele>399.0</ele><time>2026-04-08T15:13:13.999Z</time></trkpt><trkpt lat="35.33592110727682" lon="9.407931539589343"><ele>399.0</ele><time>2026-04-08T15:13:14.999Z</time></trkpt><trkpt lat="35.336030593183715" lon="9.408124929320117"><ele>399.0</ele><time>2026-04-08T15:13:15.999Z</time></trkpt><trkpt lat="35.336143641357005" lon="9.40832244429395"><ele>399.0</ele><time>2026-04-08T15:13:16.999Z</time></trkpt><trkpt lat="35.33625848967509" lon="9.408520686471126"><ele>399.0</ele><time>2026-04-08T15:13:17.999Z</time></trkpt><trkpt lat="35.336372287078284" lon="9.408720202054944"><ele>399.0</ele><time>2026-04-08T15:13:18.999Z</time></trkpt><trkpt lat="35.3364846287887" lon="9.408914301916052"><ele>399.33333333333337</ele><time>2026-04-08T15:13:19.999Z</time></trkpt><trkpt lat="35.33659894596101" lon="9.409109476457642"><ele>399.6666666666667</ele><time>2026-04-08T15:13:20.999Z</time></trkpt><trkpt lat="35.33671204658606" lon="9.40930056214957"><ele>400.0</ele><time>2026-04-08T15:13:21.999Z</time></trkpt><trkpt lat="35.33682629159761" lon="9.409497290913123"><ele>399.0</ele><time>2026-04-08T15:13:22.999Z</time></trkpt><trkpt lat="35.33694447999272" lon="9.409700119323453"><ele>398.0</ele><time>2026-04-08T15:13:23.999Z</time></trkpt><trkpt lat="35.33706450026691" lon="9.409900041141785"><ele>397.0</ele><time>2026-04-08T15:13:24.999Z</time></trkpt><trkpt lat="35.33718802587457" lon="9.410105877692"><ele>397.0</ele><time>2026-04-08T15:13:25.999Z</time></trkpt><trkpt lat="35.33731367969721" lon="9.410322229930735"><ele>397.0</ele><time>2026-04-08T15:13:26.999Z</time></trkpt><trkpt lat="35.33756317122153" lon="9.410762711034016"><ele>397.0</ele><time>2026-04-08T15:13:28.999Z</time></trkpt><trkpt lat="35.33769467238832" lon="9.410987747971376"><ele>397.0</ele><time>2026-04-08T15:13:29.999Z</time></trkpt><trkpt lat="35.33783094609706" lon="9.411218495658986"><ele>397.0</ele><time>2026-04-08T15:13:30.999Z</time></trkpt><trkpt lat="35.33796526385375" lon="9.411447678927955"><ele>397.0</ele><time>2026-04-08T15:13:31.999Z</time></trkpt><trkpt lat="35.338096987224056" lon="9.411678376965131"><ele>397.0</ele><time>2026-04-08T15:13:32.999Z</time></trkpt><trkpt lat="35.338226929104025" lon="9.411907888199284"><ele>397.0</ele><time>2026-04-08T15:13:33.999Z</time></trkpt><trkpt lat="35.33835854651222" lon="9.412135421130388"><ele>397.0</ele><time>2026-04-08T15:13:34.999Z</time></trkpt><trkpt lat="35.33849316497234" lon="9.412365957197816"><ele>397.0</ele><time>2026-04-08T15:13:35.999Z</time></trkpt><trkpt lat="35.33862944330939" lon="9.412597330658176"><ele>397.0</ele><time>2026-04-08T15:13:36.999Z</time></trkpt><trkpt lat="35.33876318259108" lon="9.412826612879472"><ele>397.0</ele><time>2026-04-08T15:13:37.999Z</time></trkpt><trkpt lat="35.33889823287343" lon="9.413058432590482"><ele>395.5</ele><time>2026-04-08T15:13:38.999Z</time></trkpt><trkpt lat="35.33903512239275" lon="9.41329127920164"><ele>394.0</ele><time>2026-04-08T15:13:39.999Z</time></trkpt><trkpt lat="35.33917063560031" lon="9.413525866372105"><ele>394.0</ele><time>2026-04-08T15:13:40.999Z</time></trkpt><trkpt lat="35.33930655485021" lon="9.41376053801489"><ele>394.0</ele><time>2026-04-08T15:13:41.999Z</time></trkpt><trkpt lat="35.339442344730216" lon="9.413990527353516"><ele>393.5</ele><time>2026-04-08T15:13:42.999Z</time></trkpt><trkpt lat="35.33957837626532" lon="9.414226053051987"><ele>393.0</ele><time>2026-04-08T15:13:43.999Z</time></trkpt><trkpt lat="35.339713907770495" lon="9.414458917798267"><ele>393.5</ele><time>2026-04-08T15:13:44.999Z</time></trkpt><trkpt lat="35.33984745062391" lon="9.414691173261028"><ele>394.0</ele><time>2026-04-08T15:13:45.999Z</time></trkpt><trkpt lat="35.33998046389394" lon="9.414917269903608"><ele>394.0</ele><time>2026-04-08T15:13:46.999Z</time></trkpt><trkpt lat="35.34011295523244" lon="9.415143849154159"><ele>394.0</ele><time>2026-04-08T15:13:47.999Z</time></trkpt><trkpt lat="35.340371679530215" lon="9.41559225080095"><ele>394.33333333333337</ele><time>2026-04-08T15:13:49.999Z</time></trkpt><trkpt lat="35.34049851077539" lon="9.41580757691847"><ele>394.66666666666663</ele><time>2026-04-08T15:13:50.999Z</time></trkpt><trkpt lat="35.34062446051821" lon="9.416023266628564"><ele>395.0</ele><time>2026-04-08T15:13:51.999Z</time></trkpt><trkpt lat="35.34075269475478" lon="9.416236908214234"><ele>394.66666666666663</ele><time>2026-04-08T15:13:52.999Z</time></trkpt><trkpt lat="35.34088380330846" lon="9.4164469549244"><ele>394.33333333333337</ele><time>2026-04-08T15:13:53.999Z</time></trkpt><trkpt lat="35.34101888828335" lon="9.41665594656751"><ele>394.0</ele><time>2026-04-08T15:13:54.999Z</time></trkpt><trkpt lat="35.34114968788851" lon="9.41685882602204"><ele>394.0</ele><time>2026-04-08T15:13:55.999Z</time></trkpt><trkpt lat="35.341285398121386" lon="9.417059169549209"><ele>394.0</ele><time>2026-04-08T15:13:56.999Z</time></trkpt><trkpt lat="35.34142140901881" lon="9.417257539390645"><ele>394.0</ele><time>2026-04-08T15:13:57.999Z</time></trkpt><trkpt lat="35.34155102726166" lon="9.417453651342099"><ele>395.0</ele><time>2026-04-08T15:13:58.999Z</time></trkpt><trkpt lat="35.34168100171747" lon="9.417651414623615"><ele>396.0</ele><time>2026-04-08T15:13:59.999Z</time></trkpt><trkpt lat="35.341806878744535" lon="9.417844099879249"><ele>397.0</ele><time>2026-04-08T15:14:00.999Z</time></trkpt><trkpt lat="35.341934553900266" lon="9.418034019024107"><ele>397.0</ele><time>2026-04-08T15:14:01.999Z</time></trkpt><trkpt lat="35.342058363282604" lon="9.41822122826528"><ele>397.0</ele><time>2026-04-08T15:14:02.999Z</time></trkpt><trkpt lat="35.34218162838209" lon="9.418410633252876"><ele>397.0</ele><time>2026-04-08T15:14:03.999Z</time></trkpt><trkpt lat="35.342304971003244" lon="9.418592671273418"><ele>397.6666666666667</ele><time>2026-04-08T15:14:04.999Z</time></trkpt><trkpt lat="35.342427248077236" lon="9.418772658768251"><ele>398.33333333333337</ele><time>2026-04-08T15:14:05.999Z</time></trkpt><trkpt lat="35.34254753217904" lon="9.418953738734281"><ele>399.0</ele><time>2026-04-08T15:14:06.999Z</time></trkpt><trkpt lat="35.34266560083522" lon="9.419137548058414"><ele>400.0</ele><time>2026-04-08T15:14:07.999Z</time></trkpt><trkpt lat="35.34278133688323" lon="9.419319742645246"><ele>400.0</ele><time>2026-04-08T15:14:08.999Z</time></trkpt></trkseg><trkseg><trkpt lat="36.37336912872033" lon="10.518973221914496"><ele>14.0</ele><time>2026-04-09T10:12:47Z</time></trkpt><trkpt lat="36.37356693537396" lon="10.519245827074538"><ele>14.0</ele><time>2026-04-09T10:12:48Z</time></trkpt><trkpt lat="36.373769569878675" lon="10.51951483508191"><ele>13.5</ele><time>2026-04-09T10:12:49Z</time></trkpt><trkpt lat="36.37397412165328" lon="10.519782318071295"><ele>13.0</ele><time>2026-04-09T10:12:50Z</time></trkpt><trkpt lat="36.374180743778176" lon="10.520048217414681"><ele>13.0</ele><time>2026-04-09T10:12:51Z</time></trkpt><trkpt lat="36.37438655261677" lon="10.520315417075732"><ele>13.0</ele><time>2026-04-09T10:12:52Z</time></trkpt><trkpt lat="36.37459648711833" lon="10.520580464123537"><ele>13.5</ele><time>2026-04-09T10:12:53Z</time></trkpt><trkpt lat="36.37480808127334" lon="10.520848262803419"><ele>14.0</ele><time>2026-04-09T10:12:54Z</time></trkpt><trkpt lat="36.375016796708344" lon="10.52111736919174"><ele>14.0</ele><time>2026-04-09T10:12:55Z</time></trkpt><trkpt lat="36.37523352360636" lon="10.521370801451134"><ele>14.0</ele><time>2026-04-09T10:12:56Z</time></trkpt><trkpt lat="36.375450717493955" lon="10.521632186215799"><ele>14.0</ele><time>2026-04-09T10:12:57Z</time></trkpt><trkpt lat="36.375662651485534" lon="10.521892894963909"><ele>14.0</ele><time>2026-04-09T10:12:58Z</time></trkpt><trkpt lat="36.3758715981131" lon="10.522155605008665"><ele>14.0</ele><time>2026-04-09T10:12:59Z</time></trkpt><trkpt lat="36.37607975261547" lon="10.522413002474694"><ele>14.0</ele><time>2026-04-09T10:13:00Z</time></trkpt><trkpt lat="36.37629139899159" lon="10.522672121668286"><ele>15.0</ele><time>2026-04-09T10:13:01Z</time></trkpt><trkpt lat="36.37650293154654" lon="10.52293418635055"><ele>16.0</ele><time>2026-04-09T10:13:02Z</time></trkpt><trkpt lat="36.37671452763589" lon="10.523201087832529"><ele>16.0</ele><time>2026-04-09T10:13:03Z</time></trkpt><trkpt lat="36.37692744275249" lon="10.523463445464245"><ele>16.0</ele><time>2026-04-09T10:13:04Z</time></trkpt><trkpt lat="36.37713992662473" lon="10.523727865982297"><ele>15.5</ele><time>2026-04-09T10:13:05Z</time></trkpt><trkpt lat="36.37735073024933" lon="10.523989896563483"><ele>15.0</ele><time>2026-04-09T10:13:06Z</time></trkpt><trkpt lat="36.377559167380014" lon="10.524255821184301"><ele>15.0</ele><time>2026-04-09T10:13:07Z</time></trkpt><trkpt lat="36.37776914257826" lon="10.52452335634127"><ele>15.0</ele><time>2026-04-09T10:13:08Z</time></trkpt><trkpt lat="36.37798304463671" lon="10.524783364044483"><ele>14.5</ele><time>2026-04-09T10:13:09Z</time></trkpt><trkpt lat="36.37819495030809" lon="10.52504866550113"><ele>14.0</ele><time>2026-04-09T10:13:10Z</time></trkpt><trkpt lat="36.378408949258585" lon="10.525313028758097"><ele>14.0</ele><time>2026-04-09T10:13:11Z</time></trkpt><trkpt lat="36.378630031613646" lon="10.52557651678044"><ele>14.0</ele><time>2026-04-09T10:13:12Z</time></trkpt><trkpt lat="36.37883840156671" lon="10.525840057380998"><ele>14.0</ele><time>2026-04-09T10:13:13Z</time></trkpt><trkpt lat="36.379050931512204" lon="10.52610292650892"><ele>14.0</ele><time>2026-04-09T10:13:14Z</time></trkpt><trkpt lat="36.37926497741064" lon="10.526360722569276"><ele>14.0</ele><time>2026-04-09T10:13:15Z</time></trkpt><trkpt lat="36.37947933278995" lon="10.526625099376371"><ele>14.0</ele><time>2026-04-09T10:13:16Z</time></trkpt><trkpt lat="36.37969262212989" lon="10.526884570108791"><ele>12.5</ele><time>2026-04-09T10:13:17Z</time></trkpt><trkpt lat="36.37990724430589" lon="10.527145669838966"><ele>11.0</ele><time>2026-04-09T10:13:18Z</time></trkpt><trkpt lat="36.38012244532185" lon="10.527404676706968"><ele>11.0</ele><time>2026-04-09T10:13:19Z</time></trkpt><trkpt lat="36.38033825739066" lon="10.527663045248653"><ele>11.0</ele><time>2026-04-09T10:13:20Z</time></trkpt><trkpt lat="36.380554441710466" lon="10.52792060450778"><ele>11.5</ele><time>2026-04-09T10:13:21Z</time></trkpt><trkpt lat="36.380771542950946" lon="10.528180111214343"><ele>12.0</ele><time>2026-04-09T10:13:22Z</time></trkpt><trkpt lat="36.38099143240195" lon="10.528433721259102"><ele>12.0</ele><time>2026-04-09T10:13:23Z</time></trkpt><trkpt lat="36.38121194731407" lon="10.528683894454433"><ele>12.0</ele><time>2026-04-09T10:13:24Z</time></trkpt><trkpt lat="36.38143286403635" lon="10.528934985752265"><ele>11.5</ele><time>2026-04-09T10:13:25Z</time></trkpt><trkpt lat="36.381654207007536" lon="10.529190118951322"><ele>11.0</ele><time>2026-04-09T10:13:26Z</time></trkpt><trkpt lat="36.38187420800769" lon="10.529443222326885"><ele>11.0</ele><time>2026-04-09T10:13:27Z</time></trkpt><trkpt lat="36.38209701293159" lon="10.529693491484558"><ele>11.0</ele><time>2026-04-09T10:13:28Z</time></trkpt><trkpt lat="36.38232196573908" lon="10.529941925746297"><ele>11.0</ele><time>2026-04-09T10:13:29Z</time></trkpt><trkpt lat="36.38254568077878" lon="10.530189423353576"><ele>11.0</ele><time>2026-04-09T10:13:30Z</time></trkpt><trkpt lat="36.38277137104993" lon="10.5304354723669"><ele>11.0</ele><time>2026-04-09T10:13:31Z</time></trkpt><trkpt lat="36.382994821710206" lon="10.530681750672093"><ele>11.0</ele><time>2026-04-09T10:13:32Z</time></trkpt><trkpt lat="36.38321116742529" lon="10.530918296236425"><ele>11.0</ele><time>2026-04-09T10:13:33Z</time></trkpt><trkpt lat="36.38341562965507" lon="10.5311371075765"><ele>11.0</ele><time>2026-04-09T10:13:34Z</time></trkpt><trkpt lat="36.38361103490364" lon="10.53134345240428"><ele>11.5</ele><time>2026-04-09T10:13:35Z</time></trkpt><trkpt lat="36.38379800686522" lon="10.53153791706156"><ele>12.0</ele><time>2026-04-09T10:13:36Z</time></trkpt><trkpt lat="36.38397509231145" lon="10.531725048831364"><ele>11.666666666666666</ele><time>2026-04-09T10:13:37Z</time></trkpt><trkpt lat="36.38414815275385" lon="10.53191028192447"><ele>11.333333333333332</ele><time>2026-04-09T10:13:38Z</time></trkpt><trkpt lat="36.3843117071237" lon="10.532083554972791"><ele>11.0</ele><time>2026-04-09T10:13:39Z</time></trkpt><trkpt lat="36.38447164595983" lon="10.532250041736093"><ele>11.0</ele><time>2026-04-09T10:13:40Z</time></trkpt><trkpt lat="36.38462599191783" lon="10.532408770062267"><ele>11.0</ele><time>2026-04-09T10:13:41Z</time></trkpt><trkpt lat="36.38477482131822" lon="10.532559656858135"><ele>11.0</ele><time>2026-04-09T10:13:42Z</time></trkpt><trkpt lat="36.38491989765863" lon="10.53271118840695"><ele>10.666666666666666</ele><time>2026-04-09T10:13:43Z</time></trkpt><trkpt lat="36.38506618477085" lon="10.532860130141861"><ele>10.333333333333334</ele><time>2026-04-09T10:13:44Z</time></trkpt><trkpt lat="36.38521442707472" lon="10.533006362647503"><ele>10.0</ele><time>2026-04-09T10:13:45Z</time></trkpt><trkpt lat="36.38536473198476" lon="10.533152816404314"><ele>10.666666666666668</ele><time>2026-04-09T10:13:46Z</time></trkpt><trkpt lat="36.38551527527345" lon="10.533303089945612"><ele>11.333333333333334</ele><time>2026-04-09T10:13:47Z</time></trkpt><trkpt lat="36.38566754946745" lon="10.533455303108406"><ele>12.0</ele><time>2026-04-09T10:13:48Z</time></trkpt><trkpt lat="36.38582034403904" lon="10.533606046013473"><ele>12.0</ele><time>2026-04-09T10:13:49Z</time></trkpt><trkpt lat="36.38597281974323" lon="10.533757366054935"><ele>12.0</ele><time>2026-04-09T10:13:50Z</time></trkpt><trkpt lat="36.386125272417885" lon="10.533913046391515"><ele>12.0</ele><time>2026-04-09T10:13:51Z</time></trkpt><trkpt lat="36.386276988525736" lon="10.534067373456493"><ele>11.666666666666666</ele><time>2026-04-09T10:13:52Z</time></trkpt><trkpt lat="36.38642624906724" lon="10.534219807452295"><ele>11.333333333333332</ele><time>2026-04-09T10:13:53Z</time></trkpt><trkpt lat="36.38657626516648" lon="10.53437087535063"><ele>11.0</ele><time>2026-04-09T10:13:54Z</time></trkpt><trkpt lat="36.386728766355596" lon="10.534520578377633"><ele>11.333333333333332</ele><time>2026-04-09T10:13:55Z</time></trkpt><trkpt lat="36.386880062760405" lon="10.53467295065151"><ele>11.666666666666666</ele><time>2026-04-09T10:13:56Z</time></trkpt><trkpt lat="36.387029914607304" lon="10.534826437331116"><ele>12.0</ele><time>2026-04-09T10:13:57Z</time></trkpt><trkpt lat="36.387180365771684" lon="10.534982419479263"><ele>12.0</ele><time>2026-04-09T10:13:58Z</time></trkpt><trkpt lat="36.38732749820422" lon="10.535135599960954"><ele>12.0</ele><time>2026-04-09T10:13:59Z</time></trkpt><trkpt lat="36.387467775489704" lon="10.535280253317593"><ele>12.0</ele><time>2026-04-09T10:14:00Z</time></trkpt><trkpt lat="36.38760123629059" lon="10.535414400918684"><ele>12.0</ele><time>2026-04-09T10:14:01Z</time></trkpt><trkpt lat="36.387728505504484" lon="10.535542940116587"><ele>12.0</ele><time>2026-04-09T10:14:02Z</time></trkpt><trkpt lat="36.38784543129621" lon="10.535663884987857"><ele>12.0</ele><time>2026-04-09T10:14:03Z</time></trkpt><trkpt lat="36.38795665645946" lon="10.535781377984604"><ele>11.0</ele><time>2026-04-09T10:14:04Z</time></trkpt><trkpt lat="36.38806216615673" lon="10.535890836199401"><ele>10.0</ele><time>2026-04-09T10:14:05Z</time></trkpt><trkpt lat="36.38816477253417" lon="10.535994011537921"><ele>9.0</ele><time>2026-04-09T10:14:06Z</time></trkpt><trkpt lat="36.38825869570673" lon="10.536086092370288"><ele>8.0</ele><time>2026-04-09T10:14:07Z</time></trkpt><trkpt lat="36.38834252374738" lon="10.536166853850348"><ele>8.5</ele><time>2026-04-09T10:14:08Z</time></trkpt><trkpt lat="36.3884148021296" lon="10.536243204467459"><ele>9.0</ele><time>2026-04-09T10:14:09Z</time></trkpt><trkpt lat="36.38847920225822" lon="10.536314928891496"><ele>9.5</ele><time>2026-04-09T10:14:09.999Z</time></trkpt><trkpt lat="36.388546199107694" lon="10.536382357453338"><ele>10.0</ele><time>2026-04-09T10:14:10.999Z</time></trkpt><trkpt lat="36.388611322273874" lon="10.536446861207072"><ele>10.5</ele><time>2026-04-09T10:14:11.999Z</time></trkpt><trkpt lat="36.388671261850426" lon="10.536509511203487"><ele>11.0</ele><time>2026-04-09T10:14:12.999Z</time></trkpt><trkpt lat="36.38872568335878" lon="10.536568897045447"><ele>11.0</ele><time>2026-04-09T10:14:13.999Z</time></trkpt><trkpt lat="36.38881376921596" lon="10.536662498056689"><ele>11.0</ele><time>2026-04-09T10:14:15.999Z</time></trkpt><trkpt lat="36.38889924005233" lon="10.536753749572743"><ele>11.0</ele><time>2026-04-09T10:14:17.999Z</time></trkpt><trkpt lat="36.38899003699244" lon="10.53684429386295"><ele>11.0</ele><time>2026-04-09T10:14:19.999Z</time></trkpt><trkpt lat="36.38908072915801" lon="10.536934957119444"><ele>10.666666666666666</ele><time>2026-04-09T10:14:21.999Z</time></trkpt><trkpt lat="36.389159035729584" lon="10.537014900868067"><ele>10.333333333333332</ele><time>2026-04-09T10:14:23.999Z</time></trkpt><trkpt lat="36.38922672095576" lon="10.537089918689848"><ele>10.0</ele><time>2026-04-09T10:14:25.999Z</time></trkpt><trkpt lat="36.38928768120967" lon="10.537142889967573"><ele>9.666666666666666</ele><time>2026-04-09T10:14:27.999Z</time></trkpt><trkpt lat="36.389344148168774" lon="10.53719837835845"><ele>9.333333333333334</ele><time>2026-04-09T10:14:29.999Z</time></trkpt><trkpt lat="36.38939840521922" lon="10.537258214403334"><ele>9.0</ele><time>2026-04-09T10:14:31.999Z</time></trkpt><trkpt lat="36.389449395191455" lon="10.53731478556672"><ele>9.000000000000002</ele><time>2026-04-09T10:14:33.999Z</time></trkpt><trkpt lat="36.38950245325172" lon="10.537367285389728"><ele>9.0</ele><time>2026-04-09T10:14:35.999Z</time></trkpt><trkpt lat="36.38955719388374" lon="10.537424921531235"><ele>9.0</ele><time>2026-04-09T10:14:38.999Z</time></trkpt><trkpt lat="36.389624435027706" lon="10.53747951048361"><ele>9.0</ele><time>2026-04-09T10:14:41.999Z</time></trkpt><trkpt lat="36.38967420979782" lon="10.537535765243579"><ele>9.0</ele><time>2026-04-09T10:14:43.999Z</time></trkpt><trkpt lat="36.389725458702245" lon="10.537589745315133"><ele>9.000000000000002</ele><time>2026-04-09T10:14:45.999Z</time></trkpt><trkpt lat="36.389780227496495" lon="10.537641153713363"><ele>9.0</ele><time>2026-04-09T10:14:47.999Z</time></trkpt><trkpt lat="36.3898252410037" lon="10.53769781115327"><ele>8.857142857142858</ele><time>2026-04-09T10:14:49.999Z</time></trkpt><trkpt lat="36.38988702522448" lon="10.537757360902928"><ele>8.714285714285715</ele><time>2026-04-09T10:14:52.999Z</time></trkpt><trkpt lat="36.38994456036475" lon="10.537819368956464"><ele>8.571428571428571</ele><time>2026-04-09T10:14:55.999Z</time></trkpt><trkpt lat="36.38999180792305" lon="10.537871519050476"><ele>8.428571428571429</ele><time>2026-04-09T10:14:57.999Z</time></trkpt><trkpt lat="36.3900445060703" lon="10.537927292874848"><ele>8.285714285714285</ele><time>2026-04-09T10:14:59.999Z</time></trkpt><trkpt lat="36.39010311572145" lon="10.53798458519236"><ele>8.142857142857142</ele><time>2026-04-09T10:15:02Z</time></trkpt><trkpt lat="36.39016961331991" lon="10.538055265811149"><ele>8.0</ele><time>2026-04-09T10:15:04Z</time></trkpt><trkpt lat="36.390231488060415" lon="10.538128679731395"><ele>8.0</ele><time>2026-04-09T10:15:06Z</time></trkpt><trkpt lat="36.3903066346493" lon="10.5381951868274"><ele>8.0</ele><time>2026-04-09T10:15:08Z</time></trkpt><trkpt lat="36.39038263033217" lon="10.53826568583558"><ele>8.0</ele><time>2026-04-09T10:15:10Z</time></trkpt><trkpt lat="36.390463365786424" lon="10.538357913582201"><ele>8.0</ele><time>2026-04-09T10:15:12Z</time></trkpt><trkpt lat="36.390570795499855" lon="10.538466120202209"><ele>8.0</ele><time>2026-04-09T10:15:14Z</time></trkpt><trkpt lat="36.39063356864929" lon="10.53853025122917"><ele>7.800000000000001</ele><time>2026-04-09T10:15:15Z</time></trkpt><trkpt lat="36.39070199460189" lon="10.538601857194983"><ele>7.6000000000000005</ele><time>2026-04-09T10:15:16Z</time></trkpt><trkpt lat="36.390774024605975" lon="10.53867344179756"><ele>7.3999999999999995</ele><time>2026-04-09T10:15:17Z</time></trkpt><trkpt lat="36.390849097368836" lon="10.53874883178895"><ele>7.199999999999999</ele><time>2026-04-09T10:15:18Z</time></trkpt><trkpt lat="36.39092641390032" lon="10.538827117432872"><ele>7.0</ele><time>2026-04-09T10:15:19Z</time></trkpt><trkpt lat="36.391003863321494" lon="10.538909385219954"><ele>7.199999999999999</ele><time>2026-04-09T10:15:20Z</time></trkpt><trkpt lat="36.391083837227576" lon="10.538992210226503"><ele>7.3999999999999995</ele><time>2026-04-09T10:15:21Z</time></trkpt><trkpt lat="36.391165636214296" lon="10.53907241054621"><ele>7.6000000000000005</ele><time>2026-04-09T10:15:22Z</time></trkpt><trkpt lat="36.3912493356149" lon="10.53915255363376"><ele>7.800000000000001</ele><time>2026-04-09T10:15:23Z</time></trkpt><trkpt lat="36.391332843074245" lon="10.539235098502118"><ele>8.0</ele><time>2026-04-09T10:15:24Z</time></trkpt><trkpt lat="36.39141645295204" lon="10.539319969756681"><ele>8.0</ele><time>2026-04-09T10:15:25Z</time></trkpt><trkpt lat="36.391498215953405" lon="10.539406698786419"><ele>8.0</ele><time>2026-04-09T10:15:26Z</time></trkpt><trkpt lat="36.39157997221773" lon="10.539491996778105"><ele>8.0</ele><time>2026-04-09T10:15:27Z</time></trkpt><trkpt lat="36.39166141001235" lon="10.539577576460475"><ele>8.0</ele><time>2026-04-09T10:15:28Z</time></trkpt><trkpt lat="36.391744034694185" lon="10.539660567603406"><ele>8.0</ele><time>2026-04-09T10:15:29Z</time></trkpt><trkpt lat="36.391827181208136" lon="10.539744900652206"><ele>8.0</ele><time>2026-04-09T10:15:30Z</time></trkpt><trkpt lat="36.39191003016909" lon="10.539828949977009"><ele>8.0</ele><time>2026-04-09T10:15:31Z</time></trkpt><trkpt lat="36.39199449726295" lon="10.53991495733449"><ele>8.0</ele><time>2026-04-09T10:15:32Z</time></trkpt><trkpt lat="36.39208538119885" lon="10.540007602046984"><ele>8.0</ele><time>2026-04-09T10:15:33Z</time></trkpt><trkpt lat="36.39217885716514" lon="10.540105147488847"><ele>8.0</ele><time>2026-04-09T10:15:34Z</time></trkpt><trkpt lat="36.39227392399114" lon="10.540208808570773"><ele>8.0</ele><time>2026-04-09T10:15:34.999Z</time></trkpt><trkpt lat="36.3923745704744" lon="10.540315508845255"><ele>8.0</ele><time>2026-04-09T10:15:35.999Z</time></trkpt><trkpt lat="36.39247789799663" lon="10.540422744295379"><ele>8.0</ele><time>2026-04-09T10:15:36.999Z</time></trkpt><trkpt lat="36.39257822361277" lon="10.54053575994127"><ele>8.0</ele><time>2026-04-09T10:15:37.999Z</time></trkpt><trkpt lat="36.39267602593827" lon="10.54064721682394"><ele>8.0</ele><time>2026-04-09T10:15:38.999Z</time></trkpt><trkpt lat="36.39277386857099" lon="10.540758565375906"><ele>8.0</ele><time>2026-04-09T10:15:39.999Z</time></trkpt><trkpt lat="36.39286995297271" lon="10.540869131114004"><ele>8.0</ele><time>2026-04-09T10:15:40.999Z</time></trkpt><trkpt lat="36.39296028755661" lon="10.540970676655595"><ele>8.4</ele><time>2026-04-09T10:15:41.999Z</time></trkpt><trkpt lat="36.39304103769793" lon="10.541066535579303"><ele>8.8</ele><time>2026-04-09T10:15:42.999Z</time></trkpt><trkpt lat="36.39311868965685" lon="10.541160721634304"><ele>9.2</ele><time>2026-04-09T10:15:43.999Z</time></trkpt><trkpt lat="36.39319847057578" lon="10.541257087999849"><ele>9.6</ele><time>2026-04-09T10:15:44.999Z</time></trkpt><trkpt lat="36.3932790901073" lon="10.541362375475625"><ele>10.0</ele><time>2026-04-09T10:15:45.999Z</time></trkpt><trkpt lat="36.39336086174208" lon="10.541468284027019"><ele>10.0</ele><time>2026-04-09T10:15:46.999Z</time></trkpt><trkpt lat="36.39344495073289" lon="10.541578007723606"><ele>10.0</ele><time>2026-04-09T10:15:47.999Z</time></trkpt><trkpt lat="36.39353141136449" lon="10.5416933889239"><ele>10.0</ele><time>2026-04-09T10:15:48.999Z</time></trkpt><trkpt lat="36.393613734694306" lon="10.541803815982302"><ele>10.0</ele><time>2026-04-09T10:15:49.999Z</time></trkpt><trkpt lat="36.39368370442064" lon="10.5419002069118"><ele>10.0</ele><time>2026-04-09T10:15:50.999Z</time></trkpt><trkpt lat="36.39373844646811" lon="10.541975314176863"><ele>10.0</ele><time>2026-04-09T10:15:51.999Z</time></trkpt><trkpt lat="36.39378066318972" lon="10.542045133530937"><ele>10.0</ele><time>2026-04-09T10:15:52.999Z</time></trkpt><trkpt lat="36.3938255154788" lon="10.542119157433223"><ele>10.0</ele><time>2026-04-09T10:15:53.999Z</time></trkpt><trkpt lat="36.39387803520902" lon="10.542196221087499"><ele>10.0</ele><time>2026-04-09T10:15:54.999Z</time></trkpt><trkpt lat="36.39393447640392" lon="10.542276541585267"><ele>10.0</ele><time>2026-04-09T10:15:55.999Z</time></trkpt><trkpt lat="36.39399672166511" lon="10.542351789793791"><ele>10.2</ele><time>2026-04-09T10:15:56.999Z</time></trkpt><trkpt lat="36.39405932376662" lon="10.542432298927258"><ele>10.4</ele><time>2026-04-09T10:15:57.999Z</time></trkpt><trkpt lat="36.394117771032974" lon="10.54252336073589"><ele>10.600000000000001</ele><time>2026-04-09T10:15:58.999Z</time></trkpt><trkpt lat="36.3941741520729" lon="10.54261720199623"><ele>10.8</ele><time>2026-04-09T10:15:59.999Z</time></trkpt><trkpt lat="36.39423165808586" lon="10.54271515734391"><ele>11.0</ele><time>2026-04-09T10:16:00.999Z</time></trkpt><trkpt lat="36.394287068332375" lon="10.542802339805666"><ele>11.0</ele><time>2026-04-09T10:16:01.999Z</time></trkpt><trkpt lat="36.39433770429398" lon="10.54287925823066"><ele>11.0</ele><time>2026-04-09T10:16:02.999Z</time></trkpt><trkpt lat="36.39438235582798" lon="10.542955709538234"><ele>11.0</ele><time>2026-04-09T10:16:03.999Z</time></trkpt><trkpt lat="36.39442857043088" lon="10.54304038732432"><ele>11.0</ele><time>2026-04-09T10:16:04.999Z</time></trkpt><trkpt lat="36.39448144710577" lon="10.543129809093044"><ele>11.0</ele><time>2026-04-09T10:16:05.999Z</time></trkpt><trkpt lat="36.39454195721823" lon="10.54322457670374"><ele>11.0</ele><time>2026-04-09T10:16:06.999Z</time></trkpt><trkpt lat="36.39460399085387" lon="10.543323654087907"><ele>11.4</ele><time>2026-04-09T10:16:07.999Z</time></trkpt><trkpt lat="36.39466562125121" lon="10.543427720311467"><ele>11.8</ele><time>2026-04-09T10:16:08.999Z</time></trkpt><trkpt lat="36.39473084321335" lon="10.543533887019011"><ele>12.200000000000001</ele><time>2026-04-09T10:16:09.999Z</time></trkpt><trkpt lat="36.39479967059067" lon="10.543649429803187"><ele>12.600000000000001</ele><time>2026-04-09T10:16:10.999Z</time></trkpt><trkpt lat="36.39486755236525" lon="10.54377198435119"><ele>13.0</ele><time>2026-04-09T10:16:11.999Z</time></trkpt><trkpt lat="36.39493795720697" lon="10.543904537998175"><ele>13.5</ele><time>2026-04-09T10:16:12.999Z</time></trkpt><trkpt lat="36.395012080684126" lon="10.544046036472647"><ele>14.0</ele><time>2026-04-09T10:16:13.999Z</time></trkpt><trkpt lat="36.39508416771875" lon="10.544191531032293"><ele>14.5</ele><time>2026-04-09T10:16:14.999Z</time></trkpt><trkpt lat="36.39515800346384" lon="10.54434506907439"><ele>15.0</ele><time>2026-04-09T10:16:15.999Z</time></trkpt><trkpt lat="36.39523474309933" lon="10.544504215488029"><ele>16.0</ele><time>2026-04-09T10:16:16.999Z</time></trkpt><trkpt lat="36.395314094305135" lon="10.544664383870415"><ele>17.0</ele><time>2026-04-09T10:16:17.999Z</time></trkpt><trkpt lat="36.39539898564216" lon="10.544829525552915"><ele>18.0</ele><time>2026-04-09T10:16:18.999Z</time></trkpt><trkpt lat="36.39548737430794" lon="10.545008933407829"><ele>18.333333333333332</ele><time>2026-04-09T10:16:19.999Z</time></trkpt><trkpt lat="36.39557884075843" lon="10.545205015852924"><ele>18.666666666666664</ele><time>2026-04-09T10:16:20.999Z</time></trkpt><trkpt lat="36.39566929704465" lon="10.545413042850797"><ele>19.0</ele><time>2026-04-09T10:16:21.999Z</time></trkpt><trkpt lat="36.395760458961156" lon="10.54562652805042"><ele>19.0</ele><time>2026-04-09T10:16:22.999Z</time></trkpt><trkpt lat="36.39585325408973" lon="10.545844715728483"><ele>19.0</ele><time>2026-04-09T10:16:23.999Z</time></trkpt><trkpt lat="36.395949012846614" lon="10.54607403739921"><ele>19.0</ele><time>2026-04-09T10:16:24.999Z</time></trkpt><trkpt lat="36.39604510897736" lon="10.54630586983332"><ele>19.333333333333332</ele><time>2026-04-09T10:16:25.999Z</time></trkpt><trkpt lat="36.396139699333695" lon="10.546543219006908"><ele>19.666666666666668</ele><time>2026-04-09T10:16:26.999Z</time></trkpt><trkpt lat="36.396233409000345" lon="10.54678563112727"><ele>20.0</ele><time>2026-04-09T10:16:27.999Z</time></trkpt><trkpt lat="36.396333537257156" lon="10.547028384987028"><ele>20.0</ele><time>2026-04-09T10:16:28.999Z</time></trkpt><trkpt lat="36.396431480718405" lon="10.547261605372752"><ele>20.0</ele><time>2026-04-09T10:16:29.999Z</time></trkpt><trkpt lat="36.39653013182137" lon="10.547499462083168"><ele>20.0</ele><time>2026-04-09T10:16:30.999Z</time></trkpt><trkpt lat="36.396631027421996" lon="10.547735816511848"><ele>20.0</ele><time>2026-04-09T10:16:31.999Z</time></trkpt><trkpt lat="36.39673768360876" lon="10.547968828793632"><ele>20.0</ele><time>2026-04-09T10:16:32.999Z</time></trkpt><trkpt lat="36.396848502806044" lon="10.548200271393725"><ele>20.0</ele><time>2026-04-09T10:16:33.999Z</time></trkpt><trkpt lat="36.39696278452208" lon="10.548428647312491"><ele>20.0</ele><time>2026-04-09T10:16:34.999Z</time></trkpt><trkpt lat="36.397082145014764" lon="10.548654410037797"><ele>20.0</ele><time>2026-04-09T10:16:35.999Z</time></trkpt><trkpt lat="36.3972122537794" lon="10.548898807470447"><ele>19.5</ele><time>2026-04-09T10:16:36.999Z</time></trkpt><trkpt lat="36.39735808647516" lon="10.549164601419294"><ele>19.0</ele><time>2026-04-09T10:16:37.999Z</time></trkpt><trkpt lat="36.397520024724926" lon="10.549435578054721"><ele>18.5</ele><time>2026-04-09T10:16:38.999Z</time></trkpt><trkpt lat="36.39769250237746" lon="10.54971569719149"><ele>18.0</ele><time>2026-04-09T10:16:39.999Z</time></trkpt><trkpt lat="36.397873730023434" lon="10.549996834059574"><ele>17.5</ele><time>2026-04-09T10:16:40.999Z</time></trkpt><trkpt lat="36.398070904756196" lon="10.550275800938515"><ele>17.0</ele><time>2026-04-09T10:16:41.999Z</time></trkpt><trkpt lat="36.39827497373386" lon="10.550551681310013"><ele>17.0</ele><time>2026-04-09T10:16:42.999Z</time></trkpt><trkpt lat="36.39849112456851" lon="10.550823196073495"><ele>17.0</ele><time>2026-04-09T10:16:43.999Z</time></trkpt><trkpt lat="36.39871794969091" lon="10.551096208138588"><ele>16.5</ele><time>2026-04-09T10:16:44.999Z</time></trkpt><trkpt lat="36.39895051270106" lon="10.55136107553165"><ele>16.0</ele><time>2026-04-09T10:16:45.999Z</time></trkpt><trkpt lat="36.39919291560575" lon="10.551619358770143"><ele>16.0</ele><time>2026-04-09T10:16:46.999Z</time></trkpt><trkpt lat="36.39943967981991" lon="10.551866945147646"><ele>16.0</ele><time>2026-04-09T10:16:47.999Z</time></trkpt><trkpt lat="36.399690038373805" lon="10.552101157708396"><ele>15.0</ele><time>2026-04-09T10:16:48.999Z</time></trkpt><trkpt lat="36.39993732404203" lon="10.55231994184938"><ele>14.0</ele><time>2026-04-09T10:16:49.999Z</time></trkpt><trkpt lat="36.40017711539975" lon="10.552519907079864"><ele>14.0</ele><time>2026-04-09T10:16:50.999Z</time></trkpt><trkpt lat="36.40041077411061" lon="10.55269934345887"><ele>14.0</ele><time>2026-04-09T10:16:51.999Z</time></trkpt><trkpt lat="36.40064025121289" lon="10.552870835493563"><ele>11.0</ele><time>2026-04-09T10:16:52.999Z</time></trkpt><trkpt lat="36.40086088233317" lon="10.553031829545656"><ele>8.0</ele><time>2026-04-09T10:16:53.999Z</time></trkpt><trkpt lat="36.40107691505224" lon="10.553184813129945"><ele>8.0</ele><time>2026-04-09T10:16:54.999Z</time></trkpt><trkpt lat="36.40129136973079" lon="10.553329471717893"><ele>8.0</ele><time>2026-04-09T10:16:56Z</time></trkpt><trkpt lat="36.40151723217448" lon="10.553468314694305"><ele>8.5</ele><time>2026-04-09T10:16:57Z</time></trkpt><trkpt lat="36.40175240701855" lon="10.553605547124345"><ele>9.0</ele><time>2026-04-09T10:16:58Z</time></trkpt><trkpt lat="36.402000220659794" lon="10.553738624210633"><ele>9.5</ele><time>2026-04-09T10:16:59Z</time></trkpt><trkpt lat="36.402252007355685" lon="10.553864233255489"><ele>10.0</ele><time>2026-04-09T10:17:00Z</time></trkpt><trkpt lat="36.40251333387931" lon="10.553981761684659"><ele>10.0</ele><time>2026-04-09T10:17:01Z</time></trkpt><trkpt lat="36.40277931037041" lon="10.554094551828527"><ele>10.0</ele><time>2026-04-09T10:17:02Z</time></trkpt><trkpt lat="36.40305321185737" lon="10.554200368992026"><ele>11.0</ele><time>2026-04-09T10:17:03Z</time></trkpt><trkpt lat="36.40333235607537" lon="10.554300034104088"><ele>12.0</ele><time>2026-04-09T10:17:04Z</time></trkpt><trkpt lat="36.40361498916818" lon="10.554390599895664"><ele>11.5</ele><time>2026-04-09T10:17:05Z</time></trkpt><trkpt lat="36.40390062490321" lon="10.55447404805427"><ele>11.0</ele><time>2026-04-09T10:17:06Z</time></trkpt><trkpt lat="36.4041877317076" lon="10.554547182661624"><ele>12.0</ele><time>2026-04-09T10:17:07Z</time></trkpt><trkpt lat="36.40447505878485" lon="10.554610734680061"><ele>13.0</ele><time>2026-04-09T10:17:08Z</time></trkpt><trkpt lat="36.4047609736322" lon="10.554660920450333"><ele>13.0</ele><time>2026-04-09T10:17:09Z</time></trkpt><trkpt lat="36.405047249688984" lon="10.554700894827025"><ele>13.0</ele><time>2026-04-09T10:17:10Z</time></trkpt><trkpt lat="36.40532979638435" lon="10.554719879192414"><ele>13.0</ele><time>2026-04-09T10:17:11Z</time></trkpt><trkpt lat="36.40560881725063" lon="10.5547267487724"><ele>13.0</ele><time>2026-04-09T10:17:12Z</time></trkpt><trkpt lat="36.405893519778374" lon="10.554729297531361"><ele>13.0</ele><time>2026-04-09T10:17:13Z</time></trkpt><trkpt lat="36.40617120780014" lon="10.554734236239838"><ele>13.0</ele><time>2026-04-09T10:17:14Z</time></trkpt><trkpt lat="36.406449560007076" lon="10.554737888824365"><ele>13.5</ele><time>2026-04-09T10:17:15Z</time></trkpt><trkpt lat="36.40672659475469" lon="10.55473216533844"><ele>14.0</ele><time>2026-04-09T10:17:16Z</time></trkpt><trkpt lat="36.4070022662231" lon="10.554718320900877"><ele>13.5</ele><time>2026-04-09T10:17:17Z</time></trkpt><trkpt lat="36.407273267663804" lon="10.55469296082716"><ele>13.0</ele><time>2026-04-09T10:17:18Z</time></trkpt><trkpt lat="36.40754342008962" lon="10.554660699940932"><ele>13.0</ele><time>2026-04-09T10:17:19Z</time></trkpt><trkpt lat="36.40780934551989" lon="10.554623835009155"><ele>13.0</ele><time>2026-04-09T10:17:20Z</time></trkpt><trkpt lat="36.408081322657445" lon="10.554580040384"><ele>14.5</ele><time>2026-04-09T10:17:21Z</time></trkpt><trkpt lat="36.40835491959928" lon="10.554531107937919"><ele>16.0</ele><time>2026-04-09T10:17:22Z</time></trkpt><trkpt lat="36.4086314291552" lon="10.55448088354452"><ele>17.0</ele><time>2026-04-09T10:17:23Z</time></trkpt><trkpt lat="36.408905045846815" lon="10.554432234826704"><ele>18.0</ele><time>2026-04-09T10:17:24Z</time></trkpt><trkpt lat="36.409173121387234" lon="10.554385880080023"><ele>18.0</ele><time>2026-04-09T10:17:25Z</time></trkpt><trkpt lat="36.40944027919208" lon="10.554346733095446"><ele>18.0</ele><time>2026-04-09T10:17:26Z</time></trkpt><trkpt lat="36.40970260589021" lon="10.55430711229821"><ele>19.0</ele><time>2026-04-09T10:17:27Z</time></trkpt><trkpt lat="36.40995861043366" lon="10.55426967067931"><ele>20.0</ele><time>2026-04-09T10:17:28Z</time></trkpt><trkpt lat="36.41021324801026" lon="10.554230585433455"><ele>20.0</ele><time>2026-04-09T10:17:29Z</time></trkpt><trkpt lat="36.410460980141195" lon="10.554193479597515"><ele>20.0</ele><time>2026-04-09T10:17:30Z</time></trkpt><trkpt lat="36.41069732524309" lon="10.554159105781304"><ele>21.5</ele><time>2026-04-09T10:17:31Z</time></trkpt><trkpt lat="36.41092608401905" lon="10.554124232925265"><ele>23.0</ele><time>2026-04-09T10:17:32Z</time></trkpt><trkpt lat="36.41114410572954" lon="10.554092376130313"><ele>23.0</ele><time>2026-04-09T10:17:33Z</time></trkpt><trkpt lat="36.41135687583648" lon="10.554058566896725"><ele>23.0</ele><time>2026-04-09T10:17:34Z</time></trkpt><trkpt lat="36.411572648676355" lon="10.554023504923432"><ele>23.0</ele><time>2026-04-09T10:17:35Z</time></trkpt><trkpt lat="36.41179039223836" lon="10.55398822025566"><ele>23.0</ele><time>2026-04-09T10:17:36Z</time></trkpt><trkpt lat="36.41201014931201" lon="10.553956885002886"><ele>23.0</ele><time>2026-04-09T10:17:37Z</time></trkpt><trkpt lat="36.412228491883624" lon="10.553919801186616"><ele>23.0</ele><time>2026-04-09T10:17:38Z</time></trkpt><trkpt lat="36.41244948510583" lon="10.553884063660613"><ele>23.666666666666668</ele><time>2026-04-09T10:17:39Z</time></trkpt><trkpt lat="36.41267071466583" lon="10.553850569458925"><ele>24.333333333333336</ele><time>2026-04-09T10:17:40Z</time></trkpt><trkpt lat="36.41288963434108" lon="10.55382130242807"><ele>25.0</ele><time>2026-04-09T10:17:41Z</time></trkpt><trkpt lat="36.413110260442004" lon="10.553796429147765"><ele>25.5</ele><time>2026-04-09T10:17:42Z</time></trkpt><trkpt lat="36.41334010474932" lon="10.553780982219582"><ele>26.0</ele><time>2026-04-09T10:17:43Z</time></trkpt><trkpt lat="36.41356932375503" lon="10.553773778809685"><ele>26.0</ele><time>2026-04-09T10:17:44Z</time></trkpt><trkpt lat="36.41380757668578" lon="10.55377485368296"><ele>26.0</ele><time>2026-04-09T10:17:45Z</time></trkpt><trkpt lat="36.41404830680047" lon="10.553782702230833"><ele>26.5</ele><time>2026-04-09T10:17:46Z</time></trkpt><trkpt lat="36.414295731014114" lon="10.55379885897365"><ele>27.0</ele><time>2026-04-09T10:17:47Z</time></trkpt><trkpt lat="36.414546817009835" lon="10.553818622758223"><ele>28.5</ele><time>2026-04-09T10:17:48Z</time></trkpt><trkpt lat="36.41480048982134" lon="10.553847510848263"><ele>30.0</ele><time>2026-04-09T10:17:49Z</time></trkpt><trkpt lat="36.41505713149159" lon="10.553888505845862"><ele>30.0</ele><time>2026-04-09T10:17:50Z</time></trkpt><trkpt lat="36.41531263342594" lon="10.553932827645045"><ele>30.0</ele><time>2026-04-09T10:17:51Z</time></trkpt><trkpt lat="36.41557088037003" lon="10.553986178314737"><ele>30.5</ele><time>2026-04-09T10:17:52Z</time></trkpt><trkpt lat="36.41583459511963" lon="10.554048281913692"><ele>31.0</ele><time>2026-04-09T10:17:53Z</time></trkpt><trkpt lat="36.41610105544255" lon="10.554117193766421"><ele>32.0</ele><time>2026-04-09T10:17:54Z</time></trkpt><trkpt lat="36.41636995664786" lon="10.55419825099152"><ele>33.0</ele><time>2026-04-09T10:17:55Z</time></trkpt><trkpt lat="36.41663318393802" lon="10.554281135639641"><ele>33.0</ele><time>2026-04-09T10:17:55.999Z</time></trkpt><trkpt lat="36.41688827557933" lon="10.554361824100292"><ele>33.0</ele><time>2026-04-09T10:17:56.999Z</time></trkpt><trkpt lat="36.41714080231741" lon="10.554437311397775"><ele>33.0</ele><time>2026-04-09T10:17:57.999Z</time></trkpt><trkpt lat="36.417388292381844" lon="10.554505105820676"><ele>33.0</ele><time>2026-04-09T10:17:58.999Z</time></trkpt><trkpt lat="36.417637723176824" lon="10.554567691334336"><ele>33.0</ele><time>2026-04-09T10:17:59.999Z</time></trkpt><trkpt lat="36.417883767766476" lon="10.554620070665349"><ele>33.0</ele><time>2026-04-09T10:18:00.999Z</time></trkpt><trkpt lat="36.41813097292857" lon="10.55466449309288"><ele>34.0</ele><time>2026-04-09T10:18:01.999Z</time></trkpt><trkpt lat="36.418381392133895" lon="10.554699573979287"><ele>35.0</ele><time>2026-04-09T10:18:02.999Z</time></trkpt><trkpt lat="36.41863187868321" lon="10.554726576100636"><ele>35.0</ele><time>2026-04-09T10:18:03.999Z</time></trkpt><trkpt lat="36.41887860037853" lon="10.554744363022543"><ele>35.0</ele><time>2026-04-09T10:18:04.999Z</time></trkpt><trkpt lat="36.419127986358475" lon="10.55475503115355"><ele>35.0</ele><time>2026-04-09T10:18:05.999Z</time></trkpt><trkpt lat="36.41937274643012" lon="10.554757635113056"><ele>35.0</ele><time>2026-04-09T10:18:06.999Z</time></trkpt><trkpt lat="36.41962925645234" lon="10.55474863518758"><ele>37.0</ele><time>2026-04-09T10:18:07.999Z</time></trkpt><trkpt lat="36.41989008626195" lon="10.554734328157565"><ele>39.0</ele><time>2026-04-09T10:18:08.999Z</time></trkpt><trkpt lat="36.42014697587549" lon="10.554711355801118"><ele>39.0</ele><time>2026-04-09T10:18:09.999Z</time></trkpt><trkpt lat="36.42040606717672" lon="10.55468145257317"><ele>39.0</ele><time>2026-04-09T10:18:10.999Z</time></trkpt><trkpt lat="36.42066245630463" lon="10.55464340483804"><ele>38.5</ele><time>2026-04-09T10:18:11.999Z</time></trkpt><trkpt lat="36.42091011506497" lon="10.554594519630797"><ele>38.0</ele><time>2026-04-09T10:18:12.999Z</time></trkpt><trkpt lat="36.42116426975638" lon="10.55453768080366"><ele>38.0</ele><time>2026-04-09T10:18:13.999Z</time></trkpt><trkpt lat="36.42140563283019" lon="10.554474345260672"><ele>38.0</ele><time>2026-04-09T10:18:14.999Z</time></trkpt><trkpt lat="36.421648342742714" lon="10.554396398901396"><ele>38.0</ele><time>2026-04-09T10:18:15.999Z</time></trkpt><trkpt lat="36.421895914793254" lon="10.554308343350927"><ele>38.0</ele><time>2026-04-09T10:18:16.999Z</time></trkpt><trkpt lat="36.42214200614748" lon="10.554220189138398"><ele>36.0</ele><time>2026-04-09T10:18:17.999Z</time></trkpt><trkpt lat="36.42238282321349" lon="10.554139094857671"><ele>34.0</ele><time>2026-04-09T10:18:18.999Z</time></trkpt><trkpt lat="36.42261821414331" lon="10.554056736789093"><ele>34.0</ele><time>2026-04-09T10:18:19.999Z</time></trkpt><trkpt lat="36.42284733719022" lon="10.55397810925973"><ele>34.0</ele><time>2026-04-09T10:18:20.999Z</time></trkpt><trkpt lat="36.42306424469662" lon="10.553902078540268"><ele>33.0</ele><time>2026-04-09T10:18:21.999Z</time></trkpt><trkpt lat="36.42327878525092" lon="10.553831353472333"><ele>32.0</ele><time>2026-04-09T10:18:22.999Z</time></trkpt><trkpt lat="36.42348903391841" lon="10.553762465541144"><ele>31.0</ele><time>2026-04-09T10:18:23.999Z</time></trkpt><trkpt lat="36.423705792172996" lon="10.553697829718084"><ele>30.0</ele><time>2026-04-09T10:18:24.999Z</time></trkpt><trkpt lat="36.42392920674558" lon="10.553639868661962"><ele>29.0</ele><time>2026-04-09T10:18:25.999Z</time></trkpt><trkpt lat="36.424155309209894" lon="10.553588791478955"><ele>29.0</ele><time>2026-04-09T10:18:26.999Z</time></trkpt><trkpt lat="36.42438557912871" lon="10.553547555122657"><ele>29.0</ele><time>2026-04-09T10:18:27.999Z</time></trkpt><trkpt lat="36.42462027840543" lon="10.553512103055098"><ele>31.0</ele><time>2026-04-09T10:18:28.999Z</time></trkpt><trkpt lat="36.42485832174583" lon="10.553478810572962"><ele>33.0</ele><time>2026-04-09T10:18:29.999Z</time></trkpt><trkpt lat="36.425096224522015" lon="10.553454260566195"><ele>33.0</ele><time>2026-04-09T10:18:30.999Z</time></trkpt><trkpt lat="36.42533537071636" lon="10.553438996711465"><ele>33.0</ele><time>2026-04-09T10:18:31.999Z</time></trkpt><trkpt lat="36.425573708905546" lon="10.553428888104165"><ele>35.5</ele><time>2026-04-09T10:18:32.999Z</time></trkpt><trkpt lat="36.4258110376979" lon="10.553425110754077"><ele>38.0</ele><time>2026-04-09T10:18:33.999Z</time></trkpt><trkpt lat="36.4260513403768" lon="10.553430120367166"><ele>38.0</ele><time>2026-04-09T10:18:34.999Z</time></trkpt><trkpt lat="36.42629334128732" lon="10.553439503237213"><ele>38.0</ele><time>2026-04-09T10:18:35.999Z</time></trkpt><trkpt lat="36.42654311824036" lon="10.553460064589371"><ele>39.0</ele><time>2026-04-09T10:18:36.999Z</time></trkpt><trkpt lat="36.42679604242733" lon="10.5534908453996"><ele>40.0</ele><time>2026-04-09T10:18:37.999Z</time></trkpt><trkpt lat="36.42704958162629" lon="10.55353113791207"><ele>42.0</ele><time>2026-04-09T10:18:38.999Z</time></trkpt><trkpt lat="36.427301101440975" lon="10.5535796814688"><ele>44.0</ele><time>2026-04-09T10:18:39.999Z</time></trkpt><trkpt lat="36.427552709416794" lon="10.553641165904367"><ele>44.5</ele><time>2026-04-09T10:18:40.999Z</time></trkpt><trkpt lat="36.427798317270856" lon="10.553712718364977"><ele>45.0</ele><time>2026-04-09T10:18:41.999Z</time></trkpt><trkpt lat="36.42803959556481" lon="10.55379401777216"><ele>47.0</ele><time>2026-04-09T10:18:42.999Z</time></trkpt><trkpt lat="36.4282801469446" lon="10.553880136109678"><ele>49.0</ele><time>2026-04-09T10:18:43.999Z</time></trkpt><trkpt lat="36.42852485867515" lon="10.553970189666227"><ele>49.0</ele><time>2026-04-09T10:18:44.999Z</time></trkpt><trkpt lat="36.42876804366876" lon="10.554070615970007"><ele>49.0</ele><time>2026-04-09T10:18:45.999Z</time></trkpt><trkpt lat="36.429008377235654" lon="10.554181128082867"><ele>49.0</ele><time>2026-04-09T10:18:46.999Z</time></trkpt><trkpt lat="36.429246887392566" lon="10.554300528511035"><ele>49.0</ele><time>2026-04-09T10:18:47.999Z</time></trkpt><trkpt lat="36.429480298910526" lon="10.554426317177928"><ele>49.0</ele><time>2026-04-09T10:18:48.999Z</time></trkpt><trkpt lat="36.42970626651839" lon="10.55455827559396"><ele>49.0</ele><time>2026-04-09T10:18:49.999Z</time></trkpt><trkpt lat="36.42992636255565" lon="10.5546991863141"><ele>49.0</ele><time>2026-04-09T10:18:50.999Z</time></trkpt><trkpt lat="36.43013863357976" lon="10.554847851944107"><ele>49.0</ele><time>2026-04-09T10:18:51.999Z</time></trkpt><trkpt lat="36.43035001819605" lon="10.555004773837084"><ele>46.5</ele><time>2026-04-09T10:18:52.999Z</time></trkpt><trkpt lat="36.43055993801749" lon="10.555165258003576"><ele>44.0</ele><time>2026-04-09T10:18:53.999Z</time></trkpt><trkpt lat="36.43076696452049" lon="10.555333561299383"><ele>46.0</ele><time>2026-04-09T10:18:54.999Z</time></trkpt><trkpt lat="36.430972732034284" lon="10.555507373234928"><ele>48.0</ele><time>2026-04-09T10:18:55.999Z</time></trkpt><trkpt lat="36.43117643647579" lon="10.555687885295997"><ele>43.5</ele><time>2026-04-09T10:18:56.999Z</time></trkpt><trkpt lat="36.43137595379956" lon="10.55587825015615"><ele>39.0</ele><time>2026-04-09T10:18:57.999Z</time></trkpt><trkpt lat="36.4315715815367" lon="10.556076834214288"><ele>39.5</ele><time>2026-04-09T10:18:58.999Z</time></trkpt><trkpt lat="36.43176711798368" lon="10.556284489785005"><ele>40.0</ele><time>2026-04-09T10:18:59.999Z</time></trkpt><trkpt lat="36.431959345560216" lon="10.556492628483598"><ele>36.5</ele><time>2026-04-09T10:19:00.999Z</time></trkpt><trkpt lat="36.43215519203062" lon="10.556703818602992"><ele>33.0</ele><time>2026-04-09T10:19:02Z</time></trkpt><trkpt lat="36.43235085772121" lon="10.556914092823797"><ele>33.5</ele><time>2026-04-09T10:19:03Z</time></trkpt><trkpt lat="36.432550202887974" lon="10.55712747110334"><ele>34.0</ele><time>2026-04-09T10:19:04Z</time></trkpt><trkpt lat="36.43275175439221" lon="10.557344228771134"><ele>34.0</ele><time>2026-04-09T10:19:05Z</time></trkpt><trkpt lat="36.43294832929178" lon="10.557558047539883"><ele>34.0</ele><time>2026-04-09T10:19:06Z</time></trkpt><trkpt lat="36.43313514824698" lon="10.557767028615487"><ele>32.0</ele><time>2026-04-09T10:19:07Z</time></trkpt><trkpt lat="36.43332121542661" lon="10.557971155871703"><ele>30.0</ele><time>2026-04-09T10:19:08Z</time></trkpt><trkpt lat="36.4335083387319" lon="10.558172987725507"><ele>30.0</ele><time>2026-04-09T10:19:09Z</time></trkpt><trkpt lat="36.43369839177336" lon="10.558370545978168"><ele>30.0</ele><time>2026-04-09T10:19:10Z</time></trkpt><trkpt lat="36.43388462763406" lon="10.558562843995958"><ele>28.5</ele><time>2026-04-09T10:19:11Z</time></trkpt><trkpt lat="36.43406645172413" lon="10.558755853825994"><ele>27.0</ele><time>2026-04-09T10:19:12Z</time></trkpt><trkpt lat="36.43424908253198" lon="10.558952882895143"><ele>27.0</ele><time>2026-04-09T10:19:13Z</time></trkpt><trkpt lat="36.43443113864119" lon="10.559144213325625"><ele>27.0</ele><time>2026-04-09T10:19:14Z</time></trkpt><trkpt lat="36.43461562152779" lon="10.559339290524296"><ele>27.5</ele><time>2026-04-09T10:19:15Z</time></trkpt><trkpt lat="36.43479885237446" lon="10.559539433762346"><ele>28.0</ele><time>2026-04-09T10:19:16Z</time></trkpt><trkpt lat="36.434978573112005" lon="10.55974142264969"><ele>28.0</ele><time>2026-04-09T10:19:17Z</time></trkpt><trkpt lat="36.43515684620643" lon="10.559938857968698"><ele>28.0</ele><time>2026-04-09T10:19:18Z</time></trkpt><trkpt lat="36.435332641018256" lon="10.560135474558907"><ele>30.0</ele><time>2026-04-09T10:19:19Z</time></trkpt><trkpt lat="36.435506840312335" lon="10.560327879714253"><ele>32.0</ele><time>2026-04-09T10:19:20Z</time></trkpt><trkpt lat="36.43568202005158" lon="10.560520272678056"><ele>32.0</ele><time>2026-04-09T10:19:21Z</time></trkpt><trkpt lat="36.43585556453356" lon="10.560708724216505"><ele>32.0</ele><time>2026-04-09T10:19:22Z</time></trkpt><trkpt lat="36.4360277523476" lon="10.560896907806933"><ele>32.0</ele><time>2026-04-09T10:19:23Z</time></trkpt><trkpt lat="36.436198004962336" lon="10.561079961586437"><ele>32.0</ele><time>2026-04-09T10:19:24Z</time></trkpt><trkpt lat="36.436369686974565" lon="10.561260926804188"><ele>33.0</ele><time>2026-04-09T10:19:25Z</time></trkpt><trkpt lat="36.436541793332296" lon="10.561443501409496"><ele>34.0</ele><time>2026-04-09T10:19:26Z</time></trkpt><trkpt lat="36.43671509539843" lon="10.561625306690287"><ele>34.0</ele><time>2026-04-09T10:19:27Z</time></trkpt><trkpt lat="36.43689185968307" lon="10.561807656114134"><ele>34.0</ele><time>2026-04-09T10:19:28Z</time></trkpt><trkpt lat="36.43707391716705" lon="10.561999061231178"><ele>36.5</ele><time>2026-04-09T10:19:29Z</time></trkpt><trkpt lat="36.43726463709384" lon="10.562203594789903"><ele>39.0</ele><time>2026-04-09T10:19:30Z</time></trkpt><trkpt lat="36.437471591464174" lon="10.562424179943404"><ele>39.0</ele><time>2026-04-09T10:19:31Z</time></trkpt><trkpt lat="36.43768446035111" lon="10.562650691235843"><ele>39.0</ele><time>2026-04-09T10:19:32Z</time></trkpt><trkpt lat="36.43789268347443" lon="10.562860787945638"><ele>41.5</ele><time>2026-04-09T10:19:33Z</time></trkpt><trkpt lat="36.438101815892495" lon="10.563061287280435"><ele>44.0</ele><time>2026-04-09T10:19:34Z</time></trkpt><trkpt lat="36.43831784175456" lon="10.563256730840955"><ele>44.0</ele><time>2026-04-09T10:19:35Z</time></trkpt><trkpt lat="36.43853644042851" lon="10.56343845917983"><ele>44.0</ele><time>2026-04-09T10:19:36Z</time></trkpt><trkpt lat="36.43876343130065" lon="10.563621200820144"><ele>46.5</ele><time>2026-04-09T10:19:37Z</time></trkpt><trkpt lat="36.43900168368557" lon="10.563799318593185"><ele>49.0</ele><time>2026-04-09T10:19:38Z</time></trkpt><trkpt lat="36.439252894380004" lon="10.56397909668067"><ele>49.0</ele><time>2026-04-09T10:19:39Z</time></trkpt><trkpt lat="36.439511003787466" lon="10.564154179982383"><ele>49.0</ele><time>2026-04-09T10:19:40Z</time></trkpt><trkpt lat="36.43976973168639" lon="10.564322009448292"><ele>51.5</ele><time>2026-04-09T10:19:41Z</time></trkpt><trkpt lat="36.44003153602078" lon="10.564484727306906"><ele>54.0</ele><time>2026-04-09T10:19:42Z</time></trkpt><trkpt lat="36.44029466153206" lon="10.564644316391089"><ele>55.5</ele><time>2026-04-09T10:19:43Z</time></trkpt><trkpt lat="36.44056387570148" lon="10.564795646182736"><ele>57.0</ele><time>2026-04-09T10:19:44Z</time></trkpt><trkpt lat="36.44083196699838" lon="10.564938098721582"><ele>57.0</ele><time>2026-04-09T10:19:45Z</time></trkpt><trkpt lat="36.44111044984865" lon="10.565067026162254"><ele>57.0</ele><time>2026-04-09T10:19:46Z</time></trkpt><trkpt lat="36.44137916501875" lon="10.565194728608931"><ele>57.0</ele><time>2026-04-09T10:19:47Z</time></trkpt><trkpt lat="36.44166129097412" lon="10.565315616529471"><ele>57.0</ele><time>2026-04-09T10:19:48Z</time></trkpt><trkpt lat="36.441947009031864" lon="10.565423570310983"><ele>54.5</ele><time>2026-04-09T10:19:49Z</time></trkpt><trkpt lat="36.44222817415734" lon="10.56551717570498"><ele>52.0</ele><time>2026-04-09T10:19:50Z</time></trkpt><trkpt lat="36.44251053638475" lon="10.565606606323998"><ele>52.0</ele><time>2026-04-09T10:19:51Z</time></trkpt><trkpt lat="36.44279146713308" lon="10.565685760286478"><ele>52.0</ele><time>2026-04-09T10:19:52Z</time></trkpt><trkpt lat="36.443071808839704" lon="10.565755213075558"><ele>54.0</ele><time>2026-04-09T10:19:53Z</time></trkpt><trkpt lat="36.4433508435794" lon="10.565816191645885"><ele>56.0</ele><time>2026-04-09T10:19:54Z</time></trkpt><trkpt lat="36.44363243570616" lon="10.565868941137532"><ele>58.0</ele><time>2026-04-09T10:19:55Z</time></trkpt><trkpt lat="36.44391170495134" lon="10.565909986688151"><ele>60.0</ele><time>2026-04-09T10:19:56Z</time></trkpt><trkpt lat="36.44419292244563" lon="10.565944036163788"><ele>60.0</ele><time>2026-04-09T10:19:57Z</time></trkpt><trkpt lat="36.44447503787743" lon="10.565970353919408"><ele>60.0</ele><time>2026-04-09T10:19:58Z</time></trkpt><trkpt lat="36.444758353060884" lon="10.565987208516894"><ele>59.5</ele><time>2026-04-09T10:19:59Z</time></trkpt><trkpt lat="36.445040575873506" lon="10.565996083153738"><ele>59.0</ele><time>2026-04-09T10:20:00Z</time></trkpt><trkpt lat="36.44532688171735" lon="10.565998000192215"><ele>58.0</ele><time>2026-04-09T10:20:01Z</time></trkpt><trkpt lat="36.44561088700672" lon="10.565992473256136"><ele>57.0</ele><time>2026-04-09T10:20:02Z</time></trkpt><trkpt lat="36.44589515222574" lon="10.565978098067644"><ele>57.0</ele><time>2026-04-09T10:20:03Z</time></trkpt><trkpt lat="36.44618148783907" lon="10.565955927612631"><ele>57.0</ele><time>2026-04-09T10:20:04Z</time></trkpt><trkpt lat="36.44646693961078" lon="10.565926716963855"><ele>58.5</ele><time>2026-04-09T10:20:05Z</time></trkpt><trkpt lat="36.446746758101575" lon="10.565884316709957"><ele>60.0</ele><time>2026-04-09T10:20:06Z</time></trkpt><trkpt lat="36.44702783324114" lon="10.56584350736527"><ele>61.5</ele><time>2026-04-09T10:20:07Z</time></trkpt><trkpt lat="36.44730305410373" lon="10.565798898993421"><ele>63.0</ele><time>2026-04-09T10:20:08Z</time></trkpt><trkpt lat="36.44757909142814" lon="10.565753235448382"><ele>63.0</ele><time>2026-04-09T10:20:09Z</time></trkpt><trkpt lat="36.447853876225885" lon="10.565707038245137"><ele>63.0</ele><time>2026-04-09T10:20:10Z</time></trkpt><trkpt lat="36.44812831695598" lon="10.565657406371955"><ele>64.5</ele><time>2026-04-09T10:20:11Z</time></trkpt><trkpt lat="36.44840600167454" lon="10.565607047251937"><ele>66.0</ele><time>2026-04-09T10:20:12Z</time></trkpt><trkpt lat="36.4486847000333" lon="10.565555662498399"><ele>66.5</ele><time>2026-04-09T10:20:13Z</time></trkpt><trkpt lat="36.44896264340251" lon="10.565505621627029"><ele>67.0</ele><time>2026-04-09T10:20:14Z</time></trkpt><trkpt lat="36.449241307306224" lon="10.56546290308553"><ele>67.0</ele><time>2026-04-09T10:20:15Z</time></trkpt><trkpt lat="36.44951476209215" lon="10.565428276900883"><ele>67.0</ele><time>2026-04-09T10:20:16Z</time></trkpt><trkpt lat="36.44978602341369" lon="10.56540538983991"><ele>65.5</ele><time>2026-04-09T10:20:17Z</time></trkpt><trkpt lat="36.450055908411684" lon="10.5653895501922"><ele>64.0</ele><time>2026-04-09T10:20:18Z</time></trkpt><trkpt lat="36.45031928710393" lon="10.565381024436656"><ele>64.0</ele><time>2026-04-09T10:20:19Z</time></trkpt><trkpt lat="36.45057031151494" lon="10.565383097663839"><ele>64.0</ele><time>2026-04-09T10:20:20Z</time></trkpt><trkpt lat="36.45081221737134" lon="10.565392853065655"><ele>64.0</ele><time>2026-04-09T10:20:21Z</time></trkpt><trkpt lat="36.451054506309056" lon="10.565406655911985"><ele>64.0</ele><time>2026-04-09T10:20:22Z</time></trkpt><trkpt lat="36.45130274401461" lon="10.565428768518757"><ele>62.5</ele><time>2026-04-09T10:20:23Z</time></trkpt><trkpt lat="36.451548247478605" lon="10.565457931074862"><ele>61.0</ele><time>2026-04-09T10:20:24Z</time></trkpt><trkpt lat="36.45179226954979" lon="10.565492716752248"><ele>61.0</ele><time>2026-04-09T10:20:25Z</time></trkpt><trkpt lat="36.45203325668262" lon="10.565534904650173"><ele>61.0</ele><time>2026-04-09T10:20:26Z</time></trkpt><trkpt lat="36.45227568141078" lon="10.565579864866507"><ele>62.0</ele><time>2026-04-09T10:20:26.999Z</time></trkpt><trkpt lat="36.45252037340553" lon="10.565630039622349"><ele>63.0</ele><time>2026-04-09T10:20:27.999Z</time></trkpt><trkpt lat="36.45276592210248" lon="10.56568420894942"><ele>64.0</ele><time>2026-04-09T10:20:28.999Z</time></trkpt><trkpt lat="36.4530158608707" lon="10.565748187597617"><ele>65.0</ele><time>2026-04-09T10:20:29.999Z</time></trkpt><trkpt lat="36.45326673659104" lon="10.565816603746542"><ele>65.0</ele><time>2026-04-09T10:20:30.999Z</time></trkpt><trkpt lat="36.45352408428403" lon="10.56588994282255"><ele>65.0</ele><time>2026-04-09T10:20:31.999Z</time></trkpt><trkpt lat="36.45377916776528" lon="10.565964086570508"><ele>65.5</ele><time>2026-04-09T10:20:32.999Z</time></trkpt><trkpt lat="36.45403243730578" lon="10.566044663547062"><ele>66.0</ele><time>2026-04-09T10:20:33.999Z</time></trkpt><trkpt lat="36.454283639859476" lon="10.566125197253834"><ele>66.0</ele><time>2026-04-09T10:20:34.999Z</time></trkpt><trkpt lat="36.45453646845786" lon="10.566207307166886"><ele>66.0</ele><time>2026-04-09T10:20:35.999Z</time></trkpt><trkpt lat="36.45479113133599" lon="10.566286284600277"><ele>67.5</ele><time>2026-04-09T10:20:36.999Z</time></trkpt><trkpt lat="36.45504632245946" lon="10.566363027606767"><ele>69.0</ele><time>2026-04-09T10:20:37.999Z</time></trkpt><trkpt lat="36.455305135457884" lon="10.566441320064646"><ele>68.5</ele><time>2026-04-09T10:20:38.999Z</time></trkpt><trkpt lat="36.45556949738348" lon="10.5665235597531"><ele>68.0</ele><time>2026-04-09T10:20:39.999Z</time></trkpt><trkpt lat="36.455836147261365" lon="10.566608141524869"><ele>68.0</ele><time>2026-04-09T10:20:40.999Z</time></trkpt><trkpt lat="36.456103643464516" lon="10.566693812952526"><ele>68.0</ele><time>2026-04-09T10:20:41.999Z</time></trkpt><trkpt lat="36.45637226208348" lon="10.566779159279243"><ele>69.0</ele><time>2026-04-09T10:20:42.999Z</time></trkpt><trkpt lat="36.45664470980663" lon="10.566861972151193"><ele>70.0</ele><time>2026-04-09T10:20:43.999Z</time></trkpt><trkpt lat="36.45691887352897" lon="10.566940552238934"><ele>72.0</ele><time>2026-04-09T10:20:44.999Z</time></trkpt><trkpt lat="36.45720003481986" lon="10.567019324758986"><ele>74.0</ele><time>2026-04-09T10:20:45.999Z</time></trkpt><trkpt lat="36.45748166735367" lon="10.567093130946757"><ele>72.0</ele><time>2026-04-09T10:20:46.999Z</time></trkpt><trkpt lat="36.457767566064085" lon="10.56716068085343"><ele>70.0</ele><time>2026-04-09T10:20:47.999Z</time></trkpt><trkpt lat="36.4580539276075" lon="10.567223598500902"><ele>70.0</ele><time>2026-04-09T10:20:48.999Z</time></trkpt><trkpt lat="36.458340402333995" lon="10.56727991469933"><ele>70.0</ele><time>2026-04-09T10:20:49.999Z</time></trkpt><trkpt lat="36.45863120573999" lon="10.567332860544704"><ele>69.5</ele><time>2026-04-09T10:20:50.999Z</time></trkpt><trkpt lat="36.45891778059943" lon="10.567379667902726"><ele>69.0</ele><time>2026-04-09T10:20:51.999Z</time></trkpt><trkpt lat="36.45920889735012" lon="10.567423019321353"><ele>69.0</ele><time>2026-04-09T10:20:52.999Z</time></trkpt><trkpt lat="36.459508502940324" lon="10.567464126126904"><ele>69.0</ele><time>2026-04-09T10:20:53.999Z</time></trkpt><trkpt lat="36.45981685341949" lon="10.567500476085563"><ele>69.5</ele><time>2026-04-09T10:20:54.999Z</time></trkpt><trkpt lat="36.460132438273064" lon="10.567527163786659"><ele>70.0</ele><time>2026-04-09T10:20:55.999Z</time></trkpt><trkpt lat="36.460454358306585" lon="10.567545304699113"><ele>70.0</ele><time>2026-04-09T10:20:56.999Z</time></trkpt><trkpt lat="36.46078119790052" lon="10.567550231362153"><ele>70.0</ele><time>2026-04-09T10:20:57.999Z</time></trkpt><trkpt lat="36.46110520378171" lon="10.5675512325715"><ele>68.0</ele><time>2026-04-09T10:20:58.999Z</time></trkpt><trkpt lat="36.46142767838696" lon="10.567550459110112"><ele>66.0</ele><time>2026-04-09T10:20:59.999Z</time></trkpt><trkpt lat="36.46174664795171" lon="10.567545190866857"><ele>66.0</ele><time>2026-04-09T10:21:00.999Z</time></trkpt><trkpt lat="36.4620632420018" lon="10.567533241571113"><ele>66.0</ele><time>2026-04-09T10:21:01.999Z</time></trkpt><trkpt lat="36.462379047744335" lon="10.56752309392031"><ele>66.5</ele><time>2026-04-09T10:21:02.999Z</time></trkpt><trkpt lat="36.46269317667948" lon="10.567512532059633"><ele>67.0</ele><time>2026-04-09T10:21:03.999Z</time></trkpt><trkpt lat="36.462999683819795" lon="10.567500807776021"><ele>66.0</ele><time>2026-04-09T10:21:04.999Z</time></trkpt><trkpt lat="36.46330061173676" lon="10.567489489560776"><ele>65.0</ele><time>2026-04-09T10:21:05.999Z</time></trkpt><trkpt lat="36.46359733450367" lon="10.567476839730874"><ele>65.5</ele><time>2026-04-09T10:21:06.999Z</time></trkpt><trkpt lat="36.46388938562863" lon="10.567465946757505"><ele>66.0</ele><time>2026-04-09T10:21:08Z</time></trkpt><trkpt lat="36.464184766900786" lon="10.567461097866257"><ele>66.0</ele><time>2026-04-09T10:21:09Z</time></trkpt><trkpt lat="36.464482417129275" lon="10.567458263681536"><ele>66.0</ele><time>2026-04-09T10:21:10Z</time></trkpt><trkpt lat="36.46477744770565" lon="10.56746310148687"><ele>66.5</ele><time>2026-04-09T10:21:11Z</time></trkpt><trkpt lat="36.4650685019288" lon="10.567473857329967"><ele>67.0</ele><time>2026-04-09T10:21:12Z</time></trkpt><trkpt lat="36.46536009192858" lon="10.567492931240977"><ele>68.0</ele><time>2026-04-09T10:21:13Z</time></trkpt><trkpt lat="36.46565168284736" lon="10.567516043149242"><ele>69.0</ele><time>2026-04-09T10:21:14Z</time></trkpt><trkpt lat="36.4659459467227" lon="10.567546527184865"><ele>69.0</ele><time>2026-04-09T10:21:15Z</time></trkpt><trkpt lat="36.466240213436436" lon="10.567583231166731"><ele>69.0</ele><time>2026-04-09T10:21:16Z</time></trkpt><trkpt lat="36.466537961661544" lon="10.567627128457081"><ele>70.0</ele><time>2026-04-09T10:21:17Z</time></trkpt><trkpt lat="36.46683701348923" lon="10.567676297452135"><ele>71.0</ele><time>2026-04-09T10:21:18Z</time></trkpt><trkpt lat="36.46713704927805" lon="10.567729704890903"><ele>72.5</ele><time>2026-04-09T10:21:19Z</time></trkpt><trkpt lat="36.46743433605551" lon="10.567786261931758"><ele>74.0</ele><time>2026-04-09T10:21:20Z</time></trkpt><trkpt lat="36.46772646994934" lon="10.5678489797819"><ele>72.5</ele><time>2026-04-09T10:21:21Z</time></trkpt><trkpt lat="36.46801468765784" lon="10.567915946249776"><ele>71.0</ele><time>2026-04-09T10:21:22Z</time></trkpt><trkpt lat="36.468301145583354" lon="10.567993230819091"><ele>71.0</ele><time>2026-04-09T10:21:23Z</time></trkpt><trkpt lat="36.468586401974804" lon="10.568074344951293"><ele>71.0</ele><time>2026-04-09T10:21:24Z</time></trkpt><trkpt lat="36.4688718018036" lon="10.568167387611068"><ele>71.5</ele><time>2026-04-09T10:21:25Z</time></trkpt><trkpt lat="36.46915629733132" lon="10.56826465385"><ele>72.0</ele><time>2026-04-09T10:21:26Z</time></trkpt><trkpt lat="36.46944004176905" lon="10.568364772126518"><ele>72.0</ele><time>2026-04-09T10:21:27Z</time></trkpt><trkpt lat="36.469718835586576" lon="10.56846442996934"><ele>72.0</ele><time>2026-04-09T10:21:28Z</time></trkpt><trkpt lat="36.46999679159818" lon="10.568564383383059"><ele>72.0</ele><time>2026-04-09T10:21:29Z</time></trkpt><trkpt lat="36.47027354505733" lon="10.568661619289049"><ele>72.0</ele><time>2026-04-09T10:21:30Z</time></trkpt><trkpt lat="36.470552617586634" lon="10.568758024615633"><ele>72.5</ele><time>2026-04-09T10:21:31Z</time></trkpt><trkpt lat="36.4708302490977" lon="10.568852790971452"><ele>73.0</ele><time>2026-04-09T10:21:32Z</time></trkpt><trkpt lat="36.47110979665764" lon="10.568949325610516"><ele>73.0</ele><time>2026-04-09T10:21:33Z</time></trkpt><trkpt lat="36.47138192689014" lon="10.569038655377968"><ele>73.0</ele><time>2026-04-09T10:21:34Z</time></trkpt><trkpt lat="36.47165339774262" lon="10.569128676749216"><ele>73.0</ele><time>2026-04-09T10:21:35Z</time></trkpt><trkpt lat="36.47192324703861" lon="10.56922128478643"><ele>73.0</ele><time>2026-04-09T10:21:36Z</time></trkpt><trkpt lat="36.472193158693116" lon="10.5693145595407"><ele>74.0</ele><time>2026-04-09T10:21:37Z</time></trkpt><trkpt lat="36.47246363190286" lon="10.569406178438001"><ele>75.0</ele><time>2026-04-09T10:21:38Z</time></trkpt><trkpt lat="36.47273602220163" lon="10.569495527732625"><ele>76.5</ele><time>2026-04-09T10:21:39Z</time></trkpt><trkpt lat="36.47301099768191" lon="10.569580841319004"><ele>78.0</ele><time>2026-04-09T10:21:40Z</time></trkpt><trkpt lat="36.4732891274415" lon="10.56965940329566"><ele>78.0</ele><time>2026-04-09T10:21:41Z</time></trkpt><trkpt lat="36.47356731469882" lon="10.56973666683932"><ele>78.0</ele><time>2026-04-09T10:21:42Z</time></trkpt><trkpt lat="36.47384854444718" lon="10.569809957209415"><ele>78.5</ele><time>2026-04-09T10:21:43Z</time></trkpt><trkpt lat="36.47413093601764" lon="10.569878513625193"><ele>79.0</ele><time>2026-04-09T10:21:44Z</time></trkpt><trkpt lat="36.4744148608196" lon="10.569943108371918"><ele>81.0</ele><time>2026-04-09T10:21:45Z</time></trkpt><trkpt lat="36.47469643252856" lon="10.570006887290996"><ele>83.0</ele><time>2026-04-09T10:21:46Z</time></trkpt><trkpt lat="36.47498148204331" lon="10.570066715471922"><ele>83.0</ele><time>2026-04-09T10:21:47Z</time></trkpt><trkpt lat="36.47526212460036" lon="10.570123526769844"><ele>83.0</ele><time>2026-04-09T10:21:48Z</time></trkpt><trkpt lat="36.47554533214349" lon="10.570178629695432"><ele>84.5</ele><time>2026-04-09T10:21:49Z</time></trkpt><trkpt lat="36.47583091253089" lon="10.570227901493048"><ele>86.0</ele><time>2026-04-09T10:21:50Z</time></trkpt><trkpt lat="36.47611679256104" lon="10.5702739123317"><ele>86.5</ele><time>2026-04-09T10:21:51Z</time></trkpt><trkpt lat="36.476401595471046" lon="10.570315299381017"><ele>87.0</ele><time>2026-04-09T10:21:52Z</time></trkpt><trkpt lat="36.47668760984296" lon="10.570351865569336"><ele>85.5</ele><time>2026-04-09T10:21:53Z</time></trkpt><trkpt lat="36.47697092853896" lon="10.570384114969135"><ele>84.0</ele><time>2026-04-09T10:21:54Z</time></trkpt><trkpt lat="36.47725603809376" lon="10.570409567729607"><ele>84.0</ele><time>2026-04-09T10:21:55Z</time></trkpt><trkpt lat="36.47754181917461" lon="10.57043305995473"><ele>84.0</ele><time>2026-04-09T10:21:56Z</time></trkpt><trkpt lat="36.47782545393179" lon="10.570457340675189"><ele>84.5</ele><time>2026-04-09T10:21:57Z</time></trkpt><trkpt lat="36.478108470642645" lon="10.570480869690654"><ele>85.0</ele><time>2026-04-09T10:21:58Z</time></trkpt><trkpt lat="36.478393376895276" lon="10.570497797644666"><ele>85.0</ele><time>2026-04-09T10:21:59Z</time></trkpt><trkpt lat="36.47867765412656" lon="10.570509938442695"><ele>85.0</ele><time>2026-04-09T10:22:00Z</time></trkpt><trkpt lat="36.478964708355406" lon="10.570518024316003"><ele>85.5</ele><time>2026-04-09T10:22:01Z</time></trkpt><trkpt lat="36.47925229390258" lon="10.570523837499932"><ele>86.0</ele><time>2026-04-09T10:22:02Z</time></trkpt><trkpt lat="36.47953977339371" lon="10.570528376138764"><ele>87.5</ele><time>2026-04-09T10:22:03Z</time></trkpt><trkpt lat="36.479821694526485" lon="10.570531347648075"><ele>89.0</ele><time>2026-04-09T10:22:04Z</time></trkpt><trkpt lat="36.48010329871906" lon="10.570531304508972"><ele>89.0</ele><time>2026-04-09T10:22:05Z</time></trkpt><trkpt lat="36.48038166845469" lon="10.570525011665644"><ele>89.0</ele><time>2026-04-09T10:22:06Z</time></trkpt><trkpt lat="36.48065974183083" lon="10.570511838507961"><ele>89.5</ele><time>2026-04-09T10:22:07Z</time></trkpt><trkpt lat="36.48093758785481" lon="10.570493902055873"><ele>90.0</ele><time>2026-04-09T10:22:08Z</time></trkpt><trkpt lat="36.481218549834864" lon="10.570467735454423"><ele>90.5</ele><time>2026-04-09T10:22:09Z</time></trkpt><trkpt lat="36.48150331460782" lon="10.570434037473358"><ele>91.0</ele><time>2026-04-09T10:22:10Z</time></trkpt><trkpt lat="36.48178444336827" lon="10.570401012563696"><ele>91.0</ele><time>2026-04-09T10:22:11Z</time></trkpt><trkpt lat="36.48206922761639" lon="10.570370328036484"><ele>91.0</ele><time>2026-04-09T10:22:12Z</time></trkpt><trkpt lat="36.48235611584847" lon="10.570339559199624"><ele>93.0</ele><time>2026-04-09T10:22:13Z</time></trkpt><trkpt lat="36.4826395191763" lon="10.57030447974287"><ele>95.0</ele><time>2026-04-09T10:22:14Z</time></trkpt><trkpt lat="36.48292000172528" lon="10.570264853596527"><ele>95.5</ele><time>2026-04-09T10:22:15Z</time></trkpt><trkpt lat="36.48319976277114" lon="10.570218746694307"><ele>96.0</ele><time>2026-04-09T10:22:16Z</time></trkpt><trkpt lat="36.48347954159737" lon="10.57016613234723"><ele>96.0</ele><time>2026-04-09T10:22:17Z</time></trkpt><trkpt lat="36.483759459220394" lon="10.57010881054466"><ele>96.0</ele><time>2026-04-09T10:22:18Z</time></trkpt><trkpt lat="36.48403997505772" lon="10.570050861547621"><ele>95.5</ele><time>2026-04-09T10:22:19Z</time></trkpt><trkpt lat="36.48431862090669" lon="10.569988700184192"><ele>95.0</ele><time>2026-04-09T10:22:20Z</time></trkpt><trkpt lat="36.48459494368743" lon="10.569922102936946"><ele>94.5</ele><time>2026-04-09T10:22:21Z</time></trkpt><trkpt lat="36.48486915819104" lon="10.569853651266339"><ele>94.0</ele><time>2026-04-09T10:22:22Z</time></trkpt><trkpt lat="36.485138901975624" lon="10.569778010882498"><ele>94.0</ele><time>2026-04-09T10:22:23Z</time></trkpt><trkpt lat="36.48540141853412" lon="10.569699749793337"><ele>94.0</ele><time>2026-04-09T10:22:24Z</time></trkpt><trkpt lat="36.48566402686764" lon="10.569621306493847"><ele>94.0</ele><time>2026-04-09T10:22:25Z</time></trkpt><trkpt lat="36.48593003602591" lon="10.56953822435862"><ele>94.0</ele><time>2026-04-09T10:22:26Z</time></trkpt><trkpt lat="36.486192465983294" lon="10.569453101789236"><ele>94.5</ele><time>2026-04-09T10:22:27Z</time></trkpt><trkpt lat="36.48645106636029" lon="10.569366371490302"><ele>95.0</ele><time>2026-04-09T10:22:28Z</time></trkpt><trkpt lat="36.48671259131154" lon="10.569276500484065"><ele>95.0</ele><time>2026-04-09T10:22:29Z</time></trkpt><trkpt lat="36.486977757085384" lon="10.569181387541446"><ele>95.0</ele><time>2026-04-09T10:22:30Z</time></trkpt><trkpt lat="36.48724746893273" lon="10.569081959940533"><ele>94.0</ele><time>2026-04-09T10:22:31Z</time></trkpt><trkpt lat="36.487517565817015" lon="10.568978626858833"><ele>93.0</ele><time>2026-04-09T10:22:32Z</time></trkpt><trkpt lat="36.48778892112938" lon="10.56886968150725"><ele>93.5</ele><time>2026-04-09T10:22:33Z</time></trkpt><trkpt lat="36.4880586460625" lon="10.568760876355366"><ele>94.0</ele><time>2026-04-09T10:22:34Z</time></trkpt><trkpt lat="36.48833088544787" lon="10.568650898263408"><ele>95.0</ele><time>2026-04-09T10:22:35Z</time></trkpt><trkpt lat="36.48860312007673" lon="10.568539472554958"><ele>96.0</ele><time>2026-04-09T10:22:36Z</time></trkpt><trkpt lat="36.48887213189435" lon="10.568425033582491"><ele>96.0</ele><time>2026-04-09T10:22:37Z</time></trkpt><trkpt lat="36.48913743780338" lon="10.568307939150174"><ele>96.0</ele><time>2026-04-09T10:22:38Z</time></trkpt><trkpt lat="36.48939785009203" lon="10.568188841408846"><ele>96.5</ele><time>2026-04-09T10:22:39Z</time></trkpt><trkpt lat="36.48965398368592" lon="10.568064238539186"><ele>97.0</ele><time>2026-04-09T10:22:40Z</time></trkpt><trkpt lat="36.489908847494" lon="10.567932952582607"><ele>97.0</ele><time>2026-04-09T10:22:41Z</time></trkpt><trkpt lat="36.490160605902716" lon="10.567798324506585"><ele>97.0</ele><time>2026-04-09T10:22:42Z</time></trkpt><trkpt lat="36.49040634800718" lon="10.567661946554743"><ele>97.5</ele><time>2026-04-09T10:22:43Z</time></trkpt><trkpt lat="36.49063794392034" lon="10.567529224055775"><ele>98.0</ele><time>2026-04-09T10:22:44Z</time></trkpt><trkpt lat="36.49087039578726" lon="10.567400319599269"><ele>98.0</ele><time>2026-04-09T10:22:45Z</time></trkpt><trkpt lat="36.49110512423706" lon="10.56726649373418"><ele>98.0</ele><time>2026-04-09T10:22:46Z</time></trkpt><trkpt lat="36.49134156525296" lon="10.567127147553531"><ele>99.0</ele><time>2026-04-09T10:22:47Z</time></trkpt><trkpt lat="36.49157397487381" lon="10.566985966671288"><ele>100.0</ele><time>2026-04-09T10:22:48Z</time></trkpt><trkpt lat="36.49180501846177" lon="10.566844015812453"><ele>100.0</ele><time>2026-04-09T10:22:48.999Z</time></trkpt><trkpt lat="36.492036530197616" lon="10.566702454074345"><ele>100.0</ele><time>2026-04-09T10:22:49.999Z</time></trkpt><trkpt lat="36.4922686249204" lon="10.56655696017713"><ele>100.0</ele><time>2026-04-09T10:22:50.999Z</time></trkpt><trkpt lat="36.492500761467824" lon="10.566406491801786"><ele>100.0</ele><time>2026-04-09T10:22:51.999Z</time></trkpt><trkpt lat="36.49273689923658" lon="10.566252849323977"><ele>101.5</ele><time>2026-04-09T10:22:52.999Z</time></trkpt><trkpt lat="36.49297333538463" lon="10.566099456047299"><ele>103.0</ele><time>2026-04-09T10:22:53.999Z</time></trkpt><trkpt lat="36.49320930133228" lon="10.565947292866069"><ele>103.0</ele><time>2026-04-09T10:22:54.999Z</time></trkpt><trkpt lat="36.493444131587495" lon="10.565794015574042"><ele>103.0</ele><time>2026-04-09T10:22:55.999Z</time></trkpt><trkpt lat="36.49367652369222" lon="10.565637946327778"><ele>103.5</ele><time>2026-04-09T10:22:56.999Z</time></trkpt><trkpt lat="36.493912076101815" lon="10.56547769266331"><ele>104.0</ele><time>2026-04-09T10:22:57.999Z</time></trkpt><trkpt lat="36.49414724634695" lon="10.56531705467033"><ele>104.5</ele><time>2026-04-09T10:22:58.999Z</time></trkpt><trkpt lat="36.49438061090858" lon="10.565157926473676"><ele>105.0</ele><time>2026-04-09T10:22:59.999Z</time></trkpt><trkpt lat="36.494616897793065" lon="10.565001159793672"><ele>106.0</ele><time>2026-04-09T10:23:00.999Z</time></trkpt><trkpt lat="36.49485183641649" lon="10.564845398311567"><ele>107.0</ele><time>2026-04-09T10:23:01.999Z</time></trkpt><trkpt lat="36.495086771344525" lon="10.564694145256803"><ele>107.0</ele><time>2026-04-09T10:23:02.999Z</time></trkpt><trkpt lat="36.49532325766794" lon="10.564545248262663"><ele>107.0</ele><time>2026-04-09T10:23:03.999Z</time></trkpt><trkpt lat="36.495558878296" lon="10.564397670747976"><ele>108.0</ele><time>2026-04-09T10:23:04.999Z</time></trkpt><trkpt lat="36.49579412013756" lon="10.564247300491738"><ele>109.0</ele><time>2026-04-09T10:23:05.999Z</time></trkpt><trkpt lat="36.49602708096214" lon="10.56409053194296"><ele>109.0</ele><time>2026-04-09T10:23:06.999Z</time></trkpt><trkpt lat="36.49625988890339" lon="10.563926723071107"><ele>109.0</ele><time>2026-04-09T10:23:07.999Z</time></trkpt><trkpt lat="36.4964923050079" lon="10.563761799240178"><ele>109.0</ele><time>2026-04-09T10:23:08.999Z</time></trkpt><trkpt lat="36.496727135190255" lon="10.563595733646371"><ele>109.0</ele><time>2026-04-09T10:23:09.999Z</time></trkpt><trkpt lat="36.49696590955984" lon="10.563428626590646"><ele>108.5</ele><time>2026-04-09T10:23:10.999Z</time></trkpt><trkpt lat="36.49720876498034" lon="10.56326249303374"><ele>108.0</ele><time>2026-04-09T10:23:11.999Z</time></trkpt><trkpt lat="36.497456993984066" lon="10.56309639996005"><ele>108.0</ele><time>2026-04-09T10:23:13Z</time></trkpt><trkpt lat="36.49770909959905" lon="10.562931495484253"><ele>108.0</ele><time>2026-04-09T10:23:14Z</time></trkpt><trkpt lat="36.49796510821264" lon="10.562769541016054"><ele>107.0</ele><time>2026-04-09T10:23:15Z</time></trkpt><trkpt lat="36.498220997894954" lon="10.562609999266316"><ele>106.0</ele><time>2026-04-09T10:23:16Z</time></trkpt><trkpt lat="36.49847612284978" lon="10.562452373364023"><ele>106.0</ele><time>2026-04-09T10:23:17Z</time></trkpt><trkpt lat="36.498728768137376" lon="10.562293618171589"><ele>106.0</ele><time>2026-04-09T10:23:18Z</time></trkpt><trkpt lat="36.498982106675854" lon="10.562132662498536"><ele>104.5</ele><time>2026-04-09T10:23:19Z</time></trkpt><trkpt lat="36.49923283618342" lon="10.561968280129923"><ele>103.0</ele><time>2026-04-09T10:23:20Z</time></trkpt><trkpt lat="36.499483014373126" lon="10.561799496112188"><ele>101.0</ele><time>2026-04-09T10:23:21Z</time></trkpt><trkpt lat="36.49973417634564" lon="10.561630128596407"><ele>99.0</ele><time>2026-04-09T10:23:22Z</time></trkpt><trkpt lat="36.499989269965134" lon="10.561460336389851"><ele>99.0</ele><time>2026-04-09T10:23:23Z</time></trkpt><trkpt lat="36.50025004945888" lon="10.561288725366452"><ele>99.0</ele><time>2026-04-09T10:23:24Z</time></trkpt><trkpt lat="36.50051015790239" lon="10.561112313573531"><ele>98.0</ele><time>2026-04-09T10:23:25Z</time></trkpt><trkpt lat="36.50077248523999" lon="10.560935898717359"><ele>97.0</ele><time>2026-04-09T10:23:26Z</time></trkpt><trkpt lat="36.50103198547063" lon="10.56076049383893"><ele>96.0</ele><time>2026-04-09T10:23:27Z</time></trkpt><trkpt lat="36.501288113940504" lon="10.56058921859423"><ele>95.0</ele><time>2026-04-09T10:23:28Z</time></trkpt><trkpt lat="36.501540802723596" lon="10.560422261428654"><ele>95.0</ele><time>2026-04-09T10:23:29Z</time></trkpt><trkpt lat="36.50178774629682" lon="10.560256568534514"><ele>95.0</ele><time>2026-04-09T10:23:30Z</time></trkpt><trkpt lat="36.50203481670872" lon="10.560096839222702"><ele>94.0</ele><time>2026-04-09T10:23:31Z</time></trkpt><trkpt lat="36.50228091104505" lon="10.55994099445187"><ele>93.0</ele><time>2026-04-09T10:23:32Z</time></trkpt><trkpt lat="36.50252944348162" lon="10.559782510812221"><ele>93.0</ele><time>2026-04-09T10:23:33Z</time></trkpt><trkpt lat="36.50278028389961" lon="10.55962373164593"><ele>93.0</ele><time>2026-04-09T10:23:34Z</time></trkpt><trkpt lat="36.50303487702517" lon="10.559464290202358"><ele>92.0</ele><time>2026-04-09T10:23:35Z</time></trkpt><trkpt lat="36.50329335281273" lon="10.559310471648352"><ele>91.0</ele><time>2026-04-09T10:23:36Z</time></trkpt><trkpt lat="36.503551707883" lon="10.559158003859489"><ele>91.5</ele><time>2026-04-09T10:23:37Z</time></trkpt><trkpt lat="36.50381476248263" lon="10.559010581179168"><ele>92.0</ele><time>2026-04-09T10:23:38Z</time></trkpt><trkpt lat="36.50407825484681" lon="10.558866776826928"><ele>92.0</ele><time>2026-04-09T10:23:39Z</time></trkpt><trkpt lat="36.504341727758124" lon="10.558724269590765"><ele>92.0</ele><time>2026-04-09T10:23:40Z</time></trkpt><trkpt lat="36.50460589757081" lon="10.55858268997862"><ele>92.0</ele><time>2026-04-09T10:23:41Z</time></trkpt><trkpt lat="36.504868009597466" lon="10.558439923837103"><ele>92.0</ele><time>2026-04-09T10:23:42Z</time></trkpt><trkpt lat="36.505126319196044" lon="10.55830172143079"><ele>92.0</ele><time>2026-04-09T10:23:43Z</time></trkpt><trkpt lat="36.505381777688704" lon="10.558165004249341"><ele>92.0</ele><time>2026-04-09T10:23:44Z</time></trkpt><trkpt lat="36.50563870707674" lon="10.558033632044808"><ele>92.5</ele><time>2026-04-09T10:23:45Z</time></trkpt><trkpt lat="36.50589371630502" lon="10.557906418930996"><ele>93.0</ele><time>2026-04-09T10:23:46Z</time></trkpt><trkpt lat="36.50615323674246" lon="10.557781955042733"><ele>91.5</ele><time>2026-04-09T10:23:47Z</time></trkpt><trkpt lat="36.50641396173008" lon="10.557658168009599"><ele>90.0</ele><time>2026-04-09T10:23:48Z</time></trkpt><trkpt lat="36.50667780665435" lon="10.557535622457301"><ele>90.0</ele><time>2026-04-09T10:23:49Z</time></trkpt><trkpt lat="36.5069402772459" lon="10.557417669058076"><ele>90.0</ele><time>2026-04-09T10:23:50Z</time></trkpt><trkpt lat="36.50720426173167" lon="10.557299058852482"><ele>91.0</ele><time>2026-04-09T10:23:51Z</time></trkpt><trkpt lat="36.50747017189582" lon="10.557181062478518"><ele>92.0</ele><time>2026-04-09T10:23:52Z</time></trkpt><trkpt lat="36.50774116710221" lon="10.557061521991052"><ele>90.5</ele><time>2026-04-09T10:23:53Z</time></trkpt><trkpt lat="36.50802008441331" lon="10.55693597494766"><ele>89.0</ele><time>2026-04-09T10:23:54Z</time></trkpt><trkpt lat="36.50830636009729" lon="10.55680380138527"><ele>89.0</ele><time>2026-04-09T10:23:55Z</time></trkpt><trkpt lat="36.50860189026588" lon="10.556664738141372"><ele>89.0</ele><time>2026-04-09T10:23:56Z</time></trkpt><trkpt lat="36.50891356603669" lon="10.5565234028826"><ele>88.0</ele><time>2026-04-09T10:23:57Z</time></trkpt><trkpt lat="36.50923004671643" lon="10.556386465949895"><ele>87.0</ele><time>2026-04-09T10:23:58Z</time></trkpt><trkpt lat="36.50954087215624" lon="10.556258989829734"><ele>87.5</ele><time>2026-04-09T10:23:59Z</time></trkpt><trkpt lat="36.509840537382885" lon="10.556138295608651"><ele>88.0</ele><time>2026-04-09T10:24:00Z</time></trkpt><trkpt lat="36.51013881332389" lon="10.556021271446244"><ele>87.5</ele><time>2026-04-09T10:24:01Z</time></trkpt><trkpt lat="36.51043002228063" lon="10.555909189854672"><ele>87.0</ele><time>2026-04-09T10:24:02Z</time></trkpt><trkpt lat="36.51071862420631" lon="10.555797338848059"><ele>87.0</ele><time>2026-04-09T10:24:03Z</time></trkpt><trkpt lat="36.51100357147213" lon="10.555683054089782"><ele>87.0</ele><time>2026-04-09T10:24:04Z</time></trkpt><trkpt lat="36.5112852687583" lon="10.555564329113823"><ele>87.0</ele><time>2026-04-09T10:24:05Z</time></trkpt><trkpt lat="36.51156470531914" lon="10.555441656645785"><ele>87.0</ele><time>2026-04-09T10:24:06Z</time></trkpt><trkpt lat="36.511843371289764" lon="10.55532140446089"><ele>86.0</ele><time>2026-04-09T10:24:07Z</time></trkpt><trkpt lat="36.51211925184676" lon="10.555206020073594"><ele>85.0</ele><time>2026-04-09T10:24:08Z</time></trkpt><trkpt lat="36.51239226484972" lon="10.55508985832861"><ele>85.0</ele><time>2026-04-09T10:24:09Z</time></trkpt><trkpt lat="36.51265637482084" lon="10.554975238621482"><ele>85.0</ele><time>2026-04-09T10:24:10Z</time></trkpt><trkpt lat="36.512908442371874" lon="10.554872131297095"><ele>85.0</ele><time>2026-04-09T10:24:11Z</time></trkpt><trkpt lat="36.51315183742391" lon="10.554770249980324"><ele>85.0</ele><time>2026-04-09T10:24:12Z</time></trkpt><trkpt lat="36.513392852165694" lon="10.5546717090168"><ele>85.0</ele><time>2026-04-09T10:24:13Z</time></trkpt><trkpt lat="36.51363738719281" lon="10.554571418283873"><ele>85.0</ele><time>2026-04-09T10:24:14Z</time></trkpt><trkpt lat="36.513886261608434" lon="10.554468898176006"><ele>85.5</ele><time>2026-04-09T10:24:15Z</time></trkpt><trkpt lat="36.51413670813446" lon="10.554364934199379"><ele>86.0</ele><time>2026-04-09T10:24:16Z</time></trkpt><trkpt lat="36.51438818226037" lon="10.55425896666552"><ele>85.5</ele><time>2026-04-09T10:24:17Z</time></trkpt><trkpt lat="36.51464210620351" lon="10.554151569989239"><ele>85.0</ele><time>2026-04-09T10:24:18Z</time></trkpt><trkpt lat="36.51489603648511" lon="10.55404244626357"><ele>85.0</ele><time>2026-04-09T10:24:19Z</time></trkpt><trkpt lat="36.51514833903516" lon="10.553933957140107"><ele>85.0</ele><time>2026-04-09T10:24:20Z</time></trkpt><trkpt lat="36.51540288485077" lon="10.553825440454949"><ele>87.0</ele><time>2026-04-09T10:24:21Z</time></trkpt><trkpt lat="36.51565998562617" lon="10.553715128189811"><ele>89.0</ele><time>2026-04-09T10:24:22Z</time></trkpt><trkpt lat="36.5159139283599" lon="10.553603711778239"><ele>89.0</ele><time>2026-04-09T10:24:23Z</time></trkpt><trkpt lat="36.516172060345525" lon="10.553492281192815"><ele>89.0</ele><time>2026-04-09T10:24:24Z</time></trkpt><trkpt lat="36.51643119831901" lon="10.553379526698032"><ele>87.5</ele><time>2026-04-09T10:24:25Z</time></trkpt><trkpt lat="36.516697696417594" lon="10.553264769118405"><ele>86.0</ele><time>2026-04-09T10:24:26Z</time></trkpt><trkpt lat="36.51696153036209" lon="10.553146740409323"><ele>84.0</ele><time>2026-04-09T10:24:27Z</time></trkpt><trkpt lat="36.51722578696146" lon="10.553028117603642"><ele>82.0</ele><time>2026-04-09T10:24:28Z</time></trkpt><trkpt lat="36.517490614646036" lon="10.552904483030593"><ele>83.0</ele><time>2026-04-09T10:24:29Z</time></trkpt><trkpt lat="36.51775812664853" lon="10.552777906027407"><ele>84.0</ele><time>2026-04-09T10:24:30Z</time></trkpt><trkpt lat="36.51802807973749" lon="10.552647341767589"><ele>81.0</ele><time>2026-04-09T10:24:31Z</time></trkpt><trkpt lat="36.518298912065355" lon="10.552515824438794"><ele>78.0</ele><time>2026-04-09T10:24:32Z</time></trkpt><trkpt lat="36.51857155828107" lon="10.552382182460137"><ele>76.0</ele><time>2026-04-09T10:24:33Z</time></trkpt><trkpt lat="36.51884265856506" lon="10.55224750780463"><ele>74.0</ele><time>2026-04-09T10:24:34Z</time></trkpt><trkpt lat="36.51911686355924" lon="10.55210949187769"><ele>74.0</ele><time>2026-04-09T10:24:35Z</time></trkpt><trkpt lat="36.51939735186908" lon="10.551966148318249"><ele>74.0</ele><time>2026-04-09T10:24:36Z</time></trkpt><trkpt lat="36.519673822651335" lon="10.5518211674491"><ele>74.0</ele><time>2026-04-09T10:24:37Z</time></trkpt><trkpt lat="36.51995051941987" lon="10.551676399407285"><ele>74.0</ele><time>2026-04-09T10:24:38Z</time></trkpt><trkpt lat="36.52022344279727" lon="10.551534294929523"><ele>73.0</ele><time>2026-04-09T10:24:39Z</time></trkpt><trkpt lat="36.52049541496518" lon="10.551391991899978"><ele>72.0</ele><time>2026-04-09T10:24:40Z</time></trkpt><trkpt lat="36.52075837451525" lon="10.55124755927489"><ele>72.5</ele><time>2026-04-09T10:24:41Z</time></trkpt><trkpt lat="36.52102165368543" lon="10.551101064872686"><ele>73.0</ele><time>2026-04-09T10:24:42Z</time></trkpt><trkpt lat="36.521283250846224" lon="10.550950286392881"><ele>71.5</ele><time>2026-04-09T10:24:43Z</time></trkpt><trkpt lat="36.52154552911032" lon="10.550799236254713"><ele>70.0</ele><time>2026-04-09T10:24:44Z</time></trkpt><trkpt lat="36.52180576573132" lon="10.550645384185566"><ele>69.5</ele><time>2026-04-09T10:24:45Z</time></trkpt><trkpt lat="36.522065522659446" lon="10.550491270271529"><ele>69.0</ele><time>2026-04-09T10:24:46Z</time></trkpt><trkpt lat="36.52232131217785" lon="10.550334303978715"><ele>69.0</ele><time>2026-04-09T10:24:47Z</time></trkpt><trkpt lat="36.522575235827354" lon="10.550177388733717"><ele>69.0</ele><time>2026-04-09T10:24:48Z</time></trkpt><trkpt lat="36.52282693541284" lon="10.550020751609948"><ele>69.5</ele><time>2026-04-09T10:24:49Z</time></trkpt><trkpt lat="36.523077743441725" lon="10.549863183719188"><ele>70.0</ele><time>2026-04-09T10:24:50Z</time></trkpt><trkpt lat="36.52332377050176" lon="10.549704284344775"><ele>70.0</ele><time>2026-04-09T10:24:51Z</time></trkpt><trkpt lat="36.52356661724255" lon="10.549542356257211"><ele>70.0</ele><time>2026-04-09T10:24:52Z</time></trkpt><trkpt lat="36.52380666858694" lon="10.549381059141545"><ele>70.0</ele><time>2026-04-09T10:24:53Z</time></trkpt><trkpt lat="36.524044370429124" lon="10.549217489827972"><ele>70.0</ele><time>2026-04-09T10:24:54Z</time></trkpt><trkpt lat="36.52427931159607" lon="10.549055296558523"><ele>70.0</ele><time>2026-04-09T10:24:55Z</time></trkpt><trkpt lat="36.52451151789772" lon="10.54889429890285"><ele>70.0</ele><time>2026-04-09T10:24:55.999Z</time></trkpt><trkpt lat="36.52474384663873" lon="10.54873472468654"><ele>72.0</ele><time>2026-04-09T10:24:56.999Z</time></trkpt><trkpt lat="36.52497315339237" lon="10.548576941052175"><ele>74.0</ele><time>2026-04-09T10:24:57.999Z</time></trkpt><trkpt lat="36.52520223752123" lon="10.548416797332342"><ele>73.5</ele><time>2026-04-09T10:24:58.999Z</time></trkpt><trkpt lat="36.52543026439884" lon="10.54825539693512"><ele>73.0</ele><time>2026-04-09T10:24:59.999Z</time></trkpt><trkpt lat="36.52565534218522" lon="10.548094658614907"><ele>73.0</ele><time>2026-04-09T10:25:00.999Z</time></trkpt><trkpt lat="36.5258836802426" lon="10.5479306890233"><ele>73.0</ele><time>2026-04-09T10:25:01.999Z</time></trkpt><trkpt lat="36.52610621311396" lon="10.547765525238281"><ele>73.5</ele><time>2026-04-09T10:25:02.999Z</time></trkpt><trkpt lat="36.526326107227305" lon="10.547599563527584"><ele>74.0</ele><time>2026-04-09T10:25:03.999Z</time></trkpt><trkpt lat="36.52654311381584" lon="10.547431318665286"><ele>74.0</ele><time>2026-04-09T10:25:04.999Z</time></trkpt><trkpt lat="36.526752678378955" lon="10.54726789139775"><ele>74.0</ele><time>2026-04-09T10:25:05.999Z</time></trkpt><trkpt lat="36.52695879215823" lon="10.547111522983013"><ele>74.5</ele><time>2026-04-09T10:25:06.999Z</time></trkpt><trkpt lat="36.52716563158957" lon="10.546952662371142"><ele>75.0</ele><time>2026-04-09T10:25:07.999Z</time></trkpt><trkpt lat="36.527375061269844" lon="10.546790921093368"><ele>75.0</ele><time>2026-04-09T10:25:08.999Z</time></trkpt><trkpt lat="36.52758634964016" lon="10.546624611443093"><ele>75.0</ele><time>2026-04-09T10:25:09.999Z</time></trkpt><trkpt lat="36.52779827643786" lon="10.546458874401582"><ele>75.5</ele><time>2026-04-09T10:25:10.999Z</time></trkpt><trkpt lat="36.528013852018645" lon="10.546290787219405"><ele>76.0</ele><time>2026-04-09T10:25:11.999Z</time></trkpt><trkpt lat="36.528235838215075" lon="10.546118393912282"><ele>76.5</ele><time>2026-04-09T10:25:12.999Z</time></trkpt><trkpt lat="36.52845402072419" lon="10.545946724701551"><ele>77.0</ele><time>2026-04-09T10:25:13.999Z</time></trkpt><trkpt lat="36.52866620371621" lon="10.545777531440034"><ele>77.0</ele><time>2026-04-09T10:25:14.999Z</time></trkpt><trkpt lat="36.5288843087152" lon="10.545602849951653"><ele>77.0</ele><time>2026-04-09T10:25:15.999Z</time></trkpt><trkpt lat="36.52910211797738" lon="10.545430338768659"><ele>78.0</ele><time>2026-04-09T10:25:16.999Z</time></trkpt><trkpt lat="36.529328146642136" lon="10.545248828441025"><ele>79.0</ele><time>2026-04-09T10:25:17.999Z</time></trkpt><trkpt lat="36.52955023929319" lon="10.54507038656544"><ele>79.0</ele><time>2026-04-09T10:25:19Z</time></trkpt><trkpt lat="36.52977089914315" lon="10.544896370092088"><ele>79.0</ele><time>2026-04-09T10:25:20Z</time></trkpt><trkpt lat="36.52999452759241" lon="10.544725908783992"><ele>79.0</ele><time>2026-04-09T10:25:21Z</time></trkpt><trkpt lat="36.530219605063074" lon="10.544557123275869"><ele>79.0</ele><time>2026-04-09T10:25:22Z</time></trkpt><trkpt lat="36.53044251193472" lon="10.544386341019957"><ele>78.5</ele><time>2026-04-09T10:25:23Z</time></trkpt><trkpt lat="36.53066727996224" lon="10.54421008682177"><ele>78.0</ele><time>2026-04-09T10:25:24Z</time></trkpt><trkpt lat="36.530892418270845" lon="10.544031897802308"><ele>78.0</ele><time>2026-04-09T10:25:25Z</time></trkpt><trkpt lat="36.53112283569751" lon="10.54385499436329"><ele>78.0</ele><time>2026-04-09T10:25:26Z</time></trkpt><trkpt lat="36.53135285670345" lon="10.54367900043329"><ele>77.0</ele><time>2026-04-09T10:25:27Z</time></trkpt><trkpt lat="36.53158487656946" lon="10.543505553548421"><ele>76.0</ele><time>2026-04-09T10:25:28Z</time></trkpt><trkpt lat="36.53181766654251" lon="10.543334815658739"><ele>76.0</ele><time>2026-04-09T10:25:29Z</time></trkpt><trkpt lat="36.53205569751112" lon="10.543164968241214"><ele>76.0</ele><time>2026-04-09T10:25:30Z</time></trkpt><trkpt lat="36.532295753219145" lon="10.542999228355427"><ele>78.0</ele><time>2026-04-09T10:25:31Z</time></trkpt><trkpt lat="36.53253476744315" lon="10.542831230534327"><ele>80.0</ele><time>2026-04-09T10:25:32Z</time></trkpt><trkpt lat="36.53277339450437" lon="10.542663640576752"><ele>79.5</ele><time>2026-04-09T10:25:33Z</time></trkpt><trkpt lat="36.533012740244004" lon="10.542495738727226"><ele>79.0</ele><time>2026-04-09T10:25:34Z</time></trkpt><trkpt lat="36.533252992579946" lon="10.542330244902805"><ele>79.0</ele><time>2026-04-09T10:25:35Z</time></trkpt><trkpt lat="36.533495840620006" lon="10.54216728611881"><ele>79.0</ele><time>2026-04-09T10:25:36Z</time></trkpt><trkpt lat="36.533737129072804" lon="10.542004254125997"><ele>79.5</ele><time>2026-04-09T10:25:37Z</time></trkpt><trkpt lat="36.533978221641455" lon="10.541838500273139"><ele>80.0</ele><time>2026-04-09T10:25:38Z</time></trkpt><trkpt lat="36.53421619817838" lon="10.541666476319199"><ele>80.0</ele><time>2026-04-09T10:25:39Z</time></trkpt><trkpt lat="36.53445507884542" lon="10.541493387840614"><ele>80.0</ele><time>2026-04-09T10:25:40Z</time></trkpt><trkpt lat="36.53469178077507" lon="10.541317653961713"><ele>81.0</ele><time>2026-04-09T10:25:41Z</time></trkpt><trkpt lat="36.53492571479208" lon="10.541137043197491"><ele>82.0</ele><time>2026-04-09T10:25:42Z</time></trkpt><trkpt lat="36.5351607696388" lon="10.540950901637407"><ele>81.5</ele><time>2026-04-09T10:25:43Z</time></trkpt><trkpt lat="36.53539603085403" lon="10.540759623388281"><ele>81.0</ele><time>2026-04-09T10:25:44Z</time></trkpt><trkpt lat="36.53563023566984" lon="10.540564302693268"><ele>81.5</ele><time>2026-04-09T10:25:45Z</time></trkpt><trkpt lat="36.53586372163982" lon="10.540362608056652"><ele>82.0</ele><time>2026-04-09T10:25:46Z</time></trkpt><trkpt lat="36.53609356317463" lon="10.54015609929848"><ele>80.5</ele><time>2026-04-09T10:25:47Z</time></trkpt><trkpt lat="36.53632201586137" lon="10.53994368401581"><ele>79.0</ele><time>2026-04-09T10:25:48Z</time></trkpt><trkpt lat="36.536545121660296" lon="10.539729298721587"><ele>80.5</ele><time>2026-04-09T10:25:49Z</time></trkpt><trkpt lat="36.536766815464205" lon="10.539515328698403"><ele>82.0</ele><time>2026-04-09T10:25:50Z</time></trkpt><trkpt lat="36.53698069951303" lon="10.539301424542442"><ele>79.5</ele><time>2026-04-09T10:25:51Z</time></trkpt><trkpt lat="36.5371847737459" lon="10.539092549702989"><ele>77.0</ele><time>2026-04-09T10:25:52Z</time></trkpt><trkpt lat="36.5373860067864" lon="10.538881310364312"><ele>78.5</ele><time>2026-04-09T10:25:53Z</time></trkpt><trkpt lat="36.537589775864646" lon="10.538667137341047"><ele>80.0</ele><time>2026-04-09T10:25:54Z</time></trkpt><trkpt lat="36.53779843050649" lon="10.538449007785937"><ele>78.5</ele><time>2026-04-09T10:25:55Z</time></trkpt><trkpt lat="36.53800446639179" lon="10.538228116770535"><ele>77.0</ele><time>2026-04-09T10:25:56Z</time></trkpt><trkpt lat="36.5382089043779" lon="10.538006217998122"><ele>78.0</ele><time>2026-04-09T10:25:57Z</time></trkpt><trkpt lat="36.538410679056604" lon="10.537787122661094"><ele>79.0</ele><time>2026-04-09T10:25:58Z</time></trkpt><trkpt lat="36.538610448851834" lon="10.537567621009808"><ele>77.0</ele><time>2026-04-09T10:25:59Z</time></trkpt><trkpt lat="36.53881472115606" lon="10.537352950071478"><ele>75.0</ele><time>2026-04-09T10:26:00Z</time></trkpt><trkpt lat="36.53902226611491" lon="10.537141046308685"><ele>76.0</ele><time>2026-04-09T10:26:01Z</time></trkpt><trkpt lat="36.5392348034818" lon="10.536930580667356"><ele>77.0</ele><time>2026-04-09T10:26:02Z</time></trkpt><trkpt lat="36.53945150918921" lon="10.536723541584086"><ele>75.5</ele><time>2026-04-09T10:26:03Z</time></trkpt><trkpt lat="36.539670907518335" lon="10.536520345992814"><ele>74.0</ele><time>2026-04-09T10:26:04Z</time></trkpt><trkpt lat="36.53989524696991" lon="10.536320102418546"><ele>74.5</ele><time>2026-04-09T10:26:05Z</time></trkpt><trkpt lat="36.540124753803404" lon="10.536120409299043"><ele>75.0</ele><time>2026-04-09T10:26:06Z</time></trkpt><trkpt lat="36.540358732518726" lon="10.535920661763903"><ele>73.5</ele><time>2026-04-09T10:26:07Z</time></trkpt><trkpt lat="36.54059720909973" lon="10.535722294193544"><ele>72.0</ele><time>2026-04-09T10:26:08Z</time></trkpt><trkpt lat="36.54084045069392" lon="10.535525157066749"><ele>72.0</ele><time>2026-04-09T10:26:09Z</time></trkpt><trkpt lat="36.54108558767719" lon="10.535330095202797"><ele>72.0</ele><time>2026-04-09T10:26:10Z</time></trkpt><trkpt lat="36.54133339666866" lon="10.535142106944193"><ele>71.0</ele><time>2026-04-09T10:26:11Z</time></trkpt><trkpt lat="36.54158554479375" lon="10.534957745747368"><ele>70.0</ele><time>2026-04-09T10:26:12Z</time></trkpt><trkpt lat="36.541839968975985" lon="10.53477806781407"><ele>70.0</ele><time>2026-04-09T10:26:13Z</time></trkpt><trkpt lat="36.54210242115771" lon="10.53460658684446"><ele>70.0</ele><time>2026-04-09T10:26:14Z</time></trkpt><trkpt lat="36.54236630448588" lon="10.534441516753077"><ele>70.5</ele><time>2026-04-09T10:26:15Z</time></trkpt><trkpt lat="36.54263732628783" lon="10.534286070553271"><ele>71.0</ele><time>2026-04-09T10:26:16Z</time></trkpt><trkpt lat="36.54290192538278" lon="10.53412988325635"><ele>69.5</ele><time>2026-04-09T10:26:17Z</time></trkpt><trkpt lat="36.54316443346173" lon="10.533978715689877"><ele>68.0</ele><time>2026-04-09T10:26:18Z</time></trkpt><trkpt lat="36.54342801649666" lon="10.53383658946376"><ele>69.0</ele><time>2026-04-09T10:26:19Z</time></trkpt><trkpt lat="36.54369177267807" lon="10.533699720559174"><ele>70.0</ele><time>2026-04-09T10:26:20Z</time></trkpt><trkpt lat="36.54395781610309" lon="10.533565469286136"><ele>68.0</ele><time>2026-04-09T10:26:21Z</time></trkpt><trkpt lat="36.544221942286924" lon="10.533432426352363"><ele>66.0</ele><time>2026-04-09T10:26:22Z</time></trkpt><trkpt lat="36.54448933620524" lon="10.533300536395249"><ele>65.5</ele><time>2026-04-09T10:26:23Z</time></trkpt><trkpt lat="36.54476343241609" lon="10.533171707867025"><ele>65.0</ele><time>2026-04-09T10:26:24Z</time></trkpt><trkpt lat="36.54503770805492" lon="10.533044483150034"><ele>65.0</ele><time>2026-04-09T10:26:25Z</time></trkpt><trkpt lat="36.54531316967682" lon="10.53291579878895"><ele>65.0</ele><time>2026-04-09T10:26:26Z</time></trkpt><trkpt lat="36.54559016687843" lon="10.532787150597082"><ele>66.0</ele><time>2026-04-09T10:26:27Z</time></trkpt><trkpt lat="36.54586949864499" lon="10.532658623379422"><ele>67.0</ele><time>2026-04-09T10:26:28Z</time></trkpt><trkpt lat="36.546150972492086" lon="10.53252832832712"><ele>66.0</ele><time>2026-04-09T10:26:29Z</time></trkpt><trkpt lat="36.5464283667964" lon="10.532399984995646"><ele>65.0</ele><time>2026-04-09T10:26:30Z</time></trkpt><trkpt lat="36.54670198472482" lon="10.532277447368742"><ele>65.0</ele><time>2026-04-09T10:26:31Z</time></trkpt><trkpt lat="36.54697497336754" lon="10.532153395080423"><ele>65.0</ele><time>2026-04-09T10:26:32Z</time></trkpt><trkpt lat="36.54725263016705" lon="10.532027679896766"><ele>65.5</ele><time>2026-04-09T10:26:33Z</time></trkpt><trkpt lat="36.547529204821714" lon="10.531899706976011"><ele>66.0</ele><time>2026-04-09T10:26:34Z</time></trkpt><trkpt lat="36.547805405853204" lon="10.531770829143918"><ele>66.5</ele><time>2026-04-09T10:26:35Z</time></trkpt><trkpt lat="36.54808253789502" lon="10.531641301995455"><ele>67.0</ele><time>2026-04-09T10:26:36Z</time></trkpt><trkpt lat="36.54836181824042" lon="10.531510274710067"><ele>67.0</ele><time>2026-04-09T10:26:37Z</time></trkpt><trkpt lat="36.54864314024321" lon="10.53137619547073"><ele>67.0</ele><time>2026-04-09T10:26:38Z</time></trkpt><trkpt lat="36.5489255238984" lon="10.531242442620231"><ele>68.0</ele><time>2026-04-09T10:26:39Z</time></trkpt><trkpt lat="36.54920752569154" lon="10.531111146600082"><ele>69.0</ele><time>2026-04-09T10:26:40Z</time></trkpt><trkpt lat="36.549486776988864" lon="10.530984024899633"><ele>68.5</ele><time>2026-04-09T10:26:41Z</time></trkpt><trkpt lat="36.54976074873075" lon="10.530856097755503"><ele>68.0</ele><time>2026-04-09T10:26:42Z</time></trkpt><trkpt lat="36.55003133547089" lon="10.530726722139653"><ele>68.0</ele><time>2026-04-09T10:26:43Z</time></trkpt><trkpt lat="36.55029883677551" lon="10.530594991534004"><ele>68.0</ele><time>2026-04-09T10:26:44Z</time></trkpt><trkpt lat="36.550562295249094" lon="10.530459457506982"><ele>68.5</ele><time>2026-04-09T10:26:45Z</time></trkpt><trkpt lat="36.55082477739096" lon="10.530318265898911"><ele>69.0</ele><time>2026-04-09T10:26:46Z</time></trkpt><trkpt lat="36.55108670118259" lon="10.53017120195903"><ele>68.0</ele><time>2026-04-09T10:26:47Z</time></trkpt><trkpt lat="36.551347175667814" lon="10.530020951862852"><ele>67.0</ele><time>2026-04-09T10:26:48Z</time></trkpt><trkpt lat="36.55160567047528" lon="10.529865884359713"><ele>67.0</ele><time>2026-04-09T10:26:49Z</time></trkpt><trkpt lat="36.55186154721439" lon="10.529707423494468"><ele>67.0</ele><time>2026-04-09T10:26:50Z</time></trkpt><trkpt lat="36.552113853593994" lon="10.529548708833623"><ele>67.5</ele><time>2026-04-09T10:26:51Z</time></trkpt><trkpt lat="36.55236415833228" lon="10.529385959245172"><ele>68.0</ele><time>2026-04-09T10:26:52Z</time></trkpt><trkpt lat="36.55261715709618" lon="10.529221613829446"><ele>68.0</ele><time>2026-04-09T10:26:53Z</time></trkpt><trkpt lat="36.552865511380524" lon="10.52905446749222"><ele>68.0</ele><time>2026-04-09T10:26:54Z</time></trkpt><trkpt lat="36.55311077402917" lon="10.528887362062855"><ele>68.0</ele><time>2026-04-09T10:26:55Z</time></trkpt><trkpt lat="36.55335296083566" lon="10.528714703860096"><ele>68.0</ele><time>2026-04-09T10:26:56Z</time></trkpt><trkpt lat="36.55359193461687" lon="10.528534886257283"><ele>67.5</ele><time>2026-04-09T10:26:57Z</time></trkpt><trkpt lat="36.55383055661087" lon="10.528354903542642"><ele>67.0</ele><time>2026-04-09T10:26:57.999Z</time></trkpt><trkpt lat="36.5540662156692" lon="10.528179788934075"><ele>67.0</ele><time>2026-04-09T10:26:58.999Z</time></trkpt><trkpt lat="36.55430276234643" lon="10.528003285601486"><ele>67.0</ele><time>2026-04-09T10:26:59.999Z</time></trkpt><trkpt lat="36.55453436950454" lon="10.527823294212375"><ele>66.5</ele><time>2026-04-09T10:27:00.999Z</time></trkpt><trkpt lat="36.554760590632846" lon="10.527635610550696"><ele>66.0</ele><time>2026-04-09T10:27:01.999Z</time></trkpt><trkpt lat="36.554987049360804" lon="10.527443995311739"><ele>66.0</ele><time>2026-04-09T10:27:02.999Z</time></trkpt><trkpt lat="36.55521105113783" lon="10.527245396778381"><ele>66.0</ele><time>2026-04-09T10:27:03.999Z</time></trkpt><trkpt lat="36.55543200143147" lon="10.527046255606678"><ele>66.0</ele><time>2026-04-09T10:27:04.999Z</time></trkpt><trkpt lat="36.555656571734346" lon="10.526847044647454"><ele>66.0</ele><time>2026-04-09T10:27:05.999Z</time></trkpt><trkpt lat="36.55588234683825" lon="10.526648807253931"><ele>66.0</ele><time>2026-04-09T10:27:06.999Z</time></trkpt><trkpt lat="36.55610863682307" lon="10.526447895900226"><ele>66.0</ele><time>2026-04-09T10:27:07.999Z</time></trkpt><trkpt lat="36.55633509258638" lon="10.526244154445902"><ele>65.0</ele><time>2026-04-09T10:27:08.999Z</time></trkpt><trkpt lat="36.55656100960894" lon="10.526042259770701"><ele>64.0</ele><time>2026-04-09T10:27:09.999Z</time></trkpt><trkpt lat="36.55678722383567" lon="10.525839775521492"><ele>64.0</ele><time>2026-04-09T10:27:10.999Z</time></trkpt><trkpt lat="36.557012329860335" lon="10.525639112752872"><ele>64.0</ele><time>2026-04-09T10:27:11.999Z</time></trkpt><trkpt lat="36.55723904177893" lon="10.525440635851014"><ele>64.0</ele><time>2026-04-09T10:27:12.999Z</time></trkpt><trkpt lat="36.55746515481791" lon="10.525242349689663"><ele>64.0</ele><time>2026-04-09T10:27:13.999Z</time></trkpt><trkpt lat="36.55769218205538" lon="10.525044357382964"><ele>63.5</ele><time>2026-04-09T10:27:14.999Z</time></trkpt><trkpt lat="36.557917507476546" lon="10.524845358828887"><ele>63.0</ele><time>2026-04-09T10:27:15.999Z</time></trkpt><trkpt lat="36.55814589499652" lon="10.524646396781884"><ele>62.5</ele><time>2026-04-09T10:27:16.999Z</time></trkpt><trkpt lat="36.558376046014786" lon="10.524451942947906"><ele>62.0</ele><time>2026-04-09T10:27:17.999Z</time></trkpt><trkpt lat="36.558608857555114" lon="10.524259168817487"><ele>62.0</ele><time>2026-04-09T10:27:18.999Z</time></trkpt><trkpt lat="36.558842630563454" lon="10.524071281290944"><ele>62.0</ele><time>2026-04-09T10:27:19.999Z</time></trkpt><trkpt lat="36.55907901986663" lon="10.523885801790074"><ele>61.5</ele><time>2026-04-09T10:27:20.999Z</time></trkpt><trkpt lat="36.5593164298183" lon="10.523703055836647"><ele>61.0</ele><time>2026-04-09T10:27:21.999Z</time></trkpt><trkpt lat="36.55955503243717" lon="10.523522779208204"><ele>60.5</ele><time>2026-04-09T10:27:22.999Z</time></trkpt><trkpt lat="36.55979207473463" lon="10.523340488504026"><ele>60.0</ele><time>2026-04-09T10:27:23.999Z</time></trkpt><trkpt lat="36.560031064695735" lon="10.5231587285583"><ele>60.0</ele><time>2026-04-09T10:27:25Z</time></trkpt><trkpt lat="36.56026928652745" lon="10.522977996437096"><ele>60.0</ele><time>2026-04-09T10:27:26Z</time></trkpt><trkpt lat="36.56050681129066" lon="10.522796352657815"><ele>60.5</ele><time>2026-04-09T10:27:27Z</time></trkpt><trkpt lat="36.560743110924236" lon="10.522613848496201"><ele>61.0</ele><time>2026-04-09T10:27:28Z</time></trkpt><trkpt lat="36.560981246835226" lon="10.522427569832159"><ele>60.5</ele><time>2026-04-09T10:27:29Z</time></trkpt><trkpt lat="36.56121830573443" lon="10.52224480992761"><ele>60.0</ele><time>2026-04-09T10:27:30Z</time></trkpt><trkpt lat="36.56145327383774" lon="10.522064696673642"><ele>60.0</ele><time>2026-04-09T10:27:31Z</time></trkpt><trkpt lat="36.56168687016329" lon="10.521889466472649"><ele>60.0</ele><time>2026-04-09T10:27:32Z</time></trkpt><trkpt lat="36.56191478346146" lon="10.521715981700728"><ele>59.0</ele><time>2026-04-09T10:27:33Z</time></trkpt><trkpt lat="36.56213659289443" lon="10.521542331511771"><ele>58.0</ele><time>2026-04-09T10:27:34Z</time></trkpt><trkpt lat="36.56234621136644" lon="10.521371522633778"><ele>58.5</ele><time>2026-04-09T10:27:35Z</time></trkpt><trkpt lat="36.562548870897366" lon="10.521200047359468"><ele>59.0</ele><time>2026-04-09T10:27:36Z</time></trkpt><trkpt lat="36.56274367920597" lon="10.521031368978958"><ele>58.0</ele><time>2026-04-09T10:27:37Z</time></trkpt><trkpt lat="36.56293617481831" lon="10.520860993435209"><ele>57.0</ele><time>2026-04-09T10:27:38Z</time></trkpt><trkpt lat="36.56313052329348" lon="10.520689217107279"><ele>57.0</ele><time>2026-04-09T10:27:39Z</time></trkpt><trkpt lat="36.56332416518973" lon="10.52051743111157"><ele>57.0</ele><time>2026-04-09T10:27:40Z</time></trkpt><trkpt lat="36.56352011658307" lon="10.520341306953709"><ele>57.0</ele><time>2026-04-09T10:27:41Z</time></trkpt><trkpt lat="36.56372113177197" lon="10.520156431001158"><ele>57.0</ele><time>2026-04-09T10:27:42Z</time></trkpt><trkpt lat="36.56392304406266" lon="10.51996318333702"><ele>57.0</ele><time>2026-04-09T10:27:43Z</time></trkpt><trkpt lat="36.56412147111865" lon="10.519768539891956"><ele>57.0</ele><time>2026-04-09T10:27:44Z</time></trkpt><trkpt lat="36.56432331188977" lon="10.519572872449821"><ele>57.5</ele><time>2026-04-09T10:27:45Z</time></trkpt><trkpt lat="36.56452331224308" lon="10.519374957021789"><ele>58.0</ele><time>2026-04-09T10:27:46Z</time></trkpt><trkpt lat="36.564727931140226" lon="10.519169473087768"><ele>58.0</ele><time>2026-04-09T10:27:47Z</time></trkpt><trkpt lat="36.564930704259915" lon="10.518964570026192"><ele>58.0</ele><time>2026-04-09T10:27:48Z</time></trkpt><trkpt lat="36.56513283558299" lon="10.518758048228412"><ele>57.5</ele><time>2026-04-09T10:27:49Z</time></trkpt><trkpt lat="36.56533156555373" lon="10.518547878883654"><ele>57.0</ele><time>2026-04-09T10:27:50Z</time></trkpt><trkpt lat="36.56552375445821" lon="10.518334942991949"><ele>57.0</ele><time>2026-04-09T10:27:51Z</time></trkpt><trkpt lat="36.56571165442027" lon="10.518121852659485"><ele>57.0</ele><time>2026-04-09T10:27:52Z</time></trkpt><trkpt lat="36.56590234399694" lon="10.517908776499901"><ele>56.5</ele><time>2026-04-09T10:27:53Z</time></trkpt><trkpt lat="36.56609451359074" lon="10.517696629668459"><ele>56.0</ele><time>2026-04-09T10:27:54Z</time></trkpt><trkpt lat="36.566285786281135" lon="10.517483649688323"><ele>56.0</ele><time>2026-04-09T10:27:55Z</time></trkpt><trkpt lat="36.56647616196416" lon="10.517265872493319"><ele>56.0</ele><time>2026-04-09T10:27:56Z</time></trkpt><trkpt lat="36.56666379912738" lon="10.517047433318746"><ele>56.5</ele><time>2026-04-09T10:27:57Z</time></trkpt><trkpt lat="36.56684949538763" lon="10.516826685732566"><ele>57.0</ele><time>2026-04-09T10:27:58Z</time></trkpt><trkpt lat="36.56703445040843" lon="10.516604145250595"><ele>57.0</ele><time>2026-04-09T10:27:59Z</time></trkpt><trkpt lat="36.56721720725339" lon="10.516381928845943"><ele>57.0</ele><time>2026-04-09T10:28:00Z</time></trkpt><trkpt lat="36.567402738562684" lon="10.516158076712319"><ele>57.5</ele><time>2026-04-09T10:28:01Z</time></trkpt><trkpt lat="36.567583287102075" lon="10.515929338337198"><ele>58.0</ele><time>2026-04-09T10:28:02Z</time></trkpt><trkpt lat="36.567756377999274" lon="10.515701859411553"><ele>57.0</ele><time>2026-04-09T10:28:03Z</time></trkpt><trkpt lat="36.56792732517985" lon="10.515470903732048"><ele>56.0</ele><time>2026-04-09T10:28:04Z</time></trkpt><trkpt lat="36.568102079221816" lon="10.515234876642756"><ele>56.0</ele><time>2026-04-09T10:28:05Z</time></trkpt><trkpt lat="36.568272815761254" lon="10.515000480038513"><ele>56.0</ele><time>2026-04-09T10:28:06Z</time></trkpt><trkpt lat="36.568445758483186" lon="10.51476260530779"><ele>56.0</ele><time>2026-04-09T10:28:07Z</time></trkpt><trkpt lat="36.56861869570085" lon="10.514521506948478"><ele>56.0</ele><time>2026-04-09T10:28:08Z</time></trkpt><trkpt lat="36.568786055210154" lon="10.514284011839406"><ele>55.0</ele><time>2026-04-09T10:28:09Z</time></trkpt><trkpt lat="36.568951260111255" lon="10.514039660399147"><ele>54.0</ele><time>2026-04-09T10:28:10Z</time></trkpt><trkpt lat="36.56911745002642" lon="10.513794794577354"><ele>55.0</ele><time>2026-04-09T10:28:11Z</time></trkpt><trkpt lat="36.56928196499948" lon="10.51354668171261"><ele>56.0</ele><time>2026-04-09T10:28:12Z</time></trkpt><trkpt lat="36.56944534699695" lon="10.513297867172593"><ele>56.0</ele><time>2026-04-09T10:28:13Z</time></trkpt><trkpt lat="36.56960567441928" lon="10.513047188536522"><ele>56.0</ele><time>2026-04-09T10:28:14Z</time></trkpt><trkpt lat="36.569763585687944" lon="10.512795590805194"><ele>57.0</ele><time>2026-04-09T10:28:15Z</time></trkpt><trkpt lat="36.569917992751705" lon="10.51254387306161"><ele>58.0</ele><time>2026-04-09T10:28:16Z</time></trkpt><trkpt lat="36.57007176381274" lon="10.512291969874894"><ele>57.5</ele><time>2026-04-09T10:28:17Z</time></trkpt><trkpt lat="36.57022537998149" lon="10.512038673841444"><ele>57.0</ele><time>2026-04-09T10:28:18Z</time></trkpt><trkpt lat="36.57037692995282" lon="10.511781609213076"><ele>57.0</ele><time>2026-04-09T10:28:19Z</time></trkpt><trkpt lat="36.570527974777896" lon="10.511522528929799"><ele>57.0</ele><time>2026-04-09T10:28:20Z</time></trkpt><trkpt lat="36.57067490979134" lon="10.5112643945402"><ele>57.5</ele><time>2026-04-09T10:28:21Z</time></trkpt><trkpt lat="36.570821818625014" lon="10.511003500307583"><ele>58.0</ele><time>2026-04-09T10:28:22Z</time></trkpt><trkpt lat="36.57096354207099" lon="10.510738657186366"><ele>58.0</ele><time>2026-04-09T10:28:23Z</time></trkpt><trkpt lat="36.571103840332356" lon="10.510473998269129"><ele>58.0</ele><time>2026-04-09T10:28:24Z</time></trkpt><trkpt lat="36.57124371144108" lon="10.510210850686876"><ele>58.5</ele><time>2026-04-09T10:28:25Z</time></trkpt><trkpt lat="36.571383132511755" lon="10.50994662539307"><ele>59.0</ele><time>2026-04-09T10:28:26Z</time></trkpt><trkpt lat="36.571522137807435" lon="10.509681983701993"><ele>60.5</ele><time>2026-04-09T10:28:27Z</time></trkpt><trkpt lat="36.57166057375084" lon="10.509415714561298"><ele>62.0</ele><time>2026-04-09T10:28:28Z</time></trkpt><trkpt lat="36.57179504164345" lon="10.509148783487372"><ele>62.0</ele><time>2026-04-09T10:28:29Z</time></trkpt><trkpt lat="36.57192606927306" lon="10.508881484631452"><ele>62.0</ele><time>2026-04-09T10:28:30Z</time></trkpt><trkpt lat="36.572052899275825" lon="10.508610948489972"><ele>60.5</ele><time>2026-04-09T10:28:31Z</time></trkpt><trkpt lat="36.572178404537055" lon="10.508340047200694"><ele>59.0</ele><time>2026-04-09T10:28:32Z</time></trkpt><trkpt lat="36.572305464742755" lon="10.508070037287439"><ele>60.5</ele><time>2026-04-09T10:28:33Z</time></trkpt><trkpt lat="36.57243258840966" lon="10.50780358168962"><ele>62.0</ele><time>2026-04-09T10:28:34Z</time></trkpt><trkpt lat="36.5725563600335" lon="10.507541354347406"><ele>62.0</ele><time>2026-04-09T10:28:35Z</time></trkpt><trkpt lat="36.572675872618106" lon="10.507278889815527"><ele>62.0</ele><time>2026-04-09T10:28:36Z</time></trkpt><trkpt lat="36.57279717589318" lon="10.507015064654874"><ele>61.5</ele><time>2026-04-09T10:28:37Z</time></trkpt><trkpt lat="36.57291543665907" lon="10.506752980398188"><ele>61.0</ele><time>2026-04-09T10:28:38Z</time></trkpt><trkpt lat="36.57303300966754" lon="10.506487977411323"><ele>61.5</ele><time>2026-04-09T10:28:39Z</time></trkpt><trkpt lat="36.57315051222946" lon="10.506222204903894"><ele>62.0</ele><time>2026-04-09T10:28:40Z</time></trkpt><trkpt lat="36.573271706494516" lon="10.505956210605117"><ele>62.0</ele><time>2026-04-09T10:28:41Z</time></trkpt><trkpt lat="36.573392051411595" lon="10.505689235952378"><ele>62.0</ele><time>2026-04-09T10:28:42Z</time></trkpt><trkpt lat="36.5735139427193" lon="10.505420528992142"><ele>62.0</ele><time>2026-04-09T10:28:43Z</time></trkpt><trkpt lat="36.5736346675295" lon="10.505152388968895"><ele>62.0</ele><time>2026-04-09T10:28:44Z</time></trkpt><trkpt lat="36.57375721719585" lon="10.504882826099882"><ele>62.0</ele><time>2026-04-09T10:28:45Z</time></trkpt><trkpt lat="36.57388301242639" lon="10.504618843397239"><ele>62.0</ele><time>2026-04-09T10:28:46Z</time></trkpt><trkpt lat="36.574007758411696" lon="10.50435364980806"><ele>62.0</ele><time>2026-04-09T10:28:47Z</time></trkpt><trkpt lat="36.57413215690478" lon="10.504086906648672"><ele>62.0</ele><time>2026-04-09T10:28:48Z</time></trkpt><trkpt lat="36.574257085918276" lon="10.50382157077901"><ele>62.0</ele><time>2026-04-09T10:28:49Z</time></trkpt><trkpt lat="36.57438145619979" lon="10.503553124787972"><ele>62.0</ele><time>2026-04-09T10:28:50Z</time></trkpt><trkpt lat="36.57450643259348" lon="10.503286660735512"><ele>63.0</ele><time>2026-04-09T10:28:51Z</time></trkpt><trkpt lat="36.57463290098584" lon="10.50301945096686"><ele>64.0</ele><time>2026-04-09T10:28:52Z</time></trkpt><trkpt lat="36.57476249681659" lon="10.502755327301234"><ele>64.0</ele><time>2026-04-09T10:28:53Z</time></trkpt><trkpt lat="36.574895134149116" lon="10.50248638527293"><ele>64.0</ele><time>2026-04-09T10:28:54Z</time></trkpt><trkpt lat="36.575029176957344" lon="10.502217046886532"><ele>64.5</ele><time>2026-04-09T10:28:55Z</time></trkpt><trkpt lat="36.57516248779348" lon="10.501949335822346"><ele>65.0</ele><time>2026-04-09T10:28:56Z</time></trkpt><trkpt lat="36.57529819112514" lon="10.501680626635816"><ele>65.5</ele><time>2026-04-09T10:28:56.999Z</time></trkpt><trkpt lat="36.57543578928608" lon="10.501411062317809"><ele>66.0</ele><time>2026-04-09T10:28:57.999Z</time></trkpt><trkpt lat="36.575574425177216" lon="10.501138570990085"><ele>66.0</ele><time>2026-04-09T10:28:58.999Z</time></trkpt><trkpt lat="36.5757139764618" lon="10.500865735604552"><ele>66.0</ele><time>2026-04-09T10:28:59.999Z</time></trkpt><trkpt lat="36.57585632104808" lon="10.500592704939598"><ele>66.5</ele><time>2026-04-09T10:29:00.999Z</time></trkpt><trkpt lat="36.576000383340954" lon="10.500323783043527"><ele>67.0</ele><time>2026-04-09T10:29:01.999Z</time></trkpt><trkpt lat="36.57615070434427" lon="10.500055311040333"><ele>66.5</ele><time>2026-04-09T10:29:02.999Z</time></trkpt><trkpt lat="36.57630243877201" lon="10.499788225331683"><ele>66.0</ele><time>2026-04-09T10:29:03.999Z</time></trkpt><trkpt lat="36.57645721777986" lon="10.499521471273948"><ele>66.0</ele><time>2026-04-09T10:29:04.999Z</time></trkpt><trkpt lat="36.576611961957205" lon="10.499252682057055"><ele>66.0</ele><time>2026-04-09T10:29:05.999Z</time></trkpt><trkpt lat="36.57676818860942" lon="10.498989914088082"><ele>67.0</ele><time>2026-04-09T10:29:06.999Z</time></trkpt><trkpt lat="36.57692390524326" lon="10.498723285810593"><ele>68.0</ele><time>2026-04-09T10:29:07.999Z</time></trkpt><trkpt lat="36.57708024452897" lon="10.498456927002879"><ele>68.0</ele><time>2026-04-09T10:29:08.999Z</time></trkpt><trkpt lat="36.577239815288316" lon="10.498194368757504"><ele>68.0</ele><time>2026-04-09T10:29:09.999Z</time></trkpt><trkpt lat="36.577398290670956" lon="10.497935186394876"><ele>69.0</ele><time>2026-04-09T10:29:10.999Z</time></trkpt><trkpt lat="36.57755822774313" lon="10.497671268675647"><ele>70.0</ele><time>2026-04-09T10:29:11.999Z</time></trkpt><trkpt lat="36.57772051051668" lon="10.4974126352884"><ele>70.0</ele><time>2026-04-09T10:29:12.999Z</time></trkpt><trkpt lat="36.57788411798942" lon="10.497153829960636"><ele>70.0</ele><time>2026-04-09T10:29:13.999Z</time></trkpt><trkpt lat="36.57804850743548" lon="10.496895127145075"><ele>70.0</ele><time>2026-04-09T10:29:14.999Z</time></trkpt><trkpt lat="36.57821484628106" lon="10.49663676743143"><ele>70.0</ele><time>2026-04-09T10:29:15.999Z</time></trkpt><trkpt lat="36.57837982055292" lon="10.496383479276407"><ele>70.0</ele><time>2026-04-09T10:29:16.999Z</time></trkpt><trkpt lat="36.57854748707415" lon="10.496127533994716"><ele>70.0</ele><time>2026-04-09T10:29:17.999Z</time></trkpt><trkpt lat="36.578716724761165" lon="10.495874822826801"><ele>70.0</ele><time>2026-04-09T10:29:18.999Z</time></trkpt><trkpt lat="36.578886223543364" lon="10.49562167721956"><ele>70.0</ele><time>2026-04-09T10:29:19.999Z</time></trkpt><trkpt lat="36.57905506496681" lon="10.495369881630003"><ele>70.0</ele><time>2026-04-09T10:29:20.999Z</time></trkpt><trkpt lat="36.57922213449405" lon="10.495123082746577"><ele>70.0</ele><time>2026-04-09T10:29:21.999Z</time></trkpt><trkpt lat="36.579390469390376" lon="10.494869814214812"><ele>70.5</ele><time>2026-04-09T10:29:22.999Z</time></trkpt><trkpt lat="36.57955663566399" lon="10.49461763347673"><ele>71.0</ele><time>2026-04-09T10:29:23.999Z</time></trkpt><trkpt lat="36.57972426253572" lon="10.494365579940926"><ele>71.5</ele><time>2026-04-09T10:29:24.999Z</time></trkpt><trkpt lat="36.57989218766999" lon="10.494115988631165"><ele>72.0</ele><time>2026-04-09T10:29:25.999Z</time></trkpt><trkpt lat="36.58006159979782" lon="10.49386719769048"><ele>72.5</ele><time>2026-04-09T10:29:26.999Z</time></trkpt><trkpt lat="36.58023585388908" lon="10.49362157190038"><ele>73.0</ele><time>2026-04-09T10:29:27.999Z</time></trkpt><trkpt lat="36.58041238005081" lon="10.493379406417478"><ele>73.0</ele><time>2026-04-09T10:29:28.999Z</time></trkpt><trkpt lat="36.58058811835227" lon="10.493136505186019"><ele>73.0</ele><time>2026-04-09T10:29:29.999Z</time></trkpt><trkpt lat="36.58076076248018" lon="10.492890544003346"><ele>72.5</ele><time>2026-04-09T10:29:31Z</time></trkpt><trkpt lat="36.580931195569" lon="10.492640580973202"><ele>72.0</ele><time>2026-04-09T10:29:32Z</time></trkpt><trkpt lat="36.581098994787084" lon="10.492389488959821"><ele>71.0</ele><time>2026-04-09T10:29:33Z</time></trkpt><trkpt lat="36.58126638239659" lon="10.492136148649003"><ele>70.0</ele><time>2026-04-09T10:29:34Z</time></trkpt><trkpt lat="36.581434448706275" lon="10.491885471252981"><ele>70.0</ele><time>2026-04-09T10:29:35Z</time></trkpt><trkpt lat="36.581602707628036" lon="10.49163697722357"><ele>70.0</ele><time>2026-04-09T10:29:36Z</time></trkpt><trkpt lat="36.581769560758836" lon="10.491384152071708"><ele>71.0</ele><time>2026-04-09T10:29:37Z</time></trkpt><trkpt lat="36.58193572318568" lon="10.491131568910522"><ele>72.0</ele><time>2026-04-09T10:29:38Z</time></trkpt><trkpt lat="36.582099575209384" lon="10.490880476594683"><ele>72.0</ele><time>2026-04-09T10:29:39Z</time></trkpt><trkpt lat="36.5822606461648" lon="10.490623899130716"><ele>72.0</ele><time>2026-04-09T10:29:40Z</time></trkpt><trkpt lat="36.58242241809404" lon="10.490366670969964"><ele>72.0</ele><time>2026-04-09T10:29:41Z</time></trkpt><trkpt lat="36.58258406349942" lon="10.490112619246247"><ele>72.0</ele><time>2026-04-09T10:29:42Z</time></trkpt><trkpt lat="36.58274794792184" lon="10.489853981913598"><ele>72.0</ele><time>2026-04-09T10:29:43Z</time></trkpt><trkpt lat="36.58291130026398" lon="10.489594899556936"><ele>72.0</ele><time>2026-04-09T10:29:44Z</time></trkpt><trkpt lat="36.58307418760265" lon="10.489334113073198"><ele>72.0</ele><time>2026-04-09T10:29:45Z</time></trkpt><trkpt lat="36.583236374269426" lon="10.489072884039413"><ele>72.0</ele><time>2026-04-09T10:29:46Z</time></trkpt><trkpt lat="36.583397625845215" lon="10.48880958239578"><ele>72.0</ele><time>2026-04-09T10:29:47Z</time></trkpt><trkpt lat="36.58355754434677" lon="10.488547733880448"><ele>72.0</ele><time>2026-04-09T10:29:48Z</time></trkpt><trkpt lat="36.5837155043537" lon="10.488289149255046"><ele>72.0</ele><time>2026-04-09T10:29:49Z</time></trkpt><trkpt lat="36.58387362288527" lon="10.488028031943466"><ele>72.0</ele><time>2026-04-09T10:29:50Z</time></trkpt><trkpt lat="36.584030026596025" lon="10.487770173853034"><ele>72.5</ele><time>2026-04-09T10:29:51Z</time></trkpt><trkpt lat="36.58418682947953" lon="10.487510459286801"><ele>73.0</ele><time>2026-04-09T10:29:52Z</time></trkpt><trkpt lat="36.58434423532396" lon="10.487247889218095"><ele>73.5</ele><time>2026-04-09T10:29:53Z</time></trkpt><trkpt lat="36.58449810459003" lon="10.48698794428284"><ele>74.0</ele><time>2026-04-09T10:29:54Z</time></trkpt><trkpt lat="36.58465349111854" lon="10.48672251613384"><ele>74.5</ele><time>2026-04-09T10:29:55Z</time></trkpt><trkpt lat="36.58480573702206" lon="10.486461160332507"><ele>75.0</ele><time>2026-04-09T10:29:56Z</time></trkpt><trkpt lat="36.58496010405652" lon="10.486192411085934"><ele>75.0</ele><time>2026-04-09T10:29:57Z</time></trkpt><trkpt lat="36.58511273947658" lon="10.485925631869438"><ele>75.0</ele><time>2026-04-09T10:29:58Z</time></trkpt><trkpt lat="36.58526384699379" lon="10.485651581129728"><ele>74.0</ele><time>2026-04-09T10:29:59Z</time></trkpt><trkpt lat="36.58541519317446" lon="10.485374739595196"><ele>73.0</ele><time>2026-04-09T10:30:00Z</time></trkpt><trkpt lat="36.58556494592104" lon="10.48509559395344"><ele>73.0</ele><time>2026-04-09T10:30:01Z</time></trkpt><trkpt lat="36.58571613019042" lon="10.484820192012137"><ele>73.0</ele><time>2026-04-09T10:30:02Z</time></trkpt><trkpt lat="36.585865803389154" lon="10.484543711349039"><ele>72.0</ele><time>2026-04-09T10:30:03Z</time></trkpt><trkpt lat="36.586011999870564" lon="10.484266190175074"><ele>71.0</ele><time>2026-04-09T10:30:04Z</time></trkpt><trkpt lat="36.58615917295192" lon="10.483988810226537"><ele>70.0</ele><time>2026-04-09T10:30:05Z</time></trkpt><trkpt lat="36.5863065873369" lon="10.483714617886394"><ele>69.0</ele><time>2026-04-09T10:30:06Z</time></trkpt><trkpt lat="36.58645228464726" lon="10.48343609059365"><ele>69.0</ele><time>2026-04-09T10:30:07Z</time></trkpt><trkpt lat="36.586595663477055" lon="10.483155947853117"><ele>69.0</ele><time>2026-04-09T10:30:08Z</time></trkpt><trkpt lat="36.58674075668049" lon="10.482876064160735"><ele>69.0</ele><time>2026-04-09T10:30:09Z</time></trkpt><trkpt lat="36.58688609896005" lon="10.482596463887461"><ele>69.0</ele><time>2026-04-09T10:30:10Z</time></trkpt><trkpt lat="36.58702970343454" lon="10.482314998562554"><ele>69.5</ele><time>2026-04-09T10:30:11Z</time></trkpt><trkpt lat="36.58717290982484" lon="10.482032571624062"><ele>70.0</ele><time>2026-04-09T10:30:12Z</time></trkpt><trkpt lat="36.58731327987721" lon="10.481752018349303"><ele>70.0</ele><time>2026-04-09T10:30:13Z</time></trkpt><trkpt lat="36.58745451442906" lon="10.48146878329975"><ele>70.0</ele><time>2026-04-09T10:30:14Z</time></trkpt><trkpt lat="36.58759272276682" lon="10.481185151438979"><ele>69.5</ele><time>2026-04-09T10:30:15Z</time></trkpt><trkpt lat="36.58773069259693" lon="10.480900185100445"><ele>69.0</ele><time>2026-04-09T10:30:16Z</time></trkpt><trkpt lat="36.58786661405541" lon="10.4806165793444"><ele>69.0</ele><time>2026-04-09T10:30:17Z</time></trkpt><trkpt lat="36.58800139786327" lon="10.480330321440196"><ele>69.0</ele><time>2026-04-09T10:30:18Z</time></trkpt><trkpt lat="36.58813617216439" lon="10.480043600989044"><ele>69.0</ele><time>2026-04-09T10:30:19Z</time></trkpt><trkpt lat="36.58827088080472" lon="10.479755803464482"><ele>69.0</ele><time>2026-04-09T10:30:20Z</time></trkpt><trkpt lat="36.58840422276345" lon="10.47946854506903"><ele>68.5</ele><time>2026-04-09T10:30:21Z</time></trkpt><trkpt lat="36.588537387480585" lon="10.47917923707562"><ele>68.0</ele><time>2026-04-09T10:30:22Z</time></trkpt><trkpt lat="36.58867084342727" lon="10.478889916297355"><ele>67.5</ele><time>2026-04-09T10:30:23Z</time></trkpt><trkpt lat="36.58880487676314" lon="10.478599297646044"><ele>67.0</ele><time>2026-04-09T10:30:24Z</time></trkpt><trkpt lat="36.58893854414683" lon="10.47831120311369"><ele>67.0</ele><time>2026-04-09T10:30:25Z</time></trkpt><trkpt lat="36.58907231365825" lon="10.47802007082808"><ele>67.0</ele><time>2026-04-09T10:30:26Z</time></trkpt><trkpt lat="36.5892033624913" lon="10.47772874886817"><ele>68.0</ele><time>2026-04-09T10:30:27Z</time></trkpt><trkpt lat="36.58933330961158" lon="10.477434309902968"><ele>69.0</ele><time>2026-04-09T10:30:28Z</time></trkpt><trkpt lat="36.589458596764246" lon="10.477140054425444"><ele>68.5</ele><time>2026-04-09T10:30:29Z</time></trkpt><trkpt lat="36.58958700147791" lon="10.476843344044086"><ele>68.0</ele><time>2026-04-09T10:30:30Z</time></trkpt><trkpt lat="36.58971313169263" lon="10.4765483228861"><ele>69.5</ele><time>2026-04-09T10:30:31Z</time></trkpt><trkpt lat="36.58983883020246" lon="10.476252188874039"><ele>71.0</ele><time>2026-04-09T10:30:32Z</time></trkpt><trkpt lat="36.58996166457941" lon="10.475954977392783"><ele>71.0</ele><time>2026-04-09T10:30:33Z</time></trkpt><trkpt lat="36.59008754833301" lon="10.475656916738718"><ele>71.0</ele><time>2026-04-09T10:30:34Z</time></trkpt><trkpt lat="36.59021526917476" lon="10.475354013178233"><ele>71.5</ele><time>2026-04-09T10:30:35Z</time></trkpt><trkpt lat="36.590341324347946" lon="10.475048292617311"><ele>72.0</ele><time>2026-04-09T10:30:36Z</time></trkpt><trkpt lat="36.590466080648184" lon="10.474740374661197"><ele>70.5</ele><time>2026-04-09T10:30:37Z</time></trkpt><trkpt lat="36.59058837034743" lon="10.474429719959073"><ele>69.0</ele><time>2026-04-09T10:30:38Z</time></trkpt><trkpt lat="36.59071127397935" lon="10.474116887539228"><ele>69.0</ele><time>2026-04-09T10:30:39Z</time></trkpt><trkpt lat="36.59083555865746" lon="10.47380649266533"><ele>69.0</ele><time>2026-04-09T10:30:40Z</time></trkpt><trkpt lat="36.590959047648575" lon="10.473494944304875"><ele>69.5</ele><time>2026-04-09T10:30:41Z</time></trkpt><trkpt lat="36.591078726849545" lon="10.473185900409874"><ele>70.0</ele><time>2026-04-09T10:30:42Z</time></trkpt><trkpt lat="36.591198604204294" lon="10.472875606882846"><ele>69.0</ele><time>2026-04-09T10:30:43Z</time></trkpt><trkpt lat="36.59131879177685" lon="10.472564082202492"><ele>68.0</ele><time>2026-04-09T10:30:44Z</time></trkpt><trkpt lat="36.59143606188455" lon="10.47225352491687"><ele>68.0</ele><time>2026-04-09T10:30:45Z</time></trkpt><trkpt lat="36.591550346404034" lon="10.471941133592095"><ele>68.0</ele><time>2026-04-09T10:30:46Z</time></trkpt><trkpt lat="36.59166360704901" lon="10.471626644497237"><ele>68.0</ele><time>2026-04-09T10:30:47Z</time></trkpt><trkpt lat="36.59177493531163" lon="10.471311900909049"><ele>68.0</ele><time>2026-04-09T10:30:48Z</time></trkpt><trkpt lat="36.59188871028188" lon="10.470996379112814"><ele>68.0</ele><time>2026-04-09T10:30:49Z</time></trkpt><trkpt lat="36.59200104098567" lon="10.470680694100754"><ele>68.0</ele><time>2026-04-09T10:30:50Z</time></trkpt><trkpt lat="36.592112272678406" lon="10.470366433765433"><ele>68.5</ele><time>2026-04-09T10:30:51Z</time></trkpt><trkpt lat="36.59222201289952" lon="10.470050214784802"><ele>69.0</ele><time>2026-04-09T10:30:52Z</time></trkpt><trkpt lat="36.59233102173278" lon="10.469735498984234"><ele>69.0</ele><time>2026-04-09T10:30:53Z</time></trkpt><trkpt lat="36.59244216226086" lon="10.46941937464169"><ele>69.0</ele><time>2026-04-09T10:30:54Z</time></trkpt><trkpt lat="36.59255512665009" lon="10.469101285110876"><ele>69.0</ele><time>2026-04-09T10:30:55Z</time></trkpt><trkpt lat="36.59266957374855" lon="10.468782530162523"><ele>69.0</ele><time>2026-04-09T10:30:56Z</time></trkpt><trkpt lat="36.592786785488556" lon="10.468460175162164"><ele>68.0</ele><time>2026-04-09T10:30:57Z</time></trkpt><trkpt lat="36.59290426399053" lon="10.468135914754566"><ele>67.0</ele><time>2026-04-09T10:30:58Z</time></trkpt><trkpt lat="36.593023728965136" lon="10.467807826309283"><ele>67.0</ele><time>2026-04-09T10:30:59Z</time></trkpt><trkpt lat="36.59313925350566" lon="10.467479663523934"><ele>67.0</ele><time>2026-04-09T10:31:00Z</time></trkpt><trkpt lat="36.593255291810785" lon="10.467151995861245"><ele>67.5</ele><time>2026-04-09T10:31:00.999Z</time></trkpt><trkpt lat="36.59336945460056" lon="10.466824560602646"><ele>68.0</ele><time>2026-04-09T10:31:01.999Z</time></trkpt><trkpt lat="36.593480433256296" lon="10.466497669387069"><ele>68.0</ele><time>2026-04-09T10:31:02.999Z</time></trkpt><trkpt lat="36.593593005486994" lon="10.466171988854265"><ele>68.0</ele><time>2026-04-09T10:31:03.999Z</time></trkpt><trkpt lat="36.59371142339586" lon="10.465843571781155"><ele>68.0</ele><time>2026-04-09T10:31:04.999Z</time></trkpt><trkpt lat="36.59382896024898" lon="10.465516617487381"><ele>68.0</ele><time>2026-04-09T10:31:05.999Z</time></trkpt><trkpt lat="36.593941618310296" lon="10.465190951089205"><ele>68.0</ele><time>2026-04-09T10:31:06.999Z</time></trkpt><trkpt lat="36.594051301139814" lon="10.464877124564728"><ele>68.0</ele><time>2026-04-09T10:31:07.999Z</time></trkpt><trkpt lat="36.5941573107746" lon="10.46458161071916"><ele>69.5</ele><time>2026-04-09T10:31:08.999Z</time></trkpt><trkpt lat="36.594263246556196" lon="10.464293171302034"><ele>71.0</ele><time>2026-04-09T10:31:09.999Z</time></trkpt><trkpt lat="36.594370122340955" lon="10.464008560054841"><ele>71.0</ele><time>2026-04-09T10:31:10.999Z</time></trkpt><trkpt lat="36.59447542424574" lon="10.463730860245162"><ele>71.0</ele><time>2026-04-09T10:31:11.999Z</time></trkpt><trkpt lat="36.59458123105157" lon="10.463456941521372"><ele>70.5</ele><time>2026-04-09T10:31:12.999Z</time></trkpt><trkpt lat="36.594686906397236" lon="10.463185972653383"><ele>70.0</ele><time>2026-04-09T10:31:13.999Z</time></trkpt><trkpt lat="36.594796104466006" lon="10.462915346644683"><ele>70.0</ele><time>2026-04-09T10:31:14.999Z</time></trkpt><trkpt lat="36.59490671043284" lon="10.462647984662821"><ele>70.0</ele><time>2026-04-09T10:31:15.999Z</time></trkpt><trkpt lat="36.59501899095482" lon="10.462390276825627"><ele>70.0</ele><time>2026-04-09T10:31:16.999Z</time></trkpt><trkpt lat="36.59512777013528" lon="10.46213248011539"><ele>70.0</ele><time>2026-04-09T10:31:17.999Z</time></trkpt><trkpt lat="36.5952348429533" lon="10.46187607916944"><ele>69.0</ele><time>2026-04-09T10:31:18.999Z</time></trkpt><trkpt lat="36.59534533976747" lon="10.461618401034675"><ele>68.0</ele><time>2026-04-09T10:31:19.999Z</time></trkpt><trkpt lat="36.595457856616456" lon="10.461364468713727"><ele>69.0</ele><time>2026-04-09T10:31:20.999Z</time></trkpt><trkpt lat="36.59557312866752" lon="10.461108705536661"><ele>70.0</ele><time>2026-04-09T10:31:21.999Z</time></trkpt><trkpt lat="36.5956872825844" lon="10.460850940018876"><ele>70.0</ele><time>2026-04-09T10:31:22.999Z</time></trkpt><trkpt lat="36.59580014927289" lon="10.46059876798097"><ele>70.0</ele><time>2026-04-09T10:31:23.999Z</time></trkpt><trkpt lat="36.59591428949036" lon="10.460355585696947"><ele>70.33333333333333</ele><time>2026-04-09T10:31:24.999Z</time></trkpt><trkpt lat="36.5960290880534" lon="10.460115144495633"><ele>70.66666666666667</ele><time>2026-04-09T10:31:25.999Z</time></trkpt><trkpt lat="36.596143980879496" lon="10.459877418852074"><ele>71.0</ele><time>2026-04-09T10:31:26.999Z</time></trkpt><trkpt lat="36.59625948988526" lon="10.459634440222997"><ele>71.0</ele><time>2026-04-09T10:31:27.999Z</time></trkpt><trkpt lat="36.596380708616095" lon="10.459389205294574"><ele>71.0</ele><time>2026-04-09T10:31:28.999Z</time></trkpt><trkpt lat="36.59650543535587" lon="10.45914244251877"><ele>71.0</ele><time>2026-04-09T10:31:29.999Z</time></trkpt><trkpt lat="36.59662886383639" lon="10.45889915651862"><ele>71.0</ele><time>2026-04-09T10:31:30.999Z</time></trkpt><trkpt lat="36.596756074245654" lon="10.458658353645172"><ele>71.0</ele><time>2026-04-09T10:31:31.999Z</time></trkpt><trkpt lat="36.59688635706754" lon="10.458424670545675"><ele>71.0</ele><time>2026-04-09T10:31:32.999Z</time></trkpt><trkpt lat="36.597022593887736" lon="10.458192986462125"><ele>71.0</ele><time>2026-04-09T10:31:33.999Z</time></trkpt><trkpt lat="36.59716214893041" lon="10.457960685550864"><ele>71.0</ele><time>2026-04-09T10:31:34.999Z</time></trkpt><trkpt lat="36.59730017973758" lon="10.457723655060777"><ele>71.0</ele><time>2026-04-09T10:31:35.999Z</time></trkpt><trkpt lat="36.597438955715624" lon="10.457485027748431"><ele>71.0</ele><time>2026-04-09T10:31:37Z</time></trkpt><trkpt lat="36.59757914401674" lon="10.457244318290494"><ele>71.0</ele><time>2026-04-09T10:31:38Z</time></trkpt><trkpt lat="36.597719312056284" lon="10.457002732885845"><ele>71.0</ele><time>2026-04-09T10:31:39Z</time></trkpt><trkpt lat="36.597857152418676" lon="10.456763196074643"><ele>71.0</ele><time>2026-04-09T10:31:40Z</time></trkpt><trkpt lat="36.597998896248754" lon="10.456525510044733"><ele>71.0</ele><time>2026-04-09T10:31:41Z</time></trkpt><trkpt lat="36.59815022644304" lon="10.456284228449228"><ele>71.5</ele><time>2026-04-09T10:31:42Z</time></trkpt><trkpt lat="36.598304968905154" lon="10.456040579391512"><ele>72.0</ele><time>2026-04-09T10:31:43Z</time></trkpt><trkpt lat="36.5984596608768" lon="10.455795186127942"><ele>72.0</ele><time>2026-04-09T10:31:44Z</time></trkpt><trkpt lat="36.59861215417567" lon="10.455555452938345"><ele>72.0</ele><time>2026-04-09T10:31:45Z</time></trkpt><trkpt lat="36.598761653564566" lon="10.455323706907523"><ele>71.0</ele><time>2026-04-09T10:31:46Z</time></trkpt><trkpt lat="36.598911196294935" lon="10.455092814284788"><ele>70.0</ele><time>2026-04-09T10:31:47Z</time></trkpt><trkpt lat="36.5990650984916" lon="10.454859726002972"><ele>70.0</ele><time>2026-04-09T10:31:48Z</time></trkpt><trkpt lat="36.59921578562854" lon="10.454631576708323"><ele>70.0</ele><time>2026-04-09T10:31:49Z</time></trkpt><trkpt lat="36.599368183065266" lon="10.45440205546653"><ele>69.5</ele><time>2026-04-09T10:31:50Z</time></trkpt><trkpt lat="36.5995224201691" lon="10.454174204742012"><ele>69.0</ele><time>2026-04-09T10:31:51Z</time></trkpt><trkpt lat="36.59967874642945" lon="10.453949297607508"><ele>70.5</ele><time>2026-04-09T10:31:52Z</time></trkpt><trkpt lat="36.599832586304316" lon="10.45372124203042"><ele>72.0</ele><time>2026-04-09T10:31:53Z</time></trkpt><trkpt lat="36.59998543099139" lon="10.453490879980992"><ele>72.0</ele><time>2026-04-09T10:31:54Z</time></trkpt><trkpt lat="36.60014223113455" lon="10.453254547426457"><ele>72.0</ele><time>2026-04-09T10:31:55Z</time></trkpt><trkpt lat="36.60029612369617" lon="10.453022652367848"><ele>72.0</ele><time>2026-04-09T10:31:56Z</time></trkpt><trkpt lat="36.60045087171795" lon="10.452797062651292"><ele>72.0</ele><time>2026-04-09T10:31:57Z</time></trkpt><trkpt lat="36.60060594705655" lon="10.452573320911236"><ele>72.0</ele><time>2026-04-09T10:31:58Z</time></trkpt><trkpt lat="36.60076575979419" lon="10.452349297926073"><ele>72.0</ele><time>2026-04-09T10:31:59Z</time></trkpt><trkpt lat="36.60092435149643" lon="10.452112991522533"><ele>73.0</ele><time>2026-04-09T10:32:00Z</time></trkpt><trkpt lat="36.60107615729899" lon="10.451880595958091"><ele>74.0</ele><time>2026-04-09T10:32:01Z</time></trkpt><trkpt lat="36.60122414903984" lon="10.451659794068371"><ele>74.0</ele><time>2026-04-09T10:32:02Z</time></trkpt><trkpt lat="36.60136920174715" lon="10.451440202835402"><ele>74.0</ele><time>2026-04-09T10:32:03Z</time></trkpt><trkpt lat="36.60150919302732" lon="10.45121603019617"><ele>75.5</ele><time>2026-04-09T10:32:04Z</time></trkpt><trkpt lat="36.601644429313836" lon="10.450992121175965"><ele>77.0</ele><time>2026-04-09T10:32:05Z</time></trkpt><trkpt lat="36.60177863286499" lon="10.450762051189438"><ele>77.0</ele><time>2026-04-09T10:32:06Z</time></trkpt><trkpt lat="36.60191475515084" lon="10.450534674930504"><ele>77.0</ele><time>2026-04-09T10:32:07Z</time></trkpt><trkpt lat="36.602053988577886" lon="10.450304812943001"><ele>78.0</ele><time>2026-04-09T10:32:08Z</time></trkpt><trkpt lat="36.60218885179297" lon="10.450069340781676"><ele>79.0</ele><time>2026-04-09T10:32:09Z</time></trkpt><trkpt lat="36.602320650655166" lon="10.449822443873245"><ele>80.5</ele><time>2026-04-09T10:32:10Z</time></trkpt><trkpt lat="36.60244851246957" lon="10.449562854219595"><ele>82.0</ele><time>2026-04-09T10:32:11Z</time></trkpt><trkpt lat="36.60257772484795" lon="10.44929824448513"><ele>82.0</ele><time>2026-04-09T10:32:12Z</time></trkpt><trkpt lat="36.60270551791773" lon="10.449031015272348"><ele>82.0</ele><time>2026-04-09T10:32:13Z</time></trkpt><trkpt lat="36.602836772941124" lon="10.448764135696011"><ele>82.5</ele><time>2026-04-09T10:32:14Z</time></trkpt><trkpt lat="36.60296842802381" lon="10.448495304676031"><ele>83.0</ele><time>2026-04-09T10:32:15Z</time></trkpt><trkpt lat="36.603094923905154" lon="10.448222886444077"><ele>84.0</ele><time>2026-04-09T10:32:16Z</time></trkpt><trkpt lat="36.60321126921639" lon="10.447946149371475"><ele>85.0</ele><time>2026-04-09T10:32:17Z</time></trkpt><trkpt lat="36.60332020553548" lon="10.44765798810161"><ele>85.0</ele><time>2026-04-09T10:32:18Z</time></trkpt><trkpt lat="36.603431441420426" lon="10.447372782232916"><ele>85.0</ele><time>2026-04-09T10:32:19Z</time></trkpt><trkpt lat="36.60354109191551" lon="10.447083583601712"><ele>85.5</ele><time>2026-04-09T10:32:20Z</time></trkpt><trkpt lat="36.603645911339406" lon="10.446790139233174"><ele>86.0</ele><time>2026-04-09T10:32:21Z</time></trkpt><trkpt lat="36.603748330351884" lon="10.446498269140799"><ele>85.0</ele><time>2026-04-09T10:32:22Z</time></trkpt><trkpt lat="36.6038467153175" lon="10.44619933639986"><ele>84.0</ele><time>2026-04-09T10:32:23Z</time></trkpt><trkpt lat="36.603942833358445" lon="10.44590271119428"><ele>84.0</ele><time>2026-04-09T10:32:24Z</time></trkpt><trkpt lat="36.60403754388631" lon="10.445602232344816"><ele>84.0</ele><time>2026-04-09T10:32:25Z</time></trkpt><trkpt lat="36.60412987883829" lon="10.445300625688612"><ele>85.5</ele><time>2026-04-09T10:32:26Z</time></trkpt><trkpt lat="36.604218314154515" lon="10.444995731894506"><ele>87.0</ele><time>2026-04-09T10:32:27Z</time></trkpt><trkpt lat="36.60429977938891" lon="10.444684940229825"><ele>86.0</ele><time>2026-04-09T10:32:28Z</time></trkpt><trkpt lat="36.60437903095219" lon="10.44437383429574"><ele>85.0</ele><time>2026-04-09T10:32:29Z</time></trkpt><trkpt lat="36.60445570064533" lon="10.444061970746487"><ele>84.5</ele><time>2026-04-09T10:32:30Z</time></trkpt><trkpt lat="36.60453022409335" lon="10.443748065751665"><ele>84.0</ele><time>2026-04-09T10:32:31Z</time></trkpt><trkpt lat="36.60460322661984" lon="10.44343636348258"><ele>84.0</ele><time>2026-04-09T10:32:32Z</time></trkpt><trkpt lat="36.604673302732486" lon="10.443124850507369"><ele>84.0</ele><time>2026-04-09T10:32:33Z</time></trkpt><trkpt lat="36.604737204553956" lon="10.442811123311499"><ele>82.5</ele><time>2026-04-09T10:32:34Z</time></trkpt><trkpt lat="36.60479112801221" lon="10.442497666127686"><ele>81.0</ele><time>2026-04-09T10:32:35Z</time></trkpt><trkpt lat="36.60484217570211" lon="10.442182700247171"><ele>81.0</ele><time>2026-04-09T10:32:36Z</time></trkpt><trkpt lat="36.60489075484025" lon="10.44186530486309"><ele>81.0</ele><time>2026-04-09T10:32:37Z</time></trkpt><trkpt lat="36.60493985645725" lon="10.441544335013566"><ele>81.0</ele><time>2026-04-09T10:32:38Z</time></trkpt><trkpt lat="36.60498743808913" lon="10.441223954765158"><ele>81.0</ele><time>2026-04-09T10:32:39Z</time></trkpt><trkpt lat="36.60503621444899" lon="10.44090094794067"><ele>81.0</ele><time>2026-04-09T10:32:40Z</time></trkpt><trkpt lat="36.60508090906844" lon="10.44058333113015"><ele>81.0</ele><time>2026-04-09T10:32:41Z</time></trkpt><trkpt lat="36.60512799431292" lon="10.440260136035885"><ele>80.5</ele><time>2026-04-09T10:32:42Z</time></trkpt><trkpt lat="36.60517303872" lon="10.43993889724227"><ele>80.0</ele><time>2026-04-09T10:32:43Z</time></trkpt><trkpt lat="36.60521923775838" lon="10.439616291262297"><ele>79.0</ele><time>2026-04-09T10:32:44Z</time></trkpt><trkpt lat="36.605266270190185" lon="10.439294572336697"><ele>78.0</ele><time>2026-04-09T10:32:45Z</time></trkpt><trkpt lat="36.60531378904579" lon="10.438974101376038"><ele>78.5</ele><time>2026-04-09T10:32:46Z</time></trkpt><trkpt lat="36.605363617944946" lon="10.43865302089378"><ele>79.0</ele><time>2026-04-09T10:32:47Z</time></trkpt><trkpt lat="36.60541913570139" lon="10.438333592096075"><ele>79.0</ele><time>2026-04-09T10:32:48Z</time></trkpt><trkpt lat="36.60547580222366" lon="10.438015543430824"><ele>79.0</ele><time>2026-04-09T10:32:49Z</time></trkpt><trkpt lat="36.605533783585095" lon="10.437697533076017"><ele>80.0</ele><time>2026-04-09T10:32:50Z</time></trkpt><trkpt lat="36.60559967644402" lon="10.437383988808149"><ele>81.0</ele><time>2026-04-09T10:32:51Z</time></trkpt><trkpt lat="36.60567727974018" lon="10.437073189008466"><ele>81.0</ele><time>2026-04-09T10:32:52Z</time></trkpt><trkpt lat="36.60576569466249" lon="10.436770246760666"><ele>81.0</ele><time>2026-04-09T10:32:53Z</time></trkpt><trkpt lat="36.60585603759309" lon="10.436466567588582"><ele>81.5</ele><time>2026-04-09T10:32:54Z</time></trkpt><trkpt lat="36.605948696575744" lon="10.436164654480347"><ele>82.0</ele><time>2026-04-09T10:32:55Z</time></trkpt><trkpt lat="36.606044212301114" lon="10.43586503758203"><ele>82.0</ele><time>2026-04-09T10:32:56Z</time></trkpt><trkpt lat="36.606141104397196" lon="10.435563380232573"><ele>82.0</ele><time>2026-04-09T10:32:57Z</time></trkpt><trkpt lat="36.606238896753176" lon="10.435264843111714"><ele>85.0</ele><time>2026-04-09T10:32:58Z</time></trkpt><trkpt lat="36.6063407935663" lon="10.434969028506005"><ele>88.0</ele><time>2026-04-09T10:32:59Z</time></trkpt><trkpt lat="36.606450605753125" lon="10.434677290359849"><ele>89.0</ele><time>2026-04-09T10:33:00Z</time></trkpt><trkpt lat="36.60656594355983" lon="10.434385582441468"><ele>90.0</ele><time>2026-04-09T10:33:01Z</time></trkpt><trkpt lat="36.60668415493944" lon="10.434097079737393"><ele>90.0</ele><time>2026-04-09T10:33:02Z</time></trkpt><trkpt lat="36.60680922674994" lon="10.433808224121947"><ele>90.0</ele><time>2026-04-09T10:33:03Z</time></trkpt><trkpt lat="36.60694143069221" lon="10.43352985764018"><ele>94.5</ele><time>2026-04-09T10:33:03.999Z</time></trkpt><trkpt lat="36.60708026133553" lon="10.433253366905491"><ele>99.0</ele><time>2026-04-09T10:33:04.999Z</time></trkpt><trkpt lat="36.60722091942253" lon="10.432980564723513"><ele>96.5</ele><time>2026-04-09T10:33:05.999Z</time></trkpt><trkpt lat="36.60736453748371" lon="10.43270948726472"><ele>94.0</ele><time>2026-04-09T10:33:06.999Z</time></trkpt><trkpt lat="36.607511791481436" lon="10.432439542220722"><ele>94.0</ele><time>2026-04-09T10:33:07.999Z</time></trkpt><trkpt lat="36.607663376907595" lon="10.432174100705963"><ele>94.0</ele><time>2026-04-09T10:33:08.999Z</time></trkpt><trkpt lat="36.60781644967703" lon="10.43190833356988"><ele>97.0</ele><time>2026-04-09T10:33:09.999Z</time></trkpt><trkpt lat="36.60797384712303" lon="10.431648814468996"><ele>100.0</ele><time>2026-04-09T10:33:10.999Z</time></trkpt><trkpt lat="36.60813660737574" lon="10.431391148284273"><ele>98.5</ele><time>2026-04-09T10:33:11.999Z</time></trkpt><trkpt lat="36.6083023892573" lon="10.431137864015318"><ele>97.0</ele><time>2026-04-09T10:33:12.999Z</time></trkpt><trkpt lat="36.60846918766865" lon="10.430889189985802"><ele>97.0</ele><time>2026-04-09T10:33:13.999Z</time></trkpt><trkpt lat="36.60864051275922" lon="10.430641970739298"><ele>97.0</ele><time>2026-04-09T10:33:14.999Z</time></trkpt><trkpt lat="36.608810709724104" lon="10.430398144336383"><ele>98.0</ele><time>2026-04-09T10:33:15.999Z</time></trkpt><trkpt lat="36.6089845046632" lon="10.430149336819516"><ele>99.0</ele><time>2026-04-09T10:33:16.999Z</time></trkpt><trkpt lat="36.60916406832312" lon="10.429896913711628"><ele>99.0</ele><time>2026-04-09T10:33:17.999Z</time></trkpt><trkpt lat="36.60934645455616" lon="10.429643834141357"><ele>99.0</ele><time>2026-04-09T10:33:18.999Z</time></trkpt><trkpt lat="36.6095297957088" lon="10.429391377158312"><ele>100.5</ele><time>2026-04-09T10:33:19.999Z</time></trkpt><trkpt lat="36.60971395279337" lon="10.429139670919792"><ele>102.0</ele><time>2026-04-09T10:33:20.999Z</time></trkpt><trkpt lat="36.60989970268938" lon="10.42888592054315"><ele>101.0</ele><time>2026-04-09T10:33:21.999Z</time></trkpt><trkpt lat="36.61008710343926" lon="10.428630984014925"><ele>100.0</ele><time>2026-04-09T10:33:22.999Z</time></trkpt><trkpt lat="36.61027299225642" lon="10.428376500757576"><ele>101.5</ele><time>2026-04-09T10:33:23.999Z</time></trkpt><trkpt lat="36.61045761949225" lon="10.428119178642675"><ele>103.0</ele><time>2026-04-09T10:33:24.999Z</time></trkpt><trkpt lat="36.61063997374737" lon="10.427857473845819"><ele>103.0</ele><time>2026-04-09T10:33:25.999Z</time></trkpt><trkpt lat="36.61081855089152" lon="10.427593658278253"><ele>103.0</ele><time>2026-04-09T10:33:26.999Z</time></trkpt><trkpt lat="36.61099485910604" lon="10.427325764739138"><ele>104.0</ele><time>2026-04-09T10:33:27.999Z</time></trkpt><trkpt lat="36.61117115349996" lon="10.427058054981192"><ele>105.0</ele><time>2026-04-09T10:33:28.999Z</time></trkpt><trkpt lat="36.6113455024585" lon="10.426789395427031"><ele>105.0</ele><time>2026-04-09T10:33:29.999Z</time></trkpt><trkpt lat="36.611519380040804" lon="10.4265196568169"><ele>105.0</ele><time>2026-04-09T10:33:30.999Z</time></trkpt><trkpt lat="36.611690351303416" lon="10.426247877963734"><ele>104.0</ele><time>2026-04-09T10:33:31.999Z</time></trkpt><trkpt lat="36.611859381250355" lon="10.425976240419434"><ele>103.0</ele><time>2026-04-09T10:33:32.999Z</time></trkpt><trkpt lat="36.612027068712166" lon="10.425702896941702"><ele>104.5</ele><time>2026-04-09T10:33:33.999Z</time></trkpt><trkpt lat="36.61219500539025" lon="10.425426549296132"><ele>106.0</ele><time>2026-04-09T10:33:34.999Z</time></trkpt><trkpt lat="36.612359948835405" lon="10.425151099693888"><ele>106.0</ele><time>2026-04-09T10:33:35.999Z</time></trkpt><trkpt lat="36.61252316797331" lon="10.424871839090956"><ele>106.0</ele><time>2026-04-09T10:33:36.999Z</time></trkpt><trkpt lat="36.61268373268059" lon="10.424589345115798"><ele>104.5</ele><time>2026-04-09T10:33:37.999Z</time></trkpt><trkpt lat="36.61284104339049" lon="10.424307463545112"><ele>103.0</ele><time>2026-04-09T10:33:38.999Z</time></trkpt><trkpt lat="36.61299927853585" lon="10.42402341872719"><ele>103.5</ele><time>2026-04-09T10:33:39.999Z</time></trkpt><trkpt lat="36.61315608895931" lon="10.423737338421683"><ele>104.0</ele><time>2026-04-09T10:33:40.999Z</time></trkpt><trkpt lat="36.61331088227552" lon="10.423452009002872"><ele>104.0</ele><time>2026-04-09T10:33:42Z</time></trkpt><trkpt lat="36.61346605033646" lon="10.423166216361356"><ele>104.0</ele><time>2026-04-09T10:33:43Z</time></trkpt><trkpt lat="36.61362027530044" lon="10.42288061043492"><ele>105.0</ele><time>2026-04-09T10:33:44Z</time></trkpt><trkpt lat="36.613773383026356" lon="10.422592020533711"><ele>106.0</ele><time>2026-04-09T10:33:45Z</time></trkpt><trkpt lat="36.61392301561134" lon="10.422302509315907"><ele>106.0</ele><time>2026-04-09T10:33:46Z</time></trkpt><trkpt lat="36.61406859231137" lon="10.422010973882259"><ele>106.0</ele><time>2026-04-09T10:33:47Z</time></trkpt><trkpt lat="36.61421419546156" lon="10.421716805201639"><ele>106.0</ele><time>2026-04-09T10:33:48Z</time></trkpt><trkpt lat="36.614356210102756" lon="10.421422356565113"><ele>106.0</ele><time>2026-04-09T10:33:49Z</time></trkpt><trkpt lat="36.61449667189238" lon="10.421125840062878"><ele>107.5</ele><time>2026-04-09T10:33:50Z</time></trkpt><trkpt lat="36.614633322992546" lon="10.420828974766147"><ele>109.0</ele><time>2026-04-09T10:33:51Z</time></trkpt><trkpt lat="36.614768749829665" lon="10.420527594761419"><ele>108.5</ele><time>2026-04-09T10:33:52Z</time></trkpt><trkpt lat="36.61489937228781" lon="10.4202277025082"><ele>108.0</ele><time>2026-04-09T10:33:53Z</time></trkpt><trkpt lat="36.615029883451534" lon="10.419922768278326"><ele>107.5</ele><time>2026-04-09T10:33:54Z</time></trkpt><trkpt lat="36.61515689043035" lon="10.419617559637365"><ele>107.0</ele><time>2026-04-09T10:33:55Z</time></trkpt><trkpt lat="36.61528367256479" lon="10.4193105443348"><ele>108.0</ele><time>2026-04-09T10:33:56Z</time></trkpt><trkpt lat="36.615408096384975" lon="10.419002537050316"><ele>109.0</ele><time>2026-04-09T10:33:57Z</time></trkpt><trkpt lat="36.6155297036178" lon="10.418692100754804"><ele>109.0</ele><time>2026-04-09T10:33:58Z</time></trkpt><trkpt lat="36.61564839756304" lon="10.418384556711198"><ele>109.0</ele><time>2026-04-09T10:33:59Z</time></trkpt><trkpt lat="36.615767381514296" lon="10.418075109392538"><ele>109.0</ele><time>2026-04-09T10:34:00Z</time></trkpt><trkpt lat="36.61588589160569" lon="10.4177630740948"><ele>109.0</ele><time>2026-04-09T10:34:01Z</time></trkpt><trkpt lat="36.61600384115827" lon="10.417452866405235"><ele>108.5</ele><time>2026-04-09T10:34:02Z</time></trkpt><trkpt lat="36.616126972492275" lon="10.417143310492435"><ele>108.0</ele><time>2026-04-09T10:34:03Z</time></trkpt><trkpt lat="36.61624997564301" lon="10.416834396194998"><ele>109.5</ele><time>2026-04-09T10:34:04Z</time></trkpt><trkpt lat="36.616373941124294" lon="10.416528417208246"><ele>111.0</ele><time>2026-04-09T10:34:05Z</time></trkpt><trkpt lat="36.616496831824335" lon="10.416221660165222"><ele>111.0</ele><time>2026-04-09T10:34:06Z</time></trkpt><trkpt lat="36.61661551471907" lon="10.415912533484734"><ele>111.0</ele><time>2026-04-09T10:34:07Z</time></trkpt><trkpt lat="36.616728506628576" lon="10.415605292594826"><ele>111.0</ele><time>2026-04-09T10:34:08Z</time></trkpt><trkpt lat="36.61684063701678" lon="10.415321203012413"><ele>111.0</ele><time>2026-04-09T10:34:09Z</time></trkpt><trkpt lat="36.616951113340676" lon="10.415055378540005"><ele>112.0</ele><time>2026-04-09T10:34:10Z</time></trkpt><trkpt lat="36.61705705201306" lon="10.414799623811101"><ele>113.0</ele><time>2026-04-09T10:34:11Z</time></trkpt><trkpt lat="36.61715609045549" lon="10.414552462284451"><ele>113.5</ele><time>2026-04-09T10:34:12Z</time></trkpt><trkpt lat="36.617258691963244" lon="10.414298587743485"><ele>114.0</ele><time>2026-04-09T10:34:13Z</time></trkpt><trkpt lat="36.61736613249743" lon="10.414035142722087"><ele>114.5</ele><time>2026-04-09T10:34:14Z</time></trkpt><trkpt lat="36.617475309114454" lon="10.413767693681704"><ele>115.0</ele><time>2026-04-09T10:34:15Z</time></trkpt><trkpt lat="36.61758218293274" lon="10.413505295130443"><ele>115.0</ele><time>2026-04-09T10:34:16Z</time></trkpt><trkpt lat="36.61768888444324" lon="10.413241094815929"><ele>115.0</ele><time>2026-04-09T10:34:17Z</time></trkpt><trkpt lat="36.617799770377395" lon="10.412981501870979"><ele>116.0</ele><time>2026-04-09T10:34:18Z</time></trkpt><trkpt lat="36.61791185885054" lon="10.412720802104435"><ele>117.0</ele><time>2026-04-09T10:34:19Z</time></trkpt><trkpt lat="36.618024614042625" lon="10.412462118155855"><ele>117.0</ele><time>2026-04-09T10:34:20Z</time></trkpt><trkpt lat="36.61813835772394" lon="10.4122042804336"><ele>117.0</ele><time>2026-04-09T10:34:21Z</time></trkpt><trkpt lat="36.61825146947586" lon="10.411948366502925"><ele>117.5</ele><time>2026-04-09T10:34:22Z</time></trkpt><trkpt lat="36.618364191741435" lon="10.411687802587707"><ele>118.0</ele><time>2026-04-09T10:34:23Z</time></trkpt><trkpt lat="36.61847851151729" lon="10.411426774378306"><ele>119.0</ele><time>2026-04-09T10:34:24Z</time></trkpt><trkpt lat="36.618594990569036" lon="10.41116390159693"><ele>120.0</ele><time>2026-04-09T10:34:25Z</time></trkpt><trkpt lat="36.618715948539695" lon="10.410893813847812"><ele>120.0</ele><time>2026-04-09T10:34:26Z</time></trkpt><trkpt lat="36.61884109548843" lon="10.410615295066956"><ele>120.0</ele><time>2026-04-09T10:34:27Z</time></trkpt><trkpt lat="36.61896950458301" lon="10.410333670602693"><ele>120.5</ele><time>2026-04-09T10:34:28Z</time></trkpt><trkpt lat="36.619100460465376" lon="10.410052445823945"><ele>121.0</ele><time>2026-04-09T10:34:29Z</time></trkpt><trkpt lat="36.61923208777545" lon="10.409770854081781"><ele>122.0</ele><time>2026-04-09T10:34:30Z</time></trkpt><trkpt lat="36.61936526487904" lon="10.409488723183097"><ele>123.0</ele><time>2026-04-09T10:34:31Z</time></trkpt><trkpt lat="36.61950011045525" lon="10.409207992140036"><ele>124.0</ele><time>2026-04-09T10:34:32Z</time></trkpt><trkpt lat="36.619634164668575" lon="10.408930380077352"><ele>125.0</ele><time>2026-04-09T10:34:33Z</time></trkpt><trkpt lat="36.619771889843044" lon="10.408652701923636"><ele>125.0</ele><time>2026-04-09T10:34:34Z</time></trkpt><trkpt lat="36.61990620181197" lon="10.40837467621049"><ele>125.0</ele><time>2026-04-09T10:34:35Z</time></trkpt><trkpt lat="36.62003765448489" lon="10.408095602622273"><ele>125.0</ele><time>2026-04-09T10:34:36Z</time></trkpt><trkpt lat="36.62016962719165" lon="10.407815982454835"><ele>125.0</ele><time>2026-04-09T10:34:37Z</time></trkpt><trkpt lat="36.620306242406535" lon="10.407539088036813"><ele>125.0</ele><time>2026-04-09T10:34:38Z</time></trkpt><trkpt lat="36.62044525721621" lon="10.407263133005115"><ele>125.0</ele><time>2026-04-09T10:34:39Z</time></trkpt><trkpt lat="36.62058125082765" lon="10.406991787830917"><ele>125.5</ele><time>2026-04-09T10:34:40Z</time></trkpt><trkpt lat="36.620709158276135" lon="10.406739602088528"><ele>126.0</ele><time>2026-04-09T10:34:41Z</time></trkpt><trkpt lat="36.620836530020185" lon="10.406492866405442"><ele>126.0</ele><time>2026-04-09T10:34:42Z</time></trkpt><trkpt lat="36.62096146315673" lon="10.40625592985206"><ele>126.0</ele><time>2026-04-09T10:34:43Z</time></trkpt><trkpt lat="36.62108115142197" lon="10.406027772693523"><ele>126.0</ele><time>2026-04-09T10:34:44Z</time></trkpt><trkpt lat="36.62119928661944" lon="10.405809801960018"><ele>126.66666666666666</ele><time>2026-04-09T10:34:45Z</time></trkpt><trkpt lat="36.62131967274406" lon="10.405591485357622"><ele>127.33333333333333</ele><time>2026-04-09T10:34:46Z</time></trkpt><trkpt lat="36.621444347347285" lon="10.405368431738674"><ele>128.0</ele><time>2026-04-09T10:34:47Z</time></trkpt><trkpt lat="36.62157155278384" lon="10.405137915353789"><ele>128.0</ele><time>2026-04-09T10:34:48Z</time></trkpt><trkpt lat="36.62170140923462" lon="10.404900187948607"><ele>128.0</ele><time>2026-04-09T10:34:49Z</time></trkpt><trkpt lat="36.62183433083103" lon="10.404653819257556"><ele>127.5</ele><time>2026-04-09T10:34:50Z</time></trkpt><trkpt lat="36.621973903998" lon="10.404401592995077"><ele>127.0</ele><time>2026-04-09T10:34:51Z</time></trkpt><trkpt lat="36.62211639797933" lon="10.404147760840099"><ele>129.5</ele><time>2026-04-09T10:34:52Z</time></trkpt><trkpt lat="36.62226053302368" lon="10.403889570435556"><ele>132.0</ele><time>2026-04-09T10:34:53Z</time></trkpt><trkpt lat="36.62240796236523" lon="10.403631298416764"><ele>132.0</ele><time>2026-04-09T10:34:54Z</time></trkpt><trkpt lat="36.62255889324392" lon="10.403367306615982"><ele>132.0</ele><time>2026-04-09T10:34:55Z</time></trkpt><trkpt lat="36.62271098074207" lon="10.403104345736635"><ele>132.5</ele><time>2026-04-09T10:34:56Z</time></trkpt><trkpt lat="36.62285944985213" lon="10.402852594083638"><ele>133.0</ele><time>2026-04-09T10:34:57Z</time></trkpt><trkpt lat="36.623000141430474" lon="10.40261246266278"><ele>133.0</ele><time>2026-04-09T10:34:58Z</time></trkpt><trkpt lat="36.623145783087" lon="10.402369865241905"><ele>133.0</ele><time>2026-04-09T10:34:59Z</time></trkpt><trkpt lat="36.62329416212364" lon="10.402123695088001"><ele>133.0</ele><time>2026-04-09T10:35:00Z</time></trkpt><trkpt lat="36.62344354341309" lon="10.401877318307045"><ele>133.0</ele><time>2026-04-09T10:35:01Z</time></trkpt><trkpt lat="36.62359571680751" lon="10.401623127158519"><ele>134.0</ele><time>2026-04-09T10:35:02Z</time></trkpt><trkpt lat="36.623747252249025" lon="10.401356759467808"><ele>135.0</ele><time>2026-04-09T10:35:02.999Z</time></trkpt><trkpt lat="36.623904624346075" lon="10.401080830807079"><ele>135.0</ele><time>2026-04-09T10:35:03.999Z</time></trkpt><trkpt lat="36.62407041820633" lon="10.400807203356237"><ele>135.0</ele><time>2026-04-09T10:35:04.999Z</time></trkpt><trkpt lat="36.62424250745857" lon="10.40053727497962"><ele>135.5</ele><time>2026-04-09T10:35:05.999Z</time></trkpt><trkpt lat="36.62441650926819" lon="10.400264125106652"><ele>136.0</ele><time>2026-04-09T10:35:06.999Z</time></trkpt><trkpt lat="36.624590100047534" lon="10.399994393097618"><ele>136.5</ele><time>2026-04-09T10:35:07.999Z</time></trkpt><trkpt lat="36.624765452443675" lon="10.3997207982137"><ele>137.0</ele><time>2026-04-09T10:35:08.999Z</time></trkpt><trkpt lat="36.624940623398594" lon="10.39944860963168"><ele>137.0</ele><time>2026-04-09T10:35:09.999Z</time></trkpt><trkpt lat="36.625119274516145" lon="10.39917501008924"><ele>137.0</ele><time>2026-04-09T10:35:10.999Z</time></trkpt><trkpt lat="36.625302247013956" lon="10.398904183052423"><ele>138.0</ele><time>2026-04-09T10:35:11.999Z</time></trkpt><trkpt lat="36.62548656045878" lon="10.398630954850056"><ele>139.0</ele><time>2026-04-09T10:35:12.999Z</time></trkpt><trkpt lat="36.62567208782847" lon="10.398359339499546"><ele>139.0</ele><time>2026-04-09T10:35:13.999Z</time></trkpt><trkpt lat="36.625860422258675" lon="10.398084479353253"><ele>139.0</ele><time>2026-04-09T10:35:14.999Z</time></trkpt><trkpt lat="36.62605153065911" lon="10.39781158172319"><ele>139.5</ele><time>2026-04-09T10:35:15.999Z</time></trkpt><trkpt lat="36.62624527662871" lon="10.397539213110306"><ele>140.0</ele><time>2026-04-09T10:35:16.999Z</time></trkpt><trkpt lat="36.62644094353454" lon="10.397265651254017"><ele>140.5</ele><time>2026-04-09T10:35:17.999Z</time></trkpt><trkpt lat="36.626635371844905" lon="10.396992236258699"><ele>141.0</ele><time>2026-04-09T10:35:18.999Z</time></trkpt><trkpt lat="36.62683253205929" lon="10.396715028655166"><ele>142.5</ele><time>2026-04-09T10:35:19.999Z</time></trkpt><trkpt lat="36.62703412807731" lon="10.396434907032397"><ele>144.0</ele><time>2026-04-09T10:35:20.999Z</time></trkpt><trkpt lat="36.6272392448951" lon="10.396152467045317"><ele>144.0</ele><time>2026-04-09T10:35:21.999Z</time></trkpt><trkpt lat="36.62744948777249" lon="10.395868574302561"><ele>144.0</ele><time>2026-04-09T10:35:22.999Z</time></trkpt><trkpt lat="36.627656999956706" lon="10.39558320886058"><ele>145.0</ele><time>2026-04-09T10:35:23.999Z</time></trkpt><trkpt lat="36.62786248047063" lon="10.395294589627"><ele>146.0</ele><time>2026-04-09T10:35:24.999Z</time></trkpt><trkpt lat="36.628070514424735" lon="10.39500766296803"><ele>146.0</ele><time>2026-04-09T10:35:25.999Z</time></trkpt><trkpt lat="36.62828121526672" lon="10.394724553359898"><ele>146.0</ele><time>2026-04-09T10:35:26.999Z</time></trkpt><trkpt lat="36.628494482916416" lon="10.394442128336559"><ele>147.0</ele><time>2026-04-09T10:35:27.999Z</time></trkpt><trkpt lat="36.628710031322925" lon="10.394154966690294"><ele>148.0</ele><time>2026-04-09T10:35:28.999Z</time></trkpt><trkpt lat="36.62893339133296" lon="10.393862722302902"><ele>148.0</ele><time>2026-04-09T10:35:29.999Z</time></trkpt><trkpt lat="36.629157598845744" lon="10.393564531312808"><ele>148.0</ele><time>2026-04-09T10:35:30.999Z</time></trkpt><trkpt lat="36.62938748311175" lon="10.393257082815923"><ele>148.5</ele><time>2026-04-09T10:35:31.999Z</time></trkpt><trkpt lat="36.629618999244265" lon="10.392936184414994"><ele>149.0</ele><time>2026-04-09T10:35:32.999Z</time></trkpt><trkpt lat="36.62984543210035" lon="10.392628637828317"><ele>149.0</ele><time>2026-04-09T10:35:33.999Z</time></trkpt><trkpt lat="36.63006687817025" lon="10.392328857505094"><ele>149.0</ele><time>2026-04-09T10:35:34.999Z</time></trkpt><trkpt lat="36.63028805748581" lon="10.392034321050787"><ele>151.5</ele><time>2026-04-09T10:35:35.999Z</time></trkpt><trkpt lat="36.630507886125514" lon="10.391741041844634"><ele>154.0</ele><time>2026-04-09T10:35:36.999Z</time></trkpt><trkpt lat="36.63072601509551" lon="10.391447131832125"><ele>153.5</ele><time>2026-04-09T10:35:37.999Z</time></trkpt><trkpt lat="36.63094382074542" lon="10.391151375086435"><ele>153.0</ele><time>2026-04-09T10:35:38.999Z</time></trkpt><trkpt lat="36.631157589972766" lon="10.390854641447042"><ele>153.5</ele><time>2026-04-09T10:35:39.999Z</time></trkpt><trkpt lat="36.63136604870609" lon="10.390560366882786"><ele>154.0</ele><time>2026-04-09T10:35:40.999Z</time></trkpt><trkpt lat="36.63156890282862" lon="10.390276723762172"><ele>154.0</ele><time>2026-04-09T10:35:41.999Z</time></trkpt><trkpt lat="36.631769321411845" lon="10.389995389649567"><ele>154.0</ele><time>2026-04-09T10:35:42.999Z</time></trkpt><trkpt lat="36.63195984645763" lon="10.389722488809317"><ele>155.0</ele><time>2026-04-09T10:35:43.999Z</time></trkpt><trkpt lat="36.63214117115692" lon="10.38946062182421"><ele>156.0</ele><time>2026-04-09T10:35:44.999Z</time></trkpt><trkpt lat="36.63231427420841" lon="10.389201633204893"><ele>156.0</ele><time>2026-04-09T10:35:45.999Z</time></trkpt><trkpt lat="36.63248807846912" lon="10.388943485906132"><ele>156.0</ele><time>2026-04-09T10:35:46.999Z</time></trkpt><trkpt lat="36.6326623481719" lon="10.388681797648976"><ele>158.5</ele><time>2026-04-09T10:35:48Z</time></trkpt><trkpt lat="36.632835923719384" lon="10.388417728282159"><ele>161.0</ele><time>2026-04-09T10:35:49Z</time></trkpt><trkpt lat="36.63300786893372" lon="10.388153647114919"><ele>160.5</ele><time>2026-04-09T10:35:50Z</time></trkpt><trkpt lat="36.63317670854387" lon="10.387886283367003"><ele>160.0</ele><time>2026-04-09T10:35:51Z</time></trkpt><trkpt lat="36.63334731586035" lon="10.387610085609685"><ele>160.0</ele><time>2026-04-09T10:35:52Z</time></trkpt><trkpt lat="36.6335201247442" lon="10.387329080681683"><ele>160.0</ele><time>2026-04-09T10:35:53Z</time></trkpt><trkpt lat="36.63369192789725" lon="10.387052264015285"><ele>161.5</ele><time>2026-04-09T10:35:54Z</time></trkpt><trkpt lat="36.63386404586053" lon="10.386771320698243"><ele>163.0</ele><time>2026-04-09T10:35:55Z</time></trkpt><trkpt lat="36.634032938943" lon="10.386491681349117"><ele>163.0</ele><time>2026-04-09T10:35:56Z</time></trkpt><trkpt lat="36.6341981212495" lon="10.386209103284378"><ele>163.0</ele><time>2026-04-09T10:35:57Z</time></trkpt><trkpt lat="36.634360361174025" lon="10.385929404866303"><ele>165.5</ele><time>2026-04-09T10:35:58Z</time></trkpt><trkpt lat="36.63452368255662" lon="10.385649386926444"><ele>168.0</ele><time>2026-04-09T10:35:59Z</time></trkpt><trkpt lat="36.63468948518946" lon="10.385372443915747"><ele>168.0</ele><time>2026-04-09T10:36:00Z</time></trkpt><trkpt lat="36.63485222617841" lon="10.385095300274088"><ele>168.0</ele><time>2026-04-09T10:36:01Z</time></trkpt><trkpt lat="36.63501421557204" lon="10.384815699544948"><ele>168.5</ele><time>2026-04-09T10:36:02Z</time></trkpt><trkpt lat="36.6351779602123" lon="10.3845322215111"><ele>169.0</ele><time>2026-04-09T10:36:03Z</time></trkpt><trkpt lat="36.63534183437281" lon="10.384250839839174"><ele>171.0</ele><time>2026-04-09T10:36:04Z</time></trkpt><trkpt lat="36.63550679573804" lon="10.383964952687204"><ele>173.0</ele><time>2026-04-09T10:36:05Z</time></trkpt><trkpt lat="36.63566607146893" lon="10.38367874757285"><ele>173.5</ele><time>2026-04-09T10:36:06Z</time></trkpt><trkpt lat="36.63582615349543" lon="10.38338996869834"><ele>174.0</ele><time>2026-04-09T10:36:07Z</time></trkpt><trkpt lat="36.63598264926434" lon="10.383107201871908"><ele>176.0</ele><time>2026-04-09T10:36:08Z</time></trkpt><trkpt lat="36.63613933998058" lon="10.382821450444196"><ele>178.0</ele><time>2026-04-09T10:36:09Z</time></trkpt><trkpt lat="36.636293632110146" lon="10.382538941675719"><ele>178.0</ele><time>2026-04-09T10:36:10Z</time></trkpt><trkpt lat="36.636449088316766" lon="10.38225274273908"><ele>178.0</ele><time>2026-04-09T10:36:11Z</time></trkpt><trkpt lat="36.63660419017027" lon="10.381964015430372"><ele>179.5</ele><time>2026-04-09T10:36:12Z</time></trkpt><trkpt lat="36.63675848466257" lon="10.381674587027055"><ele>181.0</ele><time>2026-04-09T10:36:13Z</time></trkpt><trkpt lat="36.63691302233385" lon="10.381380560078584"><ele>182.5</ele><time>2026-04-09T10:36:14Z</time></trkpt><trkpt lat="36.63706610536996" lon="10.381088160791682"><ele>184.0</ele><time>2026-04-09T10:36:15Z</time></trkpt><trkpt lat="36.63721713547882" lon="10.380795798312976"><ele>186.0</ele><time>2026-04-09T10:36:16Z</time></trkpt><trkpt lat="36.63736696224658" lon="10.38050737846336"><ele>188.0</ele><time>2026-04-09T10:36:17Z</time></trkpt><trkpt lat="36.637512596940276" lon="10.380226053397411"><ele>188.0</ele><time>2026-04-09T10:36:18Z</time></trkpt><trkpt lat="36.6376550069377" lon="10.379954783151724"><ele>188.0</ele><time>2026-04-09T10:36:19Z</time></trkpt><trkpt lat="36.637794247738555" lon="10.379688870375833"><ele>190.0</ele><time>2026-04-09T10:36:20Z</time></trkpt><trkpt lat="36.637933306528595" lon="10.379427402793832"><ele>192.0</ele><time>2026-04-09T10:36:21Z</time></trkpt><trkpt lat="36.638077197509205" lon="10.379169553886461"><ele>192.0</ele><time>2026-04-09T10:36:22Z</time></trkpt><trkpt lat="36.63822912285352" lon="10.378915978349692"><ele>192.0</ele><time>2026-04-09T10:36:23Z</time></trkpt><trkpt lat="36.638386207173745" lon="10.378660525122148"><ele>193.5</ele><time>2026-04-09T10:36:24Z</time></trkpt><trkpt lat="36.638547104474256" lon="10.378404764616056"><ele>195.0</ele><time>2026-04-09T10:36:25Z</time></trkpt><trkpt lat="36.63871527392336" lon="10.378149982157671"><ele>196.0</ele><time>2026-04-09T10:36:26Z</time></trkpt><trkpt lat="36.63889633932692" lon="10.37790157151331"><ele>197.0</ele><time>2026-04-09T10:36:27Z</time></trkpt><trkpt lat="36.639086041538874" lon="10.37765311122037"><ele>197.0</ele><time>2026-04-09T10:36:28Z</time></trkpt><trkpt lat="36.6392827499127" lon="10.37740524351728"><ele>197.0</ele><time>2026-04-09T10:36:29Z</time></trkpt><trkpt lat="36.63949069042678" lon="10.377163578955491"><ele>197.0</ele><time>2026-04-09T10:36:30Z</time></trkpt><trkpt lat="36.63970991310571" lon="10.376928563332562"><ele>197.0</ele><time>2026-04-09T10:36:31Z</time></trkpt><trkpt lat="36.63993510287217" lon="10.376701353240577"><ele>197.0</ele><time>2026-04-09T10:36:32Z</time></trkpt><trkpt lat="36.64016847795382" lon="10.376484201483727"><ele>197.0</ele><time>2026-04-09T10:36:33Z</time></trkpt><trkpt lat="36.64039989667118" lon="10.376280020677388"><ele>197.0</ele><time>2026-04-09T10:36:34Z</time></trkpt><trkpt lat="36.64062198619133" lon="10.376086038310707"><ele>197.0</ele><time>2026-04-09T10:36:35Z</time></trkpt><trkpt lat="36.64083817005349" lon="10.375894532105256"><ele>197.0</ele><time>2026-04-09T10:36:36Z</time></trkpt><trkpt lat="36.64105655570504" lon="10.375708562518348"><ele>197.0</ele><time>2026-04-09T10:36:37Z</time></trkpt><trkpt lat="36.64128269644669" lon="10.375523523916044"><ele>196.5</ele><time>2026-04-09T10:36:38Z</time></trkpt><trkpt lat="36.641512053236994" lon="10.375342291221047"><ele>196.0</ele><time>2026-04-09T10:36:39Z</time></trkpt><trkpt lat="36.64174088556402" lon="10.37516064003218"><ele>196.0</ele><time>2026-04-09T10:36:40Z</time></trkpt><trkpt lat="36.64196362799469" lon="10.37497608423117"><ele>196.0</ele><time>2026-04-09T10:36:41Z</time></trkpt><trkpt lat="36.64217894003495" lon="10.3747862782028"><ele>195.0</ele><time>2026-04-09T10:36:42Z</time></trkpt><trkpt lat="36.64239244998262" lon="10.374586626804733"><ele>194.0</ele><time>2026-04-09T10:36:43Z</time></trkpt><trkpt lat="36.64260310156181" lon="10.374371246655627"><ele>192.5</ele><time>2026-04-09T10:36:44Z</time></trkpt><trkpt lat="36.64281305697592" lon="10.37413768045692"><ele>191.0</ele><time>2026-04-09T10:36:45Z</time></trkpt><trkpt lat="36.643019079954506" lon="10.373894307471465"><ele>189.5</ele><time>2026-04-09T10:36:46Z</time></trkpt><trkpt lat="36.64322213280575" lon="10.373646340640832"><ele>188.0</ele><time>2026-04-09T10:36:47Z</time></trkpt><trkpt lat="36.64341975569453" lon="10.373390252133728"><ele>188.0</ele><time>2026-04-09T10:36:48Z</time></trkpt><trkpt lat="36.643612195271764" lon="10.373129827420183"><ele>188.0</ele><time>2026-04-09T10:36:49Z</time></trkpt><trkpt lat="36.643786601799384" lon="10.372872192205858"><ele>185.0</ele><time>2026-04-09T10:36:50Z</time></trkpt><trkpt lat="36.643944031201976" lon="10.372619017568761"><ele>182.0</ele><time>2026-04-09T10:36:51Z</time></trkpt><trkpt lat="36.64409106194789" lon="10.37236827866782"><ele>179.5</ele><time>2026-04-09T10:36:52Z</time></trkpt><trkpt lat="36.64422976450841" lon="10.372112700619098"><ele>177.0</ele><time>2026-04-09T10:36:53Z</time></trkpt><trkpt lat="36.644365885296175" lon="10.37185478628672"><ele>177.5</ele><time>2026-04-09T10:36:54Z</time></trkpt><trkpt lat="36.644499440573405" lon="10.37158954518581"><ele>178.0</ele><time>2026-04-09T10:36:55Z</time></trkpt><trkpt lat="36.64462502282229" lon="10.371318749123873"><ele>176.0</ele><time>2026-04-09T10:36:56Z</time></trkpt><trkpt lat="36.644746168085966" lon="10.371041842208164"><ele>174.0</ele><time>2026-04-09T10:36:57Z</time></trkpt><trkpt lat="36.64486206714183" lon="10.370763126339977"><ele>172.0</ele><time>2026-04-09T10:36:58Z</time></trkpt><trkpt lat="36.64496950675376" lon="10.370480137121156"><ele>170.0</ele><time>2026-04-09T10:36:59Z</time></trkpt><trkpt lat="36.64507046183018" lon="10.370196115570291"><ele>170.0</ele><time>2026-04-09T10:37:00Z</time></trkpt><trkpt lat="36.64516226796424" lon="10.369909482685417"><ele>170.0</ele><time>2026-04-09T10:37:01Z</time></trkpt><trkpt lat="36.64524716306159" lon="10.36962150286205"><ele>166.5</ele><time>2026-04-09T10:37:02Z</time></trkpt><trkpt lat="36.645329070188474" lon="10.369329674851704"><ele>163.0</ele><time>2026-04-09T10:37:03Z</time></trkpt><trkpt lat="36.64540292478683" lon="10.369033384298836"><ele>161.0</ele><time>2026-04-09T10:37:04Z</time></trkpt><trkpt lat="36.645467225179274" lon="10.368736873500794"><ele>159.0</ele><time>2026-04-09T10:37:05Z</time></trkpt><trkpt lat="36.64552733888991" lon="10.36843801372415"><ele>159.0</ele><time>2026-04-09T10:37:06Z</time></trkpt><trkpt lat="36.64557994096786" lon="10.368136491534223"><ele>159.0</ele><time>2026-04-09T10:37:06.999Z</time></trkpt><trkpt lat="36.645626629714116" lon="10.367835977455895"><ele>157.5</ele><time>2026-04-09T10:37:07.999Z</time></trkpt><trkpt lat="36.64566598344737" lon="10.367529964720024"><ele>156.0</ele><time>2026-04-09T10:37:08.999Z</time></trkpt><trkpt lat="36.64570384347357" lon="10.36722723135931"><ele>154.0</ele><time>2026-04-09T10:37:09.999Z</time></trkpt><trkpt lat="36.645742024500095" lon="10.366926508259938"><ele>152.0</ele><time>2026-04-09T10:37:10.999Z</time></trkpt><trkpt lat="36.64578173790796" lon="10.366620809947705"><ele>150.0</ele><time>2026-04-09T10:37:11.999Z</time></trkpt><trkpt lat="36.645820929087506" lon="10.366316817770379"><ele>148.0</ele><time>2026-04-09T10:37:12.999Z</time></trkpt><trkpt lat="36.645858414450736" lon="10.366012832971679"><ele>148.0</ele><time>2026-04-09T10:37:13.999Z</time></trkpt><trkpt lat="36.64589400948081" lon="10.36571166710334"><ele>148.0</ele><time>2026-04-09T10:37:14.999Z</time></trkpt><trkpt lat="36.64593108259563" lon="10.365409853426948"><ele>146.0</ele><time>2026-04-09T10:37:15.999Z</time></trkpt><trkpt lat="36.64597095284821" lon="10.365117660613981"><ele>144.0</ele><time>2026-04-09T10:37:16.999Z</time></trkpt><trkpt lat="36.64601352495097" lon="10.364834900324754"><ele>143.66666666666666</ele><time>2026-04-09T10:37:17.999Z</time></trkpt><trkpt lat="36.64605918871605" lon="10.364555172926877"><ele>143.33333333333331</ele><time>2026-04-09T10:37:18.999Z</time></trkpt><trkpt lat="36.64610241481297" lon="10.364288030222314"><ele>143.0</ele><time>2026-04-09T10:37:19.999Z</time></trkpt><trkpt lat="36.64614759981075" lon="10.364020343340698"><ele>141.0</ele><time>2026-04-09T10:37:20.999Z</time></trkpt><trkpt lat="36.646219144144574" lon="10.363714026653362"><ele>139.0</ele><time>2026-04-09T10:37:21.999Z</time></trkpt><trkpt lat="36.646289122247985" lon="10.363421882520221"><ele>139.0</ele><time>2026-04-09T10:37:22.999Z</time></trkpt><trkpt lat="36.646367837056964" lon="10.363127921824505"><ele>139.0</ele><time>2026-04-09T10:37:23.999Z</time></trkpt><trkpt lat="36.64645300358832" lon="10.362829855881763"><ele>139.5</ele><time>2026-04-09T10:37:24.999Z</time></trkpt><trkpt lat="36.646540475269646" lon="10.362528179115863"><ele>140.0</ele><time>2026-04-09T10:37:25.999Z</time></trkpt><trkpt lat="36.64663707956011" lon="10.362219580835594"><ele>139.0</ele><time>2026-04-09T10:37:26.999Z</time></trkpt><trkpt lat="36.64674404758369" lon="10.361903233896392"><ele>138.0</ele><time>2026-04-09T10:37:27.999Z</time></trkpt><trkpt lat="36.64686488109984" lon="10.361577646933604"><ele>141.0</ele><time>2026-04-09T10:37:28.999Z</time></trkpt><trkpt lat="36.64699738588338" lon="10.361237181414639"><ele>144.0</ele><time>2026-04-09T10:37:29.999Z</time></trkpt><trkpt lat="36.647135201080566" lon="10.36090076093725"><ele>144.0</ele><time>2026-04-09T10:37:30.999Z</time></trkpt><trkpt lat="36.64727545619175" lon="10.360569069781292"><ele>144.0</ele><time>2026-04-09T10:37:31.999Z</time></trkpt><trkpt lat="36.64741891244872" lon="10.360242097408781"><ele>139.5</ele><time>2026-04-09T10:37:32.999Z</time></trkpt><trkpt lat="36.647564159977875" lon="10.35992162824674"><ele>135.0</ele><time>2026-04-09T10:37:33.999Z</time></trkpt><trkpt lat="36.647707809972935" lon="10.359600817801795"><ele>138.5</ele><time>2026-04-09T10:37:34.999Z</time></trkpt><trkpt lat="36.647847618019654" lon="10.359287722308162"><ele>142.0</ele><time>2026-04-09T10:37:35.999Z</time></trkpt><trkpt lat="36.64798357186912" lon="10.358982081724763"><ele>139.5</ele><time>2026-04-09T10:37:36.999Z</time></trkpt><trkpt lat="36.64812131839675" lon="10.358682262643804"><ele>137.0</ele><time>2026-04-09T10:37:37.999Z</time></trkpt><trkpt lat="36.64825681846651" lon="10.358386780195119"><ele>137.0</ele><time>2026-04-09T10:37:38.999Z</time></trkpt><trkpt lat="36.64838726129288" lon="10.358089771675791"><ele>137.0</ele><time>2026-04-09T10:37:39.999Z</time></trkpt><trkpt lat="36.64851936336154" lon="10.357794368747363"><ele>137.0</ele><time>2026-04-09T10:37:40.999Z</time></trkpt><trkpt lat="36.64865265109281" lon="10.357496983236723"><ele>137.0</ele><time>2026-04-09T10:37:41.999Z</time></trkpt><trkpt lat="36.64878415277697" lon="10.357199803635547"><ele>137.0</ele><time>2026-04-09T10:37:42.999Z</time></trkpt><trkpt lat="36.648920980367315" lon="10.356900629447411"><ele>137.0</ele><time>2026-04-09T10:37:43.999Z</time></trkpt><trkpt lat="36.64906037971996" lon="10.356602293721538"><ele>135.5</ele><time>2026-04-09T10:37:44.999Z</time></trkpt><trkpt lat="36.649208717910035" lon="10.35630479402637"><ele>134.0</ele><time>2026-04-09T10:37:45.999Z</time></trkpt><trkpt lat="36.64936171047231" lon="10.356009758435123"><ele>136.0</ele><time>2026-04-09T10:37:46.999Z</time></trkpt><trkpt lat="36.64951763315609" lon="10.35572029737325"><ele>138.0</ele><time>2026-04-09T10:37:47.999Z</time></trkpt><trkpt lat="36.64967858786033" lon="10.355427925455954"><ele>138.0</ele><time>2026-04-09T10:37:48.999Z</time></trkpt><trkpt lat="36.64984160095708" lon="10.355137717166354"><ele>138.0</ele><time>2026-04-09T10:37:49.999Z</time></trkpt><trkpt lat="36.650006678069175" lon="10.3548517863484"><ele>137.0</ele><time>2026-04-09T10:37:50.999Z</time></trkpt><trkpt lat="36.65018111908476" lon="10.354571798908406"><ele>136.0</ele><time>2026-04-09T10:37:51.999Z</time></trkpt><trkpt lat="36.650363889012176" lon="10.35430079700914"><ele>136.0</ele><time>2026-04-09T10:37:53Z</time></trkpt><trkpt lat="36.65054881619099" lon="10.354031352444958"><ele>136.0</ele><time>2026-04-09T10:37:54Z</time></trkpt><trkpt lat="36.65073741941853" lon="10.353769323039204"><ele>136.5</ele><time>2026-04-09T10:37:55Z</time></trkpt><trkpt lat="36.65093121993527" lon="10.353513021167895"><ele>137.0</ele><time>2026-04-09T10:37:56Z</time></trkpt><trkpt lat="36.65112753677467" lon="10.35326409024035"><ele>135.0</ele><time>2026-04-09T10:37:57Z</time></trkpt><trkpt lat="36.65132915191318" lon="10.353018680132012"><ele>133.0</ele><time>2026-04-09T10:37:58Z</time></trkpt><trkpt lat="36.651534989692216" lon="10.35278197985985"><ele>133.0</ele><time>2026-04-09T10:37:59Z</time></trkpt><trkpt lat="36.651743737372165" lon="10.352556633038146"><ele>133.0</ele><time>2026-04-09T10:38:00Z</time></trkpt><trkpt lat="36.651954788915546" lon="10.352335777715068"><ele>133.0</ele><time>2026-04-09T10:38:01Z</time></trkpt><trkpt lat="36.65216648190496" lon="10.352127810298988"><ele>133.0</ele><time>2026-04-09T10:38:02Z</time></trkpt><trkpt lat="36.65237437969483" lon="10.35192430263613"><ele>133.0</ele><time>2026-04-09T10:38:03Z</time></trkpt><trkpt lat="36.652584671682696" lon="10.351722362018409"><ele>133.0</ele><time>2026-04-09T10:38:04Z</time></trkpt><trkpt lat="36.652795011461436" lon="10.351526571083076"><ele>132.5</ele><time>2026-04-09T10:38:05Z</time></trkpt><trkpt lat="36.65300858678984" lon="10.35132848692289"><ele>132.0</ele><time>2026-04-09T10:38:06Z</time></trkpt><trkpt lat="36.65322564684184" lon="10.35112903193024"><ele>132.0</ele><time>2026-04-09T10:38:07Z</time></trkpt><trkpt lat="36.65344939954756" lon="10.350930936031666"><ele>132.0</ele><time>2026-04-09T10:38:08Z</time></trkpt><trkpt lat="36.653682807786176" lon="10.350734483950896"><ele>131.5</ele><time>2026-04-09T10:38:09Z</time></trkpt><trkpt lat="36.65392229223452" lon="10.35053115676717"><ele>131.0</ele><time>2026-04-09T10:38:10Z</time></trkpt><trkpt lat="36.654170088211316" lon="10.350320792128135"><ele>131.0</ele><time>2026-04-09T10:38:11Z</time></trkpt><trkpt lat="36.65442389701715" lon="10.350111063889518"><ele>131.0</ele><time>2026-04-09T10:38:12Z</time></trkpt><trkpt lat="36.654685489144754" lon="10.34990158622354"><ele>130.0</ele><time>2026-04-09T10:38:13Z</time></trkpt><trkpt lat="36.65495387988096" lon="10.3496867072581"><ele>129.0</ele><time>2026-04-09T10:38:14Z</time></trkpt><trkpt lat="36.65521770812937" lon="10.34946746851701"><ele>130.0</ele><time>2026-04-09T10:38:15Z</time></trkpt><trkpt lat="36.65548334988688" lon="10.349248812260434"><ele>131.0</ele><time>2026-04-09T10:38:16Z</time></trkpt><trkpt lat="36.65575544475942" lon="10.349029411446546"><ele>129.5</ele><time>2026-04-09T10:38:17Z</time></trkpt><trkpt lat="36.6560290239848" lon="10.348808411967445"><ele>128.0</ele><time>2026-04-09T10:38:18Z</time></trkpt><trkpt lat="36.656302516090435" lon="10.348586152470022"><ele>128.0</ele><time>2026-04-09T10:38:19Z</time></trkpt><trkpt lat="36.65657585469205" lon="10.348364031450043"><ele>128.0</ele><time>2026-04-09T10:38:20Z</time></trkpt><trkpt lat="36.656848651437244" lon="10.348142859662369"><ele>128.0</ele><time>2026-04-09T10:38:21Z</time></trkpt><trkpt lat="36.65711711322615" lon="10.347925137843243"><ele>128.0</ele><time>2026-04-09T10:38:22Z</time></trkpt><trkpt lat="36.6573848491736" lon="10.347706174887582"><ele>128.0</ele><time>2026-04-09T10:38:23Z</time></trkpt><trkpt lat="36.657649930332894" lon="10.347488990935675"><ele>128.0</ele><time>2026-04-09T10:38:24Z</time></trkpt><trkpt lat="36.65791037528216" lon="10.347276600285314"><ele>126.5</ele><time>2026-04-09T10:38:25Z</time></trkpt><trkpt lat="36.658166299334475" lon="10.34706468070851"><ele>125.0</ele><time>2026-04-09T10:38:26Z</time></trkpt><trkpt lat="36.65841828645657" lon="10.346858728979667"><ele>126.5</ele><time>2026-04-09T10:38:27Z</time></trkpt><trkpt lat="36.658668550789294" lon="10.346658449437014"><ele>128.0</ele><time>2026-04-09T10:38:28Z</time></trkpt><trkpt lat="36.65891592862003" lon="10.346460100231523"><ele>126.0</ele><time>2026-04-09T10:38:29Z</time></trkpt><trkpt lat="36.65916076434926" lon="10.346263496165328"><ele>124.0</ele><time>2026-04-09T10:38:30Z</time></trkpt><trkpt lat="36.65940274809125" lon="10.346073398825672"><ele>125.0</ele><time>2026-04-09T10:38:31Z</time></trkpt><trkpt lat="36.65963229599576" lon="10.345886140937825"><ele>126.0</ele><time>2026-04-09T10:38:32Z</time></trkpt><trkpt lat="36.65985982119672" lon="10.345699345365"><ele>125.0</ele><time>2026-04-09T10:38:33Z</time></trkpt><trkpt lat="36.660085647219574" lon="10.345511221771003"><ele>124.0</ele><time>2026-04-09T10:38:34Z</time></trkpt><trkpt lat="36.660306541274956" lon="10.345329895629815"><ele>124.0</ele><time>2026-04-09T10:38:35Z</time></trkpt><trkpt lat="36.66052485687708" lon="10.345152249599135"><ele>124.0</ele><time>2026-04-09T10:38:36Z</time></trkpt><trkpt lat="36.66073923983376" lon="10.344977243227229"><ele>124.0</ele><time>2026-04-09T10:38:37Z</time></trkpt><trkpt lat="36.660950839352154" lon="10.34480103876299"><ele>124.0</ele><time>2026-04-09T10:38:38Z</time></trkpt><trkpt lat="36.66116114613676" lon="10.344626283937098"><ele>124.0</ele><time>2026-04-09T10:38:39Z</time></trkpt><trkpt lat="36.661368838953784" lon="10.344452592581481"><ele>124.0</ele><time>2026-04-09T10:38:40Z</time></trkpt><trkpt lat="36.66157857010398" lon="10.3442757124884"><ele>124.0</ele><time>2026-04-09T10:38:41Z</time></trkpt><trkpt lat="36.661794383973756" lon="10.344096128653758"><ele>124.0</ele><time>2026-04-09T10:38:42Z</time></trkpt><trkpt lat="36.662015673121594" lon="10.34391202916046"><ele>125.0</ele><time>2026-04-09T10:38:43Z</time></trkpt><trkpt lat="36.6622417455034" lon="10.343723359065574"><ele>126.0</ele><time>2026-04-09T10:38:44Z</time></trkpt><trkpt lat="36.66247093985247" lon="10.343528117837655"><ele>126.0</ele><time>2026-04-09T10:38:45Z</time></trkpt><trkpt lat="36.662705887393656" lon="10.343323407797548"><ele>126.0</ele><time>2026-04-09T10:38:46Z</time></trkpt><trkpt lat="36.662945275401526" lon="10.343113949468357"><ele>125.5</ele><time>2026-04-09T10:38:47Z</time></trkpt><trkpt lat="36.66318641052527" lon="10.342899922514341"><ele>125.0</ele><time>2026-04-09T10:38:48Z</time></trkpt><trkpt lat="36.66342964111876" lon="10.342680164990771"><ele>126.0</ele><time>2026-04-09T10:38:49Z</time></trkpt><trkpt lat="36.66367130228477" lon="10.342457017633157"><ele>127.0</ele><time>2026-04-09T10:38:50Z</time></trkpt><trkpt lat="36.66391671279047" lon="10.34222987752612"><ele>124.5</ele><time>2026-04-09T10:38:51Z</time></trkpt><trkpt lat="36.664161763516965" lon="10.342000477600497"><ele>122.0</ele><time>2026-04-09T10:38:52Z</time></trkpt><trkpt lat="36.66440110095346" lon="10.341780168526677"><ele>122.0</ele><time>2026-04-09T10:38:53Z</time></trkpt><trkpt lat="36.66463828798244" lon="10.341562549556816"><ele>122.0</ele><time>2026-04-09T10:38:54Z</time></trkpt><trkpt lat="36.66487345841745" lon="10.34134005652878"><ele>122.0</ele><time>2026-04-09T10:38:55Z</time></trkpt><trkpt lat="36.66510401981868" lon="10.341118500180405"><ele>122.0</ele><time>2026-04-09T10:38:56Z</time></trkpt><trkpt lat="36.66532959603834" lon="10.340896232760363"><ele>121.0</ele><time>2026-04-09T10:38:57Z</time></trkpt><trkpt lat="36.66555075520436" lon="10.34067245915109"><ele>120.0</ele><time>2026-04-09T10:38:58Z</time></trkpt><trkpt lat="36.66576549714032" lon="10.34044858181417"><ele>119.5</ele><time>2026-04-09T10:38:59Z</time></trkpt><trkpt lat="36.66597791774573" lon="10.340225774713133"><ele>119.0</ele><time>2026-04-09T10:39:00Z</time></trkpt><trkpt lat="36.666186928919906" lon="10.340010770720339"><ele>119.0</ele><time>2026-04-09T10:39:01Z</time></trkpt><trkpt lat="36.66638886923161" lon="10.339799068143128"><ele>119.0</ele><time>2026-04-09T10:39:02Z</time></trkpt><trkpt lat="36.66658960586642" lon="10.339587756503423"><ele>118.0</ele><time>2026-04-09T10:39:03Z</time></trkpt><trkpt lat="36.66678889397161" lon="10.339371984391503"><ele>117.0</ele><time>2026-04-09T10:39:04Z</time></trkpt><trkpt lat="36.66698283434735" lon="10.339155113784196"><ele>115.0</ele><time>2026-04-09T10:39:05Z</time></trkpt><trkpt lat="36.66716644833213" lon="10.338941986386546"><ele>113.0</ele><time>2026-04-09T10:39:05.999Z</time></trkpt><trkpt lat="36.66734988289743" lon="10.338729670985012"><ele>112.0</ele><time>2026-04-09T10:39:06.999Z</time></trkpt><trkpt lat="36.66753403436541" lon="10.338515234171151"><ele>111.0</ele><time>2026-04-09T10:39:07.999Z</time></trkpt><trkpt lat="36.66771589928273" lon="10.338294655567575"><ele>111.0</ele><time>2026-04-09T10:39:08.999Z</time></trkpt><trkpt lat="36.66789598086081" lon="10.338069745228074"><ele>111.0</ele><time>2026-04-09T10:39:09.999Z</time></trkpt><trkpt lat="36.66807178228852" lon="10.337841101582702"><ele>109.0</ele><time>2026-04-09T10:39:10.999Z</time></trkpt><trkpt lat="36.668249346571876" lon="10.337612890651563"><ele>107.0</ele><time>2026-04-09T10:39:11.999Z</time></trkpt><trkpt lat="36.668422880263435" lon="10.337382978761028"><ele>106.0</ele><time>2026-04-09T10:39:12.999Z</time></trkpt><trkpt lat="36.66859141604425" lon="10.337156778967852"><ele>105.0</ele><time>2026-04-09T10:39:13.999Z</time></trkpt><trkpt lat="36.668760745885535" lon="10.336932810886017"><ele>105.0</ele><time>2026-04-09T10:39:14.999Z</time></trkpt><trkpt lat="36.66893091787917" lon="10.336704654298758"><ele>105.0</ele><time>2026-04-09T10:39:15.999Z</time></trkpt><trkpt lat="36.669102854962055" lon="10.336471858392427"><ele>104.0</ele><time>2026-04-09T10:39:16.999Z</time></trkpt><trkpt lat="36.669273596382155" lon="10.336228642113586"><ele>103.0</ele><time>2026-04-09T10:39:17.999Z</time></trkpt><trkpt lat="36.669446646277635" lon="10.335982471625892"><ele>103.0</ele><time>2026-04-09T10:39:18.999Z</time></trkpt><trkpt lat="36.669624026301456" lon="10.335737150519948"><ele>103.0</ele><time>2026-04-09T10:39:19.999Z</time></trkpt><trkpt lat="36.669801133018325" lon="10.335487646222122"><ele>101.0</ele><time>2026-04-09T10:39:20.999Z</time></trkpt><trkpt lat="36.66997620451713" lon="10.335231445335387"><ele>99.0</ele><time>2026-04-09T10:39:21.999Z</time></trkpt><trkpt lat="36.670150722427024" lon="10.33497687391585"><ele>99.5</ele><time>2026-04-09T10:39:22.999Z</time></trkpt><trkpt lat="36.670326216362184" lon="10.33472891406802"><ele>100.0</ele><time>2026-04-09T10:39:23.999Z</time></trkpt><trkpt lat="36.67049771796119" lon="10.334491751022314"><ele>100.0</ele><time>2026-04-09T10:39:24.999Z</time></trkpt><trkpt lat="36.67066175550267" lon="10.334261627420936"><ele>100.0</ele><time>2026-04-09T10:39:25.999Z</time></trkpt><trkpt lat="36.67081941521777" lon="10.33403936636003"><ele>99.0</ele><time>2026-04-09T10:39:26.999Z</time></trkpt><trkpt lat="36.67097540294725" lon="10.333825895825473"><ele>98.0</ele><time>2026-04-09T10:39:27.999Z</time></trkpt><trkpt lat="36.67112742968311" lon="10.33361738571932"><ele>98.0</ele><time>2026-04-09T10:39:28.999Z</time></trkpt><trkpt lat="36.67127567297717" lon="10.333410258527776"><ele>98.0</ele><time>2026-04-09T10:39:29.999Z</time></trkpt><trkpt lat="36.67142491947999" lon="10.333205473598063"><ele>98.0</ele><time>2026-04-09T10:39:30.999Z</time></trkpt><trkpt lat="36.67156944006739" lon="10.333008091946052"><ele>97.66666666666666</ele><time>2026-04-09T10:39:31.999Z</time></trkpt><trkpt lat="36.67170832345692" lon="10.332814448242818"><ele>97.33333333333334</ele><time>2026-04-09T10:39:32.999Z</time></trkpt><trkpt lat="36.671843020721376" lon="10.33262965902579"><ele>97.0</ele><time>2026-04-09T10:39:33.999Z</time></trkpt><trkpt lat="36.67197661406681" lon="10.332449907841431"><ele>97.0</ele><time>2026-04-09T10:39:34.999Z</time></trkpt><trkpt lat="36.672110018452514" lon="10.33226846914695"><ele>97.0</ele><time>2026-04-09T10:39:35.999Z</time></trkpt><trkpt lat="36.672238832442694" lon="10.332090341989888"><ele>97.0</ele><time>2026-04-09T10:39:36.999Z</time></trkpt><trkpt lat="36.672360429417104" lon="10.331917905569634"><ele>96.0</ele><time>2026-04-09T10:39:37.999Z</time></trkpt><trkpt lat="36.672479002453194" lon="10.331751667311977"><ele>95.0</ele><time>2026-04-09T10:39:38.999Z</time></trkpt><trkpt lat="36.672604004818886" lon="10.331586724337555"><ele>94.0</ele><time>2026-04-09T10:39:39.999Z</time></trkpt><trkpt lat="36.67272601034139" lon="10.331423052801675"><ele>94.33333333333333</ele><time>2026-04-09T10:39:40.999Z</time></trkpt><trkpt lat="36.67285038765444" lon="10.331264084191227"><ele>94.66666666666667</ele><time>2026-04-09T10:39:41.999Z</time></trkpt><trkpt lat="36.67297456373002" lon="10.331106081947237"><ele>95.0</ele><time>2026-04-09T10:39:42.999Z</time></trkpt><trkpt lat="36.67309605034916" lon="10.33094490411564"><ele>95.0</ele><time>2026-04-09T10:39:43.999Z</time></trkpt><trkpt lat="36.67321321924538" lon="10.330781863914602"><ele>95.0</ele><time>2026-04-09T10:39:44.999Z</time></trkpt><trkpt lat="36.67333689247431" lon="10.330625846478087"><ele>95.0</ele><time>2026-04-09T10:39:45.999Z</time></trkpt><trkpt lat="36.67345947948825" lon="10.330470833919172"><ele>94.0</ele><time>2026-04-09T10:39:46.999Z</time></trkpt><trkpt lat="36.673579395778695" lon="10.330316738564745"><ele>93.0</ele><time>2026-04-09T10:39:47.999Z</time></trkpt><trkpt lat="36.673698861874136" lon="10.330166710197647"><ele>92.0</ele><time>2026-04-09T10:39:48.999Z</time></trkpt><trkpt lat="36.673818818165124" lon="10.33001458475343"><ele>91.66666666666667</ele><time>2026-04-09T10:39:49.999Z</time></trkpt><trkpt lat="36.67393977686698" lon="10.329863332314297"><ele>91.33333333333333</ele><time>2026-04-09T10:39:50.999Z</time></trkpt><trkpt lat="36.674059982588865" lon="10.3297135186228"><ele>91.0</ele><time>2026-04-09T10:39:51.999Z</time></trkpt><trkpt lat="36.67417324495465" lon="10.329564637678594"><ele>90.66666666666666</ele><time>2026-04-09T10:39:52.999Z</time></trkpt><trkpt lat="36.67428719066577" lon="10.32941778767866"><ele>90.33333333333333</ele><time>2026-04-09T10:39:53.999Z</time></trkpt><trkpt lat="36.6744032635829" lon="10.329273600228596"><ele>90.0</ele><time>2026-04-09T10:39:54.999Z</time></trkpt><trkpt lat="36.67452037367119" lon="10.329125825956812"><ele>90.33333333333333</ele><time>2026-04-09T10:39:55.999Z</time></trkpt><trkpt lat="36.674632880095864" lon="10.32897624843011"><ele>90.66666666666666</ele><time>2026-04-09T10:39:56.999Z</time></trkpt><trkpt lat="36.67474390262925" lon="10.32882791285997"><ele>91.0</ele><time>2026-04-09T10:39:57.999Z</time></trkpt><trkpt lat="36.67485672032139" lon="10.328692366504095"><ele>91.0</ele><time>2026-04-09T10:39:59Z</time></trkpt><trkpt lat="36.67496416646228" lon="10.328566491345919"><ele>91.0</ele><time>2026-04-09T10:40:00Z</time></trkpt><trkpt lat="36.675067213129914" lon="10.328438903120936"><ele>91.0</ele><time>2026-04-09T10:40:01Z</time></trkpt><trkpt lat="36.67516719149853" lon="10.328319571596316"><ele>91.0</ele><time>2026-04-09T10:40:02Z</time></trkpt><trkpt lat="36.67526693342325" lon="10.328198390876167"><ele>90.5</ele><time>2026-04-09T10:40:03Z</time></trkpt><trkpt lat="36.675369049326775" lon="10.328076058489644"><ele>90.0</ele><time>2026-04-09T10:40:04Z</time></trkpt><trkpt lat="36.67546899067294" lon="10.327955600814366"><ele>89.5</ele><time>2026-04-09T10:40:05Z</time></trkpt><trkpt lat="36.67556836530603" lon="10.327838178241546"><ele>89.0</ele><time>2026-04-09T10:40:06Z</time></trkpt><trkpt lat="36.67566656057078" lon="10.32772828251589"><ele>89.0</ele><time>2026-04-09T10:40:07Z</time></trkpt><trkpt lat="36.67576186503399" lon="10.327622569989597"><ele>89.0</ele><time>2026-04-09T10:40:08Z</time></trkpt><trkpt lat="36.67585913529911" lon="10.32751598570023"><ele>89.0</ele><time>2026-04-09T10:40:09Z</time></trkpt><trkpt lat="36.67595519087103" lon="10.327416990496879"><ele>89.0</ele><time>2026-04-09T10:40:10Z</time></trkpt><trkpt lat="36.676054891234045" lon="10.327325616197685"><ele>89.0</ele><time>2026-04-09T10:40:11Z</time></trkpt><trkpt lat="36.6761475927765" lon="10.327243086008986"><ele>89.0</ele><time>2026-04-09T10:40:12Z</time></trkpt><trkpt lat="36.67623124923381" lon="10.32716496043205"><ele>89.0</ele><time>2026-04-09T10:40:13Z</time></trkpt><trkpt lat="36.6763091228914" lon="10.327089521097278"><ele>89.0</ele><time>2026-04-09T10:40:14Z</time></trkpt><trkpt lat="36.676387354869036" lon="10.327012924149715"><ele>89.0</ele><time>2026-04-09T10:40:15Z</time></trkpt><trkpt lat="36.676461470569215" lon="10.326936310672822"><ele>89.0</ele><time>2026-04-09T10:40:16Z</time></trkpt><trkpt lat="36.676537188583296" lon="10.326864309915551"><ele>89.0</ele><time>2026-04-09T10:40:17Z</time></trkpt><trkpt lat="36.67660914741315" lon="10.32679840668675"><ele>89.0</ele><time>2026-04-09T10:40:18Z</time></trkpt><trkpt lat="36.6766779709481" lon="10.326730816668993"><ele>89.0</ele><time>2026-04-09T10:40:19Z</time></trkpt><trkpt lat="36.67674614431685" lon="10.326661755544098"><ele>89.0</ele><time>2026-04-09T10:40:20Z</time></trkpt><trkpt lat="36.676812896549436" lon="10.326596698783787"><ele>89.0</ele><time>2026-04-09T10:40:21Z</time></trkpt><trkpt lat="36.67687769834298" lon="10.326536390798315"><ele>89.16666666666667</ele><time>2026-04-09T10:40:22Z</time></trkpt><trkpt lat="36.67694015338674" lon="10.326476611781482"><ele>89.33333333333334</ele><time>2026-04-09T10:40:23Z</time></trkpt><trkpt lat="36.67699804515596" lon="10.326420003100313"><ele>89.5</ele><time>2026-04-09T10:40:24Z</time></trkpt><trkpt lat="36.677051757413906" lon="10.326367361509948"><ele>89.66666666666667</ele><time>2026-04-09T10:40:25Z</time></trkpt><trkpt lat="36.67710486697176" lon="10.326319280528498"><ele>89.83333333333333</ele><time>2026-04-09T10:40:26Z</time></trkpt><trkpt lat="36.67719461903625" lon="10.326229620624256"><ele>90.0</ele><time>2026-04-09T10:40:28Z</time></trkpt><trkpt lat="36.677265103407606" lon="10.326156621400392"><ele>89.57142857142857</ele><time>2026-04-09T10:40:30Z</time></trkpt><trkpt lat="36.67732285366741" lon="10.326101528304129"><ele>89.14285714285715</ele><time>2026-04-09T10:40:32Z</time></trkpt><trkpt lat="36.677384024196456" lon="10.326039387828901"><ele>88.71428571428572</ele><time>2026-04-09T10:40:35Z</time></trkpt><trkpt lat="36.677445681844155" lon="10.325986781994951"><ele>88.28571428571428</ele><time>2026-04-09T10:40:38Z</time></trkpt><trkpt lat="36.67750197059576" lon="10.325923881895843"><ele>87.85714285714286</ele><time>2026-04-09T10:41:31.999Z</time></trkpt><trkpt lat="36.67754692095264" lon="10.32586400705505"><ele>87.42857142857143</ele><time>2026-04-09T10:41:35.999Z</time></trkpt><trkpt lat="36.67760459464733" lon="10.325809254433752"><ele>87.0</ele><time>2026-04-09T10:41:41.999Z</time></trkpt><trkpt lat="36.67766170693825" lon="10.325737511328377"><ele>87.0</ele><time>2026-04-09T10:41:45.999Z</time></trkpt><trkpt lat="36.6777180422534" lon="10.325676643618467"><ele>87.0</ele><time>2026-04-09T10:41:48.999Z</time></trkpt><trkpt lat="36.67781749742158" lon="10.325566873979465"><ele>87.0</ele><time>2026-04-09T10:41:50.999Z</time></trkpt><trkpt lat="36.67788946988795" lon="10.325482762104421"><ele>87.0</ele><time>2026-04-09T10:41:51.999Z</time></trkpt><trkpt lat="36.67795841892004" lon="10.325382157894085"><ele>87.0</ele><time>2026-04-09T10:41:52.999Z</time></trkpt><trkpt lat="36.678022452198896" lon="10.325264502225131"><ele>86.8</ele><time>2026-04-09T10:41:53.999Z</time></trkpt><trkpt lat="36.678081483425245" lon="10.325145560715068"><ele>86.6</ele><time>2026-04-09T10:41:54.999Z</time></trkpt><trkpt lat="36.67813040442937" lon="10.325037762341852"><ele>86.39999999999999</ele><time>2026-04-09T10:41:55.999Z</time></trkpt><trkpt lat="36.678172144318694" lon="10.324942524557912"><ele>86.19999999999999</ele><time>2026-04-09T10:41:56.999Z</time></trkpt><trkpt lat="36.678212658059714" lon="10.324854757967643"><ele>86.0</ele><time>2026-04-09T10:41:57.999Z</time></trkpt><trkpt lat="36.67825126106428" lon="10.324776536295252"><ele>86.0</ele><time>2026-04-09T10:41:58.999Z</time></trkpt><trkpt lat="36.678291517381446" lon="10.32470300038577"><ele>86.0</ele><time>2026-04-09T10:41:59.999Z</time></trkpt><trkpt lat="36.67841631979452" lon="10.324683337289201"><ele>86.0</ele><time>2026-04-09T10:42:01.999Z</time></trkpt><trkpt lat="36.67848998136292" lon="10.324692488100805"><ele>86.0</ele><time>2026-04-09T10:42:02.999Z</time></trkpt><trkpt lat="36.67856532756171" lon="10.324664331835415"><ele>86.0</ele><time>2026-04-09T10:42:03.999Z</time></trkpt><trkpt lat="36.67862776472482" lon="10.324618243396008"><ele>86.0</ele><time>2026-04-09T10:42:05Z</time></trkpt><trkpt lat="36.678705982136165" lon="10.32453441736662"><ele>86.0</ele><time>2026-04-09T10:42:07Z</time></trkpt><trkpt lat="36.678731999415525" lon="10.324438791448266"><ele>86.0</ele><time>2026-04-09T10:44:14Z</time></trkpt><trkpt lat="36.67878709199561" lon="10.324312570773023"><ele>86.0</ele><time>2026-04-09T10:44:16Z</time></trkpt><trkpt lat="36.67883838904468" lon="10.324246361826729"><ele>86.0</ele><time>2026-04-09T10:44:17Z</time></trkpt><trkpt lat="36.67889024814355" lon="10.324175469589767"><ele>86.0</ele><time>2026-04-09T10:44:18Z</time></trkpt><trkpt lat="36.678950466649084" lon="10.324102051304795"><ele>86.0</ele><time>2026-04-09T10:44:19Z</time></trkpt><trkpt lat="36.679009889658495" lon="10.32401865388297"><ele>86.0</ele><time>2026-04-09T10:44:20Z</time></trkpt><trkpt lat="36.67907342855832" lon="10.323932472659996"><ele>86.0</ele><time>2026-04-09T10:44:21Z</time></trkpt><trkpt lat="36.679143467754024" lon="10.323843516653817"><ele>86.0</ele><time>2026-04-09T10:44:22Z</time></trkpt><trkpt lat="36.6792205172413" lon="10.323752589622297"><ele>86.0</ele><time>2026-04-09T10:44:23Z</time></trkpt><trkpt lat="36.67930220876661" lon="10.323657767764049"><ele>86.0</ele><time>2026-04-09T10:44:24Z</time></trkpt><trkpt lat="36.67938748913271" lon="10.323557472566202"><ele>86.5</ele><time>2026-04-09T10:44:25Z</time></trkpt><trkpt lat="36.67947653175234" lon="10.32345269345855"><ele>87.0</ele><time>2026-04-09T10:44:26Z</time></trkpt><trkpt lat="36.67957174593691" lon="10.323343581200582"><ele>87.5</ele><time>2026-04-09T10:44:27Z</time></trkpt><trkpt lat="36.67967335074322" lon="10.323229273775025"><ele>88.0</ele><time>2026-04-09T10:44:28Z</time></trkpt><trkpt lat="36.67977532896451" lon="10.323114507519316"><ele>87.5</ele><time>2026-04-09T10:44:29Z</time></trkpt><trkpt lat="36.67988178338721" lon="10.322997327967862"><ele>87.0</ele><time>2026-04-09T10:44:30Z</time></trkpt><trkpt lat="36.6799921765423" lon="10.322877659106506"><ele>86.5</ele><time>2026-04-09T10:44:31Z</time></trkpt><trkpt lat="36.680106539496215" lon="10.32275564287838"><ele>86.0</ele><time>2026-04-09T10:44:32Z</time></trkpt><trkpt lat="36.680223512365636" lon="10.32263068181819"><ele>87.0</ele><time>2026-04-09T10:44:33Z</time></trkpt><trkpt lat="36.68034383897759" lon="10.322498668921499"><ele>88.0</ele><time>2026-04-09T10:44:34Z</time></trkpt><trkpt lat="36.68046863653442" lon="10.322372027320785"><ele>89.0</ele><time>2026-04-09T10:44:35Z</time></trkpt><trkpt lat="36.68059887963926" lon="10.322244947874088"><ele>87.33333333333334</ele><time>2026-04-09T10:44:36Z</time></trkpt><trkpt lat="36.680734004958055" lon="10.322113203774512"><ele>85.66666666666667</ele><time>2026-04-09T10:44:37Z</time></trkpt><trkpt lat="36.680872970736424" lon="10.321973891198335"><ele>84.0</ele><time>2026-04-09T10:44:38Z</time></trkpt><trkpt lat="36.681014160853856" lon="10.321831468360376"><ele>84.0</ele><time>2026-04-09T10:44:39Z</time></trkpt><trkpt lat="36.68116066124504" lon="10.321688979025911"><ele>84.0</ele><time>2026-04-09T10:44:40Z</time></trkpt><trkpt lat="36.68130909249961" lon="10.321544877214052"><ele>84.0</ele><time>2026-04-09T10:44:41Z</time></trkpt><trkpt lat="36.68146247031301" lon="10.321395965129497"><ele>84.0</ele><time>2026-04-09T10:44:42Z</time></trkpt><trkpt lat="36.68162054910561" lon="10.321240334848818"><ele>84.0</ele><time>2026-04-09T10:44:43Z</time></trkpt><trkpt lat="36.68178223093286" lon="10.32108154806236"><ele>84.0</ele><time>2026-04-09T10:44:44Z</time></trkpt><trkpt lat="36.68194885391707" lon="10.320916032981389"><ele>84.0</ele><time>2026-04-09T10:44:45Z</time></trkpt><trkpt lat="36.68212475837562" lon="10.320748612713317"><ele>84.0</ele><time>2026-04-09T10:44:46Z</time></trkpt><trkpt lat="36.682303526925" lon="10.320576873292849"><ele>84.0</ele><time>2026-04-09T10:44:47Z</time></trkpt><trkpt lat="36.68248590404489" lon="10.320401340511355"><ele>84.0</ele><time>2026-04-09T10:44:48Z</time></trkpt><trkpt lat="36.68267185754209" lon="10.32021847997723"><ele>84.0</ele><time>2026-04-09T10:44:49Z</time></trkpt><trkpt lat="36.682860931197844" lon="10.320036669638927"><ele>82.5</ele><time>2026-04-09T10:44:50Z</time></trkpt><trkpt lat="36.68305265325268" lon="10.319849286809298"><ele>81.0</ele><time>2026-04-09T10:44:51Z</time></trkpt><trkpt lat="36.68324768464909" lon="10.319643697953941"><ele>81.0</ele><time>2026-04-09T10:44:52Z</time></trkpt><trkpt lat="36.68345861460233" lon="10.319418167891548"><ele>81.0</ele><time>2026-04-09T10:44:53Z</time></trkpt><trkpt lat="36.68368815152265" lon="10.319198938623742"><ele>82.0</ele><time>2026-04-09T10:44:54Z</time></trkpt><trkpt lat="36.68392078462937" lon="10.318978319591709"><ele>83.0</ele><time>2026-04-09T10:44:55Z</time></trkpt><trkpt lat="36.684152108952865" lon="10.318756558708392"><ele>82.5</ele><time>2026-04-09T10:44:56Z</time></trkpt><trkpt lat="36.68437621712941" lon="10.318535673714242"><ele>82.0</ele><time>2026-04-09T10:44:57Z</time></trkpt><trkpt lat="36.684599671815064" lon="10.318321953611214"><ele>82.0</ele><time>2026-04-09T10:44:58Z</time></trkpt><trkpt lat="36.68482035129892" lon="10.31811114545343"><ele>82.0</ele><time>2026-04-09T10:44:59Z</time></trkpt><trkpt lat="36.68503932878412" lon="10.317901893999466"><ele>80.5</ele><time>2026-04-09T10:45:00Z</time></trkpt><trkpt lat="36.6852604783929" lon="10.31768655289813"><ele>79.0</ele><time>2026-04-09T10:45:01Z</time></trkpt><trkpt lat="36.68548177433974" lon="10.317465675203929"><ele>77.0</ele><time>2026-04-09T10:45:02Z</time></trkpt><trkpt lat="36.68570540783098" lon="10.3172400297204"><ele>75.0</ele><time>2026-04-09T10:45:03Z</time></trkpt><trkpt lat="36.6859274001831" lon="10.317009644650566"><ele>78.0</ele><time>2026-04-09T10:45:04Z</time></trkpt><trkpt lat="36.68614843898173" lon="10.31677569755005"><ele>81.0</ele><time>2026-04-09T10:45:05Z</time></trkpt><trkpt lat="36.68637051343265" lon="10.316539639951822"><ele>77.0</ele><time>2026-04-09T10:45:06Z</time></trkpt><trkpt lat="36.686591485437205" lon="10.316301276402026"><ele>73.0</ele><time>2026-04-09T10:45:07Z</time></trkpt><trkpt lat="36.68681296409969" lon="10.316058827905122"><ele>74.5</ele><time>2026-04-09T10:45:08Z</time></trkpt><trkpt lat="36.68703302720084" lon="10.315817045338324"><ele>76.0</ele><time>2026-04-09T10:45:09Z</time></trkpt><trkpt lat="36.68725116062481" lon="10.315573764745418"><ele>73.5</ele><time>2026-04-09T10:45:10Z</time></trkpt><trkpt lat="36.6874719640874" lon="10.315330033462999"><ele>71.0</ele><time>2026-04-09T10:45:11Z</time></trkpt><trkpt lat="36.687689667745495" lon="10.315086799121078"><ele>70.0</ele><time>2026-04-09T10:45:12Z</time></trkpt><trkpt lat="36.68790167930011" lon="10.314843777422766"><ele>69.0</ele><time>2026-04-09T10:45:13Z</time></trkpt><trkpt lat="36.68810432135349" lon="10.3146060556937"><ele>69.0</ele><time>2026-04-09T10:45:14Z</time></trkpt><trkpt lat="36.68829966898351" lon="10.314378531996878"><ele>69.0</ele><time>2026-04-09T10:45:15Z</time></trkpt><trkpt lat="36.68849241543939" lon="10.3141445555495"><ele>68.0</ele><time>2026-04-09T10:45:16Z</time></trkpt><trkpt lat="36.688684438660246" lon="10.313912824700054"><ele>67.0</ele><time>2026-04-09T10:45:17Z</time></trkpt><trkpt lat="36.68887782205629" lon="10.313675299894529"><ele>67.0</ele><time>2026-04-09T10:45:18Z</time></trkpt><trkpt lat="36.68906891307905" lon="10.31344077057451"><ele>67.0</ele><time>2026-04-09T10:45:19Z</time></trkpt><trkpt lat="36.68926415089008" lon="10.313201572436814"><ele>66.5</ele><time>2026-04-09T10:45:20Z</time></trkpt><trkpt lat="36.68946016185913" lon="10.31295767189869"><ele>66.0</ele><time>2026-04-09T10:45:20.999Z</time></trkpt><trkpt lat="36.68966659136664" lon="10.312706362125105"><ele>66.0</ele><time>2026-04-09T10:45:21.999Z</time></trkpt><trkpt lat="36.68986987550038" lon="10.312451691938442"><ele>66.0</ele><time>2026-04-09T10:45:22.999Z</time></trkpt><trkpt lat="36.690064376103116" lon="10.312202271508177"><ele>64.0</ele><time>2026-04-09T10:45:23.999Z</time></trkpt><trkpt lat="36.69025556002497" lon="10.311952390855216"><ele>62.0</ele><time>2026-04-09T10:45:24.999Z</time></trkpt><trkpt lat="36.69044076628711" lon="10.311708110007153"><ele>62.0</ele><time>2026-04-09T10:45:25.999Z</time></trkpt><trkpt lat="36.690624110311454" lon="10.311461042297072"><ele>62.0</ele><time>2026-04-09T10:45:26.999Z</time></trkpt><trkpt lat="36.690809021327034" lon="10.311213105350975"><ele>60.0</ele><time>2026-04-09T10:45:27.999Z</time></trkpt><trkpt lat="36.69099211829445" lon="10.310959856370555"><ele>58.0</ele><time>2026-04-09T10:45:28.999Z</time></trkpt><trkpt lat="36.69117488733185" lon="10.310702627187565"><ele>57.5</ele><time>2026-04-09T10:45:29.999Z</time></trkpt><trkpt lat="36.69135823600366" lon="10.310440636032997"><ele>57.0</ele><time>2026-04-09T10:45:30.999Z</time></trkpt><trkpt lat="36.691543607243084" lon="10.310178858511353"><ele>57.0</ele><time>2026-04-09T10:45:31.999Z</time></trkpt><trkpt lat="36.69172504289034" lon="10.309913403359653"><ele>57.0</ele><time>2026-04-09T10:45:32.999Z</time></trkpt><trkpt lat="36.691910806959086" lon="10.309644917131276"><ele>58.5</ele><time>2026-04-09T10:45:33.999Z</time></trkpt><trkpt lat="36.692098692146935" lon="10.30938157632758"><ele>60.0</ele><time>2026-04-09T10:45:34.999Z</time></trkpt><trkpt lat="36.69228693567941" lon="10.309118138392353"><ele>58.0</ele><time>2026-04-09T10:45:35.999Z</time></trkpt><trkpt lat="36.69247471454853" lon="10.308856124364906"><ele>56.0</ele><time>2026-04-09T10:45:36.999Z</time></trkpt><trkpt lat="36.69266109592893" lon="10.308596263187445"><ele>56.5</ele><time>2026-04-09T10:45:37.999Z</time></trkpt><trkpt lat="36.692845275964245" lon="10.308341656914058"><ele>57.0</ele><time>2026-04-09T10:45:38.999Z</time></trkpt><trkpt lat="36.69302545590553" lon="10.308094619713719"><ele>55.5</ele><time>2026-04-09T10:45:39.999Z</time></trkpt><trkpt lat="36.69320474858352" lon="10.307857076107807"><ele>54.0</ele><time>2026-04-09T10:45:40.999Z</time></trkpt><trkpt lat="36.6933862643809" lon="10.307627753808738"><ele>54.0</ele><time>2026-04-09T10:45:41.999Z</time></trkpt><trkpt lat="36.69356977946023" lon="10.307395988581188"><ele>54.0</ele><time>2026-04-09T10:45:42.999Z</time></trkpt><trkpt lat="36.693751662225964" lon="10.307167497393147"><ele>53.5</ele><time>2026-04-09T10:45:43.999Z</time></trkpt><trkpt lat="36.69393732798208" lon="10.306940813427973"><ele>53.0</ele><time>2026-04-09T10:45:44.999Z</time></trkpt><trkpt lat="36.69412625138422" lon="10.306713830090866"><ele>53.0</ele><time>2026-04-09T10:45:45.999Z</time></trkpt><trkpt lat="36.69431807906782" lon="10.306479693058533"><ele>53.0</ele><time>2026-04-09T10:45:46.999Z</time></trkpt><trkpt lat="36.69451390923696" lon="10.306240786436653"><ele>52.0</ele><time>2026-04-09T10:45:47.999Z</time></trkpt><trkpt lat="36.69471312073576" lon="10.306003468281254"><ele>51.0</ele><time>2026-04-09T10:45:48.999Z</time></trkpt><trkpt lat="36.69491750077693" lon="10.305777059624766"><ele>50.5</ele><time>2026-04-09T10:45:49.999Z</time></trkpt><trkpt lat="36.69512089823685" lon="10.305554303185719"><ele>50.0</ele><time>2026-04-09T10:45:50.999Z</time></trkpt><trkpt lat="36.695321116394545" lon="10.305330801556687"><ele>50.0</ele><time>2026-04-09T10:45:51.999Z</time></trkpt><trkpt lat="36.695522347314906" lon="10.30510970449818"><ele>50.0</ele><time>2026-04-09T10:45:52.999Z</time></trkpt><trkpt lat="36.69572667455096" lon="10.304892612888427"><ele>48.5</ele><time>2026-04-09T10:45:53.999Z</time></trkpt><trkpt lat="36.69592956909229" lon="10.304681925423573"><ele>47.0</ele><time>2026-04-09T10:45:54.999Z</time></trkpt><trkpt lat="36.696133736204374" lon="10.304474355171248"><ele>47.0</ele><time>2026-04-09T10:45:55.999Z</time></trkpt><trkpt lat="36.69633289476739" lon="10.304266725903068"><ele>47.0</ele><time>2026-04-09T10:45:56.999Z</time></trkpt><trkpt lat="36.696531345829115" lon="10.304050905513613"><ele>46.5</ele><time>2026-04-09T10:45:57.999Z</time></trkpt><trkpt lat="36.69672818389145" lon="10.303832247985177"><ele>46.0</ele><time>2026-04-09T10:45:58.999Z</time></trkpt><trkpt lat="36.696926910905994" lon="10.303612012262299"><ele>46.0</ele><time>2026-04-09T10:45:59.999Z</time></trkpt><trkpt lat="36.69712242661558" lon="10.303396725823447"><ele>46.0</ele><time>2026-04-09T10:46:00.999Z</time></trkpt><trkpt lat="36.697320030678924" lon="10.303184582968873"><ele>44.0</ele><time>2026-04-09T10:46:01.999Z</time></trkpt><trkpt lat="36.69751862936292" lon="10.302970654689618"><ele>42.0</ele><time>2026-04-09T10:46:02.999Z</time></trkpt><trkpt lat="36.69771668429322" lon="10.302755013592892"><ele>42.5</ele><time>2026-04-09T10:46:03.999Z</time></trkpt><trkpt lat="36.6979091071185" lon="10.3025394145514"><ele>43.0</ele><time>2026-04-09T10:46:04.999Z</time></trkpt><trkpt lat="36.698100638427555" lon="10.30232434145639"><ele>42.0</ele><time>2026-04-09T10:46:05.999Z</time></trkpt><trkpt lat="36.69829304035578" lon="10.302106612928881"><ele>41.0</ele><time>2026-04-09T10:46:06.999Z</time></trkpt><trkpt lat="36.698484819578056" lon="10.301886338450528"><ele>40.5</ele><time>2026-04-09T10:46:07.999Z</time></trkpt><trkpt lat="36.69867449431235" lon="10.301666516705172"><ele>40.0</ele><time>2026-04-09T10:46:08.999Z</time></trkpt><trkpt lat="36.69885993074076" lon="10.301446353780621"><ele>39.5</ele><time>2026-04-09T10:46:09.999Z</time></trkpt><trkpt lat="36.69904237899243" lon="10.30122215295056"><ele>39.0</ele><time>2026-04-09T10:46:10.999Z</time></trkpt><trkpt lat="36.69922564798288" lon="10.300995611328506"><ele>39.0</ele><time>2026-04-09T10:46:11.999Z</time></trkpt><trkpt lat="36.699411532974814" lon="10.300768576015402"><ele>39.0</ele><time>2026-04-09T10:46:12.999Z</time></trkpt><trkpt lat="36.69959814751158" lon="10.300538185167133"><ele>38.5</ele><time>2026-04-09T10:46:13.999Z</time></trkpt><trkpt lat="36.69978088018905" lon="10.30030530765436"><ele>38.0</ele><time>2026-04-09T10:46:14.999Z</time></trkpt><trkpt lat="36.69996146536379" lon="10.300070066627455"><ele>38.0</ele><time>2026-04-09T10:46:15.999Z</time></trkpt><trkpt lat="36.700144539727795" lon="10.299831800793623"><ele>38.0</ele><time>2026-04-09T10:46:16.999Z</time></trkpt><trkpt lat="36.70032474305357" lon="10.29959300683722"><ele>37.0</ele><time>2026-04-09T10:46:17.999Z</time></trkpt><trkpt lat="36.70050323142191" lon="10.299352445558613"><ele>36.0</ele><time>2026-04-09T10:46:18.999Z</time></trkpt><trkpt lat="36.70068190664047" lon="10.299105562591864"><ele>34.5</ele><time>2026-04-09T10:46:19.999Z</time></trkpt><trkpt lat="36.700854778260386" lon="10.298859543440212"><ele>33.0</ele><time>2026-04-09T10:46:20.999Z</time></trkpt><trkpt lat="36.70102817561899" lon="10.298612461450887"><ele>33.0</ele><time>2026-04-09T10:46:21.999Z</time></trkpt><trkpt lat="36.701199294666196" lon="10.298369896667054"><ele>33.0</ele><time>2026-04-09T10:46:22.999Z</time></trkpt><trkpt lat="36.701373706363" lon="10.298127320573201"><ele>32.0</ele><time>2026-04-09T10:46:23.999Z</time></trkpt><trkpt lat="36.70154809451329" lon="10.29788364262635"><ele>31.0</ele><time>2026-04-09T10:46:24.999Z</time></trkpt><trkpt lat="36.70172016677456" lon="10.297630840243876"><ele>31.0</ele><time>2026-04-09T10:46:25.999Z</time></trkpt><trkpt lat="36.701889494647574" lon="10.297371960098774"><ele>31.0</ele><time>2026-04-09T10:46:26.999Z</time></trkpt><trkpt lat="36.702056993984066" lon="10.297107311763767"><ele>30.5</ele><time>2026-04-09T10:46:27.999Z</time></trkpt><trkpt lat="36.70222902992132" lon="10.29682832805743"><ele>30.0</ele><time>2026-04-09T10:46:28.999Z</time></trkpt><trkpt lat="36.70240278251521" lon="10.296541909804999"><ele>30.0</ele><time>2026-04-09T10:46:29.999Z</time></trkpt><trkpt lat="36.702581443731276" lon="10.296250203068313"><ele>30.0</ele><time>2026-04-09T10:46:30.999Z</time></trkpt><trkpt lat="36.702762608531714" lon="10.295953214376924"><ele>30.0</ele><time>2026-04-09T10:46:31.999Z</time></trkpt><trkpt lat="36.702954272841524" lon="10.295634641490029"><ele>30.0</ele><time>2026-04-09T10:46:32.999Z</time></trkpt><trkpt lat="36.7031540096104" lon="10.295294734207108"><ele>29.0</ele><time>2026-04-09T10:46:33.999Z</time></trkpt><trkpt lat="36.70334678015464" lon="10.294958447743277"><ele>28.0</ele><time>2026-04-09T10:46:34.999Z</time></trkpt><trkpt lat="36.70352214031504" lon="10.294645049793822"><ele>27.5</ele><time>2026-04-09T10:46:35.999Z</time></trkpt><trkpt lat="36.70369354645163" lon="10.29434521564655"><ele>27.0</ele><time>2026-04-09T10:46:36.999Z</time></trkpt><trkpt lat="36.70387139629357" lon="10.29404902742724"><ele>26.5</ele><time>2026-04-09T10:46:37.999Z</time></trkpt><trkpt lat="36.70405213660527" lon="10.29374960332583"><ele>26.0</ele><time>2026-04-09T10:46:38.999Z</time></trkpt><trkpt lat="36.70423012879" lon="10.293450749379883"><ele>26.0</ele><time>2026-04-09T10:46:39.999Z</time></trkpt><trkpt lat="36.70440219820049" lon="10.29315686726258"><ele>26.0</ele><time>2026-04-09T10:46:40.999Z</time></trkpt><trkpt lat="36.70457180029304" lon="10.292868420707089"><ele>26.0</ele><time>2026-04-09T10:46:41.999Z</time></trkpt><trkpt lat="36.70474530388724" lon="10.292576945514654"><ele>26.0</ele><time>2026-04-09T10:46:43Z</time></trkpt><trkpt lat="36.704918153159895" lon="10.292290964202465"><ele>25.5</ele><time>2026-04-09T10:46:44Z</time></trkpt><trkpt lat="36.70509239497369" lon="10.292007453928065"><ele>25.0</ele><time>2026-04-09T10:46:45Z</time></trkpt><trkpt lat="36.705268253172875" lon="10.291727081221008"><ele>25.0</ele><time>2026-04-09T10:46:46Z</time></trkpt><trkpt lat="36.70544270629648" lon="10.29145640791593"><ele>25.0</ele><time>2026-04-09T10:46:47Z</time></trkpt><trkpt lat="36.70562221502341" lon="10.291192132231437"><ele>24.0</ele><time>2026-04-09T10:46:48Z</time></trkpt><trkpt lat="36.70580000349495" lon="10.290934179008126"><ele>23.0</ele><time>2026-04-09T10:46:49Z</time></trkpt><trkpt lat="36.70598277084094" lon="10.290677916421062"><ele>22.5</ele><time>2026-04-09T10:46:50Z</time></trkpt><trkpt lat="36.70616526768106" lon="10.290426714787996"><ele>22.0</ele><time>2026-04-09T10:46:51Z</time></trkpt><trkpt lat="36.706356916318896" lon="10.290167801569746"><ele>22.0</ele><time>2026-04-09T10:46:52Z</time></trkpt><trkpt lat="36.706551095969374" lon="10.289909639373732"><ele>22.0</ele><time>2026-04-09T10:46:53Z</time></trkpt><trkpt lat="36.70674810509749" lon="10.289656857912005"><ele>21.5</ele><time>2026-04-09T10:46:54Z</time></trkpt><trkpt lat="36.70695159363061" lon="10.289408409908285"><ele>21.0</ele><time>2026-04-09T10:46:55Z</time></trkpt><trkpt lat="36.70715913538834" lon="10.289162639016771"><ele>21.0</ele><time>2026-04-09T10:46:56Z</time></trkpt><trkpt lat="36.70736885412527" lon="10.288921271970558"><ele>21.0</ele><time>2026-04-09T10:46:57Z</time></trkpt><trkpt lat="36.70758151746116" lon="10.288680105595644"><ele>20.5</ele><time>2026-04-09T10:46:58Z</time></trkpt><trkpt lat="36.70779698799787" lon="10.28843961545726"><ele>20.0</ele><time>2026-04-09T10:46:59Z</time></trkpt><trkpt lat="36.70801900868806" lon="10.28820490301986"><ele>20.0</ele><time>2026-04-09T10:47:00Z</time></trkpt><trkpt lat="36.7082419221277" lon="10.287972752063904"><ele>20.0</ele><time>2026-04-09T10:47:01Z</time></trkpt><trkpt lat="36.70846292561728" lon="10.287739243607447"><ele>21.5</ele><time>2026-04-09T10:47:02Z</time></trkpt><trkpt lat="36.70867979830364" lon="10.287503496177193"><ele>23.0</ele><time>2026-04-09T10:47:03Z</time></trkpt><trkpt lat="36.70889146631217" lon="10.287267849727778"><ele>21.5</ele><time>2026-04-09T10:47:04Z</time></trkpt><trkpt lat="36.70909936610556" lon="10.287033510112542"><ele>20.0</ele><time>2026-04-09T10:47:05Z</time></trkpt><trkpt lat="36.70929565514372" lon="10.286801725722277"><ele>20.0</ele><time>2026-04-09T10:47:05.999Z</time></trkpt><trkpt lat="36.7094870485795" lon="10.286571743955946"><ele>20.0</ele><time>2026-04-09T10:47:06.999Z</time></trkpt><trkpt lat="36.70967287005659" lon="10.286334282908111"><ele>20.0</ele><time>2026-04-09T10:47:07.999Z</time></trkpt><trkpt lat="36.709860070602524" lon="10.286093426574288"><ele>20.0</ele><time>2026-04-09T10:47:08.999Z</time></trkpt><trkpt lat="36.71004724221176" lon="10.285854344717306"><ele>20.0</ele><time>2026-04-09T10:47:09.999Z</time></trkpt><trkpt lat="36.71022917287236" lon="10.285614088165177"><ele>20.0</ele><time>2026-04-09T10:47:10.999Z</time></trkpt><trkpt lat="36.71040487400027" lon="10.285370181629375"><ele>18.5</ele><time>2026-04-09T10:47:11.999Z</time></trkpt><trkpt lat="36.71058233498517" lon="10.285122252820262"><ele>17.0</ele><time>2026-04-09T10:47:12.999Z</time></trkpt><trkpt lat="36.71076026116472" lon="10.284864642500082"><ele>17.5</ele><time>2026-04-09T10:47:13.999Z</time></trkpt><trkpt lat="36.710930932587765" lon="10.284608519497105"><ele>18.0</ele><time>2026-04-09T10:47:14.999Z</time></trkpt><trkpt lat="36.711097869639254" lon="10.284349450129247"><ele>18.0</ele><time>2026-04-09T10:47:15.999Z</time></trkpt><trkpt lat="36.71125866021631" lon="10.28409281479404"><ele>18.0</ele><time>2026-04-09T10:47:16.999Z</time></trkpt><trkpt lat="36.71141569096843" lon="10.283835354656611"><ele>18.0</ele><time>2026-04-09T10:47:17.999Z</time></trkpt><trkpt lat="36.711567477387845" lon="10.283576549229894"><ele>18.0</ele><time>2026-04-09T10:47:18.999Z</time></trkpt><trkpt lat="36.71171601667075" lon="10.28331663021482"><ele>18.5</ele><time>2026-04-09T10:47:19.999Z</time></trkpt><trkpt lat="36.711860729909255" lon="10.283056402375587"><ele>19.0</ele><time>2026-04-09T10:47:20.999Z</time></trkpt><trkpt lat="36.712002743984684" lon="10.282791891822518"><ele>18.5</ele><time>2026-04-09T10:47:21.999Z</time></trkpt><trkpt lat="36.712143991249675" lon="10.282520063423497"><ele>18.0</ele><time>2026-04-09T10:47:22.999Z</time></trkpt><trkpt lat="36.712281611650305" lon="10.282246510759267"><ele>18.0</ele><time>2026-04-09T10:47:23.999Z</time></trkpt><trkpt lat="36.712413745753466" lon="10.281969295095127"><ele>18.0</ele><time>2026-04-09T10:47:24.999Z</time></trkpt><trkpt lat="36.712548535123034" lon="10.281686070836743"><ele>18.0</ele><time>2026-04-09T10:47:25.999Z</time></trkpt><trkpt lat="36.71267955152807" lon="10.281404579961942"><ele>18.0</ele><time>2026-04-09T10:47:26.999Z</time></trkpt><trkpt lat="36.71280824001822" lon="10.281120563884912"><ele>17.5</ele><time>2026-04-09T10:47:27.999Z</time></trkpt><trkpt lat="36.71293321273526" lon="10.280832169153154"><ele>17.0</ele><time>2026-04-09T10:47:28.999Z</time></trkpt><trkpt lat="36.713054456614834" lon="10.280543274947968"><ele>16.5</ele><time>2026-04-09T10:47:29.999Z</time></trkpt><trkpt lat="36.71317313120397" lon="10.280248394388682"><ele>16.0</ele><time>2026-04-09T10:47:30.999Z</time></trkpt><trkpt lat="36.71328577746113" lon="10.279948154542835"><ele>17.0</ele><time>2026-04-09T10:47:31.999Z</time></trkpt><trkpt lat="36.71340049020979" lon="10.279638488040513"><ele>18.0</ele><time>2026-04-09T10:47:32.999Z</time></trkpt><trkpt lat="36.713510169111935" lon="10.279326899643845"><ele>17.5</ele><time>2026-04-09T10:47:33.999Z</time></trkpt><trkpt lat="36.71361667466109" lon="10.279011102752584"><ele>17.0</ele><time>2026-04-09T10:47:34.999Z</time></trkpt><trkpt lat="36.71371871882159" lon="10.278701469911114"><ele>18.0</ele><time>2026-04-09T10:47:35.999Z</time></trkpt><trkpt lat="36.713817241518036" lon="10.278393040643966"><ele>19.0</ele><time>2026-04-09T10:47:36.999Z</time></trkpt><trkpt lat="36.71391186907786" lon="10.278083408708023"><ele>19.0</ele><time>2026-04-09T10:47:37.999Z</time></trkpt><trkpt lat="36.71400197158143" lon="10.277770456666435"><ele>19.0</ele><time>2026-04-09T10:47:38.999Z</time></trkpt><trkpt lat="36.714099016127214" lon="10.277459240159867"><ele>18.0</ele><time>2026-04-09T10:47:39.999Z</time></trkpt><trkpt lat="36.71419530074797" lon="10.277152927169242"><ele>17.0</ele><time>2026-04-09T10:47:40.999Z</time></trkpt><trkpt lat="36.71428835384373" lon="10.276850262341584"><ele>17.0</ele><time>2026-04-09T10:47:41.999Z</time></trkpt><trkpt lat="36.7143781971645" lon="10.276545879040587"><ele>17.0</ele><time>2026-04-09T10:47:42.999Z</time></trkpt><trkpt lat="36.71446232899808" lon="10.276240633660962"><ele>17.5</ele><time>2026-04-09T10:47:43.999Z</time></trkpt><trkpt lat="36.714550294687" lon="10.27593206421377"><ele>18.0</ele><time>2026-04-09T10:47:44.999Z</time></trkpt><trkpt lat="36.71464227715659" lon="10.27562413662592"><ele>18.0</ele><time>2026-04-09T10:47:45.999Z</time></trkpt><trkpt lat="36.71473257192555" lon="10.275319009580025"><ele>18.0</ele><time>2026-04-09T10:47:46.999Z</time></trkpt><trkpt lat="36.71482322077061" lon="10.275013935665227"><ele>18.0</ele><time>2026-04-09T10:47:47.999Z</time></trkpt><trkpt lat="36.71491569547878" lon="10.274710889440938"><ele>18.0</ele><time>2026-04-09T10:47:48.999Z</time></trkpt><trkpt lat="36.715005954171204" lon="10.274412231176388"><ele>18.0</ele><time>2026-04-09T10:47:49.999Z</time></trkpt><trkpt lat="36.71509953021505" lon="10.274113610214476"><ele>18.0</ele><time>2026-04-09T10:47:50.999Z</time></trkpt><trkpt lat="36.715195735175925" lon="10.273818904578675"><ele>16.5</ele><time>2026-04-09T10:47:51.999Z</time></trkpt><trkpt lat="36.71529548329939" lon="10.273524920531138"><ele>15.0</ele><time>2026-04-09T10:47:52.999Z</time></trkpt><trkpt lat="36.71540115827312" lon="10.273231686390455"><ele>15.5</ele><time>2026-04-09T10:47:53.999Z</time></trkpt><trkpt lat="36.71550625065914" lon="10.272939092791093"><ele>16.0</ele><time>2026-04-09T10:47:54.999Z</time></trkpt><trkpt lat="36.71561126019793" lon="10.272649563191582"><ele>16.0</ele><time>2026-04-09T10:47:55.999Z</time></trkpt><trkpt lat="36.71571939071489" lon="10.272358612016598"><ele>16.0</ele><time>2026-04-09T10:47:56.999Z</time></trkpt><trkpt lat="36.71583233020218" lon="10.272069185868183"><ele>16.0</ele><time>2026-04-09T10:47:57.999Z</time></trkpt><trkpt lat="36.71594834922218" lon="10.271778661026392"><ele>16.0</ele><time>2026-04-09T10:47:58.999Z</time></trkpt><trkpt lat="36.71606703075703" lon="10.27148743918012"><ele>15.5</ele><time>2026-04-09T10:47:59.999Z</time></trkpt><trkpt lat="36.716188353419284" lon="10.27119613125695"><ele>15.0</ele><time>2026-04-09T10:48:00.999Z</time></trkpt><trkpt lat="36.716307817101594" lon="10.270904800348042"><ele>15.0</ele><time>2026-04-09T10:48:01.999Z</time></trkpt><trkpt lat="36.71642773041945" lon="10.270609323187271"><ele>15.0</ele><time>2026-04-09T10:48:02.999Z</time></trkpt><trkpt lat="36.71654969723571" lon="10.270316116402654"><ele>15.5</ele><time>2026-04-09T10:48:03.999Z</time></trkpt><trkpt lat="36.716679774602895" lon="10.270024502591818"><ele>16.0</ele><time>2026-04-09T10:48:04.999Z</time></trkpt><trkpt lat="36.716813652703735" lon="10.269738653403492"><ele>15.0</ele><time>2026-04-09T10:48:05.999Z</time></trkpt><trkpt lat="36.71695263571834" lon="10.269453104152227"><ele>14.0</ele><time>2026-04-09T10:48:06.999Z</time></trkpt><trkpt lat="36.717088081608544" lon="10.269172258153322"><ele>14.0</ele><time>2026-04-09T10:48:07.999Z</time></trkpt><trkpt lat="36.71722694352872" lon="10.268893773494996"><ele>14.0</ele><time>2026-04-09T10:48:08.999Z</time></trkpt><trkpt lat="36.71737355151118" lon="10.268617170001056"><ele>14.0</ele><time>2026-04-09T10:48:09.999Z</time></trkpt><trkpt lat="36.71752733640204" lon="10.268338006531392"><ele>14.0</ele><time>2026-04-09T10:48:10.999Z</time></trkpt><trkpt lat="36.71767562872342" lon="10.268063895413741"><ele>14.0</ele><time>2026-04-09T10:48:11.999Z</time></trkpt><trkpt lat="36.71782620554656" lon="10.267798464616787"><ele>14.0</ele><time>2026-04-09T10:48:12.999Z</time></trkpt><trkpt lat="36.71798096494096" lon="10.267535200422927"><ele>14.5</ele><time>2026-04-09T10:48:13.999Z</time></trkpt><trkpt lat="36.71813673952098" lon="10.267276439129654"><ele>15.0</ele><time>2026-04-09T10:48:14.999Z</time></trkpt><trkpt lat="36.718293018115624" lon="10.267015765808344"><ele>15.0</ele><time>2026-04-09T10:48:15.999Z</time></trkpt><trkpt lat="36.7184540966625" lon="10.266748223207491"><ele>15.0</ele><time>2026-04-09T10:48:16.999Z</time></trkpt><trkpt lat="36.718617758466294" lon="10.266483791925372"><ele>13.5</ele><time>2026-04-09T10:48:17.999Z</time></trkpt><trkpt lat="36.71878467411521" lon="10.266216264454428"><ele>12.0</ele><time>2026-04-09T10:48:18.999Z</time></trkpt><trkpt lat="36.71895121648675" lon="10.265954072177346"><ele>12.0</ele><time>2026-04-09T10:48:19.999Z</time></trkpt><trkpt lat="36.71912873368457" lon="10.265685142952268"><ele>12.0</ele><time>2026-04-09T10:48:20.999Z</time></trkpt><trkpt lat="36.71930527829242" lon="10.265420975354425"><ele>11.5</ele><time>2026-04-09T10:48:21.999Z</time></trkpt><trkpt lat="36.71948600778248" lon="10.26515439418719"><ele>11.0</ele><time>2026-04-09T10:48:23Z</time></trkpt><trkpt lat="36.719664771040904" lon="10.264888265122533"><ele>11.5</ele><time>2026-04-09T10:48:24Z</time></trkpt><trkpt lat="36.71984283889513" lon="10.264623245820417"><ele>12.0</ele><time>2026-04-09T10:48:25Z</time></trkpt><trkpt lat="36.720019346878416" lon="10.264358336996342"><ele>12.0</ele><time>2026-04-09T10:48:26Z</time></trkpt><trkpt lat="36.7201969213586" lon="10.264093159174495"><ele>12.0</ele><time>2026-04-09T10:48:27Z</time></trkpt><trkpt lat="36.72037551682483" lon="10.263829162077469"><ele>13.0</ele><time>2026-04-09T10:48:28Z</time></trkpt><trkpt lat="36.720553726867095" lon="10.263565814299316"><ele>14.0</ele><time>2026-04-09T10:48:29Z</time></trkpt><trkpt lat="36.72073141358712" lon="10.26329862914516"><ele>13.5</ele><time>2026-04-09T10:48:30Z</time></trkpt><trkpt lat="36.72090686901109" lon="10.26303650137065"><ele>13.0</ele><time>2026-04-09T10:48:31Z</time></trkpt><trkpt lat="36.721083759940235" lon="10.262775598141635"><ele>12.5</ele><time>2026-04-09T10:48:32Z</time></trkpt><trkpt lat="36.72125635588991" lon="10.262518884388388"><ele>12.0</ele><time>2026-04-09T10:48:33Z</time></trkpt><trkpt lat="36.721426150079665" lon="10.262268971501292"><ele>11.5</ele><time>2026-04-09T10:48:34Z</time></trkpt><trkpt lat="36.72159199640567" lon="10.26201725788329"><ele>11.0</ele><time>2026-04-09T10:48:35Z</time></trkpt><trkpt lat="36.72175839599522" lon="10.261763062143023"><ele>11.0</ele><time>2026-04-09T10:48:36Z</time></trkpt><trkpt lat="36.721919569673624" lon="10.261512836242671"><ele>11.0</ele><time>2026-04-09T10:48:37Z</time></trkpt><trkpt lat="36.72207938858776" lon="10.26126607027701"><ele>11.0</ele><time>2026-04-09T10:48:38Z</time></trkpt><trkpt lat="36.72223848218299" lon="10.26101361152672"><ele>11.0</ele><time>2026-04-09T10:48:39Z</time></trkpt><trkpt lat="36.7223931019012" lon="10.260759167449848"><ele>11.5</ele><time>2026-04-09T10:48:40Z</time></trkpt><trkpt lat="36.72254647352994" lon="10.260503920312223"><ele>12.0</ele><time>2026-04-09T10:48:41Z</time></trkpt><trkpt lat="36.72270180599856" lon="10.26024255375495"><ele>11.0</ele><time>2026-04-09T10:48:42Z</time></trkpt><trkpt lat="36.72286046386595" lon="10.259988400441685"><ele>10.0</ele><time>2026-04-09T10:48:43Z</time></trkpt><trkpt lat="36.723011540241984" lon="10.259738651926677"><ele>9.5</ele><time>2026-04-09T10:48:44Z</time></trkpt><trkpt lat="36.72315784596061" lon="10.259489672384241"><ele>9.0</ele><time>2026-04-09T10:48:45Z</time></trkpt><trkpt lat="36.72330395399073" lon="10.259235567859811"><ele>9.0</ele><time>2026-04-09T10:48:46Z</time></trkpt><trkpt lat="36.72344837780347" lon="10.258979669146509"><ele>9.0</ele><time>2026-04-09T10:48:47Z</time></trkpt><trkpt lat="36.723595079353935" lon="10.258714696891607"><ele>10.0</ele><time>2026-04-09T10:48:48Z</time></trkpt><trkpt lat="36.72374502671646" lon="10.258440618402938"><ele>11.0</ele><time>2026-04-09T10:48:49Z</time></trkpt><trkpt lat="36.723899548084646" lon="10.258148840137613"><ele>11.0</ele><time>2026-04-09T10:48:50Z</time></trkpt><trkpt lat="36.724061107981704" lon="10.257833496892774"><ele>11.0</ele><time>2026-04-09T10:48:51Z</time></trkpt><trkpt lat="36.724221334214675" lon="10.257520897705712"><ele>11.0</ele><time>2026-04-09T10:48:52Z</time></trkpt><trkpt lat="36.72437027795703" lon="10.257230727541279"><ele>11.0</ele><time>2026-04-09T10:48:53Z</time></trkpt><trkpt lat="36.72451044413223" lon="10.256950800479357"><ele>11.0</ele><time>2026-04-09T10:48:54Z</time></trkpt><trkpt lat="36.724649518483105" lon="10.256662173158713"><ele>11.0</ele><time>2026-04-09T10:48:55Z</time></trkpt><trkpt lat="36.72478803987607" lon="10.256372636021727"><ele>11.0</ele><time>2026-04-09T10:48:56Z</time></trkpt><trkpt lat="36.72492434936754" lon="10.25608181164428"><ele>11.0</ele><time>2026-04-09T10:48:57Z</time></trkpt><trkpt lat="36.72505958666437" lon="10.255788884821852"><ele>11.0</ele><time>2026-04-09T10:48:58Z</time></trkpt><trkpt lat="36.725191440566576" lon="10.255498135338897"><ele>11.0</ele><time>2026-04-09T10:48:59Z</time></trkpt><trkpt lat="36.72532108575083" lon="10.255208154353632"><ele>11.0</ele><time>2026-04-09T10:49:00Z</time></trkpt><trkpt lat="36.72544746202738" lon="10.254916565014781"><ele>11.0</ele><time>2026-04-09T10:49:01Z</time></trkpt><trkpt lat="36.72557436446154" lon="10.254617932917105"><ele>12.5</ele><time>2026-04-09T10:49:02Z</time></trkpt><trkpt lat="36.7257016487335" lon="10.254315465134049"><ele>14.0</ele><time>2026-04-09T10:49:03Z</time></trkpt><trkpt lat="36.72582695157797" lon="10.254007240604407"><ele>11.5</ele><time>2026-04-09T10:49:04Z</time></trkpt><trkpt lat="36.725945896743816" lon="10.253703463527064"><ele>9.0</ele><time>2026-04-09T10:49:05Z</time></trkpt><trkpt lat="36.72606052854087" lon="10.253402203716123"><ele>10.0</ele><time>2026-04-09T10:49:06Z</time></trkpt><trkpt lat="36.726174962020664" lon="10.253100360540612"><ele>11.0</ele><time>2026-04-09T10:49:07Z</time></trkpt><trkpt lat="36.72628626927366" lon="10.252801479068905"><ele>11.0</ele><time>2026-04-09T10:49:08Z</time></trkpt><trkpt lat="36.72639659423361" lon="10.25249902391907"><ele>11.0</ele><time>2026-04-09T10:49:09Z</time></trkpt><trkpt lat="36.72650502244223" lon="10.252200490379932"><ele>11.0</ele><time>2026-04-09T10:49:10Z</time></trkpt><trkpt lat="36.72661230443238" lon="10.251894606882505"><ele>11.0</ele><time>2026-04-09T10:49:11Z</time></trkpt><trkpt lat="36.72672034761505" lon="10.251578490925763"><ele>11.5</ele><time>2026-04-09T10:49:12Z</time></trkpt><trkpt lat="36.72682806009459" lon="10.251258887352929"><ele>12.0</ele><time>2026-04-09T10:49:13Z</time></trkpt><trkpt lat="36.726930744494005" lon="10.250939262785733"><ele>12.0</ele><time>2026-04-09T10:49:14Z</time></trkpt><trkpt lat="36.7270311567555" lon="10.250619151382477"><ele>12.0</ele><time>2026-04-09T10:49:15Z</time></trkpt><trkpt lat="36.7271233568014" lon="10.250312864354585"><ele>12.0</ele><time>2026-04-09T10:49:16Z</time></trkpt><trkpt lat="36.727214319983105" lon="10.250011668809234"><ele>12.0</ele><time>2026-04-09T10:49:17Z</time></trkpt><trkpt lat="36.72730789219818" lon="10.24970127221521"><ele>12.5</ele><time>2026-04-09T10:49:18Z</time></trkpt><trkpt lat="36.72740106633346" lon="10.249374177521705"><ele>13.0</ele><time>2026-04-09T10:49:19Z</time></trkpt><trkpt lat="36.727494989433275" lon="10.249035181279451"><ele>13.0</ele><time>2026-04-09T10:49:20Z</time></trkpt><trkpt lat="36.72759118077449" lon="10.248681909823764"><ele>13.0</ele><time>2026-04-09T10:49:21Z</time></trkpt><trkpt lat="36.72768877633994" lon="10.248315955898475"><ele>12.0</ele><time>2026-04-09T10:49:22Z</time></trkpt><trkpt lat="36.72778166759656" lon="10.247953125016792"><ele>11.0</ele><time>2026-04-09T10:49:23Z</time></trkpt><trkpt lat="36.727870018295505" lon="10.247594569222837"><ele>13.0</ele><time>2026-04-09T10:49:24Z</time></trkpt><trkpt lat="36.727953062906494" lon="10.247237901412554"><ele>15.0</ele><time>2026-04-09T10:49:25Z</time></trkpt><trkpt lat="36.72803635050783" lon="10.246878871287535"><ele>15.0</ele><time>2026-04-09T10:49:26Z</time></trkpt><trkpt lat="36.728116023085256" lon="10.2465210768772"><ele>15.0</ele><time>2026-04-09T10:49:27Z</time></trkpt><trkpt lat="36.72819166498863" lon="10.246163687090528"><ele>13.5</ele><time>2026-04-09T10:49:28Z</time></trkpt><trkpt lat="36.72826630674281" lon="10.245807976389571"><ele>12.0</ele><time>2026-04-09T10:49:29Z</time></trkpt><trkpt lat="36.72833815655178" lon="10.245460633635041"><ele>11.0</ele><time>2026-04-09T10:49:30Z</time></trkpt><trkpt lat="36.72840649670251" lon="10.245129684654538"><ele>10.0</ele><time>2026-04-09T10:49:31Z</time></trkpt><trkpt lat="36.72847212497072" lon="10.24481537285291"><ele>10.5</ele><time>2026-04-09T10:49:32Z</time></trkpt><trkpt lat="36.728531268443476" lon="10.244509422284791"><ele>11.0</ele><time>2026-04-09T10:49:33Z</time></trkpt><trkpt lat="36.728584570287566" lon="10.244216908474447"><ele>11.0</ele><time>2026-04-09T10:49:34Z</time></trkpt><trkpt lat="36.72863474771203" lon="10.243932324630563"><ele>11.0</ele><time>2026-04-09T10:49:35Z</time></trkpt><trkpt lat="36.72868360709413" lon="10.243644838280943"><ele>11.0</ele><time>2026-04-09T10:49:36Z</time></trkpt><trkpt lat="36.72873044115501" lon="10.243357808864072"><ele>11.0</ele><time>2026-04-09T10:49:37Z</time></trkpt><trkpt lat="36.72878070302723" lon="10.24307598697988"><ele>11.0</ele><time>2026-04-09T10:49:38Z</time></trkpt><trkpt lat="36.72882784569471" lon="10.24279334363393"><ele>11.0</ele><time>2026-04-09T10:49:39Z</time></trkpt><trkpt lat="36.7288715934565" lon="10.242513084580864"><ele>11.0</ele><time>2026-04-09T10:49:40Z</time></trkpt><trkpt lat="36.7289144145714" lon="10.242231580877474"><ele>11.0</ele><time>2026-04-09T10:49:41Z</time></trkpt><trkpt lat="36.72895702585432" lon="10.241949465866206"><ele>11.0</ele><time>2026-04-09T10:49:42Z</time></trkpt><trkpt lat="36.729000395175284" lon="10.241669648911463"><ele>11.0</ele><time>2026-04-09T10:49:43Z</time></trkpt><trkpt lat="36.7290415667402" lon="10.241388411569993"><ele>11.5</ele><time>2026-04-09T10:49:44Z</time></trkpt><trkpt lat="36.72908419197653" lon="10.241104806643655"><ele>12.0</ele><time>2026-04-09T10:49:45Z</time></trkpt><trkpt lat="36.72912882974212" lon="10.24081983260077"><ele>12.0</ele><time>2026-04-09T10:49:46Z</time></trkpt><trkpt lat="36.72917439084585" lon="10.240538678340792"><ele>12.0</ele><time>2026-04-09T10:49:47Z</time></trkpt><trkpt lat="36.72921531444669" lon="10.240270681674565"><ele>12.0</ele><time>2026-04-09T10:49:48Z</time></trkpt><trkpt lat="36.72925561872214" lon="10.240018101127719"><ele>12.0</ele><time>2026-04-09T10:49:49Z</time></trkpt><trkpt lat="36.72929519983429" lon="10.239774004075064"><ele>12.0</ele><time>2026-04-09T10:49:50Z</time></trkpt><trkpt lat="36.72933709722624" lon="10.239531210497304"><ele>12.0</ele><time>2026-04-09T10:49:51Z</time></trkpt><trkpt lat="36.72937986122518" lon="10.239293058189725"><ele>11.666666666666666</ele><time>2026-04-09T10:49:52Z</time></trkpt><trkpt lat="36.72942050052738" lon="10.239063984006743"><ele>11.333333333333332</ele><time>2026-04-09T10:49:53Z</time></trkpt><trkpt lat="36.72946248170082" lon="10.238842929794687"><ele>11.0</ele><time>2026-04-09T10:49:54Z</time></trkpt><trkpt lat="36.72950246979121" lon="10.238630009525055"><ele>10.666666666666666</ele><time>2026-04-09T10:49:55Z</time></trkpt><trkpt lat="36.7295443661939" lon="10.23841652463572"><ele>10.333333333333334</ele><time>2026-04-09T10:49:56Z</time></trkpt><trkpt lat="36.72958882608039" lon="10.238200080970376"><ele>10.0</ele><time>2026-04-09T10:49:57Z</time></trkpt><trkpt lat="36.72963962720126" lon="10.237978661377927"><ele>10.0</ele><time>2026-04-09T10:49:58Z</time></trkpt><trkpt lat="36.72969455262779" lon="10.237762111811698"><ele>10.0</ele><time>2026-04-09T10:49:59Z</time></trkpt><trkpt lat="36.72975136930853" lon="10.237545340620205"><ele>10.0</ele><time>2026-04-09T10:50:00Z</time></trkpt><trkpt lat="36.729806158009026" lon="10.237331488082692"><ele>9.666666666666668</ele><time>2026-04-09T10:50:01Z</time></trkpt><trkpt lat="36.729857375770465" lon="10.237118320383546"><ele>9.333333333333334</ele><time>2026-04-09T10:50:02Z</time></trkpt><trkpt lat="36.72990754017432" lon="10.236906563230077"><ele>9.0</ele><time>2026-04-09T10:50:03Z</time></trkpt><trkpt lat="36.7299616311153" lon="10.236695984246264"><ele>9.0</ele><time>2026-04-09T10:50:04Z</time></trkpt><trkpt lat="36.73001757519785" lon="10.236487278347468"><ele>9.0</ele><time>2026-04-09T10:50:05Z</time></trkpt><trkpt lat="36.730070932453835" lon="10.236294575255293"><ele>9.0</ele><time>2026-04-09T10:50:06Z</time></trkpt><trkpt lat="36.73012644506245" lon="10.236107134219804"><ele>9.75</ele><time>2026-04-09T10:50:07Z</time></trkpt><trkpt lat="36.730179990911275" lon="10.235926475446428"><ele>10.5</ele><time>2026-04-09T10:50:08Z</time></trkpt><trkpt lat="36.73023261503674" lon="10.235752296603689"><ele>11.25</ele><time>2026-04-09T10:50:09Z</time></trkpt><trkpt lat="36.73028289458641" lon="10.235584488554963"><ele>12.0</ele><time>2026-04-09T10:50:10Z</time></trkpt><trkpt lat="36.73033289548476" lon="10.235417661583336"><ele>12.25</ele><time>2026-04-09T10:50:11Z</time></trkpt><trkpt lat="36.73038271368493" lon="10.23525431016977"><ele>12.5</ele><time>2026-04-09T10:50:11.999Z</time></trkpt><trkpt lat="36.73043707033297" lon="10.235088447090524"><ele>12.75</ele><time>2026-04-09T10:50:12.999Z</time></trkpt><trkpt lat="36.73049008613112" lon="10.234927737266716"><ele>13.0</ele><time>2026-04-09T10:50:13.999Z</time></trkpt><trkpt lat="36.73054327164541" lon="10.23476468784263"><ele>13.0</ele><time>2026-04-09T10:50:14.999Z</time></trkpt><trkpt lat="36.73059389713969" lon="10.234601609899995"><ele>13.0</ele><time>2026-04-09T10:50:15.999Z</time></trkpt><trkpt lat="36.73064325340867" lon="10.234435934629772"><ele>13.0</ele><time>2026-04-09T10:50:16.999Z</time></trkpt><trkpt lat="36.73069604936594" lon="10.23426740549474"><ele>13.0</ele><time>2026-04-09T10:50:17.999Z</time></trkpt><trkpt lat="36.730751214047736" lon="10.234102622946667"><ele>13.5</ele><time>2026-04-09T10:50:18.999Z</time></trkpt><trkpt lat="36.73080532221294" lon="10.233935961371827"><ele>14.0</ele><time>2026-04-09T10:50:19.999Z</time></trkpt><trkpt lat="36.730861021177176" lon="10.233765012346955"><ele>14.5</ele><time>2026-04-09T10:50:20.999Z</time></trkpt><trkpt lat="36.730917568102875" lon="10.233596335761668"><ele>15.0</ele><time>2026-04-09T10:50:21.999Z</time></trkpt><trkpt lat="36.730975887991065" lon="10.233424087111535"><ele>15.0</ele><time>2026-04-09T10:50:22.999Z</time></trkpt><trkpt lat="36.73103482754351" lon="10.233245779691062"><ele>15.0</ele><time>2026-04-09T10:50:23.999Z</time></trkpt><trkpt lat="36.731097155793144" lon="10.233062484412303"><ele>15.0</ele><time>2026-04-09T10:50:24.999Z</time></trkpt><trkpt lat="36.7311579968927" lon="10.23287965613254"><ele>15.0</ele><time>2026-04-09T10:50:25.999Z</time></trkpt><trkpt lat="36.7312189356743" lon="10.232696951714981"><ele>15.0</ele><time>2026-04-09T10:50:26.999Z</time></trkpt><trkpt lat="36.73127833660553" lon="10.232510084030803"><ele>15.0</ele><time>2026-04-09T10:50:27.999Z</time></trkpt><trkpt lat="36.73133837596964" lon="10.232327880381016"><ele>15.333333333333332</ele><time>2026-04-09T10:50:29Z</time></trkpt><trkpt lat="36.73139925384946" lon="10.232144820185459"><ele>15.666666666666666</ele><time>2026-04-09T10:50:30Z</time></trkpt><trkpt lat="36.73146440709487" lon="10.231962653006974"><ele>16.0</ele><time>2026-04-09T10:50:31Z</time></trkpt><trkpt lat="36.73152953887852" lon="10.231779260241577"><ele>16.0</ele><time>2026-04-09T10:50:32Z</time></trkpt><trkpt lat="36.73159030015632" lon="10.23159374275331"><ele>16.0</ele><time>2026-04-09T10:50:33Z</time></trkpt><trkpt lat="36.73165327114994" lon="10.231403299501867"><ele>16.0</ele><time>2026-04-09T10:50:34Z</time></trkpt><trkpt lat="36.7317210210157" lon="10.231213745288462"><ele>15.666666666666666</ele><time>2026-04-09T10:50:35Z</time></trkpt><trkpt lat="36.73179014778229" lon="10.231021924905944"><ele>15.333333333333332</ele><time>2026-04-09T10:50:36Z</time></trkpt><trkpt lat="36.73185738075311" lon="10.230831593117914"><ele>15.0</ele><time>2026-04-09T10:50:37Z</time></trkpt><trkpt lat="36.731919464890325" lon="10.230640543856973"><ele>14.333333333333332</ele><time>2026-04-09T10:50:38Z</time></trkpt><trkpt lat="36.731981709152016" lon="10.230449951089424"><ele>13.666666666666666</ele><time>2026-04-09T10:50:39Z</time></trkpt><trkpt lat="36.732042672021336" lon="10.230260114913419"><ele>13.0</ele><time>2026-04-09T10:50:40Z</time></trkpt><trkpt lat="36.732103338244286" lon="10.23006921181448"><ele>13.0</ele><time>2026-04-09T10:50:41Z</time></trkpt><trkpt lat="36.73216624289166" lon="10.2298782879355"><ele>13.0</ele><time>2026-04-09T10:50:42Z</time></trkpt><trkpt lat="36.73223290498803" lon="10.22968814565567"><ele>13.0</ele><time>2026-04-09T10:50:43Z</time></trkpt><trkpt lat="36.73230368146058" lon="10.22949889602538"><ele>13.0</ele><time>2026-04-09T10:50:44Z</time></trkpt><trkpt lat="36.73237707898551" lon="10.229310304378439"><ele>13.0</ele><time>2026-04-09T10:50:45Z</time></trkpt><trkpt lat="36.732450129437076" lon="10.229113785268272"><ele>13.0</ele><time>2026-04-09T10:50:46Z</time></trkpt><trkpt lat="36.73252110842283" lon="10.228907460026933"><ele>13.333333333333332</ele><time>2026-04-09T10:50:47Z</time></trkpt><trkpt lat="36.73259093191483" lon="10.228694490193986"><ele>13.666666666666668</ele><time>2026-04-09T10:50:48Z</time></trkpt><trkpt lat="36.7326558387186" lon="10.228480394050594"><ele>14.0</ele><time>2026-04-09T10:50:49Z</time></trkpt><trkpt lat="36.732725434897375" lon="10.228266663737566"><ele>15.666666666666668</ele><time>2026-04-09T10:50:50Z</time></trkpt><trkpt lat="36.73279904019496" lon="10.22804761352612"><ele>17.333333333333332</ele><time>2026-04-09T10:50:51Z</time></trkpt><trkpt lat="36.73287778862202" lon="10.227823686559349"><ele>19.0</ele><time>2026-04-09T10:50:52Z</time></trkpt><trkpt lat="36.732955473864564" lon="10.227599912175776"><ele>19.0</ele><time>2026-04-09T10:50:53Z</time></trkpt><trkpt lat="36.7330347392567" lon="10.227371883583361"><ele>19.0</ele><time>2026-04-09T10:50:54Z</time></trkpt><trkpt lat="36.73311622361141" lon="10.227141219770138"><ele>19.0</ele><time>2026-04-09T10:50:55Z</time></trkpt><trkpt lat="36.733197174080786" lon="10.226914332829145"><ele>18.333333333333332</ele><time>2026-04-09T10:50:56Z</time></trkpt><trkpt lat="36.733280648123866" lon="10.226688413504494"><ele>17.666666666666668</ele><time>2026-04-09T10:50:57Z</time></trkpt><trkpt lat="36.73336637395945" lon="10.226463955460595"><ele>17.0</ele><time>2026-04-09T10:50:58Z</time></trkpt><trkpt lat="36.73345416353714" lon="10.226237880104321"><ele>16.666666666666668</ele><time>2026-04-09T10:50:59Z</time></trkpt><trkpt lat="36.73354481076814" lon="10.226013118465206"><ele>16.333333333333332</ele><time>2026-04-09T10:51:00Z</time></trkpt><trkpt lat="36.73363557087751" lon="10.225784937482757"><ele>16.0</ele><time>2026-04-09T10:51:01Z</time></trkpt><trkpt lat="36.73372519638843" lon="10.225564511377641"><ele>15.333333333333332</ele><time>2026-04-09T10:51:02Z</time></trkpt><trkpt lat="36.733810732350996" lon="10.225357705998189"><ele>14.666666666666668</ele><time>2026-04-09T10:51:03Z</time></trkpt><trkpt lat="36.733900429915366" lon="10.225156213195177"><ele>14.0</ele><time>2026-04-09T10:51:04Z</time></trkpt><trkpt lat="36.73399058671703" lon="10.224953333436687"><ele>13.666666666666668</ele><time>2026-04-09T10:51:05Z</time></trkpt><trkpt lat="36.7340855537126" lon="10.224750928051321"><ele>13.333333333333332</ele><time>2026-04-09T10:51:06Z</time></trkpt><trkpt lat="36.7341791610548" lon="10.224549717721603"><ele>13.0</ele><time>2026-04-09T10:51:07Z</time></trkpt><trkpt lat="36.73427318951192" lon="10.224350179540957"><ele>13.0</ele><time>2026-04-09T10:51:08Z</time></trkpt><trkpt lat="36.73436722010073" lon="10.224148531833096"><ele>13.0</ele><time>2026-04-09T10:51:09Z</time></trkpt><trkpt lat="36.73446855929027" lon="10.223949176986771"><ele>13.0</ele><time>2026-04-09T10:51:10Z</time></trkpt><trkpt lat="36.73457226944694" lon="10.22374888995573"><ele>12.666666666666666</ele><time>2026-04-09T10:51:11Z</time></trkpt><trkpt lat="36.734674487771585" lon="10.22355267562351"><ele>12.333333333333332</ele><time>2026-04-09T10:51:12Z</time></trkpt><trkpt lat="36.734776324008166" lon="10.223363138438284"><ele>12.0</ele><time>2026-04-09T10:51:13Z</time></trkpt><trkpt lat="36.73487439768781" lon="10.223180023787975"><ele>13.0</ele><time>2026-04-09T10:51:14Z</time></trkpt><trkpt lat="36.73496945044858" lon="10.22300622892538"><ele>14.0</ele><time>2026-04-09T10:51:15Z</time></trkpt><trkpt lat="36.73505711836157" lon="10.222844834443071"><ele>15.0</ele><time>2026-04-09T10:51:16Z</time></trkpt><trkpt lat="36.73514613838218" lon="10.222690185163719"><ele>15.0</ele><time>2026-04-09T10:51:17Z</time></trkpt><trkpt lat="36.7352313609483" lon="10.222546407961953"><ele>15.0</ele><time>2026-04-09T10:51:18Z</time></trkpt><trkpt lat="36.73531294212188" lon="10.222405208456344"><ele>15.0</ele><time>2026-04-09T10:51:19Z</time></trkpt><trkpt lat="36.73538966577089" lon="10.222270165902053"><ele>15.0</ele><time>2026-04-09T10:51:20Z</time></trkpt><trkpt lat="36.73546278522239" lon="10.22214211552698"><ele>15.0</ele><time>2026-04-09T10:51:21Z</time></trkpt><trkpt lat="36.735532386287716" lon="10.22201944197892"><ele>15.0</ele><time>2026-04-09T10:51:22Z</time></trkpt><trkpt lat="36.73559982551188" lon="10.221905210479703"><ele>15.0</ele><time>2026-04-09T10:51:23Z</time></trkpt><trkpt lat="36.735665394979556" lon="10.221795337128977"><ele>15.0</ele><time>2026-04-09T10:51:24Z</time></trkpt><trkpt lat="36.735729017920924" lon="10.221690436919678"><ele>15.0</ele><time>2026-04-09T10:51:25Z</time></trkpt><trkpt lat="36.735792739977995" lon="10.221588888742474"><ele>15.0</ele><time>2026-04-09T10:51:26Z</time></trkpt><trkpt lat="36.73585568178735" lon="10.221498373140319"><ele>15.0</ele><time>2026-04-09T10:51:27Z</time></trkpt><trkpt lat="36.735919208111966" lon="10.22141986655277"><ele>15.0</ele><time>2026-04-09T10:51:28Z</time></trkpt><trkpt lat="36.73597765592701" lon="10.221346508329379"><ele>15.0</ele><time>2026-04-09T10:51:29Z</time></trkpt><trkpt lat="36.73603812638883" lon="10.221276630672925"><ele>15.0</ele><time>2026-04-09T10:51:30Z</time></trkpt><trkpt lat="36.73610657422495" lon="10.22121082866298"><ele>15.0</ele><time>2026-04-09T10:51:31Z</time></trkpt><trkpt lat="36.736184027183924" lon="10.221150419865035"><ele>14.8</ele><time>2026-04-09T10:51:32Z</time></trkpt><trkpt lat="36.73626802738269" lon="10.22109708179033"><ele>14.6</ele><time>2026-04-09T10:51:33Z</time></trkpt><trkpt lat="36.73635704229149" lon="10.22104907848288"><ele>14.399999999999999</ele><time>2026-04-09T10:51:34Z</time></trkpt><trkpt lat="36.73645007008007" lon="10.221006124016535"><ele>14.2</ele><time>2026-04-09T10:51:35Z</time></trkpt><trkpt lat="36.736550221230786" lon="10.220970686600001"><ele>14.0</ele><time>2026-04-09T10:51:36Z</time></trkpt><trkpt lat="36.73665103729423" lon="10.220934476168441"><ele>14.0</ele><time>2026-04-09T10:51:37Z</time></trkpt><trkpt lat="36.736752927615186" lon="10.2208913565254"><ele>13.999999999999998</ele><time>2026-04-09T10:51:38Z</time></trkpt><trkpt lat="36.736853242795725" lon="10.220848218982129"><ele>13.999999999999998</ele><time>2026-04-09T10:51:39Z</time></trkpt><trkpt lat="36.7369538090393" lon="10.220803045906411"><ele>14.0</ele><time>2026-04-09T10:51:40Z</time></trkpt><trkpt lat="36.73705718555461" lon="10.220755200743943"><ele>14.0</ele><time>2026-04-09T10:51:41Z</time></trkpt><trkpt lat="36.737154879916446" lon="10.220707737996678"><ele>14.000000000000002</ele><time>2026-04-09T10:51:42Z</time></trkpt><trkpt lat="36.73724709489312" lon="10.220659928339773"><ele>14.0</ele><time>2026-04-09T10:51:43Z</time></trkpt><trkpt lat="36.73733245469223" lon="10.220613594655742"><ele>14.0</ele><time>2026-04-09T10:51:44Z</time></trkpt><trkpt lat="36.73741442799174" lon="10.220571533569531"><ele>14.0</ele><time>2026-04-09T10:51:45Z</time></trkpt><trkpt lat="36.73749182231962" lon="10.22053390736009"><ele>14.000000000000002</ele><time>2026-04-09T10:51:46Z</time></trkpt><trkpt lat="36.737567454786394" lon="10.220503226593681"><ele>14.0</ele><time>2026-04-09T10:51:47Z</time></trkpt><trkpt lat="36.737647990341976" lon="10.220481013850925"><ele>13.799999999999999</ele><time>2026-04-09T10:51:48Z</time></trkpt><trkpt lat="36.73773299746182" lon="10.220462579502925"><ele>13.599999999999998</ele><time>2026-04-09T10:51:49Z</time></trkpt><trkpt lat="36.73781837336208" lon="10.220433030693798"><ele>13.4</ele><time>2026-04-09T10:51:50Z</time></trkpt><trkpt lat="36.73790024492091" lon="10.220385726882332"><ele>13.2</ele><time>2026-04-09T10:51:51Z</time></trkpt><trkpt lat="36.73798201028787" lon="10.220324597003751"><ele>13.0</ele><time>2026-04-09T10:51:52Z</time></trkpt><trkpt lat="36.73806020346255" lon="10.220262741544712"><ele>12.999999999999998</ele><time>2026-04-09T10:51:53Z</time></trkpt><trkpt lat="36.738145184863974" lon="10.220206350796792"><ele>13.0</ele><time>2026-04-09T10:51:54Z</time></trkpt><trkpt lat="36.738231869845194" lon="10.220158429684247"><ele>13.0</ele><time>2026-04-09T10:51:55Z</time></trkpt><trkpt lat="36.73831861465239" lon="10.220115902480979"><ele>13.0</ele><time>2026-04-09T10:51:56Z</time></trkpt><trkpt lat="36.73839694169109" lon="10.220077666466576"><ele>12.999999999999998</ele><time>2026-04-09T10:51:57Z</time></trkpt><trkpt lat="36.73846375298345" lon="10.220045503262329"><ele>13.0</ele><time>2026-04-09T10:51:58Z</time></trkpt><trkpt lat="36.738561099917646" lon="10.219992085036521"><ele>13.333333333333332</ele><time>2026-04-09T10:52:00Z</time></trkpt><trkpt lat="36.73863505962143" lon="10.219958837956158"><ele>13.666666666666666</ele><time>2026-04-09T10:52:02Z</time></trkpt><trkpt lat="36.73870547472199" lon="10.219934578420293"><ele>14.0</ele><time>2026-04-09T10:52:04Z</time></trkpt><trkpt lat="36.738775382328704" lon="10.219957321290943"><ele>14.333333333333332</ele><time>2026-04-09T10:52:06Z</time></trkpt><trkpt lat="36.7388444401698" lon="10.220031454047085"><ele>14.666666666666666</ele><time>2026-04-09T10:52:08Z</time></trkpt><trkpt lat="36.738884512900334" lon="10.220097161032113"><ele>15.0</ele><time>2026-04-09T10:52:09Z</time></trkpt><trkpt lat="36.738935798008846" lon="10.220187559067536"><ele>15.0</ele><time>2026-04-09T10:52:10Z</time></trkpt><trkpt lat="36.73899663105031" lon="10.22030067611186"><ele>15.0</ele><time>2026-04-09T10:52:11Z</time></trkpt><trkpt lat="36.73906776523047" lon="10.22042932353359"><ele>15.0</ele><time>2026-04-09T10:52:12Z</time></trkpt><trkpt lat="36.73913762781475" lon="10.220568767224165"><ele>15.0</ele><time>2026-04-09T10:52:13Z</time></trkpt><trkpt lat="36.73921128758135" lon="10.220718095349525"><ele>15.0</ele><time>2026-04-09T10:52:14Z</time></trkpt><trkpt lat="36.73928012219924" lon="10.220868583769176"><ele>15.0</ele><time>2026-04-09T10:52:15Z</time></trkpt><trkpt lat="36.739345749952015" lon="10.22102216114684"><ele>15.0</ele><time>2026-04-09T10:52:16Z</time></trkpt><trkpt lat="36.73940547660485" lon="10.22116351513714"><ele>15.0</ele><time>2026-04-09T10:52:17Z</time></trkpt><trkpt lat="36.73946427134287" lon="10.22130013517076"><ele>15.0</ele><time>2026-04-09T10:52:18Z</time></trkpt><trkpt lat="36.739522770354576" lon="10.221434816455064"><ele>15.0</ele><time>2026-04-09T10:52:19Z</time></trkpt><trkpt lat="36.73957693925321" lon="10.22156588730683"><ele>15.0</ele><time>2026-04-09T10:52:20Z</time></trkpt><trkpt lat="36.73962689219695" lon="10.221693467972232"><ele>15.0</ele><time>2026-04-09T10:52:21Z</time></trkpt><trkpt lat="36.7396714809773" lon="10.221821816635572"><ele>14.5</ele><time>2026-04-09T10:52:22Z</time></trkpt><trkpt lat="36.739718523142805" lon="10.221950665458413"><ele>14.0</ele><time>2026-04-09T10:52:23Z</time></trkpt><trkpt lat="36.73976852717052" lon="10.22208324504652"><ele>13.5</ele><time>2026-04-09T10:52:24Z</time></trkpt><trkpt lat="36.73981881709415" lon="10.222219710570993"><ele>13.0</ele><time>2026-04-09T10:52:25Z</time></trkpt><trkpt lat="36.7398643572517" lon="10.222361312817831"><ele>12.75</ele><time>2026-04-09T10:52:26Z</time></trkpt><trkpt lat="36.73991121542631" lon="10.222502775105449"><ele>12.5</ele><time>2026-04-09T10:52:27Z</time></trkpt><trkpt lat="36.739958408412704" lon="10.222638379121747"><ele>12.25</ele><time>2026-04-09T10:52:28Z</time></trkpt><trkpt lat="36.73999942921063" lon="10.222768903641427"><ele>12.0</ele><time>2026-04-09T10:52:29Z</time></trkpt><trkpt lat="36.74004242223498" lon="10.222896102664595"><ele>12.0</ele><time>2026-04-09T10:52:30Z</time></trkpt><trkpt lat="36.740084650502006" lon="10.223027021809688"><ele>12.0</ele><time>2026-04-09T10:52:31Z</time></trkpt><trkpt lat="36.74012790553004" lon="10.223158016891857"><ele>12.0</ele><time>2026-04-09T10:52:32Z</time></trkpt><trkpt lat="36.74017256295555" lon="10.223286385673887"><ele>12.0</ele><time>2026-04-09T10:52:33Z</time></trkpt><trkpt lat="36.740215314490584" lon="10.22341731652089"><ele>11.8</ele><time>2026-04-09T10:52:34Z</time></trkpt><trkpt lat="36.74025511060321" lon="10.223546798944286"><ele>11.6</ele><time>2026-04-09T10:52:35Z</time></trkpt><trkpt lat="36.74029520980667" lon="10.223673563319569"><ele>11.4</ele><time>2026-04-09T10:52:36Z</time></trkpt><trkpt lat="36.74033383508873" lon="10.223798916238701"><ele>11.200000000000001</ele><time>2026-04-09T10:52:37Z</time></trkpt><trkpt lat="36.74037068956985" lon="10.2239240878243"><ele>11.0</ele><time>2026-04-09T10:52:38Z</time></trkpt><trkpt lat="36.7404071378458" lon="10.22404741486662"><ele>11.0</ele><time>2026-04-09T10:52:39Z</time></trkpt><trkpt lat="36.74044454589666" lon="10.224177867698499"><ele>11.0</ele><time>2026-04-09T10:52:40Z</time></trkpt><trkpt lat="36.74048777831985" lon="10.22431685794684"><ele>11.0</ele><time>2026-04-09T10:52:41Z</time></trkpt><trkpt lat="36.74053528028498" lon="10.224464478389974"><ele>11.0</ele><time>2026-04-09T10:52:42Z</time></trkpt><trkpt lat="36.74058245338031" lon="10.224623249524024"><ele>11.0</ele><time>2026-04-09T10:52:43Z</time></trkpt><trkpt lat="36.7406351946566" lon="10.224791827825266"><ele>11.0</ele><time>2026-04-09T10:52:44Z</time></trkpt><trkpt lat="36.74068922292498" lon="10.224965203218257"><ele>11.0</ele><time>2026-04-09T10:52:45Z</time></trkpt><trkpt lat="36.740746074941725" lon="10.225153567519625"><ele>11.0</ele><time>2026-04-09T10:52:46Z</time></trkpt><trkpt lat="36.740805723372326" lon="10.225343810867415"><ele>11.0</ele><time>2026-04-09T10:52:47Z</time></trkpt><trkpt lat="36.740867117544575" lon="10.225539070293408"><ele>11.0</ele><time>2026-04-09T10:52:48Z</time></trkpt><trkpt lat="36.740929935789296" lon="10.225735072878772"><ele>10.666666666666666</ele><time>2026-04-09T10:52:49Z</time></trkpt><trkpt lat="36.74099390747053" lon="10.225932844864978"><ele>10.333333333333334</ele><time>2026-04-09T10:52:50Z</time></trkpt><trkpt lat="36.7410586149626" lon="10.226128895981685"><ele>10.0</ele><time>2026-04-09T10:52:51Z</time></trkpt><trkpt lat="36.741122882677" lon="10.226323416381604"><ele>10.0</ele><time>2026-04-09T10:52:52Z</time></trkpt><trkpt lat="36.74118166458407" lon="10.226514678549822"><ele>10.0</ele><time>2026-04-09T10:52:53Z</time></trkpt><trkpt lat="36.74124196411795" lon="10.226704764517297"><ele>10.0</ele><time>2026-04-09T10:52:54Z</time></trkpt><trkpt lat="36.741302001056496" lon="10.22688984130682"><ele>10.0</ele><time>2026-04-09T10:52:55Z</time></trkpt><trkpt lat="36.74136615696178" lon="10.227079060615406"><ele>10.0</ele><time>2026-04-09T10:52:56Z</time></trkpt><trkpt lat="36.74142684909515" lon="10.22727918703498"><ele>10.0</ele><time>2026-04-09T10:52:57Z</time></trkpt><trkpt lat="36.7414841920827" lon="10.227486031404384"><ele>9.333333333333334</ele><time>2026-04-09T10:52:58Z</time></trkpt><trkpt lat="36.74153970342183" lon="10.22769674606716"><ele>8.666666666666666</ele><time>2026-04-09T10:52:59Z</time></trkpt><trkpt lat="36.741593917447375" lon="10.227905798280378"><ele>8.0</ele><time>2026-04-09T10:53:00Z</time></trkpt><trkpt lat="36.7416432067818" lon="10.2281235662971"><ele>8.333333333333332</ele><time>2026-04-09T10:53:01Z</time></trkpt><trkpt lat="36.74169772133748" lon="10.228338228064219"><ele>8.666666666666666</ele><time>2026-04-09T10:53:02Z</time></trkpt><trkpt lat="36.7417579016216" lon="10.228555097290492"><ele>9.0</ele><time>2026-04-09T10:53:03Z</time></trkpt><trkpt lat="36.74182842620811" lon="10.228774699097626"><ele>10.333333333333332</ele><time>2026-04-09T10:53:04Z</time></trkpt><trkpt lat="36.74190585516615" lon="10.228997580306006"><ele>11.666666666666666</ele><time>2026-04-09T10:53:05Z</time></trkpt><trkpt lat="36.741991089231966" lon="10.229224018743787"><ele>13.0</ele><time>2026-04-09T10:53:06Z</time></trkpt><trkpt lat="36.742082537134856" lon="10.229441333021677"><ele>13.0</ele><time>2026-04-09T10:53:07Z</time></trkpt><trkpt lat="36.74216593412639" lon="10.229643457524109"><ele>13.0</ele><time>2026-04-09T10:53:08Z</time></trkpt><trkpt lat="36.742248360675596" lon="10.229847174267821"><ele>13.0</ele><time>2026-04-09T10:53:09Z</time></trkpt><trkpt lat="36.74233374449155" lon="10.23005913705892"><ele>14.333333333333332</ele><time>2026-04-09T10:53:10Z</time></trkpt><trkpt lat="36.74241950324921" lon="10.230275878614446"><ele>15.666666666666668</ele><time>2026-04-09T10:53:11Z</time></trkpt><trkpt lat="36.742503173481424" lon="10.23048996326334"><ele>17.0</ele><time>2026-04-09T10:53:12Z</time></trkpt><trkpt lat="36.74258335742885" lon="10.230694339734706"><ele>16.333333333333336</ele><time>2026-04-09T10:53:13Z</time></trkpt><trkpt lat="36.74266137391363" lon="10.23088950692283"><ele>15.666666666666668</ele><time>2026-04-09T10:53:14Z</time></trkpt><trkpt lat="36.74275065396175" lon="10.231084407070295"><ele>15.0</ele><time>2026-04-09T10:53:15Z</time></trkpt><trkpt lat="36.74284213776417" lon="10.231272172570604"><ele>15.0</ele><time>2026-04-09T10:53:16Z</time></trkpt><trkpt lat="36.74293570167779" lon="10.231443387799757"><ele>15.0</ele><time>2026-04-09T10:53:17Z</time></trkpt><trkpt lat="36.7430333447481" lon="10.231609978163492"><ele>15.0</ele><time>2026-04-09T10:53:18Z</time></trkpt><trkpt lat="36.7431324090259" lon="10.231777780614864"><ele>17.666666666666668</ele><time>2026-04-09T10:53:19Z</time></trkpt><trkpt lat="36.74322919645682" lon="10.231942233615946"><ele>20.333333333333336</ele><time>2026-04-09T10:53:20Z</time></trkpt><trkpt lat="36.74333011332855" lon="10.232098797016397"><ele>23.0</ele><time>2026-04-09T10:53:21Z</time></trkpt><trkpt lat="36.743438249565685" lon="10.232262735821687"><ele>20.333333333333336</ele><time>2026-04-09T10:53:22Z</time></trkpt><trkpt lat="36.743550823119534" lon="10.232436045986454"><ele>17.666666666666668</ele><time>2026-04-09T10:53:23Z</time></trkpt><trkpt lat="36.743662756623365" lon="10.232616934803309"><ele>15.0</ele><time>2026-04-09T10:53:24Z</time></trkpt><trkpt lat="36.7437733222339" lon="10.232798319102839"><ele>15.0</ele><time>2026-04-09T10:53:25Z</time></trkpt><trkpt lat="36.74389068833245" lon="10.2329835102759"><ele>15.0</ele><time>2026-04-09T10:53:26Z</time></trkpt><trkpt lat="36.74399273730253" lon="10.233164076677282"><ele>15.0</ele><time>2026-04-09T10:53:27Z</time></trkpt><trkpt lat="36.74408963321723" lon="10.23334145594464"><ele>14.0</ele><time>2026-04-09T10:53:28Z</time></trkpt><trkpt lat="36.744185011660775" lon="10.233516732622316"><ele>13.0</ele><time>2026-04-09T10:53:29Z</time></trkpt><trkpt lat="36.74428221858926" lon="10.23369267332554"><ele>12.0</ele><time>2026-04-09T10:53:30Z</time></trkpt><trkpt lat="36.7443808524502" lon="10.233872724249142"><ele>11.333333333333334</ele><time>2026-04-09T10:53:31Z</time></trkpt><trkpt lat="36.74449473447406" lon="10.234070334032078"><ele>10.666666666666668</ele><time>2026-04-09T10:53:32Z</time></trkpt><trkpt lat="36.74462335869209" lon="10.234297615233013"><ele>10.0</ele><time>2026-04-09T10:53:33Z</time></trkpt><trkpt lat="36.74476507443765" lon="10.2345304510293"><ele>10.0</ele><time>2026-04-09T10:53:34Z</time></trkpt><trkpt lat="36.74491145514465" lon="10.234754146630486"><ele>10.0</ele><time>2026-04-09T10:53:35Z</time></trkpt><trkpt lat="36.74504859211316" lon="10.23497208035443"><ele>9.666666666666668</ele><time>2026-04-09T10:53:36Z</time></trkpt><trkpt lat="36.74518385411419" lon="10.235194128067295"><ele>9.333333333333334</ele><time>2026-04-09T10:53:37Z</time></trkpt><trkpt lat="36.745315241165656" lon="10.235410632226515"><ele>9.0</ele><time>2026-04-09T10:53:38Z</time></trkpt><trkpt lat="36.74544627407454" lon="10.235624780626774"><ele>8.666666666666666</ele><time>2026-04-09T10:53:39Z</time></trkpt><trkpt lat="36.745581908157234" lon="10.235839957922789"><ele>8.333333333333332</ele><time>2026-04-09T10:53:40Z</time></trkpt><trkpt lat="36.74571813904695" lon="10.236054613666704"><ele>8.0</ele><time>2026-04-09T10:53:41Z</time></trkpt><trkpt lat="36.74585891835467" lon="10.236267474812173"><ele>7.666666666666666</ele><time>2026-04-09T10:53:42Z</time></trkpt><trkpt lat="36.746003701772466" lon="10.23647120525603"><ele>7.333333333333334</ele><time>2026-04-09T10:53:43Z</time></trkpt><trkpt lat="36.74615254858959" lon="10.236662257610009"><ele>7.0</ele><time>2026-04-09T10:53:44Z</time></trkpt><trkpt lat="36.74629998602225" lon="10.236845780129945"><ele>7.0</ele><time>2026-04-09T10:53:45Z</time></trkpt><trkpt lat="36.74645143727141" lon="10.237024400387789"><ele>7.0</ele><time>2026-04-09T10:53:46Z</time></trkpt><trkpt lat="36.74660479946772" lon="10.23719995247285"><ele>7.0</ele><time>2026-04-09T10:53:47Z</time></trkpt><trkpt lat="36.74675975752223" lon="10.237367740471663"><ele>6.666666666666667</ele><time>2026-04-09T10:53:48Z</time></trkpt><trkpt lat="36.746918049301556" lon="10.237527448643512"><ele>6.333333333333334</ele><time>2026-04-09T10:53:49Z</time></trkpt><trkpt lat="36.7470734517774" lon="10.237683498915736"><ele>6.0</ele><time>2026-04-09T10:53:50Z</time></trkpt><trkpt lat="36.747227600868655" lon="10.237839004683085"><ele>6.0</ele><time>2026-04-09T10:53:51Z</time></trkpt><trkpt lat="36.747378795119474" lon="10.237991179969482"><ele>6.0</ele><time>2026-04-09T10:53:52Z</time></trkpt><trkpt lat="36.74753075898173" lon="10.238145535107188"><ele>6.0</ele><time>2026-04-09T10:53:53Z</time></trkpt><trkpt lat="36.74767650016045" lon="10.238294817111449"><ele>6.333333333333334</ele><time>2026-04-09T10:53:54Z</time></trkpt><trkpt lat="36.74781678037752" lon="10.238436671249897"><ele>6.666666666666667</ele><time>2026-04-09T10:53:55Z</time></trkpt><trkpt lat="36.747953039710275" lon="10.23857756355839"><ele>7.0</ele><time>2026-04-09T10:53:56Z</time></trkpt><trkpt lat="36.74807716406176" lon="10.238714695128378"><ele>7.0</ele><time>2026-04-09T10:53:57Z</time></trkpt><trkpt lat="36.74820035417725" lon="10.238858579860404"><ele>7.0</ele><time>2026-04-09T10:53:58Z</time></trkpt><trkpt lat="36.748327193278406" lon="10.23901241716092"><ele>7.0</ele><time>2026-04-09T10:53:59Z</time></trkpt><trkpt lat="36.74845965285556" lon="10.239176435296166"><ele>7.333333333333334</ele><time>2026-04-09T10:54:00Z</time></trkpt><trkpt lat="36.74859515177736" lon="10.239350882200776"><ele>7.666666666666666</ele><time>2026-04-09T10:54:01Z</time></trkpt><trkpt lat="36.74873040012742" lon="10.239532878470758"><ele>8.0</ele><time>2026-04-09T10:54:02Z</time></trkpt><trkpt lat="36.74886533197728" lon="10.239712191013014"><ele>7.666666666666666</ele><time>2026-04-09T10:54:03Z</time></trkpt><trkpt lat="36.74900390260259" lon="10.239902961420135"><ele>7.333333333333334</ele><time>2026-04-09T10:54:04Z</time></trkpt><trkpt lat="36.74913781656823" lon="10.24009594004987"><ele>7.0</ele><time>2026-04-09T10:54:05Z</time></trkpt><trkpt lat="36.749269704158195" lon="10.240291020814935"><ele>7.0</ele><time>2026-04-09T10:54:06Z</time></trkpt><trkpt lat="36.74939985028654" lon="10.240482745573049"><ele>7.0</ele><time>2026-04-09T10:54:07Z</time></trkpt><trkpt lat="36.749533803639245" lon="10.240672456110284"><ele>7.0</ele><time>2026-04-09T10:54:08Z</time></trkpt><trkpt lat="36.74966783194" lon="10.240855264452923"><ele>6.666666666666667</ele><time>2026-04-09T10:54:09Z</time></trkpt><trkpt lat="36.749802525040565" lon="10.241041079169166"><ele>6.333333333333334</ele><time>2026-04-09T10:54:10Z</time></trkpt><trkpt lat="36.749938204647684" lon="10.241222609188076"><ele>6.0</ele><time>2026-04-09T10:54:11Z</time></trkpt><trkpt lat="36.75007594820547" lon="10.241405300669472"><ele>6.333333333333334</ele><time>2026-04-09T10:54:12Z</time></trkpt><trkpt lat="36.750214477451244" lon="10.241586621050608"><ele>6.666666666666667</ele><time>2026-04-09T10:54:13Z</time></trkpt><trkpt lat="36.750353398660295" lon="10.241773122705654"><ele>7.0</ele><time>2026-04-09T10:54:14Z</time></trkpt><trkpt lat="36.75049466056373" lon="10.241960566393798"><ele>7.0</ele><time>2026-04-09T10:54:15Z</time></trkpt><trkpt lat="36.75063547654326" lon="10.242143459273484"><ele>7.0</ele><time>2026-04-09T10:54:16Z</time></trkpt><trkpt lat="36.750779400854526" lon="10.242327593243793"><ele>7.0</ele><time>2026-04-09T10:54:17Z</time></trkpt><trkpt lat="36.75092423034549" lon="10.242507086607988"><ele>6.666666666666667</ele><time>2026-04-09T10:54:18Z</time></trkpt><trkpt lat="36.75107669359389" lon="10.242676287344272"><ele>6.333333333333334</ele><time>2026-04-09T10:54:19Z</time></trkpt><trkpt lat="36.75124195932842" lon="10.242843881034338"><ele>6.0</ele><time>2026-04-09T10:54:20Z</time></trkpt><trkpt lat="36.75142183377385" lon="10.243012217503354"><ele>8.0</ele><time>2026-04-09T10:54:21Z</time></trkpt><trkpt lat="36.75162062229215" lon="10.24318612774972"><ele>10.0</ele><time>2026-04-09T10:54:22Z</time></trkpt><trkpt lat="36.75181907261131" lon="10.243355040451974"><ele>9.5</ele><time>2026-04-09T10:54:23Z</time></trkpt><trkpt lat="36.75200961482138" lon="10.243519034124937"><ele>9.0</ele><time>2026-04-09T10:54:24Z</time></trkpt><trkpt lat="36.75219293948862" lon="10.243680125740758"><ele>9.0</ele><time>2026-04-09T10:54:25Z</time></trkpt><trkpt lat="36.752377225652836" lon="10.243837220453074"><ele>9.0</ele><time>2026-04-09T10:54:26Z</time></trkpt><trkpt lat="36.75255712921106" lon="10.243992355325998"><ele>9.0</ele><time>2026-04-09T10:54:27Z</time></trkpt><trkpt lat="36.75272868612661" lon="10.244140845527317"><ele>10.666666666666668</ele><time>2026-04-09T10:54:28Z</time></trkpt><trkpt lat="36.75289329826004" lon="10.24429073173175"><ele>12.333333333333334</ele><time>2026-04-09T10:54:29Z</time></trkpt><trkpt lat="36.75304711473759" lon="10.24444130988761"><ele>14.0</ele><time>2026-04-09T10:54:30Z</time></trkpt><trkpt lat="36.75319273152126" lon="10.244594244377627"><ele>14.0</ele><time>2026-04-09T10:54:31Z</time></trkpt><trkpt lat="36.75333416158122" lon="10.244746137002819"><ele>14.0</ele><time>2026-04-09T10:54:32Z</time></trkpt><trkpt lat="36.753476711995795" lon="10.24490632096507"><ele>14.0</ele><time>2026-04-09T10:54:33Z</time></trkpt><trkpt lat="36.75361839850682" lon="10.245068531286222"><ele>13.0</ele><time>2026-04-09T10:54:34Z</time></trkpt><trkpt lat="36.75376085831781" lon="10.245231285051393"><ele>12.0</ele><time>2026-04-09T10:54:35Z</time></trkpt><trkpt lat="36.75390550455289" lon="10.245400920543695"><ele>11.0</ele><time>2026-04-09T10:54:36Z</time></trkpt><trkpt lat="36.75405089880951" lon="10.24556475892085"><ele>11.0</ele><time>2026-04-09T10:54:37Z</time></trkpt><trkpt lat="36.754203312003256" lon="10.245730117799805"><ele>11.0</ele><time>2026-04-09T10:54:38Z</time></trkpt><trkpt lat="36.754359680450584" lon="10.245897116800688"><ele>11.0</ele><time>2026-04-09T10:54:39Z</time></trkpt><trkpt lat="36.75452027619015" lon="10.24606408320689"><ele>11.0</ele><time>2026-04-09T10:54:40Z</time></trkpt><trkpt lat="36.75469378522092" lon="10.246232741603874"><ele>11.0</ele><time>2026-04-09T10:54:41Z</time></trkpt><trkpt lat="36.7548798956861" lon="10.246393290926196"><ele>11.0</ele><time>2026-04-09T10:54:42Z</time></trkpt><trkpt lat="36.75507375625205" lon="10.246552446788282"><ele>11.5</ele><time>2026-04-09T10:54:43Z</time></trkpt><trkpt lat="36.75526814846882" lon="10.24669416142629"><ele>12.0</ele><time>2026-04-09T10:54:44Z</time></trkpt><trkpt lat="36.755467766002" lon="10.246830561945293"><ele>12.0</ele><time>2026-04-09T10:54:45Z</time></trkpt><trkpt lat="36.755679655950814" lon="10.246962491907079"><ele>12.0</ele><time>2026-04-09T10:54:46Z</time></trkpt><trkpt lat="36.75590211525862" lon="10.247085108797439"><ele>12.5</ele><time>2026-04-09T10:54:47Z</time></trkpt><trkpt lat="36.75611568482343" lon="10.247193436701712"><ele>13.0</ele><time>2026-04-09T10:54:48Z</time></trkpt><trkpt lat="36.75632145942129" lon="10.247287422003621"><ele>13.0</ele><time>2026-04-09T10:54:49Z</time></trkpt><trkpt lat="36.756523902204066" lon="10.247366741199075"><ele>13.0</ele><time>2026-04-09T10:54:50Z</time></trkpt><trkpt lat="36.756719904329984" lon="10.247433361004711"><ele>13.0</ele><time>2026-04-09T10:54:51Z</time></trkpt><trkpt lat="36.75691489181799" lon="10.247500512092785"><ele>13.333333333333332</ele><time>2026-04-09T10:54:52Z</time></trkpt><trkpt lat="36.75710229908238" lon="10.247566595644399"><ele>13.666666666666668</ele><time>2026-04-09T10:54:53Z</time></trkpt><trkpt lat="36.757293701171974" lon="10.247630923247913"><ele>14.0</ele><time>2026-04-09T10:54:54Z</time></trkpt><trkpt lat="36.75748698774595" lon="10.247686431732191"><ele>14.0</ele><time>2026-04-09T10:54:55Z</time></trkpt><trkpt lat="36.75767998894812" lon="10.247732954674833"><ele>14.0</ele><time>2026-04-09T10:54:56Z</time></trkpt><trkpt lat="36.757865954137856" lon="10.2477738865659"><ele>14.0</ele><time>2026-04-09T10:54:57Z</time></trkpt><trkpt lat="36.75803672945676" lon="10.247810465193307"><ele>14.0</ele><time>2026-04-09T10:54:58Z</time></trkpt><trkpt lat="36.75821457870819" lon="10.247856294400883"><ele>14.0</ele><time>2026-04-09T10:54:59Z</time></trkpt><trkpt lat="36.75839049500409" lon="10.247910080768952"><ele>14.0</ele><time>2026-04-09T10:55:00Z</time></trkpt><trkpt lat="36.758567106074246" lon="10.247967510821855"><ele>13.666666666666668</ele><time>2026-04-09T10:55:01Z</time></trkpt><trkpt lat="36.758740328721984" lon="10.248030917672084"><ele>13.333333333333332</ele><time>2026-04-09T10:55:02Z</time></trkpt><trkpt lat="36.758910735167134" lon="10.248104780241933"><ele>13.0</ele><time>2026-04-09T10:55:03Z</time></trkpt><trkpt lat="36.75906899509719" lon="10.24818998587683"><ele>13.0</ele><time>2026-04-09T10:55:04Z</time></trkpt><trkpt lat="36.75921683922263" lon="10.248275799125118"><ele>13.0</ele><time>2026-04-09T10:55:05Z</time></trkpt><trkpt lat="36.759353002261626" lon="10.248365854770153"><ele>13.0</ele><time>2026-04-09T10:55:06Z</time></trkpt><trkpt lat="36.75947963962747" lon="10.24847172213357"><ele>12.333333333333332</ele><time>2026-04-09T10:55:07Z</time></trkpt><trkpt lat="36.759610964455035" lon="10.248589925729064"><ele>11.666666666666666</ele><time>2026-04-09T10:55:08Z</time></trkpt><trkpt lat="36.75975151065366" lon="10.248718626028959"><ele>11.0</ele><time>2026-04-09T10:55:09Z</time></trkpt><trkpt lat="36.75989149627168" lon="10.24884643723193"><ele>11.333333333333332</ele><time>2026-04-09T10:55:10Z</time></trkpt><trkpt lat="36.76003605160731" lon="10.24897687438689"><ele>11.666666666666666</ele><time>2026-04-09T10:55:11Z</time></trkpt><trkpt lat="36.76018103516052" lon="10.249097324523614"><ele>12.0</ele><time>2026-04-09T10:55:12Z</time></trkpt><trkpt lat="36.760334826191006" lon="10.249219484718758"><ele>12.0</ele><time>2026-04-09T10:55:13Z</time></trkpt><trkpt lat="36.760489827474565" lon="10.249348199530225"><ele>12.0</ele><time>2026-04-09T10:55:14Z</time></trkpt><trkpt lat="36.76064932907404" lon="10.249480638398191"><ele>12.0</ele><time>2026-04-09T10:55:15Z</time></trkpt><trkpt lat="36.760808420158604" lon="10.249613567756056"><ele>12.0</ele><time>2026-04-09T10:55:16Z</time></trkpt><trkpt lat="36.7609652343206" lon="10.249745392585941"><ele>12.0</ele><time>2026-04-09T10:55:17Z</time></trkpt><trkpt lat="36.76111751266168" lon="10.249861001208506"><ele>12.0</ele><time>2026-04-09T10:55:18Z</time></trkpt><trkpt lat="36.7612716497352" lon="10.249967680832379"><ele>13.333333333333332</ele><time>2026-04-09T10:55:19Z</time></trkpt><trkpt lat="36.761426293760785" lon="10.25007220184204"><ele>14.666666666666666</ele><time>2026-04-09T10:55:20Z</time></trkpt><trkpt lat="36.76158935132461" lon="10.25017968293425"><ele>16.0</ele><time>2026-04-09T10:55:21Z</time></trkpt><trkpt lat="36.761754137968566" lon="10.250285121054764"><ele>15.333333333333332</ele><time>2026-04-09T10:55:22Z</time></trkpt><trkpt lat="36.761922297476886" lon="10.250391230608221"><ele>14.666666666666668</ele><time>2026-04-09T10:55:23Z</time></trkpt><trkpt lat="36.76209372660183" lon="10.250503028611947"><ele>14.0</ele><time>2026-04-09T10:55:24Z</time></trkpt><trkpt lat="36.762266456763136" lon="10.250623544981044"><ele>14.0</ele><time>2026-04-09T10:55:25Z</time></trkpt><trkpt lat="36.762425809224595" lon="10.250749451403477"><ele>14.0</ele><time>2026-04-09T10:55:26Z</time></trkpt><trkpt lat="36.76258141791452" lon="10.250889650039953"><ele>14.0</ele><time>2026-04-09T10:55:27Z</time></trkpt><trkpt lat="36.76272478265967" lon="10.2510440172311"><ele>15.666666666666668</ele><time>2026-04-09T10:55:28Z</time></trkpt><trkpt lat="36.76286069673616" lon="10.251217990929218"><ele>17.333333333333332</ele><time>2026-04-09T10:55:29Z</time></trkpt><trkpt lat="36.762989329575085" lon="10.251410073334277"><ele>19.0</ele><time>2026-04-09T10:55:30Z</time></trkpt><trkpt lat="36.763111999352404" lon="10.2516160819245"><ele>19.333333333333332</ele><time>2026-04-09T10:55:31Z</time></trkpt><trkpt lat="36.763231426752704" lon="10.251833777085507"><ele>19.666666666666668</ele><time>2026-04-09T10:55:32Z</time></trkpt><trkpt lat="36.763351576668335" lon="10.25207510063409"><ele>20.0</ele><time>2026-04-09T10:55:33Z</time></trkpt><trkpt lat="36.763473296061846" lon="10.252310301284847"><ele>18.0</ele><time>2026-04-09T10:55:34Z</time></trkpt><trkpt lat="36.7635972591718" lon="10.25254667720048"><ele>16.0</ele><time>2026-04-09T10:55:35Z</time></trkpt><trkpt lat="36.7637271881328" lon="10.252793889794836"><ele>16.0</ele><time>2026-04-09T10:55:36Z</time></trkpt><trkpt lat="36.76386013380402" lon="10.2530463677499"><ele>16.0</ele><time>2026-04-09T10:55:37Z</time></trkpt><trkpt lat="36.76399222751053" lon="10.253297416067742"><ele>16.0</ele><time>2026-04-09T10:55:38Z</time></trkpt><trkpt lat="36.76412599557167" lon="10.2535506738135"><ele>16.0</ele><time>2026-04-09T10:55:39Z</time></trkpt><trkpt lat="36.764258331033055" lon="10.253807263333929"><ele>14.0</ele><time>2026-04-09T10:55:40Z</time></trkpt><trkpt lat="36.76438904651549" lon="10.254056577118645"><ele>12.0</ele><time>2026-04-09T10:55:41Z</time></trkpt><trkpt lat="36.764522464664694" lon="10.254309039524653"><ele>12.0</ele><time>2026-04-09T10:55:41.999Z</time></trkpt><trkpt lat="36.7646527963799" lon="10.254554873335284"><ele>12.0</ele><time>2026-04-09T10:55:42.999Z</time></trkpt><trkpt lat="36.764771561315605" lon="10.254782735615885"><ele>10.333333333333334</ele><time>2026-04-09T10:55:43.999Z</time></trkpt><trkpt lat="36.764888117012816" lon="10.25500795146497"><ele>8.666666666666668</ele><time>2026-04-09T10:55:44.999Z</time></trkpt><trkpt lat="36.76500637310794" lon="10.255230865222908"><ele>7.0</ele><time>2026-04-09T10:55:45.999Z</time></trkpt><trkpt lat="36.76512817295276" lon="10.255461895970422"><ele>5.666666666666667</ele><time>2026-04-09T10:55:46.999Z</time></trkpt><trkpt lat="36.76524836813038" lon="10.255693106695475"><ele>4.333333333333334</ele><time>2026-04-09T10:55:47.999Z</time></trkpt><trkpt lat="36.76537093830714" lon="10.255927783424172"><ele>3.0</ele><time>2026-04-09T10:55:48.999Z</time></trkpt><trkpt lat="36.76548770241673" lon="10.25616326760203"><ele>3.0</ele><time>2026-04-09T10:55:49.999Z</time></trkpt><trkpt lat="36.76559944233137" lon="10.256389825462866"><ele>3.0</ele><time>2026-04-09T10:55:50.999Z</time></trkpt><trkpt lat="36.76570679935896" lon="10.256616939170916"><ele>3.0</ele><time>2026-04-09T10:55:51.999Z</time></trkpt><trkpt lat="36.76581144177147" lon="10.256840529296406"><ele>3.333333333333333</ele><time>2026-04-09T10:55:52.999Z</time></trkpt><trkpt lat="36.765916574843104" lon="10.257069020560053"><ele>3.6666666666666665</ele><time>2026-04-09T10:55:53.999Z</time></trkpt><trkpt lat="36.7660192298956" lon="10.257297845916538"><ele>4.0</ele><time>2026-04-09T10:55:54.999Z</time></trkpt><trkpt lat="36.766122178642966" lon="10.257525822351209"><ele>3.333333333333333</ele><time>2026-04-09T10:55:55.999Z</time></trkpt><trkpt lat="36.76622654579537" lon="10.257748442528063"><ele>2.6666666666666665</ele><time>2026-04-09T10:55:56.999Z</time></trkpt><trkpt lat="36.76632931936782" lon="10.257959194421636"><ele>2.0</ele><time>2026-04-09T10:55:57.999Z</time></trkpt><trkpt lat="36.76643507016652" lon="10.258176513193495"><ele>2.0</ele><time>2026-04-09T10:55:58.999Z</time></trkpt><trkpt lat="36.76654297721792" lon="10.258397733682276"><ele>2.0</ele><time>2026-04-09T10:55:59.999Z</time></trkpt><trkpt lat="36.766649314877434" lon="10.25860708226042"><ele>2.0</ele><time>2026-04-09T10:56:00.999Z</time></trkpt><trkpt lat="36.76674613452957" lon="10.258804445229199"><ele>2.6666666666666665</ele><time>2026-04-09T10:56:01.999Z</time></trkpt><trkpt lat="36.76684733862905" lon="10.258998263323297"><ele>3.333333333333333</ele><time>2026-04-09T10:56:02.999Z</time></trkpt><trkpt lat="36.766942842025486" lon="10.259178425810806"><ele>4.0</ele><time>2026-04-09T10:56:03.999Z</time></trkpt><trkpt lat="36.76703447757782" lon="10.259354702444233"><ele>4.0</ele><time>2026-04-09T10:56:04.999Z</time></trkpt><trkpt lat="36.767124095686725" lon="10.259523306533493"><ele>4.0</ele><time>2026-04-09T10:56:05.999Z</time></trkpt><trkpt lat="36.76721160544243" lon="10.259686725634747"><ele>4.0</ele><time>2026-04-09T10:56:06.999Z</time></trkpt><trkpt lat="36.76729944978505" lon="10.259853510506506"><ele>3.0</ele><time>2026-04-09T10:56:07.999Z</time></trkpt><trkpt lat="36.767386704823835" lon="10.260025048519802"><ele>2.0</ele><time>2026-04-09T10:56:08.999Z</time></trkpt><trkpt lat="36.767473352699064" lon="10.260197290314755"><ele>1.0</ele><time>2026-04-09T10:56:09.999Z</time></trkpt><trkpt lat="36.76755837989978" lon="10.260366406666673"><ele>1.0</ele><time>2026-04-09T10:56:10.999Z</time></trkpt><trkpt lat="36.767643296207005" lon="10.260532590194744"><ele>1.0</ele><time>2026-04-09T10:56:11.999Z</time></trkpt><trkpt lat="36.76772961103803" lon="10.260698336238496"><ele>1.0</ele><time>2026-04-09T10:56:12.999Z</time></trkpt><trkpt lat="36.76782015205804" lon="10.260873353373942"><ele>0.6666666666666666</ele><time>2026-04-09T10:56:13.999Z</time></trkpt><trkpt lat="36.767908689814156" lon="10.26104610704317"><ele>0.3333333333333333</ele><time>2026-04-09T10:56:14.999Z</time></trkpt><trkpt lat="36.76799958497539" lon="10.261221246273863"><ele>0.0</ele><time>2026-04-09T10:56:15.999Z</time></trkpt><trkpt lat="36.76809210517579" lon="10.261396431006887"><ele>0.0</ele><time>2026-04-09T10:56:16.999Z</time></trkpt><trkpt lat="36.768188105120686" lon="10.261575688168556"><ele>0.0</ele><time>2026-04-09T10:56:17.999Z</time></trkpt><trkpt lat="36.76828168787889" lon="10.261760088942603"><ele>0.0</ele><time>2026-04-09T10:56:18.999Z</time></trkpt><trkpt lat="36.7683763394475" lon="10.26194683724324"><ele>0.0</ele><time>2026-04-09T10:56:19.999Z</time></trkpt><trkpt lat="36.76847577649377" lon="10.26214134947287"><ele>0.0</ele><time>2026-04-09T10:56:20.999Z</time></trkpt><trkpt lat="36.7685730606785" lon="10.262338412692598"><ele>0.0</ele><time>2026-04-09T10:56:21.999Z</time></trkpt><trkpt lat="36.768667755236095" lon="10.262540344502089"><ele>0.0</ele><time>2026-04-09T10:56:22.999Z</time></trkpt><trkpt lat="36.76876484625199" lon="10.262744279152491"><ele>0.0</ele><time>2026-04-09T10:56:23.999Z</time></trkpt><trkpt lat="36.76886039615685" lon="10.262946806124134"><ele>0.0</ele><time>2026-04-09T10:56:24.999Z</time></trkpt><trkpt lat="36.768965451306705" lon="10.263149908497804"><ele>-0.3333333333333333</ele><time>2026-04-09T10:56:25.999Z</time></trkpt><trkpt lat="36.769071673045595" lon="10.263345773839408"><ele>-0.6666666666666666</ele><time>2026-04-09T10:56:26.999Z</time></trkpt><trkpt lat="36.76917886875361" lon="10.263544934263342"><ele>-1.0</ele><time>2026-04-09T10:56:27.999Z</time></trkpt><trkpt lat="36.76928524989163" lon="10.26374302765002"><ele>-0.6666666666666666</ele><time>2026-04-09T10:56:28.999Z</time></trkpt><trkpt lat="36.769391559705646" lon="10.263941321380388"><ele>-0.3333333333333333</ele><time>2026-04-09T10:56:29.999Z</time></trkpt><trkpt lat="36.7694961163539" lon="10.264136168769546"><ele>0.0</ele><time>2026-04-09T10:56:30.999Z</time></trkpt><trkpt lat="36.7696019747209" lon="10.264328619815794"><ele>0.0</ele><time>2026-04-09T10:56:31.999Z</time></trkpt><trkpt lat="36.769708313784264" lon="10.264524024603045"><ele>0.0</ele><time>2026-04-09T10:56:32.999Z</time></trkpt><trkpt lat="36.769811147460004" lon="10.264718367829946"><ele>0.0</ele><time>2026-04-09T10:56:33.999Z</time></trkpt><trkpt lat="36.769915975337184" lon="10.264911771442698"><ele>0.0</ele><time>2026-04-09T10:56:34.999Z</time></trkpt><trkpt lat="36.77002561343029" lon="10.265096431139732"><ele>0.0</ele><time>2026-04-09T10:56:35.999Z</time></trkpt><trkpt lat="36.77012642817182" lon="10.265281463193212"><ele>0.0</ele><time>2026-04-09T10:56:36.999Z</time></trkpt><trkpt lat="36.770232013930126" lon="10.265464066462359"><ele>0.0</ele><time>2026-04-09T10:56:37.999Z</time></trkpt><trkpt lat="36.77033934444921" lon="10.265647782346669"><ele>0.0</ele><time>2026-04-09T10:56:38.999Z</time></trkpt><trkpt lat="36.77045036092371" lon="10.265836823219075"><ele>0.0</ele><time>2026-04-09T10:56:39.999Z</time></trkpt><trkpt lat="36.77056201102652" lon="10.26602091773253"><ele>0.0</ele><time>2026-04-09T10:56:40.999Z</time></trkpt><trkpt lat="36.770677408422884" lon="10.266211878834707"><ele>0.0</ele><time>2026-04-09T10:56:41.999Z</time></trkpt><trkpt lat="36.77079626629727" lon="10.266410800905744"><ele>0.0</ele><time>2026-04-09T10:56:42.999Z</time></trkpt><trkpt lat="36.77092283535281" lon="10.266618481362167"><ele>0.0</ele><time>2026-04-09T10:56:43.999Z</time></trkpt><trkpt lat="36.77104908003123" lon="10.266824533982193"><ele>0.0</ele><time>2026-04-09T10:56:44.999Z</time></trkpt><trkpt lat="36.771172211171844" lon="10.267027401338927"><ele>0.0</ele><time>2026-04-09T10:56:46Z</time></trkpt><trkpt lat="36.77129426040495" lon="10.267229481740465"><ele>0.0</ele><time>2026-04-09T10:56:47Z</time></trkpt><trkpt lat="36.7714132585237" lon="10.267425594329142"><ele>0.0</ele><time>2026-04-09T10:56:48Z</time></trkpt><trkpt lat="36.771535307808456" lon="10.267619401739685"><ele>0.0</ele><time>2026-04-09T10:56:49Z</time></trkpt><trkpt lat="36.771654857477266" lon="10.267811501577224"><ele>0.0</ele><time>2026-04-09T10:56:50Z</time></trkpt><trkpt lat="36.77177426415976" lon="10.26799731131081"><ele>0.0</ele><time>2026-04-09T10:56:51Z</time></trkpt><trkpt lat="36.77189100697688" lon="10.268183175858914"><ele>0.0</ele><time>2026-04-09T10:56:52Z</time></trkpt><trkpt lat="36.77200513859005" lon="10.268364349090186"><ele>0.0</ele><time>2026-04-09T10:56:53Z</time></trkpt><trkpt lat="36.77211771852066" lon="10.268542740401665"><ele>0.0</ele><time>2026-04-09T10:56:54Z</time></trkpt><trkpt lat="36.77222999297696" lon="10.268720277233916"><ele>0.0</ele><time>2026-04-09T10:56:55Z</time></trkpt><trkpt lat="36.772344387646186" lon="10.26890485767382"><ele>-2.0</ele><time>2026-04-09T10:56:56Z</time></trkpt><trkpt lat="36.77246122568275" lon="10.269090930069487"><ele>-4.0</ele><time>2026-04-09T10:56:57Z</time></trkpt><trkpt lat="36.77258033954212" lon="10.269279418338368"><ele>-6.0</ele><time>2026-04-09T10:56:58Z</time></trkpt><trkpt lat="36.772699887031976" lon="10.269475665397863"><ele>-6.0</ele><time>2026-04-09T10:56:59Z</time></trkpt><trkpt lat="36.77281784772868" lon="10.269668879077027"><ele>-6.0</ele><time>2026-04-09T10:57:00Z</time></trkpt><trkpt lat="36.772936566087296" lon="10.269860036705005"><ele>-6.0</ele><time>2026-04-09T10:57:01Z</time></trkpt><trkpt lat="36.77305780714035" lon="10.270053068628346"><ele>-5.333333333333333</ele><time>2026-04-09T10:57:02Z</time></trkpt><trkpt lat="36.77317854773355" lon="10.270243190994886"><ele>-4.666666666666666</ele><time>2026-04-09T10:57:03Z</time></trkpt><trkpt lat="36.77330257249054" lon="10.270438419476916"><ele>-4.0</ele><time>2026-04-09T10:57:04Z</time></trkpt><trkpt lat="36.773423726502195" lon="10.270636022428912"><ele>-4.0</ele><time>2026-04-09T10:57:05Z</time></trkpt><trkpt lat="36.77355347757362" lon="10.270839938585011"><ele>-4.0</ele><time>2026-04-09T10:57:06Z</time></trkpt><trkpt lat="36.77368389123701" lon="10.271047129790869"><ele>-4.0</ele><time>2026-04-09T10:57:07Z</time></trkpt><trkpt lat="36.77382353941362" lon="10.271258443069112"><ele>-2.5</ele><time>2026-04-09T10:57:08Z</time></trkpt><trkpt lat="36.773966290484125" lon="10.271476013597328"><ele>-1.0</ele><time>2026-04-09T10:57:09Z</time></trkpt><trkpt lat="36.774117132749986" lon="10.271711420820395"><ele>-1.0</ele><time>2026-04-09T10:57:10Z</time></trkpt><trkpt lat="36.77426913504699" lon="10.271953125214429"><ele>-1.0</ele><time>2026-04-09T10:57:11Z</time></trkpt><trkpt lat="36.77441414724407" lon="10.272189144097705"><ele>-0.6666666666666666</ele><time>2026-04-09T10:57:12Z</time></trkpt><trkpt lat="36.77454793098454" lon="10.272408795517668"><ele>-0.3333333333333333</ele><time>2026-04-09T10:57:13Z</time></trkpt><trkpt lat="36.774673486292734" lon="10.27261446593872"><ele>0.0</ele><time>2026-04-09T10:57:14Z</time></trkpt><trkpt lat="36.77479134213591" lon="10.272792504309432"><ele>0.0</ele><time>2026-04-09T10:57:15Z</time></trkpt><trkpt lat="36.77490577438906" lon="10.272946038298613"><ele>0.0</ele><time>2026-04-09T10:57:16Z</time></trkpt><trkpt lat="36.77501919135169" lon="10.273090994090026"><ele>0.0</ele><time>2026-04-09T10:57:17Z</time></trkpt><trkpt lat="36.775141858799806" lon="10.273225021390378"><ele>0.0</ele><time>2026-04-09T10:57:18Z</time></trkpt><trkpt lat="36.77528024029838" lon="10.273348405194506"><ele>0.0</ele><time>2026-04-09T10:57:19Z</time></trkpt><trkpt lat="36.77542936001828" lon="10.273456145757006"><ele>0.0</ele><time>2026-04-09T10:57:20Z</time></trkpt><trkpt lat="36.775589822910874" lon="10.273548213762833"><ele>0.0</ele><time>2026-04-09T10:57:21Z</time></trkpt><trkpt lat="36.775764301975244" lon="10.273625606412228"><ele>0.0</ele><time>2026-04-09T10:57:22Z</time></trkpt><trkpt lat="36.775954010824" lon="10.273683234726006"><ele>0.0</ele><time>2026-04-09T10:57:23Z</time></trkpt><trkpt lat="36.77615233813307" lon="10.273718596890689"><ele>0.0</ele><time>2026-04-09T10:57:24Z</time></trkpt><trkpt lat="36.77635719619132" lon="10.273740378074516"><ele>0.0</ele><time>2026-04-09T10:57:25Z</time></trkpt><trkpt lat="36.77656249070851" lon="10.273749015066327"><ele>0.0</ele><time>2026-04-09T10:57:26Z</time></trkpt><trkpt lat="36.7767657775978" lon="10.273762610693849"><ele>0.0</ele><time>2026-04-09T10:57:27Z</time></trkpt><trkpt lat="36.77695821941874" lon="10.273775799207566"><ele>0.0</ele><time>2026-04-09T10:57:28Z</time></trkpt><trkpt lat="36.777142310873025" lon="10.273790667225416"><ele>0.0</ele><time>2026-04-09T10:57:29Z</time></trkpt><trkpt lat="36.77731537169369" lon="10.273804817679087"><ele>0.0</ele><time>2026-04-09T10:57:30Z</time></trkpt><trkpt lat="36.77747988149062" lon="10.273819210007764"><ele>0.0</ele><time>2026-04-09T10:57:31Z</time></trkpt><trkpt lat="36.777639959766404" lon="10.273826971293166"><ele>0.0</ele><time>2026-04-09T10:57:32Z</time></trkpt><trkpt lat="36.77779230887567" lon="10.273834295045559"><ele>0.25</ele><time>2026-04-09T10:57:33Z</time></trkpt><trkpt lat="36.777937797889656" lon="10.273842100677417"><ele>0.5</ele><time>2026-04-09T10:57:34Z</time></trkpt><trkpt lat="36.77807123355704" lon="10.273850807080816"><ele>0.75</ele><time>2026-04-09T10:57:35Z</time></trkpt><trkpt lat="36.77818491051497" lon="10.273859146749759"><ele>1.0</ele><time>2026-04-09T10:57:36Z</time></trkpt><trkpt lat="36.77829079914364" lon="10.273871840407173"><ele>0.9999999999999999</ele><time>2026-04-09T10:57:37Z</time></trkpt><trkpt lat="36.77838591330634" lon="10.273883873850451"><ele>1.0</ele><time>2026-04-09T10:57:38Z</time></trkpt><trkpt lat="36.77847744070441" lon="10.273892438902722"><ele>1.0</ele><time>2026-04-09T10:57:39Z</time></trkpt><trkpt lat="36.778558996581886" lon="10.273900650365544"><ele>1.0</ele><time>2026-04-09T10:57:40Z</time></trkpt><trkpt lat="36.77863781885977" lon="10.27390786683389"><ele>0.9999999999999999</ele><time>2026-04-09T10:57:41Z</time></trkpt><trkpt lat="36.778713663604115" lon="10.273916407573536"><ele>1.0</ele><time>2026-04-09T10:57:42Z</time></trkpt><trkpt lat="36.778791106705235" lon="10.273920753983525"><ele>1.0</ele><time>2026-04-09T10:57:43Z</time></trkpt><trkpt lat="36.778870884614875" lon="10.273925307521509"><ele>1.0</ele><time>2026-04-09T10:57:44Z</time></trkpt><trkpt lat="36.77895477035331" lon="10.273927420922032"><ele>1.0</ele><time>2026-04-09T10:57:45Z</time></trkpt><trkpt lat="36.77904648446587" lon="10.273927391335476"><ele>1.0</ele><time>2026-04-09T10:57:46Z</time></trkpt><trkpt lat="36.77914531233611" lon="10.273932196713059"><ele>1.0</ele><time>2026-04-09T10:57:47Z</time></trkpt><trkpt lat="36.77924071213896" lon="10.27393976375609"><ele>1.0</ele><time>2026-04-09T10:57:48Z</time></trkpt><trkpt lat="36.77934220974431" lon="10.273944436438445"><ele>1.0</ele><time>2026-04-09T10:57:49Z</time></trkpt><trkpt lat="36.77944314397812" lon="10.273948636443455"><ele>1.0</ele><time>2026-04-09T10:57:50Z</time></trkpt><trkpt lat="36.77954549589749" lon="10.273955608943211"><ele>1.0</ele><time>2026-04-09T10:57:51Z</time></trkpt><trkpt lat="36.7796501575567" lon="10.2739662259016"><ele>1.0</ele><time>2026-04-09T10:57:52Z</time></trkpt><trkpt lat="36.77975952852568" lon="10.273974412234761"><ele>1.25</ele><time>2026-04-09T10:57:53Z</time></trkpt><trkpt lat="36.779875608724666" lon="10.273983749640395"><ele>1.5</ele><time>2026-04-09T10:57:54Z</time></trkpt><trkpt lat="36.77999876462694" lon="10.273996637096783"><ele>1.75</ele><time>2026-04-09T10:57:55Z</time></trkpt><trkpt lat="36.78012263956922" lon="10.274010413575763"><ele>2.0</ele><time>2026-04-09T10:57:56Z</time></trkpt><trkpt lat="36.78024959739426" lon="10.274021488435357"><ele>1.5</ele><time>2026-04-09T10:57:57Z</time></trkpt><trkpt lat="36.780376842036546" lon="10.274030244149298"><ele>1.0</ele><time>2026-04-09T10:57:58Z</time></trkpt><trkpt lat="36.780508726220404" lon="10.274038273946879"><ele>0.5</ele><time>2026-04-09T10:57:59Z</time></trkpt><trkpt lat="36.780643010626214" lon="10.274045341722632"><ele>0.0</ele><time>2026-04-09T10:58:00Z</time></trkpt><trkpt lat="36.78077982017514" lon="10.274051668166516"><ele>0.0</ele><time>2026-04-09T10:58:01Z</time></trkpt><trkpt lat="36.78091513767929" lon="10.274058183690567"><ele>0.0</ele><time>2026-04-09T10:58:02Z</time></trkpt><trkpt lat="36.78105437076486" lon="10.274055744085663"><ele>0.0</ele><time>2026-04-09T10:58:03Z</time></trkpt><trkpt lat="36.781193222710584" lon="10.274043322943276"><ele>0.0</ele><time>2026-04-09T10:58:04Z</time></trkpt><trkpt lat="36.78132495015115" lon="10.274033290402402"><ele>0.0</ele><time>2026-04-09T10:58:05Z</time></trkpt><trkpt lat="36.78144672156744" lon="10.274019801395543"><ele>0.0</ele><time>2026-04-09T10:58:06Z</time></trkpt><trkpt lat="36.781560550664665" lon="10.274001217039368"><ele>0.0</ele><time>2026-04-09T10:58:07Z</time></trkpt><trkpt lat="36.78166992395929" lon="10.2739858427634"><ele>0.0</ele><time>2026-04-09T10:58:08Z</time></trkpt><trkpt lat="36.781777762763255" lon="10.2739738060534"><ele>0.0</ele><time>2026-04-09T10:58:09Z</time></trkpt><trkpt lat="36.781887918812494" lon="10.273959858408523"><ele>0.0</ele><time>2026-04-09T10:58:10Z</time></trkpt><trkpt lat="36.78199879568804" lon="10.273937891490005"><ele>0.0</ele><time>2026-04-09T10:58:11Z</time></trkpt><trkpt lat="36.78210740299035" lon="10.273912763213424"><ele>0.0</ele><time>2026-04-09T10:58:12Z</time></trkpt><trkpt lat="36.78220893878708" lon="10.273892548332713"><ele>0.0</ele><time>2026-04-09T10:58:13Z</time></trkpt><trkpt lat="36.78230570495707" lon="10.273877961375973"><ele>0.0</ele><time>2026-04-09T10:58:14Z</time></trkpt><trkpt lat="36.78239807243935" lon="10.273865002695688"><ele>0.0</ele><time>2026-04-09T10:58:15Z</time></trkpt><trkpt lat="36.782473330896636" lon="10.273849583423607"><ele>0.0</ele><time>2026-04-09T10:58:16Z</time></trkpt><trkpt lat="36.782537770671894" lon="10.273836730369482"><ele>0.0</ele><time>2026-04-09T10:58:17Z</time></trkpt><trkpt lat="36.782657692975945" lon="10.273807865812667"><ele>0.0</ele><time>2026-04-09T10:58:19Z</time></trkpt><trkpt lat="36.78272194194913" lon="10.273788341494141"><ele>0.0</ele><time>2026-04-09T10:58:20Z</time></trkpt><trkpt lat="36.78279354039151" lon="10.27376925192401"><ele>0.3333333333333333</ele><time>2026-04-09T10:58:21Z</time></trkpt><trkpt lat="36.782865507755865" lon="10.27375481611721"><ele>0.6666666666666666</ele><time>2026-04-09T10:58:22Z</time></trkpt><trkpt lat="36.782935521423624" lon="10.273749943772513"><ele>1.0</ele><time>2026-04-09T10:58:23Z</time></trkpt><trkpt lat="36.783024767946124" lon="10.273739712996758"><ele>1.3333333333333333</ele><time>2026-04-09T10:58:24Z</time></trkpt><trkpt lat="36.78311093198748" lon="10.273733610606934"><ele>1.6666666666666665</ele><time>2026-04-09T10:58:25Z</time></trkpt><trkpt lat="36.783204554267826" lon="10.273728294534918"><ele>2.0</ele><time>2026-04-09T10:58:26Z</time></trkpt><trkpt lat="36.78330134792837" lon="10.273727278327804"><ele>2.0</ele><time>2026-04-09T10:58:27Z</time></trkpt><trkpt lat="36.78340060331136" lon="10.273734739468905"><ele>2.0</ele><time>2026-04-09T10:58:28Z</time></trkpt><trkpt lat="36.78350317651273" lon="10.273745902469262"><ele>2.0</ele><time>2026-04-09T10:58:29Z</time></trkpt><trkpt lat="36.783606701695945" lon="10.273756802593434"><ele>2.0</ele><time>2026-04-09T10:58:30Z</time></trkpt><trkpt lat="36.78371583264316" lon="10.27376748617818"><ele>2.0</ele><time>2026-04-09T10:58:31Z</time></trkpt><trkpt lat="36.78381852487666" lon="10.273785857063812"><ele>1.8333333333333333</ele><time>2026-04-09T10:58:32Z</time></trkpt><trkpt lat="36.78390065880727" lon="10.273809351962608"><ele>1.6666666666666665</ele><time>2026-04-09T10:58:33Z</time></trkpt><trkpt lat="36.783977708959064" lon="10.273828722375"><ele>1.5</ele><time>2026-04-09T10:58:34Z</time></trkpt><trkpt lat="36.78406369470757" lon="10.273844836219205"><ele>1.3333333333333333</ele><time>2026-04-09T10:58:35Z</time></trkpt><trkpt lat="36.78414878294744" lon="10.273868539529426"><ele>1.1666666666666665</ele><time>2026-04-09T10:58:36Z</time></trkpt><trkpt lat="36.78422761265563" lon="10.273893502322062"><ele>1.0</ele><time>2026-04-09T10:58:37Z</time></trkpt><trkpt lat="36.78430034305708" lon="10.27391557713746"><ele>0.9999999999999999</ele><time>2026-04-09T10:58:38Z</time></trkpt><trkpt lat="36.78437068292311" lon="10.273932945032607"><ele>1.0</ele><time>2026-04-09T10:58:39Z</time></trkpt><trkpt lat="36.78444392880957" lon="10.273950370781156"><ele>1.0</ele><time>2026-04-09T10:58:40Z</time></trkpt><trkpt lat="36.78452291010588" lon="10.27397259376454"><ele>1.0</ele><time>2026-04-09T10:58:41Z</time></trkpt><trkpt lat="36.784603548768196" lon="10.273992994177313"><ele>0.9999999999999999</ele><time>2026-04-09T10:58:42Z</time></trkpt><trkpt lat="36.784694093265756" lon="10.274012755907593"><ele>1.0</ele><time>2026-04-09T10:58:43Z</time></trkpt><trkpt lat="36.7847876017811" lon="10.274043698802537"><ele>1.0</ele><time>2026-04-09T10:58:44Z</time></trkpt><trkpt lat="36.784883603677216" lon="10.274073444306797"><ele>1.0</ele><time>2026-04-09T10:58:45Z</time></trkpt><trkpt lat="36.78497784923962" lon="10.274096960128633"><ele>1.0</ele><time>2026-04-09T10:58:46Z</time></trkpt><trkpt lat="36.785074692637615" lon="10.274123181129278"><ele>1.0</ele><time>2026-04-09T10:58:47Z</time></trkpt><trkpt lat="36.785171368627445" lon="10.274151458210616"><ele>1.0</ele><time>2026-04-09T10:58:48Z</time></trkpt><trkpt lat="36.78527214550738" lon="10.274177592420125"><ele>1.0</ele><time>2026-04-09T10:58:49Z</time></trkpt><trkpt lat="36.785371595470835" lon="10.274203379212821"><ele>1.0</ele><time>2026-04-09T10:58:50Z</time></trkpt><trkpt lat="36.78547055241762" lon="10.274230685913"><ele>1.0</ele><time>2026-04-09T10:58:51Z</time></trkpt><trkpt lat="36.78557019113961" lon="10.27425854494719"><ele>1.0</ele><time>2026-04-09T10:58:52Z</time></trkpt><trkpt lat="36.785669679645686" lon="10.274289932213811"><ele>1.0</ele><time>2026-04-09T10:58:53Z</time></trkpt><trkpt lat="36.7857668886063" lon="10.274311378550026"><ele>0.9999999999999999</ele><time>2026-04-09T10:58:54Z</time></trkpt><trkpt lat="36.785864873013196" lon="10.274333449713943"><ele>1.0</ele><time>2026-04-09T10:58:55Z</time></trkpt><trkpt lat="36.78595341978763" lon="10.274355716512911"><ele>1.0</ele><time>2026-04-09T10:58:56Z</time></trkpt><trkpt lat="36.786038226314474" lon="10.274375574938404"><ele>1.0</ele><time>2026-04-09T10:58:57Z</time></trkpt><trkpt lat="36.7861136733988" lon="10.274397317094957"><ele>0.9999999999999999</ele><time>2026-04-09T10:58:58Z</time></trkpt><trkpt lat="36.78618676063425" lon="10.274424703140943"><ele>1.0</ele><time>2026-04-09T10:58:59Z</time></trkpt><trkpt lat="36.78626842861649" lon="10.274448466701884"><ele>0.8333333333333333</ele><time>2026-04-09T10:59:00Z</time></trkpt><trkpt lat="36.78635304324973" lon="10.274470026012688"><ele>0.6666666666666666</ele><time>2026-04-09T10:59:01Z</time></trkpt><trkpt lat="36.78643957882556" lon="10.274497227540511"><ele>0.5</ele><time>2026-04-09T10:59:02Z</time></trkpt><trkpt lat="36.78652658504481" lon="10.274525606375875"><ele>0.3333333333333333</ele><time>2026-04-09T10:59:03Z</time></trkpt><trkpt lat="36.78660694206239" lon="10.274547805013365"><ele>0.16666666666666666</ele><time>2026-04-09T10:59:04Z</time></trkpt><trkpt lat="36.786678813855666" lon="10.274570735424106"><ele>0.0</ele><time>2026-04-09T10:59:05Z</time></trkpt><trkpt lat="36.78675340246939" lon="10.27458952600918"><ele>0.0</ele><time>2026-04-09T10:59:06Z</time></trkpt><trkpt lat="36.78682163122481" lon="10.274608655231662"><ele>0.0</ele><time>2026-04-09T10:59:07Z</time></trkpt><trkpt lat="36.786886134068446" lon="10.274629626042524"><ele>0.0</ele><time>2026-04-09T10:59:08Z</time></trkpt><trkpt lat="36.786948150230934" lon="10.27464629689375"><ele>0.0</ele><time>2026-04-09T10:59:09Z</time></trkpt><trkpt lat="36.78701257441939" lon="10.274660410785515"><ele>0.0</ele><time>2026-04-09T10:59:10Z</time></trkpt><trkpt lat="36.787107981595724" lon="10.274692184357388"><ele>0.0</ele><time>2026-04-09T10:59:12Z</time></trkpt><trkpt lat="36.78718478194378" lon="10.274707593733197"><ele>0.0</ele><time>2026-04-09T10:59:15Z</time></trkpt><trkpt lat="36.78727636335027" lon="10.274722651064044"><ele>-0.2857142857142857</ele><time>2026-04-09T10:59:18Z</time></trkpt><trkpt lat="36.78734047944791" lon="10.274740014479518"><ele>-0.5714285714285714</ele><time>2026-04-09T10:59:20Z</time></trkpt><trkpt lat="36.78740844443544" lon="10.274723919327386"><ele>-0.8571428571428571</ele><time>2026-04-09T10:59:22Z</time></trkpt><trkpt lat="36.78748132194857" lon="10.274687881984722"><ele>-1.1428571428571428</ele><time>2026-04-09T10:59:26Z</time></trkpt><trkpt lat="36.78753160229333" lon="10.274635953469206"><ele>-1.4285714285714284</ele><time>2026-04-09T10:59:31Z</time></trkpt><trkpt lat="36.78755494711437" lon="10.27453706642919"><ele>-1.7142857142857142</ele><time>2026-04-09T10:59:39Z</time></trkpt><trkpt lat="36.78754235601627" lon="10.274458270879947"><ele>-2.0</ele><time>2026-04-09T10:59:42Z</time></trkpt><trkpt lat="36.78744850667745" lon="10.274438817035392"><ele>-1.9999999999999998</ele><time>2026-04-09T11:07:31Z</time></trkpt><trkpt lat="36.78748131211907" lon="10.274368206073154"><ele>-2.0</ele><time>2026-04-09T11:07:36Z</time></trkpt><trkpt lat="36.78750315087767" lon="10.274450565680182"><ele>-2.0</ele><time>2026-04-09T11:07:40Z</time></trkpt><trkpt lat="36.78744417006103" lon="10.274538394752089"><ele>-2.0</ele><time>2026-04-09T11:11:35Z</time></trkpt><trkpt lat="36.787411262746765" lon="10.27460836463739"><ele>-1.9999999999999998</ele><time>2026-04-09T11:11:40Z</time></trkpt><trkpt lat="36.787424465352906" lon="10.274706057476793"><ele>-2.0</ele><time>2026-04-09T11:11:43Z</time></trkpt><trkpt lat="36.78750317442877" lon="10.274788593047115"><ele>-1.9999999999999998</ele><time>2026-04-09T11:11:46Z</time></trkpt><trkpt lat="36.78759898004906" lon="10.274835049411514"><ele>-2.0</ele><time>2026-04-09T11:11:47Z</time></trkpt><trkpt lat="36.787682182384685" lon="10.274861997935135"><ele>-2.0</ele><time>2026-04-09T11:11:48Z</time></trkpt><trkpt lat="36.78776296128987" lon="10.274881355254884"><ele>-2.0</ele><time>2026-04-09T11:11:49Z</time></trkpt><trkpt lat="36.78784140659076" lon="10.27490220400408"><ele>-1.9999999999999998</ele><time>2026-04-09T11:11:50Z</time></trkpt><trkpt lat="36.78791761214886" lon="10.274919425375339"><ele>-2.0</ele><time>2026-04-09T11:11:51Z</time></trkpt><trkpt lat="36.78798284937682" lon="10.274932607059366"><ele>-2.2</ele><time>2026-04-09T11:11:52Z</time></trkpt><trkpt lat="36.788100676087154" lon="10.274967528357072"><ele>-2.4000000000000004</ele><time>2026-04-09T11:11:54Z</time></trkpt><trkpt lat="36.78822518058381" lon="10.275000760396228"><ele>-2.5999999999999996</ele><time>2026-04-09T11:11:56Z</time></trkpt><trkpt lat="36.78828837247415" lon="10.275029171685388"><ele>-2.8</ele><time>2026-04-09T11:11:57Z</time></trkpt><trkpt lat="36.78835453811283" lon="10.275052334921895"><ele>-3.0</ele><time>2026-04-09T11:11:58Z</time></trkpt><trkpt lat="36.78842185708592" lon="10.27507377322257"><ele>-2.9999999999999996</ele><time>2026-04-09T11:11:59Z</time></trkpt><trkpt lat="36.788489065739995" lon="10.275096269020207"><ele>-3.0</ele><time>2026-04-09T11:12:00Z</time></trkpt><trkpt lat="36.788553044095" lon="10.2751180121758"><ele>-3.0</ele><time>2026-04-09T11:12:01Z</time></trkpt><trkpt lat="36.788614961929525" lon="10.275142702013953"><ele>-3.0</ele><time>2026-04-09T11:12:02Z</time></trkpt><trkpt lat="36.78867631633525" lon="10.275168835834364"><ele>-3.0</ele><time>2026-04-09T11:12:03Z</time></trkpt><trkpt lat="36.78874039973887" lon="10.275190250054559"><ele>-2.9999999999999996</ele><time>2026-04-09T11:12:04Z</time></trkpt><trkpt lat="36.78880781903786" lon="10.275211290497909"><ele>-3.0</ele><time>2026-04-09T11:12:05Z</time></trkpt><trkpt lat="36.78887402961884" lon="10.275233382086622"><ele>-2.571428571428571</ele><time>2026-04-09T11:12:06Z</time></trkpt><trkpt lat="36.78893858283205" lon="10.27525839275658"><ele>-2.142857142857143</ele><time>2026-04-09T11:12:07Z</time></trkpt><trkpt lat="36.78900145598018" lon="10.275286504761164"><ele>-1.7142857142857142</ele><time>2026-04-09T11:12:08Z</time></trkpt><trkpt lat="36.789064913303584" lon="10.27531801544428"><ele>-1.2857142857142856</ele><time>2026-04-09T11:12:09Z</time></trkpt><trkpt lat="36.78913036031807" lon="10.275351988051991"><ele>-0.8571428571428571</ele><time>2026-04-09T11:12:10Z</time></trkpt><trkpt lat="36.78919568864858" lon="10.275384880274354"><ele>-0.42857142857142855</ele><time>2026-04-09T11:12:11Z</time></trkpt><trkpt lat="36.78925986278254" lon="10.275417921467776"><ele>0.0</ele><time>2026-04-09T11:12:12Z</time></trkpt><trkpt lat="36.78932410408249" lon="10.275446522070641"><ele>0.14285714285714285</ele><time>2026-04-09T11:12:13Z</time></trkpt><trkpt lat="36.78938871468155" lon="10.275474792803363"><ele>0.2857142857142857</ele><time>2026-04-09T11:12:14Z</time></trkpt><trkpt lat="36.78945072981324" lon="10.27551044829939"><ele>0.42857142857142855</ele><time>2026-04-09T11:12:15Z</time></trkpt><trkpt lat="36.789514030155395" lon="10.275542318120486"><ele>0.5714285714285714</ele><time>2026-04-09T11:12:16Z</time></trkpt><trkpt lat="36.78957960334614" lon="10.27556850812258"><ele>0.7142857142857142</ele><time>2026-04-09T11:12:17Z</time></trkpt><trkpt lat="36.789646568178455" lon="10.27559315774773"><ele>0.8571428571428571</ele><time>2026-04-09T11:12:18Z</time></trkpt><trkpt lat="36.78971338794271" lon="10.27561673133585"><ele>1.0</ele><time>2026-04-09T11:12:19Z</time></trkpt><trkpt lat="36.789779551222644" lon="10.275637759453286"><ele>0.8571428571428571</ele><time>2026-04-09T11:12:20Z</time></trkpt><trkpt lat="36.789846206236255" lon="10.275659591014145"><ele>0.7142857142857142</ele><time>2026-04-09T11:12:21Z</time></trkpt><trkpt lat="36.789907961276754" lon="10.27568091413376"><ele>0.5714285714285714</ele><time>2026-04-09T11:12:22Z</time></trkpt><trkpt lat="36.790001001621455" lon="10.275711961512211"><ele>0.42857142857142855</ele><time>2026-04-09T11:12:24Z</time></trkpt><trkpt lat="36.79007470060921" lon="10.275735462437527"><ele>0.2857142857142857</ele><time>2026-04-09T11:12:26Z</time></trkpt><trkpt lat="36.79014246068815" lon="10.275755346286129"><ele>0.14285714285714285</ele><time>2026-04-09T11:12:29Z</time></trkpt><trkpt lat="36.79020954607311" lon="10.275784586663697"><ele>0.0</ele><time>2026-04-09T11:12:34Z</time></trkpt><trkpt lat="36.79030768299741" lon="10.275813044654232"><ele>0.0</ele><time>2026-04-09T11:12:37Z</time></trkpt><trkpt lat="36.79039211662699" lon="10.275840293139854"><ele>0.0</ele><time>2026-04-09T11:12:39Z</time></trkpt><trkpt lat="36.79046862365471" lon="10.275896451614994"><ele>0.0</ele><time>2026-04-09T11:12:41Z</time></trkpt><trkpt lat="36.79053026474336" lon="10.275955236341803"><ele>0.0</ele><time>2026-04-09T11:12:42.999Z</time></trkpt><trkpt lat="36.79059169315428" lon="10.276009130663608"><ele>0.0</ele><time>2026-04-09T11:12:43.999Z</time></trkpt><trkpt lat="36.79071049504717" lon="10.276032708948152"><ele>0.0</ele><time>2026-04-09T11:12:45.999Z</time></trkpt><trkpt lat="36.79081169403404" lon="10.275964575561645"><ele>0.0</ele><time>2026-04-09T11:12:47.999Z</time></trkpt><trkpt lat="36.790870371733355" lon="10.275814307372439"><ele>0.0</ele><time>2026-04-09T11:12:49.999Z</time></trkpt><trkpt lat="36.79090198439713" lon="10.275725692512808"><ele>0.0</ele><time>2026-04-09T11:12:50.999Z</time></trkpt><trkpt lat="36.7909437887955" lon="10.275637467697155"><ele>0.0</ele><time>2026-04-09T11:12:51.999Z</time></trkpt><trkpt lat="36.790995597806145" lon="10.275546206632468"><ele>0.0</ele><time>2026-04-09T11:12:52.999Z</time></trkpt><trkpt lat="36.79105480900877" lon="10.275458160290889"><ele>0.0</ele><time>2026-04-09T11:12:53.999Z</time></trkpt><trkpt lat="36.79112235140448" lon="10.275367455979156"><ele>0.0</ele><time>2026-04-09T11:12:54.999Z</time></trkpt><trkpt lat="36.791193459420555" lon="10.275274260431601"><ele>0.0</ele><time>2026-04-09T11:12:55.999Z</time></trkpt><trkpt lat="36.79127068981163" lon="10.275181209229613"><ele>0.0</ele><time>2026-04-09T11:12:56.999Z</time></trkpt><trkpt lat="36.791348880533775" lon="10.275089365784051"><ele>0.0</ele><time>2026-04-09T11:12:57.999Z</time></trkpt><trkpt lat="36.79143058699734" lon="10.274989444592238"><ele>0.0</ele><time>2026-04-09T11:12:58.999Z</time></trkpt><trkpt lat="36.7915214681957" lon="10.274872569957225"><ele>0.0</ele><time>2026-04-09T11:12:59.999Z</time></trkpt><trkpt lat="36.79162293299215" lon="10.274736924310401"><ele>0.0</ele><time>2026-04-09T11:13:00.999Z</time></trkpt><trkpt lat="36.79173508243569" lon="10.274594635643856"><ele>0.0</ele><time>2026-04-09T11:13:01.999Z</time></trkpt><trkpt lat="36.791851408367634" lon="10.274451155909965"><ele>-0.3333333333333333</ele><time>2026-04-09T11:13:02.999Z</time></trkpt><trkpt lat="36.79197360840951" lon="10.274307067473622"><ele>-0.6666666666666666</ele><time>2026-04-09T11:13:03.999Z</time></trkpt><trkpt lat="36.79209597379759" lon="10.274159406988495"><ele>-1.0</ele><time>2026-04-09T11:13:04.999Z</time></trkpt><trkpt lat="36.79222100119255" lon="10.274001794027873"><ele>-1.3333333333333333</ele><time>2026-04-09T11:13:05.999Z</time></trkpt><trkpt lat="36.79235607682632" lon="10.273840961219417"><ele>-1.6666666666666665</ele><time>2026-04-09T11:13:06.999Z</time></trkpt><trkpt lat="36.79250762266874" lon="10.273670103940573"><ele>-2.0</ele><time>2026-04-09T11:13:07.999Z</time></trkpt><trkpt lat="36.792671178708325" lon="10.27349560487253"><ele>-2.0</ele><time>2026-04-09T11:13:08.999Z</time></trkpt><trkpt lat="36.79284371311444" lon="10.273335458754282"><ele>-2.0</ele><time>2026-04-09T11:13:09.999Z</time></trkpt><trkpt lat="36.79302231396086" lon="10.273193869084869"><ele>-2.0</ele><time>2026-04-09T11:13:10.999Z</time></trkpt><trkpt lat="36.79320847162306" lon="10.273072112368705"><ele>-2.0</ele><time>2026-04-09T11:13:11.999Z</time></trkpt><trkpt lat="36.79338998252981" lon="10.27296898108479"><ele>-2.0</ele><time>2026-04-09T11:13:12.999Z</time></trkpt><trkpt lat="36.793566492714405" lon="10.272883256387038"><ele>-2.0</ele><time>2026-04-09T11:13:13.999Z</time></trkpt><trkpt lat="36.79373890953849" lon="10.272808003126535"><ele>-2.333333333333333</ele><time>2026-04-09T11:13:14.999Z</time></trkpt><trkpt lat="36.7939150483622" lon="10.272738716101511"><ele>-2.6666666666666665</ele><time>2026-04-09T11:13:15.999Z</time></trkpt><trkpt lat="36.79408922541439" lon="10.272678885448855"><ele>-3.0</ele><time>2026-04-09T11:13:16.999Z</time></trkpt><trkpt lat="36.79425549770395" lon="10.272631216533634"><ele>-3.333333333333333</ele><time>2026-04-09T11:13:17.999Z</time></trkpt><trkpt lat="36.79441030256711" lon="10.27259710451172"><ele>-3.6666666666666665</ele><time>2026-04-09T11:13:18.999Z</time></trkpt><trkpt lat="36.79456102533207" lon="10.272571135936085"><ele>-4.0</ele><time>2026-04-09T11:13:19.999Z</time></trkpt><trkpt lat="36.79470625024128" lon="10.272547408134258"><ele>-4.0</ele><time>2026-04-09T11:13:20.999Z</time></trkpt><trkpt lat="36.794852898669475" lon="10.272522277706628"><ele>-4.0</ele><time>2026-04-09T11:13:21.999Z</time></trkpt><trkpt lat="36.794998013799876" lon="10.272501559387639"><ele>-4.0</ele><time>2026-04-09T11:13:22.999Z</time></trkpt><trkpt lat="36.7951420912344" lon="10.272481166166362"><ele>-4.0</ele><time>2026-04-09T11:13:23.999Z</time></trkpt><trkpt lat="36.79528131368831" lon="10.272458325422715"><ele>-3.6666666666666665</ele><time>2026-04-09T11:13:24.999Z</time></trkpt><trkpt lat="36.795428400421756" lon="10.272436157173512"><ele>-3.333333333333333</ele><time>2026-04-09T11:13:25.999Z</time></trkpt><trkpt lat="36.795576988678505" lon="10.272412241449791"><ele>-3.0</ele><time>2026-04-09T11:13:26.999Z</time></trkpt><trkpt lat="36.795739691892024" lon="10.272382463669196"><ele>-3.0</ele><time>2026-04-09T11:13:27.999Z</time></trkpt><trkpt lat="36.79589669127825" lon="10.272349858039846"><ele>-3.0</ele><time>2026-04-09T11:13:28.999Z</time></trkpt><trkpt lat="36.79605490024501" lon="10.27230992484165"><ele>-3.0</ele><time>2026-04-09T11:13:29.999Z</time></trkpt><trkpt lat="36.79621374760057" lon="10.272263474661198"><ele>-4.0</ele><time>2026-04-09T11:13:30.999Z</time></trkpt><trkpt lat="36.796367067741095" lon="10.272204649027127"><ele>-5.0</ele><time>2026-04-09T11:13:31.999Z</time></trkpt><trkpt lat="36.79651624243758" lon="10.272133038636063"><ele>-6.0</ele><time>2026-04-09T11:13:32.999Z</time></trkpt><trkpt lat="36.79666138688626" lon="10.272052541048785"><ele>-6.0</ele><time>2026-04-09T11:13:33.999Z</time></trkpt><trkpt lat="36.796796240291584" lon="10.27195666721494"><ele>-6.0</ele><time>2026-04-09T11:13:34.999Z</time></trkpt><trkpt lat="36.79692111946864" lon="10.271849521842926"><ele>-6.0</ele><time>2026-04-09T11:13:35.999Z</time></trkpt><trkpt lat="36.79704026161506" lon="10.271736547714333"><ele>-5.666666666666667</ele><time>2026-04-09T11:13:36.999Z</time></trkpt><trkpt lat="36.79715555937848" lon="10.271614363835202"><ele>-5.333333333333334</ele><time>2026-04-09T11:13:37.999Z</time></trkpt><trkpt lat="36.79726356093072" lon="10.27147642770644"><ele>-5.0</ele><time>2026-04-09T11:13:38.999Z</time></trkpt><trkpt lat="36.797365874687756" lon="10.27133220573471"><ele>-6.0</ele><time>2026-04-09T11:13:39.999Z</time></trkpt><trkpt lat="36.7974605004906" lon="10.271176272319668"><ele>-7.0</ele><time>2026-04-09T11:13:40.999Z</time></trkpt><trkpt lat="36.797546640345054" lon="10.271008814566112"><ele>-8.0</ele><time>2026-04-09T11:13:41.999Z</time></trkpt><trkpt lat="36.797624502008226" lon="10.270829606524934"><ele>-7.0</ele><time>2026-04-09T11:13:42.999Z</time></trkpt><trkpt lat="36.79769364421315" lon="10.27064408813115"><ele>-6.0</ele><time>2026-04-09T11:13:43.999Z</time></trkpt><trkpt lat="36.79774875847045" lon="10.27044379633398"><ele>-5.0</ele><time>2026-04-09T11:13:44.999Z</time></trkpt><trkpt lat="36.7977973584676" lon="10.270236876913394"><ele>-4.0</ele><time>2026-04-09T11:13:45.999Z</time></trkpt><trkpt lat="36.79783122865239" lon="10.270017841413743"><ele>-3.0</ele><time>2026-04-09T11:13:46.999Z</time></trkpt><trkpt lat="36.79785064639532" lon="10.269789430625202"><ele>-2.0</ele><time>2026-04-09T11:13:47.999Z</time></trkpt><trkpt lat="36.797860373497166" lon="10.2695579451473"><ele>-2.0</ele><time>2026-04-09T11:13:48.999Z</time></trkpt><trkpt lat="36.79786238104149" lon="10.269322757947915"><ele>-2.0</ele><time>2026-04-09T11:13:49.999Z</time></trkpt><trkpt lat="36.79786093986348" lon="10.269084747412961"><ele>-2.0</ele><time>2026-04-09T11:13:50.999Z</time></trkpt><trkpt lat="36.79785740028208" lon="10.268848839912787"><ele>-2.0</ele><time>2026-04-09T11:13:51.999Z</time></trkpt><trkpt lat="36.79785380515368" lon="10.268606845954743"><ele>-2.0</ele><time>2026-04-09T11:13:52.999Z</time></trkpt><trkpt lat="36.797851304862355" lon="10.268357581303501"><ele>-2.0</ele><time>2026-04-09T11:13:53.999Z</time></trkpt><trkpt lat="36.79784943422677" lon="10.268106816492827"><ele>-1.6666666666666665</ele><time>2026-04-09T11:13:54.999Z</time></trkpt><trkpt lat="36.79784662020613" lon="10.267850272434508"><ele>-1.3333333333333333</ele><time>2026-04-09T11:13:55.999Z</time></trkpt><trkpt lat="36.79784291695026" lon="10.267593315240767"><ele>-1.0</ele><time>2026-04-09T11:13:56.999Z</time></trkpt><trkpt lat="36.79784168621768" lon="10.26733638349902"><ele>-1.0</ele><time>2026-04-09T11:13:57.999Z</time></trkpt><trkpt lat="36.79784082739431" lon="10.267077290326178"><ele>-1.0</ele><time>2026-04-09T11:13:58.999Z</time></trkpt><trkpt lat="36.79783811495985" lon="10.266818837453808"><ele>-1.0</ele><time>2026-04-09T11:13:59.999Z</time></trkpt><trkpt lat="36.79783358712017" lon="10.266558222898292"><ele>-1.0</ele><time>2026-04-09T11:14:00.999Z</time></trkpt><trkpt lat="36.79783024478959" lon="10.266293219779822"><ele>-1.0</ele><time>2026-04-09T11:14:01.999Z</time></trkpt><trkpt lat="36.797828494525085" lon="10.266019649656943"><ele>-1.0</ele><time>2026-04-09T11:14:02.999Z</time></trkpt><trkpt lat="36.79782751388936" lon="10.265745586624679"><ele>-1.0</ele><time>2026-04-09T11:14:03.999Z</time></trkpt><trkpt lat="36.79782505027724" lon="10.265474830419018"><ele>-1.0</ele><time>2026-04-09T11:14:04.999Z</time></trkpt><trkpt lat="36.797825530375036" lon="10.265208225060368"><ele>-1.0</ele><time>2026-04-09T11:14:05.999Z</time></trkpt><trkpt lat="36.79783117824895" lon="10.264954342205467"><ele>-0.3333333333333333</ele><time>2026-04-09T11:14:06.999Z</time></trkpt><trkpt lat="36.79784584713009" lon="10.264708485012509"><ele>0.3333333333333333</ele><time>2026-04-09T11:14:07.999Z</time></trkpt><trkpt lat="36.79787097375884" lon="10.264468795061982"><ele>1.0</ele><time>2026-04-09T11:14:08.999Z</time></trkpt><trkpt lat="36.797907997056825" lon="10.26423324593504"><ele>1.0</ele><time>2026-04-09T11:14:09.999Z</time></trkpt><trkpt lat="36.797960574315084" lon="10.264007951447992"><ele>1.0</ele><time>2026-04-09T11:14:10.999Z</time></trkpt><trkpt lat="36.79802983730451" lon="10.263791585239039"><ele>1.0</ele><time>2026-04-09T11:14:11.999Z</time></trkpt><trkpt lat="36.79811516979509" lon="10.263585209570019"><ele>0.6666666666666666</ele><time>2026-04-09T11:14:12.999Z</time></trkpt><trkpt lat="36.79821471505367" lon="10.263387848392806"><ele>0.3333333333333333</ele><time>2026-04-09T11:14:13.999Z</time></trkpt><trkpt lat="36.79832690661893" lon="10.263201923442336"><ele>0.0</ele><time>2026-04-09T11:14:14.999Z</time></trkpt><trkpt lat="36.79845052009347" lon="10.263033475783853"><ele>0.0</ele><time>2026-04-09T11:14:15.999Z</time></trkpt><trkpt lat="36.79858739418341" lon="10.262880772762028"><ele>0.0</ele><time>2026-04-09T11:14:16.999Z</time></trkpt><trkpt lat="36.79872826944652" lon="10.26274004731015"><ele>0.0</ele><time>2026-04-09T11:14:17.999Z</time></trkpt><trkpt lat="36.7988789877493" lon="10.262617871560781"><ele>0.0</ele><time>2026-04-09T11:14:18.999Z</time></trkpt><trkpt lat="36.799040589683855" lon="10.2625113529198"><ele>0.0</ele><time>2026-04-09T11:14:19.999Z</time></trkpt><trkpt lat="36.799207000723996" lon="10.262417189415272"><ele>0.0</ele><time>2026-04-09T11:14:20.999Z</time></trkpt><trkpt lat="36.799383102299906" lon="10.262344567474328"><ele>0.0</ele><time>2026-04-09T11:14:21.999Z</time></trkpt><trkpt lat="36.799563206649474" lon="10.262286669058058"><ele>0.0</ele><time>2026-04-09T11:14:22.999Z</time></trkpt><trkpt lat="36.79974912016941" lon="10.26223375201131"><ele>0.0</ele><time>2026-04-09T11:14:23.999Z</time></trkpt><trkpt lat="36.79993580673059" lon="10.262181519169053"><ele>0.0</ele><time>2026-04-09T11:14:24.999Z</time></trkpt><trkpt lat="36.80011914266427" lon="10.26213248091748"><ele>0.0</ele><time>2026-04-09T11:14:25.999Z</time></trkpt><trkpt lat="36.80030871595732" lon="10.262082990533623"><ele>0.0</ele><time>2026-04-09T11:14:26.999Z</time></trkpt><trkpt lat="36.800497573241" lon="10.262032480759668"><ele>0.0</ele><time>2026-04-09T11:14:27.999Z</time></trkpt><trkpt lat="36.800688722151406" lon="10.261977729140005"><ele>0.0</ele><time>2026-04-09T11:14:28.999Z</time></trkpt><trkpt lat="36.800885671336786" lon="10.261920339160445"><ele>0.0</ele><time>2026-04-09T11:14:29.999Z</time></trkpt><trkpt lat="36.80108343594886" lon="10.26186618000304"><ele>0.0</ele><time>2026-04-09T11:14:30.999Z</time></trkpt><trkpt lat="36.80128154916666" lon="10.261818194676978"><ele>0.0</ele><time>2026-04-09T11:14:31.999Z</time></trkpt><trkpt lat="36.801483936354614" lon="10.261769293610012"><ele>0.0</ele><time>2026-04-09T11:14:32.999Z</time></trkpt><trkpt lat="36.801686682402384" lon="10.261717274473583"><ele>0.3333333333333333</ele><time>2026-04-09T11:14:33.999Z</time></trkpt><trkpt lat="36.80189334848956" lon="10.261664154018277"><ele>0.6666666666666666</ele><time>2026-04-09T11:14:34.999Z</time></trkpt><trkpt lat="36.80210511093357" lon="10.261612630957549"><ele>1.0</ele><time>2026-04-09T11:14:35.999Z</time></trkpt><trkpt lat="36.80232259726156" lon="10.26156071641808"><ele>1.0</ele><time>2026-04-09T11:14:36.999Z</time></trkpt><trkpt lat="36.802535148058936" lon="10.261508955229854"><ele>1.0</ele><time>2026-04-09T11:14:37.999Z</time></trkpt><trkpt lat="36.80274710697716" lon="10.261457060076346"><ele>1.0</ele><time>2026-04-09T11:14:38.999Z</time></trkpt><trkpt lat="36.802954591694366" lon="10.261404340355423"><ele>1.0</ele><time>2026-04-09T11:14:39.999Z</time></trkpt><trkpt lat="36.80315522474187" lon="10.261351213909753"><ele>1.0</ele><time>2026-04-09T11:14:40.999Z</time></trkpt><trkpt lat="36.80335290705234" lon="10.26130071884811"><ele>1.0</ele><time>2026-04-09T11:14:41.999Z</time></trkpt><trkpt lat="36.80355034465852" lon="10.261249838362456"><ele>1.0</ele><time>2026-04-09T11:14:42.999Z</time></trkpt><trkpt lat="36.803745092038106" lon="10.26120221994691"><ele>1.0</ele><time>2026-04-09T11:14:43.999Z</time></trkpt><trkpt lat="36.80393981603348" lon="10.261152865470477"><ele>1.0</ele><time>2026-04-09T11:14:44.999Z</time></trkpt><trkpt lat="36.80413645092933" lon="10.261106297720348"><ele>0.6666666666666666</ele><time>2026-04-09T11:14:45.999Z</time></trkpt><trkpt lat="36.804341198031196" lon="10.261054851616539"><ele>0.3333333333333333</ele><time>2026-04-09T11:14:46.999Z</time></trkpt><trkpt lat="36.80455908088585" lon="10.260996872813896"><ele>0.0</ele><time>2026-04-09T11:14:47.999Z</time></trkpt><trkpt lat="36.804794832060445" lon="10.260936076046129"><ele>0.0</ele><time>2026-04-09T11:14:48.999Z</time></trkpt><trkpt lat="36.80504234506369" lon="10.260874635875409"><ele>0.0</ele><time>2026-04-09T11:14:49.999Z</time></trkpt><trkpt lat="36.805301599509" lon="10.260812353688253"><ele>-1.0</ele><time>2026-04-09T11:14:50.999Z</time></trkpt><trkpt lat="36.80554638690083" lon="10.26075509470378"><ele>-2.0</ele><time>2026-04-09T11:14:51.999Z</time></trkpt><trkpt lat="36.805785450202904" lon="10.260696513550998"><ele>-2.0</ele><time>2026-04-09T11:14:52.999Z</time></trkpt><trkpt lat="36.80601294672282" lon="10.26064356648681"><ele>-2.0</ele><time>2026-04-09T11:14:53.999Z</time></trkpt><trkpt lat="36.80623325666711" lon="10.260583185606405"><ele>-1.3333333333333333</ele><time>2026-04-09T11:14:54.999Z</time></trkpt><trkpt lat="36.806453850091245" lon="10.260527569083521"><ele>-0.6666666666666666</ele><time>2026-04-09T11:14:55.999Z</time></trkpt><trkpt lat="36.80667213125493" lon="10.260474645319645"><ele>0.0</ele><time>2026-04-09T11:14:56.999Z</time></trkpt><trkpt lat="36.80688836314367" lon="10.26042085055443"><ele>0.0</ele><time>2026-04-09T11:14:57.999Z</time></trkpt><trkpt lat="36.807100069383814" lon="10.260368805675734"><ele>0.0</ele><time>2026-04-09T11:14:58.999Z</time></trkpt><trkpt lat="36.80729924520056" lon="10.260322360546905"><ele>0.0</ele><time>2026-04-09T11:14:59.999Z</time></trkpt><trkpt lat="36.80748441170264" lon="10.260276578917031"><ele>0.0</ele><time>2026-04-09T11:15:00.999Z</time></trkpt><trkpt lat="36.80765911430261" lon="10.260230315028197"><ele>0.0</ele><time>2026-04-09T11:15:01.999Z</time></trkpt><trkpt lat="36.807814043025296" lon="10.260187753332144"><ele>0.0</ele><time>2026-04-09T11:15:02.999Z</time></trkpt><trkpt lat="36.80796085300303" lon="10.260149754379139"><ele>-0.5</ele><time>2026-04-09T11:15:03.999Z</time></trkpt><trkpt lat="36.80810107390692" lon="10.260115461097532"><ele>-1.0</ele><time>2026-04-09T11:15:04.999Z</time></trkpt><trkpt lat="36.8082378877926" lon="10.260083788982163"><ele>-1.5</ele><time>2026-04-09T11:15:05.999Z</time></trkpt><trkpt lat="36.80836576570175" lon="10.2600546278181"><ele>-2.0</ele><time>2026-04-09T11:15:06.999Z</time></trkpt><trkpt lat="36.80848938843801" lon="10.260024881256193"><ele>-1.5</ele><time>2026-04-09T11:15:07.999Z</time></trkpt><trkpt lat="36.808612817288946" lon="10.259994102738162"><ele>-1.0</ele><time>2026-04-09T11:15:08.999Z</time></trkpt><trkpt lat="36.80874735138275" lon="10.259961735378264"><ele>-0.5</ele><time>2026-04-09T11:15:09.999Z</time></trkpt><trkpt lat="36.80888613557576" lon="10.259922672135172"><ele>0.0</ele><time>2026-04-09T11:15:10.999Z</time></trkpt><trkpt lat="36.80902177326987" lon="10.259886509535427"><ele>0.0</ele><time>2026-04-09T11:15:11.999Z</time></trkpt><trkpt lat="36.809163035349684" lon="10.259853183576826"><ele>0.0</ele><time>2026-04-09T11:15:12.999Z</time></trkpt><trkpt lat="36.80930616780549" lon="10.25981838594236"><ele>0.0</ele><time>2026-04-09T11:15:13.999Z</time></trkpt><trkpt lat="36.80944951555647" lon="10.25978193600111"><ele>0.0</ele><time>2026-04-09T11:15:14.999Z</time></trkpt><trkpt lat="36.80959506241462" lon="10.259747844547764"><ele>0.0</ele><time>2026-04-09T11:15:15.999Z</time></trkpt><trkpt lat="36.80974285906238" lon="10.259712742354848"><ele>0.0</ele><time>2026-04-09T11:15:16.999Z</time></trkpt><trkpt lat="36.8098929079779" lon="10.259679809836879"><ele>0.0</ele><time>2026-04-09T11:15:17.999Z</time></trkpt><trkpt lat="36.81004529288926" lon="10.259658404589954"><ele>0.0</ele><time>2026-04-09T11:15:18.999Z</time></trkpt><trkpt lat="36.81019970939135" lon="10.259648924585973"><ele>0.0</ele><time>2026-04-09T11:15:19.999Z</time></trkpt><trkpt lat="36.810352203686115" lon="10.259655775350039"><ele>0.0</ele><time>2026-04-09T11:15:20.999Z</time></trkpt><trkpt lat="36.810500944236196" lon="10.259686140840088"><ele>0.0</ele><time>2026-04-09T11:15:21.999Z</time></trkpt><trkpt lat="36.81064991222528" lon="10.259734290931469"><ele>0.0</ele><time>2026-04-09T11:15:22.999Z</time></trkpt><trkpt lat="36.81078365594125" lon="10.25980002175445"><ele>0.0</ele><time>2026-04-09T11:15:23.999Z</time></trkpt><trkpt lat="36.8109099890779" lon="10.259892288507109"><ele>0.0</ele><time>2026-04-09T11:15:24.999Z</time></trkpt><trkpt lat="36.81102316891166" lon="10.260008965097468"><ele>0.0</ele><time>2026-04-09T11:15:25.999Z</time></trkpt><trkpt lat="36.81112851646051" lon="10.260135373380884"><ele>0.0</ele><time>2026-04-09T11:15:26.999Z</time></trkpt><trkpt lat="36.81121554845091" lon="10.2602774246527"><ele>0.0</ele><time>2026-04-09T11:15:27.999Z</time></trkpt><trkpt lat="36.81128621762039" lon="10.260428844640927"><ele>0.0</ele><time>2026-04-09T11:15:28.999Z</time></trkpt><trkpt lat="36.81133408180257" lon="10.260589097951236"><ele>0.0</ele><time>2026-04-09T11:15:29.999Z</time></trkpt><trkpt lat="36.81136161793177" lon="10.260759442791553"><ele>0.0</ele><time>2026-04-09T11:15:30.999Z</time></trkpt><trkpt lat="36.811374272584864" lon="10.260932121282893"><ele>0.0</ele><time>2026-04-09T11:15:31.999Z</time></trkpt><trkpt lat="36.81136951293585" lon="10.261104484880809"><ele>0.0</ele><time>2026-04-09T11:15:32.999Z</time></trkpt><trkpt lat="36.81134784075823" lon="10.261275438256181"><ele>0.0</ele><time>2026-04-09T11:15:33.999Z</time></trkpt><trkpt lat="36.81130852401707" lon="10.261443112389205"><ele>0.0</ele><time>2026-04-09T11:15:34.999Z</time></trkpt><trkpt lat="36.81124438719009" lon="10.261605315642226"><ele>0.0</ele><time>2026-04-09T11:15:35.999Z</time></trkpt><trkpt lat="36.81115707621597" lon="10.261760859326909"><ele>0.0</ele><time>2026-04-09T11:15:36.999Z</time></trkpt><trkpt lat="36.81104035859432" lon="10.261914035362228"><ele>0.0</ele><time>2026-04-09T11:15:37.999Z</time></trkpt><trkpt lat="36.810901416478394" lon="10.262064632572729"><ele>0.0</ele><time>2026-04-09T11:15:38.999Z</time></trkpt><trkpt lat="36.81073239123441" lon="10.262222916370694"><ele>0.0</ele><time>2026-04-09T11:15:39.999Z</time></trkpt><trkpt lat="36.81054193464163" lon="10.262381786691329"><ele>0.0</ele><time>2026-04-09T11:15:40.999Z</time></trkpt><trkpt lat="36.81036284928758" lon="10.26252743124274"><ele>0.0</ele><time>2026-04-09T11:15:41.999Z</time></trkpt><trkpt lat="36.81019884682735" lon="10.262663902635115"><ele>0.0</ele><time>2026-04-09T11:15:42.999Z</time></trkpt><trkpt lat="36.81005482347752" lon="10.26279587825682"><ele>0.0</ele><time>2026-04-09T11:15:43.999Z</time></trkpt><trkpt lat="36.80991945417988" lon="10.262928910141763"><ele>0.0</ele><time>2026-04-09T11:15:44.999Z</time></trkpt><trkpt lat="36.809800815575834" lon="10.263070571923759"><ele>0.0</ele><time>2026-04-09T11:15:45.999Z</time></trkpt><trkpt lat="36.80970470137444" lon="10.263228344425471"><ele>0.0</ele><time>2026-04-09T11:15:46.999Z</time></trkpt><trkpt lat="36.80964578632857" lon="10.263401047913495"><ele>0.0</ele><time>2026-04-09T11:15:47.999Z</time></trkpt><trkpt lat="36.80961307536078" lon="10.263579724745052"><ele>0.0</ele><time>2026-04-09T11:15:48.999Z</time></trkpt><trkpt lat="36.8096181885684" lon="10.263765722755098"><ele>0.0</ele><time>2026-04-09T11:15:49.999Z</time></trkpt><trkpt lat="36.809662413097044" lon="10.263962473553246"><ele>0.0</ele><time>2026-04-09T11:15:50.999Z</time></trkpt><trkpt lat="36.80973516348151" lon="10.26416483797148"><ele>0.0</ele><time>2026-04-09T11:15:51.999Z</time></trkpt><trkpt lat="36.80984424277384" lon="10.264371794493709"><ele>0.0</ele><time>2026-04-09T11:15:52.999Z</time></trkpt><trkpt lat="36.809978890824105" lon="10.264578238701224"><ele>0.0</ele><time>2026-04-09T11:15:53.999Z</time></trkpt><trkpt lat="36.810128135568704" lon="10.26478548562897"><ele>0.0</ele><time>2026-04-09T11:15:54.999Z</time></trkpt><trkpt lat="36.810264677232276" lon="10.26497949638979"><ele>0.0</ele><time>2026-04-09T11:15:55.999Z</time></trkpt><trkpt lat="36.81037220949386" lon="10.26517844501595"><ele>0.0</ele><time>2026-04-09T11:15:56.999Z</time></trkpt><trkpt lat="36.81045624728029" lon="10.265382919486173"><ele>0.0</ele><time>2026-04-09T11:15:57.999Z</time></trkpt><trkpt lat="36.81052642269337" lon="10.265604762093455"><ele>0.0</ele><time>2026-04-09T11:15:58.999Z</time></trkpt><trkpt lat="36.81058584636891" lon="10.26584211083891"><ele>0.0</ele><time>2026-04-09T11:15:59.999Z</time></trkpt><trkpt lat="36.810630110649505" lon="10.266095100625684"><ele>0.0</ele><time>2026-04-09T11:16:00.999Z</time></trkpt><trkpt lat="36.81065993131563" lon="10.266366612545843"><ele>0.0</ele><time>2026-04-09T11:16:01.999Z</time></trkpt><trkpt lat="36.810672228017786" lon="10.266635216750277"><ele>0.0</ele><time>2026-04-09T11:16:02.999Z</time></trkpt><trkpt lat="36.8106713696599" lon="10.26689404857328"><ele>0.0</ele><time>2026-04-09T11:16:03.999Z</time></trkpt><trkpt lat="36.810658600226795" lon="10.267131058272065"><ele>0.0</ele><time>2026-04-09T11:16:04.999Z</time></trkpt><trkpt lat="36.81064629221188" lon="10.267362465173674"><ele>0.0</ele><time>2026-04-09T11:16:05.999Z</time></trkpt><trkpt lat="36.810634911461925" lon="10.267588675494137"><ele>0.0</ele><time>2026-04-09T11:16:06.999Z</time></trkpt><trkpt lat="36.810625096969076" lon="10.267800785175044"><ele>0.0</ele><time>2026-04-09T11:16:07.999Z</time></trkpt><trkpt lat="36.810613623202244" lon="10.268006699836645"><ele>0.0</ele><time>2026-04-09T11:16:08.999Z</time></trkpt><trkpt lat="36.810597925189136" lon="10.268215905144423"><ele>0.0</ele><time>2026-04-09T11:16:09.999Z</time></trkpt><trkpt lat="36.810583743691076" lon="10.268426305981494"><ele>0.0</ele><time>2026-04-09T11:16:10.999Z</time></trkpt><trkpt lat="36.81057279068791" lon="10.268642974402164"><ele>0.0</ele><time>2026-04-09T11:16:11.999Z</time></trkpt><trkpt lat="36.810565184069496" lon="10.268869444172314"><ele>0.0</ele><time>2026-04-09T11:16:12.999Z</time></trkpt><trkpt lat="36.810559463952885" lon="10.2691024984236"><ele>0.0</ele><time>2026-04-09T11:16:13.999Z</time></trkpt><trkpt lat="36.81055567793517" lon="10.269344076683124"><ele>0.0</ele><time>2026-04-09T11:16:14.999Z</time></trkpt><trkpt lat="36.81055732421415" lon="10.269591339512392"><ele>0.0</ele><time>2026-04-09T11:16:15.999Z</time></trkpt><trkpt lat="36.8105602682215" lon="10.269842910147636"><ele>0.0</ele><time>2026-04-09T11:16:16.999Z</time></trkpt><trkpt lat="36.8105664158394" lon="10.270101019776773"><ele>0.3333333333333333</ele><time>2026-04-09T11:16:17.999Z</time></trkpt><trkpt lat="36.810576206339555" lon="10.270350188156012"><ele>0.6666666666666666</ele><time>2026-04-09T11:16:18.999Z</time></trkpt><trkpt lat="36.81059039936097" lon="10.270592060563041"><ele>1.0</ele><time>2026-04-09T11:16:19.999Z</time></trkpt><trkpt lat="36.81060858886158" lon="10.270829003074532"><ele>1.6666666666666665</ele><time>2026-04-09T11:16:20.999Z</time></trkpt><trkpt lat="36.81062728385057" lon="10.271069752871359"><ele>2.3333333333333335</ele><time>2026-04-09T11:16:21.999Z</time></trkpt><trkpt lat="36.81064833817187" lon="10.271314392219878"><ele>3.0</ele><time>2026-04-09T11:16:22.999Z</time></trkpt><trkpt lat="36.810671054413994" lon="10.271562318302331"><ele>2.3333333333333335</ele><time>2026-04-09T11:16:23.999Z</time></trkpt><trkpt lat="36.810696813254424" lon="10.27180362994187"><ele>1.6666666666666665</ele><time>2026-04-09T11:16:24.999Z</time></trkpt><trkpt lat="36.81072938905692" lon="10.272040852755463"><ele>1.0</ele><time>2026-04-09T11:16:25.999Z</time></trkpt><trkpt lat="36.810764823840294" lon="10.272273481858127"><ele>1.0</ele><time>2026-04-09T11:16:26.999Z</time></trkpt><trkpt lat="36.81080068997613" lon="10.272505242947725"><ele>1.0</ele><time>2026-04-09T11:16:27.999Z</time></trkpt><trkpt lat="36.81083956708769" lon="10.272735100309498"><ele>1.0</ele><time>2026-04-09T11:16:28.999Z</time></trkpt><trkpt lat="36.81088037520524" lon="10.272964575248988"><ele>0.6666666666666666</ele><time>2026-04-09T11:16:29.999Z</time></trkpt><trkpt lat="36.810920271853824" lon="10.27319333211995"><ele>0.3333333333333333</ele><time>2026-04-09T11:16:30.999Z</time></trkpt><trkpt lat="36.81096045784258" lon="10.273419851780046"><ele>0.0</ele><time>2026-04-09T11:16:31.999Z</time></trkpt><trkpt lat="36.810999039732046" lon="10.273649299370922"><ele>0.0</ele><time>2026-04-09T11:16:32.999Z</time></trkpt><trkpt lat="36.811035820515606" lon="10.273882242705351"><ele>0.0</ele><time>2026-04-09T11:16:33.999Z</time></trkpt><trkpt lat="36.81107339318378" lon="10.274115348985157"><ele>0.0</ele><time>2026-04-09T11:16:34.999Z</time></trkpt><trkpt lat="36.811111739132144" lon="10.274355691434709"><ele>0.0</ele><time>2026-04-09T11:16:35.999Z</time></trkpt><trkpt lat="36.811150211642584" lon="10.274597768126114"><ele>0.0</ele><time>2026-04-09T11:16:36.999Z</time></trkpt><trkpt lat="36.811189979032584" lon="10.274839174779414"><ele>0.0</ele><time>2026-04-09T11:16:37.999Z</time></trkpt><trkpt lat="36.81123042443479" lon="10.275080362192055"><ele>0.0</ele><time>2026-04-09T11:16:38.999Z</time></trkpt><trkpt lat="36.811270695409966" lon="10.275320244039776"><ele>0.0</ele><time>2026-04-09T11:16:39.999Z</time></trkpt><trkpt lat="36.81131180239115" lon="10.2755600106425"><ele>0.0</ele><time>2026-04-09T11:16:40.999Z</time></trkpt><trkpt lat="36.81135249875989" lon="10.275799356673716"><ele>0.0</ele><time>2026-04-09T11:16:41.999Z</time></trkpt><trkpt lat="36.811394900837705" lon="10.276043682926929"><ele>0.0</ele><time>2026-04-09T11:16:42.999Z</time></trkpt><trkpt lat="36.81143811856645" lon="10.276289170307544"><ele>0.0</ele><time>2026-04-09T11:16:43.999Z</time></trkpt><trkpt lat="36.81148066464043" lon="10.27653951151248"><ele>0.0</ele><time>2026-04-09T11:16:44.999Z</time></trkpt><trkpt lat="36.811522824710465" lon="10.276793973187981"><ele>0.0</ele><time>2026-04-09T11:16:45.999Z</time></trkpt><trkpt lat="36.81156966253092" lon="10.2770536118315"><ele>0.0</ele><time>2026-04-09T11:16:46.999Z</time></trkpt><trkpt lat="36.81162369704847" lon="10.277313517786403"><ele>0.0</ele><time>2026-04-09T11:16:47.999Z</time></trkpt><trkpt lat="36.811685863561884" lon="10.277551048763973"><ele>0.0</ele><time>2026-04-09T11:16:48.999Z</time></trkpt><trkpt lat="36.81175942396324" lon="10.277772863102237"><ele>0.0</ele><time>2026-04-09T11:16:49.999Z</time></trkpt><trkpt lat="36.811841671768946" lon="10.277991044005699"><ele>0.0</ele><time>2026-04-09T11:16:50.999Z</time></trkpt><trkpt lat="36.81193702186824" lon="10.278205776042027"><ele>0.0</ele><time>2026-04-09T11:16:51.999Z</time></trkpt><trkpt lat="36.81204717577998" lon="10.278417381035295"><ele>0.0</ele><time>2026-04-09T11:16:52.999Z</time></trkpt><trkpt lat="36.81216490361709" lon="10.278621667687817"><ele>0.0</ele><time>2026-04-09T11:16:53.999Z</time></trkpt><trkpt lat="36.81229349690831" lon="10.278816393609606"><ele>0.0</ele><time>2026-04-09T11:16:54.999Z</time></trkpt><trkpt lat="36.812437434517925" lon="10.278999239985906"><ele>0.0</ele><time>2026-04-09T11:16:55.999Z</time></trkpt><trkpt lat="36.81259631590929" lon="10.279181914988776"><ele>0.0</ele><time>2026-04-09T11:16:56.999Z</time></trkpt><trkpt lat="36.812761255589734" lon="10.279347040811661"><ele>0.0</ele><time>2026-04-09T11:16:57.999Z</time></trkpt><trkpt lat="36.8129370837305" lon="10.2795022322161"><ele>0.0</ele><time>2026-04-09T11:16:58.999Z</time></trkpt><trkpt lat="36.81312116350575" lon="10.27965225620494"><ele>0.0</ele><time>2026-04-09T11:16:59.999Z</time></trkpt><trkpt lat="36.81330554788164" lon="10.279798693661455"><ele>0.0</ele><time>2026-04-09T11:17:00.999Z</time></trkpt><trkpt lat="36.813495314552725" lon="10.279942619365118"><ele>0.0</ele><time>2026-04-09T11:17:01.999Z</time></trkpt><trkpt lat="36.813687281482416" lon="10.280089028004689"><ele>0.0</ele><time>2026-04-09T11:17:02.999Z</time></trkpt><trkpt lat="36.81388023895657" lon="10.280242201077126"><ele>0.0</ele><time>2026-04-09T11:17:03.999Z</time></trkpt><trkpt lat="36.814073447080794" lon="10.280398697141816"><ele>0.0</ele><time>2026-04-09T11:17:04.999Z</time></trkpt><trkpt lat="36.814263270467514" lon="10.28056194454527"><ele>0.0</ele><time>2026-04-09T11:17:05.999Z</time></trkpt><trkpt lat="36.814451127251786" lon="10.280733867653558"><ele>0.0</ele><time>2026-04-09T11:17:06.999Z</time></trkpt><trkpt lat="36.81463675557273" lon="10.280914723790449"><ele>0.0</ele><time>2026-04-09T11:17:07.999Z</time></trkpt><trkpt lat="36.81481517469625" lon="10.281104909095006"><ele>0.0</ele><time>2026-04-09T11:17:08.999Z</time></trkpt><trkpt lat="36.81499152295416" lon="10.281305724495656"><ele>0.0</ele><time>2026-04-09T11:17:09.999Z</time></trkpt><trkpt lat="36.815161111871156" lon="10.281500244204542"><ele>0.0</ele><time>2026-04-09T11:17:10.999Z</time></trkpt><trkpt lat="36.815317307645216" lon="10.281686608140367"><ele>0.0</ele><time>2026-04-09T11:17:11.999Z</time></trkpt><trkpt lat="36.815473328154674" lon="10.28188473375283"><ele>0.0</ele><time>2026-04-09T11:17:12.999Z</time></trkpt><trkpt lat="36.81562715321635" lon="10.282087711121891"><ele>0.0</ele><time>2026-04-09T11:17:13.999Z</time></trkpt><trkpt lat="36.8157726384848" lon="10.282301840484658"><ele>0.0</ele><time>2026-04-09T11:17:14.999Z</time></trkpt><trkpt lat="36.81591164542447" lon="10.282517859933773"><ele>0.0</ele><time>2026-04-09T11:17:15.999Z</time></trkpt><trkpt lat="36.81604780692897" lon="10.282736539981144"><ele>0.0</ele><time>2026-04-09T11:17:16.999Z</time></trkpt><trkpt lat="36.81617759811819" lon="10.28296292098046"><ele>0.0</ele><time>2026-04-09T11:17:17.999Z</time></trkpt><trkpt lat="36.81630400732082" lon="10.283193573303063"><ele>0.0</ele><time>2026-04-09T11:17:18.999Z</time></trkpt><trkpt lat="36.8164249798862" lon="10.283428725141107"><ele>0.0</ele><time>2026-04-09T11:17:19.999Z</time></trkpt><trkpt lat="36.81653861907425" lon="10.283671052536455"><ele>0.0</ele><time>2026-04-09T11:17:20.999Z</time></trkpt><trkpt lat="36.816644746212184" lon="10.28391398983002"><ele>0.0</ele><time>2026-04-09T11:17:21.999Z</time></trkpt><trkpt lat="36.816747550470986" lon="10.284160600139725"><ele>0.0</ele><time>2026-04-09T11:17:22.999Z</time></trkpt><trkpt lat="36.81684654309027" lon="10.284411552391877"><ele>0.0</ele><time>2026-04-09T11:17:23.999Z</time></trkpt><trkpt lat="36.816941376521676" lon="10.284665101651212"><ele>0.0</ele><time>2026-04-09T11:17:24.999Z</time></trkpt><trkpt lat="36.81703876761309" lon="10.284920317708968"><ele>0.0</ele><time>2026-04-09T11:17:25.999Z</time></trkpt><trkpt lat="36.817134629257126" lon="10.285173012901845"><ele>0.0</ele><time>2026-04-09T11:17:26.999Z</time></trkpt><trkpt lat="36.8172335650875" lon="10.285429193666038"><ele>-0.5</ele><time>2026-04-09T11:17:27.999Z</time></trkpt><trkpt lat="36.81733581924369" lon="10.285689999049424"><ele>-1.0</ele><time>2026-04-09T11:17:28.999Z</time></trkpt><trkpt lat="36.81743898966833" lon="10.285946867752358"><ele>-1.0</ele><time>2026-04-09T11:17:29.999Z</time></trkpt><trkpt lat="36.81753903270667" lon="10.286206069591996"><ele>-1.0</ele><time>2026-04-09T11:17:30.999Z</time></trkpt><trkpt lat="36.81763863446351" lon="10.286465432907836"><ele>-0.6666666666666666</ele><time>2026-04-09T11:17:31.999Z</time></trkpt><trkpt lat="36.81773662699652" lon="10.286720402472717"><ele>-0.3333333333333333</ele><time>2026-04-09T11:17:32.999Z</time></trkpt><trkpt lat="36.817832407185676" lon="10.286961775109566"><ele>0.0</ele><time>2026-04-09T11:17:33.999Z</time></trkpt><trkpt lat="36.817924451979124" lon="10.287196261275799"><ele>0.0</ele><time>2026-04-09T11:17:34.999Z</time></trkpt><trkpt lat="36.818010209838135" lon="10.287417720444"><ele>0.0</ele><time>2026-04-09T11:17:35.999Z</time></trkpt><trkpt lat="36.81809169058632" lon="10.287635457418952"><ele>0.0</ele><time>2026-04-09T11:17:36.999Z</time></trkpt><trkpt lat="36.8181745943357" lon="10.287851083567732"><ele>0.0</ele><time>2026-04-09T11:17:37.999Z</time></trkpt><trkpt lat="36.81825629480196" lon="10.288064829837316"><ele>0.0</ele><time>2026-04-09T11:17:38.999Z</time></trkpt><trkpt lat="36.81833530292977" lon="10.288279474256992"><ele>0.0</ele><time>2026-04-09T11:17:39.999Z</time></trkpt><trkpt lat="36.818414122167844" lon="10.288492453285103"><ele>0.0</ele><time>2026-04-09T11:17:40.999Z</time></trkpt><trkpt lat="36.81849559644083" lon="10.288702573614577"><ele>0.0</ele><time>2026-04-09T11:17:41.999Z</time></trkpt><trkpt lat="36.81857390198455" lon="10.288915579426648"><ele>0.0</ele><time>2026-04-09T11:17:42.999Z</time></trkpt><trkpt lat="36.81865075962511" lon="10.289128245896583"><ele>0.0</ele><time>2026-04-09T11:17:43.999Z</time></trkpt><trkpt lat="36.81873199987457" lon="10.289343456733633"><ele>0.0</ele><time>2026-04-09T11:17:44.999Z</time></trkpt><trkpt lat="36.818814222260706" lon="10.289559090055638"><ele>0.0</ele><time>2026-04-09T11:17:46Z</time></trkpt><trkpt lat="36.818897369343425" lon="10.289771302420105"><ele>0.0</ele><time>2026-04-09T11:17:47Z</time></trkpt><trkpt lat="36.81898121408774" lon="10.289983269360972"><ele>0.0</ele><time>2026-04-09T11:17:48Z</time></trkpt><trkpt lat="36.81906547128615" lon="10.290191701980746"><ele>0.0</ele><time>2026-04-09T11:17:49Z</time></trkpt><trkpt lat="36.8191488017796" lon="10.290402244271132"><ele>0.0</ele><time>2026-04-09T11:17:50Z</time></trkpt><trkpt lat="36.81922578269694" lon="10.29060125983436"><ele>0.0</ele><time>2026-04-09T11:17:51Z</time></trkpt><trkpt lat="36.819295389671254" lon="10.290791328708103"><ele>0.0</ele><time>2026-04-09T11:17:52Z</time></trkpt><trkpt lat="36.81935969487445" lon="10.290968503065368"><ele>0.0</ele><time>2026-04-09T11:17:53Z</time></trkpt><trkpt lat="36.81942345652597" lon="10.291133927538807"><ele>0.0</ele><time>2026-04-09T11:17:54Z</time></trkpt><trkpt lat="36.819484907678365" lon="10.291290255261632"><ele>0.0</ele><time>2026-04-09T11:17:55Z</time></trkpt><trkpt lat="36.81954281337986" lon="10.291431900156804"><ele>0.0</ele><time>2026-04-09T11:17:56Z</time></trkpt><trkpt lat="36.819594043497126" lon="10.291557216832077"><ele>0.0</ele><time>2026-04-09T11:17:57Z</time></trkpt><trkpt lat="36.819640772856076" lon="10.291677699129371"><ele>0.0</ele><time>2026-04-09T11:17:58Z</time></trkpt><trkpt lat="36.8196832377648" lon="10.291790284614208"><ele>0.0</ele><time>2026-04-09T11:17:59Z</time></trkpt><trkpt lat="36.81972378120416" lon="10.291893830985025"><ele>0.0</ele><time>2026-04-09T11:18:00Z</time></trkpt><trkpt lat="36.81975923951353" lon="10.29199059208735"><ele>0.0</ele><time>2026-04-09T11:18:01Z</time></trkpt><trkpt lat="36.819793266151265" lon="10.292090111514822"><ele>0.0</ele><time>2026-04-09T11:18:02Z</time></trkpt><trkpt lat="36.81982192204681" lon="10.292191680190385"><ele>0.0</ele><time>2026-04-09T11:18:03Z</time></trkpt><trkpt lat="36.81984630869081" lon="10.292279942522919"><ele>0.0</ele><time>2026-04-09T11:18:04Z</time></trkpt><trkpt lat="36.819862518244726" lon="10.29242042014783"><ele>0.0</ele><time>2026-04-09T11:18:06Z</time></trkpt><trkpt lat="36.81986166915957" lon="10.292562434283344"><ele>0.0</ele><time>2026-04-09T11:18:08Z</time></trkpt><trkpt lat="36.81987122677104" lon="10.292650983523279"><ele>0.0</ele><time>2026-04-09T11:18:09Z</time></trkpt><trkpt lat="36.81990268233688" lon="10.2927363540998"><ele>0.0</ele><time>2026-04-09T11:18:10Z</time></trkpt><trkpt lat="36.81996202147166" lon="10.29282627300414"><ele>0.0</ele><time>2026-04-09T11:18:11Z</time></trkpt><trkpt lat="36.82005027967878" lon="10.292936996257898"><ele>0.0</ele><time>2026-04-09T11:18:12Z</time></trkpt><trkpt lat="36.82014801609474" lon="10.293076817896134"><ele>0.0</ele><time>2026-04-09T11:18:13Z</time></trkpt><trkpt lat="36.820237967108966" lon="10.29324726365198"><ele>0.0</ele><time>2026-04-09T11:18:14Z</time></trkpt><trkpt lat="36.820330654713146" lon="10.293458321648304"><ele>0.0</ele><time>2026-04-09T11:18:15Z</time></trkpt><trkpt lat="36.820431208075796" lon="10.293712453709968"><ele>0.0</ele><time>2026-04-09T11:18:16Z</time></trkpt><trkpt lat="36.820529368331925" lon="10.29396964104531"><ele>0.0</ele><time>2026-04-09T11:18:17Z</time></trkpt><trkpt lat="36.8206263387448" lon="10.294211511841667"><ele>0.0</ele><time>2026-04-09T11:18:18Z</time></trkpt><trkpt lat="36.820720534374374" lon="10.294453147643724"><ele>0.0</ele><time>2026-04-09T11:18:19Z</time></trkpt><trkpt lat="36.82081378814057" lon="10.29469496957999"><ele>0.0</ele><time>2026-04-09T11:18:20Z</time></trkpt><trkpt lat="36.820904621016524" lon="10.294930434864721"><ele>0.0</ele><time>2026-04-09T11:18:21Z</time></trkpt><trkpt lat="36.82099728398075" lon="10.295173909035183"><ele>0.0</ele><time>2026-04-09T11:18:22Z</time></trkpt><trkpt lat="36.82109134008904" lon="10.2954136705333"><ele>0.0</ele><time>2026-04-09T11:18:23Z</time></trkpt><trkpt lat="36.821185640409496" lon="10.29565623335921"><ele>0.0</ele><time>2026-04-09T11:18:24Z</time></trkpt><trkpt lat="36.82127884533292" lon="10.295900126572487"><ele>0.0</ele><time>2026-04-09T11:18:25Z</time></trkpt><trkpt lat="36.82137222503515" lon="10.296141411422708"><ele>0.0</ele><time>2026-04-09T11:18:26Z</time></trkpt><trkpt lat="36.821462443028004" lon="10.296379839966455"><ele>0.0</ele><time>2026-04-09T11:18:27Z</time></trkpt><trkpt lat="36.82155203475397" lon="10.296620814796666"><ele>0.0</ele><time>2026-04-09T11:18:28Z</time></trkpt><trkpt lat="36.8216401598528" lon="10.296857511111812"><ele>0.0</ele><time>2026-04-09T11:18:29Z</time></trkpt><trkpt lat="36.82172807025163" lon="10.29709088770933"><ele>0.0</ele><time>2026-04-09T11:18:30Z</time></trkpt><trkpt lat="36.82181603759499" lon="10.297321402016879"><ele>0.0</ele><time>2026-04-09T11:18:31Z</time></trkpt><trkpt lat="36.82190710847827" lon="10.297551083452012"><ele>0.0</ele><time>2026-04-09T11:18:32Z</time></trkpt><trkpt lat="36.822000366632906" lon="10.297778479894243"><ele>0.0</ele><time>2026-04-09T11:18:33Z</time></trkpt><trkpt lat="36.82208990260238" lon="10.298008783434625"><ele>0.0</ele><time>2026-04-09T11:18:34Z</time></trkpt><trkpt lat="36.82217817471928" lon="10.298240180121185"><ele>0.0</ele><time>2026-04-09T11:18:35Z</time></trkpt><trkpt lat="36.822266700107235" lon="10.29847513509854"><ele>0.0</ele><time>2026-04-09T11:18:36Z</time></trkpt><trkpt lat="36.822358071832156" lon="10.298710126719582"><ele>0.0</ele><time>2026-04-09T11:18:37Z</time></trkpt><trkpt lat="36.82245003920878" lon="10.298941274671227"><ele>0.0</ele><time>2026-04-09T11:18:38Z</time></trkpt><trkpt lat="36.822539815245925" lon="10.29917626289401"><ele>0.0</ele><time>2026-04-09T11:18:39Z</time></trkpt><trkpt lat="36.822627254575664" lon="10.29941023360387"><ele>0.0</ele><time>2026-04-09T11:18:40Z</time></trkpt><trkpt lat="36.82271670069105" lon="10.29964324198149"><ele>0.0</ele><time>2026-04-09T11:18:41Z</time></trkpt><trkpt lat="36.822810853937476" lon="10.29987775193086"><ele>0.0</ele><time>2026-04-09T11:18:42Z</time></trkpt><trkpt lat="36.8229041160785" lon="10.300108262554284"><ele>0.0</ele><time>2026-04-09T11:18:43Z</time></trkpt><trkpt lat="36.82299602924471" lon="10.300342362086248"><ele>0.0</ele><time>2026-04-09T11:18:44Z</time></trkpt><trkpt lat="36.823085638862395" lon="10.300576801029687"><ele>0.0</ele><time>2026-04-09T11:18:45Z</time></trkpt><trkpt lat="36.823175305554635" lon="10.300812066460146"><ele>0.0</ele><time>2026-04-09T11:18:46Z</time></trkpt><trkpt lat="36.82326456881052" lon="10.301046263704933"><ele>0.0</ele><time>2026-04-09T11:18:47Z</time></trkpt><trkpt lat="36.82335363923102" lon="10.301280565899685"><ele>0.0</ele><time>2026-04-09T11:18:48Z</time></trkpt><trkpt lat="36.82344567306237" lon="10.301513632072217"><ele>0.0</ele><time>2026-04-09T11:18:49Z</time></trkpt><trkpt lat="36.82353882493032" lon="10.301747405631506"><ele>0.0</ele><time>2026-04-09T11:18:50Z</time></trkpt><trkpt lat="36.823631952451656" lon="10.301981819025073"><ele>0.0</ele><time>2026-04-09T11:18:51Z</time></trkpt><trkpt lat="36.82372338321282" lon="10.302215880322137"><ele>0.0</ele><time>2026-04-09T11:18:52Z</time></trkpt><trkpt lat="36.823814055630415" lon="10.302449275646458"><ele>0.0</ele><time>2026-04-09T11:18:53Z</time></trkpt><trkpt lat="36.823905447336294" lon="10.302680304099194"><ele>0.0</ele><time>2026-04-09T11:18:54Z</time></trkpt><trkpt lat="36.82399491528521" lon="10.30290644971729"><ele>0.0</ele><time>2026-04-09T11:18:55Z</time></trkpt><trkpt lat="36.824077554656114" lon="10.303125312066124"><ele>0.0</ele><time>2026-04-09T11:18:56Z</time></trkpt><trkpt lat="36.824157472312685" lon="10.303334641140546"><ele>0.0</ele><time>2026-04-09T11:18:57Z</time></trkpt><trkpt lat="36.82423092269835" lon="10.303531312902035"><ele>0.0</ele><time>2026-04-09T11:18:58Z</time></trkpt><trkpt lat="36.82429440670079" lon="10.303720633218907"><ele>0.0</ele><time>2026-04-09T11:18:59Z</time></trkpt><trkpt lat="36.82435436156604" lon="10.30391241997625"><ele>0.0</ele><time>2026-04-09T11:19:00Z</time></trkpt><trkpt lat="36.82440907560942" lon="10.30411430458761"><ele>0.0</ele><time>2026-04-09T11:19:01Z</time></trkpt><trkpt lat="36.82445607540264" lon="10.304322549407567"><ele>0.0</ele><time>2026-04-09T11:19:02Z</time></trkpt><trkpt lat="36.82449314398976" lon="10.304535719069348"><ele>0.0</ele><time>2026-04-09T11:19:03Z</time></trkpt><trkpt lat="36.82452312354247" lon="10.304751234108476"><ele>0.0</ele><time>2026-04-09T11:19:04Z</time></trkpt><trkpt lat="36.824545382464784" lon="10.304968001224097"><ele>0.3333333333333333</ele><time>2026-04-09T11:19:05Z</time></trkpt><trkpt lat="36.824561710948394" lon="10.305190481621835"><ele>0.6666666666666666</ele><time>2026-04-09T11:19:06Z</time></trkpt><trkpt lat="36.824570622714326" lon="10.305412439972839"><ele>1.0</ele><time>2026-04-09T11:19:07Z</time></trkpt><trkpt lat="36.824579783831524" lon="10.305639382301646"><ele>-0.33333333333333337</ele><time>2026-04-09T11:19:08Z</time></trkpt><trkpt lat="36.824596144413235" lon="10.30585955856009"><ele>-1.6666666666666667</ele><time>2026-04-09T11:19:09Z</time></trkpt><trkpt lat="36.824622347446315" lon="10.306079915543966"><ele>-3.0</ele><time>2026-04-09T11:19:10Z</time></trkpt><trkpt lat="36.82465651414514" lon="10.30629716440525"><ele>-1.6666666666666667</ele><time>2026-04-09T11:19:11Z</time></trkpt><trkpt lat="36.82470260347381" lon="10.306509658466322"><ele>-0.33333333333333337</ele><time>2026-04-09T11:19:12Z</time></trkpt><trkpt lat="36.82475929032542" lon="10.306720379790454"><ele>1.0</ele><time>2026-04-09T11:19:13Z</time></trkpt><trkpt lat="36.824830230279964" lon="10.306925426808412"><ele>1.0</ele><time>2026-04-09T11:19:14Z</time></trkpt><trkpt lat="36.824913694556415" lon="10.307119427954435"><ele>1.0</ele><time>2026-04-09T11:19:15Z</time></trkpt><trkpt lat="36.82500771160263" lon="10.307307279980208"><ele>1.0</ele><time>2026-04-09T11:19:16Z</time></trkpt><trkpt lat="36.82511365704156" lon="10.307487122567048"><ele>1.0</ele><time>2026-04-09T11:19:17Z</time></trkpt><trkpt lat="36.82523417982162" lon="10.307652503552385"><ele>1.0</ele><time>2026-04-09T11:19:18Z</time></trkpt><trkpt lat="36.82536465918352" lon="10.307802995913919"><ele>1.0</ele><time>2026-04-09T11:19:19Z</time></trkpt><trkpt lat="36.82549933948833" lon="10.3079374741766"><ele>1.0</ele><time>2026-04-09T11:19:20Z</time></trkpt><trkpt lat="36.82562834197773" lon="10.308054082992738"><ele>1.0</ele><time>2026-04-09T11:19:21Z</time></trkpt><trkpt lat="36.82575149397906" lon="10.308162259157692"><ele>1.0</ele><time>2026-04-09T11:19:22Z</time></trkpt><trkpt lat="36.82586304734782" lon="10.308254886048658"><ele>1.0</ele><time>2026-04-09T11:19:23Z</time></trkpt><trkpt lat="36.825954917512746" lon="10.308333170830739"><ele>0.8333333333333333</ele><time>2026-04-09T11:19:24Z</time></trkpt><trkpt lat="36.826030465125754" lon="10.30839778779765"><ele>0.6666666666666666</ele><time>2026-04-09T11:19:25Z</time></trkpt><trkpt lat="36.82610238720551" lon="10.30846040833859"><ele>0.5</ele><time>2026-04-09T11:19:26Z</time></trkpt><trkpt lat="36.82617371542329" lon="10.30852076367553"><ele>0.3333333333333333</ele><time>2026-04-09T11:19:27Z</time></trkpt><trkpt lat="36.82624345714974" lon="10.308575764761066"><ele>0.16666666666666666</ele><time>2026-04-09T11:19:27.999Z</time></trkpt><trkpt lat="36.82630928262287" lon="10.308624087169923"><ele>0.0</ele><time>2026-04-09T11:19:28.999Z</time></trkpt><trkpt lat="36.8263727781377" lon="10.308672789803989"><ele>0.0</ele><time>2026-04-09T11:19:29.999Z</time></trkpt><trkpt lat="36.82643511850655" lon="10.30872686380858"><ele>0.0</ele><time>2026-04-09T11:19:30.999Z</time></trkpt><trkpt lat="36.82649534708469" lon="10.308783259782082"><ele>0.0</ele><time>2026-04-09T11:19:31.999Z</time></trkpt><trkpt lat="36.82654855502143" lon="10.308828007882173"><ele>0.0</ele><time>2026-04-09T11:19:32.999Z</time></trkpt><trkpt lat="36.82663451168336" lon="10.308905321273976"><ele>0.0</ele><time>2026-04-09T11:19:34.999Z</time></trkpt><trkpt lat="36.82669071941901" lon="10.308971089262084"><ele>0.0</ele><time>2026-04-09T11:19:36.999Z</time></trkpt><trkpt lat="36.826740960507884" lon="10.309038653930301"><ele>0.0</ele><time>2026-04-09T11:19:38.999Z</time></trkpt><trkpt lat="36.82678252264533" lon="10.309110519627259"><ele>0.0</ele><time>2026-04-09T11:19:40.999Z</time></trkpt><trkpt lat="36.826807274417106" lon="10.309186969580537"><ele>0.0</ele><time>2026-04-09T11:19:43.999Z</time></trkpt><trkpt lat="36.82684438560247" lon="10.309274163252496"><ele>0.0</ele><time>2026-04-09T11:19:47.999Z</time></trkpt><trkpt lat="36.826882614333925" lon="10.30934084628647"><ele>0.0</ele><time>2026-04-09T11:19:50.999Z</time></trkpt><trkpt lat="36.826945936568684" lon="10.309385052204913"><ele>0.0</ele><time>2026-04-09T11:19:54Z</time></trkpt><trkpt lat="36.82702365681066" lon="10.309392589390429"><ele>0.0</ele><time>2026-04-09T11:19:57Z</time></trkpt><trkpt lat="36.82710015626953" lon="10.309366155467496"><ele>-0.8333333333333334</ele><time>2026-04-09T11:20:00Z</time></trkpt><trkpt lat="36.82716768364413" lon="10.309286762339838"><ele>-1.6666666666666667</ele><time>2026-04-09T11:20:03Z</time></trkpt><trkpt lat="36.82719647969792" lon="10.309199506745673"><ele>-2.5</ele><time>2026-04-09T11:20:05Z</time></trkpt><trkpt lat="36.82719610413022" lon="10.309053600975961"><ele>-3.3333333333333335</ele><time>2026-04-09T11:20:07Z</time></trkpt><trkpt lat="36.82720732987109" lon="10.308962347224108"><ele>-4.166666666666667</ele><time>2026-04-09T11:20:08Z</time></trkpt><trkpt lat="36.827232354074006" lon="10.308861854827914"><ele>-5.0</ele><time>2026-04-09T11:20:09Z</time></trkpt><trkpt lat="36.8272632518643" lon="10.308756170940194"><ele>-5.0</ele><time>2026-04-09T11:20:10Z</time></trkpt><trkpt lat="36.827304466981744" lon="10.308650864842239"><ele>-5.0</ele><time>2026-04-09T11:20:11Z</time></trkpt><trkpt lat="36.8273512767896" lon="10.30854502664566"><ele>-5.0</ele><time>2026-04-09T11:20:12Z</time></trkpt><trkpt lat="36.82740092156949" lon="10.308434516871023"><ele>-5.0</ele><time>2026-04-09T11:20:13Z</time></trkpt><trkpt lat="36.827454901056704" lon="10.308319587540847"><ele>-5.0</ele><time>2026-04-09T11:20:14Z</time></trkpt><trkpt lat="36.82751500343052" lon="10.30820001352416"><ele>-4.5</ele><time>2026-04-09T11:20:15Z</time></trkpt><trkpt lat="36.8275754285084" lon="10.308075885941449"><ele>-4.0</ele><time>2026-04-09T11:20:16Z</time></trkpt><trkpt lat="36.82763956013145" lon="10.307948841036215"><ele>-3.5</ele><time>2026-04-09T11:20:17Z</time></trkpt><trkpt lat="36.82770545017093" lon="10.307814907419427"><ele>-3.0</ele><time>2026-04-09T11:20:18Z</time></trkpt><trkpt lat="36.827780567455775" lon="10.307672279618995"><ele>-3.0</ele><time>2026-04-09T11:20:19Z</time></trkpt><trkpt lat="36.82785881935839" lon="10.307520047735432"><ele>-3.0</ele><time>2026-04-09T11:20:20Z</time></trkpt><trkpt lat="36.82794666853508" lon="10.307352786789053"><ele>-3.0</ele><time>2026-04-09T11:20:21Z</time></trkpt><trkpt lat="36.82804160176888" lon="10.307159005966371"><ele>-2.0</ele><time>2026-04-09T11:20:22Z</time></trkpt><trkpt lat="36.828143031883236" lon="10.306954101074163"><ele>-1.0</ele><time>2026-04-09T11:20:23Z</time></trkpt><trkpt lat="36.82825376006376" lon="10.30673823909629"><ele>0.0</ele><time>2026-04-09T11:20:24Z</time></trkpt><trkpt lat="36.82836662417212" lon="10.30652056972013"><ele>-0.6666666666666666</ele><time>2026-04-09T11:20:25Z</time></trkpt><trkpt lat="36.82848518963498" lon="10.306299645594386"><ele>-1.3333333333333333</ele><time>2026-04-09T11:20:26Z</time></trkpt><trkpt lat="36.82860931962719" lon="10.30607862400075"><ele>-2.0</ele><time>2026-04-09T11:20:27Z</time></trkpt><trkpt lat="36.82873661952729" lon="10.305853100471953"><ele>-2.0</ele><time>2026-04-09T11:20:28Z</time></trkpt><trkpt lat="36.8288646178375" lon="10.305626867121589"><ele>-2.0</ele><time>2026-04-09T11:20:29Z</time></trkpt><trkpt lat="36.82899211400396" lon="10.305406977523775"><ele>-2.0</ele><time>2026-04-09T11:20:30Z</time></trkpt><trkpt lat="36.829118391113035" lon="10.3051868003494"><ele>-1.6666666666666665</ele><time>2026-04-09T11:20:31Z</time></trkpt><trkpt lat="36.82924213056148" lon="10.304969735215085"><ele>-1.3333333333333333</ele><time>2026-04-09T11:20:32Z</time></trkpt><trkpt lat="36.82936623764263" lon="10.30475858586617"><ele>-1.0</ele><time>2026-04-09T11:20:33Z</time></trkpt><trkpt lat="36.82949002385433" lon="10.304546966662297"><ele>-2.0</ele><time>2026-04-09T11:20:34Z</time></trkpt><trkpt lat="36.829612117072244" lon="10.304333415639901"><ele>-3.0</ele><time>2026-04-09T11:20:35Z</time></trkpt><trkpt lat="36.829733182207576" lon="10.304118137534202"><ele>-4.0</ele><time>2026-04-09T11:20:36Z</time></trkpt><trkpt lat="36.829854143009776" lon="10.303907396164597"><ele>-4.0</ele><time>2026-04-09T11:20:37Z</time></trkpt><trkpt lat="36.82997433952027" lon="10.303699654203225"><ele>-4.0</ele><time>2026-04-09T11:20:38Z</time></trkpt><trkpt lat="36.830094459296234" lon="10.303493476455252"><ele>-4.0</ele><time>2026-04-09T11:20:39Z</time></trkpt><trkpt lat="36.83021608350399" lon="10.303285652470512"><ele>-3.333333333333333</ele><time>2026-04-09T11:20:40Z</time></trkpt><trkpt lat="36.83033717644767" lon="10.303077726431328"><ele>-2.6666666666666665</ele><time>2026-04-09T11:20:41Z</time></trkpt><trkpt lat="36.83045760798083" lon="10.302869971219328"><ele>-2.0</ele><time>2026-04-09T11:20:42Z</time></trkpt><trkpt lat="36.830580302794104" lon="10.30265694317627"><ele>-2.0</ele><time>2026-04-09T11:20:43Z</time></trkpt><trkpt lat="36.830702034528564" lon="10.302441638872365"><ele>-2.0</ele><time>2026-04-09T11:20:44Z</time></trkpt><trkpt lat="36.830825531916055" lon="10.302223935622632"><ele>-2.0</ele><time>2026-04-09T11:20:45Z</time></trkpt><trkpt lat="36.83095034205283" lon="10.302004575554195"><ele>-3.0</ele><time>2026-04-09T11:20:46Z</time></trkpt><trkpt lat="36.831077995683195" lon="10.301783900528036"><ele>-4.0</ele><time>2026-04-09T11:20:47Z</time></trkpt><trkpt lat="36.831203494913915" lon="10.301561674510872"><ele>-5.0</ele><time>2026-04-09T11:20:48Z</time></trkpt><trkpt lat="36.831330116535966" lon="10.301337349116519"><ele>-5.0</ele><time>2026-04-09T11:20:49Z</time></trkpt><trkpt lat="36.83145899358539" lon="10.301110354996812"><ele>-5.0</ele><time>2026-04-09T11:20:50Z</time></trkpt><trkpt lat="36.831587042674684" lon="10.300884460898839"><ele>-5.0</ele><time>2026-04-09T11:20:51Z</time></trkpt><trkpt lat="36.83171475459379" lon="10.300658910602316"><ele>-0.666666666666667</ele><time>2026-04-09T11:20:52Z</time></trkpt><trkpt lat="36.83184196829516" lon="10.300435429809458"><ele>3.666666666666666</ele><time>2026-04-09T11:20:53Z</time></trkpt><trkpt lat="36.83196927028372" lon="10.30021359895077"><ele>8.0</ele><time>2026-04-09T11:20:54Z</time></trkpt><trkpt lat="36.83209548503301" lon="10.299992556728416"><ele>8.0</ele><time>2026-04-09T11:20:55Z</time></trkpt><trkpt lat="36.83222451097038" lon="10.299772892767566"><ele>8.0</ele><time>2026-04-09T11:20:56Z</time></trkpt><trkpt lat="36.83235381731519" lon="10.299548286380046"><ele>8.0</ele><time>2026-04-09T11:20:57Z</time></trkpt><trkpt lat="36.83248329329233" lon="10.299325676230977"><ele>7.0</ele><time>2026-04-09T11:20:58Z</time></trkpt><trkpt lat="36.83261482372756" lon="10.299106754802414"><ele>6.0</ele><time>2026-04-09T11:20:59Z</time></trkpt><trkpt lat="36.83274819917749" lon="10.298897134604923"><ele>5.0</ele><time>2026-04-09T11:21:00Z</time></trkpt><trkpt lat="36.83288807211314" lon="10.298702385428754"><ele>2.666666666666667</ele><time>2026-04-09T11:21:01Z</time></trkpt><trkpt lat="36.833033731746816" lon="10.298519093169045"><ele>0.3333333333333335</ele><time>2026-04-09T11:21:02Z</time></trkpt><trkpt lat="36.833188287638436" lon="10.29834020693983"><ele>-2.0</ele><time>2026-04-09T11:21:03Z</time></trkpt><trkpt lat="36.833350082361534" lon="10.298170534427452"><ele>-1.6666666666666665</ele><time>2026-04-09T11:21:04Z</time></trkpt><trkpt lat="36.83351987154885" lon="10.29801041008711"><ele>-1.3333333333333333</ele><time>2026-04-09T11:21:05Z</time></trkpt><trkpt lat="36.83369583885932" lon="10.297857497928742"><ele>-1.0</ele><time>2026-04-09T11:21:06Z</time></trkpt><trkpt lat="36.83387709438283" lon="10.297714708472403"><ele>-1.0</ele><time>2026-04-09T11:21:07Z</time></trkpt><trkpt lat="36.83406508554834" lon="10.297579940329907"><ele>-1.0</ele><time>2026-04-09T11:21:08Z</time></trkpt><trkpt lat="36.834255635015126" lon="10.29745794753198"><ele>-1.0</ele><time>2026-04-09T11:21:09Z</time></trkpt><trkpt lat="36.83445161669287" lon="10.29735047226478"><ele>-1.0</ele><time>2026-04-09T11:21:10Z</time></trkpt><trkpt lat="36.834647463148336" lon="10.2972580850096"><ele>-1.0</ele><time>2026-04-09T11:21:11Z</time></trkpt><trkpt lat="36.83484083144356" lon="10.297180184631848"><ele>-1.0</ele><time>2026-04-09T11:21:12Z</time></trkpt><trkpt lat="36.8350326616944" lon="10.297111444780324"><ele>-1.3333333333333333</ele><time>2026-04-09T11:21:13Z</time></trkpt><trkpt lat="36.835226815448785" lon="10.297052159776033"><ele>-1.6666666666666665</ele><time>2026-04-09T11:21:14Z</time></trkpt><trkpt lat="36.8354144689388" lon="10.297000299087783"><ele>-2.0</ele><time>2026-04-09T11:21:15Z</time></trkpt><trkpt lat="36.835592232438465" lon="10.296949049367353"><ele>-2.0</ele><time>2026-04-09T11:21:16Z</time></trkpt><trkpt lat="36.83576473206544" lon="10.296897152106759"><ele>-2.0</ele><time>2026-04-09T11:21:17Z</time></trkpt><trkpt lat="36.83594044130428" lon="10.296845198011342"><ele>-2.0</ele><time>2026-04-09T11:21:18Z</time></trkpt><trkpt lat="36.836109836700054" lon="10.296795315114332"><ele>-1.6666666666666665</ele><time>2026-04-09T11:21:19Z</time></trkpt><trkpt lat="36.83627391684832" lon="10.296742682650326"><ele>-1.3333333333333333</ele><time>2026-04-09T11:21:20Z</time></trkpt><trkpt lat="36.83642978766539" lon="10.296690410867152"><ele>-1.0</ele><time>2026-04-09T11:21:21Z</time></trkpt><trkpt lat="36.8365864201512" lon="10.296639469005406"><ele>-1.0</ele><time>2026-04-09T11:21:22Z</time></trkpt><trkpt lat="36.836741491305304" lon="10.29659134376166"><ele>-1.0</ele><time>2026-04-09T11:21:23Z</time></trkpt><trkpt lat="36.836896710944906" lon="10.29654458361065"><ele>-1.0</ele><time>2026-04-09T11:21:24Z</time></trkpt><trkpt lat="36.83705047704449" lon="10.296500824879777"><ele>-1.3333333333333333</ele><time>2026-04-09T11:21:25Z</time></trkpt><trkpt lat="36.83720535199412" lon="10.296459743852171"><ele>-1.6666666666666665</ele><time>2026-04-09T11:21:26Z</time></trkpt><trkpt lat="36.83736710372636" lon="10.296423980412031"><ele>-2.0</ele><time>2026-04-09T11:21:27Z</time></trkpt><trkpt lat="36.83753371456748" lon="10.296391222018144"><ele>-2.333333333333333</ele><time>2026-04-09T11:21:28Z</time></trkpt><trkpt lat="36.83769754485306" lon="10.29636264407209"><ele>-2.6666666666666665</ele><time>2026-04-09T11:21:29Z</time></trkpt><trkpt lat="36.83785134152159" lon="10.296338810964588"><ele>-3.0</ele><time>2026-04-09T11:21:30Z</time></trkpt><trkpt lat="36.83799865389794" lon="10.296321131522962"><ele>-3.0</ele><time>2026-04-09T11:21:31Z</time></trkpt><trkpt lat="36.8381351961945" lon="10.29631062004254"><ele>-3.0</ele><time>2026-04-09T11:21:32Z</time></trkpt><trkpt lat="36.83825799869011" lon="10.296301656342315"><ele>-3.0</ele><time>2026-04-09T11:21:33Z</time></trkpt><trkpt lat="36.838373405411126" lon="10.296295811756405"><ele>-3.0</ele><time>2026-04-09T11:21:34Z</time></trkpt><trkpt lat="36.83848562800787" lon="10.296297031951093"><ele>-2.8</ele><time>2026-04-09T11:21:35Z</time></trkpt><trkpt lat="36.8385943937166" lon="10.296299742385317"><ele>-2.5999999999999996</ele><time>2026-04-09T11:21:36Z</time></trkpt><trkpt lat="36.838693167683374" lon="10.296300531376124"><ele>-2.4000000000000004</ele><time>2026-04-09T11:21:37Z</time></trkpt><trkpt lat="36.83878417520573" lon="10.29630171575093"><ele>-2.2</ele><time>2026-04-09T11:21:38Z</time></trkpt><trkpt lat="36.83887124651711" lon="10.296303540599594"><ele>-2.0</ele><time>2026-04-09T11:21:39Z</time></trkpt><trkpt lat="36.838954019945206" lon="10.296308613496016"><ele>-1.9999999999999998</ele><time>2026-04-09T11:21:40Z</time></trkpt><trkpt lat="36.83903177235194" lon="10.296312271819634"><ele>-2.0</ele><time>2026-04-09T11:21:41Z</time></trkpt><trkpt lat="36.83910229489209" lon="10.296319491040796"><ele>-2.0</ele><time>2026-04-09T11:21:42Z</time></trkpt><trkpt lat="36.83920729100982" lon="10.29634748897799"><ele>-2.0</ele><time>2026-04-09T11:21:44Z</time></trkpt><trkpt lat="36.839288389996355" lon="10.296369020217984"><ele>-1.9999999999999998</ele><time>2026-04-09T11:21:46Z</time></trkpt><trkpt lat="36.83937013643495" lon="10.296384261841204"><ele>-2.0</ele><time>2026-04-09T11:21:48Z</time></trkpt><trkpt lat="36.83946543598403" lon="10.296417942956479"><ele>-1.4000000000000001</ele><time>2026-04-09T11:21:50Z</time></trkpt><trkpt lat="36.839562082099256" lon="10.296455210992054"><ele>-0.8000000000000002</ele><time>2026-04-09T11:21:52Z</time></trkpt><trkpt lat="36.839659986950444" lon="10.29650771710534"><ele>-0.19999999999999996</ele><time>2026-04-09T11:21:53.999Z</time></trkpt><trkpt lat="36.8397604362769" lon="10.296531403221982"><ele>0.4</ele><time>2026-04-09T11:21:55.999Z</time></trkpt><trkpt lat="36.839866076040046" lon="10.296528734171563"><ele>1.0</ele><time>2026-04-09T11:21:58Z</time></trkpt><trkpt lat="36.839932455867334" lon="10.296521407487647"><ele>1.0</ele><time>2026-04-09T11:21:59Z</time></trkpt><trkpt lat="36.84000611276722" lon="10.296515842073626"><ele>1.0</ele><time>2026-04-09T11:22:00Z</time></trkpt><trkpt lat="36.84008881070039" lon="10.296517298348386"><ele>1.0</ele><time>2026-04-09T11:22:01Z</time></trkpt><trkpt lat="36.8401856151585" lon="10.296528188198595"><ele>1.0</ele><time>2026-04-09T11:22:02Z</time></trkpt><trkpt lat="36.84029009047024" lon="10.296555095999825"><ele>1.0</ele><time>2026-04-09T11:22:03Z</time></trkpt><trkpt lat="36.84039392793307" lon="10.296587278715634"><ele>1.0</ele><time>2026-04-09T11:22:04Z</time></trkpt><trkpt lat="36.84050003386414" lon="10.296625241191867"><ele>1.0</ele><time>2026-04-09T11:22:05Z</time></trkpt><trkpt lat="36.840610606854675" lon="10.296669093296869"><ele>1.0</ele><time>2026-04-09T11:22:06Z</time></trkpt><trkpt lat="36.84072487500816" lon="10.296716271921062"><ele>1.0</ele><time>2026-04-09T11:22:07Z</time></trkpt><trkpt lat="36.840837900488424" lon="10.296768003892607"><ele>1.0</ele><time>2026-04-09T11:22:08Z</time></trkpt><trkpt lat="36.84095105983412" lon="10.29682938385275"><ele>1.0</ele><time>2026-04-09T11:22:09Z</time></trkpt><trkpt lat="36.841064895509135" lon="10.296894610727707"><ele>1.0</ele><time>2026-04-09T11:22:10Z</time></trkpt><trkpt lat="36.841180174968805" lon="10.296961673702237"><ele>1.0</ele><time>2026-04-09T11:22:11Z</time></trkpt><trkpt lat="36.8412974678786" lon="10.297035153550766"><ele>1.0</ele><time>2026-04-09T11:22:12Z</time></trkpt><trkpt lat="36.84141891188225" lon="10.297114851107656"><ele>1.0</ele><time>2026-04-09T11:22:13Z</time></trkpt><trkpt lat="36.84154159130521" lon="10.297204837406982"><ele>1.0</ele><time>2026-04-09T11:22:14Z</time></trkpt><trkpt lat="36.84166325891537" lon="10.29730217592816"><ele>1.0</ele><time>2026-04-09T11:22:15Z</time></trkpt><trkpt lat="36.841782692524006" lon="10.297405528811709"><ele>1.6666666666666665</ele><time>2026-04-09T11:22:16Z</time></trkpt><trkpt lat="36.841899961751096" lon="10.297513852056014"><ele>2.3333333333333335</ele><time>2026-04-09T11:22:17Z</time></trkpt><trkpt lat="36.84201573065034" lon="10.297632249665782"><ele>3.0</ele><time>2026-04-09T11:22:18Z</time></trkpt><trkpt lat="36.84213454382972" lon="10.29775915984675"><ele>3.0</ele><time>2026-04-09T11:22:19Z</time></trkpt><trkpt lat="36.84225860574188" lon="10.297895220246252"><ele>3.0</ele><time>2026-04-09T11:22:20Z</time></trkpt><trkpt lat="36.8423858358338" lon="10.298040198084548"><ele>3.0</ele><time>2026-04-09T11:22:21Z</time></trkpt><trkpt lat="36.84250763496283" lon="10.298198845342194"><ele>4.0</ele><time>2026-04-09T11:22:22Z</time></trkpt><trkpt lat="36.84262420857218" lon="10.298358013271264"><ele>5.0</ele><time>2026-04-09T11:22:23Z</time></trkpt><trkpt lat="36.84273923691457" lon="10.298512340415677"><ele>6.0</ele><time>2026-04-09T11:22:24Z</time></trkpt><trkpt lat="36.842853819266544" lon="10.298662702526894"><ele>6.333333333333334</ele><time>2026-04-09T11:22:25Z</time></trkpt><trkpt lat="36.84297210952815" lon="10.298812726416967"><ele>6.666666666666667</ele><time>2026-04-09T11:22:26Z</time></trkpt><trkpt lat="36.843090876687384" lon="10.298963158148668"><ele>7.0</ele><time>2026-04-09T11:22:27Z</time></trkpt><trkpt lat="36.84321145616188" lon="10.299118794570719"><ele>7.666666666666667</ele><time>2026-04-09T11:22:28Z</time></trkpt><trkpt lat="36.843330646959615" lon="10.299276666886312"><ele>8.333333333333334</ele><time>2026-04-09T11:22:29Z</time></trkpt><trkpt lat="36.843452029986416" lon="10.299433248246972"><ele>9.0</ele><time>2026-04-09T11:22:30Z</time></trkpt><trkpt lat="36.843573408944636" lon="10.299589189773183"><ele>9.666666666666666</ele><time>2026-04-09T11:22:31Z</time></trkpt><trkpt lat="36.84369235411333" lon="10.299741314301064"><ele>10.333333333333332</ele><time>2026-04-09T11:22:32Z</time></trkpt><trkpt lat="36.84381427949744" lon="10.299896654112208"><ele>11.0</ele><time>2026-04-09T11:22:33Z</time></trkpt><trkpt lat="36.84393159393168" lon="10.300046751558744"><ele>9.0</ele><time>2026-04-09T11:22:34Z</time></trkpt><trkpt lat="36.84405373003318" lon="10.30020099129369"><ele>7.0</ele><time>2026-04-09T11:22:35Z</time></trkpt><trkpt lat="36.84417836805425" lon="10.300346359867268"><ele>5.0</ele><time>2026-04-09T11:22:36Z</time></trkpt><trkpt lat="36.84430668498792" lon="10.300488725873594"><ele>3.666666666666667</ele><time>2026-04-09T11:22:37Z</time></trkpt><trkpt lat="36.84443662669801" lon="10.30063176148166"><ele>2.3333333333333335</ele><time>2026-04-09T11:22:38Z</time></trkpt><trkpt lat="36.84456446494593" lon="10.300771631531054"><ele>1.0</ele><time>2026-04-09T11:22:39Z</time></trkpt><trkpt lat="36.84469315209315" lon="10.300906858158442"><ele>1.0</ele><time>2026-04-09T11:22:40Z</time></trkpt><trkpt lat="36.84482419012622" lon="10.3010418910202"><ele>1.0</ele><time>2026-04-09T11:22:41Z</time></trkpt><trkpt lat="36.8449563930411" lon="10.3011773452879"><ele>1.0</ele><time>2026-04-09T11:22:42Z</time></trkpt><trkpt lat="36.84508866142719" lon="10.30130888041777"><ele>1.3333333333333333</ele><time>2026-04-09T11:22:43Z</time></trkpt><trkpt lat="36.845222569666504" lon="10.301436638242187"><ele>1.6666666666666665</ele><time>2026-04-09T11:22:44Z</time></trkpt><trkpt lat="36.845360643497955" lon="10.301560799324468"><ele>2.0</ele><time>2026-04-09T11:22:45Z</time></trkpt><trkpt lat="36.84550097379904" lon="10.30168843712729"><ele>2.0</ele><time>2026-04-09T11:22:46Z</time></trkpt><trkpt lat="36.84564386761112" lon="10.30181472642359"><ele>2.0</ele><time>2026-04-09T11:22:47Z</time></trkpt><trkpt lat="36.84579131542756" lon="10.301941031153408"><ele>2.0</ele><time>2026-04-09T11:22:48Z</time></trkpt><trkpt lat="36.845944647090796" lon="10.302067511745038"><ele>1.6666666666666665</ele><time>2026-04-09T11:22:49Z</time></trkpt><trkpt lat="36.84609621759654" lon="10.302190983730394"><ele>1.3333333333333333</ele><time>2026-04-09T11:22:50Z</time></trkpt><trkpt lat="36.846252678018125" lon="10.302316453418143"><ele>1.0</ele><time>2026-04-09T11:22:51Z</time></trkpt><trkpt lat="36.84640819112048" lon="10.302436637171244"><ele>1.0</ele><time>2026-04-09T11:22:52Z</time></trkpt><trkpt lat="36.84656420804535" lon="10.302552062270488"><ele>1.0</ele><time>2026-04-09T11:22:53Z</time></trkpt><trkpt lat="36.84671932097747" lon="10.302668501616955"><ele>1.0</ele><time>2026-04-09T11:22:54Z</time></trkpt><trkpt lat="36.84687412887562" lon="10.302784191286719"><ele>1.3333333333333333</ele><time>2026-04-09T11:22:55Z</time></trkpt><trkpt lat="36.84703156620229" lon="10.302903157861122"><ele>1.6666666666666665</ele><time>2026-04-09T11:22:56Z</time></trkpt><trkpt lat="36.84718581261574" lon="10.303020106225794"><ele>2.0</ele><time>2026-04-09T11:22:57Z</time></trkpt><trkpt lat="36.84734289469374" lon="10.303141837672351"><ele>2.333333333333333</ele><time>2026-04-09T11:22:58Z</time></trkpt><trkpt lat="36.84749914776735" lon="10.30326233028827"><ele>2.6666666666666665</ele><time>2026-04-09T11:22:59Z</time></trkpt><trkpt lat="36.84765575511962" lon="10.303382757383112"><ele>3.0</ele><time>2026-04-09T11:23:00Z</time></trkpt><trkpt lat="36.84781518635317" lon="10.303499833385162"><ele>3.0</ele><time>2026-04-09T11:23:01Z</time></trkpt><trkpt lat="36.84797595909581" lon="10.303617577738523"><ele>3.0</ele><time>2026-04-09T11:23:02Z</time></trkpt><trkpt lat="36.84814138429704" lon="10.303740168650203"><ele>3.0</ele><time>2026-04-09T11:23:03Z</time></trkpt><trkpt lat="36.84831383422862" lon="10.303872283365658"><ele>3.333333333333333</ele><time>2026-04-09T11:23:04Z</time></trkpt><trkpt lat="36.84848834782586" lon="10.304003353616045"><ele>3.6666666666666665</ele><time>2026-04-09T11:23:05Z</time></trkpt><trkpt lat="36.848662294310955" lon="10.304133635540083"><ele>4.0</ele><time>2026-04-09T11:23:06Z</time></trkpt><trkpt lat="36.84883347964927" lon="10.304260430307"><ele>4.0</ele><time>2026-04-09T11:23:07Z</time></trkpt><trkpt lat="36.84900269861635" lon="10.30438977019305"><ele>4.0</ele><time>2026-04-09T11:23:08Z</time></trkpt><trkpt lat="36.849174191165226" lon="10.304525292426488"><ele>4.0</ele><time>2026-04-09T11:23:09Z</time></trkpt><trkpt lat="36.84934305830484" lon="10.30465880835778"><ele>3.6666666666666665</ele><time>2026-04-09T11:23:10Z</time></trkpt><trkpt lat="36.849513062675975" lon="10.30478862913342"><ele>3.333333333333333</ele><time>2026-04-09T11:23:11Z</time></trkpt><trkpt lat="36.84968091055772" lon="10.304917731767004"><ele>3.0</ele><time>2026-04-09T11:23:12Z</time></trkpt><trkpt lat="36.849844531261525" lon="10.30504654889045"><ele>3.0</ele><time>2026-04-09T11:23:13Z</time></trkpt><trkpt lat="36.85000959377124" lon="10.305176148203852"><ele>3.0</ele><time>2026-04-09T11:23:14Z</time></trkpt><trkpt lat="36.85017153141328" lon="10.305305423000904"><ele>3.0</ele><time>2026-04-09T11:23:15Z</time></trkpt><trkpt lat="36.8503230187674" lon="10.305425192835337"><ele>2.6666666666666665</ele><time>2026-04-09T11:23:16Z</time></trkpt><trkpt lat="36.850469183966894" lon="10.305542310381448"><ele>2.333333333333333</ele><time>2026-04-09T11:23:17Z</time></trkpt><trkpt lat="36.850607075025124" lon="10.305653431702792"><ele>2.0</ele><time>2026-04-09T11:23:18Z</time></trkpt><trkpt lat="36.85074411070652" lon="10.30576280474074"><ele>1.6666666666666665</ele><time>2026-04-09T11:23:19Z</time></trkpt><trkpt lat="36.85087934692277" lon="10.305867989130151"><ele>1.3333333333333333</ele><time>2026-04-09T11:23:20Z</time></trkpt><trkpt lat="36.851012684080594" lon="10.305975734397762"><ele>1.0</ele><time>2026-04-09T11:23:21Z</time></trkpt><trkpt lat="36.851141115477326" lon="10.306084227242524"><ele>1.6666666666666665</ele><time>2026-04-09T11:23:22Z</time></trkpt><trkpt lat="36.85126840042724" lon="10.306191963116763"><ele>2.3333333333333335</ele><time>2026-04-09T11:23:23Z</time></trkpt><trkpt lat="36.851399036802405" lon="10.306297204312076"><ele>3.0</ele><time>2026-04-09T11:23:24Z</time></trkpt><trkpt lat="36.8515314508803" lon="10.306405354311064"><ele>2.6666666666666665</ele><time>2026-04-09T11:23:25Z</time></trkpt><trkpt lat="36.851668294434674" lon="10.306516941944398"><ele>2.333333333333333</ele><time>2026-04-09T11:23:26Z</time></trkpt><trkpt lat="36.85181577040309" lon="10.306634320610119"><ele>2.0</ele><time>2026-04-09T11:23:27Z</time></trkpt><trkpt lat="36.851969612916896" lon="10.306757803662405"><ele>2.0</ele><time>2026-04-09T11:23:28Z</time></trkpt><trkpt lat="36.85212075058397" lon="10.306884817816572"><ele>2.0</ele><time>2026-04-09T11:23:29Z</time></trkpt><trkpt lat="36.85227383207875" lon="10.307014677631845"><ele>2.0</ele><time>2026-04-09T11:23:30Z</time></trkpt><trkpt lat="36.85242814300149" lon="10.30714681107467"><ele>2.0</ele><time>2026-04-09T11:23:31Z</time></trkpt><trkpt lat="36.85258607661761" lon="10.307282339796581"><ele>2.0</ele><time>2026-04-09T11:23:32Z</time></trkpt><trkpt lat="36.85274423512057" lon="10.307417417501464"><ele>2.0</ele><time>2026-04-09T11:23:33Z</time></trkpt><trkpt lat="36.852901395220854" lon="10.307549689120345"><ele>2.333333333333333</ele><time>2026-04-09T11:23:34Z</time></trkpt><trkpt lat="36.85306043593513" lon="10.307683419143256"><ele>2.6666666666666665</ele><time>2026-04-09T11:23:35Z</time></trkpt><trkpt lat="36.85322007376868" lon="10.307819997902024"><ele>3.0</ele><time>2026-04-09T11:23:36Z</time></trkpt><trkpt lat="36.85337412183027" lon="10.307956348726343"><ele>3.0</ele><time>2026-04-09T11:23:37Z</time></trkpt><trkpt lat="36.853531482790274" lon="10.308095100830021"><ele>3.0</ele><time>2026-04-09T11:23:38Z</time></trkpt><trkpt lat="36.853688890570425" lon="10.308232575056493"><ele>3.0</ele><time>2026-04-09T11:23:39Z</time></trkpt><trkpt lat="36.853843073185175" lon="10.308369302567185"><ele>3.0</ele><time>2026-04-09T11:23:40Z</time></trkpt><trkpt lat="36.853997257565126" lon="10.308508930673712"><ele>3.0</ele><time>2026-04-09T11:23:41Z</time></trkpt><trkpt lat="36.85414761849706" lon="10.308643335455828"><ele>3.0</ele><time>2026-04-09T11:23:42Z</time></trkpt><trkpt lat="36.85429704076709" lon="10.308774863805123"><ele>3.666666666666667</ele><time>2026-04-09T11:23:43Z</time></trkpt><trkpt lat="36.85444386447775" lon="10.30890572210164"><ele>4.333333333333334</ele><time>2026-04-09T11:23:44Z</time></trkpt><trkpt lat="36.85458958415649" lon="10.309037530941888"><ele>5.0</ele><time>2026-04-09T11:23:45Z</time></trkpt><trkpt lat="36.85472612931093" lon="10.30916346231237"><ele>5.0</ele><time>2026-04-09T11:23:46Z</time></trkpt><trkpt lat="36.85485869590857" lon="10.309280815593883"><ele>5.0</ele><time>2026-04-09T11:23:47Z</time></trkpt><trkpt lat="36.854985697055305" lon="10.30939256559327"><ele>5.0</ele><time>2026-04-09T11:23:48Z</time></trkpt><trkpt lat="36.85510601503581" lon="10.309502918924295"><ele>4.75</ele><time>2026-04-09T11:23:49Z</time></trkpt><trkpt lat="36.855218787226654" lon="10.3096084459831"><ele>4.5</ele><time>2026-04-09T11:23:50Z</time></trkpt><trkpt lat="36.85532669348155" lon="10.309709042762096"><ele>4.25</ele><time>2026-04-09T11:23:51Z</time></trkpt><trkpt lat="36.8554304112265" lon="10.309806679932677"><ele>4.0</ele><time>2026-04-09T11:23:52Z</time></trkpt><trkpt lat="36.85552847594504" lon="10.309897263015474"><ele>4.0</ele><time>2026-04-09T11:23:53Z</time></trkpt><trkpt lat="36.855622966794776" lon="10.309984742945339"><ele>4.0</ele><time>2026-04-09T11:23:54Z</time></trkpt><trkpt lat="36.8557140819166" lon="10.310069365126182"><ele>4.0</ele><time>2026-04-09T11:23:55Z</time></trkpt><trkpt lat="36.855801713711735" lon="10.310152681413703"><ele>4.0</ele><time>2026-04-09T11:23:56Z</time></trkpt><trkpt lat="36.85588253297357" lon="10.310228334900897"><ele>4.0</ele><time>2026-04-09T11:23:57Z</time></trkpt><trkpt lat="36.85595861046116" lon="10.310301528814472"><ele>4.0</ele><time>2026-04-09T11:23:58Z</time></trkpt><trkpt lat="36.856031343900675" lon="10.310370727915073"><ele>4.0</ele><time>2026-04-09T11:23:59Z</time></trkpt><trkpt lat="36.856101541208346" lon="10.310435883900936"><ele>4.0</ele><time>2026-04-09T11:24:00Z</time></trkpt><trkpt lat="36.856174154286336" lon="10.310504380117088"><ele>4.0</ele><time>2026-04-09T11:24:01Z</time></trkpt><trkpt lat="36.856247233078356" lon="10.310577573078419"><ele>4.0</ele><time>2026-04-09T11:24:02Z</time></trkpt><trkpt lat="36.85631872649001" lon="10.310652473867565"><ele>4.2</ele><time>2026-04-09T11:24:03Z</time></trkpt><trkpt lat="36.85638142572186" lon="10.310726387997681"><ele>4.4</ele><time>2026-04-09T11:24:04Z</time></trkpt><trkpt lat="36.85642952043969" lon="10.310788579355666"><ele>4.6</ele><time>2026-04-09T11:24:05Z</time></trkpt><trkpt lat="36.85649190250974" lon="10.310864904741141"><ele>4.8</ele><time>2026-04-09T11:24:07Z</time></trkpt><trkpt lat="36.85655528778068" lon="10.310941074267113"><ele>5.0</ele><time>2026-04-09T11:24:09Z</time></trkpt><trkpt lat="36.85666847228925" lon="10.311029758679096"><ele>5.0</ele><time>2026-04-09T11:24:11Z</time></trkpt><trkpt lat="36.85674453670888" lon="10.311081773247507"><ele>5.0</ele><time>2026-04-09T11:24:12Z</time></trkpt><trkpt lat="36.85682992653419" lon="10.311149209808914"><ele>5.0</ele><time>2026-04-09T11:24:13Z</time></trkpt><trkpt lat="36.85692789550257" lon="10.311232849923782"><ele>5.0</ele><time>2026-04-09T11:24:14Z</time></trkpt><trkpt lat="36.85703969267685" lon="10.311333049438796"><ele>5.0</ele><time>2026-04-09T11:24:15Z</time></trkpt><trkpt lat="36.857165934848446" lon="10.311450911658856"><ele>4.333333333333334</ele><time>2026-04-09T11:24:16Z</time></trkpt><trkpt lat="36.857293967875876" lon="10.31158069986536"><ele>3.666666666666667</ele><time>2026-04-09T11:24:17Z</time></trkpt><trkpt lat="36.857422510211634" lon="10.3117154199627"><ele>3.0</ele><time>2026-04-09T11:24:18Z</time></trkpt><trkpt lat="36.857554167819835" lon="10.311851611091255"><ele>4.0</ele><time>2026-04-09T11:24:19Z</time></trkpt><trkpt lat="36.857677395804146" lon="10.31197594535003"><ele>5.0</ele><time>2026-04-09T11:24:20Z</time></trkpt><trkpt lat="36.85779193200936" lon="10.312091152825325"><ele>6.0</ele><time>2026-04-09T11:24:21Z</time></trkpt><trkpt lat="36.857896757935144" lon="10.312196085268242"><ele>7.0</ele><time>2026-04-09T11:24:22Z</time></trkpt><trkpt lat="36.85798331583098" lon="10.312288866141758"><ele>7.166666666666667</ele><time>2026-04-09T11:24:23Z</time></trkpt><trkpt lat="36.858049826928195" lon="10.312363627751965"><ele>7.333333333333334</ele><time>2026-04-09T11:24:24Z</time></trkpt><trkpt lat="36.85810700632508" lon="10.312428115632864"><ele>7.5</ele><time>2026-04-09T11:24:25Z</time></trkpt><trkpt lat="36.85815969603785" lon="10.312480425676478"><ele>7.666666666666666</ele><time>2026-04-09T11:24:26Z</time></trkpt><trkpt lat="36.85824537786478" lon="10.312575647030776"><ele>7.833333333333333</ele><time>2026-04-09T11:24:28Z</time></trkpt><trkpt lat="36.85828451229933" lon="10.31264068829117"><ele>8.0</ele><time>2026-04-09T11:24:29Z</time></trkpt><trkpt lat="36.85832083207009" lon="10.312710113063359"><ele>8.0</ele><time>2026-04-09T11:24:30Z</time></trkpt><trkpt lat="36.85836919593281" lon="10.312831693101163"><ele>8.0</ele><time>2026-04-09T11:24:32Z</time></trkpt><trkpt lat="36.858403262155505" lon="10.312949758518206"><ele>8.0</ele><time>2026-04-09T11:24:34Z</time></trkpt><trkpt lat="36.85843168069765" lon="10.313080783506987"><ele>8.0</ele><time>2026-04-09T11:24:36Z</time></trkpt><trkpt lat="36.85844095343551" lon="10.313226844644667"><ele>8.0</ele><time>2026-04-09T11:24:38Z</time></trkpt><trkpt lat="36.858431705203195" lon="10.313305577842668"><ele>8.428571428571429</ele><time>2026-04-09T11:24:39Z</time></trkpt><trkpt lat="36.85841164465987" lon="10.313385178634933"><ele>8.857142857142856</ele><time>2026-04-09T11:24:40Z</time></trkpt><trkpt lat="36.85838368612574" lon="10.313463062500752"><ele>9.285714285714285</ele><time>2026-04-09T11:24:41Z</time></trkpt><trkpt lat="36.858353781359064" lon="10.31354091408295"><ele>9.714285714285714</ele><time>2026-04-09T11:24:42Z</time></trkpt><trkpt lat="36.85832196852466" lon="10.31361633513638"><ele>10.142857142857142</ele><time>2026-04-09T11:24:43Z</time></trkpt><trkpt lat="36.85828701670751" lon="10.31369163229514"><ele>10.571428571428571</ele><time>2026-04-09T11:24:44Z</time></trkpt><trkpt lat="36.858253848274714" lon="10.313759424832755"><ele>11.0</ele><time>2026-04-09T11:24:45Z</time></trkpt><trkpt lat="36.858197138148014" lon="10.313892107956692"><ele>11.0</ele><time>2026-04-09T11:24:47Z</time></trkpt><trkpt lat="36.85813229474747" lon="10.314028255785908"><ele>11.0</ele><time>2026-04-09T11:24:49Z</time></trkpt><trkpt lat="36.85809505632935" lon="10.314096271733817"><ele>11.0</ele><time>2026-04-09T11:24:50Z</time></trkpt><trkpt lat="36.85806224688208" lon="10.314172988054494"><ele>11.0</ele><time>2026-04-09T11:24:51Z</time></trkpt><trkpt lat="36.85802595374465" lon="10.314257095067747"><ele>11.0</ele><time>2026-04-09T11:24:52Z</time></trkpt><trkpt lat="36.85798211726761" lon="10.314347222904548"><ele>11.0</ele><time>2026-04-09T11:24:53Z</time></trkpt><trkpt lat="36.857932671906276" lon="10.314443331960307"><ele>11.0</ele><time>2026-04-09T11:24:54Z</time></trkpt><trkpt lat="36.85788102147938" lon="10.314545538785158"><ele>11.0</ele><time>2026-04-09T11:24:55Z</time></trkpt><trkpt lat="36.85782704525052" lon="10.314651951936407"><ele>11.0</ele><time>2026-04-09T11:24:56Z</time></trkpt><trkpt lat="36.85777487239613" lon="10.314756293217693"><ele>11.0</ele><time>2026-04-09T11:24:57Z</time></trkpt><trkpt lat="36.85772042951474" lon="10.314858284274662"><ele>11.0</ele><time>2026-04-09T11:24:58Z</time></trkpt><trkpt lat="36.85766538914592" lon="10.314959159804877"><ele>11.4</ele><time>2026-04-09T11:24:59Z</time></trkpt><trkpt lat="36.85761391451243" lon="10.315058864516285"><ele>11.8</ele><time>2026-04-09T11:25:00Z</time></trkpt><trkpt lat="36.85755969480448" lon="10.315161882122185"><ele>12.200000000000001</ele><time>2026-04-09T11:25:01Z</time></trkpt><trkpt lat="36.857506198215056" lon="10.315263914109817"><ele>12.600000000000001</ele><time>2026-04-09T11:25:02Z</time></trkpt><trkpt lat="36.85745257620128" lon="10.315364549333477"><ele>13.0</ele><time>2026-04-09T11:25:03Z</time></trkpt><trkpt lat="36.857409342967046" lon="10.315444522054657"><ele>13.0</ele><time>2026-04-09T11:25:04Z</time></trkpt><trkpt lat="36.8573714474529" lon="10.315509439597724"><ele>13.0</ele><time>2026-04-09T11:25:05Z</time></trkpt><trkpt lat="36.85730189047178" lon="10.315632831712396"><ele>13.0</ele><time>2026-04-09T11:25:07Z</time></trkpt><trkpt lat="36.85723148096428" lon="10.315781167736652"><ele>13.0</ele><time>2026-04-09T11:25:09Z</time></trkpt><trkpt lat="36.85718152639877" lon="10.315882420029212"><ele>13.0</ele><time>2026-04-09T11:25:10Z</time></trkpt><trkpt lat="36.857126226431305" lon="10.31599093533313"><ele>13.25</ele><time>2026-04-09T11:25:11Z</time></trkpt><trkpt lat="36.85706314395046" lon="10.316117626249378"><ele>13.5</ele><time>2026-04-09T11:25:12Z</time></trkpt><trkpt lat="36.856993738052914" lon="10.316252443507349"><ele>13.75</ele><time>2026-04-09T11:25:13Z</time></trkpt><trkpt lat="36.85692447360367" lon="10.316392193259798"><ele>14.0</ele><time>2026-04-09T11:25:14Z</time></trkpt><trkpt lat="36.85685482049957" lon="10.316537589693946"><ele>14.5</ele><time>2026-04-09T11:25:15Z</time></trkpt><trkpt lat="36.856784001523145" lon="10.31669410769314"><ele>15.0</ele><time>2026-04-09T11:25:16Z</time></trkpt><trkpt lat="36.85671886359408" lon="10.31685163735623"><ele>15.5</ele><time>2026-04-09T11:25:17Z</time></trkpt><trkpt lat="36.85666597523844" lon="10.316998016040042"><ele>16.0</ele><time>2026-04-09T11:25:18Z</time></trkpt><trkpt lat="36.85661714557169" lon="10.31713457436053"><ele>16.8</ele><time>2026-04-09T11:25:19Z</time></trkpt><trkpt lat="36.85657619123635" lon="10.31726194647087"><ele>17.6</ele><time>2026-04-09T11:25:20Z</time></trkpt><trkpt lat="36.856541236681856" lon="10.317377638294502"><ele>18.4</ele><time>2026-04-09T11:25:21Z</time></trkpt><trkpt lat="36.85651407619588" lon="10.31748715550839"><ele>19.2</ele><time>2026-04-09T11:25:22Z</time></trkpt><trkpt lat="36.856489693093124" lon="10.317591396058635"><ele>20.0</ele><time>2026-04-09T11:25:23Z</time></trkpt><trkpt lat="36.85646967360522" lon="10.317687885278518"><ele>20.0</ele><time>2026-04-09T11:25:24Z</time></trkpt><trkpt lat="36.85645330201154" lon="10.317776064658513"><ele>20.0</ele><time>2026-04-09T11:25:25Z</time></trkpt><trkpt lat="36.85643244067275" lon="10.317891108610482"><ele>20.0</ele><time>2026-04-09T11:25:27Z</time></trkpt><trkpt lat="36.856419505916854" lon="10.31798464971302"><ele>20.0</ele><time>2026-04-09T11:25:29Z</time></trkpt><trkpt lat="36.856410042465264" lon="10.318095493143785"><ele>20.0</ele><time>2026-04-09T11:25:31Z</time></trkpt><trkpt lat="36.85640851531611" lon="10.318190715931062"><ele>20.0</ele><time>2026-04-09T11:25:33Z</time></trkpt><trkpt lat="36.85640685122407" lon="10.318302340269884"><ele>20.166666666666668</ele><time>2026-04-09T11:25:35Z</time></trkpt><trkpt lat="36.85640026557302" lon="10.318403990646544"><ele>20.333333333333336</ele><time>2026-04-09T11:25:37Z</time></trkpt><trkpt lat="36.85639899002287" lon="10.318483954042984"><ele>20.5</ele><time>2026-04-09T11:25:39Z</time></trkpt><trkpt lat="36.856392117591035" lon="10.318562620947462"><ele>20.666666666666668</ele><time>2026-04-09T11:25:42Z</time></trkpt><trkpt lat="36.856388140011916" lon="10.318669745942826"><ele>20.833333333333332</ele><time>2026-04-09T11:25:52Z</time></trkpt><trkpt lat="36.85638829167295" lon="10.318784470274355"><ele>21.0</ele><time>2026-04-09T11:25:54Z</time></trkpt><trkpt lat="36.85637568253879" lon="10.318954794691596"><ele>21.0</ele><time>2026-04-09T11:25:56Z</time></trkpt><trkpt lat="36.85634783397783" lon="10.319036682858739"><ele>21.0</ele><time>2026-04-09T11:25:57Z</time></trkpt><trkpt lat="36.85630475099035" lon="10.31915160664355"><ele>21.0</ele><time>2026-04-09T11:25:59Z</time></trkpt><trkpt lat="36.856269185771545" lon="10.319226210607129"><ele>21.0</ele><time>2026-04-09T11:26:01Z</time></trkpt><trkpt lat="36.85623239312167" lon="10.31929209279048"><ele>21.0</ele><time>2026-04-09T11:26:03Z</time></trkpt><trkpt lat="36.85619046018704" lon="10.319367314157892"><ele>21.0</ele><time>2026-04-09T11:26:06Z</time></trkpt><trkpt lat="36.8561596546303" lon="10.319459671671158"><ele>21.0</ele><time>2026-04-09T11:27:06Z</time></trkpt><trkpt lat="36.85615144126068" lon="10.319558712953198"><ele>21.0</ele><time>2026-04-09T11:27:10Z</time></trkpt><trkpt lat="36.85619348729481" lon="10.319634250697472"><ele>21.0</ele><time>2026-04-09T11:27:14Z</time></trkpt><trkpt lat="36.85624086729775" lon="10.319708509899847"><ele>21.0</ele><time>2026-04-09T11:27:17Z</time></trkpt><trkpt lat="36.85629752571244" lon="10.319773839594754"><ele>21.0</ele><time>2026-04-09T11:27:20Z</time></trkpt><trkpt lat="36.85636870950952" lon="10.319855250918874"><ele>21.0</ele><time>2026-04-09T11:27:23Z</time></trkpt><trkpt lat="36.856451849111124" lon="10.319889450760604"><ele>21.0</ele><time>2026-04-09T11:27:25Z</time></trkpt><trkpt lat="36.856531751746175" lon="10.319866269999917"><ele>21.0</ele><time>2026-04-09T11:27:27Z</time></trkpt><trkpt lat="36.85661683688934" lon="10.319774041028374"><ele>21.0</ele><time>2026-04-09T11:27:29Z</time></trkpt><trkpt lat="36.856700760897056" lon="10.31965892628073"><ele>21.0</ele><time>2026-04-09T11:27:31Z</time></trkpt><trkpt lat="36.856742885674244" lon="10.319597252194402"><ele>21.0</ele><time>2026-04-09T11:27:32Z</time></trkpt><trkpt lat="36.85679210766816" lon="10.319540595879335"><ele>21.5</ele><time>2026-04-09T11:27:33Z</time></trkpt><trkpt lat="36.85685526546624" lon="10.319506388828335"><ele>22.0</ele><time>2026-04-09T11:27:34Z</time></trkpt><trkpt lat="36.85692319491176" lon="10.319497799351877"><ele>22.5</ele><time>2026-04-09T11:27:35Z</time></trkpt><trkpt lat="36.856996881854336" lon="10.319507209609759"><ele>23.0</ele><time>2026-04-09T11:27:36Z</time></trkpt><trkpt lat="36.85707779857302" lon="10.319533657315377"><ele>23.5</ele><time>2026-04-09T11:27:37Z</time></trkpt><trkpt lat="36.857160432126626" lon="10.31956290987738"><ele>24.0</ele><time>2026-04-09T11:27:38Z</time></trkpt><trkpt lat="36.85724939857353" lon="10.319591588223433"><ele>24.0</ele><time>2026-04-09T11:27:39Z</time></trkpt><trkpt lat="36.857341672714625" lon="10.319619300582737"><ele>24.0</ele><time>2026-04-09T11:27:40Z</time></trkpt><trkpt lat="36.85743495730815" lon="10.319646301722466"><ele>24.0</ele><time>2026-04-09T11:27:41Z</time></trkpt><trkpt lat="36.85752601155594" lon="10.31967893770038"><ele>24.0</ele><time>2026-04-09T11:27:42Z</time></trkpt><trkpt lat="36.8576175669068" lon="10.319712520855425"><ele>24.0</ele><time>2026-04-09T11:27:43Z</time></trkpt><trkpt lat="36.8577069767969" lon="10.319746164666006"><ele>25.0</ele><time>2026-04-09T11:27:44Z</time></trkpt><trkpt lat="36.857795180044064" lon="10.319777468673088"><ele>26.0</ele><time>2026-04-09T11:27:45Z</time></trkpt><trkpt lat="36.8578787584027" lon="10.31980768134395"><ele>27.0</ele><time>2026-04-09T11:27:46Z</time></trkpt><trkpt lat="36.85796132474376" lon="10.319837349513543"><ele>28.0</ele><time>2026-04-09T11:27:47Z</time></trkpt><trkpt lat="36.8580483971648" lon="10.319868695632241"><ele>29.0</ele><time>2026-04-09T11:27:48Z</time></trkpt><trkpt lat="36.858138996822525" lon="10.319897192393853"><ele>30.0</ele><time>2026-04-09T11:27:49Z</time></trkpt><trkpt lat="36.85822971774928" lon="10.319925195890216"><ele>30.0</ele><time>2026-04-09T11:27:50Z</time></trkpt><trkpt lat="36.85831874778257" lon="10.319954880886627"><ele>30.0</ele><time>2026-04-09T11:27:51Z</time></trkpt><trkpt lat="36.85840793084151" lon="10.319986104680702"><ele>30.0</ele><time>2026-04-09T11:27:52Z</time></trkpt><trkpt lat="36.85849605467518" lon="10.320020750984227"><ele>30.0</ele><time>2026-04-09T11:27:53Z</time></trkpt><trkpt lat="36.858583104668234" lon="10.32005623168985"><ele>30.0</ele><time>2026-04-09T11:27:54Z</time></trkpt><trkpt lat="36.85867115142415" lon="10.320089579273807"><ele>30.166666666666668</ele><time>2026-04-09T11:27:55Z</time></trkpt><trkpt lat="36.85875804447062" lon="10.320120476999126"><ele>30.333333333333336</ele><time>2026-04-09T11:27:56Z</time></trkpt><trkpt lat="36.858848143537266" lon="10.320145501724324"><ele>30.5</ele><time>2026-04-09T11:27:57Z</time></trkpt><trkpt lat="36.85893228633213" lon="10.320173506309114"><ele>30.666666666666668</ele><time>2026-04-09T11:27:58Z</time></trkpt><trkpt lat="36.859012068748825" lon="10.32019970296411"><ele>30.833333333333336</ele><time>2026-04-09T11:27:59Z</time></trkpt><trkpt lat="36.85908997931745" lon="10.320228579288978"><ele>31.0</ele><time>2026-04-09T11:28:00Z</time></trkpt><trkpt lat="36.85916320588014" lon="10.320263665667602"><ele>31.0</ele><time>2026-04-09T11:28:01Z</time></trkpt><trkpt lat="36.8592171189929" lon="10.320311008292727"><ele>31.0</ele><time>2026-04-09T11:28:02Z</time></trkpt><trkpt lat="36.85927824791866" lon="10.320419472704945"><ele>31.0</ele><time>2026-04-09T11:28:04Z</time></trkpt><trkpt lat="36.85930746269479" lon="10.320542099219626"><ele>31.0</ele><time>2026-04-09T11:28:06Z</time></trkpt><trkpt lat="36.85930407431203" lon="10.320688861935572"><ele>31.0</ele><time>2026-04-09T11:28:08Z</time></trkpt><trkpt lat="36.85928892863803" lon="10.320767708832026"><ele>31.857142857142858</ele><time>2026-04-09T11:28:09Z</time></trkpt><trkpt lat="36.85927189765129" lon="10.320851402509236"><ele>32.714285714285715</ele><time>2026-04-09T11:28:10Z</time></trkpt><trkpt lat="36.85925613349187" lon="10.3209386521116"><ele>33.57142857142857</ele><time>2026-04-09T11:28:11Z</time></trkpt><trkpt lat="36.85924200118518" lon="10.32102950039485"><ele>34.42857142857143</ele><time>2026-04-09T11:28:12Z</time></trkpt><trkpt lat="36.85922785298504" lon="10.32112284928278"><ele>35.285714285714285</ele><time>2026-04-09T11:28:13Z</time></trkpt><trkpt lat="36.85921087089754" lon="10.321220905796801"><ele>36.142857142857146</ele><time>2026-04-09T11:28:14Z</time></trkpt><trkpt lat="36.859190892812144" lon="10.321314875013575"><ele>37.0</ele><time>2026-04-09T11:28:15Z</time></trkpt><trkpt lat="36.8591668994832" lon="10.321411248184408"><ele>37.333333333333336</ele><time>2026-04-09T11:28:16Z</time></trkpt><trkpt lat="36.85913813837528" lon="10.321506209106234"><ele>37.66666666666667</ele><time>2026-04-09T11:28:17Z</time></trkpt><trkpt lat="36.85910395379864" lon="10.321599403702889"><ele>38.0</ele><time>2026-04-09T11:28:18Z</time></trkpt><trkpt lat="36.85906542380033" lon="10.321699460199175"><ele>38.333333333333336</ele><time>2026-04-09T11:28:19Z</time></trkpt><trkpt lat="36.85902254034417" lon="10.321803060624626"><ele>38.666666666666664</ele><time>2026-04-09T11:28:20Z</time></trkpt><trkpt lat="36.85897414787254" lon="10.321912670546466"><ele>39.0</ele><time>2026-04-09T11:28:21Z</time></trkpt><trkpt lat="36.85892289493616" lon="10.322023695816242"><ele>39.0</ele><time>2026-04-09T11:28:22Z</time></trkpt><trkpt lat="36.8588698433413" lon="10.32214359314098"><ele>39.0</ele><time>2026-04-09T11:28:23Z</time></trkpt><trkpt lat="36.85881977886917" lon="10.322262884452165"><ele>39.0</ele><time>2026-04-09T11:28:24Z</time></trkpt><trkpt lat="36.858768438990595" lon="10.322374962586299"><ele>39.0</ele><time>2026-04-09T11:28:25Z</time></trkpt><trkpt lat="36.8587187842357" lon="10.322474120664124"><ele>39.0</ele><time>2026-04-09T11:28:26Z</time></trkpt><trkpt lat="36.858674250239346" lon="10.322564452710488"><ele>39.0</ele><time>2026-04-09T11:28:27Z</time></trkpt><trkpt lat="36.85863396780651" lon="10.322645424441532"><ele>39.0</ele><time>2026-04-09T11:28:28Z</time></trkpt><trkpt lat="36.8586025152607" lon="10.322715849474907"><ele>39.0</ele><time>2026-04-09T11:28:29Z</time></trkpt><trkpt lat="36.858556700458614" lon="10.322809857708725"><ele>39.0</ele><time>2026-04-09T11:28:31Z</time></trkpt><trkpt lat="36.85852514387318" lon="10.322889577927896"><ele>39.0</ele><time>2026-04-09T11:28:33Z</time></trkpt><trkpt lat="36.85848872426126" lon="10.322964242787847"><ele>39.0</ele><time>2026-04-09T11:28:36Z</time></trkpt><trkpt lat="36.858443254445085" lon="10.323039630123718"><ele>39.0</ele><time>2026-04-09T11:28:39Z</time></trkpt><trkpt lat="36.858477333073466" lon="10.323112513381533"><ele>38.8</ele><time>2026-04-09T11:28:42Z</time></trkpt><trkpt lat="36.85855906567877" lon="10.323065779930596"><ele>38.599999999999994</ele><time>2026-04-09T11:28:45Z</time></trkpt><trkpt lat="36.85860325879423" lon="10.322932033764628"><ele>38.4</ele><time>2026-04-09T11:28:47Z</time></trkpt><trkpt lat="36.85865396346894" lon="10.322795691205902"><ele>38.199999999999996</ele><time>2026-04-09T11:28:49Z</time></trkpt><trkpt lat="36.858681307349364" lon="10.322724095272218"><ele>38.0</ele><time>2026-04-09T11:28:50Z</time></trkpt><trkpt lat="36.85871181122867" lon="10.322652815231276"><ele>38.0</ele><time>2026-04-09T11:28:51Z</time></trkpt><trkpt lat="36.85874930036835" lon="10.322576933575956"><ele>38.0</ele><time>2026-04-09T11:28:52Z</time></trkpt><trkpt lat="36.85879027635358" lon="10.322492537643948"><ele>38.0</ele><time>2026-04-09T11:28:53Z</time></trkpt><trkpt lat="36.858833499646764" lon="10.322402852704116"><ele>38.0</ele><time>2026-04-09T11:28:54Z</time></trkpt><trkpt lat="36.85887897271537" lon="10.322310073304799"><ele>38.0</ele><time>2026-04-09T11:28:55Z</time></trkpt><trkpt lat="36.858925994371404" lon="10.322210085890525"><ele>38.0</ele><time>2026-04-09T11:28:56Z</time></trkpt><trkpt lat="36.85897343518542" lon="10.32210333942646"><ele>38.199999999999996</ele><time>2026-04-09T11:28:57Z</time></trkpt><trkpt lat="36.859019615626934" lon="10.321993932007437"><ele>38.4</ele><time>2026-04-09T11:28:58Z</time></trkpt><trkpt lat="36.85906793893409" lon="10.321884080440983"><ele>38.599999999999994</ele><time>2026-04-09T11:28:59Z</time></trkpt><trkpt lat="36.859116202057045" lon="10.321773299156503"><ele>38.8</ele><time>2026-04-09T11:29:00Z</time></trkpt><trkpt lat="36.859163889769796" lon="10.321664218673817"><ele>39.0</ele><time>2026-04-09T11:29:01Z</time></trkpt><trkpt lat="36.85920300127845" lon="10.321555838634296"><ele>39.0</ele><time>2026-04-09T11:29:02Z</time></trkpt><trkpt lat="36.859235304782246" lon="10.321451199646868"><ele>39.0</ele><time>2026-04-09T11:29:03Z</time></trkpt><trkpt lat="36.859260290213435" lon="10.321344738577203"><ele>39.0</ele><time>2026-04-09T11:29:04Z</time></trkpt><trkpt lat="36.85927597181258" lon="10.321252478399416"><ele>39.0</ele><time>2026-04-09T11:29:05Z</time></trkpt><trkpt lat="36.85930093110429" lon="10.321108178964966"><ele>39.0</ele><time>2026-04-09T11:29:07Z</time></trkpt><trkpt lat="36.85931532825014" lon="10.320989612428267"><ele>37.833333333333336</ele><time>2026-04-09T11:29:09Z</time></trkpt><trkpt lat="36.85933010264044" lon="10.320905333822683"><ele>36.666666666666664</ele><time>2026-04-09T11:29:11Z</time></trkpt><trkpt lat="36.85934872950333" lon="10.320828189985246"><ele>35.5</ele><time>2026-04-09T11:29:13Z</time></trkpt><trkpt lat="36.85941987519551" lon="10.320734528593904"><ele>34.33333333333333</ele><time>2026-04-09T11:29:15Z</time></trkpt><trkpt lat="36.85952065311698" lon="10.320749596470517"><ele>33.166666666666664</ele><time>2026-04-09T11:29:17Z</time></trkpt><trkpt lat="36.85958088888008" lon="10.320850521512293"><ele>32.0</ele><time>2026-04-09T11:29:19Z</time></trkpt><trkpt lat="36.859631922260704" lon="10.320993386063048"><ele>31.999999999999996</ele><time>2026-04-09T11:29:21Z</time></trkpt><trkpt lat="36.8596636424694" lon="10.321071803050488"><ele>32.0</ele><time>2026-04-09T11:29:22Z</time></trkpt><trkpt lat="36.85969728805198" lon="10.321151172938276"><ele>32.0</ele><time>2026-04-09T11:29:23Z</time></trkpt><trkpt lat="36.85973272657895" lon="10.321233629864514"><ele>32.0</ele><time>2026-04-09T11:29:24Z</time></trkpt><trkpt lat="36.85976900702925" lon="10.321321920918104"><ele>31.999999999999996</ele><time>2026-04-09T11:29:25Z</time></trkpt><trkpt lat="36.859810499701744" lon="10.321414377920968"><ele>32.0</ele><time>2026-04-09T11:29:26Z</time></trkpt><trkpt lat="36.85985656173401" lon="10.321497760107723"><ele>32.42857142857143</ele><time>2026-04-09T11:29:27Z</time></trkpt><trkpt lat="36.859898009683164" lon="10.321575712322318"><ele>32.857142857142854</ele><time>2026-04-09T11:29:28Z</time></trkpt><trkpt lat="36.85993116330071" lon="10.321652949049858"><ele>33.285714285714285</ele><time>2026-04-09T11:29:29Z</time></trkpt><trkpt lat="36.859964525763495" lon="10.321736066434356"><ele>33.714285714285715</ele><time>2026-04-09T11:29:30Z</time></trkpt><trkpt lat="36.86000002342693" lon="10.32182109319858"><ele>34.14285714285714</ele><time>2026-04-09T11:29:31Z</time></trkpt><trkpt lat="36.86003500354009" lon="10.321902776969852"><ele>34.57142857142857</ele><time>2026-04-09T11:29:32Z</time></trkpt><trkpt lat="36.86006997241413" lon="10.321982430401077"><ele>35.0</ele><time>2026-04-09T11:29:33Z</time></trkpt><trkpt lat="36.86010566419813" lon="10.322059593833817"><ele>34.5</ele><time>2026-04-09T11:29:34Z</time></trkpt><trkpt lat="36.86014339877143" lon="10.322141115991082"><ele>34.0</ele><time>2026-04-09T11:29:35Z</time></trkpt><trkpt lat="36.86017910586743" lon="10.32222388508492"><ele>33.5</ele><time>2026-04-09T11:29:36Z</time></trkpt><trkpt lat="36.86021366825167" lon="10.32231061739891"><ele>33.0</ele><time>2026-04-09T11:29:37Z</time></trkpt><trkpt lat="36.86024961290582" lon="10.322399426424003"><ele>32.5</ele><time>2026-04-09T11:29:38Z</time></trkpt><trkpt lat="36.860290907468084" lon="10.322489797133896"><ele>32.0</ele><time>2026-04-09T11:29:39Z</time></trkpt><trkpt lat="36.8603390769959" lon="10.322592728156378"><ele>32.0</ele><time>2026-04-09T11:29:40Z</time></trkpt><trkpt lat="36.86038542253808" lon="10.322695135197815"><ele>32.0</ele><time>2026-04-09T11:29:41Z</time></trkpt><trkpt lat="36.86042873651104" lon="10.322797571371469"><ele>32.0</ele><time>2026-04-09T11:29:42Z</time></trkpt><trkpt lat="36.860474544055236" lon="10.322898514359"><ele>32.0</ele><time>2026-04-09T11:29:43Z</time></trkpt><trkpt lat="36.86052285992981" lon="10.323000194079881"><ele>32.0</ele><time>2026-04-09T11:29:44Z</time></trkpt><trkpt lat="36.86056937699135" lon="10.32310140191116"><ele>32.57142857142857</ele><time>2026-04-09T11:29:45Z</time></trkpt><trkpt lat="36.86061387152724" lon="10.323201707722285"><ele>33.14285714285714</ele><time>2026-04-09T11:29:46Z</time></trkpt><trkpt lat="36.860653152432945" lon="10.323294239341628"><ele>33.714285714285715</ele><time>2026-04-09T11:29:47Z</time></trkpt><trkpt lat="36.86068634953174" lon="10.323376337266904"><ele>34.285714285714285</ele><time>2026-04-09T11:29:48Z</time></trkpt><trkpt lat="36.86072032233743" lon="10.323452097417759"><ele>34.85714285714286</ele><time>2026-04-09T11:29:49Z</time></trkpt><trkpt lat="36.86075272181539" lon="10.323520383251724"><ele>35.42857142857143</ele><time>2026-04-09T11:29:50Z</time></trkpt><trkpt lat="36.86078677158111" lon="10.323592656395533"><ele>36.0</ele><time>2026-04-09T11:29:51Z</time></trkpt><trkpt lat="36.860822079797195" lon="10.323676793857313"><ele>36.0</ele><time>2026-04-09T11:29:52Z</time></trkpt><trkpt lat="36.86086310432685" lon="10.323761615897453"><ele>36.0</ele><time>2026-04-09T11:29:53Z</time></trkpt><trkpt lat="36.86090093424914" lon="10.323846512539257"><ele>36.0</ele><time>2026-04-09T11:29:54Z</time></trkpt><trkpt lat="36.86093691394923" lon="10.323941434023762"><ele>36.0</ele><time>2026-04-09T11:29:55Z</time></trkpt><trkpt lat="36.86097400366584" lon="10.324040188110356"><ele>36.0</ele><time>2026-04-09T11:29:56Z</time></trkpt><trkpt lat="36.86101742889372" lon="10.324141236125628"><ele>36.0</ele><time>2026-04-09T11:29:57Z</time></trkpt><trkpt lat="36.861064376606" lon="10.324242061255514"><ele>35.6</ele><time>2026-04-09T11:29:58Z</time></trkpt><trkpt lat="36.86110898110082" lon="10.32433656716572"><ele>35.2</ele><time>2026-04-09T11:29:59Z</time></trkpt><trkpt lat="36.86115402860873" lon="10.324431334757717"><ele>34.8</ele><time>2026-04-09T11:30:00Z</time></trkpt><trkpt lat="36.86119858561419" lon="10.324532735553506"><ele>34.4</ele><time>2026-04-09T11:30:01Z</time></trkpt><trkpt lat="36.86124655304377" lon="10.324635837660793"><ele>34.0</ele><time>2026-04-09T11:30:02Z</time></trkpt><trkpt lat="36.86129490160403" lon="10.324746578843076"><ele>34.0</ele><time>2026-04-09T11:30:03Z</time></trkpt><trkpt lat="36.861346273586875" lon="10.324864181911856"><ele>34.0</ele><time>2026-04-09T11:30:04Z</time></trkpt><trkpt lat="36.86140084899965" lon="10.324993994009965"><ele>34.0</ele><time>2026-04-09T11:30:05Z</time></trkpt><trkpt lat="36.861460184754506" lon="10.32512962360856"><ele>34.0</ele><time>2026-04-09T11:30:06Z</time></trkpt><trkpt lat="36.86152271374498" lon="10.325264568119225"><ele>34.0</ele><time>2026-04-09T11:30:07Z</time></trkpt><trkpt lat="36.86158558210692" lon="10.32540460135101"><ele>34.0</ele><time>2026-04-09T11:30:08Z</time></trkpt><trkpt lat="36.86164983412076" lon="10.325546764172717"><ele>34.0</ele><time>2026-04-09T11:30:09Z</time></trkpt><trkpt lat="36.86171286439967" lon="10.325695498697867"><ele>34.0</ele><time>2026-04-09T11:30:10Z</time></trkpt><trkpt lat="36.86177600909567" lon="10.325847602908006"><ele>34.0</ele><time>2026-04-09T11:30:11Z</time></trkpt><trkpt lat="36.86184123531175" lon="10.325999915190572"><ele>34.0</ele><time>2026-04-09T11:30:12Z</time></trkpt><trkpt lat="36.861912378002884" lon="10.32615117994497"><ele>34.0</ele><time>2026-04-09T11:30:13Z</time></trkpt><trkpt lat="36.86198248888501" lon="10.326304207726741"><ele>34.0</ele><time>2026-04-09T11:30:14Z</time></trkpt><trkpt lat="36.862051128945495" lon="10.326457210734153"><ele>34.25</ele><time>2026-04-09T11:30:15Z</time></trkpt><trkpt lat="36.86211721715304" lon="10.326612046251917"><ele>34.5</ele><time>2026-04-09T11:30:16Z</time></trkpt><trkpt lat="36.86218025394685" lon="10.326757825171583"><ele>34.75</ele><time>2026-04-09T11:30:17Z</time></trkpt><trkpt lat="36.86223889352511" lon="10.326896487969112"><ele>35.0</ele><time>2026-04-09T11:30:18Z</time></trkpt><trkpt lat="36.862296563571725" lon="10.327030280191627"><ele>35.0</ele><time>2026-04-09T11:30:19Z</time></trkpt><trkpt lat="36.86235574716553" lon="10.327166235085281"><ele>35.0</ele><time>2026-04-09T11:30:20Z</time></trkpt><trkpt lat="36.86241607576902" lon="10.32729565572016"><ele>35.0</ele><time>2026-04-09T11:30:20.999Z</time></trkpt><trkpt lat="36.86247668425327" lon="10.327424881626897"><ele>35.0</ele><time>2026-04-09T11:30:21.999Z</time></trkpt><trkpt lat="36.862537609436174" lon="10.327550614430068"><ele>35.25</ele><time>2026-04-09T11:30:22.999Z</time></trkpt><trkpt lat="36.86259275211776" lon="10.327675534629288"><ele>35.5</ele><time>2026-04-09T11:30:23.999Z</time></trkpt><trkpt lat="36.86264864118656" lon="10.327803299336962"><ele>35.75</ele><time>2026-04-09T11:30:24.999Z</time></trkpt><trkpt lat="36.86270301279829" lon="10.327930184641266"><ele>36.0</ele><time>2026-04-09T11:30:25.999Z</time></trkpt><trkpt lat="36.86275794977099" lon="10.328056766212356"><ele>35.4</ele><time>2026-04-09T11:30:27Z</time></trkpt><trkpt lat="36.862812129371775" lon="10.328185791637722"><ele>34.8</ele><time>2026-04-09T11:30:28Z</time></trkpt><trkpt lat="36.862863531011776" lon="10.328302779226323"><ele>34.199999999999996</ele><time>2026-04-09T11:30:29Z</time></trkpt><trkpt lat="36.862912477907045" lon="10.32841509050097"><ele>33.6</ele><time>2026-04-09T11:30:30Z</time></trkpt><trkpt lat="36.86295833957128" lon="10.328520909932667"><ele>33.0</ele><time>2026-04-09T11:30:31Z</time></trkpt><trkpt lat="36.863002142148886" lon="10.328621325892811"><ele>33.0</ele><time>2026-04-09T11:30:32Z</time></trkpt><trkpt lat="36.863040908004166" lon="10.328712376503278"><ele>33.0</ele><time>2026-04-09T11:30:33Z</time></trkpt><trkpt lat="36.863077843742545" lon="10.328798810151415"><ele>33.0</ele><time>2026-04-09T11:30:34Z</time></trkpt><trkpt lat="36.86311611326897" lon="10.328887430813213"><ele>33.0</ele><time>2026-04-09T11:30:35Z</time></trkpt><trkpt lat="36.863155019029385" lon="10.328974344863054"><ele>33.0</ele><time>2026-04-09T11:30:36Z</time></trkpt><trkpt lat="36.86319549175835" lon="10.329065371698729"><ele>33.0</ele><time>2026-04-09T11:30:37Z</time></trkpt><trkpt lat="36.863238416334205" lon="10.329155545133089"><ele>33.333333333333336</ele><time>2026-04-09T11:30:38Z</time></trkpt><trkpt lat="36.863276404563585" lon="10.329245105622164"><ele>33.666666666666664</ele><time>2026-04-09T11:30:39Z</time></trkpt><trkpt lat="36.863319093553145" lon="10.329336168484325"><ele>34.0</ele><time>2026-04-09T11:30:40Z</time></trkpt><trkpt lat="36.86335884217314" lon="10.329427667651927"><ele>34.33333333333333</ele><time>2026-04-09T11:30:41Z</time></trkpt><trkpt lat="36.86339678818967" lon="10.329520876536883"><ele>34.666666666666664</ele><time>2026-04-09T11:30:42Z</time></trkpt><trkpt lat="36.86343478586359" lon="10.329612925866483"><ele>35.0</ele><time>2026-04-09T11:30:43Z</time></trkpt><trkpt lat="36.863474055300685" lon="10.32970329988314"><ele>36.666666666666664</ele><time>2026-04-09T11:30:44Z</time></trkpt><trkpt lat="36.86351335667321" lon="10.329789618388798"><ele>38.33333333333333</ele><time>2026-04-09T11:30:45Z</time></trkpt><trkpt lat="36.863549208944015" lon="10.32987356364824"><ele>40.0</ele><time>2026-04-09T11:30:46Z</time></trkpt><trkpt lat="36.86358685446399" lon="10.329960835112242"><ele>41.666666666666664</ele><time>2026-04-09T11:30:47Z</time></trkpt><trkpt lat="36.863624357003935" lon="10.330045178441724"><ele>43.333333333333336</ele><time>2026-04-09T11:30:48Z</time></trkpt><trkpt lat="36.86366383501967" lon="10.330127855252332"><ele>45.0</ele><time>2026-04-09T11:30:49Z</time></trkpt><trkpt lat="36.86370239578121" lon="10.33021642844458"><ele>45.0</ele><time>2026-04-09T11:30:50Z</time></trkpt><trkpt lat="36.863743426416846" lon="10.330309726509299"><ele>45.0</ele><time>2026-04-09T11:30:51Z</time></trkpt><trkpt lat="36.8637869531747" lon="10.330409004633662"><ele>45.0</ele><time>2026-04-09T11:30:52Z</time></trkpt><trkpt lat="36.86383401278495" lon="10.330516169376144"><ele>45.0</ele><time>2026-04-09T11:30:53Z</time></trkpt><trkpt lat="36.863882327702065" lon="10.330626345239507"><ele>45.0</ele><time>2026-04-09T11:30:54Z</time></trkpt><trkpt lat="36.86392975957087" lon="10.330735666736746"><ele>45.8</ele><time>2026-04-09T11:30:55Z</time></trkpt><trkpt lat="36.86397799122623" lon="10.330844533395926"><ele>46.6</ele><time>2026-04-09T11:30:56Z</time></trkpt><trkpt lat="36.86402638657229" lon="10.330955838758173"><ele>47.400000000000006</ele><time>2026-04-09T11:30:57Z</time></trkpt><trkpt lat="36.864076694458056" lon="10.331070414983422"><ele>48.2</ele><time>2026-04-09T11:30:58Z</time></trkpt><trkpt lat="36.86412680785234" lon="10.33118450950646"><ele>49.0</ele><time>2026-04-09T11:30:59Z</time></trkpt><trkpt lat="36.864175956196576" lon="10.331295389297289"><ele>49.0</ele><time>2026-04-09T11:31:00Z</time></trkpt><trkpt lat="36.86422452554201" lon="10.33140647125957"><ele>49.0</ele><time>2026-04-09T11:31:01Z</time></trkpt><trkpt lat="36.864270126436935" lon="10.331516756684044"><ele>49.0</ele><time>2026-04-09T11:31:02Z</time></trkpt><trkpt lat="36.8643147380329" lon="10.331623152644761"><ele>49.0</ele><time>2026-04-09T11:31:03Z</time></trkpt><trkpt lat="36.86435830668055" lon="10.331717417150811"><ele>49.0</ele><time>2026-04-09T11:31:04Z</time></trkpt><trkpt lat="36.8644016822541" lon="10.331803547615339"><ele>48.99999999999999</ele><time>2026-04-09T11:31:05Z</time></trkpt><trkpt lat="36.86443525046385" lon="10.331880770279867"><ele>49.0</ele><time>2026-04-09T11:31:06Z</time></trkpt><trkpt lat="36.86446610251058" lon="10.331949498585091"><ele>49.0</ele><time>2026-04-09T11:31:07Z</time></trkpt><trkpt lat="36.86450057242468" lon="10.332029201655644"><ele>49.0</ele><time>2026-04-09T11:31:08Z</time></trkpt><trkpt lat="36.86453633278198" lon="10.332117164641138"><ele>48.99999999999999</ele><time>2026-04-09T11:31:09Z</time></trkpt><trkpt lat="36.864573759913" lon="10.332214114987517"><ele>49.0</ele><time>2026-04-09T11:31:10Z</time></trkpt><trkpt lat="36.86461751200088" lon="10.332302205413056"><ele>48.666666666666664</ele><time>2026-04-09T11:31:11Z</time></trkpt><trkpt lat="36.864656474901246" lon="10.33238629839921"><ele>48.33333333333333</ele><time>2026-04-09T11:31:12Z</time></trkpt><trkpt lat="36.86469975346906" lon="10.332471903205311"><ele>48.0</ele><time>2026-04-09T11:31:13Z</time></trkpt><trkpt lat="36.8647396686653" lon="10.332563108697029"><ele>47.666666666666664</ele><time>2026-04-09T11:31:14Z</time></trkpt><trkpt lat="36.86477545833276" lon="10.332654443485827"><ele>47.33333333333333</ele><time>2026-04-09T11:31:15Z</time></trkpt><trkpt lat="36.864809201426304" lon="10.332740767817972"><ele>47.0</ele><time>2026-04-09T11:31:16Z</time></trkpt><trkpt lat="36.86484532455248" lon="10.332822460561651"><ele>47.0</ele><time>2026-04-09T11:31:17Z</time></trkpt><trkpt lat="36.86488114165746" lon="10.332903304798773"><ele>47.0</ele><time>2026-04-09T11:31:18Z</time></trkpt><trkpt lat="36.86491588663387" lon="10.33298155299534"><ele>47.0</ele><time>2026-04-09T11:31:19Z</time></trkpt><trkpt lat="36.864953520935344" lon="10.333068246676515"><ele>47.0</ele><time>2026-04-09T11:31:20Z</time></trkpt><trkpt lat="36.86499083585262" lon="10.333152000358654"><ele>47.0</ele><time>2026-04-09T11:31:21Z</time></trkpt><trkpt lat="36.86502982922567" lon="10.333243260330063"><ele>47.0</ele><time>2026-04-09T11:31:22Z</time></trkpt><trkpt lat="36.865065534528696" lon="10.333333474562208"><ele>46.33333333333333</ele><time>2026-04-09T11:31:23Z</time></trkpt><trkpt lat="36.86510443246766" lon="10.33342119234257"><ele>45.666666666666664</ele><time>2026-04-09T11:31:24Z</time></trkpt><trkpt lat="36.86513910480375" lon="10.333503765458627"><ele>45.0</ele><time>2026-04-09T11:31:25Z</time></trkpt><trkpt lat="36.86517237716367" lon="10.333587503623514"><ele>44.333333333333336</ele><time>2026-04-09T11:31:26Z</time></trkpt><trkpt lat="36.865212480000416" lon="10.333678504540385"><ele>43.66666666666667</ele><time>2026-04-09T11:31:27Z</time></trkpt><trkpt lat="36.86525289149022" lon="10.333766096706766"><ele>43.0</ele><time>2026-04-09T11:31:28Z</time></trkpt><trkpt lat="36.86529283019931" lon="10.33385341166963"><ele>42.0</ele><time>2026-04-09T11:31:29Z</time></trkpt><trkpt lat="36.865334862613054" lon="10.333943478290957"><ele>41.0</ele><time>2026-04-09T11:31:30Z</time></trkpt><trkpt lat="36.86537456603274" lon="10.334035201818226"><ele>40.0</ele><time>2026-04-09T11:31:31Z</time></trkpt><trkpt lat="36.865413092147506" lon="10.334127433082935"><ele>39.0</ele><time>2026-04-09T11:31:32Z</time></trkpt><trkpt lat="36.86545337056514" lon="10.33421896605216"><ele>38.0</ele><time>2026-04-09T11:31:33Z</time></trkpt><trkpt lat="36.86549350092338" lon="10.334310089724587"><ele>37.0</ele><time>2026-04-09T11:31:34Z</time></trkpt><trkpt lat="36.86553363609932" lon="10.334400850346556"><ele>37.0</ele><time>2026-04-09T11:31:35Z</time></trkpt><trkpt lat="36.86557513626321" lon="10.334491912525527"><ele>37.0</ele><time>2026-04-09T11:31:36Z</time></trkpt><trkpt lat="36.8656155868659" lon="10.334581033575054"><ele>37.0</ele><time>2026-04-09T11:31:37Z</time></trkpt><trkpt lat="36.86565506387254" lon="10.334672190731435"><ele>37.0</ele><time>2026-04-09T11:31:38Z</time></trkpt><trkpt lat="36.86569592160032" lon="10.334762387894738"><ele>37.0</ele><time>2026-04-09T11:31:39Z</time></trkpt><trkpt lat="36.86573502287737" lon="10.334848845070788"><ele>37.0</ele><time>2026-04-09T11:31:40Z</time></trkpt><trkpt lat="36.86577306533119" lon="10.33493555950757"><ele>37.57142857142857</ele><time>2026-04-09T11:31:41Z</time></trkpt><trkpt lat="36.86580831505079" lon="10.335021101044719"><ele>38.14285714285714</ele><time>2026-04-09T11:31:42Z</time></trkpt><trkpt lat="36.86584153314087" lon="10.335106943123334"><ele>38.71428571428571</ele><time>2026-04-09T11:31:43Z</time></trkpt><trkpt lat="36.86587642960588" lon="10.335191448106837"><ele>39.285714285714285</ele><time>2026-04-09T11:31:44Z</time></trkpt><trkpt lat="36.86591312369744" lon="10.33527477414243"><ele>39.857142857142854</ele><time>2026-04-09T11:31:45Z</time></trkpt><trkpt lat="36.86595242744853" lon="10.335353826164944"><ele>40.42857142857142</ele><time>2026-04-09T11:31:46Z</time></trkpt><trkpt lat="36.86599185740228" lon="10.335424938741522"><ele>41.0</ele><time>2026-04-09T11:31:47Z</time></trkpt><trkpt lat="36.86605044714623" lon="10.335548009488017"><ele>41.8</ele><time>2026-04-09T11:31:49Z</time></trkpt><trkpt lat="36.866100954698325" lon="10.335671055484195"><ele>42.599999999999994</ele><time>2026-04-09T11:31:51Z</time></trkpt><trkpt lat="36.8661451158737" lon="10.335775460421285"><ele>43.4</ele><time>2026-04-09T11:31:53Z</time></trkpt><trkpt lat="36.86618116660686" lon="10.335889302172523"><ele>44.2</ele><time>2026-04-09T11:31:55Z</time></trkpt><trkpt lat="36.86620646393819" lon="10.336029678405431"><ele>45.0</ele><time>2026-04-09T11:31:57Z</time></trkpt><trkpt lat="36.86624040787885" lon="10.33613664026648"><ele>45.0</ele><time>2026-04-09T11:31:59Z</time></trkpt><trkpt lat="36.86633423346162" lon="10.336201057235494"><ele>45.0</ele><time>2026-04-09T11:32:01Z</time></trkpt><trkpt lat="36.86640533378601" lon="10.336205190762074"><ele>45.0</ele><time>2026-04-09T11:32:02Z</time></trkpt><trkpt lat="36.86648983313557" lon="10.336196955267814"><ele>45.0</ele><time>2026-04-09T11:32:03Z</time></trkpt><trkpt lat="36.86658482544328" lon="10.336181443537184"><ele>45.0</ele><time>2026-04-09T11:32:04Z</time></trkpt><trkpt lat="36.86669017263853" lon="10.3361495926698"><ele>44.333333333333336</ele><time>2026-04-09T11:32:05Z</time></trkpt><trkpt lat="36.866812031129186" lon="10.336100459346369"><ele>43.66666666666667</ele><time>2026-04-09T11:32:06Z</time></trkpt><trkpt lat="36.866968041261394" lon="10.33602499642633"><ele>43.0</ele><time>2026-04-09T11:32:07Z</time></trkpt><trkpt lat="36.86713631100718" lon="10.335930028378423"><ele>43.0</ele><time>2026-04-09T11:32:08Z</time></trkpt><trkpt lat="36.867286752431006" lon="10.335840630673616"><ele>43.0</ele><time>2026-04-09T11:32:09Z</time></trkpt><trkpt lat="36.86741615305704" lon="10.335765238136407"><ele>43.0</ele><time>2026-04-09T11:32:10Z</time></trkpt><trkpt lat="36.86754196230209" lon="10.335690566743851"><ele>43.0</ele><time>2026-04-09T11:32:11Z</time></trkpt><trkpt lat="36.86766841078488" lon="10.335614046472891"><ele>42.0</ele><time>2026-04-09T11:32:12Z</time></trkpt><trkpt lat="36.86779299321744" lon="10.33554025815321"><ele>41.0</ele><time>2026-04-09T11:32:13Z</time></trkpt><trkpt lat="36.86791327375672" lon="10.33546436038795"><ele>40.0</ele><time>2026-04-09T11:32:14Z</time></trkpt><trkpt lat="36.868034812773935" lon="10.335387878891343"><ele>39.0</ele><time>2026-04-09T11:32:15Z</time></trkpt><trkpt lat="36.86815543172898" lon="10.33531091674353"><ele>39.0</ele><time>2026-04-09T11:32:16Z</time></trkpt><trkpt lat="36.86827536355475" lon="10.335235213975178"><ele>39.0</ele><time>2026-04-09T11:32:17Z</time></trkpt><trkpt lat="36.86839397657072" lon="10.335159049098593"><ele>39.0</ele><time>2026-04-09T11:32:18Z</time></trkpt><trkpt lat="36.8685110328059" lon="10.33508179013873"><ele>39.0</ele><time>2026-04-09T11:32:19Z</time></trkpt><trkpt lat="36.868627134632334" lon="10.335007052383299"><ele>38.75</ele><time>2026-04-09T11:32:20Z</time></trkpt><trkpt lat="36.868742265937065" lon="10.334931991900419"><ele>38.5</ele><time>2026-04-09T11:32:21Z</time></trkpt><trkpt lat="36.86885836233773" lon="10.334856463888368"><ele>38.25</ele><time>2026-04-09T11:32:22Z</time></trkpt><trkpt lat="36.868973922530586" lon="10.334775790057165"><ele>38.0</ele><time>2026-04-09T11:32:23Z</time></trkpt><trkpt lat="36.86908772617715" lon="10.334695155436771"><ele>37.5</ele><time>2026-04-09T11:32:24Z</time></trkpt><trkpt lat="36.86920091438767" lon="10.334614429070616"><ele>37.0</ele><time>2026-04-09T11:32:25Z</time></trkpt><trkpt lat="36.86931397350804" lon="10.334537019039669"><ele>36.5</ele><time>2026-04-09T11:32:26Z</time></trkpt><trkpt lat="36.869426306716754" lon="10.334461046994095"><ele>36.0</ele><time>2026-04-09T11:32:27Z</time></trkpt><trkpt lat="36.869540342005195" lon="10.33438440912793"><ele>36.0</ele><time>2026-04-09T11:32:28Z</time></trkpt><trkpt lat="36.869656666412325" lon="10.334304126108515"><ele>36.0</ele><time>2026-04-09T11:32:29Z</time></trkpt><trkpt lat="36.86977205496375" lon="10.334226132769423"><ele>36.0</ele><time>2026-04-09T11:32:30Z</time></trkpt><trkpt lat="36.86988528944129" lon="10.334146850173896"><ele>36.0</ele><time>2026-04-09T11:32:31Z</time></trkpt><trkpt lat="36.86999588134095" lon="10.334066624861556"><ele>36.0</ele><time>2026-04-09T11:32:32Z</time></trkpt><trkpt lat="36.87010715249099" lon="10.333989090511968"><ele>36.0</ele><time>2026-04-09T11:32:33Z</time></trkpt><trkpt lat="36.87022157737494" lon="10.333914230561833"><ele>36.0</ele><time>2026-04-09T11:32:34Z</time></trkpt><trkpt lat="36.87033552704914" lon="10.33384120335589"><ele>36.0</ele><time>2026-04-09T11:32:35Z</time></trkpt><trkpt lat="36.870454110346195" lon="10.333767321044677"><ele>36.25</ele><time>2026-04-09T11:32:36Z</time></trkpt><trkpt lat="36.870571475564205" lon="10.333688018529656"><ele>36.5</ele><time>2026-04-09T11:32:37Z</time></trkpt><trkpt lat="36.87068897537328" lon="10.333608335505783"><ele>36.75</ele><time>2026-04-09T11:32:38Z</time></trkpt><trkpt lat="36.87080661227398" lon="10.333526266793774"><ele>37.0</ele><time>2026-04-09T11:32:39Z</time></trkpt><trkpt lat="36.87092087733445" lon="10.33344744319155"><ele>36.75</ele><time>2026-04-09T11:32:40Z</time></trkpt><trkpt lat="36.87104039267235" lon="10.333365138675392"><ele>36.5</ele><time>2026-04-09T11:32:41Z</time></trkpt><trkpt lat="36.87116035526994" lon="10.333285001301197"><ele>36.25</ele><time>2026-04-09T11:32:42Z</time></trkpt><trkpt lat="36.87128062636526" lon="10.333207612646447"><ele>36.0</ele><time>2026-04-09T11:32:43Z</time></trkpt><trkpt lat="36.871399191431784" lon="10.333132375772283"><ele>36.0</ele><time>2026-04-09T11:32:44Z</time></trkpt><trkpt lat="36.8715180732751" lon="10.33306292141758"><ele>36.0</ele><time>2026-04-09T11:32:45Z</time></trkpt><trkpt lat="36.87163511632242" lon="10.332995577079503"><ele>36.0</ele><time>2026-04-09T11:32:46Z</time></trkpt><trkpt lat="36.87175037148136" lon="10.33292672614481"><ele>36.0</ele><time>2026-04-09T11:32:47Z</time></trkpt><trkpt lat="36.87186558299518" lon="10.332857434982516"><ele>35.75</ele><time>2026-04-09T11:32:48Z</time></trkpt><trkpt lat="36.87198311286809" lon="10.332789643488695"><ele>35.5</ele><time>2026-04-09T11:32:49Z</time></trkpt><trkpt lat="36.87210176930917" lon="10.332723543164114"><ele>35.25</ele><time>2026-04-09T11:32:50Z</time></trkpt><trkpt lat="36.872219350503194" lon="10.332656884979867"><ele>35.0</ele><time>2026-04-09T11:32:51Z</time></trkpt><trkpt lat="36.87233808373395" lon="10.332590748975182"><ele>35.0</ele><time>2026-04-09T11:32:52Z</time></trkpt><trkpt lat="36.87245650782334" lon="10.332521646553367"><ele>35.0</ele><time>2026-04-09T11:32:53Z</time></trkpt><trkpt lat="36.872570343437204" lon="10.332452401593134"><ele>35.0</ele><time>2026-04-09T11:32:54Z</time></trkpt><trkpt lat="36.87267733387763" lon="10.332392312083194"><ele>35.0</ele><time>2026-04-09T11:32:55Z</time></trkpt><trkpt lat="36.87277990552104" lon="10.332337589725693"><ele>35.0</ele><time>2026-04-09T11:32:56Z</time></trkpt><trkpt lat="36.87287537712517" lon="10.332287015146187"><ele>35.0</ele><time>2026-04-09T11:32:57Z</time></trkpt><trkpt lat="36.87296475544008" lon="10.332238612161218"><ele>35.0</ele><time>2026-04-09T11:32:58Z</time></trkpt><trkpt lat="36.87304980568573" lon="10.332195302297707"><ele>35.0</ele><time>2026-04-09T11:32:59Z</time></trkpt><trkpt lat="36.87312602443703" lon="10.33215401559102"><ele>35.0</ele><time>2026-04-09T11:33:00Z</time></trkpt><trkpt lat="36.87319506459572" lon="10.332119437367346"><ele>35.0</ele><time>2026-04-09T11:33:01Z</time></trkpt><trkpt lat="36.87326638841896" lon="10.332105201982495"><ele>35.0</ele><time>2026-04-09T11:33:02Z</time></trkpt><trkpt lat="36.87337612671819" lon="10.332177245901187"><ele>35.0</ele><time>2026-04-09T11:33:04Z</time></trkpt><trkpt lat="36.87341587369617" lon="10.332248063575648"><ele>35.0</ele><time>2026-04-09T11:33:05Z</time></trkpt><trkpt lat="36.8734501563161" lon="10.3323398371169"><ele>35.0</ele><time>2026-04-09T11:33:06Z</time></trkpt><trkpt lat="36.873476493311045" lon="10.332453186803482"><ele>35.0</ele><time>2026-04-09T11:33:07Z</time></trkpt><trkpt lat="36.873487440020334" lon="10.332602970794959"><ele>34.5</ele><time>2026-04-09T11:33:08Z</time></trkpt><trkpt lat="36.873480164069285" lon="10.332789891279345"><ele>34.0</ele><time>2026-04-09T11:33:09Z</time></trkpt><trkpt lat="36.873468057909875" lon="10.332976736019853"><ele>33.5</ele><time>2026-04-09T11:33:10Z</time></trkpt><trkpt lat="36.873460431725604" lon="10.333142538888804"><ele>33.0</ele><time>2026-04-09T11:33:11Z</time></trkpt><trkpt lat="36.87345980879094" lon="10.33329223948791"><ele>32.8</ele><time>2026-04-09T11:33:12Z</time></trkpt><trkpt lat="36.87346108998403" lon="10.333431084262829"><ele>32.599999999999994</ele><time>2026-04-09T11:33:13Z</time></trkpt><trkpt lat="36.873460256754115" lon="10.33356391266727"><ele>32.400000000000006</ele><time>2026-04-09T11:33:14Z</time></trkpt><trkpt lat="36.873456431090794" lon="10.333696717526841"><ele>32.2</ele><time>2026-04-09T11:33:15Z</time></trkpt><trkpt lat="36.87345129464462" lon="10.333823805071171"><ele>32.0</ele><time>2026-04-09T11:33:16Z</time></trkpt><trkpt lat="36.87344196502259" lon="10.333947763852485"><ele>33.0</ele><time>2026-04-09T11:33:17Z</time></trkpt><trkpt lat="36.87343273003056" lon="10.33406416502321"><ele>34.0</ele><time>2026-04-09T11:33:18Z</time></trkpt><trkpt lat="36.87342196202196" lon="10.334176429272146"><ele>35.0</ele><time>2026-04-09T11:33:19Z</time></trkpt><trkpt lat="36.873407026141365" lon="10.33429374405401"><ele>36.0</ele><time>2026-04-09T11:33:20Z</time></trkpt><trkpt lat="36.87339028988046" lon="10.334421216932993"><ele>37.0</ele><time>2026-04-09T11:33:21Z</time></trkpt><trkpt lat="36.873368066429435" lon="10.334552239364166"><ele>37.0</ele><time>2026-04-09T11:33:22Z</time></trkpt><trkpt lat="36.87334556129147" lon="10.334683262707056"><ele>37.0</ele><time>2026-04-09T11:33:23Z</time></trkpt><trkpt lat="36.87332371387746" lon="10.334808951505902"><ele>37.0</ele><time>2026-04-09T11:33:24Z</time></trkpt><trkpt lat="36.87330248621264" lon="10.334934047650018"><ele>37.0</ele><time>2026-04-09T11:33:25Z</time></trkpt><trkpt lat="36.87328237571804" lon="10.335063830919692"><ele>37.0</ele><time>2026-04-09T11:33:26Z</time></trkpt><trkpt lat="36.8732625198462" lon="10.335194342405568"><ele>36.800000000000004</ele><time>2026-04-09T11:33:27Z</time></trkpt><trkpt lat="36.87324353957942" lon="10.335325835391629"><ele>36.6</ele><time>2026-04-09T11:33:28Z</time></trkpt><trkpt lat="36.873228550142905" lon="10.335460895319247"><ele>36.400000000000006</ele><time>2026-04-09T11:33:29Z</time></trkpt><trkpt lat="36.873218858646595" lon="10.335597021129637"><ele>36.2</ele><time>2026-04-09T11:33:30Z</time></trkpt><trkpt lat="36.87321329570535" lon="10.335736900621686"><ele>36.0</ele><time>2026-04-09T11:33:31Z</time></trkpt><trkpt lat="36.873210354256074" lon="10.335876473969869"><ele>35.75</ele><time>2026-04-09T11:33:32Z</time></trkpt><trkpt lat="36.87320891891378" lon="10.336017066812568"><ele>35.5</ele><time>2026-04-09T11:33:33Z</time></trkpt><trkpt lat="36.873209233593805" lon="10.336158978643525"><ele>35.25</ele><time>2026-04-09T11:33:34Z</time></trkpt><trkpt lat="36.873209035318645" lon="10.336299277827667"><ele>35.0</ele><time>2026-04-09T11:33:35Z</time></trkpt><trkpt lat="36.87320920494627" lon="10.336440088178694"><ele>34.6</ele><time>2026-04-09T11:33:36Z</time></trkpt><trkpt lat="36.873212170725054" lon="10.336578737108406"><ele>34.2</ele><time>2026-04-09T11:33:37Z</time></trkpt><trkpt lat="36.873215213750726" lon="10.336715380803872"><ele>33.8</ele><time>2026-04-09T11:33:38Z</time></trkpt><trkpt lat="36.87322320926678" lon="10.336848914662358"><ele>33.4</ele><time>2026-04-09T11:33:39Z</time></trkpt><trkpt lat="36.87323255909617" lon="10.336981900577763"><ele>33.0</ele><time>2026-04-09T11:33:40Z</time></trkpt><trkpt lat="36.87323683514991" lon="10.337115174774759"><ele>34.0</ele><time>2026-04-09T11:33:41Z</time></trkpt><trkpt lat="36.87324237563639" lon="10.33724599509865"><ele>35.0</ele><time>2026-04-09T11:33:42Z</time></trkpt><trkpt lat="36.873250599831145" lon="10.337381889312047"><ele>36.0</ele><time>2026-04-09T11:33:43Z</time></trkpt><trkpt lat="36.873255961119256" lon="10.337515598547826"><ele>37.0</ele><time>2026-04-09T11:33:44Z</time></trkpt><trkpt lat="36.87326029406443" lon="10.337643760756855"><ele>38.0</ele><time>2026-04-09T11:33:45Z</time></trkpt><trkpt lat="36.87326358584621" lon="10.337774716364091"><ele>38.0</ele><time>2026-04-09T11:33:46Z</time></trkpt><trkpt lat="36.87326340466619" lon="10.337905008510528"><ele>38.0</ele><time>2026-04-09T11:33:47Z</time></trkpt><trkpt lat="36.87325827990173" lon="10.3380325953309"><ele>38.0</ele><time>2026-04-09T11:33:48Z</time></trkpt><trkpt lat="36.873245715037406" lon="10.338155556866607"><ele>38.0</ele><time>2026-04-09T11:33:49Z</time></trkpt><trkpt lat="36.87322446145668" lon="10.33827472065946"><ele>38.0</ele><time>2026-04-09T11:33:50Z</time></trkpt><trkpt lat="36.87319599445988" lon="10.338383187953074"><ele>38.33333333333333</ele><time>2026-04-09T11:33:51Z</time></trkpt><trkpt lat="36.87316605842387" lon="10.338484349543156"><ele>38.666666666666664</ele><time>2026-04-09T11:33:52Z</time></trkpt><trkpt lat="36.87314070465259" lon="10.338578299229184"><ele>39.0</ele><time>2026-04-09T11:33:53Z</time></trkpt><trkpt lat="36.873116782637894" lon="10.33866288008237"><ele>39.333333333333336</ele><time>2026-04-09T11:33:54Z</time></trkpt><trkpt lat="36.8730933977411" lon="10.338743370873432"><ele>39.66666666666667</ele><time>2026-04-09T11:33:55Z</time></trkpt><trkpt lat="36.87304749243128" lon="10.338872914219843"><ele>40.0</ele><time>2026-04-09T11:33:57Z</time></trkpt><trkpt lat="36.87296437337539" lon="10.338969534657618"><ele>40.66666666666667</ele><time>2026-04-09T11:33:59Z</time></trkpt><trkpt lat="36.87287407130877" lon="10.33906953796981"><ele>41.333333333333336</ele><time>2026-04-09T11:34:01Z</time></trkpt><trkpt lat="36.87283805571493" lon="10.33919722105453"><ele>42.0</ele><time>2026-04-09T11:34:03Z</time></trkpt><trkpt lat="36.87283562472429" lon="10.339305804563107"><ele>42.666666666666664</ele><time>2026-04-09T11:34:05Z</time></trkpt><trkpt lat="36.87285599601943" lon="10.339383629808731"><ele>43.33333333333333</ele><time>2026-04-09T11:34:07Z</time></trkpt><trkpt lat="36.87289642947881" lon="10.339451221159234"><ele>44.0</ele><time>2026-04-09T11:34:09Z</time></trkpt><trkpt lat="36.87296868085672" lon="10.33948308484335"><ele>44.0</ele><time>2026-04-09T11:34:11Z</time></trkpt><trkpt lat="36.873031990781215" lon="10.339467546238673"><ele>44.0</ele><time>2026-04-09T11:34:13Z</time></trkpt><trkpt lat="36.87307726025244" lon="10.33941215178144"><ele>44.0</ele><time>2026-04-09T11:34:16Z</time></trkpt><trkpt lat="36.87313721903044" lon="10.339343651045905"><ele>44.0</ele><time>2026-04-09T11:34:20Z</time></trkpt><trkpt lat="36.87318256482292" lon="10.339263826608986"><ele>44.0</ele><time>2026-04-09T11:34:47Z</time></trkpt><trkpt lat="36.87321654374858" lon="10.339183091316587"><ele>44.0</ele><time>2026-04-09T11:35:00Z</time></trkpt><trkpt lat="36.8732288120445" lon="10.339093247994539"><ele>44.0</ele><time>2026-04-09T11:35:58Z</time></trkpt><trkpt lat="36.873278926227805" lon="10.339026918802285"><ele>44.0</ele><time>2026-04-09T11:36:14Z</time></trkpt><trkpt lat="36.87334917793681" lon="10.33899436337628"><ele>44.0</ele><time>2026-04-09T11:36:26Z</time></trkpt><trkpt lat="36.87344842497108" lon="10.338970082896493"><ele>44.0</ele><time>2026-04-09T11:36:34Z</time></trkpt><trkpt lat="36.87354098965512" lon="10.338941567245552"><ele>44.0</ele><time>2026-04-09T11:36:36Z</time></trkpt><trkpt lat="36.87363253221518" lon="10.338915497022269"><ele>44.0</ele><time>2026-04-09T11:36:38Z</time></trkpt><trkpt lat="36.87369689094798" lon="10.338909368380813"><ele>44.0</ele><time>2026-04-09T11:36:40Z</time></trkpt><trkpt lat="36.87375686793999" lon="10.338995804489501"><ele>44.142857142857146</ele><time>2026-04-09T11:36:43Z</time></trkpt><trkpt lat="36.87379418765162" lon="10.339068884104377"><ele>44.285714285714285</ele><time>2026-04-09T11:36:50Z</time></trkpt><trkpt lat="36.873875360122526" lon="10.339040186817902"><ele>44.42857142857143</ele><time>2026-04-09T11:36:53Z</time></trkpt><trkpt lat="36.87391114470947" lon="10.338971417192957"><ele>44.57142857142857</ele><time>2026-04-09T11:36:56Z</time></trkpt><trkpt lat="36.87386108880883" lon="10.339031874972722"><ele>44.714285714285715</ele><time>2026-04-09T11:37:53Z</time></trkpt><trkpt lat="36.87380745745047" lon="10.33907488200193"><ele>44.857142857142854</ele><time>2026-04-09T11:37:55Z</time></trkpt><trkpt lat="36.87375022736867" lon="10.339117514960607"><ele>45.0</ele><time>2026-04-09T11:37:58Z</time></trkpt><trkpt lat="36.87380942399741" lon="10.339152881086134"><ele>45.0</ele><time>2026-04-09T11:42:40Z</time></trkpt><trkpt lat="36.87383989596124" lon="10.339227153643273"><ele>45.0</ele><time>2026-04-09T11:42:46Z</time></trkpt><trkpt lat="36.87378202636482" lon="10.339173033786272"><ele>45.0</ele><time>2026-04-09T11:44:19Z</time></trkpt><trkpt lat="36.87375038121882" lon="10.339104309560783"><ele>45.0</ele><time>2026-04-09T11:44:37Z</time></trkpt><trkpt lat="36.873728878198996" lon="10.339029523757299"><ele>45.0</ele><time>2026-04-09T11:46:29Z</time></trkpt><trkpt lat="36.87369609367157" lon="10.338945008491137"><ele>45.0</ele><time>2026-04-09T11:46:46Z</time></trkpt><trkpt lat="36.87363002446625" lon="10.338948969773394"><ele>45.0</ele><time>2026-04-09T11:46:58Z</time></trkpt><trkpt lat="36.87356497975919" lon="10.338963689405796"><ele>45.0</ele><time>2026-04-09T11:47:06Z</time></trkpt><trkpt lat="36.87350135429679" lon="10.338976544931548"><ele>45.0</ele><time>2026-04-09T11:47:14Z</time></trkpt><trkpt lat="36.87344215826674" lon="10.339027745388574"><ele>45.0</ele><time>2026-04-09T11:47:23Z</time></trkpt><trkpt lat="36.87338120369242" lon="10.339062744860266"><ele>45.0</ele><time>2026-04-09T11:47:32Z</time></trkpt><trkpt lat="36.8733209306335" lon="10.339085999953646"><ele>45.0</ele><time>2026-04-09T11:47:41Z</time></trkpt><trkpt lat="36.873261784483475" lon="10.339179129352273"><ele>45.0</ele><time>2026-04-09T11:48:06Z</time></trkpt><trkpt lat="36.87323610851934" lon="10.339259761088002"><ele>45.0</ele><time>2026-04-09T11:48:14Z</time></trkpt><trkpt lat="36.87320469399402" lon="10.339329352172467"><ele>44.857142857142854</ele><time>2026-04-09T11:48:21Z</time></trkpt><trkpt lat="36.873157503247846" lon="10.339381655554462"><ele>44.714285714285715</ele><time>2026-04-09T11:48:29Z</time></trkpt><trkpt lat="36.87312067765826" lon="10.33945718585316"><ele>44.57142857142857</ele><time>2026-04-09T11:48:37Z</time></trkpt><trkpt lat="36.873073956542164" lon="10.339520460285222"><ele>44.42857142857143</ele><time>2026-04-09T11:48:43Z</time></trkpt><trkpt lat="36.87303107102215" lon="10.339590438190276"><ele>44.285714285714285</ele><time>2026-04-09T11:48:51Z</time></trkpt><trkpt lat="36.872984690173524" lon="10.33965506008709"><ele>44.142857142857146</ele><time>2026-04-09T11:48:58Z</time></trkpt><trkpt lat="36.87294890045644" lon="10.339728822206565"><ele>44.0</ele><time>2026-04-09T11:49:06Z</time></trkpt><trkpt lat="36.872922905062545" lon="10.339802851568816"><ele>45.0</ele><time>2026-04-09T11:49:13Z</time></trkpt><trkpt lat="36.872877956544244" lon="10.339857959684018"><ele>46.0</ele><time>2026-04-09T11:49:20Z</time></trkpt><trkpt lat="36.87284710068178" lon="10.339932709946913"><ele>47.0</ele><time>2026-04-09T11:49:26Z</time></trkpt><trkpt lat="36.87280695738291" lon="10.339997202089888"><ele>48.0</ele><time>2026-04-09T11:49:33Z</time></trkpt><trkpt lat="36.87277697575712" lon="10.34007929829569"><ele>49.0</ele><time>2026-04-09T11:49:41Z</time></trkpt><trkpt lat="36.872719456493805" lon="10.340133293934612"><ele>50.0</ele><time>2026-04-09T11:49:47Z</time></trkpt><trkpt lat="36.87267819284425" lon="10.340194253384583"><ele>51.0</ele><time>2026-04-09T11:49:53Z</time></trkpt><trkpt lat="36.87262823899316" lon="10.340252980603744"><ele>51.0</ele><time>2026-04-09T11:50:00Z</time></trkpt><trkpt lat="36.872579840993424" lon="10.340307027999854"><ele>51.0</ele><time>2026-04-09T11:50:06Z</time></trkpt><trkpt lat="36.87252090823034" lon="10.340354512112025"><ele>51.0</ele><time>2026-04-09T11:50:14Z</time></trkpt><trkpt lat="36.872495422077556" lon="10.340429328812991"><ele>51.0</ele><time>2026-04-09T11:50:21Z</time></trkpt><trkpt lat="36.87244901494468" lon="10.34048829335131"><ele>51.0</ele><time>2026-04-09T11:50:27Z</time></trkpt><trkpt lat="36.87239930036977" lon="10.340545877414378"><ele>51.0</ele><time>2026-04-09T11:50:34Z</time></trkpt><trkpt lat="36.87234921919246" lon="10.340597594447447"><ele>51.0</ele><time>2026-04-09T11:50:44Z</time></trkpt><trkpt lat="36.87230887611261" lon="10.340673917217952"><ele>51.0</ele><time>2026-04-09T11:50:52Z</time></trkpt><trkpt lat="36.87226432242723" lon="10.340730831379439"><ele>51.0</ele><time>2026-04-09T11:51:01Z</time></trkpt><trkpt lat="36.87220713419529" lon="10.340778397357449"><ele>51.0</ele><time>2026-04-09T11:51:07Z</time></trkpt><trkpt lat="36.87215983271615" lon="10.340843833745458"><ele>51.0</ele><time>2026-04-09T11:51:14Z</time></trkpt><trkpt lat="36.87211563411581" lon="10.340908524083474"><ele>51.0</ele><time>2026-04-09T11:51:22Z</time></trkpt><trkpt lat="36.87206886948525" lon="10.340964016826133"><ele>51.0</ele><time>2026-04-09T11:51:30Z</time></trkpt><trkpt lat="36.872018302013906" lon="10.341018140126643"><ele>51.0</ele><time>2026-04-09T11:51:37Z</time></trkpt><trkpt lat="36.87198399097951" lon="10.3410915515446"><ele>51.0</ele><time>2026-04-09T11:51:44Z</time></trkpt><trkpt lat="36.87193738939458" lon="10.341148728348958"><ele>51.0</ele><time>2026-04-09T11:51:54Z</time></trkpt><trkpt lat="36.87189952243914" lon="10.341214984956956"><ele>51.0</ele><time>2026-04-09T11:52:07Z</time></trkpt><trkpt lat="36.871886555182435" lon="10.34129932489621"><ele>51.0</ele><time>2026-04-09T11:54:25Z</time></trkpt><trkpt lat="36.871949675107366" lon="10.341383011631532"><ele>51.0</ele><time>2026-04-09T11:54:33Z</time></trkpt><trkpt lat="36.87187577916933" lon="10.341263502329324"><ele>51.0</ele><time>2026-04-09T11:56:06.679Z</time></trkpt><trkpt lat="36.871793810957485" lon="10.341257798430775"><ele>51.0</ele><time>2026-04-09T11:56:42.999Z</time></trkpt><trkpt lat="36.871871950231714" lon="10.341197645109578"><ele>51.0</ele><time>2026-04-09T11:56:52Z</time></trkpt></trkseg></trk></gpx>